<?xml version="1.0" encoding="UTF-8" standalone="no" ?>
<gpx xmlns="http://www.topografix.com/GPX/1/1" xmlns:xsi="http://www.w3.org/2001/XMLSchema-instance" xsi:schemaLocation="http://www.topografix.com/GPX/1/1 http://www.topografix.com/GPX/1/1/gpx.xsd" version="1.1" creator="VisuGPX - https://www.visugpx.com">
  <metadata>
    <name>Vagaventure 2026</name>
  </metadata>
  <trk>
    <name><![CDATA[Champagnat Cyclisme]]></name>
    <desc><![CDATA[]]></desc>
    <extensions>
      <line xmlns="http://www.topografix.com/GPX/gpx_style/0/2">
        <color>ff0000</color>
        <opacity>1</opacity>
        <width>3</width>
      </line>
    </extensions>
    <trkseg>
      <trkpt lat="46.32828" lon="2.59277">
        <ele>231.1</ele>
        <time>2026-08-06T07:41:24.000Z</time>
      </trkpt>
      <trkpt lat="46.32825" lon="2.59277">
        <ele>231.1</ele>
        <time>2026-08-06T07:41:25.000Z</time>
      </trkpt>
      <trkpt lat="46.32823" lon="2.59277">
        <ele>231.1</ele>
        <time>2026-08-06T07:41:26.000Z</time>
      </trkpt>
      <trkpt lat="46.3282" lon="2.59278">
        <ele>231</ele>
        <time>2026-08-06T07:41:27.000Z</time>
      </trkpt>
      <trkpt lat="46.32818" lon="2.59278">
        <ele>231</ele>
        <time>2026-08-06T07:41:28.000Z</time>
      </trkpt>
      <trkpt lat="46.32811" lon="2.59281">
        <ele>230.8</ele>
        <time>2026-08-06T07:41:32.000Z</time>
      </trkpt>
      <trkpt lat="46.3281" lon="2.59283">
        <ele>230.6</ele>
        <time>2026-08-06T07:41:33.000Z</time>
      </trkpt>
      <trkpt lat="46.32811" lon="2.59296">
        <ele>229.6</ele>
        <time>2026-08-06T07:41:36.000Z</time>
      </trkpt>
      <trkpt lat="46.32819" lon="2.59323">
        <ele>227.9</ele>
        <time>2026-08-06T07:41:40.000Z</time>
      </trkpt>
      <trkpt lat="46.32823" lon="2.59338">
        <ele>226.7</ele>
        <time>2026-08-06T07:41:42.000Z</time>
      </trkpt>
      <trkpt lat="46.32824" lon="2.59347">
        <ele>225.7</ele>
        <time>2026-08-06T07:41:43.000Z</time>
      </trkpt>
      <trkpt lat="46.32825" lon="2.59366">
        <ele>223.9</ele>
        <time>2026-08-06T07:41:45.000Z</time>
      </trkpt>
      <trkpt lat="46.32827" lon="2.59386">
        <ele>222.2</ele>
        <time>2026-08-06T07:41:47.000Z</time>
      </trkpt>
      <trkpt lat="46.32828" lon="2.59396">
        <ele>221.3</ele>
        <time>2026-08-06T07:41:48.000Z</time>
      </trkpt>
      <trkpt lat="46.32833" lon="2.59417">
        <ele>219.1</ele>
        <time>2026-08-06T07:41:50.000Z</time>
      </trkpt>
      <trkpt lat="46.32837" lon="2.59438">
        <ele>219</ele>
        <time>2026-08-06T07:41:52.000Z</time>
      </trkpt>
      <trkpt lat="46.32842" lon="2.5946">
        <ele>217.5</ele>
        <time>2026-08-06T07:41:54.000Z</time>
      </trkpt>
      <trkpt lat="46.32848" lon="2.59482">
        <ele>216.1</ele>
        <time>2026-08-06T07:41:56.000Z</time>
      </trkpt>
      <trkpt lat="46.32851" lon="2.59494">
        <ele>215.6</ele>
        <time>2026-08-06T07:41:57.000Z</time>
      </trkpt>
      <trkpt lat="46.32854" lon="2.59505">
        <ele>214.9</ele>
        <time>2026-08-06T07:41:58.000Z</time>
      </trkpt>
      <trkpt lat="46.32862" lon="2.59541">
        <ele>212.5</ele>
        <time>2026-08-06T07:42:01.000Z</time>
      </trkpt>
      <trkpt lat="46.3287" lon="2.59574">
        <ele>211.8</ele>
        <time>2026-08-06T07:42:04.000Z</time>
      </trkpt>
      <trkpt lat="46.32875" lon="2.59594">
        <ele>211.1</ele>
        <time>2026-08-06T07:42:06.000Z</time>
      </trkpt>
      <trkpt lat="46.32882" lon="2.59619">
        <ele>210.3</ele>
        <time>2026-08-06T07:42:09.000Z</time>
      </trkpt>
      <trkpt lat="46.32882" lon="2.59619">
        <ele>210.3</ele>
        <time>2026-08-06T07:42:10.000Z</time>
      </trkpt>
      <trkpt lat="46.32885" lon="2.59633">
        <ele>210.1</ele>
        <time>2026-08-06T07:42:11.000Z</time>
      </trkpt>
      <trkpt lat="46.32886" lon="2.59646">
        <ele>209.9</ele>
        <time>2026-08-06T07:42:14.000Z</time>
      </trkpt>
      <trkpt lat="46.32886" lon="2.59649">
        <ele>209.8</ele>
        <time>2026-08-06T07:42:15.000Z</time>
      </trkpt>
      <trkpt lat="46.32886" lon="2.5965">
        <ele>209.7</ele>
        <time>2026-08-06T07:42:18.000Z</time>
      </trkpt>
      <trkpt lat="46.32886" lon="2.5965">
        <ele>209.7</ele>
        <time>2026-08-06T07:42:19.000Z</time>
      </trkpt>
      <trkpt lat="46.32887" lon="2.59656">
        <ele>209.5</ele>
        <time>2026-08-06T07:42:56.000Z</time>
      </trkpt>
      <trkpt lat="46.32886" lon="2.59665">
        <ele>209.1</ele>
        <time>2026-08-06T07:42:58.000Z</time>
      </trkpt>
      <trkpt lat="46.32882" lon="2.5968">
        <ele>209.1</ele>
        <time>2026-08-06T07:43:01.000Z</time>
      </trkpt>
      <trkpt lat="46.32877" lon="2.5969">
        <ele>209.1</ele>
        <time>2026-08-06T07:43:03.000Z</time>
      </trkpt>
      <trkpt lat="46.32856" lon="2.59711">
        <ele>209.2</ele>
        <time>2026-08-06T07:43:09.000Z</time>
      </trkpt>
      <trkpt lat="46.32854" lon="2.59712">
        <ele>209.3</ele>
        <time>2026-08-06T07:43:10.000Z</time>
      </trkpt>
      <trkpt lat="46.32852" lon="2.59721">
        <ele>209.3</ele>
        <time>2026-08-06T07:43:12.000Z</time>
      </trkpt>
      <trkpt lat="46.32859" lon="2.5973">
        <ele>208.8</ele>
        <time>2026-08-06T07:43:14.000Z</time>
      </trkpt>
      <trkpt lat="46.32863" lon="2.59734">
        <ele>208.5</ele>
        <time>2026-08-06T07:43:15.000Z</time>
      </trkpt>
      <trkpt lat="46.3289" lon="2.59765">
        <ele>207</ele>
        <time>2026-08-06T07:43:21.000Z</time>
      </trkpt>
      <trkpt lat="46.3291" lon="2.5979">
        <ele>206.5</ele>
        <time>2026-08-06T07:43:26.000Z</time>
      </trkpt>
      <trkpt lat="46.32925" lon="2.59806">
        <ele>206.7</ele>
        <time>2026-08-06T07:43:29.000Z</time>
      </trkpt>
      <trkpt lat="46.32961" lon="2.59845">
        <ele>206.1</ele>
        <time>2026-08-06T07:43:37.000Z</time>
      </trkpt>
      <trkpt lat="46.32999" lon="2.59889">
        <ele>206.9</ele>
        <time>2026-08-06T07:43:47.000Z</time>
      </trkpt>
      <trkpt lat="46.33025" lon="2.59916">
        <ele>206.7</ele>
        <time>2026-08-06T07:43:54.000Z</time>
      </trkpt>
      <trkpt lat="46.33036" lon="2.59929">
        <ele>205</ele>
        <time>2026-08-06T07:43:59.000Z</time>
      </trkpt>
      <trkpt lat="46.33055" lon="2.59949">
        <ele>201.1</ele>
        <time>2026-08-06T07:44:06.000Z</time>
      </trkpt>
      <trkpt lat="46.33078" lon="2.59973">
        <ele>201</ele>
        <time>2026-08-06T07:44:13.000Z</time>
      </trkpt>
      <trkpt lat="46.33096" lon="2.59993">
        <ele>204.5</ele>
        <time>2026-08-06T07:44:20.000Z</time>
      </trkpt>
      <trkpt lat="46.33098" lon="2.60008">
        <ele>205.8</ele>
        <time>2026-08-06T07:44:24.000Z</time>
      </trkpt>
      <trkpt lat="46.33094" lon="2.6002">
        <ele>206.6</ele>
        <time>2026-08-06T07:44:27.000Z</time>
      </trkpt>
      <trkpt lat="46.3309" lon="2.60032">
        <ele>207.2</ele>
        <time>2026-08-06T07:44:30.000Z</time>
      </trkpt>
      <trkpt lat="46.33084" lon="2.60037">
        <ele>207</ele>
        <time>2026-08-06T07:44:33.000Z</time>
      </trkpt>
      <trkpt lat="46.33075" lon="2.60057">
        <ele>205.2</ele>
        <time>2026-08-06T07:44:39.000Z</time>
      </trkpt>
      <trkpt lat="46.33064" lon="2.60084">
        <ele>204.9</ele>
        <time>2026-08-06T07:44:46.000Z</time>
      </trkpt>
      <trkpt lat="46.33046" lon="2.60126">
        <ele>205.6</ele>
        <time>2026-08-06T07:44:55.000Z</time>
      </trkpt>
      <trkpt lat="46.33033" lon="2.60153">
        <ele>206.2</ele>
        <time>2026-08-06T07:45:01.000Z</time>
      </trkpt>
      <trkpt lat="46.33018" lon="2.60188">
        <ele>206.2</ele>
        <time>2026-08-06T07:45:08.000Z</time>
      </trkpt>
      <trkpt lat="46.33005" lon="2.60218">
        <ele>206.9</ele>
        <time>2026-08-06T07:45:15.000Z</time>
      </trkpt>
      <trkpt lat="46.32999" lon="2.60228">
        <ele>206.9</ele>
        <time>2026-08-06T07:45:19.000Z</time>
      </trkpt>
      <trkpt lat="46.32999" lon="2.60228">
        <ele>206.9</ele>
        <time>2026-08-06T07:45:21.000Z</time>
      </trkpt>
      <trkpt lat="46.32996" lon="2.60238">
        <ele>206.6</ele>
        <time>2026-08-06T07:46:30.000Z</time>
      </trkpt>
      <trkpt lat="46.32995" lon="2.60241">
        <ele>206.5</ele>
        <time>2026-08-06T07:46:31.000Z</time>
      </trkpt>
      <trkpt lat="46.32986" lon="2.60261">
        <ele>206.2</ele>
        <time>2026-08-06T07:46:37.000Z</time>
      </trkpt>
      <trkpt lat="46.32977" lon="2.60286">
        <ele>206.4</ele>
        <time>2026-08-06T07:46:44.000Z</time>
      </trkpt>
      <trkpt lat="46.32965" lon="2.60317">
        <ele>206.8</ele>
        <time>2026-08-06T07:46:52.000Z</time>
      </trkpt>
      <trkpt lat="46.32949" lon="2.60357">
        <ele>206.9</ele>
        <time>2026-08-06T07:47:01.000Z</time>
      </trkpt>
      <trkpt lat="46.32935" lon="2.60405">
        <ele>208</ele>
        <time>2026-08-06T07:47:11.000Z</time>
      </trkpt>
      <trkpt lat="46.32927" lon="2.60435">
        <ele>208</ele>
        <time>2026-08-06T07:47:17.000Z</time>
      </trkpt>
      <trkpt lat="46.3292" lon="2.60459">
        <ele>208</ele>
        <time>2026-08-06T07:47:23.000Z</time>
      </trkpt>
      <trkpt lat="46.32917" lon="2.60473">
        <ele>208</ele>
        <time>2026-08-06T07:47:26.000Z</time>
      </trkpt>
      <trkpt lat="46.32915" lon="2.60483">
        <ele>207.9</ele>
        <time>2026-08-06T07:47:28.000Z</time>
      </trkpt>
      <trkpt lat="46.32907" lon="2.60512">
        <ele>207.9</ele>
        <time>2026-08-06T07:47:36.000Z</time>
      </trkpt>
      <trkpt lat="46.32906" lon="2.60517">
        <ele>208</ele>
        <time>2026-08-06T07:47:37.000Z</time>
      </trkpt>
      <trkpt lat="46.32898" lon="2.60544">
        <ele>208.1</ele>
        <time>2026-08-06T07:47:44.000Z</time>
      </trkpt>
      <trkpt lat="46.32889" lon="2.60577">
        <ele>208.8</ele>
        <time>2026-08-06T07:47:52.000Z</time>
      </trkpt>
      <trkpt lat="46.32885" lon="2.60597">
        <ele>208.9</ele>
        <time>2026-08-06T07:47:57.000Z</time>
      </trkpt>
      <trkpt lat="46.32879" lon="2.60624">
        <ele>209.2</ele>
        <time>2026-08-06T07:48:04.000Z</time>
      </trkpt>
      <trkpt lat="46.32867" lon="2.60652">
        <ele>209.8</ele>
        <time>2026-08-06T07:48:11.000Z</time>
      </trkpt>
      <trkpt lat="46.32861" lon="2.60672">
        <ele>210</ele>
        <time>2026-08-06T07:48:15.000Z</time>
      </trkpt>
      <trkpt lat="46.32851" lon="2.60711">
        <ele>209.8</ele>
        <time>2026-08-06T07:48:23.000Z</time>
      </trkpt>
      <trkpt lat="46.32847" lon="2.60736">
        <ele>209.5</ele>
        <time>2026-08-06T07:48:28.000Z</time>
      </trkpt>
      <trkpt lat="46.32839" lon="2.60767">
        <ele>210.1</ele>
        <time>2026-08-06T07:48:35.000Z</time>
      </trkpt>
      <trkpt lat="46.32831" lon="2.60797">
        <ele>210.8</ele>
        <time>2026-08-06T07:48:42.000Z</time>
      </trkpt>
      <trkpt lat="46.32828" lon="2.60806">
        <ele>210.6</ele>
        <time>2026-08-06T07:48:44.000Z</time>
      </trkpt>
      <trkpt lat="46.32822" lon="2.60831">
        <ele>210.7</ele>
        <time>2026-08-06T07:48:49.000Z</time>
      </trkpt>
      <trkpt lat="46.3282" lon="2.60839">
        <ele>210.9</ele>
        <time>2026-08-06T07:48:53.000Z</time>
      </trkpt>
      <trkpt lat="46.32818" lon="2.60849">
        <ele>211.3</ele>
        <time>2026-08-06T07:49:55.000Z</time>
      </trkpt>
      <trkpt lat="46.32818" lon="2.60855">
        <ele>211.6</ele>
        <time>2026-08-06T07:49:56.000Z</time>
      </trkpt>
      <trkpt lat="46.32819" lon="2.60865">
        <ele>212</ele>
        <time>2026-08-06T07:49:58.000Z</time>
      </trkpt>
      <trkpt lat="46.32822" lon="2.60871">
        <ele>212</ele>
        <time>2026-08-06T07:49:59.000Z</time>
      </trkpt>
      <trkpt lat="46.32826" lon="2.60874">
        <ele>212</ele>
        <time>2026-08-06T07:50:00.000Z</time>
      </trkpt>
      <trkpt lat="46.32834" lon="2.60875">
        <ele>212</ele>
        <time>2026-08-06T07:50:02.000Z</time>
      </trkpt>
      <trkpt lat="46.32859" lon="2.60877">
        <ele>212.5</ele>
        <time>2026-08-06T07:50:08.000Z</time>
      </trkpt>
      <trkpt lat="46.32871" lon="2.60878">
        <ele>212.6</ele>
        <time>2026-08-06T07:50:11.000Z</time>
      </trkpt>
      <trkpt lat="46.32891" lon="2.60879">
        <ele>212.6</ele>
        <time>2026-08-06T07:50:16.000Z</time>
      </trkpt>
      <trkpt lat="46.32901" lon="2.60879">
        <ele>212.2</ele>
        <time>2026-08-06T07:50:18.000Z</time>
      </trkpt>
      <trkpt lat="46.32925" lon="2.6088">
        <ele>211.7</ele>
        <time>2026-08-06T07:50:23.000Z</time>
      </trkpt>
      <trkpt lat="46.32968" lon="2.60882">
        <ele>211.7</ele>
        <time>2026-08-06T07:50:32.000Z</time>
      </trkpt>
      <trkpt lat="46.32996" lon="2.60883">
        <ele>211.8</ele>
        <time>2026-08-06T07:50:39.000Z</time>
      </trkpt>
      <trkpt lat="46.33006" lon="2.60886">
        <ele>211.9</ele>
        <time>2026-08-06T07:50:43.000Z</time>
      </trkpt>
      <trkpt lat="46.33011" lon="2.60893">
        <ele>212.2</ele>
        <time>2026-08-06T07:50:48.000Z</time>
      </trkpt>
      <trkpt lat="46.33011" lon="2.60893">
        <ele>212.2</ele>
        <time>2026-08-06T07:50:50.000Z</time>
      </trkpt>
      <trkpt lat="46.33004" lon="2.60896">
        <ele>212.3</ele>
        <time>2026-08-06T07:53:12.000Z</time>
      </trkpt>
      <trkpt lat="46.33003" lon="2.60897">
        <ele>212.3</ele>
        <time>2026-08-06T07:53:13.000Z</time>
      </trkpt>
      <trkpt lat="46.32999" lon="2.60904">
        <ele>212.6</ele>
        <time>2026-08-06T07:53:20.000Z</time>
      </trkpt>
      <trkpt lat="46.32996" lon="2.60907">
        <ele>212.8</ele>
        <time>2026-08-06T07:53:23.000Z</time>
      </trkpt>
      <trkpt lat="46.3299" lon="2.60911">
        <ele>213.1</ele>
        <time>2026-08-06T07:53:28.000Z</time>
      </trkpt>
      <trkpt lat="46.32985" lon="2.60912">
        <ele>213.3</ele>
        <time>2026-08-06T07:53:30.000Z</time>
      </trkpt>
      <trkpt lat="46.32977" lon="2.60918">
        <ele>213.9</ele>
        <time>2026-08-06T07:53:34.000Z</time>
      </trkpt>
      <trkpt lat="46.32973" lon="2.60923">
        <ele>214.4</ele>
        <time>2026-08-06T07:53:37.000Z</time>
      </trkpt>
      <trkpt lat="46.3297" lon="2.60928">
        <ele>214.8</ele>
        <time>2026-08-06T07:53:40.000Z</time>
      </trkpt>
      <trkpt lat="46.32966" lon="2.60932">
        <ele>215.2</ele>
        <time>2026-08-06T07:53:43.000Z</time>
      </trkpt>
      <trkpt lat="46.32966" lon="2.60935">
        <ele>215.4</ele>
        <time>2026-08-06T07:53:44.000Z</time>
      </trkpt>
      <trkpt lat="46.32961" lon="2.60939">
        <ele>215.9</ele>
        <time>2026-08-06T07:53:48.000Z</time>
      </trkpt>
      <trkpt lat="46.32954" lon="2.60946">
        <ele>216.7</ele>
        <time>2026-08-06T07:53:53.000Z</time>
      </trkpt>
      <trkpt lat="46.32949" lon="2.60951">
        <ele>217.3</ele>
        <time>2026-08-06T07:53:57.000Z</time>
      </trkpt>
      <trkpt lat="46.32946" lon="2.60953">
        <ele>217.6</ele>
        <time>2026-08-06T07:53:59.000Z</time>
      </trkpt>
      <trkpt lat="46.32944" lon="2.60955">
        <ele>217.7</ele>
        <time>2026-08-06T07:54:00.000Z</time>
      </trkpt>
      <trkpt lat="46.32936" lon="2.60963">
        <ele>218.2</ele>
        <time>2026-08-06T07:54:06.000Z</time>
      </trkpt>
      <trkpt lat="46.32931" lon="2.60968">
        <ele>218.6</ele>
        <time>2026-08-06T07:54:10.000Z</time>
      </trkpt>
      <trkpt lat="46.32928" lon="2.60971">
        <ele>218.9</ele>
        <time>2026-08-06T07:54:13.000Z</time>
      </trkpt>
      <trkpt lat="46.32921" lon="2.60979">
        <ele>219.5</ele>
        <time>2026-08-06T07:54:19.000Z</time>
      </trkpt>
      <trkpt lat="46.3291" lon="2.60989">
        <ele>219.9</ele>
        <time>2026-08-06T07:54:27.000Z</time>
      </trkpt>
      <trkpt lat="46.32897" lon="2.61003">
        <ele>220.8</ele>
        <time>2026-08-06T07:54:35.000Z</time>
      </trkpt>
      <trkpt lat="46.32889" lon="2.61013">
        <ele>221.9</ele>
        <time>2026-08-06T07:54:39.000Z</time>
      </trkpt>
      <trkpt lat="46.32883" lon="2.61019">
        <ele>222</ele>
        <time>2026-08-06T07:54:42.000Z</time>
      </trkpt>
      <trkpt lat="46.32868" lon="2.61037">
        <ele>222.1</ele>
        <time>2026-08-06T07:54:50.000Z</time>
      </trkpt>
      <trkpt lat="46.32861" lon="2.61046">
        <ele>222</ele>
        <time>2026-08-06T07:54:54.000Z</time>
      </trkpt>
      <trkpt lat="46.32854" lon="2.61055">
        <ele>222.4</ele>
        <time>2026-08-06T07:54:58.000Z</time>
      </trkpt>
      <trkpt lat="46.32842" lon="2.61076">
        <ele>224</ele>
        <time>2026-08-06T07:55:06.000Z</time>
      </trkpt>
      <trkpt lat="46.3283" lon="2.61099">
        <ele>224.7</ele>
        <time>2026-08-06T07:55:15.000Z</time>
      </trkpt>
      <trkpt lat="46.32822" lon="2.61116">
        <ele>225.8</ele>
        <time>2026-08-06T07:55:21.000Z</time>
      </trkpt>
      <trkpt lat="46.3282" lon="2.61119">
        <ele>225.9</ele>
        <time>2026-08-06T07:55:22.000Z</time>
      </trkpt>
      <trkpt lat="46.32814" lon="2.61137">
        <ele>225.9</ele>
        <time>2026-08-06T07:55:28.000Z</time>
      </trkpt>
      <trkpt lat="46.32811" lon="2.61142">
        <ele>225.6</ele>
        <time>2026-08-06T07:55:30.000Z</time>
      </trkpt>
      <trkpt lat="46.32809" lon="2.61149">
        <ele>225.4</ele>
        <time>2026-08-06T07:55:32.000Z</time>
      </trkpt>
      <trkpt lat="46.328" lon="2.61178">
        <ele>224.5</ele>
        <time>2026-08-06T07:55:41.000Z</time>
      </trkpt>
      <trkpt lat="46.32795" lon="2.61199">
        <ele>224.7</ele>
        <time>2026-08-06T07:55:48.000Z</time>
      </trkpt>
      <trkpt lat="46.32788" lon="2.61229">
        <ele>225.6</ele>
        <time>2026-08-06T07:55:57.000Z</time>
      </trkpt>
      <trkpt lat="46.32784" lon="2.61244">
        <ele>226.2</ele>
        <time>2026-08-06T07:56:02.000Z</time>
      </trkpt>
      <trkpt lat="46.32783" lon="2.61247">
        <ele>226.4</ele>
        <time>2026-08-06T07:56:03.000Z</time>
      </trkpt>
      <trkpt lat="46.32782" lon="2.61278">
        <ele>226.9</ele>
        <time>2026-08-06T07:56:11.000Z</time>
      </trkpt>
      <trkpt lat="46.3278" lon="2.61309">
        <ele>227.6</ele>
        <time>2026-08-06T07:56:19.000Z</time>
      </trkpt>
      <trkpt lat="46.32777" lon="2.61343">
        <ele>227.3</ele>
        <time>2026-08-06T07:56:28.000Z</time>
      </trkpt>
      <trkpt lat="46.32776" lon="2.6137">
        <ele>227.7</ele>
        <time>2026-08-06T07:56:35.000Z</time>
      </trkpt>
      <trkpt lat="46.32773" lon="2.61402">
        <ele>227.9</ele>
        <time>2026-08-06T07:56:43.000Z</time>
      </trkpt>
      <trkpt lat="46.32772" lon="2.61413">
        <ele>228.2</ele>
        <time>2026-08-06T07:56:46.000Z</time>
      </trkpt>
      <trkpt lat="46.32771" lon="2.61422">
        <ele>228.4</ele>
        <time>2026-08-06T07:56:49.000Z</time>
      </trkpt>
      <trkpt lat="46.32769" lon="2.61448">
        <ele>228.5</ele>
        <time>2026-08-06T07:56:57.000Z</time>
      </trkpt>
      <trkpt lat="46.32769" lon="2.61452">
        <ele>228.5</ele>
        <time>2026-08-06T07:56:58.000Z</time>
      </trkpt>
      <trkpt lat="46.32767" lon="2.61475">
        <ele>228.4</ele>
        <time>2026-08-06T07:57:04.000Z</time>
      </trkpt>
      <trkpt lat="46.32765" lon="2.61498">
        <ele>228.5</ele>
        <time>2026-08-06T07:57:10.000Z</time>
      </trkpt>
      <trkpt lat="46.3276" lon="2.61527">
        <ele>228.7</ele>
        <time>2026-08-06T07:57:17.000Z</time>
      </trkpt>
      <trkpt lat="46.32758" lon="2.61534">
        <ele>228.9</ele>
        <time>2026-08-06T07:57:19.000Z</time>
      </trkpt>
      <trkpt lat="46.32753" lon="2.61551">
        <ele>229.7</ele>
        <time>2026-08-06T07:57:24.000Z</time>
      </trkpt>
      <trkpt lat="46.32748" lon="2.61569">
        <ele>229.2</ele>
        <time>2026-08-06T07:57:30.000Z</time>
      </trkpt>
      <trkpt lat="46.32742" lon="2.6159">
        <ele>228</ele>
        <time>2026-08-06T07:57:36.000Z</time>
      </trkpt>
      <trkpt lat="46.32741" lon="2.61593">
        <ele>227.9</ele>
        <time>2026-08-06T07:57:37.000Z</time>
      </trkpt>
      <trkpt lat="46.32736" lon="2.61616">
        <ele>228.8</ele>
        <time>2026-08-06T07:57:43.000Z</time>
      </trkpt>
      <trkpt lat="46.32731" lon="2.61639">
        <ele>230.4</ele>
        <time>2026-08-06T07:57:49.000Z</time>
      </trkpt>
      <trkpt lat="46.32727" lon="2.61659">
        <ele>231.5</ele>
        <time>2026-08-06T07:57:55.000Z</time>
      </trkpt>
      <trkpt lat="46.32724" lon="2.61671">
        <ele>232.1</ele>
        <time>2026-08-06T07:58:00.000Z</time>
      </trkpt>
      <trkpt lat="46.32719" lon="2.6168">
        <ele>232.3</ele>
        <time>2026-08-06T07:58:04.000Z</time>
      </trkpt>
      <trkpt lat="46.32718" lon="2.61682">
        <ele>232.4</ele>
        <time>2026-08-06T07:58:05.000Z</time>
      </trkpt>
      <trkpt lat="46.32717" lon="2.61686">
        <ele>232.5</ele>
        <time>2026-08-06T07:58:06.000Z</time>
      </trkpt>
      <trkpt lat="46.32713" lon="2.61711">
        <ele>233.1</ele>
        <time>2026-08-06T07:58:13.000Z</time>
      </trkpt>
      <trkpt lat="46.32708" lon="2.6173">
        <ele>233.7</ele>
        <time>2026-08-06T07:58:19.000Z</time>
      </trkpt>
      <trkpt lat="46.32702" lon="2.61752">
        <ele>234</ele>
        <time>2026-08-06T07:58:26.000Z</time>
      </trkpt>
      <trkpt lat="46.32697" lon="2.61767">
        <ele>234.1</ele>
        <time>2026-08-06T07:58:32.000Z</time>
      </trkpt>
      <trkpt lat="46.32693" lon="2.61778">
        <ele>234</ele>
        <time>2026-08-06T07:58:36.000Z</time>
      </trkpt>
      <trkpt lat="46.32692" lon="2.61788">
        <ele>234.7</ele>
        <time>2026-08-06T07:58:39.000Z</time>
      </trkpt>
      <trkpt lat="46.32682" lon="2.61816">
        <ele>236.1</ele>
        <time>2026-08-06T07:58:48.000Z</time>
      </trkpt>
      <trkpt lat="46.32673" lon="2.61837">
        <ele>236.5</ele>
        <time>2026-08-06T07:58:55.000Z</time>
      </trkpt>
      <trkpt lat="46.32669" lon="2.61848">
        <ele>236.3</ele>
        <time>2026-08-06T07:59:00.000Z</time>
      </trkpt>
      <trkpt lat="46.32669" lon="2.6185">
        <ele>236.3</ele>
        <time>2026-08-06T07:59:01.000Z</time>
      </trkpt>
      <trkpt lat="46.32663" lon="2.61863">
        <ele>236</ele>
        <time>2026-08-06T07:59:06.000Z</time>
      </trkpt>
      <trkpt lat="46.32653" lon="2.61881">
        <ele>236.9</ele>
        <time>2026-08-06T07:59:11.000Z</time>
      </trkpt>
      <trkpt lat="46.32641" lon="2.61901">
        <ele>236.6</ele>
        <time>2026-08-06T07:59:17.000Z</time>
      </trkpt>
      <trkpt lat="46.32628" lon="2.61924">
        <ele>235.2</ele>
        <time>2026-08-06T07:59:24.000Z</time>
      </trkpt>
      <trkpt lat="46.32613" lon="2.61944">
        <ele>234.2</ele>
        <time>2026-08-06T07:59:32.000Z</time>
      </trkpt>
      <trkpt lat="46.3261" lon="2.61948">
        <ele>234</ele>
        <time>2026-08-06T07:59:34.000Z</time>
      </trkpt>
      <trkpt lat="46.32595" lon="2.61968">
        <ele>235.4</ele>
        <time>2026-08-06T07:59:42.000Z</time>
      </trkpt>
      <trkpt lat="46.32585" lon="2.61981">
        <ele>237.1</ele>
        <time>2026-08-06T07:59:48.000Z</time>
      </trkpt>
      <trkpt lat="46.32582" lon="2.61986">
        <ele>237.3</ele>
        <time>2026-08-06T07:59:50.000Z</time>
      </trkpt>
      <trkpt lat="46.32581" lon="2.61988">
        <ele>237.3</ele>
        <time>2026-08-06T07:59:51.000Z</time>
      </trkpt>
      <trkpt lat="46.32572" lon="2.61998">
        <ele>237.7</ele>
        <time>2026-08-06T07:59:56.000Z</time>
      </trkpt>
      <trkpt lat="46.32561" lon="2.62011">
        <ele>238.3</ele>
        <time>2026-08-06T08:00:02.000Z</time>
      </trkpt>
      <trkpt lat="46.32558" lon="2.62014">
        <ele>238.8</ele>
        <time>2026-08-06T08:00:04.000Z</time>
      </trkpt>
      <trkpt lat="46.32551" lon="2.62023">
        <ele>239.6</ele>
        <time>2026-08-06T08:00:08.000Z</time>
      </trkpt>
      <trkpt lat="46.32542" lon="2.62034">
        <ele>240</ele>
        <time>2026-08-06T08:00:13.000Z</time>
      </trkpt>
      <trkpt lat="46.32531" lon="2.62049">
        <ele>240.6</ele>
        <time>2026-08-06T08:00:20.000Z</time>
      </trkpt>
      <trkpt lat="46.32529" lon="2.62052">
        <ele>240.8</ele>
        <time>2026-08-06T08:00:21.000Z</time>
      </trkpt>
      <trkpt lat="46.32524" lon="2.62059">
        <ele>241.5</ele>
        <time>2026-08-06T08:00:24.000Z</time>
      </trkpt>
      <trkpt lat="46.3252" lon="2.62064">
        <ele>242.1</ele>
        <time>2026-08-06T08:00:26.000Z</time>
      </trkpt>
      <trkpt lat="46.3251" lon="2.62075">
        <ele>243.3</ele>
        <time>2026-08-06T08:00:31.000Z</time>
      </trkpt>
      <trkpt lat="46.32498" lon="2.62091">
        <ele>244.8</ele>
        <time>2026-08-06T08:00:38.000Z</time>
      </trkpt>
      <trkpt lat="46.32497" lon="2.62093">
        <ele>245.1</ele>
        <time>2026-08-06T08:00:39.000Z</time>
      </trkpt>
      <trkpt lat="46.32483" lon="2.62111">
        <ele>246.4</ele>
        <time>2026-08-06T08:00:47.000Z</time>
      </trkpt>
      <trkpt lat="46.32476" lon="2.62123">
        <ele>246.6</ele>
        <time>2026-08-06T08:00:52.000Z</time>
      </trkpt>
      <trkpt lat="46.32461" lon="2.62137">
        <ele>246.9</ele>
        <time>2026-08-06T08:00:57.000Z</time>
      </trkpt>
      <trkpt lat="46.32448" lon="2.62161">
        <ele>246</ele>
        <time>2026-08-06T08:01:03.000Z</time>
      </trkpt>
      <trkpt lat="46.32433" lon="2.6218">
        <ele>247.5</ele>
        <time>2026-08-06T08:01:11.000Z</time>
      </trkpt>
      <trkpt lat="46.3243" lon="2.62184">
        <ele>247.7</ele>
        <time>2026-08-06T08:01:13.000Z</time>
      </trkpt>
      <trkpt lat="46.32424" lon="2.62193">
        <ele>247.8</ele>
        <time>2026-08-06T08:01:17.000Z</time>
      </trkpt>
      <trkpt lat="46.32411" lon="2.6221">
        <ele>247.9</ele>
        <time>2026-08-06T08:01:24.000Z</time>
      </trkpt>
      <trkpt lat="46.32405" lon="2.62216">
        <ele>247.9</ele>
        <time>2026-08-06T08:01:27.000Z</time>
      </trkpt>
      <trkpt lat="46.324" lon="2.62222">
        <ele>247.8</ele>
        <time>2026-08-06T08:01:29.000Z</time>
      </trkpt>
      <trkpt lat="46.32392" lon="2.62233">
        <ele>247.8</ele>
        <time>2026-08-06T08:01:33.000Z</time>
      </trkpt>
      <trkpt lat="46.3238" lon="2.62248">
        <ele>248</ele>
        <time>2026-08-06T08:01:39.000Z</time>
      </trkpt>
      <trkpt lat="46.32362" lon="2.62272">
        <ele>248.1</ele>
        <time>2026-08-06T08:01:49.000Z</time>
      </trkpt>
      <trkpt lat="46.32354" lon="2.62282">
        <ele>248.4</ele>
        <time>2026-08-06T08:01:53.000Z</time>
      </trkpt>
      <trkpt lat="46.3235" lon="2.62288">
        <ele>248.8</ele>
        <time>2026-08-06T08:01:55.000Z</time>
      </trkpt>
      <trkpt lat="46.32336" lon="2.62306">
        <ele>248.4</ele>
        <time>2026-08-06T08:02:02.000Z</time>
      </trkpt>
      <trkpt lat="46.32313" lon="2.62336">
        <ele>249.3</ele>
        <time>2026-08-06T08:02:14.000Z</time>
      </trkpt>
      <trkpt lat="46.32311" lon="2.62338">
        <ele>249.3</ele>
        <time>2026-08-06T08:02:15.000Z</time>
      </trkpt>
      <trkpt lat="46.32302" lon="2.62354">
        <ele>250.1</ele>
        <time>2026-08-06T08:02:21.000Z</time>
      </trkpt>
      <trkpt lat="46.32283" lon="2.62375">
        <ele>250.3</ele>
        <time>2026-08-06T08:02:30.000Z</time>
      </trkpt>
      <trkpt lat="46.32275" lon="2.62386">
        <ele>249.9</ele>
        <time>2026-08-06T08:02:34.000Z</time>
      </trkpt>
      <trkpt lat="46.32266" lon="2.62399">
        <ele>250.1</ele>
        <time>2026-08-06T08:02:38.000Z</time>
      </trkpt>
      <trkpt lat="46.32243" lon="2.62429">
        <ele>250</ele>
        <time>2026-08-06T08:02:48.000Z</time>
      </trkpt>
      <trkpt lat="46.32218" lon="2.62462">
        <ele>250.3</ele>
        <time>2026-08-06T08:02:59.000Z</time>
      </trkpt>
      <trkpt lat="46.32215" lon="2.62465">
        <ele>250.2</ele>
        <time>2026-08-06T08:03:00.000Z</time>
      </trkpt>
      <trkpt lat="46.32195" lon="2.62493">
        <ele>250.5</ele>
        <time>2026-08-06T08:03:10.000Z</time>
      </trkpt>
      <trkpt lat="46.32178" lon="2.62514">
        <ele>250.8</ele>
        <time>2026-08-06T08:03:18.000Z</time>
      </trkpt>
      <trkpt lat="46.32173" lon="2.6252">
        <ele>251.2</ele>
        <time>2026-08-06T08:03:20.000Z</time>
      </trkpt>
      <trkpt lat="46.32151" lon="2.6255">
        <ele>252</ele>
        <time>2026-08-06T08:03:30.000Z</time>
      </trkpt>
      <trkpt lat="46.3213" lon="2.62577">
        <ele>252.8</ele>
        <time>2026-08-06T08:03:39.000Z</time>
      </trkpt>
      <trkpt lat="46.32116" lon="2.62595">
        <ele>253.3</ele>
        <time>2026-08-06T08:03:45.000Z</time>
      </trkpt>
      <trkpt lat="46.32101" lon="2.62615">
        <ele>253.6</ele>
        <time>2026-08-06T08:03:51.000Z</time>
      </trkpt>
      <trkpt lat="46.3208" lon="2.62638">
        <ele>253.7</ele>
        <time>2026-08-06T08:03:59.000Z</time>
      </trkpt>
      <trkpt lat="46.32053" lon="2.62664">
        <ele>254.4</ele>
        <time>2026-08-06T08:04:08.000Z</time>
      </trkpt>
      <trkpt lat="46.32022" lon="2.6269">
        <ele>254.5</ele>
        <time>2026-08-06T08:04:18.000Z</time>
      </trkpt>
      <trkpt lat="46.31999" lon="2.62708">
        <ele>253.7</ele>
        <time>2026-08-06T08:04:26.000Z</time>
      </trkpt>
      <trkpt lat="46.31978" lon="2.62727">
        <ele>253.5</ele>
        <time>2026-08-06T08:04:34.000Z</time>
      </trkpt>
      <trkpt lat="46.31959" lon="2.62742">
        <ele>252.9</ele>
        <time>2026-08-06T08:04:41.000Z</time>
      </trkpt>
      <trkpt lat="46.31938" lon="2.62761">
        <ele>253.4</ele>
        <time>2026-08-06T08:04:49.000Z</time>
      </trkpt>
      <trkpt lat="46.3192" lon="2.62776">
        <ele>254.7</ele>
        <time>2026-08-06T08:04:56.000Z</time>
      </trkpt>
      <trkpt lat="46.31909" lon="2.62784">
        <ele>255.3</ele>
        <time>2026-08-06T08:05:00.000Z</time>
      </trkpt>
      <trkpt lat="46.31902" lon="2.62791">
        <ele>255.8</ele>
        <time>2026-08-06T08:05:03.000Z</time>
      </trkpt>
      <trkpt lat="46.3188" lon="2.62812">
        <ele>257.9</ele>
        <time>2026-08-06T08:05:11.000Z</time>
      </trkpt>
      <trkpt lat="46.31873" lon="2.6282">
        <ele>258.6</ele>
        <time>2026-08-06T08:05:14.000Z</time>
      </trkpt>
      <trkpt lat="46.31858" lon="2.62832">
        <ele>259</ele>
        <time>2026-08-06T08:05:19.000Z</time>
      </trkpt>
      <trkpt lat="46.31843" lon="2.62849">
        <ele>259.4</ele>
        <time>2026-08-06T08:05:26.000Z</time>
      </trkpt>
      <trkpt lat="46.3183" lon="2.62863">
        <ele>259.8</ele>
        <time>2026-08-06T08:05:32.000Z</time>
      </trkpt>
      <trkpt lat="46.31828" lon="2.62866">
        <ele>259.9</ele>
        <time>2026-08-06T08:05:33.000Z</time>
      </trkpt>
      <trkpt lat="46.31813" lon="2.62888">
        <ele>262</ele>
        <time>2026-08-06T08:05:40.000Z</time>
      </trkpt>
      <trkpt lat="46.31801" lon="2.62909">
        <ele>262.8</ele>
        <time>2026-08-06T08:05:47.000Z</time>
      </trkpt>
      <trkpt lat="46.31785" lon="2.62929">
        <ele>261.2</ele>
        <time>2026-08-06T08:05:54.000Z</time>
      </trkpt>
      <trkpt lat="46.31782" lon="2.62935">
        <ele>260.6</ele>
        <time>2026-08-06T08:05:56.000Z</time>
      </trkpt>
      <trkpt lat="46.31772" lon="2.62952">
        <ele>258.7</ele>
        <time>2026-08-06T08:06:01.000Z</time>
      </trkpt>
      <trkpt lat="46.31753" lon="2.62984">
        <ele>258.7</ele>
        <time>2026-08-06T08:06:10.000Z</time>
      </trkpt>
      <trkpt lat="46.31736" lon="2.63015">
        <ele>259</ele>
        <time>2026-08-06T08:06:19.000Z</time>
      </trkpt>
      <trkpt lat="46.31734" lon="2.63018">
        <ele>259.2</ele>
        <time>2026-08-06T08:06:20.000Z</time>
      </trkpt>
      <trkpt lat="46.31721" lon="2.63041">
        <ele>260.2</ele>
        <time>2026-08-06T08:06:27.000Z</time>
      </trkpt>
      <trkpt lat="46.31709" lon="2.63061">
        <ele>260.4</ele>
        <time>2026-08-06T08:06:34.000Z</time>
      </trkpt>
      <trkpt lat="46.31698" lon="2.6308">
        <ele>261.7</ele>
        <time>2026-08-06T08:06:40.000Z</time>
      </trkpt>
      <trkpt lat="46.31691" lon="2.6309">
        <ele>261.7</ele>
        <time>2026-08-06T08:06:43.000Z</time>
      </trkpt>
      <trkpt lat="46.31679" lon="2.63114">
        <ele>261.5</ele>
        <time>2026-08-06T08:06:50.000Z</time>
      </trkpt>
      <trkpt lat="46.31672" lon="2.63126">
        <ele>261.5</ele>
        <time>2026-08-06T08:06:54.000Z</time>
      </trkpt>
      <trkpt lat="46.31662" lon="2.6314">
        <ele>261.6</ele>
        <time>2026-08-06T08:06:59.000Z</time>
      </trkpt>
      <trkpt lat="46.31653" lon="2.63158">
        <ele>262.2</ele>
        <time>2026-08-06T08:07:05.000Z</time>
      </trkpt>
      <trkpt lat="46.31642" lon="2.63176">
        <ele>263.9</ele>
        <time>2026-08-06T08:07:11.000Z</time>
      </trkpt>
      <trkpt lat="46.31635" lon="2.63191">
        <ele>265.9</ele>
        <time>2026-08-06T08:07:15.000Z</time>
      </trkpt>
      <trkpt lat="46.31629" lon="2.63199">
        <ele>266.9</ele>
        <time>2026-08-06T08:07:17.000Z</time>
      </trkpt>
      <trkpt lat="46.31627" lon="2.63202">
        <ele>267.4</ele>
        <time>2026-08-06T08:07:18.000Z</time>
      </trkpt>
      <trkpt lat="46.31619" lon="2.63217">
        <ele>268.7</ele>
        <time>2026-08-06T08:07:22.000Z</time>
      </trkpt>
      <trkpt lat="46.31596" lon="2.6325">
        <ele>270.7</ele>
        <time>2026-08-06T08:07:31.000Z</time>
      </trkpt>
      <trkpt lat="46.31585" lon="2.6327">
        <ele>272</ele>
        <time>2026-08-06T08:07:37.000Z</time>
      </trkpt>
      <trkpt lat="46.31578" lon="2.63279">
        <ele>272.2</ele>
        <time>2026-08-06T08:07:40.000Z</time>
      </trkpt>
      <trkpt lat="46.31562" lon="2.63303">
        <ele>272.8</ele>
        <time>2026-08-06T08:07:48.000Z</time>
      </trkpt>
      <trkpt lat="46.31543" lon="2.63328">
        <ele>271.1</ele>
        <time>2026-08-06T08:07:56.000Z</time>
      </trkpt>
      <trkpt lat="46.31538" lon="2.63334">
        <ele>270.4</ele>
        <time>2026-08-06T08:07:58.000Z</time>
      </trkpt>
      <trkpt lat="46.31524" lon="2.63349">
        <ele>267.2</ele>
        <time>2026-08-06T08:08:04.000Z</time>
      </trkpt>
      <trkpt lat="46.31502" lon="2.63374">
        <ele>266.4</ele>
        <time>2026-08-06T08:08:13.000Z</time>
      </trkpt>
      <trkpt lat="46.31489" lon="2.63388">
        <ele>269.1</ele>
        <time>2026-08-06T08:08:19.000Z</time>
      </trkpt>
      <trkpt lat="46.31468" lon="2.63409">
        <ele>273.8</ele>
        <time>2026-08-06T08:08:28.000Z</time>
      </trkpt>
      <trkpt lat="46.31463" lon="2.63413">
        <ele>273.7</ele>
        <time>2026-08-06T08:08:30.000Z</time>
      </trkpt>
      <trkpt lat="46.31445" lon="2.6343">
        <ele>273.6</ele>
        <time>2026-08-06T08:08:37.000Z</time>
      </trkpt>
      <trkpt lat="46.31421" lon="2.63454">
        <ele>272.4</ele>
        <time>2026-08-06T08:08:47.000Z</time>
      </trkpt>
      <trkpt lat="46.31399" lon="2.63474">
        <ele>271.6</ele>
        <time>2026-08-06T08:08:56.000Z</time>
      </trkpt>
      <trkpt lat="46.31396" lon="2.63476">
        <ele>271.4</ele>
        <time>2026-08-06T08:08:57.000Z</time>
      </trkpt>
      <trkpt lat="46.31378" lon="2.63492">
        <ele>271.9</ele>
        <time>2026-08-06T08:09:05.000Z</time>
      </trkpt>
      <trkpt lat="46.31362" lon="2.63502">
        <ele>273.4</ele>
        <time>2026-08-06T08:09:10.000Z</time>
      </trkpt>
      <trkpt lat="46.31349" lon="2.6351">
        <ele>273.7</ele>
        <time>2026-08-06T08:09:15.000Z</time>
      </trkpt>
      <trkpt lat="46.31322" lon="2.63528">
        <ele>274.4</ele>
        <time>2026-08-06T08:09:24.000Z</time>
      </trkpt>
      <trkpt lat="46.31319" lon="2.6353">
        <ele>274.4</ele>
        <time>2026-08-06T08:09:25.000Z</time>
      </trkpt>
      <trkpt lat="46.31291" lon="2.63549">
        <ele>274.3</ele>
        <time>2026-08-06T08:09:35.000Z</time>
      </trkpt>
      <trkpt lat="46.31267" lon="2.63566">
        <ele>273.3</ele>
        <time>2026-08-06T08:09:44.000Z</time>
      </trkpt>
      <trkpt lat="46.31261" lon="2.63571">
        <ele>272.8</ele>
        <time>2026-08-06T08:09:46.000Z</time>
      </trkpt>
      <trkpt lat="46.31245" lon="2.63582">
        <ele>270.9</ele>
        <time>2026-08-06T08:09:52.000Z</time>
      </trkpt>
      <trkpt lat="46.31224" lon="2.63596">
        <ele>269.7</ele>
        <time>2026-08-06T08:10:00.000Z</time>
      </trkpt>
      <trkpt lat="46.31219" lon="2.636">
        <ele>269.8</ele>
        <time>2026-08-06T08:10:02.000Z</time>
      </trkpt>
      <trkpt lat="46.31194" lon="2.63617">
        <ele>272.2</ele>
        <time>2026-08-06T08:10:11.000Z</time>
      </trkpt>
      <trkpt lat="46.31166" lon="2.63637">
        <ele>276.8</ele>
        <time>2026-08-06T08:10:21.000Z</time>
      </trkpt>
      <trkpt lat="46.31164" lon="2.63638">
        <ele>277.1</ele>
        <time>2026-08-06T08:10:22.000Z</time>
      </trkpt>
      <trkpt lat="46.31146" lon="2.63651">
        <ele>280</ele>
        <time>2026-08-06T08:10:29.000Z</time>
      </trkpt>
      <trkpt lat="46.31124" lon="2.63666">
        <ele>283</ele>
        <time>2026-08-06T08:10:37.000Z</time>
      </trkpt>
      <trkpt lat="46.31121" lon="2.63668">
        <ele>283.4</ele>
        <time>2026-08-06T08:10:38.000Z</time>
      </trkpt>
      <trkpt lat="46.31107" lon="2.63676">
        <ele>285.3</ele>
        <time>2026-08-06T08:10:43.000Z</time>
      </trkpt>
      <trkpt lat="46.31091" lon="2.63687">
        <ele>287.3</ele>
        <time>2026-08-06T08:10:49.000Z</time>
      </trkpt>
      <trkpt lat="46.31071" lon="2.637">
        <ele>287.5</ele>
        <time>2026-08-06T08:10:56.000Z</time>
      </trkpt>
      <trkpt lat="46.31068" lon="2.63703">
        <ele>287.3</ele>
        <time>2026-08-06T08:10:57.000Z</time>
      </trkpt>
      <trkpt lat="46.3104" lon="2.63723">
        <ele>284.7</ele>
        <time>2026-08-06T08:11:08.000Z</time>
      </trkpt>
      <trkpt lat="46.31028" lon="2.63732">
        <ele>282.9</ele>
        <time>2026-08-06T08:11:13.000Z</time>
      </trkpt>
      <trkpt lat="46.31013" lon="2.63744">
        <ele>282.4</ele>
        <time>2026-08-06T08:11:19.000Z</time>
      </trkpt>
      <trkpt lat="46.30992" lon="2.63762">
        <ele>282.8</ele>
        <time>2026-08-06T08:11:28.000Z</time>
      </trkpt>
      <trkpt lat="46.30976" lon="2.63777">
        <ele>282.6</ele>
        <time>2026-08-06T08:11:35.000Z</time>
      </trkpt>
      <trkpt lat="46.30969" lon="2.63784">
        <ele>282.3</ele>
        <time>2026-08-06T08:11:38.000Z</time>
      </trkpt>
      <trkpt lat="46.30956" lon="2.63798">
        <ele>282.5</ele>
        <time>2026-08-06T08:11:45.000Z</time>
      </trkpt>
      <trkpt lat="46.30931" lon="2.63825">
        <ele>284.3</ele>
        <time>2026-08-06T08:11:56.000Z</time>
      </trkpt>
      <trkpt lat="46.30926" lon="2.63831">
        <ele>284.6</ele>
        <time>2026-08-06T08:11:58.000Z</time>
      </trkpt>
      <trkpt lat="46.30917" lon="2.63842">
        <ele>285.2</ele>
        <time>2026-08-06T08:12:02.000Z</time>
      </trkpt>
      <trkpt lat="46.30899" lon="2.63863">
        <ele>285.3</ele>
        <time>2026-08-06T08:12:10.000Z</time>
      </trkpt>
      <trkpt lat="46.30889" lon="2.63878">
        <ele>284.4</ele>
        <time>2026-08-06T08:12:15.000Z</time>
      </trkpt>
      <trkpt lat="46.30881" lon="2.63888">
        <ele>284.8</ele>
        <time>2026-08-06T08:12:19.000Z</time>
      </trkpt>
      <trkpt lat="46.30863" lon="2.63917">
        <ele>285.5</ele>
        <time>2026-08-06T08:12:29.000Z</time>
      </trkpt>
      <trkpt lat="46.3085" lon="2.6394">
        <ele>286.9</ele>
        <time>2026-08-06T08:12:36.000Z</time>
      </trkpt>
      <trkpt lat="46.30841" lon="2.63958">
        <ele>288.3</ele>
        <time>2026-08-06T08:12:42.000Z</time>
      </trkpt>
      <trkpt lat="46.30831" lon="2.63972">
        <ele>289.4</ele>
        <time>2026-08-06T08:12:47.000Z</time>
      </trkpt>
      <trkpt lat="46.3082" lon="2.63994">
        <ele>290.2</ele>
        <time>2026-08-06T08:12:54.000Z</time>
      </trkpt>
      <trkpt lat="46.30818" lon="2.63998">
        <ele>290.4</ele>
        <time>2026-08-06T08:12:55.000Z</time>
      </trkpt>
      <trkpt lat="46.30803" lon="2.64025">
        <ele>291</ele>
        <time>2026-08-06T08:13:04.000Z</time>
      </trkpt>
      <trkpt lat="46.30797" lon="2.64035">
        <ele>290.3</ele>
        <time>2026-08-06T08:13:07.000Z</time>
      </trkpt>
      <trkpt lat="46.30794" lon="2.64043">
        <ele>290</ele>
        <time>2026-08-06T08:13:10.000Z</time>
      </trkpt>
      <trkpt lat="46.30783" lon="2.64065">
        <ele>289.2</ele>
        <time>2026-08-06T08:13:17.000Z</time>
      </trkpt>
      <trkpt lat="46.30767" lon="2.64093">
        <ele>284.6</ele>
        <time>2026-08-06T08:13:26.000Z</time>
      </trkpt>
      <trkpt lat="46.30756" lon="2.64111">
        <ele>280.8</ele>
        <time>2026-08-06T08:13:33.000Z</time>
      </trkpt>
      <trkpt lat="46.30754" lon="2.64116">
        <ele>279.9</ele>
        <time>2026-08-06T08:13:36.000Z</time>
      </trkpt>
      <trkpt lat="46.30749" lon="2.64124">
        <ele>278.1</ele>
        <time>2026-08-06T08:13:41.000Z</time>
      </trkpt>
      <trkpt lat="46.30749" lon="2.64124">
        <ele>277.8</ele>
        <time>2026-08-06T08:13:43.000Z</time>
      </trkpt>
      <trkpt lat="46.30746" lon="2.64131">
        <ele>275.8</ele>
        <time>2026-08-06T08:16:06.000Z</time>
      </trkpt>
      <trkpt lat="46.30738" lon="2.64147">
        <ele>269.3</ele>
        <time>2026-08-06T08:16:12.000Z</time>
      </trkpt>
      <trkpt lat="46.30728" lon="2.64161">
        <ele>262.6</ele>
        <time>2026-08-06T08:16:19.000Z</time>
      </trkpt>
      <trkpt lat="46.30724" lon="2.64169">
        <ele>259.5</ele>
        <time>2026-08-06T08:16:25.000Z</time>
      </trkpt>
      <trkpt lat="46.30716" lon="2.64184">
        <ele>259.4</ele>
        <time>2026-08-06T08:16:33.000Z</time>
      </trkpt>
      <trkpt lat="46.30707" lon="2.64202">
        <ele>262.9</ele>
        <time>2026-08-06T08:16:40.000Z</time>
      </trkpt>
      <trkpt lat="46.30704" lon="2.64207">
        <ele>264.7</ele>
        <time>2026-08-06T08:16:42.000Z</time>
      </trkpt>
      <trkpt lat="46.30698" lon="2.64219">
        <ele>268.9</ele>
        <time>2026-08-06T08:16:47.000Z</time>
      </trkpt>
      <trkpt lat="46.30696" lon="2.64223">
        <ele>270.4</ele>
        <time>2026-08-06T08:16:49.000Z</time>
      </trkpt>
      <trkpt lat="46.30693" lon="2.64226">
        <ele>272.1</ele>
        <time>2026-08-06T08:16:52.000Z</time>
      </trkpt>
      <trkpt lat="46.30693" lon="2.64228">
        <ele>272.7</ele>
        <time>2026-08-06T08:16:54.000Z</time>
      </trkpt>
      <trkpt lat="46.30693" lon="2.64228">
        <ele>272.9</ele>
        <time>2026-08-06T08:16:57.000Z</time>
      </trkpt>
      <trkpt lat="46.30689" lon="2.64235">
        <ele>275.6</ele>
        <time>2026-08-06T08:17:33.000Z</time>
      </trkpt>
      <trkpt lat="46.30688" lon="2.64236">
        <ele>276.1</ele>
        <time>2026-08-06T08:17:34.000Z</time>
      </trkpt>
      <trkpt lat="46.30681" lon="2.64248">
        <ele>280.5</ele>
        <time>2026-08-06T08:17:41.000Z</time>
      </trkpt>
      <trkpt lat="46.30672" lon="2.64263">
        <ele>285</ele>
        <time>2026-08-06T08:17:47.000Z</time>
      </trkpt>
      <trkpt lat="46.30662" lon="2.64282">
        <ele>288.2</ele>
        <time>2026-08-06T08:17:54.000Z</time>
      </trkpt>
      <trkpt lat="46.30646" lon="2.64313">
        <ele>290.2</ele>
        <time>2026-08-06T08:18:04.000Z</time>
      </trkpt>
      <trkpt lat="46.3064" lon="2.64323">
        <ele>290.8</ele>
        <time>2026-08-06T08:18:07.000Z</time>
      </trkpt>
      <trkpt lat="46.30629" lon="2.64344">
        <ele>291.8</ele>
        <time>2026-08-06T08:18:14.000Z</time>
      </trkpt>
      <trkpt lat="46.30627" lon="2.64347">
        <ele>292</ele>
        <time>2026-08-06T08:18:15.000Z</time>
      </trkpt>
      <trkpt lat="46.30624" lon="2.64353">
        <ele>292.4</ele>
        <time>2026-08-06T08:18:17.000Z</time>
      </trkpt>
      <trkpt lat="46.30617" lon="2.64365">
        <ele>293.4</ele>
        <time>2026-08-06T08:18:21.000Z</time>
      </trkpt>
      <trkpt lat="46.30602" lon="2.64398">
        <ele>294.1</ele>
        <time>2026-08-06T08:18:31.000Z</time>
      </trkpt>
      <trkpt lat="46.306" lon="2.64402">
        <ele>294.2</ele>
        <time>2026-08-06T08:18:32.000Z</time>
      </trkpt>
      <trkpt lat="46.30579" lon="2.64437">
        <ele>295.1</ele>
        <time>2026-08-06T08:18:44.000Z</time>
      </trkpt>
      <trkpt lat="46.30577" lon="2.6444">
        <ele>294.9</ele>
        <time>2026-08-06T08:18:45.000Z</time>
      </trkpt>
      <trkpt lat="46.3056" lon="2.64466">
        <ele>294.1</ele>
        <time>2026-08-06T08:18:54.000Z</time>
      </trkpt>
      <trkpt lat="46.30551" lon="2.64479">
        <ele>293.7</ele>
        <time>2026-08-06T08:18:59.000Z</time>
      </trkpt>
      <trkpt lat="46.30546" lon="2.64485">
        <ele>293.4</ele>
        <time>2026-08-06T08:19:01.000Z</time>
      </trkpt>
      <trkpt lat="46.3053" lon="2.64503">
        <ele>292.6</ele>
        <time>2026-08-06T08:19:09.000Z</time>
      </trkpt>
      <trkpt lat="46.30522" lon="2.64512">
        <ele>293</ele>
        <time>2026-08-06T08:19:13.000Z</time>
      </trkpt>
      <trkpt lat="46.30511" lon="2.64522">
        <ele>293.6</ele>
        <time>2026-08-06T08:19:18.000Z</time>
      </trkpt>
      <trkpt lat="46.30493" lon="2.64536">
        <ele>294.6</ele>
        <time>2026-08-06T08:19:27.000Z</time>
      </trkpt>
      <trkpt lat="46.3048" lon="2.64545">
        <ele>295.1</ele>
        <time>2026-08-06T08:19:33.000Z</time>
      </trkpt>
      <trkpt lat="46.30464" lon="2.64559">
        <ele>296.3</ele>
        <time>2026-08-06T08:19:41.000Z</time>
      </trkpt>
      <trkpt lat="46.30461" lon="2.64562">
        <ele>296.6</ele>
        <time>2026-08-06T08:19:42.000Z</time>
      </trkpt>
      <trkpt lat="46.30449" lon="2.64571">
        <ele>297.6</ele>
        <time>2026-08-06T08:19:47.000Z</time>
      </trkpt>
      <trkpt lat="46.30429" lon="2.64587">
        <ele>299.9</ele>
        <time>2026-08-06T08:19:55.000Z</time>
      </trkpt>
      <trkpt lat="46.30417" lon="2.64593">
        <ele>301</ele>
        <time>2026-08-06T08:20:00.000Z</time>
      </trkpt>
      <trkpt lat="46.30406" lon="2.646">
        <ele>302.1</ele>
        <time>2026-08-06T08:20:05.000Z</time>
      </trkpt>
      <trkpt lat="46.30389" lon="2.64611">
        <ele>303</ele>
        <time>2026-08-06T08:20:13.000Z</time>
      </trkpt>
      <trkpt lat="46.30387" lon="2.64612">
        <ele>303.3</ele>
        <time>2026-08-06T08:20:14.000Z</time>
      </trkpt>
      <trkpt lat="46.30375" lon="2.6462">
        <ele>304.8</ele>
        <time>2026-08-06T08:20:19.000Z</time>
      </trkpt>
      <trkpt lat="46.30357" lon="2.64632">
        <ele>306.8</ele>
        <time>2026-08-06T08:20:27.000Z</time>
      </trkpt>
      <trkpt lat="46.30355" lon="2.64633">
        <ele>307.2</ele>
        <time>2026-08-06T08:20:28.000Z</time>
      </trkpt>
      <trkpt lat="46.30343" lon="2.64642">
        <ele>309.3</ele>
        <time>2026-08-06T08:20:33.000Z</time>
      </trkpt>
      <trkpt lat="46.30333" lon="2.64647">
        <ele>311.4</ele>
        <time>2026-08-06T08:20:36.000Z</time>
      </trkpt>
      <trkpt lat="46.30324" lon="2.64654">
        <ele>312.8</ele>
        <time>2026-08-06T08:20:39.000Z</time>
      </trkpt>
      <trkpt lat="46.3032" lon="2.64657">
        <ele>313.4</ele>
        <time>2026-08-06T08:20:42.000Z</time>
      </trkpt>
      <trkpt lat="46.30313" lon="2.64663">
        <ele>314.2</ele>
        <time>2026-08-06T08:20:45.000Z</time>
      </trkpt>
      <trkpt lat="46.30289" lon="2.64679">
        <ele>314.7</ele>
        <time>2026-08-06T08:20:54.000Z</time>
      </trkpt>
      <trkpt lat="46.30287" lon="2.64681">
        <ele>314.6</ele>
        <time>2026-08-06T08:20:55.000Z</time>
      </trkpt>
      <trkpt lat="46.30262" lon="2.64697">
        <ele>311.6</ele>
        <time>2026-08-06T08:21:03.000Z</time>
      </trkpt>
      <trkpt lat="46.30246" lon="2.64711">
        <ele>308.2</ele>
        <time>2026-08-06T08:21:10.000Z</time>
      </trkpt>
      <trkpt lat="46.3024" lon="2.64715">
        <ele>307.3</ele>
        <time>2026-08-06T08:21:12.000Z</time>
      </trkpt>
      <trkpt lat="46.30217" lon="2.64731">
        <ele>306</ele>
        <time>2026-08-06T08:21:21.000Z</time>
      </trkpt>
      <trkpt lat="46.30201" lon="2.64746">
        <ele>308.8</ele>
        <time>2026-08-06T08:21:29.000Z</time>
      </trkpt>
      <trkpt lat="46.30192" lon="2.64755">
        <ele>310.6</ele>
        <time>2026-08-06T08:21:34.000Z</time>
      </trkpt>
      <trkpt lat="46.30187" lon="2.64761">
        <ele>311.6</ele>
        <time>2026-08-06T08:21:37.000Z</time>
      </trkpt>
      <trkpt lat="46.30181" lon="2.64765">
        <ele>312.6</ele>
        <time>2026-08-06T08:21:39.000Z</time>
      </trkpt>
      <trkpt lat="46.3017" lon="2.64776">
        <ele>314.5</ele>
        <time>2026-08-06T08:21:43.000Z</time>
      </trkpt>
      <trkpt lat="46.30168" lon="2.64779">
        <ele>314.9</ele>
        <time>2026-08-06T08:21:44.000Z</time>
      </trkpt>
      <trkpt lat="46.30153" lon="2.64798">
        <ele>315.4</ele>
        <time>2026-08-06T08:21:50.000Z</time>
      </trkpt>
      <trkpt lat="46.30145" lon="2.64813">
        <ele>315.3</ele>
        <time>2026-08-06T08:21:55.000Z</time>
      </trkpt>
      <trkpt lat="46.30143" lon="2.64818">
        <ele>315.3</ele>
        <time>2026-08-06T08:21:56.000Z</time>
      </trkpt>
      <trkpt lat="46.30131" lon="2.64833">
        <ele>313.5</ele>
        <time>2026-08-06T08:22:02.000Z</time>
      </trkpt>
      <trkpt lat="46.30125" lon="2.64842">
        <ele>313.1</ele>
        <time>2026-08-06T08:22:05.000Z</time>
      </trkpt>
      <trkpt lat="46.30121" lon="2.64851">
        <ele>312.7</ele>
        <time>2026-08-06T08:22:08.000Z</time>
      </trkpt>
      <trkpt lat="46.3011" lon="2.6487">
        <ele>312.4</ele>
        <time>2026-08-06T08:22:14.000Z</time>
      </trkpt>
      <trkpt lat="46.30102" lon="2.64893">
        <ele>314.5</ele>
        <time>2026-08-06T08:22:21.000Z</time>
      </trkpt>
      <trkpt lat="46.301" lon="2.649">
        <ele>314.7</ele>
        <time>2026-08-06T08:22:23.000Z</time>
      </trkpt>
      <trkpt lat="46.30091" lon="2.6492">
        <ele>314.7</ele>
        <time>2026-08-06T08:22:29.000Z</time>
      </trkpt>
      <trkpt lat="46.30083" lon="2.64941">
        <ele>313.7</ele>
        <time>2026-08-06T08:22:35.000Z</time>
      </trkpt>
      <trkpt lat="46.30072" lon="2.64967">
        <ele>313.9</ele>
        <time>2026-08-06T08:22:43.000Z</time>
      </trkpt>
      <trkpt lat="46.3006" lon="2.64993">
        <ele>313.9</ele>
        <time>2026-08-06T08:22:51.000Z</time>
      </trkpt>
      <trkpt lat="46.30056" lon="2.65004">
        <ele>314.7</ele>
        <time>2026-08-06T08:22:54.000Z</time>
      </trkpt>
      <trkpt lat="46.30049" lon="2.65017">
        <ele>316.2</ele>
        <time>2026-08-06T08:22:58.000Z</time>
      </trkpt>
      <trkpt lat="46.30038" lon="2.65042">
        <ele>318.9</ele>
        <time>2026-08-06T08:23:06.000Z</time>
      </trkpt>
      <trkpt lat="46.30031" lon="2.65054">
        <ele>319.9</ele>
        <time>2026-08-06T08:23:10.000Z</time>
      </trkpt>
      <trkpt lat="46.30023" lon="2.65069">
        <ele>319.8</ele>
        <time>2026-08-06T08:23:16.000Z</time>
      </trkpt>
      <trkpt lat="46.30019" lon="2.65074">
        <ele>319.7</ele>
        <time>2026-08-06T08:23:18.000Z</time>
      </trkpt>
      <trkpt lat="46.30007" lon="2.65092">
        <ele>318.8</ele>
        <time>2026-08-06T08:23:25.000Z</time>
      </trkpt>
      <trkpt lat="46.29994" lon="2.65109">
        <ele>317.7</ele>
        <time>2026-08-06T08:23:31.000Z</time>
      </trkpt>
      <trkpt lat="46.29992" lon="2.65112">
        <ele>317.7</ele>
        <time>2026-08-06T08:23:32.000Z</time>
      </trkpt>
      <trkpt lat="46.2998" lon="2.65124">
        <ele>317.9</ele>
        <time>2026-08-06T08:23:38.000Z</time>
      </trkpt>
      <trkpt lat="46.29969" lon="2.65134">
        <ele>318.5</ele>
        <time>2026-08-06T08:23:44.000Z</time>
      </trkpt>
      <trkpt lat="46.29967" lon="2.65136">
        <ele>318.6</ele>
        <time>2026-08-06T08:23:45.000Z</time>
      </trkpt>
      <trkpt lat="46.29954" lon="2.65147">
        <ele>318.4</ele>
        <time>2026-08-06T08:23:51.000Z</time>
      </trkpt>
      <trkpt lat="46.29936" lon="2.65158">
        <ele>317.5</ele>
        <time>2026-08-06T08:23:58.000Z</time>
      </trkpt>
      <trkpt lat="46.29918" lon="2.65168">
        <ele>317</ele>
        <time>2026-08-06T08:24:05.000Z</time>
      </trkpt>
      <trkpt lat="46.29893" lon="2.65177">
        <ele>310.5</ele>
        <time>2026-08-06T08:24:16.000Z</time>
      </trkpt>
      <trkpt lat="46.29879" lon="2.65178">
        <ele>304</ele>
        <time>2026-08-06T08:24:23.000Z</time>
      </trkpt>
      <trkpt lat="46.29875" lon="2.65178">
        <ele>301.9</ele>
        <time>2026-08-06T08:24:25.000Z</time>
      </trkpt>
      <trkpt lat="46.29862" lon="2.65178">
        <ele>294.7</ele>
        <time>2026-08-06T08:24:31.000Z</time>
      </trkpt>
      <trkpt lat="46.29846" lon="2.65179">
        <ele>286.9</ele>
        <time>2026-08-06T08:24:38.000Z</time>
      </trkpt>
      <trkpt lat="46.29829" lon="2.65179">
        <ele>280.1</ele>
        <time>2026-08-06T08:24:46.000Z</time>
      </trkpt>
      <trkpt lat="46.29814" lon="2.65178">
        <ele>277.5</ele>
        <time>2026-08-06T08:24:52.000Z</time>
      </trkpt>
      <trkpt lat="46.29809" lon="2.65178">
        <ele>276.6</ele>
        <time>2026-08-06T08:24:54.000Z</time>
      </trkpt>
      <trkpt lat="46.2979" lon="2.65177">
        <ele>279.8</ele>
        <time>2026-08-06T08:25:02.000Z</time>
      </trkpt>
      <trkpt lat="46.29769" lon="2.65176">
        <ele>286.5</ele>
        <time>2026-08-06T08:25:11.000Z</time>
      </trkpt>
      <trkpt lat="46.29764" lon="2.65175">
        <ele>288.3</ele>
        <time>2026-08-06T08:25:13.000Z</time>
      </trkpt>
      <trkpt lat="46.29745" lon="2.65173">
        <ele>296.4</ele>
        <time>2026-08-06T08:25:21.000Z</time>
      </trkpt>
      <trkpt lat="46.29727" lon="2.65173">
        <ele>306.1</ele>
        <time>2026-08-06T08:25:29.000Z</time>
      </trkpt>
      <trkpt lat="46.29711" lon="2.65172">
        <ele>313</ele>
        <time>2026-08-06T08:25:36.000Z</time>
      </trkpt>
      <trkpt lat="46.29709" lon="2.65172">
        <ele>313.9</ele>
        <time>2026-08-06T08:25:37.000Z</time>
      </trkpt>
      <trkpt lat="46.29695" lon="2.65171">
        <ele>319.1</ele>
        <time>2026-08-06T08:25:43.000Z</time>
      </trkpt>
      <trkpt lat="46.29693" lon="2.65171">
        <ele>319.7</ele>
        <time>2026-08-06T08:25:44.000Z</time>
      </trkpt>
      <trkpt lat="46.29675" lon="2.65172">
        <ele>322.1</ele>
        <time>2026-08-06T08:25:51.000Z</time>
      </trkpt>
      <trkpt lat="46.29653" lon="2.65176">
        <ele>324.3</ele>
        <time>2026-08-06T08:26:00.000Z</time>
      </trkpt>
      <trkpt lat="46.29636" lon="2.65179">
        <ele>325.9</ele>
        <time>2026-08-06T08:26:07.000Z</time>
      </trkpt>
      <trkpt lat="46.29619" lon="2.65185">
        <ele>327.4</ele>
        <time>2026-08-06T08:26:14.000Z</time>
      </trkpt>
      <trkpt lat="46.29614" lon="2.65187">
        <ele>327.9</ele>
        <time>2026-08-06T08:26:16.000Z</time>
      </trkpt>
      <trkpt lat="46.29597" lon="2.65193">
        <ele>329.1</ele>
        <time>2026-08-06T08:26:23.000Z</time>
      </trkpt>
      <trkpt lat="46.29583" lon="2.65198">
        <ele>330</ele>
        <time>2026-08-06T08:26:28.000Z</time>
      </trkpt>
      <trkpt lat="46.29577" lon="2.652">
        <ele>330.4</ele>
        <time>2026-08-06T08:26:31.000Z</time>
      </trkpt>
      <trkpt lat="46.29568" lon="2.65205">
        <ele>331.1</ele>
        <time>2026-08-06T08:26:36.000Z</time>
      </trkpt>
      <trkpt lat="46.2955" lon="2.6521">
        <ele>332.2</ele>
        <time>2026-08-06T08:26:43.000Z</time>
      </trkpt>
      <trkpt lat="46.29547" lon="2.6521">
        <ele>332.3</ele>
        <time>2026-08-06T08:26:44.000Z</time>
      </trkpt>
      <trkpt lat="46.29532" lon="2.65217">
        <ele>332.9</ele>
        <time>2026-08-06T08:26:50.000Z</time>
      </trkpt>
      <trkpt lat="46.29526" lon="2.65218">
        <ele>333</ele>
        <time>2026-08-06T08:26:52.000Z</time>
      </trkpt>
      <trkpt lat="46.2951" lon="2.65226">
        <ele>333</ele>
        <time>2026-08-06T08:26:59.000Z</time>
      </trkpt>
      <trkpt lat="46.29493" lon="2.65232">
        <ele>332.8</ele>
        <time>2026-08-06T08:27:07.000Z</time>
      </trkpt>
      <trkpt lat="46.2947" lon="2.65239">
        <ele>331.9</ele>
        <time>2026-08-06T08:27:17.000Z</time>
      </trkpt>
      <trkpt lat="46.29469" lon="2.6524">
        <ele>331.7</ele>
        <time>2026-08-06T08:27:18.000Z</time>
      </trkpt>
      <trkpt lat="46.2945" lon="2.65248">
        <ele>330.4</ele>
        <time>2026-08-06T08:27:26.000Z</time>
      </trkpt>
      <trkpt lat="46.29433" lon="2.65253">
        <ele>330.6</ele>
        <time>2026-08-06T08:27:33.000Z</time>
      </trkpt>
      <trkpt lat="46.29429" lon="2.65255">
        <ele>330.6</ele>
        <time>2026-08-06T08:27:35.000Z</time>
      </trkpt>
      <trkpt lat="46.29413" lon="2.65261">
        <ele>329.6</ele>
        <time>2026-08-06T08:27:42.000Z</time>
      </trkpt>
      <trkpt lat="46.29396" lon="2.65268">
        <ele>327.1</ele>
        <time>2026-08-06T08:27:50.000Z</time>
      </trkpt>
      <trkpt lat="46.29394" lon="2.65269">
        <ele>327</ele>
        <time>2026-08-06T08:27:51.000Z</time>
      </trkpt>
      <trkpt lat="46.2937" lon="2.65279">
        <ele>324.1</ele>
        <time>2026-08-06T08:28:02.000Z</time>
      </trkpt>
      <trkpt lat="46.29366" lon="2.6528">
        <ele>323.3</ele>
        <time>2026-08-06T08:28:04.000Z</time>
      </trkpt>
      <trkpt lat="46.2935" lon="2.65286">
        <ele>323.4</ele>
        <time>2026-08-06T08:28:11.000Z</time>
      </trkpt>
      <trkpt lat="46.29331" lon="2.65294">
        <ele>325</ele>
        <time>2026-08-06T08:28:20.000Z</time>
      </trkpt>
      <trkpt lat="46.2931" lon="2.65302">
        <ele>327.2</ele>
        <time>2026-08-06T08:28:30.000Z</time>
      </trkpt>
      <trkpt lat="46.29299" lon="2.65306">
        <ele>328.3</ele>
        <time>2026-08-06T08:28:36.000Z</time>
      </trkpt>
      <trkpt lat="46.29294" lon="2.65308">
        <ele>328.6</ele>
        <time>2026-08-06T08:28:38.000Z</time>
      </trkpt>
      <trkpt lat="46.29286" lon="2.6531">
        <ele>329.1</ele>
        <time>2026-08-06T08:28:42.000Z</time>
      </trkpt>
      <trkpt lat="46.29278" lon="2.65313">
        <ele>329.8</ele>
        <time>2026-08-06T08:28:46.000Z</time>
      </trkpt>
      <trkpt lat="46.2927" lon="2.65316">
        <ele>329.2</ele>
        <time>2026-08-06T08:28:50.000Z</time>
      </trkpt>
      <trkpt lat="46.29241" lon="2.65327">
        <ele>328.8</ele>
        <time>2026-08-06T08:29:01.000Z</time>
      </trkpt>
      <trkpt lat="46.2923" lon="2.6533">
        <ele>328.6</ele>
        <time>2026-08-06T08:29:05.000Z</time>
      </trkpt>
      <trkpt lat="46.29216" lon="2.65331">
        <ele>328.4</ele>
        <time>2026-08-06T08:29:11.000Z</time>
      </trkpt>
      <trkpt lat="46.29205" lon="2.65333">
        <ele>329</ele>
        <time>2026-08-06T08:29:16.000Z</time>
      </trkpt>
      <trkpt lat="46.292" lon="2.65333">
        <ele>329</ele>
        <time>2026-08-06T08:29:18.000Z</time>
      </trkpt>
      <trkpt lat="46.29179" lon="2.65332">
        <ele>329.2</ele>
        <time>2026-08-06T08:29:27.000Z</time>
      </trkpt>
      <trkpt lat="46.29163" lon="2.65333">
        <ele>329.7</ele>
        <time>2026-08-06T08:29:35.000Z</time>
      </trkpt>
      <trkpt lat="46.29161" lon="2.65332">
        <ele>329.3</ele>
        <time>2026-08-06T08:29:36.000Z</time>
      </trkpt>
      <trkpt lat="46.29154" lon="2.6533">
        <ele>328.3</ele>
        <time>2026-08-06T08:29:39.000Z</time>
      </trkpt>
      <trkpt lat="46.29136" lon="2.65324">
        <ele>325.6</ele>
        <time>2026-08-06T08:29:47.000Z</time>
      </trkpt>
      <trkpt lat="46.2913" lon="2.65321">
        <ele>324</ele>
        <time>2026-08-06T08:29:50.000Z</time>
      </trkpt>
      <trkpt lat="46.29115" lon="2.65315">
        <ele>321.5</ele>
        <time>2026-08-06T08:29:57.000Z</time>
      </trkpt>
      <trkpt lat="46.29111" lon="2.65313">
        <ele>320.9</ele>
        <time>2026-08-06T08:30:01.000Z</time>
      </trkpt>
      <trkpt lat="46.291" lon="2.65308">
        <ele>319.1</ele>
        <time>2026-08-06T08:31:44.000Z</time>
      </trkpt>
      <trkpt lat="46.29085" lon="2.65299">
        <ele>316.8</ele>
        <time>2026-08-06T08:31:53.000Z</time>
      </trkpt>
      <trkpt lat="46.29069" lon="2.65292">
        <ele>315.7</ele>
        <time>2026-08-06T08:32:00.000Z</time>
      </trkpt>
      <trkpt lat="46.29058" lon="2.65286">
        <ele>315.1</ele>
        <time>2026-08-06T08:32:05.000Z</time>
      </trkpt>
      <trkpt lat="46.29044" lon="2.6528">
        <ele>315.6</ele>
        <time>2026-08-06T08:32:10.000Z</time>
      </trkpt>
      <trkpt lat="46.29029" lon="2.65274">
        <ele>316.7</ele>
        <time>2026-08-06T08:32:16.000Z</time>
      </trkpt>
      <trkpt lat="46.29013" lon="2.65267">
        <ele>320.2</ele>
        <time>2026-08-06T08:32:23.000Z</time>
      </trkpt>
      <trkpt lat="46.29" lon="2.65262">
        <ele>322.8</ele>
        <time>2026-08-06T08:32:28.000Z</time>
      </trkpt>
      <trkpt lat="46.28988" lon="2.65255">
        <ele>328.4</ele>
        <time>2026-08-06T08:32:33.000Z</time>
      </trkpt>
      <trkpt lat="46.28955" lon="2.65239">
        <ele>343</ele>
        <time>2026-08-06T08:32:46.000Z</time>
      </trkpt>
      <trkpt lat="46.28945" lon="2.65237">
        <ele>345.9</ele>
        <time>2026-08-06T08:32:51.000Z</time>
      </trkpt>
      <trkpt lat="46.28943" lon="2.65238">
        <ele>346</ele>
        <time>2026-08-06T08:32:52.000Z</time>
      </trkpt>
      <trkpt lat="46.28938" lon="2.65251">
        <ele>346.2</ele>
        <time>2026-08-06T08:32:57.000Z</time>
      </trkpt>
      <trkpt lat="46.28936" lon="2.65256">
        <ele>346.3</ele>
        <time>2026-08-06T08:32:59.000Z</time>
      </trkpt>
      <trkpt lat="46.28935" lon="2.65264">
        <ele>346.4</ele>
        <time>2026-08-06T08:33:02.000Z</time>
      </trkpt>
      <trkpt lat="46.28933" lon="2.65272">
        <ele>346.6</ele>
        <time>2026-08-06T08:33:05.000Z</time>
      </trkpt>
      <trkpt lat="46.28931" lon="2.65286">
        <ele>346.7</ele>
        <time>2026-08-06T08:33:09.000Z</time>
      </trkpt>
      <trkpt lat="46.28924" lon="2.65309">
        <ele>346.8</ele>
        <time>2026-08-06T08:33:17.000Z</time>
      </trkpt>
      <trkpt lat="46.28912" lon="2.65329">
        <ele>347.5</ele>
        <time>2026-08-06T08:33:27.000Z</time>
      </trkpt>
      <trkpt lat="46.28896" lon="2.65335">
        <ele>348.4</ele>
        <time>2026-08-06T08:33:35.000Z</time>
      </trkpt>
      <trkpt lat="46.28889" lon="2.65335">
        <ele>348.9</ele>
        <time>2026-08-06T08:33:38.000Z</time>
      </trkpt>
      <trkpt lat="46.28883" lon="2.65336">
        <ele>349.2</ele>
        <time>2026-08-06T08:33:41.000Z</time>
      </trkpt>
      <trkpt lat="46.28871" lon="2.65345">
        <ele>349.5</ele>
        <time>2026-08-06T08:33:47.000Z</time>
      </trkpt>
      <trkpt lat="46.28869" lon="2.65348">
        <ele>349.6</ele>
        <time>2026-08-06T08:33:48.000Z</time>
      </trkpt>
      <trkpt lat="46.28859" lon="2.65362">
        <ele>350.2</ele>
        <time>2026-08-06T08:33:54.000Z</time>
      </trkpt>
      <trkpt lat="46.28852" lon="2.65371">
        <ele>350.7</ele>
        <time>2026-08-06T08:33:58.000Z</time>
      </trkpt>
      <trkpt lat="46.28847" lon="2.65377">
        <ele>351</ele>
        <time>2026-08-06T08:34:01.000Z</time>
      </trkpt>
      <trkpt lat="46.28845" lon="2.65379">
        <ele>351.1</ele>
        <time>2026-08-06T08:34:02.000Z</time>
      </trkpt>
      <trkpt lat="46.2884" lon="2.65377">
        <ele>351.5</ele>
        <time>2026-08-06T08:34:05.000Z</time>
      </trkpt>
      <trkpt lat="46.28838" lon="2.65374">
        <ele>351.6</ele>
        <time>2026-08-06T08:34:06.000Z</time>
      </trkpt>
      <trkpt lat="46.28832" lon="2.6536">
        <ele>352</ele>
        <time>2026-08-06T08:34:11.000Z</time>
      </trkpt>
      <trkpt lat="46.2883" lon="2.65357">
        <ele>352</ele>
        <time>2026-08-06T08:34:12.000Z</time>
      </trkpt>
      <trkpt lat="46.28816" lon="2.65335">
        <ele>351.7</ele>
        <time>2026-08-06T08:34:19.000Z</time>
      </trkpt>
      <trkpt lat="46.28801" lon="2.65311">
        <ele>351.4</ele>
        <time>2026-08-06T08:34:25.000Z</time>
      </trkpt>
      <trkpt lat="46.28774" lon="2.65278">
        <ele>350</ele>
        <time>2026-08-06T08:34:33.000Z</time>
      </trkpt>
      <trkpt lat="46.28766" lon="2.65271">
        <ele>349.2</ele>
        <time>2026-08-06T08:34:35.000Z</time>
      </trkpt>
      <trkpt lat="46.2875" lon="2.65263">
        <ele>348.4</ele>
        <time>2026-08-06T08:34:38.000Z</time>
      </trkpt>
      <trkpt lat="46.28744" lon="2.65261">
        <ele>348.1</ele>
        <time>2026-08-06T08:34:39.000Z</time>
      </trkpt>
      <trkpt lat="46.28717" lon="2.65256">
        <ele>347.4</ele>
        <time>2026-08-06T08:34:43.000Z</time>
      </trkpt>
      <trkpt lat="46.28703" lon="2.65253">
        <ele>346.9</ele>
        <time>2026-08-06T08:34:45.000Z</time>
      </trkpt>
      <trkpt lat="46.28673" lon="2.65249">
        <ele>346</ele>
        <time>2026-08-06T08:34:49.000Z</time>
      </trkpt>
      <trkpt lat="46.2864" lon="2.65242">
        <ele>347.4</ele>
        <time>2026-08-06T08:34:54.000Z</time>
      </trkpt>
      <trkpt lat="46.28623" lon="2.65237">
        <ele>347.6</ele>
        <time>2026-08-06T08:34:57.000Z</time>
      </trkpt>
      <trkpt lat="46.28589" lon="2.65221">
        <ele>347.5</ele>
        <time>2026-08-06T08:35:04.000Z</time>
      </trkpt>
      <trkpt lat="46.28565" lon="2.65209">
        <ele>347.7</ele>
        <time>2026-08-06T08:35:10.000Z</time>
      </trkpt>
      <trkpt lat="46.28543" lon="2.65203">
        <ele>348</ele>
        <time>2026-08-06T08:35:16.000Z</time>
      </trkpt>
      <trkpt lat="46.28532" lon="2.65204">
        <ele>348.5</ele>
        <time>2026-08-06T08:35:20.000Z</time>
      </trkpt>
      <trkpt lat="46.28529" lon="2.65204">
        <ele>348.7</ele>
        <time>2026-08-06T08:35:21.000Z</time>
      </trkpt>
      <trkpt lat="46.28512" lon="2.6521">
        <ele>348.6</ele>
        <time>2026-08-06T08:35:27.000Z</time>
      </trkpt>
      <trkpt lat="46.28488" lon="2.65221">
        <ele>348.8</ele>
        <time>2026-08-06T08:35:36.000Z</time>
      </trkpt>
      <trkpt lat="46.28462" lon="2.65233">
        <ele>348.9</ele>
        <time>2026-08-06T08:35:44.000Z</time>
      </trkpt>
      <trkpt lat="46.28439" lon="2.65246">
        <ele>347.2</ele>
        <time>2026-08-06T08:35:50.000Z</time>
      </trkpt>
      <trkpt lat="46.28424" lon="2.65258">
        <ele>345.9</ele>
        <time>2026-08-06T08:35:54.000Z</time>
      </trkpt>
      <trkpt lat="46.28414" lon="2.6527">
        <ele>345.2</ele>
        <time>2026-08-06T08:35:57.000Z</time>
      </trkpt>
      <trkpt lat="46.28407" lon="2.65278">
        <ele>344.6</ele>
        <time>2026-08-06T08:35:59.000Z</time>
      </trkpt>
      <trkpt lat="46.28384" lon="2.65311">
        <ele>343.9</ele>
        <time>2026-08-06T08:36:06.000Z</time>
      </trkpt>
      <trkpt lat="46.2837" lon="2.65331">
        <ele>343.7</ele>
        <time>2026-08-06T08:36:10.000Z</time>
      </trkpt>
      <trkpt lat="46.28357" lon="2.65346">
        <ele>344</ele>
        <time>2026-08-06T08:36:13.000Z</time>
      </trkpt>
      <trkpt lat="46.28354" lon="2.65351">
        <ele>344.7</ele>
        <time>2026-08-06T08:36:14.000Z</time>
      </trkpt>
      <trkpt lat="46.2834" lon="2.65372">
        <ele>346.1</ele>
        <time>2026-08-06T08:36:18.000Z</time>
      </trkpt>
      <trkpt lat="46.28336" lon="2.65377">
        <ele>346.3</ele>
        <time>2026-08-06T08:36:19.000Z</time>
      </trkpt>
      <trkpt lat="46.28314" lon="2.654">
        <ele>346.5</ele>
        <time>2026-08-06T08:36:24.000Z</time>
      </trkpt>
      <trkpt lat="46.28305" lon="2.65406">
        <ele>345.9</ele>
        <time>2026-08-06T08:36:26.000Z</time>
      </trkpt>
      <trkpt lat="46.283" lon="2.65408">
        <ele>345.7</ele>
        <time>2026-08-06T08:36:27.000Z</time>
      </trkpt>
      <trkpt lat="46.28291" lon="2.65411">
        <ele>344.9</ele>
        <time>2026-08-06T08:36:29.000Z</time>
      </trkpt>
      <trkpt lat="46.28281" lon="2.65412">
        <ele>343.6</ele>
        <time>2026-08-06T08:36:31.000Z</time>
      </trkpt>
      <trkpt lat="46.28267" lon="2.65417">
        <ele>342.4</ele>
        <time>2026-08-06T08:36:34.000Z</time>
      </trkpt>
      <trkpt lat="46.28254" lon="2.65424">
        <ele>341.7</ele>
        <time>2026-08-06T08:36:37.000Z</time>
      </trkpt>
      <trkpt lat="46.28229" lon="2.65444">
        <ele>341.9</ele>
        <time>2026-08-06T08:36:44.000Z</time>
      </trkpt>
      <trkpt lat="46.28211" lon="2.65458">
        <ele>342.2</ele>
        <time>2026-08-06T08:36:50.000Z</time>
      </trkpt>
      <trkpt lat="46.28208" lon="2.6546">
        <ele>342.1</ele>
        <time>2026-08-06T08:36:51.000Z</time>
      </trkpt>
      <trkpt lat="46.28197" lon="2.65468">
        <ele>341.9</ele>
        <time>2026-08-06T08:36:54.000Z</time>
      </trkpt>
      <trkpt lat="46.28177" lon="2.65494">
        <ele>342.9</ele>
        <time>2026-08-06T08:37:00.000Z</time>
      </trkpt>
      <trkpt lat="46.28171" lon="2.65502">
        <ele>342.8</ele>
        <time>2026-08-06T08:37:02.000Z</time>
      </trkpt>
      <trkpt lat="46.28164" lon="2.65513">
        <ele>342.7</ele>
        <time>2026-08-06T08:37:04.000Z</time>
      </trkpt>
      <trkpt lat="46.28157" lon="2.65524">
        <ele>342.8</ele>
        <time>2026-08-06T08:37:06.000Z</time>
      </trkpt>
      <trkpt lat="46.28145" lon="2.65547">
        <ele>342.1</ele>
        <time>2026-08-06T08:37:10.000Z</time>
      </trkpt>
      <trkpt lat="46.28138" lon="2.65557">
        <ele>341</ele>
        <time>2026-08-06T08:37:12.000Z</time>
      </trkpt>
      <trkpt lat="46.28132" lon="2.6557">
        <ele>341.5</ele>
        <time>2026-08-06T08:37:14.000Z</time>
      </trkpt>
      <trkpt lat="46.2813" lon="2.65578">
        <ele>341.8</ele>
        <time>2026-08-06T08:37:15.000Z</time>
      </trkpt>
      <trkpt lat="46.28126" lon="2.65593">
        <ele>342.1</ele>
        <time>2026-08-06T08:37:17.000Z</time>
      </trkpt>
      <trkpt lat="46.28116" lon="2.65613">
        <ele>341.8</ele>
        <time>2026-08-06T08:37:20.000Z</time>
      </trkpt>
      <trkpt lat="46.28106" lon="2.65621">
        <ele>341.9</ele>
        <time>2026-08-06T08:37:22.000Z</time>
      </trkpt>
      <trkpt lat="46.28102" lon="2.65622">
        <ele>342.1</ele>
        <time>2026-08-06T08:37:23.000Z</time>
      </trkpt>
      <trkpt lat="46.28097" lon="2.65621">
        <ele>342.2</ele>
        <time>2026-08-06T08:37:24.000Z</time>
      </trkpt>
      <trkpt lat="46.28087" lon="2.65613">
        <ele>342.7</ele>
        <time>2026-08-06T08:37:26.000Z</time>
      </trkpt>
      <trkpt lat="46.2807" lon="2.65597">
        <ele>344.4</ele>
        <time>2026-08-06T08:37:30.000Z</time>
      </trkpt>
      <trkpt lat="46.28067" lon="2.65589">
        <ele>344.8</ele>
        <time>2026-08-06T08:37:32.000Z</time>
      </trkpt>
      <trkpt lat="46.28066" lon="2.65573">
        <ele>345</ele>
        <time>2026-08-06T08:37:36.000Z</time>
      </trkpt>
      <trkpt lat="46.28066" lon="2.65554">
        <ele>345.4</ele>
        <time>2026-08-06T08:37:41.000Z</time>
      </trkpt>
      <trkpt lat="46.28067" lon="2.65551">
        <ele>345.7</ele>
        <time>2026-08-06T08:37:42.000Z</time>
      </trkpt>
      <trkpt lat="46.28073" lon="2.65531">
        <ele>347.4</ele>
        <time>2026-08-06T08:37:49.000Z</time>
      </trkpt>
      <trkpt lat="46.28078" lon="2.65519">
        <ele>348.5</ele>
        <time>2026-08-06T08:37:53.000Z</time>
      </trkpt>
      <trkpt lat="46.28079" lon="2.65513">
        <ele>348.9</ele>
        <time>2026-08-06T08:37:55.000Z</time>
      </trkpt>
      <trkpt lat="46.28081" lon="2.65507">
        <ele>349.4</ele>
        <time>2026-08-06T08:37:57.000Z</time>
      </trkpt>
      <trkpt lat="46.28084" lon="2.65496">
        <ele>350.6</ele>
        <time>2026-08-06T08:38:01.000Z</time>
      </trkpt>
      <trkpt lat="46.28087" lon="2.6549">
        <ele>351.1</ele>
        <time>2026-08-06T08:38:04.000Z</time>
      </trkpt>
      <trkpt lat="46.28088" lon="2.65482">
        <ele>352.2</ele>
        <time>2026-08-06T08:38:08.000Z</time>
      </trkpt>
      <trkpt lat="46.28089" lon="2.65473">
        <ele>353.3</ele>
        <time>2026-08-06T08:38:11.000Z</time>
      </trkpt>
      <trkpt lat="46.28091" lon="2.65462">
        <ele>353.7</ele>
        <time>2026-08-06T08:38:15.000Z</time>
      </trkpt>
      <trkpt lat="46.28093" lon="2.65455">
        <ele>353.8</ele>
        <time>2026-08-06T08:38:18.000Z</time>
      </trkpt>
      <trkpt lat="46.28094" lon="2.65452">
        <ele>353.9</ele>
        <time>2026-08-06T08:38:19.000Z</time>
      </trkpt>
      <trkpt lat="46.28096" lon="2.65442">
        <ele>353.9</ele>
        <time>2026-08-06T08:38:22.000Z</time>
      </trkpt>
      <trkpt lat="46.28098" lon="2.65428">
        <ele>353.5</ele>
        <time>2026-08-06T08:38:27.000Z</time>
      </trkpt>
      <trkpt lat="46.28098" lon="2.65416">
        <ele>353.8</ele>
        <time>2026-08-06T08:38:31.000Z</time>
      </trkpt>
      <trkpt lat="46.28099" lon="2.65404">
        <ele>354.2</ele>
        <time>2026-08-06T08:38:35.000Z</time>
      </trkpt>
      <trkpt lat="46.28102" lon="2.65394">
        <ele>354.4</ele>
        <time>2026-08-06T08:38:39.000Z</time>
      </trkpt>
      <trkpt lat="46.28106" lon="2.65386">
        <ele>354.8</ele>
        <time>2026-08-06T08:38:43.000Z</time>
      </trkpt>
      <trkpt lat="46.2811" lon="2.65383">
        <ele>354.9</ele>
        <time>2026-08-06T08:38:46.000Z</time>
      </trkpt>
      <trkpt lat="46.28117" lon="2.65379">
        <ele>354.5</ele>
        <time>2026-08-06T08:38:50.000Z</time>
      </trkpt>
      <trkpt lat="46.28119" lon="2.65376">
        <ele>354.5</ele>
        <time>2026-08-06T08:38:52.000Z</time>
      </trkpt>
      <trkpt lat="46.28127" lon="2.65367">
        <ele>354.9</ele>
        <time>2026-08-06T08:38:57.000Z</time>
      </trkpt>
      <trkpt lat="46.28129" lon="2.65364">
        <ele>355</ele>
        <time>2026-08-06T08:38:59.000Z</time>
      </trkpt>
      <trkpt lat="46.2813" lon="2.65363">
        <ele>355</ele>
        <time>2026-08-06T08:39:00.000Z</time>
      </trkpt>
      <trkpt lat="46.28132" lon="2.6536">
        <ele>355.3</ele>
        <time>2026-08-06T08:39:02.000Z</time>
      </trkpt>
      <trkpt lat="46.28135" lon="2.65357">
        <ele>355.6</ele>
        <time>2026-08-06T08:39:04.000Z</time>
      </trkpt>
      <trkpt lat="46.28136" lon="2.65354">
        <ele>355.9</ele>
        <time>2026-08-06T08:39:05.000Z</time>
      </trkpt>
      <trkpt lat="46.28144" lon="2.65343">
        <ele>356.2</ele>
        <time>2026-08-06T08:39:11.000Z</time>
      </trkpt>
      <trkpt lat="46.28145" lon="2.65342">
        <ele>356.4</ele>
        <time>2026-08-06T08:39:12.000Z</time>
      </trkpt>
      <trkpt lat="46.28146" lon="2.65341">
        <ele>356.4</ele>
        <time>2026-08-06T08:39:13.000Z</time>
      </trkpt>
      <trkpt lat="46.28147" lon="2.65339">
        <ele>356.4</ele>
        <time>2026-08-06T08:39:14.000Z</time>
      </trkpt>
      <trkpt lat="46.28152" lon="2.65328">
        <ele>357.1</ele>
        <time>2026-08-06T08:39:19.000Z</time>
      </trkpt>
      <trkpt lat="46.28154" lon="2.65324">
        <ele>357.2</ele>
        <time>2026-08-06T08:39:21.000Z</time>
      </trkpt>
      <trkpt lat="46.28158" lon="2.65309">
        <ele>359.2</ele>
        <time>2026-08-06T08:39:27.000Z</time>
      </trkpt>
      <trkpt lat="46.28159" lon="2.65307">
        <ele>359.4</ele>
        <time>2026-08-06T08:39:28.000Z</time>
      </trkpt>
      <trkpt lat="46.28161" lon="2.65292">
        <ele>361.5</ele>
        <time>2026-08-06T08:39:33.000Z</time>
      </trkpt>
      <trkpt lat="46.28166" lon="2.65277">
        <ele>362.2</ele>
        <time>2026-08-06T08:39:39.000Z</time>
      </trkpt>
      <trkpt lat="46.28167" lon="2.65275">
        <ele>362.5</ele>
        <time>2026-08-06T08:39:40.000Z</time>
      </trkpt>
      <trkpt lat="46.28172" lon="2.65255">
        <ele>364.4</ele>
        <time>2026-08-06T08:39:49.000Z</time>
      </trkpt>
      <trkpt lat="46.28173" lon="2.65253">
        <ele>364.5</ele>
        <time>2026-08-06T08:39:50.000Z</time>
      </trkpt>
      <trkpt lat="46.28178" lon="2.65244">
        <ele>364.3</ele>
        <time>2026-08-06T08:39:55.000Z</time>
      </trkpt>
      <trkpt lat="46.2818" lon="2.65241">
        <ele>364</ele>
        <time>2026-08-06T08:39:57.000Z</time>
      </trkpt>
      <trkpt lat="46.28183" lon="2.65238">
        <ele>363.7</ele>
        <time>2026-08-06T08:39:59.000Z</time>
      </trkpt>
      <trkpt lat="46.2819" lon="2.65228">
        <ele>363.2</ele>
        <time>2026-08-06T08:40:05.000Z</time>
      </trkpt>
      <trkpt lat="46.28191" lon="2.65226">
        <ele>363.1</ele>
        <time>2026-08-06T08:40:07.000Z</time>
      </trkpt>
      <trkpt lat="46.28196" lon="2.65215">
        <ele>363.5</ele>
        <time>2026-08-06T08:40:14.000Z</time>
      </trkpt>
      <trkpt lat="46.28197" lon="2.6521">
        <ele>363.9</ele>
        <time>2026-08-06T08:40:16.000Z</time>
      </trkpt>
      <trkpt lat="46.28198" lon="2.65203">
        <ele>364.7</ele>
        <time>2026-08-06T08:40:19.000Z</time>
      </trkpt>
      <trkpt lat="46.28198" lon="2.65194">
        <ele>365.9</ele>
        <time>2026-08-06T08:40:23.000Z</time>
      </trkpt>
      <trkpt lat="46.28198" lon="2.65184">
        <ele>366.8</ele>
        <time>2026-08-06T08:40:26.000Z</time>
      </trkpt>
      <trkpt lat="46.28196" lon="2.65169">
        <ele>368.6</ele>
        <time>2026-08-06T08:40:33.000Z</time>
      </trkpt>
      <trkpt lat="46.28196" lon="2.65165">
        <ele>368.8</ele>
        <time>2026-08-06T08:40:34.000Z</time>
      </trkpt>
      <trkpt lat="46.28195" lon="2.65157">
        <ele>369.3</ele>
        <time>2026-08-06T08:40:37.000Z</time>
      </trkpt>
      <trkpt lat="46.2819" lon="2.65147">
        <ele>370.6</ele>
        <time>2026-08-06T08:40:41.000Z</time>
      </trkpt>
      <trkpt lat="46.28189" lon="2.65143">
        <ele>371</ele>
        <time>2026-08-06T08:40:43.000Z</time>
      </trkpt>
      <trkpt lat="46.28186" lon="2.65134">
        <ele>372</ele>
        <time>2026-08-06T08:40:48.000Z</time>
      </trkpt>
      <trkpt lat="46.28186" lon="2.65122">
        <ele>372.7</ele>
        <time>2026-08-06T08:40:53.000Z</time>
      </trkpt>
      <trkpt lat="46.28185" lon="2.6511">
        <ele>373.4</ele>
        <time>2026-08-06T08:40:58.000Z</time>
      </trkpt>
      <trkpt lat="46.28186" lon="2.65098">
        <ele>373.7</ele>
        <time>2026-08-06T08:41:03.000Z</time>
      </trkpt>
      <trkpt lat="46.28187" lon="2.65094">
        <ele>373.7</ele>
        <time>2026-08-06T08:41:05.000Z</time>
      </trkpt>
      <trkpt lat="46.28189" lon="2.65081">
        <ele>373.9</ele>
        <time>2026-08-06T08:41:12.000Z</time>
      </trkpt>
      <trkpt lat="46.28193" lon="2.65056">
        <ele>375.1</ele>
        <time>2026-08-06T08:41:21.000Z</time>
      </trkpt>
      <trkpt lat="46.28196" lon="2.65047">
        <ele>375</ele>
        <time>2026-08-06T08:41:24.000Z</time>
      </trkpt>
      <trkpt lat="46.28197" lon="2.65033">
        <ele>375.1</ele>
        <time>2026-08-06T08:41:30.000Z</time>
      </trkpt>
      <trkpt lat="46.28197" lon="2.65031">
        <ele>375.1</ele>
        <time>2026-08-06T08:41:31.000Z</time>
      </trkpt>
      <trkpt lat="46.28197" lon="2.65018">
        <ele>375.5</ele>
        <time>2026-08-06T08:41:38.000Z</time>
      </trkpt>
      <trkpt lat="46.28197" lon="2.65018">
        <ele>375.5</ele>
        <time>2026-08-06T08:41:39.000Z</time>
      </trkpt>
      <trkpt lat="46.28194" lon="2.6501">
        <ele>375.7</ele>
        <time>2026-08-06T08:42:02.000Z</time>
      </trkpt>
      <trkpt lat="46.28193" lon="2.65003">
        <ele>376</ele>
        <time>2026-08-06T08:42:05.000Z</time>
      </trkpt>
      <trkpt lat="46.2819" lon="2.64993">
        <ele>376.6</ele>
        <time>2026-08-06T08:42:12.000Z</time>
      </trkpt>
      <trkpt lat="46.28189" lon="2.6499">
        <ele>376.8</ele>
        <time>2026-08-06T08:42:14.000Z</time>
      </trkpt>
      <trkpt lat="46.28184" lon="2.64977">
        <ele>377</ele>
        <time>2026-08-06T08:42:21.000Z</time>
      </trkpt>
      <trkpt lat="46.28172" lon="2.64965">
        <ele>376.5</ele>
        <time>2026-08-06T08:42:29.000Z</time>
      </trkpt>
      <trkpt lat="46.28165" lon="2.64961">
        <ele>376.3</ele>
        <time>2026-08-06T08:42:33.000Z</time>
      </trkpt>
      <trkpt lat="46.28162" lon="2.6496">
        <ele>376.3</ele>
        <time>2026-08-06T08:42:35.000Z</time>
      </trkpt>
      <trkpt lat="46.28159" lon="2.6496">
        <ele>376.4</ele>
        <time>2026-08-06T08:42:37.000Z</time>
      </trkpt>
      <trkpt lat="46.28154" lon="2.64955">
        <ele>376.3</ele>
        <time>2026-08-06T08:42:40.000Z</time>
      </trkpt>
      <trkpt lat="46.28144" lon="2.64955">
        <ele>376.6</ele>
        <time>2026-08-06T08:42:46.000Z</time>
      </trkpt>
      <trkpt lat="46.28126" lon="2.64956">
        <ele>377.3</ele>
        <time>2026-08-06T08:42:55.000Z</time>
      </trkpt>
      <trkpt lat="46.28109" lon="2.64957">
        <ele>378</ele>
        <time>2026-08-06T08:43:02.000Z</time>
      </trkpt>
      <trkpt lat="46.28091" lon="2.64952">
        <ele>378.8</ele>
        <time>2026-08-06T08:43:10.000Z</time>
      </trkpt>
      <trkpt lat="46.28089" lon="2.64951">
        <ele>378.9</ele>
        <time>2026-08-06T08:43:11.000Z</time>
      </trkpt>
      <trkpt lat="46.28072" lon="2.64943">
        <ele>380.1</ele>
        <time>2026-08-06T08:43:20.000Z</time>
      </trkpt>
      <trkpt lat="46.28069" lon="2.64941">
        <ele>380.5</ele>
        <time>2026-08-06T08:43:22.000Z</time>
      </trkpt>
      <trkpt lat="46.28059" lon="2.64934">
        <ele>381</ele>
        <time>2026-08-06T08:43:28.000Z</time>
      </trkpt>
      <trkpt lat="46.28056" lon="2.64931">
        <ele>381</ele>
        <time>2026-08-06T08:43:30.000Z</time>
      </trkpt>
      <trkpt lat="46.28045" lon="2.64924">
        <ele>381.5</ele>
        <time>2026-08-06T08:43:36.000Z</time>
      </trkpt>
      <trkpt lat="46.28042" lon="2.64922">
        <ele>381.7</ele>
        <time>2026-08-06T08:43:38.000Z</time>
      </trkpt>
      <trkpt lat="46.28035" lon="2.64915">
        <ele>382.2</ele>
        <time>2026-08-06T08:43:43.000Z</time>
      </trkpt>
      <trkpt lat="46.28022" lon="2.64903">
        <ele>383.1</ele>
        <time>2026-08-06T08:43:51.000Z</time>
      </trkpt>
      <trkpt lat="46.28018" lon="2.649">
        <ele>383.2</ele>
        <time>2026-08-06T08:43:53.000Z</time>
      </trkpt>
      <trkpt lat="46.28006" lon="2.64889">
        <ele>383.6</ele>
        <time>2026-08-06T08:44:01.000Z</time>
      </trkpt>
      <trkpt lat="46.28002" lon="2.64884">
        <ele>383.9</ele>
        <time>2026-08-06T08:44:04.000Z</time>
      </trkpt>
      <trkpt lat="46.27992" lon="2.64874">
        <ele>384.7</ele>
        <time>2026-08-06T08:44:10.000Z</time>
      </trkpt>
      <trkpt lat="46.27978" lon="2.64862">
        <ele>385.6</ele>
        <time>2026-08-06T08:44:18.000Z</time>
      </trkpt>
      <trkpt lat="46.27975" lon="2.64858">
        <ele>385.8</ele>
        <time>2026-08-06T08:44:20.000Z</time>
      </trkpt>
      <trkpt lat="46.27962" lon="2.64849">
        <ele>386.9</ele>
        <time>2026-08-06T08:44:27.000Z</time>
      </trkpt>
      <trkpt lat="46.27958" lon="2.64848">
        <ele>387.3</ele>
        <time>2026-08-06T08:44:29.000Z</time>
      </trkpt>
      <trkpt lat="46.27953" lon="2.64846">
        <ele>387.7</ele>
        <time>2026-08-06T08:44:32.000Z</time>
      </trkpt>
      <trkpt lat="46.27943" lon="2.64841">
        <ele>388.4</ele>
        <time>2026-08-06T08:44:38.000Z</time>
      </trkpt>
      <trkpt lat="46.27937" lon="2.6484">
        <ele>388.8</ele>
        <time>2026-08-06T08:44:41.000Z</time>
      </trkpt>
      <trkpt lat="46.2793" lon="2.64837">
        <ele>389.2</ele>
        <time>2026-08-06T08:44:45.000Z</time>
      </trkpt>
      <trkpt lat="46.2792" lon="2.64835">
        <ele>389.8</ele>
        <time>2026-08-06T08:44:50.000Z</time>
      </trkpt>
      <trkpt lat="46.27909" lon="2.64832">
        <ele>390.5</ele>
        <time>2026-08-06T08:44:55.000Z</time>
      </trkpt>
      <trkpt lat="46.27903" lon="2.64831">
        <ele>390.9</ele>
        <time>2026-08-06T08:44:58.000Z</time>
      </trkpt>
      <trkpt lat="46.27891" lon="2.64827">
        <ele>391.6</ele>
        <time>2026-08-06T08:45:05.000Z</time>
      </trkpt>
      <trkpt lat="46.27884" lon="2.64824">
        <ele>392</ele>
        <time>2026-08-06T08:45:09.000Z</time>
      </trkpt>
      <trkpt lat="46.27873" lon="2.64819">
        <ele>392.6</ele>
        <time>2026-08-06T08:45:15.000Z</time>
      </trkpt>
      <trkpt lat="46.27861" lon="2.64814">
        <ele>393.3</ele>
        <time>2026-08-06T08:45:21.000Z</time>
      </trkpt>
      <trkpt lat="46.27853" lon="2.6481">
        <ele>393.5</ele>
        <time>2026-08-06T08:45:26.000Z</time>
      </trkpt>
      <trkpt lat="46.27844" lon="2.64805">
        <ele>393.6</ele>
        <time>2026-08-06T08:45:31.000Z</time>
      </trkpt>
      <trkpt lat="46.27832" lon="2.64798">
        <ele>394.1</ele>
        <time>2026-08-06T08:45:38.000Z</time>
      </trkpt>
      <trkpt lat="46.27828" lon="2.64795">
        <ele>394.5</ele>
        <time>2026-08-06T08:45:40.000Z</time>
      </trkpt>
      <trkpt lat="46.27815" lon="2.64788">
        <ele>395.5</ele>
        <time>2026-08-06T08:45:47.000Z</time>
      </trkpt>
      <trkpt lat="46.27807" lon="2.64783">
        <ele>396.1</ele>
        <time>2026-08-06T08:45:52.000Z</time>
      </trkpt>
      <trkpt lat="46.27804" lon="2.64781">
        <ele>396.2</ele>
        <time>2026-08-06T08:45:54.000Z</time>
      </trkpt>
      <trkpt lat="46.27793" lon="2.64775">
        <ele>396.8</ele>
        <time>2026-08-06T08:46:00.000Z</time>
      </trkpt>
      <trkpt lat="46.27791" lon="2.64775">
        <ele>396.9</ele>
        <time>2026-08-06T08:46:01.000Z</time>
      </trkpt>
      <trkpt lat="46.27786" lon="2.64771">
        <ele>397.2</ele>
        <time>2026-08-06T08:46:04.000Z</time>
      </trkpt>
      <trkpt lat="46.27768" lon="2.64756">
        <ele>397.9</ele>
        <time>2026-08-06T08:46:14.000Z</time>
      </trkpt>
      <trkpt lat="46.27753" lon="2.64743">
        <ele>398.5</ele>
        <time>2026-08-06T08:46:23.000Z</time>
      </trkpt>
      <trkpt lat="46.27752" lon="2.64741">
        <ele>398.6</ele>
        <time>2026-08-06T08:46:24.000Z</time>
      </trkpt>
      <trkpt lat="46.27741" lon="2.64731">
        <ele>399.2</ele>
        <time>2026-08-06T08:46:30.000Z</time>
      </trkpt>
      <trkpt lat="46.2774" lon="2.6473">
        <ele>399.4</ele>
        <time>2026-08-06T08:46:31.000Z</time>
      </trkpt>
      <trkpt lat="46.27738" lon="2.64728">
        <ele>399.5</ele>
        <time>2026-08-06T08:46:32.000Z</time>
      </trkpt>
      <trkpt lat="46.27727" lon="2.64718">
        <ele>400.2</ele>
        <time>2026-08-06T08:46:39.000Z</time>
      </trkpt>
      <trkpt lat="46.27719" lon="2.64711">
        <ele>400.5</ele>
        <time>2026-08-06T08:46:44.000Z</time>
      </trkpt>
      <trkpt lat="46.27712" lon="2.64707">
        <ele>400.7</ele>
        <time>2026-08-06T08:46:48.000Z</time>
      </trkpt>
      <trkpt lat="46.27701" lon="2.64703">
        <ele>401.1</ele>
        <time>2026-08-06T08:46:54.000Z</time>
      </trkpt>
      <trkpt lat="46.27696" lon="2.64702">
        <ele>401.4</ele>
        <time>2026-08-06T08:46:57.000Z</time>
      </trkpt>
      <trkpt lat="46.27688" lon="2.64701">
        <ele>402.1</ele>
        <time>2026-08-06T08:47:02.000Z</time>
      </trkpt>
      <trkpt lat="46.27685" lon="2.64701">
        <ele>402.4</ele>
        <time>2026-08-06T08:47:04.000Z</time>
      </trkpt>
      <trkpt lat="46.27682" lon="2.64699">
        <ele>402.6</ele>
        <time>2026-08-06T08:47:06.000Z</time>
      </trkpt>
      <trkpt lat="46.27674" lon="2.64698">
        <ele>403.4</ele>
        <time>2026-08-06T08:47:11.000Z</time>
      </trkpt>
      <trkpt lat="46.27671" lon="2.64698">
        <ele>403.7</ele>
        <time>2026-08-06T08:47:13.000Z</time>
      </trkpt>
      <trkpt lat="46.27663" lon="2.64698">
        <ele>404.4</ele>
        <time>2026-08-06T08:47:18.000Z</time>
      </trkpt>
      <trkpt lat="46.27651" lon="2.64694">
        <ele>405.1</ele>
        <time>2026-08-06T08:47:25.000Z</time>
      </trkpt>
      <trkpt lat="46.27649" lon="2.64693">
        <ele>405.2</ele>
        <time>2026-08-06T08:47:26.000Z</time>
      </trkpt>
      <trkpt lat="46.27638" lon="2.64693">
        <ele>406</ele>
        <time>2026-08-06T08:47:33.000Z</time>
      </trkpt>
      <trkpt lat="46.27631" lon="2.64693">
        <ele>406.5</ele>
        <time>2026-08-06T08:47:38.000Z</time>
      </trkpt>
      <trkpt lat="46.2763" lon="2.64692">
        <ele>406.5</ele>
        <time>2026-08-06T08:47:39.000Z</time>
      </trkpt>
      <trkpt lat="46.27626" lon="2.64691">
        <ele>406.7</ele>
        <time>2026-08-06T08:47:41.000Z</time>
      </trkpt>
      <trkpt lat="46.27621" lon="2.6469">
        <ele>407</ele>
        <time>2026-08-06T08:47:44.000Z</time>
      </trkpt>
      <trkpt lat="46.27608" lon="2.64688">
        <ele>407.6</ele>
        <time>2026-08-06T08:47:52.000Z</time>
      </trkpt>
      <trkpt lat="46.27603" lon="2.64688">
        <ele>407.8</ele>
        <time>2026-08-06T08:47:55.000Z</time>
      </trkpt>
      <trkpt lat="46.27585" lon="2.64686">
        <ele>408.3</ele>
        <time>2026-08-06T08:48:05.000Z</time>
      </trkpt>
      <trkpt lat="46.27581" lon="2.64685">
        <ele>408.4</ele>
        <time>2026-08-06T08:48:07.000Z</time>
      </trkpt>
      <trkpt lat="46.27574" lon="2.64684">
        <ele>408.7</ele>
        <time>2026-08-06T08:48:11.000Z</time>
      </trkpt>
      <trkpt lat="46.27573" lon="2.64684">
        <ele>408.8</ele>
        <time>2026-08-06T08:48:12.000Z</time>
      </trkpt>
      <trkpt lat="46.27566" lon="2.64683">
        <ele>409</ele>
        <time>2026-08-06T08:48:16.000Z</time>
      </trkpt>
      <trkpt lat="46.27558" lon="2.64681">
        <ele>409.4</ele>
        <time>2026-08-06T08:48:21.000Z</time>
      </trkpt>
      <trkpt lat="46.27554" lon="2.64681">
        <ele>409.6</ele>
        <time>2026-08-06T08:48:23.000Z</time>
      </trkpt>
      <trkpt lat="46.2755" lon="2.64681">
        <ele>409.9</ele>
        <time>2026-08-06T08:48:25.000Z</time>
      </trkpt>
      <trkpt lat="46.27545" lon="2.64679">
        <ele>410.2</ele>
        <time>2026-08-06T08:48:28.000Z</time>
      </trkpt>
      <trkpt lat="46.27543" lon="2.64679">
        <ele>410.3</ele>
        <time>2026-08-06T08:48:29.000Z</time>
      </trkpt>
      <trkpt lat="46.27533" lon="2.64677">
        <ele>411</ele>
        <time>2026-08-06T08:48:35.000Z</time>
      </trkpt>
      <trkpt lat="46.2753" lon="2.64676">
        <ele>411.2</ele>
        <time>2026-08-06T08:48:37.000Z</time>
      </trkpt>
      <trkpt lat="46.27529" lon="2.64676">
        <ele>411.3</ele>
        <time>2026-08-06T08:48:38.000Z</time>
      </trkpt>
      <trkpt lat="46.27522" lon="2.64671">
        <ele>411.6</ele>
        <time>2026-08-06T08:48:42.000Z</time>
      </trkpt>
      <trkpt lat="46.27512" lon="2.64665">
        <ele>412.1</ele>
        <time>2026-08-06T08:48:48.000Z</time>
      </trkpt>
      <trkpt lat="46.2751" lon="2.64664">
        <ele>412.2</ele>
        <time>2026-08-06T08:48:49.000Z</time>
      </trkpt>
      <trkpt lat="46.27501" lon="2.64655">
        <ele>412.5</ele>
        <time>2026-08-06T08:48:56.000Z</time>
      </trkpt>
      <trkpt lat="46.27498" lon="2.64651">
        <ele>412.7</ele>
        <time>2026-08-06T08:48:58.000Z</time>
      </trkpt>
      <trkpt lat="46.2749" lon="2.64645">
        <ele>413.3</ele>
        <time>2026-08-06T08:49:03.000Z</time>
      </trkpt>
      <trkpt lat="46.2748" lon="2.64638">
        <ele>414.1</ele>
        <time>2026-08-06T08:49:10.000Z</time>
      </trkpt>
      <trkpt lat="46.27476" lon="2.64634">
        <ele>414.4</ele>
        <time>2026-08-06T08:49:13.000Z</time>
      </trkpt>
      <trkpt lat="46.27468" lon="2.64627">
        <ele>414.8</ele>
        <time>2026-08-06T08:49:19.000Z</time>
      </trkpt>
      <trkpt lat="46.2746" lon="2.64622">
        <ele>415.1</ele>
        <time>2026-08-06T08:49:25.000Z</time>
      </trkpt>
      <trkpt lat="46.27458" lon="2.64621">
        <ele>415.2</ele>
        <time>2026-08-06T08:49:26.000Z</time>
      </trkpt>
      <trkpt lat="46.2744" lon="2.64614">
        <ele>416.2</ele>
        <time>2026-08-06T08:49:37.000Z</time>
      </trkpt>
      <trkpt lat="46.2742" lon="2.64613">
        <ele>416.9</ele>
        <time>2026-08-06T08:49:45.000Z</time>
      </trkpt>
      <trkpt lat="46.2739" lon="2.64612">
        <ele>417</ele>
        <time>2026-08-06T08:49:56.000Z</time>
      </trkpt>
      <trkpt lat="46.27377" lon="2.64611">
        <ele>417.4</ele>
        <time>2026-08-06T08:50:00.000Z</time>
      </trkpt>
      <trkpt lat="46.27357" lon="2.6461">
        <ele>417.8</ele>
        <time>2026-08-06T08:50:06.000Z</time>
      </trkpt>
      <trkpt lat="46.27322" lon="2.64609">
        <ele>417</ele>
        <time>2026-08-06T08:50:15.000Z</time>
      </trkpt>
      <trkpt lat="46.27294" lon="2.6461">
        <ele>416.9</ele>
        <time>2026-08-06T08:50:22.000Z</time>
      </trkpt>
      <trkpt lat="46.27258" lon="2.64607">
        <ele>416.1</ele>
        <time>2026-08-06T08:50:30.000Z</time>
      </trkpt>
      <trkpt lat="46.27224" lon="2.64604">
        <ele>415.8</ele>
        <time>2026-08-06T08:50:37.000Z</time>
      </trkpt>
      <trkpt lat="46.2722" lon="2.64603">
        <ele>415.7</ele>
        <time>2026-08-06T08:50:38.000Z</time>
      </trkpt>
      <trkpt lat="46.27211" lon="2.64599">
        <ele>415.6</ele>
        <time>2026-08-06T08:50:40.000Z</time>
      </trkpt>
      <trkpt lat="46.27191" lon="2.64586">
        <ele>415.2</ele>
        <time>2026-08-06T08:50:45.000Z</time>
      </trkpt>
      <trkpt lat="46.27153" lon="2.64554">
        <ele>415.4</ele>
        <time>2026-08-06T08:50:55.000Z</time>
      </trkpt>
      <trkpt lat="46.27124" lon="2.64536">
        <ele>415.1</ele>
        <time>2026-08-06T08:51:02.000Z</time>
      </trkpt>
      <trkpt lat="46.27104" lon="2.64526">
        <ele>415.2</ele>
        <time>2026-08-06T08:51:07.000Z</time>
      </trkpt>
      <trkpt lat="46.27092" lon="2.64519">
        <ele>415.4</ele>
        <time>2026-08-06T08:51:10.000Z</time>
      </trkpt>
      <trkpt lat="46.27062" lon="2.64504">
        <ele>415.9</ele>
        <time>2026-08-06T08:51:18.000Z</time>
      </trkpt>
      <trkpt lat="46.27044" lon="2.64494">
        <ele>416.8</ele>
        <time>2026-08-06T08:51:23.000Z</time>
      </trkpt>
      <trkpt lat="46.27033" lon="2.64489">
        <ele>417.3</ele>
        <time>2026-08-06T08:51:26.000Z</time>
      </trkpt>
      <trkpt lat="46.27006" lon="2.64472">
        <ele>417.8</ele>
        <time>2026-08-06T08:51:35.000Z</time>
      </trkpt>
      <trkpt lat="46.2699" lon="2.64463">
        <ele>418</ele>
        <time>2026-08-06T08:51:40.000Z</time>
      </trkpt>
      <trkpt lat="46.26984" lon="2.64458">
        <ele>418.1</ele>
        <time>2026-08-06T08:51:42.000Z</time>
      </trkpt>
      <trkpt lat="46.26958" lon="2.64442">
        <ele>418.4</ele>
        <time>2026-08-06T08:51:50.000Z</time>
      </trkpt>
      <trkpt lat="46.2693" lon="2.64424">
        <ele>418.8</ele>
        <time>2026-08-06T08:51:59.000Z</time>
      </trkpt>
      <trkpt lat="46.26899" lon="2.64404">
        <ele>418.4</ele>
        <time>2026-08-06T08:52:08.000Z</time>
      </trkpt>
      <trkpt lat="46.26895" lon="2.64401">
        <ele>418.3</ele>
        <time>2026-08-06T08:52:09.000Z</time>
      </trkpt>
      <trkpt lat="46.26871" lon="2.64369">
        <ele>418.4</ele>
        <time>2026-08-06T08:52:17.000Z</time>
      </trkpt>
      <trkpt lat="46.26853" lon="2.64323">
        <ele>418.6</ele>
        <time>2026-08-06T08:52:26.000Z</time>
      </trkpt>
      <trkpt lat="46.26847" lon="2.64307">
        <ele>419</ele>
        <time>2026-08-06T08:52:29.000Z</time>
      </trkpt>
      <trkpt lat="46.26843" lon="2.64296">
        <ele>419.1</ele>
        <time>2026-08-06T08:52:31.000Z</time>
      </trkpt>
      <trkpt lat="46.26838" lon="2.6428">
        <ele>418.9</ele>
        <time>2026-08-06T08:52:34.000Z</time>
      </trkpt>
      <trkpt lat="46.26818" lon="2.6422">
        <ele>419.1</ele>
        <time>2026-08-06T08:52:46.000Z</time>
      </trkpt>
      <trkpt lat="46.26801" lon="2.64171">
        <ele>419.5</ele>
        <time>2026-08-06T08:52:56.000Z</time>
      </trkpt>
      <trkpt lat="46.26798" lon="2.64161">
        <ele>419.5</ele>
        <time>2026-08-06T08:52:58.000Z</time>
      </trkpt>
      <trkpt lat="46.26789" lon="2.6413">
        <ele>419.6</ele>
        <time>2026-08-06T08:53:04.000Z</time>
      </trkpt>
      <trkpt lat="46.26779" lon="2.64084">
        <ele>419.9</ele>
        <time>2026-08-06T08:53:13.000Z</time>
      </trkpt>
      <trkpt lat="46.26765" lon="2.64045">
        <ele>420.1</ele>
        <time>2026-08-06T08:53:21.000Z</time>
      </trkpt>
      <trkpt lat="46.26752" lon="2.64031">
        <ele>420.8</ele>
        <time>2026-08-06T08:53:26.000Z</time>
      </trkpt>
      <trkpt lat="46.26749" lon="2.64029">
        <ele>421</ele>
        <time>2026-08-06T08:53:27.000Z</time>
      </trkpt>
      <trkpt lat="46.26745" lon="2.64024">
        <ele>421.1</ele>
        <time>2026-08-06T08:53:29.000Z</time>
      </trkpt>
      <trkpt lat="46.26743" lon="2.64014">
        <ele>420.9</ele>
        <time>2026-08-06T08:53:31.000Z</time>
      </trkpt>
      <trkpt lat="46.26738" lon="2.63984">
        <ele>420.3</ele>
        <time>2026-08-06T08:53:36.000Z</time>
      </trkpt>
      <trkpt lat="46.26732" lon="2.63959">
        <ele>419.8</ele>
        <time>2026-08-06T08:53:40.000Z</time>
      </trkpt>
      <trkpt lat="46.26727" lon="2.63948">
        <ele>419.8</ele>
        <time>2026-08-06T08:53:42.000Z</time>
      </trkpt>
      <trkpt lat="46.2672" lon="2.63942">
        <ele>420.1</ele>
        <time>2026-08-06T08:53:44.000Z</time>
      </trkpt>
      <trkpt lat="46.26713" lon="2.63938">
        <ele>420.5</ele>
        <time>2026-08-06T08:53:46.000Z</time>
      </trkpt>
      <trkpt lat="46.26691" lon="2.63927">
        <ele>422.4</ele>
        <time>2026-08-06T08:53:54.000Z</time>
      </trkpt>
      <trkpt lat="46.26678" lon="2.63918">
        <ele>423.2</ele>
        <time>2026-08-06T08:54:00.000Z</time>
      </trkpt>
      <trkpt lat="46.26676" lon="2.63915">
        <ele>423.2</ele>
        <time>2026-08-06T08:54:01.000Z</time>
      </trkpt>
      <trkpt lat="46.26675" lon="2.63912">
        <ele>423.1</ele>
        <time>2026-08-06T08:54:02.000Z</time>
      </trkpt>
      <trkpt lat="46.26674" lon="2.63903">
        <ele>422.6</ele>
        <time>2026-08-06T08:54:04.000Z</time>
      </trkpt>
      <trkpt lat="46.26671" lon="2.63876">
        <ele>420.9</ele>
        <time>2026-08-06T08:54:09.000Z</time>
      </trkpt>
      <trkpt lat="46.26666" lon="2.63852">
        <ele>420</ele>
        <time>2026-08-06T08:54:14.000Z</time>
      </trkpt>
      <trkpt lat="46.26653" lon="2.63823">
        <ele>420.5</ele>
        <time>2026-08-06T08:54:21.000Z</time>
      </trkpt>
      <trkpt lat="46.26638" lon="2.63794">
        <ele>419.6</ele>
        <time>2026-08-06T08:54:28.000Z</time>
      </trkpt>
      <trkpt lat="46.2662" lon="2.63765">
        <ele>419.2</ele>
        <time>2026-08-06T08:54:35.000Z</time>
      </trkpt>
      <trkpt lat="46.26614" lon="2.63757">
        <ele>419.1</ele>
        <time>2026-08-06T08:54:37.000Z</time>
      </trkpt>
      <trkpt lat="46.26596" lon="2.63731">
        <ele>418.5</ele>
        <time>2026-08-06T08:54:43.000Z</time>
      </trkpt>
      <trkpt lat="46.26593" lon="2.63727">
        <ele>418.3</ele>
        <time>2026-08-06T08:54:44.000Z</time>
      </trkpt>
      <trkpt lat="46.26572" lon="2.63698">
        <ele>417.6</ele>
        <time>2026-08-06T08:54:50.000Z</time>
      </trkpt>
      <trkpt lat="46.26567" lon="2.63689">
        <ele>417.3</ele>
        <time>2026-08-06T08:54:52.000Z</time>
      </trkpt>
      <trkpt lat="46.26564" lon="2.63685">
        <ele>417.1</ele>
        <time>2026-08-06T08:54:53.000Z</time>
      </trkpt>
      <trkpt lat="46.26559" lon="2.63668">
        <ele>416.1</ele>
        <time>2026-08-06T08:54:57.000Z</time>
      </trkpt>
      <trkpt lat="46.26558" lon="2.63657">
        <ele>415.3</ele>
        <time>2026-08-06T08:54:59.000Z</time>
      </trkpt>
      <trkpt lat="46.26554" lon="2.63635">
        <ele>413.9</ele>
        <time>2026-08-06T08:55:02.000Z</time>
      </trkpt>
      <trkpt lat="46.26551" lon="2.63619">
        <ele>413.3</ele>
        <time>2026-08-06T08:55:04.000Z</time>
      </trkpt>
      <trkpt lat="46.26543" lon="2.63591">
        <ele>412.3</ele>
        <time>2026-08-06T08:55:07.000Z</time>
      </trkpt>
      <trkpt lat="46.2653" lon="2.63551">
        <ele>410.7</ele>
        <time>2026-08-06T08:55:11.000Z</time>
      </trkpt>
      <trkpt lat="46.26523" lon="2.63529">
        <ele>409.3</ele>
        <time>2026-08-06T08:55:13.000Z</time>
      </trkpt>
      <trkpt lat="46.26518" lon="2.63517">
        <ele>408.8</ele>
        <time>2026-08-06T08:55:14.000Z</time>
      </trkpt>
      <trkpt lat="46.26506" lon="2.63483">
        <ele>407.5</ele>
        <time>2026-08-06T08:55:17.000Z</time>
      </trkpt>
      <trkpt lat="46.26497" lon="2.63459">
        <ele>406.5</ele>
        <time>2026-08-06T08:55:19.000Z</time>
      </trkpt>
      <trkpt lat="46.26488" lon="2.63435">
        <ele>405.7</ele>
        <time>2026-08-06T08:55:21.000Z</time>
      </trkpt>
      <trkpt lat="46.26475" lon="2.634">
        <ele>405</ele>
        <time>2026-08-06T08:55:24.000Z</time>
      </trkpt>
      <trkpt lat="46.26466" lon="2.63377">
        <ele>404.3</ele>
        <time>2026-08-06T08:55:26.000Z</time>
      </trkpt>
      <trkpt lat="46.26462" lon="2.63365">
        <ele>403.8</ele>
        <time>2026-08-06T08:55:27.000Z</time>
      </trkpt>
      <trkpt lat="46.26447" lon="2.63317">
        <ele>403</ele>
        <time>2026-08-06T08:55:31.000Z</time>
      </trkpt>
      <trkpt lat="46.26443" lon="2.63294">
        <ele>402.5</ele>
        <time>2026-08-06T08:55:33.000Z</time>
      </trkpt>
      <trkpt lat="46.26435" lon="2.63262">
        <ele>401.1</ele>
        <time>2026-08-06T08:55:36.000Z</time>
      </trkpt>
      <trkpt lat="46.26431" lon="2.63253">
        <ele>400.6</ele>
        <time>2026-08-06T08:55:37.000Z</time>
      </trkpt>
      <trkpt lat="46.26418" lon="2.63236">
        <ele>399.6</ele>
        <time>2026-08-06T08:55:39.000Z</time>
      </trkpt>
      <trkpt lat="46.26411" lon="2.63229">
        <ele>398.8</ele>
        <time>2026-08-06T08:55:40.000Z</time>
      </trkpt>
      <trkpt lat="46.26395" lon="2.63216">
        <ele>397.4</ele>
        <time>2026-08-06T08:55:42.000Z</time>
      </trkpt>
      <trkpt lat="46.2638" lon="2.63205">
        <ele>396.1</ele>
        <time>2026-08-06T08:55:44.000Z</time>
      </trkpt>
      <trkpt lat="46.26373" lon="2.632">
        <ele>395.3</ele>
        <time>2026-08-06T08:55:45.000Z</time>
      </trkpt>
      <trkpt lat="46.26366" lon="2.63194">
        <ele>394.5</ele>
        <time>2026-08-06T08:55:46.000Z</time>
      </trkpt>
      <trkpt lat="46.2636" lon="2.63188">
        <ele>394.1</ele>
        <time>2026-08-06T08:55:47.000Z</time>
      </trkpt>
      <trkpt lat="46.26354" lon="2.63181">
        <ele>393.5</ele>
        <time>2026-08-06T08:55:48.000Z</time>
      </trkpt>
      <trkpt lat="46.26349" lon="2.63174">
        <ele>392.8</ele>
        <time>2026-08-06T08:55:49.000Z</time>
      </trkpt>
      <trkpt lat="46.26341" lon="2.63156">
        <ele>390.9</ele>
        <time>2026-08-06T08:55:51.000Z</time>
      </trkpt>
      <trkpt lat="46.26331" lon="2.63134">
        <ele>388.4</ele>
        <time>2026-08-06T08:55:53.000Z</time>
      </trkpt>
      <trkpt lat="46.26326" lon="2.63124">
        <ele>387.5</ele>
        <time>2026-08-06T08:55:54.000Z</time>
      </trkpt>
      <trkpt lat="46.26321" lon="2.63113">
        <ele>386.3</ele>
        <time>2026-08-06T08:55:55.000Z</time>
      </trkpt>
      <trkpt lat="46.26311" lon="2.6309">
        <ele>384</ele>
        <time>2026-08-06T08:55:57.000Z</time>
      </trkpt>
      <trkpt lat="46.26305" lon="2.63078">
        <ele>383</ele>
        <time>2026-08-06T08:55:58.000Z</time>
      </trkpt>
      <trkpt lat="46.26299" lon="2.63066">
        <ele>382.5</ele>
        <time>2026-08-06T08:55:59.000Z</time>
      </trkpt>
      <trkpt lat="46.26292" lon="2.63054">
        <ele>382</ele>
        <time>2026-08-06T08:56:00.000Z</time>
      </trkpt>
      <trkpt lat="46.26285" lon="2.63044">
        <ele>381.1</ele>
        <time>2026-08-06T08:56:01.000Z</time>
      </trkpt>
      <trkpt lat="46.2627" lon="2.63023">
        <ele>379.5</ele>
        <time>2026-08-06T08:56:03.000Z</time>
      </trkpt>
      <trkpt lat="46.26262" lon="2.63014">
        <ele>378.7</ele>
        <time>2026-08-06T08:56:04.000Z</time>
      </trkpt>
      <trkpt lat="46.26253" lon="2.63004">
        <ele>378.2</ele>
        <time>2026-08-06T08:56:05.000Z</time>
      </trkpt>
      <trkpt lat="46.2624" lon="2.62989">
        <ele>378.2</ele>
        <time>2026-08-06T08:56:07.000Z</time>
      </trkpt>
      <trkpt lat="46.26227" lon="2.62974">
        <ele>379.5</ele>
        <time>2026-08-06T08:56:09.000Z</time>
      </trkpt>
      <trkpt lat="46.26221" lon="2.62967">
        <ele>379.5</ele>
        <time>2026-08-06T08:56:10.000Z</time>
      </trkpt>
      <trkpt lat="46.26202" lon="2.62942">
        <ele>379.4</ele>
        <time>2026-08-06T08:56:14.000Z</time>
      </trkpt>
      <trkpt lat="46.26191" lon="2.62925">
        <ele>380.2</ele>
        <time>2026-08-06T08:56:19.000Z</time>
      </trkpt>
      <trkpt lat="46.26186" lon="2.62918">
        <ele>380.6</ele>
        <time>2026-08-06T08:56:22.000Z</time>
      </trkpt>
      <trkpt lat="46.26185" lon="2.62916">
        <ele>380.7</ele>
        <time>2026-08-06T08:56:23.000Z</time>
      </trkpt>
      <trkpt lat="46.26183" lon="2.6291">
        <ele>381</ele>
        <time>2026-08-06T08:56:26.000Z</time>
      </trkpt>
      <trkpt lat="46.26182" lon="2.62906">
        <ele>381.3</ele>
        <time>2026-08-06T08:56:28.000Z</time>
      </trkpt>
      <trkpt lat="46.26177" lon="2.62897">
        <ele>382.1</ele>
        <time>2026-08-06T08:56:33.000Z</time>
      </trkpt>
      <trkpt lat="46.26176" lon="2.62893">
        <ele>382.4</ele>
        <time>2026-08-06T08:56:35.000Z</time>
      </trkpt>
      <trkpt lat="46.26172" lon="2.62885">
        <ele>383.3</ele>
        <time>2026-08-06T08:56:41.000Z</time>
      </trkpt>
      <trkpt lat="46.26168" lon="2.62875">
        <ele>383.8</ele>
        <time>2026-08-06T08:56:47.000Z</time>
      </trkpt>
      <trkpt lat="46.26168" lon="2.62873">
        <ele>383.9</ele>
        <time>2026-08-06T08:56:48.000Z</time>
      </trkpt>
      <trkpt lat="46.26166" lon="2.6287">
        <ele>384.1</ele>
        <time>2026-08-06T08:56:50.000Z</time>
      </trkpt>
      <trkpt lat="46.26164" lon="2.62866">
        <ele>384.2</ele>
        <time>2026-08-06T08:56:52.000Z</time>
      </trkpt>
      <trkpt lat="46.26162" lon="2.6286">
        <ele>384.5</ele>
        <time>2026-08-06T08:56:55.000Z</time>
      </trkpt>
      <trkpt lat="46.26153" lon="2.62845">
        <ele>386.3</ele>
        <time>2026-08-06T08:57:03.000Z</time>
      </trkpt>
      <trkpt lat="46.26152" lon="2.62843">
        <ele>386.6</ele>
        <time>2026-08-06T08:57:04.000Z</time>
      </trkpt>
      <trkpt lat="46.26145" lon="2.62832">
        <ele>388.7</ele>
        <time>2026-08-06T08:57:10.000Z</time>
      </trkpt>
      <trkpt lat="46.26143" lon="2.6283">
        <ele>389</ele>
        <time>2026-08-06T08:57:11.000Z</time>
      </trkpt>
      <trkpt lat="46.26142" lon="2.62829">
        <ele>389.1</ele>
        <time>2026-08-06T08:57:12.000Z</time>
      </trkpt>
      <trkpt lat="46.26142" lon="2.62827">
        <ele>389.2</ele>
        <time>2026-08-06T08:57:13.000Z</time>
      </trkpt>
      <trkpt lat="46.26141" lon="2.62824">
        <ele>389.2</ele>
        <time>2026-08-06T08:57:14.000Z</time>
      </trkpt>
      <trkpt lat="46.26137" lon="2.62816">
        <ele>389.6</ele>
        <time>2026-08-06T08:57:19.000Z</time>
      </trkpt>
      <trkpt lat="46.26132" lon="2.62809">
        <ele>390</ele>
        <time>2026-08-06T08:57:23.000Z</time>
      </trkpt>
      <trkpt lat="46.26125" lon="2.62797">
        <ele>390.9</ele>
        <time>2026-08-06T08:57:29.000Z</time>
      </trkpt>
      <trkpt lat="46.26124" lon="2.62795">
        <ele>391</ele>
        <time>2026-08-06T08:57:30.000Z</time>
      </trkpt>
      <trkpt lat="46.26113" lon="2.6278">
        <ele>392.6</ele>
        <time>2026-08-06T08:57:38.000Z</time>
      </trkpt>
      <trkpt lat="46.26103" lon="2.62765">
        <ele>393.4</ele>
        <time>2026-08-06T08:57:46.000Z</time>
      </trkpt>
      <trkpt lat="46.261" lon="2.62762">
        <ele>393.6</ele>
        <time>2026-08-06T08:57:48.000Z</time>
      </trkpt>
      <trkpt lat="46.26091" lon="2.6275">
        <ele>394.5</ele>
        <time>2026-08-06T08:57:55.000Z</time>
      </trkpt>
      <trkpt lat="46.26085" lon="2.62742">
        <ele>396.3</ele>
        <time>2026-08-06T08:58:00.000Z</time>
      </trkpt>
      <trkpt lat="46.26081" lon="2.62738">
        <ele>397.2</ele>
        <time>2026-08-06T08:58:02.000Z</time>
      </trkpt>
      <trkpt lat="46.2607" lon="2.62728">
        <ele>398.5</ele>
        <time>2026-08-06T08:58:10.000Z</time>
      </trkpt>
      <trkpt lat="46.26062" lon="2.6272">
        <ele>398.8</ele>
        <time>2026-08-06T08:58:16.000Z</time>
      </trkpt>
      <trkpt lat="46.26059" lon="2.62718">
        <ele>399.1</ele>
        <time>2026-08-06T08:58:18.000Z</time>
      </trkpt>
      <trkpt lat="46.26055" lon="2.62715">
        <ele>399.6</ele>
        <time>2026-08-06T08:58:21.000Z</time>
      </trkpt>
      <trkpt lat="46.26049" lon="2.62711">
        <ele>400.5</ele>
        <time>2026-08-06T08:58:24.000Z</time>
      </trkpt>
      <trkpt lat="46.26045" lon="2.6271">
        <ele>400.8</ele>
        <time>2026-08-06T08:58:26.000Z</time>
      </trkpt>
      <trkpt lat="46.26033" lon="2.62708">
        <ele>401.5</ele>
        <time>2026-08-06T08:58:34.000Z</time>
      </trkpt>
      <trkpt lat="46.26032" lon="2.62708">
        <ele>401.5</ele>
        <time>2026-08-06T08:58:35.000Z</time>
      </trkpt>
      <trkpt lat="46.26016" lon="2.62711">
        <ele>402.4</ele>
        <time>2026-08-06T08:58:44.000Z</time>
      </trkpt>
      <trkpt lat="46.26003" lon="2.62712">
        <ele>403.5</ele>
        <time>2026-08-06T08:58:52.000Z</time>
      </trkpt>
      <trkpt lat="46.26001" lon="2.62713">
        <ele>403.6</ele>
        <time>2026-08-06T08:58:53.000Z</time>
      </trkpt>
      <trkpt lat="46.2599" lon="2.62716">
        <ele>403.9</ele>
        <time>2026-08-06T08:59:00.000Z</time>
      </trkpt>
      <trkpt lat="46.25989" lon="2.62716">
        <ele>403.9</ele>
        <time>2026-08-06T08:59:01.000Z</time>
      </trkpt>
      <trkpt lat="46.25987" lon="2.62716">
        <ele>404.1</ele>
        <time>2026-08-06T08:59:03.000Z</time>
      </trkpt>
      <trkpt lat="46.25981" lon="2.62717">
        <ele>404.3</ele>
        <time>2026-08-06T08:59:07.000Z</time>
      </trkpt>
      <trkpt lat="46.25972" lon="2.62722">
        <ele>404.1</ele>
        <time>2026-08-06T08:59:14.000Z</time>
      </trkpt>
      <trkpt lat="46.25969" lon="2.62723">
        <ele>404.2</ele>
        <time>2026-08-06T08:59:16.000Z</time>
      </trkpt>
      <trkpt lat="46.25968" lon="2.62723">
        <ele>404.2</ele>
        <time>2026-08-06T08:59:17.000Z</time>
      </trkpt>
      <trkpt lat="46.25964" lon="2.62726">
        <ele>404.5</ele>
        <time>2026-08-06T08:59:20.000Z</time>
      </trkpt>
      <trkpt lat="46.25956" lon="2.62732">
        <ele>404.8</ele>
        <time>2026-08-06T08:59:26.000Z</time>
      </trkpt>
      <trkpt lat="46.25953" lon="2.62733">
        <ele>405.1</ele>
        <time>2026-08-06T08:59:28.000Z</time>
      </trkpt>
      <trkpt lat="46.2595" lon="2.62736">
        <ele>405.4</ele>
        <time>2026-08-06T08:59:31.000Z</time>
      </trkpt>
      <trkpt lat="46.25948" lon="2.62738">
        <ele>405.6</ele>
        <time>2026-08-06T08:59:32.000Z</time>
      </trkpt>
      <trkpt lat="46.25945" lon="2.62741">
        <ele>405.9</ele>
        <time>2026-08-06T08:59:35.000Z</time>
      </trkpt>
      <trkpt lat="46.25945" lon="2.62742">
        <ele>405.9</ele>
        <time>2026-08-06T08:59:36.000Z</time>
      </trkpt>
      <trkpt lat="46.25945" lon="2.62743">
        <ele>405.9</ele>
        <time>2026-08-06T08:59:42.000Z</time>
      </trkpt>
      <trkpt lat="46.2594" lon="2.62745">
        <ele>406.6</ele>
        <time>2026-08-06T09:01:37.000Z</time>
      </trkpt>
      <trkpt lat="46.25932" lon="2.62753">
        <ele>407.8</ele>
        <time>2026-08-06T09:01:43.000Z</time>
      </trkpt>
      <trkpt lat="46.25924" lon="2.62763">
        <ele>409.2</ele>
        <time>2026-08-06T09:01:49.000Z</time>
      </trkpt>
      <trkpt lat="46.2592" lon="2.62769">
        <ele>409.7</ele>
        <time>2026-08-06T09:01:52.000Z</time>
      </trkpt>
      <trkpt lat="46.25912" lon="2.62778">
        <ele>410.6</ele>
        <time>2026-08-06T09:01:58.000Z</time>
      </trkpt>
      <trkpt lat="46.25905" lon="2.62784">
        <ele>411.5</ele>
        <time>2026-08-06T09:02:02.000Z</time>
      </trkpt>
      <trkpt lat="46.25897" lon="2.62794">
        <ele>412.5</ele>
        <time>2026-08-06T09:02:08.000Z</time>
      </trkpt>
      <trkpt lat="46.25894" lon="2.62797">
        <ele>412.7</ele>
        <time>2026-08-06T09:02:10.000Z</time>
      </trkpt>
      <trkpt lat="46.25892" lon="2.62798">
        <ele>412.8</ele>
        <time>2026-08-06T09:02:11.000Z</time>
      </trkpt>
      <trkpt lat="46.25888" lon="2.62802">
        <ele>413.1</ele>
        <time>2026-08-06T09:02:14.000Z</time>
      </trkpt>
      <trkpt lat="46.25885" lon="2.62807">
        <ele>413.6</ele>
        <time>2026-08-06T09:02:17.000Z</time>
      </trkpt>
      <trkpt lat="46.25879" lon="2.62814">
        <ele>414.3</ele>
        <time>2026-08-06T09:02:22.000Z</time>
      </trkpt>
      <trkpt lat="46.25876" lon="2.62816">
        <ele>414.5</ele>
        <time>2026-08-06T09:02:24.000Z</time>
      </trkpt>
      <trkpt lat="46.2587" lon="2.62824">
        <ele>414.6</ele>
        <time>2026-08-06T09:02:29.000Z</time>
      </trkpt>
      <trkpt lat="46.25866" lon="2.62828">
        <ele>414.4</ele>
        <time>2026-08-06T09:02:32.000Z</time>
      </trkpt>
      <trkpt lat="46.2586" lon="2.62834">
        <ele>414.4</ele>
        <time>2026-08-06T09:02:37.000Z</time>
      </trkpt>
      <trkpt lat="46.25856" lon="2.62838">
        <ele>415.5</ele>
        <time>2026-08-06T09:02:40.000Z</time>
      </trkpt>
      <trkpt lat="46.25847" lon="2.62849">
        <ele>417.5</ele>
        <time>2026-08-06T09:02:47.000Z</time>
      </trkpt>
      <trkpt lat="46.25846" lon="2.6285">
        <ele>417.8</ele>
        <time>2026-08-06T09:02:48.000Z</time>
      </trkpt>
      <trkpt lat="46.25843" lon="2.62852">
        <ele>418.3</ele>
        <time>2026-08-06T09:02:50.000Z</time>
      </trkpt>
      <trkpt lat="46.25842" lon="2.62855">
        <ele>418.7</ele>
        <time>2026-08-06T09:02:52.000Z</time>
      </trkpt>
      <trkpt lat="46.25834" lon="2.62861">
        <ele>419.9</ele>
        <time>2026-08-06T09:02:57.000Z</time>
      </trkpt>
      <trkpt lat="46.25828" lon="2.62864">
        <ele>420.5</ele>
        <time>2026-08-06T09:03:00.000Z</time>
      </trkpt>
      <trkpt lat="46.25823" lon="2.62868">
        <ele>420.9</ele>
        <time>2026-08-06T09:03:04.000Z</time>
      </trkpt>
      <trkpt lat="46.2582" lon="2.62872">
        <ele>421.1</ele>
        <time>2026-08-06T09:03:07.000Z</time>
      </trkpt>
      <trkpt lat="46.25811" lon="2.6288">
        <ele>421.3</ele>
        <time>2026-08-06T09:03:14.000Z</time>
      </trkpt>
      <trkpt lat="46.25801" lon="2.62887">
        <ele>421.8</ele>
        <time>2026-08-06T09:03:21.000Z</time>
      </trkpt>
      <trkpt lat="46.258" lon="2.62888">
        <ele>421.9</ele>
        <time>2026-08-06T09:03:22.000Z</time>
      </trkpt>
      <trkpt lat="46.25789" lon="2.62893">
        <ele>423.1</ele>
        <time>2026-08-06T09:03:28.000Z</time>
      </trkpt>
      <trkpt lat="46.25786" lon="2.62896">
        <ele>423.4</ele>
        <time>2026-08-06T09:03:30.000Z</time>
      </trkpt>
      <trkpt lat="46.2578" lon="2.62901">
        <ele>423.9</ele>
        <time>2026-08-06T09:03:35.000Z</time>
      </trkpt>
      <trkpt lat="46.25779" lon="2.62903">
        <ele>423.8</ele>
        <time>2026-08-06T09:03:36.000Z</time>
      </trkpt>
      <trkpt lat="46.25778" lon="2.62903">
        <ele>423.9</ele>
        <time>2026-08-06T09:03:37.000Z</time>
      </trkpt>
      <trkpt lat="46.25776" lon="2.62905">
        <ele>424</ele>
        <time>2026-08-06T09:03:40.000Z</time>
      </trkpt>
      <trkpt lat="46.25774" lon="2.62905">
        <ele>424.1</ele>
        <time>2026-08-06T09:03:41.000Z</time>
      </trkpt>
      <trkpt lat="46.25771" lon="2.62907">
        <ele>424.2</ele>
        <time>2026-08-06T09:03:44.000Z</time>
      </trkpt>
      <trkpt lat="46.2577" lon="2.62908">
        <ele>424.3</ele>
        <time>2026-08-06T09:03:45.000Z</time>
      </trkpt>
      <trkpt lat="46.25763" lon="2.62911">
        <ele>424.5</ele>
        <time>2026-08-06T09:03:50.000Z</time>
      </trkpt>
      <trkpt lat="46.25749" lon="2.62917">
        <ele>425.1</ele>
        <time>2026-08-06T09:03:59.000Z</time>
      </trkpt>
      <trkpt lat="46.25747" lon="2.62917">
        <ele>425.2</ele>
        <time>2026-08-06T09:04:00.000Z</time>
      </trkpt>
      <trkpt lat="46.25735" lon="2.62927">
        <ele>425.5</ele>
        <time>2026-08-06T09:04:08.000Z</time>
      </trkpt>
      <trkpt lat="46.25722" lon="2.62933">
        <ele>426.4</ele>
        <time>2026-08-06T09:04:16.000Z</time>
      </trkpt>
      <trkpt lat="46.25719" lon="2.62934">
        <ele>426.6</ele>
        <time>2026-08-06T09:04:18.000Z</time>
      </trkpt>
      <trkpt lat="46.25711" lon="2.6294">
        <ele>427.1</ele>
        <time>2026-08-06T09:04:24.000Z</time>
      </trkpt>
      <trkpt lat="46.25706" lon="2.62942">
        <ele>427.3</ele>
        <time>2026-08-06T09:04:27.000Z</time>
      </trkpt>
      <trkpt lat="46.25698" lon="2.62947">
        <ele>427.8</ele>
        <time>2026-08-06T09:04:32.000Z</time>
      </trkpt>
      <trkpt lat="46.25692" lon="2.62951">
        <ele>428.5</ele>
        <time>2026-08-06T09:04:36.000Z</time>
      </trkpt>
      <trkpt lat="46.25681" lon="2.62957">
        <ele>429.5</ele>
        <time>2026-08-06T09:04:42.000Z</time>
      </trkpt>
      <trkpt lat="46.25679" lon="2.62958">
        <ele>429.6</ele>
        <time>2026-08-06T09:04:43.000Z</time>
      </trkpt>
      <trkpt lat="46.2567" lon="2.62964">
        <ele>430.1</ele>
        <time>2026-08-06T09:04:49.000Z</time>
      </trkpt>
      <trkpt lat="46.25661" lon="2.62971">
        <ele>430.4</ele>
        <time>2026-08-06T09:04:54.000Z</time>
      </trkpt>
      <trkpt lat="46.25655" lon="2.62976">
        <ele>430.9</ele>
        <time>2026-08-06T09:04:58.000Z</time>
      </trkpt>
      <trkpt lat="46.25644" lon="2.62984">
        <ele>431.7</ele>
        <time>2026-08-06T09:05:05.000Z</time>
      </trkpt>
      <trkpt lat="46.25639" lon="2.62985">
        <ele>432</ele>
        <time>2026-08-06T09:05:08.000Z</time>
      </trkpt>
      <trkpt lat="46.25633" lon="2.62981">
        <ele>432.4</ele>
        <time>2026-08-06T09:05:12.000Z</time>
      </trkpt>
      <trkpt lat="46.25631" lon="2.62976">
        <ele>432.5</ele>
        <time>2026-08-06T09:05:14.000Z</time>
      </trkpt>
      <trkpt lat="46.25632" lon="2.62966">
        <ele>432.7</ele>
        <time>2026-08-06T09:05:18.000Z</time>
      </trkpt>
      <trkpt lat="46.25633" lon="2.62962">
        <ele>432.7</ele>
        <time>2026-08-06T09:05:20.000Z</time>
      </trkpt>
      <trkpt lat="46.25639" lon="2.62953">
        <ele>432.7</ele>
        <time>2026-08-06T09:05:24.000Z</time>
      </trkpt>
      <trkpt lat="46.2564" lon="2.62951">
        <ele>432.7</ele>
        <time>2026-08-06T09:05:27.000Z</time>
      </trkpt>
      <trkpt lat="46.2564" lon="2.62951">
        <ele>432.7</ele>
        <time>2026-08-06T09:05:28.000Z</time>
      </trkpt>
      <trkpt lat="46.25643" lon="2.62946">
        <ele>432.7</ele>
        <time>2026-08-06T09:06:18.000Z</time>
      </trkpt>
      <trkpt lat="46.25645" lon="2.62942">
        <ele>432.7</ele>
        <time>2026-08-06T09:06:20.000Z</time>
      </trkpt>
      <trkpt lat="46.25655" lon="2.62926">
        <ele>432.9</ele>
        <time>2026-08-06T09:06:26.000Z</time>
      </trkpt>
      <trkpt lat="46.25659" lon="2.62921">
        <ele>433.1</ele>
        <time>2026-08-06T09:06:28.000Z</time>
      </trkpt>
      <trkpt lat="46.25668" lon="2.62906">
        <ele>433.3</ele>
        <time>2026-08-06T09:06:33.000Z</time>
      </trkpt>
      <trkpt lat="46.25683" lon="2.62874">
        <ele>433.4</ele>
        <time>2026-08-06T09:06:42.000Z</time>
      </trkpt>
      <trkpt lat="46.25694" lon="2.62835">
        <ele>432.1</ele>
        <time>2026-08-06T09:06:50.000Z</time>
      </trkpt>
      <trkpt lat="46.25702" lon="2.628">
        <ele>431.4</ele>
        <time>2026-08-06T09:06:55.000Z</time>
      </trkpt>
      <trkpt lat="46.25704" lon="2.62792">
        <ele>431.1</ele>
        <time>2026-08-06T09:06:56.000Z</time>
      </trkpt>
      <trkpt lat="46.25713" lon="2.62747">
        <ele>429</ele>
        <time>2026-08-06T09:07:01.000Z</time>
      </trkpt>
      <trkpt lat="46.25717" lon="2.62728">
        <ele>428.6</ele>
        <time>2026-08-06T09:07:03.000Z</time>
      </trkpt>
      <trkpt lat="46.25723" lon="2.6269">
        <ele>427.9</ele>
        <time>2026-08-06T09:07:07.000Z</time>
      </trkpt>
      <trkpt lat="46.25726" lon="2.62671">
        <ele>427.4</ele>
        <time>2026-08-06T09:07:09.000Z</time>
      </trkpt>
      <trkpt lat="46.25734" lon="2.62627">
        <ele>427.5</ele>
        <time>2026-08-06T09:07:14.000Z</time>
      </trkpt>
      <trkpt lat="46.25737" lon="2.62611">
        <ele>427.4</ele>
        <time>2026-08-06T09:07:16.000Z</time>
      </trkpt>
      <trkpt lat="46.25742" lon="2.62572">
        <ele>428.4</ele>
        <time>2026-08-06T09:07:21.000Z</time>
      </trkpt>
      <trkpt lat="46.25745" lon="2.62558">
        <ele>429</ele>
        <time>2026-08-06T09:07:23.000Z</time>
      </trkpt>
      <trkpt lat="46.25752" lon="2.62518">
        <ele>430.2</ele>
        <time>2026-08-06T09:07:29.000Z</time>
      </trkpt>
      <trkpt lat="46.25757" lon="2.62481">
        <ele>430.7</ele>
        <time>2026-08-06T09:07:36.000Z</time>
      </trkpt>
      <trkpt lat="46.25762" lon="2.62443">
        <ele>431.6</ele>
        <time>2026-08-06T09:07:44.000Z</time>
      </trkpt>
      <trkpt lat="46.25762" lon="2.6244">
        <ele>431.6</ele>
        <time>2026-08-06T09:07:45.000Z</time>
      </trkpt>
      <trkpt lat="46.25765" lon="2.62406">
        <ele>432</ele>
        <time>2026-08-06T09:07:53.000Z</time>
      </trkpt>
      <trkpt lat="46.2577" lon="2.62367">
        <ele>432.8</ele>
        <time>2026-08-06T09:08:02.000Z</time>
      </trkpt>
      <trkpt lat="46.25773" lon="2.62354">
        <ele>433.2</ele>
        <time>2026-08-06T09:08:05.000Z</time>
      </trkpt>
      <trkpt lat="46.25775" lon="2.62339">
        <ele>433.7</ele>
        <time>2026-08-06T09:08:09.000Z</time>
      </trkpt>
      <trkpt lat="46.2578" lon="2.62314">
        <ele>434.1</ele>
        <time>2026-08-06T09:08:15.000Z</time>
      </trkpt>
      <trkpt lat="46.25785" lon="2.62276">
        <ele>435.2</ele>
        <time>2026-08-06T09:08:24.000Z</time>
      </trkpt>
      <trkpt lat="46.2579" lon="2.62251">
        <ele>435.4</ele>
        <time>2026-08-06T09:08:30.000Z</time>
      </trkpt>
      <trkpt lat="46.25792" lon="2.62244">
        <ele>435.7</ele>
        <time>2026-08-06T09:08:32.000Z</time>
      </trkpt>
      <trkpt lat="46.25796" lon="2.62225">
        <ele>436.6</ele>
        <time>2026-08-06T09:08:37.000Z</time>
      </trkpt>
      <trkpt lat="46.25798" lon="2.62219">
        <ele>436.7</ele>
        <time>2026-08-06T09:08:39.000Z</time>
      </trkpt>
      <trkpt lat="46.25803" lon="2.62205">
        <ele>436.9</ele>
        <time>2026-08-06T09:08:43.000Z</time>
      </trkpt>
      <trkpt lat="46.25806" lon="2.62196">
        <ele>437</ele>
        <time>2026-08-06T09:08:46.000Z</time>
      </trkpt>
      <trkpt lat="46.25809" lon="2.62185">
        <ele>437.4</ele>
        <time>2026-08-06T09:08:49.000Z</time>
      </trkpt>
      <trkpt lat="46.25819" lon="2.62156">
        <ele>437.8</ele>
        <time>2026-08-06T09:08:57.000Z</time>
      </trkpt>
      <trkpt lat="46.25821" lon="2.62152">
        <ele>437.8</ele>
        <time>2026-08-06T09:08:58.000Z</time>
      </trkpt>
      <trkpt lat="46.25834" lon="2.62122">
        <ele>438.1</ele>
        <time>2026-08-06T09:09:06.000Z</time>
      </trkpt>
      <trkpt lat="46.25845" lon="2.62095">
        <ele>438.3</ele>
        <time>2026-08-06T09:09:13.000Z</time>
      </trkpt>
      <trkpt lat="46.25848" lon="2.62086">
        <ele>438.2</ele>
        <time>2026-08-06T09:09:15.000Z</time>
      </trkpt>
      <trkpt lat="46.25859" lon="2.62039">
        <ele>438.2</ele>
        <time>2026-08-06T09:09:24.000Z</time>
      </trkpt>
      <trkpt lat="46.25869" lon="2.61992">
        <ele>437.3</ele>
        <time>2026-08-06T09:09:32.000Z</time>
      </trkpt>
      <trkpt lat="46.25877" lon="2.61945">
        <ele>436.2</ele>
        <time>2026-08-06T09:09:38.000Z</time>
      </trkpt>
      <trkpt lat="46.25886" lon="2.61883">
        <ele>435.5</ele>
        <time>2026-08-06T09:09:45.000Z</time>
      </trkpt>
      <trkpt lat="46.25888" lon="2.61849">
        <ele>434.9</ele>
        <time>2026-08-06T09:09:49.000Z</time>
      </trkpt>
      <trkpt lat="46.25889" lon="2.61832">
        <ele>435</ele>
        <time>2026-08-06T09:09:51.000Z</time>
      </trkpt>
      <trkpt lat="46.2589" lon="2.61815">
        <ele>435</ele>
        <time>2026-08-06T09:09:53.000Z</time>
      </trkpt>
      <trkpt lat="46.25892" lon="2.61771">
        <ele>435.4</ele>
        <time>2026-08-06T09:09:59.000Z</time>
      </trkpt>
      <trkpt lat="46.25895" lon="2.61722">
        <ele>436.4</ele>
        <time>2026-08-06T09:10:07.000Z</time>
      </trkpt>
      <trkpt lat="46.25895" lon="2.6168">
        <ele>437</ele>
        <time>2026-08-06T09:10:15.000Z</time>
      </trkpt>
      <trkpt lat="46.25895" lon="2.6164">
        <ele>438.2</ele>
        <time>2026-08-06T09:10:23.000Z</time>
      </trkpt>
      <trkpt lat="46.25894" lon="2.61625">
        <ele>438.2</ele>
        <time>2026-08-06T09:10:26.000Z</time>
      </trkpt>
      <trkpt lat="46.25894" lon="2.61621">
        <ele>438.2</ele>
        <time>2026-08-06T09:10:27.000Z</time>
      </trkpt>
      <trkpt lat="46.25894" lon="2.61598">
        <ele>438.7</ele>
        <time>2026-08-06T09:10:32.000Z</time>
      </trkpt>
      <trkpt lat="46.25894" lon="2.61554">
        <ele>439.2</ele>
        <time>2026-08-06T09:10:42.000Z</time>
      </trkpt>
      <trkpt lat="46.25894" lon="2.6155">
        <ele>439.4</ele>
        <time>2026-08-06T09:10:43.000Z</time>
      </trkpt>
      <trkpt lat="46.25895" lon="2.61509">
        <ele>440.7</ele>
        <time>2026-08-06T09:10:53.000Z</time>
      </trkpt>
      <trkpt lat="46.25895" lon="2.61497">
        <ele>441</ele>
        <time>2026-08-06T09:10:56.000Z</time>
      </trkpt>
      <trkpt lat="46.25894" lon="2.61479">
        <ele>441</ele>
        <time>2026-08-06T09:11:01.000Z</time>
      </trkpt>
      <trkpt lat="46.25894" lon="2.6147">
        <ele>441</ele>
        <time>2026-08-06T09:11:03.000Z</time>
      </trkpt>
      <trkpt lat="46.25896" lon="2.61437">
        <ele>440.8</ele>
        <time>2026-08-06T09:11:11.000Z</time>
      </trkpt>
      <trkpt lat="46.25896" lon="2.61409">
        <ele>440.2</ele>
        <time>2026-08-06T09:11:17.000Z</time>
      </trkpt>
      <trkpt lat="46.25896" lon="2.61395">
        <ele>440.1</ele>
        <time>2026-08-06T09:11:20.000Z</time>
      </trkpt>
      <trkpt lat="46.25897" lon="2.61354">
        <ele>439.2</ele>
        <time>2026-08-06T09:11:27.000Z</time>
      </trkpt>
      <trkpt lat="46.25898" lon="2.61341">
        <ele>439.1</ele>
        <time>2026-08-06T09:11:29.000Z</time>
      </trkpt>
      <trkpt lat="46.25903" lon="2.61312">
        <ele>438.6</ele>
        <time>2026-08-06T09:11:34.000Z</time>
      </trkpt>
      <trkpt lat="46.25908" lon="2.61296">
        <ele>438.4</ele>
        <time>2026-08-06T09:11:37.000Z</time>
      </trkpt>
      <trkpt lat="46.25916" lon="2.61267">
        <ele>437.6</ele>
        <time>2026-08-06T09:11:42.000Z</time>
      </trkpt>
      <trkpt lat="46.25917" lon="2.6126">
        <ele>437.4</ele>
        <time>2026-08-06T09:11:43.000Z</time>
      </trkpt>
      <trkpt lat="46.25921" lon="2.6123">
        <ele>437</ele>
        <time>2026-08-06T09:11:47.000Z</time>
      </trkpt>
      <trkpt lat="46.25923" lon="2.61216">
        <ele>436.8</ele>
        <time>2026-08-06T09:11:49.000Z</time>
      </trkpt>
      <trkpt lat="46.25926" lon="2.61192">
        <ele>436.3</ele>
        <time>2026-08-06T09:11:52.000Z</time>
      </trkpt>
      <trkpt lat="46.2593" lon="2.61143">
        <ele>435.6</ele>
        <time>2026-08-06T09:11:58.000Z</time>
      </trkpt>
      <trkpt lat="46.25932" lon="2.61118">
        <ele>435.1</ele>
        <time>2026-08-06T09:12:01.000Z</time>
      </trkpt>
      <trkpt lat="46.25931" lon="2.61075">
        <ele>434</ele>
        <time>2026-08-06T09:12:06.000Z</time>
      </trkpt>
      <trkpt lat="46.25929" lon="2.61049">
        <ele>433.8</ele>
        <time>2026-08-06T09:12:09.000Z</time>
      </trkpt>
      <trkpt lat="46.25926" lon="2.61031">
        <ele>433.1</ele>
        <time>2026-08-06T09:12:11.000Z</time>
      </trkpt>
      <trkpt lat="46.25919" lon="2.60972">
        <ele>432.1</ele>
        <time>2026-08-06T09:12:18.000Z</time>
      </trkpt>
      <trkpt lat="46.25917" lon="2.60957">
        <ele>432</ele>
        <time>2026-08-06T09:12:20.000Z</time>
      </trkpt>
      <trkpt lat="46.25909" lon="2.60893">
        <ele>430.8</ele>
        <time>2026-08-06T09:12:28.000Z</time>
      </trkpt>
      <trkpt lat="46.25908" lon="2.60887">
        <ele>430.7</ele>
        <time>2026-08-06T09:12:29.000Z</time>
      </trkpt>
      <trkpt lat="46.25899" lon="2.60818">
        <ele>430.2</ele>
        <time>2026-08-06T09:12:38.000Z</time>
      </trkpt>
      <trkpt lat="46.25897" lon="2.60802">
        <ele>430.1</ele>
        <time>2026-08-06T09:12:40.000Z</time>
      </trkpt>
      <trkpt lat="46.25892" lon="2.6075">
        <ele>430</ele>
        <time>2026-08-06T09:12:47.000Z</time>
      </trkpt>
      <trkpt lat="46.25886" lon="2.60681">
        <ele>430</ele>
        <time>2026-08-06T09:12:56.000Z</time>
      </trkpt>
      <trkpt lat="46.25884" lon="2.60659">
        <ele>430</ele>
        <time>2026-08-06T09:12:59.000Z</time>
      </trkpt>
      <trkpt lat="46.2588" lon="2.60629">
        <ele>430</ele>
        <time>2026-08-06T09:13:03.000Z</time>
      </trkpt>
      <trkpt lat="46.25877" lon="2.60583">
        <ele>430</ele>
        <time>2026-08-06T09:13:10.000Z</time>
      </trkpt>
      <trkpt lat="46.25876" lon="2.60555">
        <ele>430</ele>
        <time>2026-08-06T09:13:14.000Z</time>
      </trkpt>
      <trkpt lat="46.25876" lon="2.60542">
        <ele>430</ele>
        <time>2026-08-06T09:13:16.000Z</time>
      </trkpt>
      <trkpt lat="46.25883" lon="2.6048">
        <ele>428.5</ele>
        <time>2026-08-06T09:13:24.000Z</time>
      </trkpt>
      <trkpt lat="46.25885" lon="2.60463">
        <ele>428.2</ele>
        <time>2026-08-06T09:13:26.000Z</time>
      </trkpt>
      <trkpt lat="46.25889" lon="2.60429">
        <ele>427.5</ele>
        <time>2026-08-06T09:13:30.000Z</time>
      </trkpt>
      <trkpt lat="46.25891" lon="2.60411">
        <ele>426.8</ele>
        <time>2026-08-06T09:13:32.000Z</time>
      </trkpt>
      <trkpt lat="46.25893" lon="2.60362">
        <ele>426</ele>
        <time>2026-08-06T09:13:37.000Z</time>
      </trkpt>
      <trkpt lat="46.25892" lon="2.6035">
        <ele>425.6</ele>
        <time>2026-08-06T09:13:38.000Z</time>
      </trkpt>
      <trkpt lat="46.25889" lon="2.6031">
        <ele>424.2</ele>
        <time>2026-08-06T09:13:42.000Z</time>
      </trkpt>
      <trkpt lat="46.25885" lon="2.60261">
        <ele>423.8</ele>
        <time>2026-08-06T09:13:47.000Z</time>
      </trkpt>
      <trkpt lat="46.25884" lon="2.60251">
        <ele>423.7</ele>
        <time>2026-08-06T09:13:48.000Z</time>
      </trkpt>
      <trkpt lat="46.25886" lon="2.60219">
        <ele>423.9</ele>
        <time>2026-08-06T09:13:52.000Z</time>
      </trkpt>
      <trkpt lat="46.25888" lon="2.6021">
        <ele>424</ele>
        <time>2026-08-06T09:13:53.000Z</time>
      </trkpt>
      <trkpt lat="46.25891" lon="2.60204">
        <ele>424.1</ele>
        <time>2026-08-06T09:13:54.000Z</time>
      </trkpt>
      <trkpt lat="46.25898" lon="2.60194">
        <ele>424.3</ele>
        <time>2026-08-06T09:13:56.000Z</time>
      </trkpt>
      <trkpt lat="46.25901" lon="2.6019">
        <ele>424.4</ele>
        <time>2026-08-06T09:13:57.000Z</time>
      </trkpt>
      <trkpt lat="46.25921" lon="2.60175">
        <ele>425.2</ele>
        <time>2026-08-06T09:14:03.000Z</time>
      </trkpt>
      <trkpt lat="46.25937" lon="2.60167">
        <ele>425.8</ele>
        <time>2026-08-06T09:14:08.000Z</time>
      </trkpt>
      <trkpt lat="46.25963" lon="2.60165">
        <ele>426.7</ele>
        <time>2026-08-06T09:14:16.000Z</time>
      </trkpt>
      <trkpt lat="46.25972" lon="2.60167">
        <ele>427</ele>
        <time>2026-08-06T09:14:19.000Z</time>
      </trkpt>
      <trkpt lat="46.25991" lon="2.60171">
        <ele>427.6</ele>
        <time>2026-08-06T09:14:25.000Z</time>
      </trkpt>
      <trkpt lat="46.26025" lon="2.60177">
        <ele>427.1</ele>
        <time>2026-08-06T09:14:35.000Z</time>
      </trkpt>
      <trkpt lat="46.26052" lon="2.60174">
        <ele>427</ele>
        <time>2026-08-06T09:14:42.000Z</time>
      </trkpt>
      <trkpt lat="46.26075" lon="2.60171">
        <ele>427</ele>
        <time>2026-08-06T09:14:47.000Z</time>
      </trkpt>
      <trkpt lat="46.2608" lon="2.6017">
        <ele>427</ele>
        <time>2026-08-06T09:14:48.000Z</time>
      </trkpt>
      <trkpt lat="46.26116" lon="2.60163">
        <ele>425.8</ele>
        <time>2026-08-06T09:14:55.000Z</time>
      </trkpt>
      <trkpt lat="46.26127" lon="2.60156">
        <ele>425.4</ele>
        <time>2026-08-06T09:14:57.000Z</time>
      </trkpt>
      <trkpt lat="46.26135" lon="2.60145">
        <ele>425.2</ele>
        <time>2026-08-06T09:14:59.000Z</time>
      </trkpt>
      <trkpt lat="46.26141" lon="2.60132">
        <ele>424.9</ele>
        <time>2026-08-06T09:15:01.000Z</time>
      </trkpt>
      <trkpt lat="46.26145" lon="2.60116">
        <ele>424.6</ele>
        <time>2026-08-06T09:15:03.000Z</time>
      </trkpt>
      <trkpt lat="46.26147" lon="2.60108">
        <ele>424.4</ele>
        <time>2026-08-06T09:15:04.000Z</time>
      </trkpt>
      <trkpt lat="46.26162" lon="2.60052">
        <ele>422.3</ele>
        <time>2026-08-06T09:15:11.000Z</time>
      </trkpt>
      <trkpt lat="46.26176" lon="2.59996">
        <ele>421.7</ele>
        <time>2026-08-06T09:15:18.000Z</time>
      </trkpt>
      <trkpt lat="46.26178" lon="2.59988">
        <ele>421.6</ele>
        <time>2026-08-06T09:15:19.000Z</time>
      </trkpt>
      <trkpt lat="46.26189" lon="2.59948">
        <ele>420.5</ele>
        <time>2026-08-06T09:15:24.000Z</time>
      </trkpt>
      <trkpt lat="46.26199" lon="2.59915">
        <ele>419.7</ele>
        <time>2026-08-06T09:15:28.000Z</time>
      </trkpt>
      <trkpt lat="46.26204" lon="2.59897">
        <ele>418.9</ele>
        <time>2026-08-06T09:15:30.000Z</time>
      </trkpt>
      <trkpt lat="46.26218" lon="2.59852">
        <ele>417.7</ele>
        <time>2026-08-06T09:15:35.000Z</time>
      </trkpt>
      <trkpt lat="46.2623" lon="2.59818">
        <ele>416.7</ele>
        <time>2026-08-06T09:15:39.000Z</time>
      </trkpt>
      <trkpt lat="46.26245" lon="2.5977">
        <ele>415.8</ele>
        <time>2026-08-06T09:15:44.000Z</time>
      </trkpt>
      <trkpt lat="46.26248" lon="2.59761">
        <ele>415.4</ele>
        <time>2026-08-06T09:15:45.000Z</time>
      </trkpt>
      <trkpt lat="46.26258" lon="2.5973">
        <ele>414.7</ele>
        <time>2026-08-06T09:15:49.000Z</time>
      </trkpt>
      <trkpt lat="46.26266" lon="2.59706">
        <ele>414.2</ele>
        <time>2026-08-06T09:15:52.000Z</time>
      </trkpt>
      <trkpt lat="46.26274" lon="2.59681">
        <ele>413.1</ele>
        <time>2026-08-06T09:15:55.000Z</time>
      </trkpt>
      <trkpt lat="46.26282" lon="2.59662">
        <ele>411.8</ele>
        <time>2026-08-06T09:15:57.000Z</time>
      </trkpt>
      <trkpt lat="46.2629" lon="2.59645">
        <ele>411.2</ele>
        <time>2026-08-06T09:15:59.000Z</time>
      </trkpt>
      <trkpt lat="46.26297" lon="2.59629">
        <ele>410.6</ele>
        <time>2026-08-06T09:16:01.000Z</time>
      </trkpt>
      <trkpt lat="46.2631" lon="2.59601">
        <ele>409.4</ele>
        <time>2026-08-06T09:16:04.000Z</time>
      </trkpt>
      <trkpt lat="46.2632" lon="2.59581">
        <ele>408.5</ele>
        <time>2026-08-06T09:16:06.000Z</time>
      </trkpt>
      <trkpt lat="46.26324" lon="2.59574">
        <ele>408.2</ele>
        <time>2026-08-06T09:16:07.000Z</time>
      </trkpt>
      <trkpt lat="46.26346" lon="2.59543">
        <ele>406.6</ele>
        <time>2026-08-06T09:16:11.000Z</time>
      </trkpt>
      <trkpt lat="46.26358" lon="2.5953">
        <ele>405.4</ele>
        <time>2026-08-06T09:16:13.000Z</time>
      </trkpt>
      <trkpt lat="46.26363" lon="2.59523">
        <ele>405.1</ele>
        <time>2026-08-06T09:16:14.000Z</time>
      </trkpt>
      <trkpt lat="46.26374" lon="2.59509">
        <ele>404.6</ele>
        <time>2026-08-06T09:16:16.000Z</time>
      </trkpt>
      <trkpt lat="46.26389" lon="2.59491">
        <ele>403.3</ele>
        <time>2026-08-06T09:16:19.000Z</time>
      </trkpt>
      <trkpt lat="46.26397" lon="2.59481">
        <ele>403.2</ele>
        <time>2026-08-06T09:16:21.000Z</time>
      </trkpt>
      <trkpt lat="46.26407" lon="2.5947">
        <ele>402.7</ele>
        <time>2026-08-06T09:16:23.000Z</time>
      </trkpt>
      <trkpt lat="46.26422" lon="2.59453">
        <ele>401.1</ele>
        <time>2026-08-06T09:16:27.000Z</time>
      </trkpt>
      <trkpt lat="46.26433" lon="2.59441">
        <ele>400.4</ele>
        <time>2026-08-06T09:16:30.000Z</time>
      </trkpt>
      <trkpt lat="46.26455" lon="2.59418">
        <ele>399.6</ele>
        <time>2026-08-06T09:16:35.000Z</time>
      </trkpt>
      <trkpt lat="46.26471" lon="2.59399">
        <ele>398.4</ele>
        <time>2026-08-06T09:16:39.000Z</time>
      </trkpt>
      <trkpt lat="46.26489" lon="2.5938">
        <ele>397.1</ele>
        <time>2026-08-06T09:16:43.000Z</time>
      </trkpt>
      <trkpt lat="46.26508" lon="2.59359">
        <ele>395.6</ele>
        <time>2026-08-06T09:16:47.000Z</time>
      </trkpt>
      <trkpt lat="46.26526" lon="2.5934">
        <ele>394.3</ele>
        <time>2026-08-06T09:16:51.000Z</time>
      </trkpt>
      <trkpt lat="46.26538" lon="2.59328">
        <ele>393.6</ele>
        <time>2026-08-06T09:16:53.000Z</time>
      </trkpt>
      <trkpt lat="46.26549" lon="2.59316">
        <ele>393.2</ele>
        <time>2026-08-06T09:16:55.000Z</time>
      </trkpt>
      <trkpt lat="46.26562" lon="2.59302">
        <ele>392.5</ele>
        <time>2026-08-06T09:16:58.000Z</time>
      </trkpt>
      <trkpt lat="46.26565" lon="2.59298">
        <ele>392.4</ele>
        <time>2026-08-06T09:16:59.000Z</time>
      </trkpt>
      <trkpt lat="46.26568" lon="2.59288">
        <ele>392.4</ele>
        <time>2026-08-06T09:17:01.000Z</time>
      </trkpt>
      <trkpt lat="46.26568" lon="2.59284">
        <ele>392.4</ele>
        <time>2026-08-06T09:17:02.000Z</time>
      </trkpt>
      <trkpt lat="46.26565" lon="2.59277">
        <ele>392.7</ele>
        <time>2026-08-06T09:17:04.000Z</time>
      </trkpt>
      <trkpt lat="46.26546" lon="2.59259">
        <ele>393.8</ele>
        <time>2026-08-06T09:17:12.000Z</time>
      </trkpt>
      <trkpt lat="46.26517" lon="2.59228">
        <ele>394.9</ele>
        <time>2026-08-06T09:17:24.000Z</time>
      </trkpt>
      <trkpt lat="46.26495" lon="2.59204">
        <ele>395.1</ele>
        <time>2026-08-06T09:17:33.000Z</time>
      </trkpt>
      <trkpt lat="46.26476" lon="2.59185">
        <ele>395</ele>
        <time>2026-08-06T09:17:40.000Z</time>
      </trkpt>
      <trkpt lat="46.26445" lon="2.5915">
        <ele>394.4</ele>
        <time>2026-08-06T09:17:50.000Z</time>
      </trkpt>
      <trkpt lat="46.26421" lon="2.59122">
        <ele>394.4</ele>
        <time>2026-08-06T09:17:57.000Z</time>
      </trkpt>
      <trkpt lat="46.26417" lon="2.59117">
        <ele>394.2</ele>
        <time>2026-08-06T09:17:58.000Z</time>
      </trkpt>
      <trkpt lat="46.2638" lon="2.59075">
        <ele>392.8</ele>
        <time>2026-08-06T09:18:09.000Z</time>
      </trkpt>
      <trkpt lat="46.26349" lon="2.59041">
        <ele>391.7</ele>
        <time>2026-08-06T09:18:17.000Z</time>
      </trkpt>
      <trkpt lat="46.26334" lon="2.59025">
        <ele>392.6</ele>
        <time>2026-08-06T09:18:21.000Z</time>
      </trkpt>
      <trkpt lat="46.26319" lon="2.59009">
        <ele>391.2</ele>
        <time>2026-08-06T09:18:25.000Z</time>
      </trkpt>
      <trkpt lat="46.26289" lon="2.58975">
        <ele>392.6</ele>
        <time>2026-08-06T09:18:33.000Z</time>
      </trkpt>
      <trkpt lat="46.26281" lon="2.58966">
        <ele>392.6</ele>
        <time>2026-08-06T09:18:35.000Z</time>
      </trkpt>
      <trkpt lat="46.26259" lon="2.58942">
        <ele>392.7</ele>
        <time>2026-08-06T09:18:41.000Z</time>
      </trkpt>
      <trkpt lat="46.26253" lon="2.58934">
        <ele>392.9</ele>
        <time>2026-08-06T09:18:43.000Z</time>
      </trkpt>
      <trkpt lat="46.26249" lon="2.58929">
        <ele>393</ele>
        <time>2026-08-06T09:18:44.000Z</time>
      </trkpt>
      <trkpt lat="46.26235" lon="2.58914">
        <ele>393</ele>
        <time>2026-08-06T09:18:48.000Z</time>
      </trkpt>
      <trkpt lat="46.26199" lon="2.58872">
        <ele>393.3</ele>
        <time>2026-08-06T09:18:59.000Z</time>
      </trkpt>
      <trkpt lat="46.26177" lon="2.58846">
        <ele>393.3</ele>
        <time>2026-08-06T09:19:06.000Z</time>
      </trkpt>
      <trkpt lat="46.2614" lon="2.58806">
        <ele>393</ele>
        <time>2026-08-06T09:19:17.000Z</time>
      </trkpt>
      <trkpt lat="46.26134" lon="2.588">
        <ele>393</ele>
        <time>2026-08-06T09:19:19.000Z</time>
      </trkpt>
      <trkpt lat="46.26117" lon="2.58791">
        <ele>393</ele>
        <time>2026-08-06T09:19:23.000Z</time>
      </trkpt>
      <trkpt lat="46.26113" lon="2.5879">
        <ele>393</ele>
        <time>2026-08-06T09:19:24.000Z</time>
      </trkpt>
      <trkpt lat="46.26109" lon="2.58789">
        <ele>392.8</ele>
        <time>2026-08-06T09:19:25.000Z</time>
      </trkpt>
      <trkpt lat="46.26088" lon="2.58791">
        <ele>391.3</ele>
        <time>2026-08-06T09:19:29.000Z</time>
      </trkpt>
      <trkpt lat="46.26076" lon="2.58797">
        <ele>390.4</ele>
        <time>2026-08-06T09:19:31.000Z</time>
      </trkpt>
      <trkpt lat="46.26071" lon="2.58802">
        <ele>390</ele>
        <time>2026-08-06T09:19:32.000Z</time>
      </trkpt>
      <trkpt lat="46.26066" lon="2.58806">
        <ele>389.8</ele>
        <time>2026-08-06T09:19:33.000Z</time>
      </trkpt>
      <trkpt lat="46.26059" lon="2.58814">
        <ele>389.3</ele>
        <time>2026-08-06T09:19:34.000Z</time>
      </trkpt>
      <trkpt lat="46.26044" lon="2.58832">
        <ele>387.7</ele>
        <time>2026-08-06T09:19:37.000Z</time>
      </trkpt>
      <trkpt lat="46.26036" lon="2.58837">
        <ele>387.1</ele>
        <time>2026-08-06T09:19:38.000Z</time>
      </trkpt>
      <trkpt lat="46.26028" lon="2.58838">
        <ele>386.4</ele>
        <time>2026-08-06T09:19:39.000Z</time>
      </trkpt>
      <trkpt lat="46.26012" lon="2.58835">
        <ele>386.1</ele>
        <time>2026-08-06T09:19:41.000Z</time>
      </trkpt>
      <trkpt lat="46.26" lon="2.58821">
        <ele>385.1</ele>
        <time>2026-08-06T09:19:43.000Z</time>
      </trkpt>
      <trkpt lat="46.25995" lon="2.58812">
        <ele>385.1</ele>
        <time>2026-08-06T09:19:44.000Z</time>
      </trkpt>
      <trkpt lat="46.2599" lon="2.58805">
        <ele>385</ele>
        <time>2026-08-06T09:19:45.000Z</time>
      </trkpt>
      <trkpt lat="46.25975" lon="2.58776">
        <ele>383.6</ele>
        <time>2026-08-06T09:19:48.000Z</time>
      </trkpt>
      <trkpt lat="46.25959" lon="2.58746">
        <ele>381.3</ele>
        <time>2026-08-06T09:19:51.000Z</time>
      </trkpt>
      <trkpt lat="46.25953" lon="2.58734">
        <ele>380.1</ele>
        <time>2026-08-06T09:19:52.000Z</time>
      </trkpt>
      <trkpt lat="46.25937" lon="2.58705">
        <ele>377.9</ele>
        <time>2026-08-06T09:19:55.000Z</time>
      </trkpt>
      <trkpt lat="46.25927" lon="2.58688">
        <ele>377.3</ele>
        <time>2026-08-06T09:19:57.000Z</time>
      </trkpt>
      <trkpt lat="46.25915" lon="2.58669">
        <ele>376.3</ele>
        <time>2026-08-06T09:19:59.000Z</time>
      </trkpt>
      <trkpt lat="46.2591" lon="2.58662">
        <ele>375.7</ele>
        <time>2026-08-06T09:20:00.000Z</time>
      </trkpt>
      <trkpt lat="46.25895" lon="2.58647">
        <ele>374.5</ele>
        <time>2026-08-06T09:20:02.000Z</time>
      </trkpt>
      <trkpt lat="46.25881" lon="2.58634">
        <ele>373.6</ele>
        <time>2026-08-06T09:20:04.000Z</time>
      </trkpt>
      <trkpt lat="46.25863" lon="2.58614">
        <ele>372.2</ele>
        <time>2026-08-06T09:20:07.000Z</time>
      </trkpt>
      <trkpt lat="46.25858" lon="2.58607">
        <ele>371.8</ele>
        <time>2026-08-06T09:20:08.000Z</time>
      </trkpt>
      <trkpt lat="46.25854" lon="2.58601">
        <ele>371.5</ele>
        <time>2026-08-06T09:20:09.000Z</time>
      </trkpt>
      <trkpt lat="46.25849" lon="2.58592">
        <ele>371.1</ele>
        <time>2026-08-06T09:20:10.000Z</time>
      </trkpt>
      <trkpt lat="46.25842" lon="2.58575">
        <ele>370.4</ele>
        <time>2026-08-06T09:20:12.000Z</time>
      </trkpt>
      <trkpt lat="46.25838" lon="2.58563">
        <ele>369.6</ele>
        <time>2026-08-06T09:20:13.000Z</time>
      </trkpt>
      <trkpt lat="46.25834" lon="2.58552">
        <ele>368.6</ele>
        <time>2026-08-06T09:20:14.000Z</time>
      </trkpt>
      <trkpt lat="46.25822" lon="2.58511">
        <ele>365.9</ele>
        <time>2026-08-06T09:20:18.000Z</time>
      </trkpt>
      <trkpt lat="46.25819" lon="2.58501">
        <ele>365.3</ele>
        <time>2026-08-06T09:20:19.000Z</time>
      </trkpt>
      <trkpt lat="46.25815" lon="2.58491">
        <ele>364.7</ele>
        <time>2026-08-06T09:20:20.000Z</time>
      </trkpt>
      <trkpt lat="46.2581" lon="2.58479">
        <ele>364.2</ele>
        <time>2026-08-06T09:20:21.000Z</time>
      </trkpt>
      <trkpt lat="46.25804" lon="2.5847">
        <ele>363.8</ele>
        <time>2026-08-06T09:20:22.000Z</time>
      </trkpt>
      <trkpt lat="46.25798" lon="2.58463">
        <ele>363</ele>
        <time>2026-08-06T09:20:23.000Z</time>
      </trkpt>
      <trkpt lat="46.25784" lon="2.5845">
        <ele>362.2</ele>
        <time>2026-08-06T09:20:25.000Z</time>
      </trkpt>
      <trkpt lat="46.25762" lon="2.58434">
        <ele>360.5</ele>
        <time>2026-08-06T09:20:28.000Z</time>
      </trkpt>
      <trkpt lat="46.25755" lon="2.58428">
        <ele>359.8</ele>
        <time>2026-08-06T09:20:29.000Z</time>
      </trkpt>
      <trkpt lat="46.2574" lon="2.58417">
        <ele>359.5</ele>
        <time>2026-08-06T09:20:31.000Z</time>
      </trkpt>
      <trkpt lat="46.25728" lon="2.58407">
        <ele>359</ele>
        <time>2026-08-06T09:20:33.000Z</time>
      </trkpt>
      <trkpt lat="46.25722" lon="2.584">
        <ele>358.5</ele>
        <time>2026-08-06T09:20:34.000Z</time>
      </trkpt>
      <trkpt lat="46.25718" lon="2.58395">
        <ele>358</ele>
        <time>2026-08-06T09:20:35.000Z</time>
      </trkpt>
      <trkpt lat="46.25708" lon="2.58376">
        <ele>357.3</ele>
        <time>2026-08-06T09:20:37.000Z</time>
      </trkpt>
      <trkpt lat="46.25704" lon="2.58367">
        <ele>356.9</ele>
        <time>2026-08-06T09:20:38.000Z</time>
      </trkpt>
      <trkpt lat="46.25697" lon="2.58349">
        <ele>355.7</ele>
        <time>2026-08-06T09:20:40.000Z</time>
      </trkpt>
      <trkpt lat="46.25694" lon="2.5834">
        <ele>355</ele>
        <time>2026-08-06T09:20:41.000Z</time>
      </trkpt>
      <trkpt lat="46.25682" lon="2.58312">
        <ele>352.8</ele>
        <time>2026-08-06T09:20:44.000Z</time>
      </trkpt>
      <trkpt lat="46.25675" lon="2.58301">
        <ele>351.9</ele>
        <time>2026-08-06T09:20:45.000Z</time>
      </trkpt>
      <trkpt lat="46.25669" lon="2.58293">
        <ele>351.4</ele>
        <time>2026-08-06T09:20:46.000Z</time>
      </trkpt>
      <trkpt lat="46.25662" lon="2.58285">
        <ele>351.1</ele>
        <time>2026-08-06T09:20:47.000Z</time>
      </trkpt>
      <trkpt lat="46.25648" lon="2.58271">
        <ele>350.3</ele>
        <time>2026-08-06T09:20:49.000Z</time>
      </trkpt>
      <trkpt lat="46.25633" lon="2.5826">
        <ele>349.4</ele>
        <time>2026-08-06T09:20:51.000Z</time>
      </trkpt>
      <trkpt lat="46.25624" lon="2.58257">
        <ele>348.8</ele>
        <time>2026-08-06T09:20:52.000Z</time>
      </trkpt>
      <trkpt lat="46.25608" lon="2.58254">
        <ele>348.2</ele>
        <time>2026-08-06T09:20:54.000Z</time>
      </trkpt>
      <trkpt lat="46.25599" lon="2.58253">
        <ele>347.5</ele>
        <time>2026-08-06T09:20:55.000Z</time>
      </trkpt>
      <trkpt lat="46.25593" lon="2.58253">
        <ele>347</ele>
        <time>2026-08-06T09:20:56.000Z</time>
      </trkpt>
      <trkpt lat="46.25575" lon="2.58254">
        <ele>345.5</ele>
        <time>2026-08-06T09:20:58.000Z</time>
      </trkpt>
      <trkpt lat="46.2556" lon="2.58258">
        <ele>344.3</ele>
        <time>2026-08-06T09:21:00.000Z</time>
      </trkpt>
      <trkpt lat="46.25553" lon="2.58262">
        <ele>343.7</ele>
        <time>2026-08-06T09:21:01.000Z</time>
      </trkpt>
      <trkpt lat="46.25539" lon="2.58275">
        <ele>342.2</ele>
        <time>2026-08-06T09:21:03.000Z</time>
      </trkpt>
      <trkpt lat="46.25521" lon="2.58302">
        <ele>339.9</ele>
        <time>2026-08-06T09:21:06.000Z</time>
      </trkpt>
      <trkpt lat="46.25509" lon="2.58322">
        <ele>339.1</ele>
        <time>2026-08-06T09:21:08.000Z</time>
      </trkpt>
      <trkpt lat="46.25498" lon="2.58343">
        <ele>338.5</ele>
        <time>2026-08-06T09:21:10.000Z</time>
      </trkpt>
      <trkpt lat="46.2549" lon="2.58363">
        <ele>338.7</ele>
        <time>2026-08-06T09:21:12.000Z</time>
      </trkpt>
      <trkpt lat="46.25481" lon="2.58378">
        <ele>339.5</ele>
        <time>2026-08-06T09:21:14.000Z</time>
      </trkpt>
      <trkpt lat="46.25474" lon="2.58386">
        <ele>339.7</ele>
        <time>2026-08-06T09:21:15.000Z</time>
      </trkpt>
      <trkpt lat="46.25461" lon="2.58397">
        <ele>339.9</ele>
        <time>2026-08-06T09:21:17.000Z</time>
      </trkpt>
      <trkpt lat="46.25444" lon="2.58405">
        <ele>339</ele>
        <time>2026-08-06T09:21:19.000Z</time>
      </trkpt>
      <trkpt lat="46.25437" lon="2.58407">
        <ele>338.2</ele>
        <time>2026-08-06T09:21:20.000Z</time>
      </trkpt>
      <trkpt lat="46.25427" lon="2.58409">
        <ele>336.9</ele>
        <time>2026-08-06T09:21:21.000Z</time>
      </trkpt>
      <trkpt lat="46.25418" lon="2.58409">
        <ele>335.2</ele>
        <time>2026-08-06T09:21:22.000Z</time>
      </trkpt>
      <trkpt lat="46.2541" lon="2.58409">
        <ele>333.7</ele>
        <time>2026-08-06T09:21:23.000Z</time>
      </trkpt>
      <trkpt lat="46.25401" lon="2.58409">
        <ele>332.2</ele>
        <time>2026-08-06T09:21:24.000Z</time>
      </trkpt>
      <trkpt lat="46.2539" lon="2.58411">
        <ele>330.6</ele>
        <time>2026-08-06T09:21:25.000Z</time>
      </trkpt>
      <trkpt lat="46.25372" lon="2.58418">
        <ele>327.5</ele>
        <time>2026-08-06T09:21:27.000Z</time>
      </trkpt>
      <trkpt lat="46.25356" lon="2.58433">
        <ele>325.5</ele>
        <time>2026-08-06T09:21:29.000Z</time>
      </trkpt>
      <trkpt lat="46.25349" lon="2.58443">
        <ele>325.3</ele>
        <time>2026-08-06T09:21:30.000Z</time>
      </trkpt>
      <trkpt lat="46.25343" lon="2.58454">
        <ele>325.1</ele>
        <time>2026-08-06T09:21:31.000Z</time>
      </trkpt>
      <trkpt lat="46.25325" lon="2.58486">
        <ele>323.4</ele>
        <time>2026-08-06T09:21:34.000Z</time>
      </trkpt>
      <trkpt lat="46.25314" lon="2.58507">
        <ele>320.9</ele>
        <time>2026-08-06T09:21:36.000Z</time>
      </trkpt>
      <trkpt lat="46.25305" lon="2.58528">
        <ele>317.7</ele>
        <time>2026-08-06T09:21:38.000Z</time>
      </trkpt>
      <trkpt lat="46.25298" lon="2.5855">
        <ele>314.6</ele>
        <time>2026-08-06T09:21:40.000Z</time>
      </trkpt>
      <trkpt lat="46.25295" lon="2.58561">
        <ele>313.2</ele>
        <time>2026-08-06T09:21:41.000Z</time>
      </trkpt>
      <trkpt lat="46.25294" lon="2.58573">
        <ele>312.2</ele>
        <time>2026-08-06T09:21:42.000Z</time>
      </trkpt>
      <trkpt lat="46.25295" lon="2.58584">
        <ele>311.5</ele>
        <time>2026-08-06T09:21:43.000Z</time>
      </trkpt>
      <trkpt lat="46.25295" lon="2.58596">
        <ele>310.9</ele>
        <time>2026-08-06T09:21:44.000Z</time>
      </trkpt>
      <trkpt lat="46.25298" lon="2.58607">
        <ele>310.9</ele>
        <time>2026-08-06T09:21:45.000Z</time>
      </trkpt>
      <trkpt lat="46.25302" lon="2.58616">
        <ele>311.7</ele>
        <time>2026-08-06T09:21:46.000Z</time>
      </trkpt>
      <trkpt lat="46.25307" lon="2.58625">
        <ele>313.1</ele>
        <time>2026-08-06T09:21:47.000Z</time>
      </trkpt>
      <trkpt lat="46.25318" lon="2.58641">
        <ele>316.3</ele>
        <time>2026-08-06T09:21:49.000Z</time>
      </trkpt>
      <trkpt lat="46.25322" lon="2.58648">
        <ele>317.7</ele>
        <time>2026-08-06T09:21:50.000Z</time>
      </trkpt>
      <trkpt lat="46.25325" lon="2.58655">
        <ele>318.5</ele>
        <time>2026-08-06T09:21:51.000Z</time>
      </trkpt>
      <trkpt lat="46.25328" lon="2.58663">
        <ele>319.2</ele>
        <time>2026-08-06T09:21:52.000Z</time>
      </trkpt>
      <trkpt lat="46.2533" lon="2.58684">
        <ele>320.4</ele>
        <time>2026-08-06T09:21:54.000Z</time>
      </trkpt>
      <trkpt lat="46.25324" lon="2.58701">
        <ele>319.5</ele>
        <time>2026-08-06T09:21:56.000Z</time>
      </trkpt>
      <trkpt lat="46.25319" lon="2.58709">
        <ele>318.6</ele>
        <time>2026-08-06T09:21:57.000Z</time>
      </trkpt>
      <trkpt lat="46.2531" lon="2.5873">
        <ele>317.1</ele>
        <time>2026-08-06T09:21:59.000Z</time>
      </trkpt>
      <trkpt lat="46.25299" lon="2.58752">
        <ele>316.1</ele>
        <time>2026-08-06T09:22:01.000Z</time>
      </trkpt>
      <trkpt lat="46.25286" lon="2.58773">
        <ele>313.8</ele>
        <time>2026-08-06T09:22:03.000Z</time>
      </trkpt>
      <trkpt lat="46.25274" lon="2.58796">
        <ele>311.2</ele>
        <time>2026-08-06T09:22:05.000Z</time>
      </trkpt>
      <trkpt lat="46.25263" lon="2.58816">
        <ele>308.8</ele>
        <time>2026-08-06T09:22:07.000Z</time>
      </trkpt>
      <trkpt lat="46.25254" lon="2.58835">
        <ele>307.4</ele>
        <time>2026-08-06T09:22:09.000Z</time>
      </trkpt>
      <trkpt lat="46.25241" lon="2.58864">
        <ele>306.1</ele>
        <time>2026-08-06T09:22:12.000Z</time>
      </trkpt>
      <trkpt lat="46.25226" lon="2.58889">
        <ele>306.1</ele>
        <time>2026-08-06T09:22:15.000Z</time>
      </trkpt>
      <trkpt lat="46.25219" lon="2.58894">
        <ele>306.4</ele>
        <time>2026-08-06T09:22:16.000Z</time>
      </trkpt>
      <trkpt lat="46.25212" lon="2.58898">
        <ele>307.2</ele>
        <time>2026-08-06T09:22:17.000Z</time>
      </trkpt>
      <trkpt lat="46.25201" lon="2.58898">
        <ele>308.1</ele>
        <time>2026-08-06T09:22:19.000Z</time>
      </trkpt>
      <trkpt lat="46.25198" lon="2.58897">
        <ele>308.3</ele>
        <time>2026-08-06T09:22:20.000Z</time>
      </trkpt>
      <trkpt lat="46.25193" lon="2.58894">
        <ele>308.6</ele>
        <time>2026-08-06T09:22:22.000Z</time>
      </trkpt>
      <trkpt lat="46.25187" lon="2.58887">
        <ele>309.2</ele>
        <time>2026-08-06T09:22:26.000Z</time>
      </trkpt>
      <trkpt lat="46.25186" lon="2.58886">
        <ele>309.2</ele>
        <time>2026-08-06T09:22:27.000Z</time>
      </trkpt>
      <trkpt lat="46.25181" lon="2.58878">
        <ele>309.3</ele>
        <time>2026-08-06T09:22:32.000Z</time>
      </trkpt>
      <trkpt lat="46.2518" lon="2.58876">
        <ele>309.3</ele>
        <time>2026-08-06T09:22:33.000Z</time>
      </trkpt>
      <trkpt lat="46.25173" lon="2.58862">
        <ele>308.9</ele>
        <time>2026-08-06T09:22:38.000Z</time>
      </trkpt>
      <trkpt lat="46.25171" lon="2.58856">
        <ele>308.8</ele>
        <time>2026-08-06T09:22:40.000Z</time>
      </trkpt>
      <trkpt lat="46.25167" lon="2.58846">
        <ele>308.8</ele>
        <time>2026-08-06T09:22:47.000Z</time>
      </trkpt>
      <trkpt lat="46.25166" lon="2.58841">
        <ele>308.7</ele>
        <time>2026-08-06T09:22:50.000Z</time>
      </trkpt>
      <trkpt lat="46.25166" lon="2.58838">
        <ele>308.7</ele>
        <time>2026-08-06T09:22:52.000Z</time>
      </trkpt>
      <trkpt lat="46.25165" lon="2.58836">
        <ele>308.8</ele>
        <time>2026-08-06T09:22:53.000Z</time>
      </trkpt>
      <trkpt lat="46.25164" lon="2.58834">
        <ele>308.9</ele>
        <time>2026-08-06T09:22:55.000Z</time>
      </trkpt>
      <trkpt lat="46.25163" lon="2.5883">
        <ele>308.8</ele>
        <time>2026-08-06T09:22:58.000Z</time>
      </trkpt>
      <trkpt lat="46.2516" lon="2.58824">
        <ele>309.5</ele>
        <time>2026-08-06T09:23:01.000Z</time>
      </trkpt>
      <trkpt lat="46.25159" lon="2.58822">
        <ele>309.8</ele>
        <time>2026-08-06T09:23:02.000Z</time>
      </trkpt>
      <trkpt lat="46.25156" lon="2.58815">
        <ele>310.4</ele>
        <time>2026-08-06T09:23:07.000Z</time>
      </trkpt>
      <trkpt lat="46.25155" lon="2.58813">
        <ele>310.5</ele>
        <time>2026-08-06T09:23:08.000Z</time>
      </trkpt>
      <trkpt lat="46.25153" lon="2.58807">
        <ele>310.9</ele>
        <time>2026-08-06T09:23:11.000Z</time>
      </trkpt>
      <trkpt lat="46.25149" lon="2.58795">
        <ele>312.3</ele>
        <time>2026-08-06T09:23:15.000Z</time>
      </trkpt>
      <trkpt lat="46.25147" lon="2.58784">
        <ele>313.6</ele>
        <time>2026-08-06T09:23:19.000Z</time>
      </trkpt>
      <trkpt lat="46.25145" lon="2.58778">
        <ele>314.6</ele>
        <time>2026-08-06T09:23:22.000Z</time>
      </trkpt>
      <trkpt lat="46.25143" lon="2.58777">
        <ele>315.1</ele>
        <time>2026-08-06T09:23:23.000Z</time>
      </trkpt>
      <trkpt lat="46.25134" lon="2.58768">
        <ele>319</ele>
        <time>2026-08-06T09:23:30.000Z</time>
      </trkpt>
      <trkpt lat="46.25129" lon="2.58764">
        <ele>321</ele>
        <time>2026-08-06T09:23:34.000Z</time>
      </trkpt>
      <trkpt lat="46.25126" lon="2.58763">
        <ele>322.1</ele>
        <time>2026-08-06T09:23:36.000Z</time>
      </trkpt>
      <trkpt lat="46.25125" lon="2.58762">
        <ele>322.4</ele>
        <time>2026-08-06T09:23:37.000Z</time>
      </trkpt>
      <trkpt lat="46.25116" lon="2.58749">
        <ele>326.2</ele>
        <time>2026-08-06T09:23:44.000Z</time>
      </trkpt>
      <trkpt lat="46.25113" lon="2.58742">
        <ele>327.5</ele>
        <time>2026-08-06T09:23:47.000Z</time>
      </trkpt>
      <trkpt lat="46.25111" lon="2.58736">
        <ele>328.7</ele>
        <time>2026-08-06T09:23:50.000Z</time>
      </trkpt>
      <trkpt lat="46.25111" lon="2.58734">
        <ele>328.7</ele>
        <time>2026-08-06T09:23:51.000Z</time>
      </trkpt>
      <trkpt lat="46.25112" lon="2.58729">
        <ele>328.5</ele>
        <time>2026-08-06T09:23:54.000Z</time>
      </trkpt>
      <trkpt lat="46.25114" lon="2.58721">
        <ele>327.9</ele>
        <time>2026-08-06T09:23:57.000Z</time>
      </trkpt>
      <trkpt lat="46.25118" lon="2.58711">
        <ele>327</ele>
        <time>2026-08-06T09:24:01.000Z</time>
      </trkpt>
      <trkpt lat="46.25123" lon="2.587">
        <ele>326.4</ele>
        <time>2026-08-06T09:24:07.000Z</time>
      </trkpt>
      <trkpt lat="46.25124" lon="2.58696">
        <ele>326.3</ele>
        <time>2026-08-06T09:24:09.000Z</time>
      </trkpt>
      <trkpt lat="46.25129" lon="2.58688">
        <ele>325.5</ele>
        <time>2026-08-06T09:24:13.000Z</time>
      </trkpt>
      <trkpt lat="46.25132" lon="2.58679">
        <ele>325.5</ele>
        <time>2026-08-06T09:24:17.000Z</time>
      </trkpt>
      <trkpt lat="46.25132" lon="2.58677">
        <ele>325.6</ele>
        <time>2026-08-06T09:24:18.000Z</time>
      </trkpt>
      <trkpt lat="46.25134" lon="2.58662">
        <ele>326.2</ele>
        <time>2026-08-06T09:24:24.000Z</time>
      </trkpt>
      <trkpt lat="46.25135" lon="2.58652">
        <ele>326.4</ele>
        <time>2026-08-06T09:24:29.000Z</time>
      </trkpt>
      <trkpt lat="46.25135" lon="2.58649">
        <ele>326.5</ele>
        <time>2026-08-06T09:24:30.000Z</time>
      </trkpt>
      <trkpt lat="46.25137" lon="2.58632">
        <ele>326.6</ele>
        <time>2026-08-06T09:24:39.000Z</time>
      </trkpt>
      <trkpt lat="46.25137" lon="2.5863">
        <ele>326.7</ele>
        <time>2026-08-06T09:24:40.000Z</time>
      </trkpt>
      <trkpt lat="46.25136" lon="2.58613">
        <ele>327.8</ele>
        <time>2026-08-06T09:24:48.000Z</time>
      </trkpt>
      <trkpt lat="46.25135" lon="2.58611">
        <ele>327.9</ele>
        <time>2026-08-06T09:24:49.000Z</time>
      </trkpt>
      <trkpt lat="46.25135" lon="2.58609">
        <ele>328</ele>
        <time>2026-08-06T09:24:50.000Z</time>
      </trkpt>
      <trkpt lat="46.25134" lon="2.58602">
        <ele>328.2</ele>
        <time>2026-08-06T09:24:53.000Z</time>
      </trkpt>
      <trkpt lat="46.25134" lon="2.58593">
        <ele>328.3</ele>
        <time>2026-08-06T09:24:57.000Z</time>
      </trkpt>
      <trkpt lat="46.25133" lon="2.58584">
        <ele>328.7</ele>
        <time>2026-08-06T09:25:01.000Z</time>
      </trkpt>
      <trkpt lat="46.25132" lon="2.58569">
        <ele>328.6</ele>
        <time>2026-08-06T09:25:08.000Z</time>
      </trkpt>
      <trkpt lat="46.25131" lon="2.58565">
        <ele>328.7</ele>
        <time>2026-08-06T09:25:10.000Z</time>
      </trkpt>
      <trkpt lat="46.25131" lon="2.58563">
        <ele>328.7</ele>
        <time>2026-08-06T09:25:12.000Z</time>
      </trkpt>
      <trkpt lat="46.25131" lon="2.58559">
        <ele>328.4</ele>
        <time>2026-08-06T09:25:14.000Z</time>
      </trkpt>
      <trkpt lat="46.25131" lon="2.58554">
        <ele>328.1</ele>
        <time>2026-08-06T09:25:16.000Z</time>
      </trkpt>
      <trkpt lat="46.2513" lon="2.58549">
        <ele>327.9</ele>
        <time>2026-08-06T09:25:19.000Z</time>
      </trkpt>
      <trkpt lat="46.2513" lon="2.58535">
        <ele>327.2</ele>
        <time>2026-08-06T09:25:24.000Z</time>
      </trkpt>
      <trkpt lat="46.25129" lon="2.58524">
        <ele>326.2</ele>
        <time>2026-08-06T09:25:28.000Z</time>
      </trkpt>
      <trkpt lat="46.25129" lon="2.58517">
        <ele>325</ele>
        <time>2026-08-06T09:25:30.000Z</time>
      </trkpt>
      <trkpt lat="46.25129" lon="2.58514">
        <ele>324.5</ele>
        <time>2026-08-06T09:25:31.000Z</time>
      </trkpt>
      <trkpt lat="46.25122" lon="2.58496">
        <ele>322.1</ele>
        <time>2026-08-06T09:25:38.000Z</time>
      </trkpt>
      <trkpt lat="46.25112" lon="2.58488">
        <ele>321.5</ele>
        <time>2026-08-06T09:25:44.000Z</time>
      </trkpt>
      <trkpt lat="46.25107" lon="2.58485">
        <ele>321.2</ele>
        <time>2026-08-06T09:25:48.000Z</time>
      </trkpt>
      <trkpt lat="46.25105" lon="2.58485">
        <ele>321.5</ele>
        <time>2026-08-06T09:25:50.000Z</time>
      </trkpt>
      <trkpt lat="46.25104" lon="2.58484">
        <ele>321.3</ele>
        <time>2026-08-06T09:25:51.000Z</time>
      </trkpt>
      <trkpt lat="46.25101" lon="2.58483">
        <ele>321.3</ele>
        <time>2026-08-06T09:25:53.000Z</time>
      </trkpt>
      <trkpt lat="46.25098" lon="2.58483">
        <ele>321.8</ele>
        <time>2026-08-06T09:25:56.000Z</time>
      </trkpt>
      <trkpt lat="46.25096" lon="2.58483">
        <ele>321.9</ele>
        <time>2026-08-06T09:25:58.000Z</time>
      </trkpt>
      <trkpt lat="46.25093" lon="2.58482">
        <ele>322.2</ele>
        <time>2026-08-06T09:26:01.000Z</time>
      </trkpt>
      <trkpt lat="46.25089" lon="2.58484">
        <ele>323.3</ele>
        <time>2026-08-06T09:26:04.000Z</time>
      </trkpt>
      <trkpt lat="46.25086" lon="2.58485">
        <ele>324.3</ele>
        <time>2026-08-06T09:26:06.000Z</time>
      </trkpt>
      <trkpt lat="46.25083" lon="2.58487">
        <ele>325.4</ele>
        <time>2026-08-06T09:26:09.000Z</time>
      </trkpt>
      <trkpt lat="46.25078" lon="2.5849">
        <ele>326.6</ele>
        <time>2026-08-06T09:26:13.000Z</time>
      </trkpt>
      <trkpt lat="46.25077" lon="2.58491">
        <ele>327.1</ele>
        <time>2026-08-06T09:26:14.000Z</time>
      </trkpt>
      <trkpt lat="46.25071" lon="2.58493">
        <ele>328</ele>
        <time>2026-08-06T09:26:18.000Z</time>
      </trkpt>
      <trkpt lat="46.2507" lon="2.58493">
        <ele>328.2</ele>
        <time>2026-08-06T09:26:19.000Z</time>
      </trkpt>
      <trkpt lat="46.25069" lon="2.58494">
        <ele>328.4</ele>
        <time>2026-08-06T09:26:21.000Z</time>
      </trkpt>
      <trkpt lat="46.25062" lon="2.58497">
        <ele>329.8</ele>
        <time>2026-08-06T09:26:25.000Z</time>
      </trkpt>
      <trkpt lat="46.25058" lon="2.58498">
        <ele>330.4</ele>
        <time>2026-08-06T09:26:27.000Z</time>
      </trkpt>
      <trkpt lat="46.2505" lon="2.58503">
        <ele>332.9</ele>
        <time>2026-08-06T09:26:31.000Z</time>
      </trkpt>
      <trkpt lat="46.25047" lon="2.58505">
        <ele>333.9</ele>
        <time>2026-08-06T09:26:33.000Z</time>
      </trkpt>
      <trkpt lat="46.25044" lon="2.58505">
        <ele>334.5</ele>
        <time>2026-08-06T09:26:35.000Z</time>
      </trkpt>
      <trkpt lat="46.25041" lon="2.58505">
        <ele>334.9</ele>
        <time>2026-08-06T09:26:38.000Z</time>
      </trkpt>
      <trkpt lat="46.25033" lon="2.58506">
        <ele>336.5</ele>
        <time>2026-08-06T09:26:46.000Z</time>
      </trkpt>
      <trkpt lat="46.25022" lon="2.58502">
        <ele>337.9</ele>
        <time>2026-08-06T09:26:53.000Z</time>
      </trkpt>
      <trkpt lat="46.25021" lon="2.58501">
        <ele>337.8</ele>
        <time>2026-08-06T09:26:54.000Z</time>
      </trkpt>
      <trkpt lat="46.25017" lon="2.585">
        <ele>338.3</ele>
        <time>2026-08-06T09:26:59.000Z</time>
      </trkpt>
      <trkpt lat="46.25015" lon="2.58498">
        <ele>338.4</ele>
        <time>2026-08-06T09:27:01.000Z</time>
      </trkpt>
      <trkpt lat="46.25008" lon="2.58491">
        <ele>338.8</ele>
        <time>2026-08-06T09:27:07.000Z</time>
      </trkpt>
      <trkpt lat="46.25006" lon="2.58489">
        <ele>338.8</ele>
        <time>2026-08-06T09:27:08.000Z</time>
      </trkpt>
      <trkpt lat="46.24991" lon="2.58478">
        <ele>339.7</ele>
        <time>2026-08-06T09:27:18.000Z</time>
      </trkpt>
      <trkpt lat="46.24986" lon="2.58477">
        <ele>340.1</ele>
        <time>2026-08-06T09:27:20.000Z</time>
      </trkpt>
      <trkpt lat="46.24976" lon="2.58469">
        <ele>340.5</ele>
        <time>2026-08-06T09:27:25.000Z</time>
      </trkpt>
      <trkpt lat="46.24967" lon="2.58466">
        <ele>340.5</ele>
        <time>2026-08-06T09:27:32.000Z</time>
      </trkpt>
      <trkpt lat="46.24966" lon="2.58466">
        <ele>340.4</ele>
        <time>2026-08-06T09:27:33.000Z</time>
      </trkpt>
      <trkpt lat="46.24952" lon="2.58466">
        <ele>339.6</ele>
        <time>2026-08-06T09:27:40.000Z</time>
      </trkpt>
      <trkpt lat="46.24947" lon="2.58466">
        <ele>339.4</ele>
        <time>2026-08-06T09:27:43.000Z</time>
      </trkpt>
      <trkpt lat="46.24945" lon="2.58466">
        <ele>339.3</ele>
        <time>2026-08-06T09:27:44.000Z</time>
      </trkpt>
      <trkpt lat="46.24944" lon="2.58467">
        <ele>339.2</ele>
        <time>2026-08-06T09:27:45.000Z</time>
      </trkpt>
      <trkpt lat="46.24943" lon="2.58467">
        <ele>339.3</ele>
        <time>2026-08-06T09:27:46.000Z</time>
      </trkpt>
      <trkpt lat="46.24933" lon="2.58467">
        <ele>339.6</ele>
        <time>2026-08-06T09:27:53.000Z</time>
      </trkpt>
      <trkpt lat="46.24931" lon="2.58468">
        <ele>339.6</ele>
        <time>2026-08-06T09:27:54.000Z</time>
      </trkpt>
      <trkpt lat="46.24928" lon="2.58471">
        <ele>339.6</ele>
        <time>2026-08-06T09:27:56.000Z</time>
      </trkpt>
      <trkpt lat="46.24923" lon="2.58476">
        <ele>340.2</ele>
        <time>2026-08-06T09:27:59.000Z</time>
      </trkpt>
      <trkpt lat="46.24911" lon="2.58482">
        <ele>341.6</ele>
        <time>2026-08-06T09:28:07.000Z</time>
      </trkpt>
      <trkpt lat="46.24907" lon="2.58483">
        <ele>341.9</ele>
        <time>2026-08-06T09:28:09.000Z</time>
      </trkpt>
      <trkpt lat="46.24897" lon="2.58484">
        <ele>342.8</ele>
        <time>2026-08-06T09:28:16.000Z</time>
      </trkpt>
      <trkpt lat="46.24894" lon="2.58483">
        <ele>343</ele>
        <time>2026-08-06T09:28:18.000Z</time>
      </trkpt>
      <trkpt lat="46.24892" lon="2.58483">
        <ele>343.1</ele>
        <time>2026-08-06T09:28:19.000Z</time>
      </trkpt>
      <trkpt lat="46.24888" lon="2.58478">
        <ele>343.4</ele>
        <time>2026-08-06T09:28:23.000Z</time>
      </trkpt>
      <trkpt lat="46.24883" lon="2.58468">
        <ele>344.5</ele>
        <time>2026-08-06T09:28:30.000Z</time>
      </trkpt>
      <trkpt lat="46.24882" lon="2.58467">
        <ele>344.7</ele>
        <time>2026-08-06T09:28:31.000Z</time>
      </trkpt>
      <trkpt lat="46.24882" lon="2.58465">
        <ele>344.9</ele>
        <time>2026-08-06T09:28:32.000Z</time>
      </trkpt>
      <trkpt lat="46.24877" lon="2.58459">
        <ele>346</ele>
        <time>2026-08-06T09:28:37.000Z</time>
      </trkpt>
      <trkpt lat="46.24876" lon="2.58457">
        <ele>346.4</ele>
        <time>2026-08-06T09:28:39.000Z</time>
      </trkpt>
      <trkpt lat="46.24871" lon="2.58448">
        <ele>347.2</ele>
        <time>2026-08-06T09:28:44.000Z</time>
      </trkpt>
      <trkpt lat="46.24871" lon="2.58446">
        <ele>347.3</ele>
        <time>2026-08-06T09:28:46.000Z</time>
      </trkpt>
      <trkpt lat="46.24866" lon="2.58437">
        <ele>348.5</ele>
        <time>2026-08-06T09:28:51.000Z</time>
      </trkpt>
      <trkpt lat="46.24862" lon="2.58432">
        <ele>349.3</ele>
        <time>2026-08-06T09:28:54.000Z</time>
      </trkpt>
      <trkpt lat="46.24855" lon="2.58419">
        <ele>351.3</ele>
        <time>2026-08-06T09:29:01.000Z</time>
      </trkpt>
      <trkpt lat="46.24852" lon="2.58415">
        <ele>351.9</ele>
        <time>2026-08-06T09:29:03.000Z</time>
      </trkpt>
      <trkpt lat="46.24847" lon="2.58406">
        <ele>352.7</ele>
        <time>2026-08-06T09:29:08.000Z</time>
      </trkpt>
      <trkpt lat="46.24842" lon="2.58392">
        <ele>352.9</ele>
        <time>2026-08-06T09:29:15.000Z</time>
      </trkpt>
      <trkpt lat="46.24842" lon="2.5839">
        <ele>352.9</ele>
        <time>2026-08-06T09:29:16.000Z</time>
      </trkpt>
      <trkpt lat="46.24845" lon="2.5838">
        <ele>352.4</ele>
        <time>2026-08-06T09:29:21.000Z</time>
      </trkpt>
      <trkpt lat="46.24849" lon="2.58372">
        <ele>352.1</ele>
        <time>2026-08-06T09:29:27.000Z</time>
      </trkpt>
      <trkpt lat="46.24851" lon="2.58372">
        <ele>352</ele>
        <time>2026-08-06T09:29:29.000Z</time>
      </trkpt>
      <trkpt lat="46.24859" lon="2.58374">
        <ele>351.3</ele>
        <time>2026-08-06T09:29:35.000Z</time>
      </trkpt>
      <trkpt lat="46.24864" lon="2.58377">
        <ele>350.9</ele>
        <time>2026-08-06T09:29:40.000Z</time>
      </trkpt>
      <trkpt lat="46.24867" lon="2.58377">
        <ele>351</ele>
        <time>2026-08-06T09:29:42.000Z</time>
      </trkpt>
      <trkpt lat="46.24867" lon="2.58377">
        <ele>351</ele>
        <time>2026-08-06T09:29:43.000Z</time>
      </trkpt>
      <trkpt lat="46.24869" lon="2.58377">
        <ele>351</ele>
        <time>2026-08-06T09:29:45.000Z</time>
      </trkpt>
      <trkpt lat="46.24872" lon="2.58379">
        <ele>350.8</ele>
        <time>2026-08-06T09:29:47.000Z</time>
      </trkpt>
      <trkpt lat="46.24877" lon="2.58381">
        <ele>350.5</ele>
        <time>2026-08-06T09:29:51.000Z</time>
      </trkpt>
      <trkpt lat="46.2488" lon="2.58383">
        <ele>350.1</ele>
        <time>2026-08-06T09:29:53.000Z</time>
      </trkpt>
      <trkpt lat="46.24881" lon="2.58383">
        <ele>350.1</ele>
        <time>2026-08-06T09:29:54.000Z</time>
      </trkpt>
      <trkpt lat="46.24887" lon="2.58384">
        <ele>349.9</ele>
        <time>2026-08-06T09:30:00.000Z</time>
      </trkpt>
      <trkpt lat="46.24893" lon="2.58383">
        <ele>350.2</ele>
        <time>2026-08-06T09:30:04.000Z</time>
      </trkpt>
      <trkpt lat="46.24899" lon="2.58382">
        <ele>350.6</ele>
        <time>2026-08-06T09:30:07.000Z</time>
      </trkpt>
      <trkpt lat="46.24911" lon="2.58379">
        <ele>351.5</ele>
        <time>2026-08-06T09:30:15.000Z</time>
      </trkpt>
      <trkpt lat="46.24913" lon="2.58379">
        <ele>351.7</ele>
        <time>2026-08-06T09:30:17.000Z</time>
      </trkpt>
      <trkpt lat="46.24921" lon="2.58377">
        <ele>352.2</ele>
        <time>2026-08-06T09:30:22.000Z</time>
      </trkpt>
      <trkpt lat="46.24923" lon="2.58377">
        <ele>352.3</ele>
        <time>2026-08-06T09:30:23.000Z</time>
      </trkpt>
      <trkpt lat="46.24929" lon="2.58376">
        <ele>352.5</ele>
        <time>2026-08-06T09:30:27.000Z</time>
      </trkpt>
      <trkpt lat="46.24933" lon="2.58373">
        <ele>353.2</ele>
        <time>2026-08-06T09:30:30.000Z</time>
      </trkpt>
      <trkpt lat="46.24935" lon="2.58373">
        <ele>353.3</ele>
        <time>2026-08-06T09:30:32.000Z</time>
      </trkpt>
      <trkpt lat="46.24937" lon="2.58373">
        <ele>353.4</ele>
        <time>2026-08-06T09:30:34.000Z</time>
      </trkpt>
      <trkpt lat="46.2494" lon="2.58371">
        <ele>353.7</ele>
        <time>2026-08-06T09:30:36.000Z</time>
      </trkpt>
      <trkpt lat="46.24944" lon="2.58369">
        <ele>354.2</ele>
        <time>2026-08-06T09:30:39.000Z</time>
      </trkpt>
      <trkpt lat="46.24945" lon="2.5837">
        <ele>354.1</ele>
        <time>2026-08-06T09:30:40.000Z</time>
      </trkpt>
      <trkpt lat="46.24951" lon="2.58367">
        <ele>354.5</ele>
        <time>2026-08-06T09:30:44.000Z</time>
      </trkpt>
      <trkpt lat="46.24952" lon="2.58366">
        <ele>354.7</ele>
        <time>2026-08-06T09:30:45.000Z</time>
      </trkpt>
      <trkpt lat="46.24953" lon="2.58365">
        <ele>354.9</ele>
        <time>2026-08-06T09:30:46.000Z</time>
      </trkpt>
      <trkpt lat="46.24956" lon="2.58363">
        <ele>355.1</ele>
        <time>2026-08-06T09:30:48.000Z</time>
      </trkpt>
      <trkpt lat="46.2496" lon="2.58362">
        <ele>355.2</ele>
        <time>2026-08-06T09:30:51.000Z</time>
      </trkpt>
      <trkpt lat="46.24967" lon="2.58359">
        <ele>355.6</ele>
        <time>2026-08-06T09:30:57.000Z</time>
      </trkpt>
      <trkpt lat="46.24979" lon="2.58353">
        <ele>356.1</ele>
        <time>2026-08-06T09:31:04.000Z</time>
      </trkpt>
      <trkpt lat="46.24981" lon="2.58352">
        <ele>356.1</ele>
        <time>2026-08-06T09:31:05.000Z</time>
      </trkpt>
      <trkpt lat="46.24988" lon="2.58347">
        <ele>356.3</ele>
        <time>2026-08-06T09:31:09.000Z</time>
      </trkpt>
      <trkpt lat="46.24991" lon="2.58347">
        <ele>356.1</ele>
        <time>2026-08-06T09:31:10.000Z</time>
      </trkpt>
      <trkpt lat="46.25001" lon="2.58339">
        <ele>356</ele>
        <time>2026-08-06T09:31:16.000Z</time>
      </trkpt>
      <trkpt lat="46.25015" lon="2.5833">
        <ele>355.3</ele>
        <time>2026-08-06T09:31:23.000Z</time>
      </trkpt>
      <trkpt lat="46.25019" lon="2.58328">
        <ele>355.1</ele>
        <time>2026-08-06T09:31:25.000Z</time>
      </trkpt>
      <trkpt lat="46.25031" lon="2.5831">
        <ele>356</ele>
        <time>2026-08-06T09:31:33.000Z</time>
      </trkpt>
      <trkpt lat="46.25033" lon="2.58299">
        <ele>357.1</ele>
        <time>2026-08-06T09:31:37.000Z</time>
      </trkpt>
      <trkpt lat="46.25033" lon="2.58287">
        <ele>358.2</ele>
        <time>2026-08-06T09:31:41.000Z</time>
      </trkpt>
      <trkpt lat="46.25029" lon="2.58266">
        <ele>359.8</ele>
        <time>2026-08-06T09:31:48.000Z</time>
      </trkpt>
      <trkpt lat="46.25027" lon="2.58259">
        <ele>360.1</ele>
        <time>2026-08-06T09:31:50.000Z</time>
      </trkpt>
      <trkpt lat="46.2502" lon="2.58236">
        <ele>360.5</ele>
        <time>2026-08-06T09:31:58.000Z</time>
      </trkpt>
      <trkpt lat="46.25018" lon="2.58231">
        <ele>360.7</ele>
        <time>2026-08-06T09:32:00.000Z</time>
      </trkpt>
      <trkpt lat="46.25007" lon="2.58214">
        <ele>361.6</ele>
        <time>2026-08-06T09:32:08.000Z</time>
      </trkpt>
      <trkpt lat="46.25" lon="2.58203">
        <ele>362.3</ele>
        <time>2026-08-06T09:32:13.000Z</time>
      </trkpt>
      <trkpt lat="46.24998" lon="2.582">
        <ele>362.5</ele>
        <time>2026-08-06T09:32:15.000Z</time>
      </trkpt>
      <trkpt lat="46.24989" lon="2.58189">
        <ele>363.5</ele>
        <time>2026-08-06T09:32:22.000Z</time>
      </trkpt>
      <trkpt lat="46.24984" lon="2.58177">
        <ele>364.1</ele>
        <time>2026-08-06T09:32:27.000Z</time>
      </trkpt>
      <trkpt lat="46.24983" lon="2.58173">
        <ele>364.1</ele>
        <time>2026-08-06T09:32:29.000Z</time>
      </trkpt>
      <trkpt lat="46.24984" lon="2.58156">
        <ele>364.3</ele>
        <time>2026-08-06T09:32:36.000Z</time>
      </trkpt>
      <trkpt lat="46.24985" lon="2.58142">
        <ele>364.5</ele>
        <time>2026-08-06T09:32:41.000Z</time>
      </trkpt>
      <trkpt lat="46.24986" lon="2.5814">
        <ele>364.5</ele>
        <time>2026-08-06T09:32:42.000Z</time>
      </trkpt>
      <trkpt lat="46.24993" lon="2.58125">
        <ele>365.2</ele>
        <time>2026-08-06T09:32:49.000Z</time>
      </trkpt>
      <trkpt lat="46.24994" lon="2.58123">
        <ele>365.3</ele>
        <time>2026-08-06T09:32:50.000Z</time>
      </trkpt>
      <trkpt lat="46.25002" lon="2.58103">
        <ele>366</ele>
        <time>2026-08-06T09:32:58.000Z</time>
      </trkpt>
      <trkpt lat="46.25003" lon="2.58101">
        <ele>366.1</ele>
        <time>2026-08-06T09:32:59.000Z</time>
      </trkpt>
      <trkpt lat="46.2501" lon="2.58078">
        <ele>366.6</ele>
        <time>2026-08-06T09:33:08.000Z</time>
      </trkpt>
      <trkpt lat="46.25012" lon="2.58067">
        <ele>367.1</ele>
        <time>2026-08-06T09:33:12.000Z</time>
      </trkpt>
      <trkpt lat="46.25014" lon="2.58051">
        <ele>367.8</ele>
        <time>2026-08-06T09:33:18.000Z</time>
      </trkpt>
      <trkpt lat="46.25015" lon="2.58025">
        <ele>368.9</ele>
        <time>2026-08-06T09:33:28.000Z</time>
      </trkpt>
      <trkpt lat="46.25015" lon="2.58022">
        <ele>369</ele>
        <time>2026-08-06T09:33:29.000Z</time>
      </trkpt>
      <trkpt lat="46.25017" lon="2.57996">
        <ele>369.6</ele>
        <time>2026-08-06T09:33:39.000Z</time>
      </trkpt>
      <trkpt lat="46.25017" lon="2.57991">
        <ele>370</ele>
        <time>2026-08-06T09:33:42.000Z</time>
      </trkpt>
      <trkpt lat="46.25017" lon="2.57988">
        <ele>370</ele>
        <time>2026-08-06T09:33:44.000Z</time>
      </trkpt>
      <trkpt lat="46.25018" lon="2.57985">
        <ele>370</ele>
        <time>2026-08-06T09:33:46.000Z</time>
      </trkpt>
      <trkpt lat="46.25018" lon="2.57974">
        <ele>370.3</ele>
        <time>2026-08-06T09:33:52.000Z</time>
      </trkpt>
      <trkpt lat="46.25019" lon="2.57972">
        <ele>370.3</ele>
        <time>2026-08-06T09:33:53.000Z</time>
      </trkpt>
      <trkpt lat="46.25018" lon="2.57963">
        <ele>370.5</ele>
        <time>2026-08-06T09:33:58.000Z</time>
      </trkpt>
      <trkpt lat="46.25017" lon="2.57961">
        <ele>370.5</ele>
        <time>2026-08-06T09:33:59.000Z</time>
      </trkpt>
      <trkpt lat="46.25013" lon="2.57939">
        <ele>371.2</ele>
        <time>2026-08-06T09:34:09.000Z</time>
      </trkpt>
      <trkpt lat="46.25004" lon="2.57922">
        <ele>372.5</ele>
        <time>2026-08-06T09:34:17.000Z</time>
      </trkpt>
      <trkpt lat="46.24991" lon="2.57913">
        <ele>373.3</ele>
        <time>2026-08-06T09:34:25.000Z</time>
      </trkpt>
      <trkpt lat="46.24981" lon="2.57911">
        <ele>373.8</ele>
        <time>2026-08-06T09:34:31.000Z</time>
      </trkpt>
      <trkpt lat="46.24979" lon="2.57911">
        <ele>373.9</ele>
        <time>2026-08-06T09:34:32.000Z</time>
      </trkpt>
      <trkpt lat="46.24969" lon="2.57913">
        <ele>374.7</ele>
        <time>2026-08-06T09:34:37.000Z</time>
      </trkpt>
      <trkpt lat="46.24963" lon="2.57913">
        <ele>374.9</ele>
        <time>2026-08-06T09:34:41.000Z</time>
      </trkpt>
      <trkpt lat="46.24956" lon="2.57915">
        <ele>375.4</ele>
        <time>2026-08-06T09:34:45.000Z</time>
      </trkpt>
      <trkpt lat="46.2494" lon="2.57914">
        <ele>376</ele>
        <time>2026-08-06T09:34:54.000Z</time>
      </trkpt>
      <trkpt lat="46.24931" lon="2.57912">
        <ele>376.5</ele>
        <time>2026-08-06T09:34:59.000Z</time>
      </trkpt>
      <trkpt lat="46.24922" lon="2.57906">
        <ele>376.7</ele>
        <time>2026-08-06T09:35:04.000Z</time>
      </trkpt>
      <trkpt lat="46.24909" lon="2.57891">
        <ele>377.5</ele>
        <time>2026-08-06T09:35:13.000Z</time>
      </trkpt>
      <trkpt lat="46.24903" lon="2.57881">
        <ele>377.8</ele>
        <time>2026-08-06T09:35:18.000Z</time>
      </trkpt>
      <trkpt lat="46.24902" lon="2.57879">
        <ele>378</ele>
        <time>2026-08-06T09:35:19.000Z</time>
      </trkpt>
      <trkpt lat="46.24896" lon="2.5787">
        <ele>378.3</ele>
        <time>2026-08-06T09:35:24.000Z</time>
      </trkpt>
      <trkpt lat="46.24894" lon="2.57865">
        <ele>378.4</ele>
        <time>2026-08-06T09:35:26.000Z</time>
      </trkpt>
      <trkpt lat="46.24889" lon="2.57856">
        <ele>378.7</ele>
        <time>2026-08-06T09:35:30.000Z</time>
      </trkpt>
      <trkpt lat="46.24885" lon="2.57847">
        <ele>378.9</ele>
        <time>2026-08-06T09:35:34.000Z</time>
      </trkpt>
      <trkpt lat="46.24879" lon="2.57835">
        <ele>379.3</ele>
        <time>2026-08-06T09:35:39.000Z</time>
      </trkpt>
      <trkpt lat="46.24872" lon="2.57817">
        <ele>380.4</ele>
        <time>2026-08-06T09:35:46.000Z</time>
      </trkpt>
      <trkpt lat="46.24871" lon="2.57797">
        <ele>380.7</ele>
        <time>2026-08-06T09:35:53.000Z</time>
      </trkpt>
      <trkpt lat="46.24871" lon="2.57794">
        <ele>380.8</ele>
        <time>2026-08-06T09:35:54.000Z</time>
      </trkpt>
      <trkpt lat="46.24871" lon="2.57788">
        <ele>380.9</ele>
        <time>2026-08-06T09:35:56.000Z</time>
      </trkpt>
      <trkpt lat="46.24871" lon="2.57782">
        <ele>381.1</ele>
        <time>2026-08-06T09:35:58.000Z</time>
      </trkpt>
      <trkpt lat="46.2487" lon="2.57765">
        <ele>381.9</ele>
        <time>2026-08-06T09:36:04.000Z</time>
      </trkpt>
      <trkpt lat="46.24869" lon="2.5776">
        <ele>382.3</ele>
        <time>2026-08-06T09:36:06.000Z</time>
      </trkpt>
      <trkpt lat="46.24862" lon="2.57742">
        <ele>383.3</ele>
        <time>2026-08-06T09:36:13.000Z</time>
      </trkpt>
      <trkpt lat="46.24847" lon="2.5773">
        <ele>384.1</ele>
        <time>2026-08-06T09:36:22.000Z</time>
      </trkpt>
      <trkpt lat="46.24845" lon="2.57729">
        <ele>384.2</ele>
        <time>2026-08-06T09:36:23.000Z</time>
      </trkpt>
      <trkpt lat="46.24829" lon="2.57727">
        <ele>385.5</ele>
        <time>2026-08-06T09:36:31.000Z</time>
      </trkpt>
      <trkpt lat="46.24822" lon="2.57726">
        <ele>385.7</ele>
        <time>2026-08-06T09:36:35.000Z</time>
      </trkpt>
      <trkpt lat="46.24818" lon="2.57725">
        <ele>385.8</ele>
        <time>2026-08-06T09:36:38.000Z</time>
      </trkpt>
      <trkpt lat="46.24809" lon="2.57724">
        <ele>386.1</ele>
        <time>2026-08-06T09:36:43.000Z</time>
      </trkpt>
      <trkpt lat="46.24807" lon="2.57724">
        <ele>386.1</ele>
        <time>2026-08-06T09:36:44.000Z</time>
      </trkpt>
      <trkpt lat="46.24796" lon="2.57723">
        <ele>386.8</ele>
        <time>2026-08-06T09:36:50.000Z</time>
      </trkpt>
      <trkpt lat="46.24792" lon="2.57722">
        <ele>387</ele>
        <time>2026-08-06T09:36:52.000Z</time>
      </trkpt>
      <trkpt lat="46.24781" lon="2.5772">
        <ele>387.6</ele>
        <time>2026-08-06T09:36:58.000Z</time>
      </trkpt>
      <trkpt lat="46.2476" lon="2.57717">
        <ele>389.4</ele>
        <time>2026-08-06T09:37:09.000Z</time>
      </trkpt>
      <trkpt lat="46.24757" lon="2.57716">
        <ele>389.6</ele>
        <time>2026-08-06T09:37:11.000Z</time>
      </trkpt>
      <trkpt lat="46.24745" lon="2.57706">
        <ele>389.7</ele>
        <time>2026-08-06T09:37:18.000Z</time>
      </trkpt>
      <trkpt lat="46.24739" lon="2.577">
        <ele>389.6</ele>
        <time>2026-08-06T09:37:22.000Z</time>
      </trkpt>
      <trkpt lat="46.24733" lon="2.57692">
        <ele>389.8</ele>
        <time>2026-08-06T09:37:26.000Z</time>
      </trkpt>
      <trkpt lat="46.24729" lon="2.57683">
        <ele>390.6</ele>
        <time>2026-08-06T09:37:30.000Z</time>
      </trkpt>
      <trkpt lat="46.24726" lon="2.57672">
        <ele>391.3</ele>
        <time>2026-08-06T09:37:34.000Z</time>
      </trkpt>
      <trkpt lat="46.24726" lon="2.5767">
        <ele>391.4</ele>
        <time>2026-08-06T09:37:35.000Z</time>
      </trkpt>
      <trkpt lat="46.24723" lon="2.57654">
        <ele>391.9</ele>
        <time>2026-08-06T09:37:42.000Z</time>
      </trkpt>
      <trkpt lat="46.24722" lon="2.57646">
        <ele>392</ele>
        <time>2026-08-06T09:37:45.000Z</time>
      </trkpt>
      <trkpt lat="46.24722" lon="2.57641">
        <ele>392</ele>
        <time>2026-08-06T09:37:47.000Z</time>
      </trkpt>
      <trkpt lat="46.24722" lon="2.57636">
        <ele>392.2</ele>
        <time>2026-08-06T09:37:49.000Z</time>
      </trkpt>
      <trkpt lat="46.24721" lon="2.57626">
        <ele>392.7</ele>
        <time>2026-08-06T09:37:53.000Z</time>
      </trkpt>
      <trkpt lat="46.24719" lon="2.57609">
        <ele>393.5</ele>
        <time>2026-08-06T09:38:00.000Z</time>
      </trkpt>
      <trkpt lat="46.24718" lon="2.57605">
        <ele>393.6</ele>
        <time>2026-08-06T09:38:02.000Z</time>
      </trkpt>
      <trkpt lat="46.24716" lon="2.57592">
        <ele>393.9</ele>
        <time>2026-08-06T09:38:08.000Z</time>
      </trkpt>
      <trkpt lat="46.24715" lon="2.57586">
        <ele>394</ele>
        <time>2026-08-06T09:38:10.000Z</time>
      </trkpt>
      <trkpt lat="46.24715" lon="2.57584">
        <ele>394.1</ele>
        <time>2026-08-06T09:38:11.000Z</time>
      </trkpt>
      <trkpt lat="46.2471" lon="2.57568">
        <ele>395</ele>
        <time>2026-08-06T09:38:17.000Z</time>
      </trkpt>
      <trkpt lat="46.2471" lon="2.57566">
        <ele>395</ele>
        <time>2026-08-06T09:38:18.000Z</time>
      </trkpt>
      <trkpt lat="46.2471" lon="2.57565">
        <ele>395</ele>
        <time>2026-08-06T09:38:21.000Z</time>
      </trkpt>
      <trkpt lat="46.24706" lon="2.57551">
        <ele>395.8</ele>
        <time>2026-08-06T09:42:57.000Z</time>
      </trkpt>
      <trkpt lat="46.24699" lon="2.57529">
        <ele>396.4</ele>
        <time>2026-08-06T09:43:05.000Z</time>
      </trkpt>
      <trkpt lat="46.24692" lon="2.57507">
        <ele>397.4</ele>
        <time>2026-08-06T09:43:15.000Z</time>
      </trkpt>
      <trkpt lat="46.24685" lon="2.57491">
        <ele>397.7</ele>
        <time>2026-08-06T09:43:23.000Z</time>
      </trkpt>
      <trkpt lat="46.24675" lon="2.57476">
        <ele>398.3</ele>
        <time>2026-08-06T09:43:32.000Z</time>
      </trkpt>
      <trkpt lat="46.24668" lon="2.57473">
        <ele>398.9</ele>
        <time>2026-08-06T09:43:36.000Z</time>
      </trkpt>
      <trkpt lat="46.24662" lon="2.57474">
        <ele>399.1</ele>
        <time>2026-08-06T09:43:40.000Z</time>
      </trkpt>
      <trkpt lat="46.24653" lon="2.57479">
        <ele>399.4</ele>
        <time>2026-08-06T09:43:46.000Z</time>
      </trkpt>
      <trkpt lat="46.24638" lon="2.5749">
        <ele>400.3</ele>
        <time>2026-08-06T09:43:55.000Z</time>
      </trkpt>
      <trkpt lat="46.24635" lon="2.57493">
        <ele>400.5</ele>
        <time>2026-08-06T09:43:57.000Z</time>
      </trkpt>
      <trkpt lat="46.24626" lon="2.57504">
        <ele>401.1</ele>
        <time>2026-08-06T09:44:05.000Z</time>
      </trkpt>
      <trkpt lat="46.24618" lon="2.57509">
        <ele>401.3</ele>
        <time>2026-08-06T09:44:10.000Z</time>
      </trkpt>
      <trkpt lat="46.24612" lon="2.57515">
        <ele>401.6</ele>
        <time>2026-08-06T09:44:14.000Z</time>
      </trkpt>
      <trkpt lat="46.24607" lon="2.5752">
        <ele>401.7</ele>
        <time>2026-08-06T09:44:17.000Z</time>
      </trkpt>
      <trkpt lat="46.24606" lon="2.57522">
        <ele>401.7</ele>
        <time>2026-08-06T09:44:18.000Z</time>
      </trkpt>
      <trkpt lat="46.24597" lon="2.5753">
        <ele>402.1</ele>
        <time>2026-08-06T09:44:24.000Z</time>
      </trkpt>
      <trkpt lat="46.2458" lon="2.57545">
        <ele>403.2</ele>
        <time>2026-08-06T09:44:35.000Z</time>
      </trkpt>
      <trkpt lat="46.2457" lon="2.57556">
        <ele>404</ele>
        <time>2026-08-06T09:44:42.000Z</time>
      </trkpt>
      <trkpt lat="46.24568" lon="2.57558">
        <ele>404.1</ele>
        <time>2026-08-06T09:44:43.000Z</time>
      </trkpt>
      <trkpt lat="46.24553" lon="2.57572">
        <ele>405.2</ele>
        <time>2026-08-06T09:44:53.000Z</time>
      </trkpt>
      <trkpt lat="46.24548" lon="2.57576">
        <ele>405.4</ele>
        <time>2026-08-06T09:44:56.000Z</time>
      </trkpt>
      <trkpt lat="46.24541" lon="2.57584">
        <ele>406</ele>
        <time>2026-08-06T09:45:01.000Z</time>
      </trkpt>
      <trkpt lat="46.24535" lon="2.5759">
        <ele>406.5</ele>
        <time>2026-08-06T09:45:05.000Z</time>
      </trkpt>
      <trkpt lat="46.24527" lon="2.57597">
        <ele>407</ele>
        <time>2026-08-06T09:45:10.000Z</time>
      </trkpt>
      <trkpt lat="46.24514" lon="2.57611">
        <ele>407.5</ele>
        <time>2026-08-06T09:45:19.000Z</time>
      </trkpt>
      <trkpt lat="46.24507" lon="2.57618">
        <ele>407.7</ele>
        <time>2026-08-06T09:45:25.000Z</time>
      </trkpt>
      <trkpt lat="46.24506" lon="2.57619">
        <ele>407.7</ele>
        <time>2026-08-06T09:45:26.000Z</time>
      </trkpt>
      <trkpt lat="46.24498" lon="2.57625">
        <ele>408</ele>
        <time>2026-08-06T09:45:32.000Z</time>
      </trkpt>
      <trkpt lat="46.24488" lon="2.57633">
        <ele>408.6</ele>
        <time>2026-08-06T09:45:39.000Z</time>
      </trkpt>
      <trkpt lat="46.24482" lon="2.5764">
        <ele>409.1</ele>
        <time>2026-08-06T09:45:43.000Z</time>
      </trkpt>
      <trkpt lat="46.24475" lon="2.57643">
        <ele>409.3</ele>
        <time>2026-08-06T09:45:47.000Z</time>
      </trkpt>
      <trkpt lat="46.24473" lon="2.57644">
        <ele>409.3</ele>
        <time>2026-08-06T09:45:48.000Z</time>
      </trkpt>
      <trkpt lat="46.24461" lon="2.57643">
        <ele>410.5</ele>
        <time>2026-08-06T09:45:55.000Z</time>
      </trkpt>
      <trkpt lat="46.24454" lon="2.57642">
        <ele>411.2</ele>
        <time>2026-08-06T09:45:59.000Z</time>
      </trkpt>
      <trkpt lat="46.24445" lon="2.57637">
        <ele>411.7</ele>
        <time>2026-08-06T09:46:04.000Z</time>
      </trkpt>
      <trkpt lat="46.24433" lon="2.57623">
        <ele>411.9</ele>
        <time>2026-08-06T09:46:12.000Z</time>
      </trkpt>
      <trkpt lat="46.24429" lon="2.57616">
        <ele>412.1</ele>
        <time>2026-08-06T09:46:16.000Z</time>
      </trkpt>
      <trkpt lat="46.24425" lon="2.57607">
        <ele>412.4</ele>
        <time>2026-08-06T09:46:20.000Z</time>
      </trkpt>
      <trkpt lat="46.24424" lon="2.57605">
        <ele>412.5</ele>
        <time>2026-08-06T09:46:21.000Z</time>
      </trkpt>
      <trkpt lat="46.24416" lon="2.57587">
        <ele>413.2</ele>
        <time>2026-08-06T09:46:30.000Z</time>
      </trkpt>
      <trkpt lat="46.24408" lon="2.57569">
        <ele>413.6</ele>
        <time>2026-08-06T09:46:39.000Z</time>
      </trkpt>
      <trkpt lat="46.24397" lon="2.57549">
        <ele>414.2</ele>
        <time>2026-08-06T09:46:49.000Z</time>
      </trkpt>
      <trkpt lat="46.24383" lon="2.57531">
        <ele>416.2</ele>
        <time>2026-08-06T09:47:00.000Z</time>
      </trkpt>
      <trkpt lat="46.24379" lon="2.57526">
        <ele>416.7</ele>
        <time>2026-08-06T09:47:03.000Z</time>
      </trkpt>
      <trkpt lat="46.24368" lon="2.57511">
        <ele>417.5</ele>
        <time>2026-08-06T09:47:12.000Z</time>
      </trkpt>
      <trkpt lat="46.24364" lon="2.57502">
        <ele>417.6</ele>
        <time>2026-08-06T09:47:16.000Z</time>
      </trkpt>
      <trkpt lat="46.24362" lon="2.57493">
        <ele>418.1</ele>
        <time>2026-08-06T09:47:20.000Z</time>
      </trkpt>
      <trkpt lat="46.24362" lon="2.57491">
        <ele>418.1</ele>
        <time>2026-08-06T09:47:21.000Z</time>
      </trkpt>
      <trkpt lat="46.24362" lon="2.57478">
        <ele>418.6</ele>
        <time>2026-08-06T09:47:26.000Z</time>
      </trkpt>
      <trkpt lat="46.24363" lon="2.57474">
        <ele>418.7</ele>
        <time>2026-08-06T09:47:28.000Z</time>
      </trkpt>
      <trkpt lat="46.24366" lon="2.57455">
        <ele>419.6</ele>
        <time>2026-08-06T09:47:36.000Z</time>
      </trkpt>
      <trkpt lat="46.24367" lon="2.57451">
        <ele>419.7</ele>
        <time>2026-08-06T09:47:38.000Z</time>
      </trkpt>
      <trkpt lat="46.24368" lon="2.57446">
        <ele>419.9</ele>
        <time>2026-08-06T09:47:41.000Z</time>
      </trkpt>
      <trkpt lat="46.24368" lon="2.57444">
        <ele>420.1</ele>
        <time>2026-08-06T09:47:42.000Z</time>
      </trkpt>
      <trkpt lat="46.24368" lon="2.57442">
        <ele>420.1</ele>
        <time>2026-08-06T09:47:43.000Z</time>
      </trkpt>
      <trkpt lat="46.24368" lon="2.57428">
        <ele>420.3</ele>
        <time>2026-08-06T09:47:50.000Z</time>
      </trkpt>
      <trkpt lat="46.24366" lon="2.57412">
        <ele>420.7</ele>
        <time>2026-08-06T09:47:57.000Z</time>
      </trkpt>
      <trkpt lat="46.24365" lon="2.5741">
        <ele>420.7</ele>
        <time>2026-08-06T09:47:58.000Z</time>
      </trkpt>
      <trkpt lat="46.2436" lon="2.57394">
        <ele>421.1</ele>
        <time>2026-08-06T09:48:05.000Z</time>
      </trkpt>
      <trkpt lat="46.24354" lon="2.57376">
        <ele>421.6</ele>
        <time>2026-08-06T09:48:13.000Z</time>
      </trkpt>
      <trkpt lat="46.24345" lon="2.57358">
        <ele>422.2</ele>
        <time>2026-08-06T09:48:22.000Z</time>
      </trkpt>
      <trkpt lat="46.24333" lon="2.5734">
        <ele>423</ele>
        <time>2026-08-06T09:48:32.000Z</time>
      </trkpt>
      <trkpt lat="46.24321" lon="2.5733">
        <ele>423.4</ele>
        <time>2026-08-06T09:48:39.000Z</time>
      </trkpt>
      <trkpt lat="46.2432" lon="2.57329">
        <ele>423.4</ele>
        <time>2026-08-06T09:48:40.000Z</time>
      </trkpt>
      <trkpt lat="46.24315" lon="2.57325">
        <ele>423.6</ele>
        <time>2026-08-06T09:48:43.000Z</time>
      </trkpt>
      <trkpt lat="46.24306" lon="2.5732">
        <ele>424</ele>
        <time>2026-08-06T09:48:48.000Z</time>
      </trkpt>
      <trkpt lat="46.24294" lon="2.57313">
        <ele>424.1</ele>
        <time>2026-08-06T09:48:56.000Z</time>
      </trkpt>
      <trkpt lat="46.24294" lon="2.57312">
        <ele>424.1</ele>
        <time>2026-08-06T09:48:58.000Z</time>
      </trkpt>
      <trkpt lat="46.24287" lon="2.5731">
        <ele>424.1</ele>
        <time>2026-08-06T09:50:57.000Z</time>
      </trkpt>
      <trkpt lat="46.24285" lon="2.57309">
        <ele>424.1</ele>
        <time>2026-08-06T09:50:58.000Z</time>
      </trkpt>
      <trkpt lat="46.24269" lon="2.573">
        <ele>424.3</ele>
        <time>2026-08-06T09:51:05.000Z</time>
      </trkpt>
      <trkpt lat="46.24238" lon="2.57284">
        <ele>424.1</ele>
        <time>2026-08-06T09:51:15.000Z</time>
      </trkpt>
      <trkpt lat="46.24215" lon="2.57272">
        <ele>423.5</ele>
        <time>2026-08-06T09:51:21.000Z</time>
      </trkpt>
      <trkpt lat="46.24195" lon="2.57261">
        <ele>422.4</ele>
        <time>2026-08-06T09:51:25.000Z</time>
      </trkpt>
      <trkpt lat="46.24178" lon="2.57253">
        <ele>421.5</ele>
        <time>2026-08-06T09:51:28.000Z</time>
      </trkpt>
      <trkpt lat="46.24141" lon="2.57234">
        <ele>419.5</ele>
        <time>2026-08-06T09:51:34.000Z</time>
      </trkpt>
      <trkpt lat="46.24134" lon="2.5723">
        <ele>419.1</ele>
        <time>2026-08-06T09:51:35.000Z</time>
      </trkpt>
      <trkpt lat="46.24106" lon="2.57215">
        <ele>417.4</ele>
        <time>2026-08-06T09:51:39.000Z</time>
      </trkpt>
      <trkpt lat="46.24077" lon="2.572">
        <ele>415.6</ele>
        <time>2026-08-06T09:51:43.000Z</time>
      </trkpt>
      <trkpt lat="46.2407" lon="2.57196">
        <ele>415</ele>
        <time>2026-08-06T09:51:44.000Z</time>
      </trkpt>
      <trkpt lat="46.24041" lon="2.5718">
        <ele>413.2</ele>
        <time>2026-08-06T09:51:48.000Z</time>
      </trkpt>
      <trkpt lat="46.24018" lon="2.57168">
        <ele>412.3</ele>
        <time>2026-08-06T09:51:51.000Z</time>
      </trkpt>
      <trkpt lat="46.24004" lon="2.57161">
        <ele>411.3</ele>
        <time>2026-08-06T09:51:53.000Z</time>
      </trkpt>
      <trkpt lat="46.23991" lon="2.57154">
        <ele>410.5</ele>
        <time>2026-08-06T09:51:55.000Z</time>
      </trkpt>
      <trkpt lat="46.2397" lon="2.57143">
        <ele>409.7</ele>
        <time>2026-08-06T09:51:58.000Z</time>
      </trkpt>
      <trkpt lat="46.23941" lon="2.5713">
        <ele>408.1</ele>
        <time>2026-08-06T09:52:02.000Z</time>
      </trkpt>
      <trkpt lat="46.23935" lon="2.57129">
        <ele>407.9</ele>
        <time>2026-08-06T09:52:03.000Z</time>
      </trkpt>
      <trkpt lat="46.23925" lon="2.57129">
        <ele>407.4</ele>
        <time>2026-08-06T09:52:04.000Z</time>
      </trkpt>
      <trkpt lat="46.23918" lon="2.57131">
        <ele>407</ele>
        <time>2026-08-06T09:52:05.000Z</time>
      </trkpt>
      <trkpt lat="46.23902" lon="2.57142">
        <ele>406.5</ele>
        <time>2026-08-06T09:52:07.000Z</time>
      </trkpt>
      <trkpt lat="46.23895" lon="2.57148">
        <ele>406.2</ele>
        <time>2026-08-06T09:52:08.000Z</time>
      </trkpt>
      <trkpt lat="46.23873" lon="2.57167">
        <ele>405.4</ele>
        <time>2026-08-06T09:52:11.000Z</time>
      </trkpt>
      <trkpt lat="46.23858" lon="2.57179">
        <ele>404.8</ele>
        <time>2026-08-06T09:52:13.000Z</time>
      </trkpt>
      <trkpt lat="46.23851" lon="2.57186">
        <ele>404.4</ele>
        <time>2026-08-06T09:52:14.000Z</time>
      </trkpt>
      <trkpt lat="46.23828" lon="2.57205">
        <ele>403</ele>
        <time>2026-08-06T09:52:17.000Z</time>
      </trkpt>
      <trkpt lat="46.23805" lon="2.57222">
        <ele>401</ele>
        <time>2026-08-06T09:52:20.000Z</time>
      </trkpt>
      <trkpt lat="46.23788" lon="2.57231">
        <ele>400.5</ele>
        <time>2026-08-06T09:52:22.000Z</time>
      </trkpt>
      <trkpt lat="46.23779" lon="2.57234">
        <ele>400.1</ele>
        <time>2026-08-06T09:52:23.000Z</time>
      </trkpt>
      <trkpt lat="46.23752" lon="2.5724">
        <ele>398.5</ele>
        <time>2026-08-06T09:52:26.000Z</time>
      </trkpt>
      <trkpt lat="46.23743" lon="2.57241">
        <ele>398</ele>
        <time>2026-08-06T09:52:27.000Z</time>
      </trkpt>
      <trkpt lat="46.23716" lon="2.57245">
        <ele>396.5</ele>
        <time>2026-08-06T09:52:30.000Z</time>
      </trkpt>
      <trkpt lat="46.23688" lon="2.57249">
        <ele>394.5</ele>
        <time>2026-08-06T09:52:33.000Z</time>
      </trkpt>
      <trkpt lat="46.23668" lon="2.57251">
        <ele>393.1</ele>
        <time>2026-08-06T09:52:35.000Z</time>
      </trkpt>
      <trkpt lat="46.23638" lon="2.57256">
        <ele>391.9</ele>
        <time>2026-08-06T09:52:38.000Z</time>
      </trkpt>
      <trkpt lat="46.23607" lon="2.57261">
        <ele>389.6</ele>
        <time>2026-08-06T09:52:41.000Z</time>
      </trkpt>
      <trkpt lat="46.23586" lon="2.57264">
        <ele>387.7</ele>
        <time>2026-08-06T09:52:43.000Z</time>
      </trkpt>
      <trkpt lat="46.23575" lon="2.57266">
        <ele>387.2</ele>
        <time>2026-08-06T09:52:44.000Z</time>
      </trkpt>
      <trkpt lat="46.23564" lon="2.57267">
        <ele>386.9</ele>
        <time>2026-08-06T09:52:45.000Z</time>
      </trkpt>
      <trkpt lat="46.23533" lon="2.57268">
        <ele>387.2</ele>
        <time>2026-08-06T09:52:48.000Z</time>
      </trkpt>
      <trkpt lat="46.23522" lon="2.57265">
        <ele>387</ele>
        <time>2026-08-06T09:52:49.000Z</time>
      </trkpt>
      <trkpt lat="46.23513" lon="2.57261">
        <ele>386.7</ele>
        <time>2026-08-06T09:52:50.000Z</time>
      </trkpt>
      <trkpt lat="46.23497" lon="2.57246">
        <ele>386.8</ele>
        <time>2026-08-06T09:52:52.000Z</time>
      </trkpt>
      <trkpt lat="46.23485" lon="2.57226">
        <ele>386.5</ele>
        <time>2026-08-06T09:52:54.000Z</time>
      </trkpt>
      <trkpt lat="46.23482" lon="2.57216">
        <ele>387</ele>
        <time>2026-08-06T09:52:55.000Z</time>
      </trkpt>
      <trkpt lat="46.23476" lon="2.57194">
        <ele>388.6</ele>
        <time>2026-08-06T09:52:57.000Z</time>
      </trkpt>
      <trkpt lat="46.23473" lon="2.57176">
        <ele>388.9</ele>
        <time>2026-08-06T09:52:59.000Z</time>
      </trkpt>
      <trkpt lat="46.23469" lon="2.57141">
        <ele>390.2</ele>
        <time>2026-08-06T09:53:04.000Z</time>
      </trkpt>
      <trkpt lat="46.23467" lon="2.57124">
        <ele>391</ele>
        <time>2026-08-06T09:53:07.000Z</time>
      </trkpt>
      <trkpt lat="46.23466" lon="2.57115">
        <ele>391.4</ele>
        <time>2026-08-06T09:53:09.000Z</time>
      </trkpt>
      <trkpt lat="46.23465" lon="2.571">
        <ele>391.9</ele>
        <time>2026-08-06T09:53:13.000Z</time>
      </trkpt>
      <trkpt lat="46.23463" lon="2.57094">
        <ele>392.2</ele>
        <time>2026-08-06T09:53:15.000Z</time>
      </trkpt>
      <trkpt lat="46.23463" lon="2.57091">
        <ele>392.2</ele>
        <time>2026-08-06T09:53:16.000Z</time>
      </trkpt>
      <trkpt lat="46.23462" lon="2.57068">
        <ele>393</ele>
        <time>2026-08-06T09:53:23.000Z</time>
      </trkpt>
      <trkpt lat="46.23461" lon="2.57063">
        <ele>393.3</ele>
        <time>2026-08-06T09:53:25.000Z</time>
      </trkpt>
      <trkpt lat="46.2346" lon="2.57048">
        <ele>393.9</ele>
        <time>2026-08-06T09:53:30.000Z</time>
      </trkpt>
      <trkpt lat="46.23456" lon="2.57023">
        <ele>394.8</ele>
        <time>2026-08-06T09:53:38.000Z</time>
      </trkpt>
      <trkpt lat="46.23456" lon="2.57021">
        <ele>394.9</ele>
        <time>2026-08-06T09:53:39.000Z</time>
      </trkpt>
      <trkpt lat="46.23455" lon="2.57004">
        <ele>395.4</ele>
        <time>2026-08-06T09:53:45.000Z</time>
      </trkpt>
      <trkpt lat="46.23452" lon="2.56987">
        <ele>395.8</ele>
        <time>2026-08-06T09:53:51.000Z</time>
      </trkpt>
      <trkpt lat="46.2345" lon="2.56975">
        <ele>396</ele>
        <time>2026-08-06T09:53:55.000Z</time>
      </trkpt>
      <trkpt lat="46.23448" lon="2.56951">
        <ele>396.6</ele>
        <time>2026-08-06T09:54:03.000Z</time>
      </trkpt>
      <trkpt lat="46.23447" lon="2.56942">
        <ele>396.7</ele>
        <time>2026-08-06T09:54:06.000Z</time>
      </trkpt>
      <trkpt lat="46.23444" lon="2.56909">
        <ele>397.3</ele>
        <time>2026-08-06T09:54:17.000Z</time>
      </trkpt>
      <trkpt lat="46.23441" lon="2.56888">
        <ele>398.2</ele>
        <time>2026-08-06T09:54:25.000Z</time>
      </trkpt>
      <trkpt lat="46.23441" lon="2.56886">
        <ele>398.3</ele>
        <time>2026-08-06T09:54:26.000Z</time>
      </trkpt>
      <trkpt lat="46.23437" lon="2.56864">
        <ele>399.8</ele>
        <time>2026-08-06T09:54:35.000Z</time>
      </trkpt>
      <trkpt lat="46.23436" lon="2.56849">
        <ele>400.1</ele>
        <time>2026-08-06T09:54:42.000Z</time>
      </trkpt>
      <trkpt lat="46.23435" lon="2.56843">
        <ele>400.2</ele>
        <time>2026-08-06T09:54:44.000Z</time>
      </trkpt>
      <trkpt lat="46.23433" lon="2.56824">
        <ele>400.7</ele>
        <time>2026-08-06T09:54:51.000Z</time>
      </trkpt>
      <trkpt lat="46.23432" lon="2.56817">
        <ele>401</ele>
        <time>2026-08-06T09:54:54.000Z</time>
      </trkpt>
      <trkpt lat="46.23431" lon="2.56813">
        <ele>401.2</ele>
        <time>2026-08-06T09:54:56.000Z</time>
      </trkpt>
      <trkpt lat="46.2343" lon="2.56795">
        <ele>401.5</ele>
        <time>2026-08-06T09:55:03.000Z</time>
      </trkpt>
      <trkpt lat="46.23427" lon="2.56775">
        <ele>401.7</ele>
        <time>2026-08-06T09:55:11.000Z</time>
      </trkpt>
      <trkpt lat="46.23423" lon="2.56758">
        <ele>402.3</ele>
        <time>2026-08-06T09:55:18.000Z</time>
      </trkpt>
      <trkpt lat="46.23422" lon="2.56753">
        <ele>402.5</ele>
        <time>2026-08-06T09:55:20.000Z</time>
      </trkpt>
      <trkpt lat="46.23414" lon="2.56734">
        <ele>403.1</ele>
        <time>2026-08-06T09:55:28.000Z</time>
      </trkpt>
      <trkpt lat="46.2341" lon="2.56726">
        <ele>403.3</ele>
        <time>2026-08-06T09:55:32.000Z</time>
      </trkpt>
      <trkpt lat="46.23406" lon="2.56721">
        <ele>403.4</ele>
        <time>2026-08-06T09:55:35.000Z</time>
      </trkpt>
      <trkpt lat="46.23394" lon="2.56706">
        <ele>404.3</ele>
        <time>2026-08-06T09:55:44.000Z</time>
      </trkpt>
      <trkpt lat="46.23388" lon="2.56701">
        <ele>404.8</ele>
        <time>2026-08-06T09:55:48.000Z</time>
      </trkpt>
      <trkpt lat="46.2338" lon="2.56697">
        <ele>405.3</ele>
        <time>2026-08-06T09:55:53.000Z</time>
      </trkpt>
      <trkpt lat="46.23372" lon="2.56694">
        <ele>405.6</ele>
        <time>2026-08-06T09:55:58.000Z</time>
      </trkpt>
      <trkpt lat="46.2337" lon="2.56693">
        <ele>405.7</ele>
        <time>2026-08-06T09:55:59.000Z</time>
      </trkpt>
      <trkpt lat="46.23359" lon="2.56691">
        <ele>406.1</ele>
        <time>2026-08-06T09:56:05.000Z</time>
      </trkpt>
      <trkpt lat="46.23356" lon="2.56689">
        <ele>406.4</ele>
        <time>2026-08-06T09:56:07.000Z</time>
      </trkpt>
      <trkpt lat="46.23349" lon="2.56687">
        <ele>406.8</ele>
        <time>2026-08-06T09:56:11.000Z</time>
      </trkpt>
      <trkpt lat="46.23345" lon="2.56686">
        <ele>407</ele>
        <time>2026-08-06T09:56:14.000Z</time>
      </trkpt>
      <trkpt lat="46.23338" lon="2.56684">
        <ele>407.3</ele>
        <time>2026-08-06T09:56:18.000Z</time>
      </trkpt>
      <trkpt lat="46.23325" lon="2.56681">
        <ele>407.8</ele>
        <time>2026-08-06T09:56:26.000Z</time>
      </trkpt>
      <trkpt lat="46.23315" lon="2.56677">
        <ele>408</ele>
        <time>2026-08-06T09:56:31.000Z</time>
      </trkpt>
      <trkpt lat="46.23309" lon="2.56676">
        <ele>408.2</ele>
        <time>2026-08-06T09:56:35.000Z</time>
      </trkpt>
      <trkpt lat="46.23294" lon="2.56673">
        <ele>409</ele>
        <time>2026-08-06T09:56:43.000Z</time>
      </trkpt>
      <trkpt lat="46.23292" lon="2.56672">
        <ele>409.1</ele>
        <time>2026-08-06T09:56:44.000Z</time>
      </trkpt>
      <trkpt lat="46.23281" lon="2.56668">
        <ele>409.8</ele>
        <time>2026-08-06T09:56:49.000Z</time>
      </trkpt>
      <trkpt lat="46.23273" lon="2.56665">
        <ele>410.2</ele>
        <time>2026-08-06T09:56:53.000Z</time>
      </trkpt>
      <trkpt lat="46.23253" lon="2.56659">
        <ele>410.6</ele>
        <time>2026-08-06T09:57:02.000Z</time>
      </trkpt>
      <trkpt lat="46.23236" lon="2.56654">
        <ele>410.5</ele>
        <time>2026-08-06T09:57:10.000Z</time>
      </trkpt>
      <trkpt lat="46.23218" lon="2.56648">
        <ele>410.6</ele>
        <time>2026-08-06T09:57:19.000Z</time>
      </trkpt>
      <trkpt lat="46.23216" lon="2.56647">
        <ele>410.7</ele>
        <time>2026-08-06T09:57:20.000Z</time>
      </trkpt>
      <trkpt lat="46.23201" lon="2.56634">
        <ele>411.2</ele>
        <time>2026-08-06T09:57:27.000Z</time>
      </trkpt>
      <trkpt lat="46.2319" lon="2.5661">
        <ele>410.1</ele>
        <time>2026-08-06T09:57:35.000Z</time>
      </trkpt>
      <trkpt lat="46.23186" lon="2.56584">
        <ele>409.6</ele>
        <time>2026-08-06T09:57:43.000Z</time>
      </trkpt>
      <trkpt lat="46.23183" lon="2.56553">
        <ele>409.8</ele>
        <time>2026-08-06T09:57:52.000Z</time>
      </trkpt>
      <trkpt lat="46.23177" lon="2.56509">
        <ele>410.6</ele>
        <time>2026-08-06T09:58:04.000Z</time>
      </trkpt>
      <trkpt lat="46.23171" lon="2.5647">
        <ele>412.5</ele>
        <time>2026-08-06T09:58:15.000Z</time>
      </trkpt>
      <trkpt lat="46.23171" lon="2.56466">
        <ele>412.5</ele>
        <time>2026-08-06T09:58:16.000Z</time>
      </trkpt>
      <trkpt lat="46.23168" lon="2.56437">
        <ele>413.1</ele>
        <time>2026-08-06T09:58:24.000Z</time>
      </trkpt>
      <trkpt lat="46.23166" lon="2.56401">
        <ele>414.1</ele>
        <time>2026-08-06T09:58:34.000Z</time>
      </trkpt>
      <trkpt lat="46.23165" lon="2.56371">
        <ele>414.8</ele>
        <time>2026-08-06T09:58:43.000Z</time>
      </trkpt>
      <trkpt lat="46.23164" lon="2.5636">
        <ele>415.2</ele>
        <time>2026-08-06T09:58:46.000Z</time>
      </trkpt>
      <trkpt lat="46.23165" lon="2.56338">
        <ele>414.4</ele>
        <time>2026-08-06T09:58:53.000Z</time>
      </trkpt>
      <trkpt lat="46.23165" lon="2.56303">
        <ele>414</ele>
        <time>2026-08-06T09:59:01.000Z</time>
      </trkpt>
      <trkpt lat="46.23164" lon="2.56255">
        <ele>412.4</ele>
        <time>2026-08-06T09:59:09.000Z</time>
      </trkpt>
      <trkpt lat="46.23164" lon="2.5623">
        <ele>412.1</ele>
        <time>2026-08-06T09:59:13.000Z</time>
      </trkpt>
      <trkpt lat="46.23164" lon="2.5621">
        <ele>412</ele>
        <time>2026-08-06T09:59:16.000Z</time>
      </trkpt>
      <trkpt lat="46.23161" lon="2.56175">
        <ele>411.4</ele>
        <time>2026-08-06T09:59:22.000Z</time>
      </trkpt>
      <trkpt lat="46.23158" lon="2.56164">
        <ele>411.2</ele>
        <time>2026-08-06T09:59:24.000Z</time>
      </trkpt>
      <trkpt lat="46.23157" lon="2.56158">
        <ele>411</ele>
        <time>2026-08-06T09:59:25.000Z</time>
      </trkpt>
      <trkpt lat="46.23153" lon="2.56146">
        <ele>410.7</ele>
        <time>2026-08-06T09:59:27.000Z</time>
      </trkpt>
      <trkpt lat="46.23149" lon="2.56136">
        <ele>410.5</ele>
        <time>2026-08-06T09:59:29.000Z</time>
      </trkpt>
      <trkpt lat="46.23144" lon="2.56126">
        <ele>410.4</ele>
        <time>2026-08-06T09:59:31.000Z</time>
      </trkpt>
      <trkpt lat="46.23129" lon="2.56103">
        <ele>410.4</ele>
        <time>2026-08-06T09:59:36.000Z</time>
      </trkpt>
      <trkpt lat="46.23111" lon="2.56074">
        <ele>410.7</ele>
        <time>2026-08-06T09:59:43.000Z</time>
      </trkpt>
      <trkpt lat="46.2309" lon="2.56044">
        <ele>411.2</ele>
        <time>2026-08-06T09:59:51.000Z</time>
      </trkpt>
      <trkpt lat="46.23061" lon="2.56009">
        <ele>411.1</ele>
        <time>2026-08-06T10:00:01.000Z</time>
      </trkpt>
      <trkpt lat="46.23051" lon="2.56">
        <ele>411</ele>
        <time>2026-08-06T10:00:04.000Z</time>
      </trkpt>
      <trkpt lat="46.23031" lon="2.55986">
        <ele>410.4</ele>
        <time>2026-08-06T10:00:09.000Z</time>
      </trkpt>
      <trkpt lat="46.23017" lon="2.55976">
        <ele>410.9</ele>
        <time>2026-08-06T10:00:13.000Z</time>
      </trkpt>
      <trkpt lat="46.23007" lon="2.55969">
        <ele>411.1</ele>
        <time>2026-08-06T10:00:16.000Z</time>
      </trkpt>
      <trkpt lat="46.22978" lon="2.55948">
        <ele>410.9</ele>
        <time>2026-08-06T10:00:25.000Z</time>
      </trkpt>
      <trkpt lat="46.22959" lon="2.55933">
        <ele>411.6</ele>
        <time>2026-08-06T10:00:32.000Z</time>
      </trkpt>
      <trkpt lat="46.22937" lon="2.55916">
        <ele>412.5</ele>
        <time>2026-08-06T10:00:40.000Z</time>
      </trkpt>
      <trkpt lat="46.22909" lon="2.55896">
        <ele>413.6</ele>
        <time>2026-08-06T10:00:51.000Z</time>
      </trkpt>
      <trkpt lat="46.22889" lon="2.55881">
        <ele>413.7</ele>
        <time>2026-08-06T10:00:59.000Z</time>
      </trkpt>
      <trkpt lat="46.22886" lon="2.55878">
        <ele>413.7</ele>
        <time>2026-08-06T10:01:00.000Z</time>
      </trkpt>
      <trkpt lat="46.22871" lon="2.55865">
        <ele>413.8</ele>
        <time>2026-08-06T10:01:06.000Z</time>
      </trkpt>
      <trkpt lat="46.22856" lon="2.55839">
        <ele>413.5</ele>
        <time>2026-08-06T10:01:14.000Z</time>
      </trkpt>
      <trkpt lat="46.22848" lon="2.55813">
        <ele>414</ele>
        <time>2026-08-06T10:01:21.000Z</time>
      </trkpt>
      <trkpt lat="46.22847" lon="2.55809">
        <ele>414.1</ele>
        <time>2026-08-06T10:01:22.000Z</time>
      </trkpt>
      <trkpt lat="46.2284" lon="2.55784">
        <ele>414.9</ele>
        <time>2026-08-06T10:01:29.000Z</time>
      </trkpt>
      <trkpt lat="46.2283" lon="2.55747">
        <ele>416</ele>
        <time>2026-08-06T10:01:38.000Z</time>
      </trkpt>
      <trkpt lat="46.22825" lon="2.55724">
        <ele>415.6</ele>
        <time>2026-08-06T10:01:44.000Z</time>
      </trkpt>
      <trkpt lat="46.22822" lon="2.55712">
        <ele>415.8</ele>
        <time>2026-08-06T10:01:47.000Z</time>
      </trkpt>
      <trkpt lat="46.22812" lon="2.55672">
        <ele>416.5</ele>
        <time>2026-08-06T10:01:57.000Z</time>
      </trkpt>
      <trkpt lat="46.2281" lon="2.55665">
        <ele>416.7</ele>
        <time>2026-08-06T10:01:59.000Z</time>
      </trkpt>
      <trkpt lat="46.22804" lon="2.55639">
        <ele>417.1</ele>
        <time>2026-08-06T10:02:06.000Z</time>
      </trkpt>
      <trkpt lat="46.22799" lon="2.55623">
        <ele>417.5</ele>
        <time>2026-08-06T10:02:10.000Z</time>
      </trkpt>
      <trkpt lat="46.22794" lon="2.55606">
        <ele>417.7</ele>
        <time>2026-08-06T10:02:14.000Z</time>
      </trkpt>
      <trkpt lat="46.22783" lon="2.55561">
        <ele>417.2</ele>
        <time>2026-08-06T10:02:24.000Z</time>
      </trkpt>
      <trkpt lat="46.22774" lon="2.55528">
        <ele>416.1</ele>
        <time>2026-08-06T10:02:30.000Z</time>
      </trkpt>
      <trkpt lat="46.22761" lon="2.55474">
        <ele>415.3</ele>
        <time>2026-08-06T10:02:38.000Z</time>
      </trkpt>
      <trkpt lat="46.22756" lon="2.55453">
        <ele>415</ele>
        <time>2026-08-06T10:02:41.000Z</time>
      </trkpt>
      <trkpt lat="46.22746" lon="2.55415">
        <ele>414.3</ele>
        <time>2026-08-06T10:02:46.000Z</time>
      </trkpt>
      <trkpt lat="46.22736" lon="2.55361">
        <ele>413</ele>
        <time>2026-08-06T10:02:52.000Z</time>
      </trkpt>
      <trkpt lat="46.22731" lon="2.55304">
        <ele>409.9</ele>
        <time>2026-08-06T10:02:57.000Z</time>
      </trkpt>
      <trkpt lat="46.22731" lon="2.55278">
        <ele>408.3</ele>
        <time>2026-08-06T10:02:59.000Z</time>
      </trkpt>
      <trkpt lat="46.22731" lon="2.55244">
        <ele>407.3</ele>
        <time>2026-08-06T10:03:02.000Z</time>
      </trkpt>
      <trkpt lat="46.22731" lon="2.55212">
        <ele>406.4</ele>
        <time>2026-08-06T10:03:05.000Z</time>
      </trkpt>
      <trkpt lat="46.2273" lon="2.55198">
        <ele>405.5</ele>
        <time>2026-08-06T10:03:06.000Z</time>
      </trkpt>
      <trkpt lat="46.2273" lon="2.55165">
        <ele>404.3</ele>
        <time>2026-08-06T10:03:09.000Z</time>
      </trkpt>
      <trkpt lat="46.22729" lon="2.5513">
        <ele>403.7</ele>
        <time>2026-08-06T10:03:12.000Z</time>
      </trkpt>
      <trkpt lat="46.22729" lon="2.55105">
        <ele>402.6</ele>
        <time>2026-08-06T10:03:14.000Z</time>
      </trkpt>
      <trkpt lat="46.22729" lon="2.55086">
        <ele>401.4</ele>
        <time>2026-08-06T10:03:16.000Z</time>
      </trkpt>
      <trkpt lat="46.22729" lon="2.55067">
        <ele>400.7</ele>
        <time>2026-08-06T10:03:18.000Z</time>
      </trkpt>
      <trkpt lat="46.22729" lon="2.55041">
        <ele>400.2</ele>
        <time>2026-08-06T10:03:21.000Z</time>
      </trkpt>
      <trkpt lat="46.22729" lon="2.55025">
        <ele>400.1</ele>
        <time>2026-08-06T10:03:23.000Z</time>
      </trkpt>
      <trkpt lat="46.22728" lon="2.5501">
        <ele>399.6</ele>
        <time>2026-08-06T10:03:25.000Z</time>
      </trkpt>
      <trkpt lat="46.22728" lon="2.54984">
        <ele>398.6</ele>
        <time>2026-08-06T10:03:29.000Z</time>
      </trkpt>
      <trkpt lat="46.22728" lon="2.54978">
        <ele>398.4</ele>
        <time>2026-08-06T10:03:30.000Z</time>
      </trkpt>
      <trkpt lat="46.22728" lon="2.5496">
        <ele>398.1</ele>
        <time>2026-08-06T10:03:33.000Z</time>
      </trkpt>
      <trkpt lat="46.22728" lon="2.54938">
        <ele>397.8</ele>
        <time>2026-08-06T10:03:37.000Z</time>
      </trkpt>
      <trkpt lat="46.22728" lon="2.54902">
        <ele>396.7</ele>
        <time>2026-08-06T10:03:44.000Z</time>
      </trkpt>
      <trkpt lat="46.22728" lon="2.54889">
        <ele>396.2</ele>
        <time>2026-08-06T10:03:48.000Z</time>
      </trkpt>
      <trkpt lat="46.22728" lon="2.54883">
        <ele>396</ele>
        <time>2026-08-06T10:03:50.000Z</time>
      </trkpt>
      <trkpt lat="46.22727" lon="2.54867">
        <ele>395.4</ele>
        <time>2026-08-06T10:03:55.000Z</time>
      </trkpt>
      <trkpt lat="46.22727" lon="2.5486">
        <ele>395.1</ele>
        <time>2026-08-06T10:03:57.000Z</time>
      </trkpt>
      <trkpt lat="46.22727" lon="2.54828">
        <ele>394.3</ele>
        <time>2026-08-06T10:04:06.000Z</time>
      </trkpt>
      <trkpt lat="46.22727" lon="2.54824">
        <ele>394.3</ele>
        <time>2026-08-06T10:04:07.000Z</time>
      </trkpt>
      <trkpt lat="46.22727" lon="2.54815">
        <ele>394.3</ele>
        <time>2026-08-06T10:04:10.000Z</time>
      </trkpt>
      <trkpt lat="46.22728" lon="2.54797">
        <ele>394.4</ele>
        <time>2026-08-06T10:04:16.000Z</time>
      </trkpt>
      <trkpt lat="46.22728" lon="2.54774">
        <ele>394.3</ele>
        <time>2026-08-06T10:04:23.000Z</time>
      </trkpt>
      <trkpt lat="46.22728" lon="2.54764">
        <ele>393.9</ele>
        <time>2026-08-06T10:04:27.000Z</time>
      </trkpt>
      <trkpt lat="46.22728" lon="2.54759">
        <ele>393.7</ele>
        <time>2026-08-06T10:04:30.000Z</time>
      </trkpt>
      <trkpt lat="46.22728" lon="2.54752">
        <ele>393.5</ele>
        <time>2026-08-06T10:04:33.000Z</time>
      </trkpt>
      <trkpt lat="46.22728" lon="2.54746">
        <ele>393.1</ele>
        <time>2026-08-06T10:04:36.000Z</time>
      </trkpt>
      <trkpt lat="46.22728" lon="2.5474">
        <ele>392.7</ele>
        <time>2026-08-06T10:04:38.000Z</time>
      </trkpt>
      <trkpt lat="46.22729" lon="2.54736">
        <ele>392.3</ele>
        <time>2026-08-06T10:04:40.000Z</time>
      </trkpt>
      <trkpt lat="46.22729" lon="2.54732">
        <ele>392</ele>
        <time>2026-08-06T10:04:41.000Z</time>
      </trkpt>
      <trkpt lat="46.22727" lon="2.54708">
        <ele>390</ele>
        <time>2026-08-06T10:04:49.000Z</time>
      </trkpt>
      <trkpt lat="46.22727" lon="2.54699">
        <ele>389.4</ele>
        <time>2026-08-06T10:04:51.000Z</time>
      </trkpt>
      <trkpt lat="46.22726" lon="2.5468">
        <ele>387</ele>
        <time>2026-08-06T10:04:55.000Z</time>
      </trkpt>
      <trkpt lat="46.22726" lon="2.54668">
        <ele>385.2</ele>
        <time>2026-08-06T10:04:57.000Z</time>
      </trkpt>
      <trkpt lat="46.22726" lon="2.54653">
        <ele>385.7</ele>
        <time>2026-08-06T10:04:59.000Z</time>
      </trkpt>
      <trkpt lat="46.22726" lon="2.5464">
        <ele>386.3</ele>
        <time>2026-08-06T10:05:01.000Z</time>
      </trkpt>
      <trkpt lat="46.22726" lon="2.5462">
        <ele>386.4</ele>
        <time>2026-08-06T10:05:04.000Z</time>
      </trkpt>
      <trkpt lat="46.22725" lon="2.54613">
        <ele>386.4</ele>
        <time>2026-08-06T10:05:05.000Z</time>
      </trkpt>
      <trkpt lat="46.22725" lon="2.54591">
        <ele>386.6</ele>
        <time>2026-08-06T10:05:08.000Z</time>
      </trkpt>
      <trkpt lat="46.22725" lon="2.54586">
        <ele>386.6</ele>
        <time>2026-08-06T10:05:09.000Z</time>
      </trkpt>
      <trkpt lat="46.22725" lon="2.54565">
        <ele>386</ele>
        <time>2026-08-06T10:05:12.000Z</time>
      </trkpt>
      <trkpt lat="46.22725" lon="2.54557">
        <ele>385.8</ele>
        <time>2026-08-06T10:05:13.000Z</time>
      </trkpt>
      <trkpt lat="46.22725" lon="2.54549">
        <ele>385.5</ele>
        <time>2026-08-06T10:05:14.000Z</time>
      </trkpt>
      <trkpt lat="46.22723" lon="2.54491">
        <ele>384.5</ele>
        <time>2026-08-06T10:05:22.000Z</time>
      </trkpt>
      <trkpt lat="46.22722" lon="2.54476">
        <ele>384.1</ele>
        <time>2026-08-06T10:05:24.000Z</time>
      </trkpt>
      <trkpt lat="46.22711" lon="2.5444">
        <ele>382.3</ele>
        <time>2026-08-06T10:05:29.000Z</time>
      </trkpt>
      <trkpt lat="46.22708" lon="2.54435">
        <ele>382.3</ele>
        <time>2026-08-06T10:05:30.000Z</time>
      </trkpt>
      <trkpt lat="46.22693" lon="2.5441">
        <ele>382.9</ele>
        <time>2026-08-06T10:05:35.000Z</time>
      </trkpt>
      <trkpt lat="46.2269" lon="2.54407">
        <ele>382.9</ele>
        <time>2026-08-06T10:05:36.000Z</time>
      </trkpt>
      <trkpt lat="46.22683" lon="2.54399">
        <ele>383.2</ele>
        <time>2026-08-06T10:05:39.000Z</time>
      </trkpt>
      <trkpt lat="46.22676" lon="2.54393">
        <ele>384</ele>
        <time>2026-08-06T10:05:42.000Z</time>
      </trkpt>
      <trkpt lat="46.22663" lon="2.54376">
        <ele>385.3</ele>
        <time>2026-08-06T10:05:51.000Z</time>
      </trkpt>
      <trkpt lat="46.22657" lon="2.54369">
        <ele>385.9</ele>
        <time>2026-08-06T10:05:55.000Z</time>
      </trkpt>
      <trkpt lat="46.22654" lon="2.54367">
        <ele>386.2</ele>
        <time>2026-08-06T10:05:57.000Z</time>
      </trkpt>
      <trkpt lat="46.22649" lon="2.5436">
        <ele>387</ele>
        <time>2026-08-06T10:06:01.000Z</time>
      </trkpt>
      <trkpt lat="46.22634" lon="2.54341">
        <ele>389</ele>
        <time>2026-08-06T10:06:12.000Z</time>
      </trkpt>
      <trkpt lat="46.22619" lon="2.54324">
        <ele>390.1</ele>
        <time>2026-08-06T10:06:22.000Z</time>
      </trkpt>
      <trkpt lat="46.22617" lon="2.54322">
        <ele>390.3</ele>
        <time>2026-08-06T10:06:23.000Z</time>
      </trkpt>
      <trkpt lat="46.22607" lon="2.54311">
        <ele>391.1</ele>
        <time>2026-08-06T10:06:30.000Z</time>
      </trkpt>
      <trkpt lat="46.22604" lon="2.54308">
        <ele>391.4</ele>
        <time>2026-08-06T10:06:32.000Z</time>
      </trkpt>
      <trkpt lat="46.22595" lon="2.54297">
        <ele>392.7</ele>
        <time>2026-08-06T10:06:39.000Z</time>
      </trkpt>
      <trkpt lat="46.22589" lon="2.54289">
        <ele>393.4</ele>
        <time>2026-08-06T10:06:44.000Z</time>
      </trkpt>
      <trkpt lat="46.22583" lon="2.54282">
        <ele>393.9</ele>
        <time>2026-08-06T10:06:49.000Z</time>
      </trkpt>
      <trkpt lat="46.2258" lon="2.54278">
        <ele>394.3</ele>
        <time>2026-08-06T10:06:51.000Z</time>
      </trkpt>
      <trkpt lat="46.22574" lon="2.54271">
        <ele>395.4</ele>
        <time>2026-08-06T10:06:56.000Z</time>
      </trkpt>
      <trkpt lat="46.2257" lon="2.54266">
        <ele>395.9</ele>
        <time>2026-08-06T10:07:00.000Z</time>
      </trkpt>
      <trkpt lat="46.22566" lon="2.54261">
        <ele>396.2</ele>
        <time>2026-08-06T10:07:03.000Z</time>
      </trkpt>
      <trkpt lat="46.22563" lon="2.54258">
        <ele>396.2</ele>
        <time>2026-08-06T10:07:05.000Z</time>
      </trkpt>
      <trkpt lat="46.22555" lon="2.5425">
        <ele>396.1</ele>
        <time>2026-08-06T10:07:11.000Z</time>
      </trkpt>
      <trkpt lat="46.22553" lon="2.54247">
        <ele>396.7</ele>
        <time>2026-08-06T10:07:13.000Z</time>
      </trkpt>
      <trkpt lat="46.22543" lon="2.54235">
        <ele>398.3</ele>
        <time>2026-08-06T10:07:21.000Z</time>
      </trkpt>
      <trkpt lat="46.22539" lon="2.5423">
        <ele>398.7</ele>
        <time>2026-08-06T10:07:24.000Z</time>
      </trkpt>
      <trkpt lat="46.22535" lon="2.54226">
        <ele>398.9</ele>
        <time>2026-08-06T10:07:27.000Z</time>
      </trkpt>
      <trkpt lat="46.22533" lon="2.54224">
        <ele>399</ele>
        <time>2026-08-06T10:07:28.000Z</time>
      </trkpt>
      <trkpt lat="46.22528" lon="2.54216">
        <ele>399.5</ele>
        <time>2026-08-06T10:07:33.000Z</time>
      </trkpt>
      <trkpt lat="46.22523" lon="2.5421">
        <ele>400.1</ele>
        <time>2026-08-06T10:07:37.000Z</time>
      </trkpt>
      <trkpt lat="46.22513" lon="2.542">
        <ele>400.8</ele>
        <time>2026-08-06T10:07:45.000Z</time>
      </trkpt>
      <trkpt lat="46.2251" lon="2.54198">
        <ele>400.9</ele>
        <time>2026-08-06T10:07:47.000Z</time>
      </trkpt>
      <trkpt lat="46.22508" lon="2.54195">
        <ele>401</ele>
        <time>2026-08-06T10:07:49.000Z</time>
      </trkpt>
      <trkpt lat="46.22505" lon="2.54192">
        <ele>401.1</ele>
        <time>2026-08-06T10:07:51.000Z</time>
      </trkpt>
      <trkpt lat="46.22504" lon="2.54191">
        <ele>401.1</ele>
        <time>2026-08-06T10:07:52.000Z</time>
      </trkpt>
      <trkpt lat="46.22498" lon="2.54182">
        <ele>401.6</ele>
        <time>2026-08-06T10:07:57.000Z</time>
      </trkpt>
      <trkpt lat="46.22491" lon="2.54174">
        <ele>402.1</ele>
        <time>2026-08-06T10:08:02.000Z</time>
      </trkpt>
      <trkpt lat="46.2248" lon="2.5416">
        <ele>402.8</ele>
        <time>2026-08-06T10:08:11.000Z</time>
      </trkpt>
      <trkpt lat="46.22472" lon="2.54151">
        <ele>403</ele>
        <time>2026-08-06T10:08:17.000Z</time>
      </trkpt>
      <trkpt lat="46.22468" lon="2.54146">
        <ele>403.3</ele>
        <time>2026-08-06T10:08:20.000Z</time>
      </trkpt>
      <trkpt lat="46.22465" lon="2.54142">
        <ele>403.5</ele>
        <time>2026-08-06T10:08:22.000Z</time>
      </trkpt>
      <trkpt lat="46.22457" lon="2.54132">
        <ele>404.3</ele>
        <time>2026-08-06T10:08:29.000Z</time>
      </trkpt>
      <trkpt lat="46.22455" lon="2.54129">
        <ele>404.5</ele>
        <time>2026-08-06T10:08:31.000Z</time>
      </trkpt>
      <trkpt lat="46.22442" lon="2.54113">
        <ele>405.1</ele>
        <time>2026-08-06T10:08:40.000Z</time>
      </trkpt>
      <trkpt lat="46.22434" lon="2.54105">
        <ele>405.6</ele>
        <time>2026-08-06T10:08:45.000Z</time>
      </trkpt>
      <trkpt lat="46.22433" lon="2.54104">
        <ele>405.7</ele>
        <time>2026-08-06T10:08:46.000Z</time>
      </trkpt>
      <trkpt lat="46.22428" lon="2.54099">
        <ele>405.9</ele>
        <time>2026-08-06T10:08:49.000Z</time>
      </trkpt>
      <trkpt lat="46.22423" lon="2.54093">
        <ele>406.1</ele>
        <time>2026-08-06T10:08:53.000Z</time>
      </trkpt>
      <trkpt lat="46.22414" lon="2.54083">
        <ele>406.1</ele>
        <time>2026-08-06T10:08:59.000Z</time>
      </trkpt>
      <trkpt lat="46.22404" lon="2.54078">
        <ele>406.5</ele>
        <time>2026-08-06T10:09:04.000Z</time>
      </trkpt>
      <trkpt lat="46.22397" lon="2.54074">
        <ele>406.7</ele>
        <time>2026-08-06T10:09:07.000Z</time>
      </trkpt>
      <trkpt lat="46.22374" lon="2.5406">
        <ele>407</ele>
        <time>2026-08-06T10:09:18.000Z</time>
      </trkpt>
      <trkpt lat="46.22373" lon="2.54059">
        <ele>407</ele>
        <time>2026-08-06T10:09:19.000Z</time>
      </trkpt>
      <trkpt lat="46.2236" lon="2.54052">
        <ele>407</ele>
        <time>2026-08-06T10:09:25.000Z</time>
      </trkpt>
      <trkpt lat="46.22357" lon="2.5405">
        <ele>407.1</ele>
        <time>2026-08-06T10:09:26.000Z</time>
      </trkpt>
      <trkpt lat="46.22344" lon="2.54048">
        <ele>407.6</ele>
        <time>2026-08-06T10:09:32.000Z</time>
      </trkpt>
      <trkpt lat="46.22337" lon="2.54057">
        <ele>407.8</ele>
        <time>2026-08-06T10:09:38.000Z</time>
      </trkpt>
      <trkpt lat="46.22337" lon="2.54061">
        <ele>407.7</ele>
        <time>2026-08-06T10:09:45.000Z</time>
      </trkpt>
      <trkpt lat="46.22337" lon="2.54061">
        <ele>407.7</ele>
        <time>2026-08-06T10:09:46.000Z</time>
      </trkpt>
      <trkpt lat="46.22335" lon="2.54071">
        <ele>407.4</ele>
        <time>2026-08-06T10:10:26.000Z</time>
      </trkpt>
      <trkpt lat="46.22334" lon="2.54076">
        <ele>407.3</ele>
        <time>2026-08-06T10:10:28.000Z</time>
      </trkpt>
      <trkpt lat="46.22331" lon="2.54092">
        <ele>407.1</ele>
        <time>2026-08-06T10:10:33.000Z</time>
      </trkpt>
      <trkpt lat="46.22327" lon="2.54114">
        <ele>406.9</ele>
        <time>2026-08-06T10:10:38.000Z</time>
      </trkpt>
      <trkpt lat="46.22326" lon="2.54151">
        <ele>405.6</ele>
        <time>2026-08-06T10:10:44.000Z</time>
      </trkpt>
      <trkpt lat="46.22323" lon="2.54164">
        <ele>405.1</ele>
        <time>2026-08-06T10:10:46.000Z</time>
      </trkpt>
      <trkpt lat="46.22316" lon="2.5418">
        <ele>404.4</ele>
        <time>2026-08-06T10:10:48.000Z</time>
      </trkpt>
      <trkpt lat="46.22306" lon="2.54191">
        <ele>404.1</ele>
        <time>2026-08-06T10:10:50.000Z</time>
      </trkpt>
      <trkpt lat="46.22295" lon="2.54198">
        <ele>404.1</ele>
        <time>2026-08-06T10:10:52.000Z</time>
      </trkpt>
      <trkpt lat="46.22284" lon="2.54203">
        <ele>404.2</ele>
        <time>2026-08-06T10:10:54.000Z</time>
      </trkpt>
      <trkpt lat="46.22267" lon="2.5421">
        <ele>403.9</ele>
        <time>2026-08-06T10:10:57.000Z</time>
      </trkpt>
      <trkpt lat="46.22262" lon="2.54212">
        <ele>403.7</ele>
        <time>2026-08-06T10:10:58.000Z</time>
      </trkpt>
      <trkpt lat="46.22257" lon="2.54214">
        <ele>403.6</ele>
        <time>2026-08-06T10:10:59.000Z</time>
      </trkpt>
      <trkpt lat="46.22227" lon="2.5422">
        <ele>403.2</ele>
        <time>2026-08-06T10:11:05.000Z</time>
      </trkpt>
      <trkpt lat="46.22193" lon="2.54219">
        <ele>403.3</ele>
        <time>2026-08-06T10:11:12.000Z</time>
      </trkpt>
      <trkpt lat="46.22189" lon="2.54218">
        <ele>403.4</ele>
        <time>2026-08-06T10:11:13.000Z</time>
      </trkpt>
      <trkpt lat="46.22161" lon="2.54203">
        <ele>404.3</ele>
        <time>2026-08-06T10:11:20.000Z</time>
      </trkpt>
      <trkpt lat="46.22129" lon="2.54184">
        <ele>404.9</ele>
        <time>2026-08-06T10:11:29.000Z</time>
      </trkpt>
      <trkpt lat="46.22107" lon="2.54171">
        <ele>406</ele>
        <time>2026-08-06T10:11:37.000Z</time>
      </trkpt>
      <trkpt lat="46.22089" lon="2.5416">
        <ele>407.3</ele>
        <time>2026-08-06T10:11:44.000Z</time>
      </trkpt>
      <trkpt lat="46.22084" lon="2.54158">
        <ele>407.6</ele>
        <time>2026-08-06T10:11:46.000Z</time>
      </trkpt>
      <trkpt lat="46.22074" lon="2.54157">
        <ele>408.2</ele>
        <time>2026-08-06T10:11:51.000Z</time>
      </trkpt>
      <trkpt lat="46.22071" lon="2.54157">
        <ele>408.4</ele>
        <time>2026-08-06T10:11:53.000Z</time>
      </trkpt>
      <trkpt lat="46.22064" lon="2.54158">
        <ele>408.8</ele>
        <time>2026-08-06T10:11:57.000Z</time>
      </trkpt>
      <trkpt lat="46.22051" lon="2.54163">
        <ele>409.3</ele>
        <time>2026-08-06T10:12:04.000Z</time>
      </trkpt>
      <trkpt lat="46.22049" lon="2.54164">
        <ele>409.3</ele>
        <time>2026-08-06T10:12:05.000Z</time>
      </trkpt>
      <trkpt lat="46.22033" lon="2.54169">
        <ele>409.9</ele>
        <time>2026-08-06T10:12:13.000Z</time>
      </trkpt>
      <trkpt lat="46.22017" lon="2.54178">
        <ele>410.9</ele>
        <time>2026-08-06T10:12:21.000Z</time>
      </trkpt>
      <trkpt lat="46.22008" lon="2.54183">
        <ele>411.2</ele>
        <time>2026-08-06T10:12:26.000Z</time>
      </trkpt>
      <trkpt lat="46.22002" lon="2.54186">
        <ele>411.3</ele>
        <time>2026-08-06T10:12:29.000Z</time>
      </trkpt>
      <trkpt lat="46.21995" lon="2.54191">
        <ele>411.3</ele>
        <time>2026-08-06T10:12:33.000Z</time>
      </trkpt>
      <trkpt lat="46.21986" lon="2.54196">
        <ele>411.5</ele>
        <time>2026-08-06T10:12:37.000Z</time>
      </trkpt>
      <trkpt lat="46.21961" lon="2.54215">
        <ele>412.4</ele>
        <time>2026-08-06T10:12:49.000Z</time>
      </trkpt>
      <trkpt lat="46.21957" lon="2.54219">
        <ele>412.6</ele>
        <time>2026-08-06T10:12:51.000Z</time>
      </trkpt>
      <trkpt lat="46.21943" lon="2.54237">
        <ele>413</ele>
        <time>2026-08-06T10:12:58.000Z</time>
      </trkpt>
      <trkpt lat="46.21917" lon="2.54264">
        <ele>414</ele>
        <time>2026-08-06T10:13:11.000Z</time>
      </trkpt>
      <trkpt lat="46.21895" lon="2.54278">
        <ele>414.8</ele>
        <time>2026-08-06T10:13:21.000Z</time>
      </trkpt>
      <trkpt lat="46.21887" lon="2.54282">
        <ele>415.1</ele>
        <time>2026-08-06T10:13:25.000Z</time>
      </trkpt>
      <trkpt lat="46.21879" lon="2.54284">
        <ele>415.3</ele>
        <time>2026-08-06T10:13:29.000Z</time>
      </trkpt>
      <trkpt lat="46.21869" lon="2.54287">
        <ele>415.7</ele>
        <time>2026-08-06T10:13:35.000Z</time>
      </trkpt>
      <trkpt lat="46.21865" lon="2.54288">
        <ele>415.9</ele>
        <time>2026-08-06T10:13:37.000Z</time>
      </trkpt>
      <trkpt lat="46.21851" lon="2.54292">
        <ele>416.4</ele>
        <time>2026-08-06T10:13:44.000Z</time>
      </trkpt>
      <trkpt lat="46.21836" lon="2.54295">
        <ele>416.9</ele>
        <time>2026-08-06T10:13:52.000Z</time>
      </trkpt>
      <trkpt lat="46.21834" lon="2.54296">
        <ele>417</ele>
        <time>2026-08-06T10:13:53.000Z</time>
      </trkpt>
      <trkpt lat="46.21818" lon="2.54299">
        <ele>418.1</ele>
        <time>2026-08-06T10:14:02.000Z</time>
      </trkpt>
      <trkpt lat="46.21805" lon="2.54303">
        <ele>419</ele>
        <time>2026-08-06T10:14:09.000Z</time>
      </trkpt>
      <trkpt lat="46.21801" lon="2.54304">
        <ele>419.1</ele>
        <time>2026-08-06T10:14:11.000Z</time>
      </trkpt>
      <trkpt lat="46.21785" lon="2.5431">
        <ele>419.7</ele>
        <time>2026-08-06T10:14:20.000Z</time>
      </trkpt>
      <trkpt lat="46.2178" lon="2.54311">
        <ele>419.9</ele>
        <time>2026-08-06T10:14:23.000Z</time>
      </trkpt>
      <trkpt lat="46.21772" lon="2.54313">
        <ele>420.2</ele>
        <time>2026-08-06T10:14:28.000Z</time>
      </trkpt>
      <trkpt lat="46.21765" lon="2.54313">
        <ele>420.4</ele>
        <time>2026-08-06T10:14:32.000Z</time>
      </trkpt>
      <trkpt lat="46.21758" lon="2.54316">
        <ele>420.7</ele>
        <time>2026-08-06T10:14:36.000Z</time>
      </trkpt>
      <trkpt lat="46.21755" lon="2.54317">
        <ele>420.8</ele>
        <time>2026-08-06T10:14:38.000Z</time>
      </trkpt>
      <trkpt lat="46.21737" lon="2.54322">
        <ele>421.5</ele>
        <time>2026-08-06T10:14:48.000Z</time>
      </trkpt>
      <trkpt lat="46.21732" lon="2.54323">
        <ele>421.7</ele>
        <time>2026-08-06T10:14:51.000Z</time>
      </trkpt>
      <trkpt lat="46.21717" lon="2.54327">
        <ele>422</ele>
        <time>2026-08-06T10:14:58.000Z</time>
      </trkpt>
      <trkpt lat="46.21697" lon="2.54333">
        <ele>422</ele>
        <time>2026-08-06T10:15:07.000Z</time>
      </trkpt>
      <trkpt lat="46.21688" lon="2.54336">
        <ele>422.2</ele>
        <time>2026-08-06T10:15:11.000Z</time>
      </trkpt>
      <trkpt lat="46.21679" lon="2.54339">
        <ele>422.5</ele>
        <time>2026-08-06T10:15:15.000Z</time>
      </trkpt>
      <trkpt lat="46.21673" lon="2.54341">
        <ele>422.8</ele>
        <time>2026-08-06T10:15:18.000Z</time>
      </trkpt>
      <trkpt lat="46.21663" lon="2.54343">
        <ele>423.1</ele>
        <time>2026-08-06T10:15:22.000Z</time>
      </trkpt>
      <trkpt lat="46.21644" lon="2.54349">
        <ele>423.8</ele>
        <time>2026-08-06T10:15:31.000Z</time>
      </trkpt>
      <trkpt lat="46.21625" lon="2.54354">
        <ele>424.4</ele>
        <time>2026-08-06T10:15:40.000Z</time>
      </trkpt>
      <trkpt lat="46.21612" lon="2.54354">
        <ele>424.7</ele>
        <time>2026-08-06T10:15:47.000Z</time>
      </trkpt>
      <trkpt lat="46.21592" lon="2.54354">
        <ele>424.9</ele>
        <time>2026-08-06T10:15:56.000Z</time>
      </trkpt>
      <trkpt lat="46.21576" lon="2.54354">
        <ele>425.3</ele>
        <time>2026-08-06T10:16:03.000Z</time>
      </trkpt>
      <trkpt lat="46.21572" lon="2.54354">
        <ele>425.4</ele>
        <time>2026-08-06T10:16:05.000Z</time>
      </trkpt>
      <trkpt lat="46.21551" lon="2.54355">
        <ele>426</ele>
        <time>2026-08-06T10:16:15.000Z</time>
      </trkpt>
      <trkpt lat="46.21541" lon="2.54357">
        <ele>426</ele>
        <time>2026-08-06T10:16:19.000Z</time>
      </trkpt>
      <trkpt lat="46.21532" lon="2.54357">
        <ele>426</ele>
        <time>2026-08-06T10:16:23.000Z</time>
      </trkpt>
      <trkpt lat="46.21518" lon="2.54366">
        <ele>426</ele>
        <time>2026-08-06T10:16:29.000Z</time>
      </trkpt>
      <trkpt lat="46.21513" lon="2.54371">
        <ele>426</ele>
        <time>2026-08-06T10:16:31.000Z</time>
      </trkpt>
      <trkpt lat="46.21494" lon="2.54388">
        <ele>426</ele>
        <time>2026-08-06T10:16:39.000Z</time>
      </trkpt>
      <trkpt lat="46.21472" lon="2.54411">
        <ele>426.8</ele>
        <time>2026-08-06T10:16:48.000Z</time>
      </trkpt>
      <trkpt lat="46.21446" lon="2.54442">
        <ele>427.9</ele>
        <time>2026-08-06T10:17:00.000Z</time>
      </trkpt>
      <trkpt lat="46.21428" lon="2.54465">
        <ele>428.6</ele>
        <time>2026-08-06T10:17:09.000Z</time>
      </trkpt>
      <trkpt lat="46.21413" lon="2.54484">
        <ele>429.1</ele>
        <time>2026-08-06T10:17:17.000Z</time>
      </trkpt>
      <trkpt lat="46.214" lon="2.54503">
        <ele>429.7</ele>
        <time>2026-08-06T10:17:25.000Z</time>
      </trkpt>
      <trkpt lat="46.21394" lon="2.54513">
        <ele>430.3</ele>
        <time>2026-08-06T10:17:29.000Z</time>
      </trkpt>
      <trkpt lat="46.21391" lon="2.54517">
        <ele>430.5</ele>
        <time>2026-08-06T10:17:31.000Z</time>
      </trkpt>
      <trkpt lat="46.21382" lon="2.54535">
        <ele>431.3</ele>
        <time>2026-08-06T10:17:38.000Z</time>
      </trkpt>
      <trkpt lat="46.21373" lon="2.54548">
        <ele>431.6</ele>
        <time>2026-08-06T10:17:44.000Z</time>
      </trkpt>
      <trkpt lat="46.21371" lon="2.54553">
        <ele>431.7</ele>
        <time>2026-08-06T10:17:46.000Z</time>
      </trkpt>
      <trkpt lat="46.21361" lon="2.54571">
        <ele>432</ele>
        <time>2026-08-06T10:17:54.000Z</time>
      </trkpt>
      <trkpt lat="46.21356" lon="2.5458">
        <ele>432.2</ele>
        <time>2026-08-06T10:17:58.000Z</time>
      </trkpt>
      <trkpt lat="46.21351" lon="2.54589">
        <ele>432.4</ele>
        <time>2026-08-06T10:18:02.000Z</time>
      </trkpt>
      <trkpt lat="46.21342" lon="2.54604">
        <ele>433.2</ele>
        <time>2026-08-06T10:18:09.000Z</time>
      </trkpt>
      <trkpt lat="46.21338" lon="2.54611">
        <ele>433.6</ele>
        <time>2026-08-06T10:18:12.000Z</time>
      </trkpt>
      <trkpt lat="46.2133" lon="2.54624">
        <ele>433.9</ele>
        <time>2026-08-06T10:18:18.000Z</time>
      </trkpt>
      <trkpt lat="46.21322" lon="2.54639">
        <ele>434</ele>
        <time>2026-08-06T10:18:25.000Z</time>
      </trkpt>
      <trkpt lat="46.21315" lon="2.54654">
        <ele>433.8</ele>
        <time>2026-08-06T10:18:32.000Z</time>
      </trkpt>
      <trkpt lat="46.21311" lon="2.54662">
        <ele>433.8</ele>
        <time>2026-08-06T10:18:36.000Z</time>
      </trkpt>
      <trkpt lat="46.21308" lon="2.54667">
        <ele>433.9</ele>
        <time>2026-08-06T10:18:39.000Z</time>
      </trkpt>
      <trkpt lat="46.213" lon="2.54678">
        <ele>434.3</ele>
        <time>2026-08-06T10:18:45.000Z</time>
      </trkpt>
      <trkpt lat="46.21295" lon="2.54688">
        <ele>434.5</ele>
        <time>2026-08-06T10:18:49.000Z</time>
      </trkpt>
      <trkpt lat="46.21284" lon="2.54708">
        <ele>434.5</ele>
        <time>2026-08-06T10:18:56.000Z</time>
      </trkpt>
      <trkpt lat="46.21274" lon="2.54727">
        <ele>434.7</ele>
        <time>2026-08-06T10:19:02.000Z</time>
      </trkpt>
      <trkpt lat="46.21261" lon="2.54747">
        <ele>434</ele>
        <time>2026-08-06T10:19:09.000Z</time>
      </trkpt>
      <trkpt lat="46.21245" lon="2.54776">
        <ele>434.9</ele>
        <time>2026-08-06T10:19:18.000Z</time>
      </trkpt>
      <trkpt lat="46.21233" lon="2.54797">
        <ele>435</ele>
        <time>2026-08-06T10:19:25.000Z</time>
      </trkpt>
      <trkpt lat="46.21221" lon="2.54819">
        <ele>435.5</ele>
        <time>2026-08-06T10:19:32.000Z</time>
      </trkpt>
      <trkpt lat="46.21218" lon="2.54824">
        <ele>435.6</ele>
        <time>2026-08-06T10:19:34.000Z</time>
      </trkpt>
      <trkpt lat="46.21205" lon="2.54849">
        <ele>435.7</ele>
        <time>2026-08-06T10:19:42.000Z</time>
      </trkpt>
      <trkpt lat="46.21195" lon="2.54877">
        <ele>436</ele>
        <time>2026-08-06T10:19:49.000Z</time>
      </trkpt>
      <trkpt lat="46.21193" lon="2.54885">
        <ele>436</ele>
        <time>2026-08-06T10:19:51.000Z</time>
      </trkpt>
      <trkpt lat="46.21179" lon="2.54936">
        <ele>436</ele>
        <time>2026-08-06T10:20:02.000Z</time>
      </trkpt>
      <trkpt lat="46.21168" lon="2.54971">
        <ele>436.9</ele>
        <time>2026-08-06T10:20:10.000Z</time>
      </trkpt>
      <trkpt lat="46.21163" lon="2.54988">
        <ele>437</ele>
        <time>2026-08-06T10:20:14.000Z</time>
      </trkpt>
      <trkpt lat="46.21157" lon="2.55009">
        <ele>437</ele>
        <time>2026-08-06T10:20:19.000Z</time>
      </trkpt>
      <trkpt lat="46.21144" lon="2.55044">
        <ele>437.5</ele>
        <time>2026-08-06T10:20:28.000Z</time>
      </trkpt>
      <trkpt lat="46.21143" lon="2.55048">
        <ele>437.6</ele>
        <time>2026-08-06T10:20:29.000Z</time>
      </trkpt>
      <trkpt lat="46.21137" lon="2.55073">
        <ele>437.3</ele>
        <time>2026-08-06T10:20:35.000Z</time>
      </trkpt>
      <trkpt lat="46.21127" lon="2.55107">
        <ele>437</ele>
        <time>2026-08-06T10:20:42.000Z</time>
      </trkpt>
      <trkpt lat="46.21111" lon="2.55159">
        <ele>437</ele>
        <time>2026-08-06T10:20:52.000Z</time>
      </trkpt>
      <trkpt lat="46.21102" lon="2.55189">
        <ele>437</ele>
        <time>2026-08-06T10:20:58.000Z</time>
      </trkpt>
      <trkpt lat="46.21097" lon="2.55206">
        <ele>437</ele>
        <time>2026-08-06T10:21:02.000Z</time>
      </trkpt>
      <trkpt lat="46.21083" lon="2.5525">
        <ele>438</ele>
        <time>2026-08-06T10:21:11.000Z</time>
      </trkpt>
      <trkpt lat="46.21066" lon="2.55306">
        <ele>438</ele>
        <time>2026-08-06T10:21:23.000Z</time>
      </trkpt>
      <trkpt lat="46.21056" lon="2.55341">
        <ele>438.3</ele>
        <time>2026-08-06T10:21:31.000Z</time>
      </trkpt>
      <trkpt lat="46.21054" lon="2.55345">
        <ele>438.4</ele>
        <time>2026-08-06T10:21:32.000Z</time>
      </trkpt>
      <trkpt lat="46.21044" lon="2.55379">
        <ele>439</ele>
        <time>2026-08-06T10:21:40.000Z</time>
      </trkpt>
      <trkpt lat="46.21029" lon="2.55426">
        <ele>440</ele>
        <time>2026-08-06T10:21:51.000Z</time>
      </trkpt>
      <trkpt lat="46.21024" lon="2.55443">
        <ele>440</ele>
        <time>2026-08-06T10:21:54.000Z</time>
      </trkpt>
      <trkpt lat="46.21016" lon="2.55471">
        <ele>440.5</ele>
        <time>2026-08-06T10:22:02.000Z</time>
      </trkpt>
      <trkpt lat="46.21001" lon="2.5552">
        <ele>441.7</ele>
        <time>2026-08-06T10:22:14.000Z</time>
      </trkpt>
      <trkpt lat="46.20998" lon="2.55527">
        <ele>441.9</ele>
        <time>2026-08-06T10:22:16.000Z</time>
      </trkpt>
      <trkpt lat="46.20987" lon="2.55558">
        <ele>442.1</ele>
        <time>2026-08-06T10:22:25.000Z</time>
      </trkpt>
      <trkpt lat="46.20974" lon="2.55594">
        <ele>443.4</ele>
        <time>2026-08-06T10:22:36.000Z</time>
      </trkpt>
      <trkpt lat="46.2097" lon="2.55608">
        <ele>443.9</ele>
        <time>2026-08-06T10:22:41.000Z</time>
      </trkpt>
      <trkpt lat="46.20963" lon="2.55624">
        <ele>444.5</ele>
        <time>2026-08-06T10:22:47.000Z</time>
      </trkpt>
      <trkpt lat="46.20962" lon="2.55632">
        <ele>444.7</ele>
        <time>2026-08-06T10:22:50.000Z</time>
      </trkpt>
      <trkpt lat="46.20955" lon="2.55648">
        <ele>445.3</ele>
        <time>2026-08-06T10:22:56.000Z</time>
      </trkpt>
      <trkpt lat="46.20951" lon="2.55656">
        <ele>445.6</ele>
        <time>2026-08-06T10:22:59.000Z</time>
      </trkpt>
      <trkpt lat="46.20946" lon="2.55671">
        <ele>446.1</ele>
        <time>2026-08-06T10:23:05.000Z</time>
      </trkpt>
      <trkpt lat="46.2094" lon="2.55684">
        <ele>446.8</ele>
        <time>2026-08-06T10:23:11.000Z</time>
      </trkpt>
      <trkpt lat="46.20938" lon="2.55689">
        <ele>447</ele>
        <time>2026-08-06T10:23:13.000Z</time>
      </trkpt>
      <trkpt lat="46.20934" lon="2.55702">
        <ele>447.6</ele>
        <time>2026-08-06T10:23:18.000Z</time>
      </trkpt>
      <trkpt lat="46.20931" lon="2.5571">
        <ele>448</ele>
        <time>2026-08-06T10:23:21.000Z</time>
      </trkpt>
      <trkpt lat="46.20923" lon="2.55727">
        <ele>448.8</ele>
        <time>2026-08-06T10:23:28.000Z</time>
      </trkpt>
      <trkpt lat="46.20921" lon="2.55733">
        <ele>448.9</ele>
        <time>2026-08-06T10:23:30.000Z</time>
      </trkpt>
      <trkpt lat="46.20912" lon="2.55755">
        <ele>449.2</ele>
        <time>2026-08-06T10:23:38.000Z</time>
      </trkpt>
      <trkpt lat="46.209" lon="2.55783">
        <ele>450.2</ele>
        <time>2026-08-06T10:23:48.000Z</time>
      </trkpt>
      <trkpt lat="46.20893" lon="2.55801">
        <ele>450.8</ele>
        <time>2026-08-06T10:23:55.000Z</time>
      </trkpt>
      <trkpt lat="46.20889" lon="2.5581">
        <ele>451.2</ele>
        <time>2026-08-06T10:23:58.000Z</time>
      </trkpt>
      <trkpt lat="46.20884" lon="2.55823">
        <ele>451.5</ele>
        <time>2026-08-06T10:24:03.000Z</time>
      </trkpt>
      <trkpt lat="46.2088" lon="2.55834">
        <ele>451.7</ele>
        <time>2026-08-06T10:24:07.000Z</time>
      </trkpt>
      <trkpt lat="46.2087" lon="2.55852">
        <ele>452</ele>
        <time>2026-08-06T10:24:14.000Z</time>
      </trkpt>
      <trkpt lat="46.20869" lon="2.55855">
        <ele>452</ele>
        <time>2026-08-06T10:24:15.000Z</time>
      </trkpt>
      <trkpt lat="46.20857" lon="2.55873">
        <ele>452.4</ele>
        <time>2026-08-06T10:24:23.000Z</time>
      </trkpt>
      <trkpt lat="46.20837" lon="2.55898">
        <ele>452.4</ele>
        <time>2026-08-06T10:24:34.000Z</time>
      </trkpt>
      <trkpt lat="46.20817" lon="2.55926">
        <ele>452</ele>
        <time>2026-08-06T10:24:43.000Z</time>
      </trkpt>
      <trkpt lat="46.20802" lon="2.55949">
        <ele>451.7</ele>
        <time>2026-08-06T10:24:49.000Z</time>
      </trkpt>
      <trkpt lat="46.20799" lon="2.55954">
        <ele>451.5</ele>
        <time>2026-08-06T10:24:50.000Z</time>
      </trkpt>
      <trkpt lat="46.20778" lon="2.55986">
        <ele>450</ele>
        <time>2026-08-06T10:24:57.000Z</time>
      </trkpt>
      <trkpt lat="46.20776" lon="2.5599">
        <ele>449.9</ele>
        <time>2026-08-06T10:24:58.000Z</time>
      </trkpt>
      <trkpt lat="46.2076" lon="2.56015">
        <ele>448.7</ele>
        <time>2026-08-06T10:25:03.000Z</time>
      </trkpt>
      <trkpt lat="46.20758" lon="2.56019">
        <ele>448.5</ele>
        <time>2026-08-06T10:25:04.000Z</time>
      </trkpt>
      <trkpt lat="46.20734" lon="2.56055">
        <ele>447.9</ele>
        <time>2026-08-06T10:25:11.000Z</time>
      </trkpt>
      <trkpt lat="46.2071" lon="2.56094">
        <ele>445.7</ele>
        <time>2026-08-06T10:25:18.000Z</time>
      </trkpt>
      <trkpt lat="46.20707" lon="2.56099">
        <ele>445.3</ele>
        <time>2026-08-06T10:25:19.000Z</time>
      </trkpt>
      <trkpt lat="46.20694" lon="2.5612">
        <ele>444</ele>
        <time>2026-08-06T10:25:22.000Z</time>
      </trkpt>
      <trkpt lat="46.20682" lon="2.56142">
        <ele>443.1</ele>
        <time>2026-08-06T10:25:25.000Z</time>
      </trkpt>
      <trkpt lat="46.20673" lon="2.56156">
        <ele>442.4</ele>
        <time>2026-08-06T10:25:27.000Z</time>
      </trkpt>
      <trkpt lat="46.2066" lon="2.56178">
        <ele>441.5</ele>
        <time>2026-08-06T10:25:30.000Z</time>
      </trkpt>
      <trkpt lat="46.20651" lon="2.56193">
        <ele>440.9</ele>
        <time>2026-08-06T10:25:32.000Z</time>
      </trkpt>
      <trkpt lat="46.20637" lon="2.56216">
        <ele>440.6</ele>
        <time>2026-08-06T10:25:35.000Z</time>
      </trkpt>
      <trkpt lat="46.20622" lon="2.56242">
        <ele>439.2</ele>
        <time>2026-08-06T10:25:38.000Z</time>
      </trkpt>
      <trkpt lat="46.20614" lon="2.56259">
        <ele>438.3</ele>
        <time>2026-08-06T10:25:40.000Z</time>
      </trkpt>
      <trkpt lat="46.20593" lon="2.56301">
        <ele>436.7</ele>
        <time>2026-08-06T10:25:44.000Z</time>
      </trkpt>
      <trkpt lat="46.20589" lon="2.56312">
        <ele>436.4</ele>
        <time>2026-08-06T10:25:45.000Z</time>
      </trkpt>
      <trkpt lat="46.20576" lon="2.56346">
        <ele>435.4</ele>
        <time>2026-08-06T10:25:48.000Z</time>
      </trkpt>
      <trkpt lat="46.20567" lon="2.56377">
        <ele>434.3</ele>
        <time>2026-08-06T10:25:51.000Z</time>
      </trkpt>
      <trkpt lat="46.20564" lon="2.56388">
        <ele>434.3</ele>
        <time>2026-08-06T10:25:52.000Z</time>
      </trkpt>
      <trkpt lat="46.20551" lon="2.56433">
        <ele>433</ele>
        <time>2026-08-06T10:25:56.000Z</time>
      </trkpt>
      <trkpt lat="46.2054" lon="2.56462">
        <ele>432.6</ele>
        <time>2026-08-06T10:25:59.000Z</time>
      </trkpt>
      <trkpt lat="46.20529" lon="2.56486">
        <ele>433.5</ele>
        <time>2026-08-06T10:26:02.000Z</time>
      </trkpt>
      <trkpt lat="46.20526" lon="2.56492">
        <ele>433.6</ele>
        <time>2026-08-06T10:26:03.000Z</time>
      </trkpt>
      <trkpt lat="46.20522" lon="2.56498">
        <ele>433.7</ele>
        <time>2026-08-06T10:26:04.000Z</time>
      </trkpt>
      <trkpt lat="46.20508" lon="2.5653">
        <ele>434.3</ele>
        <time>2026-08-06T10:26:09.000Z</time>
      </trkpt>
      <trkpt lat="46.20494" lon="2.56567">
        <ele>435.2</ele>
        <time>2026-08-06T10:26:16.000Z</time>
      </trkpt>
      <trkpt lat="46.20484" lon="2.56602">
        <ele>435.7</ele>
        <time>2026-08-06T10:26:24.000Z</time>
      </trkpt>
      <trkpt lat="46.20478" lon="2.56626">
        <ele>435.9</ele>
        <time>2026-08-06T10:26:29.000Z</time>
      </trkpt>
      <trkpt lat="46.20474" lon="2.56641">
        <ele>436.2</ele>
        <time>2026-08-06T10:26:32.000Z</time>
      </trkpt>
      <trkpt lat="46.20465" lon="2.56678">
        <ele>437.3</ele>
        <time>2026-08-06T10:26:40.000Z</time>
      </trkpt>
      <trkpt lat="46.2046" lon="2.56696">
        <ele>437.7</ele>
        <time>2026-08-06T10:26:44.000Z</time>
      </trkpt>
      <trkpt lat="46.20457" lon="2.56703">
        <ele>437.7</ele>
        <time>2026-08-06T10:26:46.000Z</time>
      </trkpt>
      <trkpt lat="46.20444" lon="2.5674">
        <ele>438.2</ele>
        <time>2026-08-06T10:26:55.000Z</time>
      </trkpt>
      <trkpt lat="46.20435" lon="2.56765">
        <ele>438.7</ele>
        <time>2026-08-06T10:27:01.000Z</time>
      </trkpt>
      <trkpt lat="46.20433" lon="2.5677">
        <ele>438.6</ele>
        <time>2026-08-06T10:27:02.000Z</time>
      </trkpt>
      <trkpt lat="46.20418" lon="2.56813">
        <ele>439.3</ele>
        <time>2026-08-06T10:27:12.000Z</time>
      </trkpt>
      <trkpt lat="46.20407" lon="2.56842">
        <ele>439.6</ele>
        <time>2026-08-06T10:27:19.000Z</time>
      </trkpt>
      <trkpt lat="46.20402" lon="2.56854">
        <ele>439.7</ele>
        <time>2026-08-06T10:27:22.000Z</time>
      </trkpt>
      <trkpt lat="46.20393" lon="2.5689">
        <ele>439.3</ele>
        <time>2026-08-06T10:27:30.000Z</time>
      </trkpt>
      <trkpt lat="46.20391" lon="2.56895">
        <ele>439.4</ele>
        <time>2026-08-06T10:27:31.000Z</time>
      </trkpt>
      <trkpt lat="46.20379" lon="2.56934">
        <ele>439.7</ele>
        <time>2026-08-06T10:27:40.000Z</time>
      </trkpt>
      <trkpt lat="46.20366" lon="2.56976">
        <ele>439.4</ele>
        <time>2026-08-06T10:27:49.000Z</time>
      </trkpt>
      <trkpt lat="46.20356" lon="2.57015">
        <ele>438.8</ele>
        <time>2026-08-06T10:27:56.000Z</time>
      </trkpt>
      <trkpt lat="46.20351" lon="2.57036">
        <ele>438.8</ele>
        <time>2026-08-06T10:27:59.000Z</time>
      </trkpt>
      <trkpt lat="46.20342" lon="2.57064">
        <ele>438.6</ele>
        <time>2026-08-06T10:28:03.000Z</time>
      </trkpt>
      <trkpt lat="46.20336" lon="2.57077">
        <ele>438.2</ele>
        <time>2026-08-06T10:28:05.000Z</time>
      </trkpt>
      <trkpt lat="46.20326" lon="2.57095">
        <ele>437.9</ele>
        <time>2026-08-06T10:28:08.000Z</time>
      </trkpt>
      <trkpt lat="46.20303" lon="2.5713">
        <ele>436.9</ele>
        <time>2026-08-06T10:28:14.000Z</time>
      </trkpt>
      <trkpt lat="46.20291" lon="2.57148">
        <ele>436.6</ele>
        <time>2026-08-06T10:28:17.000Z</time>
      </trkpt>
      <trkpt lat="46.20273" lon="2.57178">
        <ele>437.2</ele>
        <time>2026-08-06T10:28:22.000Z</time>
      </trkpt>
      <trkpt lat="46.2027" lon="2.57183">
        <ele>437.3</ele>
        <time>2026-08-06T10:28:23.000Z</time>
      </trkpt>
      <trkpt lat="46.20266" lon="2.57194">
        <ele>437.5</ele>
        <time>2026-08-06T10:28:25.000Z</time>
      </trkpt>
      <trkpt lat="46.20263" lon="2.57211">
        <ele>437.8</ele>
        <time>2026-08-06T10:28:28.000Z</time>
      </trkpt>
      <trkpt lat="46.20263" lon="2.57246">
        <ele>438.4</ele>
        <time>2026-08-06T10:28:34.000Z</time>
      </trkpt>
      <trkpt lat="46.20263" lon="2.57284">
        <ele>438.7</ele>
        <time>2026-08-06T10:28:42.000Z</time>
      </trkpt>
      <trkpt lat="46.20262" lon="2.57321">
        <ele>439.4</ele>
        <time>2026-08-06T10:28:51.000Z</time>
      </trkpt>
      <trkpt lat="46.20261" lon="2.57342">
        <ele>439.5</ele>
        <time>2026-08-06T10:28:56.000Z</time>
      </trkpt>
      <trkpt lat="46.20261" lon="2.57355">
        <ele>439.7</ele>
        <time>2026-08-06T10:28:59.000Z</time>
      </trkpt>
      <trkpt lat="46.20261" lon="2.57391">
        <ele>439.8</ele>
        <time>2026-08-06T10:29:07.000Z</time>
      </trkpt>
      <trkpt lat="46.20263" lon="2.57429">
        <ele>440.7</ele>
        <time>2026-08-06T10:29:15.000Z</time>
      </trkpt>
      <trkpt lat="46.20263" lon="2.57434">
        <ele>440.8</ele>
        <time>2026-08-06T10:29:16.000Z</time>
      </trkpt>
      <trkpt lat="46.20265" lon="2.57482">
        <ele>441.9</ele>
        <time>2026-08-06T10:29:26.000Z</time>
      </trkpt>
      <trkpt lat="46.20266" lon="2.57505">
        <ele>442.6</ele>
        <time>2026-08-06T10:29:31.000Z</time>
      </trkpt>
      <trkpt lat="46.20267" lon="2.57527">
        <ele>442.6</ele>
        <time>2026-08-06T10:29:36.000Z</time>
      </trkpt>
      <trkpt lat="46.20269" lon="2.57565">
        <ele>443.5</ele>
        <time>2026-08-06T10:29:45.000Z</time>
      </trkpt>
      <trkpt lat="46.20269" lon="2.5757">
        <ele>443.5</ele>
        <time>2026-08-06T10:29:46.000Z</time>
      </trkpt>
      <trkpt lat="46.2027" lon="2.57613">
        <ele>443.8</ele>
        <time>2026-08-06T10:29:56.000Z</time>
      </trkpt>
      <trkpt lat="46.2027" lon="2.57643">
        <ele>444.5</ele>
        <time>2026-08-06T10:30:03.000Z</time>
      </trkpt>
      <trkpt lat="46.20268" lon="2.57669">
        <ele>444.6</ele>
        <time>2026-08-06T10:30:09.000Z</time>
      </trkpt>
      <trkpt lat="46.20263" lon="2.57674">
        <ele>444.5</ele>
        <time>2026-08-06T10:30:11.000Z</time>
      </trkpt>
      <trkpt lat="46.2026" lon="2.57674">
        <ele>444.4</ele>
        <time>2026-08-06T10:30:12.000Z</time>
      </trkpt>
      <trkpt lat="46.20243" lon="2.57659">
        <ele>443.5</ele>
        <time>2026-08-06T10:30:17.000Z</time>
      </trkpt>
      <trkpt lat="46.2022" lon="2.5763">
        <ele>441.6</ele>
        <time>2026-08-06T10:30:23.000Z</time>
      </trkpt>
      <trkpt lat="46.20199" lon="2.5761">
        <ele>440.2</ele>
        <time>2026-08-06T10:30:27.000Z</time>
      </trkpt>
      <trkpt lat="46.20187" lon="2.57602">
        <ele>439.6</ele>
        <time>2026-08-06T10:30:29.000Z</time>
      </trkpt>
      <trkpt lat="46.20174" lon="2.57595">
        <ele>438.8</ele>
        <time>2026-08-06T10:30:31.000Z</time>
      </trkpt>
      <trkpt lat="46.20147" lon="2.5758">
        <ele>436.4</ele>
        <time>2026-08-06T10:30:35.000Z</time>
      </trkpt>
      <trkpt lat="46.20133" lon="2.57573">
        <ele>435.2</ele>
        <time>2026-08-06T10:30:37.000Z</time>
      </trkpt>
      <trkpt lat="46.20126" lon="2.57569">
        <ele>434.8</ele>
        <time>2026-08-06T10:30:38.000Z</time>
      </trkpt>
      <trkpt lat="46.20105" lon="2.57558">
        <ele>433.6</ele>
        <time>2026-08-06T10:30:41.000Z</time>
      </trkpt>
      <trkpt lat="46.20085" lon="2.57547">
        <ele>432.1</ele>
        <time>2026-08-06T10:30:44.000Z</time>
      </trkpt>
      <trkpt lat="46.20065" lon="2.57535">
        <ele>430.8</ele>
        <time>2026-08-06T10:30:47.000Z</time>
      </trkpt>
      <trkpt lat="46.20058" lon="2.57531">
        <ele>430.3</ele>
        <time>2026-08-06T10:30:48.000Z</time>
      </trkpt>
      <trkpt lat="46.20037" lon="2.57519">
        <ele>427.8</ele>
        <time>2026-08-06T10:30:51.000Z</time>
      </trkpt>
      <trkpt lat="46.20015" lon="2.57504">
        <ele>424.8</ele>
        <time>2026-08-06T10:30:54.000Z</time>
      </trkpt>
      <trkpt lat="46.20001" lon="2.57491">
        <ele>423.1</ele>
        <time>2026-08-06T10:30:56.000Z</time>
      </trkpt>
      <trkpt lat="46.19986" lon="2.57478">
        <ele>422</ele>
        <time>2026-08-06T10:30:58.000Z</time>
      </trkpt>
      <trkpt lat="46.19969" lon="2.57466">
        <ele>420.6</ele>
        <time>2026-08-06T10:31:00.000Z</time>
      </trkpt>
      <trkpt lat="46.1996" lon="2.57461">
        <ele>419.7</ele>
        <time>2026-08-06T10:31:01.000Z</time>
      </trkpt>
      <trkpt lat="46.19942" lon="2.5745">
        <ele>417.7</ele>
        <time>2026-08-06T10:31:03.000Z</time>
      </trkpt>
      <trkpt lat="46.19913" lon="2.57434">
        <ele>414.5</ele>
        <time>2026-08-06T10:31:06.000Z</time>
      </trkpt>
      <trkpt lat="46.19895" lon="2.57424">
        <ele>414.1</ele>
        <time>2026-08-06T10:31:08.000Z</time>
      </trkpt>
      <trkpt lat="46.19876" lon="2.57417">
        <ele>414</ele>
        <time>2026-08-06T10:31:10.000Z</time>
      </trkpt>
      <trkpt lat="46.19858" lon="2.57414">
        <ele>414.1</ele>
        <time>2026-08-06T10:31:12.000Z</time>
      </trkpt>
      <trkpt lat="46.19836" lon="2.57416">
        <ele>414.9</ele>
        <time>2026-08-06T10:31:15.000Z</time>
      </trkpt>
      <trkpt lat="46.19829" lon="2.57419">
        <ele>415.4</ele>
        <time>2026-08-06T10:31:16.000Z</time>
      </trkpt>
      <trkpt lat="46.19823" lon="2.57423">
        <ele>415.9</ele>
        <time>2026-08-06T10:31:17.000Z</time>
      </trkpt>
      <trkpt lat="46.19809" lon="2.57435">
        <ele>416.9</ele>
        <time>2026-08-06T10:31:20.000Z</time>
      </trkpt>
      <trkpt lat="46.19797" lon="2.57446">
        <ele>417.9</ele>
        <time>2026-08-06T10:31:24.000Z</time>
      </trkpt>
      <trkpt lat="46.19789" lon="2.57455">
        <ele>418.6</ele>
        <time>2026-08-06T10:31:29.000Z</time>
      </trkpt>
      <trkpt lat="46.19782" lon="2.57463">
        <ele>419</ele>
        <time>2026-08-06T10:31:35.000Z</time>
      </trkpt>
      <trkpt lat="46.19778" lon="2.57466">
        <ele>419.2</ele>
        <time>2026-08-06T10:31:38.000Z</time>
      </trkpt>
      <trkpt lat="46.1977" lon="2.5747">
        <ele>419.9</ele>
        <time>2026-08-06T10:31:43.000Z</time>
      </trkpt>
      <trkpt lat="46.19765" lon="2.57475">
        <ele>420.4</ele>
        <time>2026-08-06T10:31:47.000Z</time>
      </trkpt>
      <trkpt lat="46.19762" lon="2.57477">
        <ele>420.7</ele>
        <time>2026-08-06T10:31:49.000Z</time>
      </trkpt>
      <trkpt lat="46.1976" lon="2.57479">
        <ele>420.9</ele>
        <time>2026-08-06T10:31:51.000Z</time>
      </trkpt>
      <trkpt lat="46.19759" lon="2.5748">
        <ele>421</ele>
        <time>2026-08-06T10:31:52.000Z</time>
      </trkpt>
      <trkpt lat="46.19757" lon="2.57482">
        <ele>421.3</ele>
        <time>2026-08-06T10:31:54.000Z</time>
      </trkpt>
      <trkpt lat="46.19753" lon="2.57485">
        <ele>421.7</ele>
        <time>2026-08-06T10:31:57.000Z</time>
      </trkpt>
      <trkpt lat="46.1975" lon="2.57486">
        <ele>422</ele>
        <time>2026-08-06T10:31:59.000Z</time>
      </trkpt>
      <trkpt lat="46.19749" lon="2.57487">
        <ele>422.1</ele>
        <time>2026-08-06T10:32:00.000Z</time>
      </trkpt>
      <trkpt lat="46.19744" lon="2.57489">
        <ele>422.6</ele>
        <time>2026-08-06T10:32:04.000Z</time>
      </trkpt>
      <trkpt lat="46.19743" lon="2.57491">
        <ele>422.7</ele>
        <time>2026-08-06T10:32:05.000Z</time>
      </trkpt>
      <trkpt lat="46.19742" lon="2.57492">
        <ele>422.9</ele>
        <time>2026-08-06T10:32:06.000Z</time>
      </trkpt>
      <trkpt lat="46.19739" lon="2.57492">
        <ele>423.2</ele>
        <time>2026-08-06T10:32:08.000Z</time>
      </trkpt>
      <trkpt lat="46.19738" lon="2.57493">
        <ele>423.3</ele>
        <time>2026-08-06T10:32:09.000Z</time>
      </trkpt>
      <trkpt lat="46.19737" lon="2.57494">
        <ele>423.4</ele>
        <time>2026-08-06T10:32:10.000Z</time>
      </trkpt>
      <trkpt lat="46.19736" lon="2.57495">
        <ele>423.5</ele>
        <time>2026-08-06T10:32:11.000Z</time>
      </trkpt>
      <trkpt lat="46.19734" lon="2.57495">
        <ele>423.8</ele>
        <time>2026-08-06T10:32:13.000Z</time>
      </trkpt>
      <trkpt lat="46.1973" lon="2.57499">
        <ele>424.1</ele>
        <time>2026-08-06T10:32:16.000Z</time>
      </trkpt>
      <trkpt lat="46.19729" lon="2.57499">
        <ele>424.3</ele>
        <time>2026-08-06T10:32:17.000Z</time>
      </trkpt>
      <trkpt lat="46.19728" lon="2.57499">
        <ele>424.4</ele>
        <time>2026-08-06T10:32:18.000Z</time>
      </trkpt>
      <trkpt lat="46.19726" lon="2.57502">
        <ele>424.7</ele>
        <time>2026-08-06T10:32:20.000Z</time>
      </trkpt>
      <trkpt lat="46.19725" lon="2.57503">
        <ele>424.9</ele>
        <time>2026-08-06T10:32:21.000Z</time>
      </trkpt>
      <trkpt lat="46.19722" lon="2.57504">
        <ele>425.2</ele>
        <time>2026-08-06T10:32:23.000Z</time>
      </trkpt>
      <trkpt lat="46.19721" lon="2.57506">
        <ele>425.4</ele>
        <time>2026-08-06T10:32:24.000Z</time>
      </trkpt>
      <trkpt lat="46.1972" lon="2.57508">
        <ele>425.6</ele>
        <time>2026-08-06T10:32:25.000Z</time>
      </trkpt>
      <trkpt lat="46.19717" lon="2.57509">
        <ele>426</ele>
        <time>2026-08-06T10:32:27.000Z</time>
      </trkpt>
      <trkpt lat="46.19715" lon="2.57512">
        <ele>426.2</ele>
        <time>2026-08-06T10:32:29.000Z</time>
      </trkpt>
      <trkpt lat="46.19714" lon="2.57513">
        <ele>426.4</ele>
        <time>2026-08-06T10:32:30.000Z</time>
      </trkpt>
      <trkpt lat="46.19712" lon="2.57513">
        <ele>426.6</ele>
        <time>2026-08-06T10:32:31.000Z</time>
      </trkpt>
      <trkpt lat="46.19711" lon="2.57513">
        <ele>426.7</ele>
        <time>2026-08-06T10:32:32.000Z</time>
      </trkpt>
      <trkpt lat="46.19709" lon="2.57517">
        <ele>427</ele>
        <time>2026-08-06T10:32:35.000Z</time>
      </trkpt>
      <trkpt lat="46.19703" lon="2.57522">
        <ele>427.4</ele>
        <time>2026-08-06T10:32:39.000Z</time>
      </trkpt>
      <trkpt lat="46.19701" lon="2.57524">
        <ele>427.6</ele>
        <time>2026-08-06T10:32:41.000Z</time>
      </trkpt>
      <trkpt lat="46.19699" lon="2.57525">
        <ele>427.7</ele>
        <time>2026-08-06T10:32:43.000Z</time>
      </trkpt>
      <trkpt lat="46.19697" lon="2.57528">
        <ele>427.8</ele>
        <time>2026-08-06T10:32:45.000Z</time>
      </trkpt>
      <trkpt lat="46.19695" lon="2.57528">
        <ele>428</ele>
        <time>2026-08-06T10:32:47.000Z</time>
      </trkpt>
      <trkpt lat="46.19694" lon="2.5753">
        <ele>428.1</ele>
        <time>2026-08-06T10:32:48.000Z</time>
      </trkpt>
      <trkpt lat="46.19693" lon="2.57532">
        <ele>428.3</ele>
        <time>2026-08-06T10:32:49.000Z</time>
      </trkpt>
      <trkpt lat="46.19692" lon="2.57533">
        <ele>428.5</ele>
        <time>2026-08-06T10:32:50.000Z</time>
      </trkpt>
      <trkpt lat="46.19689" lon="2.57533">
        <ele>429</ele>
        <time>2026-08-06T10:32:52.000Z</time>
      </trkpt>
      <trkpt lat="46.19688" lon="2.57534">
        <ele>429.2</ele>
        <time>2026-08-06T10:32:53.000Z</time>
      </trkpt>
      <trkpt lat="46.19686" lon="2.57538">
        <ele>429.3</ele>
        <time>2026-08-06T10:32:55.000Z</time>
      </trkpt>
      <trkpt lat="46.19683" lon="2.57539">
        <ele>430</ele>
        <time>2026-08-06T10:32:58.000Z</time>
      </trkpt>
      <trkpt lat="46.1968" lon="2.57541">
        <ele>430.4</ele>
        <time>2026-08-06T10:33:00.000Z</time>
      </trkpt>
      <trkpt lat="46.19676" lon="2.57548">
        <ele>430.9</ele>
        <time>2026-08-06T10:33:05.000Z</time>
      </trkpt>
      <trkpt lat="46.19671" lon="2.57552">
        <ele>431.5</ele>
        <time>2026-08-06T10:33:09.000Z</time>
      </trkpt>
      <trkpt lat="46.19669" lon="2.57552">
        <ele>431.8</ele>
        <time>2026-08-06T10:33:11.000Z</time>
      </trkpt>
      <trkpt lat="46.19668" lon="2.57552">
        <ele>432</ele>
        <time>2026-08-06T10:33:12.000Z</time>
      </trkpt>
      <trkpt lat="46.19666" lon="2.57556">
        <ele>432.2</ele>
        <time>2026-08-06T10:33:14.000Z</time>
      </trkpt>
      <trkpt lat="46.19664" lon="2.57557">
        <ele>432.5</ele>
        <time>2026-08-06T10:33:15.000Z</time>
      </trkpt>
      <trkpt lat="46.19662" lon="2.57557">
        <ele>432.9</ele>
        <time>2026-08-06T10:33:17.000Z</time>
      </trkpt>
      <trkpt lat="46.19661" lon="2.5756">
        <ele>433.2</ele>
        <time>2026-08-06T10:33:19.000Z</time>
      </trkpt>
      <trkpt lat="46.1966" lon="2.57561">
        <ele>433.3</ele>
        <time>2026-08-06T10:33:20.000Z</time>
      </trkpt>
      <trkpt lat="46.19658" lon="2.57562">
        <ele>433.7</ele>
        <time>2026-08-06T10:33:22.000Z</time>
      </trkpt>
      <trkpt lat="46.19655" lon="2.57566">
        <ele>434.1</ele>
        <time>2026-08-06T10:33:25.000Z</time>
      </trkpt>
      <trkpt lat="46.19655" lon="2.57566">
        <ele>434.2</ele>
        <time>2026-08-06T10:33:26.000Z</time>
      </trkpt>
      <trkpt lat="46.19654" lon="2.57566">
        <ele>434.3</ele>
        <time>2026-08-06T10:33:27.000Z</time>
      </trkpt>
      <trkpt lat="46.19652" lon="2.57569">
        <ele>434.6</ele>
        <time>2026-08-06T10:33:29.000Z</time>
      </trkpt>
      <trkpt lat="46.19651" lon="2.5757">
        <ele>434.7</ele>
        <time>2026-08-06T10:33:30.000Z</time>
      </trkpt>
      <trkpt lat="46.19649" lon="2.5757">
        <ele>435</ele>
        <time>2026-08-06T10:33:32.000Z</time>
      </trkpt>
      <trkpt lat="46.19648" lon="2.57572">
        <ele>435.2</ele>
        <time>2026-08-06T10:33:33.000Z</time>
      </trkpt>
      <trkpt lat="46.19646" lon="2.57575">
        <ele>435.4</ele>
        <time>2026-08-06T10:33:35.000Z</time>
      </trkpt>
      <trkpt lat="46.19645" lon="2.57575">
        <ele>435.5</ele>
        <time>2026-08-06T10:33:36.000Z</time>
      </trkpt>
      <trkpt lat="46.19644" lon="2.57575">
        <ele>435.7</ele>
        <time>2026-08-06T10:33:37.000Z</time>
      </trkpt>
      <trkpt lat="46.19641" lon="2.57579">
        <ele>435.9</ele>
        <time>2026-08-06T10:33:40.000Z</time>
      </trkpt>
      <trkpt lat="46.1964" lon="2.57579">
        <ele>436</ele>
        <time>2026-08-06T10:33:41.000Z</time>
      </trkpt>
      <trkpt lat="46.19637" lon="2.57578">
        <ele>436.3</ele>
        <time>2026-08-06T10:33:43.000Z</time>
      </trkpt>
      <trkpt lat="46.19636" lon="2.57579">
        <ele>436.4</ele>
        <time>2026-08-06T10:33:44.000Z</time>
      </trkpt>
      <trkpt lat="46.19636" lon="2.57581">
        <ele>436.4</ele>
        <time>2026-08-06T10:33:45.000Z</time>
      </trkpt>
      <trkpt lat="46.19636" lon="2.57583">
        <ele>436.3</ele>
        <time>2026-08-06T10:33:46.000Z</time>
      </trkpt>
      <trkpt lat="46.19633" lon="2.57583">
        <ele>436.6</ele>
        <time>2026-08-06T10:33:49.000Z</time>
      </trkpt>
      <trkpt lat="46.19632" lon="2.5758">
        <ele>436.8</ele>
        <time>2026-08-06T10:33:50.000Z</time>
      </trkpt>
      <trkpt lat="46.1963" lon="2.57577">
        <ele>437.1</ele>
        <time>2026-08-06T10:33:52.000Z</time>
      </trkpt>
      <trkpt lat="46.19629" lon="2.57578">
        <ele>437.2</ele>
        <time>2026-08-06T10:33:53.000Z</time>
      </trkpt>
      <trkpt lat="46.19627" lon="2.57585">
        <ele>437.2</ele>
        <time>2026-08-06T10:33:56.000Z</time>
      </trkpt>
      <trkpt lat="46.19626" lon="2.57584">
        <ele>437.4</ele>
        <time>2026-08-06T10:33:58.000Z</time>
      </trkpt>
      <trkpt lat="46.1962" lon="2.57564">
        <ele>438.3</ele>
        <time>2026-08-06T10:34:06.000Z</time>
      </trkpt>
      <trkpt lat="46.19614" lon="2.57547">
        <ele>439.1</ele>
        <time>2026-08-06T10:34:13.000Z</time>
      </trkpt>
      <trkpt lat="46.19613" lon="2.57542">
        <ele>439.3</ele>
        <time>2026-08-06T10:34:15.000Z</time>
      </trkpt>
      <trkpt lat="46.19609" lon="2.57526">
        <ele>440.4</ele>
        <time>2026-08-06T10:34:22.000Z</time>
      </trkpt>
      <trkpt lat="46.19607" lon="2.57517">
        <ele>441.1</ele>
        <time>2026-08-06T10:34:26.000Z</time>
      </trkpt>
      <trkpt lat="46.19603" lon="2.57504">
        <ele>442</ele>
        <time>2026-08-06T10:34:32.000Z</time>
      </trkpt>
      <trkpt lat="46.19601" lon="2.57496">
        <ele>442.6</ele>
        <time>2026-08-06T10:34:36.000Z</time>
      </trkpt>
      <trkpt lat="46.196" lon="2.57495">
        <ele>442.7</ele>
        <time>2026-08-06T10:34:37.000Z</time>
      </trkpt>
      <trkpt lat="46.19599" lon="2.57487">
        <ele>443.2</ele>
        <time>2026-08-06T10:34:41.000Z</time>
      </trkpt>
      <trkpt lat="46.19599" lon="2.57483">
        <ele>443.4</ele>
        <time>2026-08-06T10:34:43.000Z</time>
      </trkpt>
      <trkpt lat="46.19598" lon="2.57482">
        <ele>443.5</ele>
        <time>2026-08-06T10:34:44.000Z</time>
      </trkpt>
      <trkpt lat="46.19596" lon="2.57472">
        <ele>444.2</ele>
        <time>2026-08-06T10:34:49.000Z</time>
      </trkpt>
      <trkpt lat="46.19593" lon="2.57464">
        <ele>444.4</ele>
        <time>2026-08-06T10:34:54.000Z</time>
      </trkpt>
      <trkpt lat="46.19592" lon="2.5746">
        <ele>444.5</ele>
        <time>2026-08-06T10:34:56.000Z</time>
      </trkpt>
      <trkpt lat="46.1959" lon="2.57455">
        <ele>444.6</ele>
        <time>2026-08-06T10:34:59.000Z</time>
      </trkpt>
      <trkpt lat="46.19589" lon="2.57449">
        <ele>444.5</ele>
        <time>2026-08-06T10:35:02.000Z</time>
      </trkpt>
      <trkpt lat="46.19589" lon="2.57447">
        <ele>444.5</ele>
        <time>2026-08-06T10:35:03.000Z</time>
      </trkpt>
      <trkpt lat="46.19585" lon="2.57439">
        <ele>445</ele>
        <time>2026-08-06T10:35:08.000Z</time>
      </trkpt>
      <trkpt lat="46.19584" lon="2.57437">
        <ele>445.2</ele>
        <time>2026-08-06T10:35:09.000Z</time>
      </trkpt>
      <trkpt lat="46.19584" lon="2.57435">
        <ele>445.3</ele>
        <time>2026-08-06T10:35:10.000Z</time>
      </trkpt>
      <trkpt lat="46.19582" lon="2.5743">
        <ele>445.7</ele>
        <time>2026-08-06T10:35:13.000Z</time>
      </trkpt>
      <trkpt lat="46.19581" lon="2.57424">
        <ele>446.1</ele>
        <time>2026-08-06T10:35:16.000Z</time>
      </trkpt>
      <trkpt lat="46.1958" lon="2.57421">
        <ele>446.3</ele>
        <time>2026-08-06T10:35:18.000Z</time>
      </trkpt>
      <trkpt lat="46.1958" lon="2.57419">
        <ele>446.5</ele>
        <time>2026-08-06T10:35:19.000Z</time>
      </trkpt>
      <trkpt lat="46.19578" lon="2.57406">
        <ele>447.2</ele>
        <time>2026-08-06T10:35:26.000Z</time>
      </trkpt>
      <trkpt lat="46.19574" lon="2.57394">
        <ele>448.2</ele>
        <time>2026-08-06T10:35:33.000Z</time>
      </trkpt>
      <trkpt lat="46.19573" lon="2.57392">
        <ele>448.4</ele>
        <time>2026-08-06T10:35:34.000Z</time>
      </trkpt>
      <trkpt lat="46.19572" lon="2.57385">
        <ele>448.8</ele>
        <time>2026-08-06T10:35:38.000Z</time>
      </trkpt>
      <trkpt lat="46.19567" lon="2.57371">
        <ele>449.6</ele>
        <time>2026-08-06T10:35:45.000Z</time>
      </trkpt>
      <trkpt lat="46.19567" lon="2.57369">
        <ele>449.7</ele>
        <time>2026-08-06T10:35:46.000Z</time>
      </trkpt>
      <trkpt lat="46.19565" lon="2.57358">
        <ele>450</ele>
        <time>2026-08-06T10:35:52.000Z</time>
      </trkpt>
      <trkpt lat="46.19564" lon="2.57357">
        <ele>450.1</ele>
        <time>2026-08-06T10:35:53.000Z</time>
      </trkpt>
      <trkpt lat="46.19562" lon="2.57346">
        <ele>450.5</ele>
        <time>2026-08-06T10:35:59.000Z</time>
      </trkpt>
      <trkpt lat="46.19561" lon="2.57341">
        <ele>450.6</ele>
        <time>2026-08-06T10:36:01.000Z</time>
      </trkpt>
      <trkpt lat="46.19557" lon="2.57327">
        <ele>451.1</ele>
        <time>2026-08-06T10:36:08.000Z</time>
      </trkpt>
      <trkpt lat="46.19554" lon="2.57322">
        <ele>451.6</ele>
        <time>2026-08-06T10:36:11.000Z</time>
      </trkpt>
      <trkpt lat="46.1955" lon="2.57312">
        <ele>452.5</ele>
        <time>2026-08-06T10:36:16.000Z</time>
      </trkpt>
      <trkpt lat="46.19549" lon="2.57308">
        <ele>452.9</ele>
        <time>2026-08-06T10:36:18.000Z</time>
      </trkpt>
      <trkpt lat="46.19542" lon="2.57296">
        <ele>453.9</ele>
        <time>2026-08-06T10:36:25.000Z</time>
      </trkpt>
      <trkpt lat="46.19542" lon="2.57294">
        <ele>454</ele>
        <time>2026-08-06T10:36:26.000Z</time>
      </trkpt>
      <trkpt lat="46.19537" lon="2.57286">
        <ele>454.5</ele>
        <time>2026-08-06T10:36:31.000Z</time>
      </trkpt>
      <trkpt lat="46.19535" lon="2.57284">
        <ele>454.6</ele>
        <time>2026-08-06T10:36:32.000Z</time>
      </trkpt>
      <trkpt lat="46.19534" lon="2.57283">
        <ele>454.6</ele>
        <time>2026-08-06T10:36:33.000Z</time>
      </trkpt>
      <trkpt lat="46.19531" lon="2.57277">
        <ele>454.8</ele>
        <time>2026-08-06T10:36:37.000Z</time>
      </trkpt>
      <trkpt lat="46.19527" lon="2.57272">
        <ele>455.3</ele>
        <time>2026-08-06T10:36:40.000Z</time>
      </trkpt>
      <trkpt lat="46.19523" lon="2.57263">
        <ele>456</ele>
        <time>2026-08-06T10:36:45.000Z</time>
      </trkpt>
      <trkpt lat="46.19521" lon="2.57259">
        <ele>456.2</ele>
        <time>2026-08-06T10:36:47.000Z</time>
      </trkpt>
      <trkpt lat="46.19519" lon="2.57251">
        <ele>456.6</ele>
        <time>2026-08-06T10:36:51.000Z</time>
      </trkpt>
      <trkpt lat="46.19513" lon="2.5724">
        <ele>456.8</ele>
        <time>2026-08-06T10:36:57.000Z</time>
      </trkpt>
      <trkpt lat="46.19513" lon="2.57238">
        <ele>456.9</ele>
        <time>2026-08-06T10:36:58.000Z</time>
      </trkpt>
      <trkpt lat="46.19509" lon="2.57234">
        <ele>457</ele>
        <time>2026-08-06T10:37:01.000Z</time>
      </trkpt>
      <trkpt lat="46.19509" lon="2.57232">
        <ele>456.9</ele>
        <time>2026-08-06T10:37:02.000Z</time>
      </trkpt>
      <trkpt lat="46.19505" lon="2.57213">
        <ele>456.8</ele>
        <time>2026-08-06T10:37:09.000Z</time>
      </trkpt>
      <trkpt lat="46.19502" lon="2.57211">
        <ele>456.9</ele>
        <time>2026-08-06T10:37:11.000Z</time>
      </trkpt>
      <trkpt lat="46.195" lon="2.57212">
        <ele>457</ele>
        <time>2026-08-06T10:37:12.000Z</time>
      </trkpt>
      <trkpt lat="46.195" lon="2.57212">
        <ele>457</ele>
        <time>2026-08-06T10:37:15.000Z</time>
      </trkpt>
      <trkpt lat="46.19503" lon="2.57212">
        <ele>456.9</ele>
        <time>2026-08-06T10:37:41.000Z</time>
      </trkpt>
      <trkpt lat="46.19505" lon="2.57193">
        <ele>456.6</ele>
        <time>2026-08-06T10:37:47.000Z</time>
      </trkpt>
      <trkpt lat="46.19507" lon="2.57171">
        <ele>456.5</ele>
        <time>2026-08-06T10:37:52.000Z</time>
      </trkpt>
      <trkpt lat="46.19511" lon="2.57137">
        <ele>455.8</ele>
        <time>2026-08-06T10:37:58.000Z</time>
      </trkpt>
      <trkpt lat="46.19513" lon="2.57101">
        <ele>455</ele>
        <time>2026-08-06T10:38:04.000Z</time>
      </trkpt>
      <trkpt lat="46.19513" lon="2.57096">
        <ele>455.1</ele>
        <time>2026-08-06T10:38:05.000Z</time>
      </trkpt>
      <trkpt lat="46.19506" lon="2.57052">
        <ele>454.6</ele>
        <time>2026-08-06T10:38:13.000Z</time>
      </trkpt>
      <trkpt lat="46.19497" lon="2.57009">
        <ele>454.5</ele>
        <time>2026-08-06T10:38:21.000Z</time>
      </trkpt>
      <trkpt lat="46.1949" lon="2.5697">
        <ele>453.4</ele>
        <time>2026-08-06T10:38:28.000Z</time>
      </trkpt>
      <trkpt lat="46.19487" lon="2.56954">
        <ele>453.9</ele>
        <time>2026-08-06T10:38:31.000Z</time>
      </trkpt>
      <trkpt lat="46.19481" lon="2.56921">
        <ele>454.8</ele>
        <time>2026-08-06T10:38:38.000Z</time>
      </trkpt>
      <trkpt lat="46.19478" lon="2.56903">
        <ele>454.6</ele>
        <time>2026-08-06T10:38:42.000Z</time>
      </trkpt>
      <trkpt lat="46.19471" lon="2.56879">
        <ele>455</ele>
        <time>2026-08-06T10:38:47.000Z</time>
      </trkpt>
      <trkpt lat="46.19458" lon="2.56858">
        <ele>455.3</ele>
        <time>2026-08-06T10:38:53.000Z</time>
      </trkpt>
      <trkpt lat="46.19434" lon="2.56842">
        <ele>456.1</ele>
        <time>2026-08-06T10:39:02.000Z</time>
      </trkpt>
      <trkpt lat="46.19419" lon="2.56832">
        <ele>456.8</ele>
        <time>2026-08-06T10:39:08.000Z</time>
      </trkpt>
      <trkpt lat="46.19405" lon="2.56817">
        <ele>457.1</ele>
        <time>2026-08-06T10:39:15.000Z</time>
      </trkpt>
      <trkpt lat="46.19392" lon="2.56798">
        <ele>457.5</ele>
        <time>2026-08-06T10:39:22.000Z</time>
      </trkpt>
      <trkpt lat="46.19384" lon="2.56762">
        <ele>456.8</ele>
        <time>2026-08-06T10:39:30.000Z</time>
      </trkpt>
      <trkpt lat="46.19378" lon="2.56719">
        <ele>456.8</ele>
        <time>2026-08-06T10:39:38.000Z</time>
      </trkpt>
      <trkpt lat="46.19383" lon="2.56688">
        <ele>456.4</ele>
        <time>2026-08-06T10:39:44.000Z</time>
      </trkpt>
      <trkpt lat="46.19403" lon="2.56648">
        <ele>455.9</ele>
        <time>2026-08-06T10:39:53.000Z</time>
      </trkpt>
      <trkpt lat="46.19415" lon="2.56624">
        <ele>455.1</ele>
        <time>2026-08-06T10:39:58.000Z</time>
      </trkpt>
      <trkpt lat="46.19423" lon="2.56605">
        <ele>455.2</ele>
        <time>2026-08-06T10:40:02.000Z</time>
      </trkpt>
      <trkpt lat="46.1943" lon="2.56573">
        <ele>455.4</ele>
        <time>2026-08-06T10:40:08.000Z</time>
      </trkpt>
      <trkpt lat="46.19429" lon="2.56529">
        <ele>454.6</ele>
        <time>2026-08-06T10:40:15.000Z</time>
      </trkpt>
      <trkpt lat="46.19421" lon="2.56494">
        <ele>454</ele>
        <time>2026-08-06T10:40:21.000Z</time>
      </trkpt>
      <trkpt lat="46.19419" lon="2.56489">
        <ele>454.2</ele>
        <time>2026-08-06T10:40:22.000Z</time>
      </trkpt>
      <trkpt lat="46.19418" lon="2.56483">
        <ele>454.5</ele>
        <time>2026-08-06T10:40:23.000Z</time>
      </trkpt>
      <trkpt lat="46.19415" lon="2.56479">
        <ele>454.7</ele>
        <time>2026-08-06T10:40:24.000Z</time>
      </trkpt>
      <trkpt lat="46.19409" lon="2.56467">
        <ele>454.6</ele>
        <time>2026-08-06T10:40:27.000Z</time>
      </trkpt>
      <trkpt lat="46.19402" lon="2.56459">
        <ele>454.5</ele>
        <time>2026-08-06T10:40:29.000Z</time>
      </trkpt>
      <trkpt lat="46.19397" lon="2.56453">
        <ele>454.6</ele>
        <time>2026-08-06T10:40:31.000Z</time>
      </trkpt>
      <trkpt lat="46.19373" lon="2.56429">
        <ele>454.8</ele>
        <time>2026-08-06T10:40:38.000Z</time>
      </trkpt>
      <trkpt lat="46.19367" lon="2.56423">
        <ele>454.8</ele>
        <time>2026-08-06T10:40:40.000Z</time>
      </trkpt>
      <trkpt lat="46.19337" lon="2.56394">
        <ele>455.2</ele>
        <time>2026-08-06T10:40:49.000Z</time>
      </trkpt>
      <trkpt lat="46.19315" lon="2.56372">
        <ele>455.5</ele>
        <time>2026-08-06T10:40:56.000Z</time>
      </trkpt>
      <trkpt lat="46.1929" lon="2.56344">
        <ele>456.1</ele>
        <time>2026-08-06T10:41:04.000Z</time>
      </trkpt>
      <trkpt lat="46.19264" lon="2.56316">
        <ele>455.4</ele>
        <time>2026-08-06T10:41:12.000Z</time>
      </trkpt>
      <trkpt lat="46.19226" lon="2.56276">
        <ele>454.9</ele>
        <time>2026-08-06T10:41:23.000Z</time>
      </trkpt>
      <trkpt lat="46.19214" lon="2.56262">
        <ele>454.6</ele>
        <time>2026-08-06T10:41:27.000Z</time>
      </trkpt>
      <trkpt lat="46.19207" lon="2.56254">
        <ele>454.6</ele>
        <time>2026-08-06T10:41:29.000Z</time>
      </trkpt>
      <trkpt lat="46.19201" lon="2.56248">
        <ele>454.7</ele>
        <time>2026-08-06T10:41:31.000Z</time>
      </trkpt>
      <trkpt lat="46.19175" lon="2.56223">
        <ele>454</ele>
        <time>2026-08-06T10:41:38.000Z</time>
      </trkpt>
      <trkpt lat="46.19168" lon="2.56216">
        <ele>454</ele>
        <time>2026-08-06T10:41:40.000Z</time>
      </trkpt>
      <trkpt lat="46.19156" lon="2.56207">
        <ele>453.8</ele>
        <time>2026-08-06T10:41:43.000Z</time>
      </trkpt>
      <trkpt lat="46.19131" lon="2.56188">
        <ele>452.9</ele>
        <time>2026-08-06T10:41:49.000Z</time>
      </trkpt>
      <trkpt lat="46.19105" lon="2.56171">
        <ele>452.1</ele>
        <time>2026-08-06T10:41:55.000Z</time>
      </trkpt>
      <trkpt lat="46.19095" lon="2.56165">
        <ele>452</ele>
        <time>2026-08-06T10:41:57.000Z</time>
      </trkpt>
      <trkpt lat="46.19057" lon="2.56138">
        <ele>451</ele>
        <time>2026-08-06T10:42:06.000Z</time>
      </trkpt>
      <trkpt lat="46.19049" lon="2.56132">
        <ele>451</ele>
        <time>2026-08-06T10:42:08.000Z</time>
      </trkpt>
      <trkpt lat="46.1903" lon="2.56119">
        <ele>451.2</ele>
        <time>2026-08-06T10:42:13.000Z</time>
      </trkpt>
      <trkpt lat="46.18996" lon="2.56092">
        <ele>451.2</ele>
        <time>2026-08-06T10:42:22.000Z</time>
      </trkpt>
      <trkpt lat="46.1898" lon="2.56077">
        <ele>452.4</ele>
        <time>2026-08-06T10:42:27.000Z</time>
      </trkpt>
      <trkpt lat="46.18974" lon="2.56068">
        <ele>452.9</ele>
        <time>2026-08-06T10:42:29.000Z</time>
      </trkpt>
      <trkpt lat="46.18955" lon="2.56041">
        <ele>453.1</ele>
        <time>2026-08-06T10:42:36.000Z</time>
      </trkpt>
      <trkpt lat="46.18936" lon="2.56007">
        <ele>453.6</ele>
        <time>2026-08-06T10:42:44.000Z</time>
      </trkpt>
      <trkpt lat="46.18927" lon="2.55975">
        <ele>453.7</ele>
        <time>2026-08-06T10:42:51.000Z</time>
      </trkpt>
      <trkpt lat="46.18916" lon="2.55942">
        <ele>453.9</ele>
        <time>2026-08-06T10:42:58.000Z</time>
      </trkpt>
      <trkpt lat="46.18906" lon="2.55908">
        <ele>453.8</ele>
        <time>2026-08-06T10:43:05.000Z</time>
      </trkpt>
      <trkpt lat="46.18894" lon="2.55868">
        <ele>453.9</ele>
        <time>2026-08-06T10:43:13.000Z</time>
      </trkpt>
      <trkpt lat="46.18886" lon="2.55842">
        <ele>453.5</ele>
        <time>2026-08-06T10:43:18.000Z</time>
      </trkpt>
      <trkpt lat="46.18874" lon="2.55804">
        <ele>453.5</ele>
        <time>2026-08-06T10:43:25.000Z</time>
      </trkpt>
      <trkpt lat="46.18855" lon="2.5574">
        <ele>453.5</ele>
        <time>2026-08-06T10:43:37.000Z</time>
      </trkpt>
      <trkpt lat="46.18837" lon="2.5568">
        <ele>453.8</ele>
        <time>2026-08-06T10:43:48.000Z</time>
      </trkpt>
      <trkpt lat="46.18822" lon="2.55633">
        <ele>453.3</ele>
        <time>2026-08-06T10:43:57.000Z</time>
      </trkpt>
      <trkpt lat="46.18811" lon="2.55591">
        <ele>453</ele>
        <time>2026-08-06T10:44:05.000Z</time>
      </trkpt>
      <trkpt lat="46.1881" lon="2.55586">
        <ele>453</ele>
        <time>2026-08-06T10:44:06.000Z</time>
      </trkpt>
      <trkpt lat="46.18805" lon="2.55554">
        <ele>453</ele>
        <time>2026-08-06T10:44:12.000Z</time>
      </trkpt>
      <trkpt lat="46.18795" lon="2.55499">
        <ele>453</ele>
        <time>2026-08-06T10:44:22.000Z</time>
      </trkpt>
      <trkpt lat="46.18783" lon="2.55469">
        <ele>452.9</ele>
        <time>2026-08-06T10:44:28.000Z</time>
      </trkpt>
      <trkpt lat="46.18768" lon="2.55458">
        <ele>452.3</ele>
        <time>2026-08-06T10:44:33.000Z</time>
      </trkpt>
      <trkpt lat="46.18745" lon="2.55451">
        <ele>451.8</ele>
        <time>2026-08-06T10:44:39.000Z</time>
      </trkpt>
      <trkpt lat="46.1872" lon="2.55445">
        <ele>450.8</ele>
        <time>2026-08-06T10:44:44.000Z</time>
      </trkpt>
      <trkpt lat="46.18704" lon="2.55441">
        <ele>449.8</ele>
        <time>2026-08-06T10:44:47.000Z</time>
      </trkpt>
      <trkpt lat="46.18684" lon="2.55436">
        <ele>448.8</ele>
        <time>2026-08-06T10:44:50.000Z</time>
      </trkpt>
      <trkpt lat="46.18664" lon="2.5543">
        <ele>447.9</ele>
        <time>2026-08-06T10:44:53.000Z</time>
      </trkpt>
      <trkpt lat="46.1865" lon="2.55422">
        <ele>447.9</ele>
        <time>2026-08-06T10:44:55.000Z</time>
      </trkpt>
      <trkpt lat="46.18638" lon="2.55413">
        <ele>448</ele>
        <time>2026-08-06T10:44:57.000Z</time>
      </trkpt>
      <trkpt lat="46.18621" lon="2.55393">
        <ele>447.4</ele>
        <time>2026-08-06T10:45:00.000Z</time>
      </trkpt>
      <trkpt lat="46.18616" lon="2.55385">
        <ele>447.2</ele>
        <time>2026-08-06T10:45:01.000Z</time>
      </trkpt>
      <trkpt lat="46.1859" lon="2.55344">
        <ele>445.8</ele>
        <time>2026-08-06T10:45:06.000Z</time>
      </trkpt>
      <trkpt lat="46.18562" lon="2.55298">
        <ele>443.3</ele>
        <time>2026-08-06T10:45:11.000Z</time>
      </trkpt>
      <trkpt lat="46.18545" lon="2.55272">
        <ele>441.5</ele>
        <time>2026-08-06T10:45:14.000Z</time>
      </trkpt>
      <trkpt lat="46.18541" lon="2.55264">
        <ele>441.2</ele>
        <time>2026-08-06T10:45:15.000Z</time>
      </trkpt>
      <trkpt lat="46.18536" lon="2.55252">
        <ele>440.6</ele>
        <time>2026-08-06T10:45:16.000Z</time>
      </trkpt>
      <trkpt lat="46.18528" lon="2.55232">
        <ele>438.8</ele>
        <time>2026-08-06T10:45:18.000Z</time>
      </trkpt>
      <trkpt lat="46.18519" lon="2.55209">
        <ele>438.2</ele>
        <time>2026-08-06T10:45:20.000Z</time>
      </trkpt>
      <trkpt lat="46.18511" lon="2.55189">
        <ele>438.2</ele>
        <time>2026-08-06T10:45:22.000Z</time>
      </trkpt>
      <trkpt lat="46.18507" lon="2.55178">
        <ele>438.4</ele>
        <time>2026-08-06T10:45:23.000Z</time>
      </trkpt>
      <trkpt lat="46.18496" lon="2.5516">
        <ele>438.3</ele>
        <time>2026-08-06T10:45:25.000Z</time>
      </trkpt>
      <trkpt lat="46.18473" lon="2.55138">
        <ele>437.1</ele>
        <time>2026-08-06T10:45:28.000Z</time>
      </trkpt>
      <trkpt lat="46.18465" lon="2.55133">
        <ele>436.8</ele>
        <time>2026-08-06T10:45:29.000Z</time>
      </trkpt>
      <trkpt lat="46.18458" lon="2.55129">
        <ele>436.3</ele>
        <time>2026-08-06T10:45:30.000Z</time>
      </trkpt>
      <trkpt lat="46.1844" lon="2.55118">
        <ele>434.2</ele>
        <time>2026-08-06T10:45:32.000Z</time>
      </trkpt>
      <trkpt lat="46.18419" lon="2.55103">
        <ele>430.4</ele>
        <time>2026-08-06T10:45:35.000Z</time>
      </trkpt>
      <trkpt lat="46.18403" lon="2.55089">
        <ele>428.8</ele>
        <time>2026-08-06T10:45:37.000Z</time>
      </trkpt>
      <trkpt lat="46.18384" lon="2.55066">
        <ele>426.8</ele>
        <time>2026-08-06T10:45:40.000Z</time>
      </trkpt>
      <trkpt lat="46.18374" lon="2.5505">
        <ele>426.6</ele>
        <time>2026-08-06T10:45:42.000Z</time>
      </trkpt>
      <trkpt lat="46.18364" lon="2.5503">
        <ele>426</ele>
        <time>2026-08-06T10:45:44.000Z</time>
      </trkpt>
      <trkpt lat="46.18359" lon="2.5502">
        <ele>426.3</ele>
        <time>2026-08-06T10:45:45.000Z</time>
      </trkpt>
      <trkpt lat="46.1835" lon="2.55001">
        <ele>426.9</ele>
        <time>2026-08-06T10:45:47.000Z</time>
      </trkpt>
      <trkpt lat="46.18344" lon="2.54992">
        <ele>427</ele>
        <time>2026-08-06T10:45:48.000Z</time>
      </trkpt>
      <trkpt lat="46.18337" lon="2.54983">
        <ele>427.2</ele>
        <time>2026-08-06T10:45:49.000Z</time>
      </trkpt>
      <trkpt lat="46.18331" lon="2.54978">
        <ele>427.2</ele>
        <time>2026-08-06T10:45:50.000Z</time>
      </trkpt>
      <trkpt lat="46.18317" lon="2.54965">
        <ele>426.7</ele>
        <time>2026-08-06T10:45:52.000Z</time>
      </trkpt>
      <trkpt lat="46.18295" lon="2.5495">
        <ele>425.6</ele>
        <time>2026-08-06T10:45:55.000Z</time>
      </trkpt>
      <trkpt lat="46.18269" lon="2.5494">
        <ele>423.1</ele>
        <time>2026-08-06T10:45:58.000Z</time>
      </trkpt>
      <trkpt lat="46.18254" lon="2.54935">
        <ele>421.3</ele>
        <time>2026-08-06T10:46:00.000Z</time>
      </trkpt>
      <trkpt lat="46.18244" lon="2.54931">
        <ele>420.1</ele>
        <time>2026-08-06T10:46:01.000Z</time>
      </trkpt>
      <trkpt lat="46.18231" lon="2.54924">
        <ele>417.6</ele>
        <time>2026-08-06T10:46:03.000Z</time>
      </trkpt>
      <trkpt lat="46.18216" lon="2.54913">
        <ele>415.2</ele>
        <time>2026-08-06T10:46:05.000Z</time>
      </trkpt>
      <trkpt lat="46.18209" lon="2.54906">
        <ele>414.9</ele>
        <time>2026-08-06T10:46:06.000Z</time>
      </trkpt>
      <trkpt lat="46.18193" lon="2.5489">
        <ele>413.2</ele>
        <time>2026-08-06T10:46:08.000Z</time>
      </trkpt>
      <trkpt lat="46.1818" lon="2.54876">
        <ele>411.9</ele>
        <time>2026-08-06T10:46:10.000Z</time>
      </trkpt>
      <trkpt lat="46.18169" lon="2.54865">
        <ele>409.8</ele>
        <time>2026-08-06T10:46:12.000Z</time>
      </trkpt>
      <trkpt lat="46.18161" lon="2.54858">
        <ele>408.8</ele>
        <time>2026-08-06T10:46:13.000Z</time>
      </trkpt>
      <trkpt lat="46.18149" lon="2.54848">
        <ele>407.6</ele>
        <time>2026-08-06T10:46:15.000Z</time>
      </trkpt>
      <trkpt lat="46.18131" lon="2.54835">
        <ele>405.9</ele>
        <time>2026-08-06T10:46:17.000Z</time>
      </trkpt>
      <trkpt lat="46.18123" lon="2.54828">
        <ele>405.4</ele>
        <time>2026-08-06T10:46:18.000Z</time>
      </trkpt>
      <trkpt lat="46.18117" lon="2.54819">
        <ele>404.7</ele>
        <time>2026-08-06T10:46:19.000Z</time>
      </trkpt>
      <trkpt lat="46.18105" lon="2.54802">
        <ele>403.4</ele>
        <time>2026-08-06T10:46:21.000Z</time>
      </trkpt>
      <trkpt lat="46.18089" lon="2.54777">
        <ele>402.4</ele>
        <time>2026-08-06T10:46:24.000Z</time>
      </trkpt>
      <trkpt lat="46.18077" lon="2.5476">
        <ele>401.1</ele>
        <time>2026-08-06T10:46:26.000Z</time>
      </trkpt>
      <trkpt lat="46.18061" lon="2.54734">
        <ele>399.3</ele>
        <time>2026-08-06T10:46:29.000Z</time>
      </trkpt>
      <trkpt lat="46.18049" lon="2.54719">
        <ele>398.1</ele>
        <time>2026-08-06T10:46:31.000Z</time>
      </trkpt>
      <trkpt lat="46.18043" lon="2.54712">
        <ele>397.7</ele>
        <time>2026-08-06T10:46:32.000Z</time>
      </trkpt>
      <trkpt lat="46.18037" lon="2.54705">
        <ele>397.4</ele>
        <time>2026-08-06T10:46:33.000Z</time>
      </trkpt>
      <trkpt lat="46.18018" lon="2.54685">
        <ele>396.8</ele>
        <time>2026-08-06T10:46:36.000Z</time>
      </trkpt>
      <trkpt lat="46.18008" lon="2.54669">
        <ele>396.4</ele>
        <time>2026-08-06T10:46:38.000Z</time>
      </trkpt>
      <trkpt lat="46.18004" lon="2.54661">
        <ele>396.2</ele>
        <time>2026-08-06T10:46:39.000Z</time>
      </trkpt>
      <trkpt lat="46.17999" lon="2.54652">
        <ele>396</ele>
        <time>2026-08-06T10:46:40.000Z</time>
      </trkpt>
      <trkpt lat="46.17996" lon="2.54643">
        <ele>395.6</ele>
        <time>2026-08-06T10:46:41.000Z</time>
      </trkpt>
      <trkpt lat="46.17989" lon="2.54625">
        <ele>394.5</ele>
        <time>2026-08-06T10:46:43.000Z</time>
      </trkpt>
      <trkpt lat="46.17986" lon="2.54616">
        <ele>393.9</ele>
        <time>2026-08-06T10:46:44.000Z</time>
      </trkpt>
      <trkpt lat="46.17984" lon="2.54606">
        <ele>393.3</ele>
        <time>2026-08-06T10:46:45.000Z</time>
      </trkpt>
      <trkpt lat="46.1798" lon="2.54588">
        <ele>392</ele>
        <time>2026-08-06T10:46:47.000Z</time>
      </trkpt>
      <trkpt lat="46.1798" lon="2.54578">
        <ele>390.6</ele>
        <time>2026-08-06T10:46:48.000Z</time>
      </trkpt>
      <trkpt lat="46.1798" lon="2.54568">
        <ele>388.9</ele>
        <time>2026-08-06T10:46:49.000Z</time>
      </trkpt>
      <trkpt lat="46.1798" lon="2.54559">
        <ele>387.3</ele>
        <time>2026-08-06T10:46:50.000Z</time>
      </trkpt>
      <trkpt lat="46.17978" lon="2.54549">
        <ele>386.1</ele>
        <time>2026-08-06T10:46:51.000Z</time>
      </trkpt>
      <trkpt lat="46.17975" lon="2.54541">
        <ele>385.8</ele>
        <time>2026-08-06T10:46:52.000Z</time>
      </trkpt>
      <trkpt lat="46.17971" lon="2.54533">
        <ele>385.6</ele>
        <time>2026-08-06T10:46:53.000Z</time>
      </trkpt>
      <trkpt lat="46.17963" lon="2.54519">
        <ele>385.5</ele>
        <time>2026-08-06T10:46:55.000Z</time>
      </trkpt>
      <trkpt lat="46.17959" lon="2.54513">
        <ele>385.5</ele>
        <time>2026-08-06T10:46:56.000Z</time>
      </trkpt>
      <trkpt lat="46.1795" lon="2.54501">
        <ele>385.5</ele>
        <time>2026-08-06T10:46:58.000Z</time>
      </trkpt>
      <trkpt lat="46.17945" lon="2.54496">
        <ele>385.1</ele>
        <time>2026-08-06T10:46:59.000Z</time>
      </trkpt>
      <trkpt lat="46.17932" lon="2.5448">
        <ele>383.9</ele>
        <time>2026-08-06T10:47:02.000Z</time>
      </trkpt>
      <trkpt lat="46.17929" lon="2.54475">
        <ele>383.6</ele>
        <time>2026-08-06T10:47:03.000Z</time>
      </trkpt>
      <trkpt lat="46.17923" lon="2.54467">
        <ele>383.1</ele>
        <time>2026-08-06T10:47:05.000Z</time>
      </trkpt>
      <trkpt lat="46.17911" lon="2.54453">
        <ele>380.9</ele>
        <time>2026-08-06T10:47:08.000Z</time>
      </trkpt>
      <trkpt lat="46.17898" lon="2.54438">
        <ele>378.7</ele>
        <time>2026-08-06T10:47:11.000Z</time>
      </trkpt>
      <trkpt lat="46.17883" lon="2.54418">
        <ele>376.5</ele>
        <time>2026-08-06T10:47:14.000Z</time>
      </trkpt>
      <trkpt lat="46.17873" lon="2.54407">
        <ele>374.7</ele>
        <time>2026-08-06T10:47:16.000Z</time>
      </trkpt>
      <trkpt lat="46.17868" lon="2.54402">
        <ele>374.3</ele>
        <time>2026-08-06T10:47:17.000Z</time>
      </trkpt>
      <trkpt lat="46.17859" lon="2.54397">
        <ele>373.4</ele>
        <time>2026-08-06T10:47:19.000Z</time>
      </trkpt>
      <trkpt lat="46.17852" lon="2.54398">
        <ele>371.2</ele>
        <time>2026-08-06T10:47:20.000Z</time>
      </trkpt>
      <trkpt lat="46.17848" lon="2.54401">
        <ele>370.2</ele>
        <time>2026-08-06T10:47:21.000Z</time>
      </trkpt>
      <trkpt lat="46.17839" lon="2.54413">
        <ele>369.1</ele>
        <time>2026-08-06T10:47:23.000Z</time>
      </trkpt>
      <trkpt lat="46.17835" lon="2.54426">
        <ele>369.8</ele>
        <time>2026-08-06T10:47:25.000Z</time>
      </trkpt>
      <trkpt lat="46.17833" lon="2.54434">
        <ele>370.4</ele>
        <time>2026-08-06T10:47:26.000Z</time>
      </trkpt>
      <trkpt lat="46.17832" lon="2.54443">
        <ele>370.9</ele>
        <time>2026-08-06T10:47:27.000Z</time>
      </trkpt>
      <trkpt lat="46.1783" lon="2.54459">
        <ele>371</ele>
        <time>2026-08-06T10:47:29.000Z</time>
      </trkpt>
      <trkpt lat="46.17827" lon="2.54482">
        <ele>370.7</ele>
        <time>2026-08-06T10:47:32.000Z</time>
      </trkpt>
      <trkpt lat="46.17826" lon="2.54491">
        <ele>370.5</ele>
        <time>2026-08-06T10:47:33.000Z</time>
      </trkpt>
      <trkpt lat="46.17824" lon="2.54517">
        <ele>370</ele>
        <time>2026-08-06T10:47:36.000Z</time>
      </trkpt>
      <trkpt lat="46.17823" lon="2.54539">
        <ele>369.3</ele>
        <time>2026-08-06T10:47:38.000Z</time>
      </trkpt>
      <trkpt lat="46.17822" lon="2.54549">
        <ele>368.7</ele>
        <time>2026-08-06T10:47:39.000Z</time>
      </trkpt>
      <trkpt lat="46.17823" lon="2.54593">
        <ele>366.5</ele>
        <time>2026-08-06T10:47:43.000Z</time>
      </trkpt>
      <trkpt lat="46.17824" lon="2.54603">
        <ele>365.7</ele>
        <time>2026-08-06T10:47:44.000Z</time>
      </trkpt>
      <trkpt lat="46.17826" lon="2.54614">
        <ele>365.4</ele>
        <time>2026-08-06T10:47:45.000Z</time>
      </trkpt>
      <trkpt lat="46.17831" lon="2.54634">
        <ele>365.3</ele>
        <time>2026-08-06T10:47:47.000Z</time>
      </trkpt>
      <trkpt lat="46.17837" lon="2.54652">
        <ele>365.5</ele>
        <time>2026-08-06T10:47:49.000Z</time>
      </trkpt>
      <trkpt lat="46.1784" lon="2.54661">
        <ele>365.5</ele>
        <time>2026-08-06T10:47:50.000Z</time>
      </trkpt>
      <trkpt lat="46.1785" lon="2.54688">
        <ele>364.6</ele>
        <time>2026-08-06T10:47:53.000Z</time>
      </trkpt>
      <trkpt lat="46.17857" lon="2.54714">
        <ele>362.6</ele>
        <time>2026-08-06T10:47:56.000Z</time>
      </trkpt>
      <trkpt lat="46.1786" lon="2.54734">
        <ele>360.9</ele>
        <time>2026-08-06T10:47:58.000Z</time>
      </trkpt>
      <trkpt lat="46.17863" lon="2.54752">
        <ele>360.1</ele>
        <time>2026-08-06T10:48:00.000Z</time>
      </trkpt>
      <trkpt lat="46.17865" lon="2.54768">
        <ele>360</ele>
        <time>2026-08-06T10:48:02.000Z</time>
      </trkpt>
      <trkpt lat="46.17869" lon="2.54789">
        <ele>361.1</ele>
        <time>2026-08-06T10:48:04.000Z</time>
      </trkpt>
      <trkpt lat="46.1787" lon="2.54798">
        <ele>361.6</ele>
        <time>2026-08-06T10:48:05.000Z</time>
      </trkpt>
      <trkpt lat="46.17872" lon="2.54814">
        <ele>362.3</ele>
        <time>2026-08-06T10:48:07.000Z</time>
      </trkpt>
      <trkpt lat="46.17872" lon="2.54835">
        <ele>361.9</ele>
        <time>2026-08-06T10:48:09.000Z</time>
      </trkpt>
      <trkpt lat="46.1787" lon="2.54863">
        <ele>359.8</ele>
        <time>2026-08-06T10:48:12.000Z</time>
      </trkpt>
      <trkpt lat="46.17869" lon="2.54897">
        <ele>356.3</ele>
        <time>2026-08-06T10:48:16.000Z</time>
      </trkpt>
      <trkpt lat="46.1787" lon="2.54907">
        <ele>355.1</ele>
        <time>2026-08-06T10:48:17.000Z</time>
      </trkpt>
      <trkpt lat="46.17871" lon="2.54925">
        <ele>352.8</ele>
        <time>2026-08-06T10:48:19.000Z</time>
      </trkpt>
      <trkpt lat="46.17874" lon="2.54941">
        <ele>351.1</ele>
        <time>2026-08-06T10:48:21.000Z</time>
      </trkpt>
      <trkpt lat="46.17879" lon="2.54956">
        <ele>350.1</ele>
        <time>2026-08-06T10:48:23.000Z</time>
      </trkpt>
      <trkpt lat="46.17892" lon="2.54984">
        <ele>349.1</ele>
        <time>2026-08-06T10:48:27.000Z</time>
      </trkpt>
      <trkpt lat="46.17901" lon="2.54996">
        <ele>349.3</ele>
        <time>2026-08-06T10:48:29.000Z</time>
      </trkpt>
      <trkpt lat="46.17911" lon="2.55009">
        <ele>349.1</ele>
        <time>2026-08-06T10:48:31.000Z</time>
      </trkpt>
      <trkpt lat="46.17926" lon="2.55029">
        <ele>348.2</ele>
        <time>2026-08-06T10:48:34.000Z</time>
      </trkpt>
      <trkpt lat="46.17936" lon="2.55042">
        <ele>348.2</ele>
        <time>2026-08-06T10:48:36.000Z</time>
      </trkpt>
      <trkpt lat="46.17947" lon="2.55056">
        <ele>347.6</ele>
        <time>2026-08-06T10:48:38.000Z</time>
      </trkpt>
      <trkpt lat="46.17961" lon="2.55079">
        <ele>347.7</ele>
        <time>2026-08-06T10:48:41.000Z</time>
      </trkpt>
      <trkpt lat="46.17965" lon="2.55088">
        <ele>347.2</ele>
        <time>2026-08-06T10:48:42.000Z</time>
      </trkpt>
      <trkpt lat="46.17967" lon="2.55097">
        <ele>346.7</ele>
        <time>2026-08-06T10:48:43.000Z</time>
      </trkpt>
      <trkpt lat="46.17968" lon="2.55106">
        <ele>346</ele>
        <time>2026-08-06T10:48:44.000Z</time>
      </trkpt>
      <trkpt lat="46.17969" lon="2.55116">
        <ele>345.3</ele>
        <time>2026-08-06T10:48:45.000Z</time>
      </trkpt>
      <trkpt lat="46.17968" lon="2.55124">
        <ele>345</ele>
        <time>2026-08-06T10:48:46.000Z</time>
      </trkpt>
      <trkpt lat="46.17967" lon="2.55132">
        <ele>344.5</ele>
        <time>2026-08-06T10:48:47.000Z</time>
      </trkpt>
      <trkpt lat="46.17965" lon="2.55139">
        <ele>344</ele>
        <time>2026-08-06T10:48:48.000Z</time>
      </trkpt>
      <trkpt lat="46.17957" lon="2.55149">
        <ele>342.6</ele>
        <time>2026-08-06T10:48:50.000Z</time>
      </trkpt>
      <trkpt lat="46.17951" lon="2.55151">
        <ele>341.8</ele>
        <time>2026-08-06T10:48:51.000Z</time>
      </trkpt>
      <trkpt lat="46.17944" lon="2.55153">
        <ele>341</ele>
        <time>2026-08-06T10:48:52.000Z</time>
      </trkpt>
      <trkpt lat="46.17937" lon="2.55153">
        <ele>340.4</ele>
        <time>2026-08-06T10:48:53.000Z</time>
      </trkpt>
      <trkpt lat="46.17923" lon="2.55152">
        <ele>339.1</ele>
        <time>2026-08-06T10:48:55.000Z</time>
      </trkpt>
      <trkpt lat="46.17916" lon="2.5515">
        <ele>338.6</ele>
        <time>2026-08-06T10:48:56.000Z</time>
      </trkpt>
      <trkpt lat="46.17909" lon="2.55147">
        <ele>338.1</ele>
        <time>2026-08-06T10:48:57.000Z</time>
      </trkpt>
      <trkpt lat="46.17895" lon="2.5514">
        <ele>337.4</ele>
        <time>2026-08-06T10:48:59.000Z</time>
      </trkpt>
      <trkpt lat="46.17887" lon="2.55137">
        <ele>336.7</ele>
        <time>2026-08-06T10:49:00.000Z</time>
      </trkpt>
      <trkpt lat="46.17873" lon="2.55131">
        <ele>334.9</ele>
        <time>2026-08-06T10:49:02.000Z</time>
      </trkpt>
      <trkpt lat="46.17859" lon="2.55126">
        <ele>333.3</ele>
        <time>2026-08-06T10:49:04.000Z</time>
      </trkpt>
      <trkpt lat="46.1784" lon="2.55118">
        <ele>331.6</ele>
        <time>2026-08-06T10:49:07.000Z</time>
      </trkpt>
      <trkpt lat="46.17834" lon="2.55115">
        <ele>331</ele>
        <time>2026-08-06T10:49:08.000Z</time>
      </trkpt>
      <trkpt lat="46.17824" lon="2.55105">
        <ele>329.4</ele>
        <time>2026-08-06T10:49:10.000Z</time>
      </trkpt>
      <trkpt lat="46.1782" lon="2.55099">
        <ele>329</ele>
        <time>2026-08-06T10:49:11.000Z</time>
      </trkpt>
      <trkpt lat="46.17816" lon="2.55092">
        <ele>328.6</ele>
        <time>2026-08-06T10:49:12.000Z</time>
      </trkpt>
      <trkpt lat="46.17814" lon="2.55084">
        <ele>328.4</ele>
        <time>2026-08-06T10:49:13.000Z</time>
      </trkpt>
      <trkpt lat="46.17811" lon="2.55076">
        <ele>328.2</ele>
        <time>2026-08-06T10:49:14.000Z</time>
      </trkpt>
      <trkpt lat="46.17807" lon="2.55064">
        <ele>327.9</ele>
        <time>2026-08-06T10:49:16.000Z</time>
      </trkpt>
      <trkpt lat="46.17803" lon="2.55054">
        <ele>328</ele>
        <time>2026-08-06T10:49:18.000Z</time>
      </trkpt>
      <trkpt lat="46.17798" lon="2.55046">
        <ele>327.9</ele>
        <time>2026-08-06T10:49:20.000Z</time>
      </trkpt>
      <trkpt lat="46.17792" lon="2.5504">
        <ele>327.5</ele>
        <time>2026-08-06T10:49:22.000Z</time>
      </trkpt>
      <trkpt lat="46.17787" lon="2.55038">
        <ele>327.1</ele>
        <time>2026-08-06T10:49:23.000Z</time>
      </trkpt>
      <trkpt lat="46.17783" lon="2.55037">
        <ele>326.8</ele>
        <time>2026-08-06T10:49:24.000Z</time>
      </trkpt>
      <trkpt lat="46.17779" lon="2.55035">
        <ele>326.3</ele>
        <time>2026-08-06T10:49:25.000Z</time>
      </trkpt>
      <trkpt lat="46.1777" lon="2.55034">
        <ele>326.1</ele>
        <time>2026-08-06T10:49:27.000Z</time>
      </trkpt>
      <trkpt lat="46.1776" lon="2.55034">
        <ele>325.9</ele>
        <time>2026-08-06T10:49:29.000Z</time>
      </trkpt>
      <trkpt lat="46.17751" lon="2.55035">
        <ele>325.8</ele>
        <time>2026-08-06T10:49:31.000Z</time>
      </trkpt>
      <trkpt lat="46.17734" lon="2.55041">
        <ele>323.7</ele>
        <time>2026-08-06T10:49:35.000Z</time>
      </trkpt>
      <trkpt lat="46.17729" lon="2.55043">
        <ele>323.2</ele>
        <time>2026-08-06T10:49:36.000Z</time>
      </trkpt>
      <trkpt lat="46.17718" lon="2.55047">
        <ele>322.5</ele>
        <time>2026-08-06T10:49:39.000Z</time>
      </trkpt>
      <trkpt lat="46.17708" lon="2.55051">
        <ele>323.2</ele>
        <time>2026-08-06T10:49:42.000Z</time>
      </trkpt>
      <trkpt lat="46.17686" lon="2.55057">
        <ele>324.5</ele>
        <time>2026-08-06T10:49:49.000Z</time>
      </trkpt>
      <trkpt lat="46.1766" lon="2.55064">
        <ele>323.4</ele>
        <time>2026-08-06T10:49:57.000Z</time>
      </trkpt>
      <trkpt lat="46.17634" lon="2.55054">
        <ele>322.9</ele>
        <time>2026-08-06T10:50:04.000Z</time>
      </trkpt>
      <trkpt lat="46.17622" lon="2.55045">
        <ele>322.6</ele>
        <time>2026-08-06T10:50:07.000Z</time>
      </trkpt>
      <trkpt lat="46.17614" lon="2.55036">
        <ele>322.3</ele>
        <time>2026-08-06T10:50:09.000Z</time>
      </trkpt>
      <trkpt lat="46.1761" lon="2.55031">
        <ele>322.1</ele>
        <time>2026-08-06T10:50:10.000Z</time>
      </trkpt>
      <trkpt lat="46.17606" lon="2.55026">
        <ele>321.9</ele>
        <time>2026-08-06T10:50:11.000Z</time>
      </trkpt>
      <trkpt lat="46.17598" lon="2.55006">
        <ele>321.2</ele>
        <time>2026-08-06T10:50:14.000Z</time>
      </trkpt>
      <trkpt lat="46.17596" lon="2.54998">
        <ele>321</ele>
        <time>2026-08-06T10:50:15.000Z</time>
      </trkpt>
      <trkpt lat="46.17595" lon="2.5499">
        <ele>320.8</ele>
        <time>2026-08-06T10:50:16.000Z</time>
      </trkpt>
      <trkpt lat="46.17589" lon="2.54938">
        <ele>320.6</ele>
        <time>2026-08-06T10:50:22.000Z</time>
      </trkpt>
      <trkpt lat="46.17588" lon="2.5493">
        <ele>320.4</ele>
        <time>2026-08-06T10:50:23.000Z</time>
      </trkpt>
      <trkpt lat="46.17584" lon="2.54887">
        <ele>320</ele>
        <time>2026-08-06T10:50:28.000Z</time>
      </trkpt>
      <trkpt lat="46.17582" lon="2.54864">
        <ele>320</ele>
        <time>2026-08-06T10:50:31.000Z</time>
      </trkpt>
      <trkpt lat="46.17576" lon="2.54821">
        <ele>320</ele>
        <time>2026-08-06T10:50:37.000Z</time>
      </trkpt>
      <trkpt lat="46.17574" lon="2.54802">
        <ele>319.9</ele>
        <time>2026-08-06T10:50:40.000Z</time>
      </trkpt>
      <trkpt lat="46.17571" lon="2.54784">
        <ele>319.2</ele>
        <time>2026-08-06T10:50:43.000Z</time>
      </trkpt>
      <trkpt lat="46.17569" lon="2.5476">
        <ele>319</ele>
        <time>2026-08-06T10:50:47.000Z</time>
      </trkpt>
      <trkpt lat="46.17568" lon="2.54749">
        <ele>319</ele>
        <time>2026-08-06T10:50:49.000Z</time>
      </trkpt>
      <trkpt lat="46.17568" lon="2.54743">
        <ele>319</ele>
        <time>2026-08-06T10:50:50.000Z</time>
      </trkpt>
      <trkpt lat="46.17567" lon="2.54738">
        <ele>319</ele>
        <time>2026-08-06T10:50:51.000Z</time>
      </trkpt>
      <trkpt lat="46.17562" lon="2.54699">
        <ele>318.8</ele>
        <time>2026-08-06T10:50:58.000Z</time>
      </trkpt>
      <trkpt lat="46.17556" lon="2.54644">
        <ele>319</ele>
        <time>2026-08-06T10:51:07.000Z</time>
      </trkpt>
      <trkpt lat="46.1755" lon="2.5459">
        <ele>318.2</ele>
        <time>2026-08-06T10:51:15.000Z</time>
      </trkpt>
      <trkpt lat="46.17542" lon="2.54518">
        <ele>317</ele>
        <time>2026-08-06T10:51:25.000Z</time>
      </trkpt>
      <trkpt lat="46.1754" lon="2.54504">
        <ele>317</ele>
        <time>2026-08-06T10:51:27.000Z</time>
      </trkpt>
      <trkpt lat="46.17539" lon="2.54456">
        <ele>317</ele>
        <time>2026-08-06T10:51:34.000Z</time>
      </trkpt>
      <trkpt lat="46.1754" lon="2.54415">
        <ele>318.1</ele>
        <time>2026-08-06T10:51:40.000Z</time>
      </trkpt>
      <trkpt lat="46.17543" lon="2.54389">
        <ele>318.9</ele>
        <time>2026-08-06T10:51:44.000Z</time>
      </trkpt>
      <trkpt lat="46.17549" lon="2.54339">
        <ele>319.6</ele>
        <time>2026-08-06T10:51:52.000Z</time>
      </trkpt>
      <trkpt lat="46.17551" lon="2.54333">
        <ele>319.4</ele>
        <time>2026-08-06T10:51:53.000Z</time>
      </trkpt>
      <trkpt lat="46.17556" lon="2.54302">
        <ele>319.1</ele>
        <time>2026-08-06T10:51:58.000Z</time>
      </trkpt>
      <trkpt lat="46.17558" lon="2.5429">
        <ele>319.3</ele>
        <time>2026-08-06T10:52:00.000Z</time>
      </trkpt>
      <trkpt lat="46.17561" lon="2.54279">
        <ele>319.3</ele>
        <time>2026-08-06T10:52:02.000Z</time>
      </trkpt>
      <trkpt lat="46.17572" lon="2.54237">
        <ele>319.9</ele>
        <time>2026-08-06T10:52:09.000Z</time>
      </trkpt>
      <trkpt lat="46.17592" lon="2.54172">
        <ele>318.6</ele>
        <time>2026-08-06T10:52:20.000Z</time>
      </trkpt>
      <trkpt lat="46.17602" lon="2.5415">
        <ele>318.6</ele>
        <time>2026-08-06T10:52:24.000Z</time>
      </trkpt>
      <trkpt lat="46.17616" lon="2.54126">
        <ele>317.8</ele>
        <time>2026-08-06T10:52:28.000Z</time>
      </trkpt>
      <trkpt lat="46.1764" lon="2.54082">
        <ele>317.9</ele>
        <time>2026-08-06T10:52:36.000Z</time>
      </trkpt>
      <trkpt lat="46.17662" lon="2.54043">
        <ele>317</ele>
        <time>2026-08-06T10:52:43.000Z</time>
      </trkpt>
      <trkpt lat="46.17686" lon="2.53999">
        <ele>317</ele>
        <time>2026-08-06T10:52:52.000Z</time>
      </trkpt>
      <trkpt lat="46.17699" lon="2.53974">
        <ele>316.8</ele>
        <time>2026-08-06T10:52:57.000Z</time>
      </trkpt>
      <trkpt lat="46.17707" lon="2.5396">
        <ele>316.3</ele>
        <time>2026-08-06T10:53:00.000Z</time>
      </trkpt>
      <trkpt lat="46.17725" lon="2.53928">
        <ele>316.5</ele>
        <time>2026-08-06T10:53:07.000Z</time>
      </trkpt>
      <trkpt lat="46.1775" lon="2.53882">
        <ele>316</ele>
        <time>2026-08-06T10:53:17.000Z</time>
      </trkpt>
      <trkpt lat="46.17772" lon="2.5384">
        <ele>315.7</ele>
        <time>2026-08-06T10:53:26.000Z</time>
      </trkpt>
      <trkpt lat="46.17797" lon="2.53795">
        <ele>315.2</ele>
        <time>2026-08-06T10:53:36.000Z</time>
      </trkpt>
      <trkpt lat="46.178" lon="2.53791">
        <ele>315.1</ele>
        <time>2026-08-06T10:53:37.000Z</time>
      </trkpt>
      <trkpt lat="46.17821" lon="2.53752">
        <ele>314.5</ele>
        <time>2026-08-06T10:53:46.000Z</time>
      </trkpt>
      <trkpt lat="46.17846" lon="2.53704">
        <ele>314.5</ele>
        <time>2026-08-06T10:53:56.000Z</time>
      </trkpt>
      <trkpt lat="46.17866" lon="2.53667">
        <ele>314.8</ele>
        <time>2026-08-06T10:54:04.000Z</time>
      </trkpt>
      <trkpt lat="46.17877" lon="2.53648">
        <ele>314.1</ele>
        <time>2026-08-06T10:54:08.000Z</time>
      </trkpt>
      <trkpt lat="46.17896" lon="2.53611">
        <ele>314.7</ele>
        <time>2026-08-06T10:54:16.000Z</time>
      </trkpt>
      <trkpt lat="46.17922" lon="2.53563">
        <ele>314</ele>
        <time>2026-08-06T10:54:26.000Z</time>
      </trkpt>
      <trkpt lat="46.17942" lon="2.53526">
        <ele>314</ele>
        <time>2026-08-06T10:54:34.000Z</time>
      </trkpt>
      <trkpt lat="46.17945" lon="2.53521">
        <ele>314</ele>
        <time>2026-08-06T10:54:35.000Z</time>
      </trkpt>
      <trkpt lat="46.17967" lon="2.5348">
        <ele>313.2</ele>
        <time>2026-08-06T10:54:44.000Z</time>
      </trkpt>
      <trkpt lat="46.17969" lon="2.53475">
        <ele>313.1</ele>
        <time>2026-08-06T10:54:45.000Z</time>
      </trkpt>
      <trkpt lat="46.17986" lon="2.53443">
        <ele>313.5</ele>
        <time>2026-08-06T10:54:52.000Z</time>
      </trkpt>
      <trkpt lat="46.18007" lon="2.53404">
        <ele>313.3</ele>
        <time>2026-08-06T10:55:00.000Z</time>
      </trkpt>
      <trkpt lat="46.18027" lon="2.53368">
        <ele>313.7</ele>
        <time>2026-08-06T10:55:08.000Z</time>
      </trkpt>
      <trkpt lat="46.1805" lon="2.53324">
        <ele>314.1</ele>
        <time>2026-08-06T10:55:18.000Z</time>
      </trkpt>
      <trkpt lat="46.1807" lon="2.53287">
        <ele>314.5</ele>
        <time>2026-08-06T10:55:26.000Z</time>
      </trkpt>
      <trkpt lat="46.1808" lon="2.53269">
        <ele>315</ele>
        <time>2026-08-06T10:55:30.000Z</time>
      </trkpt>
      <trkpt lat="46.18098" lon="2.5324">
        <ele>315.2</ele>
        <time>2026-08-06T10:55:37.000Z</time>
      </trkpt>
      <trkpt lat="46.18106" lon="2.53229">
        <ele>315.1</ele>
        <time>2026-08-06T10:55:40.000Z</time>
      </trkpt>
      <trkpt lat="46.18116" lon="2.53214">
        <ele>315.1</ele>
        <time>2026-08-06T10:55:44.000Z</time>
      </trkpt>
      <trkpt lat="46.18137" lon="2.53182">
        <ele>315.5</ele>
        <time>2026-08-06T10:55:52.000Z</time>
      </trkpt>
      <trkpt lat="46.18159" lon="2.53149">
        <ele>315.7</ele>
        <time>2026-08-06T10:56:00.000Z</time>
      </trkpt>
      <trkpt lat="46.18182" lon="2.53113">
        <ele>317.8</ele>
        <time>2026-08-06T10:56:09.000Z</time>
      </trkpt>
      <trkpt lat="46.18201" lon="2.53085">
        <ele>317</ele>
        <time>2026-08-06T10:56:16.000Z</time>
      </trkpt>
      <trkpt lat="46.18221" lon="2.5305">
        <ele>318</ele>
        <time>2026-08-06T10:56:25.000Z</time>
      </trkpt>
      <trkpt lat="46.18223" lon="2.53045">
        <ele>317.8</ele>
        <time>2026-08-06T10:56:26.000Z</time>
      </trkpt>
      <trkpt lat="46.18238" lon="2.5301">
        <ele>317</ele>
        <time>2026-08-06T10:56:33.000Z</time>
      </trkpt>
      <trkpt lat="46.18252" lon="2.52972">
        <ele>316.7</ele>
        <time>2026-08-06T10:56:40.000Z</time>
      </trkpt>
      <trkpt lat="46.18272" lon="2.5292">
        <ele>316.2</ele>
        <time>2026-08-06T10:56:50.000Z</time>
      </trkpt>
      <trkpt lat="46.18288" lon="2.52895">
        <ele>316.8</ele>
        <time>2026-08-06T10:56:56.000Z</time>
      </trkpt>
      <trkpt lat="46.18297" lon="2.52885">
        <ele>316.8</ele>
        <time>2026-08-06T10:56:59.000Z</time>
      </trkpt>
      <trkpt lat="46.1833" lon="2.52856">
        <ele>315.8</ele>
        <time>2026-08-06T10:57:09.000Z</time>
      </trkpt>
      <trkpt lat="46.18333" lon="2.52853">
        <ele>315.9</ele>
        <time>2026-08-06T10:57:10.000Z</time>
      </trkpt>
      <trkpt lat="46.18355" lon="2.52822">
        <ele>316.9</ele>
        <time>2026-08-06T10:57:18.000Z</time>
      </trkpt>
      <trkpt lat="46.18367" lon="2.52793">
        <ele>317.1</ele>
        <time>2026-08-06T10:57:25.000Z</time>
      </trkpt>
      <trkpt lat="46.18373" lon="2.52763">
        <ele>317.7</ele>
        <time>2026-08-06T10:57:32.000Z</time>
      </trkpt>
      <trkpt lat="46.18376" lon="2.5274">
        <ele>318.1</ele>
        <time>2026-08-06T10:57:38.000Z</time>
      </trkpt>
      <trkpt lat="46.18376" lon="2.52714">
        <ele>318.2</ele>
        <time>2026-08-06T10:57:46.000Z</time>
      </trkpt>
      <trkpt lat="46.18374" lon="2.52708">
        <ele>318.4</ele>
        <time>2026-08-06T10:57:49.000Z</time>
      </trkpt>
      <trkpt lat="46.18372" lon="2.52707">
        <ele>318.8</ele>
        <time>2026-08-06T10:57:51.000Z</time>
      </trkpt>
      <trkpt lat="46.1837" lon="2.52707">
        <ele>319</ele>
        <time>2026-08-06T10:57:55.000Z</time>
      </trkpt>
      <trkpt lat="46.18373" lon="2.52692">
        <ele>318.5</ele>
        <time>2026-08-06T11:20:21.000Z</time>
      </trkpt>
      <trkpt lat="46.18371" lon="2.52672">
        <ele>319.5</ele>
        <time>2026-08-06T11:20:29.000Z</time>
      </trkpt>
      <trkpt lat="46.18365" lon="2.52645">
        <ele>321</ele>
        <time>2026-08-06T11:20:39.000Z</time>
      </trkpt>
      <trkpt lat="46.18363" lon="2.52638">
        <ele>321.5</ele>
        <time>2026-08-06T11:20:42.000Z</time>
      </trkpt>
      <trkpt lat="46.18359" lon="2.5262">
        <ele>322.3</ele>
        <time>2026-08-06T11:20:49.000Z</time>
      </trkpt>
      <trkpt lat="46.18354" lon="2.526">
        <ele>322.9</ele>
        <time>2026-08-06T11:20:57.000Z</time>
      </trkpt>
      <trkpt lat="46.18352" lon="2.52595">
        <ele>323.1</ele>
        <time>2026-08-06T11:20:59.000Z</time>
      </trkpt>
      <trkpt lat="46.18344" lon="2.52571">
        <ele>323.8</ele>
        <time>2026-08-06T11:21:08.000Z</time>
      </trkpt>
      <trkpt lat="46.18341" lon="2.52561">
        <ele>324.1</ele>
        <time>2026-08-06T11:21:12.000Z</time>
      </trkpt>
      <trkpt lat="46.18339" lon="2.52553">
        <ele>324.2</ele>
        <time>2026-08-06T11:21:15.000Z</time>
      </trkpt>
      <trkpt lat="46.18334" lon="2.52531">
        <ele>324.9</ele>
        <time>2026-08-06T11:21:23.000Z</time>
      </trkpt>
      <trkpt lat="46.18333" lon="2.52528">
        <ele>325</ele>
        <time>2026-08-06T11:21:24.000Z</time>
      </trkpt>
      <trkpt lat="46.18331" lon="2.52512">
        <ele>325.5</ele>
        <time>2026-08-06T11:21:30.000Z</time>
      </trkpt>
      <trkpt lat="46.1833" lon="2.52509">
        <ele>325.6</ele>
        <time>2026-08-06T11:21:31.000Z</time>
      </trkpt>
      <trkpt lat="46.18328" lon="2.52487">
        <ele>326</ele>
        <time>2026-08-06T11:21:38.000Z</time>
      </trkpt>
      <trkpt lat="46.18327" lon="2.52466">
        <ele>326.5</ele>
        <time>2026-08-06T11:21:45.000Z</time>
      </trkpt>
      <trkpt lat="46.18327" lon="2.52456">
        <ele>326.5</ele>
        <time>2026-08-06T11:21:48.000Z</time>
      </trkpt>
      <trkpt lat="46.18325" lon="2.52441">
        <ele>327.2</ele>
        <time>2026-08-06T11:21:53.000Z</time>
      </trkpt>
      <trkpt lat="46.18325" lon="2.52438">
        <ele>327.4</ele>
        <time>2026-08-06T11:21:54.000Z</time>
      </trkpt>
      <trkpt lat="46.18322" lon="2.52417">
        <ele>328.4</ele>
        <time>2026-08-06T11:22:01.000Z</time>
      </trkpt>
      <trkpt lat="46.18322" lon="2.52408">
        <ele>328.4</ele>
        <time>2026-08-06T11:22:04.000Z</time>
      </trkpt>
      <trkpt lat="46.18322" lon="2.52398">
        <ele>328.2</ele>
        <time>2026-08-06T11:22:07.000Z</time>
      </trkpt>
      <trkpt lat="46.18321" lon="2.52391">
        <ele>328.2</ele>
        <time>2026-08-06T11:22:09.000Z</time>
      </trkpt>
      <trkpt lat="46.18319" lon="2.52366">
        <ele>329</ele>
        <time>2026-08-06T11:22:17.000Z</time>
      </trkpt>
      <trkpt lat="46.18318" lon="2.52353">
        <ele>329.2</ele>
        <time>2026-08-06T11:22:21.000Z</time>
      </trkpt>
      <trkpt lat="46.18317" lon="2.5234">
        <ele>329.4</ele>
        <time>2026-08-06T11:22:25.000Z</time>
      </trkpt>
      <trkpt lat="46.18316" lon="2.52333">
        <ele>329.5</ele>
        <time>2026-08-06T11:22:27.000Z</time>
      </trkpt>
      <trkpt lat="46.18314" lon="2.52311">
        <ele>329.2</ele>
        <time>2026-08-06T11:22:34.000Z</time>
      </trkpt>
      <trkpt lat="46.18314" lon="2.52297">
        <ele>329.1</ele>
        <time>2026-08-06T11:22:38.000Z</time>
      </trkpt>
      <trkpt lat="46.18312" lon="2.5228">
        <ele>329.3</ele>
        <time>2026-08-06T11:22:43.000Z</time>
      </trkpt>
      <trkpt lat="46.1831" lon="2.52264">
        <ele>329.4</ele>
        <time>2026-08-06T11:22:48.000Z</time>
      </trkpt>
      <trkpt lat="46.18307" lon="2.52247">
        <ele>329.6</ele>
        <time>2026-08-06T11:22:53.000Z</time>
      </trkpt>
      <trkpt lat="46.18302" lon="2.5223">
        <ele>329.2</ele>
        <time>2026-08-06T11:22:58.000Z</time>
      </trkpt>
      <trkpt lat="46.18295" lon="2.52211">
        <ele>329.3</ele>
        <time>2026-08-06T11:23:04.000Z</time>
      </trkpt>
      <trkpt lat="46.18287" lon="2.52197">
        <ele>329.6</ele>
        <time>2026-08-06T11:23:09.000Z</time>
      </trkpt>
      <trkpt lat="46.18279" lon="2.52184">
        <ele>330.1</ele>
        <time>2026-08-06T11:23:14.000Z</time>
      </trkpt>
      <trkpt lat="46.18272" lon="2.52174">
        <ele>330.8</ele>
        <time>2026-08-06T11:23:18.000Z</time>
      </trkpt>
      <trkpt lat="46.18263" lon="2.52156">
        <ele>331.1</ele>
        <time>2026-08-06T11:23:25.000Z</time>
      </trkpt>
      <trkpt lat="46.18262" lon="2.52154">
        <ele>331</ele>
        <time>2026-08-06T11:23:26.000Z</time>
      </trkpt>
      <trkpt lat="46.18257" lon="2.52143">
        <ele>330.5</ele>
        <time>2026-08-06T11:23:30.000Z</time>
      </trkpt>
      <trkpt lat="46.18257" lon="2.5214">
        <ele>330.2</ele>
        <time>2026-08-06T11:23:31.000Z</time>
      </trkpt>
      <trkpt lat="46.18256" lon="2.52135">
        <ele>330.2</ele>
        <time>2026-08-06T11:23:33.000Z</time>
      </trkpt>
      <trkpt lat="46.18252" lon="2.52111">
        <ele>330.7</ele>
        <time>2026-08-06T11:23:41.000Z</time>
      </trkpt>
      <trkpt lat="46.18252" lon="2.52108">
        <ele>330.9</ele>
        <time>2026-08-06T11:23:42.000Z</time>
      </trkpt>
      <trkpt lat="46.18248" lon="2.5209">
        <ele>332.2</ele>
        <time>2026-08-06T11:23:49.000Z</time>
      </trkpt>
      <trkpt lat="46.18246" lon="2.52083">
        <ele>332.9</ele>
        <time>2026-08-06T11:23:52.000Z</time>
      </trkpt>
      <trkpt lat="46.18238" lon="2.52065">
        <ele>333.6</ele>
        <time>2026-08-06T11:23:59.000Z</time>
      </trkpt>
      <trkpt lat="46.18237" lon="2.52062">
        <ele>333.8</ele>
        <time>2026-08-06T11:24:00.000Z</time>
      </trkpt>
      <trkpt lat="46.18225" lon="2.52044">
        <ele>334.7</ele>
        <time>2026-08-06T11:24:08.000Z</time>
      </trkpt>
      <trkpt lat="46.18218" lon="2.52031">
        <ele>335.6</ele>
        <time>2026-08-06T11:24:14.000Z</time>
      </trkpt>
      <trkpt lat="46.18217" lon="2.52028">
        <ele>335.7</ele>
        <time>2026-08-06T11:24:15.000Z</time>
      </trkpt>
      <trkpt lat="46.18211" lon="2.52002">
        <ele>336.4</ele>
        <time>2026-08-06T11:24:23.000Z</time>
      </trkpt>
      <trkpt lat="46.18211" lon="2.51984">
        <ele>337.2</ele>
        <time>2026-08-06T11:24:29.000Z</time>
      </trkpt>
      <trkpt lat="46.18211" lon="2.5198">
        <ele>337.4</ele>
        <time>2026-08-06T11:24:30.000Z</time>
      </trkpt>
      <trkpt lat="46.18208" lon="2.51964">
        <ele>339.3</ele>
        <time>2026-08-06T11:24:36.000Z</time>
      </trkpt>
      <trkpt lat="46.18208" lon="2.51961">
        <ele>339.6</ele>
        <time>2026-08-06T11:24:37.000Z</time>
      </trkpt>
      <trkpt lat="46.18204" lon="2.51935">
        <ele>341.4</ele>
        <time>2026-08-06T11:24:46.000Z</time>
      </trkpt>
      <trkpt lat="46.18202" lon="2.51929">
        <ele>341.8</ele>
        <time>2026-08-06T11:24:48.000Z</time>
      </trkpt>
      <trkpt lat="46.18199" lon="2.51912">
        <ele>342.3</ele>
        <time>2026-08-06T11:24:53.000Z</time>
      </trkpt>
      <trkpt lat="46.18195" lon="2.51895">
        <ele>342.3</ele>
        <time>2026-08-06T11:24:58.000Z</time>
      </trkpt>
      <trkpt lat="46.18195" lon="2.5189">
        <ele>342</ele>
        <time>2026-08-06T11:25:00.000Z</time>
      </trkpt>
      <trkpt lat="46.18194" lon="2.51887">
        <ele>342</ele>
        <time>2026-08-06T11:25:01.000Z</time>
      </trkpt>
      <trkpt lat="46.18186" lon="2.51873">
        <ele>343.1</ele>
        <time>2026-08-06T11:25:07.000Z</time>
      </trkpt>
      <trkpt lat="46.18178" lon="2.51862">
        <ele>343.6</ele>
        <time>2026-08-06T11:25:12.000Z</time>
      </trkpt>
      <trkpt lat="46.18168" lon="2.51847">
        <ele>344.3</ele>
        <time>2026-08-06T11:25:18.000Z</time>
      </trkpt>
      <trkpt lat="46.18163" lon="2.51841">
        <ele>344.8</ele>
        <time>2026-08-06T11:25:21.000Z</time>
      </trkpt>
      <trkpt lat="46.18151" lon="2.51833">
        <ele>346.3</ele>
        <time>2026-08-06T11:25:26.000Z</time>
      </trkpt>
      <trkpt lat="46.1814" lon="2.5182">
        <ele>346</ele>
        <time>2026-08-06T11:25:32.000Z</time>
      </trkpt>
      <trkpt lat="46.18139" lon="2.51818">
        <ele>345.9</ele>
        <time>2026-08-06T11:25:33.000Z</time>
      </trkpt>
      <trkpt lat="46.1813" lon="2.51803">
        <ele>345.8</ele>
        <time>2026-08-06T11:25:39.000Z</time>
      </trkpt>
      <trkpt lat="46.18128" lon="2.51783">
        <ele>344.5</ele>
        <time>2026-08-06T11:25:45.000Z</time>
      </trkpt>
      <trkpt lat="46.18134" lon="2.51763">
        <ele>341.8</ele>
        <time>2026-08-06T11:25:51.000Z</time>
      </trkpt>
      <trkpt lat="46.18138" lon="2.51757">
        <ele>340.3</ele>
        <time>2026-08-06T11:25:54.000Z</time>
      </trkpt>
      <trkpt lat="46.18142" lon="2.51755">
        <ele>340.7</ele>
        <time>2026-08-06T11:25:56.000Z</time>
      </trkpt>
      <trkpt lat="46.18153" lon="2.51755">
        <ele>343.6</ele>
        <time>2026-08-06T11:26:03.000Z</time>
      </trkpt>
      <trkpt lat="46.18163" lon="2.51759">
        <ele>345.6</ele>
        <time>2026-08-06T11:26:09.000Z</time>
      </trkpt>
      <trkpt lat="46.18168" lon="2.51766">
        <ele>345.5</ele>
        <time>2026-08-06T11:26:12.000Z</time>
      </trkpt>
      <trkpt lat="46.18174" lon="2.5177">
        <ele>346.1</ele>
        <time>2026-08-06T11:26:16.000Z</time>
      </trkpt>
      <trkpt lat="46.1818" lon="2.51774">
        <ele>346.4</ele>
        <time>2026-08-06T11:26:20.000Z</time>
      </trkpt>
      <trkpt lat="46.18186" lon="2.5178">
        <ele>346.1</ele>
        <time>2026-08-06T11:26:24.000Z</time>
      </trkpt>
      <trkpt lat="46.18196" lon="2.51786">
        <ele>346.3</ele>
        <time>2026-08-06T11:26:31.000Z</time>
      </trkpt>
      <trkpt lat="46.18199" lon="2.51788">
        <ele>346.3</ele>
        <time>2026-08-06T11:26:33.000Z</time>
      </trkpt>
      <trkpt lat="46.18202" lon="2.5179">
        <ele>346.3</ele>
        <time>2026-08-06T11:26:35.000Z</time>
      </trkpt>
      <trkpt lat="46.18205" lon="2.51793">
        <ele>346</ele>
        <time>2026-08-06T11:26:37.000Z</time>
      </trkpt>
      <trkpt lat="46.18219" lon="2.51802">
        <ele>345.4</ele>
        <time>2026-08-06T11:26:45.000Z</time>
      </trkpt>
      <trkpt lat="46.18222" lon="2.51804">
        <ele>345.5</ele>
        <time>2026-08-06T11:26:47.000Z</time>
      </trkpt>
      <trkpt lat="46.18237" lon="2.51808">
        <ele>346.5</ele>
        <time>2026-08-06T11:26:55.000Z</time>
      </trkpt>
      <trkpt lat="46.18256" lon="2.51811">
        <ele>347.7</ele>
        <time>2026-08-06T11:27:05.000Z</time>
      </trkpt>
      <trkpt lat="46.18267" lon="2.51811">
        <ele>347.4</ele>
        <time>2026-08-06T11:27:11.000Z</time>
      </trkpt>
      <trkpt lat="46.18273" lon="2.51809">
        <ele>347.5</ele>
        <time>2026-08-06T11:27:15.000Z</time>
      </trkpt>
      <trkpt lat="46.18282" lon="2.51803">
        <ele>347.5</ele>
        <time>2026-08-06T11:27:21.000Z</time>
      </trkpt>
      <trkpt lat="46.18286" lon="2.518">
        <ele>347.2</ele>
        <time>2026-08-06T11:27:23.000Z</time>
      </trkpt>
      <trkpt lat="46.18295" lon="2.51782">
        <ele>348.2</ele>
        <time>2026-08-06T11:27:32.000Z</time>
      </trkpt>
      <trkpt lat="46.18299" lon="2.51761">
        <ele>350</ele>
        <time>2026-08-06T11:27:40.000Z</time>
      </trkpt>
      <trkpt lat="46.18301" lon="2.51736">
        <ele>352.4</ele>
        <time>2026-08-06T11:27:50.000Z</time>
      </trkpt>
      <trkpt lat="46.18301" lon="2.51734">
        <ele>352.7</ele>
        <time>2026-08-06T11:27:51.000Z</time>
      </trkpt>
      <trkpt lat="46.18301" lon="2.51732">
        <ele>353</ele>
        <time>2026-08-06T11:27:52.000Z</time>
      </trkpt>
      <trkpt lat="46.18302" lon="2.51725">
        <ele>353.6</ele>
        <time>2026-08-06T11:27:55.000Z</time>
      </trkpt>
      <trkpt lat="46.18302" lon="2.51714">
        <ele>355.1</ele>
        <time>2026-08-06T11:28:00.000Z</time>
      </trkpt>
      <trkpt lat="46.18303" lon="2.5171">
        <ele>355.5</ele>
        <time>2026-08-06T11:28:01.000Z</time>
      </trkpt>
      <trkpt lat="46.18303" lon="2.51708">
        <ele>355.8</ele>
        <time>2026-08-06T11:28:02.000Z</time>
      </trkpt>
      <trkpt lat="46.18309" lon="2.51691">
        <ele>356.7</ele>
        <time>2026-08-06T11:28:09.000Z</time>
      </trkpt>
      <trkpt lat="46.18313" lon="2.51672">
        <ele>358.7</ele>
        <time>2026-08-06T11:28:16.000Z</time>
      </trkpt>
      <trkpt lat="46.18319" lon="2.5165">
        <ele>358.5</ele>
        <time>2026-08-06T11:28:23.000Z</time>
      </trkpt>
      <trkpt lat="46.1832" lon="2.51647">
        <ele>358.5</ele>
        <time>2026-08-06T11:28:24.000Z</time>
      </trkpt>
      <trkpt lat="46.1832" lon="2.51643">
        <ele>358.4</ele>
        <time>2026-08-06T11:28:26.000Z</time>
      </trkpt>
      <trkpt lat="46.18322" lon="2.51638">
        <ele>358.3</ele>
        <time>2026-08-06T11:28:28.000Z</time>
      </trkpt>
      <trkpt lat="46.18324" lon="2.51623">
        <ele>358.4</ele>
        <time>2026-08-06T11:28:35.000Z</time>
      </trkpt>
      <trkpt lat="46.18324" lon="2.51621">
        <ele>358.5</ele>
        <time>2026-08-06T11:28:36.000Z</time>
      </trkpt>
      <trkpt lat="46.18325" lon="2.51619">
        <ele>358.4</ele>
        <time>2026-08-06T11:28:37.000Z</time>
      </trkpt>
      <trkpt lat="46.18327" lon="2.51613">
        <ele>358</ele>
        <time>2026-08-06T11:28:39.000Z</time>
      </trkpt>
      <trkpt lat="46.18327" lon="2.51609">
        <ele>358.2</ele>
        <time>2026-08-06T11:28:41.000Z</time>
      </trkpt>
      <trkpt lat="46.18329" lon="2.51604">
        <ele>358</ele>
        <time>2026-08-06T11:28:43.000Z</time>
      </trkpt>
      <trkpt lat="46.18333" lon="2.51595">
        <ele>357.4</ele>
        <time>2026-08-06T11:28:46.000Z</time>
      </trkpt>
      <trkpt lat="46.18334" lon="2.51585">
        <ele>357.7</ele>
        <time>2026-08-06T11:28:50.000Z</time>
      </trkpt>
      <trkpt lat="46.18336" lon="2.51573">
        <ele>358.7</ele>
        <time>2026-08-06T11:28:55.000Z</time>
      </trkpt>
      <trkpt lat="46.18338" lon="2.51567">
        <ele>358.8</ele>
        <time>2026-08-06T11:28:57.000Z</time>
      </trkpt>
      <trkpt lat="46.18343" lon="2.51547">
        <ele>359.3</ele>
        <time>2026-08-06T11:29:05.000Z</time>
      </trkpt>
      <trkpt lat="46.18343" lon="2.5154">
        <ele>359.6</ele>
        <time>2026-08-06T11:29:08.000Z</time>
      </trkpt>
      <trkpt lat="46.18345" lon="2.51535">
        <ele>359.6</ele>
        <time>2026-08-06T11:29:10.000Z</time>
      </trkpt>
      <trkpt lat="46.18345" lon="2.51533">
        <ele>359.7</ele>
        <time>2026-08-06T11:29:11.000Z</time>
      </trkpt>
      <trkpt lat="46.18345" lon="2.51531">
        <ele>360</ele>
        <time>2026-08-06T11:29:12.000Z</time>
      </trkpt>
      <trkpt lat="46.18347" lon="2.5152">
        <ele>360.1</ele>
        <time>2026-08-06T11:29:16.000Z</time>
      </trkpt>
      <trkpt lat="46.1835" lon="2.51513">
        <ele>360</ele>
        <time>2026-08-06T11:29:19.000Z</time>
      </trkpt>
      <trkpt lat="46.18354" lon="2.51503">
        <ele>359.9</ele>
        <time>2026-08-06T11:29:23.000Z</time>
      </trkpt>
      <trkpt lat="46.18354" lon="2.51501">
        <ele>359.9</ele>
        <time>2026-08-06T11:29:24.000Z</time>
      </trkpt>
      <trkpt lat="46.18358" lon="2.51483">
        <ele>360.3</ele>
        <time>2026-08-06T11:29:30.000Z</time>
      </trkpt>
      <trkpt lat="46.18357" lon="2.51482">
        <ele>360.6</ele>
        <time>2026-08-06T11:29:31.000Z</time>
      </trkpt>
      <trkpt lat="46.18357" lon="2.5148">
        <ele>360.7</ele>
        <time>2026-08-06T11:29:32.000Z</time>
      </trkpt>
      <trkpt lat="46.18358" lon="2.51475">
        <ele>361</ele>
        <time>2026-08-06T11:29:34.000Z</time>
      </trkpt>
      <trkpt lat="46.18362" lon="2.51461">
        <ele>361.2</ele>
        <time>2026-08-06T11:29:40.000Z</time>
      </trkpt>
      <trkpt lat="46.18362" lon="2.51457">
        <ele>361.5</ele>
        <time>2026-08-06T11:29:42.000Z</time>
      </trkpt>
      <trkpt lat="46.18366" lon="2.51438">
        <ele>362.6</ele>
        <time>2026-08-06T11:29:50.000Z</time>
      </trkpt>
      <trkpt lat="46.18367" lon="2.51432">
        <ele>363</ele>
        <time>2026-08-06T11:29:52.000Z</time>
      </trkpt>
      <trkpt lat="46.18367" lon="2.51427">
        <ele>363.3</ele>
        <time>2026-08-06T11:29:54.000Z</time>
      </trkpt>
      <trkpt lat="46.18369" lon="2.51421">
        <ele>363.3</ele>
        <time>2026-08-06T11:29:56.000Z</time>
      </trkpt>
      <trkpt lat="46.18376" lon="2.51402">
        <ele>362.4</ele>
        <time>2026-08-06T11:30:02.000Z</time>
      </trkpt>
      <trkpt lat="46.18377" lon="2.51398">
        <ele>362.4</ele>
        <time>2026-08-06T11:30:03.000Z</time>
      </trkpt>
      <trkpt lat="46.18377" lon="2.51394">
        <ele>362.6</ele>
        <time>2026-08-06T11:30:04.000Z</time>
      </trkpt>
      <trkpt lat="46.18378" lon="2.51389">
        <ele>362.5</ele>
        <time>2026-08-06T11:30:07.000Z</time>
      </trkpt>
      <trkpt lat="46.18378" lon="2.51385">
        <ele>362.8</ele>
        <time>2026-08-06T11:30:09.000Z</time>
      </trkpt>
      <trkpt lat="46.1838" lon="2.51377">
        <ele>362.6</ele>
        <time>2026-08-06T11:30:12.000Z</time>
      </trkpt>
      <trkpt lat="46.1838" lon="2.51375">
        <ele>362.5</ele>
        <time>2026-08-06T11:30:13.000Z</time>
      </trkpt>
      <trkpt lat="46.1838" lon="2.5137">
        <ele>362.8</ele>
        <time>2026-08-06T11:30:15.000Z</time>
      </trkpt>
      <trkpt lat="46.18379" lon="2.51365">
        <ele>363.6</ele>
        <time>2026-08-06T11:30:18.000Z</time>
      </trkpt>
      <trkpt lat="46.18378" lon="2.5136">
        <ele>364</ele>
        <time>2026-08-06T11:30:20.000Z</time>
      </trkpt>
      <trkpt lat="46.18378" lon="2.51345">
        <ele>364</ele>
        <time>2026-08-06T11:30:26.000Z</time>
      </trkpt>
      <trkpt lat="46.18376" lon="2.51338">
        <ele>364.6</ele>
        <time>2026-08-06T11:30:29.000Z</time>
      </trkpt>
      <trkpt lat="46.18375" lon="2.51333">
        <ele>364.9</ele>
        <time>2026-08-06T11:30:31.000Z</time>
      </trkpt>
      <trkpt lat="46.18379" lon="2.51314">
        <ele>363.5</ele>
        <time>2026-08-06T11:30:37.000Z</time>
      </trkpt>
      <trkpt lat="46.1838" lon="2.51312">
        <ele>363.4</ele>
        <time>2026-08-06T11:30:38.000Z</time>
      </trkpt>
      <trkpt lat="46.18379" lon="2.51306">
        <ele>363.6</ele>
        <time>2026-08-06T11:30:41.000Z</time>
      </trkpt>
      <trkpt lat="46.18381" lon="2.51298">
        <ele>363.1</ele>
        <time>2026-08-06T11:30:43.000Z</time>
      </trkpt>
      <trkpt lat="46.18379" lon="2.5129">
        <ele>363.8</ele>
        <time>2026-08-06T11:30:46.000Z</time>
      </trkpt>
      <trkpt lat="46.18378" lon="2.51284">
        <ele>364.1</ele>
        <time>2026-08-06T11:30:48.000Z</time>
      </trkpt>
      <trkpt lat="46.18375" lon="2.51276">
        <ele>365.1</ele>
        <time>2026-08-06T11:30:52.000Z</time>
      </trkpt>
      <trkpt lat="46.18374" lon="2.51272">
        <ele>365.5</ele>
        <time>2026-08-06T11:30:54.000Z</time>
      </trkpt>
      <trkpt lat="46.18374" lon="2.51271">
        <ele>365.6</ele>
        <time>2026-08-06T11:30:55.000Z</time>
      </trkpt>
      <trkpt lat="46.18375" lon="2.51262">
        <ele>365.8</ele>
        <time>2026-08-06T11:31:00.000Z</time>
      </trkpt>
      <trkpt lat="46.18375" lon="2.5126">
        <ele>366</ele>
        <time>2026-08-06T11:31:01.000Z</time>
      </trkpt>
      <trkpt lat="46.18375" lon="2.51251">
        <ele>366.4</ele>
        <time>2026-08-06T11:31:04.000Z</time>
      </trkpt>
      <trkpt lat="46.18374" lon="2.51236">
        <ele>368</ele>
        <time>2026-08-06T11:31:08.000Z</time>
      </trkpt>
      <trkpt lat="46.18372" lon="2.51219">
        <ele>369.8</ele>
        <time>2026-08-06T11:31:13.000Z</time>
      </trkpt>
      <trkpt lat="46.18371" lon="2.51215">
        <ele>370.5</ele>
        <time>2026-08-06T11:31:15.000Z</time>
      </trkpt>
      <trkpt lat="46.18374" lon="2.51201">
        <ele>371.3</ele>
        <time>2026-08-06T11:31:19.000Z</time>
      </trkpt>
      <trkpt lat="46.18376" lon="2.51192">
        <ele>371.4</ele>
        <time>2026-08-06T11:31:22.000Z</time>
      </trkpt>
      <trkpt lat="46.18378" lon="2.5118">
        <ele>372</ele>
        <time>2026-08-06T11:31:26.000Z</time>
      </trkpt>
      <trkpt lat="46.18378" lon="2.51175">
        <ele>372.3</ele>
        <time>2026-08-06T11:31:28.000Z</time>
      </trkpt>
      <trkpt lat="46.18373" lon="2.5115">
        <ele>374.1</ele>
        <time>2026-08-06T11:31:37.000Z</time>
      </trkpt>
      <trkpt lat="46.18367" lon="2.5113">
        <ele>375.3</ele>
        <time>2026-08-06T11:31:46.000Z</time>
      </trkpt>
      <trkpt lat="46.18366" lon="2.51127">
        <ele>375.5</ele>
        <time>2026-08-06T11:31:48.000Z</time>
      </trkpt>
      <trkpt lat="46.18363" lon="2.51121">
        <ele>375.9</ele>
        <time>2026-08-06T11:31:51.000Z</time>
      </trkpt>
      <trkpt lat="46.18361" lon="2.51111">
        <ele>376.1</ele>
        <time>2026-08-06T11:31:56.000Z</time>
      </trkpt>
      <trkpt lat="46.1836" lon="2.51109">
        <ele>376.4</ele>
        <time>2026-08-06T11:31:57.000Z</time>
      </trkpt>
      <trkpt lat="46.18358" lon="2.51103">
        <ele>377</ele>
        <time>2026-08-06T11:32:00.000Z</time>
      </trkpt>
      <trkpt lat="46.18359" lon="2.5109">
        <ele>377.2</ele>
        <time>2026-08-06T11:32:04.000Z</time>
      </trkpt>
      <trkpt lat="46.1836" lon="2.51088">
        <ele>377.1</ele>
        <time>2026-08-06T11:32:05.000Z</time>
      </trkpt>
      <trkpt lat="46.18367" lon="2.51074">
        <ele>377.5</ele>
        <time>2026-08-06T11:32:10.000Z</time>
      </trkpt>
      <trkpt lat="46.18376" lon="2.51069">
        <ele>378</ele>
        <time>2026-08-06T11:32:17.000Z</time>
      </trkpt>
      <trkpt lat="46.18386" lon="2.5107">
        <ele>378.3</ele>
        <time>2026-08-06T11:32:24.000Z</time>
      </trkpt>
      <trkpt lat="46.18392" lon="2.51079">
        <ele>378.6</ele>
        <time>2026-08-06T11:32:30.000Z</time>
      </trkpt>
      <trkpt lat="46.18394" lon="2.51082">
        <ele>378.7</ele>
        <time>2026-08-06T11:32:31.000Z</time>
      </trkpt>
      <trkpt lat="46.18397" lon="2.51095">
        <ele>378.2</ele>
        <time>2026-08-06T11:32:36.000Z</time>
      </trkpt>
      <trkpt lat="46.18398" lon="2.51097">
        <ele>378.1</ele>
        <time>2026-08-06T11:32:37.000Z</time>
      </trkpt>
      <trkpt lat="46.18403" lon="2.51118">
        <ele>376.6</ele>
        <time>2026-08-06T11:32:45.000Z</time>
      </trkpt>
      <trkpt lat="46.18405" lon="2.51122">
        <ele>376.6</ele>
        <time>2026-08-06T11:32:47.000Z</time>
      </trkpt>
      <trkpt lat="46.18408" lon="2.51129">
        <ele>376.3</ele>
        <time>2026-08-06T11:32:52.000Z</time>
      </trkpt>
      <trkpt lat="46.18414" lon="2.51144">
        <ele>374.9</ele>
        <time>2026-08-06T11:33:00.000Z</time>
      </trkpt>
      <trkpt lat="46.18422" lon="2.51155">
        <ele>374.3</ele>
        <time>2026-08-06T11:33:09.000Z</time>
      </trkpt>
      <trkpt lat="46.18424" lon="2.51159">
        <ele>374.1</ele>
        <time>2026-08-06T11:33:11.000Z</time>
      </trkpt>
      <trkpt lat="46.18435" lon="2.51169">
        <ele>373.7</ele>
        <time>2026-08-06T11:33:18.000Z</time>
      </trkpt>
      <trkpt lat="46.18455" lon="2.51188">
        <ele>375.8</ele>
        <time>2026-08-06T11:33:27.000Z</time>
      </trkpt>
      <trkpt lat="46.18467" lon="2.51194">
        <ele>378.7</ele>
        <time>2026-08-06T11:33:31.000Z</time>
      </trkpt>
      <trkpt lat="46.18474" lon="2.51195">
        <ele>380.6</ele>
        <time>2026-08-06T11:33:34.000Z</time>
      </trkpt>
      <trkpt lat="46.18484" lon="2.51191">
        <ele>383</ele>
        <time>2026-08-06T11:33:39.000Z</time>
      </trkpt>
      <trkpt lat="46.1849" lon="2.51188">
        <ele>384.2</ele>
        <time>2026-08-06T11:33:42.000Z</time>
      </trkpt>
      <trkpt lat="46.18499" lon="2.51182">
        <ele>385.5</ele>
        <time>2026-08-06T11:33:47.000Z</time>
      </trkpt>
      <trkpt lat="46.18505" lon="2.51178">
        <ele>386.3</ele>
        <time>2026-08-06T11:33:50.000Z</time>
      </trkpt>
      <trkpt lat="46.18518" lon="2.5117">
        <ele>387.5</ele>
        <time>2026-08-06T11:33:57.000Z</time>
      </trkpt>
      <trkpt lat="46.18523" lon="2.51166">
        <ele>387.8</ele>
        <time>2026-08-06T11:34:00.000Z</time>
      </trkpt>
      <trkpt lat="46.1853" lon="2.51161">
        <ele>388.4</ele>
        <time>2026-08-06T11:34:04.000Z</time>
      </trkpt>
      <trkpt lat="46.18544" lon="2.51151">
        <ele>389.7</ele>
        <time>2026-08-06T11:34:12.000Z</time>
      </trkpt>
      <trkpt lat="46.18548" lon="2.51149">
        <ele>389.9</ele>
        <time>2026-08-06T11:34:14.000Z</time>
      </trkpt>
      <trkpt lat="46.18557" lon="2.51141">
        <ele>390</ele>
        <time>2026-08-06T11:34:20.000Z</time>
      </trkpt>
      <trkpt lat="46.18565" lon="2.51128">
        <ele>390.2</ele>
        <time>2026-08-06T11:34:26.000Z</time>
      </trkpt>
      <trkpt lat="46.18566" lon="2.5112">
        <ele>389.3</ele>
        <time>2026-08-06T11:34:29.000Z</time>
      </trkpt>
      <trkpt lat="46.18565" lon="2.5111">
        <ele>387.8</ele>
        <time>2026-08-06T11:34:33.000Z</time>
      </trkpt>
      <trkpt lat="46.18563" lon="2.51105">
        <ele>388</ele>
        <time>2026-08-06T11:34:35.000Z</time>
      </trkpt>
      <trkpt lat="46.18557" lon="2.51094">
        <ele>388.6</ele>
        <time>2026-08-06T11:34:41.000Z</time>
      </trkpt>
      <trkpt lat="46.18555" lon="2.51093">
        <ele>388.7</ele>
        <time>2026-08-06T11:34:42.000Z</time>
      </trkpt>
      <trkpt lat="46.18543" lon="2.51091">
        <ele>389.7</ele>
        <time>2026-08-06T11:34:47.000Z</time>
      </trkpt>
      <trkpt lat="46.18536" lon="2.51091">
        <ele>390.4</ele>
        <time>2026-08-06T11:34:51.000Z</time>
      </trkpt>
      <trkpt lat="46.1853" lon="2.51092">
        <ele>390.5</ele>
        <time>2026-08-06T11:34:54.000Z</time>
      </trkpt>
      <trkpt lat="46.18518" lon="2.51098">
        <ele>389.8</ele>
        <time>2026-08-06T11:35:01.000Z</time>
      </trkpt>
      <trkpt lat="46.18504" lon="2.51105">
        <ele>388.6</ele>
        <time>2026-08-06T11:35:09.000Z</time>
      </trkpt>
      <trkpt lat="46.18491" lon="2.51106">
        <ele>389.4</ele>
        <time>2026-08-06T11:35:17.000Z</time>
      </trkpt>
      <trkpt lat="46.18476" lon="2.51115">
        <ele>387.7</ele>
        <time>2026-08-06T11:35:26.000Z</time>
      </trkpt>
      <trkpt lat="46.18471" lon="2.51116">
        <ele>387.5</ele>
        <time>2026-08-06T11:35:29.000Z</time>
      </trkpt>
      <trkpt lat="46.18463" lon="2.51116">
        <ele>387.2</ele>
        <time>2026-08-06T11:35:33.000Z</time>
      </trkpt>
      <trkpt lat="46.18451" lon="2.51118">
        <ele>386.5</ele>
        <time>2026-08-06T11:35:40.000Z</time>
      </trkpt>
      <trkpt lat="46.18449" lon="2.51118">
        <ele>386.4</ele>
        <time>2026-08-06T11:35:41.000Z</time>
      </trkpt>
      <trkpt lat="46.18448" lon="2.51117">
        <ele>386.6</ele>
        <time>2026-08-06T11:35:42.000Z</time>
      </trkpt>
      <trkpt lat="46.18447" lon="2.51116">
        <ele>386.8</ele>
        <time>2026-08-06T11:35:43.000Z</time>
      </trkpt>
      <trkpt lat="46.18437" lon="2.51104">
        <ele>388</ele>
        <time>2026-08-06T11:35:50.000Z</time>
      </trkpt>
      <trkpt lat="46.18436" lon="2.51102">
        <ele>388.2</ele>
        <time>2026-08-06T11:35:51.000Z</time>
      </trkpt>
      <trkpt lat="46.18429" lon="2.51088">
        <ele>389.2</ele>
        <time>2026-08-06T11:35:57.000Z</time>
      </trkpt>
      <trkpt lat="46.18427" lon="2.51086">
        <ele>389.3</ele>
        <time>2026-08-06T11:35:58.000Z</time>
      </trkpt>
      <trkpt lat="46.18426" lon="2.51083">
        <ele>389.5</ele>
        <time>2026-08-06T11:35:59.000Z</time>
      </trkpt>
      <trkpt lat="46.18425" lon="2.51074">
        <ele>390.5</ele>
        <time>2026-08-06T11:36:02.000Z</time>
      </trkpt>
      <trkpt lat="46.18424" lon="2.51069">
        <ele>390.8</ele>
        <time>2026-08-06T11:36:04.000Z</time>
      </trkpt>
      <trkpt lat="46.18422" lon="2.51052">
        <ele>392.2</ele>
        <time>2026-08-06T11:36:11.000Z</time>
      </trkpt>
      <trkpt lat="46.18426" lon="2.51033">
        <ele>394.9</ele>
        <time>2026-08-06T11:36:19.000Z</time>
      </trkpt>
      <trkpt lat="46.18426" lon="2.5103">
        <ele>395.4</ele>
        <time>2026-08-06T11:36:20.000Z</time>
      </trkpt>
      <trkpt lat="46.18428" lon="2.51018">
        <ele>396.7</ele>
        <time>2026-08-06T11:36:25.000Z</time>
      </trkpt>
      <trkpt lat="46.18428" lon="2.5101">
        <ele>396.8</ele>
        <time>2026-08-06T11:36:28.000Z</time>
      </trkpt>
      <trkpt lat="46.18429" lon="2.51005">
        <ele>397.1</ele>
        <time>2026-08-06T11:36:30.000Z</time>
      </trkpt>
      <trkpt lat="46.18428" lon="2.51003">
        <ele>396.8</ele>
        <time>2026-08-06T11:36:31.000Z</time>
      </trkpt>
      <trkpt lat="46.18429" lon="2.50993">
        <ele>397</ele>
        <time>2026-08-06T11:36:35.000Z</time>
      </trkpt>
      <trkpt lat="46.18429" lon="2.50988">
        <ele>397</ele>
        <time>2026-08-06T11:36:37.000Z</time>
      </trkpt>
      <trkpt lat="46.18431" lon="2.50975">
        <ele>397.7</ele>
        <time>2026-08-06T11:36:43.000Z</time>
      </trkpt>
      <trkpt lat="46.18435" lon="2.50957">
        <ele>398.7</ele>
        <time>2026-08-06T11:36:51.000Z</time>
      </trkpt>
      <trkpt lat="46.18435" lon="2.50954">
        <ele>398.7</ele>
        <time>2026-08-06T11:36:52.000Z</time>
      </trkpt>
      <trkpt lat="46.18435" lon="2.50948">
        <ele>398.4</ele>
        <time>2026-08-06T11:36:55.000Z</time>
      </trkpt>
      <trkpt lat="46.18435" lon="2.50941">
        <ele>398.3</ele>
        <time>2026-08-06T11:36:58.000Z</time>
      </trkpt>
      <trkpt lat="46.18435" lon="2.50939">
        <ele>398.1</ele>
        <time>2026-08-06T11:36:59.000Z</time>
      </trkpt>
      <trkpt lat="46.18436" lon="2.50936">
        <ele>398.3</ele>
        <time>2026-08-06T11:37:01.000Z</time>
      </trkpt>
      <trkpt lat="46.18437" lon="2.50931">
        <ele>398.2</ele>
        <time>2026-08-06T11:37:03.000Z</time>
      </trkpt>
      <trkpt lat="46.18436" lon="2.50928">
        <ele>398</ele>
        <time>2026-08-06T11:37:04.000Z</time>
      </trkpt>
      <trkpt lat="46.18438" lon="2.50913">
        <ele>397.8</ele>
        <time>2026-08-06T11:37:09.000Z</time>
      </trkpt>
      <trkpt lat="46.18438" lon="2.50911">
        <ele>397.8</ele>
        <time>2026-08-06T11:37:11.000Z</time>
      </trkpt>
      <trkpt lat="46.18438" lon="2.50909">
        <ele>397.8</ele>
        <time>2026-08-06T11:37:12.000Z</time>
      </trkpt>
      <trkpt lat="46.18438" lon="2.50907">
        <ele>397.8</ele>
        <time>2026-08-06T11:37:14.000Z</time>
      </trkpt>
      <trkpt lat="46.18437" lon="2.50905">
        <ele>397.7</ele>
        <time>2026-08-06T11:37:15.000Z</time>
      </trkpt>
      <trkpt lat="46.18436" lon="2.50893">
        <ele>397.7</ele>
        <time>2026-08-06T11:37:19.000Z</time>
      </trkpt>
      <trkpt lat="46.18433" lon="2.50881">
        <ele>398.6</ele>
        <time>2026-08-06T11:37:23.000Z</time>
      </trkpt>
      <trkpt lat="46.18433" lon="2.50879">
        <ele>399</ele>
        <time>2026-08-06T11:37:24.000Z</time>
      </trkpt>
      <trkpt lat="46.18425" lon="2.50865">
        <ele>401.2</ele>
        <time>2026-08-06T11:37:31.000Z</time>
      </trkpt>
      <trkpt lat="46.18422" lon="2.50861">
        <ele>401.9</ele>
        <time>2026-08-06T11:37:34.000Z</time>
      </trkpt>
      <trkpt lat="46.18421" lon="2.5086">
        <ele>402.1</ele>
        <time>2026-08-06T11:37:35.000Z</time>
      </trkpt>
      <trkpt lat="46.18416" lon="2.5086">
        <ele>402.4</ele>
        <time>2026-08-06T11:37:38.000Z</time>
      </trkpt>
      <trkpt lat="46.18409" lon="2.50865">
        <ele>403.8</ele>
        <time>2026-08-06T11:37:44.000Z</time>
      </trkpt>
      <trkpt lat="46.18408" lon="2.50866">
        <ele>404</ele>
        <time>2026-08-06T11:37:45.000Z</time>
      </trkpt>
      <trkpt lat="46.18402" lon="2.50877">
        <ele>403.8</ele>
        <time>2026-08-06T11:37:52.000Z</time>
      </trkpt>
      <trkpt lat="46.18401" lon="2.50881">
        <ele>403.5</ele>
        <time>2026-08-06T11:37:54.000Z</time>
      </trkpt>
      <trkpt lat="46.18396" lon="2.50892">
        <ele>403</ele>
        <time>2026-08-06T11:37:59.000Z</time>
      </trkpt>
      <trkpt lat="46.18395" lon="2.50894">
        <ele>403</ele>
        <time>2026-08-06T11:38:02.000Z</time>
      </trkpt>
      <trkpt lat="46.18394" lon="2.50895">
        <ele>403.2</ele>
        <time>2026-08-06T11:38:04.000Z</time>
      </trkpt>
      <trkpt lat="46.18392" lon="2.50897">
        <ele>403.3</ele>
        <time>2026-08-06T11:38:05.000Z</time>
      </trkpt>
      <trkpt lat="46.18391" lon="2.50899">
        <ele>403.2</ele>
        <time>2026-08-06T11:38:06.000Z</time>
      </trkpt>
      <trkpt lat="46.18388" lon="2.50902">
        <ele>403.4</ele>
        <time>2026-08-06T11:38:10.000Z</time>
      </trkpt>
      <trkpt lat="46.18381" lon="2.50905">
        <ele>404.8</ele>
        <time>2026-08-06T11:38:13.000Z</time>
      </trkpt>
      <trkpt lat="46.18379" lon="2.50906">
        <ele>404.9</ele>
        <time>2026-08-06T11:38:14.000Z</time>
      </trkpt>
      <trkpt lat="46.18372" lon="2.50914">
        <ele>404.9</ele>
        <time>2026-08-06T11:38:17.000Z</time>
      </trkpt>
      <trkpt lat="46.18366" lon="2.50918">
        <ele>405.5</ele>
        <time>2026-08-06T11:38:20.000Z</time>
      </trkpt>
      <trkpt lat="46.18359" lon="2.50923">
        <ele>405</ele>
        <time>2026-08-06T11:38:23.000Z</time>
      </trkpt>
      <trkpt lat="46.18357" lon="2.50924">
        <ele>404.6</ele>
        <time>2026-08-06T11:38:24.000Z</time>
      </trkpt>
      <trkpt lat="46.18355" lon="2.50924">
        <ele>404.4</ele>
        <time>2026-08-06T11:38:25.000Z</time>
      </trkpt>
      <trkpt lat="46.1834" lon="2.50923">
        <ele>403.6</ele>
        <time>2026-08-06T11:38:32.000Z</time>
      </trkpt>
      <trkpt lat="46.18334" lon="2.50918">
        <ele>404.8</ele>
        <time>2026-08-06T11:38:37.000Z</time>
      </trkpt>
      <trkpt lat="46.18329" lon="2.50914">
        <ele>404.8</ele>
        <time>2026-08-06T11:38:40.000Z</time>
      </trkpt>
      <trkpt lat="46.1832" lon="2.50906">
        <ele>404.6</ele>
        <time>2026-08-06T11:38:46.000Z</time>
      </trkpt>
      <trkpt lat="46.18317" lon="2.50899">
        <ele>405.4</ele>
        <time>2026-08-06T11:38:49.000Z</time>
      </trkpt>
      <trkpt lat="46.18315" lon="2.50895">
        <ele>406</ele>
        <time>2026-08-06T11:38:51.000Z</time>
      </trkpt>
      <trkpt lat="46.18314" lon="2.50894">
        <ele>405.9</ele>
        <time>2026-08-06T11:38:52.000Z</time>
      </trkpt>
      <trkpt lat="46.18308" lon="2.50888">
        <ele>405.8</ele>
        <time>2026-08-06T11:38:57.000Z</time>
      </trkpt>
      <trkpt lat="46.18306" lon="2.50883">
        <ele>406.4</ele>
        <time>2026-08-06T11:38:59.000Z</time>
      </trkpt>
      <trkpt lat="46.18306" lon="2.50882">
        <ele>406.6</ele>
        <time>2026-08-06T11:39:00.000Z</time>
      </trkpt>
      <trkpt lat="46.18305" lon="2.5088">
        <ele>406.9</ele>
        <time>2026-08-06T11:39:01.000Z</time>
      </trkpt>
      <trkpt lat="46.18302" lon="2.50873">
        <ele>407.6</ele>
        <time>2026-08-06T11:39:05.000Z</time>
      </trkpt>
      <trkpt lat="46.18297" lon="2.50862">
        <ele>408.8</ele>
        <time>2026-08-06T11:39:10.000Z</time>
      </trkpt>
      <trkpt lat="46.18296" lon="2.50857">
        <ele>409.2</ele>
        <time>2026-08-06T11:39:12.000Z</time>
      </trkpt>
      <trkpt lat="46.18287" lon="2.50837">
        <ele>410.9</ele>
        <time>2026-08-06T11:39:21.000Z</time>
      </trkpt>
      <trkpt lat="46.18286" lon="2.50835">
        <ele>411.3</ele>
        <time>2026-08-06T11:39:22.000Z</time>
      </trkpt>
      <trkpt lat="46.18285" lon="2.50823">
        <ele>412.4</ele>
        <time>2026-08-06T11:39:27.000Z</time>
      </trkpt>
      <trkpt lat="46.18285" lon="2.50821">
        <ele>412.7</ele>
        <time>2026-08-06T11:39:28.000Z</time>
      </trkpt>
      <trkpt lat="46.18284" lon="2.50819">
        <ele>412.8</ele>
        <time>2026-08-06T11:39:29.000Z</time>
      </trkpt>
      <trkpt lat="46.18284" lon="2.50811">
        <ele>413.8</ele>
        <time>2026-08-06T11:39:33.000Z</time>
      </trkpt>
      <trkpt lat="46.18285" lon="2.50806">
        <ele>414.5</ele>
        <time>2026-08-06T11:39:35.000Z</time>
      </trkpt>
      <trkpt lat="46.18286" lon="2.50792">
        <ele>415.2</ele>
        <time>2026-08-06T11:39:41.000Z</time>
      </trkpt>
      <trkpt lat="46.18286" lon="2.50779">
        <ele>415.9</ele>
        <time>2026-08-06T11:39:46.000Z</time>
      </trkpt>
      <trkpt lat="46.18285" lon="2.50774">
        <ele>416.1</ele>
        <time>2026-08-06T11:39:48.000Z</time>
      </trkpt>
      <trkpt lat="46.18279" lon="2.50763">
        <ele>416.2</ele>
        <time>2026-08-06T11:39:54.000Z</time>
      </trkpt>
      <trkpt lat="46.18274" lon="2.5076">
        <ele>416.5</ele>
        <time>2026-08-06T11:39:57.000Z</time>
      </trkpt>
      <trkpt lat="46.18269" lon="2.50757">
        <ele>417</ele>
        <time>2026-08-06T11:40:00.000Z</time>
      </trkpt>
      <trkpt lat="46.18266" lon="2.50756">
        <ele>417.3</ele>
        <time>2026-08-06T11:40:02.000Z</time>
      </trkpt>
      <trkpt lat="46.18259" lon="2.50756">
        <ele>417.8</ele>
        <time>2026-08-06T11:40:06.000Z</time>
      </trkpt>
      <trkpt lat="46.18249" lon="2.50758">
        <ele>418.2</ele>
        <time>2026-08-06T11:40:12.000Z</time>
      </trkpt>
      <trkpt lat="46.18247" lon="2.50759">
        <ele>418.1</ele>
        <time>2026-08-06T11:40:13.000Z</time>
      </trkpt>
      <trkpt lat="46.18238" lon="2.50759">
        <ele>418.5</ele>
        <time>2026-08-06T11:40:19.000Z</time>
      </trkpt>
      <trkpt lat="46.18233" lon="2.50757">
        <ele>418.8</ele>
        <time>2026-08-06T11:40:22.000Z</time>
      </trkpt>
      <trkpt lat="46.18226" lon="2.50756">
        <ele>419.3</ele>
        <time>2026-08-06T11:40:26.000Z</time>
      </trkpt>
      <trkpt lat="46.18213" lon="2.50756">
        <ele>419.8</ele>
        <time>2026-08-06T11:40:34.000Z</time>
      </trkpt>
      <trkpt lat="46.18207" lon="2.50752">
        <ele>420.3</ele>
        <time>2026-08-06T11:40:38.000Z</time>
      </trkpt>
      <trkpt lat="46.18204" lon="2.50751">
        <ele>420.6</ele>
        <time>2026-08-06T11:40:40.000Z</time>
      </trkpt>
      <trkpt lat="46.18199" lon="2.5075">
        <ele>420.8</ele>
        <time>2026-08-06T11:40:43.000Z</time>
      </trkpt>
      <trkpt lat="46.18195" lon="2.5075">
        <ele>421</ele>
        <time>2026-08-06T11:40:46.000Z</time>
      </trkpt>
      <trkpt lat="46.18189" lon="2.50748">
        <ele>421.6</ele>
        <time>2026-08-06T11:40:50.000Z</time>
      </trkpt>
      <trkpt lat="46.18183" lon="2.50747">
        <ele>421.7</ele>
        <time>2026-08-06T11:40:53.000Z</time>
      </trkpt>
      <trkpt lat="46.18175" lon="2.50744">
        <ele>422.6</ele>
        <time>2026-08-06T11:41:00.000Z</time>
      </trkpt>
      <trkpt lat="46.1817" lon="2.50742">
        <ele>423</ele>
        <time>2026-08-06T11:41:03.000Z</time>
      </trkpt>
      <trkpt lat="46.18161" lon="2.5074">
        <ele>423.5</ele>
        <time>2026-08-06T11:41:08.000Z</time>
      </trkpt>
      <trkpt lat="46.18152" lon="2.50737">
        <ele>424.3</ele>
        <time>2026-08-06T11:41:14.000Z</time>
      </trkpt>
      <trkpt lat="46.18151" lon="2.50737">
        <ele>424.3</ele>
        <time>2026-08-06T11:41:15.000Z</time>
      </trkpt>
      <trkpt lat="46.1815" lon="2.50737">
        <ele>424.3</ele>
        <time>2026-08-06T11:41:16.000Z</time>
      </trkpt>
      <trkpt lat="46.18145" lon="2.50735">
        <ele>424.7</ele>
        <time>2026-08-06T11:41:19.000Z</time>
      </trkpt>
      <trkpt lat="46.18143" lon="2.50735">
        <ele>424.8</ele>
        <time>2026-08-06T11:41:20.000Z</time>
      </trkpt>
      <trkpt lat="46.18131" lon="2.50729">
        <ele>425.7</ele>
        <time>2026-08-06T11:41:27.000Z</time>
      </trkpt>
      <trkpt lat="46.1813" lon="2.50728">
        <ele>425.7</ele>
        <time>2026-08-06T11:41:28.000Z</time>
      </trkpt>
      <trkpt lat="46.18118" lon="2.50727">
        <ele>425.6</ele>
        <time>2026-08-06T11:41:35.000Z</time>
      </trkpt>
      <trkpt lat="46.18114" lon="2.50727">
        <ele>425.5</ele>
        <time>2026-08-06T11:41:37.000Z</time>
      </trkpt>
      <trkpt lat="46.18098" lon="2.50733">
        <ele>425.7</ele>
        <time>2026-08-06T11:41:45.000Z</time>
      </trkpt>
      <trkpt lat="46.18093" lon="2.50737">
        <ele>425.8</ele>
        <time>2026-08-06T11:41:48.000Z</time>
      </trkpt>
      <trkpt lat="46.18088" lon="2.50741">
        <ele>425.9</ele>
        <time>2026-08-06T11:41:51.000Z</time>
      </trkpt>
      <trkpt lat="46.18082" lon="2.50748">
        <ele>426.3</ele>
        <time>2026-08-06T11:41:55.000Z</time>
      </trkpt>
      <trkpt lat="46.18078" lon="2.50751">
        <ele>426.7</ele>
        <time>2026-08-06T11:41:57.000Z</time>
      </trkpt>
      <trkpt lat="46.18072" lon="2.50762">
        <ele>426.7</ele>
        <time>2026-08-06T11:42:02.000Z</time>
      </trkpt>
      <trkpt lat="46.18068" lon="2.50773">
        <ele>426.6</ele>
        <time>2026-08-06T11:42:06.000Z</time>
      </trkpt>
      <trkpt lat="46.18056" lon="2.50795">
        <ele>428</ele>
        <time>2026-08-06T11:42:16.000Z</time>
      </trkpt>
      <trkpt lat="46.18053" lon="2.50799">
        <ele>428.3</ele>
        <time>2026-08-06T11:42:18.000Z</time>
      </trkpt>
      <trkpt lat="46.18044" lon="2.5081">
        <ele>428.9</ele>
        <time>2026-08-06T11:42:25.000Z</time>
      </trkpt>
      <trkpt lat="46.18042" lon="2.50811">
        <ele>428.9</ele>
        <time>2026-08-06T11:42:26.000Z</time>
      </trkpt>
      <trkpt lat="46.18033" lon="2.50818">
        <ele>429.4</ele>
        <time>2026-08-06T11:42:32.000Z</time>
      </trkpt>
      <trkpt lat="46.18027" lon="2.50822">
        <ele>429.9</ele>
        <time>2026-08-06T11:42:37.000Z</time>
      </trkpt>
      <trkpt lat="46.1802" lon="2.50824">
        <ele>430.2</ele>
        <time>2026-08-06T11:42:41.000Z</time>
      </trkpt>
      <trkpt lat="46.18009" lon="2.50825">
        <ele>431</ele>
        <time>2026-08-06T11:42:47.000Z</time>
      </trkpt>
      <trkpt lat="46.18007" lon="2.50825">
        <ele>431.1</ele>
        <time>2026-08-06T11:42:48.000Z</time>
      </trkpt>
      <trkpt lat="46.18005" lon="2.50824">
        <ele>431.3</ele>
        <time>2026-08-06T11:42:49.000Z</time>
      </trkpt>
      <trkpt lat="46.17988" lon="2.5082">
        <ele>432.2</ele>
        <time>2026-08-06T11:42:59.000Z</time>
      </trkpt>
      <trkpt lat="46.17971" lon="2.50817">
        <ele>432.7</ele>
        <time>2026-08-06T11:43:09.000Z</time>
      </trkpt>
      <trkpt lat="46.17958" lon="2.50814">
        <ele>433.6</ele>
        <time>2026-08-06T11:43:17.000Z</time>
      </trkpt>
      <trkpt lat="46.17956" lon="2.50813">
        <ele>433.8</ele>
        <time>2026-08-06T11:43:18.000Z</time>
      </trkpt>
      <trkpt lat="46.1794" lon="2.50807">
        <ele>435.1</ele>
        <time>2026-08-06T11:43:28.000Z</time>
      </trkpt>
      <trkpt lat="46.17938" lon="2.50806">
        <ele>435.2</ele>
        <time>2026-08-06T11:43:29.000Z</time>
      </trkpt>
      <trkpt lat="46.17925" lon="2.50798">
        <ele>435.7</ele>
        <time>2026-08-06T11:43:37.000Z</time>
      </trkpt>
      <trkpt lat="46.17916" lon="2.50791">
        <ele>436.1</ele>
        <time>2026-08-06T11:43:43.000Z</time>
      </trkpt>
      <trkpt lat="46.1791" lon="2.50787">
        <ele>436.5</ele>
        <time>2026-08-06T11:43:47.000Z</time>
      </trkpt>
      <trkpt lat="46.17899" lon="2.50774">
        <ele>437.4</ele>
        <time>2026-08-06T11:43:55.000Z</time>
      </trkpt>
      <trkpt lat="46.17896" lon="2.5077">
        <ele>437.6</ele>
        <time>2026-08-06T11:43:57.000Z</time>
      </trkpt>
      <trkpt lat="46.17885" lon="2.50751">
        <ele>438.4</ele>
        <time>2026-08-06T11:44:07.000Z</time>
      </trkpt>
      <trkpt lat="46.17884" lon="2.50749">
        <ele>438.6</ele>
        <time>2026-08-06T11:44:08.000Z</time>
      </trkpt>
      <trkpt lat="46.17881" lon="2.5074">
        <ele>439.2</ele>
        <time>2026-08-06T11:44:12.000Z</time>
      </trkpt>
      <trkpt lat="46.17877" lon="2.50729">
        <ele>439.7</ele>
        <time>2026-08-06T11:44:17.000Z</time>
      </trkpt>
      <trkpt lat="46.17875" lon="2.50722">
        <ele>440</ele>
        <time>2026-08-06T11:44:20.000Z</time>
      </trkpt>
      <trkpt lat="46.17869" lon="2.50703">
        <ele>440.8</ele>
        <time>2026-08-06T11:44:29.000Z</time>
      </trkpt>
      <trkpt lat="46.17864" lon="2.50687">
        <ele>441.3</ele>
        <time>2026-08-06T11:44:37.000Z</time>
      </trkpt>
      <trkpt lat="46.17858" lon="2.50667">
        <ele>442.2</ele>
        <time>2026-08-06T11:44:46.000Z</time>
      </trkpt>
      <trkpt lat="46.17857" lon="2.50665">
        <ele>442.3</ele>
        <time>2026-08-06T11:44:47.000Z</time>
      </trkpt>
      <trkpt lat="46.1785" lon="2.50645">
        <ele>443.3</ele>
        <time>2026-08-06T11:44:56.000Z</time>
      </trkpt>
      <trkpt lat="46.17847" lon="2.50636">
        <ele>443.6</ele>
        <time>2026-08-06T11:45:00.000Z</time>
      </trkpt>
      <trkpt lat="46.17842" lon="2.50623">
        <ele>443.9</ele>
        <time>2026-08-06T11:45:06.000Z</time>
      </trkpt>
      <trkpt lat="46.1784" lon="2.50607">
        <ele>444</ele>
        <time>2026-08-06T11:45:13.000Z</time>
      </trkpt>
      <trkpt lat="46.17839" lon="2.50605">
        <ele>444</ele>
        <time>2026-08-06T11:45:16.000Z</time>
      </trkpt>
      <trkpt lat="46.17839" lon="2.50605">
        <ele>444</ele>
        <time>2026-08-06T11:45:17.000Z</time>
      </trkpt>
      <trkpt lat="46.17836" lon="2.50598">
        <ele>444</ele>
        <time>2026-08-06T11:47:25.000Z</time>
      </trkpt>
      <trkpt lat="46.17833" lon="2.50591">
        <ele>444</ele>
        <time>2026-08-06T11:47:28.000Z</time>
      </trkpt>
      <trkpt lat="46.17825" lon="2.50566">
        <ele>444.1</ele>
        <time>2026-08-06T11:47:36.000Z</time>
      </trkpt>
      <trkpt lat="46.17818" lon="2.5054">
        <ele>444</ele>
        <time>2026-08-06T11:47:44.000Z</time>
      </trkpt>
      <trkpt lat="46.17811" lon="2.50522">
        <ele>444</ele>
        <time>2026-08-06T11:47:50.000Z</time>
      </trkpt>
      <trkpt lat="46.17805" lon="2.50498">
        <ele>444</ele>
        <time>2026-08-06T11:47:58.000Z</time>
      </trkpt>
      <trkpt lat="46.17796" lon="2.50454">
        <ele>443.8</ele>
        <time>2026-08-06T11:48:10.000Z</time>
      </trkpt>
      <trkpt lat="46.1779" lon="2.5042">
        <ele>442.6</ele>
        <time>2026-08-06T11:48:17.000Z</time>
      </trkpt>
      <trkpt lat="46.17789" lon="2.50408">
        <ele>442.3</ele>
        <time>2026-08-06T11:48:19.000Z</time>
      </trkpt>
      <trkpt lat="46.17787" lon="2.50401">
        <ele>442.1</ele>
        <time>2026-08-06T11:48:20.000Z</time>
      </trkpt>
      <trkpt lat="46.17785" lon="2.5039">
        <ele>442</ele>
        <time>2026-08-06T11:48:22.000Z</time>
      </trkpt>
      <trkpt lat="46.17781" lon="2.50364">
        <ele>441.2</ele>
        <time>2026-08-06T11:48:26.000Z</time>
      </trkpt>
      <trkpt lat="46.17776" lon="2.50331">
        <ele>440.9</ele>
        <time>2026-08-06T11:48:31.000Z</time>
      </trkpt>
      <trkpt lat="46.17767" lon="2.50277">
        <ele>439.6</ele>
        <time>2026-08-06T11:48:39.000Z</time>
      </trkpt>
      <trkpt lat="46.17765" lon="2.50264">
        <ele>439.5</ele>
        <time>2026-08-06T11:48:41.000Z</time>
      </trkpt>
      <trkpt lat="46.17764" lon="2.50251">
        <ele>439.5</ele>
        <time>2026-08-06T11:48:43.000Z</time>
      </trkpt>
      <trkpt lat="46.17762" lon="2.50224">
        <ele>439.4</ele>
        <time>2026-08-06T11:48:47.000Z</time>
      </trkpt>
      <trkpt lat="46.17762" lon="2.50217">
        <ele>439.3</ele>
        <time>2026-08-06T11:48:48.000Z</time>
      </trkpt>
      <trkpt lat="46.17761" lon="2.50189">
        <ele>438.9</ele>
        <time>2026-08-06T11:48:52.000Z</time>
      </trkpt>
      <trkpt lat="46.1776" lon="2.50173">
        <ele>438.5</ele>
        <time>2026-08-06T11:48:54.000Z</time>
      </trkpt>
      <trkpt lat="46.1776" lon="2.50168">
        <ele>438.4</ele>
        <time>2026-08-06T11:48:55.000Z</time>
      </trkpt>
      <trkpt lat="46.17758" lon="2.50116">
        <ele>436.4</ele>
        <time>2026-08-06T11:49:01.000Z</time>
      </trkpt>
      <trkpt lat="46.17757" lon="2.50104">
        <ele>435.8</ele>
        <time>2026-08-06T11:49:02.000Z</time>
      </trkpt>
      <trkpt lat="46.17757" lon="2.50075">
        <ele>434.1</ele>
        <time>2026-08-06T11:49:05.000Z</time>
      </trkpt>
      <trkpt lat="46.17756" lon="2.50057">
        <ele>433.3</ele>
        <time>2026-08-06T11:49:07.000Z</time>
      </trkpt>
      <trkpt lat="46.17752" lon="2.50038">
        <ele>432.4</ele>
        <time>2026-08-06T11:49:09.000Z</time>
      </trkpt>
      <trkpt lat="46.17748" lon="2.50018">
        <ele>431.3</ele>
        <time>2026-08-06T11:49:11.000Z</time>
      </trkpt>
      <trkpt lat="46.17745" lon="2.50006">
        <ele>430.4</ele>
        <time>2026-08-06T11:49:12.000Z</time>
      </trkpt>
      <trkpt lat="46.17742" lon="2.49998">
        <ele>429.9</ele>
        <time>2026-08-06T11:49:13.000Z</time>
      </trkpt>
      <trkpt lat="46.17724" lon="2.49961">
        <ele>428.2</ele>
        <time>2026-08-06T11:49:17.000Z</time>
      </trkpt>
      <trkpt lat="46.1772" lon="2.49955">
        <ele>427.7</ele>
        <time>2026-08-06T11:49:18.000Z</time>
      </trkpt>
      <trkpt lat="46.17709" lon="2.4994">
        <ele>426.7</ele>
        <time>2026-08-06T11:49:20.000Z</time>
      </trkpt>
      <trkpt lat="46.17699" lon="2.49929">
        <ele>425.9</ele>
        <time>2026-08-06T11:49:22.000Z</time>
      </trkpt>
      <trkpt lat="46.17691" lon="2.49922">
        <ele>425.3</ele>
        <time>2026-08-06T11:49:23.000Z</time>
      </trkpt>
      <trkpt lat="46.17685" lon="2.49917">
        <ele>425</ele>
        <time>2026-08-06T11:49:24.000Z</time>
      </trkpt>
      <trkpt lat="46.17663" lon="2.49898">
        <ele>424.2</ele>
        <time>2026-08-06T11:49:27.000Z</time>
      </trkpt>
      <trkpt lat="46.17649" lon="2.49887">
        <ele>423.9</ele>
        <time>2026-08-06T11:49:29.000Z</time>
      </trkpt>
      <trkpt lat="46.17642" lon="2.49881">
        <ele>423.7</ele>
        <time>2026-08-06T11:49:30.000Z</time>
      </trkpt>
      <trkpt lat="46.17624" lon="2.49862">
        <ele>423.5</ele>
        <time>2026-08-06T11:49:33.000Z</time>
      </trkpt>
      <trkpt lat="46.17612" lon="2.49847">
        <ele>423.5</ele>
        <time>2026-08-06T11:49:35.000Z</time>
      </trkpt>
      <trkpt lat="46.17608" lon="2.49841">
        <ele>423.3</ele>
        <time>2026-08-06T11:49:36.000Z</time>
      </trkpt>
      <trkpt lat="46.17599" lon="2.49826">
        <ele>423.4</ele>
        <time>2026-08-06T11:49:38.000Z</time>
      </trkpt>
      <trkpt lat="46.17585" lon="2.49802">
        <ele>423.9</ele>
        <time>2026-08-06T11:49:41.000Z</time>
      </trkpt>
      <trkpt lat="46.17565" lon="2.49768">
        <ele>423.4</ele>
        <time>2026-08-06T11:49:46.000Z</time>
      </trkpt>
      <trkpt lat="46.17561" lon="2.49762">
        <ele>423.2</ele>
        <time>2026-08-06T11:49:47.000Z</time>
      </trkpt>
      <trkpt lat="46.17556" lon="2.49756">
        <ele>423</ele>
        <time>2026-08-06T11:49:48.000Z</time>
      </trkpt>
      <trkpt lat="46.17519" lon="2.49724">
        <ele>421</ele>
        <time>2026-08-06T11:49:54.000Z</time>
      </trkpt>
      <trkpt lat="46.175" lon="2.4971">
        <ele>420.3</ele>
        <time>2026-08-06T11:49:57.000Z</time>
      </trkpt>
      <trkpt lat="46.17493" lon="2.49706">
        <ele>420</ele>
        <time>2026-08-06T11:49:58.000Z</time>
      </trkpt>
      <trkpt lat="46.17465" lon="2.49687">
        <ele>418.1</ele>
        <time>2026-08-06T11:50:02.000Z</time>
      </trkpt>
      <trkpt lat="46.1745" lon="2.49676">
        <ele>416.7</ele>
        <time>2026-08-06T11:50:04.000Z</time>
      </trkpt>
      <trkpt lat="46.17435" lon="2.49666">
        <ele>415.7</ele>
        <time>2026-08-06T11:50:06.000Z</time>
      </trkpt>
      <trkpt lat="46.17405" lon="2.49644">
        <ele>413.6</ele>
        <time>2026-08-06T11:50:10.000Z</time>
      </trkpt>
      <trkpt lat="46.1739" lon="2.49634">
        <ele>412.7</ele>
        <time>2026-08-06T11:50:12.000Z</time>
      </trkpt>
      <trkpt lat="46.17376" lon="2.49622">
        <ele>412.7</ele>
        <time>2026-08-06T11:50:14.000Z</time>
      </trkpt>
      <trkpt lat="46.1737" lon="2.49614">
        <ele>412.6</ele>
        <time>2026-08-06T11:50:15.000Z</time>
      </trkpt>
      <trkpt lat="46.17364" lon="2.49604">
        <ele>412.6</ele>
        <time>2026-08-06T11:50:16.000Z</time>
      </trkpt>
      <trkpt lat="46.17359" lon="2.49586">
        <ele>412</ele>
        <time>2026-08-06T11:50:18.000Z</time>
      </trkpt>
      <trkpt lat="46.17357" lon="2.49576">
        <ele>411.8</ele>
        <time>2026-08-06T11:50:19.000Z</time>
      </trkpt>
      <trkpt lat="46.17354" lon="2.4954">
        <ele>411.9</ele>
        <time>2026-08-06T11:50:23.000Z</time>
      </trkpt>
      <trkpt lat="46.17354" lon="2.49534">
        <ele>411.8</ele>
        <time>2026-08-06T11:50:24.000Z</time>
      </trkpt>
      <trkpt lat="46.17354" lon="2.4952">
        <ele>412.2</ele>
        <time>2026-08-06T11:50:26.000Z</time>
      </trkpt>
      <trkpt lat="46.17354" lon="2.49507">
        <ele>413.1</ele>
        <time>2026-08-06T11:50:29.000Z</time>
      </trkpt>
      <trkpt lat="46.17355" lon="2.49498">
        <ele>413.7</ele>
        <time>2026-08-06T11:50:33.000Z</time>
      </trkpt>
      <trkpt lat="46.17355" lon="2.49489">
        <ele>414.4</ele>
        <time>2026-08-06T11:50:38.000Z</time>
      </trkpt>
      <trkpt lat="46.17354" lon="2.49488">
        <ele>414.4</ele>
        <time>2026-08-06T11:50:39.000Z</time>
      </trkpt>
      <trkpt lat="46.17354" lon="2.49487">
        <ele>414.4</ele>
        <time>2026-08-06T11:50:40.000Z</time>
      </trkpt>
      <trkpt lat="46.17352" lon="2.49486">
        <ele>414.4</ele>
        <time>2026-08-06T11:50:42.000Z</time>
      </trkpt>
      <trkpt lat="46.17352" lon="2.49485">
        <ele>414.5</ele>
        <time>2026-08-06T11:50:43.000Z</time>
      </trkpt>
      <trkpt lat="46.17353" lon="2.49482">
        <ele>414.7</ele>
        <time>2026-08-06T11:50:45.000Z</time>
      </trkpt>
      <trkpt lat="46.17354" lon="2.49476">
        <ele>415.2</ele>
        <time>2026-08-06T11:50:49.000Z</time>
      </trkpt>
      <trkpt lat="46.17356" lon="2.49469">
        <ele>416</ele>
        <time>2026-08-06T11:50:54.000Z</time>
      </trkpt>
      <trkpt lat="46.17356" lon="2.49466">
        <ele>416.2</ele>
        <time>2026-08-06T11:50:56.000Z</time>
      </trkpt>
      <trkpt lat="46.17355" lon="2.49463">
        <ele>416.5</ele>
        <time>2026-08-06T11:50:58.000Z</time>
      </trkpt>
      <trkpt lat="46.17356" lon="2.49459">
        <ele>417</ele>
        <time>2026-08-06T11:51:00.000Z</time>
      </trkpt>
      <trkpt lat="46.17357" lon="2.49455">
        <ele>417.5</ele>
        <time>2026-08-06T11:51:02.000Z</time>
      </trkpt>
      <trkpt lat="46.17361" lon="2.49441">
        <ele>419.1</ele>
        <time>2026-08-06T11:51:11.000Z</time>
      </trkpt>
      <trkpt lat="46.17364" lon="2.49432">
        <ele>419.2</ele>
        <time>2026-08-06T11:51:16.000Z</time>
      </trkpt>
      <trkpt lat="46.17365" lon="2.49428">
        <ele>419.4</ele>
        <time>2026-08-06T11:51:18.000Z</time>
      </trkpt>
      <trkpt lat="46.1737" lon="2.49415">
        <ele>420.1</ele>
        <time>2026-08-06T11:51:25.000Z</time>
      </trkpt>
      <trkpt lat="46.1737" lon="2.49413">
        <ele>420.2</ele>
        <time>2026-08-06T11:51:26.000Z</time>
      </trkpt>
      <trkpt lat="46.17374" lon="2.49404">
        <ele>420.7</ele>
        <time>2026-08-06T11:51:31.000Z</time>
      </trkpt>
      <trkpt lat="46.17374" lon="2.494">
        <ele>420.9</ele>
        <time>2026-08-06T11:51:33.000Z</time>
      </trkpt>
      <trkpt lat="46.17379" lon="2.49384">
        <ele>421.9</ele>
        <time>2026-08-06T11:51:41.000Z</time>
      </trkpt>
      <trkpt lat="46.1738" lon="2.49383">
        <ele>422</ele>
        <time>2026-08-06T11:51:42.000Z</time>
      </trkpt>
      <trkpt lat="46.17382" lon="2.49371">
        <ele>422.5</ele>
        <time>2026-08-06T11:51:48.000Z</time>
      </trkpt>
      <trkpt lat="46.17387" lon="2.49357">
        <ele>423.1</ele>
        <time>2026-08-06T11:51:56.000Z</time>
      </trkpt>
      <trkpt lat="46.17393" lon="2.49341">
        <ele>423.7</ele>
        <time>2026-08-06T11:52:04.000Z</time>
      </trkpt>
      <trkpt lat="46.17394" lon="2.49339">
        <ele>423.8</ele>
        <time>2026-08-06T11:52:05.000Z</time>
      </trkpt>
      <trkpt lat="46.17396" lon="2.49324">
        <ele>424.6</ele>
        <time>2026-08-06T11:52:12.000Z</time>
      </trkpt>
      <trkpt lat="46.17398" lon="2.49318">
        <ele>424.9</ele>
        <time>2026-08-06T11:52:15.000Z</time>
      </trkpt>
      <trkpt lat="46.17405" lon="2.49298">
        <ele>426.1</ele>
        <time>2026-08-06T11:52:25.000Z</time>
      </trkpt>
      <trkpt lat="46.17407" lon="2.49291">
        <ele>426.5</ele>
        <time>2026-08-06T11:52:28.000Z</time>
      </trkpt>
      <trkpt lat="46.17411" lon="2.4928">
        <ele>427.3</ele>
        <time>2026-08-06T11:52:34.000Z</time>
      </trkpt>
      <trkpt lat="46.17412" lon="2.49277">
        <ele>427.4</ele>
        <time>2026-08-06T11:52:35.000Z</time>
      </trkpt>
      <trkpt lat="46.17415" lon="2.4926">
        <ele>428.4</ele>
        <time>2026-08-06T11:52:43.000Z</time>
      </trkpt>
      <trkpt lat="46.17416" lon="2.49254">
        <ele>428.8</ele>
        <time>2026-08-06T11:52:46.000Z</time>
      </trkpt>
      <trkpt lat="46.17416" lon="2.49249">
        <ele>429.2</ele>
        <time>2026-08-06T11:52:49.000Z</time>
      </trkpt>
      <trkpt lat="46.17417" lon="2.49245">
        <ele>429.3</ele>
        <time>2026-08-06T11:52:51.000Z</time>
      </trkpt>
      <trkpt lat="46.17418" lon="2.49243">
        <ele>429.5</ele>
        <time>2026-08-06T11:52:52.000Z</time>
      </trkpt>
      <trkpt lat="46.17418" lon="2.49239">
        <ele>429.8</ele>
        <time>2026-08-06T11:52:54.000Z</time>
      </trkpt>
      <trkpt lat="46.17419" lon="2.49237">
        <ele>429.9</ele>
        <time>2026-08-06T11:52:55.000Z</time>
      </trkpt>
      <trkpt lat="46.17419" lon="2.49236">
        <ele>429.9</ele>
        <time>2026-08-06T11:52:56.000Z</time>
      </trkpt>
      <trkpt lat="46.1742" lon="2.49234">
        <ele>430</ele>
        <time>2026-08-06T11:52:57.000Z</time>
      </trkpt>
      <trkpt lat="46.17421" lon="2.49225">
        <ele>430.7</ele>
        <time>2026-08-06T11:53:01.000Z</time>
      </trkpt>
      <trkpt lat="46.17421" lon="2.49217">
        <ele>431.3</ele>
        <time>2026-08-06T11:53:05.000Z</time>
      </trkpt>
      <trkpt lat="46.17421" lon="2.49208">
        <ele>431.9</ele>
        <time>2026-08-06T11:53:09.000Z</time>
      </trkpt>
      <trkpt lat="46.17422" lon="2.49203">
        <ele>432.4</ele>
        <time>2026-08-06T11:53:12.000Z</time>
      </trkpt>
      <trkpt lat="46.17424" lon="2.49199">
        <ele>432.7</ele>
        <time>2026-08-06T11:53:15.000Z</time>
      </trkpt>
      <trkpt lat="46.17424" lon="2.49193">
        <ele>433.1</ele>
        <time>2026-08-06T11:53:18.000Z</time>
      </trkpt>
      <trkpt lat="46.17424" lon="2.49183">
        <ele>433.8</ele>
        <time>2026-08-06T11:53:23.000Z</time>
      </trkpt>
      <trkpt lat="46.17426" lon="2.49169">
        <ele>434.8</ele>
        <time>2026-08-06T11:53:30.000Z</time>
      </trkpt>
      <trkpt lat="46.17426" lon="2.49165">
        <ele>435.1</ele>
        <time>2026-08-06T11:53:32.000Z</time>
      </trkpt>
      <trkpt lat="46.17427" lon="2.49156">
        <ele>435.9</ele>
        <time>2026-08-06T11:53:37.000Z</time>
      </trkpt>
      <trkpt lat="46.17426" lon="2.49152">
        <ele>436.2</ele>
        <time>2026-08-06T11:53:39.000Z</time>
      </trkpt>
      <trkpt lat="46.17427" lon="2.49151">
        <ele>436.3</ele>
        <time>2026-08-06T11:53:40.000Z</time>
      </trkpt>
      <trkpt lat="46.17427" lon="2.49149">
        <ele>436.5</ele>
        <time>2026-08-06T11:53:41.000Z</time>
      </trkpt>
      <trkpt lat="46.17427" lon="2.49146">
        <ele>436.8</ele>
        <time>2026-08-06T11:53:43.000Z</time>
      </trkpt>
      <trkpt lat="46.17428" lon="2.49142">
        <ele>437.2</ele>
        <time>2026-08-06T11:53:45.000Z</time>
      </trkpt>
      <trkpt lat="46.17428" lon="2.49139">
        <ele>437.4</ele>
        <time>2026-08-06T11:53:46.000Z</time>
      </trkpt>
      <trkpt lat="46.17428" lon="2.49134">
        <ele>437.6</ele>
        <time>2026-08-06T11:53:49.000Z</time>
      </trkpt>
      <trkpt lat="46.17429" lon="2.49129">
        <ele>437.8</ele>
        <time>2026-08-06T11:53:51.000Z</time>
      </trkpt>
      <trkpt lat="46.17431" lon="2.49124">
        <ele>438.1</ele>
        <time>2026-08-06T11:53:55.000Z</time>
      </trkpt>
      <trkpt lat="46.17431" lon="2.49121">
        <ele>438.2</ele>
        <time>2026-08-06T11:53:57.000Z</time>
      </trkpt>
      <trkpt lat="46.17432" lon="2.4912">
        <ele>438.2</ele>
        <time>2026-08-06T11:53:58.000Z</time>
      </trkpt>
      <trkpt lat="46.1743" lon="2.49115">
        <ele>438.3</ele>
        <time>2026-08-06T11:54:01.000Z</time>
      </trkpt>
      <trkpt lat="46.1743" lon="2.49114">
        <ele>438.4</ele>
        <time>2026-08-06T11:54:02.000Z</time>
      </trkpt>
      <trkpt lat="46.17431" lon="2.4911">
        <ele>438.6</ele>
        <time>2026-08-06T11:54:05.000Z</time>
      </trkpt>
      <trkpt lat="46.17431" lon="2.49102">
        <ele>439</ele>
        <time>2026-08-06T11:54:09.000Z</time>
      </trkpt>
      <trkpt lat="46.1743" lon="2.49101">
        <ele>439.1</ele>
        <time>2026-08-06T11:54:10.000Z</time>
      </trkpt>
      <trkpt lat="46.1743" lon="2.49097">
        <ele>439.3</ele>
        <time>2026-08-06T11:54:12.000Z</time>
      </trkpt>
      <trkpt lat="46.17431" lon="2.49088">
        <ele>439.8</ele>
        <time>2026-08-06T11:54:16.000Z</time>
      </trkpt>
      <trkpt lat="46.17432" lon="2.49083">
        <ele>440</ele>
        <time>2026-08-06T11:54:18.000Z</time>
      </trkpt>
      <trkpt lat="46.17433" lon="2.49081">
        <ele>440.1</ele>
        <time>2026-08-06T11:54:19.000Z</time>
      </trkpt>
      <trkpt lat="46.17433" lon="2.49075">
        <ele>440.3</ele>
        <time>2026-08-06T11:54:22.000Z</time>
      </trkpt>
      <trkpt lat="46.17432" lon="2.49072">
        <ele>440.4</ele>
        <time>2026-08-06T11:54:24.000Z</time>
      </trkpt>
      <trkpt lat="46.17433" lon="2.4907">
        <ele>440.5</ele>
        <time>2026-08-06T11:54:25.000Z</time>
      </trkpt>
      <trkpt lat="46.17435" lon="2.49066">
        <ele>440.6</ele>
        <time>2026-08-06T11:54:27.000Z</time>
      </trkpt>
      <trkpt lat="46.17434" lon="2.49063">
        <ele>440.7</ele>
        <time>2026-08-06T11:54:29.000Z</time>
      </trkpt>
      <trkpt lat="46.17436" lon="2.49059">
        <ele>440.9</ele>
        <time>2026-08-06T11:54:31.000Z</time>
      </trkpt>
      <trkpt lat="46.17436" lon="2.49057">
        <ele>441</ele>
        <time>2026-08-06T11:54:32.000Z</time>
      </trkpt>
      <trkpt lat="46.17435" lon="2.49053">
        <ele>441.2</ele>
        <time>2026-08-06T11:54:34.000Z</time>
      </trkpt>
      <trkpt lat="46.17435" lon="2.49051">
        <ele>441.3</ele>
        <time>2026-08-06T11:54:35.000Z</time>
      </trkpt>
      <trkpt lat="46.17437" lon="2.49047">
        <ele>441.5</ele>
        <time>2026-08-06T11:54:37.000Z</time>
      </trkpt>
      <trkpt lat="46.17437" lon="2.49044">
        <ele>441.7</ele>
        <time>2026-08-06T11:54:39.000Z</time>
      </trkpt>
      <trkpt lat="46.17438" lon="2.4904">
        <ele>442</ele>
        <time>2026-08-06T11:54:41.000Z</time>
      </trkpt>
      <trkpt lat="46.17444" lon="2.49035">
        <ele>442.5</ele>
        <time>2026-08-06T11:54:45.000Z</time>
      </trkpt>
      <trkpt lat="46.17452" lon="2.4903">
        <ele>443.1</ele>
        <time>2026-08-06T11:54:50.000Z</time>
      </trkpt>
      <trkpt lat="46.17456" lon="2.49029">
        <ele>443.4</ele>
        <time>2026-08-06T11:54:53.000Z</time>
      </trkpt>
      <trkpt lat="46.17459" lon="2.49028">
        <ele>443.5</ele>
        <time>2026-08-06T11:54:55.000Z</time>
      </trkpt>
      <trkpt lat="46.17468" lon="2.49025">
        <ele>443.9</ele>
        <time>2026-08-06T11:55:01.000Z</time>
      </trkpt>
      <trkpt lat="46.1747" lon="2.49025">
        <ele>443.9</ele>
        <time>2026-08-06T11:55:02.000Z</time>
      </trkpt>
      <trkpt lat="46.17478" lon="2.49022">
        <ele>443.9</ele>
        <time>2026-08-06T11:55:10.000Z</time>
      </trkpt>
      <trkpt lat="46.17479" lon="2.49021">
        <ele>443.9</ele>
        <time>2026-08-06T11:55:11.000Z</time>
      </trkpt>
      <trkpt lat="46.17481" lon="2.4902">
        <ele>443.9</ele>
        <time>2026-08-06T11:55:15.000Z</time>
      </trkpt>
      <trkpt lat="46.17489" lon="2.49019">
        <ele>443.8</ele>
        <time>2026-08-06T11:56:04.000Z</time>
      </trkpt>
      <trkpt lat="46.175" lon="2.49014">
        <ele>444</ele>
        <time>2026-08-06T11:56:11.000Z</time>
      </trkpt>
      <trkpt lat="46.17502" lon="2.49013">
        <ele>443.9</ele>
        <time>2026-08-06T11:56:12.000Z</time>
      </trkpt>
      <trkpt lat="46.17514" lon="2.49005">
        <ele>443.5</ele>
        <time>2026-08-06T11:56:19.000Z</time>
      </trkpt>
      <trkpt lat="46.17526" lon="2.48987">
        <ele>444.1</ele>
        <time>2026-08-06T11:56:26.000Z</time>
      </trkpt>
      <trkpt lat="46.17536" lon="2.48969">
        <ele>444.4</ele>
        <time>2026-08-06T11:56:33.000Z</time>
      </trkpt>
      <trkpt lat="46.17544" lon="2.48955">
        <ele>444.6</ele>
        <time>2026-08-06T11:56:39.000Z</time>
      </trkpt>
      <trkpt lat="46.17551" lon="2.48944">
        <ele>445.3</ele>
        <time>2026-08-06T11:56:45.000Z</time>
      </trkpt>
      <trkpt lat="46.17557" lon="2.48931">
        <ele>445.9</ele>
        <time>2026-08-06T11:56:51.000Z</time>
      </trkpt>
      <trkpt lat="46.17558" lon="2.48929">
        <ele>446</ele>
        <time>2026-08-06T11:56:52.000Z</time>
      </trkpt>
      <trkpt lat="46.17564" lon="2.4892">
        <ele>446.3</ele>
        <time>2026-08-06T11:56:57.000Z</time>
      </trkpt>
      <trkpt lat="46.17567" lon="2.48912">
        <ele>446.6</ele>
        <time>2026-08-06T11:57:01.000Z</time>
      </trkpt>
      <trkpt lat="46.17569" lon="2.48909">
        <ele>446.9</ele>
        <time>2026-08-06T11:57:03.000Z</time>
      </trkpt>
      <trkpt lat="46.17571" lon="2.48907">
        <ele>446.9</ele>
        <time>2026-08-06T11:57:05.000Z</time>
      </trkpt>
      <trkpt lat="46.17573" lon="2.48904">
        <ele>447.2</ele>
        <time>2026-08-06T11:57:07.000Z</time>
      </trkpt>
      <trkpt lat="46.17575" lon="2.48901">
        <ele>447.3</ele>
        <time>2026-08-06T11:57:09.000Z</time>
      </trkpt>
      <trkpt lat="46.17583" lon="2.48889">
        <ele>448.1</ele>
        <time>2026-08-06T11:57:16.000Z</time>
      </trkpt>
      <trkpt lat="46.17583" lon="2.48887">
        <ele>448.2</ele>
        <time>2026-08-06T11:57:17.000Z</time>
      </trkpt>
      <trkpt lat="46.17585" lon="2.48884">
        <ele>448.5</ele>
        <time>2026-08-06T11:57:19.000Z</time>
      </trkpt>
      <trkpt lat="46.17586" lon="2.48877">
        <ele>449</ele>
        <time>2026-08-06T11:57:22.000Z</time>
      </trkpt>
      <trkpt lat="46.17586" lon="2.48876">
        <ele>449.1</ele>
        <time>2026-08-06T11:57:23.000Z</time>
      </trkpt>
      <trkpt lat="46.17591" lon="2.48871">
        <ele>449.1</ele>
        <time>2026-08-06T11:57:28.000Z</time>
      </trkpt>
      <trkpt lat="46.17592" lon="2.4886">
        <ele>449.8</ele>
        <time>2026-08-06T11:57:33.000Z</time>
      </trkpt>
      <trkpt lat="46.17592" lon="2.48855">
        <ele>450.1</ele>
        <time>2026-08-06T11:57:35.000Z</time>
      </trkpt>
      <trkpt lat="46.17593" lon="2.48844">
        <ele>450.6</ele>
        <time>2026-08-06T11:57:41.000Z</time>
      </trkpt>
      <trkpt lat="46.17594" lon="2.48834">
        <ele>451.1</ele>
        <time>2026-08-06T11:57:46.000Z</time>
      </trkpt>
      <trkpt lat="46.17595" lon="2.4883">
        <ele>451.5</ele>
        <time>2026-08-06T11:57:48.000Z</time>
      </trkpt>
      <trkpt lat="46.17594" lon="2.48828">
        <ele>451.7</ele>
        <time>2026-08-06T11:57:49.000Z</time>
      </trkpt>
      <trkpt lat="46.17596" lon="2.48815">
        <ele>452.7</ele>
        <time>2026-08-06T11:57:55.000Z</time>
      </trkpt>
      <trkpt lat="46.17597" lon="2.488">
        <ele>453.6</ele>
        <time>2026-08-06T11:58:01.000Z</time>
      </trkpt>
      <trkpt lat="46.17595" lon="2.48791">
        <ele>453.8</ele>
        <time>2026-08-06T11:58:05.000Z</time>
      </trkpt>
      <trkpt lat="46.17593" lon="2.48774">
        <ele>454.3</ele>
        <time>2026-08-06T11:58:13.000Z</time>
      </trkpt>
      <trkpt lat="46.17593" lon="2.48772">
        <ele>454.4</ele>
        <time>2026-08-06T11:58:14.000Z</time>
      </trkpt>
      <trkpt lat="46.17593" lon="2.4877">
        <ele>454.5</ele>
        <time>2026-08-06T11:58:15.000Z</time>
      </trkpt>
      <trkpt lat="46.17594" lon="2.48755">
        <ele>455.3</ele>
        <time>2026-08-06T11:58:21.000Z</time>
      </trkpt>
      <trkpt lat="46.17593" lon="2.48748">
        <ele>455.7</ele>
        <time>2026-08-06T11:58:24.000Z</time>
      </trkpt>
      <trkpt lat="46.17595" lon="2.48735">
        <ele>456.4</ele>
        <time>2026-08-06T11:58:30.000Z</time>
      </trkpt>
      <trkpt lat="46.17595" lon="2.48731">
        <ele>456.6</ele>
        <time>2026-08-06T11:58:32.000Z</time>
      </trkpt>
      <trkpt lat="46.17596" lon="2.48717">
        <ele>457.3</ele>
        <time>2026-08-06T11:58:38.000Z</time>
      </trkpt>
      <trkpt lat="46.17596" lon="2.48701">
        <ele>458.1</ele>
        <time>2026-08-06T11:58:45.000Z</time>
      </trkpt>
      <trkpt lat="46.17596" lon="2.48699">
        <ele>458.2</ele>
        <time>2026-08-06T11:58:46.000Z</time>
      </trkpt>
      <trkpt lat="46.17594" lon="2.48687">
        <ele>458.5</ele>
        <time>2026-08-06T11:58:53.000Z</time>
      </trkpt>
      <trkpt lat="46.17595" lon="2.48678">
        <ele>458.8</ele>
        <time>2026-08-06T11:58:57.000Z</time>
      </trkpt>
      <trkpt lat="46.17596" lon="2.48662">
        <ele>459.1</ele>
        <time>2026-08-06T11:59:03.000Z</time>
      </trkpt>
      <trkpt lat="46.17598" lon="2.4865">
        <ele>459.3</ele>
        <time>2026-08-06T11:59:07.000Z</time>
      </trkpt>
      <trkpt lat="46.17601" lon="2.48643">
        <ele>459.3</ele>
        <time>2026-08-06T11:59:10.000Z</time>
      </trkpt>
      <trkpt lat="46.17609" lon="2.48637">
        <ele>459.2</ele>
        <time>2026-08-06T11:59:16.000Z</time>
      </trkpt>
      <trkpt lat="46.17612" lon="2.48632">
        <ele>459.5</ele>
        <time>2026-08-06T11:59:18.000Z</time>
      </trkpt>
      <trkpt lat="46.17612" lon="2.48623">
        <ele>460.1</ele>
        <time>2026-08-06T11:59:21.000Z</time>
      </trkpt>
      <trkpt lat="46.17611" lon="2.48621">
        <ele>460.3</ele>
        <time>2026-08-06T11:59:22.000Z</time>
      </trkpt>
      <trkpt lat="46.17608" lon="2.48619">
        <ele>460.5</ele>
        <time>2026-08-06T11:59:24.000Z</time>
      </trkpt>
      <trkpt lat="46.17606" lon="2.48619">
        <ele>460.5</ele>
        <time>2026-08-06T11:59:25.000Z</time>
      </trkpt>
      <trkpt lat="46.17606" lon="2.48618">
        <ele>460.5</ele>
        <time>2026-08-06T11:59:26.000Z</time>
      </trkpt>
      <trkpt lat="46.17605" lon="2.48618">
        <ele>460.5</ele>
        <time>2026-08-06T11:59:29.000Z</time>
      </trkpt>
      <trkpt lat="46.1761" lon="2.48626">
        <ele>459.9</ele>
        <time>2026-08-06T12:00:28.000Z</time>
      </trkpt>
      <trkpt lat="46.17614" lon="2.48628">
        <ele>459.8</ele>
        <time>2026-08-06T12:00:30.000Z</time>
      </trkpt>
      <trkpt lat="46.17627" lon="2.48628">
        <ele>459.9</ele>
        <time>2026-08-06T12:00:35.000Z</time>
      </trkpt>
      <trkpt lat="46.17629" lon="2.48626">
        <ele>460</ele>
        <time>2026-08-06T12:00:36.000Z</time>
      </trkpt>
      <trkpt lat="46.17632" lon="2.4862">
        <ele>460.1</ele>
        <time>2026-08-06T12:00:41.000Z</time>
      </trkpt>
      <trkpt lat="46.17633" lon="2.48617">
        <ele>460.1</ele>
        <time>2026-08-06T12:00:44.000Z</time>
      </trkpt>
      <trkpt lat="46.17635" lon="2.48614">
        <ele>460.1</ele>
        <time>2026-08-06T12:00:48.000Z</time>
      </trkpt>
      <trkpt lat="46.17638" lon="2.4861">
        <ele>460</ele>
        <time>2026-08-06T12:00:54.000Z</time>
      </trkpt>
      <trkpt lat="46.17638" lon="2.48609">
        <ele>460</ele>
        <time>2026-08-06T12:00:57.000Z</time>
      </trkpt>
      <trkpt lat="46.17639" lon="2.48602">
        <ele>460</ele>
        <time>2026-08-06T12:01:04.000Z</time>
      </trkpt>
      <trkpt lat="46.1764" lon="2.48597">
        <ele>460</ele>
        <time>2026-08-06T12:01:06.000Z</time>
      </trkpt>
      <trkpt lat="46.17647" lon="2.48578">
        <ele>459.9</ele>
        <time>2026-08-06T12:01:13.000Z</time>
      </trkpt>
      <trkpt lat="46.17654" lon="2.48559">
        <ele>460.3</ele>
        <time>2026-08-06T12:01:21.000Z</time>
      </trkpt>
      <trkpt lat="46.17654" lon="2.48558">
        <ele>460.4</ele>
        <time>2026-08-06T12:01:22.000Z</time>
      </trkpt>
      <trkpt lat="46.17654" lon="2.48556">
        <ele>460.5</ele>
        <time>2026-08-06T12:01:25.000Z</time>
      </trkpt>
      <trkpt lat="46.17654" lon="2.48556">
        <ele>460.5</ele>
        <time>2026-08-06T12:01:26.000Z</time>
      </trkpt>
      <trkpt lat="46.17658" lon="2.48551">
        <ele>460.3</ele>
        <time>2026-08-06T12:03:56.000Z</time>
      </trkpt>
      <trkpt lat="46.17657" lon="2.4855">
        <ele>460.4</ele>
        <time>2026-08-06T12:03:57.000Z</time>
      </trkpt>
      <trkpt lat="46.17654" lon="2.48549">
        <ele>460.4</ele>
        <time>2026-08-06T12:03:59.000Z</time>
      </trkpt>
      <trkpt lat="46.17644" lon="2.48543">
        <ele>460.8</ele>
        <time>2026-08-06T12:04:04.000Z</time>
      </trkpt>
      <trkpt lat="46.17625" lon="2.48541">
        <ele>461.3</ele>
        <time>2026-08-06T12:04:11.000Z</time>
      </trkpt>
      <trkpt lat="46.17599" lon="2.48541">
        <ele>461.7</ele>
        <time>2026-08-06T12:04:20.000Z</time>
      </trkpt>
      <trkpt lat="46.17587" lon="2.48536">
        <ele>462</ele>
        <time>2026-08-06T12:04:25.000Z</time>
      </trkpt>
      <trkpt lat="46.17568" lon="2.48539">
        <ele>462.3</ele>
        <time>2026-08-06T12:04:31.000Z</time>
      </trkpt>
      <trkpt lat="46.17565" lon="2.48539">
        <ele>462.4</ele>
        <time>2026-08-06T12:04:32.000Z</time>
      </trkpt>
      <trkpt lat="46.17545" lon="2.4854">
        <ele>462.7</ele>
        <time>2026-08-06T12:04:39.000Z</time>
      </trkpt>
      <trkpt lat="46.17535" lon="2.48541">
        <ele>462.9</ele>
        <time>2026-08-06T12:04:43.000Z</time>
      </trkpt>
      <trkpt lat="46.17533" lon="2.48541">
        <ele>462.9</ele>
        <time>2026-08-06T12:04:44.000Z</time>
      </trkpt>
      <trkpt lat="46.17531" lon="2.4854">
        <ele>463</ele>
        <time>2026-08-06T12:04:45.000Z</time>
      </trkpt>
      <trkpt lat="46.17525" lon="2.48542">
        <ele>463</ele>
        <time>2026-08-06T12:04:48.000Z</time>
      </trkpt>
      <trkpt lat="46.17521" lon="2.48545">
        <ele>463</ele>
        <time>2026-08-06T12:04:50.000Z</time>
      </trkpt>
      <trkpt lat="46.17515" lon="2.48561">
        <ele>462.8</ele>
        <time>2026-08-06T12:04:59.000Z</time>
      </trkpt>
      <trkpt lat="46.17514" lon="2.48569">
        <ele>462.5</ele>
        <time>2026-08-06T12:05:03.000Z</time>
      </trkpt>
      <trkpt lat="46.1751" lon="2.48574">
        <ele>462.3</ele>
        <time>2026-08-06T12:05:05.000Z</time>
      </trkpt>
      <trkpt lat="46.17512" lon="2.4858">
        <ele>462.1</ele>
        <time>2026-08-06T12:05:08.000Z</time>
      </trkpt>
      <trkpt lat="46.17514" lon="2.48589">
        <ele>461.8</ele>
        <time>2026-08-06T12:05:12.000Z</time>
      </trkpt>
      <trkpt lat="46.17515" lon="2.4859">
        <ele>461.8</ele>
        <time>2026-08-06T12:05:14.000Z</time>
      </trkpt>
      <trkpt lat="46.17515" lon="2.4859">
        <ele>461.8</ele>
        <time>2026-08-06T12:05:16.000Z</time>
      </trkpt>
      <trkpt lat="46.1751" lon="2.48586">
        <ele>461.9</ele>
        <time>2026-08-06T12:06:28.000Z</time>
      </trkpt>
      <trkpt lat="46.17508" lon="2.48583">
        <ele>462</ele>
        <time>2026-08-06T12:06:30.000Z</time>
      </trkpt>
      <trkpt lat="46.17506" lon="2.48581">
        <ele>462.1</ele>
        <time>2026-08-06T12:06:32.000Z</time>
      </trkpt>
      <trkpt lat="46.17501" lon="2.48578">
        <ele>462.2</ele>
        <time>2026-08-06T12:06:35.000Z</time>
      </trkpt>
      <trkpt lat="46.17498" lon="2.48576">
        <ele>462.3</ele>
        <time>2026-08-06T12:06:37.000Z</time>
      </trkpt>
      <trkpt lat="46.17494" lon="2.48576">
        <ele>462.3</ele>
        <time>2026-08-06T12:06:40.000Z</time>
      </trkpt>
      <trkpt lat="46.17493" lon="2.48575">
        <ele>462.3</ele>
        <time>2026-08-06T12:06:41.000Z</time>
      </trkpt>
      <trkpt lat="46.17485" lon="2.48571">
        <ele>462.5</ele>
        <time>2026-08-06T12:06:46.000Z</time>
      </trkpt>
      <trkpt lat="46.17474" lon="2.48566">
        <ele>462.6</ele>
        <time>2026-08-06T12:06:52.000Z</time>
      </trkpt>
      <trkpt lat="46.17472" lon="2.48562">
        <ele>462.8</ele>
        <time>2026-08-06T12:06:54.000Z</time>
      </trkpt>
      <trkpt lat="46.17465" lon="2.48553">
        <ele>463</ele>
        <time>2026-08-06T12:07:01.000Z</time>
      </trkpt>
      <trkpt lat="46.17461" lon="2.4855">
        <ele>463</ele>
        <time>2026-08-06T12:07:07.000Z</time>
      </trkpt>
      <trkpt lat="46.17461" lon="2.4855">
        <ele>463</ele>
        <time>2026-08-06T12:07:08.000Z</time>
      </trkpt>
      <trkpt lat="46.1747" lon="2.48551">
        <ele>463</ele>
        <time>2026-08-06T12:07:27.000Z</time>
      </trkpt>
      <trkpt lat="46.17471" lon="2.48547">
        <ele>463</ele>
        <time>2026-08-06T12:07:29.000Z</time>
      </trkpt>
      <trkpt lat="46.17471" lon="2.48544">
        <ele>463</ele>
        <time>2026-08-06T12:07:30.000Z</time>
      </trkpt>
      <trkpt lat="46.17471" lon="2.4854">
        <ele>463</ele>
        <time>2026-08-06T12:07:32.000Z</time>
      </trkpt>
      <trkpt lat="46.17467" lon="2.48534">
        <ele>463</ele>
        <time>2026-08-06T12:07:36.000Z</time>
      </trkpt>
      <trkpt lat="46.17452" lon="2.48529">
        <ele>463</ele>
        <time>2026-08-06T12:07:43.000Z</time>
      </trkpt>
      <trkpt lat="46.17436" lon="2.4853">
        <ele>463.3</ele>
        <time>2026-08-06T12:07:50.000Z</time>
      </trkpt>
      <trkpt lat="46.17434" lon="2.4853">
        <ele>463.4</ele>
        <time>2026-08-06T12:07:51.000Z</time>
      </trkpt>
      <trkpt lat="46.17431" lon="2.4853">
        <ele>463.5</ele>
        <time>2026-08-06T12:07:53.000Z</time>
      </trkpt>
      <trkpt lat="46.1743" lon="2.48529">
        <ele>463.5</ele>
        <time>2026-08-06T12:07:54.000Z</time>
      </trkpt>
      <trkpt lat="46.17429" lon="2.48529">
        <ele>463.6</ele>
        <time>2026-08-06T12:07:55.000Z</time>
      </trkpt>
      <trkpt lat="46.17426" lon="2.48532">
        <ele>463.7</ele>
        <time>2026-08-06T12:07:58.000Z</time>
      </trkpt>
      <trkpt lat="46.17424" lon="2.48538">
        <ele>463.7</ele>
        <time>2026-08-06T12:08:00.000Z</time>
      </trkpt>
      <trkpt lat="46.17424" lon="2.48548">
        <ele>463.8</ele>
        <time>2026-08-06T12:08:03.000Z</time>
      </trkpt>
      <trkpt lat="46.1742" lon="2.48566">
        <ele>463.6</ele>
        <time>2026-08-06T12:08:08.000Z</time>
      </trkpt>
      <trkpt lat="46.17417" lon="2.48592">
        <ele>463</ele>
        <time>2026-08-06T12:08:14.000Z</time>
      </trkpt>
      <trkpt lat="46.17416" lon="2.48601">
        <ele>463</ele>
        <time>2026-08-06T12:08:17.000Z</time>
      </trkpt>
      <trkpt lat="46.17417" lon="2.48607">
        <ele>463</ele>
        <time>2026-08-06T12:08:19.000Z</time>
      </trkpt>
      <trkpt lat="46.17417" lon="2.48618">
        <ele>462.7</ele>
        <time>2026-08-06T12:08:25.000Z</time>
      </trkpt>
      <trkpt lat="46.17417" lon="2.48619">
        <ele>462.7</ele>
        <time>2026-08-06T12:08:27.000Z</time>
      </trkpt>
      <trkpt lat="46.17418" lon="2.48624">
        <ele>462.5</ele>
        <time>2026-08-06T12:08:30.000Z</time>
      </trkpt>
      <trkpt lat="46.17418" lon="2.48628">
        <ele>462.3</ele>
        <time>2026-08-06T12:08:32.000Z</time>
      </trkpt>
      <trkpt lat="46.1742" lon="2.48638">
        <ele>461.9</ele>
        <time>2026-08-06T12:08:35.000Z</time>
      </trkpt>
      <trkpt lat="46.1742" lon="2.48662">
        <ele>461</ele>
        <time>2026-08-06T12:08:41.000Z</time>
      </trkpt>
      <trkpt lat="46.17422" lon="2.48682">
        <ele>460.4</ele>
        <time>2026-08-06T12:08:45.000Z</time>
      </trkpt>
      <trkpt lat="46.17424" lon="2.48707">
        <ele>459.6</ele>
        <time>2026-08-06T12:08:51.000Z</time>
      </trkpt>
      <trkpt lat="46.17423" lon="2.48709">
        <ele>459.5</ele>
        <time>2026-08-06T12:08:52.000Z</time>
      </trkpt>
      <trkpt lat="46.17423" lon="2.48711">
        <ele>459.4</ele>
        <time>2026-08-06T12:08:53.000Z</time>
      </trkpt>
      <trkpt lat="46.17423" lon="2.48712">
        <ele>459.4</ele>
        <time>2026-08-06T12:08:54.000Z</time>
      </trkpt>
      <trkpt lat="46.17423" lon="2.48713">
        <ele>459.3</ele>
        <time>2026-08-06T12:08:55.000Z</time>
      </trkpt>
      <trkpt lat="46.17423" lon="2.48716">
        <ele>459.2</ele>
        <time>2026-08-06T12:08:57.000Z</time>
      </trkpt>
      <trkpt lat="46.17424" lon="2.48717">
        <ele>459.2</ele>
        <time>2026-08-06T12:08:59.000Z</time>
      </trkpt>
      <trkpt lat="46.17427" lon="2.48716">
        <ele>459.2</ele>
        <time>2026-08-06T12:09:02.000Z</time>
      </trkpt>
      <trkpt lat="46.1743" lon="2.48716">
        <ele>459.2</ele>
        <time>2026-08-06T12:09:04.000Z</time>
      </trkpt>
      <trkpt lat="46.1744" lon="2.48717">
        <ele>459.2</ele>
        <time>2026-08-06T12:09:10.000Z</time>
      </trkpt>
      <trkpt lat="46.17451" lon="2.48728">
        <ele>459</ele>
        <time>2026-08-06T12:09:17.000Z</time>
      </trkpt>
      <trkpt lat="46.17463" lon="2.48727">
        <ele>458.9</ele>
        <time>2026-08-06T12:09:23.000Z</time>
      </trkpt>
      <trkpt lat="46.17477" lon="2.48726">
        <ele>458.7</ele>
        <time>2026-08-06T12:09:28.000Z</time>
      </trkpt>
      <trkpt lat="46.17481" lon="2.48728">
        <ele>458.5</ele>
        <time>2026-08-06T12:09:29.000Z</time>
      </trkpt>
      <trkpt lat="46.17491" lon="2.48729">
        <ele>458.1</ele>
        <time>2026-08-06T12:09:35.000Z</time>
      </trkpt>
      <trkpt lat="46.17505" lon="2.48729">
        <ele>457.6</ele>
        <time>2026-08-06T12:09:41.000Z</time>
      </trkpt>
      <trkpt lat="46.17509" lon="2.48726">
        <ele>457.5</ele>
        <time>2026-08-06T12:09:43.000Z</time>
      </trkpt>
      <trkpt lat="46.17512" lon="2.48719">
        <ele>457.7</ele>
        <time>2026-08-06T12:09:46.000Z</time>
      </trkpt>
      <trkpt lat="46.17513" lon="2.48718">
        <ele>457.7</ele>
        <time>2026-08-06T12:09:47.000Z</time>
      </trkpt>
      <trkpt lat="46.17514" lon="2.48717">
        <ele>457.7</ele>
        <time>2026-08-06T12:09:48.000Z</time>
      </trkpt>
      <trkpt lat="46.17516" lon="2.48715">
        <ele>457.7</ele>
        <time>2026-08-06T12:09:50.000Z</time>
      </trkpt>
      <trkpt lat="46.17526" lon="2.48709">
        <ele>457.5</ele>
        <time>2026-08-06T12:09:57.000Z</time>
      </trkpt>
      <trkpt lat="46.17536" lon="2.48704">
        <ele>457.7</ele>
        <time>2026-08-06T12:10:03.000Z</time>
      </trkpt>
      <trkpt lat="46.17551" lon="2.48701">
        <ele>457.8</ele>
        <time>2026-08-06T12:10:10.000Z</time>
      </trkpt>
      <trkpt lat="46.17556" lon="2.48699">
        <ele>457.8</ele>
        <time>2026-08-06T12:10:12.000Z</time>
      </trkpt>
      <trkpt lat="46.17563" lon="2.48693">
        <ele>458</ele>
        <time>2026-08-06T12:10:16.000Z</time>
      </trkpt>
      <trkpt lat="46.1757" lon="2.48693">
        <ele>458.1</ele>
        <time>2026-08-06T12:10:20.000Z</time>
      </trkpt>
      <trkpt lat="46.17574" lon="2.4869">
        <ele>458.2</ele>
        <time>2026-08-06T12:10:23.000Z</time>
      </trkpt>
      <trkpt lat="46.17584" lon="2.48683">
        <ele>458.4</ele>
        <time>2026-08-06T12:10:29.000Z</time>
      </trkpt>
      <trkpt lat="46.17593" lon="2.48662">
        <ele>459.1</ele>
        <time>2026-08-06T12:10:38.000Z</time>
      </trkpt>
      <trkpt lat="46.17599" lon="2.48648">
        <ele>459.3</ele>
        <time>2026-08-06T12:10:44.000Z</time>
      </trkpt>
      <trkpt lat="46.17601" lon="2.48646">
        <ele>459.3</ele>
        <time>2026-08-06T12:10:45.000Z</time>
      </trkpt>
      <trkpt lat="46.17612" lon="2.48636">
        <ele>459.3</ele>
        <time>2026-08-06T12:10:53.000Z</time>
      </trkpt>
      <trkpt lat="46.17624" lon="2.48624">
        <ele>460</ele>
        <time>2026-08-06T12:11:00.000Z</time>
      </trkpt>
      <trkpt lat="46.17632" lon="2.48615">
        <ele>460.2</ele>
        <time>2026-08-06T12:11:06.000Z</time>
      </trkpt>
      <trkpt lat="46.17639" lon="2.48597">
        <ele>460</ele>
        <time>2026-08-06T12:11:15.000Z</time>
      </trkpt>
      <trkpt lat="46.17641" lon="2.48591">
        <ele>459.9</ele>
        <time>2026-08-06T12:11:17.000Z</time>
      </trkpt>
      <trkpt lat="46.17644" lon="2.48582">
        <ele>459.9</ele>
        <time>2026-08-06T12:11:20.000Z</time>
      </trkpt>
      <trkpt lat="46.17651" lon="2.48564">
        <ele>460.3</ele>
        <time>2026-08-06T12:11:26.000Z</time>
      </trkpt>
      <trkpt lat="46.17651" lon="2.48559">
        <ele>460.5</ele>
        <time>2026-08-06T12:11:29.000Z</time>
      </trkpt>
      <trkpt lat="46.17651" lon="2.48559">
        <ele>460.5</ele>
        <time>2026-08-06T12:11:32.000Z</time>
      </trkpt>
      <trkpt lat="46.17649" lon="2.48557">
        <ele>460.6</ele>
        <time>2026-08-06T12:12:27.000Z</time>
      </trkpt>
      <trkpt lat="46.17649" lon="2.48557">
        <ele>460.6</ele>
        <time>2026-08-06T12:12:28.000Z</time>
      </trkpt>
      <trkpt lat="46.17647" lon="2.48557">
        <ele>460.7</ele>
        <time>2026-08-06T12:57:49.000Z</time>
      </trkpt>
      <trkpt lat="46.17645" lon="2.48564">
        <ele>460.5</ele>
        <time>2026-08-06T12:57:51.000Z</time>
      </trkpt>
      <trkpt lat="46.17645" lon="2.48568">
        <ele>460.3</ele>
        <time>2026-08-06T12:57:52.000Z</time>
      </trkpt>
      <trkpt lat="46.17643" lon="2.48579">
        <ele>460</ele>
        <time>2026-08-06T12:57:55.000Z</time>
      </trkpt>
      <trkpt lat="46.1764" lon="2.48601">
        <ele>460</ele>
        <time>2026-08-06T12:58:01.000Z</time>
      </trkpt>
      <trkpt lat="46.1764" lon="2.48604">
        <ele>460</ele>
        <time>2026-08-06T12:58:02.000Z</time>
      </trkpt>
      <trkpt lat="46.1764" lon="2.48606">
        <ele>460</ele>
        <time>2026-08-06T12:58:04.000Z</time>
      </trkpt>
      <trkpt lat="46.17645" lon="2.48607">
        <ele>460</ele>
        <time>2026-08-06T12:58:08.000Z</time>
      </trkpt>
      <trkpt lat="46.17655" lon="2.48612">
        <ele>460</ele>
        <time>2026-08-06T12:58:15.000Z</time>
      </trkpt>
      <trkpt lat="46.1767" lon="2.48614">
        <ele>459.6</ele>
        <time>2026-08-06T12:58:24.000Z</time>
      </trkpt>
      <trkpt lat="46.17678" lon="2.4862">
        <ele>458.7</ele>
        <time>2026-08-06T12:58:30.000Z</time>
      </trkpt>
      <trkpt lat="46.17678" lon="2.48633">
        <ele>458.4</ele>
        <time>2026-08-06T12:58:36.000Z</time>
      </trkpt>
      <trkpt lat="46.17677" lon="2.48638">
        <ele>458.6</ele>
        <time>2026-08-06T12:58:38.000Z</time>
      </trkpt>
      <trkpt lat="46.17674" lon="2.48651">
        <ele>458.6</ele>
        <time>2026-08-06T12:58:44.000Z</time>
      </trkpt>
      <trkpt lat="46.17678" lon="2.48662">
        <ele>457.9</ele>
        <time>2026-08-06T12:58:50.000Z</time>
      </trkpt>
      <trkpt lat="46.17682" lon="2.48676">
        <ele>457</ele>
        <time>2026-08-06T12:58:56.000Z</time>
      </trkpt>
      <trkpt lat="46.17681" lon="2.48698">
        <ele>456.4</ele>
        <time>2026-08-06T12:59:03.000Z</time>
      </trkpt>
      <trkpt lat="46.1768" lon="2.48705">
        <ele>456.4</ele>
        <time>2026-08-06T12:59:06.000Z</time>
      </trkpt>
      <trkpt lat="46.17676" lon="2.48711">
        <ele>456.6</ele>
        <time>2026-08-06T12:59:10.000Z</time>
      </trkpt>
      <trkpt lat="46.17675" lon="2.48713">
        <ele>456.7</ele>
        <time>2026-08-06T12:59:11.000Z</time>
      </trkpt>
      <trkpt lat="46.17674" lon="2.48719">
        <ele>456.5</ele>
        <time>2026-08-06T12:59:14.000Z</time>
      </trkpt>
      <trkpt lat="46.17675" lon="2.48724">
        <ele>456.3</ele>
        <time>2026-08-06T12:59:17.000Z</time>
      </trkpt>
      <trkpt lat="46.17674" lon="2.48728">
        <ele>456.1</ele>
        <time>2026-08-06T12:59:19.000Z</time>
      </trkpt>
      <trkpt lat="46.17672" lon="2.48729">
        <ele>456.1</ele>
        <time>2026-08-06T12:59:21.000Z</time>
      </trkpt>
      <trkpt lat="46.1767" lon="2.4873">
        <ele>456.3</ele>
        <time>2026-08-06T12:59:26.000Z</time>
      </trkpt>
      <trkpt lat="46.17668" lon="2.48703">
        <ele>457.6</ele>
        <time>2026-08-06T13:39:05.000Z</time>
      </trkpt>
      <trkpt lat="46.17668" lon="2.48692">
        <ele>458</ele>
        <time>2026-08-06T13:39:12.000Z</time>
      </trkpt>
      <trkpt lat="46.17669" lon="2.48688">
        <ele>458</ele>
        <time>2026-08-06T13:39:15.000Z</time>
      </trkpt>
      <trkpt lat="46.17673" lon="2.48686">
        <ele>457.6</ele>
        <time>2026-08-06T13:39:18.000Z</time>
      </trkpt>
      <trkpt lat="46.17674" lon="2.48675">
        <ele>457.9</ele>
        <time>2026-08-06T13:39:23.000Z</time>
      </trkpt>
      <trkpt lat="46.17677" lon="2.48656">
        <ele>458.2</ele>
        <time>2026-08-06T13:39:31.000Z</time>
      </trkpt>
      <trkpt lat="46.1768" lon="2.48638">
        <ele>458.1</ele>
        <time>2026-08-06T13:39:38.000Z</time>
      </trkpt>
      <trkpt lat="46.17683" lon="2.48628">
        <ele>457.9</ele>
        <time>2026-08-06T13:39:43.000Z</time>
      </trkpt>
      <trkpt lat="46.17683" lon="2.48625">
        <ele>458</ele>
        <time>2026-08-06T13:39:44.000Z</time>
      </trkpt>
      <trkpt lat="46.17675" lon="2.48614">
        <ele>459.1</ele>
        <time>2026-08-06T13:39:50.000Z</time>
      </trkpt>
      <trkpt lat="46.17664" lon="2.48615">
        <ele>460</ele>
        <time>2026-08-06T13:39:57.000Z</time>
      </trkpt>
      <trkpt lat="46.1766" lon="2.48614">
        <ele>460</ele>
        <time>2026-08-06T13:39:59.000Z</time>
      </trkpt>
      <trkpt lat="46.17652" lon="2.48612">
        <ele>460</ele>
        <time>2026-08-06T13:40:03.000Z</time>
      </trkpt>
      <trkpt lat="46.17647" lon="2.48611">
        <ele>460</ele>
        <time>2026-08-06T13:40:06.000Z</time>
      </trkpt>
      <trkpt lat="46.17646" lon="2.48611">
        <ele>460</ele>
        <time>2026-08-06T13:40:07.000Z</time>
      </trkpt>
      <trkpt lat="46.17644" lon="2.48609">
        <ele>460</ele>
        <time>2026-08-06T13:40:09.000Z</time>
      </trkpt>
      <trkpt lat="46.17643" lon="2.486">
        <ele>459.9</ele>
        <time>2026-08-06T13:40:14.000Z</time>
      </trkpt>
      <trkpt lat="46.1765" lon="2.48581">
        <ele>459.7</ele>
        <time>2026-08-06T13:40:21.000Z</time>
      </trkpt>
      <trkpt lat="46.17655" lon="2.48563">
        <ele>460.2</ele>
        <time>2026-08-06T13:40:27.000Z</time>
      </trkpt>
      <trkpt lat="46.17655" lon="2.48561">
        <ele>460.2</ele>
        <time>2026-08-06T13:40:28.000Z</time>
      </trkpt>
      <trkpt lat="46.17655" lon="2.4856">
        <ele>460.3</ele>
        <time>2026-08-06T13:40:30.000Z</time>
      </trkpt>
      <trkpt lat="46.17655" lon="2.4856">
        <ele>460.3</ele>
        <time>2026-08-06T13:40:31.000Z</time>
      </trkpt>
      <trkpt lat="46.17662" lon="2.48548">
        <ele>460.2</ele>
        <time>2026-08-06T13:44:16.000Z</time>
      </trkpt>
      <trkpt lat="46.17663" lon="2.48546">
        <ele>460.1</ele>
        <time>2026-08-06T13:44:17.000Z</time>
      </trkpt>
      <trkpt lat="46.17672" lon="2.48531">
        <ele>459.6</ele>
        <time>2026-08-06T13:44:22.000Z</time>
      </trkpt>
      <trkpt lat="46.17674" lon="2.48528">
        <ele>459.5</ele>
        <time>2026-08-06T13:44:23.000Z</time>
      </trkpt>
      <trkpt lat="46.17678" lon="2.48518">
        <ele>459.5</ele>
        <time>2026-08-06T13:44:26.000Z</time>
      </trkpt>
      <trkpt lat="46.17679" lon="2.48516">
        <ele>459.5</ele>
        <time>2026-08-06T13:44:27.000Z</time>
      </trkpt>
      <trkpt lat="46.17686" lon="2.48492">
        <ele>459.7</ele>
        <time>2026-08-06T13:44:33.000Z</time>
      </trkpt>
      <trkpt lat="46.17693" lon="2.48465">
        <ele>459.1</ele>
        <time>2026-08-06T13:44:39.000Z</time>
      </trkpt>
      <trkpt lat="46.17694" lon="2.48461">
        <ele>459.1</ele>
        <time>2026-08-06T13:44:40.000Z</time>
      </trkpt>
      <trkpt lat="46.17697" lon="2.48434">
        <ele>458.8</ele>
        <time>2026-08-06T13:44:46.000Z</time>
      </trkpt>
      <trkpt lat="46.177" lon="2.48413">
        <ele>458.5</ele>
        <time>2026-08-06T13:44:51.000Z</time>
      </trkpt>
      <trkpt lat="46.17709" lon="2.48384">
        <ele>457.4</ele>
        <time>2026-08-06T13:44:57.000Z</time>
      </trkpt>
      <trkpt lat="46.17719" lon="2.4836">
        <ele>456.4</ele>
        <time>2026-08-06T13:45:01.000Z</time>
      </trkpt>
      <trkpt lat="46.17722" lon="2.48354">
        <ele>456.3</ele>
        <time>2026-08-06T13:45:02.000Z</time>
      </trkpt>
      <trkpt lat="46.17727" lon="2.48348">
        <ele>456.1</ele>
        <time>2026-08-06T13:45:03.000Z</time>
      </trkpt>
      <trkpt lat="46.17747" lon="2.48331">
        <ele>455.3</ele>
        <time>2026-08-06T13:45:07.000Z</time>
      </trkpt>
      <trkpt lat="46.17756" lon="2.48321">
        <ele>455</ele>
        <time>2026-08-06T13:45:09.000Z</time>
      </trkpt>
      <trkpt lat="46.17774" lon="2.48302">
        <ele>454.3</ele>
        <time>2026-08-06T13:45:13.000Z</time>
      </trkpt>
      <trkpt lat="46.17787" lon="2.48288">
        <ele>453.9</ele>
        <time>2026-08-06T13:45:16.000Z</time>
      </trkpt>
      <trkpt lat="46.17792" lon="2.48283">
        <ele>453.9</ele>
        <time>2026-08-06T13:45:17.000Z</time>
      </trkpt>
      <trkpt lat="46.17829" lon="2.48244">
        <ele>454</ele>
        <time>2026-08-06T13:45:26.000Z</time>
      </trkpt>
      <trkpt lat="46.17837" lon="2.48237">
        <ele>454</ele>
        <time>2026-08-06T13:45:28.000Z</time>
      </trkpt>
      <trkpt lat="46.17847" lon="2.48223">
        <ele>454</ele>
        <time>2026-08-06T13:45:31.000Z</time>
      </trkpt>
      <trkpt lat="46.17862" lon="2.48206">
        <ele>454</ele>
        <time>2026-08-06T13:45:35.000Z</time>
      </trkpt>
      <trkpt lat="46.17871" lon="2.48201">
        <ele>453.6</ele>
        <time>2026-08-06T13:45:37.000Z</time>
      </trkpt>
      <trkpt lat="46.17876" lon="2.48199">
        <ele>453.5</ele>
        <time>2026-08-06T13:45:38.000Z</time>
      </trkpt>
      <trkpt lat="46.17901" lon="2.48189">
        <ele>453.1</ele>
        <time>2026-08-06T13:45:43.000Z</time>
      </trkpt>
      <trkpt lat="46.17906" lon="2.48187">
        <ele>453.1</ele>
        <time>2026-08-06T13:45:44.000Z</time>
      </trkpt>
      <trkpt lat="46.17928" lon="2.48175">
        <ele>452.6</ele>
        <time>2026-08-06T13:45:48.000Z</time>
      </trkpt>
      <trkpt lat="46.17944" lon="2.48165">
        <ele>452.1</ele>
        <time>2026-08-06T13:45:51.000Z</time>
      </trkpt>
      <trkpt lat="46.17955" lon="2.4816">
        <ele>451.5</ele>
        <time>2026-08-06T13:45:53.000Z</time>
      </trkpt>
      <trkpt lat="46.17984" lon="2.48147">
        <ele>450.3</ele>
        <time>2026-08-06T13:45:58.000Z</time>
      </trkpt>
      <trkpt lat="46.18007" lon="2.48136">
        <ele>449.8</ele>
        <time>2026-08-06T13:46:02.000Z</time>
      </trkpt>
      <trkpt lat="46.18039" lon="2.48126">
        <ele>449.1</ele>
        <time>2026-08-06T13:46:07.000Z</time>
      </trkpt>
      <trkpt lat="46.18058" lon="2.48118">
        <ele>448.2</ele>
        <time>2026-08-06T13:46:10.000Z</time>
      </trkpt>
      <trkpt lat="46.18079" lon="2.48108">
        <ele>447.3</ele>
        <time>2026-08-06T13:46:13.000Z</time>
      </trkpt>
      <trkpt lat="46.18115" lon="2.48092">
        <ele>445.5</ele>
        <time>2026-08-06T13:46:18.000Z</time>
      </trkpt>
      <trkpt lat="46.1813" lon="2.48084">
        <ele>444.4</ele>
        <time>2026-08-06T13:46:20.000Z</time>
      </trkpt>
      <trkpt lat="46.18145" lon="2.48077">
        <ele>443.5</ele>
        <time>2026-08-06T13:46:22.000Z</time>
      </trkpt>
      <trkpt lat="46.18169" lon="2.48065">
        <ele>441.4</ele>
        <time>2026-08-06T13:46:25.000Z</time>
      </trkpt>
      <trkpt lat="46.18186" lon="2.48058">
        <ele>439.1</ele>
        <time>2026-08-06T13:46:27.000Z</time>
      </trkpt>
      <trkpt lat="46.18194" lon="2.48054">
        <ele>438</ele>
        <time>2026-08-06T13:46:28.000Z</time>
      </trkpt>
      <trkpt lat="46.18202" lon="2.4805">
        <ele>437.2</ele>
        <time>2026-08-06T13:46:29.000Z</time>
      </trkpt>
      <trkpt lat="46.18218" lon="2.48042">
        <ele>435.4</ele>
        <time>2026-08-06T13:46:31.000Z</time>
      </trkpt>
      <trkpt lat="46.18235" lon="2.48035">
        <ele>434</ele>
        <time>2026-08-06T13:46:33.000Z</time>
      </trkpt>
      <trkpt lat="46.18251" lon="2.48027">
        <ele>433</ele>
        <time>2026-08-06T13:46:35.000Z</time>
      </trkpt>
      <trkpt lat="46.18258" lon="2.48023">
        <ele>432.4</ele>
        <time>2026-08-06T13:46:36.000Z</time>
      </trkpt>
      <trkpt lat="46.18265" lon="2.48018">
        <ele>431.8</ele>
        <time>2026-08-06T13:46:37.000Z</time>
      </trkpt>
      <trkpt lat="46.1828" lon="2.48007">
        <ele>430.5</ele>
        <time>2026-08-06T13:46:39.000Z</time>
      </trkpt>
      <trkpt lat="46.18286" lon="2.48">
        <ele>429.7</ele>
        <time>2026-08-06T13:46:40.000Z</time>
      </trkpt>
      <trkpt lat="46.18293" lon="2.47992">
        <ele>429</ele>
        <time>2026-08-06T13:46:41.000Z</time>
      </trkpt>
      <trkpt lat="46.18299" lon="2.47983">
        <ele>428.5</ele>
        <time>2026-08-06T13:46:42.000Z</time>
      </trkpt>
      <trkpt lat="46.18304" lon="2.47972">
        <ele>428</ele>
        <time>2026-08-06T13:46:43.000Z</time>
      </trkpt>
      <trkpt lat="46.18309" lon="2.47961">
        <ele>426.8</ele>
        <time>2026-08-06T13:46:44.000Z</time>
      </trkpt>
      <trkpt lat="46.18314" lon="2.47948">
        <ele>425.9</ele>
        <time>2026-08-06T13:46:45.000Z</time>
      </trkpt>
      <trkpt lat="46.18321" lon="2.47922">
        <ele>424.9</ele>
        <time>2026-08-06T13:46:47.000Z</time>
      </trkpt>
      <trkpt lat="46.18327" lon="2.47895">
        <ele>423.4</ele>
        <time>2026-08-06T13:46:49.000Z</time>
      </trkpt>
      <trkpt lat="46.1833" lon="2.47881">
        <ele>422.6</ele>
        <time>2026-08-06T13:46:50.000Z</time>
      </trkpt>
      <trkpt lat="46.18334" lon="2.47867">
        <ele>421.7</ele>
        <time>2026-08-06T13:46:51.000Z</time>
      </trkpt>
      <trkpt lat="46.1834" lon="2.47839">
        <ele>420.8</ele>
        <time>2026-08-06T13:46:53.000Z</time>
      </trkpt>
      <trkpt lat="46.18346" lon="2.47811">
        <ele>419.7</ele>
        <time>2026-08-06T13:46:55.000Z</time>
      </trkpt>
      <trkpt lat="46.18352" lon="2.47782">
        <ele>417.9</ele>
        <time>2026-08-06T13:46:57.000Z</time>
      </trkpt>
      <trkpt lat="46.18355" lon="2.47768">
        <ele>416.8</ele>
        <time>2026-08-06T13:46:58.000Z</time>
      </trkpt>
      <trkpt lat="46.18358" lon="2.47754">
        <ele>415.7</ele>
        <time>2026-08-06T13:46:59.000Z</time>
      </trkpt>
      <trkpt lat="46.18361" lon="2.47739">
        <ele>414.3</ele>
        <time>2026-08-06T13:47:00.000Z</time>
      </trkpt>
      <trkpt lat="46.18366" lon="2.47709">
        <ele>412.5</ele>
        <time>2026-08-06T13:47:02.000Z</time>
      </trkpt>
      <trkpt lat="46.18371" lon="2.4768">
        <ele>411.6</ele>
        <time>2026-08-06T13:47:04.000Z</time>
      </trkpt>
      <trkpt lat="46.18375" lon="2.47651">
        <ele>409.6</ele>
        <time>2026-08-06T13:47:06.000Z</time>
      </trkpt>
      <trkpt lat="46.18377" lon="2.47637">
        <ele>408.3</ele>
        <time>2026-08-06T13:47:07.000Z</time>
      </trkpt>
      <trkpt lat="46.18378" lon="2.47624">
        <ele>407.8</ele>
        <time>2026-08-06T13:47:08.000Z</time>
      </trkpt>
      <trkpt lat="46.18379" lon="2.47611">
        <ele>407.2</ele>
        <time>2026-08-06T13:47:09.000Z</time>
      </trkpt>
      <trkpt lat="46.1838" lon="2.47586">
        <ele>405.8</ele>
        <time>2026-08-06T13:47:11.000Z</time>
      </trkpt>
      <trkpt lat="46.1838" lon="2.4756">
        <ele>404.5</ele>
        <time>2026-08-06T13:47:13.000Z</time>
      </trkpt>
      <trkpt lat="46.18379" lon="2.47547">
        <ele>403.8</ele>
        <time>2026-08-06T13:47:14.000Z</time>
      </trkpt>
      <trkpt lat="46.18378" lon="2.47518">
        <ele>402.1</ele>
        <time>2026-08-06T13:47:16.000Z</time>
      </trkpt>
      <trkpt lat="46.18378" lon="2.47487">
        <ele>400</ele>
        <time>2026-08-06T13:47:18.000Z</time>
      </trkpt>
      <trkpt lat="46.18382" lon="2.47457">
        <ele>397.8</ele>
        <time>2026-08-06T13:47:20.000Z</time>
      </trkpt>
      <trkpt lat="46.18384" lon="2.47438">
        <ele>395.5</ele>
        <time>2026-08-06T13:47:21.000Z</time>
      </trkpt>
      <trkpt lat="46.18386" lon="2.47425">
        <ele>393.3</ele>
        <time>2026-08-06T13:47:22.000Z</time>
      </trkpt>
      <trkpt lat="46.18389" lon="2.47408">
        <ele>391.8</ele>
        <time>2026-08-06T13:47:23.000Z</time>
      </trkpt>
      <trkpt lat="46.18394" lon="2.47374">
        <ele>392.1</ele>
        <time>2026-08-06T13:47:25.000Z</time>
      </trkpt>
      <trkpt lat="46.18399" lon="2.47339">
        <ele>390.8</ele>
        <time>2026-08-06T13:47:27.000Z</time>
      </trkpt>
      <trkpt lat="46.18401" lon="2.47321">
        <ele>389.7</ele>
        <time>2026-08-06T13:47:28.000Z</time>
      </trkpt>
      <trkpt lat="46.18404" lon="2.47281">
        <ele>388.5</ele>
        <time>2026-08-06T13:47:30.000Z</time>
      </trkpt>
      <trkpt lat="46.18406" lon="2.47247">
        <ele>387.5</ele>
        <time>2026-08-06T13:47:32.000Z</time>
      </trkpt>
      <trkpt lat="46.18407" lon="2.4721">
        <ele>385.3</ele>
        <time>2026-08-06T13:47:34.000Z</time>
      </trkpt>
      <trkpt lat="46.18407" lon="2.47192">
        <ele>384.1</ele>
        <time>2026-08-06T13:47:35.000Z</time>
      </trkpt>
      <trkpt lat="46.18408" lon="2.47158">
        <ele>382.2</ele>
        <time>2026-08-06T13:47:37.000Z</time>
      </trkpt>
      <trkpt lat="46.18409" lon="2.47127">
        <ele>381.1</ele>
        <time>2026-08-06T13:47:39.000Z</time>
      </trkpt>
      <trkpt lat="46.18411" lon="2.47094">
        <ele>379.5</ele>
        <time>2026-08-06T13:47:41.000Z</time>
      </trkpt>
      <trkpt lat="46.18413" lon="2.4708">
        <ele>378</ele>
        <time>2026-08-06T13:47:42.000Z</time>
      </trkpt>
      <trkpt lat="46.18417" lon="2.4705">
        <ele>375.9</ele>
        <time>2026-08-06T13:47:44.000Z</time>
      </trkpt>
      <trkpt lat="46.18422" lon="2.47024">
        <ele>375.1</ele>
        <time>2026-08-06T13:47:46.000Z</time>
      </trkpt>
      <trkpt lat="46.18424" lon="2.47006">
        <ele>374.8</ele>
        <time>2026-08-06T13:47:47.000Z</time>
      </trkpt>
      <trkpt lat="46.18423" lon="2.46995">
        <ele>374.6</ele>
        <time>2026-08-06T13:47:48.000Z</time>
      </trkpt>
      <trkpt lat="46.18422" lon="2.4698">
        <ele>374.6</ele>
        <time>2026-08-06T13:47:49.000Z</time>
      </trkpt>
      <trkpt lat="46.18418" lon="2.46946">
        <ele>372.5</ele>
        <time>2026-08-06T13:47:51.000Z</time>
      </trkpt>
      <trkpt lat="46.18416" lon="2.46934">
        <ele>371.6</ele>
        <time>2026-08-06T13:47:52.000Z</time>
      </trkpt>
      <trkpt lat="46.18412" lon="2.46903">
        <ele>369.8</ele>
        <time>2026-08-06T13:47:54.000Z</time>
      </trkpt>
      <trkpt lat="46.1841" lon="2.46872">
        <ele>368.2</ele>
        <time>2026-08-06T13:47:56.000Z</time>
      </trkpt>
      <trkpt lat="46.18411" lon="2.46856">
        <ele>367.3</ele>
        <time>2026-08-06T13:47:57.000Z</time>
      </trkpt>
      <trkpt lat="46.18411" lon="2.46841">
        <ele>365.6</ele>
        <time>2026-08-06T13:47:58.000Z</time>
      </trkpt>
      <trkpt lat="46.18412" lon="2.46807">
        <ele>363</ele>
        <time>2026-08-06T13:48:00.000Z</time>
      </trkpt>
      <trkpt lat="46.18413" lon="2.46779">
        <ele>361.6</ele>
        <time>2026-08-06T13:48:02.000Z</time>
      </trkpt>
      <trkpt lat="46.18414" lon="2.4675">
        <ele>361.7</ele>
        <time>2026-08-06T13:48:04.000Z</time>
      </trkpt>
      <trkpt lat="46.18415" lon="2.46736">
        <ele>360.8</ele>
        <time>2026-08-06T13:48:05.000Z</time>
      </trkpt>
      <trkpt lat="46.18417" lon="2.46723">
        <ele>360.1</ele>
        <time>2026-08-06T13:48:06.000Z</time>
      </trkpt>
      <trkpt lat="46.1842" lon="2.46709">
        <ele>359.2</ele>
        <time>2026-08-06T13:48:07.000Z</time>
      </trkpt>
      <trkpt lat="46.18424" lon="2.46696">
        <ele>358.6</ele>
        <time>2026-08-06T13:48:08.000Z</time>
      </trkpt>
      <trkpt lat="46.18429" lon="2.46684">
        <ele>357.6</ele>
        <time>2026-08-06T13:48:09.000Z</time>
      </trkpt>
      <trkpt lat="46.18436" lon="2.4667">
        <ele>356.4</ele>
        <time>2026-08-06T13:48:10.000Z</time>
      </trkpt>
      <trkpt lat="46.18449" lon="2.46648">
        <ele>354.8</ele>
        <time>2026-08-06T13:48:12.000Z</time>
      </trkpt>
      <trkpt lat="46.18461" lon="2.46626">
        <ele>351.5</ele>
        <time>2026-08-06T13:48:14.000Z</time>
      </trkpt>
      <trkpt lat="46.18466" lon="2.46617">
        <ele>350.6</ele>
        <time>2026-08-06T13:48:15.000Z</time>
      </trkpt>
      <trkpt lat="46.18472" lon="2.46605">
        <ele>350.2</ele>
        <time>2026-08-06T13:48:16.000Z</time>
      </trkpt>
      <trkpt lat="46.18476" lon="2.46593">
        <ele>351.1</ele>
        <time>2026-08-06T13:48:17.000Z</time>
      </trkpt>
      <trkpt lat="46.1848" lon="2.46577">
        <ele>351.7</ele>
        <time>2026-08-06T13:48:18.000Z</time>
      </trkpt>
      <trkpt lat="46.18482" lon="2.46562">
        <ele>351.7</ele>
        <time>2026-08-06T13:48:19.000Z</time>
      </trkpt>
      <trkpt lat="46.18485" lon="2.46533">
        <ele>350.6</ele>
        <time>2026-08-06T13:48:21.000Z</time>
      </trkpt>
      <trkpt lat="46.18486" lon="2.46518">
        <ele>349.1</ele>
        <time>2026-08-06T13:48:22.000Z</time>
      </trkpt>
      <trkpt lat="46.18489" lon="2.46488">
        <ele>347.5</ele>
        <time>2026-08-06T13:48:24.000Z</time>
      </trkpt>
      <trkpt lat="46.18489" lon="2.46474">
        <ele>347.1</ele>
        <time>2026-08-06T13:48:25.000Z</time>
      </trkpt>
      <trkpt lat="46.18489" lon="2.46461">
        <ele>346.6</ele>
        <time>2026-08-06T13:48:26.000Z</time>
      </trkpt>
      <trkpt lat="46.18488" lon="2.46428">
        <ele>345.5</ele>
        <time>2026-08-06T13:48:28.000Z</time>
      </trkpt>
      <trkpt lat="46.18486" lon="2.46399">
        <ele>344.1</ele>
        <time>2026-08-06T13:48:30.000Z</time>
      </trkpt>
      <trkpt lat="46.18485" lon="2.46374">
        <ele>342.3</ele>
        <time>2026-08-06T13:48:32.000Z</time>
      </trkpt>
      <trkpt lat="46.18485" lon="2.46357">
        <ele>341.2</ele>
        <time>2026-08-06T13:48:33.000Z</time>
      </trkpt>
      <trkpt lat="46.18485" lon="2.46329">
        <ele>339.5</ele>
        <time>2026-08-06T13:48:35.000Z</time>
      </trkpt>
      <trkpt lat="46.18486" lon="2.46301">
        <ele>337.6</ele>
        <time>2026-08-06T13:48:37.000Z</time>
      </trkpt>
      <trkpt lat="46.18487" lon="2.46286">
        <ele>337.4</ele>
        <time>2026-08-06T13:48:38.000Z</time>
      </trkpt>
      <trkpt lat="46.18492" lon="2.46254">
        <ele>335.9</ele>
        <time>2026-08-06T13:48:40.000Z</time>
      </trkpt>
      <trkpt lat="46.18496" lon="2.46224">
        <ele>333.6</ele>
        <time>2026-08-06T13:48:42.000Z</time>
      </trkpt>
      <trkpt lat="46.18501" lon="2.46198">
        <ele>331.7</ele>
        <time>2026-08-06T13:48:44.000Z</time>
      </trkpt>
      <trkpt lat="46.1851" lon="2.46168">
        <ele>333.2</ele>
        <time>2026-08-06T13:48:46.000Z</time>
      </trkpt>
      <trkpt lat="46.18518" lon="2.46142">
        <ele>330.7</ele>
        <time>2026-08-06T13:48:48.000Z</time>
      </trkpt>
      <trkpt lat="46.18522" lon="2.46129">
        <ele>329.8</ele>
        <time>2026-08-06T13:48:49.000Z</time>
      </trkpt>
      <trkpt lat="46.18525" lon="2.46118">
        <ele>329.3</ele>
        <time>2026-08-06T13:48:50.000Z</time>
      </trkpt>
      <trkpt lat="46.18527" lon="2.46102">
        <ele>328.9</ele>
        <time>2026-08-06T13:48:51.000Z</time>
      </trkpt>
      <trkpt lat="46.18526" lon="2.4609">
        <ele>328.9</ele>
        <time>2026-08-06T13:48:52.000Z</time>
      </trkpt>
      <trkpt lat="46.18524" lon="2.46077">
        <ele>328.8</ele>
        <time>2026-08-06T13:48:53.000Z</time>
      </trkpt>
      <trkpt lat="46.1852" lon="2.46066">
        <ele>328.7</ele>
        <time>2026-08-06T13:48:54.000Z</time>
      </trkpt>
      <trkpt lat="46.18517" lon="2.46054">
        <ele>328.5</ele>
        <time>2026-08-06T13:48:55.000Z</time>
      </trkpt>
      <trkpt lat="46.18506" lon="2.46015">
        <ele>327.5</ele>
        <time>2026-08-06T13:48:59.000Z</time>
      </trkpt>
      <trkpt lat="46.185" lon="2.45998">
        <ele>328</ele>
        <time>2026-08-06T13:49:01.000Z</time>
      </trkpt>
      <trkpt lat="46.18491" lon="2.45967">
        <ele>329.4</ele>
        <time>2026-08-06T13:49:05.000Z</time>
      </trkpt>
      <trkpt lat="46.18482" lon="2.45938">
        <ele>329.7</ele>
        <time>2026-08-06T13:49:10.000Z</time>
      </trkpt>
      <trkpt lat="46.18475" lon="2.4591">
        <ele>329.3</ele>
        <time>2026-08-06T13:49:16.000Z</time>
      </trkpt>
      <trkpt lat="46.18468" lon="2.45884">
        <ele>331.1</ele>
        <time>2026-08-06T13:49:22.000Z</time>
      </trkpt>
      <trkpt lat="46.1846" lon="2.45861">
        <ele>332.4</ele>
        <time>2026-08-06T13:49:28.000Z</time>
      </trkpt>
      <trkpt lat="46.18448" lon="2.4582">
        <ele>331.4</ele>
        <time>2026-08-06T13:49:39.000Z</time>
      </trkpt>
      <trkpt lat="46.18443" lon="2.45801">
        <ele>331.8</ele>
        <time>2026-08-06T13:49:44.000Z</time>
      </trkpt>
      <trkpt lat="46.1844" lon="2.45792">
        <ele>331.2</ele>
        <time>2026-08-06T13:49:46.000Z</time>
      </trkpt>
      <trkpt lat="46.18426" lon="2.45748">
        <ele>331.3</ele>
        <time>2026-08-06T13:49:57.000Z</time>
      </trkpt>
      <trkpt lat="46.18419" lon="2.45715">
        <ele>332.7</ele>
        <time>2026-08-06T13:50:05.000Z</time>
      </trkpt>
      <trkpt lat="46.18417" lon="2.45701">
        <ele>333</ele>
        <time>2026-08-06T13:50:08.000Z</time>
      </trkpt>
      <trkpt lat="46.18413" lon="2.45669">
        <ele>334.3</ele>
        <time>2026-08-06T13:50:14.000Z</time>
      </trkpt>
      <trkpt lat="46.18413" lon="2.45625">
        <ele>332.2</ele>
        <time>2026-08-06T13:50:20.000Z</time>
      </trkpt>
      <trkpt lat="46.18414" lon="2.45569">
        <ele>331</ele>
        <time>2026-08-06T13:50:26.000Z</time>
      </trkpt>
      <trkpt lat="46.18415" lon="2.4556">
        <ele>330.8</ele>
        <time>2026-08-06T13:50:27.000Z</time>
      </trkpt>
      <trkpt lat="46.18417" lon="2.45529">
        <ele>329.9</ele>
        <time>2026-08-06T13:50:30.000Z</time>
      </trkpt>
      <trkpt lat="46.18419" lon="2.45499">
        <ele>328.7</ele>
        <time>2026-08-06T13:50:33.000Z</time>
      </trkpt>
      <trkpt lat="46.18424" lon="2.45421">
        <ele>327.6</ele>
        <time>2026-08-06T13:50:41.000Z</time>
      </trkpt>
      <trkpt lat="46.18424" lon="2.45411">
        <ele>327.8</ele>
        <time>2026-08-06T13:50:42.000Z</time>
      </trkpt>
      <trkpt lat="46.18425" lon="2.45401">
        <ele>327.9</ele>
        <time>2026-08-06T13:50:43.000Z</time>
      </trkpt>
      <trkpt lat="46.18428" lon="2.45335">
        <ele>327.5</ele>
        <time>2026-08-06T13:50:50.000Z</time>
      </trkpt>
      <trkpt lat="46.18431" lon="2.45265">
        <ele>326.8</ele>
        <time>2026-08-06T13:50:57.000Z</time>
      </trkpt>
      <trkpt lat="46.18431" lon="2.45243">
        <ele>327</ele>
        <time>2026-08-06T13:50:59.000Z</time>
      </trkpt>
      <trkpt lat="46.18429" lon="2.45198">
        <ele>328.3</ele>
        <time>2026-08-06T13:51:04.000Z</time>
      </trkpt>
      <trkpt lat="46.18425" lon="2.45156">
        <ele>328.1</ele>
        <time>2026-08-06T13:51:09.000Z</time>
      </trkpt>
      <trkpt lat="46.1842" lon="2.45132">
        <ele>326.6</ele>
        <time>2026-08-06T13:51:12.000Z</time>
      </trkpt>
      <trkpt lat="46.18419" lon="2.45126">
        <ele>326.2</ele>
        <time>2026-08-06T13:51:13.000Z</time>
      </trkpt>
      <trkpt lat="46.18417" lon="2.45109">
        <ele>325</ele>
        <time>2026-08-06T13:51:15.000Z</time>
      </trkpt>
      <trkpt lat="46.18411" lon="2.45067">
        <ele>329.2</ele>
        <time>2026-08-06T13:51:20.000Z</time>
      </trkpt>
      <trkpt lat="46.18408" lon="2.45053">
        <ele>329.7</ele>
        <time>2026-08-06T13:51:22.000Z</time>
      </trkpt>
      <trkpt lat="46.18399" lon="2.44987">
        <ele>326.5</ele>
        <time>2026-08-06T13:51:31.000Z</time>
      </trkpt>
      <trkpt lat="46.18394" lon="2.44948">
        <ele>325.5</ele>
        <time>2026-08-06T13:51:36.000Z</time>
      </trkpt>
      <trkpt lat="46.18389" lon="2.44919">
        <ele>325.1</ele>
        <time>2026-08-06T13:51:40.000Z</time>
      </trkpt>
      <trkpt lat="46.18378" lon="2.44854">
        <ele>329.2</ele>
        <time>2026-08-06T13:51:49.000Z</time>
      </trkpt>
      <trkpt lat="46.18373" lon="2.44816">
        <ele>326.5</ele>
        <time>2026-08-06T13:51:54.000Z</time>
      </trkpt>
      <trkpt lat="46.18372" lon="2.44792">
        <ele>326.9</ele>
        <time>2026-08-06T13:51:57.000Z</time>
      </trkpt>
      <trkpt lat="46.18372" lon="2.44784">
        <ele>328.1</ele>
        <time>2026-08-06T13:51:58.000Z</time>
      </trkpt>
      <trkpt lat="46.18373" lon="2.44763">
        <ele>329.6</ele>
        <time>2026-08-06T13:52:01.000Z</time>
      </trkpt>
      <trkpt lat="46.18374" lon="2.44756">
        <ele>329.9</ele>
        <time>2026-08-06T13:52:02.000Z</time>
      </trkpt>
      <trkpt lat="46.1838" lon="2.44709">
        <ele>328.4</ele>
        <time>2026-08-06T13:52:09.000Z</time>
      </trkpt>
      <trkpt lat="46.18382" lon="2.44686">
        <ele>328.9</ele>
        <time>2026-08-06T13:52:13.000Z</time>
      </trkpt>
      <trkpt lat="46.18383" lon="2.44675">
        <ele>328.9</ele>
        <time>2026-08-06T13:52:15.000Z</time>
      </trkpt>
      <trkpt lat="46.18383" lon="2.4467">
        <ele>328.9</ele>
        <time>2026-08-06T13:52:16.000Z</time>
      </trkpt>
      <trkpt lat="46.18385" lon="2.44645">
        <ele>329.1</ele>
        <time>2026-08-06T13:52:21.000Z</time>
      </trkpt>
      <trkpt lat="46.18389" lon="2.44625">
        <ele>328</ele>
        <time>2026-08-06T13:52:25.000Z</time>
      </trkpt>
      <trkpt lat="46.18391" lon="2.44614">
        <ele>328.3</ele>
        <time>2026-08-06T13:52:27.000Z</time>
      </trkpt>
      <trkpt lat="46.18394" lon="2.44573">
        <ele>330.5</ele>
        <time>2026-08-06T13:52:34.000Z</time>
      </trkpt>
      <trkpt lat="46.18402" lon="2.44528">
        <ele>331.3</ele>
        <time>2026-08-06T13:52:41.000Z</time>
      </trkpt>
      <trkpt lat="46.18405" lon="2.44511">
        <ele>330.8</ele>
        <time>2026-08-06T13:52:44.000Z</time>
      </trkpt>
      <trkpt lat="46.18412" lon="2.44485">
        <ele>328.7</ele>
        <time>2026-08-06T13:52:48.000Z</time>
      </trkpt>
      <trkpt lat="46.18421" lon="2.44446">
        <ele>328</ele>
        <time>2026-08-06T13:52:54.000Z</time>
      </trkpt>
      <trkpt lat="46.18425" lon="2.44426">
        <ele>328.1</ele>
        <time>2026-08-06T13:52:57.000Z</time>
      </trkpt>
      <trkpt lat="46.18427" lon="2.44419">
        <ele>328</ele>
        <time>2026-08-06T13:52:58.000Z</time>
      </trkpt>
      <trkpt lat="46.1843" lon="2.44407">
        <ele>328</ele>
        <time>2026-08-06T13:53:00.000Z</time>
      </trkpt>
      <trkpt lat="46.18432" lon="2.44401">
        <ele>327.8</ele>
        <time>2026-08-06T13:53:01.000Z</time>
      </trkpt>
      <trkpt lat="46.18434" lon="2.44396">
        <ele>327.4</ele>
        <time>2026-08-06T13:53:02.000Z</time>
      </trkpt>
      <trkpt lat="46.1844" lon="2.44376">
        <ele>327.2</ele>
        <time>2026-08-06T13:53:05.000Z</time>
      </trkpt>
      <trkpt lat="46.18442" lon="2.4437">
        <ele>327</ele>
        <time>2026-08-06T13:53:06.000Z</time>
      </trkpt>
      <trkpt lat="46.18448" lon="2.44333">
        <ele>328.4</ele>
        <time>2026-08-06T13:53:12.000Z</time>
      </trkpt>
      <trkpt lat="46.1845" lon="2.44329">
        <ele>328.3</ele>
        <time>2026-08-06T13:53:13.000Z</time>
      </trkpt>
      <trkpt lat="46.1845" lon="2.44324">
        <ele>328.2</ele>
        <time>2026-08-06T13:53:16.000Z</time>
      </trkpt>
      <trkpt lat="46.1845" lon="2.44324">
        <ele>328.2</ele>
        <time>2026-08-06T13:53:17.000Z</time>
      </trkpt>
      <trkpt lat="46.18451" lon="2.44317">
        <ele>328.1</ele>
        <time>2026-08-06T13:53:45.000Z</time>
      </trkpt>
      <trkpt lat="46.18452" lon="2.44312">
        <ele>327.9</ele>
        <time>2026-08-06T13:53:47.000Z</time>
      </trkpt>
      <trkpt lat="46.18454" lon="2.44305">
        <ele>327.7</ele>
        <time>2026-08-06T13:53:49.000Z</time>
      </trkpt>
      <trkpt lat="46.18457" lon="2.4429">
        <ele>329</ele>
        <time>2026-08-06T13:53:53.000Z</time>
      </trkpt>
      <trkpt lat="46.18465" lon="2.44257">
        <ele>329.3</ele>
        <time>2026-08-06T13:53:59.000Z</time>
      </trkpt>
      <trkpt lat="46.18475" lon="2.44211">
        <ele>328.1</ele>
        <time>2026-08-06T13:54:07.000Z</time>
      </trkpt>
      <trkpt lat="46.18487" lon="2.44149">
        <ele>329.4</ele>
        <time>2026-08-06T13:54:17.000Z</time>
      </trkpt>
      <trkpt lat="46.18505" lon="2.4408">
        <ele>328.8</ele>
        <time>2026-08-06T13:54:28.000Z</time>
      </trkpt>
      <trkpt lat="46.18519" lon="2.44022">
        <ele>330.1</ele>
        <time>2026-08-06T13:54:38.000Z</time>
      </trkpt>
      <trkpt lat="46.18523" lon="2.44004">
        <ele>330.2</ele>
        <time>2026-08-06T13:54:41.000Z</time>
      </trkpt>
      <trkpt lat="46.18529" lon="2.4397">
        <ele>330</ele>
        <time>2026-08-06T13:54:48.000Z</time>
      </trkpt>
      <trkpt lat="46.18534" lon="2.43923">
        <ele>332.4</ele>
        <time>2026-08-06T13:54:57.000Z</time>
      </trkpt>
      <trkpt lat="46.18534" lon="2.43918">
        <ele>332.7</ele>
        <time>2026-08-06T13:54:58.000Z</time>
      </trkpt>
      <trkpt lat="46.18531" lon="2.43869">
        <ele>333.3</ele>
        <time>2026-08-06T13:55:07.000Z</time>
      </trkpt>
      <trkpt lat="46.18529" lon="2.43852">
        <ele>333.2</ele>
        <time>2026-08-06T13:55:10.000Z</time>
      </trkpt>
      <trkpt lat="46.18523" lon="2.43824">
        <ele>332.2</ele>
        <time>2026-08-06T13:55:15.000Z</time>
      </trkpt>
      <trkpt lat="46.18514" lon="2.43766">
        <ele>332.4</ele>
        <time>2026-08-06T13:55:25.000Z</time>
      </trkpt>
      <trkpt lat="46.18514" lon="2.43762">
        <ele>332.6</ele>
        <time>2026-08-06T13:55:26.000Z</time>
      </trkpt>
      <trkpt lat="46.18512" lon="2.43722">
        <ele>333.7</ele>
        <time>2026-08-06T13:55:34.000Z</time>
      </trkpt>
      <trkpt lat="46.18512" lon="2.43708">
        <ele>333.8</ele>
        <time>2026-08-06T13:55:37.000Z</time>
      </trkpt>
      <trkpt lat="46.18512" lon="2.4368">
        <ele>334.8</ele>
        <time>2026-08-06T13:55:43.000Z</time>
      </trkpt>
      <trkpt lat="46.18511" lon="2.4366">
        <ele>336.1</ele>
        <time>2026-08-06T13:55:47.000Z</time>
      </trkpt>
      <trkpt lat="46.1851" lon="2.43635">
        <ele>337.3</ele>
        <time>2026-08-06T13:55:52.000Z</time>
      </trkpt>
      <trkpt lat="46.18511" lon="2.43611">
        <ele>337.2</ele>
        <time>2026-08-06T13:55:57.000Z</time>
      </trkpt>
      <trkpt lat="46.1851" lon="2.43605">
        <ele>337.2</ele>
        <time>2026-08-06T13:55:58.000Z</time>
      </trkpt>
      <trkpt lat="46.1851" lon="2.4356">
        <ele>336</ele>
        <time>2026-08-06T13:56:05.000Z</time>
      </trkpt>
      <trkpt lat="46.18509" lon="2.43517">
        <ele>335.2</ele>
        <time>2026-08-06T13:56:10.000Z</time>
      </trkpt>
      <trkpt lat="46.18509" lon="2.43509">
        <ele>335</ele>
        <time>2026-08-06T13:56:11.000Z</time>
      </trkpt>
      <trkpt lat="46.18511" lon="2.43453">
        <ele>333.2</ele>
        <time>2026-08-06T13:56:17.000Z</time>
      </trkpt>
      <trkpt lat="46.18511" lon="2.43436">
        <ele>333.4</ele>
        <time>2026-08-06T13:56:19.000Z</time>
      </trkpt>
      <trkpt lat="46.18512" lon="2.4339">
        <ele>333.3</ele>
        <time>2026-08-06T13:56:24.000Z</time>
      </trkpt>
      <trkpt lat="46.18511" lon="2.43361">
        <ele>334</ele>
        <time>2026-08-06T13:56:28.000Z</time>
      </trkpt>
      <trkpt lat="46.18511" lon="2.43349">
        <ele>334.5</ele>
        <time>2026-08-06T13:56:30.000Z</time>
      </trkpt>
      <trkpt lat="46.1851" lon="2.43332">
        <ele>335.4</ele>
        <time>2026-08-06T13:56:33.000Z</time>
      </trkpt>
      <trkpt lat="46.1851" lon="2.43296">
        <ele>335.4</ele>
        <time>2026-08-06T13:56:39.000Z</time>
      </trkpt>
      <trkpt lat="46.18513" lon="2.43261">
        <ele>334.4</ele>
        <time>2026-08-06T13:56:45.000Z</time>
      </trkpt>
      <trkpt lat="46.18512" lon="2.43217">
        <ele>333.3</ele>
        <time>2026-08-06T13:56:51.000Z</time>
      </trkpt>
      <trkpt lat="46.1851" lon="2.43148">
        <ele>332.2</ele>
        <time>2026-08-06T13:57:00.000Z</time>
      </trkpt>
      <trkpt lat="46.18509" lon="2.43091">
        <ele>331.9</ele>
        <time>2026-08-06T13:57:08.000Z</time>
      </trkpt>
      <trkpt lat="46.1851" lon="2.43083">
        <ele>331.6</ele>
        <time>2026-08-06T13:57:09.000Z</time>
      </trkpt>
      <trkpt lat="46.18511" lon="2.43076">
        <ele>331.5</ele>
        <time>2026-08-06T13:57:10.000Z</time>
      </trkpt>
      <trkpt lat="46.18516" lon="2.43061">
        <ele>331.2</ele>
        <time>2026-08-06T13:57:12.000Z</time>
      </trkpt>
      <trkpt lat="46.18525" lon="2.43047">
        <ele>330.4</ele>
        <time>2026-08-06T13:57:14.000Z</time>
      </trkpt>
      <trkpt lat="46.1853" lon="2.43041">
        <ele>329.9</ele>
        <time>2026-08-06T13:57:15.000Z</time>
      </trkpt>
      <trkpt lat="46.18549" lon="2.43024">
        <ele>329.1</ele>
        <time>2026-08-06T13:57:18.000Z</time>
      </trkpt>
      <trkpt lat="46.18574" lon="2.43007">
        <ele>328.6</ele>
        <time>2026-08-06T13:57:22.000Z</time>
      </trkpt>
      <trkpt lat="46.18589" lon="2.42997">
        <ele>328.9</ele>
        <time>2026-08-06T13:57:25.000Z</time>
      </trkpt>
      <trkpt lat="46.18593" lon="2.42997">
        <ele>328.9</ele>
        <time>2026-08-06T13:57:26.000Z</time>
      </trkpt>
      <trkpt lat="46.18602" lon="2.42997">
        <ele>329</ele>
        <time>2026-08-06T13:57:30.000Z</time>
      </trkpt>
      <trkpt lat="46.18605" lon="2.42999">
        <ele>329</ele>
        <time>2026-08-06T13:57:32.000Z</time>
      </trkpt>
      <trkpt lat="46.18609" lon="2.43005">
        <ele>329</ele>
        <time>2026-08-06T13:57:34.000Z</time>
      </trkpt>
      <trkpt lat="46.1861" lon="2.43007">
        <ele>329</ele>
        <time>2026-08-06T13:57:35.000Z</time>
      </trkpt>
      <trkpt lat="46.18626" lon="2.43026">
        <ele>328.4</ele>
        <time>2026-08-06T13:57:42.000Z</time>
      </trkpt>
      <trkpt lat="46.18639" lon="2.43039">
        <ele>328</ele>
        <time>2026-08-06T13:57:48.000Z</time>
      </trkpt>
      <trkpt lat="46.1864" lon="2.43043">
        <ele>328</ele>
        <time>2026-08-06T13:57:51.000Z</time>
      </trkpt>
      <trkpt lat="46.18639" lon="2.43047">
        <ele>328</ele>
        <time>2026-08-06T13:57:53.000Z</time>
      </trkpt>
      <trkpt lat="46.18639" lon="2.43047">
        <ele>328</ele>
        <time>2026-08-06T13:57:56.000Z</time>
      </trkpt>
      <trkpt lat="46.1864" lon="2.43046">
        <ele>328</ele>
        <time>2026-08-06T13:57:57.000Z</time>
      </trkpt>
      <trkpt lat="46.1864" lon="2.43046">
        <ele>328</ele>
        <time>2026-08-06T13:57:58.000Z</time>
      </trkpt>
      <trkpt lat="46.18641" lon="2.43045">
        <ele>328</ele>
        <time>2026-08-06T13:57:59.000Z</time>
      </trkpt>
      <trkpt lat="46.18641" lon="2.43042">
        <ele>328</ele>
        <time>2026-08-06T13:58:01.000Z</time>
      </trkpt>
      <trkpt lat="46.18641" lon="2.43042">
        <ele>328</ele>
        <time>2026-08-06T13:58:02.000Z</time>
      </trkpt>
      <trkpt lat="46.18641" lon="2.43042">
        <ele>328</ele>
        <time>2026-08-06T13:58:04.000Z</time>
      </trkpt>
      <trkpt lat="46.18641" lon="2.43027">
        <ele>328</ele>
        <time>2026-08-06T14:09:21.000Z</time>
      </trkpt>
      <trkpt lat="46.18643" lon="2.43025">
        <ele>328</ele>
        <time>2026-08-06T14:09:22.000Z</time>
      </trkpt>
      <trkpt lat="46.18645" lon="2.43022">
        <ele>328</ele>
        <time>2026-08-06T14:09:24.000Z</time>
      </trkpt>
      <trkpt lat="46.18645" lon="2.43022">
        <ele>328</ele>
        <time>2026-08-06T14:09:26.000Z</time>
      </trkpt>
      <trkpt lat="46.18644" lon="2.43025">
        <ele>328</ele>
        <time>2026-08-06T14:09:28.000Z</time>
      </trkpt>
      <trkpt lat="46.18643" lon="2.43032">
        <ele>328</ele>
        <time>2026-08-06T14:09:32.000Z</time>
      </trkpt>
      <trkpt lat="46.18642" lon="2.43036">
        <ele>328</ele>
        <time>2026-08-06T14:09:34.000Z</time>
      </trkpt>
      <trkpt lat="46.18642" lon="2.43039">
        <ele>328</ele>
        <time>2026-08-06T14:09:39.000Z</time>
      </trkpt>
      <trkpt lat="46.18643" lon="2.43042">
        <ele>328</ele>
        <time>2026-08-06T14:12:43.000Z</time>
      </trkpt>
      <trkpt lat="46.18642" lon="2.43043">
        <ele>328</ele>
        <time>2026-08-06T14:12:45.000Z</time>
      </trkpt>
      <trkpt lat="46.18641" lon="2.43043">
        <ele>328</ele>
        <time>2026-08-06T14:12:46.000Z</time>
      </trkpt>
      <trkpt lat="46.1864" lon="2.4304">
        <ele>328</ele>
        <time>2026-08-06T14:12:48.000Z</time>
      </trkpt>
      <trkpt lat="46.1864" lon="2.4304">
        <ele>328</ele>
        <time>2026-08-06T14:12:49.000Z</time>
      </trkpt>
      <trkpt lat="46.18639" lon="2.43027">
        <ele>328</ele>
        <time>2026-08-06T14:13:27.000Z</time>
      </trkpt>
      <trkpt lat="46.18638" lon="2.43024">
        <ele>328</ele>
        <time>2026-08-06T14:13:29.000Z</time>
      </trkpt>
      <trkpt lat="46.18636" lon="2.43016">
        <ele>328.1</ele>
        <time>2026-08-06T14:13:34.000Z</time>
      </trkpt>
      <trkpt lat="46.18636" lon="2.43011">
        <ele>328.1</ele>
        <time>2026-08-06T14:13:36.000Z</time>
      </trkpt>
      <trkpt lat="46.18638" lon="2.43009">
        <ele>328</ele>
        <time>2026-08-06T14:13:38.000Z</time>
      </trkpt>
      <trkpt lat="46.18651" lon="2.43004">
        <ele>328</ele>
        <time>2026-08-06T14:13:44.000Z</time>
      </trkpt>
      <trkpt lat="46.18662" lon="2.43005">
        <ele>328</ele>
        <time>2026-08-06T14:13:49.000Z</time>
      </trkpt>
      <trkpt lat="46.18666" lon="2.43005">
        <ele>328</ele>
        <time>2026-08-06T14:13:51.000Z</time>
      </trkpt>
      <trkpt lat="46.18681" lon="2.42999">
        <ele>328</ele>
        <time>2026-08-06T14:13:57.000Z</time>
      </trkpt>
      <trkpt lat="46.18689" lon="2.42975">
        <ele>328</ele>
        <time>2026-08-06T14:14:04.000Z</time>
      </trkpt>
      <trkpt lat="46.18696" lon="2.42946">
        <ele>328.9</ele>
        <time>2026-08-06T14:14:12.000Z</time>
      </trkpt>
      <trkpt lat="46.18699" lon="2.42928">
        <ele>329.4</ele>
        <time>2026-08-06T14:14:18.000Z</time>
      </trkpt>
      <trkpt lat="46.18702" lon="2.42919">
        <ele>329.6</ele>
        <time>2026-08-06T14:14:23.000Z</time>
      </trkpt>
      <trkpt lat="46.18705" lon="2.42907">
        <ele>329.7</ele>
        <time>2026-08-06T14:14:28.000Z</time>
      </trkpt>
      <trkpt lat="46.18708" lon="2.42901">
        <ele>329.8</ele>
        <time>2026-08-06T14:14:31.000Z</time>
      </trkpt>
      <trkpt lat="46.18716" lon="2.42894">
        <ele>330.3</ele>
        <time>2026-08-06T14:14:35.000Z</time>
      </trkpt>
      <trkpt lat="46.18723" lon="2.42889">
        <ele>330.9</ele>
        <time>2026-08-06T14:14:39.000Z</time>
      </trkpt>
      <trkpt lat="46.18731" lon="2.42882">
        <ele>329</ele>
        <time>2026-08-06T14:14:44.000Z</time>
      </trkpt>
      <trkpt lat="46.18736" lon="2.42877">
        <ele>328.1</ele>
        <time>2026-08-06T14:14:47.000Z</time>
      </trkpt>
      <trkpt lat="46.18759" lon="2.42858">
        <ele>328</ele>
        <time>2026-08-06T14:14:57.000Z</time>
      </trkpt>
      <trkpt lat="46.1878" lon="2.42841">
        <ele>330.7</ele>
        <time>2026-08-06T14:15:05.000Z</time>
      </trkpt>
      <trkpt lat="46.18797" lon="2.42825">
        <ele>330.2</ele>
        <time>2026-08-06T14:15:10.000Z</time>
      </trkpt>
      <trkpt lat="46.18808" lon="2.42812">
        <ele>329.9</ele>
        <time>2026-08-06T14:15:13.000Z</time>
      </trkpt>
      <trkpt lat="46.18814" lon="2.42801">
        <ele>329.7</ele>
        <time>2026-08-06T14:15:15.000Z</time>
      </trkpt>
      <trkpt lat="46.18818" lon="2.4279">
        <ele>329.3</ele>
        <time>2026-08-06T14:15:17.000Z</time>
      </trkpt>
      <trkpt lat="46.18819" lon="2.42784">
        <ele>329.1</ele>
        <time>2026-08-06T14:15:18.000Z</time>
      </trkpt>
      <trkpt lat="46.1882" lon="2.42772">
        <ele>328.9</ele>
        <time>2026-08-06T14:15:20.000Z</time>
      </trkpt>
      <trkpt lat="46.18821" lon="2.42766">
        <ele>328.7</ele>
        <time>2026-08-06T14:15:21.000Z</time>
      </trkpt>
      <trkpt lat="46.18827" lon="2.42721">
        <ele>329</ele>
        <time>2026-08-06T14:15:29.000Z</time>
      </trkpt>
      <trkpt lat="46.18829" lon="2.42696">
        <ele>328.9</ele>
        <time>2026-08-06T14:15:34.000Z</time>
      </trkpt>
      <trkpt lat="46.1883" lon="2.42693">
        <ele>328.9</ele>
        <time>2026-08-06T14:15:35.000Z</time>
      </trkpt>
      <trkpt lat="46.18831" lon="2.42691">
        <ele>328.9</ele>
        <time>2026-08-06T14:15:36.000Z</time>
      </trkpt>
      <trkpt lat="46.18835" lon="2.42689">
        <ele>329</ele>
        <time>2026-08-06T14:15:40.000Z</time>
      </trkpt>
      <trkpt lat="46.18838" lon="2.42688">
        <ele>329</ele>
        <time>2026-08-06T14:15:42.000Z</time>
      </trkpt>
      <trkpt lat="46.18841" lon="2.42682">
        <ele>329</ele>
        <time>2026-08-06T14:15:48.000Z</time>
      </trkpt>
      <trkpt lat="46.18841" lon="2.42682">
        <ele>329</ele>
        <time>2026-08-06T14:15:49.000Z</time>
      </trkpt>
      <trkpt lat="46.1884" lon="2.42672">
        <ele>329</ele>
        <time>2026-08-06T14:16:00.000Z</time>
      </trkpt>
      <trkpt lat="46.18839" lon="2.42663">
        <ele>329</ele>
        <time>2026-08-06T14:16:03.000Z</time>
      </trkpt>
      <trkpt lat="46.18837" lon="2.42644">
        <ele>329</ele>
        <time>2026-08-06T14:16:09.000Z</time>
      </trkpt>
      <trkpt lat="46.18836" lon="2.42631">
        <ele>329.1</ele>
        <time>2026-08-06T14:16:14.000Z</time>
      </trkpt>
      <trkpt lat="46.18836" lon="2.42628">
        <ele>329.1</ele>
        <time>2026-08-06T14:16:15.000Z</time>
      </trkpt>
      <trkpt lat="46.18834" lon="2.42628">
        <ele>329</ele>
        <time>2026-08-06T14:16:16.000Z</time>
      </trkpt>
      <trkpt lat="46.18832" lon="2.42631">
        <ele>329</ele>
        <time>2026-08-06T14:16:18.000Z</time>
      </trkpt>
      <trkpt lat="46.18831" lon="2.42648">
        <ele>329</ele>
        <time>2026-08-06T14:16:23.000Z</time>
      </trkpt>
      <trkpt lat="46.1883" lon="2.42661">
        <ele>328.9</ele>
        <time>2026-08-06T14:16:29.000Z</time>
      </trkpt>
      <trkpt lat="46.18831" lon="2.42665">
        <ele>328.9</ele>
        <time>2026-08-06T14:16:31.000Z</time>
      </trkpt>
      <trkpt lat="46.18834" lon="2.4267">
        <ele>329</ele>
        <time>2026-08-06T14:16:33.000Z</time>
      </trkpt>
      <trkpt lat="46.18854" lon="2.42675">
        <ele>329</ele>
        <time>2026-08-06T14:16:40.000Z</time>
      </trkpt>
      <trkpt lat="46.18877" lon="2.42682">
        <ele>329.3</ele>
        <time>2026-08-06T14:16:47.000Z</time>
      </trkpt>
      <trkpt lat="46.18883" lon="2.42681">
        <ele>329.4</ele>
        <time>2026-08-06T14:16:49.000Z</time>
      </trkpt>
      <trkpt lat="46.1889" lon="2.42682">
        <ele>329.5</ele>
        <time>2026-08-06T14:16:52.000Z</time>
      </trkpt>
      <trkpt lat="46.18892" lon="2.42682">
        <ele>329.7</ele>
        <time>2026-08-06T14:16:56.000Z</time>
      </trkpt>
      <trkpt lat="46.18896" lon="2.42683">
        <ele>329.9</ele>
        <time>2026-08-06T14:17:24.000Z</time>
      </trkpt>
      <trkpt lat="46.189" lon="2.42683">
        <ele>330.2</ele>
        <time>2026-08-06T14:17:26.000Z</time>
      </trkpt>
      <trkpt lat="46.18901" lon="2.42683">
        <ele>330.3</ele>
        <time>2026-08-06T14:17:27.000Z</time>
      </trkpt>
      <trkpt lat="46.18912" lon="2.42682">
        <ele>331.1</ele>
        <time>2026-08-06T14:17:32.000Z</time>
      </trkpt>
      <trkpt lat="46.18919" lon="2.42687">
        <ele>331.4</ele>
        <time>2026-08-06T14:17:38.000Z</time>
      </trkpt>
      <trkpt lat="46.18919" lon="2.42687">
        <ele>331.4</ele>
        <time>2026-08-06T14:17:39.000Z</time>
      </trkpt>
      <trkpt lat="46.1892" lon="2.42686">
        <ele>331.4</ele>
        <time>2026-08-06T14:17:41.000Z</time>
      </trkpt>
      <trkpt lat="46.18927" lon="2.42672">
        <ele>332.2</ele>
        <time>2026-08-06T14:17:51.000Z</time>
      </trkpt>
      <trkpt lat="46.18929" lon="2.4267">
        <ele>332.3</ele>
        <time>2026-08-06T14:17:52.000Z</time>
      </trkpt>
      <trkpt lat="46.18932" lon="2.42665">
        <ele>332.5</ele>
        <time>2026-08-06T14:17:54.000Z</time>
      </trkpt>
      <trkpt lat="46.18934" lon="2.42658">
        <ele>332.4</ele>
        <time>2026-08-06T14:17:56.000Z</time>
      </trkpt>
      <trkpt lat="46.18941" lon="2.42637">
        <ele>332</ele>
        <time>2026-08-06T14:18:02.000Z</time>
      </trkpt>
      <trkpt lat="46.18941" lon="2.4263">
        <ele>332</ele>
        <time>2026-08-06T14:18:04.000Z</time>
      </trkpt>
      <trkpt lat="46.1894" lon="2.42627">
        <ele>332</ele>
        <time>2026-08-06T14:18:05.000Z</time>
      </trkpt>
      <trkpt lat="46.18939" lon="2.42623">
        <ele>332</ele>
        <time>2026-08-06T14:18:06.000Z</time>
      </trkpt>
      <trkpt lat="46.18941" lon="2.42611">
        <ele>332</ele>
        <time>2026-08-06T14:18:09.000Z</time>
      </trkpt>
      <trkpt lat="46.18946" lon="2.42583">
        <ele>331</ele>
        <time>2026-08-06T14:18:15.000Z</time>
      </trkpt>
      <trkpt lat="46.18949" lon="2.42551">
        <ele>331.1</ele>
        <time>2026-08-06T14:18:21.000Z</time>
      </trkpt>
      <trkpt lat="46.18953" lon="2.42529">
        <ele>331.3</ele>
        <time>2026-08-06T14:18:26.000Z</time>
      </trkpt>
      <trkpt lat="46.18957" lon="2.42522">
        <ele>331.3</ele>
        <time>2026-08-06T14:18:28.000Z</time>
      </trkpt>
      <trkpt lat="46.18958" lon="2.42519">
        <ele>331.3</ele>
        <time>2026-08-06T14:18:29.000Z</time>
      </trkpt>
      <trkpt lat="46.18961" lon="2.42503">
        <ele>331.1</ele>
        <time>2026-08-06T14:18:33.000Z</time>
      </trkpt>
      <trkpt lat="46.18972" lon="2.42483">
        <ele>331</ele>
        <time>2026-08-06T14:18:39.000Z</time>
      </trkpt>
      <trkpt lat="46.18982" lon="2.42457">
        <ele>330.8</ele>
        <time>2026-08-06T14:18:45.000Z</time>
      </trkpt>
      <trkpt lat="46.18994" lon="2.42429">
        <ele>330.9</ele>
        <time>2026-08-06T14:18:51.000Z</time>
      </trkpt>
      <trkpt lat="46.19003" lon="2.42407">
        <ele>331.1</ele>
        <time>2026-08-06T14:18:56.000Z</time>
      </trkpt>
      <trkpt lat="46.19016" lon="2.42367">
        <ele>331.1</ele>
        <time>2026-08-06T14:19:04.000Z</time>
      </trkpt>
      <trkpt lat="46.19032" lon="2.42319">
        <ele>331.1</ele>
        <time>2026-08-06T14:19:14.000Z</time>
      </trkpt>
      <trkpt lat="46.19042" lon="2.42293">
        <ele>331</ele>
        <time>2026-08-06T14:19:20.000Z</time>
      </trkpt>
      <trkpt lat="46.19043" lon="2.42286">
        <ele>331</ele>
        <time>2026-08-06T14:19:22.000Z</time>
      </trkpt>
      <trkpt lat="46.19043" lon="2.42283">
        <ele>331</ele>
        <time>2026-08-06T14:19:23.000Z</time>
      </trkpt>
      <trkpt lat="46.19035" lon="2.42263">
        <ele>330.7</ele>
        <time>2026-08-06T14:19:28.000Z</time>
      </trkpt>
      <trkpt lat="46.1903" lon="2.42244">
        <ele>330.1</ele>
        <time>2026-08-06T14:19:32.000Z</time>
      </trkpt>
      <trkpt lat="46.19027" lon="2.42226">
        <ele>330</ele>
        <time>2026-08-06T14:19:35.000Z</time>
      </trkpt>
      <trkpt lat="46.19018" lon="2.4219">
        <ele>329.7</ele>
        <time>2026-08-06T14:19:41.000Z</time>
      </trkpt>
      <trkpt lat="46.19001" lon="2.42172">
        <ele>329.2</ele>
        <time>2026-08-06T14:19:46.000Z</time>
      </trkpt>
      <trkpt lat="46.18973" lon="2.42161">
        <ele>329.4</ele>
        <time>2026-08-06T14:19:53.000Z</time>
      </trkpt>
      <trkpt lat="46.18949" lon="2.42156">
        <ele>328.8</ele>
        <time>2026-08-06T14:20:00.000Z</time>
      </trkpt>
      <trkpt lat="46.18932" lon="2.42151">
        <ele>328.6</ele>
        <time>2026-08-06T14:20:06.000Z</time>
      </trkpt>
      <trkpt lat="46.18903" lon="2.42151">
        <ele>329.6</ele>
        <time>2026-08-06T14:20:16.000Z</time>
      </trkpt>
      <trkpt lat="46.18893" lon="2.4215">
        <ele>330</ele>
        <time>2026-08-06T14:20:21.000Z</time>
      </trkpt>
      <trkpt lat="46.18891" lon="2.42149">
        <ele>330</ele>
        <time>2026-08-06T14:20:22.000Z</time>
      </trkpt>
      <trkpt lat="46.18887" lon="2.42143">
        <ele>329.4</ele>
        <time>2026-08-06T14:20:25.000Z</time>
      </trkpt>
      <trkpt lat="46.18889" lon="2.42124">
        <ele>327.9</ele>
        <time>2026-08-06T14:20:31.000Z</time>
      </trkpt>
      <trkpt lat="46.18894" lon="2.42085">
        <ele>332.3</ele>
        <time>2026-08-06T14:20:40.000Z</time>
      </trkpt>
      <trkpt lat="46.18897" lon="2.42053">
        <ele>331.6</ele>
        <time>2026-08-06T14:20:47.000Z</time>
      </trkpt>
      <trkpt lat="46.18897" lon="2.42036">
        <ele>332.4</ele>
        <time>2026-08-06T14:20:51.000Z</time>
      </trkpt>
      <trkpt lat="46.1889" lon="2.42011">
        <ele>333.9</ele>
        <time>2026-08-06T14:20:57.000Z</time>
      </trkpt>
      <trkpt lat="46.18889" lon="2.42005">
        <ele>334</ele>
        <time>2026-08-06T14:20:58.000Z</time>
      </trkpt>
      <trkpt lat="46.18877" lon="2.41965">
        <ele>332.9</ele>
        <time>2026-08-06T14:21:06.000Z</time>
      </trkpt>
      <trkpt lat="46.18864" lon="2.41918">
        <ele>334.7</ele>
        <time>2026-08-06T14:21:15.000Z</time>
      </trkpt>
      <trkpt lat="46.18849" lon="2.41871">
        <ele>333.4</ele>
        <time>2026-08-06T14:21:24.000Z</time>
      </trkpt>
      <trkpt lat="46.18834" lon="2.41818">
        <ele>333.6</ele>
        <time>2026-08-06T14:21:34.000Z</time>
      </trkpt>
      <trkpt lat="46.18821" lon="2.41776">
        <ele>334</ele>
        <time>2026-08-06T14:21:42.000Z</time>
      </trkpt>
      <trkpt lat="46.18806" lon="2.41729">
        <ele>335.3</ele>
        <time>2026-08-06T14:21:51.000Z</time>
      </trkpt>
      <trkpt lat="46.18794" lon="2.41686">
        <ele>337.3</ele>
        <time>2026-08-06T14:21:59.000Z</time>
      </trkpt>
      <trkpt lat="46.18787" lon="2.41649">
        <ele>336.7</ele>
        <time>2026-08-06T14:22:06.000Z</time>
      </trkpt>
      <trkpt lat="46.18786" lon="2.41616">
        <ele>337.5</ele>
        <time>2026-08-06T14:22:12.000Z</time>
      </trkpt>
      <trkpt lat="46.18788" lon="2.41582">
        <ele>338.6</ele>
        <time>2026-08-06T14:22:19.000Z</time>
      </trkpt>
      <trkpt lat="46.18791" lon="2.41559">
        <ele>338.8</ele>
        <time>2026-08-06T14:22:24.000Z</time>
      </trkpt>
      <trkpt lat="46.18793" lon="2.41524">
        <ele>337.1</ele>
        <time>2026-08-06T14:22:31.000Z</time>
      </trkpt>
      <trkpt lat="46.18791" lon="2.41496">
        <ele>336.8</ele>
        <time>2026-08-06T14:22:37.000Z</time>
      </trkpt>
      <trkpt lat="46.18788" lon="2.41465">
        <ele>336.5</ele>
        <time>2026-08-06T14:22:43.000Z</time>
      </trkpt>
      <trkpt lat="46.18789" lon="2.41448">
        <ele>337.3</ele>
        <time>2026-08-06T14:22:48.000Z</time>
      </trkpt>
      <trkpt lat="46.18789" lon="2.41443">
        <ele>337.5</ele>
        <time>2026-08-06T14:22:49.000Z</time>
      </trkpt>
      <trkpt lat="46.18787" lon="2.41424">
        <ele>337.8</ele>
        <time>2026-08-06T14:22:54.000Z</time>
      </trkpt>
      <trkpt lat="46.18786" lon="2.41397">
        <ele>338.4</ele>
        <time>2026-08-06T14:23:00.000Z</time>
      </trkpt>
      <trkpt lat="46.18781" lon="2.41359">
        <ele>337</ele>
        <time>2026-08-06T14:23:07.000Z</time>
      </trkpt>
      <trkpt lat="46.18775" lon="2.41301">
        <ele>337.7</ele>
        <time>2026-08-06T14:23:18.000Z</time>
      </trkpt>
      <trkpt lat="46.18775" lon="2.41296">
        <ele>338</ele>
        <time>2026-08-06T14:23:19.000Z</time>
      </trkpt>
      <trkpt lat="46.18772" lon="2.41248">
        <ele>339.6</ele>
        <time>2026-08-06T14:23:27.000Z</time>
      </trkpt>
      <trkpt lat="46.18767" lon="2.41199">
        <ele>337.5</ele>
        <time>2026-08-06T14:23:35.000Z</time>
      </trkpt>
      <trkpt lat="46.18763" lon="2.41152">
        <ele>337.2</ele>
        <time>2026-08-06T14:23:43.000Z</time>
      </trkpt>
      <trkpt lat="46.18762" lon="2.41146">
        <ele>337.1</ele>
        <time>2026-08-06T14:23:44.000Z</time>
      </trkpt>
      <trkpt lat="46.18755" lon="2.41113">
        <ele>336.7</ele>
        <time>2026-08-06T14:23:50.000Z</time>
      </trkpt>
      <trkpt lat="46.18746" lon="2.41083">
        <ele>336.2</ele>
        <time>2026-08-06T14:23:55.000Z</time>
      </trkpt>
      <trkpt lat="46.18739" lon="2.41044">
        <ele>339.1</ele>
        <time>2026-08-06T14:24:01.000Z</time>
      </trkpt>
      <trkpt lat="46.18739" lon="2.41031">
        <ele>340.3</ele>
        <time>2026-08-06T14:24:03.000Z</time>
      </trkpt>
      <trkpt lat="46.18739" lon="2.41018">
        <ele>340.1</ele>
        <time>2026-08-06T14:24:05.000Z</time>
      </trkpt>
      <trkpt lat="46.18741" lon="2.40991">
        <ele>339.9</ele>
        <time>2026-08-06T14:24:09.000Z</time>
      </trkpt>
      <trkpt lat="46.18748" lon="2.40938">
        <ele>339.7</ele>
        <time>2026-08-06T14:24:17.000Z</time>
      </trkpt>
      <trkpt lat="46.18749" lon="2.40932">
        <ele>338.6</ele>
        <time>2026-08-06T14:24:18.000Z</time>
      </trkpt>
      <trkpt lat="46.18761" lon="2.40881">
        <ele>341</ele>
        <time>2026-08-06T14:24:26.000Z</time>
      </trkpt>
      <trkpt lat="46.18762" lon="2.40875">
        <ele>341.6</ele>
        <time>2026-08-06T14:24:27.000Z</time>
      </trkpt>
      <trkpt lat="46.18763" lon="2.4087">
        <ele>342.1</ele>
        <time>2026-08-06T14:24:28.000Z</time>
      </trkpt>
      <trkpt lat="46.18765" lon="2.40859">
        <ele>343.7</ele>
        <time>2026-08-06T14:24:30.000Z</time>
      </trkpt>
      <trkpt lat="46.18765" lon="2.40854">
        <ele>344.1</ele>
        <time>2026-08-06T14:24:31.000Z</time>
      </trkpt>
      <trkpt lat="46.18766" lon="2.40817">
        <ele>343.3</ele>
        <time>2026-08-06T14:24:38.000Z</time>
      </trkpt>
      <trkpt lat="46.18766" lon="2.40791">
        <ele>342.1</ele>
        <time>2026-08-06T14:24:43.000Z</time>
      </trkpt>
      <trkpt lat="46.18767" lon="2.40762">
        <ele>341.7</ele>
        <time>2026-08-06T14:24:48.000Z</time>
      </trkpt>
      <trkpt lat="46.18767" lon="2.40731">
        <ele>342.5</ele>
        <time>2026-08-06T14:24:53.000Z</time>
      </trkpt>
      <trkpt lat="46.18765" lon="2.4069">
        <ele>336.9</ele>
        <time>2026-08-06T14:25:00.000Z</time>
      </trkpt>
      <trkpt lat="46.18763" lon="2.40656">
        <ele>335.7</ele>
        <time>2026-08-06T14:25:06.000Z</time>
      </trkpt>
      <trkpt lat="46.18754" lon="2.40619">
        <ele>338</ele>
        <time>2026-08-06T14:25:13.000Z</time>
      </trkpt>
      <trkpt lat="46.18748" lon="2.40598">
        <ele>337.8</ele>
        <time>2026-08-06T14:25:17.000Z</time>
      </trkpt>
      <trkpt lat="46.18743" lon="2.40582">
        <ele>338.3</ele>
        <time>2026-08-06T14:25:20.000Z</time>
      </trkpt>
      <trkpt lat="46.18728" lon="2.40539">
        <ele>338.3</ele>
        <time>2026-08-06T14:25:30.000Z</time>
      </trkpt>
      <trkpt lat="46.1872" lon="2.40518">
        <ele>338.2</ele>
        <time>2026-08-06T14:25:35.000Z</time>
      </trkpt>
      <trkpt lat="46.18708" lon="2.40491">
        <ele>338.8</ele>
        <time>2026-08-06T14:25:42.000Z</time>
      </trkpt>
      <trkpt lat="46.18696" lon="2.40466">
        <ele>339.7</ele>
        <time>2026-08-06T14:25:49.000Z</time>
      </trkpt>
      <trkpt lat="46.18686" lon="2.40445">
        <ele>339.7</ele>
        <time>2026-08-06T14:25:55.000Z</time>
      </trkpt>
      <trkpt lat="46.18674" lon="2.40423">
        <ele>340.3</ele>
        <time>2026-08-06T14:26:02.000Z</time>
      </trkpt>
      <trkpt lat="46.18672" lon="2.40419">
        <ele>340.1</ele>
        <time>2026-08-06T14:26:03.000Z</time>
      </trkpt>
      <trkpt lat="46.18665" lon="2.40403">
        <ele>340.7</ele>
        <time>2026-08-06T14:26:08.000Z</time>
      </trkpt>
      <trkpt lat="46.18656" lon="2.40385">
        <ele>341.8</ele>
        <time>2026-08-06T14:26:14.000Z</time>
      </trkpt>
      <trkpt lat="46.18645" lon="2.40363">
        <ele>341.9</ele>
        <time>2026-08-06T14:26:21.000Z</time>
      </trkpt>
      <trkpt lat="46.18634" lon="2.40339">
        <ele>341</ele>
        <time>2026-08-06T14:26:28.000Z</time>
      </trkpt>
      <trkpt lat="46.18617" lon="2.403">
        <ele>342</ele>
        <time>2026-08-06T14:26:38.000Z</time>
      </trkpt>
      <trkpt lat="46.18602" lon="2.40267">
        <ele>341.2</ele>
        <time>2026-08-06T14:26:46.000Z</time>
      </trkpt>
      <trkpt lat="46.18597" lon="2.40256">
        <ele>341.4</ele>
        <time>2026-08-06T14:26:49.000Z</time>
      </trkpt>
      <trkpt lat="46.18584" lon="2.40226">
        <ele>342.6</ele>
        <time>2026-08-06T14:26:57.000Z</time>
      </trkpt>
      <trkpt lat="46.18564" lon="2.4019">
        <ele>343</ele>
        <time>2026-08-06T14:27:07.000Z</time>
      </trkpt>
      <trkpt lat="46.18549" lon="2.40168">
        <ele>342.6</ele>
        <time>2026-08-06T14:27:14.000Z</time>
      </trkpt>
      <trkpt lat="46.18531" lon="2.40146">
        <ele>343.2</ele>
        <time>2026-08-06T14:27:21.000Z</time>
      </trkpt>
      <trkpt lat="46.18527" lon="2.4014">
        <ele>343.5</ele>
        <time>2026-08-06T14:27:23.000Z</time>
      </trkpt>
      <trkpt lat="46.1851" lon="2.40121">
        <ele>344.3</ele>
        <time>2026-08-06T14:27:30.000Z</time>
      </trkpt>
      <trkpt lat="46.18489" lon="2.40098">
        <ele>345.4</ele>
        <time>2026-08-06T14:27:38.000Z</time>
      </trkpt>
      <trkpt lat="46.18462" lon="2.40064">
        <ele>344.4</ele>
        <time>2026-08-06T14:27:49.000Z</time>
      </trkpt>
      <trkpt lat="46.18449" lon="2.4005">
        <ele>345.1</ele>
        <time>2026-08-06T14:27:54.000Z</time>
      </trkpt>
      <trkpt lat="46.18441" lon="2.40042">
        <ele>344.4</ele>
        <time>2026-08-06T14:27:58.000Z</time>
      </trkpt>
      <trkpt lat="46.18438" lon="2.40039">
        <ele>344.4</ele>
        <time>2026-08-06T14:28:02.000Z</time>
      </trkpt>
      <trkpt lat="46.18433" lon="2.40037">
        <ele>344.1</ele>
        <time>2026-08-06T14:29:28.000Z</time>
      </trkpt>
      <trkpt lat="46.1843" lon="2.40033">
        <ele>344.5</ele>
        <time>2026-08-06T14:29:30.000Z</time>
      </trkpt>
      <trkpt lat="46.18418" lon="2.40026">
        <ele>345.5</ele>
        <time>2026-08-06T14:29:36.000Z</time>
      </trkpt>
      <trkpt lat="46.18416" lon="2.40025">
        <ele>345.5</ele>
        <time>2026-08-06T14:29:37.000Z</time>
      </trkpt>
      <trkpt lat="46.18412" lon="2.40023">
        <ele>345.5</ele>
        <time>2026-08-06T14:29:39.000Z</time>
      </trkpt>
      <trkpt lat="46.18408" lon="2.40019">
        <ele>346</ele>
        <time>2026-08-06T14:29:41.000Z</time>
      </trkpt>
      <trkpt lat="46.18382" lon="2.40008">
        <ele>346.4</ele>
        <time>2026-08-06T14:29:50.000Z</time>
      </trkpt>
      <trkpt lat="46.18379" lon="2.40006">
        <ele>346.4</ele>
        <time>2026-08-06T14:29:51.000Z</time>
      </trkpt>
      <trkpt lat="46.18364" lon="2.39998">
        <ele>347.7</ele>
        <time>2026-08-06T14:29:56.000Z</time>
      </trkpt>
      <trkpt lat="46.1834" lon="2.39985">
        <ele>345</ele>
        <time>2026-08-06T14:30:04.000Z</time>
      </trkpt>
      <trkpt lat="46.18325" lon="2.39976">
        <ele>343.6</ele>
        <time>2026-08-06T14:30:09.000Z</time>
      </trkpt>
      <trkpt lat="46.18316" lon="2.39971">
        <ele>344</ele>
        <time>2026-08-06T14:30:12.000Z</time>
      </trkpt>
      <trkpt lat="46.18307" lon="2.39967">
        <ele>345.7</ele>
        <time>2026-08-06T14:30:15.000Z</time>
      </trkpt>
      <trkpt lat="46.18298" lon="2.39963">
        <ele>346.1</ele>
        <time>2026-08-06T14:30:18.000Z</time>
      </trkpt>
      <trkpt lat="46.18278" lon="2.39954">
        <ele>345.7</ele>
        <time>2026-08-06T14:30:24.000Z</time>
      </trkpt>
      <trkpt lat="46.18275" lon="2.39953">
        <ele>346.4</ele>
        <time>2026-08-06T14:30:25.000Z</time>
      </trkpt>
      <trkpt lat="46.18262" lon="2.39946">
        <ele>347.6</ele>
        <time>2026-08-06T14:30:30.000Z</time>
      </trkpt>
      <trkpt lat="46.18241" lon="2.39928">
        <ele>347.7</ele>
        <time>2026-08-06T14:30:37.000Z</time>
      </trkpt>
      <trkpt lat="46.18237" lon="2.39925">
        <ele>347.7</ele>
        <time>2026-08-06T14:30:38.000Z</time>
      </trkpt>
      <trkpt lat="46.18217" lon="2.39906">
        <ele>347.4</ele>
        <time>2026-08-06T14:30:45.000Z</time>
      </trkpt>
      <trkpt lat="46.18209" lon="2.39898">
        <ele>347.6</ele>
        <time>2026-08-06T14:30:48.000Z</time>
      </trkpt>
      <trkpt lat="46.18194" lon="2.39886">
        <ele>348.4</ele>
        <time>2026-08-06T14:30:53.000Z</time>
      </trkpt>
      <trkpt lat="46.18172" lon="2.39865">
        <ele>349</ele>
        <time>2026-08-06T14:31:01.000Z</time>
      </trkpt>
      <trkpt lat="46.18153" lon="2.39847">
        <ele>351</ele>
        <time>2026-08-06T14:31:08.000Z</time>
      </trkpt>
      <trkpt lat="46.18128" lon="2.39823">
        <ele>351.4</ele>
        <time>2026-08-06T14:31:17.000Z</time>
      </trkpt>
      <trkpt lat="46.18117" lon="2.39812">
        <ele>351.3</ele>
        <time>2026-08-06T14:31:21.000Z</time>
      </trkpt>
      <trkpt lat="46.18106" lon="2.398">
        <ele>351.5</ele>
        <time>2026-08-06T14:31:25.000Z</time>
      </trkpt>
      <trkpt lat="46.18087" lon="2.39775">
        <ele>351.6</ele>
        <time>2026-08-06T14:31:33.000Z</time>
      </trkpt>
      <trkpt lat="46.18072" lon="2.39744">
        <ele>352.8</ele>
        <time>2026-08-06T14:31:41.000Z</time>
      </trkpt>
      <trkpt lat="46.18056" lon="2.39706">
        <ele>352.8</ele>
        <time>2026-08-06T14:31:51.000Z</time>
      </trkpt>
      <trkpt lat="46.18047" lon="2.39683">
        <ele>351.4</ele>
        <time>2026-08-06T14:31:57.000Z</time>
      </trkpt>
      <trkpt lat="46.18045" lon="2.39679">
        <ele>351.1</ele>
        <time>2026-08-06T14:31:58.000Z</time>
      </trkpt>
      <trkpt lat="46.18028" lon="2.39645">
        <ele>352.4</ele>
        <time>2026-08-06T14:32:07.000Z</time>
      </trkpt>
      <trkpt lat="46.18019" lon="2.39622">
        <ele>352.6</ele>
        <time>2026-08-06T14:32:13.000Z</time>
      </trkpt>
      <trkpt lat="46.18014" lon="2.39611">
        <ele>353</ele>
        <time>2026-08-06T14:32:16.000Z</time>
      </trkpt>
      <trkpt lat="46.18004" lon="2.39587">
        <ele>355.9</ele>
        <time>2026-08-06T14:32:23.000Z</time>
      </trkpt>
      <trkpt lat="46.17996" lon="2.39569">
        <ele>357.7</ele>
        <time>2026-08-06T14:32:28.000Z</time>
      </trkpt>
      <trkpt lat="46.17993" lon="2.39562">
        <ele>358</ele>
        <time>2026-08-06T14:32:30.000Z</time>
      </trkpt>
      <trkpt lat="46.17984" lon="2.39537">
        <ele>358</ele>
        <time>2026-08-06T14:32:37.000Z</time>
      </trkpt>
      <trkpt lat="46.17983" lon="2.39534">
        <ele>358.1</ele>
        <time>2026-08-06T14:32:38.000Z</time>
      </trkpt>
      <trkpt lat="46.1797" lon="2.39493">
        <ele>356.9</ele>
        <time>2026-08-06T14:32:48.000Z</time>
      </trkpt>
      <trkpt lat="46.17965" lon="2.39472">
        <ele>356.9</ele>
        <time>2026-08-06T14:32:53.000Z</time>
      </trkpt>
      <trkpt lat="46.17962" lon="2.39459">
        <ele>358.3</ele>
        <time>2026-08-06T14:32:56.000Z</time>
      </trkpt>
      <trkpt lat="46.17956" lon="2.39433">
        <ele>359.8</ele>
        <time>2026-08-06T14:33:03.000Z</time>
      </trkpt>
      <trkpt lat="46.17955" lon="2.39429">
        <ele>360</ele>
        <time>2026-08-06T14:33:04.000Z</time>
      </trkpt>
      <trkpt lat="46.17952" lon="2.39415">
        <ele>360.2</ele>
        <time>2026-08-06T14:33:08.000Z</time>
      </trkpt>
      <trkpt lat="46.17951" lon="2.39411">
        <ele>360.2</ele>
        <time>2026-08-06T14:33:09.000Z</time>
      </trkpt>
      <trkpt lat="46.17944" lon="2.39389">
        <ele>359.9</ele>
        <time>2026-08-06T14:33:15.000Z</time>
      </trkpt>
      <trkpt lat="46.17942" lon="2.39381">
        <ele>360</ele>
        <time>2026-08-06T14:33:17.000Z</time>
      </trkpt>
      <trkpt lat="46.17931" lon="2.39348">
        <ele>360.3</ele>
        <time>2026-08-06T14:33:26.000Z</time>
      </trkpt>
      <trkpt lat="46.1793" lon="2.39345">
        <ele>360.4</ele>
        <time>2026-08-06T14:33:27.000Z</time>
      </trkpt>
      <trkpt lat="46.17913" lon="2.39325">
        <ele>359.9</ele>
        <time>2026-08-06T14:33:35.000Z</time>
      </trkpt>
      <trkpt lat="46.17896" lon="2.39316">
        <ele>360.8</ele>
        <time>2026-08-06T14:33:42.000Z</time>
      </trkpt>
      <trkpt lat="46.17893" lon="2.39316">
        <ele>360.9</ele>
        <time>2026-08-06T14:33:43.000Z</time>
      </trkpt>
      <trkpt lat="46.17872" lon="2.39317">
        <ele>363.3</ele>
        <time>2026-08-06T14:33:52.000Z</time>
      </trkpt>
      <trkpt lat="46.17869" lon="2.39318">
        <ele>363.6</ele>
        <time>2026-08-06T14:33:53.000Z</time>
      </trkpt>
      <trkpt lat="46.17851" lon="2.39317">
        <ele>364.2</ele>
        <time>2026-08-06T14:34:00.000Z</time>
      </trkpt>
      <trkpt lat="46.17834" lon="2.39311">
        <ele>365.3</ele>
        <time>2026-08-06T14:34:07.000Z</time>
      </trkpt>
      <trkpt lat="46.17817" lon="2.39307">
        <ele>365.4</ele>
        <time>2026-08-06T14:34:14.000Z</time>
      </trkpt>
      <trkpt lat="46.17803" lon="2.39305">
        <ele>365.1</ele>
        <time>2026-08-06T14:34:19.000Z</time>
      </trkpt>
      <trkpt lat="46.17784" lon="2.39299">
        <ele>365.3</ele>
        <time>2026-08-06T14:34:25.000Z</time>
      </trkpt>
      <trkpt lat="46.17762" lon="2.39289">
        <ele>365.1</ele>
        <time>2026-08-06T14:34:32.000Z</time>
      </trkpt>
      <trkpt lat="46.17757" lon="2.39283">
        <ele>366</ele>
        <time>2026-08-06T14:34:34.000Z</time>
      </trkpt>
      <trkpt lat="46.17743" lon="2.39264">
        <ele>366.9</ele>
        <time>2026-08-06T14:34:40.000Z</time>
      </trkpt>
      <trkpt lat="46.17731" lon="2.39238">
        <ele>367.9</ele>
        <time>2026-08-06T14:34:48.000Z</time>
      </trkpt>
      <trkpt lat="46.17724" lon="2.39218">
        <ele>368.6</ele>
        <time>2026-08-06T14:34:54.000Z</time>
      </trkpt>
      <trkpt lat="46.1772" lon="2.39206">
        <ele>368.6</ele>
        <time>2026-08-06T14:34:57.000Z</time>
      </trkpt>
      <trkpt lat="46.17714" lon="2.39188">
        <ele>369.3</ele>
        <time>2026-08-06T14:35:02.000Z</time>
      </trkpt>
      <trkpt lat="46.17703" lon="2.3916">
        <ele>369.3</ele>
        <time>2026-08-06T14:35:10.000Z</time>
      </trkpt>
      <trkpt lat="46.17699" lon="2.39149">
        <ele>369</ele>
        <time>2026-08-06T14:35:13.000Z</time>
      </trkpt>
      <trkpt lat="46.1769" lon="2.39132">
        <ele>368.3</ele>
        <time>2026-08-06T14:35:18.000Z</time>
      </trkpt>
      <trkpt lat="46.17681" lon="2.39108">
        <ele>370.4</ele>
        <time>2026-08-06T14:35:25.000Z</time>
      </trkpt>
      <trkpt lat="46.17674" lon="2.39089">
        <ele>372.2</ele>
        <time>2026-08-06T14:35:31.000Z</time>
      </trkpt>
      <trkpt lat="46.17673" lon="2.39087">
        <ele>372.4</ele>
        <time>2026-08-06T14:35:32.000Z</time>
      </trkpt>
      <trkpt lat="46.17664" lon="2.39066">
        <ele>372.2</ele>
        <time>2026-08-06T14:35:39.000Z</time>
      </trkpt>
      <trkpt lat="46.17653" lon="2.39038">
        <ele>373.4</ele>
        <time>2026-08-06T14:35:47.000Z</time>
      </trkpt>
      <trkpt lat="46.17645" lon="2.39019">
        <ele>373.6</ele>
        <time>2026-08-06T14:35:53.000Z</time>
      </trkpt>
      <trkpt lat="46.17637" lon="2.39002">
        <ele>372.9</ele>
        <time>2026-08-06T14:35:58.000Z</time>
      </trkpt>
      <trkpt lat="46.17626" lon="2.38978">
        <ele>372.2</ele>
        <time>2026-08-06T14:36:05.000Z</time>
      </trkpt>
      <trkpt lat="46.17622" lon="2.38968">
        <ele>372.6</ele>
        <time>2026-08-06T14:36:08.000Z</time>
      </trkpt>
      <trkpt lat="46.17611" lon="2.38951">
        <ele>373</ele>
        <time>2026-08-06T14:36:14.000Z</time>
      </trkpt>
      <trkpt lat="46.17596" lon="2.38934">
        <ele>373.3</ele>
        <time>2026-08-06T14:36:21.000Z</time>
      </trkpt>
      <trkpt lat="46.17587" lon="2.38924">
        <ele>374.5</ele>
        <time>2026-08-06T14:36:25.000Z</time>
      </trkpt>
      <trkpt lat="46.17579" lon="2.38915">
        <ele>375.9</ele>
        <time>2026-08-06T14:36:28.000Z</time>
      </trkpt>
      <trkpt lat="46.17561" lon="2.389">
        <ele>376.5</ele>
        <time>2026-08-06T14:36:35.000Z</time>
      </trkpt>
      <trkpt lat="46.17554" lon="2.38893">
        <ele>375.9</ele>
        <time>2026-08-06T14:36:38.000Z</time>
      </trkpt>
      <trkpt lat="46.17541" lon="2.38883">
        <ele>375.7</ele>
        <time>2026-08-06T14:36:44.000Z</time>
      </trkpt>
      <trkpt lat="46.17531" lon="2.38875">
        <ele>375.8</ele>
        <time>2026-08-06T14:36:48.000Z</time>
      </trkpt>
      <trkpt lat="46.17522" lon="2.38867">
        <ele>376.5</ele>
        <time>2026-08-06T14:36:52.000Z</time>
      </trkpt>
      <trkpt lat="46.17505" lon="2.38848">
        <ele>379.1</ele>
        <time>2026-08-06T14:37:00.000Z</time>
      </trkpt>
      <trkpt lat="46.17497" lon="2.38838">
        <ele>378.4</ele>
        <time>2026-08-06T14:37:04.000Z</time>
      </trkpt>
      <trkpt lat="46.17492" lon="2.38829">
        <ele>377.9</ele>
        <time>2026-08-06T14:37:07.000Z</time>
      </trkpt>
      <trkpt lat="46.17483" lon="2.38801">
        <ele>379.3</ele>
        <time>2026-08-06T14:37:15.000Z</time>
      </trkpt>
      <trkpt lat="46.1748" lon="2.38785">
        <ele>380.1</ele>
        <time>2026-08-06T14:37:19.000Z</time>
      </trkpt>
      <trkpt lat="46.17479" lon="2.38774">
        <ele>381</ele>
        <time>2026-08-06T14:37:22.000Z</time>
      </trkpt>
      <trkpt lat="46.17478" lon="2.38742">
        <ele>382.2</ele>
        <time>2026-08-06T14:37:30.000Z</time>
      </trkpt>
      <trkpt lat="46.17484" lon="2.38714">
        <ele>383.6</ele>
        <time>2026-08-06T14:37:37.000Z</time>
      </trkpt>
      <trkpt lat="46.17487" lon="2.38706">
        <ele>383.4</ele>
        <time>2026-08-06T14:37:39.000Z</time>
      </trkpt>
      <trkpt lat="46.17497" lon="2.38676">
        <ele>383.1</ele>
        <time>2026-08-06T14:37:47.000Z</time>
      </trkpt>
      <trkpt lat="46.175" lon="2.38659">
        <ele>382.6</ele>
        <time>2026-08-06T14:37:52.000Z</time>
      </trkpt>
      <trkpt lat="46.17498" lon="2.38642">
        <ele>381.5</ele>
        <time>2026-08-06T14:37:56.000Z</time>
      </trkpt>
      <trkpt lat="46.17488" lon="2.38614">
        <ele>382.3</ele>
        <time>2026-08-06T14:38:04.000Z</time>
      </trkpt>
      <trkpt lat="46.1748" lon="2.38604">
        <ele>383.8</ele>
        <time>2026-08-06T14:38:08.000Z</time>
      </trkpt>
      <trkpt lat="46.17474" lon="2.38598">
        <ele>384.4</ele>
        <time>2026-08-06T14:38:11.000Z</time>
      </trkpt>
      <trkpt lat="46.17462" lon="2.3859">
        <ele>384.9</ele>
        <time>2026-08-06T14:38:16.000Z</time>
      </trkpt>
      <trkpt lat="46.17449" lon="2.38577">
        <ele>385.7</ele>
        <time>2026-08-06T14:38:22.000Z</time>
      </trkpt>
      <trkpt lat="46.17438" lon="2.38566">
        <ele>386</ele>
        <time>2026-08-06T14:38:27.000Z</time>
      </trkpt>
      <trkpt lat="46.17425" lon="2.38541">
        <ele>386.6</ele>
        <time>2026-08-06T14:38:35.000Z</time>
      </trkpt>
      <trkpt lat="46.17417" lon="2.38509">
        <ele>386.7</ele>
        <time>2026-08-06T14:38:44.000Z</time>
      </trkpt>
      <trkpt lat="46.17412" lon="2.38478">
        <ele>386.8</ele>
        <time>2026-08-06T14:38:53.000Z</time>
      </trkpt>
      <trkpt lat="46.17411" lon="2.3847">
        <ele>387</ele>
        <time>2026-08-06T14:38:55.000Z</time>
      </trkpt>
      <trkpt lat="46.1741" lon="2.38449">
        <ele>387.7</ele>
        <time>2026-08-06T14:39:01.000Z</time>
      </trkpt>
      <trkpt lat="46.17414" lon="2.38418">
        <ele>388.5</ele>
        <time>2026-08-06T14:39:10.000Z</time>
      </trkpt>
      <trkpt lat="46.17415" lon="2.38415">
        <ele>388.6</ele>
        <time>2026-08-06T14:39:11.000Z</time>
      </trkpt>
      <trkpt lat="46.17419" lon="2.38404">
        <ele>388.8</ele>
        <time>2026-08-06T14:39:15.000Z</time>
      </trkpt>
      <trkpt lat="46.17424" lon="2.38395">
        <ele>389.2</ele>
        <time>2026-08-06T14:39:19.000Z</time>
      </trkpt>
      <trkpt lat="46.1743" lon="2.38386">
        <ele>389.7</ele>
        <time>2026-08-06T14:39:23.000Z</time>
      </trkpt>
      <trkpt lat="46.17447" lon="2.38366">
        <ele>390.8</ele>
        <time>2026-08-06T14:39:33.000Z</time>
      </trkpt>
      <trkpt lat="46.17458" lon="2.38343">
        <ele>391.6</ele>
        <time>2026-08-06T14:39:41.000Z</time>
      </trkpt>
      <trkpt lat="46.17462" lon="2.38314">
        <ele>390.6</ele>
        <time>2026-08-06T14:39:49.000Z</time>
      </trkpt>
      <trkpt lat="46.17458" lon="2.38291">
        <ele>389.9</ele>
        <time>2026-08-06T14:39:56.000Z</time>
      </trkpt>
      <trkpt lat="46.17449" lon="2.38274">
        <ele>390.3</ele>
        <time>2026-08-06T14:40:02.000Z</time>
      </trkpt>
      <trkpt lat="46.17447" lon="2.38272">
        <ele>390.3</ele>
        <time>2026-08-06T14:40:03.000Z</time>
      </trkpt>
      <trkpt lat="46.17435" lon="2.38262">
        <ele>390.7</ele>
        <time>2026-08-06T14:40:08.000Z</time>
      </trkpt>
      <trkpt lat="46.17419" lon="2.38259">
        <ele>392</ele>
        <time>2026-08-06T14:40:15.000Z</time>
      </trkpt>
      <trkpt lat="46.17407" lon="2.38259">
        <ele>393</ele>
        <time>2026-08-06T14:40:20.000Z</time>
      </trkpt>
      <trkpt lat="46.17405" lon="2.38259">
        <ele>393.1</ele>
        <time>2026-08-06T14:40:21.000Z</time>
      </trkpt>
      <trkpt lat="46.17377" lon="2.38262">
        <ele>394.2</ele>
        <time>2026-08-06T14:40:32.000Z</time>
      </trkpt>
      <trkpt lat="46.17364" lon="2.3826">
        <ele>394.6</ele>
        <time>2026-08-06T14:40:37.000Z</time>
      </trkpt>
      <trkpt lat="46.17356" lon="2.38256">
        <ele>394.6</ele>
        <time>2026-08-06T14:40:41.000Z</time>
      </trkpt>
      <trkpt lat="46.17345" lon="2.3825">
        <ele>394.2</ele>
        <time>2026-08-06T14:40:46.000Z</time>
      </trkpt>
      <trkpt lat="46.17327" lon="2.3823">
        <ele>395</ele>
        <time>2026-08-06T14:40:55.000Z</time>
      </trkpt>
      <trkpt lat="46.17323" lon="2.38226">
        <ele>395</ele>
        <time>2026-08-06T14:40:57.000Z</time>
      </trkpt>
      <trkpt lat="46.17309" lon="2.38211">
        <ele>395.1</ele>
        <time>2026-08-06T14:41:04.000Z</time>
      </trkpt>
      <trkpt lat="46.17298" lon="2.38195">
        <ele>395.8</ele>
        <time>2026-08-06T14:41:10.000Z</time>
      </trkpt>
      <trkpt lat="46.17292" lon="2.38187">
        <ele>395.8</ele>
        <time>2026-08-06T14:41:13.000Z</time>
      </trkpt>
      <trkpt lat="46.1728" lon="2.38173">
        <ele>395.7</ele>
        <time>2026-08-06T14:41:19.000Z</time>
      </trkpt>
      <trkpt lat="46.1726" lon="2.38145">
        <ele>397.1</ele>
        <time>2026-08-06T14:41:30.000Z</time>
      </trkpt>
      <trkpt lat="46.17244" lon="2.38118">
        <ele>397.3</ele>
        <time>2026-08-06T14:41:39.000Z</time>
      </trkpt>
      <trkpt lat="46.17232" lon="2.38079">
        <ele>398.3</ele>
        <time>2026-08-06T14:41:50.000Z</time>
      </trkpt>
      <trkpt lat="46.17231" lon="2.38072">
        <ele>398.3</ele>
        <time>2026-08-06T14:41:52.000Z</time>
      </trkpt>
      <trkpt lat="46.17228" lon="2.38043">
        <ele>399</ele>
        <time>2026-08-06T14:42:00.000Z</time>
      </trkpt>
      <trkpt lat="46.17228" lon="2.38021">
        <ele>399.6</ele>
        <time>2026-08-06T14:42:06.000Z</time>
      </trkpt>
      <trkpt lat="46.17228" lon="2.38018">
        <ele>399.6</ele>
        <time>2026-08-06T14:42:07.000Z</time>
      </trkpt>
      <trkpt lat="46.17231" lon="2.37984">
        <ele>400</ele>
        <time>2026-08-06T14:42:16.000Z</time>
      </trkpt>
      <trkpt lat="46.17232" lon="2.37981">
        <ele>400</ele>
        <time>2026-08-06T14:42:17.000Z</time>
      </trkpt>
      <trkpt lat="46.17234" lon="2.37963">
        <ele>400.2</ele>
        <time>2026-08-06T14:42:22.000Z</time>
      </trkpt>
      <trkpt lat="46.17238" lon="2.37927">
        <ele>401</ele>
        <time>2026-08-06T14:42:32.000Z</time>
      </trkpt>
      <trkpt lat="46.17238" lon="2.37924">
        <ele>401</ele>
        <time>2026-08-06T14:42:33.000Z</time>
      </trkpt>
      <trkpt lat="46.1724" lon="2.37894">
        <ele>401.3</ele>
        <time>2026-08-06T14:42:42.000Z</time>
      </trkpt>
      <trkpt lat="46.1724" lon="2.37877">
        <ele>401.6</ele>
        <time>2026-08-06T14:42:47.000Z</time>
      </trkpt>
      <trkpt lat="46.17239" lon="2.37865">
        <ele>401.7</ele>
        <time>2026-08-06T14:42:51.000Z</time>
      </trkpt>
      <trkpt lat="46.17238" lon="2.37852">
        <ele>402.2</ele>
        <time>2026-08-06T14:42:55.000Z</time>
      </trkpt>
      <trkpt lat="46.17237" lon="2.37845">
        <ele>402.4</ele>
        <time>2026-08-06T14:42:57.000Z</time>
      </trkpt>
      <trkpt lat="46.1723" lon="2.37814">
        <ele>403.3</ele>
        <time>2026-08-06T14:43:06.000Z</time>
      </trkpt>
      <trkpt lat="46.17226" lon="2.37798">
        <ele>403.7</ele>
        <time>2026-08-06T14:43:11.000Z</time>
      </trkpt>
      <trkpt lat="46.17226" lon="2.3779">
        <ele>403.9</ele>
        <time>2026-08-06T14:43:13.000Z</time>
      </trkpt>
      <trkpt lat="46.17225" lon="2.37756">
        <ele>404.2</ele>
        <time>2026-08-06T14:43:22.000Z</time>
      </trkpt>
      <trkpt lat="46.17232" lon="2.37718">
        <ele>405.5</ele>
        <time>2026-08-06T14:43:32.000Z</time>
      </trkpt>
      <trkpt lat="46.17233" lon="2.37715">
        <ele>405.5</ele>
        <time>2026-08-06T14:43:33.000Z</time>
      </trkpt>
      <trkpt lat="46.17243" lon="2.3769">
        <ele>405.3</ele>
        <time>2026-08-06T14:43:40.000Z</time>
      </trkpt>
      <trkpt lat="46.17255" lon="2.37669">
        <ele>405.4</ele>
        <time>2026-08-06T14:43:47.000Z</time>
      </trkpt>
      <trkpt lat="46.17274" lon="2.3764">
        <ele>405.7</ele>
        <time>2026-08-06T14:43:57.000Z</time>
      </trkpt>
      <trkpt lat="46.1729" lon="2.37615">
        <ele>405.2</ele>
        <time>2026-08-06T14:44:06.000Z</time>
      </trkpt>
      <trkpt lat="46.17302" lon="2.37598">
        <ele>406</ele>
        <time>2026-08-06T14:44:12.000Z</time>
      </trkpt>
      <trkpt lat="46.17309" lon="2.37587">
        <ele>406.9</ele>
        <time>2026-08-06T14:44:16.000Z</time>
      </trkpt>
      <trkpt lat="46.17325" lon="2.37561">
        <ele>407.6</ele>
        <time>2026-08-06T14:44:25.000Z</time>
      </trkpt>
      <trkpt lat="46.17329" lon="2.37555">
        <ele>407.8</ele>
        <time>2026-08-06T14:44:27.000Z</time>
      </trkpt>
      <trkpt lat="46.17331" lon="2.37553">
        <ele>407.9</ele>
        <time>2026-08-06T14:44:28.000Z</time>
      </trkpt>
      <trkpt lat="46.17345" lon="2.37528">
        <ele>408.4</ele>
        <time>2026-08-06T14:44:36.000Z</time>
      </trkpt>
      <trkpt lat="46.17359" lon="2.37509">
        <ele>409</ele>
        <time>2026-08-06T14:44:43.000Z</time>
      </trkpt>
      <trkpt lat="46.17361" lon="2.37506">
        <ele>409</ele>
        <time>2026-08-06T14:44:44.000Z</time>
      </trkpt>
      <trkpt lat="46.17377" lon="2.37479">
        <ele>409.6</ele>
        <time>2026-08-06T14:44:53.000Z</time>
      </trkpt>
      <trkpt lat="46.17382" lon="2.37471">
        <ele>409.8</ele>
        <time>2026-08-06T14:44:56.000Z</time>
      </trkpt>
      <trkpt lat="46.17394" lon="2.37451">
        <ele>410.2</ele>
        <time>2026-08-06T14:45:03.000Z</time>
      </trkpt>
      <trkpt lat="46.17411" lon="2.37425">
        <ele>410.1</ele>
        <time>2026-08-06T14:45:12.000Z</time>
      </trkpt>
      <trkpt lat="46.1743" lon="2.37395">
        <ele>409.7</ele>
        <time>2026-08-06T14:45:22.000Z</time>
      </trkpt>
      <trkpt lat="46.17448" lon="2.37366">
        <ele>410.1</ele>
        <time>2026-08-06T14:45:31.000Z</time>
      </trkpt>
      <trkpt lat="46.17461" lon="2.37343">
        <ele>410.3</ele>
        <time>2026-08-06T14:45:38.000Z</time>
      </trkpt>
      <trkpt lat="46.17477" lon="2.37318">
        <ele>410.7</ele>
        <time>2026-08-06T14:45:46.000Z</time>
      </trkpt>
      <trkpt lat="46.17491" lon="2.37291">
        <ele>411.1</ele>
        <time>2026-08-06T14:45:54.000Z</time>
      </trkpt>
      <trkpt lat="46.17499" lon="2.37276">
        <ele>411.9</ele>
        <time>2026-08-06T14:45:59.000Z</time>
      </trkpt>
      <trkpt lat="46.17515" lon="2.3724">
        <ele>412.6</ele>
        <time>2026-08-06T14:46:09.000Z</time>
      </trkpt>
      <trkpt lat="46.17526" lon="2.37215">
        <ele>412.7</ele>
        <time>2026-08-06T14:46:16.000Z</time>
      </trkpt>
      <trkpt lat="46.17529" lon="2.37208">
        <ele>412.6</ele>
        <time>2026-08-06T14:46:18.000Z</time>
      </trkpt>
      <trkpt lat="46.17544" lon="2.37177">
        <ele>413.2</ele>
        <time>2026-08-06T14:46:27.000Z</time>
      </trkpt>
      <trkpt lat="46.17555" lon="2.37152">
        <ele>413.4</ele>
        <time>2026-08-06T14:46:34.000Z</time>
      </trkpt>
      <trkpt lat="46.17573" lon="2.37113">
        <ele>413.7</ele>
        <time>2026-08-06T14:46:45.000Z</time>
      </trkpt>
      <trkpt lat="46.17584" lon="2.37089">
        <ele>414</ele>
        <time>2026-08-06T14:46:51.000Z</time>
      </trkpt>
      <trkpt lat="46.17587" lon="2.3708">
        <ele>414</ele>
        <time>2026-08-06T14:46:53.000Z</time>
      </trkpt>
      <trkpt lat="46.176" lon="2.3705">
        <ele>413.6</ele>
        <time>2026-08-06T14:47:01.000Z</time>
      </trkpt>
      <trkpt lat="46.1761" lon="2.37019">
        <ele>414</ele>
        <time>2026-08-06T14:47:09.000Z</time>
      </trkpt>
      <trkpt lat="46.17614" lon="2.37003">
        <ele>414</ele>
        <time>2026-08-06T14:47:13.000Z</time>
      </trkpt>
      <trkpt lat="46.17618" lon="2.36987">
        <ele>414</ele>
        <time>2026-08-06T14:47:17.000Z</time>
      </trkpt>
      <trkpt lat="46.17622" lon="2.36949">
        <ele>414.8</ele>
        <time>2026-08-06T14:47:26.000Z</time>
      </trkpt>
      <trkpt lat="46.17623" lon="2.36909">
        <ele>415.2</ele>
        <time>2026-08-06T14:47:36.000Z</time>
      </trkpt>
      <trkpt lat="46.17622" lon="2.36891">
        <ele>415.6</ele>
        <time>2026-08-06T14:47:41.000Z</time>
      </trkpt>
      <trkpt lat="46.17621" lon="2.36879">
        <ele>415.8</ele>
        <time>2026-08-06T14:47:44.000Z</time>
      </trkpt>
      <trkpt lat="46.17617" lon="2.36845">
        <ele>416.4</ele>
        <time>2026-08-06T14:47:52.000Z</time>
      </trkpt>
      <trkpt lat="46.17612" lon="2.36817">
        <ele>417</ele>
        <time>2026-08-06T14:47:59.000Z</time>
      </trkpt>
      <trkpt lat="46.1761" lon="2.36808">
        <ele>417</ele>
        <time>2026-08-06T14:48:01.000Z</time>
      </trkpt>
      <trkpt lat="46.17604" lon="2.36774">
        <ele>417</ele>
        <time>2026-08-06T14:48:09.000Z</time>
      </trkpt>
      <trkpt lat="46.17596" lon="2.36735">
        <ele>417.3</ele>
        <time>2026-08-06T14:48:18.000Z</time>
      </trkpt>
      <trkpt lat="46.1759" lon="2.36706">
        <ele>417.9</ele>
        <time>2026-08-06T14:48:25.000Z</time>
      </trkpt>
      <trkpt lat="46.17587" lon="2.36694">
        <ele>418</ele>
        <time>2026-08-06T14:48:28.000Z</time>
      </trkpt>
      <trkpt lat="46.17583" lon="2.36669">
        <ele>418</ele>
        <time>2026-08-06T14:48:34.000Z</time>
      </trkpt>
      <trkpt lat="46.17586" lon="2.36649">
        <ele>418</ele>
        <time>2026-08-06T14:48:39.000Z</time>
      </trkpt>
      <trkpt lat="46.17603" lon="2.36633">
        <ele>418.1</ele>
        <time>2026-08-06T14:48:45.000Z</time>
      </trkpt>
      <trkpt lat="46.17629" lon="2.36613">
        <ele>417.4</ele>
        <time>2026-08-06T14:48:52.000Z</time>
      </trkpt>
      <trkpt lat="46.17659" lon="2.36589">
        <ele>416.6</ele>
        <time>2026-08-06T14:49:00.000Z</time>
      </trkpt>
      <trkpt lat="46.17695" lon="2.36562">
        <ele>416</ele>
        <time>2026-08-06T14:49:08.000Z</time>
      </trkpt>
      <trkpt lat="46.17724" lon="2.3654">
        <ele>414.9</ele>
        <time>2026-08-06T14:49:14.000Z</time>
      </trkpt>
      <trkpt lat="46.17734" lon="2.36532">
        <ele>414.6</ele>
        <time>2026-08-06T14:49:16.000Z</time>
      </trkpt>
      <trkpt lat="46.17765" lon="2.36507">
        <ele>413.6</ele>
        <time>2026-08-06T14:49:22.000Z</time>
      </trkpt>
      <trkpt lat="46.17796" lon="2.36481">
        <ele>412.3</ele>
        <time>2026-08-06T14:49:28.000Z</time>
      </trkpt>
      <trkpt lat="46.17801" lon="2.36476">
        <ele>412.2</ele>
        <time>2026-08-06T14:49:29.000Z</time>
      </trkpt>
      <trkpt lat="46.17818" lon="2.36455">
        <ele>411.8</ele>
        <time>2026-08-06T14:49:33.000Z</time>
      </trkpt>
      <trkpt lat="46.17822" lon="2.3645">
        <ele>411.9</ele>
        <time>2026-08-06T14:49:34.000Z</time>
      </trkpt>
      <trkpt lat="46.17847" lon="2.36414">
        <ele>412</ele>
        <time>2026-08-06T14:49:41.000Z</time>
      </trkpt>
      <trkpt lat="46.17863" lon="2.3639">
        <ele>413</ele>
        <time>2026-08-06T14:49:47.000Z</time>
      </trkpt>
      <trkpt lat="46.17875" lon="2.36373">
        <ele>413.3</ele>
        <time>2026-08-06T14:49:52.000Z</time>
      </trkpt>
      <trkpt lat="46.17889" lon="2.36352">
        <ele>414.3</ele>
        <time>2026-08-06T14:49:59.000Z</time>
      </trkpt>
      <trkpt lat="46.17903" lon="2.36332">
        <ele>415.5</ele>
        <time>2026-08-06T14:50:07.000Z</time>
      </trkpt>
      <trkpt lat="46.17914" lon="2.36317">
        <ele>416.5</ele>
        <time>2026-08-06T14:50:14.000Z</time>
      </trkpt>
      <trkpt lat="46.17916" lon="2.36315">
        <ele>416.6</ele>
        <time>2026-08-06T14:50:15.000Z</time>
      </trkpt>
      <trkpt lat="46.1792" lon="2.36308">
        <ele>416.9</ele>
        <time>2026-08-06T14:50:18.000Z</time>
      </trkpt>
      <trkpt lat="46.17928" lon="2.36297">
        <ele>417.2</ele>
        <time>2026-08-06T14:50:23.000Z</time>
      </trkpt>
      <trkpt lat="46.17935" lon="2.36287">
        <ele>417.9</ele>
        <time>2026-08-06T14:50:28.000Z</time>
      </trkpt>
      <trkpt lat="46.17945" lon="2.36272">
        <ele>419</ele>
        <time>2026-08-06T14:50:35.000Z</time>
      </trkpt>
      <trkpt lat="46.17953" lon="2.3626">
        <ele>419.2</ele>
        <time>2026-08-06T14:50:40.000Z</time>
      </trkpt>
      <trkpt lat="46.17959" lon="2.36253">
        <ele>419.5</ele>
        <time>2026-08-06T14:50:44.000Z</time>
      </trkpt>
      <trkpt lat="46.17965" lon="2.36242">
        <ele>420.3</ele>
        <time>2026-08-06T14:50:49.000Z</time>
      </trkpt>
      <trkpt lat="46.17971" lon="2.36234">
        <ele>421.1</ele>
        <time>2026-08-06T14:50:53.000Z</time>
      </trkpt>
      <trkpt lat="46.17976" lon="2.36228">
        <ele>421.7</ele>
        <time>2026-08-06T14:50:57.000Z</time>
      </trkpt>
      <trkpt lat="46.1798" lon="2.36222">
        <ele>422.3</ele>
        <time>2026-08-06T14:51:00.000Z</time>
      </trkpt>
      <trkpt lat="46.17991" lon="2.36207">
        <ele>422.9</ele>
        <time>2026-08-06T14:51:08.000Z</time>
      </trkpt>
      <trkpt lat="46.17994" lon="2.36203">
        <ele>422.9</ele>
        <time>2026-08-06T14:51:10.000Z</time>
      </trkpt>
      <trkpt lat="46.18004" lon="2.36188">
        <ele>423.7</ele>
        <time>2026-08-06T14:51:17.000Z</time>
      </trkpt>
      <trkpt lat="46.18007" lon="2.36184">
        <ele>424.1</ele>
        <time>2026-08-06T14:51:19.000Z</time>
      </trkpt>
      <trkpt lat="46.18015" lon="2.36173">
        <ele>425.2</ele>
        <time>2026-08-06T14:51:25.000Z</time>
      </trkpt>
      <trkpt lat="46.18023" lon="2.36162">
        <ele>425.9</ele>
        <time>2026-08-06T14:51:31.000Z</time>
      </trkpt>
      <trkpt lat="46.18026" lon="2.36158">
        <ele>426</ele>
        <time>2026-08-06T14:51:33.000Z</time>
      </trkpt>
      <trkpt lat="46.18036" lon="2.36143">
        <ele>426.3</ele>
        <time>2026-08-06T14:51:40.000Z</time>
      </trkpt>
      <trkpt lat="46.18042" lon="2.36135">
        <ele>426.7</ele>
        <time>2026-08-06T14:51:44.000Z</time>
      </trkpt>
      <trkpt lat="46.18048" lon="2.36126">
        <ele>427.2</ele>
        <time>2026-08-06T14:51:48.000Z</time>
      </trkpt>
      <trkpt lat="46.18058" lon="2.36112">
        <ele>428</ele>
        <time>2026-08-06T14:51:55.000Z</time>
      </trkpt>
      <trkpt lat="46.18062" lon="2.36106">
        <ele>428</ele>
        <time>2026-08-06T14:51:58.000Z</time>
      </trkpt>
      <trkpt lat="46.18067" lon="2.36096">
        <ele>428</ele>
        <time>2026-08-06T14:52:02.000Z</time>
      </trkpt>
      <trkpt lat="46.18075" lon="2.36081">
        <ele>428.1</ele>
        <time>2026-08-06T14:52:08.000Z</time>
      </trkpt>
      <trkpt lat="46.18077" lon="2.36076">
        <ele>428.3</ele>
        <time>2026-08-06T14:52:10.000Z</time>
      </trkpt>
      <trkpt lat="46.18085" lon="2.36057">
        <ele>428.9</ele>
        <time>2026-08-06T14:52:17.000Z</time>
      </trkpt>
      <trkpt lat="46.18094" lon="2.36034">
        <ele>428.6</ele>
        <time>2026-08-06T14:52:24.000Z</time>
      </trkpt>
      <trkpt lat="46.18108" lon="2.35997">
        <ele>428.9</ele>
        <time>2026-08-06T14:52:32.000Z</time>
      </trkpt>
      <trkpt lat="46.18121" lon="2.35962">
        <ele>427.6</ele>
        <time>2026-08-06T14:52:39.000Z</time>
      </trkpt>
      <trkpt lat="46.18128" lon="2.35944">
        <ele>427.4</ele>
        <time>2026-08-06T14:52:42.000Z</time>
      </trkpt>
      <trkpt lat="46.18138" lon="2.3592">
        <ele>427</ele>
        <time>2026-08-06T14:52:46.000Z</time>
      </trkpt>
      <trkpt lat="46.18161" lon="2.3586">
        <ele>426.8</ele>
        <time>2026-08-06T14:52:55.000Z</time>
      </trkpt>
      <trkpt lat="46.18168" lon="2.35837">
        <ele>427.9</ele>
        <time>2026-08-06T14:52:59.000Z</time>
      </trkpt>
      <trkpt lat="46.18175" lon="2.35809">
        <ele>428</ele>
        <time>2026-08-06T14:53:04.000Z</time>
      </trkpt>
      <trkpt lat="46.18179" lon="2.35792">
        <ele>428.5</ele>
        <time>2026-08-06T14:53:07.000Z</time>
      </trkpt>
      <trkpt lat="46.18185" lon="2.35772">
        <ele>429.1</ele>
        <time>2026-08-06T14:53:11.000Z</time>
      </trkpt>
      <trkpt lat="46.18191" lon="2.35748">
        <ele>429.9</ele>
        <time>2026-08-06T14:53:16.000Z</time>
      </trkpt>
      <trkpt lat="46.18195" lon="2.35731">
        <ele>430</ele>
        <time>2026-08-06T14:53:20.000Z</time>
      </trkpt>
      <trkpt lat="46.18197" lon="2.35727">
        <ele>430.1</ele>
        <time>2026-08-06T14:53:21.000Z</time>
      </trkpt>
      <trkpt lat="46.18203" lon="2.357">
        <ele>430.3</ele>
        <time>2026-08-06T14:53:27.000Z</time>
      </trkpt>
      <trkpt lat="46.18212" lon="2.3567">
        <ele>431</ele>
        <time>2026-08-06T14:53:34.000Z</time>
      </trkpt>
      <trkpt lat="46.18214" lon="2.35662">
        <ele>431.1</ele>
        <time>2026-08-06T14:53:36.000Z</time>
      </trkpt>
      <trkpt lat="46.18221" lon="2.35636">
        <ele>431.9</ele>
        <time>2026-08-06T14:53:42.000Z</time>
      </trkpt>
      <trkpt lat="46.18223" lon="2.35627">
        <ele>432</ele>
        <time>2026-08-06T14:53:44.000Z</time>
      </trkpt>
      <trkpt lat="46.18234" lon="2.35589">
        <ele>432.5</ele>
        <time>2026-08-06T14:53:53.000Z</time>
      </trkpt>
      <trkpt lat="46.18244" lon="2.35556">
        <ele>432.2</ele>
        <time>2026-08-06T14:54:00.000Z</time>
      </trkpt>
      <trkpt lat="46.18246" lon="2.35545">
        <ele>432.5</ele>
        <time>2026-08-06T14:54:02.000Z</time>
      </trkpt>
      <trkpt lat="46.18261" lon="2.35496">
        <ele>432.6</ele>
        <time>2026-08-06T14:54:11.000Z</time>
      </trkpt>
      <trkpt lat="46.18277" lon="2.35434">
        <ele>433.4</ele>
        <time>2026-08-06T14:54:22.000Z</time>
      </trkpt>
      <trkpt lat="46.18285" lon="2.35383">
        <ele>433.8</ele>
        <time>2026-08-06T14:54:31.000Z</time>
      </trkpt>
      <trkpt lat="46.18286" lon="2.35371">
        <ele>433.7</ele>
        <time>2026-08-06T14:54:33.000Z</time>
      </trkpt>
      <trkpt lat="46.18291" lon="2.3531">
        <ele>434.4</ele>
        <time>2026-08-06T14:54:43.000Z</time>
      </trkpt>
      <trkpt lat="46.18293" lon="2.35263">
        <ele>434.4</ele>
        <time>2026-08-06T14:54:51.000Z</time>
      </trkpt>
      <trkpt lat="46.18297" lon="2.35214">
        <ele>434.3</ele>
        <time>2026-08-06T14:54:59.000Z</time>
      </trkpt>
      <trkpt lat="46.18298" lon="2.35189">
        <ele>434.3</ele>
        <time>2026-08-06T14:55:03.000Z</time>
      </trkpt>
      <trkpt lat="46.183" lon="2.35154">
        <ele>434.6</ele>
        <time>2026-08-06T14:55:09.000Z</time>
      </trkpt>
      <trkpt lat="46.18303" lon="2.35104">
        <ele>435</ele>
        <time>2026-08-06T14:55:18.000Z</time>
      </trkpt>
      <trkpt lat="46.18308" lon="2.35064">
        <ele>434.3</ele>
        <time>2026-08-06T14:55:25.000Z</time>
      </trkpt>
      <trkpt lat="46.18315" lon="2.35012">
        <ele>434</ele>
        <time>2026-08-06T14:55:33.000Z</time>
      </trkpt>
      <trkpt lat="46.18316" lon="2.34998">
        <ele>434</ele>
        <time>2026-08-06T14:55:35.000Z</time>
      </trkpt>
      <trkpt lat="46.18315" lon="2.34969">
        <ele>434</ele>
        <time>2026-08-06T14:55:39.000Z</time>
      </trkpt>
      <trkpt lat="46.18312" lon="2.34935">
        <ele>433.6</ele>
        <time>2026-08-06T14:55:44.000Z</time>
      </trkpt>
      <trkpt lat="46.18308" lon="2.34906">
        <ele>433</ele>
        <time>2026-08-06T14:55:48.000Z</time>
      </trkpt>
      <trkpt lat="46.18298" lon="2.3483">
        <ele>431.9</ele>
        <time>2026-08-06T14:55:58.000Z</time>
      </trkpt>
      <trkpt lat="46.18295" lon="2.34806">
        <ele>431.4</ele>
        <time>2026-08-06T14:56:01.000Z</time>
      </trkpt>
      <trkpt lat="46.18291" lon="2.34774">
        <ele>431</ele>
        <time>2026-08-06T14:56:05.000Z</time>
      </trkpt>
      <trkpt lat="46.18286" lon="2.34733">
        <ele>430.4</ele>
        <time>2026-08-06T14:56:10.000Z</time>
      </trkpt>
      <trkpt lat="46.18286" lon="2.34725">
        <ele>430.1</ele>
        <time>2026-08-06T14:56:11.000Z</time>
      </trkpt>
      <trkpt lat="46.18291" lon="2.3468">
        <ele>430</ele>
        <time>2026-08-06T14:56:17.000Z</time>
      </trkpt>
      <trkpt lat="46.18299" lon="2.34627">
        <ele>429.7</ele>
        <time>2026-08-06T14:56:24.000Z</time>
      </trkpt>
      <trkpt lat="46.183" lon="2.34618">
        <ele>429.4</ele>
        <time>2026-08-06T14:56:25.000Z</time>
      </trkpt>
      <trkpt lat="46.18301" lon="2.34564">
        <ele>427.3</ele>
        <time>2026-08-06T14:56:31.000Z</time>
      </trkpt>
      <trkpt lat="46.18303" lon="2.34508">
        <ele>426</ele>
        <time>2026-08-06T14:56:37.000Z</time>
      </trkpt>
      <trkpt lat="46.18304" lon="2.34499">
        <ele>426</ele>
        <time>2026-08-06T14:56:38.000Z</time>
      </trkpt>
      <trkpt lat="46.18311" lon="2.34457">
        <ele>425.2</ele>
        <time>2026-08-06T14:56:43.000Z</time>
      </trkpt>
      <trkpt lat="46.18313" lon="2.34449">
        <ele>425.3</ele>
        <time>2026-08-06T14:56:44.000Z</time>
      </trkpt>
      <trkpt lat="46.18315" lon="2.34416">
        <ele>424.3</ele>
        <time>2026-08-06T14:56:48.000Z</time>
      </trkpt>
      <trkpt lat="46.18316" lon="2.34408">
        <ele>424.4</ele>
        <time>2026-08-06T14:56:49.000Z</time>
      </trkpt>
      <trkpt lat="46.18317" lon="2.34355">
        <ele>423.8</ele>
        <time>2026-08-06T14:56:56.000Z</time>
      </trkpt>
      <trkpt lat="46.18319" lon="2.34312">
        <ele>423</ele>
        <time>2026-08-06T14:57:03.000Z</time>
      </trkpt>
      <trkpt lat="46.18319" lon="2.34301">
        <ele>422.9</ele>
        <time>2026-08-06T14:57:07.000Z</time>
      </trkpt>
      <trkpt lat="46.18318" lon="2.34297">
        <ele>422.8</ele>
        <time>2026-08-06T14:57:08.000Z</time>
      </trkpt>
      <trkpt lat="46.18311" lon="2.34286">
        <ele>422.4</ele>
        <time>2026-08-06T14:57:11.000Z</time>
      </trkpt>
      <trkpt lat="46.18293" lon="2.34263">
        <ele>422</ele>
        <time>2026-08-06T14:57:17.000Z</time>
      </trkpt>
      <trkpt lat="46.18274" lon="2.34235">
        <ele>421.4</ele>
        <time>2026-08-06T14:57:23.000Z</time>
      </trkpt>
      <trkpt lat="46.18269" lon="2.34225">
        <ele>421.1</ele>
        <time>2026-08-06T14:57:25.000Z</time>
      </trkpt>
      <trkpt lat="46.18261" lon="2.34204">
        <ele>421</ele>
        <time>2026-08-06T14:57:29.000Z</time>
      </trkpt>
      <trkpt lat="46.18259" lon="2.34193">
        <ele>421</ele>
        <time>2026-08-06T14:57:31.000Z</time>
      </trkpt>
      <trkpt lat="46.18254" lon="2.34147">
        <ele>420.3</ele>
        <time>2026-08-06T14:57:39.000Z</time>
      </trkpt>
      <trkpt lat="46.1825" lon="2.34114">
        <ele>420</ele>
        <time>2026-08-06T14:57:44.000Z</time>
      </trkpt>
      <trkpt lat="46.1825" lon="2.34102">
        <ele>419.6</ele>
        <time>2026-08-06T14:57:46.000Z</time>
      </trkpt>
      <trkpt lat="46.18247" lon="2.34081">
        <ele>419</ele>
        <time>2026-08-06T14:57:49.000Z</time>
      </trkpt>
      <trkpt lat="46.18244" lon="2.34068">
        <ele>418.9</ele>
        <time>2026-08-06T14:57:51.000Z</time>
      </trkpt>
      <trkpt lat="46.18241" lon="2.34062">
        <ele>418.7</ele>
        <time>2026-08-06T14:57:52.000Z</time>
      </trkpt>
      <trkpt lat="46.18237" lon="2.34056">
        <ele>418.5</ele>
        <time>2026-08-06T14:57:53.000Z</time>
      </trkpt>
      <trkpt lat="46.18223" lon="2.34043">
        <ele>417.6</ele>
        <time>2026-08-06T14:57:56.000Z</time>
      </trkpt>
      <trkpt lat="46.18205" lon="2.34029">
        <ele>416.4</ele>
        <time>2026-08-06T14:58:00.000Z</time>
      </trkpt>
      <trkpt lat="46.18196" lon="2.34021">
        <ele>416</ele>
        <time>2026-08-06T14:58:02.000Z</time>
      </trkpt>
      <trkpt lat="46.18182" lon="2.34004">
        <ele>415.6</ele>
        <time>2026-08-06T14:58:05.000Z</time>
      </trkpt>
      <trkpt lat="46.18175" lon="2.33991">
        <ele>415.3</ele>
        <time>2026-08-06T14:58:07.000Z</time>
      </trkpt>
      <trkpt lat="46.18172" lon="2.33982">
        <ele>415.2</ele>
        <time>2026-08-06T14:58:08.000Z</time>
      </trkpt>
      <trkpt lat="46.18171" lon="2.33973">
        <ele>415.2</ele>
        <time>2026-08-06T14:58:09.000Z</time>
      </trkpt>
      <trkpt lat="46.1817" lon="2.33964">
        <ele>415.1</ele>
        <time>2026-08-06T14:58:10.000Z</time>
      </trkpt>
      <trkpt lat="46.18165" lon="2.33937">
        <ele>414.6</ele>
        <time>2026-08-06T14:58:13.000Z</time>
      </trkpt>
      <trkpt lat="46.18159" lon="2.33904">
        <ele>413.4</ele>
        <time>2026-08-06T14:58:17.000Z</time>
      </trkpt>
      <trkpt lat="46.18156" lon="2.33897">
        <ele>413.2</ele>
        <time>2026-08-06T14:58:18.000Z</time>
      </trkpt>
      <trkpt lat="46.1815" lon="2.3388">
        <ele>412.5</ele>
        <time>2026-08-06T14:58:22.000Z</time>
      </trkpt>
      <trkpt lat="46.18149" lon="2.33878">
        <ele>412.3</ele>
        <time>2026-08-06T14:58:23.000Z</time>
      </trkpt>
      <trkpt lat="46.18146" lon="2.33862">
        <ele>411.6</ele>
        <time>2026-08-06T14:58:28.000Z</time>
      </trkpt>
      <trkpt lat="46.18146" lon="2.33859">
        <ele>411.5</ele>
        <time>2026-08-06T14:58:29.000Z</time>
      </trkpt>
      <trkpt lat="46.18147" lon="2.33841">
        <ele>411.4</ele>
        <time>2026-08-06T14:58:34.000Z</time>
      </trkpt>
      <trkpt lat="46.18148" lon="2.33832">
        <ele>411.3</ele>
        <time>2026-08-06T14:58:38.000Z</time>
      </trkpt>
      <trkpt lat="46.18148" lon="2.33832">
        <ele>411.3</ele>
        <time>2026-08-06T14:58:39.000Z</time>
      </trkpt>
      <trkpt lat="46.18148" lon="2.33832">
        <ele>411.3</ele>
        <time>2026-08-06T14:58:40.000Z</time>
      </trkpt>
      <trkpt lat="46.18146" lon="2.33842">
        <ele>411.3</ele>
        <time>2026-08-06T15:00:04.000Z</time>
      </trkpt>
      <trkpt lat="46.18146" lon="2.33847">
        <ele>411.4</ele>
        <time>2026-08-06T15:00:07.000Z</time>
      </trkpt>
      <trkpt lat="46.18146" lon="2.33849">
        <ele>411.4</ele>
        <time>2026-08-06T15:00:08.000Z</time>
      </trkpt>
      <trkpt lat="46.18143" lon="2.33853">
        <ele>411.3</ele>
        <time>2026-08-06T15:00:12.000Z</time>
      </trkpt>
      <trkpt lat="46.18142" lon="2.33854">
        <ele>411.2</ele>
        <time>2026-08-06T15:00:14.000Z</time>
      </trkpt>
      <trkpt lat="46.18133" lon="2.33852">
        <ele>410.5</ele>
        <time>2026-08-06T15:00:18.000Z</time>
      </trkpt>
      <trkpt lat="46.18112" lon="2.33835">
        <ele>409.1</ele>
        <time>2026-08-06T15:00:24.000Z</time>
      </trkpt>
      <trkpt lat="46.18101" lon="2.33824">
        <ele>408.8</ele>
        <time>2026-08-06T15:00:27.000Z</time>
      </trkpt>
      <trkpt lat="46.18085" lon="2.3381">
        <ele>408.9</ele>
        <time>2026-08-06T15:00:31.000Z</time>
      </trkpt>
      <trkpt lat="46.18053" lon="2.33783">
        <ele>409.3</ele>
        <time>2026-08-06T15:00:40.000Z</time>
      </trkpt>
      <trkpt lat="46.18049" lon="2.3378">
        <ele>409.3</ele>
        <time>2026-08-06T15:00:41.000Z</time>
      </trkpt>
      <trkpt lat="46.18029" lon="2.33761">
        <ele>409.9</ele>
        <time>2026-08-06T15:00:48.000Z</time>
      </trkpt>
      <trkpt lat="46.18029" lon="2.33761">
        <ele>410</ele>
        <time>2026-08-06T15:00:50.000Z</time>
      </trkpt>
      <trkpt lat="46.18022" lon="2.33756">
        <ele>410.2</ele>
        <time>2026-08-06T15:01:26.000Z</time>
      </trkpt>
      <trkpt lat="46.1801" lon="2.33745">
        <ele>410.5</ele>
        <time>2026-08-06T15:01:31.000Z</time>
      </trkpt>
      <trkpt lat="46.17988" lon="2.33725">
        <ele>410.5</ele>
        <time>2026-08-06T15:01:39.000Z</time>
      </trkpt>
      <trkpt lat="46.17953" lon="2.33693">
        <ele>411.7</ele>
        <time>2026-08-06T15:01:51.000Z</time>
      </trkpt>
      <trkpt lat="46.17945" lon="2.33684">
        <ele>412</ele>
        <time>2026-08-06T15:01:54.000Z</time>
      </trkpt>
      <trkpt lat="46.17943" lon="2.33681">
        <ele>412</ele>
        <time>2026-08-06T15:01:55.000Z</time>
      </trkpt>
      <trkpt lat="46.17936" lon="2.33673">
        <ele>412.3</ele>
        <time>2026-08-06T15:01:58.000Z</time>
      </trkpt>
      <trkpt lat="46.17927" lon="2.33659">
        <ele>412.3</ele>
        <time>2026-08-06T15:02:03.000Z</time>
      </trkpt>
      <trkpt lat="46.17921" lon="2.33648">
        <ele>412.2</ele>
        <time>2026-08-06T15:02:07.000Z</time>
      </trkpt>
      <trkpt lat="46.17906" lon="2.33623">
        <ele>412</ele>
        <time>2026-08-06T15:02:16.000Z</time>
      </trkpt>
      <trkpt lat="46.17888" lon="2.3359">
        <ele>412.3</ele>
        <time>2026-08-06T15:02:27.000Z</time>
      </trkpt>
      <trkpt lat="46.1787" lon="2.33557">
        <ele>411.7</ele>
        <time>2026-08-06T15:02:37.000Z</time>
      </trkpt>
      <trkpt lat="46.17848" lon="2.33518">
        <ele>410.7</ele>
        <time>2026-08-06T15:02:47.000Z</time>
      </trkpt>
      <trkpt lat="46.17836" lon="2.335">
        <ele>410</ele>
        <time>2026-08-06T15:02:51.000Z</time>
      </trkpt>
      <trkpt lat="46.17828" lon="2.33491">
        <ele>409.7</ele>
        <time>2026-08-06T15:02:53.000Z</time>
      </trkpt>
      <trkpt lat="46.17814" lon="2.33479">
        <ele>409.3</ele>
        <time>2026-08-06T15:02:56.000Z</time>
      </trkpt>
      <trkpt lat="46.17804" lon="2.33473">
        <ele>409</ele>
        <time>2026-08-06T15:02:58.000Z</time>
      </trkpt>
      <trkpt lat="46.17799" lon="2.33469">
        <ele>408.8</ele>
        <time>2026-08-06T15:02:59.000Z</time>
      </trkpt>
      <trkpt lat="46.17779" lon="2.33457">
        <ele>408.4</ele>
        <time>2026-08-06T15:03:03.000Z</time>
      </trkpt>
      <trkpt lat="46.17759" lon="2.33443">
        <ele>407.9</ele>
        <time>2026-08-06T15:03:07.000Z</time>
      </trkpt>
      <trkpt lat="46.17754" lon="2.33439">
        <ele>407.8</ele>
        <time>2026-08-06T15:03:08.000Z</time>
      </trkpt>
      <trkpt lat="46.17738" lon="2.33418">
        <ele>407.5</ele>
        <time>2026-08-06T15:03:12.000Z</time>
      </trkpt>
      <trkpt lat="46.17699" lon="2.33359">
        <ele>405.5</ele>
        <time>2026-08-06T15:03:22.000Z</time>
      </trkpt>
      <trkpt lat="46.17692" lon="2.33347">
        <ele>405.1</ele>
        <time>2026-08-06T15:03:24.000Z</time>
      </trkpt>
      <trkpt lat="46.17688" lon="2.33341">
        <ele>404.9</ele>
        <time>2026-08-06T15:03:25.000Z</time>
      </trkpt>
      <trkpt lat="46.17669" lon="2.33318">
        <ele>404.3</ele>
        <time>2026-08-06T15:03:30.000Z</time>
      </trkpt>
      <trkpt lat="46.17647" lon="2.33303">
        <ele>403.5</ele>
        <time>2026-08-06T15:03:35.000Z</time>
      </trkpt>
      <trkpt lat="46.17637" lon="2.33297">
        <ele>403.4</ele>
        <time>2026-08-06T15:03:37.000Z</time>
      </trkpt>
      <trkpt lat="46.17619" lon="2.33276">
        <ele>402.6</ele>
        <time>2026-08-06T15:03:41.000Z</time>
      </trkpt>
      <trkpt lat="46.17614" lon="2.33269">
        <ele>402.3</ele>
        <time>2026-08-06T15:03:42.000Z</time>
      </trkpt>
      <trkpt lat="46.1761" lon="2.33261">
        <ele>401.8</ele>
        <time>2026-08-06T15:03:43.000Z</time>
      </trkpt>
      <trkpt lat="46.17604" lon="2.33243">
        <ele>400.5</ele>
        <time>2026-08-06T15:03:45.000Z</time>
      </trkpt>
      <trkpt lat="46.17598" lon="2.33223">
        <ele>399</ele>
        <time>2026-08-06T15:03:47.000Z</time>
      </trkpt>
      <trkpt lat="46.17588" lon="2.3318">
        <ele>397.3</ele>
        <time>2026-08-06T15:03:51.000Z</time>
      </trkpt>
      <trkpt lat="46.17585" lon="2.3317">
        <ele>397</ele>
        <time>2026-08-06T15:03:52.000Z</time>
      </trkpt>
      <trkpt lat="46.17574" lon="2.33125">
        <ele>395.8</ele>
        <time>2026-08-06T15:03:56.000Z</time>
      </trkpt>
      <trkpt lat="46.17566" lon="2.33093">
        <ele>395.6</ele>
        <time>2026-08-06T15:03:59.000Z</time>
      </trkpt>
      <trkpt lat="46.17549" lon="2.33024">
        <ele>394.9</ele>
        <time>2026-08-06T15:04:06.000Z</time>
      </trkpt>
      <trkpt lat="46.17546" lon="2.33015">
        <ele>394.5</ele>
        <time>2026-08-06T15:04:07.000Z</time>
      </trkpt>
      <trkpt lat="46.1753" lon="2.32949">
        <ele>393.1</ele>
        <time>2026-08-06T15:04:14.000Z</time>
      </trkpt>
      <trkpt lat="46.17522" lon="2.32913">
        <ele>392.8</ele>
        <time>2026-08-06T15:04:18.000Z</time>
      </trkpt>
      <trkpt lat="46.17518" lon="2.32895">
        <ele>392.6</ele>
        <time>2026-08-06T15:04:20.000Z</time>
      </trkpt>
      <trkpt lat="46.17506" lon="2.32847">
        <ele>392.2</ele>
        <time>2026-08-06T15:04:26.000Z</time>
      </trkpt>
      <trkpt lat="46.17501" lon="2.32833">
        <ele>392</ele>
        <time>2026-08-06T15:04:28.000Z</time>
      </trkpt>
      <trkpt lat="46.17495" lon="2.3282">
        <ele>391.8</ele>
        <time>2026-08-06T15:04:30.000Z</time>
      </trkpt>
      <trkpt lat="46.17492" lon="2.32814">
        <ele>391.7</ele>
        <time>2026-08-06T15:04:31.000Z</time>
      </trkpt>
      <trkpt lat="46.17461" lon="2.32765">
        <ele>390.8</ele>
        <time>2026-08-06T15:04:39.000Z</time>
      </trkpt>
      <trkpt lat="46.17452" lon="2.32753">
        <ele>390.3</ele>
        <time>2026-08-06T15:04:41.000Z</time>
      </trkpt>
      <trkpt lat="46.17434" lon="2.32726">
        <ele>389.3</ele>
        <time>2026-08-06T15:04:45.000Z</time>
      </trkpt>
      <trkpt lat="46.1743" lon="2.32719">
        <ele>388.9</ele>
        <time>2026-08-06T15:04:46.000Z</time>
      </trkpt>
      <trkpt lat="46.1741" lon="2.32687">
        <ele>387.7</ele>
        <time>2026-08-06T15:04:50.000Z</time>
      </trkpt>
      <trkpt lat="46.17395" lon="2.32661">
        <ele>387</ele>
        <time>2026-08-06T15:04:53.000Z</time>
      </trkpt>
      <trkpt lat="46.17371" lon="2.32624">
        <ele>385.8</ele>
        <time>2026-08-06T15:04:58.000Z</time>
      </trkpt>
      <trkpt lat="46.17362" lon="2.32611">
        <ele>386</ele>
        <time>2026-08-06T15:05:00.000Z</time>
      </trkpt>
      <trkpt lat="46.17335" lon="2.32581">
        <ele>385.8</ele>
        <time>2026-08-06T15:05:06.000Z</time>
      </trkpt>
      <trkpt lat="46.17318" lon="2.32561">
        <ele>385.5</ele>
        <time>2026-08-06T15:05:10.000Z</time>
      </trkpt>
      <trkpt lat="46.17307" lon="2.32548">
        <ele>385.9</ele>
        <time>2026-08-06T15:05:13.000Z</time>
      </trkpt>
      <trkpt lat="46.17294" lon="2.32528">
        <ele>386</ele>
        <time>2026-08-06T15:05:18.000Z</time>
      </trkpt>
      <trkpt lat="46.17281" lon="2.32497">
        <ele>387</ele>
        <time>2026-08-06T15:05:25.000Z</time>
      </trkpt>
      <trkpt lat="46.17267" lon="2.32466">
        <ele>388.1</ele>
        <time>2026-08-06T15:05:34.000Z</time>
      </trkpt>
      <trkpt lat="46.1726" lon="2.32449">
        <ele>388.6</ele>
        <time>2026-08-06T15:05:40.000Z</time>
      </trkpt>
      <trkpt lat="46.17252" lon="2.3243">
        <ele>389</ele>
        <time>2026-08-06T15:05:46.000Z</time>
      </trkpt>
      <trkpt lat="46.17251" lon="2.32427">
        <ele>389</ele>
        <time>2026-08-06T15:05:47.000Z</time>
      </trkpt>
      <trkpt lat="46.17238" lon="2.32395">
        <ele>389.9</ele>
        <time>2026-08-06T15:05:57.000Z</time>
      </trkpt>
      <trkpt lat="46.17222" lon="2.3236">
        <ele>391</ele>
        <time>2026-08-06T15:06:08.000Z</time>
      </trkpt>
      <trkpt lat="46.17219" lon="2.32353">
        <ele>391</ele>
        <time>2026-08-06T15:06:10.000Z</time>
      </trkpt>
      <trkpt lat="46.17201" lon="2.32311">
        <ele>391</ele>
        <time>2026-08-06T15:06:22.000Z</time>
      </trkpt>
      <trkpt lat="46.17189" lon="2.32284">
        <ele>391</ele>
        <time>2026-08-06T15:06:30.000Z</time>
      </trkpt>
      <trkpt lat="46.17182" lon="2.32265">
        <ele>391.2</ele>
        <time>2026-08-06T15:06:35.000Z</time>
      </trkpt>
      <trkpt lat="46.17166" lon="2.3223">
        <ele>392</ele>
        <time>2026-08-06T15:06:44.000Z</time>
      </trkpt>
      <trkpt lat="46.17148" lon="2.32189">
        <ele>391.9</ele>
        <time>2026-08-06T15:06:54.000Z</time>
      </trkpt>
      <trkpt lat="46.17128" lon="2.32143">
        <ele>391.1</ele>
        <time>2026-08-06T15:07:04.000Z</time>
      </trkpt>
      <trkpt lat="46.17106" lon="2.3209">
        <ele>390.4</ele>
        <time>2026-08-06T15:07:14.000Z</time>
      </trkpt>
      <trkpt lat="46.17083" lon="2.32036">
        <ele>390</ele>
        <time>2026-08-06T15:07:23.000Z</time>
      </trkpt>
      <trkpt lat="46.17058" lon="2.31978">
        <ele>389.1</ele>
        <time>2026-08-06T15:07:33.000Z</time>
      </trkpt>
      <trkpt lat="46.17039" lon="2.31936">
        <ele>388.3</ele>
        <time>2026-08-06T15:07:40.000Z</time>
      </trkpt>
      <trkpt lat="46.17032" lon="2.31918">
        <ele>387.9</ele>
        <time>2026-08-06T15:07:43.000Z</time>
      </trkpt>
      <trkpt lat="46.17015" lon="2.31881">
        <ele>387.8</ele>
        <time>2026-08-06T15:07:49.000Z</time>
      </trkpt>
      <trkpt lat="46.17005" lon="2.31856">
        <ele>387.7</ele>
        <time>2026-08-06T15:07:53.000Z</time>
      </trkpt>
      <trkpt lat="46.16979" lon="2.31795">
        <ele>387.8</ele>
        <time>2026-08-06T15:08:03.000Z</time>
      </trkpt>
      <trkpt lat="46.16951" lon="2.31731">
        <ele>387</ele>
        <time>2026-08-06T15:08:14.000Z</time>
      </trkpt>
      <trkpt lat="46.16925" lon="2.3167">
        <ele>387</ele>
        <time>2026-08-06T15:08:24.000Z</time>
      </trkpt>
      <trkpt lat="46.16903" lon="2.31619">
        <ele>386.1</ele>
        <time>2026-08-06T15:08:32.000Z</time>
      </trkpt>
      <trkpt lat="46.16892" lon="2.31594">
        <ele>386</ele>
        <time>2026-08-06T15:08:36.000Z</time>
      </trkpt>
      <trkpt lat="46.16862" lon="2.31524">
        <ele>384.9</ele>
        <time>2026-08-06T15:08:46.000Z</time>
      </trkpt>
      <trkpt lat="46.16859" lon="2.31516">
        <ele>384.5</ele>
        <time>2026-08-06T15:08:47.000Z</time>
      </trkpt>
      <trkpt lat="46.1684" lon="2.31473">
        <ele>383</ele>
        <time>2026-08-06T15:08:53.000Z</time>
      </trkpt>
      <trkpt lat="46.16832" lon="2.31459">
        <ele>383</ele>
        <time>2026-08-06T15:08:55.000Z</time>
      </trkpt>
      <trkpt lat="46.16808" lon="2.31423">
        <ele>382.9</ele>
        <time>2026-08-06T15:09:01.000Z</time>
      </trkpt>
      <trkpt lat="46.16803" lon="2.31418">
        <ele>383</ele>
        <time>2026-08-06T15:09:02.000Z</time>
      </trkpt>
      <trkpt lat="46.16782" lon="2.31404">
        <ele>383</ele>
        <time>2026-08-06T15:09:06.000Z</time>
      </trkpt>
      <trkpt lat="46.16746" lon="2.31385">
        <ele>383.3</ele>
        <time>2026-08-06T15:09:14.000Z</time>
      </trkpt>
      <trkpt lat="46.16715" lon="2.31369">
        <ele>384.8</ele>
        <time>2026-08-06T15:09:22.000Z</time>
      </trkpt>
      <trkpt lat="46.16683" lon="2.31354">
        <ele>385.6</ele>
        <time>2026-08-06T15:09:31.000Z</time>
      </trkpt>
      <trkpt lat="46.16673" lon="2.31349">
        <ele>385.9</ele>
        <time>2026-08-06T15:09:34.000Z</time>
      </trkpt>
      <trkpt lat="46.16663" lon="2.31344">
        <ele>386.1</ele>
        <time>2026-08-06T15:09:37.000Z</time>
      </trkpt>
      <trkpt lat="46.1664" lon="2.31332">
        <ele>386.9</ele>
        <time>2026-08-06T15:09:44.000Z</time>
      </trkpt>
      <trkpt lat="46.16634" lon="2.31328">
        <ele>387</ele>
        <time>2026-08-06T15:09:46.000Z</time>
      </trkpt>
      <trkpt lat="46.16615" lon="2.31318">
        <ele>387</ele>
        <time>2026-08-06T15:09:52.000Z</time>
      </trkpt>
      <trkpt lat="46.16591" lon="2.31306">
        <ele>387.7</ele>
        <time>2026-08-06T15:10:00.000Z</time>
      </trkpt>
      <trkpt lat="46.16581" lon="2.31301">
        <ele>388</ele>
        <time>2026-08-06T15:10:03.000Z</time>
      </trkpt>
      <trkpt lat="46.16576" lon="2.31298">
        <ele>388</ele>
        <time>2026-08-06T15:10:05.000Z</time>
      </trkpt>
      <trkpt lat="46.16567" lon="2.31292">
        <ele>388</ele>
        <time>2026-08-06T15:10:09.000Z</time>
      </trkpt>
      <trkpt lat="46.16548" lon="2.31278">
        <ele>388</ele>
        <time>2026-08-06T15:10:16.000Z</time>
      </trkpt>
      <trkpt lat="46.16526" lon="2.31262">
        <ele>388</ele>
        <time>2026-08-06T15:10:24.000Z</time>
      </trkpt>
      <trkpt lat="46.16506" lon="2.31247">
        <ele>388.1</ele>
        <time>2026-08-06T15:10:31.000Z</time>
      </trkpt>
      <trkpt lat="46.16476" lon="2.31226">
        <ele>388.1</ele>
        <time>2026-08-06T15:10:40.000Z</time>
      </trkpt>
      <trkpt lat="46.16443" lon="2.31202">
        <ele>388.7</ele>
        <time>2026-08-06T15:10:49.000Z</time>
      </trkpt>
      <trkpt lat="46.16418" lon="2.31184">
        <ele>388.4</ele>
        <time>2026-08-06T15:10:56.000Z</time>
      </trkpt>
      <trkpt lat="46.16383" lon="2.31159">
        <ele>389</ele>
        <time>2026-08-06T15:11:06.000Z</time>
      </trkpt>
      <trkpt lat="46.16343" lon="2.31131">
        <ele>389</ele>
        <time>2026-08-06T15:11:17.000Z</time>
      </trkpt>
      <trkpt lat="46.1632" lon="2.31113">
        <ele>389</ele>
        <time>2026-08-06T15:11:24.000Z</time>
      </trkpt>
      <trkpt lat="46.16309" lon="2.31106">
        <ele>389.2</ele>
        <time>2026-08-06T15:11:27.000Z</time>
      </trkpt>
      <trkpt lat="46.1628" lon="2.31085">
        <ele>389.9</ele>
        <time>2026-08-06T15:11:35.000Z</time>
      </trkpt>
      <trkpt lat="46.16252" lon="2.31066">
        <ele>390</ele>
        <time>2026-08-06T15:11:43.000Z</time>
      </trkpt>
      <trkpt lat="46.1623" lon="2.31049">
        <ele>390.2</ele>
        <time>2026-08-06T15:11:50.000Z</time>
      </trkpt>
      <trkpt lat="46.16223" lon="2.31044">
        <ele>390.4</ele>
        <time>2026-08-06T15:11:52.000Z</time>
      </trkpt>
      <trkpt lat="46.16198" lon="2.31025">
        <ele>391</ele>
        <time>2026-08-06T15:11:59.000Z</time>
      </trkpt>
      <trkpt lat="46.1616" lon="2.30999">
        <ele>391</ele>
        <time>2026-08-06T15:12:09.000Z</time>
      </trkpt>
      <trkpt lat="46.16136" lon="2.30982">
        <ele>391</ele>
        <time>2026-08-06T15:12:15.000Z</time>
      </trkpt>
      <trkpt lat="46.16124" lon="2.30973">
        <ele>391</ele>
        <time>2026-08-06T15:12:18.000Z</time>
      </trkpt>
      <trkpt lat="46.16089" lon="2.30948">
        <ele>391.9</ele>
        <time>2026-08-06T15:12:27.000Z</time>
      </trkpt>
      <trkpt lat="46.16081" lon="2.30942">
        <ele>392</ele>
        <time>2026-08-06T15:12:29.000Z</time>
      </trkpt>
      <trkpt lat="46.16051" lon="2.3092">
        <ele>392</ele>
        <time>2026-08-06T15:12:37.000Z</time>
      </trkpt>
      <trkpt lat="46.16048" lon="2.30917">
        <ele>392</ele>
        <time>2026-08-06T15:12:38.000Z</time>
      </trkpt>
      <trkpt lat="46.16044" lon="2.30914">
        <ele>392</ele>
        <time>2026-08-06T15:12:39.000Z</time>
      </trkpt>
      <trkpt lat="46.16021" lon="2.30898">
        <ele>392</ele>
        <time>2026-08-06T15:12:45.000Z</time>
      </trkpt>
      <trkpt lat="46.16" lon="2.30883">
        <ele>392</ele>
        <time>2026-08-06T15:12:50.000Z</time>
      </trkpt>
      <trkpt lat="46.15984" lon="2.30874">
        <ele>392</ele>
        <time>2026-08-06T15:12:54.000Z</time>
      </trkpt>
      <trkpt lat="46.1598" lon="2.30871">
        <ele>392</ele>
        <time>2026-08-06T15:12:55.000Z</time>
      </trkpt>
      <trkpt lat="46.15946" lon="2.30845">
        <ele>392</ele>
        <time>2026-08-06T15:13:03.000Z</time>
      </trkpt>
      <trkpt lat="46.15901" lon="2.30812">
        <ele>391.6</ele>
        <time>2026-08-06T15:13:13.000Z</time>
      </trkpt>
      <trkpt lat="46.15866" lon="2.30787">
        <ele>391</ele>
        <time>2026-08-06T15:13:20.000Z</time>
      </trkpt>
      <trkpt lat="46.1583" lon="2.30762">
        <ele>390.5</ele>
        <time>2026-08-06T15:13:27.000Z</time>
      </trkpt>
      <trkpt lat="46.1582" lon="2.30755">
        <ele>390.6</ele>
        <time>2026-08-06T15:13:29.000Z</time>
      </trkpt>
      <trkpt lat="46.15772" lon="2.30721">
        <ele>391</ele>
        <time>2026-08-06T15:13:39.000Z</time>
      </trkpt>
      <trkpt lat="46.15767" lon="2.30717">
        <ele>390.9</ele>
        <time>2026-08-06T15:13:40.000Z</time>
      </trkpt>
      <trkpt lat="46.15733" lon="2.30693">
        <ele>391</ele>
        <time>2026-08-06T15:13:48.000Z</time>
      </trkpt>
      <trkpt lat="46.157" lon="2.30669">
        <ele>391.1</ele>
        <time>2026-08-06T15:13:56.000Z</time>
      </trkpt>
      <trkpt lat="46.15657" lon="2.30638">
        <ele>391.4</ele>
        <time>2026-08-06T15:14:07.000Z</time>
      </trkpt>
      <trkpt lat="46.15615" lon="2.30609">
        <ele>392.8</ele>
        <time>2026-08-06T15:14:18.000Z</time>
      </trkpt>
      <trkpt lat="46.15586" lon="2.30588">
        <ele>392.9</ele>
        <time>2026-08-06T15:14:26.000Z</time>
      </trkpt>
      <trkpt lat="46.15582" lon="2.30585">
        <ele>393</ele>
        <time>2026-08-06T15:14:27.000Z</time>
      </trkpt>
      <trkpt lat="46.1557" lon="2.30578">
        <ele>392.8</ele>
        <time>2026-08-06T15:14:30.000Z</time>
      </trkpt>
      <trkpt lat="46.15563" lon="2.30572">
        <ele>392.6</ele>
        <time>2026-08-06T15:14:32.000Z</time>
      </trkpt>
      <trkpt lat="46.15559" lon="2.30569">
        <ele>392.5</ele>
        <time>2026-08-06T15:14:33.000Z</time>
      </trkpt>
      <trkpt lat="46.1552" lon="2.30542">
        <ele>393.3</ele>
        <time>2026-08-06T15:14:43.000Z</time>
      </trkpt>
      <trkpt lat="46.15491" lon="2.3052">
        <ele>393.8</ele>
        <time>2026-08-06T15:14:52.000Z</time>
      </trkpt>
      <trkpt lat="46.15487" lon="2.30517">
        <ele>393.8</ele>
        <time>2026-08-06T15:14:53.000Z</time>
      </trkpt>
      <trkpt lat="46.15466" lon="2.30501">
        <ele>394.2</ele>
        <time>2026-08-06T15:15:00.000Z</time>
      </trkpt>
      <trkpt lat="46.15432" lon="2.30469">
        <ele>394.4</ele>
        <time>2026-08-06T15:15:11.000Z</time>
      </trkpt>
      <trkpt lat="46.15399" lon="2.30438">
        <ele>394.7</ele>
        <time>2026-08-06T15:15:22.000Z</time>
      </trkpt>
      <trkpt lat="46.15383" lon="2.30419">
        <ele>395</ele>
        <time>2026-08-06T15:15:29.000Z</time>
      </trkpt>
      <trkpt lat="46.15379" lon="2.30414">
        <ele>395</ele>
        <time>2026-08-06T15:15:31.000Z</time>
      </trkpt>
      <trkpt lat="46.15366" lon="2.30399">
        <ele>395.5</ele>
        <time>2026-08-06T15:15:37.000Z</time>
      </trkpt>
      <trkpt lat="46.15338" lon="2.30368">
        <ele>395.9</ele>
        <time>2026-08-06T15:15:49.000Z</time>
      </trkpt>
      <trkpt lat="46.15318" lon="2.30346">
        <ele>395.8</ele>
        <time>2026-08-06T15:15:57.000Z</time>
      </trkpt>
      <trkpt lat="46.15316" lon="2.30344">
        <ele>395.8</ele>
        <time>2026-08-06T15:15:58.000Z</time>
      </trkpt>
      <trkpt lat="46.15296" lon="2.30324">
        <ele>395.8</ele>
        <time>2026-08-06T15:16:05.000Z</time>
      </trkpt>
      <trkpt lat="46.15263" lon="2.30295">
        <ele>395.4</ele>
        <time>2026-08-06T15:16:15.000Z</time>
      </trkpt>
      <trkpt lat="46.15236" lon="2.30271">
        <ele>395.3</ele>
        <time>2026-08-06T15:16:23.000Z</time>
      </trkpt>
      <trkpt lat="46.15201" lon="2.30241">
        <ele>395.3</ele>
        <time>2026-08-06T15:16:33.000Z</time>
      </trkpt>
      <trkpt lat="46.15172" lon="2.30213">
        <ele>395.4</ele>
        <time>2026-08-06T15:16:42.000Z</time>
      </trkpt>
      <trkpt lat="46.15141" lon="2.30184">
        <ele>395.5</ele>
        <time>2026-08-06T15:16:52.000Z</time>
      </trkpt>
      <trkpt lat="46.15129" lon="2.3017">
        <ele>395.5</ele>
        <time>2026-08-06T15:16:57.000Z</time>
      </trkpt>
      <trkpt lat="46.15113" lon="2.30152">
        <ele>395.9</ele>
        <time>2026-08-06T15:17:03.000Z</time>
      </trkpt>
      <trkpt lat="46.15101" lon="2.30137">
        <ele>396.3</ele>
        <time>2026-08-06T15:17:08.000Z</time>
      </trkpt>
      <trkpt lat="46.15081" lon="2.30107">
        <ele>396.9</ele>
        <time>2026-08-06T15:17:17.000Z</time>
      </trkpt>
      <trkpt lat="46.15071" lon="2.30093">
        <ele>396.6</ele>
        <time>2026-08-06T15:17:21.000Z</time>
      </trkpt>
      <trkpt lat="46.15059" lon="2.30071">
        <ele>396.9</ele>
        <time>2026-08-06T15:17:27.000Z</time>
      </trkpt>
      <trkpt lat="46.15046" lon="2.30051">
        <ele>397.4</ele>
        <time>2026-08-06T15:17:33.000Z</time>
      </trkpt>
      <trkpt lat="46.15035" lon="2.30033">
        <ele>397.8</ele>
        <time>2026-08-06T15:17:38.000Z</time>
      </trkpt>
      <trkpt lat="46.1503" lon="2.30025">
        <ele>397.8</ele>
        <time>2026-08-06T15:17:40.000Z</time>
      </trkpt>
      <trkpt lat="46.15015" lon="2.3">
        <ele>397.5</ele>
        <time>2026-08-06T15:17:47.000Z</time>
      </trkpt>
      <trkpt lat="46.14996" lon="2.29968">
        <ele>398.2</ele>
        <time>2026-08-06T15:17:56.000Z</time>
      </trkpt>
      <trkpt lat="46.14984" lon="2.29946">
        <ele>398.6</ele>
        <time>2026-08-06T15:18:02.000Z</time>
      </trkpt>
      <trkpt lat="46.14975" lon="2.29932">
        <ele>398.9</ele>
        <time>2026-08-06T15:18:06.000Z</time>
      </trkpt>
      <trkpt lat="46.14961" lon="2.29902">
        <ele>399.4</ele>
        <time>2026-08-06T15:18:14.000Z</time>
      </trkpt>
      <trkpt lat="46.14951" lon="2.29882">
        <ele>399.8</ele>
        <time>2026-08-06T15:18:20.000Z</time>
      </trkpt>
      <trkpt lat="46.14939" lon="2.29856">
        <ele>400.4</ele>
        <time>2026-08-06T15:18:28.000Z</time>
      </trkpt>
      <trkpt lat="46.14936" lon="2.2985">
        <ele>400.7</ele>
        <time>2026-08-06T15:18:30.000Z</time>
      </trkpt>
      <trkpt lat="46.14919" lon="2.29817">
        <ele>401.9</ele>
        <time>2026-08-06T15:18:41.000Z</time>
      </trkpt>
      <trkpt lat="46.14909" lon="2.29796">
        <ele>402.4</ele>
        <time>2026-08-06T15:18:48.000Z</time>
      </trkpt>
      <trkpt lat="46.14898" lon="2.29777">
        <ele>403.4</ele>
        <time>2026-08-06T15:18:55.000Z</time>
      </trkpt>
      <trkpt lat="46.14895" lon="2.29772">
        <ele>403.6</ele>
        <time>2026-08-06T15:18:57.000Z</time>
      </trkpt>
      <trkpt lat="46.14886" lon="2.2975">
        <ele>404.1</ele>
        <time>2026-08-06T15:19:05.000Z</time>
      </trkpt>
      <trkpt lat="46.14882" lon="2.29741">
        <ele>404.2</ele>
        <time>2026-08-06T15:19:08.000Z</time>
      </trkpt>
      <trkpt lat="46.14872" lon="2.29721">
        <ele>404.7</ele>
        <time>2026-08-06T15:19:16.000Z</time>
      </trkpt>
      <trkpt lat="46.14867" lon="2.2971">
        <ele>405.2</ele>
        <time>2026-08-06T15:19:20.000Z</time>
      </trkpt>
      <trkpt lat="46.14858" lon="2.29694">
        <ele>406.1</ele>
        <time>2026-08-06T15:19:26.000Z</time>
      </trkpt>
      <trkpt lat="46.14851" lon="2.29679">
        <ele>406.9</ele>
        <time>2026-08-06T15:19:32.000Z</time>
      </trkpt>
      <trkpt lat="46.14846" lon="2.29669">
        <ele>407.5</ele>
        <time>2026-08-06T15:19:36.000Z</time>
      </trkpt>
      <trkpt lat="46.14836" lon="2.29648">
        <ele>408.6</ele>
        <time>2026-08-06T15:19:45.000Z</time>
      </trkpt>
      <trkpt lat="46.14828" lon="2.29631">
        <ele>409.3</ele>
        <time>2026-08-06T15:19:52.000Z</time>
      </trkpt>
      <trkpt lat="46.14826" lon="2.29626">
        <ele>409.5</ele>
        <time>2026-08-06T15:19:54.000Z</time>
      </trkpt>
      <trkpt lat="46.14816" lon="2.29607">
        <ele>410.1</ele>
        <time>2026-08-06T15:20:02.000Z</time>
      </trkpt>
      <trkpt lat="46.14811" lon="2.29595">
        <ele>410.5</ele>
        <time>2026-08-06T15:20:07.000Z</time>
      </trkpt>
      <trkpt lat="46.14809" lon="2.29588">
        <ele>410.7</ele>
        <time>2026-08-06T15:20:10.000Z</time>
      </trkpt>
      <trkpt lat="46.14808" lon="2.29583">
        <ele>410.9</ele>
        <time>2026-08-06T15:20:12.000Z</time>
      </trkpt>
      <trkpt lat="46.14803" lon="2.29566">
        <ele>411.1</ele>
        <time>2026-08-06T15:20:18.000Z</time>
      </trkpt>
      <trkpt lat="46.14795" lon="2.29539">
        <ele>411.7</ele>
        <time>2026-08-06T15:20:27.000Z</time>
      </trkpt>
      <trkpt lat="46.1479" lon="2.2952">
        <ele>412</ele>
        <time>2026-08-06T15:20:33.000Z</time>
      </trkpt>
      <trkpt lat="46.14782" lon="2.29492">
        <ele>412.3</ele>
        <time>2026-08-06T15:20:42.000Z</time>
      </trkpt>
      <trkpt lat="46.14774" lon="2.29468">
        <ele>413.2</ele>
        <time>2026-08-06T15:20:51.000Z</time>
      </trkpt>
      <trkpt lat="46.14771" lon="2.29459">
        <ele>413.5</ele>
        <time>2026-08-06T15:20:54.000Z</time>
      </trkpt>
      <trkpt lat="46.14762" lon="2.29437">
        <ele>414.1</ele>
        <time>2026-08-06T15:21:03.000Z</time>
      </trkpt>
      <trkpt lat="46.1475" lon="2.29408">
        <ele>414.3</ele>
        <time>2026-08-06T15:21:14.000Z</time>
      </trkpt>
      <trkpt lat="46.14748" lon="2.29403">
        <ele>414.5</ele>
        <time>2026-08-06T15:21:16.000Z</time>
      </trkpt>
      <trkpt lat="46.14739" lon="2.29381">
        <ele>415.7</ele>
        <time>2026-08-06T15:21:25.000Z</time>
      </trkpt>
      <trkpt lat="46.14732" lon="2.29367">
        <ele>416.2</ele>
        <time>2026-08-06T15:21:31.000Z</time>
      </trkpt>
      <trkpt lat="46.14727" lon="2.29358">
        <ele>416.4</ele>
        <time>2026-08-06T15:21:35.000Z</time>
      </trkpt>
      <trkpt lat="46.14716" lon="2.29337">
        <ele>417.8</ele>
        <time>2026-08-06T15:21:44.000Z</time>
      </trkpt>
      <trkpt lat="46.14714" lon="2.29335">
        <ele>417.9</ele>
        <time>2026-08-06T15:21:45.000Z</time>
      </trkpt>
      <trkpt lat="46.14705" lon="2.29319">
        <ele>418.2</ele>
        <time>2026-08-06T15:21:52.000Z</time>
      </trkpt>
      <trkpt lat="46.14701" lon="2.29311">
        <ele>418.2</ele>
        <time>2026-08-06T15:21:55.000Z</time>
      </trkpt>
      <trkpt lat="46.14691" lon="2.29295">
        <ele>418.5</ele>
        <time>2026-08-06T15:22:02.000Z</time>
      </trkpt>
      <trkpt lat="46.14681" lon="2.29273">
        <ele>419.2</ele>
        <time>2026-08-06T15:22:10.000Z</time>
      </trkpt>
      <trkpt lat="46.14676" lon="2.29259">
        <ele>419.7</ele>
        <time>2026-08-06T15:22:15.000Z</time>
      </trkpt>
      <trkpt lat="46.14673" lon="2.29249">
        <ele>420</ele>
        <time>2026-08-06T15:22:18.000Z</time>
      </trkpt>
      <trkpt lat="46.14662" lon="2.29212">
        <ele>420.5</ele>
        <time>2026-08-06T15:22:30.000Z</time>
      </trkpt>
      <trkpt lat="46.14661" lon="2.29209">
        <ele>420.6</ele>
        <time>2026-08-06T15:22:31.000Z</time>
      </trkpt>
      <trkpt lat="46.14654" lon="2.29179">
        <ele>421.2</ele>
        <time>2026-08-06T15:22:40.000Z</time>
      </trkpt>
      <trkpt lat="46.14649" lon="2.29163">
        <ele>421.7</ele>
        <time>2026-08-06T15:22:45.000Z</time>
      </trkpt>
      <trkpt lat="46.14644" lon="2.29146">
        <ele>421.9</ele>
        <time>2026-08-06T15:22:50.000Z</time>
      </trkpt>
      <trkpt lat="46.14637" lon="2.29121">
        <ele>422</ele>
        <time>2026-08-06T15:22:58.000Z</time>
      </trkpt>
      <trkpt lat="46.14635" lon="2.29114">
        <ele>422.1</ele>
        <time>2026-08-06T15:23:00.000Z</time>
      </trkpt>
      <trkpt lat="46.14626" lon="2.29091">
        <ele>422.5</ele>
        <time>2026-08-06T15:23:07.000Z</time>
      </trkpt>
      <trkpt lat="46.14617" lon="2.29067">
        <ele>422.9</ele>
        <time>2026-08-06T15:23:15.000Z</time>
      </trkpt>
      <trkpt lat="46.14611" lon="2.29052">
        <ele>423.1</ele>
        <time>2026-08-06T15:23:20.000Z</time>
      </trkpt>
      <trkpt lat="46.14605" lon="2.29035">
        <ele>423.8</ele>
        <time>2026-08-06T15:23:25.000Z</time>
      </trkpt>
      <trkpt lat="46.14594" lon="2.29008">
        <ele>424</ele>
        <time>2026-08-06T15:23:33.000Z</time>
      </trkpt>
      <trkpt lat="46.1458" lon="2.2898">
        <ele>424.1</ele>
        <time>2026-08-06T15:23:42.000Z</time>
      </trkpt>
      <trkpt lat="46.14578" lon="2.28977">
        <ele>424.2</ele>
        <time>2026-08-06T15:23:43.000Z</time>
      </trkpt>
      <trkpt lat="46.14558" lon="2.28941">
        <ele>424.8</ele>
        <time>2026-08-06T15:23:54.000Z</time>
      </trkpt>
      <trkpt lat="46.14535" lon="2.28897">
        <ele>424.7</ele>
        <time>2026-08-06T15:24:05.000Z</time>
      </trkpt>
      <trkpt lat="46.14517" lon="2.28852">
        <ele>424.8</ele>
        <time>2026-08-06T15:24:15.000Z</time>
      </trkpt>
      <trkpt lat="46.14499" lon="2.28795">
        <ele>424.6</ele>
        <time>2026-08-06T15:24:27.000Z</time>
      </trkpt>
      <trkpt lat="46.14483" lon="2.28739">
        <ele>424.6</ele>
        <time>2026-08-06T15:24:38.000Z</time>
      </trkpt>
      <trkpt lat="46.14477" lon="2.28705">
        <ele>424.7</ele>
        <time>2026-08-06T15:24:45.000Z</time>
      </trkpt>
      <trkpt lat="46.14471" lon="2.28662">
        <ele>425</ele>
        <time>2026-08-06T15:24:54.000Z</time>
      </trkpt>
      <trkpt lat="46.14468" lon="2.28637">
        <ele>425.2</ele>
        <time>2026-08-06T15:24:59.000Z</time>
      </trkpt>
      <trkpt lat="46.14466" lon="2.28622">
        <ele>425.2</ele>
        <time>2026-08-06T15:25:02.000Z</time>
      </trkpt>
      <trkpt lat="46.14465" lon="2.28613">
        <ele>425.3</ele>
        <time>2026-08-06T15:25:04.000Z</time>
      </trkpt>
      <trkpt lat="46.14456" lon="2.28569">
        <ele>425.2</ele>
        <time>2026-08-06T15:25:13.000Z</time>
      </trkpt>
      <trkpt lat="46.14443" lon="2.28537">
        <ele>426.1</ele>
        <time>2026-08-06T15:25:21.000Z</time>
      </trkpt>
      <trkpt lat="46.14424" lon="2.28504">
        <ele>425.6</ele>
        <time>2026-08-06T15:25:31.000Z</time>
      </trkpt>
      <trkpt lat="46.14411" lon="2.28471">
        <ele>426.4</ele>
        <time>2026-08-06T15:25:40.000Z</time>
      </trkpt>
      <trkpt lat="46.14405" lon="2.28454">
        <ele>426.9</ele>
        <time>2026-08-06T15:25:45.000Z</time>
      </trkpt>
      <trkpt lat="46.14401" lon="2.28444">
        <ele>427.1</ele>
        <time>2026-08-06T15:25:48.000Z</time>
      </trkpt>
      <trkpt lat="46.14396" lon="2.28427">
        <ele>427.6</ele>
        <time>2026-08-06T15:25:53.000Z</time>
      </trkpt>
      <trkpt lat="46.14394" lon="2.28421">
        <ele>427.8</ele>
        <time>2026-08-06T15:25:55.000Z</time>
      </trkpt>
      <trkpt lat="46.14385" lon="2.28396">
        <ele>428.4</ele>
        <time>2026-08-06T15:26:03.000Z</time>
      </trkpt>
      <trkpt lat="46.14376" lon="2.28373">
        <ele>429.4</ele>
        <time>2026-08-06T15:26:11.000Z</time>
      </trkpt>
      <trkpt lat="46.14375" lon="2.28371">
        <ele>429.5</ele>
        <time>2026-08-06T15:26:12.000Z</time>
      </trkpt>
      <trkpt lat="46.14367" lon="2.28351">
        <ele>430.5</ele>
        <time>2026-08-06T15:26:20.000Z</time>
      </trkpt>
      <trkpt lat="46.14358" lon="2.28335">
        <ele>431.1</ele>
        <time>2026-08-06T15:26:27.000Z</time>
      </trkpt>
      <trkpt lat="46.14356" lon="2.28333">
        <ele>431.2</ele>
        <time>2026-08-06T15:26:28.000Z</time>
      </trkpt>
      <trkpt lat="46.14348" lon="2.2832">
        <ele>431.2</ele>
        <time>2026-08-06T15:26:34.000Z</time>
      </trkpt>
      <trkpt lat="46.14343" lon="2.28312">
        <ele>431.4</ele>
        <time>2026-08-06T15:26:38.000Z</time>
      </trkpt>
      <trkpt lat="46.14337" lon="2.28304">
        <ele>431.8</ele>
        <time>2026-08-06T15:26:42.000Z</time>
      </trkpt>
      <trkpt lat="46.14326" lon="2.2829">
        <ele>432.3</ele>
        <time>2026-08-06T15:26:50.000Z</time>
      </trkpt>
      <trkpt lat="46.14318" lon="2.28277">
        <ele>432.6</ele>
        <time>2026-08-06T15:26:57.000Z</time>
      </trkpt>
      <trkpt lat="46.14316" lon="2.28273">
        <ele>432.6</ele>
        <time>2026-08-06T15:26:59.000Z</time>
      </trkpt>
      <trkpt lat="46.14306" lon="2.28259">
        <ele>433</ele>
        <time>2026-08-06T15:27:07.000Z</time>
      </trkpt>
      <trkpt lat="46.14299" lon="2.28247">
        <ele>433.5</ele>
        <time>2026-08-06T15:27:14.000Z</time>
      </trkpt>
      <trkpt lat="46.14298" lon="2.28244">
        <ele>433.6</ele>
        <time>2026-08-06T15:27:16.000Z</time>
      </trkpt>
      <trkpt lat="46.14295" lon="2.28239">
        <ele>433.8</ele>
        <time>2026-08-06T15:27:21.000Z</time>
      </trkpt>
      <trkpt lat="46.14295" lon="2.28239">
        <ele>433.8</ele>
        <time>2026-08-06T15:27:22.000Z</time>
      </trkpt>
      <trkpt lat="46.14283" lon="2.28223">
        <ele>434.6</ele>
        <time>2026-08-06T15:50:58.000Z</time>
      </trkpt>
      <trkpt lat="46.14281" lon="2.28219">
        <ele>434.8</ele>
        <time>2026-08-06T15:51:00.000Z</time>
      </trkpt>
      <trkpt lat="46.1428" lon="2.28219">
        <ele>434.9</ele>
        <time>2026-08-06T15:51:01.000Z</time>
      </trkpt>
      <trkpt lat="46.14279" lon="2.28221">
        <ele>434.9</ele>
        <time>2026-08-06T15:51:03.000Z</time>
      </trkpt>
      <trkpt lat="46.14285" lon="2.28228">
        <ele>434.5</ele>
        <time>2026-08-06T15:51:07.000Z</time>
      </trkpt>
      <trkpt lat="46.14288" lon="2.28229">
        <ele>434.3</ele>
        <time>2026-08-06T15:51:09.000Z</time>
      </trkpt>
      <trkpt lat="46.14289" lon="2.28233">
        <ele>434.2</ele>
        <time>2026-08-06T15:51:13.000Z</time>
      </trkpt>
      <trkpt lat="46.14288" lon="2.28234">
        <ele>434.3</ele>
        <time>2026-08-06T15:51:14.000Z</time>
      </trkpt>
      <trkpt lat="46.14282" lon="2.28224">
        <ele>434.7</ele>
        <time>2026-08-06T15:51:19.000Z</time>
      </trkpt>
      <trkpt lat="46.14276" lon="2.28212">
        <ele>435.2</ele>
        <time>2026-08-06T15:51:25.000Z</time>
      </trkpt>
      <trkpt lat="46.14268" lon="2.28202">
        <ele>435.7</ele>
        <time>2026-08-06T15:51:31.000Z</time>
      </trkpt>
      <trkpt lat="46.14261" lon="2.28194">
        <ele>436.2</ele>
        <time>2026-08-06T15:51:36.000Z</time>
      </trkpt>
      <trkpt lat="46.1426" lon="2.28192">
        <ele>436.3</ele>
        <time>2026-08-06T15:51:37.000Z</time>
      </trkpt>
      <trkpt lat="46.14252" lon="2.28184">
        <ele>436.9</ele>
        <time>2026-08-06T15:51:43.000Z</time>
      </trkpt>
      <trkpt lat="46.1425" lon="2.28181">
        <ele>437</ele>
        <time>2026-08-06T15:51:45.000Z</time>
      </trkpt>
      <trkpt lat="46.14238" lon="2.28168">
        <ele>437.8</ele>
        <time>2026-08-06T15:51:53.000Z</time>
      </trkpt>
      <trkpt lat="46.14236" lon="2.28166">
        <ele>438</ele>
        <time>2026-08-06T15:51:54.000Z</time>
      </trkpt>
      <trkpt lat="46.14223" lon="2.28152">
        <ele>439</ele>
        <time>2026-08-06T15:52:03.000Z</time>
      </trkpt>
      <trkpt lat="46.1422" lon="2.28148">
        <ele>439.1</ele>
        <time>2026-08-06T15:52:05.000Z</time>
      </trkpt>
      <trkpt lat="46.14212" lon="2.28138">
        <ele>439.8</ele>
        <time>2026-08-06T15:52:11.000Z</time>
      </trkpt>
      <trkpt lat="46.14204" lon="2.28129">
        <ele>440.1</ele>
        <time>2026-08-06T15:52:16.000Z</time>
      </trkpt>
      <trkpt lat="46.142" lon="2.28122">
        <ele>440.1</ele>
        <time>2026-08-06T15:52:19.000Z</time>
      </trkpt>
      <trkpt lat="46.14191" lon="2.28105">
        <ele>440.2</ele>
        <time>2026-08-06T15:52:26.000Z</time>
      </trkpt>
      <trkpt lat="46.1418" lon="2.2808">
        <ele>440.6</ele>
        <time>2026-08-06T15:52:35.000Z</time>
      </trkpt>
      <trkpt lat="46.14171" lon="2.28061">
        <ele>441.5</ele>
        <time>2026-08-06T15:52:42.000Z</time>
      </trkpt>
      <trkpt lat="46.14168" lon="2.28053">
        <ele>441.9</ele>
        <time>2026-08-06T15:52:45.000Z</time>
      </trkpt>
      <trkpt lat="46.14154" lon="2.28024">
        <ele>442.4</ele>
        <time>2026-08-06T15:52:55.000Z</time>
      </trkpt>
      <trkpt lat="46.14148" lon="2.2801">
        <ele>442.7</ele>
        <time>2026-08-06T15:53:00.000Z</time>
      </trkpt>
      <trkpt lat="46.14145" lon="2.28004">
        <ele>442.8</ele>
        <time>2026-08-06T15:53:02.000Z</time>
      </trkpt>
      <trkpt lat="46.14133" lon="2.27979">
        <ele>443.2</ele>
        <time>2026-08-06T15:53:10.000Z</time>
      </trkpt>
      <trkpt lat="46.14121" lon="2.27951">
        <ele>443.9</ele>
        <time>2026-08-06T15:53:19.000Z</time>
      </trkpt>
      <trkpt lat="46.14118" lon="2.27946">
        <ele>444</ele>
        <time>2026-08-06T15:53:21.000Z</time>
      </trkpt>
      <trkpt lat="46.14103" lon="2.27914">
        <ele>444</ele>
        <time>2026-08-06T15:53:31.000Z</time>
      </trkpt>
      <trkpt lat="46.1409" lon="2.27888">
        <ele>444.7</ele>
        <time>2026-08-06T15:53:39.000Z</time>
      </trkpt>
      <trkpt lat="46.14084" lon="2.27875">
        <ele>445</ele>
        <time>2026-08-06T15:53:43.000Z</time>
      </trkpt>
      <trkpt lat="46.14073" lon="2.27851">
        <ele>445</ele>
        <time>2026-08-06T15:53:50.000Z</time>
      </trkpt>
      <trkpt lat="46.14059" lon="2.2782">
        <ele>445.4</ele>
        <time>2026-08-06T15:53:59.000Z</time>
      </trkpt>
      <trkpt lat="46.14044" lon="2.27789">
        <ele>446</ele>
        <time>2026-08-06T15:54:08.000Z</time>
      </trkpt>
      <trkpt lat="46.14036" lon="2.27772">
        <ele>446.2</ele>
        <time>2026-08-06T15:54:13.000Z</time>
      </trkpt>
      <trkpt lat="46.1403" lon="2.27762">
        <ele>446.6</ele>
        <time>2026-08-06T15:54:16.000Z</time>
      </trkpt>
      <trkpt lat="46.1402" lon="2.27742">
        <ele>447</ele>
        <time>2026-08-06T15:54:22.000Z</time>
      </trkpt>
      <trkpt lat="46.14016" lon="2.27737">
        <ele>447</ele>
        <time>2026-08-06T15:54:24.000Z</time>
      </trkpt>
      <trkpt lat="46.13998" lon="2.27712">
        <ele>447.3</ele>
        <time>2026-08-06T15:54:32.000Z</time>
      </trkpt>
      <trkpt lat="46.13984" lon="2.27696">
        <ele>447.4</ele>
        <time>2026-08-06T15:54:38.000Z</time>
      </trkpt>
      <trkpt lat="46.13971" lon="2.27682">
        <ele>447</ele>
        <time>2026-08-06T15:54:43.000Z</time>
      </trkpt>
      <trkpt lat="46.13968" lon="2.27679">
        <ele>447</ele>
        <time>2026-08-06T15:54:44.000Z</time>
      </trkpt>
      <trkpt lat="46.13945" lon="2.27659">
        <ele>447</ele>
        <time>2026-08-06T15:54:51.000Z</time>
      </trkpt>
      <trkpt lat="46.13919" lon="2.27636">
        <ele>446.1</ele>
        <time>2026-08-06T15:54:58.000Z</time>
      </trkpt>
      <trkpt lat="46.13885" lon="2.27608">
        <ele>444.9</ele>
        <time>2026-08-06T15:55:06.000Z</time>
      </trkpt>
      <trkpt lat="46.13871" lon="2.27594">
        <ele>444.4</ele>
        <time>2026-08-06T15:55:10.000Z</time>
      </trkpt>
      <trkpt lat="46.13866" lon="2.27589">
        <ele>444.2</ele>
        <time>2026-08-06T15:55:12.000Z</time>
      </trkpt>
      <trkpt lat="46.13866" lon="2.27588">
        <ele>444.2</ele>
        <time>2026-08-06T15:55:15.000Z</time>
      </trkpt>
      <trkpt lat="46.13861" lon="2.27585">
        <ele>444</ele>
        <time>2026-08-06T15:55:32.000Z</time>
      </trkpt>
      <trkpt lat="46.13856" lon="2.27583">
        <ele>443.9</ele>
        <time>2026-08-06T15:55:34.000Z</time>
      </trkpt>
      <trkpt lat="46.13844" lon="2.2757">
        <ele>443.5</ele>
        <time>2026-08-06T15:55:39.000Z</time>
      </trkpt>
      <trkpt lat="46.13839" lon="2.27565">
        <ele>443.3</ele>
        <time>2026-08-06T15:55:41.000Z</time>
      </trkpt>
      <trkpt lat="46.13829" lon="2.27552">
        <ele>443.1</ele>
        <time>2026-08-06T15:55:46.000Z</time>
      </trkpt>
      <trkpt lat="46.13814" lon="2.27533">
        <ele>443.2</ele>
        <time>2026-08-06T15:55:52.000Z</time>
      </trkpt>
      <trkpt lat="46.13811" lon="2.27529">
        <ele>443.2</ele>
        <time>2026-08-06T15:55:53.000Z</time>
      </trkpt>
      <trkpt lat="46.13808" lon="2.27524">
        <ele>443.1</ele>
        <time>2026-08-06T15:55:54.000Z</time>
      </trkpt>
      <trkpt lat="46.13797" lon="2.27504">
        <ele>442.7</ele>
        <time>2026-08-06T15:55:58.000Z</time>
      </trkpt>
      <trkpt lat="46.13789" lon="2.27487">
        <ele>442.1</ele>
        <time>2026-08-06T15:56:01.000Z</time>
      </trkpt>
      <trkpt lat="46.13781" lon="2.27471">
        <ele>441.2</ele>
        <time>2026-08-06T15:56:04.000Z</time>
      </trkpt>
      <trkpt lat="46.13773" lon="2.27454">
        <ele>441.4</ele>
        <time>2026-08-06T15:56:07.000Z</time>
      </trkpt>
      <trkpt lat="46.13768" lon="2.27442">
        <ele>441.3</ele>
        <time>2026-08-06T15:56:09.000Z</time>
      </trkpt>
      <trkpt lat="46.13752" lon="2.27404">
        <ele>440.1</ele>
        <time>2026-08-06T15:56:15.000Z</time>
      </trkpt>
      <trkpt lat="46.13749" lon="2.27397">
        <ele>440</ele>
        <time>2026-08-06T15:56:16.000Z</time>
      </trkpt>
      <trkpt lat="46.13728" lon="2.27343">
        <ele>439.2</ele>
        <time>2026-08-06T15:56:24.000Z</time>
      </trkpt>
      <trkpt lat="46.1372" lon="2.27323">
        <ele>439</ele>
        <time>2026-08-06T15:56:27.000Z</time>
      </trkpt>
      <trkpt lat="46.13703" lon="2.27281">
        <ele>437.7</ele>
        <time>2026-08-06T15:56:33.000Z</time>
      </trkpt>
      <trkpt lat="46.13691" lon="2.27254">
        <ele>437.7</ele>
        <time>2026-08-06T15:56:37.000Z</time>
      </trkpt>
      <trkpt lat="46.13683" lon="2.27234">
        <ele>437</ele>
        <time>2026-08-06T15:56:40.000Z</time>
      </trkpt>
      <trkpt lat="46.13675" lon="2.27214">
        <ele>436</ele>
        <time>2026-08-06T15:56:43.000Z</time>
      </trkpt>
      <trkpt lat="46.13661" lon="2.27181">
        <ele>434.9</ele>
        <time>2026-08-06T15:56:48.000Z</time>
      </trkpt>
      <trkpt lat="46.13656" lon="2.27168">
        <ele>434.6</ele>
        <time>2026-08-06T15:56:50.000Z</time>
      </trkpt>
      <trkpt lat="46.13645" lon="2.27142">
        <ele>434.2</ele>
        <time>2026-08-06T15:56:55.000Z</time>
      </trkpt>
      <trkpt lat="46.13643" lon="2.2714">
        <ele>434.2</ele>
        <time>2026-08-06T15:56:56.000Z</time>
      </trkpt>
      <trkpt lat="46.13641" lon="2.27139">
        <ele>434.1</ele>
        <time>2026-08-06T15:56:57.000Z</time>
      </trkpt>
      <trkpt lat="46.13638" lon="2.2714">
        <ele>434</ele>
        <time>2026-08-06T15:56:58.000Z</time>
      </trkpt>
      <trkpt lat="46.13629" lon="2.27155">
        <ele>433.8</ele>
        <time>2026-08-06T15:57:02.000Z</time>
      </trkpt>
      <trkpt lat="46.13626" lon="2.27159">
        <ele>433.9</ele>
        <time>2026-08-06T15:57:03.000Z</time>
      </trkpt>
      <trkpt lat="46.13597" lon="2.27205">
        <ele>434.2</ele>
        <time>2026-08-06T15:57:14.000Z</time>
      </trkpt>
      <trkpt lat="46.13566" lon="2.2725">
        <ele>434</ele>
        <time>2026-08-06T15:57:24.000Z</time>
      </trkpt>
      <trkpt lat="46.13543" lon="2.27287">
        <ele>433.7</ele>
        <time>2026-08-06T15:57:32.000Z</time>
      </trkpt>
      <trkpt lat="46.13518" lon="2.27325">
        <ele>433.3</ele>
        <time>2026-08-06T15:57:40.000Z</time>
      </trkpt>
      <trkpt lat="46.13486" lon="2.27371">
        <ele>433.2</ele>
        <time>2026-08-06T15:57:49.000Z</time>
      </trkpt>
      <trkpt lat="46.13448" lon="2.27431">
        <ele>432.1</ele>
        <time>2026-08-06T15:58:00.000Z</time>
      </trkpt>
      <trkpt lat="46.13408" lon="2.27487">
        <ele>431.3</ele>
        <time>2026-08-06T15:58:11.000Z</time>
      </trkpt>
      <trkpt lat="46.13403" lon="2.27491">
        <ele>431.3</ele>
        <time>2026-08-06T15:58:12.000Z</time>
      </trkpt>
      <trkpt lat="46.13383" lon="2.27504">
        <ele>431.8</ele>
        <time>2026-08-06T15:58:16.000Z</time>
      </trkpt>
      <trkpt lat="46.13378" lon="2.27507">
        <ele>431.7</ele>
        <time>2026-08-06T15:58:17.000Z</time>
      </trkpt>
      <trkpt lat="46.13327" lon="2.27534">
        <ele>432.2</ele>
        <time>2026-08-06T15:58:27.000Z</time>
      </trkpt>
      <trkpt lat="46.13322" lon="2.27536">
        <ele>432.3</ele>
        <time>2026-08-06T15:58:28.000Z</time>
      </trkpt>
      <trkpt lat="46.13278" lon="2.2756">
        <ele>433.1</ele>
        <time>2026-08-06T15:58:38.000Z</time>
      </trkpt>
      <trkpt lat="46.13244" lon="2.27578">
        <ele>432.8</ele>
        <time>2026-08-06T15:58:47.000Z</time>
      </trkpt>
      <trkpt lat="46.13203" lon="2.27591">
        <ele>432.6</ele>
        <time>2026-08-06T15:58:56.000Z</time>
      </trkpt>
      <trkpt lat="46.13198" lon="2.2759">
        <ele>432.4</ele>
        <time>2026-08-06T15:58:57.000Z</time>
      </trkpt>
      <trkpt lat="46.13194" lon="2.27589">
        <ele>432.2</ele>
        <time>2026-08-06T15:58:58.000Z</time>
      </trkpt>
      <trkpt lat="46.13184" lon="2.27586">
        <ele>432.5</ele>
        <time>2026-08-06T15:59:00.000Z</time>
      </trkpt>
      <trkpt lat="46.13171" lon="2.27578">
        <ele>432.8</ele>
        <time>2026-08-06T15:59:03.000Z</time>
      </trkpt>
      <trkpt lat="46.13162" lon="2.27571">
        <ele>432.9</ele>
        <time>2026-08-06T15:59:05.000Z</time>
      </trkpt>
      <trkpt lat="46.13142" lon="2.27548">
        <ele>432.1</ele>
        <time>2026-08-06T15:59:10.000Z</time>
      </trkpt>
      <trkpt lat="46.1311" lon="2.27501">
        <ele>430.9</ele>
        <time>2026-08-06T15:59:18.000Z</time>
      </trkpt>
      <trkpt lat="46.13106" lon="2.27495">
        <ele>430.3</ele>
        <time>2026-08-06T15:59:19.000Z</time>
      </trkpt>
      <trkpt lat="46.13069" lon="2.27441">
        <ele>430.6</ele>
        <time>2026-08-06T15:59:28.000Z</time>
      </trkpt>
      <trkpt lat="46.13053" lon="2.27419">
        <ele>431.9</ele>
        <time>2026-08-06T15:59:33.000Z</time>
      </trkpt>
      <trkpt lat="46.13032" lon="2.27394">
        <ele>432.5</ele>
        <time>2026-08-06T15:59:40.000Z</time>
      </trkpt>
      <trkpt lat="46.13018" lon="2.2738">
        <ele>432.9</ele>
        <time>2026-08-06T15:59:45.000Z</time>
      </trkpt>
      <trkpt lat="46.1301" lon="2.27373">
        <ele>433.2</ele>
        <time>2026-08-06T15:59:48.000Z</time>
      </trkpt>
      <trkpt lat="46.1299" lon="2.2736">
        <ele>434.4</ele>
        <time>2026-08-06T15:59:56.000Z</time>
      </trkpt>
      <trkpt lat="46.12981" lon="2.27355">
        <ele>434.8</ele>
        <time>2026-08-06T16:00:00.000Z</time>
      </trkpt>
      <trkpt lat="46.12971" lon="2.27349">
        <ele>435.5</ele>
        <time>2026-08-06T16:00:05.000Z</time>
      </trkpt>
      <trkpt lat="46.12963" lon="2.27344">
        <ele>436.1</ele>
        <time>2026-08-06T16:00:09.000Z</time>
      </trkpt>
      <trkpt lat="46.12952" lon="2.27337">
        <ele>436.7</ele>
        <time>2026-08-06T16:00:14.000Z</time>
      </trkpt>
      <trkpt lat="46.12934" lon="2.27326">
        <ele>437.5</ele>
        <time>2026-08-06T16:00:23.000Z</time>
      </trkpt>
      <trkpt lat="46.1292" lon="2.27318">
        <ele>438.4</ele>
        <time>2026-08-06T16:00:30.000Z</time>
      </trkpt>
      <trkpt lat="46.12906" lon="2.2731">
        <ele>439.2</ele>
        <time>2026-08-06T16:00:37.000Z</time>
      </trkpt>
      <trkpt lat="46.12905" lon="2.27308">
        <ele>439.3</ele>
        <time>2026-08-06T16:00:38.000Z</time>
      </trkpt>
      <trkpt lat="46.12886" lon="2.27297">
        <ele>440.4</ele>
        <time>2026-08-06T16:00:48.000Z</time>
      </trkpt>
      <trkpt lat="46.12872" lon="2.27289">
        <ele>441</ele>
        <time>2026-08-06T16:00:56.000Z</time>
      </trkpt>
      <trkpt lat="46.12864" lon="2.27284">
        <ele>441.5</ele>
        <time>2026-08-06T16:01:00.000Z</time>
      </trkpt>
      <trkpt lat="46.12853" lon="2.27277">
        <ele>442</ele>
        <time>2026-08-06T16:01:06.000Z</time>
      </trkpt>
      <trkpt lat="46.12847" lon="2.27274">
        <ele>442.2</ele>
        <time>2026-08-06T16:01:09.000Z</time>
      </trkpt>
      <trkpt lat="46.12839" lon="2.27268">
        <ele>442.6</ele>
        <time>2026-08-06T16:01:13.000Z</time>
      </trkpt>
      <trkpt lat="46.12825" lon="2.2726">
        <ele>443.4</ele>
        <time>2026-08-06T16:01:21.000Z</time>
      </trkpt>
      <trkpt lat="46.12819" lon="2.27258">
        <ele>443.6</ele>
        <time>2026-08-06T16:01:24.000Z</time>
      </trkpt>
      <trkpt lat="46.12809" lon="2.27253">
        <ele>443.9</ele>
        <time>2026-08-06T16:01:30.000Z</time>
      </trkpt>
      <trkpt lat="46.128" lon="2.27246">
        <ele>444.3</ele>
        <time>2026-08-06T16:01:36.000Z</time>
      </trkpt>
      <trkpt lat="46.12797" lon="2.27245">
        <ele>444.5</ele>
        <time>2026-08-06T16:01:38.000Z</time>
      </trkpt>
      <trkpt lat="46.12789" lon="2.27241">
        <ele>444.9</ele>
        <time>2026-08-06T16:01:43.000Z</time>
      </trkpt>
      <trkpt lat="46.12786" lon="2.27239">
        <ele>445.1</ele>
        <time>2026-08-06T16:01:45.000Z</time>
      </trkpt>
      <trkpt lat="46.12774" lon="2.2723">
        <ele>445.9</ele>
        <time>2026-08-06T16:01:52.000Z</time>
      </trkpt>
      <trkpt lat="46.12766" lon="2.27226">
        <ele>446.4</ele>
        <time>2026-08-06T16:01:57.000Z</time>
      </trkpt>
      <trkpt lat="46.12761" lon="2.27223">
        <ele>446.6</ele>
        <time>2026-08-06T16:02:00.000Z</time>
      </trkpt>
      <trkpt lat="46.12746" lon="2.27213">
        <ele>447.4</ele>
        <time>2026-08-06T16:02:09.000Z</time>
      </trkpt>
      <trkpt lat="46.12728" lon="2.27201">
        <ele>448</ele>
        <time>2026-08-06T16:02:18.000Z</time>
      </trkpt>
      <trkpt lat="46.12715" lon="2.27195">
        <ele>448.3</ele>
        <time>2026-08-06T16:02:24.000Z</time>
      </trkpt>
      <trkpt lat="46.12709" lon="2.27191">
        <ele>448.4</ele>
        <time>2026-08-06T16:02:27.000Z</time>
      </trkpt>
      <trkpt lat="46.12695" lon="2.27181">
        <ele>448.5</ele>
        <time>2026-08-06T16:02:33.000Z</time>
      </trkpt>
      <trkpt lat="46.12687" lon="2.27177">
        <ele>448.5</ele>
        <time>2026-08-06T16:02:36.000Z</time>
      </trkpt>
      <trkpt lat="46.12672" lon="2.27168">
        <ele>448.8</ele>
        <time>2026-08-06T16:02:42.000Z</time>
      </trkpt>
      <trkpt lat="46.12642" lon="2.2715">
        <ele>448.9</ele>
        <time>2026-08-06T16:02:52.000Z</time>
      </trkpt>
      <trkpt lat="46.12612" lon="2.27136">
        <ele>448.9</ele>
        <time>2026-08-06T16:03:01.000Z</time>
      </trkpt>
      <trkpt lat="46.12582" lon="2.27124">
        <ele>448.4</ele>
        <time>2026-08-06T16:03:09.000Z</time>
      </trkpt>
      <trkpt lat="46.1257" lon="2.2712">
        <ele>448.2</ele>
        <time>2026-08-06T16:03:12.000Z</time>
      </trkpt>
      <trkpt lat="46.12547" lon="2.27112">
        <ele>447.7</ele>
        <time>2026-08-06T16:03:17.000Z</time>
      </trkpt>
      <trkpt lat="46.12509" lon="2.27103">
        <ele>446.3</ele>
        <time>2026-08-06T16:03:24.000Z</time>
      </trkpt>
      <trkpt lat="46.1246" lon="2.27091">
        <ele>444.8</ele>
        <time>2026-08-06T16:03:32.000Z</time>
      </trkpt>
      <trkpt lat="46.12453" lon="2.27089">
        <ele>444.5</ele>
        <time>2026-08-06T16:03:33.000Z</time>
      </trkpt>
      <trkpt lat="46.12418" lon="2.27081">
        <ele>443.1</ele>
        <time>2026-08-06T16:03:38.000Z</time>
      </trkpt>
      <trkpt lat="46.12388" lon="2.27074">
        <ele>442.6</ele>
        <time>2026-08-06T16:03:42.000Z</time>
      </trkpt>
      <trkpt lat="46.12381" lon="2.27072">
        <ele>442.3</ele>
        <time>2026-08-06T16:03:43.000Z</time>
      </trkpt>
      <trkpt lat="46.12341" lon="2.27063">
        <ele>440.5</ele>
        <time>2026-08-06T16:03:48.000Z</time>
      </trkpt>
      <trkpt lat="46.12317" lon="2.27056">
        <ele>439.4</ele>
        <time>2026-08-06T16:03:51.000Z</time>
      </trkpt>
      <trkpt lat="46.12301" lon="2.27052">
        <ele>438.8</ele>
        <time>2026-08-06T16:03:53.000Z</time>
      </trkpt>
      <trkpt lat="46.1227" lon="2.2704">
        <ele>437.4</ele>
        <time>2026-08-06T16:03:57.000Z</time>
      </trkpt>
      <trkpt lat="46.12263" lon="2.27035">
        <ele>437.3</ele>
        <time>2026-08-06T16:03:58.000Z</time>
      </trkpt>
      <trkpt lat="46.12256" lon="2.2703">
        <ele>437.1</ele>
        <time>2026-08-06T16:03:59.000Z</time>
      </trkpt>
      <trkpt lat="46.12243" lon="2.27017">
        <ele>436.9</ele>
        <time>2026-08-06T16:04:01.000Z</time>
      </trkpt>
      <trkpt lat="46.12238" lon="2.2701">
        <ele>436.8</ele>
        <time>2026-08-06T16:04:02.000Z</time>
      </trkpt>
      <trkpt lat="46.12227" lon="2.26993">
        <ele>436.6</ele>
        <time>2026-08-06T16:04:04.000Z</time>
      </trkpt>
      <trkpt lat="46.12197" lon="2.26947">
        <ele>435.1</ele>
        <time>2026-08-06T16:04:10.000Z</time>
      </trkpt>
      <trkpt lat="46.12185" lon="2.26937">
        <ele>434.7</ele>
        <time>2026-08-06T16:04:12.000Z</time>
      </trkpt>
      <trkpt lat="46.12171" lon="2.2693">
        <ele>434.5</ele>
        <time>2026-08-06T16:04:14.000Z</time>
      </trkpt>
      <trkpt lat="46.12142" lon="2.26922">
        <ele>433.5</ele>
        <time>2026-08-06T16:04:18.000Z</time>
      </trkpt>
      <trkpt lat="46.12135" lon="2.26922">
        <ele>433.3</ele>
        <time>2026-08-06T16:04:19.000Z</time>
      </trkpt>
      <trkpt lat="46.12114" lon="2.2692">
        <ele>433.3</ele>
        <time>2026-08-06T16:04:22.000Z</time>
      </trkpt>
      <trkpt lat="46.1208" lon="2.26917">
        <ele>432.9</ele>
        <time>2026-08-06T16:04:27.000Z</time>
      </trkpt>
      <trkpt lat="46.12066" lon="2.26917">
        <ele>432.4</ele>
        <time>2026-08-06T16:04:29.000Z</time>
      </trkpt>
      <trkpt lat="46.1204" lon="2.26922">
        <ele>432.2</ele>
        <time>2026-08-06T16:04:33.000Z</time>
      </trkpt>
      <trkpt lat="46.12019" lon="2.26928">
        <ele>431.7</ele>
        <time>2026-08-06T16:04:36.000Z</time>
      </trkpt>
      <trkpt lat="46.11985" lon="2.26937">
        <ele>430.5</ele>
        <time>2026-08-06T16:04:42.000Z</time>
      </trkpt>
      <trkpt lat="46.11975" lon="2.26939">
        <ele>430.1</ele>
        <time>2026-08-06T16:04:44.000Z</time>
      </trkpt>
      <trkpt lat="46.11946" lon="2.26941">
        <ele>429.1</ele>
        <time>2026-08-06T16:04:49.000Z</time>
      </trkpt>
      <trkpt lat="46.11939" lon="2.26942">
        <ele>429.1</ele>
        <time>2026-08-06T16:04:50.000Z</time>
      </trkpt>
      <trkpt lat="46.11901" lon="2.26936">
        <ele>428.8</ele>
        <time>2026-08-06T16:04:56.000Z</time>
      </trkpt>
      <trkpt lat="46.11847" lon="2.2692">
        <ele>428.1</ele>
        <time>2026-08-06T16:05:05.000Z</time>
      </trkpt>
      <trkpt lat="46.1181" lon="2.26919">
        <ele>427.3</ele>
        <time>2026-08-06T16:05:11.000Z</time>
      </trkpt>
      <trkpt lat="46.1178" lon="2.26916">
        <ele>427</ele>
        <time>2026-08-06T16:05:16.000Z</time>
      </trkpt>
      <trkpt lat="46.11775" lon="2.26914">
        <ele>426.9</ele>
        <time>2026-08-06T16:05:17.000Z</time>
      </trkpt>
      <trkpt lat="46.1177" lon="2.2691">
        <ele>426.7</ele>
        <time>2026-08-06T16:05:18.000Z</time>
      </trkpt>
      <trkpt lat="46.11766" lon="2.26905">
        <ele>426.6</ele>
        <time>2026-08-06T16:05:19.000Z</time>
      </trkpt>
      <trkpt lat="46.11758" lon="2.26893">
        <ele>426.3</ele>
        <time>2026-08-06T16:05:21.000Z</time>
      </trkpt>
      <trkpt lat="46.11756" lon="2.26885">
        <ele>426.2</ele>
        <time>2026-08-06T16:05:22.000Z</time>
      </trkpt>
      <trkpt lat="46.11744" lon="2.2684">
        <ele>426.6</ele>
        <time>2026-08-06T16:05:28.000Z</time>
      </trkpt>
      <trkpt lat="46.11742" lon="2.26833">
        <ele>426.7</ele>
        <time>2026-08-06T16:05:29.000Z</time>
      </trkpt>
      <trkpt lat="46.11741" lon="2.26825">
        <ele>426.7</ele>
        <time>2026-08-06T16:05:30.000Z</time>
      </trkpt>
      <trkpt lat="46.11743" lon="2.2681">
        <ele>426.7</ele>
        <time>2026-08-06T16:05:32.000Z</time>
      </trkpt>
      <trkpt lat="46.11748" lon="2.26797">
        <ele>426.9</ele>
        <time>2026-08-06T16:05:34.000Z</time>
      </trkpt>
      <trkpt lat="46.11751" lon="2.26792">
        <ele>427</ele>
        <time>2026-08-06T16:05:35.000Z</time>
      </trkpt>
      <trkpt lat="46.11755" lon="2.26789">
        <ele>427.1</ele>
        <time>2026-08-06T16:05:36.000Z</time>
      </trkpt>
      <trkpt lat="46.11761" lon="2.2678">
        <ele>427</ele>
        <time>2026-08-06T16:05:38.000Z</time>
      </trkpt>
      <trkpt lat="46.1176" lon="2.26768">
        <ele>426.7</ele>
        <time>2026-08-06T16:05:40.000Z</time>
      </trkpt>
      <trkpt lat="46.11759" lon="2.26763">
        <ele>426.5</ele>
        <time>2026-08-06T16:05:41.000Z</time>
      </trkpt>
      <trkpt lat="46.11745" lon="2.2672">
        <ele>426.1</ele>
        <time>2026-08-06T16:05:48.000Z</time>
      </trkpt>
      <trkpt lat="46.11742" lon="2.26708">
        <ele>425.8</ele>
        <time>2026-08-06T16:05:50.000Z</time>
      </trkpt>
      <trkpt lat="46.11735" lon="2.26684">
        <ele>425.5</ele>
        <time>2026-08-06T16:05:54.000Z</time>
      </trkpt>
      <trkpt lat="46.11732" lon="2.26673">
        <ele>425.7</ele>
        <time>2026-08-06T16:05:56.000Z</time>
      </trkpt>
      <trkpt lat="46.11731" lon="2.26667">
        <ele>425.7</ele>
        <time>2026-08-06T16:05:57.000Z</time>
      </trkpt>
      <trkpt lat="46.11723" lon="2.26635">
        <ele>424.9</ele>
        <time>2026-08-06T16:06:03.000Z</time>
      </trkpt>
      <trkpt lat="46.11721" lon="2.26627">
        <ele>424.6</ele>
        <time>2026-08-06T16:06:05.000Z</time>
      </trkpt>
      <trkpt lat="46.1172" lon="2.26621">
        <ele>424.4</ele>
        <time>2026-08-06T16:06:09.000Z</time>
      </trkpt>
      <trkpt lat="46.11717" lon="2.26616">
        <ele>424.4</ele>
        <time>2026-08-06T16:07:13.000Z</time>
      </trkpt>
      <trkpt lat="46.11716" lon="2.26609">
        <ele>424.2</ele>
        <time>2026-08-06T16:07:15.000Z</time>
      </trkpt>
      <trkpt lat="46.11709" lon="2.2658">
        <ele>423.2</ele>
        <time>2026-08-06T16:07:20.000Z</time>
      </trkpt>
      <trkpt lat="46.11697" lon="2.26542">
        <ele>420.9</ele>
        <time>2026-08-06T16:07:25.000Z</time>
      </trkpt>
      <trkpt lat="46.11674" lon="2.26504">
        <ele>418.8</ele>
        <time>2026-08-06T16:07:30.000Z</time>
      </trkpt>
      <trkpt lat="46.11663" lon="2.26489">
        <ele>418.3</ele>
        <time>2026-08-06T16:07:32.000Z</time>
      </trkpt>
      <trkpt lat="46.11649" lon="2.26477">
        <ele>417.8</ele>
        <time>2026-08-06T16:07:34.000Z</time>
      </trkpt>
      <trkpt lat="46.11642" lon="2.26472">
        <ele>417.9</ele>
        <time>2026-08-06T16:07:35.000Z</time>
      </trkpt>
      <trkpt lat="46.11635" lon="2.26468">
        <ele>417.5</ele>
        <time>2026-08-06T16:07:36.000Z</time>
      </trkpt>
      <trkpt lat="46.11604" lon="2.26457">
        <ele>416.1</ele>
        <time>2026-08-06T16:07:40.000Z</time>
      </trkpt>
      <trkpt lat="46.11577" lon="2.26452">
        <ele>414.3</ele>
        <time>2026-08-06T16:07:43.000Z</time>
      </trkpt>
      <trkpt lat="46.11558" lon="2.26443">
        <ele>412.2</ele>
        <time>2026-08-06T16:07:45.000Z</time>
      </trkpt>
      <trkpt lat="46.11549" lon="2.26439">
        <ele>411.6</ele>
        <time>2026-08-06T16:07:46.000Z</time>
      </trkpt>
      <trkpt lat="46.11531" lon="2.26427">
        <ele>410.5</ele>
        <time>2026-08-06T16:07:48.000Z</time>
      </trkpt>
      <trkpt lat="46.11523" lon="2.26421">
        <ele>410.2</ele>
        <time>2026-08-06T16:07:49.000Z</time>
      </trkpt>
      <trkpt lat="46.11514" lon="2.26415">
        <ele>410</ele>
        <time>2026-08-06T16:07:50.000Z</time>
      </trkpt>
      <trkpt lat="46.11506" lon="2.26408">
        <ele>409.8</ele>
        <time>2026-08-06T16:07:51.000Z</time>
      </trkpt>
      <trkpt lat="46.11476" lon="2.26381">
        <ele>408.7</ele>
        <time>2026-08-06T16:07:55.000Z</time>
      </trkpt>
      <trkpt lat="46.11469" lon="2.26374">
        <ele>408.5</ele>
        <time>2026-08-06T16:07:56.000Z</time>
      </trkpt>
      <trkpt lat="46.11462" lon="2.26368">
        <ele>408.5</ele>
        <time>2026-08-06T16:07:57.000Z</time>
      </trkpt>
      <trkpt lat="46.11448" lon="2.26359">
        <ele>408.8</ele>
        <time>2026-08-06T16:07:59.000Z</time>
      </trkpt>
      <trkpt lat="46.11412" lon="2.2635">
        <ele>408.7</ele>
        <time>2026-08-06T16:08:04.000Z</time>
      </trkpt>
      <trkpt lat="46.11386" lon="2.26345">
        <ele>409.1</ele>
        <time>2026-08-06T16:08:08.000Z</time>
      </trkpt>
      <trkpt lat="46.11381" lon="2.26341">
        <ele>409.2</ele>
        <time>2026-08-06T16:08:09.000Z</time>
      </trkpt>
      <trkpt lat="46.11376" lon="2.26337">
        <ele>409.4</ele>
        <time>2026-08-06T16:08:10.000Z</time>
      </trkpt>
      <trkpt lat="46.11364" lon="2.26325">
        <ele>409.9</ele>
        <time>2026-08-06T16:08:13.000Z</time>
      </trkpt>
      <trkpt lat="46.11356" lon="2.2632">
        <ele>410.2</ele>
        <time>2026-08-06T16:08:15.000Z</time>
      </trkpt>
      <trkpt lat="46.11347" lon="2.2632">
        <ele>410.5</ele>
        <time>2026-08-06T16:08:17.000Z</time>
      </trkpt>
      <trkpt lat="46.11329" lon="2.26332">
        <ele>410.6</ele>
        <time>2026-08-06T16:08:22.000Z</time>
      </trkpt>
      <trkpt lat="46.11307" lon="2.2635">
        <ele>411</ele>
        <time>2026-08-06T16:08:28.000Z</time>
      </trkpt>
      <trkpt lat="46.11304" lon="2.26352">
        <ele>411.1</ele>
        <time>2026-08-06T16:08:29.000Z</time>
      </trkpt>
      <trkpt lat="46.113" lon="2.26354">
        <ele>411.2</ele>
        <time>2026-08-06T16:08:30.000Z</time>
      </trkpt>
      <trkpt lat="46.11288" lon="2.26364">
        <ele>411.7</ele>
        <time>2026-08-06T16:08:34.000Z</time>
      </trkpt>
      <trkpt lat="46.11277" lon="2.26367">
        <ele>412.6</ele>
        <time>2026-08-06T16:08:38.000Z</time>
      </trkpt>
      <trkpt lat="46.1127" lon="2.26372">
        <ele>412.7</ele>
        <time>2026-08-06T16:08:41.000Z</time>
      </trkpt>
      <trkpt lat="46.11266" lon="2.26373">
        <ele>413</ele>
        <time>2026-08-06T16:08:43.000Z</time>
      </trkpt>
      <trkpt lat="46.11249" lon="2.26374">
        <ele>414</ele>
        <time>2026-08-06T16:08:51.000Z</time>
      </trkpt>
      <trkpt lat="46.11248" lon="2.26373">
        <ele>414.1</ele>
        <time>2026-08-06T16:08:52.000Z</time>
      </trkpt>
      <trkpt lat="46.1124" lon="2.26369">
        <ele>414.5</ele>
        <time>2026-08-06T16:08:56.000Z</time>
      </trkpt>
      <trkpt lat="46.11223" lon="2.26359">
        <ele>415.1</ele>
        <time>2026-08-06T16:09:04.000Z</time>
      </trkpt>
      <trkpt lat="46.11215" lon="2.26352">
        <ele>415.7</ele>
        <time>2026-08-06T16:09:08.000Z</time>
      </trkpt>
      <trkpt lat="46.11203" lon="2.26344">
        <ele>416.2</ele>
        <time>2026-08-06T16:09:14.000Z</time>
      </trkpt>
      <trkpt lat="46.11199" lon="2.26341">
        <ele>416.2</ele>
        <time>2026-08-06T16:09:16.000Z</time>
      </trkpt>
      <trkpt lat="46.11181" lon="2.26331">
        <ele>416.6</ele>
        <time>2026-08-06T16:09:25.000Z</time>
      </trkpt>
      <trkpt lat="46.11162" lon="2.26324">
        <ele>417.5</ele>
        <time>2026-08-06T16:09:34.000Z</time>
      </trkpt>
      <trkpt lat="46.1116" lon="2.26323">
        <ele>417.5</ele>
        <time>2026-08-06T16:09:35.000Z</time>
      </trkpt>
      <trkpt lat="46.11142" lon="2.26315">
        <ele>418</ele>
        <time>2026-08-06T16:09:43.000Z</time>
      </trkpt>
      <trkpt lat="46.11129" lon="2.26309">
        <ele>418</ele>
        <time>2026-08-06T16:09:49.000Z</time>
      </trkpt>
      <trkpt lat="46.11105" lon="2.26299">
        <ele>418.4</ele>
        <time>2026-08-06T16:10:00.000Z</time>
      </trkpt>
      <trkpt lat="46.1109" lon="2.26293">
        <ele>418.9</ele>
        <time>2026-08-06T16:10:07.000Z</time>
      </trkpt>
      <trkpt lat="46.1107" lon="2.26285">
        <ele>419</ele>
        <time>2026-08-06T16:10:16.000Z</time>
      </trkpt>
      <trkpt lat="46.11067" lon="2.26284">
        <ele>419</ele>
        <time>2026-08-06T16:10:17.000Z</time>
      </trkpt>
      <trkpt lat="46.11044" lon="2.26272">
        <ele>419.5</ele>
        <time>2026-08-06T16:10:27.000Z</time>
      </trkpt>
      <trkpt lat="46.11024" lon="2.26265">
        <ele>420</ele>
        <time>2026-08-06T16:10:35.000Z</time>
      </trkpt>
      <trkpt lat="46.10998" lon="2.26257">
        <ele>420.1</ele>
        <time>2026-08-06T16:10:45.000Z</time>
      </trkpt>
      <trkpt lat="46.10995" lon="2.26256">
        <ele>420.2</ele>
        <time>2026-08-06T16:10:46.000Z</time>
      </trkpt>
      <trkpt lat="46.10972" lon="2.26251">
        <ele>421</ele>
        <time>2026-08-06T16:10:55.000Z</time>
      </trkpt>
      <trkpt lat="46.10945" lon="2.26245">
        <ele>421</ele>
        <time>2026-08-06T16:11:06.000Z</time>
      </trkpt>
      <trkpt lat="46.1094" lon="2.26245">
        <ele>421.2</ele>
        <time>2026-08-06T16:11:08.000Z</time>
      </trkpt>
      <trkpt lat="46.10918" lon="2.2624">
        <ele>422</ele>
        <time>2026-08-06T16:11:17.000Z</time>
      </trkpt>
      <trkpt lat="46.10895" lon="2.26234">
        <ele>422.3</ele>
        <time>2026-08-06T16:11:26.000Z</time>
      </trkpt>
      <trkpt lat="46.10882" lon="2.26232">
        <ele>422.5</ele>
        <time>2026-08-06T16:11:31.000Z</time>
      </trkpt>
      <trkpt lat="46.10872" lon="2.26229">
        <ele>422.7</ele>
        <time>2026-08-06T16:11:35.000Z</time>
      </trkpt>
      <trkpt lat="46.10869" lon="2.26228">
        <ele>422.8</ele>
        <time>2026-08-06T16:11:36.000Z</time>
      </trkpt>
      <trkpt lat="46.10842" lon="2.26216">
        <ele>422.6</ele>
        <time>2026-08-06T16:11:44.000Z</time>
      </trkpt>
      <trkpt lat="46.10829" lon="2.26211">
        <ele>422.3</ele>
        <time>2026-08-06T16:11:47.000Z</time>
      </trkpt>
      <trkpt lat="46.10821" lon="2.26206">
        <ele>422.1</ele>
        <time>2026-08-06T16:11:49.000Z</time>
      </trkpt>
      <trkpt lat="46.10786" lon="2.26186">
        <ele>421.9</ele>
        <time>2026-08-06T16:11:57.000Z</time>
      </trkpt>
      <trkpt lat="46.10756" lon="2.26168">
        <ele>422</ele>
        <time>2026-08-06T16:12:04.000Z</time>
      </trkpt>
      <trkpt lat="46.10706" lon="2.26139">
        <ele>422</ele>
        <time>2026-08-06T16:12:15.000Z</time>
      </trkpt>
      <trkpt lat="46.10669" lon="2.26119">
        <ele>422.2</ele>
        <time>2026-08-06T16:12:24.000Z</time>
      </trkpt>
      <trkpt lat="46.10636" lon="2.261">
        <ele>423.1</ele>
        <time>2026-08-06T16:12:33.000Z</time>
      </trkpt>
      <trkpt lat="46.10596" lon="2.26076">
        <ele>423.6</ele>
        <time>2026-08-06T16:12:44.000Z</time>
      </trkpt>
      <trkpt lat="46.10592" lon="2.26075">
        <ele>423.7</ele>
        <time>2026-08-06T16:12:45.000Z</time>
      </trkpt>
      <trkpt lat="46.10567" lon="2.26061">
        <ele>424</ele>
        <time>2026-08-06T16:12:52.000Z</time>
      </trkpt>
      <trkpt lat="46.10528" lon="2.26044">
        <ele>424</ele>
        <time>2026-08-06T16:13:03.000Z</time>
      </trkpt>
      <trkpt lat="46.10524" lon="2.26042">
        <ele>424</ele>
        <time>2026-08-06T16:13:04.000Z</time>
      </trkpt>
      <trkpt lat="46.10487" lon="2.26029">
        <ele>424</ele>
        <time>2026-08-06T16:13:13.000Z</time>
      </trkpt>
      <trkpt lat="46.10439" lon="2.26012">
        <ele>423.6</ele>
        <time>2026-08-06T16:13:24.000Z</time>
      </trkpt>
      <trkpt lat="46.10393" lon="2.25996">
        <ele>423.3</ele>
        <time>2026-08-06T16:13:34.000Z</time>
      </trkpt>
      <trkpt lat="46.10344" lon="2.25979">
        <ele>422.9</ele>
        <time>2026-08-06T16:13:44.000Z</time>
      </trkpt>
      <trkpt lat="46.10304" lon="2.25965">
        <ele>422</ele>
        <time>2026-08-06T16:13:52.000Z</time>
      </trkpt>
      <trkpt lat="46.10289" lon="2.2596">
        <ele>422</ele>
        <time>2026-08-06T16:13:55.000Z</time>
      </trkpt>
      <trkpt lat="46.10264" lon="2.25951">
        <ele>422</ele>
        <time>2026-08-06T16:14:00.000Z</time>
      </trkpt>
      <trkpt lat="46.10216" lon="2.25936">
        <ele>421.2</ele>
        <time>2026-08-06T16:14:10.000Z</time>
      </trkpt>
      <trkpt lat="46.10178" lon="2.25925">
        <ele>421.4</ele>
        <time>2026-08-06T16:14:18.000Z</time>
      </trkpt>
      <trkpt lat="46.10157" lon="2.25919">
        <ele>422.6</ele>
        <time>2026-08-06T16:14:24.000Z</time>
      </trkpt>
      <trkpt lat="46.1014" lon="2.25915">
        <ele>423.9</ele>
        <time>2026-08-06T16:14:31.000Z</time>
      </trkpt>
      <trkpt lat="46.10127" lon="2.25912">
        <ele>424.3</ele>
        <time>2026-08-06T16:14:37.000Z</time>
      </trkpt>
      <trkpt lat="46.10123" lon="2.25911">
        <ele>424.5</ele>
        <time>2026-08-06T16:14:39.000Z</time>
      </trkpt>
      <trkpt lat="46.10117" lon="2.2591">
        <ele>424.7</ele>
        <time>2026-08-06T16:14:42.000Z</time>
      </trkpt>
      <trkpt lat="46.10107" lon="2.25908">
        <ele>425.4</ele>
        <time>2026-08-06T16:14:47.000Z</time>
      </trkpt>
      <trkpt lat="46.10098" lon="2.25907">
        <ele>426.3</ele>
        <time>2026-08-06T16:14:52.000Z</time>
      </trkpt>
      <trkpt lat="46.1009" lon="2.25905">
        <ele>426.9</ele>
        <time>2026-08-06T16:14:56.000Z</time>
      </trkpt>
      <trkpt lat="46.10076" lon="2.25905">
        <ele>428</ele>
        <time>2026-08-06T16:15:04.000Z</time>
      </trkpt>
      <trkpt lat="46.10072" lon="2.25904">
        <ele>428.2</ele>
        <time>2026-08-06T16:15:06.000Z</time>
      </trkpt>
      <trkpt lat="46.10056" lon="2.25899">
        <ele>429</ele>
        <time>2026-08-06T16:15:15.000Z</time>
      </trkpt>
      <trkpt lat="46.1004" lon="2.25895">
        <ele>430.1</ele>
        <time>2026-08-06T16:15:24.000Z</time>
      </trkpt>
      <trkpt lat="46.10035" lon="2.25893">
        <ele>430.5</ele>
        <time>2026-08-06T16:15:27.000Z</time>
      </trkpt>
      <trkpt lat="46.10027" lon="2.25892">
        <ele>431</ele>
        <time>2026-08-06T16:15:32.000Z</time>
      </trkpt>
      <trkpt lat="46.10017" lon="2.25891">
        <ele>431.4</ele>
        <time>2026-08-06T16:15:38.000Z</time>
      </trkpt>
      <trkpt lat="46.10015" lon="2.25891">
        <ele>431.5</ele>
        <time>2026-08-06T16:15:39.000Z</time>
      </trkpt>
      <trkpt lat="46.10008" lon="2.25891">
        <ele>431.7</ele>
        <time>2026-08-06T16:15:43.000Z</time>
      </trkpt>
      <trkpt lat="46.09996" lon="2.25893">
        <ele>432.3</ele>
        <time>2026-08-06T16:15:50.000Z</time>
      </trkpt>
      <trkpt lat="46.09987" lon="2.25895">
        <ele>432.9</ele>
        <time>2026-08-06T16:15:56.000Z</time>
      </trkpt>
      <trkpt lat="46.09985" lon="2.25895">
        <ele>433.1</ele>
        <time>2026-08-06T16:15:57.000Z</time>
      </trkpt>
      <trkpt lat="46.09975" lon="2.25898">
        <ele>433.8</ele>
        <time>2026-08-06T16:16:03.000Z</time>
      </trkpt>
      <trkpt lat="46.09971" lon="2.25898">
        <ele>434</ele>
        <time>2026-08-06T16:16:05.000Z</time>
      </trkpt>
      <trkpt lat="46.09965" lon="2.259">
        <ele>434.3</ele>
        <time>2026-08-06T16:16:09.000Z</time>
      </trkpt>
      <trkpt lat="46.09956" lon="2.259">
        <ele>434.6</ele>
        <time>2026-08-06T16:16:15.000Z</time>
      </trkpt>
      <trkpt lat="46.09954" lon="2.25901">
        <ele>434.7</ele>
        <time>2026-08-06T16:16:16.000Z</time>
      </trkpt>
      <trkpt lat="46.09942" lon="2.25899">
        <ele>435.1</ele>
        <time>2026-08-06T16:16:24.000Z</time>
      </trkpt>
      <trkpt lat="46.09931" lon="2.25895">
        <ele>435.4</ele>
        <time>2026-08-06T16:16:31.000Z</time>
      </trkpt>
      <trkpt lat="46.09913" lon="2.25885">
        <ele>436.1</ele>
        <time>2026-08-06T16:16:42.000Z</time>
      </trkpt>
      <trkpt lat="46.09904" lon="2.25881">
        <ele>436.3</ele>
        <time>2026-08-06T16:16:47.000Z</time>
      </trkpt>
      <trkpt lat="46.09901" lon="2.25879">
        <ele>436.4</ele>
        <time>2026-08-06T16:16:49.000Z</time>
      </trkpt>
      <trkpt lat="46.09889" lon="2.25871">
        <ele>436.7</ele>
        <time>2026-08-06T16:16:56.000Z</time>
      </trkpt>
      <trkpt lat="46.09875" lon="2.25862">
        <ele>437</ele>
        <time>2026-08-06T16:17:03.000Z</time>
      </trkpt>
      <trkpt lat="46.09862" lon="2.25856">
        <ele>437.2</ele>
        <time>2026-08-06T16:17:10.000Z</time>
      </trkpt>
      <trkpt lat="46.09857" lon="2.25853">
        <ele>437.3</ele>
        <time>2026-08-06T16:17:13.000Z</time>
      </trkpt>
      <trkpt lat="46.09847" lon="2.25847">
        <ele>437.8</ele>
        <time>2026-08-06T16:17:19.000Z</time>
      </trkpt>
      <trkpt lat="46.09832" lon="2.25839">
        <ele>438.6</ele>
        <time>2026-08-06T16:17:27.000Z</time>
      </trkpt>
      <trkpt lat="46.09816" lon="2.25831">
        <ele>439.1</ele>
        <time>2026-08-06T16:17:36.000Z</time>
      </trkpt>
      <trkpt lat="46.09803" lon="2.25827">
        <ele>439.5</ele>
        <time>2026-08-06T16:17:43.000Z</time>
      </trkpt>
      <trkpt lat="46.09785" lon="2.25824">
        <ele>440.2</ele>
        <time>2026-08-06T16:17:51.000Z</time>
      </trkpt>
      <trkpt lat="46.09765" lon="2.25825">
        <ele>440.4</ele>
        <time>2026-08-06T16:18:00.000Z</time>
      </trkpt>
      <trkpt lat="46.09742" lon="2.25827">
        <ele>440.2</ele>
        <time>2026-08-06T16:18:09.000Z</time>
      </trkpt>
      <trkpt lat="46.09718" lon="2.25828">
        <ele>439.4</ele>
        <time>2026-08-06T16:18:17.000Z</time>
      </trkpt>
      <trkpt lat="46.09691" lon="2.25833">
        <ele>439.3</ele>
        <time>2026-08-06T16:18:26.000Z</time>
      </trkpt>
      <trkpt lat="46.09678" lon="2.2584">
        <ele>439.9</ele>
        <time>2026-08-06T16:18:32.000Z</time>
      </trkpt>
      <trkpt lat="46.09668" lon="2.2585">
        <ele>440.3</ele>
        <time>2026-08-06T16:18:38.000Z</time>
      </trkpt>
      <trkpt lat="46.09659" lon="2.25861">
        <ele>440.6</ele>
        <time>2026-08-06T16:18:45.000Z</time>
      </trkpt>
      <trkpt lat="46.09652" lon="2.25867">
        <ele>440.8</ele>
        <time>2026-08-06T16:18:50.000Z</time>
      </trkpt>
      <trkpt lat="46.09651" lon="2.25869">
        <ele>440.9</ele>
        <time>2026-08-06T16:18:51.000Z</time>
      </trkpt>
      <trkpt lat="46.0964" lon="2.2588">
        <ele>441.2</ele>
        <time>2026-08-06T16:18:59.000Z</time>
      </trkpt>
      <trkpt lat="46.09632" lon="2.25891">
        <ele>441.5</ele>
        <time>2026-08-06T16:19:06.000Z</time>
      </trkpt>
      <trkpt lat="46.09622" lon="2.25902">
        <ele>442.2</ele>
        <time>2026-08-06T16:19:12.000Z</time>
      </trkpt>
      <trkpt lat="46.09608" lon="2.25915">
        <ele>443.1</ele>
        <time>2026-08-06T16:19:20.000Z</time>
      </trkpt>
      <trkpt lat="46.09592" lon="2.25933">
        <ele>443</ele>
        <time>2026-08-06T16:19:29.000Z</time>
      </trkpt>
      <trkpt lat="46.09573" lon="2.25953">
        <ele>442.9</ele>
        <time>2026-08-06T16:19:37.000Z</time>
      </trkpt>
      <trkpt lat="46.0957" lon="2.25955">
        <ele>442.9</ele>
        <time>2026-08-06T16:19:38.000Z</time>
      </trkpt>
      <trkpt lat="46.09549" lon="2.25977">
        <ele>442.7</ele>
        <time>2026-08-06T16:19:45.000Z</time>
      </trkpt>
      <trkpt lat="46.09543" lon="2.25983">
        <ele>442.4</ele>
        <time>2026-08-06T16:19:47.000Z</time>
      </trkpt>
      <trkpt lat="46.09532" lon="2.25994">
        <ele>442.1</ele>
        <time>2026-08-06T16:19:50.000Z</time>
      </trkpt>
      <trkpt lat="46.09524" lon="2.25999">
        <ele>442</ele>
        <time>2026-08-06T16:19:52.000Z</time>
      </trkpt>
      <trkpt lat="46.09512" lon="2.26008">
        <ele>441.7</ele>
        <time>2026-08-06T16:19:55.000Z</time>
      </trkpt>
      <trkpt lat="46.09503" lon="2.26011">
        <ele>441.6</ele>
        <time>2026-08-06T16:19:57.000Z</time>
      </trkpt>
      <trkpt lat="46.09498" lon="2.26011">
        <ele>441.6</ele>
        <time>2026-08-06T16:19:58.000Z</time>
      </trkpt>
      <trkpt lat="46.09477" lon="2.26013">
        <ele>441.5</ele>
        <time>2026-08-06T16:20:03.000Z</time>
      </trkpt>
      <trkpt lat="46.09467" lon="2.26012">
        <ele>441.4</ele>
        <time>2026-08-06T16:20:05.000Z</time>
      </trkpt>
      <trkpt lat="46.09433" lon="2.26002">
        <ele>440.1</ele>
        <time>2026-08-06T16:20:12.000Z</time>
      </trkpt>
      <trkpt lat="46.09383" lon="2.25989">
        <ele>438</ele>
        <time>2026-08-06T16:20:20.000Z</time>
      </trkpt>
      <trkpt lat="46.09377" lon="2.25987">
        <ele>437.6</ele>
        <time>2026-08-06T16:20:21.000Z</time>
      </trkpt>
      <trkpt lat="46.09337" lon="2.25973">
        <ele>437</ele>
        <time>2026-08-06T16:20:27.000Z</time>
      </trkpt>
      <trkpt lat="46.09309" lon="2.25954">
        <ele>437.4</ele>
        <time>2026-08-06T16:20:32.000Z</time>
      </trkpt>
      <trkpt lat="46.09304" lon="2.2595">
        <ele>437.5</ele>
        <time>2026-08-06T16:20:33.000Z</time>
      </trkpt>
      <trkpt lat="46.09274" lon="2.25927">
        <ele>437.2</ele>
        <time>2026-08-06T16:20:40.000Z</time>
      </trkpt>
      <trkpt lat="46.09244" lon="2.25902">
        <ele>437.9</ele>
        <time>2026-08-06T16:20:48.000Z</time>
      </trkpt>
      <trkpt lat="46.09212" lon="2.25877">
        <ele>438.5</ele>
        <time>2026-08-06T16:20:57.000Z</time>
      </trkpt>
      <trkpt lat="46.09177" lon="2.2585">
        <ele>439.1</ele>
        <time>2026-08-06T16:21:07.000Z</time>
      </trkpt>
      <trkpt lat="46.09149" lon="2.25827">
        <ele>439.6</ele>
        <time>2026-08-06T16:21:16.000Z</time>
      </trkpt>
      <trkpt lat="46.09127" lon="2.2581">
        <ele>439</ele>
        <time>2026-08-06T16:21:23.000Z</time>
      </trkpt>
      <trkpt lat="46.09108" lon="2.25797">
        <ele>438.5</ele>
        <time>2026-08-06T16:21:28.000Z</time>
      </trkpt>
      <trkpt lat="46.09105" lon="2.25794">
        <ele>438.6</ele>
        <time>2026-08-06T16:21:29.000Z</time>
      </trkpt>
      <trkpt lat="46.09079" lon="2.25772">
        <ele>439.1</ele>
        <time>2026-08-06T16:21:36.000Z</time>
      </trkpt>
      <trkpt lat="46.09039" lon="2.2574">
        <ele>438.9</ele>
        <time>2026-08-06T16:21:47.000Z</time>
      </trkpt>
      <trkpt lat="46.09007" lon="2.25715">
        <ele>438.7</ele>
        <time>2026-08-06T16:21:56.000Z</time>
      </trkpt>
      <trkpt lat="46.08988" lon="2.25707">
        <ele>439</ele>
        <time>2026-08-06T16:22:01.000Z</time>
      </trkpt>
      <trkpt lat="46.0897" lon="2.25715">
        <ele>439</ele>
        <time>2026-08-06T16:22:06.000Z</time>
      </trkpt>
      <trkpt lat="46.08946" lon="2.25732">
        <ele>438.6</ele>
        <time>2026-08-06T16:22:13.000Z</time>
      </trkpt>
      <trkpt lat="46.08936" lon="2.2574">
        <ele>438.7</ele>
        <time>2026-08-06T16:22:16.000Z</time>
      </trkpt>
      <trkpt lat="46.08923" lon="2.25749">
        <ele>438.8</ele>
        <time>2026-08-06T16:22:21.000Z</time>
      </trkpt>
      <trkpt lat="46.08916" lon="2.25754">
        <ele>439.2</ele>
        <time>2026-08-06T16:22:27.000Z</time>
      </trkpt>
      <trkpt lat="46.08916" lon="2.25754">
        <ele>439.2</ele>
        <time>2026-08-06T16:22:28.000Z</time>
      </trkpt>
      <trkpt lat="46.08912" lon="2.25756">
        <ele>439.8</ele>
        <time>2026-08-06T16:22:53.000Z</time>
      </trkpt>
      <trkpt lat="46.08908" lon="2.25758">
        <ele>440.5</ele>
        <time>2026-08-06T16:22:56.000Z</time>
      </trkpt>
      <trkpt lat="46.08905" lon="2.25759">
        <ele>440.8</ele>
        <time>2026-08-06T16:22:58.000Z</time>
      </trkpt>
      <trkpt lat="46.08897" lon="2.25765">
        <ele>442</ele>
        <time>2026-08-06T16:23:04.000Z</time>
      </trkpt>
      <trkpt lat="46.08894" lon="2.25767">
        <ele>442.4</ele>
        <time>2026-08-06T16:23:06.000Z</time>
      </trkpt>
      <trkpt lat="46.08886" lon="2.25776">
        <ele>443.4</ele>
        <time>2026-08-06T16:23:12.000Z</time>
      </trkpt>
      <trkpt lat="46.08885" lon="2.25778">
        <ele>443.6</ele>
        <time>2026-08-06T16:23:13.000Z</time>
      </trkpt>
      <trkpt lat="46.08875" lon="2.25787">
        <ele>444.8</ele>
        <time>2026-08-06T16:23:19.000Z</time>
      </trkpt>
      <trkpt lat="46.08861" lon="2.25801">
        <ele>445.4</ele>
        <time>2026-08-06T16:23:29.000Z</time>
      </trkpt>
      <trkpt lat="46.08853" lon="2.2581">
        <ele>446</ele>
        <time>2026-08-06T16:23:35.000Z</time>
      </trkpt>
      <trkpt lat="46.08844" lon="2.25824">
        <ele>446.7</ele>
        <time>2026-08-06T16:23:42.000Z</time>
      </trkpt>
      <trkpt lat="46.08836" lon="2.25834">
        <ele>446.9</ele>
        <time>2026-08-06T16:23:48.000Z</time>
      </trkpt>
      <trkpt lat="46.08823" lon="2.25847">
        <ele>446.9</ele>
        <time>2026-08-06T16:23:56.000Z</time>
      </trkpt>
      <trkpt lat="46.08822" lon="2.25849">
        <ele>446.8</ele>
        <time>2026-08-06T16:23:57.000Z</time>
      </trkpt>
      <trkpt lat="46.0881" lon="2.25855">
        <ele>447</ele>
        <time>2026-08-06T16:24:03.000Z</time>
      </trkpt>
      <trkpt lat="46.08804" lon="2.25856">
        <ele>447.3</ele>
        <time>2026-08-06T16:24:08.000Z</time>
      </trkpt>
      <trkpt lat="46.08803" lon="2.25855">
        <ele>447.4</ele>
        <time>2026-08-06T16:24:10.000Z</time>
      </trkpt>
      <trkpt lat="46.08802" lon="2.25852">
        <ele>447.5</ele>
        <time>2026-08-06T16:24:12.000Z</time>
      </trkpt>
      <trkpt lat="46.08802" lon="2.2585">
        <ele>447.6</ele>
        <time>2026-08-06T16:24:13.000Z</time>
      </trkpt>
      <trkpt lat="46.08801" lon="2.25845">
        <ele>447.8</ele>
        <time>2026-08-06T16:24:16.000Z</time>
      </trkpt>
      <trkpt lat="46.08798" lon="2.25845">
        <ele>448</ele>
        <time>2026-08-06T16:24:19.000Z</time>
      </trkpt>
      <trkpt lat="46.08792" lon="2.25841">
        <ele>448.3</ele>
        <time>2026-08-06T16:24:23.000Z</time>
      </trkpt>
      <trkpt lat="46.08791" lon="2.25841">
        <ele>448.4</ele>
        <time>2026-08-06T16:24:25.000Z</time>
      </trkpt>
      <trkpt lat="46.08791" lon="2.25841">
        <ele>448.4</ele>
        <time>2026-08-06T16:24:27.000Z</time>
      </trkpt>
      <trkpt lat="46.08796" lon="2.25842">
        <ele>448.2</ele>
        <time>2026-08-06T16:37:06.000Z</time>
      </trkpt>
      <trkpt lat="46.08797" lon="2.2584">
        <ele>448.2</ele>
        <time>2026-08-06T16:37:07.000Z</time>
      </trkpt>
      <trkpt lat="46.08796" lon="2.25823">
        <ele>448.7</ele>
        <time>2026-08-06T16:37:13.000Z</time>
      </trkpt>
      <trkpt lat="46.08795" lon="2.2581">
        <ele>449.2</ele>
        <time>2026-08-06T16:37:19.000Z</time>
      </trkpt>
      <trkpt lat="46.08792" lon="2.2579">
        <ele>450.3</ele>
        <time>2026-08-06T16:37:27.000Z</time>
      </trkpt>
      <trkpt lat="46.08788" lon="2.25769">
        <ele>451.2</ele>
        <time>2026-08-06T16:37:35.000Z</time>
      </trkpt>
      <trkpt lat="46.08788" lon="2.25767">
        <ele>451.3</ele>
        <time>2026-08-06T16:37:36.000Z</time>
      </trkpt>
      <trkpt lat="46.08782" lon="2.25751">
        <ele>451.8</ele>
        <time>2026-08-06T16:37:42.000Z</time>
      </trkpt>
      <trkpt lat="46.08781" lon="2.25746">
        <ele>451.9</ele>
        <time>2026-08-06T16:37:44.000Z</time>
      </trkpt>
      <trkpt lat="46.08779" lon="2.25735">
        <ele>452</ele>
        <time>2026-08-06T16:37:48.000Z</time>
      </trkpt>
      <trkpt lat="46.08774" lon="2.25719">
        <ele>452.2</ele>
        <time>2026-08-06T16:37:54.000Z</time>
      </trkpt>
      <trkpt lat="46.08769" lon="2.25698">
        <ele>452.3</ele>
        <time>2026-08-06T16:38:01.000Z</time>
      </trkpt>
      <trkpt lat="46.08769" lon="2.25692">
        <ele>452.4</ele>
        <time>2026-08-06T16:38:03.000Z</time>
      </trkpt>
      <trkpt lat="46.08772" lon="2.25673">
        <ele>453</ele>
        <time>2026-08-06T16:38:10.000Z</time>
      </trkpt>
      <trkpt lat="46.08773" lon="2.2565">
        <ele>452.7</ele>
        <time>2026-08-06T16:38:18.000Z</time>
      </trkpt>
      <trkpt lat="46.08773" lon="2.25628">
        <ele>452.7</ele>
        <time>2026-08-06T16:38:26.000Z</time>
      </trkpt>
      <trkpt lat="46.08774" lon="2.25614">
        <ele>453</ele>
        <time>2026-08-06T16:38:32.000Z</time>
      </trkpt>
      <trkpt lat="46.08776" lon="2.25596">
        <ele>453</ele>
        <time>2026-08-06T16:38:39.000Z</time>
      </trkpt>
      <trkpt lat="46.08777" lon="2.2559">
        <ele>453</ele>
        <time>2026-08-06T16:38:45.000Z</time>
      </trkpt>
      <trkpt lat="46.08773" lon="2.25597">
        <ele>453.2</ele>
        <time>2026-08-06T17:04:16.000Z</time>
      </trkpt>
      <trkpt lat="46.08769" lon="2.25599">
        <ele>453.3</ele>
        <time>2026-08-06T17:04:18.000Z</time>
      </trkpt>
      <trkpt lat="46.08765" lon="2.25601">
        <ele>453.4</ele>
        <time>2026-08-06T17:04:20.000Z</time>
      </trkpt>
      <trkpt lat="46.08761" lon="2.25604">
        <ele>453.6</ele>
        <time>2026-08-06T17:04:23.000Z</time>
      </trkpt>
      <trkpt lat="46.08759" lon="2.25607">
        <ele>453.7</ele>
        <time>2026-08-06T17:04:25.000Z</time>
      </trkpt>
      <trkpt lat="46.08757" lon="2.25609">
        <ele>453.8</ele>
        <time>2026-08-06T17:04:27.000Z</time>
      </trkpt>
      <trkpt lat="46.08751" lon="2.25619">
        <ele>454</ele>
        <time>2026-08-06T17:04:33.000Z</time>
      </trkpt>
      <trkpt lat="46.08749" lon="2.2562">
        <ele>454.1</ele>
        <time>2026-08-06T17:04:34.000Z</time>
      </trkpt>
      <trkpt lat="46.08743" lon="2.25622">
        <ele>454.5</ele>
        <time>2026-08-06T17:04:37.000Z</time>
      </trkpt>
      <trkpt lat="46.0874" lon="2.25623">
        <ele>454.7</ele>
        <time>2026-08-06T17:04:38.000Z</time>
      </trkpt>
      <trkpt lat="46.08725" lon="2.25629">
        <ele>455.8</ele>
        <time>2026-08-06T17:04:46.000Z</time>
      </trkpt>
      <trkpt lat="46.08707" lon="2.25631">
        <ele>455.6</ele>
        <time>2026-08-06T17:04:53.000Z</time>
      </trkpt>
      <trkpt lat="46.08686" lon="2.25626">
        <ele>455.5</ele>
        <time>2026-08-06T17:05:00.000Z</time>
      </trkpt>
      <trkpt lat="46.0868" lon="2.25625">
        <ele>455.5</ele>
        <time>2026-08-06T17:05:05.000Z</time>
      </trkpt>
      <trkpt lat="46.08677" lon="2.25626">
        <ele>455.5</ele>
        <time>2026-08-06T17:05:07.000Z</time>
      </trkpt>
      <trkpt lat="46.08676" lon="2.25629">
        <ele>455.4</ele>
        <time>2026-08-06T17:05:11.000Z</time>
      </trkpt>
      <trkpt lat="46.08672" lon="2.25644">
        <ele>454.9</ele>
        <time>2026-08-06T17:05:17.000Z</time>
      </trkpt>
      <trkpt lat="46.08669" lon="2.25667">
        <ele>454.1</ele>
        <time>2026-08-06T17:05:23.000Z</time>
      </trkpt>
      <trkpt lat="46.08663" lon="2.257">
        <ele>452.9</ele>
        <time>2026-08-06T17:05:29.000Z</time>
      </trkpt>
      <trkpt lat="46.08657" lon="2.25745">
        <ele>451.2</ele>
        <time>2026-08-06T17:05:36.000Z</time>
      </trkpt>
      <trkpt lat="46.08654" lon="2.25762">
        <ele>450.6</ele>
        <time>2026-08-06T17:05:38.000Z</time>
      </trkpt>
      <trkpt lat="46.08651" lon="2.25784">
        <ele>449.8</ele>
        <time>2026-08-06T17:05:41.000Z</time>
      </trkpt>
      <trkpt lat="46.0865" lon="2.25793">
        <ele>449.5</ele>
        <time>2026-08-06T17:05:42.000Z</time>
      </trkpt>
      <trkpt lat="46.08647" lon="2.25818">
        <ele>448.5</ele>
        <time>2026-08-06T17:05:45.000Z</time>
      </trkpt>
      <trkpt lat="46.08643" lon="2.25845">
        <ele>447.7</ele>
        <time>2026-08-06T17:05:48.000Z</time>
      </trkpt>
      <trkpt lat="46.08641" lon="2.25862">
        <ele>447.1</ele>
        <time>2026-08-06T17:05:50.000Z</time>
      </trkpt>
      <trkpt lat="46.08639" lon="2.25885">
        <ele>446.2</ele>
        <time>2026-08-06T17:05:53.000Z</time>
      </trkpt>
      <trkpt lat="46.08638" lon="2.25891">
        <ele>446</ele>
        <time>2026-08-06T17:05:54.000Z</time>
      </trkpt>
      <trkpt lat="46.08636" lon="2.25908">
        <ele>445.4</ele>
        <time>2026-08-06T17:05:57.000Z</time>
      </trkpt>
      <trkpt lat="46.08634" lon="2.25919">
        <ele>445.2</ele>
        <time>2026-08-06T17:05:59.000Z</time>
      </trkpt>
      <trkpt lat="46.0863" lon="2.25937">
        <ele>445.1</ele>
        <time>2026-08-06T17:06:03.000Z</time>
      </trkpt>
      <trkpt lat="46.08628" lon="2.25941">
        <ele>445</ele>
        <time>2026-08-06T17:06:04.000Z</time>
      </trkpt>
      <trkpt lat="46.08625" lon="2.25948">
        <ele>444.7</ele>
        <time>2026-08-06T17:06:06.000Z</time>
      </trkpt>
      <trkpt lat="46.08618" lon="2.25958">
        <ele>443.7</ele>
        <time>2026-08-06T17:06:10.000Z</time>
      </trkpt>
      <trkpt lat="46.08617" lon="2.2596">
        <ele>443.4</ele>
        <time>2026-08-06T17:06:11.000Z</time>
      </trkpt>
      <trkpt lat="46.08608" lon="2.25969">
        <ele>442.3</ele>
        <time>2026-08-06T17:06:16.000Z</time>
      </trkpt>
      <trkpt lat="46.08606" lon="2.2597">
        <ele>442.2</ele>
        <time>2026-08-06T17:06:17.000Z</time>
      </trkpt>
      <trkpt lat="46.08593" lon="2.25978">
        <ele>441.6</ele>
        <time>2026-08-06T17:06:23.000Z</time>
      </trkpt>
      <trkpt lat="46.0858" lon="2.25985">
        <ele>440.9</ele>
        <time>2026-08-06T17:06:29.000Z</time>
      </trkpt>
      <trkpt lat="46.08573" lon="2.25989">
        <ele>440.3</ele>
        <time>2026-08-06T17:06:32.000Z</time>
      </trkpt>
      <trkpt lat="46.08562" lon="2.25994">
        <ele>439.5</ele>
        <time>2026-08-06T17:06:36.000Z</time>
      </trkpt>
      <trkpt lat="46.08548" lon="2.25999">
        <ele>438.2</ele>
        <time>2026-08-06T17:06:40.000Z</time>
      </trkpt>
      <trkpt lat="46.08532" lon="2.26001">
        <ele>436.3</ele>
        <time>2026-08-06T17:06:44.000Z</time>
      </trkpt>
      <trkpt lat="46.08527" lon="2.26">
        <ele>435.8</ele>
        <time>2026-08-06T17:06:45.000Z</time>
      </trkpt>
      <trkpt lat="46.08521" lon="2.25998">
        <ele>434.4</ele>
        <time>2026-08-06T17:06:46.000Z</time>
      </trkpt>
      <trkpt lat="46.08507" lon="2.25989">
        <ele>431.8</ele>
        <time>2026-08-06T17:06:49.000Z</time>
      </trkpt>
      <trkpt lat="46.08504" lon="2.25984">
        <ele>431.6</ele>
        <time>2026-08-06T17:06:50.000Z</time>
      </trkpt>
      <trkpt lat="46.0849" lon="2.25961">
        <ele>430.9</ele>
        <time>2026-08-06T17:06:53.000Z</time>
      </trkpt>
      <trkpt lat="46.08478" lon="2.25946">
        <ele>429.8</ele>
        <time>2026-08-06T17:06:55.000Z</time>
      </trkpt>
      <trkpt lat="46.0847" lon="2.25942">
        <ele>429.3</ele>
        <time>2026-08-06T17:06:56.000Z</time>
      </trkpt>
      <trkpt lat="46.08463" lon="2.2594">
        <ele>429.3</ele>
        <time>2026-08-06T17:06:57.000Z</time>
      </trkpt>
      <trkpt lat="46.08445" lon="2.25942">
        <ele>429</ele>
        <time>2026-08-06T17:06:59.000Z</time>
      </trkpt>
      <trkpt lat="46.0843" lon="2.25944">
        <ele>429.5</ele>
        <time>2026-08-06T17:07:01.000Z</time>
      </trkpt>
      <trkpt lat="46.08404" lon="2.25942">
        <ele>430.8</ele>
        <time>2026-08-06T17:07:05.000Z</time>
      </trkpt>
      <trkpt lat="46.0839" lon="2.25941">
        <ele>431.8</ele>
        <time>2026-08-06T17:07:08.000Z</time>
      </trkpt>
      <trkpt lat="46.08384" lon="2.25942">
        <ele>432.1</ele>
        <time>2026-08-06T17:07:10.000Z</time>
      </trkpt>
      <trkpt lat="46.08371" lon="2.25945">
        <ele>432.6</ele>
        <time>2026-08-06T17:07:15.000Z</time>
      </trkpt>
      <trkpt lat="46.08366" lon="2.25944">
        <ele>432.8</ele>
        <time>2026-08-06T17:07:19.000Z</time>
      </trkpt>
      <trkpt lat="46.08363" lon="2.25946">
        <ele>433</ele>
        <time>2026-08-06T17:07:21.000Z</time>
      </trkpt>
      <trkpt lat="46.08349" lon="2.25953">
        <ele>433.9</ele>
        <time>2026-08-06T17:07:29.000Z</time>
      </trkpt>
      <trkpt lat="46.08342" lon="2.25961">
        <ele>434.5</ele>
        <time>2026-08-06T17:07:34.000Z</time>
      </trkpt>
      <trkpt lat="46.0834" lon="2.25966">
        <ele>434.7</ele>
        <time>2026-08-06T17:07:36.000Z</time>
      </trkpt>
      <trkpt lat="46.08331" lon="2.25978">
        <ele>435.2</ele>
        <time>2026-08-06T17:07:42.000Z</time>
      </trkpt>
      <trkpt lat="46.08325" lon="2.25986">
        <ele>435.5</ele>
        <time>2026-08-06T17:07:46.000Z</time>
      </trkpt>
      <trkpt lat="46.08318" lon="2.25996">
        <ele>435.9</ele>
        <time>2026-08-06T17:07:51.000Z</time>
      </trkpt>
      <trkpt lat="46.08304" lon="2.26011">
        <ele>436.5</ele>
        <time>2026-08-06T17:08:00.000Z</time>
      </trkpt>
      <trkpt lat="46.0829" lon="2.26022">
        <ele>437.5</ele>
        <time>2026-08-06T17:08:08.000Z</time>
      </trkpt>
      <trkpt lat="46.08286" lon="2.26025">
        <ele>437.7</ele>
        <time>2026-08-06T17:08:11.000Z</time>
      </trkpt>
      <trkpt lat="46.0828" lon="2.26027">
        <ele>437.9</ele>
        <time>2026-08-06T17:08:14.000Z</time>
      </trkpt>
      <trkpt lat="46.08277" lon="2.26029">
        <ele>438</ele>
        <time>2026-08-06T17:08:16.000Z</time>
      </trkpt>
      <trkpt lat="46.08271" lon="2.2603">
        <ele>438.2</ele>
        <time>2026-08-06T17:08:19.000Z</time>
      </trkpt>
      <trkpt lat="46.08261" lon="2.26033">
        <ele>438.4</ele>
        <time>2026-08-06T17:08:24.000Z</time>
      </trkpt>
      <trkpt lat="46.08252" lon="2.26036">
        <ele>438.6</ele>
        <time>2026-08-06T17:08:28.000Z</time>
      </trkpt>
      <trkpt lat="46.08227" lon="2.26042">
        <ele>438.5</ele>
        <time>2026-08-06T17:08:39.000Z</time>
      </trkpt>
      <trkpt lat="46.08204" lon="2.26048">
        <ele>438.3</ele>
        <time>2026-08-06T17:08:47.000Z</time>
      </trkpt>
      <trkpt lat="46.08175" lon="2.26057">
        <ele>437.9</ele>
        <time>2026-08-06T17:08:55.000Z</time>
      </trkpt>
      <trkpt lat="46.0814" lon="2.26066">
        <ele>436.7</ele>
        <time>2026-08-06T17:09:03.000Z</time>
      </trkpt>
      <trkpt lat="46.08109" lon="2.2608">
        <ele>438.4</ele>
        <time>2026-08-06T17:09:11.000Z</time>
      </trkpt>
      <trkpt lat="46.08096" lon="2.26087">
        <ele>439.5</ele>
        <time>2026-08-06T17:09:15.000Z</time>
      </trkpt>
      <trkpt lat="46.08077" lon="2.26097">
        <ele>440.5</ele>
        <time>2026-08-06T17:09:22.000Z</time>
      </trkpt>
      <trkpt lat="46.08068" lon="2.261">
        <ele>440.4</ele>
        <time>2026-08-06T17:09:25.000Z</time>
      </trkpt>
      <trkpt lat="46.08055" lon="2.26104">
        <ele>440.3</ele>
        <time>2026-08-06T17:09:30.000Z</time>
      </trkpt>
      <trkpt lat="46.08031" lon="2.26107">
        <ele>440.2</ele>
        <time>2026-08-06T17:09:38.000Z</time>
      </trkpt>
      <trkpt lat="46.08001" lon="2.26106">
        <ele>439.4</ele>
        <time>2026-08-06T17:09:46.000Z</time>
      </trkpt>
      <trkpt lat="46.07961" lon="2.261">
        <ele>439.2</ele>
        <time>2026-08-06T17:09:55.000Z</time>
      </trkpt>
      <trkpt lat="46.07917" lon="2.26088">
        <ele>438.9</ele>
        <time>2026-08-06T17:10:04.000Z</time>
      </trkpt>
      <trkpt lat="46.07876" lon="2.26077">
        <ele>438.4</ele>
        <time>2026-08-06T17:10:12.000Z</time>
      </trkpt>
      <trkpt lat="46.07851" lon="2.26082">
        <ele>437.7</ele>
        <time>2026-08-06T17:10:17.000Z</time>
      </trkpt>
      <trkpt lat="46.07841" lon="2.26084">
        <ele>437.2</ele>
        <time>2026-08-06T17:10:19.000Z</time>
      </trkpt>
      <trkpt lat="46.0781" lon="2.26086">
        <ele>436</ele>
        <time>2026-08-06T17:10:24.000Z</time>
      </trkpt>
      <trkpt lat="46.07802" lon="2.26085">
        <ele>435.7</ele>
        <time>2026-08-06T17:10:25.000Z</time>
      </trkpt>
      <trkpt lat="46.07758" lon="2.26077">
        <ele>433.8</ele>
        <time>2026-08-06T17:10:31.000Z</time>
      </trkpt>
      <trkpt lat="46.0772" lon="2.2607">
        <ele>431.8</ele>
        <time>2026-08-06T17:10:36.000Z</time>
      </trkpt>
      <trkpt lat="46.07711" lon="2.26067">
        <ele>431</ele>
        <time>2026-08-06T17:10:37.000Z</time>
      </trkpt>
      <trkpt lat="46.0769" lon="2.26058">
        <ele>429.6</ele>
        <time>2026-08-06T17:10:40.000Z</time>
      </trkpt>
      <trkpt lat="46.07673" lon="2.2605">
        <ele>428.7</ele>
        <time>2026-08-06T17:10:43.000Z</time>
      </trkpt>
      <trkpt lat="46.07666" lon="2.26049">
        <ele>428.5</ele>
        <time>2026-08-06T17:10:44.000Z</time>
      </trkpt>
      <trkpt lat="46.07656" lon="2.26049">
        <ele>428.3</ele>
        <time>2026-08-06T17:10:46.000Z</time>
      </trkpt>
      <trkpt lat="46.07649" lon="2.26052">
        <ele>428.1</ele>
        <time>2026-08-06T17:10:47.000Z</time>
      </trkpt>
      <trkpt lat="46.07645" lon="2.26055">
        <ele>428</ele>
        <time>2026-08-06T17:10:48.000Z</time>
      </trkpt>
      <trkpt lat="46.07635" lon="2.26064">
        <ele>427.6</ele>
        <time>2026-08-06T17:10:50.000Z</time>
      </trkpt>
      <trkpt lat="46.07631" lon="2.26069">
        <ele>427.4</ele>
        <time>2026-08-06T17:10:51.000Z</time>
      </trkpt>
      <trkpt lat="46.07627" lon="2.26075">
        <ele>427.2</ele>
        <time>2026-08-06T17:10:52.000Z</time>
      </trkpt>
      <trkpt lat="46.07617" lon="2.26095">
        <ele>427.3</ele>
        <time>2026-08-06T17:10:56.000Z</time>
      </trkpt>
      <trkpt lat="46.07609" lon="2.26105">
        <ele>427.8</ele>
        <time>2026-08-06T17:10:58.000Z</time>
      </trkpt>
      <trkpt lat="46.07602" lon="2.26111">
        <ele>428</ele>
        <time>2026-08-06T17:11:00.000Z</time>
      </trkpt>
      <trkpt lat="46.07587" lon="2.26116">
        <ele>428.2</ele>
        <time>2026-08-06T17:11:03.000Z</time>
      </trkpt>
      <trkpt lat="46.07579" lon="2.26117">
        <ele>428.5</ele>
        <time>2026-08-06T17:11:05.000Z</time>
      </trkpt>
      <trkpt lat="46.07555" lon="2.26114">
        <ele>430.2</ele>
        <time>2026-08-06T17:11:11.000Z</time>
      </trkpt>
      <trkpt lat="46.07547" lon="2.26113">
        <ele>430.4</ele>
        <time>2026-08-06T17:11:13.000Z</time>
      </trkpt>
      <trkpt lat="46.0753" lon="2.26111">
        <ele>430.9</ele>
        <time>2026-08-06T17:11:19.000Z</time>
      </trkpt>
      <trkpt lat="46.07512" lon="2.2611">
        <ele>432</ele>
        <time>2026-08-06T17:11:27.000Z</time>
      </trkpt>
      <trkpt lat="46.07497" lon="2.26107">
        <ele>433</ele>
        <time>2026-08-06T17:11:35.000Z</time>
      </trkpt>
      <trkpt lat="46.07495" lon="2.26106">
        <ele>433.2</ele>
        <time>2026-08-06T17:11:36.000Z</time>
      </trkpt>
      <trkpt lat="46.07483" lon="2.26101">
        <ele>434.1</ele>
        <time>2026-08-06T17:11:43.000Z</time>
      </trkpt>
      <trkpt lat="46.07478" lon="2.26098">
        <ele>434.5</ele>
        <time>2026-08-06T17:11:46.000Z</time>
      </trkpt>
      <trkpt lat="46.07472" lon="2.26094">
        <ele>434.8</ele>
        <time>2026-08-06T17:11:50.000Z</time>
      </trkpt>
      <trkpt lat="46.07467" lon="2.2609">
        <ele>435</ele>
        <time>2026-08-06T17:11:54.000Z</time>
      </trkpt>
      <trkpt lat="46.07457" lon="2.26086">
        <ele>435.3</ele>
        <time>2026-08-06T17:11:59.000Z</time>
      </trkpt>
      <trkpt lat="46.0745" lon="2.26084">
        <ele>435.6</ele>
        <time>2026-08-06T17:12:03.000Z</time>
      </trkpt>
      <trkpt lat="46.07446" lon="2.26084">
        <ele>435.9</ele>
        <time>2026-08-06T17:12:06.000Z</time>
      </trkpt>
      <trkpt lat="46.07439" lon="2.26085">
        <ele>436.5</ele>
        <time>2026-08-06T17:12:10.000Z</time>
      </trkpt>
      <trkpt lat="46.07436" lon="2.26087">
        <ele>437</ele>
        <time>2026-08-06T17:12:12.000Z</time>
      </trkpt>
      <trkpt lat="46.07423" lon="2.26095">
        <ele>438.8</ele>
        <time>2026-08-06T17:12:20.000Z</time>
      </trkpt>
      <trkpt lat="46.07422" lon="2.26099">
        <ele>439.3</ele>
        <time>2026-08-06T17:12:22.000Z</time>
      </trkpt>
      <trkpt lat="46.07421" lon="2.261">
        <ele>439.4</ele>
        <time>2026-08-06T17:12:23.000Z</time>
      </trkpt>
      <trkpt lat="46.0742" lon="2.26103">
        <ele>439.9</ele>
        <time>2026-08-06T17:12:25.000Z</time>
      </trkpt>
      <trkpt lat="46.07418" lon="2.26106">
        <ele>440.3</ele>
        <time>2026-08-06T17:12:27.000Z</time>
      </trkpt>
      <trkpt lat="46.07416" lon="2.26108">
        <ele>440.7</ele>
        <time>2026-08-06T17:12:29.000Z</time>
      </trkpt>
      <trkpt lat="46.07416" lon="2.2611">
        <ele>441</ele>
        <time>2026-08-06T17:12:30.000Z</time>
      </trkpt>
      <trkpt lat="46.07415" lon="2.26114">
        <ele>441.4</ele>
        <time>2026-08-06T17:12:32.000Z</time>
      </trkpt>
      <trkpt lat="46.07411" lon="2.26122">
        <ele>442.2</ele>
        <time>2026-08-06T17:12:37.000Z</time>
      </trkpt>
      <trkpt lat="46.07409" lon="2.26126">
        <ele>442.6</ele>
        <time>2026-08-06T17:12:39.000Z</time>
      </trkpt>
      <trkpt lat="46.07406" lon="2.26136">
        <ele>443.6</ele>
        <time>2026-08-06T17:12:45.000Z</time>
      </trkpt>
      <trkpt lat="46.07403" lon="2.26148">
        <ele>444.5</ele>
        <time>2026-08-06T17:12:52.000Z</time>
      </trkpt>
      <trkpt lat="46.07402" lon="2.2615">
        <ele>444.7</ele>
        <time>2026-08-06T17:12:54.000Z</time>
      </trkpt>
      <trkpt lat="46.07401" lon="2.26154">
        <ele>444.9</ele>
        <time>2026-08-06T17:12:57.000Z</time>
      </trkpt>
      <trkpt lat="46.07398" lon="2.2616">
        <ele>445.3</ele>
        <time>2026-08-06T17:13:01.000Z</time>
      </trkpt>
      <trkpt lat="46.07397" lon="2.26166">
        <ele>445.7</ele>
        <time>2026-08-06T17:13:04.000Z</time>
      </trkpt>
      <trkpt lat="46.0739" lon="2.26177">
        <ele>446.7</ele>
        <time>2026-08-06T17:13:11.000Z</time>
      </trkpt>
      <trkpt lat="46.07389" lon="2.2618">
        <ele>447</ele>
        <time>2026-08-06T17:13:13.000Z</time>
      </trkpt>
      <trkpt lat="46.07388" lon="2.26186">
        <ele>447.4</ele>
        <time>2026-08-06T17:13:16.000Z</time>
      </trkpt>
      <trkpt lat="46.07383" lon="2.26197">
        <ele>448.2</ele>
        <time>2026-08-06T17:13:23.000Z</time>
      </trkpt>
      <trkpt lat="46.07383" lon="2.26199">
        <ele>448.3</ele>
        <time>2026-08-06T17:13:24.000Z</time>
      </trkpt>
      <trkpt lat="46.07378" lon="2.26211">
        <ele>449.2</ele>
        <time>2026-08-06T17:13:31.000Z</time>
      </trkpt>
      <trkpt lat="46.07376" lon="2.26215">
        <ele>449.5</ele>
        <time>2026-08-06T17:13:33.000Z</time>
      </trkpt>
      <trkpt lat="46.0737" lon="2.26228">
        <ele>450.3</ele>
        <time>2026-08-06T17:13:41.000Z</time>
      </trkpt>
      <trkpt lat="46.07369" lon="2.26233">
        <ele>450.5</ele>
        <time>2026-08-06T17:13:44.000Z</time>
      </trkpt>
      <trkpt lat="46.07367" lon="2.26236">
        <ele>450.6</ele>
        <time>2026-08-06T17:13:46.000Z</time>
      </trkpt>
      <trkpt lat="46.07366" lon="2.26244">
        <ele>450.9</ele>
        <time>2026-08-06T17:13:50.000Z</time>
      </trkpt>
      <trkpt lat="46.07366" lon="2.26245">
        <ele>450.9</ele>
        <time>2026-08-06T17:13:51.000Z</time>
      </trkpt>
      <trkpt lat="46.07366" lon="2.26245">
        <ele>450.9</ele>
        <time>2026-08-06T17:13:52.000Z</time>
      </trkpt>
      <trkpt lat="46.07364" lon="2.26254">
        <ele>451.1</ele>
        <time>2026-08-06T17:15:19.000Z</time>
      </trkpt>
      <trkpt lat="46.07363" lon="2.26256">
        <ele>451.1</ele>
        <time>2026-08-06T17:15:20.000Z</time>
      </trkpt>
      <trkpt lat="46.07356" lon="2.26273">
        <ele>451</ele>
        <time>2026-08-06T17:15:26.000Z</time>
      </trkpt>
      <trkpt lat="46.07344" lon="2.26286">
        <ele>451.3</ele>
        <time>2026-08-06T17:15:32.000Z</time>
      </trkpt>
      <trkpt lat="46.07326" lon="2.26298">
        <ele>451.8</ele>
        <time>2026-08-06T17:15:40.000Z</time>
      </trkpt>
      <trkpt lat="46.07312" lon="2.263">
        <ele>452</ele>
        <time>2026-08-06T17:15:46.000Z</time>
      </trkpt>
      <trkpt lat="46.07289" lon="2.26295">
        <ele>452.8</ele>
        <time>2026-08-06T17:15:56.000Z</time>
      </trkpt>
      <trkpt lat="46.07273" lon="2.26291">
        <ele>453.7</ele>
        <time>2026-08-06T17:16:03.000Z</time>
      </trkpt>
      <trkpt lat="46.07265" lon="2.26289">
        <ele>454</ele>
        <time>2026-08-06T17:16:06.000Z</time>
      </trkpt>
      <trkpt lat="46.0725" lon="2.26283">
        <ele>454.2</ele>
        <time>2026-08-06T17:16:13.000Z</time>
      </trkpt>
      <trkpt lat="46.07242" lon="2.26279">
        <ele>454.3</ele>
        <time>2026-08-06T17:16:17.000Z</time>
      </trkpt>
      <trkpt lat="46.07237" lon="2.26275">
        <ele>454.5</ele>
        <time>2026-08-06T17:16:20.000Z</time>
      </trkpt>
      <trkpt lat="46.07226" lon="2.26268">
        <ele>454.9</ele>
        <time>2026-08-06T17:16:26.000Z</time>
      </trkpt>
      <trkpt lat="46.07208" lon="2.26256">
        <ele>455.6</ele>
        <time>2026-08-06T17:16:35.000Z</time>
      </trkpt>
      <trkpt lat="46.0719" lon="2.26244">
        <ele>455.5</ele>
        <time>2026-08-06T17:16:43.000Z</time>
      </trkpt>
      <trkpt lat="46.07172" lon="2.26242">
        <ele>455.1</ele>
        <time>2026-08-06T17:16:48.000Z</time>
      </trkpt>
      <trkpt lat="46.07156" lon="2.26257">
        <ele>455.2</ele>
        <time>2026-08-06T17:16:53.000Z</time>
      </trkpt>
      <trkpt lat="46.07134" lon="2.26293">
        <ele>456.5</ele>
        <time>2026-08-06T17:17:03.000Z</time>
      </trkpt>
      <trkpt lat="46.07115" lon="2.26316">
        <ele>457</ele>
        <time>2026-08-06T17:17:11.000Z</time>
      </trkpt>
      <trkpt lat="46.07104" lon="2.26334">
        <ele>457.6</ele>
        <time>2026-08-06T17:17:18.000Z</time>
      </trkpt>
      <trkpt lat="46.07103" lon="2.26337">
        <ele>457.8</ele>
        <time>2026-08-06T17:17:19.000Z</time>
      </trkpt>
      <trkpt lat="46.07095" lon="2.26348">
        <ele>458.6</ele>
        <time>2026-08-06T17:17:24.000Z</time>
      </trkpt>
      <trkpt lat="46.07086" lon="2.26362">
        <ele>459</ele>
        <time>2026-08-06T17:17:30.000Z</time>
      </trkpt>
      <trkpt lat="46.07084" lon="2.26364">
        <ele>459.2</ele>
        <time>2026-08-06T17:17:31.000Z</time>
      </trkpt>
      <trkpt lat="46.07077" lon="2.26377">
        <ele>460.6</ele>
        <time>2026-08-06T17:17:37.000Z</time>
      </trkpt>
      <trkpt lat="46.07074" lon="2.26381">
        <ele>460.9</ele>
        <time>2026-08-06T17:17:39.000Z</time>
      </trkpt>
      <trkpt lat="46.07067" lon="2.26392">
        <ele>461.5</ele>
        <time>2026-08-06T17:17:44.000Z</time>
      </trkpt>
      <trkpt lat="46.07065" lon="2.26396">
        <ele>461.5</ele>
        <time>2026-08-06T17:17:46.000Z</time>
      </trkpt>
      <trkpt lat="46.07061" lon="2.26401">
        <ele>461.5</ele>
        <time>2026-08-06T17:17:49.000Z</time>
      </trkpt>
      <trkpt lat="46.07057" lon="2.26403">
        <ele>461.5</ele>
        <time>2026-08-06T17:17:52.000Z</time>
      </trkpt>
      <trkpt lat="46.07053" lon="2.26404">
        <ele>461.6</ele>
        <time>2026-08-06T17:17:54.000Z</time>
      </trkpt>
      <trkpt lat="46.07035" lon="2.26406">
        <ele>462.6</ele>
        <time>2026-08-06T17:18:03.000Z</time>
      </trkpt>
      <trkpt lat="46.07029" lon="2.26404">
        <ele>462.9</ele>
        <time>2026-08-06T17:18:06.000Z</time>
      </trkpt>
      <trkpt lat="46.07022" lon="2.26399">
        <ele>463.1</ele>
        <time>2026-08-06T17:18:10.000Z</time>
      </trkpt>
      <trkpt lat="46.06999" lon="2.2639">
        <ele>463.1</ele>
        <time>2026-08-06T17:18:21.000Z</time>
      </trkpt>
      <trkpt lat="46.06997" lon="2.26389">
        <ele>463.1</ele>
        <time>2026-08-06T17:18:22.000Z</time>
      </trkpt>
      <trkpt lat="46.06977" lon="2.2638">
        <ele>463.6</ele>
        <time>2026-08-06T17:18:31.000Z</time>
      </trkpt>
      <trkpt lat="46.06955" lon="2.26366">
        <ele>463.7</ele>
        <time>2026-08-06T17:18:40.000Z</time>
      </trkpt>
      <trkpt lat="46.06932" lon="2.26351">
        <ele>463.8</ele>
        <time>2026-08-06T17:18:49.000Z</time>
      </trkpt>
      <trkpt lat="46.06909" lon="2.26334">
        <ele>464.3</ele>
        <time>2026-08-06T17:18:58.000Z</time>
      </trkpt>
      <trkpt lat="46.06894" lon="2.2632">
        <ele>464.3</ele>
        <time>2026-08-06T17:19:04.000Z</time>
      </trkpt>
      <trkpt lat="46.06882" lon="2.26309">
        <ele>464.3</ele>
        <time>2026-08-06T17:19:09.000Z</time>
      </trkpt>
      <trkpt lat="46.06856" lon="2.26288">
        <ele>464.5</ele>
        <time>2026-08-06T17:19:19.000Z</time>
      </trkpt>
      <trkpt lat="46.06831" lon="2.26264">
        <ele>464.6</ele>
        <time>2026-08-06T17:19:29.000Z</time>
      </trkpt>
      <trkpt lat="46.06815" lon="2.2625">
        <ele>464.7</ele>
        <time>2026-08-06T17:19:35.000Z</time>
      </trkpt>
      <trkpt lat="46.06789" lon="2.26227">
        <ele>465.7</ele>
        <time>2026-08-06T17:19:45.000Z</time>
      </trkpt>
      <trkpt lat="46.06783" lon="2.26222">
        <ele>465.8</ele>
        <time>2026-08-06T17:19:47.000Z</time>
      </trkpt>
      <trkpt lat="46.06768" lon="2.26209">
        <ele>466.2</ele>
        <time>2026-08-06T17:19:53.000Z</time>
      </trkpt>
      <trkpt lat="46.06747" lon="2.2619">
        <ele>466.1</ele>
        <time>2026-08-06T17:20:02.000Z</time>
      </trkpt>
      <trkpt lat="46.06728" lon="2.26173">
        <ele>466.8</ele>
        <time>2026-08-06T17:20:10.000Z</time>
      </trkpt>
      <trkpt lat="46.06726" lon="2.26171">
        <ele>466.9</ele>
        <time>2026-08-06T17:20:11.000Z</time>
      </trkpt>
      <trkpt lat="46.06705" lon="2.26152">
        <ele>467.1</ele>
        <time>2026-08-06T17:20:20.000Z</time>
      </trkpt>
      <trkpt lat="46.06678" lon="2.26135">
        <ele>467.4</ele>
        <time>2026-08-06T17:20:30.000Z</time>
      </trkpt>
      <trkpt lat="46.06644" lon="2.26121">
        <ele>467.4</ele>
        <time>2026-08-06T17:20:41.000Z</time>
      </trkpt>
      <trkpt lat="46.06641" lon="2.2612">
        <ele>467.3</ele>
        <time>2026-08-06T17:20:42.000Z</time>
      </trkpt>
      <trkpt lat="46.06618" lon="2.2611">
        <ele>467.7</ele>
        <time>2026-08-06T17:20:50.000Z</time>
      </trkpt>
      <trkpt lat="46.06598" lon="2.26101">
        <ele>467.8</ele>
        <time>2026-08-06T17:20:58.000Z</time>
      </trkpt>
      <trkpt lat="46.06585" lon="2.26097">
        <ele>468</ele>
        <time>2026-08-06T17:21:05.000Z</time>
      </trkpt>
      <trkpt lat="46.06576" lon="2.26093">
        <ele>467.9</ele>
        <time>2026-08-06T17:21:12.000Z</time>
      </trkpt>
      <trkpt lat="46.06565" lon="2.26089">
        <ele>467.6</ele>
        <time>2026-08-06T17:21:18.000Z</time>
      </trkpt>
      <trkpt lat="46.06561" lon="2.26089">
        <ele>467.5</ele>
        <time>2026-08-06T17:21:21.000Z</time>
      </trkpt>
      <trkpt lat="46.06559" lon="2.26089">
        <ele>467.4</ele>
        <time>2026-08-06T17:21:23.000Z</time>
      </trkpt>
      <trkpt lat="46.06559" lon="2.26088">
        <ele>467.4</ele>
        <time>2026-08-06T17:21:24.000Z</time>
      </trkpt>
      <trkpt lat="46.06559" lon="2.26088">
        <ele>467.4</ele>
        <time>2026-08-06T17:21:26.000Z</time>
      </trkpt>
      <trkpt lat="46.06554" lon="2.26085">
        <ele>467.1</ele>
        <time>2026-08-06T17:21:50.000Z</time>
      </trkpt>
      <trkpt lat="46.06552" lon="2.26084">
        <ele>467</ele>
        <time>2026-08-06T17:21:51.000Z</time>
      </trkpt>
      <trkpt lat="46.06534" lon="2.26075">
        <ele>466.5</ele>
        <time>2026-08-06T17:21:56.000Z</time>
      </trkpt>
      <trkpt lat="46.06505" lon="2.26071">
        <ele>466.1</ele>
        <time>2026-08-06T17:22:03.000Z</time>
      </trkpt>
      <trkpt lat="46.06477" lon="2.26077">
        <ele>465.9</ele>
        <time>2026-08-06T17:22:10.000Z</time>
      </trkpt>
      <trkpt lat="46.06469" lon="2.26075">
        <ele>465.7</ele>
        <time>2026-08-06T17:22:12.000Z</time>
      </trkpt>
      <trkpt lat="46.06457" lon="2.26069">
        <ele>465.5</ele>
        <time>2026-08-06T17:22:15.000Z</time>
      </trkpt>
      <trkpt lat="46.06431" lon="2.26048">
        <ele>465.5</ele>
        <time>2026-08-06T17:22:23.000Z</time>
      </trkpt>
      <trkpt lat="46.06416" lon="2.26035">
        <ele>466.8</ele>
        <time>2026-08-06T17:22:29.000Z</time>
      </trkpt>
      <trkpt lat="46.06398" lon="2.26021">
        <ele>468.5</ele>
        <time>2026-08-06T17:22:37.000Z</time>
      </trkpt>
      <trkpt lat="46.06393" lon="2.26018">
        <ele>469</ele>
        <time>2026-08-06T17:22:39.000Z</time>
      </trkpt>
      <trkpt lat="46.06385" lon="2.26012">
        <ele>469.7</ele>
        <time>2026-08-06T17:22:44.000Z</time>
      </trkpt>
      <trkpt lat="46.06375" lon="2.26005">
        <ele>470.4</ele>
        <time>2026-08-06T17:22:50.000Z</time>
      </trkpt>
      <trkpt lat="46.06373" lon="2.26004">
        <ele>470.5</ele>
        <time>2026-08-06T17:22:51.000Z</time>
      </trkpt>
      <trkpt lat="46.06361" lon="2.25995">
        <ele>471</ele>
        <time>2026-08-06T17:22:58.000Z</time>
      </trkpt>
      <trkpt lat="46.06357" lon="2.25992">
        <ele>471.3</ele>
        <time>2026-08-06T17:23:00.000Z</time>
      </trkpt>
      <trkpt lat="46.06352" lon="2.25988">
        <ele>471.7</ele>
        <time>2026-08-06T17:23:03.000Z</time>
      </trkpt>
      <trkpt lat="46.06341" lon="2.25983">
        <ele>472.5</ele>
        <time>2026-08-06T17:23:09.000Z</time>
      </trkpt>
      <trkpt lat="46.06338" lon="2.25982">
        <ele>472.6</ele>
        <time>2026-08-06T17:23:10.000Z</time>
      </trkpt>
      <trkpt lat="46.06327" lon="2.25982">
        <ele>473.3</ele>
        <time>2026-08-06T17:23:16.000Z</time>
      </trkpt>
      <trkpt lat="46.06324" lon="2.25983">
        <ele>473.5</ele>
        <time>2026-08-06T17:23:18.000Z</time>
      </trkpt>
      <trkpt lat="46.06319" lon="2.2599">
        <ele>473.9</ele>
        <time>2026-08-06T17:23:22.000Z</time>
      </trkpt>
      <trkpt lat="46.06314" lon="2.25996">
        <ele>474.3</ele>
        <time>2026-08-06T17:23:26.000Z</time>
      </trkpt>
      <trkpt lat="46.0631" lon="2.26003">
        <ele>474.7</ele>
        <time>2026-08-06T17:23:30.000Z</time>
      </trkpt>
      <trkpt lat="46.06305" lon="2.26015">
        <ele>475</ele>
        <time>2026-08-06T17:23:36.000Z</time>
      </trkpt>
      <trkpt lat="46.06304" lon="2.26019">
        <ele>475.2</ele>
        <time>2026-08-06T17:23:38.000Z</time>
      </trkpt>
      <trkpt lat="46.06298" lon="2.26033">
        <ele>476</ele>
        <time>2026-08-06T17:23:45.000Z</time>
      </trkpt>
      <trkpt lat="46.06297" lon="2.26037">
        <ele>476.2</ele>
        <time>2026-08-06T17:23:47.000Z</time>
      </trkpt>
      <trkpt lat="46.06294" lon="2.26045">
        <ele>476.9</ele>
        <time>2026-08-06T17:23:51.000Z</time>
      </trkpt>
      <trkpt lat="46.0629" lon="2.26053">
        <ele>477.6</ele>
        <time>2026-08-06T17:23:55.000Z</time>
      </trkpt>
      <trkpt lat="46.06283" lon="2.26064">
        <ele>478.4</ele>
        <time>2026-08-06T17:24:01.000Z</time>
      </trkpt>
      <trkpt lat="46.06279" lon="2.26068">
        <ele>478.9</ele>
        <time>2026-08-06T17:24:04.000Z</time>
      </trkpt>
      <trkpt lat="46.0627" lon="2.26077">
        <ele>479.6</ele>
        <time>2026-08-06T17:24:10.000Z</time>
      </trkpt>
      <trkpt lat="46.06267" lon="2.2608">
        <ele>479.8</ele>
        <time>2026-08-06T17:24:13.000Z</time>
      </trkpt>
      <trkpt lat="46.06261" lon="2.26086">
        <ele>480.2</ele>
        <time>2026-08-06T17:24:17.000Z</time>
      </trkpt>
      <trkpt lat="46.0626" lon="2.26086">
        <ele>480.3</ele>
        <time>2026-08-06T17:24:18.000Z</time>
      </trkpt>
      <trkpt lat="46.06252" lon="2.26086">
        <ele>480.9</ele>
        <time>2026-08-06T17:24:23.000Z</time>
      </trkpt>
      <trkpt lat="46.06242" lon="2.26089">
        <ele>481.6</ele>
        <time>2026-08-06T17:24:30.000Z</time>
      </trkpt>
      <trkpt lat="46.06237" lon="2.2609">
        <ele>482.1</ele>
        <time>2026-08-06T17:24:34.000Z</time>
      </trkpt>
      <trkpt lat="46.06231" lon="2.26088">
        <ele>482.5</ele>
        <time>2026-08-06T17:24:38.000Z</time>
      </trkpt>
      <trkpt lat="46.06221" lon="2.26088">
        <ele>483.3</ele>
        <time>2026-08-06T17:24:45.000Z</time>
      </trkpt>
      <trkpt lat="46.06217" lon="2.2609">
        <ele>483.5</ele>
        <time>2026-08-06T17:24:47.000Z</time>
      </trkpt>
      <trkpt lat="46.06206" lon="2.26089">
        <ele>484.2</ele>
        <time>2026-08-06T17:24:55.000Z</time>
      </trkpt>
      <trkpt lat="46.06193" lon="2.26087">
        <ele>485.1</ele>
        <time>2026-08-06T17:25:04.000Z</time>
      </trkpt>
      <trkpt lat="46.06182" lon="2.26084">
        <ele>485.9</ele>
        <time>2026-08-06T17:25:11.000Z</time>
      </trkpt>
      <trkpt lat="46.06179" lon="2.26082">
        <ele>486.1</ele>
        <time>2026-08-06T17:25:13.000Z</time>
      </trkpt>
      <trkpt lat="46.06173" lon="2.2608">
        <ele>486.4</ele>
        <time>2026-08-06T17:25:17.000Z</time>
      </trkpt>
      <trkpt lat="46.06168" lon="2.26076">
        <ele>486.6</ele>
        <time>2026-08-06T17:25:20.000Z</time>
      </trkpt>
      <trkpt lat="46.06164" lon="2.26074">
        <ele>486.8</ele>
        <time>2026-08-06T17:25:23.000Z</time>
      </trkpt>
      <trkpt lat="46.06157" lon="2.26072">
        <ele>487.1</ele>
        <time>2026-08-06T17:25:28.000Z</time>
      </trkpt>
      <trkpt lat="46.06149" lon="2.26067">
        <ele>487.4</ele>
        <time>2026-08-06T17:25:34.000Z</time>
      </trkpt>
      <trkpt lat="46.06148" lon="2.26067">
        <ele>487.5</ele>
        <time>2026-08-06T17:25:35.000Z</time>
      </trkpt>
      <trkpt lat="46.06136" lon="2.2606">
        <ele>488.2</ele>
        <time>2026-08-06T17:25:44.000Z</time>
      </trkpt>
      <trkpt lat="46.06128" lon="2.26058">
        <ele>488.8</ele>
        <time>2026-08-06T17:25:51.000Z</time>
      </trkpt>
      <trkpt lat="46.06125" lon="2.26055">
        <ele>489</ele>
        <time>2026-08-06T17:25:53.000Z</time>
      </trkpt>
      <trkpt lat="46.0612" lon="2.26053">
        <ele>489.5</ele>
        <time>2026-08-06T17:25:57.000Z</time>
      </trkpt>
      <trkpt lat="46.06119" lon="2.26052">
        <ele>489.6</ele>
        <time>2026-08-06T17:25:58.000Z</time>
      </trkpt>
      <trkpt lat="46.06117" lon="2.26052">
        <ele>489.7</ele>
        <time>2026-08-06T17:25:59.000Z</time>
      </trkpt>
      <trkpt lat="46.06114" lon="2.26052">
        <ele>489.9</ele>
        <time>2026-08-06T17:26:01.000Z</time>
      </trkpt>
      <trkpt lat="46.06111" lon="2.26048">
        <ele>490.3</ele>
        <time>2026-08-06T17:26:04.000Z</time>
      </trkpt>
      <trkpt lat="46.06108" lon="2.26047">
        <ele>490.5</ele>
        <time>2026-08-06T17:26:07.000Z</time>
      </trkpt>
      <trkpt lat="46.06104" lon="2.26046">
        <ele>490.8</ele>
        <time>2026-08-06T17:26:10.000Z</time>
      </trkpt>
      <trkpt lat="46.06103" lon="2.26045">
        <ele>490.9</ele>
        <time>2026-08-06T17:26:11.000Z</time>
      </trkpt>
      <trkpt lat="46.06094" lon="2.2604">
        <ele>491.8</ele>
        <time>2026-08-06T17:26:18.000Z</time>
      </trkpt>
      <trkpt lat="46.06093" lon="2.26039">
        <ele>491.9</ele>
        <time>2026-08-06T17:26:19.000Z</time>
      </trkpt>
      <trkpt lat="46.06089" lon="2.26039">
        <ele>492.2</ele>
        <time>2026-08-06T17:26:22.000Z</time>
      </trkpt>
      <trkpt lat="46.06084" lon="2.26038">
        <ele>492.6</ele>
        <time>2026-08-06T17:26:26.000Z</time>
      </trkpt>
      <trkpt lat="46.06078" lon="2.26034">
        <ele>493.3</ele>
        <time>2026-08-06T17:26:31.000Z</time>
      </trkpt>
      <trkpt lat="46.06076" lon="2.26032">
        <ele>493.6</ele>
        <time>2026-08-06T17:26:33.000Z</time>
      </trkpt>
      <trkpt lat="46.06066" lon="2.26026">
        <ele>494.8</ele>
        <time>2026-08-06T17:26:40.000Z</time>
      </trkpt>
      <trkpt lat="46.06063" lon="2.26025">
        <ele>495.2</ele>
        <time>2026-08-06T17:26:43.000Z</time>
      </trkpt>
      <trkpt lat="46.06057" lon="2.26022">
        <ele>495.9</ele>
        <time>2026-08-06T17:26:50.000Z</time>
      </trkpt>
      <trkpt lat="46.06057" lon="2.26022">
        <ele>495.9</ele>
        <time>2026-08-06T17:26:51.000Z</time>
      </trkpt>
      <trkpt lat="46.06051" lon="2.2602">
        <ele>496.3</ele>
        <time>2026-08-06T17:27:58.000Z</time>
      </trkpt>
      <trkpt lat="46.06048" lon="2.26019">
        <ele>496.6</ele>
        <time>2026-08-06T17:28:00.000Z</time>
      </trkpt>
      <trkpt lat="46.06039" lon="2.26014">
        <ele>497.2</ele>
        <time>2026-08-06T17:28:06.000Z</time>
      </trkpt>
      <trkpt lat="46.06031" lon="2.2601">
        <ele>497.8</ele>
        <time>2026-08-06T17:28:11.000Z</time>
      </trkpt>
      <trkpt lat="46.06022" lon="2.26007">
        <ele>498.3</ele>
        <time>2026-08-06T17:28:16.000Z</time>
      </trkpt>
      <trkpt lat="46.06016" lon="2.26003">
        <ele>498.8</ele>
        <time>2026-08-06T17:28:20.000Z</time>
      </trkpt>
      <trkpt lat="46.0601" lon="2.26002">
        <ele>499.2</ele>
        <time>2026-08-06T17:28:24.000Z</time>
      </trkpt>
      <trkpt lat="46.06009" lon="2.26001">
        <ele>499.4</ele>
        <time>2026-08-06T17:28:25.000Z</time>
      </trkpt>
      <trkpt lat="46.06003" lon="2.25998">
        <ele>499.8</ele>
        <time>2026-08-06T17:28:29.000Z</time>
      </trkpt>
      <trkpt lat="46.06" lon="2.25996">
        <ele>500</ele>
        <time>2026-08-06T17:28:31.000Z</time>
      </trkpt>
      <trkpt lat="46.05988" lon="2.2599">
        <ele>500.9</ele>
        <time>2026-08-06T17:28:39.000Z</time>
      </trkpt>
      <trkpt lat="46.05983" lon="2.25989">
        <ele>501.2</ele>
        <time>2026-08-06T17:28:42.000Z</time>
      </trkpt>
      <trkpt lat="46.05978" lon="2.25986">
        <ele>501.6</ele>
        <time>2026-08-06T17:28:46.000Z</time>
      </trkpt>
      <trkpt lat="46.05967" lon="2.2598">
        <ele>502.4</ele>
        <time>2026-08-06T17:28:54.000Z</time>
      </trkpt>
      <trkpt lat="46.05965" lon="2.25979">
        <ele>502.6</ele>
        <time>2026-08-06T17:28:56.000Z</time>
      </trkpt>
      <trkpt lat="46.05962" lon="2.25977">
        <ele>502.8</ele>
        <time>2026-08-06T17:28:59.000Z</time>
      </trkpt>
      <trkpt lat="46.05961" lon="2.25977">
        <ele>502.8</ele>
        <time>2026-08-06T17:29:00.000Z</time>
      </trkpt>
      <trkpt lat="46.05954" lon="2.25974">
        <ele>503.3</ele>
        <time>2026-08-06T17:29:04.000Z</time>
      </trkpt>
      <trkpt lat="46.05948" lon="2.25971">
        <ele>503.8</ele>
        <time>2026-08-06T17:29:08.000Z</time>
      </trkpt>
      <trkpt lat="46.05943" lon="2.25969">
        <ele>504.2</ele>
        <time>2026-08-06T17:29:11.000Z</time>
      </trkpt>
      <trkpt lat="46.05942" lon="2.25968">
        <ele>504.4</ele>
        <time>2026-08-06T17:29:12.000Z</time>
      </trkpt>
      <trkpt lat="46.05941" lon="2.25967">
        <ele>504.5</ele>
        <time>2026-08-06T17:29:13.000Z</time>
      </trkpt>
      <trkpt lat="46.05927" lon="2.2596">
        <ele>505.8</ele>
        <time>2026-08-06T17:29:22.000Z</time>
      </trkpt>
      <trkpt lat="46.05924" lon="2.25959">
        <ele>506</ele>
        <time>2026-08-06T17:29:24.000Z</time>
      </trkpt>
      <trkpt lat="46.05914" lon="2.25953">
        <ele>506.3</ele>
        <time>2026-08-06T17:29:31.000Z</time>
      </trkpt>
      <trkpt lat="46.05904" lon="2.25947">
        <ele>506.5</ele>
        <time>2026-08-06T17:29:37.000Z</time>
      </trkpt>
      <trkpt lat="46.05902" lon="2.25947">
        <ele>506.6</ele>
        <time>2026-08-06T17:29:38.000Z</time>
      </trkpt>
      <trkpt lat="46.05887" lon="2.25939">
        <ele>507.1</ele>
        <time>2026-08-06T17:29:47.000Z</time>
      </trkpt>
      <trkpt lat="46.05877" lon="2.25934">
        <ele>507.4</ele>
        <time>2026-08-06T17:29:53.000Z</time>
      </trkpt>
      <trkpt lat="46.05871" lon="2.25931">
        <ele>507.7</ele>
        <time>2026-08-06T17:29:57.000Z</time>
      </trkpt>
      <trkpt lat="46.05857" lon="2.25925">
        <ele>508.3</ele>
        <time>2026-08-06T17:30:06.000Z</time>
      </trkpt>
      <trkpt lat="46.0585" lon="2.25921">
        <ele>508.7</ele>
        <time>2026-08-06T17:30:11.000Z</time>
      </trkpt>
      <trkpt lat="46.05843" lon="2.25918">
        <ele>509.3</ele>
        <time>2026-08-06T17:30:17.000Z</time>
      </trkpt>
      <trkpt lat="46.05839" lon="2.25918">
        <ele>509.6</ele>
        <time>2026-08-06T17:30:20.000Z</time>
      </trkpt>
      <trkpt lat="46.05836" lon="2.25917">
        <ele>509.8</ele>
        <time>2026-08-06T17:30:22.000Z</time>
      </trkpt>
      <trkpt lat="46.05825" lon="2.2591">
        <ele>510.1</ele>
        <time>2026-08-06T17:30:30.000Z</time>
      </trkpt>
      <trkpt lat="46.05823" lon="2.25911">
        <ele>510.1</ele>
        <time>2026-08-06T17:30:31.000Z</time>
      </trkpt>
      <trkpt lat="46.05816" lon="2.2591">
        <ele>510.2</ele>
        <time>2026-08-06T17:30:35.000Z</time>
      </trkpt>
      <trkpt lat="46.05811" lon="2.25907">
        <ele>510.3</ele>
        <time>2026-08-06T17:30:38.000Z</time>
      </trkpt>
      <trkpt lat="46.05799" lon="2.25905">
        <ele>510.7</ele>
        <time>2026-08-06T17:30:45.000Z</time>
      </trkpt>
      <trkpt lat="46.05785" lon="2.25903">
        <ele>511.2</ele>
        <time>2026-08-06T17:30:52.000Z</time>
      </trkpt>
      <trkpt lat="46.0577" lon="2.25901">
        <ele>511.7</ele>
        <time>2026-08-06T17:31:00.000Z</time>
      </trkpt>
      <trkpt lat="46.05757" lon="2.25901">
        <ele>511.9</ele>
        <time>2026-08-06T17:31:06.000Z</time>
      </trkpt>
      <trkpt lat="46.05741" lon="2.25903">
        <ele>512.3</ele>
        <time>2026-08-06T17:31:13.000Z</time>
      </trkpt>
      <trkpt lat="46.05725" lon="2.25907">
        <ele>512.9</ele>
        <time>2026-08-06T17:31:19.000Z</time>
      </trkpt>
      <trkpt lat="46.0572" lon="2.25908">
        <ele>513</ele>
        <time>2026-08-06T17:31:21.000Z</time>
      </trkpt>
      <trkpt lat="46.05706" lon="2.25917">
        <ele>513</ele>
        <time>2026-08-06T17:31:27.000Z</time>
      </trkpt>
      <trkpt lat="46.05691" lon="2.25933">
        <ele>513.1</ele>
        <time>2026-08-06T17:31:34.000Z</time>
      </trkpt>
      <trkpt lat="46.05686" lon="2.25936">
        <ele>513.2</ele>
        <time>2026-08-06T17:31:36.000Z</time>
      </trkpt>
      <trkpt lat="46.05676" lon="2.25947">
        <ele>513.7</ele>
        <time>2026-08-06T17:31:41.000Z</time>
      </trkpt>
      <trkpt lat="46.05664" lon="2.25961">
        <ele>514</ele>
        <time>2026-08-06T17:31:48.000Z</time>
      </trkpt>
      <trkpt lat="46.05644" lon="2.25978">
        <ele>514.2</ele>
        <time>2026-08-06T17:31:57.000Z</time>
      </trkpt>
      <trkpt lat="46.05631" lon="2.25993">
        <ele>514.8</ele>
        <time>2026-08-06T17:32:03.000Z</time>
      </trkpt>
      <trkpt lat="46.05618" lon="2.26008">
        <ele>515.3</ele>
        <time>2026-08-06T17:32:11.000Z</time>
      </trkpt>
      <trkpt lat="46.05606" lon="2.26034">
        <ele>516.2</ele>
        <time>2026-08-06T17:32:20.000Z</time>
      </trkpt>
      <trkpt lat="46.05603" lon="2.26071">
        <ele>516.3</ele>
        <time>2026-08-06T17:32:29.000Z</time>
      </trkpt>
      <trkpt lat="46.056" lon="2.26109">
        <ele>516</ele>
        <time>2026-08-06T17:32:38.000Z</time>
      </trkpt>
      <trkpt lat="46.05594" lon="2.26147">
        <ele>516.8</ele>
        <time>2026-08-06T17:32:47.000Z</time>
      </trkpt>
      <trkpt lat="46.05584" lon="2.26171">
        <ele>518</ele>
        <time>2026-08-06T17:32:54.000Z</time>
      </trkpt>
      <trkpt lat="46.05582" lon="2.26174">
        <ele>518.1</ele>
        <time>2026-08-06T17:32:55.000Z</time>
      </trkpt>
      <trkpt lat="46.05571" lon="2.26191">
        <ele>518.8</ele>
        <time>2026-08-06T17:33:02.000Z</time>
      </trkpt>
      <trkpt lat="46.05561" lon="2.26206">
        <ele>520</ele>
        <time>2026-08-06T17:33:09.000Z</time>
      </trkpt>
      <trkpt lat="46.0556" lon="2.26208">
        <ele>520.2</ele>
        <time>2026-08-06T17:33:10.000Z</time>
      </trkpt>
      <trkpt lat="46.05552" lon="2.26225">
        <ele>521.2</ele>
        <time>2026-08-06T17:33:17.000Z</time>
      </trkpt>
      <trkpt lat="46.05547" lon="2.2623">
        <ele>521.4</ele>
        <time>2026-08-06T17:33:20.000Z</time>
      </trkpt>
      <trkpt lat="46.05542" lon="2.26238">
        <ele>521.8</ele>
        <time>2026-08-06T17:33:24.000Z</time>
      </trkpt>
      <trkpt lat="46.05537" lon="2.26247">
        <ele>522.3</ele>
        <time>2026-08-06T17:33:28.000Z</time>
      </trkpt>
      <trkpt lat="46.0553" lon="2.26257">
        <ele>522.9</ele>
        <time>2026-08-06T17:33:33.000Z</time>
      </trkpt>
      <trkpt lat="46.0552" lon="2.26272">
        <ele>523.5</ele>
        <time>2026-08-06T17:33:40.000Z</time>
      </trkpt>
      <trkpt lat="46.05518" lon="2.26275">
        <ele>523.7</ele>
        <time>2026-08-06T17:33:42.000Z</time>
      </trkpt>
      <trkpt lat="46.05511" lon="2.26287">
        <ele>524.2</ele>
        <time>2026-08-06T17:33:48.000Z</time>
      </trkpt>
      <trkpt lat="46.05505" lon="2.26297">
        <ele>524.6</ele>
        <time>2026-08-06T17:33:53.000Z</time>
      </trkpt>
      <trkpt lat="46.05496" lon="2.26311">
        <ele>525.3</ele>
        <time>2026-08-06T17:33:59.000Z</time>
      </trkpt>
      <trkpt lat="46.05494" lon="2.26315">
        <ele>525.4</ele>
        <time>2026-08-06T17:34:01.000Z</time>
      </trkpt>
      <trkpt lat="46.05487" lon="2.2633">
        <ele>525.9</ele>
        <time>2026-08-06T17:34:07.000Z</time>
      </trkpt>
      <trkpt lat="46.05483" lon="2.26339">
        <ele>526.3</ele>
        <time>2026-08-06T17:34:11.000Z</time>
      </trkpt>
      <trkpt lat="46.05482" lon="2.26341">
        <ele>526.3</ele>
        <time>2026-08-06T17:34:12.000Z</time>
      </trkpt>
      <trkpt lat="46.05481" lon="2.26345">
        <ele>526.4</ele>
        <time>2026-08-06T17:34:14.000Z</time>
      </trkpt>
      <trkpt lat="46.05472" lon="2.26364">
        <ele>527</ele>
        <time>2026-08-06T17:34:21.000Z</time>
      </trkpt>
      <trkpt lat="46.05469" lon="2.26374">
        <ele>527.2</ele>
        <time>2026-08-06T17:34:24.000Z</time>
      </trkpt>
      <trkpt lat="46.05461" lon="2.26393">
        <ele>527.4</ele>
        <time>2026-08-06T17:34:30.000Z</time>
      </trkpt>
      <trkpt lat="46.05449" lon="2.26424">
        <ele>527.9</ele>
        <time>2026-08-06T17:34:39.000Z</time>
      </trkpt>
      <trkpt lat="46.05434" lon="2.26463">
        <ele>528.4</ele>
        <time>2026-08-06T17:34:50.000Z</time>
      </trkpt>
      <trkpt lat="46.05431" lon="2.26469">
        <ele>528.5</ele>
        <time>2026-08-06T17:34:52.000Z</time>
      </trkpt>
      <trkpt lat="46.05424" lon="2.26489">
        <ele>528.3</ele>
        <time>2026-08-06T17:34:59.000Z</time>
      </trkpt>
      <trkpt lat="46.05418" lon="2.26502">
        <ele>527.9</ele>
        <time>2026-08-06T17:35:06.000Z</time>
      </trkpt>
      <trkpt lat="46.05417" lon="2.26503">
        <ele>527.9</ele>
        <time>2026-08-06T17:35:12.000Z</time>
      </trkpt>
      <trkpt lat="46.05415" lon="2.26512">
        <ele>527.6</ele>
        <time>2026-08-06T17:39:56.000Z</time>
      </trkpt>
      <trkpt lat="46.05409" lon="2.26528">
        <ele>527</ele>
        <time>2026-08-06T17:40:00.000Z</time>
      </trkpt>
      <trkpt lat="46.05406" lon="2.26535">
        <ele>526.9</ele>
        <time>2026-08-06T17:40:01.000Z</time>
      </trkpt>
      <trkpt lat="46.05396" lon="2.26549">
        <ele>526.4</ele>
        <time>2026-08-06T17:40:04.000Z</time>
      </trkpt>
      <trkpt lat="46.05387" lon="2.26553">
        <ele>526</ele>
        <time>2026-08-06T17:40:06.000Z</time>
      </trkpt>
      <trkpt lat="46.05381" lon="2.26551">
        <ele>525.7</ele>
        <time>2026-08-06T17:40:07.000Z</time>
      </trkpt>
      <trkpt lat="46.05356" lon="2.2654">
        <ele>525.5</ele>
        <time>2026-08-06T17:40:13.000Z</time>
      </trkpt>
      <trkpt lat="46.05336" lon="2.26529">
        <ele>526</ele>
        <time>2026-08-06T17:40:19.000Z</time>
      </trkpt>
      <trkpt lat="46.05315" lon="2.26516">
        <ele>525.8</ele>
        <time>2026-08-06T17:40:26.000Z</time>
      </trkpt>
      <trkpt lat="46.0529" lon="2.26497">
        <ele>526.6</ele>
        <time>2026-08-06T17:40:35.000Z</time>
      </trkpt>
      <trkpt lat="46.05285" lon="2.26492">
        <ele>526.8</ele>
        <time>2026-08-06T17:40:37.000Z</time>
      </trkpt>
      <trkpt lat="46.05272" lon="2.26483">
        <ele>526.8</ele>
        <time>2026-08-06T17:40:42.000Z</time>
      </trkpt>
      <trkpt lat="46.05252" lon="2.26465">
        <ele>526.9</ele>
        <time>2026-08-06T17:40:50.000Z</time>
      </trkpt>
      <trkpt lat="46.05245" lon="2.26458">
        <ele>527.1</ele>
        <time>2026-08-06T17:40:53.000Z</time>
      </trkpt>
      <trkpt lat="46.05234" lon="2.26446">
        <ele>527.1</ele>
        <time>2026-08-06T17:40:57.000Z</time>
      </trkpt>
      <trkpt lat="46.05218" lon="2.2642">
        <ele>527.4</ele>
        <time>2026-08-06T17:41:04.000Z</time>
      </trkpt>
      <trkpt lat="46.05208" lon="2.2639">
        <ele>528.8</ele>
        <time>2026-08-06T17:41:11.000Z</time>
      </trkpt>
      <trkpt lat="46.05206" lon="2.26381">
        <ele>529.3</ele>
        <time>2026-08-06T17:41:13.000Z</time>
      </trkpt>
      <trkpt lat="46.05203" lon="2.26364">
        <ele>530.4</ele>
        <time>2026-08-06T17:41:17.000Z</time>
      </trkpt>
      <trkpt lat="46.05197" lon="2.26331">
        <ele>531.2</ele>
        <time>2026-08-06T17:41:24.000Z</time>
      </trkpt>
      <trkpt lat="46.05194" lon="2.26307">
        <ele>531.9</ele>
        <time>2026-08-06T17:41:29.000Z</time>
      </trkpt>
      <trkpt lat="46.05192" lon="2.26294">
        <ele>532</ele>
        <time>2026-08-06T17:41:32.000Z</time>
      </trkpt>
      <trkpt lat="46.05185" lon="2.26269">
        <ele>532.4</ele>
        <time>2026-08-06T17:41:38.000Z</time>
      </trkpt>
      <trkpt lat="46.05171" lon="2.26244">
        <ele>532.7</ele>
        <time>2026-08-06T17:41:45.000Z</time>
      </trkpt>
      <trkpt lat="46.05168" lon="2.26241">
        <ele>532.6</ele>
        <time>2026-08-06T17:41:46.000Z</time>
      </trkpt>
      <trkpt lat="46.05166" lon="2.26238">
        <ele>532.6</ele>
        <time>2026-08-06T17:41:47.000Z</time>
      </trkpt>
      <trkpt lat="46.05147" lon="2.26222">
        <ele>532.7</ele>
        <time>2026-08-06T17:41:54.000Z</time>
      </trkpt>
      <trkpt lat="46.05127" lon="2.26208">
        <ele>532.9</ele>
        <time>2026-08-06T17:42:01.000Z</time>
      </trkpt>
      <trkpt lat="46.05099" lon="2.2619">
        <ele>533.8</ele>
        <time>2026-08-06T17:42:11.000Z</time>
      </trkpt>
      <trkpt lat="46.05091" lon="2.26184">
        <ele>534.2</ele>
        <time>2026-08-06T17:42:14.000Z</time>
      </trkpt>
      <trkpt lat="46.05077" lon="2.26175">
        <ele>534.5</ele>
        <time>2026-08-06T17:42:19.000Z</time>
      </trkpt>
      <trkpt lat="46.05059" lon="2.26163">
        <ele>534.7</ele>
        <time>2026-08-06T17:42:26.000Z</time>
      </trkpt>
      <trkpt lat="46.05042" lon="2.26151">
        <ele>534.9</ele>
        <time>2026-08-06T17:42:32.000Z</time>
      </trkpt>
      <trkpt lat="46.05031" lon="2.26145">
        <ele>535.1</ele>
        <time>2026-08-06T17:42:36.000Z</time>
      </trkpt>
      <trkpt lat="46.05007" lon="2.26129">
        <ele>535.9</ele>
        <time>2026-08-06T17:42:45.000Z</time>
      </trkpt>
      <trkpt lat="46.05004" lon="2.26127">
        <ele>535.9</ele>
        <time>2026-08-06T17:42:46.000Z</time>
      </trkpt>
      <trkpt lat="46.04981" lon="2.26111">
        <ele>536.4</ele>
        <time>2026-08-06T17:42:54.000Z</time>
      </trkpt>
      <trkpt lat="46.04953" lon="2.261">
        <ele>536.9</ele>
        <time>2026-08-06T17:43:02.000Z</time>
      </trkpt>
      <trkpt lat="46.0495" lon="2.261">
        <ele>537</ele>
        <time>2026-08-06T17:43:03.000Z</time>
      </trkpt>
      <trkpt lat="46.04919" lon="2.26092">
        <ele>537.2</ele>
        <time>2026-08-06T17:43:11.000Z</time>
      </trkpt>
      <trkpt lat="46.04878" lon="2.26086">
        <ele>537.6</ele>
        <time>2026-08-06T17:43:22.000Z</time>
      </trkpt>
      <trkpt lat="46.04863" lon="2.26084">
        <ele>538</ele>
        <time>2026-08-06T17:43:26.000Z</time>
      </trkpt>
      <trkpt lat="46.04849" lon="2.26082">
        <ele>538</ele>
        <time>2026-08-06T17:43:30.000Z</time>
      </trkpt>
      <trkpt lat="46.04845" lon="2.26082">
        <ele>537.9</ele>
        <time>2026-08-06T17:43:31.000Z</time>
      </trkpt>
      <trkpt lat="46.04806" lon="2.26078">
        <ele>538</ele>
        <time>2026-08-06T17:43:41.000Z</time>
      </trkpt>
      <trkpt lat="46.04771" lon="2.26073">
        <ele>538.6</ele>
        <time>2026-08-06T17:43:50.000Z</time>
      </trkpt>
      <trkpt lat="46.04754" lon="2.26071">
        <ele>538.6</ele>
        <time>2026-08-06T17:43:54.000Z</time>
      </trkpt>
      <trkpt lat="46.0471" lon="2.26065">
        <ele>538.8</ele>
        <time>2026-08-06T17:44:05.000Z</time>
      </trkpt>
      <trkpt lat="46.04678" lon="2.26061">
        <ele>538.5</ele>
        <time>2026-08-06T17:44:12.000Z</time>
      </trkpt>
      <trkpt lat="46.04631" lon="2.26052">
        <ele>537.5</ele>
        <time>2026-08-06T17:44:23.000Z</time>
      </trkpt>
      <trkpt lat="46.04615" lon="2.26045">
        <ele>537</ele>
        <time>2026-08-06T17:44:27.000Z</time>
      </trkpt>
      <trkpt lat="46.046" lon="2.26035">
        <ele>537.1</ele>
        <time>2026-08-06T17:44:31.000Z</time>
      </trkpt>
      <trkpt lat="46.04582" lon="2.26019">
        <ele>537</ele>
        <time>2026-08-06T17:44:36.000Z</time>
      </trkpt>
      <trkpt lat="46.0458" lon="2.26016">
        <ele>537.1</ele>
        <time>2026-08-06T17:44:37.000Z</time>
      </trkpt>
      <trkpt lat="46.04577" lon="2.26012">
        <ele>537.2</ele>
        <time>2026-08-06T17:44:38.000Z</time>
      </trkpt>
      <trkpt lat="46.04556" lon="2.25982">
        <ele>538</ele>
        <time>2026-08-06T17:44:46.000Z</time>
      </trkpt>
      <trkpt lat="46.04537" lon="2.25954">
        <ele>538.5</ele>
        <time>2026-08-06T17:44:54.000Z</time>
      </trkpt>
      <trkpt lat="46.04513" lon="2.25929">
        <ele>539.5</ele>
        <time>2026-08-06T17:45:03.000Z</time>
      </trkpt>
      <trkpt lat="46.04494" lon="2.25919">
        <ele>539.4</ele>
        <time>2026-08-06T17:45:09.000Z</time>
      </trkpt>
      <trkpt lat="46.04483" lon="2.25917">
        <ele>539.6</ele>
        <time>2026-08-06T17:45:12.000Z</time>
      </trkpt>
      <trkpt lat="46.04477" lon="2.25915">
        <ele>539.8</ele>
        <time>2026-08-06T17:45:14.000Z</time>
      </trkpt>
      <trkpt lat="46.04444" lon="2.25913">
        <ele>538.9</ele>
        <time>2026-08-06T17:45:23.000Z</time>
      </trkpt>
      <trkpt lat="46.04409" lon="2.2591">
        <ele>539.8</ele>
        <time>2026-08-06T17:45:32.000Z</time>
      </trkpt>
      <trkpt lat="46.0438" lon="2.2591">
        <ele>539.8</ele>
        <time>2026-08-06T17:45:40.000Z</time>
      </trkpt>
      <trkpt lat="46.0434" lon="2.25907">
        <ele>540.4</ele>
        <time>2026-08-06T17:45:51.000Z</time>
      </trkpt>
      <trkpt lat="46.04314" lon="2.25905">
        <ele>540.5</ele>
        <time>2026-08-06T17:45:58.000Z</time>
      </trkpt>
      <trkpt lat="46.04278" lon="2.25901">
        <ele>540.6</ele>
        <time>2026-08-06T17:46:08.000Z</time>
      </trkpt>
      <trkpt lat="46.04239" lon="2.25895">
        <ele>541.5</ele>
        <time>2026-08-06T17:46:19.000Z</time>
      </trkpt>
      <trkpt lat="46.04204" lon="2.25875">
        <ele>542</ele>
        <time>2026-08-06T17:46:29.000Z</time>
      </trkpt>
      <trkpt lat="46.04194" lon="2.25866">
        <ele>541.8</ele>
        <time>2026-08-06T17:46:32.000Z</time>
      </trkpt>
      <trkpt lat="46.04176" lon="2.25846">
        <ele>542.2</ele>
        <time>2026-08-06T17:46:38.000Z</time>
      </trkpt>
      <trkpt lat="46.04139" lon="2.25811">
        <ele>541.7</ele>
        <time>2026-08-06T17:46:49.000Z</time>
      </trkpt>
      <trkpt lat="46.04109" lon="2.25783">
        <ele>540.6</ele>
        <time>2026-08-06T17:46:57.000Z</time>
      </trkpt>
      <trkpt lat="46.0408" lon="2.25755">
        <ele>540.7</ele>
        <time>2026-08-06T17:47:05.000Z</time>
      </trkpt>
      <trkpt lat="46.04062" lon="2.25738">
        <ele>540.7</ele>
        <time>2026-08-06T17:47:10.000Z</time>
      </trkpt>
      <trkpt lat="46.04055" lon="2.25731">
        <ele>540.7</ele>
        <time>2026-08-06T17:47:12.000Z</time>
      </trkpt>
      <trkpt lat="46.04049" lon="2.25724">
        <ele>540.9</ele>
        <time>2026-08-06T17:47:14.000Z</time>
      </trkpt>
      <trkpt lat="46.04045" lon="2.25721">
        <ele>541.1</ele>
        <time>2026-08-06T17:47:15.000Z</time>
      </trkpt>
      <trkpt lat="46.04025" lon="2.257">
        <ele>541.8</ele>
        <time>2026-08-06T17:47:22.000Z</time>
      </trkpt>
      <trkpt lat="46.04005" lon="2.25679">
        <ele>542</ele>
        <time>2026-08-06T17:47:29.000Z</time>
      </trkpt>
      <trkpt lat="46.03981" lon="2.25655">
        <ele>541.9</ele>
        <time>2026-08-06T17:47:37.000Z</time>
      </trkpt>
      <trkpt lat="46.03975" lon="2.25649">
        <ele>541.9</ele>
        <time>2026-08-06T17:47:39.000Z</time>
      </trkpt>
      <trkpt lat="46.03961" lon="2.25636">
        <ele>542.3</ele>
        <time>2026-08-06T17:47:44.000Z</time>
      </trkpt>
      <trkpt lat="46.03943" lon="2.25619">
        <ele>542.3</ele>
        <time>2026-08-06T17:47:51.000Z</time>
      </trkpt>
      <trkpt lat="46.03935" lon="2.25611">
        <ele>542.4</ele>
        <time>2026-08-06T17:47:57.000Z</time>
      </trkpt>
      <trkpt lat="46.03933" lon="2.2561">
        <ele>542.4</ele>
        <time>2026-08-06T17:47:59.000Z</time>
      </trkpt>
      <trkpt lat="46.0393" lon="2.25609">
        <ele>542.5</ele>
        <time>2026-08-06T17:48:03.000Z</time>
      </trkpt>
      <trkpt lat="46.0393" lon="2.25609">
        <ele>542.5</ele>
        <time>2026-08-06T17:48:05.000Z</time>
      </trkpt>
      <trkpt lat="46.03926" lon="2.25605">
        <ele>542.6</ele>
        <time>2026-08-06T17:48:28.000Z</time>
      </trkpt>
      <trkpt lat="46.03924" lon="2.25603">
        <ele>542.6</ele>
        <time>2026-08-06T17:48:29.000Z</time>
      </trkpt>
      <trkpt lat="46.03908" lon="2.25593">
        <ele>543.3</ele>
        <time>2026-08-06T17:48:36.000Z</time>
      </trkpt>
      <trkpt lat="46.03886" lon="2.25579">
        <ele>543.9</ele>
        <time>2026-08-06T17:48:44.000Z</time>
      </trkpt>
      <trkpt lat="46.03884" lon="2.25579">
        <ele>544.1</ele>
        <time>2026-08-06T17:48:45.000Z</time>
      </trkpt>
      <trkpt lat="46.0388" lon="2.25585">
        <ele>544.3</ele>
        <time>2026-08-06T17:48:47.000Z</time>
      </trkpt>
      <trkpt lat="46.03871" lon="2.25607">
        <ele>544.6</ele>
        <time>2026-08-06T17:48:54.000Z</time>
      </trkpt>
      <trkpt lat="46.03866" lon="2.25619">
        <ele>544.8</ele>
        <time>2026-08-06T17:48:58.000Z</time>
      </trkpt>
      <trkpt lat="46.03862" lon="2.25628">
        <ele>545</ele>
        <time>2026-08-06T17:49:01.000Z</time>
      </trkpt>
      <trkpt lat="46.03848" lon="2.25653">
        <ele>545.2</ele>
        <time>2026-08-06T17:49:08.000Z</time>
      </trkpt>
      <trkpt lat="46.03835" lon="2.25673">
        <ele>544.7</ele>
        <time>2026-08-06T17:49:13.000Z</time>
      </trkpt>
      <trkpt lat="46.03811" lon="2.25707">
        <ele>543.2</ele>
        <time>2026-08-06T17:49:20.000Z</time>
      </trkpt>
      <trkpt lat="46.03804" lon="2.25715">
        <ele>542.5</ele>
        <time>2026-08-06T17:49:22.000Z</time>
      </trkpt>
      <trkpt lat="46.03788" lon="2.25729">
        <ele>541.4</ele>
        <time>2026-08-06T17:49:26.000Z</time>
      </trkpt>
      <trkpt lat="46.03784" lon="2.25732">
        <ele>541.1</ele>
        <time>2026-08-06T17:49:27.000Z</time>
      </trkpt>
      <trkpt lat="46.03772" lon="2.2574">
        <ele>539.7</ele>
        <time>2026-08-06T17:49:30.000Z</time>
      </trkpt>
      <trkpt lat="46.03753" lon="2.2575">
        <ele>537.2</ele>
        <time>2026-08-06T17:49:34.000Z</time>
      </trkpt>
      <trkpt lat="46.03731" lon="2.25761">
        <ele>535.5</ele>
        <time>2026-08-06T17:49:38.000Z</time>
      </trkpt>
      <trkpt lat="46.03725" lon="2.25765">
        <ele>535</ele>
        <time>2026-08-06T17:49:39.000Z</time>
      </trkpt>
      <trkpt lat="46.03704" lon="2.25775">
        <ele>534.1</ele>
        <time>2026-08-06T17:49:42.000Z</time>
      </trkpt>
      <trkpt lat="46.03689" lon="2.25783">
        <ele>532.8</ele>
        <time>2026-08-06T17:49:44.000Z</time>
      </trkpt>
      <trkpt lat="46.03681" lon="2.25788">
        <ele>531.9</ele>
        <time>2026-08-06T17:49:45.000Z</time>
      </trkpt>
      <trkpt lat="46.03657" lon="2.25801">
        <ele>530.8</ele>
        <time>2026-08-06T17:49:48.000Z</time>
      </trkpt>
      <trkpt lat="46.03641" lon="2.25813">
        <ele>529.8</ele>
        <time>2026-08-06T17:49:50.000Z</time>
      </trkpt>
      <trkpt lat="46.03633" lon="2.2582">
        <ele>529.2</ele>
        <time>2026-08-06T17:49:51.000Z</time>
      </trkpt>
      <trkpt lat="46.03608" lon="2.25849">
        <ele>527.2</ele>
        <time>2026-08-06T17:49:54.000Z</time>
      </trkpt>
      <trkpt lat="46.03602" lon="2.25857">
        <ele>526.5</ele>
        <time>2026-08-06T17:49:55.000Z</time>
      </trkpt>
      <trkpt lat="46.03577" lon="2.25887">
        <ele>525.9</ele>
        <time>2026-08-06T17:49:58.000Z</time>
      </trkpt>
      <trkpt lat="46.03554" lon="2.25917">
        <ele>525</ele>
        <time>2026-08-06T17:50:01.000Z</time>
      </trkpt>
      <trkpt lat="46.03526" lon="2.25953">
        <ele>525</ele>
        <time>2026-08-06T17:50:05.000Z</time>
      </trkpt>
      <trkpt lat="46.03512" lon="2.2597">
        <ele>525</ele>
        <time>2026-08-06T17:50:07.000Z</time>
      </trkpt>
      <trkpt lat="46.03481" lon="2.26012">
        <ele>524.9</ele>
        <time>2026-08-06T17:50:12.000Z</time>
      </trkpt>
      <trkpt lat="46.0347" lon="2.26025">
        <ele>525</ele>
        <time>2026-08-06T17:50:14.000Z</time>
      </trkpt>
      <trkpt lat="46.03425" lon="2.26079">
        <ele>524.1</ele>
        <time>2026-08-06T17:50:22.000Z</time>
      </trkpt>
      <trkpt lat="46.0342" lon="2.26085">
        <ele>524</ele>
        <time>2026-08-06T17:50:23.000Z</time>
      </trkpt>
      <trkpt lat="46.03392" lon="2.2612">
        <ele>524.3</ele>
        <time>2026-08-06T17:50:29.000Z</time>
      </trkpt>
      <trkpt lat="46.03384" lon="2.26131">
        <ele>524.9</ele>
        <time>2026-08-06T17:50:31.000Z</time>
      </trkpt>
      <trkpt lat="46.03373" lon="2.26143">
        <ele>525.7</ele>
        <time>2026-08-06T17:50:34.000Z</time>
      </trkpt>
      <trkpt lat="46.03359" lon="2.26161">
        <ele>527.8</ele>
        <time>2026-08-06T17:50:40.000Z</time>
      </trkpt>
      <trkpt lat="46.03353" lon="2.26169">
        <ele>528.9</ele>
        <time>2026-08-06T17:50:43.000Z</time>
      </trkpt>
      <trkpt lat="46.03346" lon="2.26177">
        <ele>529.6</ele>
        <time>2026-08-06T17:50:47.000Z</time>
      </trkpt>
      <trkpt lat="46.03343" lon="2.2618">
        <ele>529.8</ele>
        <time>2026-08-06T17:50:49.000Z</time>
      </trkpt>
      <trkpt lat="46.03334" lon="2.26191">
        <ele>530.1</ele>
        <time>2026-08-06T17:50:55.000Z</time>
      </trkpt>
      <trkpt lat="46.03329" lon="2.26197">
        <ele>530.1</ele>
        <time>2026-08-06T17:50:58.000Z</time>
      </trkpt>
      <trkpt lat="46.03321" lon="2.262">
        <ele>530.4</ele>
        <time>2026-08-06T17:51:02.000Z</time>
      </trkpt>
      <trkpt lat="46.03304" lon="2.26199">
        <ele>530.8</ele>
        <time>2026-08-06T17:51:11.000Z</time>
      </trkpt>
      <trkpt lat="46.03302" lon="2.26198">
        <ele>530.9</ele>
        <time>2026-08-06T17:51:12.000Z</time>
      </trkpt>
      <trkpt lat="46.03291" lon="2.26194">
        <ele>531</ele>
        <time>2026-08-06T17:51:18.000Z</time>
      </trkpt>
      <trkpt lat="46.03282" lon="2.2619">
        <ele>531.2</ele>
        <time>2026-08-06T17:51:24.000Z</time>
      </trkpt>
      <trkpt lat="46.03279" lon="2.26188">
        <ele>531.2</ele>
        <time>2026-08-06T17:51:27.000Z</time>
      </trkpt>
      <trkpt lat="46.03278" lon="2.26187">
        <ele>531.3</ele>
        <time>2026-08-06T17:51:29.000Z</time>
      </trkpt>
      <trkpt lat="46.03277" lon="2.26185">
        <ele>531.4</ele>
        <time>2026-08-06T17:51:31.000Z</time>
      </trkpt>
      <trkpt lat="46.03275" lon="2.26181">
        <ele>531.5</ele>
        <time>2026-08-06T17:51:34.000Z</time>
      </trkpt>
      <trkpt lat="46.03275" lon="2.26181">
        <ele>531.5</ele>
        <time>2026-08-06T17:51:36.000Z</time>
      </trkpt>
      <trkpt lat="46.0325" lon="2.26328">
        <ele>529.8</ele>
        <time>2026-08-07T08:28:25.000Z</time>
      </trkpt>
      <trkpt lat="46.03238" lon="2.26338">
        <ele>530.4</ele>
        <time>2026-08-07T08:28:30.000Z</time>
      </trkpt>
      <trkpt lat="46.03225" lon="2.26346">
        <ele>530.9</ele>
        <time>2026-08-07T08:28:36.000Z</time>
      </trkpt>
      <trkpt lat="46.0321" lon="2.26354">
        <ele>531.8</ele>
        <time>2026-08-07T08:28:43.000Z</time>
      </trkpt>
      <trkpt lat="46.03189" lon="2.2636">
        <ele>533.2</ele>
        <time>2026-08-07T08:28:53.000Z</time>
      </trkpt>
      <trkpt lat="46.03187" lon="2.2636">
        <ele>533.2</ele>
        <time>2026-08-07T08:28:54.000Z</time>
      </trkpt>
      <trkpt lat="46.0317" lon="2.26363">
        <ele>533.9</ele>
        <time>2026-08-07T08:29:02.000Z</time>
      </trkpt>
      <trkpt lat="46.03167" lon="2.26363">
        <ele>534</ele>
        <time>2026-08-07T08:29:04.000Z</time>
      </trkpt>
      <trkpt lat="46.03155" lon="2.26364">
        <ele>534.4</ele>
        <time>2026-08-07T08:29:10.000Z</time>
      </trkpt>
      <trkpt lat="46.03149" lon="2.26366">
        <ele>534.7</ele>
        <time>2026-08-07T08:29:14.000Z</time>
      </trkpt>
      <trkpt lat="46.03139" lon="2.26366">
        <ele>535</ele>
        <time>2026-08-07T08:29:19.000Z</time>
      </trkpt>
      <trkpt lat="46.03128" lon="2.26367">
        <ele>535.8</ele>
        <time>2026-08-07T08:29:25.000Z</time>
      </trkpt>
      <trkpt lat="46.03125" lon="2.26367">
        <ele>536</ele>
        <time>2026-08-07T08:29:27.000Z</time>
      </trkpt>
      <trkpt lat="46.03113" lon="2.26369">
        <ele>536.9</ele>
        <time>2026-08-07T08:29:34.000Z</time>
      </trkpt>
      <trkpt lat="46.03111" lon="2.26369">
        <ele>537</ele>
        <time>2026-08-07T08:29:35.000Z</time>
      </trkpt>
      <trkpt lat="46.03095" lon="2.26372">
        <ele>538.7</ele>
        <time>2026-08-07T08:29:44.000Z</time>
      </trkpt>
      <trkpt lat="46.03094" lon="2.26372">
        <ele>538.9</ele>
        <time>2026-08-07T08:29:45.000Z</time>
      </trkpt>
      <trkpt lat="46.03084" lon="2.26372">
        <ele>539.9</ele>
        <time>2026-08-07T08:29:51.000Z</time>
      </trkpt>
      <trkpt lat="46.03077" lon="2.26373">
        <ele>540.6</ele>
        <time>2026-08-07T08:29:55.000Z</time>
      </trkpt>
      <trkpt lat="46.03066" lon="2.26374">
        <ele>541.6</ele>
        <time>2026-08-07T08:30:01.000Z</time>
      </trkpt>
      <trkpt lat="46.03061" lon="2.26374">
        <ele>542.1</ele>
        <time>2026-08-07T08:30:04.000Z</time>
      </trkpt>
      <trkpt lat="46.03049" lon="2.26376">
        <ele>542.9</ele>
        <time>2026-08-07T08:30:10.000Z</time>
      </trkpt>
      <trkpt lat="46.03046" lon="2.26376">
        <ele>543.2</ele>
        <time>2026-08-07T08:30:12.000Z</time>
      </trkpt>
      <trkpt lat="46.03032" lon="2.26377">
        <ele>544.1</ele>
        <time>2026-08-07T08:30:20.000Z</time>
      </trkpt>
      <trkpt lat="46.03028" lon="2.26377">
        <ele>544.4</ele>
        <time>2026-08-07T08:30:22.000Z</time>
      </trkpt>
      <trkpt lat="46.03012" lon="2.26377">
        <ele>545.1</ele>
        <time>2026-08-07T08:30:31.000Z</time>
      </trkpt>
      <trkpt lat="46.02995" lon="2.26374">
        <ele>545.6</ele>
        <time>2026-08-07T08:30:40.000Z</time>
      </trkpt>
      <trkpt lat="46.02985" lon="2.26372">
        <ele>545.9</ele>
        <time>2026-08-07T08:30:45.000Z</time>
      </trkpt>
      <trkpt lat="46.02977" lon="2.26371">
        <ele>546.2</ele>
        <time>2026-08-07T08:30:49.000Z</time>
      </trkpt>
      <trkpt lat="46.02959" lon="2.26366">
        <ele>546.4</ele>
        <time>2026-08-07T08:30:57.000Z</time>
      </trkpt>
      <trkpt lat="46.02941" lon="2.26362">
        <ele>546.2</ele>
        <time>2026-08-07T08:31:04.000Z</time>
      </trkpt>
      <trkpt lat="46.02931" lon="2.26362">
        <ele>546.5</ele>
        <time>2026-08-07T08:31:08.000Z</time>
      </trkpt>
      <trkpt lat="46.02906" lon="2.26367">
        <ele>547.1</ele>
        <time>2026-08-07T08:31:17.000Z</time>
      </trkpt>
      <trkpt lat="46.02889" lon="2.26378">
        <ele>547</ele>
        <time>2026-08-07T08:31:23.000Z</time>
      </trkpt>
      <trkpt lat="46.0288" lon="2.26386">
        <ele>546.7</ele>
        <time>2026-08-07T08:31:26.000Z</time>
      </trkpt>
      <trkpt lat="46.02851" lon="2.2641">
        <ele>546.3</ele>
        <time>2026-08-07T08:31:35.000Z</time>
      </trkpt>
      <trkpt lat="46.02827" lon="2.2643">
        <ele>546.3</ele>
        <time>2026-08-07T08:31:42.000Z</time>
      </trkpt>
      <trkpt lat="46.02805" lon="2.26448">
        <ele>547.3</ele>
        <time>2026-08-07T08:31:49.000Z</time>
      </trkpt>
      <trkpt lat="46.02803" lon="2.2645">
        <ele>547.5</ele>
        <time>2026-08-07T08:31:50.000Z</time>
      </trkpt>
      <trkpt lat="46.02786" lon="2.26458">
        <ele>549</ele>
        <time>2026-08-07T08:31:57.000Z</time>
      </trkpt>
      <trkpt lat="46.02774" lon="2.26459">
        <ele>549.7</ele>
        <time>2026-08-07T08:32:02.000Z</time>
      </trkpt>
      <trkpt lat="46.02766" lon="2.26458">
        <ele>549.8</ele>
        <time>2026-08-07T08:32:06.000Z</time>
      </trkpt>
      <trkpt lat="46.0275" lon="2.26452">
        <ele>549.8</ele>
        <time>2026-08-07T08:32:13.000Z</time>
      </trkpt>
      <trkpt lat="46.02742" lon="2.2645">
        <ele>550.4</ele>
        <time>2026-08-07T08:32:17.000Z</time>
      </trkpt>
      <trkpt lat="46.02725" lon="2.26449">
        <ele>551.9</ele>
        <time>2026-08-07T08:32:25.000Z</time>
      </trkpt>
      <trkpt lat="46.02707" lon="2.26459">
        <ele>553</ele>
        <time>2026-08-07T08:32:34.000Z</time>
      </trkpt>
      <trkpt lat="46.02704" lon="2.26461">
        <ele>553.1</ele>
        <time>2026-08-07T08:32:36.000Z</time>
      </trkpt>
      <trkpt lat="46.027" lon="2.26463">
        <ele>553.2</ele>
        <time>2026-08-07T08:32:40.000Z</time>
      </trkpt>
      <trkpt lat="46.02698" lon="2.26463">
        <ele>553.2</ele>
        <time>2026-08-07T08:32:43.000Z</time>
      </trkpt>
      <trkpt lat="46.02695" lon="2.26462">
        <ele>553.3</ele>
        <time>2026-08-07T08:32:45.000Z</time>
      </trkpt>
      <trkpt lat="46.0269" lon="2.26456">
        <ele>553.5</ele>
        <time>2026-08-07T08:32:49.000Z</time>
      </trkpt>
      <trkpt lat="46.02688" lon="2.26451">
        <ele>553.7</ele>
        <time>2026-08-07T08:32:51.000Z</time>
      </trkpt>
      <trkpt lat="46.02684" lon="2.26442">
        <ele>554</ele>
        <time>2026-08-07T08:32:55.000Z</time>
      </trkpt>
      <trkpt lat="46.02681" lon="2.26434">
        <ele>554</ele>
        <time>2026-08-07T08:32:58.000Z</time>
      </trkpt>
      <trkpt lat="46.02675" lon="2.26421">
        <ele>554.3</ele>
        <time>2026-08-07T08:33:03.000Z</time>
      </trkpt>
      <trkpt lat="46.02672" lon="2.26412">
        <ele>554.6</ele>
        <time>2026-08-07T08:33:06.000Z</time>
      </trkpt>
      <trkpt lat="46.02666" lon="2.26396">
        <ele>555</ele>
        <time>2026-08-07T08:33:11.000Z</time>
      </trkpt>
      <trkpt lat="46.02663" lon="2.26387">
        <ele>555</ele>
        <time>2026-08-07T08:33:14.000Z</time>
      </trkpt>
      <trkpt lat="46.0266" lon="2.26381">
        <ele>554.8</ele>
        <time>2026-08-07T08:33:16.000Z</time>
      </trkpt>
      <trkpt lat="46.0265" lon="2.26363">
        <ele>554.9</ele>
        <time>2026-08-07T08:33:23.000Z</time>
      </trkpt>
      <trkpt lat="46.02645" lon="2.26354">
        <ele>555.3</ele>
        <time>2026-08-07T08:33:26.000Z</time>
      </trkpt>
      <trkpt lat="46.02628" lon="2.26336">
        <ele>556.4</ele>
        <time>2026-08-07T08:33:34.000Z</time>
      </trkpt>
      <trkpt lat="46.02626" lon="2.26334">
        <ele>556.5</ele>
        <time>2026-08-07T08:33:35.000Z</time>
      </trkpt>
      <trkpt lat="46.02609" lon="2.26316">
        <ele>558.3</ele>
        <time>2026-08-07T08:33:43.000Z</time>
      </trkpt>
      <trkpt lat="46.02602" lon="2.26307">
        <ele>558.9</ele>
        <time>2026-08-07T08:33:47.000Z</time>
      </trkpt>
      <trkpt lat="46.02596" lon="2.26301">
        <ele>559</ele>
        <time>2026-08-07T08:33:50.000Z</time>
      </trkpt>
      <trkpt lat="46.0258" lon="2.26285">
        <ele>559</ele>
        <time>2026-08-07T08:33:57.000Z</time>
      </trkpt>
      <trkpt lat="46.02576" lon="2.2628">
        <ele>559</ele>
        <time>2026-08-07T08:33:59.000Z</time>
      </trkpt>
      <trkpt lat="46.0257" lon="2.26274">
        <ele>558.9</ele>
        <time>2026-08-07T08:34:01.000Z</time>
      </trkpt>
      <trkpt lat="46.02558" lon="2.26263">
        <ele>558.9</ele>
        <time>2026-08-07T08:34:05.000Z</time>
      </trkpt>
      <trkpt lat="46.02529" lon="2.26234">
        <ele>558.4</ele>
        <time>2026-08-07T08:34:15.000Z</time>
      </trkpt>
      <trkpt lat="46.02497" lon="2.262">
        <ele>558.6</ele>
        <time>2026-08-07T08:34:25.000Z</time>
      </trkpt>
      <trkpt lat="46.02478" lon="2.26182">
        <ele>559.5</ele>
        <time>2026-08-07T08:34:32.000Z</time>
      </trkpt>
      <trkpt lat="46.02476" lon="2.26179">
        <ele>559.7</ele>
        <time>2026-08-07T08:34:33.000Z</time>
      </trkpt>
      <trkpt lat="46.02464" lon="2.26167">
        <ele>560.6</ele>
        <time>2026-08-07T08:34:38.000Z</time>
      </trkpt>
      <trkpt lat="46.02462" lon="2.26165">
        <ele>560.7</ele>
        <time>2026-08-07T08:34:39.000Z</time>
      </trkpt>
      <trkpt lat="46.02443" lon="2.26146">
        <ele>562</ele>
        <time>2026-08-07T08:34:49.000Z</time>
      </trkpt>
      <trkpt lat="46.02426" lon="2.2613">
        <ele>562.9</ele>
        <time>2026-08-07T08:34:59.000Z</time>
      </trkpt>
      <trkpt lat="46.02422" lon="2.26126">
        <ele>563.2</ele>
        <time>2026-08-07T08:35:01.000Z</time>
      </trkpt>
      <trkpt lat="46.02408" lon="2.26108">
        <ele>564</ele>
        <time>2026-08-07T08:35:10.000Z</time>
      </trkpt>
      <trkpt lat="46.02406" lon="2.26106">
        <ele>564.1</ele>
        <time>2026-08-07T08:35:11.000Z</time>
      </trkpt>
      <trkpt lat="46.02401" lon="2.261">
        <ele>564.2</ele>
        <time>2026-08-07T08:35:14.000Z</time>
      </trkpt>
      <trkpt lat="46.02394" lon="2.2609">
        <ele>564.6</ele>
        <time>2026-08-07T08:35:20.000Z</time>
      </trkpt>
      <trkpt lat="46.02393" lon="2.26089">
        <ele>564.7</ele>
        <time>2026-08-07T08:35:21.000Z</time>
      </trkpt>
      <trkpt lat="46.02393" lon="2.26088">
        <ele>564.7</ele>
        <time>2026-08-07T08:35:23.000Z</time>
      </trkpt>
      <trkpt lat="46.02391" lon="2.26087">
        <ele>564.8</ele>
        <time>2026-08-07T08:35:39.000Z</time>
      </trkpt>
      <trkpt lat="46.0238" lon="2.26073">
        <ele>565.2</ele>
        <time>2026-08-07T08:35:46.000Z</time>
      </trkpt>
      <trkpt lat="46.02369" lon="2.2606">
        <ele>565.8</ele>
        <time>2026-08-07T08:35:52.000Z</time>
      </trkpt>
      <trkpt lat="46.02365" lon="2.26054">
        <ele>566.1</ele>
        <time>2026-08-07T08:35:54.000Z</time>
      </trkpt>
      <trkpt lat="46.02354" lon="2.26039">
        <ele>566.2</ele>
        <time>2026-08-07T08:36:00.000Z</time>
      </trkpt>
      <trkpt lat="46.02341" lon="2.26021">
        <ele>566.7</ele>
        <time>2026-08-07T08:36:08.000Z</time>
      </trkpt>
      <trkpt lat="46.02337" lon="2.26017">
        <ele>566.9</ele>
        <time>2026-08-07T08:36:10.000Z</time>
      </trkpt>
      <trkpt lat="46.0233" lon="2.26008">
        <ele>567.2</ele>
        <time>2026-08-07T08:36:14.000Z</time>
      </trkpt>
      <trkpt lat="46.02324" lon="2.25998">
        <ele>567.5</ele>
        <time>2026-08-07T08:36:18.000Z</time>
      </trkpt>
      <trkpt lat="46.02321" lon="2.25993">
        <ele>567.5</ele>
        <time>2026-08-07T08:36:20.000Z</time>
      </trkpt>
      <trkpt lat="46.0231" lon="2.25973">
        <ele>568.1</ele>
        <time>2026-08-07T08:36:27.000Z</time>
      </trkpt>
      <trkpt lat="46.023" lon="2.25947">
        <ele>568.2</ele>
        <time>2026-08-07T08:36:34.000Z</time>
      </trkpt>
      <trkpt lat="46.02293" lon="2.25916">
        <ele>567.4</ele>
        <time>2026-08-07T08:36:39.000Z</time>
      </trkpt>
      <trkpt lat="46.02286" lon="2.25872">
        <ele>563.7</ele>
        <time>2026-08-07T08:36:44.000Z</time>
      </trkpt>
      <trkpt lat="46.02281" lon="2.25828">
        <ele>561</ele>
        <time>2026-08-07T08:36:48.000Z</time>
      </trkpt>
      <trkpt lat="46.0228" lon="2.25816">
        <ele>560.4</ele>
        <time>2026-08-07T08:36:49.000Z</time>
      </trkpt>
      <trkpt lat="46.02278" lon="2.2578">
        <ele>559.1</ele>
        <time>2026-08-07T08:36:52.000Z</time>
      </trkpt>
      <trkpt lat="46.02278" lon="2.25744">
        <ele>559</ele>
        <time>2026-08-07T08:36:55.000Z</time>
      </trkpt>
      <trkpt lat="46.0228" lon="2.25732">
        <ele>558.9</ele>
        <time>2026-08-07T08:36:56.000Z</time>
      </trkpt>
      <trkpt lat="46.02287" lon="2.25712">
        <ele>558.9</ele>
        <time>2026-08-07T08:36:58.000Z</time>
      </trkpt>
      <trkpt lat="46.02292" lon="2.25704">
        <ele>559.1</ele>
        <time>2026-08-07T08:36:59.000Z</time>
      </trkpt>
      <trkpt lat="46.02296" lon="2.25697">
        <ele>559.5</ele>
        <time>2026-08-07T08:37:00.000Z</time>
      </trkpt>
      <trkpt lat="46.02312" lon="2.25674">
        <ele>560.8</ele>
        <time>2026-08-07T08:37:04.000Z</time>
      </trkpt>
      <trkpt lat="46.02326" lon="2.25652">
        <ele>561.5</ele>
        <time>2026-08-07T08:37:09.000Z</time>
      </trkpt>
      <trkpt lat="46.02335" lon="2.25636">
        <ele>562</ele>
        <time>2026-08-07T08:37:13.000Z</time>
      </trkpt>
      <trkpt lat="46.02345" lon="2.25617">
        <ele>561.7</ele>
        <time>2026-08-07T08:37:17.000Z</time>
      </trkpt>
      <trkpt lat="46.02353" lon="2.25602">
        <ele>561.3</ele>
        <time>2026-08-07T08:37:20.000Z</time>
      </trkpt>
      <trkpt lat="46.02363" lon="2.25582">
        <ele>561.8</ele>
        <time>2026-08-07T08:37:24.000Z</time>
      </trkpt>
      <trkpt lat="46.02364" lon="2.25576">
        <ele>561.9</ele>
        <time>2026-08-07T08:37:25.000Z</time>
      </trkpt>
      <trkpt lat="46.02362" lon="2.25551">
        <ele>563.1</ele>
        <time>2026-08-07T08:37:30.000Z</time>
      </trkpt>
      <trkpt lat="46.02362" lon="2.25547">
        <ele>563.3</ele>
        <time>2026-08-07T08:37:33.000Z</time>
      </trkpt>
      <trkpt lat="46.02362" lon="2.25547">
        <ele>563.3</ele>
        <time>2026-08-07T08:37:34.000Z</time>
      </trkpt>
      <trkpt lat="46.0236" lon="2.25539">
        <ele>563.7</ele>
        <time>2026-08-07T08:39:30.000Z</time>
      </trkpt>
      <trkpt lat="46.02359" lon="2.25533">
        <ele>563.9</ele>
        <time>2026-08-07T08:39:33.000Z</time>
      </trkpt>
      <trkpt lat="46.02355" lon="2.2552">
        <ele>564.1</ele>
        <time>2026-08-07T08:39:40.000Z</time>
      </trkpt>
      <trkpt lat="46.02353" lon="2.25513">
        <ele>564.1</ele>
        <time>2026-08-07T08:39:43.000Z</time>
      </trkpt>
      <trkpt lat="46.02353" lon="2.25511">
        <ele>564.1</ele>
        <time>2026-08-07T08:39:44.000Z</time>
      </trkpt>
      <trkpt lat="46.02351" lon="2.25504">
        <ele>564.1</ele>
        <time>2026-08-07T08:39:47.000Z</time>
      </trkpt>
      <trkpt lat="46.02348" lon="2.25482">
        <ele>565.5</ele>
        <time>2026-08-07T08:39:55.000Z</time>
      </trkpt>
      <trkpt lat="46.02347" lon="2.25464">
        <ele>566.2</ele>
        <time>2026-08-07T08:40:01.000Z</time>
      </trkpt>
      <trkpt lat="46.02348" lon="2.25448">
        <ele>566.4</ele>
        <time>2026-08-07T08:40:06.000Z</time>
      </trkpt>
      <trkpt lat="46.02349" lon="2.25441">
        <ele>566.5</ele>
        <time>2026-08-07T08:40:08.000Z</time>
      </trkpt>
      <trkpt lat="46.0235" lon="2.2543">
        <ele>566.7</ele>
        <time>2026-08-07T08:40:13.000Z</time>
      </trkpt>
      <trkpt lat="46.02355" lon="2.25404">
        <ele>566.6</ele>
        <time>2026-08-07T08:40:21.000Z</time>
      </trkpt>
      <trkpt lat="46.02357" lon="2.25397">
        <ele>566.3</ele>
        <time>2026-08-07T08:40:26.000Z</time>
      </trkpt>
      <trkpt lat="46.02358" lon="2.25381">
        <ele>565.7</ele>
        <time>2026-08-07T08:40:33.000Z</time>
      </trkpt>
      <trkpt lat="46.02364" lon="2.25357">
        <ele>564.8</ele>
        <time>2026-08-07T08:40:39.000Z</time>
      </trkpt>
      <trkpt lat="46.02369" lon="2.25332">
        <ele>563.7</ele>
        <time>2026-08-07T08:40:44.000Z</time>
      </trkpt>
      <trkpt lat="46.02373" lon="2.25322">
        <ele>563.2</ele>
        <time>2026-08-07T08:40:46.000Z</time>
      </trkpt>
      <trkpt lat="46.02383" lon="2.25294">
        <ele>561.5</ele>
        <time>2026-08-07T08:40:51.000Z</time>
      </trkpt>
      <trkpt lat="46.02386" lon="2.25288">
        <ele>560.9</ele>
        <time>2026-08-07T08:40:52.000Z</time>
      </trkpt>
      <trkpt lat="46.02396" lon="2.25264">
        <ele>559.4</ele>
        <time>2026-08-07T08:40:56.000Z</time>
      </trkpt>
      <trkpt lat="46.02401" lon="2.25252">
        <ele>558.7</ele>
        <time>2026-08-07T08:40:58.000Z</time>
      </trkpt>
      <trkpt lat="46.02404" lon="2.25246">
        <ele>558.3</ele>
        <time>2026-08-07T08:40:59.000Z</time>
      </trkpt>
      <trkpt lat="46.02417" lon="2.25215">
        <ele>556.7</ele>
        <time>2026-08-07T08:41:04.000Z</time>
      </trkpt>
      <trkpt lat="46.02423" lon="2.25203">
        <ele>556.6</ele>
        <time>2026-08-07T08:41:06.000Z</time>
      </trkpt>
      <trkpt lat="46.02426" lon="2.25198">
        <ele>556.5</ele>
        <time>2026-08-07T08:41:07.000Z</time>
      </trkpt>
      <trkpt lat="46.02432" lon="2.25187">
        <ele>556.2</ele>
        <time>2026-08-07T08:41:09.000Z</time>
      </trkpt>
      <trkpt lat="46.02435" lon="2.25182">
        <ele>555.9</ele>
        <time>2026-08-07T08:41:10.000Z</time>
      </trkpt>
      <trkpt lat="46.02446" lon="2.25168">
        <ele>555.1</ele>
        <time>2026-08-07T08:41:13.000Z</time>
      </trkpt>
      <trkpt lat="46.02453" lon="2.25158">
        <ele>554.6</ele>
        <time>2026-08-07T08:41:15.000Z</time>
      </trkpt>
      <trkpt lat="46.0246" lon="2.25143">
        <ele>553.7</ele>
        <time>2026-08-07T08:41:17.000Z</time>
      </trkpt>
      <trkpt lat="46.02463" lon="2.25135">
        <ele>553</ele>
        <time>2026-08-07T08:41:18.000Z</time>
      </trkpt>
      <trkpt lat="46.02473" lon="2.25094">
        <ele>551</ele>
        <time>2026-08-07T08:41:22.000Z</time>
      </trkpt>
      <trkpt lat="46.02474" lon="2.25083">
        <ele>550.9</ele>
        <time>2026-08-07T08:41:23.000Z</time>
      </trkpt>
      <trkpt lat="46.02478" lon="2.25061">
        <ele>550.2</ele>
        <time>2026-08-07T08:41:25.000Z</time>
      </trkpt>
      <trkpt lat="46.02483" lon="2.25019">
        <ele>548.7</ele>
        <time>2026-08-07T08:41:29.000Z</time>
      </trkpt>
      <trkpt lat="46.02484" lon="2.25012">
        <ele>548.4</ele>
        <time>2026-08-07T08:41:30.000Z</time>
      </trkpt>
      <trkpt lat="46.02485" lon="2.25005">
        <ele>548.2</ele>
        <time>2026-08-07T08:41:31.000Z</time>
      </trkpt>
      <trkpt lat="46.02487" lon="2.24999">
        <ele>548</ele>
        <time>2026-08-07T08:41:32.000Z</time>
      </trkpt>
      <trkpt lat="46.02489" lon="2.24995">
        <ele>547.9</ele>
        <time>2026-08-07T08:41:33.000Z</time>
      </trkpt>
      <trkpt lat="46.02495" lon="2.24975">
        <ele>547.8</ele>
        <time>2026-08-07T08:41:38.000Z</time>
      </trkpt>
      <trkpt lat="46.02496" lon="2.24971">
        <ele>547.8</ele>
        <time>2026-08-07T08:41:39.000Z</time>
      </trkpt>
      <trkpt lat="46.02498" lon="2.24944">
        <ele>547</ele>
        <time>2026-08-07T08:41:44.000Z</time>
      </trkpt>
      <trkpt lat="46.02498" lon="2.24937">
        <ele>546.8</ele>
        <time>2026-08-07T08:41:45.000Z</time>
      </trkpt>
      <trkpt lat="46.02497" lon="2.24912">
        <ele>546.1</ele>
        <time>2026-08-07T08:41:49.000Z</time>
      </trkpt>
      <trkpt lat="46.02496" lon="2.24906">
        <ele>546.1</ele>
        <time>2026-08-07T08:41:50.000Z</time>
      </trkpt>
      <trkpt lat="46.02496" lon="2.24899">
        <ele>546.2</ele>
        <time>2026-08-07T08:41:51.000Z</time>
      </trkpt>
      <trkpt lat="46.02493" lon="2.24864">
        <ele>545.4</ele>
        <time>2026-08-07T08:41:56.000Z</time>
      </trkpt>
      <trkpt lat="46.02492" lon="2.24857">
        <ele>545.2</ele>
        <time>2026-08-07T08:41:57.000Z</time>
      </trkpt>
      <trkpt lat="46.02493" lon="2.24835">
        <ele>545</ele>
        <time>2026-08-07T08:42:01.000Z</time>
      </trkpt>
      <trkpt lat="46.02493" lon="2.24831">
        <ele>545</ele>
        <time>2026-08-07T08:42:02.000Z</time>
      </trkpt>
      <trkpt lat="46.02496" lon="2.24812">
        <ele>544.9</ele>
        <time>2026-08-07T08:42:06.000Z</time>
      </trkpt>
      <trkpt lat="46.02503" lon="2.24795">
        <ele>545.2</ele>
        <time>2026-08-07T08:42:10.000Z</time>
      </trkpt>
      <trkpt lat="46.02509" lon="2.24782">
        <ele>544.9</ele>
        <time>2026-08-07T08:42:13.000Z</time>
      </trkpt>
      <trkpt lat="46.02526" lon="2.24759">
        <ele>544.6</ele>
        <time>2026-08-07T08:42:19.000Z</time>
      </trkpt>
      <trkpt lat="46.02535" lon="2.24746">
        <ele>543.3</ele>
        <time>2026-08-07T08:42:22.000Z</time>
      </trkpt>
      <trkpt lat="46.0254" lon="2.24735">
        <ele>543.1</ele>
        <time>2026-08-07T08:42:24.000Z</time>
      </trkpt>
      <trkpt lat="46.02545" lon="2.24721">
        <ele>542.5</ele>
        <time>2026-08-07T08:42:26.000Z</time>
      </trkpt>
      <trkpt lat="46.0255" lon="2.247">
        <ele>542.2</ele>
        <time>2026-08-07T08:42:29.000Z</time>
      </trkpt>
      <trkpt lat="46.0255" lon="2.24686">
        <ele>542.1</ele>
        <time>2026-08-07T08:42:31.000Z</time>
      </trkpt>
      <trkpt lat="46.02547" lon="2.24664">
        <ele>541.5</ele>
        <time>2026-08-07T08:42:34.000Z</time>
      </trkpt>
      <trkpt lat="46.02538" lon="2.24639">
        <ele>540.8</ele>
        <time>2026-08-07T08:42:38.000Z</time>
      </trkpt>
      <trkpt lat="46.02534" lon="2.24633">
        <ele>540.8</ele>
        <time>2026-08-07T08:42:39.000Z</time>
      </trkpt>
      <trkpt lat="46.02531" lon="2.24629">
        <ele>540.8</ele>
        <time>2026-08-07T08:42:40.000Z</time>
      </trkpt>
      <trkpt lat="46.0252" lon="2.24617">
        <ele>540.9</ele>
        <time>2026-08-07T08:42:43.000Z</time>
      </trkpt>
      <trkpt lat="46.02515" lon="2.24614">
        <ele>541.1</ele>
        <time>2026-08-07T08:42:44.000Z</time>
      </trkpt>
      <trkpt lat="46.02487" lon="2.24598">
        <ele>542</ele>
        <time>2026-08-07T08:42:51.000Z</time>
      </trkpt>
      <trkpt lat="46.02484" lon="2.24595">
        <ele>541.9</ele>
        <time>2026-08-07T08:42:52.000Z</time>
      </trkpt>
      <trkpt lat="46.0247" lon="2.24582">
        <ele>541.1</ele>
        <time>2026-08-07T08:42:55.000Z</time>
      </trkpt>
      <trkpt lat="46.02467" lon="2.24577">
        <ele>541</ele>
        <time>2026-08-07T08:42:56.000Z</time>
      </trkpt>
      <trkpt lat="46.02464" lon="2.24571">
        <ele>540.9</ele>
        <time>2026-08-07T08:42:57.000Z</time>
      </trkpt>
      <trkpt lat="46.0246" lon="2.24558">
        <ele>540.5</ele>
        <time>2026-08-07T08:42:59.000Z</time>
      </trkpt>
      <trkpt lat="46.02457" lon="2.24545">
        <ele>540.2</ele>
        <time>2026-08-07T08:43:01.000Z</time>
      </trkpt>
      <trkpt lat="46.02447" lon="2.245">
        <ele>540.3</ele>
        <time>2026-08-07T08:43:08.000Z</time>
      </trkpt>
      <trkpt lat="46.02444" lon="2.24494">
        <ele>540.1</ele>
        <time>2026-08-07T08:43:09.000Z</time>
      </trkpt>
      <trkpt lat="46.02439" lon="2.24483">
        <ele>539.4</ele>
        <time>2026-08-07T08:43:11.000Z</time>
      </trkpt>
      <trkpt lat="46.02431" lon="2.24473">
        <ele>539.1</ele>
        <time>2026-08-07T08:43:13.000Z</time>
      </trkpt>
      <trkpt lat="46.02427" lon="2.2447">
        <ele>539.1</ele>
        <time>2026-08-07T08:43:14.000Z</time>
      </trkpt>
      <trkpt lat="46.02422" lon="2.24467">
        <ele>539.2</ele>
        <time>2026-08-07T08:43:15.000Z</time>
      </trkpt>
      <trkpt lat="46.024" lon="2.24456">
        <ele>539.7</ele>
        <time>2026-08-07T08:43:20.000Z</time>
      </trkpt>
      <trkpt lat="46.02386" lon="2.24449">
        <ele>539.8</ele>
        <time>2026-08-07T08:43:23.000Z</time>
      </trkpt>
      <trkpt lat="46.02378" lon="2.24441">
        <ele>539.4</ele>
        <time>2026-08-07T08:43:25.000Z</time>
      </trkpt>
      <trkpt lat="46.02374" lon="2.24437">
        <ele>539.3</ele>
        <time>2026-08-07T08:43:26.000Z</time>
      </trkpt>
      <trkpt lat="46.0237" lon="2.24432">
        <ele>539.3</ele>
        <time>2026-08-07T08:43:27.000Z</time>
      </trkpt>
      <trkpt lat="46.02364" lon="2.24419">
        <ele>539.6</ele>
        <time>2026-08-07T08:43:29.000Z</time>
      </trkpt>
      <trkpt lat="46.02359" lon="2.24407">
        <ele>540.3</ele>
        <time>2026-08-07T08:43:31.000Z</time>
      </trkpt>
      <trkpt lat="46.02356" lon="2.24387">
        <ele>540.7</ele>
        <time>2026-08-07T08:43:34.000Z</time>
      </trkpt>
      <trkpt lat="46.02355" lon="2.24374">
        <ele>540.7</ele>
        <time>2026-08-07T08:43:36.000Z</time>
      </trkpt>
      <trkpt lat="46.02355" lon="2.24368">
        <ele>540.7</ele>
        <time>2026-08-07T08:43:37.000Z</time>
      </trkpt>
      <trkpt lat="46.02348" lon="2.24334">
        <ele>539</ele>
        <time>2026-08-07T08:43:42.000Z</time>
      </trkpt>
      <trkpt lat="46.02346" lon="2.24328">
        <ele>538.5</ele>
        <time>2026-08-07T08:43:43.000Z</time>
      </trkpt>
      <trkpt lat="46.0234" lon="2.24316">
        <ele>537.9</ele>
        <time>2026-08-07T08:43:45.000Z</time>
      </trkpt>
      <trkpt lat="46.02332" lon="2.24306">
        <ele>538.1</ele>
        <time>2026-08-07T08:43:47.000Z</time>
      </trkpt>
      <trkpt lat="46.02328" lon="2.24301">
        <ele>537.5</ele>
        <time>2026-08-07T08:43:48.000Z</time>
      </trkpt>
      <trkpt lat="46.02304" lon="2.24279">
        <ele>538.2</ele>
        <time>2026-08-07T08:43:53.000Z</time>
      </trkpt>
      <trkpt lat="46.023" lon="2.24274">
        <ele>537.9</ele>
        <time>2026-08-07T08:43:54.000Z</time>
      </trkpt>
      <trkpt lat="46.02285" lon="2.24253">
        <ele>537.2</ele>
        <time>2026-08-07T08:43:58.000Z</time>
      </trkpt>
      <trkpt lat="46.02278" lon="2.2424">
        <ele>537.2</ele>
        <time>2026-08-07T08:44:00.000Z</time>
      </trkpt>
      <trkpt lat="46.02252" lon="2.24191">
        <ele>536.3</ele>
        <time>2026-08-07T08:44:08.000Z</time>
      </trkpt>
      <trkpt lat="46.02234" lon="2.24173">
        <ele>535.9</ele>
        <time>2026-08-07T08:44:12.000Z</time>
      </trkpt>
      <trkpt lat="46.02229" lon="2.2417">
        <ele>535.9</ele>
        <time>2026-08-07T08:44:13.000Z</time>
      </trkpt>
      <trkpt lat="46.02213" lon="2.24164">
        <ele>535.5</ele>
        <time>2026-08-07T08:44:16.000Z</time>
      </trkpt>
      <trkpt lat="46.02202" lon="2.24162">
        <ele>535.4</ele>
        <time>2026-08-07T08:44:18.000Z</time>
      </trkpt>
      <trkpt lat="46.0219" lon="2.24163">
        <ele>535.5</ele>
        <time>2026-08-07T08:44:20.000Z</time>
      </trkpt>
      <trkpt lat="46.0217" lon="2.24168">
        <ele>536.1</ele>
        <time>2026-08-07T08:44:24.000Z</time>
      </trkpt>
      <trkpt lat="46.02162" lon="2.24173">
        <ele>536.2</ele>
        <time>2026-08-07T08:44:26.000Z</time>
      </trkpt>
      <trkpt lat="46.02145" lon="2.24182">
        <ele>535.8</ele>
        <time>2026-08-07T08:44:30.000Z</time>
      </trkpt>
      <trkpt lat="46.02133" lon="2.24186">
        <ele>535.7</ele>
        <time>2026-08-07T08:44:32.000Z</time>
      </trkpt>
      <trkpt lat="46.02117" lon="2.24188">
        <ele>535.4</ele>
        <time>2026-08-07T08:44:35.000Z</time>
      </trkpt>
      <trkpt lat="46.02112" lon="2.24187">
        <ele>535.3</ele>
        <time>2026-08-07T08:44:36.000Z</time>
      </trkpt>
      <trkpt lat="46.02106" lon="2.24185">
        <ele>535.1</ele>
        <time>2026-08-07T08:44:37.000Z</time>
      </trkpt>
      <trkpt lat="46.0209" lon="2.24174">
        <ele>534.9</ele>
        <time>2026-08-07T08:44:40.000Z</time>
      </trkpt>
      <trkpt lat="46.02081" lon="2.24164">
        <ele>535</ele>
        <time>2026-08-07T08:44:42.000Z</time>
      </trkpt>
      <trkpt lat="46.0207" lon="2.24147">
        <ele>534.8</ele>
        <time>2026-08-07T08:44:45.000Z</time>
      </trkpt>
      <trkpt lat="46.02051" lon="2.24118">
        <ele>534.7</ele>
        <time>2026-08-07T08:44:51.000Z</time>
      </trkpt>
      <trkpt lat="46.02043" lon="2.24111">
        <ele>534.5</ele>
        <time>2026-08-07T08:44:53.000Z</time>
      </trkpt>
      <trkpt lat="46.0203" lon="2.24104">
        <ele>534.4</ele>
        <time>2026-08-07T08:44:56.000Z</time>
      </trkpt>
      <trkpt lat="46.02004" lon="2.24103">
        <ele>534.2</ele>
        <time>2026-08-07T08:45:01.000Z</time>
      </trkpt>
      <trkpt lat="46.01999" lon="2.24104">
        <ele>534.1</ele>
        <time>2026-08-07T08:45:02.000Z</time>
      </trkpt>
      <trkpt lat="46.01994" lon="2.24106">
        <ele>534</ele>
        <time>2026-08-07T08:45:03.000Z</time>
      </trkpt>
      <trkpt lat="46.01975" lon="2.24117">
        <ele>533.8</ele>
        <time>2026-08-07T08:45:07.000Z</time>
      </trkpt>
      <trkpt lat="46.01927" lon="2.24142">
        <ele>534.8</ele>
        <time>2026-08-07T08:45:17.000Z</time>
      </trkpt>
      <trkpt lat="46.01888" lon="2.24149">
        <ele>533.2</ele>
        <time>2026-08-07T08:45:25.000Z</time>
      </trkpt>
      <trkpt lat="46.01849" lon="2.24152">
        <ele>533.3</ele>
        <time>2026-08-07T08:45:33.000Z</time>
      </trkpt>
      <trkpt lat="46.01818" lon="2.24156">
        <ele>533.8</ele>
        <time>2026-08-07T08:45:41.000Z</time>
      </trkpt>
      <trkpt lat="46.01806" lon="2.24157">
        <ele>534</ele>
        <time>2026-08-07T08:45:44.000Z</time>
      </trkpt>
      <trkpt lat="46.01798" lon="2.24158">
        <ele>534</ele>
        <time>2026-08-07T08:45:46.000Z</time>
      </trkpt>
      <trkpt lat="46.01794" lon="2.24159">
        <ele>534</ele>
        <time>2026-08-07T08:45:47.000Z</time>
      </trkpt>
      <trkpt lat="46.01757" lon="2.24159">
        <ele>534</ele>
        <time>2026-08-07T08:45:55.000Z</time>
      </trkpt>
      <trkpt lat="46.01716" lon="2.24161">
        <ele>534.2</ele>
        <time>2026-08-07T08:46:04.000Z</time>
      </trkpt>
      <trkpt lat="46.01711" lon="2.24162">
        <ele>534.3</ele>
        <time>2026-08-07T08:46:05.000Z</time>
      </trkpt>
      <trkpt lat="46.01677" lon="2.24173">
        <ele>534.4</ele>
        <time>2026-08-07T08:46:13.000Z</time>
      </trkpt>
      <trkpt lat="46.01653" lon="2.24193">
        <ele>534.8</ele>
        <time>2026-08-07T08:46:20.000Z</time>
      </trkpt>
      <trkpt lat="46.01631" lon="2.24219">
        <ele>534.9</ele>
        <time>2026-08-07T08:46:27.000Z</time>
      </trkpt>
      <trkpt lat="46.01606" lon="2.24251">
        <ele>535.8</ele>
        <time>2026-08-07T08:46:35.000Z</time>
      </trkpt>
      <trkpt lat="46.01597" lon="2.24263">
        <ele>536.8</ele>
        <time>2026-08-07T08:46:38.000Z</time>
      </trkpt>
      <trkpt lat="46.01591" lon="2.24267">
        <ele>536.7</ele>
        <time>2026-08-07T08:46:40.000Z</time>
      </trkpt>
      <trkpt lat="46.01579" lon="2.24283">
        <ele>537.4</ele>
        <time>2026-08-07T08:46:45.000Z</time>
      </trkpt>
      <trkpt lat="46.01579" lon="2.24287">
        <ele>537.8</ele>
        <time>2026-08-07T08:46:46.000Z</time>
      </trkpt>
      <trkpt lat="46.01578" lon="2.24297">
        <ele>539</ele>
        <time>2026-08-07T08:46:49.000Z</time>
      </trkpt>
      <trkpt lat="46.01577" lon="2.243">
        <ele>539.3</ele>
        <time>2026-08-07T08:46:50.000Z</time>
      </trkpt>
      <trkpt lat="46.01572" lon="2.24305">
        <ele>539.3</ele>
        <time>2026-08-07T08:46:52.000Z</time>
      </trkpt>
      <trkpt lat="46.01557" lon="2.24314">
        <ele>538.2</ele>
        <time>2026-08-07T08:46:56.000Z</time>
      </trkpt>
      <trkpt lat="46.01543" lon="2.24316">
        <ele>537.2</ele>
        <time>2026-08-07T08:46:58.000Z</time>
      </trkpt>
      <trkpt lat="46.01517" lon="2.24321">
        <ele>536.5</ele>
        <time>2026-08-07T08:47:04.000Z</time>
      </trkpt>
      <trkpt lat="46.01494" lon="2.24319">
        <ele>536</ele>
        <time>2026-08-07T08:47:09.000Z</time>
      </trkpt>
      <trkpt lat="46.01471" lon="2.24325">
        <ele>536.4</ele>
        <time>2026-08-07T08:47:16.000Z</time>
      </trkpt>
      <trkpt lat="46.01451" lon="2.24326">
        <ele>536.5</ele>
        <time>2026-08-07T08:47:21.000Z</time>
      </trkpt>
      <trkpt lat="46.01438" lon="2.24328">
        <ele>536.6</ele>
        <time>2026-08-07T08:47:24.000Z</time>
      </trkpt>
      <trkpt lat="46.0141" lon="2.24327">
        <ele>536.6</ele>
        <time>2026-08-07T08:47:31.000Z</time>
      </trkpt>
      <trkpt lat="46.01398" lon="2.24322">
        <ele>536.5</ele>
        <time>2026-08-07T08:47:34.000Z</time>
      </trkpt>
      <trkpt lat="46.01382" lon="2.24312">
        <ele>536.7</ele>
        <time>2026-08-07T08:47:38.000Z</time>
      </trkpt>
      <trkpt lat="46.01363" lon="2.24288">
        <ele>537.3</ele>
        <time>2026-08-07T08:47:44.000Z</time>
      </trkpt>
      <trkpt lat="46.0135" lon="2.2426">
        <ele>537.1</ele>
        <time>2026-08-07T08:47:50.000Z</time>
      </trkpt>
      <trkpt lat="46.01329" lon="2.24221">
        <ele>538.3</ele>
        <time>2026-08-07T08:47:59.000Z</time>
      </trkpt>
      <trkpt lat="46.01307" lon="2.24201">
        <ele>538.5</ele>
        <time>2026-08-07T08:48:06.000Z</time>
      </trkpt>
      <trkpt lat="46.01272" lon="2.24185">
        <ele>538.4</ele>
        <time>2026-08-07T08:48:15.000Z</time>
      </trkpt>
      <trkpt lat="46.01241" lon="2.2418">
        <ele>539.6</ele>
        <time>2026-08-07T08:48:23.000Z</time>
      </trkpt>
      <trkpt lat="46.01218" lon="2.24178">
        <ele>539.8</ele>
        <time>2026-08-07T08:48:29.000Z</time>
      </trkpt>
      <trkpt lat="46.012" lon="2.24181">
        <ele>540</ele>
        <time>2026-08-07T08:48:34.000Z</time>
      </trkpt>
      <trkpt lat="46.01185" lon="2.24184">
        <ele>539.9</ele>
        <time>2026-08-07T08:48:38.000Z</time>
      </trkpt>
      <trkpt lat="46.01157" lon="2.24191">
        <ele>539.3</ele>
        <time>2026-08-07T08:48:45.000Z</time>
      </trkpt>
      <trkpt lat="46.01133" lon="2.24197">
        <ele>539</ele>
        <time>2026-08-07T08:48:52.000Z</time>
      </trkpt>
      <trkpt lat="46.01104" lon="2.24205">
        <ele>539.2</ele>
        <time>2026-08-07T08:49:00.000Z</time>
      </trkpt>
      <trkpt lat="46.01071" lon="2.24214">
        <ele>539.8</ele>
        <time>2026-08-07T08:49:09.000Z</time>
      </trkpt>
      <trkpt lat="46.01067" lon="2.24215">
        <ele>539.8</ele>
        <time>2026-08-07T08:49:10.000Z</time>
      </trkpt>
      <trkpt lat="46.01052" lon="2.24219">
        <ele>539.8</ele>
        <time>2026-08-07T08:49:14.000Z</time>
      </trkpt>
      <trkpt lat="46.01041" lon="2.24221">
        <ele>539.9</ele>
        <time>2026-08-07T08:49:17.000Z</time>
      </trkpt>
      <trkpt lat="46.00999" lon="2.24234">
        <ele>539.8</ele>
        <time>2026-08-07T08:49:28.000Z</time>
      </trkpt>
      <trkpt lat="46.00961" lon="2.24245">
        <ele>540.2</ele>
        <time>2026-08-07T08:49:38.000Z</time>
      </trkpt>
      <trkpt lat="46.00953" lon="2.24247">
        <ele>540.1</ele>
        <time>2026-08-07T08:49:40.000Z</time>
      </trkpt>
      <trkpt lat="46.00915" lon="2.24256">
        <ele>540.3</ele>
        <time>2026-08-07T08:49:50.000Z</time>
      </trkpt>
      <trkpt lat="46.00891" lon="2.24254">
        <ele>540.9</ele>
        <time>2026-08-07T08:49:57.000Z</time>
      </trkpt>
      <trkpt lat="46.00886" lon="2.24252">
        <ele>541.2</ele>
        <time>2026-08-07T08:49:59.000Z</time>
      </trkpt>
      <trkpt lat="46.00879" lon="2.24249">
        <ele>541.6</ele>
        <time>2026-08-07T08:50:02.000Z</time>
      </trkpt>
      <trkpt lat="46.00869" lon="2.24241">
        <ele>542</ele>
        <time>2026-08-07T08:50:07.000Z</time>
      </trkpt>
      <trkpt lat="46.0086" lon="2.2423">
        <ele>542.4</ele>
        <time>2026-08-07T08:50:11.000Z</time>
      </trkpt>
      <trkpt lat="46.00855" lon="2.24224">
        <ele>542.7</ele>
        <time>2026-08-07T08:50:13.000Z</time>
      </trkpt>
      <trkpt lat="46.00839" lon="2.24192">
        <ele>543.4</ele>
        <time>2026-08-07T08:50:22.000Z</time>
      </trkpt>
      <trkpt lat="46.00828" lon="2.2416">
        <ele>544.3</ele>
        <time>2026-08-07T08:50:30.000Z</time>
      </trkpt>
      <trkpt lat="46.00824" lon="2.24149">
        <ele>544.3</ele>
        <time>2026-08-07T08:50:33.000Z</time>
      </trkpt>
      <trkpt lat="46.00812" lon="2.24114">
        <ele>544</ele>
        <time>2026-08-07T08:50:42.000Z</time>
      </trkpt>
      <trkpt lat="46.00809" lon="2.24107">
        <ele>544.1</ele>
        <time>2026-08-07T08:50:44.000Z</time>
      </trkpt>
      <trkpt lat="46.00794" lon="2.24083">
        <ele>544.6</ele>
        <time>2026-08-07T08:50:51.000Z</time>
      </trkpt>
      <trkpt lat="46.00779" lon="2.24068">
        <ele>546.3</ele>
        <time>2026-08-07T08:50:57.000Z</time>
      </trkpt>
      <trkpt lat="46.00776" lon="2.24066">
        <ele>546.5</ele>
        <time>2026-08-07T08:50:58.000Z</time>
      </trkpt>
      <trkpt lat="46.00755" lon="2.24055">
        <ele>546.8</ele>
        <time>2026-08-07T08:51:05.000Z</time>
      </trkpt>
      <trkpt lat="46.00716" lon="2.24039">
        <ele>548.6</ele>
        <time>2026-08-07T08:51:18.000Z</time>
      </trkpt>
      <trkpt lat="46.00711" lon="2.24037">
        <ele>548.7</ele>
        <time>2026-08-07T08:51:20.000Z</time>
      </trkpt>
      <trkpt lat="46.00694" lon="2.24027">
        <ele>549</ele>
        <time>2026-08-07T08:51:26.000Z</time>
      </trkpt>
      <trkpt lat="46.00689" lon="2.24023">
        <ele>549.2</ele>
        <time>2026-08-07T08:51:28.000Z</time>
      </trkpt>
      <trkpt lat="46.00674" lon="2.2401">
        <ele>549.8</ele>
        <time>2026-08-07T08:51:34.000Z</time>
      </trkpt>
      <trkpt lat="46.00655" lon="2.23989">
        <ele>550.5</ele>
        <time>2026-08-07T08:51:42.000Z</time>
      </trkpt>
      <trkpt lat="46.00645" lon="2.23979">
        <ele>550.8</ele>
        <time>2026-08-07T08:51:46.000Z</time>
      </trkpt>
      <trkpt lat="46.00635" lon="2.23968">
        <ele>551.1</ele>
        <time>2026-08-07T08:51:50.000Z</time>
      </trkpt>
      <trkpt lat="46.00616" lon="2.23946">
        <ele>551.7</ele>
        <time>2026-08-07T08:51:58.000Z</time>
      </trkpt>
      <trkpt lat="46.0061" lon="2.23938">
        <ele>551.9</ele>
        <time>2026-08-07T08:52:01.000Z</time>
      </trkpt>
      <trkpt lat="46.00607" lon="2.23935">
        <ele>551.9</ele>
        <time>2026-08-07T08:52:02.000Z</time>
      </trkpt>
      <trkpt lat="46.00586" lon="2.23916">
        <ele>552.8</ele>
        <time>2026-08-07T08:52:11.000Z</time>
      </trkpt>
      <trkpt lat="46.00569" lon="2.23905">
        <ele>553</ele>
        <time>2026-08-07T08:52:17.000Z</time>
      </trkpt>
      <trkpt lat="46.00555" lon="2.23899">
        <ele>553.1</ele>
        <time>2026-08-07T08:52:22.000Z</time>
      </trkpt>
      <trkpt lat="46.0053" lon="2.23894">
        <ele>554.2</ele>
        <time>2026-08-07T08:52:30.000Z</time>
      </trkpt>
      <trkpt lat="46.00524" lon="2.23893">
        <ele>554.4</ele>
        <time>2026-08-07T08:52:32.000Z</time>
      </trkpt>
      <trkpt lat="46.00512" lon="2.23892">
        <ele>554.9</ele>
        <time>2026-08-07T08:52:36.000Z</time>
      </trkpt>
      <trkpt lat="46.00509" lon="2.23892">
        <ele>555</ele>
        <time>2026-08-07T08:52:37.000Z</time>
      </trkpt>
      <trkpt lat="46.00496" lon="2.23892">
        <ele>555.4</ele>
        <time>2026-08-07T08:52:41.000Z</time>
      </trkpt>
      <trkpt lat="46.00478" lon="2.23892">
        <ele>555.4</ele>
        <time>2026-08-07T08:52:47.000Z</time>
      </trkpt>
      <trkpt lat="46.00466" lon="2.23891">
        <ele>555.6</ele>
        <time>2026-08-07T08:52:51.000Z</time>
      </trkpt>
      <trkpt lat="46.00437" lon="2.23891">
        <ele>556.5</ele>
        <time>2026-08-07T08:53:01.000Z</time>
      </trkpt>
      <trkpt lat="46.00428" lon="2.23891">
        <ele>556.8</ele>
        <time>2026-08-07T08:53:04.000Z</time>
      </trkpt>
      <trkpt lat="46.00403" lon="2.2389">
        <ele>557.5</ele>
        <time>2026-08-07T08:53:12.000Z</time>
      </trkpt>
      <trkpt lat="46.00391" lon="2.23889">
        <ele>557.9</ele>
        <time>2026-08-07T08:53:16.000Z</time>
      </trkpt>
      <trkpt lat="46.00388" lon="2.23889">
        <ele>558</ele>
        <time>2026-08-07T08:53:17.000Z</time>
      </trkpt>
      <trkpt lat="46.00377" lon="2.23888">
        <ele>558.4</ele>
        <time>2026-08-07T08:53:21.000Z</time>
      </trkpt>
      <trkpt lat="46.00355" lon="2.23887">
        <ele>559.1</ele>
        <time>2026-08-07T08:53:29.000Z</time>
      </trkpt>
      <trkpt lat="46.00346" lon="2.23886">
        <ele>559.3</ele>
        <time>2026-08-07T08:53:32.000Z</time>
      </trkpt>
      <trkpt lat="46.00315" lon="2.23879">
        <ele>559.9</ele>
        <time>2026-08-07T08:53:43.000Z</time>
      </trkpt>
      <trkpt lat="46.00304" lon="2.23875">
        <ele>560.1</ele>
        <time>2026-08-07T08:53:47.000Z</time>
      </trkpt>
      <trkpt lat="46.00286" lon="2.23866">
        <ele>560.7</ele>
        <time>2026-08-07T08:53:54.000Z</time>
      </trkpt>
      <trkpt lat="46.00282" lon="2.23862">
        <ele>560.8</ele>
        <time>2026-08-07T08:53:56.000Z</time>
      </trkpt>
      <trkpt lat="46.00266" lon="2.23851">
        <ele>561.4</ele>
        <time>2026-08-07T08:54:02.000Z</time>
      </trkpt>
      <trkpt lat="46.0025" lon="2.23842">
        <ele>561.9</ele>
        <time>2026-08-07T08:54:08.000Z</time>
      </trkpt>
      <trkpt lat="46.00224" lon="2.2383">
        <ele>562.4</ele>
        <time>2026-08-07T08:54:17.000Z</time>
      </trkpt>
      <trkpt lat="46.00216" lon="2.23828">
        <ele>562.5</ele>
        <time>2026-08-07T08:54:20.000Z</time>
      </trkpt>
      <trkpt lat="46.00192" lon="2.23822">
        <ele>562.9</ele>
        <time>2026-08-07T08:54:29.000Z</time>
      </trkpt>
      <trkpt lat="46.00189" lon="2.23822">
        <ele>563.1</ele>
        <time>2026-08-07T08:54:30.000Z</time>
      </trkpt>
      <trkpt lat="46.00174" lon="2.23819">
        <ele>564</ele>
        <time>2026-08-07T08:54:36.000Z</time>
      </trkpt>
      <trkpt lat="46.00171" lon="2.23818">
        <ele>564.1</ele>
        <time>2026-08-07T08:54:37.000Z</time>
      </trkpt>
      <trkpt lat="46.00149" lon="2.23814">
        <ele>565.1</ele>
        <time>2026-08-07T08:54:46.000Z</time>
      </trkpt>
      <trkpt lat="46.00147" lon="2.23814">
        <ele>565.2</ele>
        <time>2026-08-07T08:54:47.000Z</time>
      </trkpt>
      <trkpt lat="46.00131" lon="2.23811">
        <ele>565.7</ele>
        <time>2026-08-07T08:54:54.000Z</time>
      </trkpt>
      <trkpt lat="46.00111" lon="2.23808">
        <ele>566.2</ele>
        <time>2026-08-07T08:55:02.000Z</time>
      </trkpt>
      <trkpt lat="46.00105" lon="2.23806">
        <ele>566.2</ele>
        <time>2026-08-07T08:55:04.000Z</time>
      </trkpt>
      <trkpt lat="46.00082" lon="2.238">
        <ele>567.4</ele>
        <time>2026-08-07T08:55:13.000Z</time>
      </trkpt>
      <trkpt lat="46.00079" lon="2.23799">
        <ele>567.5</ele>
        <time>2026-08-07T08:55:14.000Z</time>
      </trkpt>
      <trkpt lat="46.00069" lon="2.23795">
        <ele>567.8</ele>
        <time>2026-08-07T08:55:18.000Z</time>
      </trkpt>
      <trkpt lat="46.00059" lon="2.23791">
        <ele>568</ele>
        <time>2026-08-07T08:55:22.000Z</time>
      </trkpt>
      <trkpt lat="46.00037" lon="2.23782">
        <ele>568.1</ele>
        <time>2026-08-07T08:55:31.000Z</time>
      </trkpt>
      <trkpt lat="46.00022" lon="2.23772">
        <ele>568.2</ele>
        <time>2026-08-07T08:55:37.000Z</time>
      </trkpt>
      <trkpt lat="46.00004" lon="2.2376">
        <ele>568.4</ele>
        <time>2026-08-07T08:55:44.000Z</time>
      </trkpt>
      <trkpt lat="45.99983" lon="2.23745">
        <ele>568.7</ele>
        <time>2026-08-07T08:55:52.000Z</time>
      </trkpt>
      <trkpt lat="45.99974" lon="2.23739">
        <ele>568.8</ele>
        <time>2026-08-07T08:55:55.000Z</time>
      </trkpt>
      <trkpt lat="45.99962" lon="2.23731">
        <ele>569.2</ele>
        <time>2026-08-07T08:55:59.000Z</time>
      </trkpt>
      <trkpt lat="45.99931" lon="2.23709">
        <ele>570.2</ele>
        <time>2026-08-07T08:56:10.000Z</time>
      </trkpt>
      <trkpt lat="45.99909" lon="2.23686">
        <ele>571</ele>
        <time>2026-08-07T08:56:19.000Z</time>
      </trkpt>
      <trkpt lat="45.99907" lon="2.23683">
        <ele>571.2</ele>
        <time>2026-08-07T08:56:20.000Z</time>
      </trkpt>
      <trkpt lat="45.99898" lon="2.23658">
        <ele>572.3</ele>
        <time>2026-08-07T08:56:26.000Z</time>
      </trkpt>
      <trkpt lat="45.99897" lon="2.23649">
        <ele>572.5</ele>
        <time>2026-08-07T08:56:28.000Z</time>
      </trkpt>
      <trkpt lat="45.99895" lon="2.23628">
        <ele>572.9</ele>
        <time>2026-08-07T08:56:33.000Z</time>
      </trkpt>
      <trkpt lat="45.99894" lon="2.23624">
        <ele>573</ele>
        <time>2026-08-07T08:56:34.000Z</time>
      </trkpt>
      <trkpt lat="45.99893" lon="2.23618">
        <ele>573.1</ele>
        <time>2026-08-07T08:56:36.000Z</time>
      </trkpt>
      <trkpt lat="45.99891" lon="2.2361">
        <ele>573.1</ele>
        <time>2026-08-07T08:56:38.000Z</time>
      </trkpt>
      <trkpt lat="45.99884" lon="2.23595">
        <ele>572.1</ele>
        <time>2026-08-07T08:56:42.000Z</time>
      </trkpt>
      <trkpt lat="45.99879" lon="2.23587">
        <ele>572.2</ele>
        <time>2026-08-07T08:56:45.000Z</time>
      </trkpt>
      <trkpt lat="45.9986" lon="2.23577">
        <ele>574.5</ele>
        <time>2026-08-07T08:56:52.000Z</time>
      </trkpt>
      <trkpt lat="45.99854" lon="2.23577">
        <ele>574.7</ele>
        <time>2026-08-07T08:56:54.000Z</time>
      </trkpt>
      <trkpt lat="45.99839" lon="2.23578">
        <ele>575.2</ele>
        <time>2026-08-07T08:56:59.000Z</time>
      </trkpt>
      <trkpt lat="45.9982" lon="2.23586">
        <ele>575.7</ele>
        <time>2026-08-07T08:57:06.000Z</time>
      </trkpt>
      <trkpt lat="45.99818" lon="2.23588">
        <ele>575.8</ele>
        <time>2026-08-07T08:57:07.000Z</time>
      </trkpt>
      <trkpt lat="45.99798" lon="2.23597">
        <ele>576.4</ele>
        <time>2026-08-07T08:57:14.000Z</time>
      </trkpt>
      <trkpt lat="45.99789" lon="2.23602">
        <ele>576.7</ele>
        <time>2026-08-07T08:57:17.000Z</time>
      </trkpt>
      <trkpt lat="45.99778" lon="2.23611">
        <ele>577</ele>
        <time>2026-08-07T08:57:21.000Z</time>
      </trkpt>
      <trkpt lat="45.99768" lon="2.23636">
        <ele>576.8</ele>
        <time>2026-08-07T08:57:28.000Z</time>
      </trkpt>
      <trkpt lat="45.99753" lon="2.23668">
        <ele>577.8</ele>
        <time>2026-08-07T08:57:36.000Z</time>
      </trkpt>
      <trkpt lat="45.99752" lon="2.23672">
        <ele>577.9</ele>
        <time>2026-08-07T08:57:37.000Z</time>
      </trkpt>
      <trkpt lat="45.99739" lon="2.23687">
        <ele>578.5</ele>
        <time>2026-08-07T08:57:42.000Z</time>
      </trkpt>
      <trkpt lat="45.99719" lon="2.23701">
        <ele>578.8</ele>
        <time>2026-08-07T08:57:49.000Z</time>
      </trkpt>
      <trkpt lat="45.99701" lon="2.23702">
        <ele>579.3</ele>
        <time>2026-08-07T08:57:55.000Z</time>
      </trkpt>
      <trkpt lat="45.99692" lon="2.237">
        <ele>579.7</ele>
        <time>2026-08-07T08:57:58.000Z</time>
      </trkpt>
      <trkpt lat="45.99672" lon="2.23697">
        <ele>580.5</ele>
        <time>2026-08-07T08:58:05.000Z</time>
      </trkpt>
      <trkpt lat="45.99656" lon="2.23697">
        <ele>582</ele>
        <time>2026-08-07T08:58:11.000Z</time>
      </trkpt>
      <trkpt lat="45.99653" lon="2.23698">
        <ele>582.1</ele>
        <time>2026-08-07T08:58:12.000Z</time>
      </trkpt>
      <trkpt lat="45.99644" lon="2.23702">
        <ele>582.6</ele>
        <time>2026-08-07T08:58:16.000Z</time>
      </trkpt>
      <trkpt lat="45.99628" lon="2.2372">
        <ele>582.4</ele>
        <time>2026-08-07T08:58:23.000Z</time>
      </trkpt>
      <trkpt lat="45.99617" lon="2.23744">
        <ele>581.8</ele>
        <time>2026-08-07T08:58:30.000Z</time>
      </trkpt>
      <trkpt lat="45.99613" lon="2.23764">
        <ele>582.3</ele>
        <time>2026-08-07T08:58:35.000Z</time>
      </trkpt>
      <trkpt lat="45.99604" lon="2.23796">
        <ele>583.2</ele>
        <time>2026-08-07T08:58:44.000Z</time>
      </trkpt>
      <trkpt lat="45.99602" lon="2.23799">
        <ele>583.3</ele>
        <time>2026-08-07T08:58:45.000Z</time>
      </trkpt>
      <trkpt lat="45.99589" lon="2.23819">
        <ele>583.6</ele>
        <time>2026-08-07T08:58:52.000Z</time>
      </trkpt>
      <trkpt lat="45.99582" lon="2.23825">
        <ele>583.7</ele>
        <time>2026-08-07T08:58:55.000Z</time>
      </trkpt>
      <trkpt lat="45.99574" lon="2.23829">
        <ele>583.7</ele>
        <time>2026-08-07T08:58:58.000Z</time>
      </trkpt>
      <trkpt lat="45.9956" lon="2.23833">
        <ele>583.9</ele>
        <time>2026-08-07T08:59:04.000Z</time>
      </trkpt>
      <trkpt lat="45.99554" lon="2.23833">
        <ele>584</ele>
        <time>2026-08-07T08:59:06.000Z</time>
      </trkpt>
      <trkpt lat="45.99536" lon="2.23829">
        <ele>584.5</ele>
        <time>2026-08-07T08:59:13.000Z</time>
      </trkpt>
      <trkpt lat="45.99521" lon="2.23823">
        <ele>585.2</ele>
        <time>2026-08-07T08:59:19.000Z</time>
      </trkpt>
      <trkpt lat="45.99511" lon="2.23815">
        <ele>585.7</ele>
        <time>2026-08-07T08:59:23.000Z</time>
      </trkpt>
      <trkpt lat="45.99501" lon="2.23804">
        <ele>586.2</ele>
        <time>2026-08-07T08:59:28.000Z</time>
      </trkpt>
      <trkpt lat="45.99495" lon="2.23797">
        <ele>586.4</ele>
        <time>2026-08-07T08:59:31.000Z</time>
      </trkpt>
      <trkpt lat="45.99485" lon="2.23778">
        <ele>587.3</ele>
        <time>2026-08-07T08:59:38.000Z</time>
      </trkpt>
      <trkpt lat="45.99479" lon="2.2377">
        <ele>587.2</ele>
        <time>2026-08-07T08:59:41.000Z</time>
      </trkpt>
      <trkpt lat="45.99473" lon="2.23762">
        <ele>587.2</ele>
        <time>2026-08-07T08:59:45.000Z</time>
      </trkpt>
      <trkpt lat="45.99462" lon="2.23744">
        <ele>587.1</ele>
        <time>2026-08-07T08:59:52.000Z</time>
      </trkpt>
      <trkpt lat="45.99455" lon="2.23734">
        <ele>586.7</ele>
        <time>2026-08-07T08:59:56.000Z</time>
      </trkpt>
      <trkpt lat="45.99448" lon="2.23727">
        <ele>586.2</ele>
        <time>2026-08-07T09:00:00.000Z</time>
      </trkpt>
      <trkpt lat="45.99437" lon="2.23707">
        <ele>585.4</ele>
        <time>2026-08-07T09:00:07.000Z</time>
      </trkpt>
      <trkpt lat="45.99435" lon="2.23704">
        <ele>585.4</ele>
        <time>2026-08-07T09:00:08.000Z</time>
      </trkpt>
      <trkpt lat="45.99424" lon="2.23683">
        <ele>585.9</ele>
        <time>2026-08-07T09:00:15.000Z</time>
      </trkpt>
      <trkpt lat="45.9942" lon="2.23675">
        <ele>586.4</ele>
        <time>2026-08-07T09:00:18.000Z</time>
      </trkpt>
      <trkpt lat="45.99415" lon="2.23667">
        <ele>586.7</ele>
        <time>2026-08-07T09:00:21.000Z</time>
      </trkpt>
      <trkpt lat="45.99407" lon="2.23654">
        <ele>587.2</ele>
        <time>2026-08-07T09:00:26.000Z</time>
      </trkpt>
      <trkpt lat="45.99403" lon="2.23648">
        <ele>587.5</ele>
        <time>2026-08-07T09:00:29.000Z</time>
      </trkpt>
      <trkpt lat="45.99391" lon="2.23632">
        <ele>589</ele>
        <time>2026-08-07T09:00:35.000Z</time>
      </trkpt>
      <trkpt lat="45.99376" lon="2.23616">
        <ele>590.8</ele>
        <time>2026-08-07T09:00:43.000Z</time>
      </trkpt>
      <trkpt lat="45.99359" lon="2.23605">
        <ele>591.4</ele>
        <time>2026-08-07T09:00:50.000Z</time>
      </trkpt>
      <trkpt lat="45.99344" lon="2.23586">
        <ele>592.4</ele>
        <time>2026-08-07T09:00:58.000Z</time>
      </trkpt>
      <trkpt lat="45.99333" lon="2.23567">
        <ele>592.5</ele>
        <time>2026-08-07T09:01:05.000Z</time>
      </trkpt>
      <trkpt lat="45.99322" lon="2.23545">
        <ele>592.2</ele>
        <time>2026-08-07T09:01:12.000Z</time>
      </trkpt>
      <trkpt lat="45.99317" lon="2.23528">
        <ele>593.8</ele>
        <time>2026-08-07T09:01:18.000Z</time>
      </trkpt>
      <trkpt lat="45.99309" lon="2.23515">
        <ele>593.8</ele>
        <time>2026-08-07T09:01:22.000Z</time>
      </trkpt>
      <trkpt lat="45.99305" lon="2.23502">
        <ele>593.8</ele>
        <time>2026-08-07T09:01:25.000Z</time>
      </trkpt>
      <trkpt lat="45.99296" lon="2.23478">
        <ele>594.1</ele>
        <time>2026-08-07T09:01:31.000Z</time>
      </trkpt>
      <trkpt lat="45.99292" lon="2.23467">
        <ele>594.3</ele>
        <time>2026-08-07T09:01:34.000Z</time>
      </trkpt>
      <trkpt lat="45.99288" lon="2.2345">
        <ele>594.8</ele>
        <time>2026-08-07T09:01:39.000Z</time>
      </trkpt>
      <trkpt lat="45.99288" lon="2.2345">
        <ele>594.8</ele>
        <time>2026-08-07T09:01:42.000Z</time>
      </trkpt>
      <trkpt lat="45.99286" lon="2.23439">
        <ele>595.1</ele>
        <time>2026-08-07T09:06:07.000Z</time>
      </trkpt>
      <trkpt lat="45.99281" lon="2.23419">
        <ele>595.3</ele>
        <time>2026-08-07T09:06:14.000Z</time>
      </trkpt>
      <trkpt lat="45.99277" lon="2.23393">
        <ele>595.8</ele>
        <time>2026-08-07T09:06:22.000Z</time>
      </trkpt>
      <trkpt lat="45.99273" lon="2.23362">
        <ele>596.3</ele>
        <time>2026-08-07T09:06:31.000Z</time>
      </trkpt>
      <trkpt lat="45.9927" lon="2.23338">
        <ele>596.1</ele>
        <time>2026-08-07T09:06:38.000Z</time>
      </trkpt>
      <trkpt lat="45.99268" lon="2.23325">
        <ele>596.3</ele>
        <time>2026-08-07T09:06:42.000Z</time>
      </trkpt>
      <trkpt lat="45.99264" lon="2.23295">
        <ele>597.3</ele>
        <time>2026-08-07T09:06:51.000Z</time>
      </trkpt>
      <trkpt lat="45.99263" lon="2.23289">
        <ele>597.6</ele>
        <time>2026-08-07T09:06:53.000Z</time>
      </trkpt>
      <trkpt lat="45.99261" lon="2.23279">
        <ele>598.1</ele>
        <time>2026-08-07T09:06:56.000Z</time>
      </trkpt>
      <trkpt lat="45.99261" lon="2.23272">
        <ele>598.3</ele>
        <time>2026-08-07T09:06:58.000Z</time>
      </trkpt>
      <trkpt lat="45.99257" lon="2.23244">
        <ele>598.8</ele>
        <time>2026-08-07T09:07:06.000Z</time>
      </trkpt>
      <trkpt lat="45.99252" lon="2.23216">
        <ele>598.5</ele>
        <time>2026-08-07T09:07:14.000Z</time>
      </trkpt>
      <trkpt lat="45.99249" lon="2.23196">
        <ele>598.8</ele>
        <time>2026-08-07T09:07:20.000Z</time>
      </trkpt>
      <trkpt lat="45.99248" lon="2.23192">
        <ele>598.8</ele>
        <time>2026-08-07T09:07:21.000Z</time>
      </trkpt>
      <trkpt lat="45.99244" lon="2.23172">
        <ele>598.8</ele>
        <time>2026-08-07T09:07:27.000Z</time>
      </trkpt>
      <trkpt lat="45.99238" lon="2.23152">
        <ele>597.9</ele>
        <time>2026-08-07T09:07:34.000Z</time>
      </trkpt>
      <trkpt lat="45.99235" lon="2.23143">
        <ele>597.9</ele>
        <time>2026-08-07T09:07:37.000Z</time>
      </trkpt>
      <trkpt lat="45.99233" lon="2.23133">
        <ele>598.2</ele>
        <time>2026-08-07T09:07:41.000Z</time>
      </trkpt>
      <trkpt lat="45.99223" lon="2.23113">
        <ele>599.8</ele>
        <time>2026-08-07T09:07:49.000Z</time>
      </trkpt>
      <trkpt lat="45.99206" lon="2.23085">
        <ele>600.5</ele>
        <time>2026-08-07T09:08:00.000Z</time>
      </trkpt>
      <trkpt lat="45.99192" lon="2.2307">
        <ele>601.4</ele>
        <time>2026-08-07T09:08:07.000Z</time>
      </trkpt>
      <trkpt lat="45.99171" lon="2.23053">
        <ele>601.3</ele>
        <time>2026-08-07T09:08:16.000Z</time>
      </trkpt>
      <trkpt lat="45.99156" lon="2.23039">
        <ele>602.1</ele>
        <time>2026-08-07T09:08:23.000Z</time>
      </trkpt>
      <trkpt lat="45.99147" lon="2.23029">
        <ele>602.3</ele>
        <time>2026-08-07T09:08:28.000Z</time>
      </trkpt>
      <trkpt lat="45.99139" lon="2.23017">
        <ele>602</ele>
        <time>2026-08-07T09:08:32.000Z</time>
      </trkpt>
      <trkpt lat="45.99126" lon="2.22991">
        <ele>602</ele>
        <time>2026-08-07T09:08:39.000Z</time>
      </trkpt>
      <trkpt lat="45.99108" lon="2.22945">
        <ele>601.7</ele>
        <time>2026-08-07T09:08:49.000Z</time>
      </trkpt>
      <trkpt lat="45.9909" lon="2.22903">
        <ele>601.7</ele>
        <time>2026-08-07T09:08:58.000Z</time>
      </trkpt>
      <trkpt lat="45.99073" lon="2.2287">
        <ele>600.6</ele>
        <time>2026-08-07T09:09:05.000Z</time>
      </trkpt>
      <trkpt lat="45.99047" lon="2.22832">
        <ele>598.4</ele>
        <time>2026-08-07T09:09:13.000Z</time>
      </trkpt>
      <trkpt lat="45.99032" lon="2.22815">
        <ele>598.5</ele>
        <time>2026-08-07T09:09:17.000Z</time>
      </trkpt>
      <trkpt lat="45.99016" lon="2.22797">
        <ele>598.2</ele>
        <time>2026-08-07T09:09:21.000Z</time>
      </trkpt>
      <trkpt lat="45.99001" lon="2.22779">
        <ele>597.9</ele>
        <time>2026-08-07T09:09:25.000Z</time>
      </trkpt>
      <trkpt lat="45.98968" lon="2.22742">
        <ele>597.3</ele>
        <time>2026-08-07T09:09:33.000Z</time>
      </trkpt>
      <trkpt lat="45.98956" lon="2.22727">
        <ele>596.6</ele>
        <time>2026-08-07T09:09:36.000Z</time>
      </trkpt>
      <trkpt lat="45.98921" lon="2.2269">
        <ele>595.4</ele>
        <time>2026-08-07T09:09:44.000Z</time>
      </trkpt>
      <trkpt lat="45.98912" lon="2.22682">
        <ele>595.4</ele>
        <time>2026-08-07T09:09:46.000Z</time>
      </trkpt>
      <trkpt lat="45.98889" lon="2.22666">
        <ele>595.2</ele>
        <time>2026-08-07T09:09:51.000Z</time>
      </trkpt>
      <trkpt lat="45.98862" lon="2.22648">
        <ele>595.2</ele>
        <time>2026-08-07T09:09:57.000Z</time>
      </trkpt>
      <trkpt lat="45.9885" lon="2.22634">
        <ele>594.6</ele>
        <time>2026-08-07T09:10:00.000Z</time>
      </trkpt>
      <trkpt lat="45.98846" lon="2.2263">
        <ele>594.3</ele>
        <time>2026-08-07T09:10:01.000Z</time>
      </trkpt>
      <trkpt lat="45.9884" lon="2.22618">
        <ele>594</ele>
        <time>2026-08-07T09:10:03.000Z</time>
      </trkpt>
      <trkpt lat="45.98836" lon="2.22606">
        <ele>593.8</ele>
        <time>2026-08-07T09:10:05.000Z</time>
      </trkpt>
      <trkpt lat="45.98833" lon="2.22591">
        <ele>593.6</ele>
        <time>2026-08-07T09:10:07.000Z</time>
      </trkpt>
      <trkpt lat="45.98829" lon="2.22562">
        <ele>593.3</ele>
        <time>2026-08-07T09:10:11.000Z</time>
      </trkpt>
      <trkpt lat="45.98818" lon="2.22519">
        <ele>592.4</ele>
        <time>2026-08-07T09:10:17.000Z</time>
      </trkpt>
      <trkpt lat="45.98816" lon="2.22513">
        <ele>592.1</ele>
        <time>2026-08-07T09:10:18.000Z</time>
      </trkpt>
      <trkpt lat="45.98797" lon="2.22479">
        <ele>590.6</ele>
        <time>2026-08-07T09:10:23.000Z</time>
      </trkpt>
      <trkpt lat="45.98788" lon="2.22466">
        <ele>590.6</ele>
        <time>2026-08-07T09:10:25.000Z</time>
      </trkpt>
      <trkpt lat="45.98755" lon="2.22416">
        <ele>589.4</ele>
        <time>2026-08-07T09:10:32.000Z</time>
      </trkpt>
      <trkpt lat="45.98718" lon="2.22359">
        <ele>588.5</ele>
        <time>2026-08-07T09:10:40.000Z</time>
      </trkpt>
      <trkpt lat="45.9871" lon="2.22347">
        <ele>587.9</ele>
        <time>2026-08-07T09:10:42.000Z</time>
      </trkpt>
      <trkpt lat="45.98692" lon="2.22322">
        <ele>587.1</ele>
        <time>2026-08-07T09:10:46.000Z</time>
      </trkpt>
      <trkpt lat="45.98661" lon="2.22285">
        <ele>586.1</ele>
        <time>2026-08-07T09:10:53.000Z</time>
      </trkpt>
      <trkpt lat="45.98626" lon="2.22254">
        <ele>584.8</ele>
        <time>2026-08-07T09:11:00.000Z</time>
      </trkpt>
      <trkpt lat="45.98615" lon="2.22248">
        <ele>584.4</ele>
        <time>2026-08-07T09:11:02.000Z</time>
      </trkpt>
      <trkpt lat="45.98587" lon="2.22234">
        <ele>583.3</ele>
        <time>2026-08-07T09:11:07.000Z</time>
      </trkpt>
      <trkpt lat="45.98581" lon="2.22232">
        <ele>583.2</ele>
        <time>2026-08-07T09:11:08.000Z</time>
      </trkpt>
      <trkpt lat="45.98575" lon="2.2223">
        <ele>583.1</ele>
        <time>2026-08-07T09:11:09.000Z</time>
      </trkpt>
      <trkpt lat="45.98558" lon="2.22227">
        <ele>582.8</ele>
        <time>2026-08-07T09:11:13.000Z</time>
      </trkpt>
      <trkpt lat="45.98535" lon="2.22225">
        <ele>582.1</ele>
        <time>2026-08-07T09:11:16.000Z</time>
      </trkpt>
      <trkpt lat="45.985" lon="2.22222">
        <ele>582</ele>
        <time>2026-08-07T09:11:22.000Z</time>
      </trkpt>
      <trkpt lat="45.98495" lon="2.22221">
        <ele>581.7</ele>
        <time>2026-08-07T09:11:23.000Z</time>
      </trkpt>
      <trkpt lat="45.98484" lon="2.22215">
        <ele>581.2</ele>
        <time>2026-08-07T09:11:25.000Z</time>
      </trkpt>
      <trkpt lat="45.9847" lon="2.22203">
        <ele>580.5</ele>
        <time>2026-08-07T09:11:28.000Z</time>
      </trkpt>
      <trkpt lat="45.98458" lon="2.22187">
        <ele>580.1</ele>
        <time>2026-08-07T09:11:31.000Z</time>
      </trkpt>
      <trkpt lat="45.98452" lon="2.22173">
        <ele>580.1</ele>
        <time>2026-08-07T09:11:33.000Z</time>
      </trkpt>
      <trkpt lat="45.98444" lon="2.22153">
        <ele>579.4</ele>
        <time>2026-08-07T09:11:36.000Z</time>
      </trkpt>
      <trkpt lat="45.98435" lon="2.22135">
        <ele>578.3</ele>
        <time>2026-08-07T09:11:39.000Z</time>
      </trkpt>
      <trkpt lat="45.98435" lon="2.22135">
        <ele>578.3</ele>
        <time>2026-08-07T09:11:40.000Z</time>
      </trkpt>
      <trkpt lat="45.98412" lon="2.22103">
        <ele>578</ele>
        <time>2026-08-07T09:11:45.000Z</time>
      </trkpt>
      <trkpt lat="45.98395" lon="2.22083">
        <ele>578.2</ele>
        <time>2026-08-07T09:11:49.000Z</time>
      </trkpt>
      <trkpt lat="45.9838" lon="2.22063">
        <ele>577.2</ele>
        <time>2026-08-07T09:11:54.000Z</time>
      </trkpt>
      <trkpt lat="45.98362" lon="2.22041">
        <ele>576.6</ele>
        <time>2026-08-07T09:11:57.000Z</time>
      </trkpt>
      <trkpt lat="45.98348" lon="2.22023">
        <ele>576.1</ele>
        <time>2026-08-07T09:12:00.000Z</time>
      </trkpt>
      <trkpt lat="45.98338" lon="2.2201">
        <ele>575.9</ele>
        <time>2026-08-07T09:12:02.000Z</time>
      </trkpt>
      <trkpt lat="45.9832" lon="2.21986">
        <ele>575.3</ele>
        <time>2026-08-07T09:12:06.000Z</time>
      </trkpt>
      <trkpt lat="45.98309" lon="2.21963">
        <ele>575.1</ele>
        <time>2026-08-07T09:12:09.000Z</time>
      </trkpt>
      <trkpt lat="45.98306" lon="2.21955">
        <ele>575</ele>
        <time>2026-08-07T09:12:10.000Z</time>
      </trkpt>
      <trkpt lat="45.98302" lon="2.21939">
        <ele>574.4</ele>
        <time>2026-08-07T09:12:12.000Z</time>
      </trkpt>
      <trkpt lat="45.983" lon="2.21924">
        <ele>573.7</ele>
        <time>2026-08-07T09:12:14.000Z</time>
      </trkpt>
      <trkpt lat="45.983" lon="2.21916">
        <ele>573.4</ele>
        <time>2026-08-07T09:12:15.000Z</time>
      </trkpt>
      <trkpt lat="45.98301" lon="2.21893">
        <ele>573.2</ele>
        <time>2026-08-07T09:12:18.000Z</time>
      </trkpt>
      <trkpt lat="45.98301" lon="2.21877">
        <ele>572.8</ele>
        <time>2026-08-07T09:12:20.000Z</time>
      </trkpt>
      <trkpt lat="45.98301" lon="2.21853">
        <ele>572.3</ele>
        <time>2026-08-07T09:12:23.000Z</time>
      </trkpt>
      <trkpt lat="45.983" lon="2.21845">
        <ele>572.1</ele>
        <time>2026-08-07T09:12:24.000Z</time>
      </trkpt>
      <trkpt lat="45.98292" lon="2.21804">
        <ele>571</ele>
        <time>2026-08-07T09:12:29.000Z</time>
      </trkpt>
      <trkpt lat="45.98287" lon="2.2179">
        <ele>570.9</ele>
        <time>2026-08-07T09:12:31.000Z</time>
      </trkpt>
      <trkpt lat="45.98285" lon="2.21783">
        <ele>571</ele>
        <time>2026-08-07T09:12:32.000Z</time>
      </trkpt>
      <trkpt lat="45.9827" lon="2.21757">
        <ele>570.3</ele>
        <time>2026-08-07T09:12:36.000Z</time>
      </trkpt>
      <trkpt lat="45.98265" lon="2.21751">
        <ele>570.1</ele>
        <time>2026-08-07T09:12:37.000Z</time>
      </trkpt>
      <trkpt lat="45.98237" lon="2.21718">
        <ele>569.7</ele>
        <time>2026-08-07T09:12:43.000Z</time>
      </trkpt>
      <trkpt lat="45.98232" lon="2.21714">
        <ele>569.7</ele>
        <time>2026-08-07T09:12:44.000Z</time>
      </trkpt>
      <trkpt lat="45.98211" lon="2.21697">
        <ele>569.1</ele>
        <time>2026-08-07T09:12:48.000Z</time>
      </trkpt>
      <trkpt lat="45.9819" lon="2.21681">
        <ele>568.5</ele>
        <time>2026-08-07T09:12:52.000Z</time>
      </trkpt>
      <trkpt lat="45.98186" lon="2.21677">
        <ele>568.3</ele>
        <time>2026-08-07T09:12:53.000Z</time>
      </trkpt>
      <trkpt lat="45.98163" lon="2.21651">
        <ele>567.1</ele>
        <time>2026-08-07T09:12:58.000Z</time>
      </trkpt>
      <trkpt lat="45.9816" lon="2.21644">
        <ele>566.9</ele>
        <time>2026-08-07T09:12:59.000Z</time>
      </trkpt>
      <trkpt lat="45.98156" lon="2.21638">
        <ele>566.5</ele>
        <time>2026-08-07T09:13:00.000Z</time>
      </trkpt>
      <trkpt lat="45.98145" lon="2.21611">
        <ele>565.9</ele>
        <time>2026-08-07T09:13:04.000Z</time>
      </trkpt>
      <trkpt lat="45.98143" lon="2.21604">
        <ele>565.8</ele>
        <time>2026-08-07T09:13:05.000Z</time>
      </trkpt>
      <trkpt lat="45.9814" lon="2.21579">
        <ele>565.9</ele>
        <time>2026-08-07T09:13:08.000Z</time>
      </trkpt>
      <trkpt lat="45.9814" lon="2.2157">
        <ele>565.6</ele>
        <time>2026-08-07T09:13:09.000Z</time>
      </trkpt>
      <trkpt lat="45.98142" lon="2.21552">
        <ele>564.7</ele>
        <time>2026-08-07T09:13:11.000Z</time>
      </trkpt>
      <trkpt lat="45.98145" lon="2.21544">
        <ele>563.8</ele>
        <time>2026-08-07T09:13:12.000Z</time>
      </trkpt>
      <trkpt lat="45.98149" lon="2.21536">
        <ele>563.2</ele>
        <time>2026-08-07T09:13:13.000Z</time>
      </trkpt>
      <trkpt lat="45.98153" lon="2.2153">
        <ele>562.8</ele>
        <time>2026-08-07T09:13:14.000Z</time>
      </trkpt>
      <trkpt lat="45.98158" lon="2.21524">
        <ele>562.5</ele>
        <time>2026-08-07T09:13:15.000Z</time>
      </trkpt>
      <trkpt lat="45.98164" lon="2.21519">
        <ele>562.4</ele>
        <time>2026-08-07T09:13:16.000Z</time>
      </trkpt>
      <trkpt lat="45.982" lon="2.21494">
        <ele>562.8</ele>
        <time>2026-08-07T09:13:22.000Z</time>
      </trkpt>
      <trkpt lat="45.98206" lon="2.2149">
        <ele>562.8</ele>
        <time>2026-08-07T09:13:23.000Z</time>
      </trkpt>
      <trkpt lat="45.98234" lon="2.21463">
        <ele>562</ele>
        <time>2026-08-07T09:13:28.000Z</time>
      </trkpt>
      <trkpt lat="45.98261" lon="2.2143">
        <ele>560.2</ele>
        <time>2026-08-07T09:13:33.000Z</time>
      </trkpt>
      <trkpt lat="45.98267" lon="2.21424">
        <ele>560</ele>
        <time>2026-08-07T09:13:34.000Z</time>
      </trkpt>
      <trkpt lat="45.98273" lon="2.2142">
        <ele>560.1</ele>
        <time>2026-08-07T09:13:35.000Z</time>
      </trkpt>
      <trkpt lat="45.9828" lon="2.21417">
        <ele>560.1</ele>
        <time>2026-08-07T09:13:36.000Z</time>
      </trkpt>
      <trkpt lat="45.98294" lon="2.21413">
        <ele>559.5</ele>
        <time>2026-08-07T09:13:38.000Z</time>
      </trkpt>
      <trkpt lat="45.98308" lon="2.21412">
        <ele>559.3</ele>
        <time>2026-08-07T09:13:40.000Z</time>
      </trkpt>
      <trkpt lat="45.98335" lon="2.21408">
        <ele>558.9</ele>
        <time>2026-08-07T09:13:44.000Z</time>
      </trkpt>
      <trkpt lat="45.98341" lon="2.21405">
        <ele>558.8</ele>
        <time>2026-08-07T09:13:45.000Z</time>
      </trkpt>
      <trkpt lat="45.98353" lon="2.21397">
        <ele>558.3</ele>
        <time>2026-08-07T09:13:47.000Z</time>
      </trkpt>
      <trkpt lat="45.98364" lon="2.21384">
        <ele>557.7</ele>
        <time>2026-08-07T09:13:49.000Z</time>
      </trkpt>
      <trkpt lat="45.98371" lon="2.21369">
        <ele>557.1</ele>
        <time>2026-08-07T09:13:51.000Z</time>
      </trkpt>
      <trkpt lat="45.98374" lon="2.21362">
        <ele>556.9</ele>
        <time>2026-08-07T09:13:52.000Z</time>
      </trkpt>
      <trkpt lat="45.98376" lon="2.21355">
        <ele>556.9</ele>
        <time>2026-08-07T09:13:53.000Z</time>
      </trkpt>
      <trkpt lat="45.98378" lon="2.21341">
        <ele>556.7</ele>
        <time>2026-08-07T09:13:55.000Z</time>
      </trkpt>
      <trkpt lat="45.98379" lon="2.21334">
        <ele>556.5</ele>
        <time>2026-08-07T09:13:56.000Z</time>
      </trkpt>
      <trkpt lat="45.98379" lon="2.21326">
        <ele>556.5</ele>
        <time>2026-08-07T09:13:57.000Z</time>
      </trkpt>
      <trkpt lat="45.98374" lon="2.21295">
        <ele>555.9</ele>
        <time>2026-08-07T09:14:01.000Z</time>
      </trkpt>
      <trkpt lat="45.98372" lon="2.21287">
        <ele>555.7</ele>
        <time>2026-08-07T09:14:02.000Z</time>
      </trkpt>
      <trkpt lat="45.98369" lon="2.2128">
        <ele>555.5</ele>
        <time>2026-08-07T09:14:03.000Z</time>
      </trkpt>
      <trkpt lat="45.98361" lon="2.21266">
        <ele>555</ele>
        <time>2026-08-07T09:14:05.000Z</time>
      </trkpt>
      <trkpt lat="45.98356" lon="2.2126">
        <ele>554.9</ele>
        <time>2026-08-07T09:14:06.000Z</time>
      </trkpt>
      <trkpt lat="45.98345" lon="2.2125">
        <ele>555</ele>
        <time>2026-08-07T09:14:08.000Z</time>
      </trkpt>
      <trkpt lat="45.9834" lon="2.21246">
        <ele>555.3</ele>
        <time>2026-08-07T09:14:09.000Z</time>
      </trkpt>
      <trkpt lat="45.98329" lon="2.2124">
        <ele>555.6</ele>
        <time>2026-08-07T09:14:11.000Z</time>
      </trkpt>
      <trkpt lat="45.98311" lon="2.21236">
        <ele>555.2</ele>
        <time>2026-08-07T09:14:14.000Z</time>
      </trkpt>
      <trkpt lat="45.98299" lon="2.21235">
        <ele>554.7</ele>
        <time>2026-08-07T09:14:16.000Z</time>
      </trkpt>
      <trkpt lat="45.98264" lon="2.21234">
        <ele>553.5</ele>
        <time>2026-08-07T09:14:22.000Z</time>
      </trkpt>
      <trkpt lat="45.98251" lon="2.21233">
        <ele>553.5</ele>
        <time>2026-08-07T09:14:24.000Z</time>
      </trkpt>
      <trkpt lat="45.98234" lon="2.2123">
        <ele>553.1</ele>
        <time>2026-08-07T09:14:27.000Z</time>
      </trkpt>
      <trkpt lat="45.98211" lon="2.21221">
        <ele>552.3</ele>
        <time>2026-08-07T09:14:31.000Z</time>
      </trkpt>
      <trkpt lat="45.98193" lon="2.21212">
        <ele>551.6</ele>
        <time>2026-08-07T09:14:34.000Z</time>
      </trkpt>
      <trkpt lat="45.98165" lon="2.21192">
        <ele>551.1</ele>
        <time>2026-08-07T09:14:39.000Z</time>
      </trkpt>
      <trkpt lat="45.98154" lon="2.21182">
        <ele>551</ele>
        <time>2026-08-07T09:14:41.000Z</time>
      </trkpt>
      <trkpt lat="45.98126" lon="2.21157">
        <ele>550.1</ele>
        <time>2026-08-07T09:14:47.000Z</time>
      </trkpt>
      <trkpt lat="45.98115" lon="2.21147">
        <ele>549.6</ele>
        <time>2026-08-07T09:14:48.000Z</time>
      </trkpt>
      <trkpt lat="45.98087" lon="2.21121">
        <ele>548.6</ele>
        <time>2026-08-07T09:14:53.000Z</time>
      </trkpt>
      <trkpt lat="45.98069" lon="2.21097">
        <ele>547.1</ele>
        <time>2026-08-07T09:14:57.000Z</time>
      </trkpt>
      <trkpt lat="45.98065" lon="2.2109">
        <ele>547.1</ele>
        <time>2026-08-07T09:14:58.000Z</time>
      </trkpt>
      <trkpt lat="45.98063" lon="2.21081">
        <ele>547.3</ele>
        <time>2026-08-07T09:14:59.000Z</time>
      </trkpt>
      <trkpt lat="45.9806" lon="2.21062">
        <ele>546.8</ele>
        <time>2026-08-07T09:15:01.000Z</time>
      </trkpt>
      <trkpt lat="45.9806" lon="2.21052">
        <ele>546.7</ele>
        <time>2026-08-07T09:15:02.000Z</time>
      </trkpt>
      <trkpt lat="45.98061" lon="2.21042">
        <ele>546.4</ele>
        <time>2026-08-07T09:15:03.000Z</time>
      </trkpt>
      <trkpt lat="45.98066" lon="2.21024">
        <ele>545.7</ele>
        <time>2026-08-07T09:15:05.000Z</time>
      </trkpt>
      <trkpt lat="45.9807" lon="2.21016">
        <ele>545.3</ele>
        <time>2026-08-07T09:15:06.000Z</time>
      </trkpt>
      <trkpt lat="45.98081" lon="2.21002">
        <ele>545</ele>
        <time>2026-08-07T09:15:08.000Z</time>
      </trkpt>
      <trkpt lat="45.98087" lon="2.20997">
        <ele>544.8</ele>
        <time>2026-08-07T09:15:09.000Z</time>
      </trkpt>
      <trkpt lat="45.98105" lon="2.20981">
        <ele>544.3</ele>
        <time>2026-08-07T09:15:12.000Z</time>
      </trkpt>
      <trkpt lat="45.98115" lon="2.20967">
        <ele>543.9</ele>
        <time>2026-08-07T09:15:14.000Z</time>
      </trkpt>
      <trkpt lat="45.98119" lon="2.20959">
        <ele>543.6</ele>
        <time>2026-08-07T09:15:15.000Z</time>
      </trkpt>
      <trkpt lat="45.98125" lon="2.20942">
        <ele>542.9</ele>
        <time>2026-08-07T09:15:17.000Z</time>
      </trkpt>
      <trkpt lat="45.98126" lon="2.20923">
        <ele>542.7</ele>
        <time>2026-08-07T09:15:19.000Z</time>
      </trkpt>
      <trkpt lat="45.98125" lon="2.20904">
        <ele>542.9</ele>
        <time>2026-08-07T09:15:21.000Z</time>
      </trkpt>
      <trkpt lat="45.98121" lon="2.20886">
        <ele>543</ele>
        <time>2026-08-07T09:15:23.000Z</time>
      </trkpt>
      <trkpt lat="45.98101" lon="2.20825">
        <ele>541.2</ele>
        <time>2026-08-07T09:15:30.000Z</time>
      </trkpt>
      <trkpt lat="45.98094" lon="2.20801">
        <ele>541.1</ele>
        <time>2026-08-07T09:15:33.000Z</time>
      </trkpt>
      <trkpt lat="45.98091" lon="2.20783">
        <ele>540.6</ele>
        <time>2026-08-07T09:15:35.000Z</time>
      </trkpt>
      <trkpt lat="45.98087" lon="2.20746">
        <ele>540.1</ele>
        <time>2026-08-07T09:15:39.000Z</time>
      </trkpt>
      <trkpt lat="45.98086" lon="2.20737">
        <ele>539.8</ele>
        <time>2026-08-07T09:15:40.000Z</time>
      </trkpt>
      <trkpt lat="45.98083" lon="2.20688">
        <ele>538.7</ele>
        <time>2026-08-07T09:15:45.000Z</time>
      </trkpt>
      <trkpt lat="45.98082" lon="2.20657">
        <ele>537.8</ele>
        <time>2026-08-07T09:15:48.000Z</time>
      </trkpt>
      <trkpt lat="45.98083" lon="2.20626">
        <ele>537.5</ele>
        <time>2026-08-07T09:15:51.000Z</time>
      </trkpt>
      <trkpt lat="45.98086" lon="2.20616">
        <ele>537.5</ele>
        <time>2026-08-07T09:15:52.000Z</time>
      </trkpt>
      <trkpt lat="45.98089" lon="2.20606">
        <ele>537.1</ele>
        <time>2026-08-07T09:15:53.000Z</time>
      </trkpt>
      <trkpt lat="45.98103" lon="2.20581">
        <ele>535.9</ele>
        <time>2026-08-07T09:15:56.000Z</time>
      </trkpt>
      <trkpt lat="45.98107" lon="2.20572">
        <ele>536</ele>
        <time>2026-08-07T09:15:57.000Z</time>
      </trkpt>
      <trkpt lat="45.98112" lon="2.20552">
        <ele>536</ele>
        <time>2026-08-07T09:15:59.000Z</time>
      </trkpt>
      <trkpt lat="45.98114" lon="2.20542">
        <ele>535.8</ele>
        <time>2026-08-07T09:16:00.000Z</time>
      </trkpt>
      <trkpt lat="45.98114" lon="2.20531">
        <ele>535.4</ele>
        <time>2026-08-07T09:16:01.000Z</time>
      </trkpt>
      <trkpt lat="45.9811" lon="2.2051">
        <ele>536</ele>
        <time>2026-08-07T09:16:03.000Z</time>
      </trkpt>
      <trkpt lat="45.98093" lon="2.20475">
        <ele>535.3</ele>
        <time>2026-08-07T09:16:07.000Z</time>
      </trkpt>
      <trkpt lat="45.98088" lon="2.20467">
        <ele>535</ele>
        <time>2026-08-07T09:16:08.000Z</time>
      </trkpt>
      <trkpt lat="45.98084" lon="2.20459">
        <ele>534.6</ele>
        <time>2026-08-07T09:16:09.000Z</time>
      </trkpt>
      <trkpt lat="45.98077" lon="2.2044">
        <ele>534.2</ele>
        <time>2026-08-07T09:16:11.000Z</time>
      </trkpt>
      <trkpt lat="45.98074" lon="2.20431">
        <ele>534.2</ele>
        <time>2026-08-07T09:16:12.000Z</time>
      </trkpt>
      <trkpt lat="45.9807" lon="2.20411">
        <ele>533.9</ele>
        <time>2026-08-07T09:16:14.000Z</time>
      </trkpt>
      <trkpt lat="45.98065" lon="2.20382">
        <ele>533.1</ele>
        <time>2026-08-07T09:16:17.000Z</time>
      </trkpt>
      <trkpt lat="45.98058" lon="2.20365">
        <ele>533</ele>
        <time>2026-08-07T09:16:19.000Z</time>
      </trkpt>
      <trkpt lat="45.98053" lon="2.20358">
        <ele>532.8</ele>
        <time>2026-08-07T09:16:20.000Z</time>
      </trkpt>
      <trkpt lat="45.98032" lon="2.20335">
        <ele>532.1</ele>
        <time>2026-08-07T09:16:24.000Z</time>
      </trkpt>
      <trkpt lat="45.98026" lon="2.20331">
        <ele>532.3</ele>
        <time>2026-08-07T09:16:25.000Z</time>
      </trkpt>
      <trkpt lat="45.9802" lon="2.20326">
        <ele>532.6</ele>
        <time>2026-08-07T09:16:26.000Z</time>
      </trkpt>
      <trkpt lat="45.98014" lon="2.2032">
        <ele>533</ele>
        <time>2026-08-07T09:16:28.000Z</time>
      </trkpt>
      <trkpt lat="45.98005" lon="2.20306">
        <ele>533.4</ele>
        <time>2026-08-07T09:16:29.000Z</time>
      </trkpt>
      <trkpt lat="45.97999" lon="2.20289">
        <ele>532.9</ele>
        <time>2026-08-07T09:16:31.000Z</time>
      </trkpt>
      <trkpt lat="45.97997" lon="2.2027">
        <ele>532.2</ele>
        <time>2026-08-07T09:16:33.000Z</time>
      </trkpt>
      <trkpt lat="45.97999" lon="2.2023">
        <ele>531.1</ele>
        <time>2026-08-07T09:16:37.000Z</time>
      </trkpt>
      <trkpt lat="45.98" lon="2.2022">
        <ele>531</ele>
        <time>2026-08-07T09:16:38.000Z</time>
      </trkpt>
      <trkpt lat="45.98005" lon="2.20171">
        <ele>530.3</ele>
        <time>2026-08-07T09:16:43.000Z</time>
      </trkpt>
      <trkpt lat="45.98005" lon="2.20141">
        <ele>529.1</ele>
        <time>2026-08-07T09:16:46.000Z</time>
      </trkpt>
      <trkpt lat="45.98003" lon="2.20122">
        <ele>528.6</ele>
        <time>2026-08-07T09:16:48.000Z</time>
      </trkpt>
      <trkpt lat="45.97998" lon="2.20103">
        <ele>527.7</ele>
        <time>2026-08-07T09:16:50.000Z</time>
      </trkpt>
      <trkpt lat="45.97989" lon="2.20088">
        <ele>527.3</ele>
        <time>2026-08-07T09:16:52.000Z</time>
      </trkpt>
      <trkpt lat="45.97983" lon="2.20081">
        <ele>527.7</ele>
        <time>2026-08-07T09:16:53.000Z</time>
      </trkpt>
      <trkpt lat="45.97978" lon="2.20076">
        <ele>528.3</ele>
        <time>2026-08-07T09:16:54.000Z</time>
      </trkpt>
      <trkpt lat="45.97966" lon="2.20071">
        <ele>528.3</ele>
        <time>2026-08-07T09:16:56.000Z</time>
      </trkpt>
      <trkpt lat="45.97936" lon="2.20061">
        <ele>526.9</ele>
        <time>2026-08-07T09:17:01.000Z</time>
      </trkpt>
      <trkpt lat="45.9793" lon="2.20057">
        <ele>527</ele>
        <time>2026-08-07T09:17:02.000Z</time>
      </trkpt>
      <trkpt lat="45.97913" lon="2.20041">
        <ele>525.8</ele>
        <time>2026-08-07T09:17:05.000Z</time>
      </trkpt>
      <trkpt lat="45.97899" lon="2.20021">
        <ele>524.6</ele>
        <time>2026-08-07T09:17:08.000Z</time>
      </trkpt>
      <trkpt lat="45.97894" lon="2.20014">
        <ele>524.2</ele>
        <time>2026-08-07T09:17:09.000Z</time>
      </trkpt>
      <trkpt lat="45.97877" lon="2.19983">
        <ele>523.2</ele>
        <time>2026-08-07T09:17:13.000Z</time>
      </trkpt>
      <trkpt lat="45.97874" lon="2.19974">
        <ele>523.5</ele>
        <time>2026-08-07T09:17:14.000Z</time>
      </trkpt>
      <trkpt lat="45.9787" lon="2.19965">
        <ele>523.2</ele>
        <time>2026-08-07T09:17:15.000Z</time>
      </trkpt>
      <trkpt lat="45.97866" lon="2.19945">
        <ele>522.8</ele>
        <time>2026-08-07T09:17:17.000Z</time>
      </trkpt>
      <trkpt lat="45.97865" lon="2.19935">
        <ele>522.6</ele>
        <time>2026-08-07T09:17:18.000Z</time>
      </trkpt>
      <trkpt lat="45.97865" lon="2.19924">
        <ele>522.5</ele>
        <time>2026-08-07T09:17:19.000Z</time>
      </trkpt>
      <trkpt lat="45.97867" lon="2.19903">
        <ele>521.6</ele>
        <time>2026-08-07T09:17:21.000Z</time>
      </trkpt>
      <trkpt lat="45.9787" lon="2.19893">
        <ele>521.2</ele>
        <time>2026-08-07T09:17:22.000Z</time>
      </trkpt>
      <trkpt lat="45.97874" lon="2.19884">
        <ele>520.9</ele>
        <time>2026-08-07T09:17:23.000Z</time>
      </trkpt>
      <trkpt lat="45.97883" lon="2.19867">
        <ele>520.5</ele>
        <time>2026-08-07T09:17:25.000Z</time>
      </trkpt>
      <trkpt lat="45.97888" lon="2.19859">
        <ele>520.6</ele>
        <time>2026-08-07T09:17:26.000Z</time>
      </trkpt>
      <trkpt lat="45.97897" lon="2.19843">
        <ele>520.4</ele>
        <time>2026-08-07T09:17:28.000Z</time>
      </trkpt>
      <trkpt lat="45.97913" lon="2.1981">
        <ele>520</ele>
        <time>2026-08-07T09:17:32.000Z</time>
      </trkpt>
      <trkpt lat="45.97917" lon="2.19793">
        <ele>520.1</ele>
        <time>2026-08-07T09:17:34.000Z</time>
      </trkpt>
      <trkpt lat="45.97919" lon="2.19774">
        <ele>520.3</ele>
        <time>2026-08-07T09:17:36.000Z</time>
      </trkpt>
      <trkpt lat="45.97919" lon="2.19755">
        <ele>520.3</ele>
        <time>2026-08-07T09:17:38.000Z</time>
      </trkpt>
      <trkpt lat="45.97915" lon="2.19737">
        <ele>520.5</ele>
        <time>2026-08-07T09:17:40.000Z</time>
      </trkpt>
      <trkpt lat="45.97904" lon="2.19711">
        <ele>520.2</ele>
        <time>2026-08-07T09:17:43.000Z</time>
      </trkpt>
      <trkpt lat="45.97896" lon="2.19694">
        <ele>518.6</ele>
        <time>2026-08-07T09:17:45.000Z</time>
      </trkpt>
      <trkpt lat="45.97878" lon="2.19663">
        <ele>517.7</ele>
        <time>2026-08-07T09:17:49.000Z</time>
      </trkpt>
      <trkpt lat="45.97863" lon="2.19641">
        <ele>517.2</ele>
        <time>2026-08-07T09:17:52.000Z</time>
      </trkpt>
      <trkpt lat="45.97857" lon="2.19636">
        <ele>517.2</ele>
        <time>2026-08-07T09:17:53.000Z</time>
      </trkpt>
      <trkpt lat="45.97839" lon="2.19624">
        <ele>516.9</ele>
        <time>2026-08-07T09:17:56.000Z</time>
      </trkpt>
      <trkpt lat="45.97826" lon="2.19619">
        <ele>516.3</ele>
        <time>2026-08-07T09:17:58.000Z</time>
      </trkpt>
      <trkpt lat="45.97812" lon="2.19618">
        <ele>515.5</ele>
        <time>2026-08-07T09:18:00.000Z</time>
      </trkpt>
      <trkpt lat="45.97792" lon="2.19618">
        <ele>514.5</ele>
        <time>2026-08-07T09:18:03.000Z</time>
      </trkpt>
      <trkpt lat="45.97771" lon="2.19614">
        <ele>514.1</ele>
        <time>2026-08-07T09:18:06.000Z</time>
      </trkpt>
      <trkpt lat="45.97758" lon="2.19609">
        <ele>513.7</ele>
        <time>2026-08-07T09:18:08.000Z</time>
      </trkpt>
      <trkpt lat="45.97752" lon="2.19604">
        <ele>513.4</ele>
        <time>2026-08-07T09:18:09.000Z</time>
      </trkpt>
      <trkpt lat="45.97745" lon="2.19599">
        <ele>512.9</ele>
        <time>2026-08-07T09:18:10.000Z</time>
      </trkpt>
      <trkpt lat="45.9774" lon="2.19592">
        <ele>512.7</ele>
        <time>2026-08-07T09:18:11.000Z</time>
      </trkpt>
      <trkpt lat="45.9773" lon="2.19577">
        <ele>512.6</ele>
        <time>2026-08-07T09:18:13.000Z</time>
      </trkpt>
      <trkpt lat="45.97726" lon="2.19568">
        <ele>512.4</ele>
        <time>2026-08-07T09:18:14.000Z</time>
      </trkpt>
      <trkpt lat="45.97723" lon="2.19559">
        <ele>512.1</ele>
        <time>2026-08-07T09:18:15.000Z</time>
      </trkpt>
      <trkpt lat="45.97719" lon="2.19541">
        <ele>511.6</ele>
        <time>2026-08-07T09:18:17.000Z</time>
      </trkpt>
      <trkpt lat="45.97718" lon="2.19531">
        <ele>511.4</ele>
        <time>2026-08-07T09:18:18.000Z</time>
      </trkpt>
      <trkpt lat="45.97718" lon="2.19522">
        <ele>511</ele>
        <time>2026-08-07T09:18:19.000Z</time>
      </trkpt>
      <trkpt lat="45.97721" lon="2.19494">
        <ele>509.6</ele>
        <time>2026-08-07T09:18:22.000Z</time>
      </trkpt>
      <trkpt lat="45.97725" lon="2.19456">
        <ele>509.8</ele>
        <time>2026-08-07T09:18:26.000Z</time>
      </trkpt>
      <trkpt lat="45.97725" lon="2.19447">
        <ele>509.8</ele>
        <time>2026-08-07T09:18:27.000Z</time>
      </trkpt>
      <trkpt lat="45.97724" lon="2.19437">
        <ele>509.9</ele>
        <time>2026-08-07T09:18:28.000Z</time>
      </trkpt>
      <trkpt lat="45.97722" lon="2.19419">
        <ele>509.8</ele>
        <time>2026-08-07T09:18:30.000Z</time>
      </trkpt>
      <trkpt lat="45.97716" lon="2.19401">
        <ele>509.6</ele>
        <time>2026-08-07T09:18:32.000Z</time>
      </trkpt>
      <trkpt lat="45.97709" lon="2.19386">
        <ele>509.4</ele>
        <time>2026-08-07T09:18:34.000Z</time>
      </trkpt>
      <trkpt lat="45.97704" lon="2.1938">
        <ele>509.5</ele>
        <time>2026-08-07T09:18:35.000Z</time>
      </trkpt>
      <trkpt lat="45.977" lon="2.19374">
        <ele>509.4</ele>
        <time>2026-08-07T09:18:36.000Z</time>
      </trkpt>
      <trkpt lat="45.97695" lon="2.19369">
        <ele>509.3</ele>
        <time>2026-08-07T09:18:37.000Z</time>
      </trkpt>
      <trkpt lat="45.9768" lon="2.19354">
        <ele>509.1</ele>
        <time>2026-08-07T09:18:40.000Z</time>
      </trkpt>
      <trkpt lat="45.97675" lon="2.19349">
        <ele>508.8</ele>
        <time>2026-08-07T09:18:41.000Z</time>
      </trkpt>
      <trkpt lat="45.9766" lon="2.19336">
        <ele>507.4</ele>
        <time>2026-08-07T09:18:44.000Z</time>
      </trkpt>
      <trkpt lat="45.97642" lon="2.19319">
        <ele>507.4</ele>
        <time>2026-08-07T09:18:48.000Z</time>
      </trkpt>
      <trkpt lat="45.97632" lon="2.1931">
        <ele>506.9</ele>
        <time>2026-08-07T09:18:52.000Z</time>
      </trkpt>
      <trkpt lat="45.9763" lon="2.19307">
        <ele>506.9</ele>
        <time>2026-08-07T09:18:56.000Z</time>
      </trkpt>
      <trkpt lat="45.9763" lon="2.19307">
        <ele>506.9</ele>
        <time>2026-08-07T09:18:59.000Z</time>
      </trkpt>
      <trkpt lat="45.97622" lon="2.19306">
        <ele>506.1</ele>
        <time>2026-08-07T09:20:55.000Z</time>
      </trkpt>
      <trkpt lat="45.97616" lon="2.19304">
        <ele>505.7</ele>
        <time>2026-08-07T09:20:57.000Z</time>
      </trkpt>
      <trkpt lat="45.97593" lon="2.19297">
        <ele>505.2</ele>
        <time>2026-08-07T09:21:03.000Z</time>
      </trkpt>
      <trkpt lat="45.97544" lon="2.19292">
        <ele>504.2</ele>
        <time>2026-08-07T09:21:13.000Z</time>
      </trkpt>
      <trkpt lat="45.97534" lon="2.1929">
        <ele>503.6</ele>
        <time>2026-08-07T09:21:15.000Z</time>
      </trkpt>
      <trkpt lat="45.97522" lon="2.19286">
        <ele>503.2</ele>
        <time>2026-08-07T09:21:17.000Z</time>
      </trkpt>
      <trkpt lat="45.97511" lon="2.19281">
        <ele>503.2</ele>
        <time>2026-08-07T09:21:19.000Z</time>
      </trkpt>
      <trkpt lat="45.97506" lon="2.19278">
        <ele>503.2</ele>
        <time>2026-08-07T09:21:20.000Z</time>
      </trkpt>
      <trkpt lat="45.9748" lon="2.19259">
        <ele>502.2</ele>
        <time>2026-08-07T09:21:25.000Z</time>
      </trkpt>
      <trkpt lat="45.97445" lon="2.19235">
        <ele>500.6</ele>
        <time>2026-08-07T09:21:31.000Z</time>
      </trkpt>
      <trkpt lat="45.97433" lon="2.19229">
        <ele>500.5</ele>
        <time>2026-08-07T09:21:33.000Z</time>
      </trkpt>
      <trkpt lat="45.97402" lon="2.19225">
        <ele>500.7</ele>
        <time>2026-08-07T09:21:38.000Z</time>
      </trkpt>
      <trkpt lat="45.97395" lon="2.19225">
        <ele>500.7</ele>
        <time>2026-08-07T09:21:39.000Z</time>
      </trkpt>
      <trkpt lat="45.97377" lon="2.19226">
        <ele>500.3</ele>
        <time>2026-08-07T09:21:42.000Z</time>
      </trkpt>
      <trkpt lat="45.97352" lon="2.19222">
        <ele>499.4</ele>
        <time>2026-08-07T09:21:46.000Z</time>
      </trkpt>
      <trkpt lat="45.97307" lon="2.19203">
        <ele>497.2</ele>
        <time>2026-08-07T09:21:53.000Z</time>
      </trkpt>
      <trkpt lat="45.97301" lon="2.19199">
        <ele>497.1</ele>
        <time>2026-08-07T09:21:54.000Z</time>
      </trkpt>
      <trkpt lat="45.97258" lon="2.19166">
        <ele>497</ele>
        <time>2026-08-07T09:22:01.000Z</time>
      </trkpt>
      <trkpt lat="45.97252" lon="2.19161">
        <ele>496.6</ele>
        <time>2026-08-07T09:22:02.000Z</time>
      </trkpt>
      <trkpt lat="45.97218" lon="2.19145">
        <ele>495.3</ele>
        <time>2026-08-07T09:22:07.000Z</time>
      </trkpt>
      <trkpt lat="45.97175" lon="2.1913">
        <ele>495.6</ele>
        <time>2026-08-07T09:22:13.000Z</time>
      </trkpt>
      <trkpt lat="45.97168" lon="2.19128">
        <ele>495.4</ele>
        <time>2026-08-07T09:22:14.000Z</time>
      </trkpt>
      <trkpt lat="45.97129" lon="2.19115">
        <ele>493.9</ele>
        <time>2026-08-07T09:22:20.000Z</time>
      </trkpt>
      <trkpt lat="45.97123" lon="2.19112">
        <ele>493.7</ele>
        <time>2026-08-07T09:22:21.000Z</time>
      </trkpt>
      <trkpt lat="45.97107" lon="2.19102">
        <ele>492.9</ele>
        <time>2026-08-07T09:22:25.000Z</time>
      </trkpt>
      <trkpt lat="45.97089" lon="2.19098">
        <ele>492.6</ele>
        <time>2026-08-07T09:22:30.000Z</time>
      </trkpt>
      <trkpt lat="45.97085" lon="2.19098">
        <ele>492.5</ele>
        <time>2026-08-07T09:22:31.000Z</time>
      </trkpt>
      <trkpt lat="45.9706" lon="2.19092">
        <ele>492.1</ele>
        <time>2026-08-07T09:22:37.000Z</time>
      </trkpt>
      <trkpt lat="45.97051" lon="2.19091">
        <ele>491.8</ele>
        <time>2026-08-07T09:22:39.000Z</time>
      </trkpt>
      <trkpt lat="45.97042" lon="2.19087">
        <ele>491.4</ele>
        <time>2026-08-07T09:22:41.000Z</time>
      </trkpt>
      <trkpt lat="45.97034" lon="2.19084">
        <ele>491.2</ele>
        <time>2026-08-07T09:22:43.000Z</time>
      </trkpt>
      <trkpt lat="45.96996" lon="2.19064">
        <ele>490.4</ele>
        <time>2026-08-07T09:22:51.000Z</time>
      </trkpt>
      <trkpt lat="45.96969" lon="2.19035">
        <ele>489.1</ele>
        <time>2026-08-07T09:22:57.000Z</time>
      </trkpt>
      <trkpt lat="45.96932" lon="2.18979">
        <ele>488</ele>
        <time>2026-08-07T09:23:06.000Z</time>
      </trkpt>
      <trkpt lat="45.96928" lon="2.18974">
        <ele>488</ele>
        <time>2026-08-07T09:23:07.000Z</time>
      </trkpt>
      <trkpt lat="45.96905" lon="2.18953">
        <ele>487.6</ele>
        <time>2026-08-07T09:23:12.000Z</time>
      </trkpt>
      <trkpt lat="45.96895" lon="2.18947">
        <ele>487.3</ele>
        <time>2026-08-07T09:23:14.000Z</time>
      </trkpt>
      <trkpt lat="45.96874" lon="2.18939">
        <ele>486.4</ele>
        <time>2026-08-07T09:23:18.000Z</time>
      </trkpt>
      <trkpt lat="45.96862" lon="2.18936">
        <ele>485.6</ele>
        <time>2026-08-07T09:23:20.000Z</time>
      </trkpt>
      <trkpt lat="45.96844" lon="2.18935">
        <ele>485.4</ele>
        <time>2026-08-07T09:23:23.000Z</time>
      </trkpt>
      <trkpt lat="45.96812" lon="2.18933">
        <ele>485.3</ele>
        <time>2026-08-07T09:23:28.000Z</time>
      </trkpt>
      <trkpt lat="45.96805" lon="2.18931">
        <ele>485.4</ele>
        <time>2026-08-07T09:23:29.000Z</time>
      </trkpt>
      <trkpt lat="45.96799" lon="2.18929">
        <ele>484.8</ele>
        <time>2026-08-07T09:23:30.000Z</time>
      </trkpt>
      <trkpt lat="45.96787" lon="2.18921">
        <ele>484.3</ele>
        <time>2026-08-07T09:23:32.000Z</time>
      </trkpt>
      <trkpt lat="45.96781" lon="2.18916">
        <ele>484.5</ele>
        <time>2026-08-07T09:23:33.000Z</time>
      </trkpt>
      <trkpt lat="45.96776" lon="2.1891">
        <ele>484.1</ele>
        <time>2026-08-07T09:23:34.000Z</time>
      </trkpt>
      <trkpt lat="45.96766" lon="2.18897">
        <ele>483.7</ele>
        <time>2026-08-07T09:23:36.000Z</time>
      </trkpt>
      <trkpt lat="45.96762" lon="2.1889">
        <ele>484.1</ele>
        <time>2026-08-07T09:23:37.000Z</time>
      </trkpt>
      <trkpt lat="45.96758" lon="2.18882">
        <ele>483.9</ele>
        <time>2026-08-07T09:23:38.000Z</time>
      </trkpt>
      <trkpt lat="45.9675" lon="2.18855">
        <ele>483</ele>
        <time>2026-08-07T09:23:41.000Z</time>
      </trkpt>
      <trkpt lat="45.96748" lon="2.18846">
        <ele>482.8</ele>
        <time>2026-08-07T09:23:42.000Z</time>
      </trkpt>
      <trkpt lat="45.96743" lon="2.18809">
        <ele>481.8</ele>
        <time>2026-08-07T09:23:46.000Z</time>
      </trkpt>
      <trkpt lat="45.96743" lon="2.18799">
        <ele>481.7</ele>
        <time>2026-08-07T09:23:47.000Z</time>
      </trkpt>
      <trkpt lat="45.96744" lon="2.18742">
        <ele>479.9</ele>
        <time>2026-08-07T09:23:53.000Z</time>
      </trkpt>
      <trkpt lat="45.96747" lon="2.18733">
        <ele>479.8</ele>
        <time>2026-08-07T09:23:54.000Z</time>
      </trkpt>
      <trkpt lat="45.9675" lon="2.18725">
        <ele>480.1</ele>
        <time>2026-08-07T09:23:55.000Z</time>
      </trkpt>
      <trkpt lat="45.96755" lon="2.18719">
        <ele>479.8</ele>
        <time>2026-08-07T09:23:56.000Z</time>
      </trkpt>
      <trkpt lat="45.9676" lon="2.18713">
        <ele>479.6</ele>
        <time>2026-08-07T09:23:57.000Z</time>
      </trkpt>
      <trkpt lat="45.96772" lon="2.18704">
        <ele>479.8</ele>
        <time>2026-08-07T09:23:59.000Z</time>
      </trkpt>
      <trkpt lat="45.96777" lon="2.187">
        <ele>480.2</ele>
        <time>2026-08-07T09:24:00.000Z</time>
      </trkpt>
      <trkpt lat="45.96788" lon="2.18693">
        <ele>479.9</ele>
        <time>2026-08-07T09:24:02.000Z</time>
      </trkpt>
      <trkpt lat="45.96797" lon="2.18683">
        <ele>479.2</ele>
        <time>2026-08-07T09:24:04.000Z</time>
      </trkpt>
      <trkpt lat="45.96804" lon="2.1867">
        <ele>479</ele>
        <time>2026-08-07T09:24:06.000Z</time>
      </trkpt>
      <trkpt lat="45.96808" lon="2.18655">
        <ele>479.1</ele>
        <time>2026-08-07T09:24:08.000Z</time>
      </trkpt>
      <trkpt lat="45.9681" lon="2.18639">
        <ele>479.3</ele>
        <time>2026-08-07T09:24:10.000Z</time>
      </trkpt>
      <trkpt lat="45.96808" lon="2.18616">
        <ele>479.3</ele>
        <time>2026-08-07T09:24:13.000Z</time>
      </trkpt>
      <trkpt lat="45.96803" lon="2.18604">
        <ele>479.5</ele>
        <time>2026-08-07T09:24:15.000Z</time>
      </trkpt>
      <trkpt lat="45.96796" lon="2.18593">
        <ele>480</ele>
        <time>2026-08-07T09:24:17.000Z</time>
      </trkpt>
      <trkpt lat="45.96789" lon="2.18584">
        <ele>480.1</ele>
        <time>2026-08-07T09:24:19.000Z</time>
      </trkpt>
      <trkpt lat="45.96776" lon="2.18575">
        <ele>479.2</ele>
        <time>2026-08-07T09:24:22.000Z</time>
      </trkpt>
      <trkpt lat="45.96735" lon="2.18559">
        <ele>478.7</ele>
        <time>2026-08-07T09:24:31.000Z</time>
      </trkpt>
      <trkpt lat="45.96731" lon="2.18559">
        <ele>478.7</ele>
        <time>2026-08-07T09:24:32.000Z</time>
      </trkpt>
      <trkpt lat="45.96713" lon="2.18562">
        <ele>479.3</ele>
        <time>2026-08-07T09:24:36.000Z</time>
      </trkpt>
      <trkpt lat="45.96709" lon="2.18564">
        <ele>479.5</ele>
        <time>2026-08-07T09:24:37.000Z</time>
      </trkpt>
      <trkpt lat="45.96705" lon="2.18566">
        <ele>479.7</ele>
        <time>2026-08-07T09:24:38.000Z</time>
      </trkpt>
      <trkpt lat="45.96701" lon="2.18568">
        <ele>479.7</ele>
        <time>2026-08-07T09:24:39.000Z</time>
      </trkpt>
      <trkpt lat="45.96677" lon="2.18579">
        <ele>478.5</ele>
        <time>2026-08-07T09:24:44.000Z</time>
      </trkpt>
      <trkpt lat="45.96667" lon="2.18582">
        <ele>478.3</ele>
        <time>2026-08-07T09:24:46.000Z</time>
      </trkpt>
      <trkpt lat="45.96651" lon="2.18583">
        <ele>478.1</ele>
        <time>2026-08-07T09:24:50.000Z</time>
      </trkpt>
      <trkpt lat="45.9664" lon="2.18579">
        <ele>478.3</ele>
        <time>2026-08-07T09:24:53.000Z</time>
      </trkpt>
      <trkpt lat="45.96632" lon="2.18575">
        <ele>477.7</ele>
        <time>2026-08-07T09:24:55.000Z</time>
      </trkpt>
      <trkpt lat="45.96616" lon="2.18548">
        <ele>477.6</ele>
        <time>2026-08-07T09:25:01.000Z</time>
      </trkpt>
      <trkpt lat="45.96614" lon="2.18542">
        <ele>477.4</ele>
        <time>2026-08-07T09:25:02.000Z</time>
      </trkpt>
      <trkpt lat="45.96612" lon="2.1853">
        <ele>477.2</ele>
        <time>2026-08-07T09:25:04.000Z</time>
      </trkpt>
      <trkpt lat="45.96612" lon="2.18517">
        <ele>476.8</ele>
        <time>2026-08-07T09:25:06.000Z</time>
      </trkpt>
      <trkpt lat="45.96613" lon="2.18505">
        <ele>476.6</ele>
        <time>2026-08-07T09:25:08.000Z</time>
      </trkpt>
      <trkpt lat="45.96614" lon="2.18499">
        <ele>476.6</ele>
        <time>2026-08-07T09:25:09.000Z</time>
      </trkpt>
      <trkpt lat="45.96618" lon="2.18488">
        <ele>476.6</ele>
        <time>2026-08-07T09:25:11.000Z</time>
      </trkpt>
      <trkpt lat="45.96622" lon="2.18476">
        <ele>476.7</ele>
        <time>2026-08-07T09:25:13.000Z</time>
      </trkpt>
      <trkpt lat="45.96628" lon="2.18458">
        <ele>476.3</ele>
        <time>2026-08-07T09:25:16.000Z</time>
      </trkpt>
      <trkpt lat="45.96629" lon="2.18451">
        <ele>475.8</ele>
        <time>2026-08-07T09:25:17.000Z</time>
      </trkpt>
      <trkpt lat="45.9663" lon="2.18444">
        <ele>475.4</ele>
        <time>2026-08-07T09:25:18.000Z</time>
      </trkpt>
      <trkpt lat="45.9663" lon="2.18429">
        <ele>476.1</ele>
        <time>2026-08-07T09:25:20.000Z</time>
      </trkpt>
      <trkpt lat="45.96628" lon="2.18414">
        <ele>476.5</ele>
        <time>2026-08-07T09:25:22.000Z</time>
      </trkpt>
      <trkpt lat="45.96626" lon="2.18407">
        <ele>476.8</ele>
        <time>2026-08-07T09:25:23.000Z</time>
      </trkpt>
      <trkpt lat="45.96617" lon="2.18387">
        <ele>476.4</ele>
        <time>2026-08-07T09:25:26.000Z</time>
      </trkpt>
      <trkpt lat="45.96614" lon="2.18381">
        <ele>475.8</ele>
        <time>2026-08-07T09:25:27.000Z</time>
      </trkpt>
      <trkpt lat="45.96596" lon="2.18348">
        <ele>475.1</ele>
        <time>2026-08-07T09:25:32.000Z</time>
      </trkpt>
      <trkpt lat="45.96592" lon="2.18342">
        <ele>474.8</ele>
        <time>2026-08-07T09:25:33.000Z</time>
      </trkpt>
      <trkpt lat="45.96581" lon="2.18322">
        <ele>473.7</ele>
        <time>2026-08-07T09:25:36.000Z</time>
      </trkpt>
      <trkpt lat="45.96566" lon="2.18294">
        <ele>473</ele>
        <time>2026-08-07T09:25:40.000Z</time>
      </trkpt>
      <trkpt lat="45.96541" lon="2.18248">
        <ele>471.7</ele>
        <time>2026-08-07T09:25:47.000Z</time>
      </trkpt>
      <trkpt lat="45.96535" lon="2.18233">
        <ele>471.6</ele>
        <time>2026-08-07T09:25:49.000Z</time>
      </trkpt>
      <trkpt lat="45.9652" lon="2.18201">
        <ele>470.7</ele>
        <time>2026-08-07T09:25:54.000Z</time>
      </trkpt>
      <trkpt lat="45.96517" lon="2.18194">
        <ele>470.4</ele>
        <time>2026-08-07T09:25:55.000Z</time>
      </trkpt>
      <trkpt lat="45.965" lon="2.18154">
        <ele>469.8</ele>
        <time>2026-08-07T09:26:01.000Z</time>
      </trkpt>
      <trkpt lat="45.96498" lon="2.18146">
        <ele>469.9</ele>
        <time>2026-08-07T09:26:02.000Z</time>
      </trkpt>
      <trkpt lat="45.96495" lon="2.18129">
        <ele>469.5</ele>
        <time>2026-08-07T09:26:04.000Z</time>
      </trkpt>
      <trkpt lat="45.96495" lon="2.18104">
        <ele>468.7</ele>
        <time>2026-08-07T09:26:07.000Z</time>
      </trkpt>
      <trkpt lat="45.96496" lon="2.18097">
        <ele>468.5</ele>
        <time>2026-08-07T09:26:08.000Z</time>
      </trkpt>
      <trkpt lat="45.96503" lon="2.18077">
        <ele>467.9</ele>
        <time>2026-08-07T09:26:11.000Z</time>
      </trkpt>
      <trkpt lat="45.9651" lon="2.18058">
        <ele>466.6</ele>
        <time>2026-08-07T09:26:14.000Z</time>
      </trkpt>
      <trkpt lat="45.96515" lon="2.1804">
        <ele>467.4</ele>
        <time>2026-08-07T09:26:17.000Z</time>
      </trkpt>
      <trkpt lat="45.96515" lon="2.18034">
        <ele>467.8</ele>
        <time>2026-08-07T09:26:18.000Z</time>
      </trkpt>
      <trkpt lat="45.96515" lon="2.18028">
        <ele>468.2</ele>
        <time>2026-08-07T09:26:19.000Z</time>
      </trkpt>
      <trkpt lat="45.96515" lon="2.1802">
        <ele>468.6</ele>
        <time>2026-08-07T09:26:20.000Z</time>
      </trkpt>
      <trkpt lat="45.96515" lon="2.18013">
        <ele>469</ele>
        <time>2026-08-07T09:26:21.000Z</time>
      </trkpt>
      <trkpt lat="45.96513" lon="2.17997">
        <ele>469.4</ele>
        <time>2026-08-07T09:26:23.000Z</time>
      </trkpt>
      <trkpt lat="45.96511" lon="2.1799">
        <ele>469.2</ele>
        <time>2026-08-07T09:26:24.000Z</time>
      </trkpt>
      <trkpt lat="45.96498" lon="2.17955">
        <ele>467.5</ele>
        <time>2026-08-07T09:26:29.000Z</time>
      </trkpt>
      <trkpt lat="45.96486" lon="2.17927">
        <ele>467.6</ele>
        <time>2026-08-07T09:26:33.000Z</time>
      </trkpt>
      <trkpt lat="45.96473" lon="2.17897">
        <ele>465.2</ele>
        <time>2026-08-07T09:26:37.000Z</time>
      </trkpt>
      <trkpt lat="45.96464" lon="2.17874">
        <ele>464.9</ele>
        <time>2026-08-07T09:26:40.000Z</time>
      </trkpt>
      <trkpt lat="45.96449" lon="2.17823">
        <ele>463.7</ele>
        <time>2026-08-07T09:26:46.000Z</time>
      </trkpt>
      <trkpt lat="45.96444" lon="2.17805">
        <ele>462.9</ele>
        <time>2026-08-07T09:26:48.000Z</time>
      </trkpt>
      <trkpt lat="45.96432" lon="2.17771">
        <ele>464.1</ele>
        <time>2026-08-07T09:26:52.000Z</time>
      </trkpt>
      <trkpt lat="45.96412" lon="2.17735">
        <ele>463.1</ele>
        <time>2026-08-07T09:26:57.000Z</time>
      </trkpt>
      <trkpt lat="45.96408" lon="2.17729">
        <ele>463.2</ele>
        <time>2026-08-07T09:26:58.000Z</time>
      </trkpt>
      <trkpt lat="45.96388" lon="2.1771">
        <ele>462</ele>
        <time>2026-08-07T09:27:02.000Z</time>
      </trkpt>
      <trkpt lat="45.96382" lon="2.17707">
        <ele>461.9</ele>
        <time>2026-08-07T09:27:03.000Z</time>
      </trkpt>
      <trkpt lat="45.96364" lon="2.17697">
        <ele>460.4</ele>
        <time>2026-08-07T09:27:06.000Z</time>
      </trkpt>
      <trkpt lat="45.96353" lon="2.17692">
        <ele>460.1</ele>
        <time>2026-08-07T09:27:08.000Z</time>
      </trkpt>
      <trkpt lat="45.96347" lon="2.17689">
        <ele>460.2</ele>
        <time>2026-08-07T09:27:09.000Z</time>
      </trkpt>
      <trkpt lat="45.96325" lon="2.17675">
        <ele>459.1</ele>
        <time>2026-08-07T09:27:13.000Z</time>
      </trkpt>
      <trkpt lat="45.96315" lon="2.17663">
        <ele>459</ele>
        <time>2026-08-07T09:27:15.000Z</time>
      </trkpt>
      <trkpt lat="45.963" lon="2.17643">
        <ele>458.3</ele>
        <time>2026-08-07T09:27:18.000Z</time>
      </trkpt>
      <trkpt lat="45.96287" lon="2.17623">
        <ele>458.3</ele>
        <time>2026-08-07T09:27:21.000Z</time>
      </trkpt>
      <trkpt lat="45.96267" lon="2.17597">
        <ele>457.8</ele>
        <time>2026-08-07T09:27:25.000Z</time>
      </trkpt>
      <trkpt lat="45.9625" lon="2.1758">
        <ele>456.7</ele>
        <time>2026-08-07T09:27:28.000Z</time>
      </trkpt>
      <trkpt lat="45.96244" lon="2.17575">
        <ele>457.1</ele>
        <time>2026-08-07T09:27:29.000Z</time>
      </trkpt>
      <trkpt lat="45.96232" lon="2.17567">
        <ele>456.7</ele>
        <time>2026-08-07T09:27:31.000Z</time>
      </trkpt>
      <trkpt lat="45.96218" lon="2.17561">
        <ele>455.6</ele>
        <time>2026-08-07T09:27:33.000Z</time>
      </trkpt>
      <trkpt lat="45.96204" lon="2.17556">
        <ele>454.7</ele>
        <time>2026-08-07T09:27:35.000Z</time>
      </trkpt>
      <trkpt lat="45.96184" lon="2.1755">
        <ele>454.5</ele>
        <time>2026-08-07T09:27:38.000Z</time>
      </trkpt>
      <trkpt lat="45.96179" lon="2.17547">
        <ele>454.6</ele>
        <time>2026-08-07T09:27:39.000Z</time>
      </trkpt>
      <trkpt lat="45.9617" lon="2.17542">
        <ele>454.6</ele>
        <time>2026-08-07T09:27:41.000Z</time>
      </trkpt>
      <trkpt lat="45.96165" lon="2.17539">
        <ele>454.4</ele>
        <time>2026-08-07T09:27:43.000Z</time>
      </trkpt>
      <trkpt lat="45.96154" lon="2.17532">
        <ele>453.4</ele>
        <time>2026-08-07T09:27:48.000Z</time>
      </trkpt>
      <trkpt lat="45.9614" lon="2.17525">
        <ele>452.6</ele>
        <time>2026-08-07T09:27:52.000Z</time>
      </trkpt>
      <trkpt lat="45.96136" lon="2.17522">
        <ele>452.5</ele>
        <time>2026-08-07T09:27:53.000Z</time>
      </trkpt>
      <trkpt lat="45.96131" lon="2.17519">
        <ele>452.4</ele>
        <time>2026-08-07T09:27:54.000Z</time>
      </trkpt>
      <trkpt lat="45.96115" lon="2.17507">
        <ele>452.5</ele>
        <time>2026-08-07T09:27:58.000Z</time>
      </trkpt>
      <trkpt lat="45.96111" lon="2.17503">
        <ele>452.5</ele>
        <time>2026-08-07T09:27:59.000Z</time>
      </trkpt>
      <trkpt lat="45.96095" lon="2.17493">
        <ele>454.1</ele>
        <time>2026-08-07T09:28:03.000Z</time>
      </trkpt>
      <trkpt lat="45.96078" lon="2.1749">
        <ele>453.5</ele>
        <time>2026-08-07T09:28:07.000Z</time>
      </trkpt>
      <trkpt lat="45.96074" lon="2.1749">
        <ele>453</ele>
        <time>2026-08-07T09:28:08.000Z</time>
      </trkpt>
      <trkpt lat="45.96065" lon="2.17489">
        <ele>452.3</ele>
        <time>2026-08-07T09:28:10.000Z</time>
      </trkpt>
      <trkpt lat="45.9606" lon="2.17488">
        <ele>451.9</ele>
        <time>2026-08-07T09:28:11.000Z</time>
      </trkpt>
      <trkpt lat="45.96054" lon="2.17488">
        <ele>451.4</ele>
        <time>2026-08-07T09:28:12.000Z</time>
      </trkpt>
      <trkpt lat="45.9605" lon="2.17488">
        <ele>451</ele>
        <time>2026-08-07T09:28:13.000Z</time>
      </trkpt>
      <trkpt lat="45.96028" lon="2.17484">
        <ele>448.7</ele>
        <time>2026-08-07T09:28:17.000Z</time>
      </trkpt>
      <trkpt lat="45.96023" lon="2.1748">
        <ele>448.8</ele>
        <time>2026-08-07T09:28:18.000Z</time>
      </trkpt>
      <trkpt lat="45.96019" lon="2.17477">
        <ele>448.6</ele>
        <time>2026-08-07T09:28:19.000Z</time>
      </trkpt>
      <trkpt lat="45.96007" lon="2.17456">
        <ele>447.4</ele>
        <time>2026-08-07T09:28:22.000Z</time>
      </trkpt>
      <trkpt lat="45.95999" lon="2.17442">
        <ele>445.1</ele>
        <time>2026-08-07T09:28:24.000Z</time>
      </trkpt>
      <trkpt lat="45.95987" lon="2.17424">
        <ele>445.2</ele>
        <time>2026-08-07T09:28:27.000Z</time>
      </trkpt>
      <trkpt lat="45.95984" lon="2.1742">
        <ele>444.9</ele>
        <time>2026-08-07T09:28:28.000Z</time>
      </trkpt>
      <trkpt lat="45.95979" lon="2.17413">
        <ele>444.8</ele>
        <time>2026-08-07T09:28:29.000Z</time>
      </trkpt>
      <trkpt lat="45.95965" lon="2.17397">
        <ele>444.4</ele>
        <time>2026-08-07T09:28:32.000Z</time>
      </trkpt>
      <trkpt lat="45.95961" lon="2.17392">
        <ele>444.1</ele>
        <time>2026-08-07T09:28:33.000Z</time>
      </trkpt>
      <trkpt lat="45.95946" lon="2.17384">
        <ele>443.8</ele>
        <time>2026-08-07T09:28:36.000Z</time>
      </trkpt>
      <trkpt lat="45.9593" lon="2.17376">
        <ele>444.2</ele>
        <time>2026-08-07T09:28:39.000Z</time>
      </trkpt>
      <trkpt lat="45.95908" lon="2.17364">
        <ele>443.1</ele>
        <time>2026-08-07T09:28:44.000Z</time>
      </trkpt>
      <trkpt lat="45.95903" lon="2.17361">
        <ele>442.6</ele>
        <time>2026-08-07T09:28:45.000Z</time>
      </trkpt>
      <trkpt lat="45.95884" lon="2.17343">
        <ele>441.1</ele>
        <time>2026-08-07T09:28:50.000Z</time>
      </trkpt>
      <trkpt lat="45.95878" lon="2.17335">
        <ele>440.7</ele>
        <time>2026-08-07T09:28:52.000Z</time>
      </trkpt>
      <trkpt lat="45.95862" lon="2.1732">
        <ele>440.5</ele>
        <time>2026-08-07T09:28:58.000Z</time>
      </trkpt>
      <trkpt lat="45.95854" lon="2.17315">
        <ele>441.2</ele>
        <time>2026-08-07T09:29:01.000Z</time>
      </trkpt>
      <trkpt lat="45.95849" lon="2.17312">
        <ele>441.3</ele>
        <time>2026-08-07T09:29:03.000Z</time>
      </trkpt>
      <trkpt lat="45.95836" lon="2.17294">
        <ele>439.7</ele>
        <time>2026-08-07T09:29:09.000Z</time>
      </trkpt>
      <trkpt lat="45.95835" lon="2.17292">
        <ele>439.6</ele>
        <time>2026-08-07T09:29:10.000Z</time>
      </trkpt>
      <trkpt lat="45.95831" lon="2.17289">
        <ele>439.3</ele>
        <time>2026-08-07T09:29:13.000Z</time>
      </trkpt>
      <trkpt lat="45.95829" lon="2.17286">
        <ele>439.1</ele>
        <time>2026-08-07T09:29:15.000Z</time>
      </trkpt>
      <trkpt lat="45.95823" lon="2.17284">
        <ele>438.9</ele>
        <time>2026-08-07T09:29:18.000Z</time>
      </trkpt>
      <trkpt lat="45.95823" lon="2.17283">
        <ele>438.8</ele>
        <time>2026-08-07T09:29:19.000Z</time>
      </trkpt>
      <trkpt lat="45.9582" lon="2.17284">
        <ele>438.7</ele>
        <time>2026-08-07T09:29:22.000Z</time>
      </trkpt>
      <trkpt lat="45.95816" lon="2.17283">
        <ele>438.6</ele>
        <time>2026-08-07T09:29:27.000Z</time>
      </trkpt>
      <trkpt lat="45.95814" lon="2.17283">
        <ele>438.5</ele>
        <time>2026-08-07T09:29:29.000Z</time>
      </trkpt>
      <trkpt lat="45.9581" lon="2.17281">
        <ele>438.3</ele>
        <time>2026-08-07T09:29:31.000Z</time>
      </trkpt>
      <trkpt lat="45.95806" lon="2.17279">
        <ele>438</ele>
        <time>2026-08-07T09:29:35.000Z</time>
      </trkpt>
      <trkpt lat="45.95798" lon="2.17276">
        <ele>438</ele>
        <time>2026-08-07T09:29:40.000Z</time>
      </trkpt>
      <trkpt lat="45.95797" lon="2.17277">
        <ele>438</ele>
        <time>2026-08-07T09:29:41.000Z</time>
      </trkpt>
      <trkpt lat="45.95796" lon="2.17277">
        <ele>438</ele>
        <time>2026-08-07T09:29:42.000Z</time>
      </trkpt>
      <trkpt lat="45.95792" lon="2.17273">
        <ele>437.9</ele>
        <time>2026-08-07T09:29:46.000Z</time>
      </trkpt>
      <trkpt lat="45.95782" lon="2.17262">
        <ele>437.5</ele>
        <time>2026-08-07T09:29:56.000Z</time>
      </trkpt>
      <trkpt lat="45.95775" lon="2.17252">
        <ele>437.6</ele>
        <time>2026-08-07T09:30:02.000Z</time>
      </trkpt>
      <trkpt lat="45.95775" lon="2.17251">
        <ele>437.6</ele>
        <time>2026-08-07T09:30:03.000Z</time>
      </trkpt>
      <trkpt lat="45.95775" lon="2.17251">
        <ele>437.6</ele>
        <time>2026-08-07T09:30:05.000Z</time>
      </trkpt>
      <trkpt lat="45.95772" lon="2.17238">
        <ele>437.7</ele>
        <time>2026-08-07T09:33:23.000Z</time>
      </trkpt>
      <trkpt lat="45.95771" lon="2.17235">
        <ele>437.8</ele>
        <time>2026-08-07T09:33:24.000Z</time>
      </trkpt>
      <trkpt lat="45.95768" lon="2.17226">
        <ele>437.6</ele>
        <time>2026-08-07T09:33:30.000Z</time>
      </trkpt>
      <trkpt lat="45.95767" lon="2.17224">
        <ele>437.5</ele>
        <time>2026-08-07T09:33:33.000Z</time>
      </trkpt>
      <trkpt lat="45.95766" lon="2.17222">
        <ele>437.4</ele>
        <time>2026-08-07T09:33:36.000Z</time>
      </trkpt>
      <trkpt lat="45.95762" lon="2.17211">
        <ele>437.1</ele>
        <time>2026-08-07T09:33:42.000Z</time>
      </trkpt>
      <trkpt lat="45.95755" lon="2.17195">
        <ele>436.2</ele>
        <time>2026-08-07T09:33:47.000Z</time>
      </trkpt>
      <trkpt lat="45.95749" lon="2.17184">
        <ele>436.1</ele>
        <time>2026-08-07T09:33:51.000Z</time>
      </trkpt>
      <trkpt lat="45.95747" lon="2.17181">
        <ele>436.2</ele>
        <time>2026-08-07T09:33:52.000Z</time>
      </trkpt>
      <trkpt lat="45.95733" lon="2.17156">
        <ele>435.9</ele>
        <time>2026-08-07T09:33:59.000Z</time>
      </trkpt>
      <trkpt lat="45.95721" lon="2.17131">
        <ele>435.3</ele>
        <time>2026-08-07T09:34:05.000Z</time>
      </trkpt>
      <trkpt lat="45.9572" lon="2.17123">
        <ele>435.6</ele>
        <time>2026-08-07T09:34:08.000Z</time>
      </trkpt>
      <trkpt lat="45.95718" lon="2.17119">
        <ele>435.7</ele>
        <time>2026-08-07T09:34:09.000Z</time>
      </trkpt>
      <trkpt lat="45.95717" lon="2.17116">
        <ele>435.8</ele>
        <time>2026-08-07T09:34:10.000Z</time>
      </trkpt>
      <trkpt lat="45.95712" lon="2.17104">
        <ele>435.5</ele>
        <time>2026-08-07T09:34:14.000Z</time>
      </trkpt>
      <trkpt lat="45.95706" lon="2.17093">
        <ele>435</ele>
        <time>2026-08-07T09:34:20.000Z</time>
      </trkpt>
      <trkpt lat="45.95705" lon="2.17091">
        <ele>434.9</ele>
        <time>2026-08-07T09:34:22.000Z</time>
      </trkpt>
      <trkpt lat="45.95704" lon="2.17088">
        <ele>434.8</ele>
        <time>2026-08-07T09:34:25.000Z</time>
      </trkpt>
      <trkpt lat="45.95701" lon="2.17079">
        <ele>434.4</ele>
        <time>2026-08-07T09:34:31.000Z</time>
      </trkpt>
      <trkpt lat="45.95701" lon="2.17079">
        <ele>434.4</ele>
        <time>2026-08-07T09:34:34.000Z</time>
      </trkpt>
      <trkpt lat="45.95699" lon="2.17074">
        <ele>434.3</ele>
        <time>2026-08-07T09:34:41.000Z</time>
      </trkpt>
      <trkpt lat="45.95699" lon="2.17074">
        <ele>434.3</ele>
        <time>2026-08-07T09:34:43.000Z</time>
      </trkpt>
      <trkpt lat="45.95699" lon="2.17074">
        <ele>434.3</ele>
        <time>2026-08-07T09:34:44.000Z</time>
      </trkpt>
      <trkpt lat="45.95691" lon="2.17038">
        <ele>434.3</ele>
        <time>2026-08-07T09:35:17.000Z</time>
      </trkpt>
      <trkpt lat="45.95691" lon="2.17032">
        <ele>434.2</ele>
        <time>2026-08-07T09:35:19.000Z</time>
      </trkpt>
      <trkpt lat="45.9569" lon="2.1702">
        <ele>434.1</ele>
        <time>2026-08-07T09:35:25.000Z</time>
      </trkpt>
      <trkpt lat="45.95691" lon="2.17017">
        <ele>434.1</ele>
        <time>2026-08-07T09:35:26.000Z</time>
      </trkpt>
      <trkpt lat="45.9569" lon="2.17">
        <ele>434</ele>
        <time>2026-08-07T09:35:32.000Z</time>
      </trkpt>
      <trkpt lat="45.95689" lon="2.16985">
        <ele>433.5</ele>
        <time>2026-08-07T09:35:39.000Z</time>
      </trkpt>
      <trkpt lat="45.95689" lon="2.1698">
        <ele>433.4</ele>
        <time>2026-08-07T09:35:41.000Z</time>
      </trkpt>
      <trkpt lat="45.95687" lon="2.1697">
        <ele>433.2</ele>
        <time>2026-08-07T09:35:45.000Z</time>
      </trkpt>
      <trkpt lat="45.95685" lon="2.16955">
        <ele>432.7</ele>
        <time>2026-08-07T09:35:51.000Z</time>
      </trkpt>
      <trkpt lat="45.95681" lon="2.16936">
        <ele>432.5</ele>
        <time>2026-08-07T09:35:58.000Z</time>
      </trkpt>
      <trkpt lat="45.9568" lon="2.16931">
        <ele>432.5</ele>
        <time>2026-08-07T09:36:00.000Z</time>
      </trkpt>
      <trkpt lat="45.95679" lon="2.16919">
        <ele>432.4</ele>
        <time>2026-08-07T09:36:05.000Z</time>
      </trkpt>
      <trkpt lat="45.95675" lon="2.16896">
        <ele>433</ele>
        <time>2026-08-07T09:36:13.000Z</time>
      </trkpt>
      <trkpt lat="45.9567" lon="2.16873">
        <ele>432.2</ele>
        <time>2026-08-07T09:36:20.000Z</time>
      </trkpt>
      <trkpt lat="45.95669" lon="2.16864">
        <ele>431.7</ele>
        <time>2026-08-07T09:36:23.000Z</time>
      </trkpt>
      <trkpt lat="45.9567" lon="2.16854">
        <ele>431.8</ele>
        <time>2026-08-07T09:36:26.000Z</time>
      </trkpt>
      <trkpt lat="45.95666" lon="2.16838">
        <ele>431.2</ele>
        <time>2026-08-07T09:36:31.000Z</time>
      </trkpt>
      <trkpt lat="45.95663" lon="2.16822">
        <ele>431.6</ele>
        <time>2026-08-07T09:36:37.000Z</time>
      </trkpt>
      <trkpt lat="45.95665" lon="2.16806">
        <ele>431.1</ele>
        <time>2026-08-07T09:36:45.000Z</time>
      </trkpt>
      <trkpt lat="45.95664" lon="2.16787">
        <ele>430.5</ele>
        <time>2026-08-07T09:36:53.000Z</time>
      </trkpt>
      <trkpt lat="45.95663" lon="2.16774">
        <ele>430.1</ele>
        <time>2026-08-07T09:36:59.000Z</time>
      </trkpt>
      <trkpt lat="45.95661" lon="2.16765">
        <ele>430</ele>
        <time>2026-08-07T09:37:03.000Z</time>
      </trkpt>
      <trkpt lat="45.95659" lon="2.1676">
        <ele>429.9</ele>
        <time>2026-08-07T09:37:05.000Z</time>
      </trkpt>
      <trkpt lat="45.95655" lon="2.16757">
        <ele>429.8</ele>
        <time>2026-08-07T09:37:08.000Z</time>
      </trkpt>
      <trkpt lat="45.9565" lon="2.16754">
        <ele>429.6</ele>
        <time>2026-08-07T09:37:12.000Z</time>
      </trkpt>
      <trkpt lat="45.95635" lon="2.16747">
        <ele>429</ele>
        <time>2026-08-07T09:37:18.000Z</time>
      </trkpt>
      <trkpt lat="45.95615" lon="2.16739">
        <ele>429</ele>
        <time>2026-08-07T09:37:26.000Z</time>
      </trkpt>
      <trkpt lat="45.95612" lon="2.16738">
        <ele>429</ele>
        <time>2026-08-07T09:37:27.000Z</time>
      </trkpt>
      <trkpt lat="45.95601" lon="2.16736">
        <ele>429.4</ele>
        <time>2026-08-07T09:37:31.000Z</time>
      </trkpt>
      <trkpt lat="45.95587" lon="2.16734">
        <ele>429.9</ele>
        <time>2026-08-07T09:37:37.000Z</time>
      </trkpt>
      <trkpt lat="45.95583" lon="2.16735">
        <ele>430</ele>
        <time>2026-08-07T09:37:42.000Z</time>
      </trkpt>
      <trkpt lat="45.9558" lon="2.16735">
        <ele>430.1</ele>
        <time>2026-08-07T09:37:46.000Z</time>
      </trkpt>
      <trkpt lat="45.9557" lon="2.16734">
        <ele>430.5</ele>
        <time>2026-08-07T09:38:00.000Z</time>
      </trkpt>
      <trkpt lat="45.95559" lon="2.16733">
        <ele>430.9</ele>
        <time>2026-08-07T09:38:05.000Z</time>
      </trkpt>
      <trkpt lat="45.95557" lon="2.16733">
        <ele>430.9</ele>
        <time>2026-08-07T09:38:06.000Z</time>
      </trkpt>
      <trkpt lat="45.95551" lon="2.16732">
        <ele>430.9</ele>
        <time>2026-08-07T09:38:09.000Z</time>
      </trkpt>
      <trkpt lat="45.95548" lon="2.16733">
        <ele>430.8</ele>
        <time>2026-08-07T09:38:11.000Z</time>
      </trkpt>
      <trkpt lat="45.95547" lon="2.16733">
        <ele>430.8</ele>
        <time>2026-08-07T09:38:12.000Z</time>
      </trkpt>
      <trkpt lat="45.9554" lon="2.16729">
        <ele>430.6</ele>
        <time>2026-08-07T09:38:15.000Z</time>
      </trkpt>
      <trkpt lat="45.95533" lon="2.16724">
        <ele>430.2</ele>
        <time>2026-08-07T09:38:18.000Z</time>
      </trkpt>
      <trkpt lat="45.95525" lon="2.16723">
        <ele>429.8</ele>
        <time>2026-08-07T09:38:23.000Z</time>
      </trkpt>
      <trkpt lat="45.95525" lon="2.16723">
        <ele>429.8</ele>
        <time>2026-08-07T09:38:26.000Z</time>
      </trkpt>
      <trkpt lat="45.95522" lon="2.16724">
        <ele>429.6</ele>
        <time>2026-08-07T09:39:24.000Z</time>
      </trkpt>
      <trkpt lat="45.9552" lon="2.16724">
        <ele>429.5</ele>
        <time>2026-08-07T09:39:25.000Z</time>
      </trkpt>
      <trkpt lat="45.95504" lon="2.16723">
        <ele>428.3</ele>
        <time>2026-08-07T09:39:32.000Z</time>
      </trkpt>
      <trkpt lat="45.95485" lon="2.1672">
        <ele>430.7</ele>
        <time>2026-08-07T09:39:39.000Z</time>
      </trkpt>
      <trkpt lat="45.9548" lon="2.16718">
        <ele>431.4</ele>
        <time>2026-08-07T09:39:43.000Z</time>
      </trkpt>
      <trkpt lat="45.95477" lon="2.16716">
        <ele>431.9</ele>
        <time>2026-08-07T09:39:45.000Z</time>
      </trkpt>
      <trkpt lat="45.95469" lon="2.16716">
        <ele>432.6</ele>
        <time>2026-08-07T09:39:48.000Z</time>
      </trkpt>
      <trkpt lat="45.95456" lon="2.16727">
        <ele>432.9</ele>
        <time>2026-08-07T09:39:54.000Z</time>
      </trkpt>
      <trkpt lat="45.95448" lon="2.16749">
        <ele>432.9</ele>
        <time>2026-08-07T09:40:00.000Z</time>
      </trkpt>
      <trkpt lat="45.95444" lon="2.16761">
        <ele>433.1</ele>
        <time>2026-08-07T09:40:04.000Z</time>
      </trkpt>
      <trkpt lat="45.95441" lon="2.16769">
        <ele>433.3</ele>
        <time>2026-08-07T09:40:07.000Z</time>
      </trkpt>
      <trkpt lat="45.9544" lon="2.16778">
        <ele>433.5</ele>
        <time>2026-08-07T09:40:11.000Z</time>
      </trkpt>
      <trkpt lat="45.95438" lon="2.16782">
        <ele>433.5</ele>
        <time>2026-08-07T09:40:13.000Z</time>
      </trkpt>
      <trkpt lat="45.95432" lon="2.16797">
        <ele>433.6</ele>
        <time>2026-08-07T09:40:20.000Z</time>
      </trkpt>
      <trkpt lat="45.95427" lon="2.16812">
        <ele>434.1</ele>
        <time>2026-08-07T09:40:27.000Z</time>
      </trkpt>
      <trkpt lat="45.95427" lon="2.16817">
        <ele>434.2</ele>
        <time>2026-08-07T09:40:29.000Z</time>
      </trkpt>
      <trkpt lat="45.95421" lon="2.1683">
        <ele>435.1</ele>
        <time>2026-08-07T09:40:35.000Z</time>
      </trkpt>
      <trkpt lat="45.95421" lon="2.16832">
        <ele>435.3</ele>
        <time>2026-08-07T09:40:36.000Z</time>
      </trkpt>
      <trkpt lat="45.95418" lon="2.1684">
        <ele>435.8</ele>
        <time>2026-08-07T09:40:39.000Z</time>
      </trkpt>
      <trkpt lat="45.95412" lon="2.16858">
        <ele>436.4</ele>
        <time>2026-08-07T09:40:45.000Z</time>
      </trkpt>
      <trkpt lat="45.9541" lon="2.16863">
        <ele>436.5</ele>
        <time>2026-08-07T09:40:47.000Z</time>
      </trkpt>
      <trkpt lat="45.95407" lon="2.16872">
        <ele>436.9</ele>
        <time>2026-08-07T09:40:50.000Z</time>
      </trkpt>
      <trkpt lat="45.95404" lon="2.1688">
        <ele>437.2</ele>
        <time>2026-08-07T09:40:53.000Z</time>
      </trkpt>
      <trkpt lat="45.95401" lon="2.16891">
        <ele>437.7</ele>
        <time>2026-08-07T09:40:57.000Z</time>
      </trkpt>
      <trkpt lat="45.95398" lon="2.16898">
        <ele>438.1</ele>
        <time>2026-08-07T09:41:00.000Z</time>
      </trkpt>
      <trkpt lat="45.95392" lon="2.16915">
        <ele>439.4</ele>
        <time>2026-08-07T09:41:07.000Z</time>
      </trkpt>
      <trkpt lat="45.95391" lon="2.16917">
        <ele>439.6</ele>
        <time>2026-08-07T09:41:08.000Z</time>
      </trkpt>
      <trkpt lat="45.95387" lon="2.16931">
        <ele>440.7</ele>
        <time>2026-08-07T09:41:14.000Z</time>
      </trkpt>
      <trkpt lat="45.95386" lon="2.16933">
        <ele>440.8</ele>
        <time>2026-08-07T09:41:15.000Z</time>
      </trkpt>
      <trkpt lat="45.9538" lon="2.16951">
        <ele>441.6</ele>
        <time>2026-08-07T09:41:23.000Z</time>
      </trkpt>
      <trkpt lat="45.95375" lon="2.16968">
        <ele>442.4</ele>
        <time>2026-08-07T09:41:30.000Z</time>
      </trkpt>
      <trkpt lat="45.95374" lon="2.1697">
        <ele>442.6</ele>
        <time>2026-08-07T09:41:31.000Z</time>
      </trkpt>
      <trkpt lat="45.95368" lon="2.16988">
        <ele>443.5</ele>
        <time>2026-08-07T09:41:39.000Z</time>
      </trkpt>
      <trkpt lat="45.95365" lon="2.16992">
        <ele>443.7</ele>
        <time>2026-08-07T09:41:41.000Z</time>
      </trkpt>
      <trkpt lat="45.95365" lon="2.16994">
        <ele>443.8</ele>
        <time>2026-08-07T09:41:42.000Z</time>
      </trkpt>
      <trkpt lat="45.95362" lon="2.17001">
        <ele>443.9</ele>
        <time>2026-08-07T09:41:45.000Z</time>
      </trkpt>
      <trkpt lat="45.95356" lon="2.17024">
        <ele>445.1</ele>
        <time>2026-08-07T09:41:55.000Z</time>
      </trkpt>
      <trkpt lat="45.95352" lon="2.1703">
        <ele>445.3</ele>
        <time>2026-08-07T09:41:58.000Z</time>
      </trkpt>
      <trkpt lat="45.95347" lon="2.17036">
        <ele>445.7</ele>
        <time>2026-08-07T09:42:02.000Z</time>
      </trkpt>
      <trkpt lat="45.95341" lon="2.17043">
        <ele>446.1</ele>
        <time>2026-08-07T09:42:07.000Z</time>
      </trkpt>
      <trkpt lat="45.95336" lon="2.17046">
        <ele>446.5</ele>
        <time>2026-08-07T09:42:11.000Z</time>
      </trkpt>
      <trkpt lat="45.95323" lon="2.17054">
        <ele>447.4</ele>
        <time>2026-08-07T09:42:19.000Z</time>
      </trkpt>
      <trkpt lat="45.95318" lon="2.17057">
        <ele>447.6</ele>
        <time>2026-08-07T09:42:22.000Z</time>
      </trkpt>
      <trkpt lat="45.95308" lon="2.17058">
        <ele>447.9</ele>
        <time>2026-08-07T09:42:28.000Z</time>
      </trkpt>
      <trkpt lat="45.95301" lon="2.17059">
        <ele>448.4</ele>
        <time>2026-08-07T09:42:32.000Z</time>
      </trkpt>
      <trkpt lat="45.95294" lon="2.17058">
        <ele>448.9</ele>
        <time>2026-08-07T09:42:36.000Z</time>
      </trkpt>
      <trkpt lat="45.95288" lon="2.17058">
        <ele>449.3</ele>
        <time>2026-08-07T09:42:39.000Z</time>
      </trkpt>
      <trkpt lat="45.95279" lon="2.17054">
        <ele>450</ele>
        <time>2026-08-07T09:42:44.000Z</time>
      </trkpt>
      <trkpt lat="45.95274" lon="2.17053">
        <ele>450.3</ele>
        <time>2026-08-07T09:42:47.000Z</time>
      </trkpt>
      <trkpt lat="45.95264" lon="2.17049">
        <ele>451.1</ele>
        <time>2026-08-07T09:42:54.000Z</time>
      </trkpt>
      <trkpt lat="45.95262" lon="2.17049">
        <ele>451.2</ele>
        <time>2026-08-07T09:42:55.000Z</time>
      </trkpt>
      <trkpt lat="45.95254" lon="2.17046">
        <ele>451.7</ele>
        <time>2026-08-07T09:43:00.000Z</time>
      </trkpt>
      <trkpt lat="45.95251" lon="2.17045">
        <ele>451.9</ele>
        <time>2026-08-07T09:43:02.000Z</time>
      </trkpt>
      <trkpt lat="45.95248" lon="2.17044">
        <ele>452.1</ele>
        <time>2026-08-07T09:43:04.000Z</time>
      </trkpt>
      <trkpt lat="45.9524" lon="2.17043">
        <ele>452.4</ele>
        <time>2026-08-07T09:43:09.000Z</time>
      </trkpt>
      <trkpt lat="45.95236" lon="2.17042">
        <ele>452.5</ele>
        <time>2026-08-07T09:43:11.000Z</time>
      </trkpt>
      <trkpt lat="45.95224" lon="2.17041">
        <ele>452.9</ele>
        <time>2026-08-07T09:43:17.000Z</time>
      </trkpt>
      <trkpt lat="45.95219" lon="2.17039">
        <ele>453.2</ele>
        <time>2026-08-07T09:43:20.000Z</time>
      </trkpt>
      <trkpt lat="45.95214" lon="2.17036">
        <ele>453.4</ele>
        <time>2026-08-07T09:43:23.000Z</time>
      </trkpt>
      <trkpt lat="45.95199" lon="2.17029">
        <ele>453.9</ele>
        <time>2026-08-07T09:43:31.000Z</time>
      </trkpt>
      <trkpt lat="45.95191" lon="2.17027">
        <ele>454.1</ele>
        <time>2026-08-07T09:43:35.000Z</time>
      </trkpt>
      <trkpt lat="45.95187" lon="2.17026">
        <ele>454.3</ele>
        <time>2026-08-07T09:43:37.000Z</time>
      </trkpt>
      <trkpt lat="45.9518" lon="2.17027">
        <ele>454.5</ele>
        <time>2026-08-07T09:43:40.000Z</time>
      </trkpt>
      <trkpt lat="45.95172" lon="2.17024">
        <ele>454.8</ele>
        <time>2026-08-07T09:43:44.000Z</time>
      </trkpt>
      <trkpt lat="45.95164" lon="2.17023">
        <ele>455.4</ele>
        <time>2026-08-07T09:43:48.000Z</time>
      </trkpt>
      <trkpt lat="45.95157" lon="2.17022">
        <ele>456.1</ele>
        <time>2026-08-07T09:43:51.000Z</time>
      </trkpt>
      <trkpt lat="45.95147" lon="2.17019">
        <ele>457.1</ele>
        <time>2026-08-07T09:43:56.000Z</time>
      </trkpt>
      <trkpt lat="45.9513" lon="2.17011">
        <ele>457.5</ele>
        <time>2026-08-07T09:44:03.000Z</time>
      </trkpt>
      <trkpt lat="45.95127" lon="2.17008">
        <ele>457.3</ele>
        <time>2026-08-07T09:44:05.000Z</time>
      </trkpt>
      <trkpt lat="45.95115" lon="2.16996">
        <ele>456.6</ele>
        <time>2026-08-07T09:44:11.000Z</time>
      </trkpt>
      <trkpt lat="45.95104" lon="2.16981">
        <ele>455.9</ele>
        <time>2026-08-07T09:44:18.000Z</time>
      </trkpt>
      <trkpt lat="45.95103" lon="2.16978">
        <ele>455.8</ele>
        <time>2026-08-07T09:44:19.000Z</time>
      </trkpt>
      <trkpt lat="45.95088" lon="2.16954">
        <ele>457.1</ele>
        <time>2026-08-07T09:44:30.000Z</time>
      </trkpt>
      <trkpt lat="45.95086" lon="2.16952">
        <ele>457.5</ele>
        <time>2026-08-07T09:44:31.000Z</time>
      </trkpt>
      <trkpt lat="45.95075" lon="2.16934">
        <ele>457.4</ele>
        <time>2026-08-07T09:44:39.000Z</time>
      </trkpt>
      <trkpt lat="45.95071" lon="2.16928">
        <ele>457.4</ele>
        <time>2026-08-07T09:44:42.000Z</time>
      </trkpt>
      <trkpt lat="45.95065" lon="2.16919">
        <ele>458.4</ele>
        <time>2026-08-07T09:44:46.000Z</time>
      </trkpt>
      <trkpt lat="45.9506" lon="2.16911">
        <ele>459.2</ele>
        <time>2026-08-07T09:44:50.000Z</time>
      </trkpt>
      <trkpt lat="45.95053" lon="2.16901">
        <ele>459.4</ele>
        <time>2026-08-07T09:44:55.000Z</time>
      </trkpt>
      <trkpt lat="45.9505" lon="2.16896">
        <ele>459.4</ele>
        <time>2026-08-07T09:44:57.000Z</time>
      </trkpt>
      <trkpt lat="45.95035" lon="2.16876">
        <ele>461.3</ele>
        <time>2026-08-07T09:45:07.000Z</time>
      </trkpt>
      <trkpt lat="45.95021" lon="2.1686">
        <ele>463.2</ele>
        <time>2026-08-07T09:45:16.000Z</time>
      </trkpt>
      <trkpt lat="45.95019" lon="2.16856">
        <ele>463.5</ele>
        <time>2026-08-07T09:45:18.000Z</time>
      </trkpt>
      <trkpt lat="45.95011" lon="2.1685">
        <ele>464.1</ele>
        <time>2026-08-07T09:45:23.000Z</time>
      </trkpt>
      <trkpt lat="45.95002" lon="2.16846">
        <ele>464.9</ele>
        <time>2026-08-07T09:45:28.000Z</time>
      </trkpt>
      <trkpt lat="45.94998" lon="2.16843">
        <ele>465.2</ele>
        <time>2026-08-07T09:45:31.000Z</time>
      </trkpt>
      <trkpt lat="45.94991" lon="2.16836">
        <ele>465.7</ele>
        <time>2026-08-07T09:45:35.000Z</time>
      </trkpt>
      <trkpt lat="45.94983" lon="2.1683">
        <ele>466.5</ele>
        <time>2026-08-07T09:45:40.000Z</time>
      </trkpt>
      <trkpt lat="45.9498" lon="2.16828">
        <ele>466.8</ele>
        <time>2026-08-07T09:45:42.000Z</time>
      </trkpt>
      <trkpt lat="45.9497" lon="2.16822">
        <ele>467.8</ele>
        <time>2026-08-07T09:45:48.000Z</time>
      </trkpt>
      <trkpt lat="45.94962" lon="2.16817">
        <ele>468</ele>
        <time>2026-08-07T09:45:53.000Z</time>
      </trkpt>
      <trkpt lat="45.9496" lon="2.16816">
        <ele>468.1</ele>
        <time>2026-08-07T09:45:54.000Z</time>
      </trkpt>
      <trkpt lat="45.94951" lon="2.16812">
        <ele>468.2</ele>
        <time>2026-08-07T09:45:59.000Z</time>
      </trkpt>
      <trkpt lat="45.94949" lon="2.1681">
        <ele>468.3</ele>
        <time>2026-08-07T09:46:01.000Z</time>
      </trkpt>
      <trkpt lat="45.94939" lon="2.16804">
        <ele>469</ele>
        <time>2026-08-07T09:46:08.000Z</time>
      </trkpt>
      <trkpt lat="45.94928" lon="2.16796">
        <ele>470.4</ele>
        <time>2026-08-07T09:46:15.000Z</time>
      </trkpt>
      <trkpt lat="45.94923" lon="2.16793">
        <ele>471.2</ele>
        <time>2026-08-07T09:46:18.000Z</time>
      </trkpt>
      <trkpt lat="45.94913" lon="2.16784">
        <ele>472.9</ele>
        <time>2026-08-07T09:46:24.000Z</time>
      </trkpt>
      <trkpt lat="45.94912" lon="2.16783">
        <ele>473</ele>
        <time>2026-08-07T09:46:25.000Z</time>
      </trkpt>
      <trkpt lat="45.94902" lon="2.16776">
        <ele>473.6</ele>
        <time>2026-08-07T09:46:31.000Z</time>
      </trkpt>
      <trkpt lat="45.94899" lon="2.16774">
        <ele>473.8</ele>
        <time>2026-08-07T09:46:33.000Z</time>
      </trkpt>
      <trkpt lat="45.94887" lon="2.16767">
        <ele>473.5</ele>
        <time>2026-08-07T09:46:40.000Z</time>
      </trkpt>
      <trkpt lat="45.94881" lon="2.16762">
        <ele>474.1</ele>
        <time>2026-08-07T09:46:44.000Z</time>
      </trkpt>
      <trkpt lat="45.94875" lon="2.16757">
        <ele>474.3</ele>
        <time>2026-08-07T09:46:48.000Z</time>
      </trkpt>
      <trkpt lat="45.9487" lon="2.16753">
        <ele>474.9</ele>
        <time>2026-08-07T09:46:51.000Z</time>
      </trkpt>
      <trkpt lat="45.94865" lon="2.16751">
        <ele>474.7</ele>
        <time>2026-08-07T09:46:54.000Z</time>
      </trkpt>
      <trkpt lat="45.94848" lon="2.16733">
        <ele>477.4</ele>
        <time>2026-08-07T09:47:05.000Z</time>
      </trkpt>
      <trkpt lat="45.94845" lon="2.1673">
        <ele>477.9</ele>
        <time>2026-08-07T09:47:07.000Z</time>
      </trkpt>
      <trkpt lat="45.94835" lon="2.16719">
        <ele>478.3</ele>
        <time>2026-08-07T09:47:14.000Z</time>
      </trkpt>
      <trkpt lat="45.94826" lon="2.16704">
        <ele>480.6</ele>
        <time>2026-08-07T09:47:22.000Z</time>
      </trkpt>
      <trkpt lat="45.94825" lon="2.16703">
        <ele>480.6</ele>
        <time>2026-08-07T09:47:23.000Z</time>
      </trkpt>
      <trkpt lat="45.9482" lon="2.16697">
        <ele>481</ele>
        <time>2026-08-07T09:47:27.000Z</time>
      </trkpt>
      <trkpt lat="45.94819" lon="2.16695">
        <ele>481.2</ele>
        <time>2026-08-07T09:47:28.000Z</time>
      </trkpt>
      <trkpt lat="45.94811" lon="2.1668">
        <ele>480</ele>
        <time>2026-08-07T09:47:36.000Z</time>
      </trkpt>
      <trkpt lat="45.94803" lon="2.16667">
        <ele>478.9</ele>
        <time>2026-08-07T09:47:43.000Z</time>
      </trkpt>
      <trkpt lat="45.94803" lon="2.16665">
        <ele>479.4</ele>
        <time>2026-08-07T09:47:44.000Z</time>
      </trkpt>
      <trkpt lat="45.94802" lon="2.16663">
        <ele>479.8</ele>
        <time>2026-08-07T09:47:45.000Z</time>
      </trkpt>
      <trkpt lat="45.94796" lon="2.16652">
        <ele>481</ele>
        <time>2026-08-07T09:47:51.000Z</time>
      </trkpt>
      <trkpt lat="45.94793" lon="2.16648">
        <ele>481.5</ele>
        <time>2026-08-07T09:47:53.000Z</time>
      </trkpt>
      <trkpt lat="45.94786" lon="2.16639">
        <ele>482.2</ele>
        <time>2026-08-07T09:47:58.000Z</time>
      </trkpt>
      <trkpt lat="45.94783" lon="2.16636">
        <ele>482</ele>
        <time>2026-08-07T09:48:00.000Z</time>
      </trkpt>
      <trkpt lat="45.94779" lon="2.16631">
        <ele>481.8</ele>
        <time>2026-08-07T09:48:03.000Z</time>
      </trkpt>
      <trkpt lat="45.94775" lon="2.16628">
        <ele>481.3</ele>
        <time>2026-08-07T09:48:06.000Z</time>
      </trkpt>
      <trkpt lat="45.9477" lon="2.16623">
        <ele>481.8</ele>
        <time>2026-08-07T09:48:09.000Z</time>
      </trkpt>
      <trkpt lat="45.94757" lon="2.16616">
        <ele>481.5</ele>
        <time>2026-08-07T09:48:17.000Z</time>
      </trkpt>
      <trkpt lat="45.94755" lon="2.16615">
        <ele>481.4</ele>
        <time>2026-08-07T09:48:18.000Z</time>
      </trkpt>
      <trkpt lat="45.94744" lon="2.1661">
        <ele>482.7</ele>
        <time>2026-08-07T09:48:25.000Z</time>
      </trkpt>
      <trkpt lat="45.9473" lon="2.16607">
        <ele>483.5</ele>
        <time>2026-08-07T09:48:33.000Z</time>
      </trkpt>
      <trkpt lat="45.94716" lon="2.16604">
        <ele>484.3</ele>
        <time>2026-08-07T09:48:41.000Z</time>
      </trkpt>
      <trkpt lat="45.94714" lon="2.16604">
        <ele>484.3</ele>
        <time>2026-08-07T09:48:42.000Z</time>
      </trkpt>
      <trkpt lat="45.94701" lon="2.16599">
        <ele>485.2</ele>
        <time>2026-08-07T09:48:50.000Z</time>
      </trkpt>
      <trkpt lat="45.94698" lon="2.16598">
        <ele>485.4</ele>
        <time>2026-08-07T09:48:52.000Z</time>
      </trkpt>
      <trkpt lat="45.94688" lon="2.16596">
        <ele>486.2</ele>
        <time>2026-08-07T09:48:58.000Z</time>
      </trkpt>
      <trkpt lat="45.94684" lon="2.16596">
        <ele>486.4</ele>
        <time>2026-08-07T09:49:00.000Z</time>
      </trkpt>
      <trkpt lat="45.94677" lon="2.16596">
        <ele>486.7</ele>
        <time>2026-08-07T09:49:05.000Z</time>
      </trkpt>
      <trkpt lat="45.9466" lon="2.16599">
        <ele>488.3</ele>
        <time>2026-08-07T09:49:14.000Z</time>
      </trkpt>
      <trkpt lat="45.94655" lon="2.166">
        <ele>489.4</ele>
        <time>2026-08-07T09:49:17.000Z</time>
      </trkpt>
      <trkpt lat="45.9465" lon="2.16602">
        <ele>490</ele>
        <time>2026-08-07T09:49:20.000Z</time>
      </trkpt>
      <trkpt lat="45.94643" lon="2.16604">
        <ele>490.8</ele>
        <time>2026-08-07T09:49:24.000Z</time>
      </trkpt>
      <trkpt lat="45.94636" lon="2.16604">
        <ele>491.6</ele>
        <time>2026-08-07T09:49:28.000Z</time>
      </trkpt>
      <trkpt lat="45.9463" lon="2.16605">
        <ele>491.5</ele>
        <time>2026-08-07T09:49:32.000Z</time>
      </trkpt>
      <trkpt lat="45.94627" lon="2.16605">
        <ele>491.5</ele>
        <time>2026-08-07T09:49:34.000Z</time>
      </trkpt>
      <trkpt lat="45.94616" lon="2.16608">
        <ele>490.9</ele>
        <time>2026-08-07T09:49:41.000Z</time>
      </trkpt>
      <trkpt lat="45.94615" lon="2.16608">
        <ele>491</ele>
        <time>2026-08-07T09:49:42.000Z</time>
      </trkpt>
      <trkpt lat="45.94612" lon="2.16608">
        <ele>491</ele>
        <time>2026-08-07T09:49:44.000Z</time>
      </trkpt>
      <trkpt lat="45.94603" lon="2.16611">
        <ele>491.1</ele>
        <time>2026-08-07T09:49:49.000Z</time>
      </trkpt>
      <trkpt lat="45.94595" lon="2.16615">
        <ele>490.6</ele>
        <time>2026-08-07T09:49:54.000Z</time>
      </trkpt>
      <trkpt lat="45.9459" lon="2.16618">
        <ele>490.2</ele>
        <time>2026-08-07T09:49:57.000Z</time>
      </trkpt>
      <trkpt lat="45.94581" lon="2.16624">
        <ele>490.4</ele>
        <time>2026-08-07T09:50:02.000Z</time>
      </trkpt>
      <trkpt lat="45.94569" lon="2.16631">
        <ele>492.8</ele>
        <time>2026-08-07T09:50:08.000Z</time>
      </trkpt>
      <trkpt lat="45.94568" lon="2.16631">
        <ele>493.1</ele>
        <time>2026-08-07T09:50:09.000Z</time>
      </trkpt>
      <trkpt lat="45.94562" lon="2.16637">
        <ele>492.9</ele>
        <time>2026-08-07T09:50:14.000Z</time>
      </trkpt>
      <trkpt lat="45.9456" lon="2.16641">
        <ele>491.9</ele>
        <time>2026-08-07T09:50:16.000Z</time>
      </trkpt>
      <trkpt lat="45.94558" lon="2.16642">
        <ele>492</ele>
        <time>2026-08-07T09:50:18.000Z</time>
      </trkpt>
      <trkpt lat="45.94554" lon="2.16647">
        <ele>492.2</ele>
        <time>2026-08-07T09:50:21.000Z</time>
      </trkpt>
      <trkpt lat="45.94552" lon="2.16647">
        <ele>492.7</ele>
        <time>2026-08-07T09:50:22.000Z</time>
      </trkpt>
      <trkpt lat="45.94548" lon="2.16652">
        <ele>493.1</ele>
        <time>2026-08-07T09:50:25.000Z</time>
      </trkpt>
      <trkpt lat="45.94547" lon="2.16653">
        <ele>493.2</ele>
        <time>2026-08-07T09:50:26.000Z</time>
      </trkpt>
      <trkpt lat="45.94542" lon="2.16656">
        <ele>493.7</ele>
        <time>2026-08-07T09:50:30.000Z</time>
      </trkpt>
      <trkpt lat="45.94535" lon="2.16662">
        <ele>494.3</ele>
        <time>2026-08-07T09:50:35.000Z</time>
      </trkpt>
      <trkpt lat="45.94533" lon="2.16664">
        <ele>494.4</ele>
        <time>2026-08-07T09:50:37.000Z</time>
      </trkpt>
      <trkpt lat="45.94532" lon="2.16665">
        <ele>494.3</ele>
        <time>2026-08-07T09:50:38.000Z</time>
      </trkpt>
      <trkpt lat="45.94525" lon="2.1667">
        <ele>494</ele>
        <time>2026-08-07T09:50:43.000Z</time>
      </trkpt>
      <trkpt lat="45.94523" lon="2.1667">
        <ele>494.2</ele>
        <time>2026-08-07T09:50:44.000Z</time>
      </trkpt>
      <trkpt lat="45.94517" lon="2.16669">
        <ele>495</ele>
        <time>2026-08-07T09:50:47.000Z</time>
      </trkpt>
      <trkpt lat="45.94514" lon="2.16669">
        <ele>495.5</ele>
        <time>2026-08-07T09:50:49.000Z</time>
      </trkpt>
      <trkpt lat="45.94501" lon="2.16667">
        <ele>496.9</ele>
        <time>2026-08-07T09:50:56.000Z</time>
      </trkpt>
      <trkpt lat="45.94491" lon="2.16671">
        <ele>497.6</ele>
        <time>2026-08-07T09:51:02.000Z</time>
      </trkpt>
      <trkpt lat="45.94486" lon="2.16669">
        <ele>498.4</ele>
        <time>2026-08-07T09:51:05.000Z</time>
      </trkpt>
      <trkpt lat="45.94483" lon="2.1667">
        <ele>498.6</ele>
        <time>2026-08-07T09:51:07.000Z</time>
      </trkpt>
      <trkpt lat="45.94481" lon="2.1667">
        <ele>498.8</ele>
        <time>2026-08-07T09:51:08.000Z</time>
      </trkpt>
      <trkpt lat="45.9448" lon="2.16671">
        <ele>498.9</ele>
        <time>2026-08-07T09:51:09.000Z</time>
      </trkpt>
      <trkpt lat="45.94474" lon="2.16677">
        <ele>499.1</ele>
        <time>2026-08-07T09:51:15.000Z</time>
      </trkpt>
      <trkpt lat="45.9447" lon="2.16683">
        <ele>499.9</ele>
        <time>2026-08-07T09:51:19.000Z</time>
      </trkpt>
      <trkpt lat="45.94467" lon="2.16692">
        <ele>501</ele>
        <time>2026-08-07T09:51:24.000Z</time>
      </trkpt>
      <trkpt lat="45.94467" lon="2.16694">
        <ele>500.9</ele>
        <time>2026-08-07T09:51:25.000Z</time>
      </trkpt>
      <trkpt lat="45.94468" lon="2.16696">
        <ele>500.7</ele>
        <time>2026-08-07T09:51:26.000Z</time>
      </trkpt>
      <trkpt lat="45.94466" lon="2.16703">
        <ele>501.6</ele>
        <time>2026-08-07T09:51:29.000Z</time>
      </trkpt>
      <trkpt lat="45.94465" lon="2.16707">
        <ele>502.3</ele>
        <time>2026-08-07T09:51:31.000Z</time>
      </trkpt>
      <trkpt lat="45.94465" lon="2.1672">
        <ele>503.2</ele>
        <time>2026-08-07T09:51:37.000Z</time>
      </trkpt>
      <trkpt lat="45.94464" lon="2.16723">
        <ele>503.8</ele>
        <time>2026-08-07T09:51:38.000Z</time>
      </trkpt>
      <trkpt lat="45.94463" lon="2.16725">
        <ele>504.2</ele>
        <time>2026-08-07T09:51:39.000Z</time>
      </trkpt>
      <trkpt lat="45.94463" lon="2.16729">
        <ele>504.4</ele>
        <time>2026-08-07T09:51:41.000Z</time>
      </trkpt>
      <trkpt lat="45.94459" lon="2.1675">
        <ele>506.6</ele>
        <time>2026-08-07T09:51:49.000Z</time>
      </trkpt>
      <trkpt lat="45.94459" lon="2.16753">
        <ele>506.5</ele>
        <time>2026-08-07T09:51:50.000Z</time>
      </trkpt>
      <trkpt lat="45.94451" lon="2.16772">
        <ele>507.7</ele>
        <time>2026-08-07T09:51:57.000Z</time>
      </trkpt>
      <trkpt lat="45.94452" lon="2.16782">
        <ele>505.5</ele>
        <time>2026-08-07T09:52:01.000Z</time>
      </trkpt>
      <trkpt lat="45.9445" lon="2.1679">
        <ele>505.2</ele>
        <time>2026-08-07T09:52:04.000Z</time>
      </trkpt>
      <trkpt lat="45.94446" lon="2.168">
        <ele>505.3</ele>
        <time>2026-08-07T09:52:09.000Z</time>
      </trkpt>
      <trkpt lat="45.94445" lon="2.16807">
        <ele>504.9</ele>
        <time>2026-08-07T09:52:12.000Z</time>
      </trkpt>
      <trkpt lat="45.9444" lon="2.16822">
        <ele>506.8</ele>
        <time>2026-08-07T09:52:19.000Z</time>
      </trkpt>
      <trkpt lat="45.9444" lon="2.16826">
        <ele>506.9</ele>
        <time>2026-08-07T09:52:21.000Z</time>
      </trkpt>
      <trkpt lat="45.94438" lon="2.16838">
        <ele>507.7</ele>
        <time>2026-08-07T09:52:26.000Z</time>
      </trkpt>
      <trkpt lat="45.94437" lon="2.16843">
        <ele>508.3</ele>
        <time>2026-08-07T09:52:28.000Z</time>
      </trkpt>
      <trkpt lat="45.94434" lon="2.16856">
        <ele>509.5</ele>
        <time>2026-08-07T09:52:33.000Z</time>
      </trkpt>
      <trkpt lat="45.94433" lon="2.16863">
        <ele>509.7</ele>
        <time>2026-08-07T09:52:36.000Z</time>
      </trkpt>
      <trkpt lat="45.94432" lon="2.16871">
        <ele>509.2</ele>
        <time>2026-08-07T09:52:39.000Z</time>
      </trkpt>
      <trkpt lat="45.94424" lon="2.16887">
        <ele>510.7</ele>
        <time>2026-08-07T09:52:46.000Z</time>
      </trkpt>
      <trkpt lat="45.94415" lon="2.16899">
        <ele>512.3</ele>
        <time>2026-08-07T09:52:52.000Z</time>
      </trkpt>
      <trkpt lat="45.94409" lon="2.16904">
        <ele>511.9</ele>
        <time>2026-08-07T09:52:56.000Z</time>
      </trkpt>
      <trkpt lat="45.94397" lon="2.16907">
        <ele>512.5</ele>
        <time>2026-08-07T09:53:03.000Z</time>
      </trkpt>
      <trkpt lat="45.94391" lon="2.16907">
        <ele>513</ele>
        <time>2026-08-07T09:53:06.000Z</time>
      </trkpt>
      <trkpt lat="45.94386" lon="2.16905">
        <ele>513.2</ele>
        <time>2026-08-07T09:53:09.000Z</time>
      </trkpt>
      <trkpt lat="45.94379" lon="2.16901">
        <ele>513.5</ele>
        <time>2026-08-07T09:53:13.000Z</time>
      </trkpt>
      <trkpt lat="45.9437" lon="2.16893">
        <ele>514.1</ele>
        <time>2026-08-07T09:53:19.000Z</time>
      </trkpt>
      <trkpt lat="45.94364" lon="2.16889">
        <ele>514.4</ele>
        <time>2026-08-07T09:53:23.000Z</time>
      </trkpt>
      <trkpt lat="45.94352" lon="2.16879">
        <ele>514.3</ele>
        <time>2026-08-07T09:53:31.000Z</time>
      </trkpt>
      <trkpt lat="45.94343" lon="2.1687">
        <ele>514.8</ele>
        <time>2026-08-07T09:53:37.000Z</time>
      </trkpt>
      <trkpt lat="45.94334" lon="2.16864">
        <ele>514.5</ele>
        <time>2026-08-07T09:53:43.000Z</time>
      </trkpt>
      <trkpt lat="45.9433" lon="2.16859">
        <ele>515.4</ele>
        <time>2026-08-07T09:53:46.000Z</time>
      </trkpt>
      <trkpt lat="45.94317" lon="2.16847">
        <ele>517.1</ele>
        <time>2026-08-07T09:53:55.000Z</time>
      </trkpt>
      <trkpt lat="45.94314" lon="2.16844">
        <ele>517.4</ele>
        <time>2026-08-07T09:53:57.000Z</time>
      </trkpt>
      <trkpt lat="45.94301" lon="2.16832">
        <ele>518.1</ele>
        <time>2026-08-07T09:54:06.000Z</time>
      </trkpt>
      <trkpt lat="45.94298" lon="2.1683">
        <ele>518.5</ele>
        <time>2026-08-07T09:54:08.000Z</time>
      </trkpt>
      <trkpt lat="45.94292" lon="2.16824">
        <ele>519.5</ele>
        <time>2026-08-07T09:54:12.000Z</time>
      </trkpt>
      <trkpt lat="45.94283" lon="2.16816">
        <ele>520.2</ele>
        <time>2026-08-07T09:54:18.000Z</time>
      </trkpt>
      <trkpt lat="45.94276" lon="2.16809">
        <ele>520</ele>
        <time>2026-08-07T09:54:23.000Z</time>
      </trkpt>
      <trkpt lat="45.94264" lon="2.16798">
        <ele>520.7</ele>
        <time>2026-08-07T09:54:31.000Z</time>
      </trkpt>
      <trkpt lat="45.94259" lon="2.16794">
        <ele>520.9</ele>
        <time>2026-08-07T09:54:34.000Z</time>
      </trkpt>
      <trkpt lat="45.94249" lon="2.16784">
        <ele>521.6</ele>
        <time>2026-08-07T09:54:41.000Z</time>
      </trkpt>
      <trkpt lat="45.94248" lon="2.16783">
        <ele>521.8</ele>
        <time>2026-08-07T09:54:42.000Z</time>
      </trkpt>
      <trkpt lat="45.94245" lon="2.1678">
        <ele>522.2</ele>
        <time>2026-08-07T09:54:44.000Z</time>
      </trkpt>
      <trkpt lat="45.9424" lon="2.16775">
        <ele>522.8</ele>
        <time>2026-08-07T09:54:47.000Z</time>
      </trkpt>
      <trkpt lat="45.94237" lon="2.16772">
        <ele>523</ele>
        <time>2026-08-07T09:54:49.000Z</time>
      </trkpt>
      <trkpt lat="45.94221" lon="2.16756">
        <ele>524.1</ele>
        <time>2026-08-07T09:55:00.000Z</time>
      </trkpt>
      <trkpt lat="45.94215" lon="2.16752">
        <ele>524.5</ele>
        <time>2026-08-07T09:55:03.000Z</time>
      </trkpt>
      <trkpt lat="45.94208" lon="2.16747">
        <ele>524.9</ele>
        <time>2026-08-07T09:55:08.000Z</time>
      </trkpt>
      <trkpt lat="45.94207" lon="2.16745">
        <ele>525.1</ele>
        <time>2026-08-07T09:55:09.000Z</time>
      </trkpt>
      <trkpt lat="45.94205" lon="2.16742">
        <ele>525.4</ele>
        <time>2026-08-07T09:55:11.000Z</time>
      </trkpt>
      <trkpt lat="45.94203" lon="2.16741">
        <ele>525.5</ele>
        <time>2026-08-07T09:55:13.000Z</time>
      </trkpt>
      <trkpt lat="45.942" lon="2.16739">
        <ele>525.8</ele>
        <time>2026-08-07T09:55:15.000Z</time>
      </trkpt>
      <trkpt lat="45.94197" lon="2.16736">
        <ele>526</ele>
        <time>2026-08-07T09:55:17.000Z</time>
      </trkpt>
      <trkpt lat="45.94191" lon="2.1673">
        <ele>526.5</ele>
        <time>2026-08-07T09:55:22.000Z</time>
      </trkpt>
      <trkpt lat="45.94182" lon="2.16724">
        <ele>526.3</ele>
        <time>2026-08-07T09:55:28.000Z</time>
      </trkpt>
      <trkpt lat="45.94176" lon="2.16718">
        <ele>527</ele>
        <time>2026-08-07T09:55:33.000Z</time>
      </trkpt>
      <trkpt lat="45.94175" lon="2.16717">
        <ele>527.2</ele>
        <time>2026-08-07T09:55:34.000Z</time>
      </trkpt>
      <trkpt lat="45.9417" lon="2.16714">
        <ele>527.5</ele>
        <time>2026-08-07T09:55:37.000Z</time>
      </trkpt>
      <trkpt lat="45.94165" lon="2.16709">
        <ele>528</ele>
        <time>2026-08-07T09:55:40.000Z</time>
      </trkpt>
      <trkpt lat="45.94161" lon="2.16703">
        <ele>528.8</ele>
        <time>2026-08-07T09:55:43.000Z</time>
      </trkpt>
      <trkpt lat="45.94158" lon="2.16701">
        <ele>528.8</ele>
        <time>2026-08-07T09:55:45.000Z</time>
      </trkpt>
      <trkpt lat="45.94149" lon="2.16697">
        <ele>528.6</ele>
        <time>2026-08-07T09:55:51.000Z</time>
      </trkpt>
      <trkpt lat="45.94146" lon="2.16695">
        <ele>528.8</ele>
        <time>2026-08-07T09:55:53.000Z</time>
      </trkpt>
      <trkpt lat="45.94138" lon="2.16689">
        <ele>529.6</ele>
        <time>2026-08-07T09:55:58.000Z</time>
      </trkpt>
      <trkpt lat="45.94134" lon="2.16687">
        <ele>530.3</ele>
        <time>2026-08-07T09:56:01.000Z</time>
      </trkpt>
      <trkpt lat="45.94131" lon="2.16685">
        <ele>530.7</ele>
        <time>2026-08-07T09:56:04.000Z</time>
      </trkpt>
      <trkpt lat="45.9412" lon="2.16682">
        <ele>531</ele>
        <time>2026-08-07T09:56:12.000Z</time>
      </trkpt>
      <trkpt lat="45.94113" lon="2.16684">
        <ele>530.2</ele>
        <time>2026-08-07T09:56:16.000Z</time>
      </trkpt>
      <trkpt lat="45.94106" lon="2.16686">
        <ele>530.5</ele>
        <time>2026-08-07T09:56:21.000Z</time>
      </trkpt>
      <trkpt lat="45.94099" lon="2.16688">
        <ele>531.4</ele>
        <time>2026-08-07T09:56:25.000Z</time>
      </trkpt>
      <trkpt lat="45.94094" lon="2.16692">
        <ele>531.5</ele>
        <time>2026-08-07T09:56:28.000Z</time>
      </trkpt>
      <trkpt lat="45.94092" lon="2.16693">
        <ele>531.6</ele>
        <time>2026-08-07T09:56:29.000Z</time>
      </trkpt>
      <trkpt lat="45.94085" lon="2.16698">
        <ele>531.5</ele>
        <time>2026-08-07T09:56:33.000Z</time>
      </trkpt>
      <trkpt lat="45.94074" lon="2.16702">
        <ele>533.9</ele>
        <time>2026-08-07T09:56:39.000Z</time>
      </trkpt>
      <trkpt lat="45.94071" lon="2.16704">
        <ele>534.3</ele>
        <time>2026-08-07T09:56:41.000Z</time>
      </trkpt>
      <trkpt lat="45.94058" lon="2.16712">
        <ele>536.3</ele>
        <time>2026-08-07T09:56:48.000Z</time>
      </trkpt>
      <trkpt lat="45.94049" lon="2.16715">
        <ele>536.9</ele>
        <time>2026-08-07T09:56:54.000Z</time>
      </trkpt>
      <trkpt lat="45.94047" lon="2.16716">
        <ele>536.7</ele>
        <time>2026-08-07T09:56:55.000Z</time>
      </trkpt>
      <trkpt lat="45.94035" lon="2.16721">
        <ele>536.1</ele>
        <time>2026-08-07T09:57:02.000Z</time>
      </trkpt>
      <trkpt lat="45.94032" lon="2.16721">
        <ele>536</ele>
        <time>2026-08-07T09:57:03.000Z</time>
      </trkpt>
      <trkpt lat="45.94024" lon="2.16722">
        <ele>536.4</ele>
        <time>2026-08-07T09:57:07.000Z</time>
      </trkpt>
      <trkpt lat="45.94016" lon="2.1672">
        <ele>537.6</ele>
        <time>2026-08-07T09:57:12.000Z</time>
      </trkpt>
      <trkpt lat="45.94014" lon="2.1672">
        <ele>537.8</ele>
        <time>2026-08-07T09:57:13.000Z</time>
      </trkpt>
      <trkpt lat="45.94004" lon="2.16717">
        <ele>539.3</ele>
        <time>2026-08-07T09:57:19.000Z</time>
      </trkpt>
      <trkpt lat="45.93995" lon="2.16716">
        <ele>539.9</ele>
        <time>2026-08-07T09:57:24.000Z</time>
      </trkpt>
      <trkpt lat="45.93991" lon="2.16716">
        <ele>540.1</ele>
        <time>2026-08-07T09:57:26.000Z</time>
      </trkpt>
      <trkpt lat="45.93989" lon="2.16715">
        <ele>540.2</ele>
        <time>2026-08-07T09:57:27.000Z</time>
      </trkpt>
      <trkpt lat="45.93977" lon="2.16714">
        <ele>540.7</ele>
        <time>2026-08-07T09:57:34.000Z</time>
      </trkpt>
      <trkpt lat="45.9397" lon="2.16713">
        <ele>541.1</ele>
        <time>2026-08-07T09:57:38.000Z</time>
      </trkpt>
      <trkpt lat="45.93966" lon="2.16713">
        <ele>541.2</ele>
        <time>2026-08-07T09:57:40.000Z</time>
      </trkpt>
      <trkpt lat="45.93954" lon="2.1671">
        <ele>541.9</ele>
        <time>2026-08-07T09:57:48.000Z</time>
      </trkpt>
      <trkpt lat="45.93953" lon="2.1671">
        <ele>542</ele>
        <time>2026-08-07T09:57:49.000Z</time>
      </trkpt>
      <trkpt lat="45.93939" lon="2.16709">
        <ele>542.5</ele>
        <time>2026-08-07T09:57:57.000Z</time>
      </trkpt>
      <trkpt lat="45.93925" lon="2.16706">
        <ele>543.1</ele>
        <time>2026-08-07T09:58:05.000Z</time>
      </trkpt>
      <trkpt lat="45.93923" lon="2.16706">
        <ele>543.1</ele>
        <time>2026-08-07T09:58:06.000Z</time>
      </trkpt>
      <trkpt lat="45.93919" lon="2.16704">
        <ele>543.3</ele>
        <time>2026-08-07T09:58:08.000Z</time>
      </trkpt>
      <trkpt lat="45.93914" lon="2.16701">
        <ele>543.6</ele>
        <time>2026-08-07T09:58:11.000Z</time>
      </trkpt>
      <trkpt lat="45.93903" lon="2.16691">
        <ele>544.8</ele>
        <time>2026-08-07T09:58:18.000Z</time>
      </trkpt>
      <trkpt lat="45.93896" lon="2.16681">
        <ele>545.6</ele>
        <time>2026-08-07T09:58:23.000Z</time>
      </trkpt>
      <trkpt lat="45.93893" lon="2.16676">
        <ele>545.8</ele>
        <time>2026-08-07T09:58:26.000Z</time>
      </trkpt>
      <trkpt lat="45.9389" lon="2.16668">
        <ele>546</ele>
        <time>2026-08-07T09:58:30.000Z</time>
      </trkpt>
      <trkpt lat="45.93888" lon="2.1666">
        <ele>546.4</ele>
        <time>2026-08-07T09:58:33.000Z</time>
      </trkpt>
      <trkpt lat="45.93883" lon="2.16643">
        <ele>547.3</ele>
        <time>2026-08-07T09:58:40.000Z</time>
      </trkpt>
      <trkpt lat="45.93879" lon="2.16634">
        <ele>547.4</ele>
        <time>2026-08-07T09:58:44.000Z</time>
      </trkpt>
      <trkpt lat="45.93876" lon="2.16622">
        <ele>547.3</ele>
        <time>2026-08-07T09:58:49.000Z</time>
      </trkpt>
      <trkpt lat="45.93871" lon="2.16604">
        <ele>547.9</ele>
        <time>2026-08-07T09:58:57.000Z</time>
      </trkpt>
      <trkpt lat="45.93869" lon="2.166">
        <ele>548.1</ele>
        <time>2026-08-07T09:58:59.000Z</time>
      </trkpt>
      <trkpt lat="45.93867" lon="2.16597">
        <ele>548.2</ele>
        <time>2026-08-07T09:59:01.000Z</time>
      </trkpt>
      <trkpt lat="45.93865" lon="2.16586">
        <ele>548.9</ele>
        <time>2026-08-07T09:59:05.000Z</time>
      </trkpt>
      <trkpt lat="45.93864" lon="2.16583">
        <ele>549.2</ele>
        <time>2026-08-07T09:59:06.000Z</time>
      </trkpt>
      <trkpt lat="45.93862" lon="2.16575">
        <ele>549.7</ele>
        <time>2026-08-07T09:59:10.000Z</time>
      </trkpt>
      <trkpt lat="45.93862" lon="2.16572">
        <ele>549.8</ele>
        <time>2026-08-07T09:59:11.000Z</time>
      </trkpt>
      <trkpt lat="45.9386" lon="2.16566">
        <ele>550.1</ele>
        <time>2026-08-07T09:59:14.000Z</time>
      </trkpt>
      <trkpt lat="45.93857" lon="2.16558">
        <ele>550.5</ele>
        <time>2026-08-07T09:59:17.000Z</time>
      </trkpt>
      <trkpt lat="45.93855" lon="2.16552">
        <ele>550.7</ele>
        <time>2026-08-07T09:59:19.000Z</time>
      </trkpt>
      <trkpt lat="45.93852" lon="2.1654">
        <ele>551.1</ele>
        <time>2026-08-07T09:59:24.000Z</time>
      </trkpt>
      <trkpt lat="45.93851" lon="2.16539">
        <ele>551</ele>
        <time>2026-08-07T09:59:25.000Z</time>
      </trkpt>
      <trkpt lat="45.9385" lon="2.16535">
        <ele>551.2</ele>
        <time>2026-08-07T09:59:27.000Z</time>
      </trkpt>
      <trkpt lat="45.93847" lon="2.16526">
        <ele>551.6</ele>
        <time>2026-08-07T09:59:31.000Z</time>
      </trkpt>
      <trkpt lat="45.93847" lon="2.16522">
        <ele>551.9</ele>
        <time>2026-08-07T09:59:33.000Z</time>
      </trkpt>
      <trkpt lat="45.93844" lon="2.16511">
        <ele>552.6</ele>
        <time>2026-08-07T09:59:37.000Z</time>
      </trkpt>
      <trkpt lat="45.93841" lon="2.16501">
        <ele>553.2</ele>
        <time>2026-08-07T09:59:41.000Z</time>
      </trkpt>
      <trkpt lat="45.93839" lon="2.16497">
        <ele>553.4</ele>
        <time>2026-08-07T09:59:43.000Z</time>
      </trkpt>
      <trkpt lat="45.93834" lon="2.16484">
        <ele>554.1</ele>
        <time>2026-08-07T09:59:48.000Z</time>
      </trkpt>
      <trkpt lat="45.93833" lon="2.16479">
        <ele>554.5</ele>
        <time>2026-08-07T09:59:50.000Z</time>
      </trkpt>
      <trkpt lat="45.93825" lon="2.16469">
        <ele>555.4</ele>
        <time>2026-08-07T09:59:55.000Z</time>
      </trkpt>
      <trkpt lat="45.93822" lon="2.16462">
        <ele>555.6</ele>
        <time>2026-08-07T09:59:58.000Z</time>
      </trkpt>
      <trkpt lat="45.93814" lon="2.16445">
        <ele>556</ele>
        <time>2026-08-07T10:00:05.000Z</time>
      </trkpt>
      <trkpt lat="45.93811" lon="2.1644">
        <ele>556.1</ele>
        <time>2026-08-07T10:00:07.000Z</time>
      </trkpt>
      <trkpt lat="45.93799" lon="2.16427">
        <ele>556.6</ele>
        <time>2026-08-07T10:00:15.000Z</time>
      </trkpt>
      <trkpt lat="45.93788" lon="2.1642">
        <ele>556.9</ele>
        <time>2026-08-07T10:00:21.000Z</time>
      </trkpt>
      <trkpt lat="45.93783" lon="2.16417">
        <ele>557</ele>
        <time>2026-08-07T10:00:24.000Z</time>
      </trkpt>
      <trkpt lat="45.9377" lon="2.16406">
        <ele>557.6</ele>
        <time>2026-08-07T10:00:31.000Z</time>
      </trkpt>
      <trkpt lat="45.93753" lon="2.16393">
        <ele>558</ele>
        <time>2026-08-07T10:00:39.000Z</time>
      </trkpt>
      <trkpt lat="45.93742" lon="2.16383">
        <ele>558.4</ele>
        <time>2026-08-07T10:00:44.000Z</time>
      </trkpt>
      <trkpt lat="45.9374" lon="2.16382">
        <ele>558.5</ele>
        <time>2026-08-07T10:00:45.000Z</time>
      </trkpt>
      <trkpt lat="45.93728" lon="2.16375">
        <ele>558.9</ele>
        <time>2026-08-07T10:00:51.000Z</time>
      </trkpt>
      <trkpt lat="45.93726" lon="2.16374">
        <ele>558.9</ele>
        <time>2026-08-07T10:00:52.000Z</time>
      </trkpt>
      <trkpt lat="45.93709" lon="2.16362">
        <ele>559.5</ele>
        <time>2026-08-07T10:00:59.000Z</time>
      </trkpt>
      <trkpt lat="45.93699" lon="2.16357">
        <ele>559.8</ele>
        <time>2026-08-07T10:01:03.000Z</time>
      </trkpt>
      <trkpt lat="45.93691" lon="2.16353">
        <ele>560</ele>
        <time>2026-08-07T10:01:06.000Z</time>
      </trkpt>
      <trkpt lat="45.93683" lon="2.16348">
        <ele>560</ele>
        <time>2026-08-07T10:01:12.000Z</time>
      </trkpt>
      <trkpt lat="45.93683" lon="2.16348">
        <ele>560</ele>
        <time>2026-08-07T10:01:14.000Z</time>
      </trkpt>
      <trkpt lat="45.93673" lon="2.16338">
        <ele>560</ele>
        <time>2026-08-07T10:14:04.000Z</time>
      </trkpt>
      <trkpt lat="45.93671" lon="2.16336">
        <ele>560</ele>
        <time>2026-08-07T10:14:06.000Z</time>
      </trkpt>
      <trkpt lat="45.93663" lon="2.16327">
        <ele>560</ele>
        <time>2026-08-07T10:14:13.000Z</time>
      </trkpt>
      <trkpt lat="45.93649" lon="2.16319">
        <ele>560</ele>
        <time>2026-08-07T10:14:21.000Z</time>
      </trkpt>
      <trkpt lat="45.93647" lon="2.16318">
        <ele>560</ele>
        <time>2026-08-07T10:14:22.000Z</time>
      </trkpt>
      <trkpt lat="45.93638" lon="2.16311">
        <ele>560</ele>
        <time>2026-08-07T10:14:27.000Z</time>
      </trkpt>
      <trkpt lat="45.93621" lon="2.163">
        <ele>560.7</ele>
        <time>2026-08-07T10:14:35.000Z</time>
      </trkpt>
      <trkpt lat="45.93605" lon="2.16288">
        <ele>560.9</ele>
        <time>2026-08-07T10:14:42.000Z</time>
      </trkpt>
      <trkpt lat="45.93581" lon="2.16271">
        <ele>561</ele>
        <time>2026-08-07T10:14:52.000Z</time>
      </trkpt>
      <trkpt lat="45.93556" lon="2.16254">
        <ele>561</ele>
        <time>2026-08-07T10:15:02.000Z</time>
      </trkpt>
      <trkpt lat="45.93541" lon="2.16243">
        <ele>561.4</ele>
        <time>2026-08-07T10:15:08.000Z</time>
      </trkpt>
      <trkpt lat="45.93528" lon="2.16234">
        <ele>561.4</ele>
        <time>2026-08-07T10:15:13.000Z</time>
      </trkpt>
      <trkpt lat="45.93501" lon="2.16214">
        <ele>560.7</ele>
        <time>2026-08-07T10:15:22.000Z</time>
      </trkpt>
      <trkpt lat="45.93475" lon="2.16196">
        <ele>560.9</ele>
        <time>2026-08-07T10:15:30.000Z</time>
      </trkpt>
      <trkpt lat="45.93456" lon="2.16182">
        <ele>560.5</ele>
        <time>2026-08-07T10:15:36.000Z</time>
      </trkpt>
      <trkpt lat="45.93434" lon="2.16166">
        <ele>561</ele>
        <time>2026-08-07T10:15:43.000Z</time>
      </trkpt>
      <trkpt lat="45.93403" lon="2.16144">
        <ele>561</ele>
        <time>2026-08-07T10:15:53.000Z</time>
      </trkpt>
      <trkpt lat="45.9338" lon="2.16128">
        <ele>561.6</ele>
        <time>2026-08-07T10:16:01.000Z</time>
      </trkpt>
      <trkpt lat="45.93371" lon="2.16121">
        <ele>561.9</ele>
        <time>2026-08-07T10:16:04.000Z</time>
      </trkpt>
      <trkpt lat="45.93347" lon="2.16106">
        <ele>562.3</ele>
        <time>2026-08-07T10:16:12.000Z</time>
      </trkpt>
      <trkpt lat="45.93333" lon="2.16096">
        <ele>562.4</ele>
        <time>2026-08-07T10:16:17.000Z</time>
      </trkpt>
      <trkpt lat="45.93327" lon="2.16091">
        <ele>562.3</ele>
        <time>2026-08-07T10:16:19.000Z</time>
      </trkpt>
      <trkpt lat="45.93299" lon="2.16074">
        <ele>562</ele>
        <time>2026-08-07T10:16:28.000Z</time>
      </trkpt>
      <trkpt lat="45.93296" lon="2.16072">
        <ele>562</ele>
        <time>2026-08-07T10:16:29.000Z</time>
      </trkpt>
      <trkpt lat="45.93265" lon="2.16049">
        <ele>562</ele>
        <time>2026-08-07T10:16:38.000Z</time>
      </trkpt>
      <trkpt lat="45.9325" lon="2.16037">
        <ele>562</ele>
        <time>2026-08-07T10:16:43.000Z</time>
      </trkpt>
      <trkpt lat="45.93221" lon="2.16015">
        <ele>562.5</ele>
        <time>2026-08-07T10:16:53.000Z</time>
      </trkpt>
      <trkpt lat="45.93218" lon="2.16014">
        <ele>562.6</ele>
        <time>2026-08-07T10:16:54.000Z</time>
      </trkpt>
      <trkpt lat="45.93197" lon="2.16006">
        <ele>563</ele>
        <time>2026-08-07T10:17:00.000Z</time>
      </trkpt>
      <trkpt lat="45.93188" lon="2.15997">
        <ele>563.2</ele>
        <time>2026-08-07T10:17:04.000Z</time>
      </trkpt>
      <trkpt lat="45.93183" lon="2.15993">
        <ele>563.5</ele>
        <time>2026-08-07T10:17:06.000Z</time>
      </trkpt>
      <trkpt lat="45.93171" lon="2.15983">
        <ele>564.2</ele>
        <time>2026-08-07T10:17:11.000Z</time>
      </trkpt>
      <trkpt lat="45.93153" lon="2.15967">
        <ele>565.7</ele>
        <time>2026-08-07T10:17:18.000Z</time>
      </trkpt>
      <trkpt lat="45.93147" lon="2.1596">
        <ele>566</ele>
        <time>2026-08-07T10:17:21.000Z</time>
      </trkpt>
      <trkpt lat="45.9314" lon="2.15953">
        <ele>566</ele>
        <time>2026-08-07T10:17:24.000Z</time>
      </trkpt>
      <trkpt lat="45.93119" lon="2.15933">
        <ele>566.5</ele>
        <time>2026-08-07T10:17:33.000Z</time>
      </trkpt>
      <trkpt lat="45.93115" lon="2.15929">
        <ele>566.6</ele>
        <time>2026-08-07T10:17:35.000Z</time>
      </trkpt>
      <trkpt lat="45.93092" lon="2.15908">
        <ele>567.9</ele>
        <time>2026-08-07T10:17:45.000Z</time>
      </trkpt>
      <trkpt lat="45.93085" lon="2.15902">
        <ele>568</ele>
        <time>2026-08-07T10:17:48.000Z</time>
      </trkpt>
      <trkpt lat="45.9308" lon="2.15899">
        <ele>568.1</ele>
        <time>2026-08-07T10:17:50.000Z</time>
      </trkpt>
      <trkpt lat="45.93074" lon="2.15893">
        <ele>568.4</ele>
        <time>2026-08-07T10:17:53.000Z</time>
      </trkpt>
      <trkpt lat="45.93056" lon="2.15876">
        <ele>569</ele>
        <time>2026-08-07T10:18:01.000Z</time>
      </trkpt>
      <trkpt lat="45.93047" lon="2.15867">
        <ele>569</ele>
        <time>2026-08-07T10:18:05.000Z</time>
      </trkpt>
      <trkpt lat="45.93036" lon="2.15857">
        <ele>569</ele>
        <time>2026-08-07T10:18:10.000Z</time>
      </trkpt>
      <trkpt lat="45.9302" lon="2.15841">
        <ele>568.9</ele>
        <time>2026-08-07T10:18:17.000Z</time>
      </trkpt>
      <trkpt lat="45.93001" lon="2.15821">
        <ele>569</ele>
        <time>2026-08-07T10:18:25.000Z</time>
      </trkpt>
      <trkpt lat="45.92996" lon="2.15817">
        <ele>569</ele>
        <time>2026-08-07T10:18:27.000Z</time>
      </trkpt>
      <trkpt lat="45.92991" lon="2.15813">
        <ele>569</ele>
        <time>2026-08-07T10:18:29.000Z</time>
      </trkpt>
      <trkpt lat="45.92984" lon="2.15805">
        <ele>569</ele>
        <time>2026-08-07T10:18:32.000Z</time>
      </trkpt>
      <trkpt lat="45.9296" lon="2.15782">
        <ele>569.1</ele>
        <time>2026-08-07T10:18:41.000Z</time>
      </trkpt>
      <trkpt lat="45.92934" lon="2.15757">
        <ele>568</ele>
        <time>2026-08-07T10:18:49.000Z</time>
      </trkpt>
      <trkpt lat="45.92907" lon="2.15733">
        <ele>567.4</ele>
        <time>2026-08-07T10:18:56.000Z</time>
      </trkpt>
      <trkpt lat="45.92882" lon="2.15709">
        <ele>566.8</ele>
        <time>2026-08-07T10:19:02.000Z</time>
      </trkpt>
      <trkpt lat="45.92878" lon="2.15705">
        <ele>566.8</ele>
        <time>2026-08-07T10:19:03.000Z</time>
      </trkpt>
      <trkpt lat="45.92836" lon="2.15663">
        <ele>565.7</ele>
        <time>2026-08-07T10:19:13.000Z</time>
      </trkpt>
      <trkpt lat="45.92813" lon="2.15642">
        <ele>565.5</ele>
        <time>2026-08-07T10:19:18.000Z</time>
      </trkpt>
      <trkpt lat="45.928" lon="2.15628">
        <ele>565.3</ele>
        <time>2026-08-07T10:19:21.000Z</time>
      </trkpt>
      <trkpt lat="45.92753" lon="2.15583">
        <ele>564.9</ele>
        <time>2026-08-07T10:19:31.000Z</time>
      </trkpt>
      <trkpt lat="45.92708" lon="2.15542">
        <ele>564.5</ele>
        <time>2026-08-07T10:19:40.000Z</time>
      </trkpt>
      <trkpt lat="45.92692" lon="2.15528">
        <ele>565</ele>
        <time>2026-08-07T10:19:43.000Z</time>
      </trkpt>
      <trkpt lat="45.92653" lon="2.15493">
        <ele>564.1</ele>
        <time>2026-08-07T10:19:51.000Z</time>
      </trkpt>
      <trkpt lat="45.92606" lon="2.1545">
        <ele>563.4</ele>
        <time>2026-08-07T10:20:01.000Z</time>
      </trkpt>
      <trkpt lat="45.92601" lon="2.15446">
        <ele>563.4</ele>
        <time>2026-08-07T10:20:02.000Z</time>
      </trkpt>
      <trkpt lat="45.92597" lon="2.15441">
        <ele>563.5</ele>
        <time>2026-08-07T10:20:03.000Z</time>
      </trkpt>
      <trkpt lat="45.92578" lon="2.15424">
        <ele>564</ele>
        <time>2026-08-07T10:20:07.000Z</time>
      </trkpt>
      <trkpt lat="45.92535" lon="2.15383">
        <ele>565.1</ele>
        <time>2026-08-07T10:20:17.000Z</time>
      </trkpt>
      <trkpt lat="45.92496" lon="2.15347">
        <ele>565.6</ele>
        <time>2026-08-07T10:20:26.000Z</time>
      </trkpt>
      <trkpt lat="45.92479" lon="2.15331">
        <ele>565.2</ele>
        <time>2026-08-07T10:20:30.000Z</time>
      </trkpt>
      <trkpt lat="45.9247" lon="2.15322">
        <ele>565.1</ele>
        <time>2026-08-07T10:20:32.000Z</time>
      </trkpt>
      <trkpt lat="45.92433" lon="2.15288">
        <ele>564.9</ele>
        <time>2026-08-07T10:20:41.000Z</time>
      </trkpt>
      <trkpt lat="45.924" lon="2.15258">
        <ele>564.2</ele>
        <time>2026-08-07T10:20:49.000Z</time>
      </trkpt>
      <trkpt lat="45.92368" lon="2.15229">
        <ele>563.8</ele>
        <time>2026-08-07T10:20:57.000Z</time>
      </trkpt>
      <trkpt lat="45.92328" lon="2.15192">
        <ele>564</ele>
        <time>2026-08-07T10:21:07.000Z</time>
      </trkpt>
      <trkpt lat="45.92291" lon="2.15157">
        <ele>564</ele>
        <time>2026-08-07T10:21:17.000Z</time>
      </trkpt>
      <trkpt lat="45.92252" lon="2.1512">
        <ele>564.3</ele>
        <time>2026-08-07T10:21:28.000Z</time>
      </trkpt>
      <trkpt lat="45.92214" lon="2.15085">
        <ele>564.3</ele>
        <time>2026-08-07T10:21:38.000Z</time>
      </trkpt>
      <trkpt lat="45.92207" lon="2.15078">
        <ele>564.4</ele>
        <time>2026-08-07T10:21:40.000Z</time>
      </trkpt>
      <trkpt lat="45.92168" lon="2.15041">
        <ele>564.5</ele>
        <time>2026-08-07T10:21:50.000Z</time>
      </trkpt>
      <trkpt lat="45.92132" lon="2.15009">
        <ele>563.3</ele>
        <time>2026-08-07T10:21:58.000Z</time>
      </trkpt>
      <trkpt lat="45.92096" lon="2.14976">
        <ele>562.6</ele>
        <time>2026-08-07T10:22:05.000Z</time>
      </trkpt>
      <trkpt lat="45.9208" lon="2.14961">
        <ele>562.4</ele>
        <time>2026-08-07T10:22:08.000Z</time>
      </trkpt>
      <trkpt lat="45.9206" lon="2.14942">
        <ele>562.6</ele>
        <time>2026-08-07T10:22:12.000Z</time>
      </trkpt>
      <trkpt lat="45.92035" lon="2.14919">
        <ele>563.6</ele>
        <time>2026-08-07T10:22:18.000Z</time>
      </trkpt>
      <trkpt lat="45.92012" lon="2.14896">
        <ele>564.7</ele>
        <time>2026-08-07T10:22:25.000Z</time>
      </trkpt>
      <trkpt lat="45.91995" lon="2.14882">
        <ele>566</ele>
        <time>2026-08-07T10:22:31.000Z</time>
      </trkpt>
      <trkpt lat="45.91988" lon="2.14875">
        <ele>566.2</ele>
        <time>2026-08-07T10:22:34.000Z</time>
      </trkpt>
      <trkpt lat="45.91983" lon="2.14871">
        <ele>566.3</ele>
        <time>2026-08-07T10:22:36.000Z</time>
      </trkpt>
      <trkpt lat="45.91969" lon="2.14858">
        <ele>567</ele>
        <time>2026-08-07T10:22:42.000Z</time>
      </trkpt>
      <trkpt lat="45.91961" lon="2.14849">
        <ele>567.2</ele>
        <time>2026-08-07T10:22:46.000Z</time>
      </trkpt>
      <trkpt lat="45.91954" lon="2.14842">
        <ele>567.4</ele>
        <time>2026-08-07T10:22:49.000Z</time>
      </trkpt>
      <trkpt lat="45.91935" lon="2.14825">
        <ele>568.6</ele>
        <time>2026-08-07T10:22:58.000Z</time>
      </trkpt>
      <trkpt lat="45.91932" lon="2.14824">
        <ele>568.7</ele>
        <time>2026-08-07T10:22:59.000Z</time>
      </trkpt>
      <trkpt lat="45.91913" lon="2.14812">
        <ele>569.4</ele>
        <time>2026-08-07T10:23:07.000Z</time>
      </trkpt>
      <trkpt lat="45.91901" lon="2.14805">
        <ele>569.6</ele>
        <time>2026-08-07T10:23:12.000Z</time>
      </trkpt>
      <trkpt lat="45.91886" lon="2.14801">
        <ele>570.5</ele>
        <time>2026-08-07T10:23:18.000Z</time>
      </trkpt>
      <trkpt lat="45.91881" lon="2.148">
        <ele>571.1</ele>
        <time>2026-08-07T10:23:20.000Z</time>
      </trkpt>
      <trkpt lat="45.91861" lon="2.14796">
        <ele>573</ele>
        <time>2026-08-07T10:23:27.000Z</time>
      </trkpt>
      <trkpt lat="45.91843" lon="2.14793">
        <ele>573.3</ele>
        <time>2026-08-07T10:23:34.000Z</time>
      </trkpt>
      <trkpt lat="45.91838" lon="2.14792">
        <ele>573.4</ele>
        <time>2026-08-07T10:23:36.000Z</time>
      </trkpt>
      <trkpt lat="45.91822" lon="2.1479">
        <ele>573.5</ele>
        <time>2026-08-07T10:23:42.000Z</time>
      </trkpt>
      <trkpt lat="45.91817" lon="2.1479">
        <ele>573.5</ele>
        <time>2026-08-07T10:23:44.000Z</time>
      </trkpt>
      <trkpt lat="45.91806" lon="2.14788">
        <ele>573.4</ele>
        <time>2026-08-07T10:23:48.000Z</time>
      </trkpt>
      <trkpt lat="45.91793" lon="2.14786">
        <ele>573.5</ele>
        <time>2026-08-07T10:23:53.000Z</time>
      </trkpt>
      <trkpt lat="45.91783" lon="2.14784">
        <ele>573.7</ele>
        <time>2026-08-07T10:23:57.000Z</time>
      </trkpt>
      <trkpt lat="45.91769" lon="2.14782">
        <ele>573.8</ele>
        <time>2026-08-07T10:24:02.000Z</time>
      </trkpt>
      <trkpt lat="45.91742" lon="2.14779">
        <ele>574</ele>
        <time>2026-08-07T10:24:11.000Z</time>
      </trkpt>
      <trkpt lat="45.91727" lon="2.14776">
        <ele>574</ele>
        <time>2026-08-07T10:24:16.000Z</time>
      </trkpt>
      <trkpt lat="45.91712" lon="2.14774">
        <ele>574.1</ele>
        <time>2026-08-07T10:24:21.000Z</time>
      </trkpt>
      <trkpt lat="45.91684" lon="2.14769">
        <ele>574.3</ele>
        <time>2026-08-07T10:24:30.000Z</time>
      </trkpt>
      <trkpt lat="45.91652" lon="2.14764">
        <ele>574.8</ele>
        <time>2026-08-07T10:24:41.000Z</time>
      </trkpt>
      <trkpt lat="45.91637" lon="2.14761">
        <ele>575.2</ele>
        <time>2026-08-07T10:24:46.000Z</time>
      </trkpt>
      <trkpt lat="45.91619" lon="2.14758">
        <ele>575.6</ele>
        <time>2026-08-07T10:24:52.000Z</time>
      </trkpt>
      <trkpt lat="45.91593" lon="2.14755">
        <ele>576.5</ele>
        <time>2026-08-07T10:25:01.000Z</time>
      </trkpt>
      <trkpt lat="45.91582" lon="2.14753">
        <ele>577</ele>
        <time>2026-08-07T10:25:05.000Z</time>
      </trkpt>
      <trkpt lat="45.91567" lon="2.14751">
        <ele>577.6</ele>
        <time>2026-08-07T10:25:10.000Z</time>
      </trkpt>
      <trkpt lat="45.91559" lon="2.14749">
        <ele>577.9</ele>
        <time>2026-08-07T10:25:13.000Z</time>
      </trkpt>
      <trkpt lat="45.91538" lon="2.14747">
        <ele>578</ele>
        <time>2026-08-07T10:25:20.000Z</time>
      </trkpt>
      <trkpt lat="45.91521" lon="2.14744">
        <ele>578.1</ele>
        <time>2026-08-07T10:25:26.000Z</time>
      </trkpt>
      <trkpt lat="45.9151" lon="2.14743">
        <ele>578.2</ele>
        <time>2026-08-07T10:25:30.000Z</time>
      </trkpt>
      <trkpt lat="45.91493" lon="2.14739">
        <ele>578.6</ele>
        <time>2026-08-07T10:25:36.000Z</time>
      </trkpt>
      <trkpt lat="45.91487" lon="2.14738">
        <ele>578.7</ele>
        <time>2026-08-07T10:25:38.000Z</time>
      </trkpt>
      <trkpt lat="45.91459" lon="2.14732">
        <ele>579.8</ele>
        <time>2026-08-07T10:25:48.000Z</time>
      </trkpt>
      <trkpt lat="45.9145" lon="2.14731">
        <ele>580.4</ele>
        <time>2026-08-07T10:25:52.000Z</time>
      </trkpt>
      <trkpt lat="45.91439" lon="2.1473">
        <ele>581</ele>
        <time>2026-08-07T10:25:56.000Z</time>
      </trkpt>
      <trkpt lat="45.91436" lon="2.1473">
        <ele>581.1</ele>
        <time>2026-08-07T10:25:57.000Z</time>
      </trkpt>
      <trkpt lat="45.91423" lon="2.14728">
        <ele>581.7</ele>
        <time>2026-08-07T10:26:02.000Z</time>
      </trkpt>
      <trkpt lat="45.91408" lon="2.14725">
        <ele>582.7</ele>
        <time>2026-08-07T10:26:08.000Z</time>
      </trkpt>
      <trkpt lat="45.91405" lon="2.14725">
        <ele>582.9</ele>
        <time>2026-08-07T10:26:09.000Z</time>
      </trkpt>
      <trkpt lat="45.91393" lon="2.14724">
        <ele>583.8</ele>
        <time>2026-08-07T10:26:14.000Z</time>
      </trkpt>
      <trkpt lat="45.91388" lon="2.14723">
        <ele>584</ele>
        <time>2026-08-07T10:26:16.000Z</time>
      </trkpt>
      <trkpt lat="45.91382" lon="2.14722">
        <ele>584.2</ele>
        <time>2026-08-07T10:26:19.000Z</time>
      </trkpt>
      <trkpt lat="45.9137" lon="2.1472">
        <ele>584.6</ele>
        <time>2026-08-07T10:26:25.000Z</time>
      </trkpt>
      <trkpt lat="45.91364" lon="2.1472">
        <ele>584.8</ele>
        <time>2026-08-07T10:26:28.000Z</time>
      </trkpt>
      <trkpt lat="45.91357" lon="2.14719">
        <ele>585.1</ele>
        <time>2026-08-07T10:26:32.000Z</time>
      </trkpt>
      <trkpt lat="45.91353" lon="2.14718">
        <ele>585.3</ele>
        <time>2026-08-07T10:26:34.000Z</time>
      </trkpt>
      <trkpt lat="45.9135" lon="2.14718">
        <ele>585.5</ele>
        <time>2026-08-07T10:26:36.000Z</time>
      </trkpt>
      <trkpt lat="45.91345" lon="2.14717">
        <ele>585.8</ele>
        <time>2026-08-07T10:26:39.000Z</time>
      </trkpt>
      <trkpt lat="45.91332" lon="2.14718">
        <ele>586.6</ele>
        <time>2026-08-07T10:26:44.000Z</time>
      </trkpt>
      <trkpt lat="45.91311" lon="2.14717">
        <ele>587.2</ele>
        <time>2026-08-07T10:26:53.000Z</time>
      </trkpt>
      <trkpt lat="45.91303" lon="2.14716">
        <ele>587.4</ele>
        <time>2026-08-07T10:26:56.000Z</time>
      </trkpt>
      <trkpt lat="45.91286" lon="2.14716">
        <ele>588</ele>
        <time>2026-08-07T10:27:03.000Z</time>
      </trkpt>
      <trkpt lat="45.91274" lon="2.14721">
        <ele>588.7</ele>
        <time>2026-08-07T10:27:08.000Z</time>
      </trkpt>
      <trkpt lat="45.91268" lon="2.14726">
        <ele>589</ele>
        <time>2026-08-07T10:27:11.000Z</time>
      </trkpt>
      <trkpt lat="45.91256" lon="2.14741">
        <ele>590.3</ele>
        <time>2026-08-07T10:27:19.000Z</time>
      </trkpt>
      <trkpt lat="45.91252" lon="2.14749">
        <ele>591</ele>
        <time>2026-08-07T10:27:22.000Z</time>
      </trkpt>
      <trkpt lat="45.91246" lon="2.14769">
        <ele>592</ele>
        <time>2026-08-07T10:27:29.000Z</time>
      </trkpt>
      <trkpt lat="45.91246" lon="2.14772">
        <ele>592.1</ele>
        <time>2026-08-07T10:27:30.000Z</time>
      </trkpt>
      <trkpt lat="45.91242" lon="2.14792">
        <ele>593.6</ele>
        <time>2026-08-07T10:27:37.000Z</time>
      </trkpt>
      <trkpt lat="45.9124" lon="2.14798">
        <ele>594.1</ele>
        <time>2026-08-07T10:27:39.000Z</time>
      </trkpt>
      <trkpt lat="45.91235" lon="2.14823">
        <ele>595</ele>
        <time>2026-08-07T10:27:47.000Z</time>
      </trkpt>
      <trkpt lat="45.91234" lon="2.14826">
        <ele>595</ele>
        <time>2026-08-07T10:27:48.000Z</time>
      </trkpt>
      <trkpt lat="45.91226" lon="2.14849">
        <ele>595.4</ele>
        <time>2026-08-07T10:27:55.000Z</time>
      </trkpt>
      <trkpt lat="45.91223" lon="2.14854">
        <ele>595.6</ele>
        <time>2026-08-07T10:27:57.000Z</time>
      </trkpt>
      <trkpt lat="45.91213" lon="2.1487">
        <ele>596.1</ele>
        <time>2026-08-07T10:28:03.000Z</time>
      </trkpt>
      <trkpt lat="45.91201" lon="2.14884">
        <ele>596.7</ele>
        <time>2026-08-07T10:28:10.000Z</time>
      </trkpt>
      <trkpt lat="45.91193" lon="2.1489">
        <ele>597</ele>
        <time>2026-08-07T10:28:14.000Z</time>
      </trkpt>
      <trkpt lat="45.9117" lon="2.14905">
        <ele>597.6</ele>
        <time>2026-08-07T10:28:24.000Z</time>
      </trkpt>
      <trkpt lat="45.91154" lon="2.14912">
        <ele>598.3</ele>
        <time>2026-08-07T10:28:31.000Z</time>
      </trkpt>
      <trkpt lat="45.91149" lon="2.14914">
        <ele>598.5</ele>
        <time>2026-08-07T10:28:33.000Z</time>
      </trkpt>
      <trkpt lat="45.91132" lon="2.14915">
        <ele>599.2</ele>
        <time>2026-08-07T10:28:40.000Z</time>
      </trkpt>
      <trkpt lat="45.91112" lon="2.14913">
        <ele>599.8</ele>
        <time>2026-08-07T10:28:49.000Z</time>
      </trkpt>
      <trkpt lat="45.91106" lon="2.14912">
        <ele>600.2</ele>
        <time>2026-08-07T10:28:52.000Z</time>
      </trkpt>
      <trkpt lat="45.91095" lon="2.14911">
        <ele>600.8</ele>
        <time>2026-08-07T10:28:57.000Z</time>
      </trkpt>
      <trkpt lat="45.91091" lon="2.14911">
        <ele>601.1</ele>
        <time>2026-08-07T10:28:59.000Z</time>
      </trkpt>
      <trkpt lat="45.91085" lon="2.1491">
        <ele>601.4</ele>
        <time>2026-08-07T10:29:02.000Z</time>
      </trkpt>
      <trkpt lat="45.91075" lon="2.1491">
        <ele>601.9</ele>
        <time>2026-08-07T10:29:08.000Z</time>
      </trkpt>
      <trkpt lat="45.91066" lon="2.14908">
        <ele>602.2</ele>
        <time>2026-08-07T10:29:13.000Z</time>
      </trkpt>
      <trkpt lat="45.91064" lon="2.14908">
        <ele>602.3</ele>
        <time>2026-08-07T10:29:14.000Z</time>
      </trkpt>
      <trkpt lat="45.91049" lon="2.14906">
        <ele>602.8</ele>
        <time>2026-08-07T10:29:22.000Z</time>
      </trkpt>
      <trkpt lat="45.91037" lon="2.14905">
        <ele>603.2</ele>
        <time>2026-08-07T10:29:28.000Z</time>
      </trkpt>
      <trkpt lat="45.9103" lon="2.14903">
        <ele>603.4</ele>
        <time>2026-08-07T10:29:32.000Z</time>
      </trkpt>
      <trkpt lat="45.91028" lon="2.14904">
        <ele>603.5</ele>
        <time>2026-08-07T10:29:33.000Z</time>
      </trkpt>
      <trkpt lat="45.91017" lon="2.14903">
        <ele>603.9</ele>
        <time>2026-08-07T10:29:39.000Z</time>
      </trkpt>
      <trkpt lat="45.91012" lon="2.14902">
        <ele>604</ele>
        <time>2026-08-07T10:29:41.000Z</time>
      </trkpt>
      <trkpt lat="45.91" lon="2.14901">
        <ele>604.4</ele>
        <time>2026-08-07T10:29:47.000Z</time>
      </trkpt>
      <trkpt lat="45.90984" lon="2.14899">
        <ele>604.4</ele>
        <time>2026-08-07T10:29:55.000Z</time>
      </trkpt>
      <trkpt lat="45.9097" lon="2.14897">
        <ele>604.4</ele>
        <time>2026-08-07T10:30:01.000Z</time>
      </trkpt>
      <trkpt lat="45.90948" lon="2.14895">
        <ele>604.9</ele>
        <time>2026-08-07T10:30:11.000Z</time>
      </trkpt>
      <trkpt lat="45.90927" lon="2.14893">
        <ele>605.7</ele>
        <time>2026-08-07T10:30:22.000Z</time>
      </trkpt>
      <trkpt lat="45.90914" lon="2.14891">
        <ele>606.3</ele>
        <time>2026-08-07T10:30:30.000Z</time>
      </trkpt>
      <trkpt lat="45.90906" lon="2.1489">
        <ele>606.8</ele>
        <time>2026-08-07T10:30:35.000Z</time>
      </trkpt>
      <trkpt lat="45.90904" lon="2.1489">
        <ele>607</ele>
        <time>2026-08-07T10:30:36.000Z</time>
      </trkpt>
      <trkpt lat="45.90888" lon="2.14889">
        <ele>608</ele>
        <time>2026-08-07T10:30:44.000Z</time>
      </trkpt>
      <trkpt lat="45.90881" lon="2.14887">
        <ele>608.3</ele>
        <time>2026-08-07T10:30:48.000Z</time>
      </trkpt>
      <trkpt lat="45.90871" lon="2.14886">
        <ele>608.6</ele>
        <time>2026-08-07T10:30:53.000Z</time>
      </trkpt>
      <trkpt lat="45.90849" lon="2.14884">
        <ele>609.1</ele>
        <time>2026-08-07T10:31:04.000Z</time>
      </trkpt>
      <trkpt lat="45.90844" lon="2.14884">
        <ele>609.1</ele>
        <time>2026-08-07T10:31:06.000Z</time>
      </trkpt>
      <trkpt lat="45.90826" lon="2.14881">
        <ele>609.4</ele>
        <time>2026-08-07T10:31:13.000Z</time>
      </trkpt>
      <trkpt lat="45.90795" lon="2.14877">
        <ele>609.8</ele>
        <time>2026-08-07T10:31:24.000Z</time>
      </trkpt>
      <trkpt lat="45.90779" lon="2.14876">
        <ele>610</ele>
        <time>2026-08-07T10:31:30.000Z</time>
      </trkpt>
      <trkpt lat="45.90767" lon="2.14875">
        <ele>609.6</ele>
        <time>2026-08-07T10:31:34.000Z</time>
      </trkpt>
      <trkpt lat="45.90742" lon="2.14873">
        <ele>609.3</ele>
        <time>2026-08-07T10:31:42.000Z</time>
      </trkpt>
      <trkpt lat="45.90721" lon="2.1487">
        <ele>609.7</ele>
        <time>2026-08-07T10:31:49.000Z</time>
      </trkpt>
      <trkpt lat="45.90707" lon="2.14867">
        <ele>610.4</ele>
        <time>2026-08-07T10:31:54.000Z</time>
      </trkpt>
      <trkpt lat="45.90691" lon="2.14865">
        <ele>610.9</ele>
        <time>2026-08-07T10:32:00.000Z</time>
      </trkpt>
      <trkpt lat="45.90664" lon="2.14862">
        <ele>611</ele>
        <time>2026-08-07T10:32:10.000Z</time>
      </trkpt>
      <trkpt lat="45.90638" lon="2.14859">
        <ele>611.1</ele>
        <time>2026-08-07T10:32:19.000Z</time>
      </trkpt>
      <trkpt lat="45.90628" lon="2.14857">
        <ele>611.1</ele>
        <time>2026-08-07T10:32:22.000Z</time>
      </trkpt>
      <trkpt lat="45.90605" lon="2.14855">
        <ele>610.8</ele>
        <time>2026-08-07T10:32:28.000Z</time>
      </trkpt>
      <trkpt lat="45.90574" lon="2.14851">
        <ele>609.8</ele>
        <time>2026-08-07T10:32:35.000Z</time>
      </trkpt>
      <trkpt lat="45.90569" lon="2.14851">
        <ele>609.7</ele>
        <time>2026-08-07T10:32:36.000Z</time>
      </trkpt>
      <trkpt lat="45.90565" lon="2.14851">
        <ele>609.6</ele>
        <time>2026-08-07T10:32:37.000Z</time>
      </trkpt>
      <trkpt lat="45.90555" lon="2.14849">
        <ele>609.4</ele>
        <time>2026-08-07T10:32:39.000Z</time>
      </trkpt>
      <trkpt lat="45.90545" lon="2.14848">
        <ele>609.3</ele>
        <time>2026-08-07T10:32:41.000Z</time>
      </trkpt>
      <trkpt lat="45.90541" lon="2.14848">
        <ele>609.2</ele>
        <time>2026-08-07T10:32:42.000Z</time>
      </trkpt>
      <trkpt lat="45.90522" lon="2.14843">
        <ele>608.7</ele>
        <time>2026-08-07T10:32:46.000Z</time>
      </trkpt>
      <trkpt lat="45.90517" lon="2.14843">
        <ele>608.5</ele>
        <time>2026-08-07T10:32:47.000Z</time>
      </trkpt>
      <trkpt lat="45.90481" lon="2.14838">
        <ele>607.3</ele>
        <time>2026-08-07T10:32:54.000Z</time>
      </trkpt>
      <trkpt lat="45.90465" lon="2.14838">
        <ele>607</ele>
        <time>2026-08-07T10:32:57.000Z</time>
      </trkpt>
      <trkpt lat="45.90438" lon="2.1484">
        <ele>607.2</ele>
        <time>2026-08-07T10:33:03.000Z</time>
      </trkpt>
      <trkpt lat="45.9043" lon="2.14842">
        <ele>607.4</ele>
        <time>2026-08-07T10:33:05.000Z</time>
      </trkpt>
      <trkpt lat="45.90418" lon="2.14846">
        <ele>607.5</ele>
        <time>2026-08-07T10:33:08.000Z</time>
      </trkpt>
      <trkpt lat="45.90383" lon="2.14866">
        <ele>608</ele>
        <time>2026-08-07T10:33:17.000Z</time>
      </trkpt>
      <trkpt lat="45.90348" lon="2.14894">
        <ele>607.1</ele>
        <time>2026-08-07T10:33:27.000Z</time>
      </trkpt>
      <trkpt lat="45.90309" lon="2.14925">
        <ele>606.8</ele>
        <time>2026-08-07T10:33:37.000Z</time>
      </trkpt>
      <trkpt lat="45.90295" lon="2.14937">
        <ele>606.9</ele>
        <time>2026-08-07T10:33:41.000Z</time>
      </trkpt>
      <trkpt lat="45.90287" lon="2.14942">
        <ele>607.1</ele>
        <time>2026-08-07T10:33:43.000Z</time>
      </trkpt>
      <trkpt lat="45.90284" lon="2.14945">
        <ele>607.2</ele>
        <time>2026-08-07T10:33:44.000Z</time>
      </trkpt>
      <trkpt lat="45.90258" lon="2.14965">
        <ele>607</ele>
        <time>2026-08-07T10:33:51.000Z</time>
      </trkpt>
      <trkpt lat="45.90242" lon="2.14975">
        <ele>607.2</ele>
        <time>2026-08-07T10:33:55.000Z</time>
      </trkpt>
      <trkpt lat="45.90227" lon="2.14986">
        <ele>607.5</ele>
        <time>2026-08-07T10:33:59.000Z</time>
      </trkpt>
      <trkpt lat="45.90223" lon="2.14989">
        <ele>607.7</ele>
        <time>2026-08-07T10:34:00.000Z</time>
      </trkpt>
      <trkpt lat="45.90216" lon="2.14995">
        <ele>607.5</ele>
        <time>2026-08-07T10:34:02.000Z</time>
      </trkpt>
      <trkpt lat="45.90203" lon="2.15002">
        <ele>606.5</ele>
        <time>2026-08-07T10:34:05.000Z</time>
      </trkpt>
      <trkpt lat="45.90172" lon="2.15016">
        <ele>605.3</ele>
        <time>2026-08-07T10:34:11.000Z</time>
      </trkpt>
      <trkpt lat="45.90153" lon="2.15039">
        <ele>604.6</ele>
        <time>2026-08-07T10:34:15.000Z</time>
      </trkpt>
      <trkpt lat="45.90148" lon="2.15046">
        <ele>604.5</ele>
        <time>2026-08-07T10:34:16.000Z</time>
      </trkpt>
      <trkpt lat="45.9012" lon="2.15096">
        <ele>603.8</ele>
        <time>2026-08-07T10:34:23.000Z</time>
      </trkpt>
      <trkpt lat="45.90111" lon="2.15107">
        <ele>603.5</ele>
        <time>2026-08-07T10:34:25.000Z</time>
      </trkpt>
      <trkpt lat="45.90088" lon="2.15126">
        <ele>602.1</ele>
        <time>2026-08-07T10:34:29.000Z</time>
      </trkpt>
      <trkpt lat="45.90066" lon="2.15145">
        <ele>601.9</ele>
        <time>2026-08-07T10:34:33.000Z</time>
      </trkpt>
      <trkpt lat="45.90057" lon="2.15158">
        <ele>601</ele>
        <time>2026-08-07T10:34:35.000Z</time>
      </trkpt>
      <trkpt lat="45.90034" lon="2.15195">
        <ele>597.7</ele>
        <time>2026-08-07T10:34:40.000Z</time>
      </trkpt>
      <trkpt lat="45.90023" lon="2.15205">
        <ele>597.5</ele>
        <time>2026-08-07T10:34:42.000Z</time>
      </trkpt>
      <trkpt lat="45.90007" lon="2.15219">
        <ele>597.3</ele>
        <time>2026-08-07T10:34:45.000Z</time>
      </trkpt>
      <trkpt lat="45.90002" lon="2.15223">
        <ele>597.5</ele>
        <time>2026-08-07T10:34:46.000Z</time>
      </trkpt>
      <trkpt lat="45.89978" lon="2.15235">
        <ele>597.5</ele>
        <time>2026-08-07T10:34:50.000Z</time>
      </trkpt>
      <trkpt lat="45.89972" lon="2.15238">
        <ele>597.6</ele>
        <time>2026-08-07T10:34:51.000Z</time>
      </trkpt>
      <trkpt lat="45.89967" lon="2.15241">
        <ele>597.3</ele>
        <time>2026-08-07T10:34:52.000Z</time>
      </trkpt>
      <trkpt lat="45.89963" lon="2.15244">
        <ele>596.9</ele>
        <time>2026-08-07T10:34:53.000Z</time>
      </trkpt>
      <trkpt lat="45.89958" lon="2.15248">
        <ele>596.4</ele>
        <time>2026-08-07T10:34:54.000Z</time>
      </trkpt>
      <trkpt lat="45.89952" lon="2.15254">
        <ele>595.6</ele>
        <time>2026-08-07T10:34:55.000Z</time>
      </trkpt>
      <trkpt lat="45.89945" lon="2.15261">
        <ele>594.5</ele>
        <time>2026-08-07T10:34:56.000Z</time>
      </trkpt>
      <trkpt lat="45.89918" lon="2.15288">
        <ele>593</ele>
        <time>2026-08-07T10:35:01.000Z</time>
      </trkpt>
      <trkpt lat="45.89913" lon="2.15292">
        <ele>592.9</ele>
        <time>2026-08-07T10:35:02.000Z</time>
      </trkpt>
      <trkpt lat="45.89907" lon="2.15295">
        <ele>593</ele>
        <time>2026-08-07T10:35:03.000Z</time>
      </trkpt>
      <trkpt lat="45.89891" lon="2.153">
        <ele>594.3</ele>
        <time>2026-08-07T10:35:05.000Z</time>
      </trkpt>
      <trkpt lat="45.89883" lon="2.153">
        <ele>594.2</ele>
        <time>2026-08-07T10:35:06.000Z</time>
      </trkpt>
      <trkpt lat="45.8987" lon="2.15297">
        <ele>593.7</ele>
        <time>2026-08-07T10:35:08.000Z</time>
      </trkpt>
      <trkpt lat="45.89862" lon="2.15295">
        <ele>593.5</ele>
        <time>2026-08-07T10:35:09.000Z</time>
      </trkpt>
      <trkpt lat="45.89841" lon="2.15287">
        <ele>592.6</ele>
        <time>2026-08-07T10:35:12.000Z</time>
      </trkpt>
      <trkpt lat="45.89834" lon="2.15282">
        <ele>592.4</ele>
        <time>2026-08-07T10:35:13.000Z</time>
      </trkpt>
      <trkpt lat="45.89827" lon="2.15279">
        <ele>592.1</ele>
        <time>2026-08-07T10:35:14.000Z</time>
      </trkpt>
      <trkpt lat="45.89803" lon="2.15265">
        <ele>592.8</ele>
        <time>2026-08-07T10:35:18.000Z</time>
      </trkpt>
      <trkpt lat="45.8979" lon="2.15268">
        <ele>591.9</ele>
        <time>2026-08-07T10:35:20.000Z</time>
      </trkpt>
      <trkpt lat="45.89769" lon="2.15274">
        <ele>590</ele>
        <time>2026-08-07T10:35:23.000Z</time>
      </trkpt>
      <trkpt lat="45.89756" lon="2.15275">
        <ele>588.9</ele>
        <time>2026-08-07T10:35:25.000Z</time>
      </trkpt>
      <trkpt lat="45.89732" lon="2.15275">
        <ele>587.8</ele>
        <time>2026-08-07T10:35:28.000Z</time>
      </trkpt>
      <trkpt lat="45.89725" lon="2.15274">
        <ele>587.7</ele>
        <time>2026-08-07T10:35:29.000Z</time>
      </trkpt>
      <trkpt lat="45.89718" lon="2.15272">
        <ele>587.6</ele>
        <time>2026-08-07T10:35:30.000Z</time>
      </trkpt>
      <trkpt lat="45.89696" lon="2.15264">
        <ele>587.1</ele>
        <time>2026-08-07T10:35:33.000Z</time>
      </trkpt>
      <trkpt lat="45.89688" lon="2.15261">
        <ele>586.4</ele>
        <time>2026-08-07T10:35:34.000Z</time>
      </trkpt>
      <trkpt lat="45.89666" lon="2.15253">
        <ele>584.6</ele>
        <time>2026-08-07T10:35:37.000Z</time>
      </trkpt>
      <trkpt lat="45.89644" lon="2.15253">
        <ele>583.8</ele>
        <time>2026-08-07T10:35:40.000Z</time>
      </trkpt>
      <trkpt lat="45.89636" lon="2.15254">
        <ele>583.6</ele>
        <time>2026-08-07T10:35:41.000Z</time>
      </trkpt>
      <trkpt lat="45.89622" lon="2.15257">
        <ele>583.9</ele>
        <time>2026-08-07T10:35:43.000Z</time>
      </trkpt>
      <trkpt lat="45.89609" lon="2.15265">
        <ele>582.9</ele>
        <time>2026-08-07T10:35:45.000Z</time>
      </trkpt>
      <trkpt lat="45.89597" lon="2.15274">
        <ele>581.4</ele>
        <time>2026-08-07T10:35:47.000Z</time>
      </trkpt>
      <trkpt lat="45.89592" lon="2.1528">
        <ele>580.5</ele>
        <time>2026-08-07T10:35:48.000Z</time>
      </trkpt>
      <trkpt lat="45.89588" lon="2.15287">
        <ele>580.4</ele>
        <time>2026-08-07T10:35:49.000Z</time>
      </trkpt>
      <trkpt lat="45.89588" lon="2.15303">
        <ele>579.7</ele>
        <time>2026-08-07T10:35:51.000Z</time>
      </trkpt>
      <trkpt lat="45.89591" lon="2.15311">
        <ele>579.7</ele>
        <time>2026-08-07T10:35:52.000Z</time>
      </trkpt>
      <trkpt lat="45.89595" lon="2.15318">
        <ele>579.7</ele>
        <time>2026-08-07T10:35:53.000Z</time>
      </trkpt>
      <trkpt lat="45.89609" lon="2.15339">
        <ele>578.7</ele>
        <time>2026-08-07T10:35:56.000Z</time>
      </trkpt>
      <trkpt lat="45.89627" lon="2.15369">
        <ele>576.9</ele>
        <time>2026-08-07T10:36:00.000Z</time>
      </trkpt>
      <trkpt lat="45.8963" lon="2.15376">
        <ele>576.6</ele>
        <time>2026-08-07T10:36:01.000Z</time>
      </trkpt>
      <trkpt lat="45.89633" lon="2.15381">
        <ele>576.5</ele>
        <time>2026-08-07T10:36:02.000Z</time>
      </trkpt>
      <trkpt lat="45.89634" lon="2.15385">
        <ele>576.4</ele>
        <time>2026-08-07T10:36:03.000Z</time>
      </trkpt>
      <trkpt lat="45.89634" lon="2.15387">
        <ele>576.5</ele>
        <time>2026-08-07T10:36:04.000Z</time>
      </trkpt>
      <trkpt lat="45.89634" lon="2.15388">
        <ele>576.5</ele>
        <time>2026-08-07T10:36:05.000Z</time>
      </trkpt>
      <trkpt lat="45.89633" lon="2.15389">
        <ele>576.6</ele>
        <time>2026-08-07T10:36:07.000Z</time>
      </trkpt>
      <trkpt lat="45.89633" lon="2.15389">
        <ele>576.6</ele>
        <time>2026-08-07T10:36:08.000Z</time>
      </trkpt>
      <trkpt lat="45.89635" lon="2.154">
        <ele>576</ele>
        <time>2026-08-07T10:39:36.000Z</time>
      </trkpt>
      <trkpt lat="45.89636" lon="2.15402">
        <ele>575.8</ele>
        <time>2026-08-07T10:39:37.000Z</time>
      </trkpt>
      <trkpt lat="45.89634" lon="2.15417">
        <ele>575.5</ele>
        <time>2026-08-07T10:39:41.000Z</time>
      </trkpt>
      <trkpt lat="45.89622" lon="2.15437">
        <ele>573.2</ele>
        <time>2026-08-07T10:39:46.000Z</time>
      </trkpt>
      <trkpt lat="45.89599" lon="2.15458">
        <ele>572.1</ele>
        <time>2026-08-07T10:39:54.000Z</time>
      </trkpt>
      <trkpt lat="45.89582" lon="2.15482">
        <ele>570.5</ele>
        <time>2026-08-07T10:40:00.000Z</time>
      </trkpt>
      <trkpt lat="45.89573" lon="2.15499">
        <ele>569.5</ele>
        <time>2026-08-07T10:40:03.000Z</time>
      </trkpt>
      <trkpt lat="45.89563" lon="2.15517">
        <ele>568.4</ele>
        <time>2026-08-07T10:40:06.000Z</time>
      </trkpt>
      <trkpt lat="45.89559" lon="2.15522">
        <ele>568.2</ele>
        <time>2026-08-07T10:40:07.000Z</time>
      </trkpt>
      <trkpt lat="45.8954" lon="2.15541">
        <ele>567</ele>
        <time>2026-08-07T10:40:11.000Z</time>
      </trkpt>
      <trkpt lat="45.89534" lon="2.15545">
        <ele>566.8</ele>
        <time>2026-08-07T10:40:12.000Z</time>
      </trkpt>
      <trkpt lat="45.8951" lon="2.15553">
        <ele>565.5</ele>
        <time>2026-08-07T10:40:16.000Z</time>
      </trkpt>
      <trkpt lat="45.89489" lon="2.15562">
        <ele>564.4</ele>
        <time>2026-08-07T10:40:20.000Z</time>
      </trkpt>
      <trkpt lat="45.89484" lon="2.15566">
        <ele>564.2</ele>
        <time>2026-08-07T10:40:21.000Z</time>
      </trkpt>
      <trkpt lat="45.89476" lon="2.15576">
        <ele>563.9</ele>
        <time>2026-08-07T10:40:23.000Z</time>
      </trkpt>
      <trkpt lat="45.89473" lon="2.15583">
        <ele>563.9</ele>
        <time>2026-08-07T10:40:24.000Z</time>
      </trkpt>
      <trkpt lat="45.89471" lon="2.15589">
        <ele>563.9</ele>
        <time>2026-08-07T10:40:25.000Z</time>
      </trkpt>
      <trkpt lat="45.8947" lon="2.15596">
        <ele>563.7</ele>
        <time>2026-08-07T10:40:26.000Z</time>
      </trkpt>
      <trkpt lat="45.8947" lon="2.15609">
        <ele>563.1</ele>
        <time>2026-08-07T10:40:28.000Z</time>
      </trkpt>
      <trkpt lat="45.8947" lon="2.15624">
        <ele>562.3</ele>
        <time>2026-08-07T10:40:30.000Z</time>
      </trkpt>
      <trkpt lat="45.8947" lon="2.15632">
        <ele>562.1</ele>
        <time>2026-08-07T10:40:31.000Z</time>
      </trkpt>
      <trkpt lat="45.89469" lon="2.15648">
        <ele>562</ele>
        <time>2026-08-07T10:40:33.000Z</time>
      </trkpt>
      <trkpt lat="45.89467" lon="2.15655">
        <ele>562.2</ele>
        <time>2026-08-07T10:40:34.000Z</time>
      </trkpt>
      <trkpt lat="45.89466" lon="2.1567">
        <ele>561.8</ele>
        <time>2026-08-07T10:40:36.000Z</time>
      </trkpt>
      <trkpt lat="45.89462" lon="2.15694">
        <ele>560.1</ele>
        <time>2026-08-07T10:40:39.000Z</time>
      </trkpt>
      <trkpt lat="45.89461" lon="2.15703">
        <ele>560.2</ele>
        <time>2026-08-07T10:40:40.000Z</time>
      </trkpt>
      <trkpt lat="45.89459" lon="2.15747">
        <ele>557.6</ele>
        <time>2026-08-07T10:40:45.000Z</time>
      </trkpt>
      <trkpt lat="45.89459" lon="2.15756">
        <ele>556.8</ele>
        <time>2026-08-07T10:40:46.000Z</time>
      </trkpt>
      <trkpt lat="45.89452" lon="2.15792">
        <ele>555.1</ele>
        <time>2026-08-07T10:40:50.000Z</time>
      </trkpt>
      <trkpt lat="45.89443" lon="2.15819">
        <ele>554.9</ele>
        <time>2026-08-07T10:40:53.000Z</time>
      </trkpt>
      <trkpt lat="45.89439" lon="2.15827">
        <ele>554.6</ele>
        <time>2026-08-07T10:40:54.000Z</time>
      </trkpt>
      <trkpt lat="45.89426" lon="2.1585">
        <ele>553.8</ele>
        <time>2026-08-07T10:40:57.000Z</time>
      </trkpt>
      <trkpt lat="45.89417" lon="2.15865">
        <ele>553.4</ele>
        <time>2026-08-07T10:40:59.000Z</time>
      </trkpt>
      <trkpt lat="45.89409" lon="2.15882">
        <ele>553.2</ele>
        <time>2026-08-07T10:41:01.000Z</time>
      </trkpt>
      <trkpt lat="45.89402" lon="2.15898">
        <ele>552.9</ele>
        <time>2026-08-07T10:41:03.000Z</time>
      </trkpt>
      <trkpt lat="45.894" lon="2.15908">
        <ele>552.5</ele>
        <time>2026-08-07T10:41:04.000Z</time>
      </trkpt>
      <trkpt lat="45.89398" lon="2.15918">
        <ele>552</ele>
        <time>2026-08-07T10:41:05.000Z</time>
      </trkpt>
      <trkpt lat="45.89392" lon="2.15957">
        <ele>551.3</ele>
        <time>2026-08-07T10:41:09.000Z</time>
      </trkpt>
      <trkpt lat="45.89385" lon="2.16">
        <ele>550.9</ele>
        <time>2026-08-07T10:41:14.000Z</time>
      </trkpt>
      <trkpt lat="45.89384" lon="2.16008">
        <ele>551.1</ele>
        <time>2026-08-07T10:41:15.000Z</time>
      </trkpt>
      <trkpt lat="45.89379" lon="2.16045">
        <ele>551.6</ele>
        <time>2026-08-07T10:41:20.000Z</time>
      </trkpt>
      <trkpt lat="45.89376" lon="2.1607">
        <ele>551.8</ele>
        <time>2026-08-07T10:41:24.000Z</time>
      </trkpt>
      <trkpt lat="45.89373" lon="2.16087">
        <ele>551.7</ele>
        <time>2026-08-07T10:41:27.000Z</time>
      </trkpt>
      <trkpt lat="45.89364" lon="2.16119">
        <ele>550.3</ele>
        <time>2026-08-07T10:41:33.000Z</time>
      </trkpt>
      <trkpt lat="45.8936" lon="2.16131">
        <ele>549.6</ele>
        <time>2026-08-07T10:41:35.000Z</time>
      </trkpt>
      <trkpt lat="45.89344" lon="2.16161">
        <ele>547.6</ele>
        <time>2026-08-07T10:41:40.000Z</time>
      </trkpt>
      <trkpt lat="45.89326" lon="2.16182">
        <ele>546.3</ele>
        <time>2026-08-07T10:41:44.000Z</time>
      </trkpt>
      <trkpt lat="45.89311" lon="2.16199">
        <ele>544.3</ele>
        <time>2026-08-07T10:41:47.000Z</time>
      </trkpt>
      <trkpt lat="45.89295" lon="2.16217">
        <ele>543.1</ele>
        <time>2026-08-07T10:41:50.000Z</time>
      </trkpt>
      <trkpt lat="45.89283" lon="2.1623">
        <ele>541.9</ele>
        <time>2026-08-07T10:41:52.000Z</time>
      </trkpt>
      <trkpt lat="45.89277" lon="2.16237">
        <ele>541.4</ele>
        <time>2026-08-07T10:41:53.000Z</time>
      </trkpt>
      <trkpt lat="45.89258" lon="2.16258">
        <ele>539.3</ele>
        <time>2026-08-07T10:41:56.000Z</time>
      </trkpt>
      <trkpt lat="45.89245" lon="2.16272">
        <ele>538.5</ele>
        <time>2026-08-07T10:41:58.000Z</time>
      </trkpt>
      <trkpt lat="45.89233" lon="2.16285">
        <ele>537.5</ele>
        <time>2026-08-07T10:42:00.000Z</time>
      </trkpt>
      <trkpt lat="45.89227" lon="2.16292">
        <ele>537.3</ele>
        <time>2026-08-07T10:42:01.000Z</time>
      </trkpt>
      <trkpt lat="45.8921" lon="2.16313">
        <ele>537.1</ele>
        <time>2026-08-07T10:42:04.000Z</time>
      </trkpt>
      <trkpt lat="45.89199" lon="2.16326">
        <ele>536.5</ele>
        <time>2026-08-07T10:42:06.000Z</time>
      </trkpt>
      <trkpt lat="45.89188" lon="2.16338">
        <ele>536</ele>
        <time>2026-08-07T10:42:08.000Z</time>
      </trkpt>
      <trkpt lat="45.89183" lon="2.16344">
        <ele>535.9</ele>
        <time>2026-08-07T10:42:09.000Z</time>
      </trkpt>
      <trkpt lat="45.89156" lon="2.16375">
        <ele>534.7</ele>
        <time>2026-08-07T10:42:14.000Z</time>
      </trkpt>
      <trkpt lat="45.89145" lon="2.16387">
        <ele>534.1</ele>
        <time>2026-08-07T10:42:16.000Z</time>
      </trkpt>
      <trkpt lat="45.89123" lon="2.16413">
        <ele>534</ele>
        <time>2026-08-07T10:42:20.000Z</time>
      </trkpt>
      <trkpt lat="45.89104" lon="2.16432">
        <ele>533.5</ele>
        <time>2026-08-07T10:42:24.000Z</time>
      </trkpt>
      <trkpt lat="45.89094" lon="2.16439">
        <ele>532.8</ele>
        <time>2026-08-07T10:42:26.000Z</time>
      </trkpt>
      <trkpt lat="45.89083" lon="2.16444">
        <ele>531.9</ele>
        <time>2026-08-07T10:42:28.000Z</time>
      </trkpt>
      <trkpt lat="45.89076" lon="2.16445">
        <ele>531.3</ele>
        <time>2026-08-07T10:42:29.000Z</time>
      </trkpt>
      <trkpt lat="45.8907" lon="2.16446">
        <ele>530.6</ele>
        <time>2026-08-07T10:42:30.000Z</time>
      </trkpt>
      <trkpt lat="45.89047" lon="2.16442">
        <ele>528.4</ele>
        <time>2026-08-07T10:42:33.000Z</time>
      </trkpt>
      <trkpt lat="45.89025" lon="2.16436">
        <ele>526.7</ele>
        <time>2026-08-07T10:42:36.000Z</time>
      </trkpt>
      <trkpt lat="45.89009" lon="2.16432">
        <ele>525</ele>
        <time>2026-08-07T10:42:38.000Z</time>
      </trkpt>
      <trkpt lat="45.88994" lon="2.16428">
        <ele>523.6</ele>
        <time>2026-08-07T10:42:40.000Z</time>
      </trkpt>
      <trkpt lat="45.88979" lon="2.16424">
        <ele>522.5</ele>
        <time>2026-08-07T10:42:42.000Z</time>
      </trkpt>
      <trkpt lat="45.88972" lon="2.16421">
        <ele>521.9</ele>
        <time>2026-08-07T10:42:43.000Z</time>
      </trkpt>
      <trkpt lat="45.88964" lon="2.16419">
        <ele>521.1</ele>
        <time>2026-08-07T10:42:44.000Z</time>
      </trkpt>
      <trkpt lat="45.8895" lon="2.16415">
        <ele>519.7</ele>
        <time>2026-08-07T10:42:46.000Z</time>
      </trkpt>
      <trkpt lat="45.88938" lon="2.16411">
        <ele>518.9</ele>
        <time>2026-08-07T10:42:48.000Z</time>
      </trkpt>
      <trkpt lat="45.88926" lon="2.16408">
        <ele>518.2</ele>
        <time>2026-08-07T10:42:50.000Z</time>
      </trkpt>
      <trkpt lat="45.88914" lon="2.16409">
        <ele>517.1</ele>
        <time>2026-08-07T10:42:52.000Z</time>
      </trkpt>
      <trkpt lat="45.88903" lon="2.16417">
        <ele>515</ele>
        <time>2026-08-07T10:42:54.000Z</time>
      </trkpt>
      <trkpt lat="45.88898" lon="2.16424">
        <ele>514.4</ele>
        <time>2026-08-07T10:42:55.000Z</time>
      </trkpt>
      <trkpt lat="45.88894" lon="2.16431">
        <ele>513.8</ele>
        <time>2026-08-07T10:42:56.000Z</time>
      </trkpt>
      <trkpt lat="45.88892" lon="2.16439">
        <ele>513.5</ele>
        <time>2026-08-07T10:42:57.000Z</time>
      </trkpt>
      <trkpt lat="45.88891" lon="2.16448">
        <ele>513</ele>
        <time>2026-08-07T10:42:58.000Z</time>
      </trkpt>
      <trkpt lat="45.88889" lon="2.16466">
        <ele>511.4</ele>
        <time>2026-08-07T10:43:00.000Z</time>
      </trkpt>
      <trkpt lat="45.88888" lon="2.16483">
        <ele>510</ele>
        <time>2026-08-07T10:43:02.000Z</time>
      </trkpt>
      <trkpt lat="45.88888" lon="2.16492">
        <ele>509.4</ele>
        <time>2026-08-07T10:43:03.000Z</time>
      </trkpt>
      <trkpt lat="45.88887" lon="2.16501">
        <ele>508.7</ele>
        <time>2026-08-07T10:43:04.000Z</time>
      </trkpt>
      <trkpt lat="45.88885" lon="2.16518">
        <ele>507.5</ele>
        <time>2026-08-07T10:43:06.000Z</time>
      </trkpt>
      <trkpt lat="45.88883" lon="2.16535">
        <ele>506.7</ele>
        <time>2026-08-07T10:43:08.000Z</time>
      </trkpt>
      <trkpt lat="45.88882" lon="2.16561">
        <ele>506.7</ele>
        <time>2026-08-07T10:43:11.000Z</time>
      </trkpt>
      <trkpt lat="45.88878" lon="2.16578">
        <ele>506.9</ele>
        <time>2026-08-07T10:43:13.000Z</time>
      </trkpt>
      <trkpt lat="45.88876" lon="2.16587">
        <ele>506.6</ele>
        <time>2026-08-07T10:43:14.000Z</time>
      </trkpt>
      <trkpt lat="45.88863" lon="2.16619">
        <ele>503.1</ele>
        <time>2026-08-07T10:43:18.000Z</time>
      </trkpt>
      <trkpt lat="45.88855" lon="2.16632">
        <ele>502.1</ele>
        <time>2026-08-07T10:43:20.000Z</time>
      </trkpt>
      <trkpt lat="45.88847" lon="2.16644">
        <ele>501.1</ele>
        <time>2026-08-07T10:43:22.000Z</time>
      </trkpt>
      <trkpt lat="45.88842" lon="2.16649">
        <ele>500.6</ele>
        <time>2026-08-07T10:43:23.000Z</time>
      </trkpt>
      <trkpt lat="45.88829" lon="2.16662">
        <ele>499.2</ele>
        <time>2026-08-07T10:43:26.000Z</time>
      </trkpt>
      <trkpt lat="45.88823" lon="2.16668">
        <ele>498.7</ele>
        <time>2026-08-07T10:43:28.000Z</time>
      </trkpt>
      <trkpt lat="45.88809" lon="2.16683">
        <ele>500.6</ele>
        <time>2026-08-07T10:43:34.000Z</time>
      </trkpt>
      <trkpt lat="45.88794" lon="2.16701">
        <ele>502.1</ele>
        <time>2026-08-07T10:43:40.000Z</time>
      </trkpt>
      <trkpt lat="45.88791" lon="2.16704">
        <ele>502</ele>
        <time>2026-08-07T10:43:41.000Z</time>
      </trkpt>
      <trkpt lat="45.88773" lon="2.16725">
        <ele>503.7</ele>
        <time>2026-08-07T10:43:48.000Z</time>
      </trkpt>
      <trkpt lat="45.88754" lon="2.16736">
        <ele>502.7</ele>
        <time>2026-08-07T10:43:55.000Z</time>
      </trkpt>
      <trkpt lat="45.88739" lon="2.16736">
        <ele>503.2</ele>
        <time>2026-08-07T10:43:59.000Z</time>
      </trkpt>
      <trkpt lat="45.88729" lon="2.16734">
        <ele>503.6</ele>
        <time>2026-08-07T10:44:02.000Z</time>
      </trkpt>
      <trkpt lat="45.88716" lon="2.1673">
        <ele>503.6</ele>
        <time>2026-08-07T10:44:07.000Z</time>
      </trkpt>
      <trkpt lat="45.88706" lon="2.16728">
        <ele>504</ele>
        <time>2026-08-07T10:44:12.000Z</time>
      </trkpt>
      <trkpt lat="45.88695" lon="2.16726">
        <ele>504.8</ele>
        <time>2026-08-07T10:44:19.000Z</time>
      </trkpt>
      <trkpt lat="45.8869" lon="2.16727">
        <ele>505.3</ele>
        <time>2026-08-07T10:44:22.000Z</time>
      </trkpt>
      <trkpt lat="45.88688" lon="2.16726">
        <ele>505.2</ele>
        <time>2026-08-07T10:44:23.000Z</time>
      </trkpt>
      <trkpt lat="45.88683" lon="2.16725">
        <ele>505.5</ele>
        <time>2026-08-07T10:44:26.000Z</time>
      </trkpt>
      <trkpt lat="45.88671" lon="2.16722">
        <ele>505.8</ele>
        <time>2026-08-07T10:44:34.000Z</time>
      </trkpt>
      <trkpt lat="45.88661" lon="2.16718">
        <ele>506.3</ele>
        <time>2026-08-07T10:44:41.000Z</time>
      </trkpt>
      <trkpt lat="45.88657" lon="2.16718">
        <ele>507</ele>
        <time>2026-08-07T10:44:44.000Z</time>
      </trkpt>
      <trkpt lat="45.88653" lon="2.16721">
        <ele>508.1</ele>
        <time>2026-08-07T10:44:47.000Z</time>
      </trkpt>
      <trkpt lat="45.88652" lon="2.1672">
        <ele>508.2</ele>
        <time>2026-08-07T10:44:48.000Z</time>
      </trkpt>
      <trkpt lat="45.88649" lon="2.16718">
        <ele>508.3</ele>
        <time>2026-08-07T10:44:51.000Z</time>
      </trkpt>
      <trkpt lat="45.88648" lon="2.16717">
        <ele>508.3</ele>
        <time>2026-08-07T10:44:52.000Z</time>
      </trkpt>
      <trkpt lat="45.88645" lon="2.1672">
        <ele>509.4</ele>
        <time>2026-08-07T10:44:55.000Z</time>
      </trkpt>
      <trkpt lat="45.88643" lon="2.16721">
        <ele>509.9</ele>
        <time>2026-08-07T10:44:56.000Z</time>
      </trkpt>
      <trkpt lat="45.88641" lon="2.16719">
        <ele>509.9</ele>
        <time>2026-08-07T10:44:59.000Z</time>
      </trkpt>
      <trkpt lat="45.88638" lon="2.1672">
        <ele>510.4</ele>
        <time>2026-08-07T10:45:01.000Z</time>
      </trkpt>
      <trkpt lat="45.88637" lon="2.16724">
        <ele>511.5</ele>
        <time>2026-08-07T10:45:03.000Z</time>
      </trkpt>
      <trkpt lat="45.88635" lon="2.16724">
        <ele>511.7</ele>
        <time>2026-08-07T10:45:04.000Z</time>
      </trkpt>
      <trkpt lat="45.88633" lon="2.16723">
        <ele>511.6</ele>
        <time>2026-08-07T10:45:06.000Z</time>
      </trkpt>
      <trkpt lat="45.88632" lon="2.16724">
        <ele>511.9</ele>
        <time>2026-08-07T10:45:07.000Z</time>
      </trkpt>
      <trkpt lat="45.8863" lon="2.16727">
        <ele>512.5</ele>
        <time>2026-08-07T10:45:09.000Z</time>
      </trkpt>
      <trkpt lat="45.88628" lon="2.16725">
        <ele>512.4</ele>
        <time>2026-08-07T10:45:11.000Z</time>
      </trkpt>
      <trkpt lat="45.88627" lon="2.16725">
        <ele>512.5</ele>
        <time>2026-08-07T10:45:12.000Z</time>
      </trkpt>
      <trkpt lat="45.88625" lon="2.16726">
        <ele>512.7</ele>
        <time>2026-08-07T10:45:14.000Z</time>
      </trkpt>
      <trkpt lat="45.88624" lon="2.16728">
        <ele>513.1</ele>
        <time>2026-08-07T10:45:15.000Z</time>
      </trkpt>
      <trkpt lat="45.8862" lon="2.1673">
        <ele>513.7</ele>
        <time>2026-08-07T10:45:18.000Z</time>
      </trkpt>
      <trkpt lat="45.88619" lon="2.16732">
        <ele>514</ele>
        <time>2026-08-07T10:45:19.000Z</time>
      </trkpt>
      <trkpt lat="45.88618" lon="2.16735">
        <ele>514.5</ele>
        <time>2026-08-07T10:45:21.000Z</time>
      </trkpt>
      <trkpt lat="45.88615" lon="2.16734">
        <ele>514.5</ele>
        <time>2026-08-07T10:45:23.000Z</time>
      </trkpt>
      <trkpt lat="45.88614" lon="2.16735">
        <ele>514.6</ele>
        <time>2026-08-07T10:45:24.000Z</time>
      </trkpt>
      <trkpt lat="45.88611" lon="2.16739">
        <ele>515.5</ele>
        <time>2026-08-07T10:45:27.000Z</time>
      </trkpt>
      <trkpt lat="45.8861" lon="2.16741">
        <ele>515.6</ele>
        <time>2026-08-07T10:45:28.000Z</time>
      </trkpt>
      <trkpt lat="45.88607" lon="2.16741">
        <ele>515.6</ele>
        <time>2026-08-07T10:45:30.000Z</time>
      </trkpt>
      <trkpt lat="45.88605" lon="2.16741">
        <ele>515.6</ele>
        <time>2026-08-07T10:45:31.000Z</time>
      </trkpt>
      <trkpt lat="45.88604" lon="2.16741">
        <ele>515.6</ele>
        <time>2026-08-07T10:45:32.000Z</time>
      </trkpt>
      <trkpt lat="45.88601" lon="2.16744">
        <ele>516</ele>
        <time>2026-08-07T10:45:35.000Z</time>
      </trkpt>
      <trkpt lat="45.88599" lon="2.16743">
        <ele>515.9</ele>
        <time>2026-08-07T10:45:37.000Z</time>
      </trkpt>
      <trkpt lat="45.88598" lon="2.16743">
        <ele>515.9</ele>
        <time>2026-08-07T10:45:38.000Z</time>
      </trkpt>
      <trkpt lat="45.88597" lon="2.16744">
        <ele>516</ele>
        <time>2026-08-07T10:45:39.000Z</time>
      </trkpt>
      <trkpt lat="45.88597" lon="2.16747">
        <ele>516.5</ele>
        <time>2026-08-07T10:45:41.000Z</time>
      </trkpt>
      <trkpt lat="45.88596" lon="2.16748">
        <ele>516.6</ele>
        <time>2026-08-07T10:45:42.000Z</time>
      </trkpt>
      <trkpt lat="45.88593" lon="2.1675">
        <ele>516.9</ele>
        <time>2026-08-07T10:45:44.000Z</time>
      </trkpt>
      <trkpt lat="45.88591" lon="2.16755">
        <ele>517.8</ele>
        <time>2026-08-07T10:45:47.000Z</time>
      </trkpt>
      <trkpt lat="45.88587" lon="2.16756">
        <ele>518</ele>
        <time>2026-08-07T10:45:50.000Z</time>
      </trkpt>
      <trkpt lat="45.88586" lon="2.16757">
        <ele>518.2</ele>
        <time>2026-08-07T10:45:51.000Z</time>
      </trkpt>
      <trkpt lat="45.88585" lon="2.16759">
        <ele>518.6</ele>
        <time>2026-08-07T10:45:52.000Z</time>
      </trkpt>
      <trkpt lat="45.88584" lon="2.16763">
        <ele>519.3</ele>
        <time>2026-08-07T10:45:54.000Z</time>
      </trkpt>
      <trkpt lat="45.8858" lon="2.16763">
        <ele>519.3</ele>
        <time>2026-08-07T10:45:57.000Z</time>
      </trkpt>
      <trkpt lat="45.88579" lon="2.16765">
        <ele>519.4</ele>
        <time>2026-08-07T10:45:58.000Z</time>
      </trkpt>
      <trkpt lat="45.88577" lon="2.1677">
        <ele>520.2</ele>
        <time>2026-08-07T10:46:01.000Z</time>
      </trkpt>
      <trkpt lat="45.88575" lon="2.1677">
        <ele>520.1</ele>
        <time>2026-08-07T10:46:03.000Z</time>
      </trkpt>
      <trkpt lat="45.88573" lon="2.16771">
        <ele>520.2</ele>
        <time>2026-08-07T10:46:04.000Z</time>
      </trkpt>
      <trkpt lat="45.88572" lon="2.16776">
        <ele>520.9</ele>
        <time>2026-08-07T10:46:07.000Z</time>
      </trkpt>
      <trkpt lat="45.88571" lon="2.16778">
        <ele>521</ele>
        <time>2026-08-07T10:46:08.000Z</time>
      </trkpt>
      <trkpt lat="45.88567" lon="2.16779">
        <ele>521</ele>
        <time>2026-08-07T10:46:11.000Z</time>
      </trkpt>
      <trkpt lat="45.88564" lon="2.16781">
        <ele>521</ele>
        <time>2026-08-07T10:46:13.000Z</time>
      </trkpt>
      <trkpt lat="45.8856" lon="2.16785">
        <ele>521.1</ele>
        <time>2026-08-07T10:46:17.000Z</time>
      </trkpt>
      <trkpt lat="45.88559" lon="2.16786">
        <ele>521.1</ele>
        <time>2026-08-07T10:46:19.000Z</time>
      </trkpt>
      <trkpt lat="45.88558" lon="2.16786">
        <ele>521.1</ele>
        <time>2026-08-07T10:46:20.000Z</time>
      </trkpt>
      <trkpt lat="45.88557" lon="2.16788">
        <ele>521.2</ele>
        <time>2026-08-07T10:46:21.000Z</time>
      </trkpt>
      <trkpt lat="45.88556" lon="2.1679">
        <ele>521.3</ele>
        <time>2026-08-07T10:46:22.000Z</time>
      </trkpt>
      <trkpt lat="45.88551" lon="2.168">
        <ele>522.4</ele>
        <time>2026-08-07T10:46:29.000Z</time>
      </trkpt>
      <trkpt lat="45.8855" lon="2.16802">
        <ele>522.6</ele>
        <time>2026-08-07T10:46:30.000Z</time>
      </trkpt>
      <trkpt lat="45.88538" lon="2.16819">
        <ele>523.8</ele>
        <time>2026-08-07T10:46:41.000Z</time>
      </trkpt>
      <trkpt lat="45.88535" lon="2.16824">
        <ele>524</ele>
        <time>2026-08-07T10:46:44.000Z</time>
      </trkpt>
      <trkpt lat="45.88532" lon="2.16832">
        <ele>524.3</ele>
        <time>2026-08-07T10:46:48.000Z</time>
      </trkpt>
      <trkpt lat="45.88531" lon="2.16834">
        <ele>524.2</ele>
        <time>2026-08-07T10:46:49.000Z</time>
      </trkpt>
      <trkpt lat="45.88524" lon="2.16845">
        <ele>524.9</ele>
        <time>2026-08-07T10:46:56.000Z</time>
      </trkpt>
      <trkpt lat="45.88523" lon="2.16847">
        <ele>525</ele>
        <time>2026-08-07T10:46:57.000Z</time>
      </trkpt>
      <trkpt lat="45.88518" lon="2.16856">
        <ele>525.6</ele>
        <time>2026-08-07T10:47:02.000Z</time>
      </trkpt>
      <trkpt lat="45.88515" lon="2.1686">
        <ele>525.9</ele>
        <time>2026-08-07T10:47:04.000Z</time>
      </trkpt>
      <trkpt lat="45.88508" lon="2.16868">
        <ele>526.5</ele>
        <time>2026-08-07T10:47:09.000Z</time>
      </trkpt>
      <trkpt lat="45.88504" lon="2.16872">
        <ele>526.8</ele>
        <time>2026-08-07T10:47:11.000Z</time>
      </trkpt>
      <trkpt lat="45.88487" lon="2.16886">
        <ele>526.8</ele>
        <time>2026-08-07T10:47:19.000Z</time>
      </trkpt>
      <trkpt lat="45.88473" lon="2.16893">
        <ele>526.4</ele>
        <time>2026-08-07T10:47:26.000Z</time>
      </trkpt>
      <trkpt lat="45.88473" lon="2.16893">
        <ele>526.4</ele>
        <time>2026-08-07T10:47:28.000Z</time>
      </trkpt>
      <trkpt lat="45.88466" lon="2.16894">
        <ele>526.4</ele>
        <time>2026-08-07T10:48:05.000Z</time>
      </trkpt>
      <trkpt lat="45.88464" lon="2.16895">
        <ele>526.4</ele>
        <time>2026-08-07T10:48:06.000Z</time>
      </trkpt>
      <trkpt lat="45.88456" lon="2.16898">
        <ele>526.7</ele>
        <time>2026-08-07T10:48:10.000Z</time>
      </trkpt>
      <trkpt lat="45.88447" lon="2.16902">
        <ele>527</ele>
        <time>2026-08-07T10:48:15.000Z</time>
      </trkpt>
      <trkpt lat="45.88422" lon="2.16911">
        <ele>526.8</ele>
        <time>2026-08-07T10:48:26.000Z</time>
      </trkpt>
      <trkpt lat="45.88403" lon="2.16918">
        <ele>526.5</ele>
        <time>2026-08-07T10:48:34.000Z</time>
      </trkpt>
      <trkpt lat="45.884" lon="2.16919">
        <ele>526.5</ele>
        <time>2026-08-07T10:48:35.000Z</time>
      </trkpt>
      <trkpt lat="45.88384" lon="2.16926">
        <ele>526.4</ele>
        <time>2026-08-07T10:48:43.000Z</time>
      </trkpt>
      <trkpt lat="45.88373" lon="2.16927">
        <ele>526.6</ele>
        <time>2026-08-07T10:48:49.000Z</time>
      </trkpt>
      <trkpt lat="45.88366" lon="2.16928">
        <ele>526.7</ele>
        <time>2026-08-07T10:48:53.000Z</time>
      </trkpt>
      <trkpt lat="45.88358" lon="2.16929">
        <ele>526.9</ele>
        <time>2026-08-07T10:48:57.000Z</time>
      </trkpt>
      <trkpt lat="45.88346" lon="2.16935">
        <ele>527.8</ele>
        <time>2026-08-07T10:49:03.000Z</time>
      </trkpt>
      <trkpt lat="45.88345" lon="2.16938">
        <ele>528.4</ele>
        <time>2026-08-07T10:49:04.000Z</time>
      </trkpt>
      <trkpt lat="45.88343" lon="2.16958">
        <ele>529</ele>
        <time>2026-08-07T10:49:11.000Z</time>
      </trkpt>
      <trkpt lat="45.88344" lon="2.1696">
        <ele>528.9</ele>
        <time>2026-08-07T10:49:12.000Z</time>
      </trkpt>
      <trkpt lat="45.88351" lon="2.16982">
        <ele>529.9</ele>
        <time>2026-08-07T10:49:19.000Z</time>
      </trkpt>
      <trkpt lat="45.88353" lon="2.1699">
        <ele>530.9</ele>
        <time>2026-08-07T10:49:21.000Z</time>
      </trkpt>
      <trkpt lat="45.88359" lon="2.17009">
        <ele>532.3</ele>
        <time>2026-08-07T10:49:27.000Z</time>
      </trkpt>
      <trkpt lat="45.88366" lon="2.17035">
        <ele>533.5</ele>
        <time>2026-08-07T10:49:36.000Z</time>
      </trkpt>
      <trkpt lat="45.8837" lon="2.17047">
        <ele>534.2</ele>
        <time>2026-08-07T10:49:41.000Z</time>
      </trkpt>
      <trkpt lat="45.88373" lon="2.17052">
        <ele>534.4</ele>
        <time>2026-08-07T10:49:43.000Z</time>
      </trkpt>
      <trkpt lat="45.8838" lon="2.17069">
        <ele>535.6</ele>
        <time>2026-08-07T10:49:50.000Z</time>
      </trkpt>
      <trkpt lat="45.88381" lon="2.17071">
        <ele>535.8</ele>
        <time>2026-08-07T10:49:51.000Z</time>
      </trkpt>
      <trkpt lat="45.88383" lon="2.17076">
        <ele>536.2</ele>
        <time>2026-08-07T10:49:54.000Z</time>
      </trkpt>
      <trkpt lat="45.88384" lon="2.17078">
        <ele>536.4</ele>
        <time>2026-08-07T10:49:55.000Z</time>
      </trkpt>
      <trkpt lat="45.88383" lon="2.1708">
        <ele>536.6</ele>
        <time>2026-08-07T10:49:56.000Z</time>
      </trkpt>
      <trkpt lat="45.88382" lon="2.17082">
        <ele>536.9</ele>
        <time>2026-08-07T10:49:58.000Z</time>
      </trkpt>
      <trkpt lat="45.88381" lon="2.17086">
        <ele>537.2</ele>
        <time>2026-08-07T10:50:00.000Z</time>
      </trkpt>
      <trkpt lat="45.88377" lon="2.17093">
        <ele>537.6</ele>
        <time>2026-08-07T10:50:04.000Z</time>
      </trkpt>
      <trkpt lat="45.88376" lon="2.17095">
        <ele>537.7</ele>
        <time>2026-08-07T10:50:05.000Z</time>
      </trkpt>
      <trkpt lat="45.88375" lon="2.17103">
        <ele>538.1</ele>
        <time>2026-08-07T10:50:10.000Z</time>
      </trkpt>
      <trkpt lat="45.88372" lon="2.17111">
        <ele>538.4</ele>
        <time>2026-08-07T10:50:14.000Z</time>
      </trkpt>
      <trkpt lat="45.88371" lon="2.17121">
        <ele>539</ele>
        <time>2026-08-07T10:50:18.000Z</time>
      </trkpt>
      <trkpt lat="45.8837" lon="2.17129">
        <ele>539.6</ele>
        <time>2026-08-07T10:50:21.000Z</time>
      </trkpt>
      <trkpt lat="45.88368" lon="2.17133">
        <ele>539.8</ele>
        <time>2026-08-07T10:50:23.000Z</time>
      </trkpt>
      <trkpt lat="45.88366" lon="2.17142">
        <ele>540.3</ele>
        <time>2026-08-07T10:50:27.000Z</time>
      </trkpt>
      <trkpt lat="45.88365" lon="2.1715">
        <ele>540.7</ele>
        <time>2026-08-07T10:50:30.000Z</time>
      </trkpt>
      <trkpt lat="45.88363" lon="2.17161">
        <ele>540.9</ele>
        <time>2026-08-07T10:50:35.000Z</time>
      </trkpt>
      <trkpt lat="45.88361" lon="2.1717">
        <ele>541.2</ele>
        <time>2026-08-07T10:50:40.000Z</time>
      </trkpt>
      <trkpt lat="45.88361" lon="2.17177">
        <ele>541.7</ele>
        <time>2026-08-07T10:50:44.000Z</time>
      </trkpt>
      <trkpt lat="45.8836" lon="2.17178">
        <ele>541.8</ele>
        <time>2026-08-07T10:50:45.000Z</time>
      </trkpt>
      <trkpt lat="45.88358" lon="2.17193">
        <ele>543</ele>
        <time>2026-08-07T10:50:53.000Z</time>
      </trkpt>
      <trkpt lat="45.88358" lon="2.17195">
        <ele>543.1</ele>
        <time>2026-08-07T10:50:54.000Z</time>
      </trkpt>
      <trkpt lat="45.88357" lon="2.17197">
        <ele>543.2</ele>
        <time>2026-08-07T10:50:56.000Z</time>
      </trkpt>
      <trkpt lat="45.88356" lon="2.17203">
        <ele>543.4</ele>
        <time>2026-08-07T10:50:59.000Z</time>
      </trkpt>
      <trkpt lat="45.88355" lon="2.1721">
        <ele>543.7</ele>
        <time>2026-08-07T10:51:03.000Z</time>
      </trkpt>
      <trkpt lat="45.88354" lon="2.17213">
        <ele>543.7</ele>
        <time>2026-08-07T10:51:06.000Z</time>
      </trkpt>
      <trkpt lat="45.88352" lon="2.17229">
        <ele>544.2</ele>
        <time>2026-08-07T10:51:13.000Z</time>
      </trkpt>
      <trkpt lat="45.88352" lon="2.17231">
        <ele>544.2</ele>
        <time>2026-08-07T10:51:14.000Z</time>
      </trkpt>
      <trkpt lat="45.88351" lon="2.1724">
        <ele>544.4</ele>
        <time>2026-08-07T10:51:18.000Z</time>
      </trkpt>
      <trkpt lat="45.88351" lon="2.17242">
        <ele>544.4</ele>
        <time>2026-08-07T10:51:19.000Z</time>
      </trkpt>
      <trkpt lat="45.88351" lon="2.17246">
        <ele>544.5</ele>
        <time>2026-08-07T10:51:21.000Z</time>
      </trkpt>
      <trkpt lat="45.88351" lon="2.17248">
        <ele>544.6</ele>
        <time>2026-08-07T10:51:22.000Z</time>
      </trkpt>
      <trkpt lat="45.88351" lon="2.1725">
        <ele>544.6</ele>
        <time>2026-08-07T10:51:23.000Z</time>
      </trkpt>
      <trkpt lat="45.88351" lon="2.17251">
        <ele>544.6</ele>
        <time>2026-08-07T10:51:26.000Z</time>
      </trkpt>
      <trkpt lat="45.88355" lon="2.17263">
        <ele>544.4</ele>
        <time>2026-08-07T10:53:12.000Z</time>
      </trkpt>
      <trkpt lat="45.88354" lon="2.17263">
        <ele>544.4</ele>
        <time>2026-08-07T10:53:13.000Z</time>
      </trkpt>
      <trkpt lat="45.88351" lon="2.17265">
        <ele>544.3</ele>
        <time>2026-08-07T10:53:16.000Z</time>
      </trkpt>
      <trkpt lat="45.88351" lon="2.17268">
        <ele>544.2</ele>
        <time>2026-08-07T10:53:18.000Z</time>
      </trkpt>
      <trkpt lat="45.88351" lon="2.17268">
        <ele>544.2</ele>
        <time>2026-08-07T10:53:21.000Z</time>
      </trkpt>
      <trkpt lat="45.88351" lon="2.1727">
        <ele>544.2</ele>
        <time>2026-08-07T10:53:25.000Z</time>
      </trkpt>
      <trkpt lat="45.88351" lon="2.1727">
        <ele>544.2</ele>
        <time>2026-08-07T10:53:30.000Z</time>
      </trkpt>
      <trkpt lat="45.88342" lon="2.17268">
        <ele>544.1</ele>
        <time>2026-08-07T10:53:57.000Z</time>
      </trkpt>
      <trkpt lat="45.88342" lon="2.17268">
        <ele>544.1</ele>
        <time>2026-08-07T10:53:59.000Z</time>
      </trkpt>
      <trkpt lat="45.88342" lon="2.1727">
        <ele>544.1</ele>
        <time>2026-08-07T10:54:04.000Z</time>
      </trkpt>
      <trkpt lat="45.88342" lon="2.1727">
        <ele>544.1</ele>
        <time>2026-08-07T10:54:05.000Z</time>
      </trkpt>
      <trkpt lat="45.88342" lon="2.17316">
        <ele>543.7</ele>
        <time>2026-08-07T11:28:49.000Z</time>
      </trkpt>
      <trkpt lat="45.88342" lon="2.17316">
        <ele>543.7</ele>
        <time>2026-08-07T11:28:50.000Z</time>
      </trkpt>
      <trkpt lat="45.88334" lon="2.17334">
        <ele>543</ele>
        <time>2026-08-07T13:19:43.000Z</time>
      </trkpt>
      <trkpt lat="45.8833" lon="2.17338">
        <ele>543</ele>
        <time>2026-08-07T13:19:45.000Z</time>
      </trkpt>
      <trkpt lat="45.88315" lon="2.17355">
        <ele>543</ele>
        <time>2026-08-07T13:19:52.000Z</time>
      </trkpt>
      <trkpt lat="45.88311" lon="2.17358">
        <ele>543</ele>
        <time>2026-08-07T13:19:54.000Z</time>
      </trkpt>
      <trkpt lat="45.88306" lon="2.17363">
        <ele>542.9</ele>
        <time>2026-08-07T13:19:56.000Z</time>
      </trkpt>
      <trkpt lat="45.88295" lon="2.17389">
        <ele>542</ele>
        <time>2026-08-07T13:20:01.000Z</time>
      </trkpt>
      <trkpt lat="45.88295" lon="2.17393">
        <ele>542</ele>
        <time>2026-08-07T13:20:02.000Z</time>
      </trkpt>
      <trkpt lat="45.88295" lon="2.174">
        <ele>542</ele>
        <time>2026-08-07T13:20:04.000Z</time>
      </trkpt>
      <trkpt lat="45.88295" lon="2.17408">
        <ele>542</ele>
        <time>2026-08-07T13:20:06.000Z</time>
      </trkpt>
      <trkpt lat="45.88293" lon="2.17412">
        <ele>542</ele>
        <time>2026-08-07T13:20:08.000Z</time>
      </trkpt>
      <trkpt lat="45.88289" lon="2.17418">
        <ele>542</ele>
        <time>2026-08-07T13:20:11.000Z</time>
      </trkpt>
      <trkpt lat="45.88282" lon="2.17429">
        <ele>541.6</ele>
        <time>2026-08-07T13:20:16.000Z</time>
      </trkpt>
      <trkpt lat="45.8828" lon="2.1743">
        <ele>541.5</ele>
        <time>2026-08-07T13:20:17.000Z</time>
      </trkpt>
      <trkpt lat="45.88255" lon="2.17444">
        <ele>539.4</ele>
        <time>2026-08-07T13:20:25.000Z</time>
      </trkpt>
      <trkpt lat="45.88237" lon="2.17453">
        <ele>538.5</ele>
        <time>2026-08-07T13:20:31.000Z</time>
      </trkpt>
      <trkpt lat="45.88235" lon="2.17455">
        <ele>538.5</ele>
        <time>2026-08-07T13:20:32.000Z</time>
      </trkpt>
      <trkpt lat="45.88221" lon="2.17466">
        <ele>538</ele>
        <time>2026-08-07T13:20:37.000Z</time>
      </trkpt>
      <trkpt lat="45.88217" lon="2.17466">
        <ele>538.2</ele>
        <time>2026-08-07T13:20:38.000Z</time>
      </trkpt>
      <trkpt lat="45.88208" lon="2.17456">
        <ele>538.2</ele>
        <time>2026-08-07T13:20:41.000Z</time>
      </trkpt>
      <trkpt lat="45.88199" lon="2.17434">
        <ele>537.4</ele>
        <time>2026-08-07T13:20:47.000Z</time>
      </trkpt>
      <trkpt lat="45.88184" lon="2.17419">
        <ele>536.9</ele>
        <time>2026-08-07T13:20:52.000Z</time>
      </trkpt>
      <trkpt lat="45.88176" lon="2.17412">
        <ele>537</ele>
        <time>2026-08-07T13:20:56.000Z</time>
      </trkpt>
      <trkpt lat="45.88175" lon="2.17412">
        <ele>537</ele>
        <time>2026-08-07T13:20:57.000Z</time>
      </trkpt>
      <trkpt lat="45.88168" lon="2.17412">
        <ele>537.6</ele>
        <time>2026-08-07T13:21:00.000Z</time>
      </trkpt>
      <trkpt lat="45.88163" lon="2.17406">
        <ele>537.3</ele>
        <time>2026-08-07T13:21:02.000Z</time>
      </trkpt>
      <trkpt lat="45.8815" lon="2.17393">
        <ele>535.9</ele>
        <time>2026-08-07T13:21:07.000Z</time>
      </trkpt>
      <trkpt lat="45.88139" lon="2.17388">
        <ele>535</ele>
        <time>2026-08-07T13:21:10.000Z</time>
      </trkpt>
      <trkpt lat="45.88124" lon="2.17382">
        <ele>534.2</ele>
        <time>2026-08-07T13:21:14.000Z</time>
      </trkpt>
      <trkpt lat="45.8812" lon="2.17378">
        <ele>533.9</ele>
        <time>2026-08-07T13:21:16.000Z</time>
      </trkpt>
      <trkpt lat="45.88112" lon="2.17374">
        <ele>533.5</ele>
        <time>2026-08-07T13:21:20.000Z</time>
      </trkpt>
      <trkpt lat="45.88111" lon="2.17372">
        <ele>533.4</ele>
        <time>2026-08-07T13:21:21.000Z</time>
      </trkpt>
      <trkpt lat="45.88099" lon="2.17367">
        <ele>533.4</ele>
        <time>2026-08-07T13:21:26.000Z</time>
      </trkpt>
      <trkpt lat="45.88097" lon="2.17364">
        <ele>533.2</ele>
        <time>2026-08-07T13:21:27.000Z</time>
      </trkpt>
      <trkpt lat="45.88088" lon="2.17352">
        <ele>531.8</ele>
        <time>2026-08-07T13:21:31.000Z</time>
      </trkpt>
      <trkpt lat="45.88086" lon="2.17349">
        <ele>531.4</ele>
        <time>2026-08-07T13:21:32.000Z</time>
      </trkpt>
      <trkpt lat="45.88081" lon="2.17345">
        <ele>530.6</ele>
        <time>2026-08-07T13:21:35.000Z</time>
      </trkpt>
      <trkpt lat="45.88078" lon="2.17343">
        <ele>530</ele>
        <time>2026-08-07T13:21:37.000Z</time>
      </trkpt>
      <trkpt lat="45.88077" lon="2.17342">
        <ele>529.9</ele>
        <time>2026-08-07T13:21:39.000Z</time>
      </trkpt>
      <trkpt lat="45.88077" lon="2.17342">
        <ele>529.9</ele>
        <time>2026-08-07T13:21:40.000Z</time>
      </trkpt>
      <trkpt lat="45.88072" lon="2.17338">
        <ele>528.8</ele>
        <time>2026-08-07T13:21:49.000Z</time>
      </trkpt>
      <trkpt lat="45.88054" lon="2.1733">
        <ele>526.7</ele>
        <time>2026-08-07T13:21:54.000Z</time>
      </trkpt>
      <trkpt lat="45.88045" lon="2.17327">
        <ele>526.2</ele>
        <time>2026-08-07T13:21:56.000Z</time>
      </trkpt>
      <trkpt lat="45.8804" lon="2.17327">
        <ele>526</ele>
        <time>2026-08-07T13:21:57.000Z</time>
      </trkpt>
      <trkpt lat="45.88031" lon="2.17327">
        <ele>525.6</ele>
        <time>2026-08-07T13:21:59.000Z</time>
      </trkpt>
      <trkpt lat="45.88025" lon="2.17326">
        <ele>525.6</ele>
        <time>2026-08-07T13:22:00.000Z</time>
      </trkpt>
      <trkpt lat="45.88015" lon="2.1732">
        <ele>525.8</ele>
        <time>2026-08-07T13:22:02.000Z</time>
      </trkpt>
      <trkpt lat="45.88011" lon="2.17314">
        <ele>525.4</ele>
        <time>2026-08-07T13:22:03.000Z</time>
      </trkpt>
      <trkpt lat="45.88007" lon="2.17307">
        <ele>524.9</ele>
        <time>2026-08-07T13:22:04.000Z</time>
      </trkpt>
      <trkpt lat="45.88" lon="2.17292">
        <ele>523</ele>
        <time>2026-08-07T13:22:06.000Z</time>
      </trkpt>
      <trkpt lat="45.87998" lon="2.17286">
        <ele>522.5</ele>
        <time>2026-08-07T13:22:07.000Z</time>
      </trkpt>
      <trkpt lat="45.87995" lon="2.1728">
        <ele>522.2</ele>
        <time>2026-08-07T13:22:08.000Z</time>
      </trkpt>
      <trkpt lat="45.87992" lon="2.17275">
        <ele>522.2</ele>
        <time>2026-08-07T13:22:09.000Z</time>
      </trkpt>
      <trkpt lat="45.8799" lon="2.17271">
        <ele>522.4</ele>
        <time>2026-08-07T13:22:10.000Z</time>
      </trkpt>
      <trkpt lat="45.87984" lon="2.1726">
        <ele>522</ele>
        <time>2026-08-07T13:22:12.000Z</time>
      </trkpt>
      <trkpt lat="45.87982" lon="2.17254">
        <ele>521.4</ele>
        <time>2026-08-07T13:22:13.000Z</time>
      </trkpt>
      <trkpt lat="45.8798" lon="2.17248">
        <ele>520.8</ele>
        <time>2026-08-07T13:22:14.000Z</time>
      </trkpt>
      <trkpt lat="45.87973" lon="2.17229">
        <ele>519.5</ele>
        <time>2026-08-07T13:22:17.000Z</time>
      </trkpt>
      <trkpt lat="45.87968" lon="2.17217">
        <ele>519.7</ele>
        <time>2026-08-07T13:22:19.000Z</time>
      </trkpt>
      <trkpt lat="45.87965" lon="2.17212">
        <ele>520</ele>
        <time>2026-08-07T13:22:20.000Z</time>
      </trkpt>
      <trkpt lat="45.8795" lon="2.17188">
        <ele>519.6</ele>
        <time>2026-08-07T13:22:25.000Z</time>
      </trkpt>
      <trkpt lat="45.87944" lon="2.17179">
        <ele>518.3</ele>
        <time>2026-08-07T13:22:27.000Z</time>
      </trkpt>
      <trkpt lat="45.87936" lon="2.17173">
        <ele>516.8</ele>
        <time>2026-08-07T13:22:29.000Z</time>
      </trkpt>
      <trkpt lat="45.87932" lon="2.17171">
        <ele>516.2</ele>
        <time>2026-08-07T13:22:30.000Z</time>
      </trkpt>
      <trkpt lat="45.87918" lon="2.17165">
        <ele>513.8</ele>
        <time>2026-08-07T13:22:33.000Z</time>
      </trkpt>
      <trkpt lat="45.87911" lon="2.17161">
        <ele>513.5</ele>
        <time>2026-08-07T13:22:35.000Z</time>
      </trkpt>
      <trkpt lat="45.87908" lon="2.17159">
        <ele>513.4</ele>
        <time>2026-08-07T13:22:36.000Z</time>
      </trkpt>
      <trkpt lat="45.87902" lon="2.17155">
        <ele>513</ele>
        <time>2026-08-07T13:22:38.000Z</time>
      </trkpt>
      <trkpt lat="45.87891" lon="2.17149">
        <ele>512.1</ele>
        <time>2026-08-07T13:22:41.000Z</time>
      </trkpt>
      <trkpt lat="45.87884" lon="2.17146">
        <ele>511.4</ele>
        <time>2026-08-07T13:22:43.000Z</time>
      </trkpt>
      <trkpt lat="45.87879" lon="2.17144">
        <ele>511</ele>
        <time>2026-08-07T13:22:44.000Z</time>
      </trkpt>
      <trkpt lat="45.87875" lon="2.17142">
        <ele>510.3</ele>
        <time>2026-08-07T13:22:45.000Z</time>
      </trkpt>
      <trkpt lat="45.87865" lon="2.17139">
        <ele>509.2</ele>
        <time>2026-08-07T13:22:47.000Z</time>
      </trkpt>
      <trkpt lat="45.87861" lon="2.17138">
        <ele>508.9</ele>
        <time>2026-08-07T13:22:48.000Z</time>
      </trkpt>
      <trkpt lat="45.87857" lon="2.17138">
        <ele>508.7</ele>
        <time>2026-08-07T13:22:49.000Z</time>
      </trkpt>
      <trkpt lat="45.87848" lon="2.17138">
        <ele>508.4</ele>
        <time>2026-08-07T13:22:51.000Z</time>
      </trkpt>
      <trkpt lat="45.87843" lon="2.17138">
        <ele>508.3</ele>
        <time>2026-08-07T13:22:52.000Z</time>
      </trkpt>
      <trkpt lat="45.87809" lon="2.17141">
        <ele>507.6</ele>
        <time>2026-08-07T13:22:58.000Z</time>
      </trkpt>
      <trkpt lat="45.87799" lon="2.17142">
        <ele>507.9</ele>
        <time>2026-08-07T13:23:00.000Z</time>
      </trkpt>
      <trkpt lat="45.87766" lon="2.17148">
        <ele>508.3</ele>
        <time>2026-08-07T13:23:07.000Z</time>
      </trkpt>
      <trkpt lat="45.87758" lon="2.17149">
        <ele>508.2</ele>
        <time>2026-08-07T13:23:09.000Z</time>
      </trkpt>
      <trkpt lat="45.87751" lon="2.1715">
        <ele>507.8</ele>
        <time>2026-08-07T13:23:12.000Z</time>
      </trkpt>
      <trkpt lat="45.87746" lon="2.17148">
        <ele>507.4</ele>
        <time>2026-08-07T13:23:15.000Z</time>
      </trkpt>
      <trkpt lat="45.87745" lon="2.17147">
        <ele>507</ele>
        <time>2026-08-07T13:23:16.000Z</time>
      </trkpt>
      <trkpt lat="45.87744" lon="2.17145">
        <ele>506.5</ele>
        <time>2026-08-07T13:23:17.000Z</time>
      </trkpt>
      <trkpt lat="45.87744" lon="2.17143">
        <ele>506.2</ele>
        <time>2026-08-07T13:23:19.000Z</time>
      </trkpt>
      <trkpt lat="45.87743" lon="2.17143">
        <ele>506.1</ele>
        <time>2026-08-07T13:23:20.000Z</time>
      </trkpt>
      <trkpt lat="45.87743" lon="2.17142">
        <ele>506</ele>
        <time>2026-08-07T13:23:21.000Z</time>
      </trkpt>
      <trkpt lat="45.87743" lon="2.17141">
        <ele>505.6</ele>
        <time>2026-08-07T13:23:22.000Z</time>
      </trkpt>
      <trkpt lat="45.87743" lon="2.17137">
        <ele>505.2</ele>
        <time>2026-08-07T13:23:23.000Z</time>
      </trkpt>
      <trkpt lat="45.87745" lon="2.17132">
        <ele>505.1</ele>
        <time>2026-08-07T13:23:25.000Z</time>
      </trkpt>
      <trkpt lat="45.87744" lon="2.17122">
        <ele>505.1</ele>
        <time>2026-08-07T13:23:28.000Z</time>
      </trkpt>
      <trkpt lat="45.87744" lon="2.17099">
        <ele>505.8</ele>
        <time>2026-08-07T13:23:35.000Z</time>
      </trkpt>
      <trkpt lat="45.87745" lon="2.17098">
        <ele>505.9</ele>
        <time>2026-08-07T13:23:36.000Z</time>
      </trkpt>
      <trkpt lat="45.87747" lon="2.17093">
        <ele>506.2</ele>
        <time>2026-08-07T13:23:40.000Z</time>
      </trkpt>
      <trkpt lat="45.87755" lon="2.17091">
        <ele>506.5</ele>
        <time>2026-08-07T13:23:47.000Z</time>
      </trkpt>
      <trkpt lat="45.87761" lon="2.17094">
        <ele>506.4</ele>
        <time>2026-08-07T13:23:53.000Z</time>
      </trkpt>
      <trkpt lat="45.87762" lon="2.17094">
        <ele>506.4</ele>
        <time>2026-08-07T13:23:54.000Z</time>
      </trkpt>
      <trkpt lat="45.87769" lon="2.17094">
        <ele>506.5</ele>
        <time>2026-08-07T13:24:01.000Z</time>
      </trkpt>
      <trkpt lat="45.87777" lon="2.1709">
        <ele>506.7</ele>
        <time>2026-08-07T13:24:06.000Z</time>
      </trkpt>
      <trkpt lat="45.8778" lon="2.1709">
        <ele>506.7</ele>
        <time>2026-08-07T13:24:08.000Z</time>
      </trkpt>
      <trkpt lat="45.87785" lon="2.1709">
        <ele>506.6</ele>
        <time>2026-08-07T13:24:11.000Z</time>
      </trkpt>
      <trkpt lat="45.8779" lon="2.17087">
        <ele>506.5</ele>
        <time>2026-08-07T13:24:15.000Z</time>
      </trkpt>
      <trkpt lat="45.87793" lon="2.17086">
        <ele>506.4</ele>
        <time>2026-08-07T13:24:17.000Z</time>
      </trkpt>
      <trkpt lat="45.87804" lon="2.17086">
        <ele>506.1</ele>
        <time>2026-08-07T13:24:26.000Z</time>
      </trkpt>
      <trkpt lat="45.87813" lon="2.17084">
        <ele>505.7</ele>
        <time>2026-08-07T13:24:35.000Z</time>
      </trkpt>
      <trkpt lat="45.87813" lon="2.17084">
        <ele>505.7</ele>
        <time>2026-08-07T13:24:36.000Z</time>
      </trkpt>
      <trkpt lat="45.87863" lon="2.17062">
        <ele>506.4</ele>
        <time>2026-08-07T13:25:41.000Z</time>
      </trkpt>
      <trkpt lat="45.87867" lon="2.17061">
        <ele>506.2</ele>
        <time>2026-08-07T13:25:44.000Z</time>
      </trkpt>
      <trkpt lat="45.87867" lon="2.17061">
        <ele>506.1</ele>
        <time>2026-08-07T13:25:47.000Z</time>
      </trkpt>
      <trkpt lat="45.87867" lon="2.17061">
        <ele>506.2</ele>
        <time>2026-08-07T14:22:29.000Z</time>
      </trkpt>
      <trkpt lat="45.87867" lon="2.17061">
        <ele>506.2</ele>
        <time>2026-08-07T14:22:30.000Z</time>
      </trkpt>
      <trkpt lat="45.87859" lon="2.17063">
        <ele>506.4</ele>
        <time>2026-08-07T14:22:54.000Z</time>
      </trkpt>
      <trkpt lat="45.87857" lon="2.17064">
        <ele>506.4</ele>
        <time>2026-08-07T14:22:57.000Z</time>
      </trkpt>
      <trkpt lat="45.87847" lon="2.17065">
        <ele>506.3</ele>
        <time>2026-08-07T14:23:04.000Z</time>
      </trkpt>
      <trkpt lat="45.87841" lon="2.17066">
        <ele>506.2</ele>
        <time>2026-08-07T14:23:08.000Z</time>
      </trkpt>
      <trkpt lat="45.8783" lon="2.17069">
        <ele>506.1</ele>
        <time>2026-08-07T14:23:18.000Z</time>
      </trkpt>
      <trkpt lat="45.87829" lon="2.17069">
        <ele>506.1</ele>
        <time>2026-08-07T14:23:20.000Z</time>
      </trkpt>
      <trkpt lat="45.87825" lon="2.17069">
        <ele>506.2</ele>
        <time>2026-08-07T14:23:25.000Z</time>
      </trkpt>
      <trkpt lat="45.87822" lon="2.17069">
        <ele>506.2</ele>
        <time>2026-08-07T14:23:29.000Z</time>
      </trkpt>
      <trkpt lat="45.8782" lon="2.17067">
        <ele>506.4</ele>
        <time>2026-08-07T14:23:33.000Z</time>
      </trkpt>
      <trkpt lat="45.87819" lon="2.17065">
        <ele>506.5</ele>
        <time>2026-08-07T14:23:35.000Z</time>
      </trkpt>
      <trkpt lat="45.87812" lon="2.17065">
        <ele>506.6</ele>
        <time>2026-08-07T14:23:41.000Z</time>
      </trkpt>
      <trkpt lat="45.87806" lon="2.17068">
        <ele>506.5</ele>
        <time>2026-08-07T14:23:46.000Z</time>
      </trkpt>
      <trkpt lat="45.87796" lon="2.17071">
        <ele>506.5</ele>
        <time>2026-08-07T14:23:50.000Z</time>
      </trkpt>
      <trkpt lat="45.87779" lon="2.17076">
        <ele>506.7</ele>
        <time>2026-08-07T14:23:55.000Z</time>
      </trkpt>
      <trkpt lat="45.87753" lon="2.17079">
        <ele>506.9</ele>
        <time>2026-08-07T14:24:02.000Z</time>
      </trkpt>
      <trkpt lat="45.87746" lon="2.17078">
        <ele>506.7</ele>
        <time>2026-08-07T14:24:04.000Z</time>
      </trkpt>
      <trkpt lat="45.87735" lon="2.17073">
        <ele>506.5</ele>
        <time>2026-08-07T14:24:07.000Z</time>
      </trkpt>
      <trkpt lat="45.87709" lon="2.17053">
        <ele>507.1</ele>
        <time>2026-08-07T14:24:14.000Z</time>
      </trkpt>
      <trkpt lat="45.87695" lon="2.1704">
        <ele>507.6</ele>
        <time>2026-08-07T14:24:18.000Z</time>
      </trkpt>
      <trkpt lat="45.8769" lon="2.17032">
        <ele>507.7</ele>
        <time>2026-08-07T14:24:20.000Z</time>
      </trkpt>
      <trkpt lat="45.87685" lon="2.17017">
        <ele>508</ele>
        <time>2026-08-07T14:24:24.000Z</time>
      </trkpt>
      <trkpt lat="45.87681" lon="2.17004">
        <ele>508.4</ele>
        <time>2026-08-07T14:24:28.000Z</time>
      </trkpt>
      <trkpt lat="45.8768" lon="2.16998">
        <ele>508.7</ele>
        <time>2026-08-07T14:24:30.000Z</time>
      </trkpt>
      <trkpt lat="45.87677" lon="2.16987">
        <ele>509.7</ele>
        <time>2026-08-07T14:24:34.000Z</time>
      </trkpt>
      <trkpt lat="45.87672" lon="2.1698">
        <ele>509.9</ele>
        <time>2026-08-07T14:24:38.000Z</time>
      </trkpt>
      <trkpt lat="45.8767" lon="2.16977">
        <ele>510</ele>
        <time>2026-08-07T14:24:39.000Z</time>
      </trkpt>
      <trkpt lat="45.87661" lon="2.16964">
        <ele>509.9</ele>
        <time>2026-08-07T14:24:45.000Z</time>
      </trkpt>
      <trkpt lat="45.8766" lon="2.16957">
        <ele>509.9</ele>
        <time>2026-08-07T14:24:47.000Z</time>
      </trkpt>
      <trkpt lat="45.87659" lon="2.16954">
        <ele>510</ele>
        <time>2026-08-07T14:24:48.000Z</time>
      </trkpt>
      <trkpt lat="45.87657" lon="2.16942">
        <ele>510.3</ele>
        <time>2026-08-07T14:24:52.000Z</time>
      </trkpt>
      <trkpt lat="45.87654" lon="2.16927">
        <ele>511.9</ele>
        <time>2026-08-07T14:24:57.000Z</time>
      </trkpt>
      <trkpt lat="45.87652" lon="2.1691">
        <ele>513.3</ele>
        <time>2026-08-07T14:25:02.000Z</time>
      </trkpt>
      <trkpt lat="45.8765" lon="2.16902">
        <ele>513.4</ele>
        <time>2026-08-07T14:25:06.000Z</time>
      </trkpt>
      <trkpt lat="45.8765" lon="2.16901">
        <ele>513.4</ele>
        <time>2026-08-07T14:25:08.000Z</time>
      </trkpt>
      <trkpt lat="45.8765" lon="2.16901">
        <ele>513.4</ele>
        <time>2026-08-07T14:25:09.000Z</time>
      </trkpt>
      <trkpt lat="45.87649" lon="2.16892">
        <ele>513.7</ele>
        <time>2026-08-07T14:25:16.000Z</time>
      </trkpt>
      <trkpt lat="45.87647" lon="2.16885">
        <ele>513.6</ele>
        <time>2026-08-07T14:25:19.000Z</time>
      </trkpt>
      <trkpt lat="45.87646" lon="2.16866">
        <ele>514.2</ele>
        <time>2026-08-07T14:25:27.000Z</time>
      </trkpt>
      <trkpt lat="45.87645" lon="2.1686">
        <ele>514.3</ele>
        <time>2026-08-07T14:25:29.000Z</time>
      </trkpt>
      <trkpt lat="45.87643" lon="2.16843">
        <ele>514</ele>
        <time>2026-08-07T14:25:34.000Z</time>
      </trkpt>
      <trkpt lat="45.87642" lon="2.16837">
        <ele>513.7</ele>
        <time>2026-08-07T14:25:36.000Z</time>
      </trkpt>
      <trkpt lat="45.87634" lon="2.16813">
        <ele>514.2</ele>
        <time>2026-08-07T14:25:44.000Z</time>
      </trkpt>
      <trkpt lat="45.87628" lon="2.16797">
        <ele>515.3</ele>
        <time>2026-08-07T14:25:49.000Z</time>
      </trkpt>
      <trkpt lat="45.87626" lon="2.1679">
        <ele>515.8</ele>
        <time>2026-08-07T14:25:51.000Z</time>
      </trkpt>
      <trkpt lat="45.87623" lon="2.16786">
        <ele>515.7</ele>
        <time>2026-08-07T14:25:53.000Z</time>
      </trkpt>
      <trkpt lat="45.87616" lon="2.16772">
        <ele>515.5</ele>
        <time>2026-08-07T14:25:58.000Z</time>
      </trkpt>
      <trkpt lat="45.87608" lon="2.16759">
        <ele>515.2</ele>
        <time>2026-08-07T14:26:04.000Z</time>
      </trkpt>
      <trkpt lat="45.87605" lon="2.16755">
        <ele>515.1</ele>
        <time>2026-08-07T14:26:06.000Z</time>
      </trkpt>
      <trkpt lat="45.87599" lon="2.16737">
        <ele>516.6</ele>
        <time>2026-08-07T14:26:13.000Z</time>
      </trkpt>
      <trkpt lat="45.87597" lon="2.16729">
        <ele>517.2</ele>
        <time>2026-08-07T14:26:16.000Z</time>
      </trkpt>
      <trkpt lat="45.87596" lon="2.16724">
        <ele>517.9</ele>
        <time>2026-08-07T14:26:18.000Z</time>
      </trkpt>
      <trkpt lat="45.87594" lon="2.16719">
        <ele>517.8</ele>
        <time>2026-08-07T14:26:20.000Z</time>
      </trkpt>
      <trkpt lat="45.87591" lon="2.16708">
        <ele>518</ele>
        <time>2026-08-07T14:26:24.000Z</time>
      </trkpt>
      <trkpt lat="45.87587" lon="2.16704">
        <ele>517.7</ele>
        <time>2026-08-07T14:26:26.000Z</time>
      </trkpt>
      <trkpt lat="45.87579" lon="2.16686">
        <ele>518.2</ele>
        <time>2026-08-07T14:26:33.000Z</time>
      </trkpt>
      <trkpt lat="45.87572" lon="2.16672">
        <ele>518.6</ele>
        <time>2026-08-07T14:26:39.000Z</time>
      </trkpt>
      <trkpt lat="45.87568" lon="2.16666">
        <ele>519</ele>
        <time>2026-08-07T14:26:42.000Z</time>
      </trkpt>
      <trkpt lat="45.87565" lon="2.16659">
        <ele>519.4</ele>
        <time>2026-08-07T14:26:45.000Z</time>
      </trkpt>
      <trkpt lat="45.87561" lon="2.16656">
        <ele>519.5</ele>
        <time>2026-08-07T14:26:47.000Z</time>
      </trkpt>
      <trkpt lat="45.87558" lon="2.16653">
        <ele>519.6</ele>
        <time>2026-08-07T14:26:49.000Z</time>
      </trkpt>
      <trkpt lat="45.87549" lon="2.16644">
        <ele>520.1</ele>
        <time>2026-08-07T14:26:55.000Z</time>
      </trkpt>
      <trkpt lat="45.87538" lon="2.16635">
        <ele>521</ele>
        <time>2026-08-07T14:27:02.000Z</time>
      </trkpt>
      <trkpt lat="45.87533" lon="2.16629">
        <ele>521.6</ele>
        <time>2026-08-07T14:27:06.000Z</time>
      </trkpt>
      <trkpt lat="45.87528" lon="2.16625">
        <ele>522.1</ele>
        <time>2026-08-07T14:27:10.000Z</time>
      </trkpt>
      <trkpt lat="45.87521" lon="2.16618">
        <ele>522.8</ele>
        <time>2026-08-07T14:27:15.000Z</time>
      </trkpt>
      <trkpt lat="45.87516" lon="2.16613">
        <ele>523.3</ele>
        <time>2026-08-07T14:27:19.000Z</time>
      </trkpt>
      <trkpt lat="45.87508" lon="2.16607">
        <ele>523.8</ele>
        <time>2026-08-07T14:27:24.000Z</time>
      </trkpt>
      <trkpt lat="45.87504" lon="2.16603">
        <ele>524</ele>
        <time>2026-08-07T14:27:27.000Z</time>
      </trkpt>
      <trkpt lat="45.87502" lon="2.16602">
        <ele>524.1</ele>
        <time>2026-08-07T14:27:28.000Z</time>
      </trkpt>
      <trkpt lat="45.8749" lon="2.16593">
        <ele>524.8</ele>
        <time>2026-08-07T14:27:35.000Z</time>
      </trkpt>
      <trkpt lat="45.87489" lon="2.16591">
        <ele>524.9</ele>
        <time>2026-08-07T14:27:36.000Z</time>
      </trkpt>
      <trkpt lat="45.87478" lon="2.16581">
        <ele>525.5</ele>
        <time>2026-08-07T14:27:43.000Z</time>
      </trkpt>
      <trkpt lat="45.87476" lon="2.1658">
        <ele>525.7</ele>
        <time>2026-08-07T14:27:44.000Z</time>
      </trkpt>
      <trkpt lat="45.87464" lon="2.16569">
        <ele>527.1</ele>
        <time>2026-08-07T14:27:52.000Z</time>
      </trkpt>
      <trkpt lat="45.87463" lon="2.16567">
        <ele>527.2</ele>
        <time>2026-08-07T14:27:53.000Z</time>
      </trkpt>
      <trkpt lat="45.87454" lon="2.1656">
        <ele>527.9</ele>
        <time>2026-08-07T14:28:00.000Z</time>
      </trkpt>
      <trkpt lat="45.8745" lon="2.16556">
        <ele>528.2</ele>
        <time>2026-08-07T14:28:03.000Z</time>
      </trkpt>
      <trkpt lat="45.87442" lon="2.16548">
        <ele>528.9</ele>
        <time>2026-08-07T14:28:09.000Z</time>
      </trkpt>
      <trkpt lat="45.87436" lon="2.16542">
        <ele>529.4</ele>
        <time>2026-08-07T14:28:13.000Z</time>
      </trkpt>
      <trkpt lat="45.87429" lon="2.16535">
        <ele>529.9</ele>
        <time>2026-08-07T14:28:18.000Z</time>
      </trkpt>
      <trkpt lat="45.87419" lon="2.16523">
        <ele>530.6</ele>
        <time>2026-08-07T14:28:25.000Z</time>
      </trkpt>
      <trkpt lat="45.87418" lon="2.16522">
        <ele>530.7</ele>
        <time>2026-08-07T14:28:26.000Z</time>
      </trkpt>
      <trkpt lat="45.87408" lon="2.1651">
        <ele>531.9</ele>
        <time>2026-08-07T14:28:34.000Z</time>
      </trkpt>
      <trkpt lat="45.87405" lon="2.16507">
        <ele>532.1</ele>
        <time>2026-08-07T14:28:36.000Z</time>
      </trkpt>
      <trkpt lat="45.87397" lon="2.16495">
        <ele>532.5</ele>
        <time>2026-08-07T14:28:43.000Z</time>
      </trkpt>
      <trkpt lat="45.87391" lon="2.16487">
        <ele>532.6</ele>
        <time>2026-08-07T14:28:47.000Z</time>
      </trkpt>
      <trkpt lat="45.87384" lon="2.16476">
        <ele>531.8</ele>
        <time>2026-08-07T14:28:52.000Z</time>
      </trkpt>
      <trkpt lat="45.87372" lon="2.1646">
        <ele>531.7</ele>
        <time>2026-08-07T14:28:59.000Z</time>
      </trkpt>
      <trkpt lat="45.87357" lon="2.16447">
        <ele>531.5</ele>
        <time>2026-08-07T14:29:05.000Z</time>
      </trkpt>
      <trkpt lat="45.87354" lon="2.16445">
        <ele>531.1</ele>
        <time>2026-08-07T14:29:06.000Z</time>
      </trkpt>
      <trkpt lat="45.87341" lon="2.16429">
        <ele>529.9</ele>
        <time>2026-08-07T14:29:12.000Z</time>
      </trkpt>
      <trkpt lat="45.87328" lon="2.16402">
        <ele>531.8</ele>
        <time>2026-08-07T14:29:19.000Z</time>
      </trkpt>
      <trkpt lat="45.87312" lon="2.16376">
        <ele>531</ele>
        <time>2026-08-07T14:29:25.000Z</time>
      </trkpt>
      <trkpt lat="45.87308" lon="2.16365">
        <ele>532.6</ele>
        <time>2026-08-07T14:29:27.000Z</time>
      </trkpt>
      <trkpt lat="45.87302" lon="2.16346">
        <ele>532.3</ele>
        <time>2026-08-07T14:29:30.000Z</time>
      </trkpt>
      <trkpt lat="45.873" lon="2.16339">
        <ele>531.9</ele>
        <time>2026-08-07T14:29:31.000Z</time>
      </trkpt>
      <trkpt lat="45.87293" lon="2.16312">
        <ele>530.6</ele>
        <time>2026-08-07T14:29:35.000Z</time>
      </trkpt>
      <trkpt lat="45.87288" lon="2.16298">
        <ele>530.3</ele>
        <time>2026-08-07T14:29:37.000Z</time>
      </trkpt>
      <trkpt lat="45.87279" lon="2.16281">
        <ele>531.6</ele>
        <time>2026-08-07T14:29:40.000Z</time>
      </trkpt>
      <trkpt lat="45.87275" lon="2.16276">
        <ele>531.8</ele>
        <time>2026-08-07T14:29:41.000Z</time>
      </trkpt>
      <trkpt lat="45.87261" lon="2.16262">
        <ele>531.8</ele>
        <time>2026-08-07T14:29:45.000Z</time>
      </trkpt>
      <trkpt lat="45.87257" lon="2.16259">
        <ele>532</ele>
        <time>2026-08-07T14:29:46.000Z</time>
      </trkpt>
      <trkpt lat="45.87237" lon="2.16254">
        <ele>532.6</ele>
        <time>2026-08-07T14:29:52.000Z</time>
      </trkpt>
      <trkpt lat="45.87234" lon="2.16253">
        <ele>532.6</ele>
        <time>2026-08-07T14:29:53.000Z</time>
      </trkpt>
      <trkpt lat="45.87223" lon="2.1625">
        <ele>533</ele>
        <time>2026-08-07T14:29:57.000Z</time>
      </trkpt>
      <trkpt lat="45.87221" lon="2.16249">
        <ele>533</ele>
        <time>2026-08-07T14:29:58.000Z</time>
      </trkpt>
      <trkpt lat="45.87213" lon="2.16248">
        <ele>532.7</ele>
        <time>2026-08-07T14:30:02.000Z</time>
      </trkpt>
      <trkpt lat="45.87206" lon="2.16246">
        <ele>532.6</ele>
        <time>2026-08-07T14:30:05.000Z</time>
      </trkpt>
      <trkpt lat="45.87202" lon="2.16244">
        <ele>532.6</ele>
        <time>2026-08-07T14:30:08.000Z</time>
      </trkpt>
      <trkpt lat="45.87196" lon="2.16242">
        <ele>532.6</ele>
        <time>2026-08-07T14:30:13.000Z</time>
      </trkpt>
      <trkpt lat="45.87195" lon="2.16241">
        <ele>532.6</ele>
        <time>2026-08-07T14:30:14.000Z</time>
      </trkpt>
      <trkpt lat="45.87189" lon="2.16239">
        <ele>532.9</ele>
        <time>2026-08-07T14:30:16.000Z</time>
      </trkpt>
      <trkpt lat="45.87181" lon="2.16237">
        <ele>533.1</ele>
        <time>2026-08-07T14:30:19.000Z</time>
      </trkpt>
      <trkpt lat="45.87179" lon="2.16235">
        <ele>533.4</ele>
        <time>2026-08-07T14:30:20.000Z</time>
      </trkpt>
      <trkpt lat="45.87177" lon="2.16233">
        <ele>533.7</ele>
        <time>2026-08-07T14:30:21.000Z</time>
      </trkpt>
      <trkpt lat="45.87171" lon="2.16228">
        <ele>534.9</ele>
        <time>2026-08-07T14:30:25.000Z</time>
      </trkpt>
      <trkpt lat="45.87167" lon="2.16221">
        <ele>536.2</ele>
        <time>2026-08-07T14:30:28.000Z</time>
      </trkpt>
      <trkpt lat="45.87164" lon="2.16215">
        <ele>537.2</ele>
        <time>2026-08-07T14:30:30.000Z</time>
      </trkpt>
      <trkpt lat="45.87157" lon="2.16214">
        <ele>537.3</ele>
        <time>2026-08-07T14:30:33.000Z</time>
      </trkpt>
      <trkpt lat="45.87154" lon="2.16214">
        <ele>537.3</ele>
        <time>2026-08-07T14:30:36.000Z</time>
      </trkpt>
      <trkpt lat="45.87145" lon="2.1621">
        <ele>538.1</ele>
        <time>2026-08-07T14:30:41.000Z</time>
      </trkpt>
      <trkpt lat="45.87141" lon="2.1621">
        <ele>538.2</ele>
        <time>2026-08-07T14:30:43.000Z</time>
      </trkpt>
      <trkpt lat="45.87137" lon="2.16208">
        <ele>538.6</ele>
        <time>2026-08-07T14:30:45.000Z</time>
      </trkpt>
      <trkpt lat="45.87129" lon="2.16204">
        <ele>539.6</ele>
        <time>2026-08-07T14:30:50.000Z</time>
      </trkpt>
      <trkpt lat="45.87118" lon="2.16198">
        <ele>540.6</ele>
        <time>2026-08-07T14:30:55.000Z</time>
      </trkpt>
      <trkpt lat="45.87114" lon="2.16196">
        <ele>540.8</ele>
        <time>2026-08-07T14:30:57.000Z</time>
      </trkpt>
      <trkpt lat="45.87111" lon="2.16195">
        <ele>541</ele>
        <time>2026-08-07T14:30:59.000Z</time>
      </trkpt>
      <trkpt lat="45.87107" lon="2.1619">
        <ele>542.2</ele>
        <time>2026-08-07T14:31:02.000Z</time>
      </trkpt>
      <trkpt lat="45.87105" lon="2.1619">
        <ele>542</ele>
        <time>2026-08-07T14:31:03.000Z</time>
      </trkpt>
      <trkpt lat="45.87102" lon="2.16188">
        <ele>542.1</ele>
        <time>2026-08-07T14:31:04.000Z</time>
      </trkpt>
      <trkpt lat="45.87096" lon="2.16183">
        <ele>542.8</ele>
        <time>2026-08-07T14:31:07.000Z</time>
      </trkpt>
      <trkpt lat="45.87094" lon="2.16182">
        <ele>542.9</ele>
        <time>2026-08-07T14:31:08.000Z</time>
      </trkpt>
      <trkpt lat="45.87082" lon="2.16164">
        <ele>544.4</ele>
        <time>2026-08-07T14:31:15.000Z</time>
      </trkpt>
      <trkpt lat="45.87081" lon="2.16163">
        <ele>544.5</ele>
        <time>2026-08-07T14:31:16.000Z</time>
      </trkpt>
      <trkpt lat="45.87082" lon="2.16161">
        <ele>545.1</ele>
        <time>2026-08-07T14:31:17.000Z</time>
      </trkpt>
      <trkpt lat="45.87072" lon="2.16158">
        <ele>544.3</ele>
        <time>2026-08-07T14:31:21.000Z</time>
      </trkpt>
      <trkpt lat="45.87063" lon="2.1615">
        <ele>544.7</ele>
        <time>2026-08-07T14:31:26.000Z</time>
      </trkpt>
      <trkpt lat="45.87045" lon="2.16134">
        <ele>545.2</ele>
        <time>2026-08-07T14:31:33.000Z</time>
      </trkpt>
      <trkpt lat="45.87027" lon="2.16118">
        <ele>545.3</ele>
        <time>2026-08-07T14:31:40.000Z</time>
      </trkpt>
      <trkpt lat="45.87008" lon="2.16098">
        <ele>547.1</ele>
        <time>2026-08-07T14:31:47.000Z</time>
      </trkpt>
      <trkpt lat="45.87006" lon="2.16095">
        <ele>547.3</ele>
        <time>2026-08-07T14:31:48.000Z</time>
      </trkpt>
      <trkpt lat="45.86986" lon="2.16074">
        <ele>546.8</ele>
        <time>2026-08-07T14:31:55.000Z</time>
      </trkpt>
      <trkpt lat="45.8697" lon="2.16055">
        <ele>546.4</ele>
        <time>2026-08-07T14:32:00.000Z</time>
      </trkpt>
      <trkpt lat="45.86954" lon="2.16035">
        <ele>545.6</ele>
        <time>2026-08-07T14:32:05.000Z</time>
      </trkpt>
      <trkpt lat="45.8695" lon="2.16032">
        <ele>545.3</ele>
        <time>2026-08-07T14:32:06.000Z</time>
      </trkpt>
      <trkpt lat="45.86929" lon="2.15999">
        <ele>544.7</ele>
        <time>2026-08-07T14:32:13.000Z</time>
      </trkpt>
      <trkpt lat="45.86924" lon="2.15989">
        <ele>544.3</ele>
        <time>2026-08-07T14:32:15.000Z</time>
      </trkpt>
      <trkpt lat="45.86919" lon="2.15979">
        <ele>544.3</ele>
        <time>2026-08-07T14:32:17.000Z</time>
      </trkpt>
      <trkpt lat="45.86916" lon="2.15975">
        <ele>544.5</ele>
        <time>2026-08-07T14:32:18.000Z</time>
      </trkpt>
      <trkpt lat="45.86911" lon="2.15964">
        <ele>544.9</ele>
        <time>2026-08-07T14:32:20.000Z</time>
      </trkpt>
      <trkpt lat="45.86902" lon="2.15943">
        <ele>545.6</ele>
        <time>2026-08-07T14:32:24.000Z</time>
      </trkpt>
      <trkpt lat="45.86892" lon="2.15928">
        <ele>546.5</ele>
        <time>2026-08-07T14:32:28.000Z</time>
      </trkpt>
      <trkpt lat="45.86882" lon="2.15914">
        <ele>547.4</ele>
        <time>2026-08-07T14:32:32.000Z</time>
      </trkpt>
      <trkpt lat="45.86864" lon="2.15886">
        <ele>547.6</ele>
        <time>2026-08-07T14:32:40.000Z</time>
      </trkpt>
      <trkpt lat="45.86857" lon="2.15878">
        <ele>547.9</ele>
        <time>2026-08-07T14:32:43.000Z</time>
      </trkpt>
      <trkpt lat="45.86849" lon="2.15868">
        <ele>548.2</ele>
        <time>2026-08-07T14:32:46.000Z</time>
      </trkpt>
      <trkpt lat="45.86831" lon="2.15844">
        <ele>547.9</ele>
        <time>2026-08-07T14:32:52.000Z</time>
      </trkpt>
      <trkpt lat="45.86803" lon="2.15809">
        <ele>544.9</ele>
        <time>2026-08-07T14:32:59.000Z</time>
      </trkpt>
      <trkpt lat="45.86779" lon="2.15777">
        <ele>546.1</ele>
        <time>2026-08-07T14:33:05.000Z</time>
      </trkpt>
      <trkpt lat="45.86771" lon="2.15769">
        <ele>547.1</ele>
        <time>2026-08-07T14:33:07.000Z</time>
      </trkpt>
      <trkpt lat="45.86753" lon="2.15756">
        <ele>549.9</ele>
        <time>2026-08-07T14:33:12.000Z</time>
      </trkpt>
      <trkpt lat="45.86739" lon="2.15749">
        <ele>549.6</ele>
        <time>2026-08-07T14:33:16.000Z</time>
      </trkpt>
      <trkpt lat="45.86733" lon="2.15745">
        <ele>549.2</ele>
        <time>2026-08-07T14:33:18.000Z</time>
      </trkpt>
      <trkpt lat="45.86712" lon="2.15738">
        <ele>548.1</ele>
        <time>2026-08-07T14:33:23.000Z</time>
      </trkpt>
      <trkpt lat="45.86686" lon="2.15723">
        <ele>548.5</ele>
        <time>2026-08-07T14:33:30.000Z</time>
      </trkpt>
      <trkpt lat="45.86681" lon="2.15722">
        <ele>548.6</ele>
        <time>2026-08-07T14:33:31.000Z</time>
      </trkpt>
      <trkpt lat="45.86646" lon="2.15691">
        <ele>550.5</ele>
        <time>2026-08-07T14:33:41.000Z</time>
      </trkpt>
      <trkpt lat="45.86608" lon="2.15674">
        <ele>549.3</ele>
        <time>2026-08-07T14:33:49.000Z</time>
      </trkpt>
      <trkpt lat="45.86581" lon="2.15665">
        <ele>547</ele>
        <time>2026-08-07T14:33:54.000Z</time>
      </trkpt>
      <trkpt lat="45.86576" lon="2.15664">
        <ele>546.7</ele>
        <time>2026-08-07T14:33:55.000Z</time>
      </trkpt>
      <trkpt lat="45.86571" lon="2.15662">
        <ele>546.6</ele>
        <time>2026-08-07T14:33:56.000Z</time>
      </trkpt>
      <trkpt lat="45.86553" lon="2.15654">
        <ele>545.7</ele>
        <time>2026-08-07T14:33:59.000Z</time>
      </trkpt>
      <trkpt lat="45.86546" lon="2.15652">
        <ele>545.5</ele>
        <time>2026-08-07T14:34:00.000Z</time>
      </trkpt>
      <trkpt lat="45.86541" lon="2.15649">
        <ele>545.4</ele>
        <time>2026-08-07T14:34:01.000Z</time>
      </trkpt>
      <trkpt lat="45.86535" lon="2.15647">
        <ele>545.2</ele>
        <time>2026-08-07T14:34:02.000Z</time>
      </trkpt>
      <trkpt lat="45.86524" lon="2.15643">
        <ele>544.7</ele>
        <time>2026-08-07T14:34:04.000Z</time>
      </trkpt>
      <trkpt lat="45.86518" lon="2.15639">
        <ele>544.7</ele>
        <time>2026-08-07T14:34:05.000Z</time>
      </trkpt>
      <trkpt lat="45.86507" lon="2.15628">
        <ele>543.8</ele>
        <time>2026-08-07T14:34:07.000Z</time>
      </trkpt>
      <trkpt lat="45.86502" lon="2.15621">
        <ele>542.9</ele>
        <time>2026-08-07T14:34:08.000Z</time>
      </trkpt>
      <trkpt lat="45.86496" lon="2.15614">
        <ele>541.8</ele>
        <time>2026-08-07T14:34:09.000Z</time>
      </trkpt>
      <trkpt lat="45.86478" lon="2.15589">
        <ele>537.9</ele>
        <time>2026-08-07T14:34:12.000Z</time>
      </trkpt>
      <trkpt lat="45.86472" lon="2.1558">
        <ele>537.2</ele>
        <time>2026-08-07T14:34:13.000Z</time>
      </trkpt>
      <trkpt lat="45.86465" lon="2.15571">
        <ele>537.9</ele>
        <time>2026-08-07T14:34:14.000Z</time>
      </trkpt>
      <trkpt lat="45.86458" lon="2.15564">
        <ele>538.4</ele>
        <time>2026-08-07T14:34:15.000Z</time>
      </trkpt>
      <trkpt lat="45.8645" lon="2.15557">
        <ele>538.9</ele>
        <time>2026-08-07T14:34:16.000Z</time>
      </trkpt>
      <trkpt lat="45.86443" lon="2.15551">
        <ele>539.5</ele>
        <time>2026-08-07T14:34:17.000Z</time>
      </trkpt>
      <trkpt lat="45.86435" lon="2.15546">
        <ele>539.9</ele>
        <time>2026-08-07T14:34:18.000Z</time>
      </trkpt>
      <trkpt lat="45.86413" lon="2.15537">
        <ele>540.1</ele>
        <time>2026-08-07T14:34:21.000Z</time>
      </trkpt>
      <trkpt lat="45.86392" lon="2.15529">
        <ele>539.2</ele>
        <time>2026-08-07T14:34:24.000Z</time>
      </trkpt>
      <trkpt lat="45.86385" lon="2.15525">
        <ele>539.2</ele>
        <time>2026-08-07T14:34:25.000Z</time>
      </trkpt>
      <trkpt lat="45.86372" lon="2.15517">
        <ele>539.4</ele>
        <time>2026-08-07T14:34:27.000Z</time>
      </trkpt>
      <trkpt lat="45.86353" lon="2.15504">
        <ele>539.2</ele>
        <time>2026-08-07T14:34:30.000Z</time>
      </trkpt>
      <trkpt lat="45.86343" lon="2.15493">
        <ele>538.9</ele>
        <time>2026-08-07T14:34:32.000Z</time>
      </trkpt>
      <trkpt lat="45.86322" lon="2.15475">
        <ele>538.9</ele>
        <time>2026-08-07T14:34:36.000Z</time>
      </trkpt>
      <trkpt lat="45.86312" lon="2.15466">
        <ele>539.2</ele>
        <time>2026-08-07T14:34:38.000Z</time>
      </trkpt>
      <trkpt lat="45.86282" lon="2.15435">
        <ele>540</ele>
        <time>2026-08-07T14:34:45.000Z</time>
      </trkpt>
      <trkpt lat="45.86256" lon="2.15413">
        <ele>540.9</ele>
        <time>2026-08-07T14:34:52.000Z</time>
      </trkpt>
      <trkpt lat="45.86254" lon="2.1541">
        <ele>541.1</ele>
        <time>2026-08-07T14:34:53.000Z</time>
      </trkpt>
      <trkpt lat="45.86244" lon="2.15403">
        <ele>541.7</ele>
        <time>2026-08-07T14:34:56.000Z</time>
      </trkpt>
      <trkpt lat="45.86235" lon="2.15396">
        <ele>542.3</ele>
        <time>2026-08-07T14:34:59.000Z</time>
      </trkpt>
      <trkpt lat="45.86226" lon="2.1539">
        <ele>542.8</ele>
        <time>2026-08-07T14:35:02.000Z</time>
      </trkpt>
      <trkpt lat="45.86211" lon="2.15379">
        <ele>543.1</ele>
        <time>2026-08-07T14:35:07.000Z</time>
      </trkpt>
      <trkpt lat="45.86201" lon="2.1537">
        <ele>543.5</ele>
        <time>2026-08-07T14:35:11.000Z</time>
      </trkpt>
      <trkpt lat="45.86187" lon="2.15358">
        <ele>544.3</ele>
        <time>2026-08-07T14:35:16.000Z</time>
      </trkpt>
      <trkpt lat="45.86185" lon="2.15355">
        <ele>544.4</ele>
        <time>2026-08-07T14:35:17.000Z</time>
      </trkpt>
      <trkpt lat="45.86177" lon="2.15348">
        <ele>544.6</ele>
        <time>2026-08-07T14:35:20.000Z</time>
      </trkpt>
      <trkpt lat="45.86161" lon="2.15333">
        <ele>545.2</ele>
        <time>2026-08-07T14:35:25.000Z</time>
      </trkpt>
      <trkpt lat="45.86146" lon="2.15316">
        <ele>545.9</ele>
        <time>2026-08-07T14:35:32.000Z</time>
      </trkpt>
      <trkpt lat="45.86139" lon="2.15308">
        <ele>546</ele>
        <time>2026-08-07T14:35:35.000Z</time>
      </trkpt>
      <trkpt lat="45.86127" lon="2.15292">
        <ele>547.1</ele>
        <time>2026-08-07T14:35:41.000Z</time>
      </trkpt>
      <trkpt lat="45.86121" lon="2.15283">
        <ele>547.6</ele>
        <time>2026-08-07T14:35:44.000Z</time>
      </trkpt>
      <trkpt lat="45.8611" lon="2.15267">
        <ele>548.2</ele>
        <time>2026-08-07T14:35:50.000Z</time>
      </trkpt>
      <trkpt lat="45.861" lon="2.15254">
        <ele>548.9</ele>
        <time>2026-08-07T14:35:54.000Z</time>
      </trkpt>
      <trkpt lat="45.86091" lon="2.15242">
        <ele>549.5</ele>
        <time>2026-08-07T14:35:59.000Z</time>
      </trkpt>
      <trkpt lat="45.86089" lon="2.15239">
        <ele>549.7</ele>
        <time>2026-08-07T14:36:00.000Z</time>
      </trkpt>
      <trkpt lat="45.86079" lon="2.15224">
        <ele>550.2</ele>
        <time>2026-08-07T14:36:07.000Z</time>
      </trkpt>
      <trkpt lat="45.86077" lon="2.15222">
        <ele>550.2</ele>
        <time>2026-08-07T14:36:08.000Z</time>
      </trkpt>
      <trkpt lat="45.86066" lon="2.15209">
        <ele>550.6</ele>
        <time>2026-08-07T14:36:15.000Z</time>
      </trkpt>
      <trkpt lat="45.86063" lon="2.15204">
        <ele>550.7</ele>
        <time>2026-08-07T14:36:17.000Z</time>
      </trkpt>
      <trkpt lat="45.86047" lon="2.15178">
        <ele>552.1</ele>
        <time>2026-08-07T14:36:28.000Z</time>
      </trkpt>
      <trkpt lat="45.86044" lon="2.15173">
        <ele>552.3</ele>
        <time>2026-08-07T14:36:30.000Z</time>
      </trkpt>
      <trkpt lat="45.86034" lon="2.15158">
        <ele>552.8</ele>
        <time>2026-08-07T14:36:36.000Z</time>
      </trkpt>
      <trkpt lat="45.86021" lon="2.15139">
        <ele>553.5</ele>
        <time>2026-08-07T14:36:44.000Z</time>
      </trkpt>
      <trkpt lat="45.86007" lon="2.1512">
        <ele>555.2</ele>
        <time>2026-08-07T14:36:53.000Z</time>
      </trkpt>
      <trkpt lat="45.85993" lon="2.15107">
        <ele>556.4</ele>
        <time>2026-08-07T14:37:00.000Z</time>
      </trkpt>
      <trkpt lat="45.85991" lon="2.15106">
        <ele>556.5</ele>
        <time>2026-08-07T14:37:01.000Z</time>
      </trkpt>
      <trkpt lat="45.85973" lon="2.15091">
        <ele>557.7</ele>
        <time>2026-08-07T14:37:10.000Z</time>
      </trkpt>
      <trkpt lat="45.85951" lon="2.15082">
        <ele>558.1</ele>
        <time>2026-08-07T14:37:19.000Z</time>
      </trkpt>
      <trkpt lat="45.85927" lon="2.15078">
        <ele>558.4</ele>
        <time>2026-08-07T14:37:28.000Z</time>
      </trkpt>
      <trkpt lat="45.85918" lon="2.15076">
        <ele>558.5</ele>
        <time>2026-08-07T14:37:31.000Z</time>
      </trkpt>
      <trkpt lat="45.85909" lon="2.15073">
        <ele>558.8</ele>
        <time>2026-08-07T14:37:34.000Z</time>
      </trkpt>
      <trkpt lat="45.8589" lon="2.15068">
        <ele>559.1</ele>
        <time>2026-08-07T14:37:40.000Z</time>
      </trkpt>
      <trkpt lat="45.85863" lon="2.15062">
        <ele>559.5</ele>
        <time>2026-08-07T14:37:48.000Z</time>
      </trkpt>
      <trkpt lat="45.85853" lon="2.15059">
        <ele>559.4</ele>
        <time>2026-08-07T14:37:51.000Z</time>
      </trkpt>
      <trkpt lat="45.85839" lon="2.15057">
        <ele>559.1</ele>
        <time>2026-08-07T14:37:55.000Z</time>
      </trkpt>
      <trkpt lat="45.85808" lon="2.15051">
        <ele>559.2</ele>
        <time>2026-08-07T14:38:04.000Z</time>
      </trkpt>
      <trkpt lat="45.8578" lon="2.15045">
        <ele>559.2</ele>
        <time>2026-08-07T14:38:12.000Z</time>
      </trkpt>
      <trkpt lat="45.85756" lon="2.15038">
        <ele>559.9</ele>
        <time>2026-08-07T14:38:19.000Z</time>
      </trkpt>
      <trkpt lat="45.85749" lon="2.15035">
        <ele>560.2</ele>
        <time>2026-08-07T14:38:21.000Z</time>
      </trkpt>
      <trkpt lat="45.85733" lon="2.15033">
        <ele>560.3</ele>
        <time>2026-08-07T14:38:26.000Z</time>
      </trkpt>
      <trkpt lat="45.85719" lon="2.15031">
        <ele>560.5</ele>
        <time>2026-08-07T14:38:30.000Z</time>
      </trkpt>
      <trkpt lat="45.8568" lon="2.15022">
        <ele>561</ele>
        <time>2026-08-07T14:38:41.000Z</time>
      </trkpt>
      <trkpt lat="45.85649" lon="2.15013">
        <ele>561.6</ele>
        <time>2026-08-07T14:38:50.000Z</time>
      </trkpt>
      <trkpt lat="45.85636" lon="2.1501">
        <ele>561.9</ele>
        <time>2026-08-07T14:38:55.000Z</time>
      </trkpt>
      <trkpt lat="45.85622" lon="2.15008">
        <ele>562.1</ele>
        <time>2026-08-07T14:38:58.000Z</time>
      </trkpt>
      <trkpt lat="45.85611" lon="2.15005">
        <ele>562.4</ele>
        <time>2026-08-07T14:39:01.000Z</time>
      </trkpt>
      <trkpt lat="45.85587" lon="2.15002">
        <ele>562</ele>
        <time>2026-08-07T14:39:07.000Z</time>
      </trkpt>
      <trkpt lat="45.85555" lon="2.14995">
        <ele>562.2</ele>
        <time>2026-08-07T14:39:15.000Z</time>
      </trkpt>
      <trkpt lat="45.85518" lon="2.14986">
        <ele>562.9</ele>
        <time>2026-08-07T14:39:25.000Z</time>
      </trkpt>
      <trkpt lat="45.85499" lon="2.14982">
        <ele>563.9</ele>
        <time>2026-08-07T14:39:30.000Z</time>
      </trkpt>
      <trkpt lat="45.85485" lon="2.1498">
        <ele>564.1</ele>
        <time>2026-08-07T14:39:34.000Z</time>
      </trkpt>
      <trkpt lat="45.85457" lon="2.14973">
        <ele>564.4</ele>
        <time>2026-08-07T14:39:42.000Z</time>
      </trkpt>
      <trkpt lat="45.8543" lon="2.14966">
        <ele>564.5</ele>
        <time>2026-08-07T14:39:50.000Z</time>
      </trkpt>
      <trkpt lat="45.85423" lon="2.14965">
        <ele>564.5</ele>
        <time>2026-08-07T14:39:52.000Z</time>
      </trkpt>
      <trkpt lat="45.85408" lon="2.14963">
        <ele>564.7</ele>
        <time>2026-08-07T14:39:56.000Z</time>
      </trkpt>
      <trkpt lat="45.85381" lon="2.14961">
        <ele>565</ele>
        <time>2026-08-07T14:40:03.000Z</time>
      </trkpt>
      <trkpt lat="45.85362" lon="2.14958">
        <ele>565.5</ele>
        <time>2026-08-07T14:40:08.000Z</time>
      </trkpt>
      <trkpt lat="45.85357" lon="2.14954">
        <ele>565.6</ele>
        <time>2026-08-07T14:40:10.000Z</time>
      </trkpt>
      <trkpt lat="45.85333" lon="2.14945">
        <ele>566</ele>
        <time>2026-08-07T14:40:17.000Z</time>
      </trkpt>
      <trkpt lat="45.85331" lon="2.14942">
        <ele>566.1</ele>
        <time>2026-08-07T14:40:18.000Z</time>
      </trkpt>
      <trkpt lat="45.85314" lon="2.14922">
        <ele>566.5</ele>
        <time>2026-08-07T14:40:24.000Z</time>
      </trkpt>
      <trkpt lat="45.85298" lon="2.14903">
        <ele>566.5</ele>
        <time>2026-08-07T14:40:31.000Z</time>
      </trkpt>
      <trkpt lat="45.85295" lon="2.149">
        <ele>566.5</ele>
        <time>2026-08-07T14:40:32.000Z</time>
      </trkpt>
      <trkpt lat="45.85289" lon="2.14891">
        <ele>566.4</ele>
        <time>2026-08-07T14:40:35.000Z</time>
      </trkpt>
      <trkpt lat="45.85284" lon="2.14871">
        <ele>565.8</ele>
        <time>2026-08-07T14:40:40.000Z</time>
      </trkpt>
      <trkpt lat="45.85278" lon="2.14849">
        <ele>565.9</ele>
        <time>2026-08-07T14:40:45.000Z</time>
      </trkpt>
      <trkpt lat="45.85278" lon="2.1484">
        <ele>566.6</ele>
        <time>2026-08-07T14:40:47.000Z</time>
      </trkpt>
      <trkpt lat="45.85274" lon="2.14835">
        <ele>567.4</ele>
        <time>2026-08-07T14:40:49.000Z</time>
      </trkpt>
      <trkpt lat="45.8527" lon="2.14811">
        <ele>572.4</ele>
        <time>2026-08-07T14:40:54.000Z</time>
      </trkpt>
      <trkpt lat="45.85269" lon="2.14805">
        <ele>573.1</ele>
        <time>2026-08-07T14:40:55.000Z</time>
      </trkpt>
      <trkpt lat="45.85267" lon="2.14802">
        <ele>572.9</ele>
        <time>2026-08-07T14:40:56.000Z</time>
      </trkpt>
      <trkpt lat="45.8526" lon="2.14792">
        <ele>571.6</ele>
        <time>2026-08-07T14:40:59.000Z</time>
      </trkpt>
      <trkpt lat="45.85248" lon="2.14782">
        <ele>568.8</ele>
        <time>2026-08-07T14:41:04.000Z</time>
      </trkpt>
      <trkpt lat="45.85243" lon="2.14776">
        <ele>570</ele>
        <time>2026-08-07T14:41:07.000Z</time>
      </trkpt>
      <trkpt lat="45.85243" lon="2.14762">
        <ele>569.9</ele>
        <time>2026-08-07T14:41:10.000Z</time>
      </trkpt>
      <trkpt lat="45.85243" lon="2.14758">
        <ele>569.9</ele>
        <time>2026-08-07T14:41:11.000Z</time>
      </trkpt>
      <trkpt lat="45.8524" lon="2.14749">
        <ele>569.8</ele>
        <time>2026-08-07T14:41:14.000Z</time>
      </trkpt>
      <trkpt lat="45.85238" lon="2.14746">
        <ele>570</ele>
        <time>2026-08-07T14:41:15.000Z</time>
      </trkpt>
      <trkpt lat="45.85237" lon="2.14744">
        <ele>570.2</ele>
        <time>2026-08-07T14:41:16.000Z</time>
      </trkpt>
      <trkpt lat="45.85235" lon="2.14737">
        <ele>570.8</ele>
        <time>2026-08-07T14:41:18.000Z</time>
      </trkpt>
      <trkpt lat="45.85227" lon="2.14721">
        <ele>571.6</ele>
        <time>2026-08-07T14:41:23.000Z</time>
      </trkpt>
      <trkpt lat="45.85219" lon="2.14703">
        <ele>571.6</ele>
        <time>2026-08-07T14:41:29.000Z</time>
      </trkpt>
      <trkpt lat="45.85218" lon="2.14698">
        <ele>571.7</ele>
        <time>2026-08-07T14:41:30.000Z</time>
      </trkpt>
      <trkpt lat="45.85206" lon="2.14682">
        <ele>572.7</ele>
        <time>2026-08-07T14:41:37.000Z</time>
      </trkpt>
      <trkpt lat="45.852" lon="2.14676">
        <ele>572.4</ele>
        <time>2026-08-07T14:41:40.000Z</time>
      </trkpt>
      <trkpt lat="45.85198" lon="2.14674">
        <ele>572.2</ele>
        <time>2026-08-07T14:41:41.000Z</time>
      </trkpt>
      <trkpt lat="45.85186" lon="2.14658">
        <ele>573.8</ele>
        <time>2026-08-07T14:41:49.000Z</time>
      </trkpt>
      <trkpt lat="45.85179" lon="2.14648">
        <ele>574.7</ele>
        <time>2026-08-07T14:41:53.000Z</time>
      </trkpt>
      <trkpt lat="45.85174" lon="2.14642">
        <ele>574.4</ele>
        <time>2026-08-07T14:41:56.000Z</time>
      </trkpt>
      <trkpt lat="45.85158" lon="2.14623">
        <ele>573.9</ele>
        <time>2026-08-07T14:42:04.000Z</time>
      </trkpt>
      <trkpt lat="45.85151" lon="2.1461">
        <ele>574.6</ele>
        <time>2026-08-07T14:42:09.000Z</time>
      </trkpt>
      <trkpt lat="45.85147" lon="2.14606">
        <ele>574.8</ele>
        <time>2026-08-07T14:42:11.000Z</time>
      </trkpt>
      <trkpt lat="45.85138" lon="2.1458">
        <ele>575.3</ele>
        <time>2026-08-07T14:42:18.000Z</time>
      </trkpt>
      <trkpt lat="45.85136" lon="2.14573">
        <ele>576.1</ele>
        <time>2026-08-07T14:42:20.000Z</time>
      </trkpt>
      <trkpt lat="45.85126" lon="2.14564">
        <ele>576.4</ele>
        <time>2026-08-07T14:42:24.000Z</time>
      </trkpt>
      <trkpt lat="45.85115" lon="2.14555">
        <ele>576.3</ele>
        <time>2026-08-07T14:42:29.000Z</time>
      </trkpt>
      <trkpt lat="45.85112" lon="2.1455">
        <ele>576.6</ele>
        <time>2026-08-07T14:42:31.000Z</time>
      </trkpt>
      <trkpt lat="45.85103" lon="2.14538">
        <ele>576.9</ele>
        <time>2026-08-07T14:42:37.000Z</time>
      </trkpt>
      <trkpt lat="45.85091" lon="2.1452">
        <ele>577.4</ele>
        <time>2026-08-07T14:42:44.000Z</time>
      </trkpt>
      <trkpt lat="45.85089" lon="2.14518">
        <ele>577.5</ele>
        <time>2026-08-07T14:42:45.000Z</time>
      </trkpt>
      <trkpt lat="45.85078" lon="2.145">
        <ele>578</ele>
        <time>2026-08-07T14:42:51.000Z</time>
      </trkpt>
      <trkpt lat="45.85075" lon="2.14483">
        <ele>579.7</ele>
        <time>2026-08-07T14:42:55.000Z</time>
      </trkpt>
      <trkpt lat="45.85074" lon="2.14476">
        <ele>580.3</ele>
        <time>2026-08-07T14:42:57.000Z</time>
      </trkpt>
      <trkpt lat="45.85073" lon="2.14465">
        <ele>580.8</ele>
        <time>2026-08-07T14:43:00.000Z</time>
      </trkpt>
      <trkpt lat="45.85074" lon="2.14454">
        <ele>581.3</ele>
        <time>2026-08-07T14:43:02.000Z</time>
      </trkpt>
      <trkpt lat="45.85074" lon="2.14449">
        <ele>581.5</ele>
        <time>2026-08-07T14:43:03.000Z</time>
      </trkpt>
      <trkpt lat="45.85074" lon="2.14441">
        <ele>582</ele>
        <time>2026-08-07T14:43:07.000Z</time>
      </trkpt>
      <trkpt lat="45.85067" lon="2.14433">
        <ele>581.4</ele>
        <time>2026-08-07T14:43:09.000Z</time>
      </trkpt>
      <trkpt lat="45.85067" lon="2.14423">
        <ele>581.8</ele>
        <time>2026-08-07T14:43:12.000Z</time>
      </trkpt>
      <trkpt lat="45.85065" lon="2.14408">
        <ele>582.4</ele>
        <time>2026-08-07T14:43:17.000Z</time>
      </trkpt>
      <trkpt lat="45.85063" lon="2.14402">
        <ele>582.5</ele>
        <time>2026-08-07T14:43:19.000Z</time>
      </trkpt>
      <trkpt lat="45.85061" lon="2.14395">
        <ele>582.3</ele>
        <time>2026-08-07T14:43:22.000Z</time>
      </trkpt>
      <trkpt lat="45.8506" lon="2.14392">
        <ele>581.7</ele>
        <time>2026-08-07T14:43:24.000Z</time>
      </trkpt>
      <trkpt lat="45.85056" lon="2.14386">
        <ele>580.5</ele>
        <time>2026-08-07T14:43:28.000Z</time>
      </trkpt>
      <trkpt lat="45.8505" lon="2.14378">
        <ele>580.7</ele>
        <time>2026-08-07T14:43:31.000Z</time>
      </trkpt>
      <trkpt lat="45.85047" lon="2.14374">
        <ele>581</ele>
        <time>2026-08-07T14:43:33.000Z</time>
      </trkpt>
      <trkpt lat="45.85043" lon="2.14364">
        <ele>581.4</ele>
        <time>2026-08-07T14:43:37.000Z</time>
      </trkpt>
      <trkpt lat="45.85038" lon="2.14353">
        <ele>582</ele>
        <time>2026-08-07T14:43:40.000Z</time>
      </trkpt>
      <trkpt lat="45.85035" lon="2.14346">
        <ele>582.1</ele>
        <time>2026-08-07T14:43:42.000Z</time>
      </trkpt>
      <trkpt lat="45.85032" lon="2.14342">
        <ele>581.7</ele>
        <time>2026-08-07T14:43:44.000Z</time>
      </trkpt>
      <trkpt lat="45.85031" lon="2.14339">
        <ele>581.6</ele>
        <time>2026-08-07T14:43:45.000Z</time>
      </trkpt>
      <trkpt lat="45.85027" lon="2.14323">
        <ele>582.1</ele>
        <time>2026-08-07T14:43:50.000Z</time>
      </trkpt>
      <trkpt lat="45.85017" lon="2.14317">
        <ele>582.8</ele>
        <time>2026-08-07T14:43:54.000Z</time>
      </trkpt>
      <trkpt lat="45.85013" lon="2.14314">
        <ele>583</ele>
        <time>2026-08-07T14:43:56.000Z</time>
      </trkpt>
      <trkpt lat="45.85002" lon="2.14308">
        <ele>583.1</ele>
        <time>2026-08-07T14:44:02.000Z</time>
      </trkpt>
      <trkpt lat="45.84994" lon="2.14304">
        <ele>583.1</ele>
        <time>2026-08-07T14:44:06.000Z</time>
      </trkpt>
      <trkpt lat="45.84978" lon="2.14299">
        <ele>583.3</ele>
        <time>2026-08-07T14:44:13.000Z</time>
      </trkpt>
      <trkpt lat="45.84976" lon="2.14298">
        <ele>583.3</ele>
        <time>2026-08-07T14:44:14.000Z</time>
      </trkpt>
      <trkpt lat="45.84958" lon="2.1429">
        <ele>584.1</ele>
        <time>2026-08-07T14:44:22.000Z</time>
      </trkpt>
      <trkpt lat="45.84949" lon="2.14285">
        <ele>584.6</ele>
        <time>2026-08-07T14:44:26.000Z</time>
      </trkpt>
      <trkpt lat="45.84942" lon="2.14281">
        <ele>584.9</ele>
        <time>2026-08-07T14:44:29.000Z</time>
      </trkpt>
      <trkpt lat="45.8494" lon="2.1428">
        <ele>585</ele>
        <time>2026-08-07T14:44:30.000Z</time>
      </trkpt>
      <trkpt lat="45.8493" lon="2.14274">
        <ele>585.2</ele>
        <time>2026-08-07T14:44:35.000Z</time>
      </trkpt>
      <trkpt lat="45.84925" lon="2.14273">
        <ele>585.2</ele>
        <time>2026-08-07T14:44:37.000Z</time>
      </trkpt>
      <trkpt lat="45.84909" lon="2.14264">
        <ele>585.8</ele>
        <time>2026-08-07T14:44:45.000Z</time>
      </trkpt>
      <trkpt lat="45.84897" lon="2.14255">
        <ele>586.5</ele>
        <time>2026-08-07T14:44:51.000Z</time>
      </trkpt>
      <trkpt lat="45.84885" lon="2.14233">
        <ele>587.6</ele>
        <time>2026-08-07T14:44:59.000Z</time>
      </trkpt>
      <trkpt lat="45.84875" lon="2.14208">
        <ele>589.1</ele>
        <time>2026-08-07T14:45:05.000Z</time>
      </trkpt>
      <trkpt lat="45.84861" lon="2.14172">
        <ele>590.7</ele>
        <time>2026-08-07T14:45:13.000Z</time>
      </trkpt>
      <trkpt lat="45.84853" lon="2.14155">
        <ele>591.8</ele>
        <time>2026-08-07T14:45:19.000Z</time>
      </trkpt>
      <trkpt lat="45.84849" lon="2.14137">
        <ele>593</ele>
        <time>2026-08-07T14:45:25.000Z</time>
      </trkpt>
      <trkpt lat="45.84844" lon="2.14127">
        <ele>593.2</ele>
        <time>2026-08-07T14:45:29.000Z</time>
      </trkpt>
      <trkpt lat="45.84842" lon="2.14117">
        <ele>593.8</ele>
        <time>2026-08-07T14:45:32.000Z</time>
      </trkpt>
      <trkpt lat="45.84841" lon="2.14114">
        <ele>593.8</ele>
        <time>2026-08-07T14:45:33.000Z</time>
      </trkpt>
      <trkpt lat="45.84837" lon="2.1411">
        <ele>593.2</ele>
        <time>2026-08-07T14:45:35.000Z</time>
      </trkpt>
      <trkpt lat="45.84836" lon="2.14109">
        <ele>592.8</ele>
        <time>2026-08-07T14:45:36.000Z</time>
      </trkpt>
      <trkpt lat="45.84834" lon="2.14107">
        <ele>592.5</ele>
        <time>2026-08-07T14:45:37.000Z</time>
      </trkpt>
      <trkpt lat="45.84831" lon="2.14099">
        <ele>592.7</ele>
        <time>2026-08-07T14:45:40.000Z</time>
      </trkpt>
      <trkpt lat="45.8483" lon="2.14095">
        <ele>592.9</ele>
        <time>2026-08-07T14:45:41.000Z</time>
      </trkpt>
      <trkpt lat="45.8482" lon="2.14073">
        <ele>593.4</ele>
        <time>2026-08-07T14:45:48.000Z</time>
      </trkpt>
      <trkpt lat="45.84816" lon="2.1406">
        <ele>594.1</ele>
        <time>2026-08-07T14:45:52.000Z</time>
      </trkpt>
      <trkpt lat="45.84814" lon="2.14057">
        <ele>594</ele>
        <time>2026-08-07T14:45:53.000Z</time>
      </trkpt>
      <trkpt lat="45.84812" lon="2.14055">
        <ele>594</ele>
        <time>2026-08-07T14:45:54.000Z</time>
      </trkpt>
      <trkpt lat="45.84797" lon="2.1404">
        <ele>595.3</ele>
        <time>2026-08-07T14:46:01.000Z</time>
      </trkpt>
      <trkpt lat="45.84795" lon="2.14038">
        <ele>595.6</ele>
        <time>2026-08-07T14:46:02.000Z</time>
      </trkpt>
      <trkpt lat="45.84786" lon="2.14009">
        <ele>596.1</ele>
        <time>2026-08-07T14:46:08.000Z</time>
      </trkpt>
      <trkpt lat="45.8478" lon="2.14002">
        <ele>595.3</ele>
        <time>2026-08-07T14:46:11.000Z</time>
      </trkpt>
      <trkpt lat="45.84777" lon="2.13999">
        <ele>595.1</ele>
        <time>2026-08-07T14:46:12.000Z</time>
      </trkpt>
      <trkpt lat="45.84777" lon="2.13992">
        <ele>595.9</ele>
        <time>2026-08-07T14:46:13.000Z</time>
      </trkpt>
      <trkpt lat="45.84775" lon="2.13975">
        <ele>597.5</ele>
        <time>2026-08-07T14:46:17.000Z</time>
      </trkpt>
      <trkpt lat="45.84769" lon="2.13973">
        <ele>597.3</ele>
        <time>2026-08-07T14:46:20.000Z</time>
      </trkpt>
      <trkpt lat="45.84758" lon="2.13963">
        <ele>598.1</ele>
        <time>2026-08-07T14:46:25.000Z</time>
      </trkpt>
      <trkpt lat="45.84741" lon="2.13956">
        <ele>598.2</ele>
        <time>2026-08-07T14:46:32.000Z</time>
      </trkpt>
      <trkpt lat="45.84729" lon="2.13938">
        <ele>598.5</ele>
        <time>2026-08-07T14:46:38.000Z</time>
      </trkpt>
      <trkpt lat="45.84716" lon="2.1393">
        <ele>598.8</ele>
        <time>2026-08-07T14:46:42.000Z</time>
      </trkpt>
      <trkpt lat="45.84712" lon="2.13921">
        <ele>599.1</ele>
        <time>2026-08-07T14:46:44.000Z</time>
      </trkpt>
      <trkpt lat="45.84699" lon="2.13909">
        <ele>599.4</ele>
        <time>2026-08-07T14:46:49.000Z</time>
      </trkpt>
      <trkpt lat="45.84698" lon="2.13906">
        <ele>599.4</ele>
        <time>2026-08-07T14:46:50.000Z</time>
      </trkpt>
      <trkpt lat="45.84698" lon="2.13901">
        <ele>599.6</ele>
        <time>2026-08-07T14:46:51.000Z</time>
      </trkpt>
      <trkpt lat="45.84698" lon="2.13892">
        <ele>599.8</ele>
        <time>2026-08-07T14:46:53.000Z</time>
      </trkpt>
      <trkpt lat="45.84699" lon="2.13883">
        <ele>601.1</ele>
        <time>2026-08-07T14:46:55.000Z</time>
      </trkpt>
      <trkpt lat="45.84699" lon="2.13879">
        <ele>601.6</ele>
        <time>2026-08-07T14:46:56.000Z</time>
      </trkpt>
      <trkpt lat="45.84696" lon="2.13875">
        <ele>600.8</ele>
        <time>2026-08-07T14:46:58.000Z</time>
      </trkpt>
      <trkpt lat="45.84691" lon="2.1387">
        <ele>600.3</ele>
        <time>2026-08-07T14:47:00.000Z</time>
      </trkpt>
      <trkpt lat="45.84689" lon="2.13863">
        <ele>600.5</ele>
        <time>2026-08-07T14:47:02.000Z</time>
      </trkpt>
      <trkpt lat="45.84687" lon="2.13856">
        <ele>602</ele>
        <time>2026-08-07T14:47:04.000Z</time>
      </trkpt>
      <trkpt lat="45.84684" lon="2.13846">
        <ele>604</ele>
        <time>2026-08-07T14:47:07.000Z</time>
      </trkpt>
      <trkpt lat="45.84678" lon="2.13834">
        <ele>605</ele>
        <time>2026-08-07T14:47:11.000Z</time>
      </trkpt>
      <trkpt lat="45.84675" lon="2.13825">
        <ele>604.3</ele>
        <time>2026-08-07T14:47:13.000Z</time>
      </trkpt>
      <trkpt lat="45.84675" lon="2.13816">
        <ele>605.4</ele>
        <time>2026-08-07T14:47:15.000Z</time>
      </trkpt>
      <trkpt lat="45.84675" lon="2.13807">
        <ele>606.2</ele>
        <time>2026-08-07T14:47:17.000Z</time>
      </trkpt>
      <trkpt lat="45.84674" lon="2.138">
        <ele>606.2</ele>
        <time>2026-08-07T14:47:19.000Z</time>
      </trkpt>
      <trkpt lat="45.84677" lon="2.13774">
        <ele>609.7</ele>
        <time>2026-08-07T14:47:24.000Z</time>
      </trkpt>
      <trkpt lat="45.84673" lon="2.1377">
        <ele>608.1</ele>
        <time>2026-08-07T14:47:26.000Z</time>
      </trkpt>
      <trkpt lat="45.84671" lon="2.13768">
        <ele>607.6</ele>
        <time>2026-08-07T14:47:27.000Z</time>
      </trkpt>
      <trkpt lat="45.84667" lon="2.13763">
        <ele>605.9</ele>
        <time>2026-08-07T14:47:29.000Z</time>
      </trkpt>
      <trkpt lat="45.84665" lon="2.13753">
        <ele>606.3</ele>
        <time>2026-08-07T14:47:31.000Z</time>
      </trkpt>
      <trkpt lat="45.84663" lon="2.13749">
        <ele>606.4</ele>
        <time>2026-08-07T14:47:33.000Z</time>
      </trkpt>
      <trkpt lat="45.84662" lon="2.13743">
        <ele>606.9</ele>
        <time>2026-08-07T14:47:35.000Z</time>
      </trkpt>
      <trkpt lat="45.84659" lon="2.13736">
        <ele>607.2</ele>
        <time>2026-08-07T14:47:37.000Z</time>
      </trkpt>
      <trkpt lat="45.8466" lon="2.1373">
        <ele>608</ele>
        <time>2026-08-07T14:47:40.000Z</time>
      </trkpt>
      <trkpt lat="45.84657" lon="2.13718">
        <ele>608.3</ele>
        <time>2026-08-07T14:47:44.000Z</time>
      </trkpt>
      <trkpt lat="45.84655" lon="2.13715">
        <ele>608</ele>
        <time>2026-08-07T14:47:45.000Z</time>
      </trkpt>
      <trkpt lat="45.84651" lon="2.13705">
        <ele>607.1</ele>
        <time>2026-08-07T14:47:48.000Z</time>
      </trkpt>
      <trkpt lat="45.84651" lon="2.13696">
        <ele>607.3</ele>
        <time>2026-08-07T14:47:51.000Z</time>
      </trkpt>
      <trkpt lat="45.84649" lon="2.13694">
        <ele>607.1</ele>
        <time>2026-08-07T14:47:52.000Z</time>
      </trkpt>
      <trkpt lat="45.84648" lon="2.13686">
        <ele>607.3</ele>
        <time>2026-08-07T14:47:55.000Z</time>
      </trkpt>
      <trkpt lat="45.84646" lon="2.13683">
        <ele>607.1</ele>
        <time>2026-08-07T14:47:57.000Z</time>
      </trkpt>
      <trkpt lat="45.84645" lon="2.13676">
        <ele>607.4</ele>
        <time>2026-08-07T14:47:59.000Z</time>
      </trkpt>
      <trkpt lat="45.84644" lon="2.13667">
        <ele>607.5</ele>
        <time>2026-08-07T14:48:01.000Z</time>
      </trkpt>
      <trkpt lat="45.84636" lon="2.13638">
        <ele>607.1</ele>
        <time>2026-08-07T14:48:08.000Z</time>
      </trkpt>
      <trkpt lat="45.84633" lon="2.13617">
        <ele>608.3</ele>
        <time>2026-08-07T14:48:15.000Z</time>
      </trkpt>
      <trkpt lat="45.84633" lon="2.13608">
        <ele>608.8</ele>
        <time>2026-08-07T14:48:18.000Z</time>
      </trkpt>
      <trkpt lat="45.84631" lon="2.13603">
        <ele>609.1</ele>
        <time>2026-08-07T14:48:20.000Z</time>
      </trkpt>
      <trkpt lat="45.84625" lon="2.13594">
        <ele>608.9</ele>
        <time>2026-08-07T14:48:24.000Z</time>
      </trkpt>
      <trkpt lat="45.84621" lon="2.13591">
        <ele>608.4</ele>
        <time>2026-08-07T14:48:26.000Z</time>
      </trkpt>
      <trkpt lat="45.84618" lon="2.1359">
        <ele>608.1</ele>
        <time>2026-08-07T14:48:27.000Z</time>
      </trkpt>
      <trkpt lat="45.84612" lon="2.13583">
        <ele>607.2</ele>
        <time>2026-08-07T14:48:30.000Z</time>
      </trkpt>
      <trkpt lat="45.84608" lon="2.13578">
        <ele>607.4</ele>
        <time>2026-08-07T14:48:32.000Z</time>
      </trkpt>
      <trkpt lat="45.84606" lon="2.13576">
        <ele>607.6</ele>
        <time>2026-08-07T14:48:33.000Z</time>
      </trkpt>
      <trkpt lat="45.84598" lon="2.13567">
        <ele>608.1</ele>
        <time>2026-08-07T14:48:38.000Z</time>
      </trkpt>
      <trkpt lat="45.84594" lon="2.1356">
        <ele>608.3</ele>
        <time>2026-08-07T14:48:41.000Z</time>
      </trkpt>
      <trkpt lat="45.84589" lon="2.13555">
        <ele>608.2</ele>
        <time>2026-08-07T14:48:45.000Z</time>
      </trkpt>
      <trkpt lat="45.84579" lon="2.13537">
        <ele>609.4</ele>
        <time>2026-08-07T14:48:52.000Z</time>
      </trkpt>
      <trkpt lat="45.84576" lon="2.13535">
        <ele>609.6</ele>
        <time>2026-08-07T14:48:53.000Z</time>
      </trkpt>
      <trkpt lat="45.84563" lon="2.13523">
        <ele>610.9</ele>
        <time>2026-08-07T14:49:00.000Z</time>
      </trkpt>
      <trkpt lat="45.8456" lon="2.13521">
        <ele>611.1</ele>
        <time>2026-08-07T14:49:01.000Z</time>
      </trkpt>
      <trkpt lat="45.84546" lon="2.13511">
        <ele>612</ele>
        <time>2026-08-07T14:49:08.000Z</time>
      </trkpt>
      <trkpt lat="45.84533" lon="2.13501">
        <ele>612.2</ele>
        <time>2026-08-07T14:49:14.000Z</time>
      </trkpt>
      <trkpt lat="45.84526" lon="2.13496">
        <ele>613.1</ele>
        <time>2026-08-07T14:49:17.000Z</time>
      </trkpt>
      <trkpt lat="45.8451" lon="2.13481">
        <ele>614.4</ele>
        <time>2026-08-07T14:49:24.000Z</time>
      </trkpt>
      <trkpt lat="45.84506" lon="2.13477">
        <ele>614.1</ele>
        <time>2026-08-07T14:49:26.000Z</time>
      </trkpt>
      <trkpt lat="45.84501" lon="2.13467">
        <ele>614.9</ele>
        <time>2026-08-07T14:49:30.000Z</time>
      </trkpt>
      <trkpt lat="45.84496" lon="2.13445">
        <ele>619.8</ele>
        <time>2026-08-07T14:49:37.000Z</time>
      </trkpt>
      <trkpt lat="45.84492" lon="2.13429">
        <ele>622.5</ele>
        <time>2026-08-07T14:49:42.000Z</time>
      </trkpt>
      <trkpt lat="45.84492" lon="2.13425">
        <ele>622.9</ele>
        <time>2026-08-07T14:49:43.000Z</time>
      </trkpt>
      <trkpt lat="45.84487" lon="2.13407">
        <ele>622.2</ele>
        <time>2026-08-07T14:49:49.000Z</time>
      </trkpt>
      <trkpt lat="45.84481" lon="2.13392">
        <ele>618.9</ele>
        <time>2026-08-07T14:49:54.000Z</time>
      </trkpt>
      <trkpt lat="45.84476" lon="2.13365">
        <ele>618.6</ele>
        <time>2026-08-07T14:50:01.000Z</time>
      </trkpt>
      <trkpt lat="45.84476" lon="2.13361">
        <ele>618.2</ele>
        <time>2026-08-07T14:50:02.000Z</time>
      </trkpt>
      <trkpt lat="45.84473" lon="2.13342">
        <ele>616.5</ele>
        <time>2026-08-07T14:50:07.000Z</time>
      </trkpt>
      <trkpt lat="45.84471" lon="2.13314">
        <ele>616.8</ele>
        <time>2026-08-07T14:50:14.000Z</time>
      </trkpt>
      <trkpt lat="45.84472" lon="2.1331">
        <ele>616.9</ele>
        <time>2026-08-07T14:50:15.000Z</time>
      </trkpt>
      <trkpt lat="45.84472" lon="2.13287">
        <ele>617.8</ele>
        <time>2026-08-07T14:50:21.000Z</time>
      </trkpt>
      <trkpt lat="45.84472" lon="2.13283">
        <ele>617.9</ele>
        <time>2026-08-07T14:50:22.000Z</time>
      </trkpt>
      <trkpt lat="45.84472" lon="2.13264">
        <ele>618.6</ele>
        <time>2026-08-07T14:50:28.000Z</time>
      </trkpt>
      <trkpt lat="45.84473" lon="2.13248">
        <ele>619.5</ele>
        <time>2026-08-07T14:50:33.000Z</time>
      </trkpt>
      <trkpt lat="45.84473" lon="2.1324">
        <ele>619.8</ele>
        <time>2026-08-07T14:50:36.000Z</time>
      </trkpt>
      <trkpt lat="45.84471" lon="2.13215">
        <ele>620.2</ele>
        <time>2026-08-07T14:50:45.000Z</time>
      </trkpt>
      <trkpt lat="45.84471" lon="2.13211">
        <ele>620.1</ele>
        <time>2026-08-07T14:50:46.000Z</time>
      </trkpt>
      <trkpt lat="45.84471" lon="2.13204">
        <ele>620.2</ele>
        <time>2026-08-07T14:50:49.000Z</time>
      </trkpt>
      <trkpt lat="45.8447" lon="2.13195">
        <ele>620.1</ele>
        <time>2026-08-07T14:50:54.000Z</time>
      </trkpt>
      <trkpt lat="45.84469" lon="2.13189">
        <ele>620.6</ele>
        <time>2026-08-07T14:50:56.000Z</time>
      </trkpt>
      <trkpt lat="45.84467" lon="2.13168">
        <ele>621.7</ele>
        <time>2026-08-07T14:51:03.000Z</time>
      </trkpt>
      <trkpt lat="45.84467" lon="2.13159">
        <ele>622.4</ele>
        <time>2026-08-07T14:51:07.000Z</time>
      </trkpt>
      <trkpt lat="45.84467" lon="2.13156">
        <ele>622.6</ele>
        <time>2026-08-07T14:51:08.000Z</time>
      </trkpt>
      <trkpt lat="45.84467" lon="2.1315">
        <ele>623</ele>
        <time>2026-08-07T14:51:10.000Z</time>
      </trkpt>
      <trkpt lat="45.84467" lon="2.13143">
        <ele>623.5</ele>
        <time>2026-08-07T14:51:12.000Z</time>
      </trkpt>
      <trkpt lat="45.84468" lon="2.13137">
        <ele>624</ele>
        <time>2026-08-07T14:51:14.000Z</time>
      </trkpt>
      <trkpt lat="45.84469" lon="2.13129">
        <ele>624.5</ele>
        <time>2026-08-07T14:51:16.000Z</time>
      </trkpt>
      <trkpt lat="45.84469" lon="2.13126">
        <ele>624.7</ele>
        <time>2026-08-07T14:51:17.000Z</time>
      </trkpt>
      <trkpt lat="45.84469" lon="2.13123">
        <ele>624.9</ele>
        <time>2026-08-07T14:51:18.000Z</time>
      </trkpt>
      <trkpt lat="45.84469" lon="2.13113">
        <ele>625.6</ele>
        <time>2026-08-07T14:51:21.000Z</time>
      </trkpt>
      <trkpt lat="45.84469" lon="2.13105">
        <ele>625.9</ele>
        <time>2026-08-07T14:51:23.000Z</time>
      </trkpt>
      <trkpt lat="45.8447" lon="2.13101">
        <ele>626.1</ele>
        <time>2026-08-07T14:51:24.000Z</time>
      </trkpt>
      <trkpt lat="45.8447" lon="2.13099">
        <ele>626.2</ele>
        <time>2026-08-07T14:51:25.000Z</time>
      </trkpt>
      <trkpt lat="45.84473" lon="2.1309">
        <ele>627</ele>
        <time>2026-08-07T14:51:28.000Z</time>
      </trkpt>
      <trkpt lat="45.84472" lon="2.13074">
        <ele>627.5</ele>
        <time>2026-08-07T14:51:33.000Z</time>
      </trkpt>
      <trkpt lat="45.84472" lon="2.13067">
        <ele>627.5</ele>
        <time>2026-08-07T14:51:36.000Z</time>
      </trkpt>
      <trkpt lat="45.84471" lon="2.13052">
        <ele>627.6</ele>
        <time>2026-08-07T14:51:42.000Z</time>
      </trkpt>
      <trkpt lat="45.84471" lon="2.1304">
        <ele>627.3</ele>
        <time>2026-08-07T14:51:47.000Z</time>
      </trkpt>
      <trkpt lat="45.84471" lon="2.13037">
        <ele>627.2</ele>
        <time>2026-08-07T14:51:48.000Z</time>
      </trkpt>
      <trkpt lat="45.84471" lon="2.13023">
        <ele>627.1</ele>
        <time>2026-08-07T14:51:54.000Z</time>
      </trkpt>
      <trkpt lat="45.8447" lon="2.13015">
        <ele>627.3</ele>
        <time>2026-08-07T14:51:57.000Z</time>
      </trkpt>
      <trkpt lat="45.84468" lon="2.1301">
        <ele>627.3</ele>
        <time>2026-08-07T14:51:59.000Z</time>
      </trkpt>
      <trkpt lat="45.84468" lon="2.13004">
        <ele>627.6</ele>
        <time>2026-08-07T14:52:01.000Z</time>
      </trkpt>
      <trkpt lat="45.84466" lon="2.1299">
        <ele>628.2</ele>
        <time>2026-08-07T14:52:06.000Z</time>
      </trkpt>
      <trkpt lat="45.84466" lon="2.12988">
        <ele>628.3</ele>
        <time>2026-08-07T14:52:07.000Z</time>
      </trkpt>
      <trkpt lat="45.84459" lon="2.12965">
        <ele>629.4</ele>
        <time>2026-08-07T14:52:13.000Z</time>
      </trkpt>
      <trkpt lat="45.84458" lon="2.12962">
        <ele>629.6</ele>
        <time>2026-08-07T14:52:14.000Z</time>
      </trkpt>
      <trkpt lat="45.84458" lon="2.12958">
        <ele>629.9</ele>
        <time>2026-08-07T14:52:15.000Z</time>
      </trkpt>
      <trkpt lat="45.84459" lon="2.12954">
        <ele>630.5</ele>
        <time>2026-08-07T14:52:16.000Z</time>
      </trkpt>
      <trkpt lat="45.84465" lon="2.12939">
        <ele>633.9</ele>
        <time>2026-08-07T14:52:21.000Z</time>
      </trkpt>
      <trkpt lat="45.84462" lon="2.12918">
        <ele>635.4</ele>
        <time>2026-08-07T14:52:28.000Z</time>
      </trkpt>
      <trkpt lat="45.84462" lon="2.12915">
        <ele>635.4</ele>
        <time>2026-08-07T14:52:29.000Z</time>
      </trkpt>
      <trkpt lat="45.84465" lon="2.12897">
        <ele>636.3</ele>
        <time>2026-08-07T14:52:35.000Z</time>
      </trkpt>
      <trkpt lat="45.84466" lon="2.12894">
        <ele>636.3</ele>
        <time>2026-08-07T14:52:36.000Z</time>
      </trkpt>
      <trkpt lat="45.84467" lon="2.1287">
        <ele>635.4</ele>
        <time>2026-08-07T14:52:45.000Z</time>
      </trkpt>
      <trkpt lat="45.84468" lon="2.12867">
        <ele>635.6</ele>
        <time>2026-08-07T14:52:46.000Z</time>
      </trkpt>
      <trkpt lat="45.84469" lon="2.12848">
        <ele>634.5</ele>
        <time>2026-08-07T14:52:53.000Z</time>
      </trkpt>
      <trkpt lat="45.8447" lon="2.12839">
        <ele>634.1</ele>
        <time>2026-08-07T14:52:56.000Z</time>
      </trkpt>
      <trkpt lat="45.8447" lon="2.12825">
        <ele>634.4</ele>
        <time>2026-08-07T14:53:01.000Z</time>
      </trkpt>
      <trkpt lat="45.84471" lon="2.12812">
        <ele>635.4</ele>
        <time>2026-08-07T14:53:06.000Z</time>
      </trkpt>
      <trkpt lat="45.84472" lon="2.12806">
        <ele>635.9</ele>
        <time>2026-08-07T14:53:08.000Z</time>
      </trkpt>
      <trkpt lat="45.84472" lon="2.12804">
        <ele>636.1</ele>
        <time>2026-08-07T14:53:09.000Z</time>
      </trkpt>
      <trkpt lat="45.84472" lon="2.12788">
        <ele>637.2</ele>
        <time>2026-08-07T14:53:15.000Z</time>
      </trkpt>
      <trkpt lat="45.84473" lon="2.12786">
        <ele>637.5</ele>
        <time>2026-08-07T14:53:16.000Z</time>
      </trkpt>
      <trkpt lat="45.84475" lon="2.1277">
        <ele>638.8</ele>
        <time>2026-08-07T14:53:22.000Z</time>
      </trkpt>
      <trkpt lat="45.84475" lon="2.12765">
        <ele>638.9</ele>
        <time>2026-08-07T14:53:24.000Z</time>
      </trkpt>
      <trkpt lat="45.84478" lon="2.12743">
        <ele>639.9</ele>
        <time>2026-08-07T14:53:32.000Z</time>
      </trkpt>
      <trkpt lat="45.84478" lon="2.1274">
        <ele>640</ele>
        <time>2026-08-07T14:53:33.000Z</time>
      </trkpt>
      <trkpt lat="45.84478" lon="2.12732">
        <ele>640.6</ele>
        <time>2026-08-07T14:53:37.000Z</time>
      </trkpt>
      <trkpt lat="45.84478" lon="2.12723">
        <ele>640.8</ele>
        <time>2026-08-07T14:53:40.000Z</time>
      </trkpt>
      <trkpt lat="45.84478" lon="2.12718">
        <ele>640.9</ele>
        <time>2026-08-07T14:53:42.000Z</time>
      </trkpt>
      <trkpt lat="45.84477" lon="2.12713">
        <ele>640.6</ele>
        <time>2026-08-07T14:53:44.000Z</time>
      </trkpt>
      <trkpt lat="45.84477" lon="2.12708">
        <ele>640.5</ele>
        <time>2026-08-07T14:53:46.000Z</time>
      </trkpt>
      <trkpt lat="45.84476" lon="2.12703">
        <ele>640.2</ele>
        <time>2026-08-07T14:53:48.000Z</time>
      </trkpt>
      <trkpt lat="45.84474" lon="2.12689">
        <ele>640.1</ele>
        <time>2026-08-07T14:53:53.000Z</time>
      </trkpt>
      <trkpt lat="45.84474" lon="2.12687">
        <ele>640.1</ele>
        <time>2026-08-07T14:53:54.000Z</time>
      </trkpt>
      <trkpt lat="45.8447" lon="2.12666">
        <ele>640.8</ele>
        <time>2026-08-07T14:54:00.000Z</time>
      </trkpt>
      <trkpt lat="45.84468" lon="2.12646">
        <ele>641.7</ele>
        <time>2026-08-07T14:54:06.000Z</time>
      </trkpt>
      <trkpt lat="45.84467" lon="2.12633">
        <ele>641.8</ele>
        <time>2026-08-07T14:54:10.000Z</time>
      </trkpt>
      <trkpt lat="45.84465" lon="2.12624">
        <ele>641.5</ele>
        <time>2026-08-07T14:54:13.000Z</time>
      </trkpt>
      <trkpt lat="45.84464" lon="2.12618">
        <ele>641.3</ele>
        <time>2026-08-07T14:54:15.000Z</time>
      </trkpt>
      <trkpt lat="45.84464" lon="2.12605">
        <ele>641.4</ele>
        <time>2026-08-07T14:54:19.000Z</time>
      </trkpt>
      <trkpt lat="45.84461" lon="2.12583">
        <ele>641.6</ele>
        <time>2026-08-07T14:54:24.000Z</time>
      </trkpt>
      <trkpt lat="45.84461" lon="2.12572">
        <ele>641.4</ele>
        <time>2026-08-07T14:54:26.000Z</time>
      </trkpt>
      <trkpt lat="45.8446" lon="2.12532">
        <ele>641.1</ele>
        <time>2026-08-07T14:54:34.000Z</time>
      </trkpt>
      <trkpt lat="45.84453" lon="2.12488">
        <ele>641.8</ele>
        <time>2026-08-07T14:54:43.000Z</time>
      </trkpt>
      <trkpt lat="45.84442" lon="2.12455">
        <ele>641.5</ele>
        <time>2026-08-07T14:54:51.000Z</time>
      </trkpt>
      <trkpt lat="45.84437" lon="2.12445">
        <ele>641.7</ele>
        <time>2026-08-07T14:54:54.000Z</time>
      </trkpt>
      <trkpt lat="45.84427" lon="2.12426">
        <ele>642.7</ele>
        <time>2026-08-07T14:55:00.000Z</time>
      </trkpt>
      <trkpt lat="45.84414" lon="2.12414">
        <ele>643.3</ele>
        <time>2026-08-07T14:55:06.000Z</time>
      </trkpt>
      <trkpt lat="45.8441" lon="2.12411">
        <ele>643.6</ele>
        <time>2026-08-07T14:55:08.000Z</time>
      </trkpt>
      <trkpt lat="45.84409" lon="2.12409">
        <ele>643.8</ele>
        <time>2026-08-07T14:55:11.000Z</time>
      </trkpt>
      <trkpt lat="45.84403" lon="2.12405">
        <ele>644.3</ele>
        <time>2026-08-07T15:05:07.000Z</time>
      </trkpt>
      <trkpt lat="45.8439" lon="2.12393">
        <ele>645.5</ele>
        <time>2026-08-07T15:05:14.000Z</time>
      </trkpt>
      <trkpt lat="45.84377" lon="2.12382">
        <ele>645.6</ele>
        <time>2026-08-07T15:05:21.000Z</time>
      </trkpt>
      <trkpt lat="45.84375" lon="2.12379">
        <ele>645.7</ele>
        <time>2026-08-07T15:05:22.000Z</time>
      </trkpt>
      <trkpt lat="45.84369" lon="2.1237">
        <ele>645.6</ele>
        <time>2026-08-07T15:05:26.000Z</time>
      </trkpt>
      <trkpt lat="45.8436" lon="2.12358">
        <ele>644.5</ele>
        <time>2026-08-07T15:05:31.000Z</time>
      </trkpt>
      <trkpt lat="45.84356" lon="2.12349">
        <ele>645.6</ele>
        <time>2026-08-07T15:05:33.000Z</time>
      </trkpt>
      <trkpt lat="45.84351" lon="2.12335">
        <ele>646.7</ele>
        <time>2026-08-07T15:05:36.000Z</time>
      </trkpt>
      <trkpt lat="45.84344" lon="2.12316">
        <ele>646</ele>
        <time>2026-08-07T15:05:42.000Z</time>
      </trkpt>
      <trkpt lat="45.84341" lon="2.12302">
        <ele>645.8</ele>
        <time>2026-08-07T15:05:47.000Z</time>
      </trkpt>
      <trkpt lat="45.84333" lon="2.12274">
        <ele>645.4</ele>
        <time>2026-08-07T15:05:57.000Z</time>
      </trkpt>
      <trkpt lat="45.84333" lon="2.12271">
        <ele>645.7</ele>
        <time>2026-08-07T15:05:58.000Z</time>
      </trkpt>
      <trkpt lat="45.84326" lon="2.12247">
        <ele>647.1</ele>
        <time>2026-08-07T15:06:07.000Z</time>
      </trkpt>
      <trkpt lat="45.84326" lon="2.12244">
        <ele>647.3</ele>
        <time>2026-08-07T15:06:08.000Z</time>
      </trkpt>
      <trkpt lat="45.84322" lon="2.12223">
        <ele>648.2</ele>
        <time>2026-08-07T15:06:15.000Z</time>
      </trkpt>
      <trkpt lat="45.84318" lon="2.12205">
        <ele>648.3</ele>
        <time>2026-08-07T15:06:22.000Z</time>
      </trkpt>
      <trkpt lat="45.84314" lon="2.12194">
        <ele>647.7</ele>
        <time>2026-08-07T15:06:26.000Z</time>
      </trkpt>
      <trkpt lat="45.84312" lon="2.12184">
        <ele>647.8</ele>
        <time>2026-08-07T15:06:29.000Z</time>
      </trkpt>
      <trkpt lat="45.84308" lon="2.12167">
        <ele>647.8</ele>
        <time>2026-08-07T15:06:35.000Z</time>
      </trkpt>
      <trkpt lat="45.84307" lon="2.12157">
        <ele>648.4</ele>
        <time>2026-08-07T15:06:38.000Z</time>
      </trkpt>
      <trkpt lat="45.84301" lon="2.12141">
        <ele>648.7</ele>
        <time>2026-08-07T15:06:44.000Z</time>
      </trkpt>
      <trkpt lat="45.84299" lon="2.12137">
        <ele>648.6</ele>
        <time>2026-08-07T15:06:46.000Z</time>
      </trkpt>
      <trkpt lat="45.84295" lon="2.12126">
        <ele>648.9</ele>
        <time>2026-08-07T15:06:50.000Z</time>
      </trkpt>
      <trkpt lat="45.84293" lon="2.12122">
        <ele>648.7</ele>
        <time>2026-08-07T15:06:52.000Z</time>
      </trkpt>
      <trkpt lat="45.84286" lon="2.12104">
        <ele>648.3</ele>
        <time>2026-08-07T15:06:59.000Z</time>
      </trkpt>
      <trkpt lat="45.84281" lon="2.12084">
        <ele>648.1</ele>
        <time>2026-08-07T15:07:06.000Z</time>
      </trkpt>
      <trkpt lat="45.84277" lon="2.12075">
        <ele>647.8</ele>
        <time>2026-08-07T15:07:09.000Z</time>
      </trkpt>
      <trkpt lat="45.84278" lon="2.12054">
        <ele>650.5</ele>
        <time>2026-08-07T15:07:14.000Z</time>
      </trkpt>
      <trkpt lat="45.84278" lon="2.12049">
        <ele>651.1</ele>
        <time>2026-08-07T15:07:15.000Z</time>
      </trkpt>
      <trkpt lat="45.84278" lon="2.12042">
        <ele>651.9</ele>
        <time>2026-08-07T15:07:17.000Z</time>
      </trkpt>
      <trkpt lat="45.84276" lon="2.1204">
        <ele>652</ele>
        <time>2026-08-07T15:07:19.000Z</time>
      </trkpt>
      <trkpt lat="45.8427" lon="2.1202">
        <ele>652.9</ele>
        <time>2026-08-07T15:07:26.000Z</time>
      </trkpt>
      <trkpt lat="45.84267" lon="2.12014">
        <ele>652.8</ele>
        <time>2026-08-07T15:07:28.000Z</time>
      </trkpt>
      <trkpt lat="45.84262" lon="2.11987">
        <ele>652.8</ele>
        <time>2026-08-07T15:07:37.000Z</time>
      </trkpt>
      <trkpt lat="45.8426" lon="2.11979">
        <ele>652.4</ele>
        <time>2026-08-07T15:07:40.000Z</time>
      </trkpt>
      <trkpt lat="45.84261" lon="2.11975">
        <ele>652.4</ele>
        <time>2026-08-07T15:07:41.000Z</time>
      </trkpt>
      <trkpt lat="45.8426" lon="2.11963">
        <ele>652.5</ele>
        <time>2026-08-07T15:07:44.000Z</time>
      </trkpt>
      <trkpt lat="45.84258" lon="2.11927">
        <ele>653.1</ele>
        <time>2026-08-07T15:07:54.000Z</time>
      </trkpt>
      <trkpt lat="45.84258" lon="2.11916">
        <ele>653.7</ele>
        <time>2026-08-07T15:07:57.000Z</time>
      </trkpt>
      <trkpt lat="45.84256" lon="2.11894">
        <ele>654.4</ele>
        <time>2026-08-07T15:08:03.000Z</time>
      </trkpt>
      <trkpt lat="45.84256" lon="2.1189">
        <ele>654.6</ele>
        <time>2026-08-07T15:08:04.000Z</time>
      </trkpt>
      <trkpt lat="45.84247" lon="2.11866">
        <ele>654.5</ele>
        <time>2026-08-07T15:08:11.000Z</time>
      </trkpt>
      <trkpt lat="45.84236" lon="2.11844">
        <ele>654.8</ele>
        <time>2026-08-07T15:08:19.000Z</time>
      </trkpt>
      <trkpt lat="45.84226" lon="2.11827">
        <ele>655.9</ele>
        <time>2026-08-07T15:08:25.000Z</time>
      </trkpt>
      <trkpt lat="45.84216" lon="2.11814">
        <ele>655.9</ele>
        <time>2026-08-07T15:08:31.000Z</time>
      </trkpt>
      <trkpt lat="45.84214" lon="2.11811">
        <ele>656</ele>
        <time>2026-08-07T15:08:32.000Z</time>
      </trkpt>
      <trkpt lat="45.84204" lon="2.11802">
        <ele>657.4</ele>
        <time>2026-08-07T15:08:37.000Z</time>
      </trkpt>
      <trkpt lat="45.84202" lon="2.11801">
        <ele>657.7</ele>
        <time>2026-08-07T15:08:38.000Z</time>
      </trkpt>
      <trkpt lat="45.84189" lon="2.11795">
        <ele>659.1</ele>
        <time>2026-08-07T15:08:44.000Z</time>
      </trkpt>
      <trkpt lat="45.84187" lon="2.11794">
        <ele>659.2</ele>
        <time>2026-08-07T15:08:45.000Z</time>
      </trkpt>
      <trkpt lat="45.84168" lon="2.11784">
        <ele>659.4</ele>
        <time>2026-08-07T15:08:54.000Z</time>
      </trkpt>
      <trkpt lat="45.84165" lon="2.11783">
        <ele>659.4</ele>
        <time>2026-08-07T15:08:55.000Z</time>
      </trkpt>
      <trkpt lat="45.84146" lon="2.11767">
        <ele>660.7</ele>
        <time>2026-08-07T15:09:04.000Z</time>
      </trkpt>
      <trkpt lat="45.84128" lon="2.11744">
        <ele>661</ele>
        <time>2026-08-07T15:09:12.000Z</time>
      </trkpt>
      <trkpt lat="45.84121" lon="2.11729">
        <ele>661.1</ele>
        <time>2026-08-07T15:09:16.000Z</time>
      </trkpt>
      <trkpt lat="45.84114" lon="2.11709">
        <ele>660.5</ele>
        <time>2026-08-07T15:09:21.000Z</time>
      </trkpt>
      <trkpt lat="45.84109" lon="2.11679">
        <ele>659.8</ele>
        <time>2026-08-07T15:09:27.000Z</time>
      </trkpt>
      <trkpt lat="45.84113" lon="2.11638">
        <ele>659.4</ele>
        <time>2026-08-07T15:09:34.000Z</time>
      </trkpt>
      <trkpt lat="45.84125" lon="2.11593">
        <ele>658.2</ele>
        <time>2026-08-07T15:09:42.000Z</time>
      </trkpt>
      <trkpt lat="45.84129" lon="2.11576">
        <ele>658.4</ele>
        <time>2026-08-07T15:09:45.000Z</time>
      </trkpt>
      <trkpt lat="45.84133" lon="2.1155">
        <ele>659.8</ele>
        <time>2026-08-07T15:09:50.000Z</time>
      </trkpt>
      <trkpt lat="45.84138" lon="2.11502">
        <ele>660.7</ele>
        <time>2026-08-07T15:09:59.000Z</time>
      </trkpt>
      <trkpt lat="45.84142" lon="2.11458">
        <ele>659.8</ele>
        <time>2026-08-07T15:10:07.000Z</time>
      </trkpt>
      <trkpt lat="45.84143" lon="2.11427">
        <ele>659.8</ele>
        <time>2026-08-07T15:10:13.000Z</time>
      </trkpt>
      <trkpt lat="45.84143" lon="2.11418">
        <ele>660.2</ele>
        <time>2026-08-07T15:10:15.000Z</time>
      </trkpt>
      <trkpt lat="45.84142" lon="2.11375">
        <ele>660</ele>
        <time>2026-08-07T15:10:24.000Z</time>
      </trkpt>
      <trkpt lat="45.84143" lon="2.11342">
        <ele>660.6</ele>
        <time>2026-08-07T15:10:31.000Z</time>
      </trkpt>
      <trkpt lat="45.8415" lon="2.11323">
        <ele>661.4</ele>
        <time>2026-08-07T15:10:37.000Z</time>
      </trkpt>
      <trkpt lat="45.84153" lon="2.11317">
        <ele>661.6</ele>
        <time>2026-08-07T15:10:40.000Z</time>
      </trkpt>
      <trkpt lat="45.84156" lon="2.1131">
        <ele>661.8</ele>
        <time>2026-08-07T15:10:43.000Z</time>
      </trkpt>
      <trkpt lat="45.84159" lon="2.11307">
        <ele>662</ele>
        <time>2026-08-07T15:10:45.000Z</time>
      </trkpt>
      <trkpt lat="45.84167" lon="2.1129">
        <ele>663.6</ele>
        <time>2026-08-07T15:10:52.000Z</time>
      </trkpt>
      <trkpt lat="45.84169" lon="2.11286">
        <ele>664.1</ele>
        <time>2026-08-07T15:10:54.000Z</time>
      </trkpt>
      <trkpt lat="45.84173" lon="2.11278">
        <ele>664.6</ele>
        <time>2026-08-07T15:10:58.000Z</time>
      </trkpt>
      <trkpt lat="45.84173" lon="2.11276">
        <ele>664.8</ele>
        <time>2026-08-07T15:10:59.000Z</time>
      </trkpt>
      <trkpt lat="45.84178" lon="2.11265">
        <ele>665.8</ele>
        <time>2026-08-07T15:11:04.000Z</time>
      </trkpt>
      <trkpt lat="45.84179" lon="2.11259">
        <ele>666.3</ele>
        <time>2026-08-07T15:11:07.000Z</time>
      </trkpt>
      <trkpt lat="45.84182" lon="2.1125">
        <ele>666.8</ele>
        <time>2026-08-07T15:11:11.000Z</time>
      </trkpt>
      <trkpt lat="45.84183" lon="2.11246">
        <ele>666.8</ele>
        <time>2026-08-07T15:11:13.000Z</time>
      </trkpt>
      <trkpt lat="45.84186" lon="2.1124">
        <ele>666.9</ele>
        <time>2026-08-07T15:11:16.000Z</time>
      </trkpt>
      <trkpt lat="45.84186" lon="2.11239">
        <ele>666.9</ele>
        <time>2026-08-07T15:11:17.000Z</time>
      </trkpt>
      <trkpt lat="45.84191" lon="2.11227">
        <ele>666.5</ele>
        <time>2026-08-07T15:11:23.000Z</time>
      </trkpt>
      <trkpt lat="45.84193" lon="2.11225">
        <ele>666.3</ele>
        <time>2026-08-07T15:11:24.000Z</time>
      </trkpt>
      <trkpt lat="45.84194" lon="2.11223">
        <ele>666.2</ele>
        <time>2026-08-07T15:11:25.000Z</time>
      </trkpt>
      <trkpt lat="45.84194" lon="2.11221">
        <ele>666.2</ele>
        <time>2026-08-07T15:11:26.000Z</time>
      </trkpt>
      <trkpt lat="45.84198" lon="2.11209">
        <ele>667.4</ele>
        <time>2026-08-07T15:11:31.000Z</time>
      </trkpt>
      <trkpt lat="45.84204" lon="2.11197">
        <ele>668.1</ele>
        <time>2026-08-07T15:11:36.000Z</time>
      </trkpt>
      <trkpt lat="45.84207" lon="2.11191">
        <ele>668.5</ele>
        <time>2026-08-07T15:11:39.000Z</time>
      </trkpt>
      <trkpt lat="45.84209" lon="2.11187">
        <ele>668.7</ele>
        <time>2026-08-07T15:11:41.000Z</time>
      </trkpt>
      <trkpt lat="45.84214" lon="2.1118">
        <ele>669</ele>
        <time>2026-08-07T15:11:45.000Z</time>
      </trkpt>
      <trkpt lat="45.84217" lon="2.11176">
        <ele>669</ele>
        <time>2026-08-07T15:11:47.000Z</time>
      </trkpt>
      <trkpt lat="45.84223" lon="2.11167">
        <ele>669</ele>
        <time>2026-08-07T15:11:53.000Z</time>
      </trkpt>
      <trkpt lat="45.84232" lon="2.11157">
        <ele>670.1</ele>
        <time>2026-08-07T15:12:00.000Z</time>
      </trkpt>
      <trkpt lat="45.84233" lon="2.11155">
        <ele>670.4</ele>
        <time>2026-08-07T15:12:01.000Z</time>
      </trkpt>
      <trkpt lat="45.84237" lon="2.1115">
        <ele>670.8</ele>
        <time>2026-08-07T15:12:04.000Z</time>
      </trkpt>
      <trkpt lat="45.8424" lon="2.11145">
        <ele>671.1</ele>
        <time>2026-08-07T15:12:07.000Z</time>
      </trkpt>
      <trkpt lat="45.84247" lon="2.1114">
        <ele>671.1</ele>
        <time>2026-08-07T15:12:12.000Z</time>
      </trkpt>
      <trkpt lat="45.84252" lon="2.11137">
        <ele>671.3</ele>
        <time>2026-08-07T15:12:15.000Z</time>
      </trkpt>
      <trkpt lat="45.84264" lon="2.11125">
        <ele>672.8</ele>
        <time>2026-08-07T15:12:23.000Z</time>
      </trkpt>
      <trkpt lat="45.84265" lon="2.11124">
        <ele>672.8</ele>
        <time>2026-08-07T15:12:24.000Z</time>
      </trkpt>
      <trkpt lat="45.84278" lon="2.1111">
        <ele>673.3</ele>
        <time>2026-08-07T15:12:33.000Z</time>
      </trkpt>
      <trkpt lat="45.84281" lon="2.11108">
        <ele>674</ele>
        <time>2026-08-07T15:12:35.000Z</time>
      </trkpt>
      <trkpt lat="45.84283" lon="2.11106">
        <ele>674.3</ele>
        <time>2026-08-07T15:12:36.000Z</time>
      </trkpt>
      <trkpt lat="45.84285" lon="2.11105">
        <ele>674.7</ele>
        <time>2026-08-07T15:12:37.000Z</time>
      </trkpt>
      <trkpt lat="45.84287" lon="2.11102">
        <ele>675.2</ele>
        <time>2026-08-07T15:12:39.000Z</time>
      </trkpt>
      <trkpt lat="45.843" lon="2.11089">
        <ele>675.7</ele>
        <time>2026-08-07T15:12:48.000Z</time>
      </trkpt>
      <trkpt lat="45.84304" lon="2.11085">
        <ele>675.2</ele>
        <time>2026-08-07T15:12:51.000Z</time>
      </trkpt>
      <trkpt lat="45.84311" lon="2.11078">
        <ele>676.3</ele>
        <time>2026-08-07T15:12:56.000Z</time>
      </trkpt>
      <trkpt lat="45.84322" lon="2.11068">
        <ele>677.6</ele>
        <time>2026-08-07T15:13:03.000Z</time>
      </trkpt>
      <trkpt lat="45.84323" lon="2.11067">
        <ele>677.6</ele>
        <time>2026-08-07T15:13:04.000Z</time>
      </trkpt>
      <trkpt lat="45.8433" lon="2.11062">
        <ele>677.3</ele>
        <time>2026-08-07T15:13:09.000Z</time>
      </trkpt>
      <trkpt lat="45.84338" lon="2.11053">
        <ele>677.4</ele>
        <time>2026-08-07T15:13:16.000Z</time>
      </trkpt>
      <trkpt lat="45.84341" lon="2.11052">
        <ele>677.5</ele>
        <time>2026-08-07T15:13:18.000Z</time>
      </trkpt>
      <trkpt lat="45.84346" lon="2.11049">
        <ele>677.9</ele>
        <time>2026-08-07T15:13:23.000Z</time>
      </trkpt>
      <trkpt lat="45.84347" lon="2.11048">
        <ele>677.9</ele>
        <time>2026-08-07T15:13:24.000Z</time>
      </trkpt>
      <trkpt lat="45.84354" lon="2.11043">
        <ele>678.2</ele>
        <time>2026-08-07T15:13:30.000Z</time>
      </trkpt>
      <trkpt lat="45.84357" lon="2.1104">
        <ele>678.4</ele>
        <time>2026-08-07T15:13:32.000Z</time>
      </trkpt>
      <trkpt lat="45.84366" lon="2.11029">
        <ele>679</ele>
        <time>2026-08-07T15:13:38.000Z</time>
      </trkpt>
      <trkpt lat="45.84368" lon="2.11028">
        <ele>679</ele>
        <time>2026-08-07T15:13:39.000Z</time>
      </trkpt>
      <trkpt lat="45.84382" lon="2.11012">
        <ele>680.4</ele>
        <time>2026-08-07T15:13:47.000Z</time>
      </trkpt>
      <trkpt lat="45.84395" lon="2.11004">
        <ele>680.8</ele>
        <time>2026-08-07T15:13:54.000Z</time>
      </trkpt>
      <trkpt lat="45.84397" lon="2.11002">
        <ele>680.9</ele>
        <time>2026-08-07T15:13:55.000Z</time>
      </trkpt>
      <trkpt lat="45.84413" lon="2.10996">
        <ele>682</ele>
        <time>2026-08-07T15:14:03.000Z</time>
      </trkpt>
      <trkpt lat="45.84433" lon="2.10991">
        <ele>683.4</ele>
        <time>2026-08-07T15:14:14.000Z</time>
      </trkpt>
      <trkpt lat="45.84443" lon="2.10991">
        <ele>683.7</ele>
        <time>2026-08-07T15:14:21.000Z</time>
      </trkpt>
      <trkpt lat="45.84446" lon="2.10991">
        <ele>683.7</ele>
        <time>2026-08-07T15:14:23.000Z</time>
      </trkpt>
      <trkpt lat="45.84455" lon="2.10988">
        <ele>684.2</ele>
        <time>2026-08-07T15:14:29.000Z</time>
      </trkpt>
      <trkpt lat="45.84461" lon="2.10986">
        <ele>684.5</ele>
        <time>2026-08-07T15:14:34.000Z</time>
      </trkpt>
      <trkpt lat="45.84464" lon="2.10987">
        <ele>684.4</ele>
        <time>2026-08-07T15:14:36.000Z</time>
      </trkpt>
      <trkpt lat="45.84471" lon="2.10989">
        <ele>684.2</ele>
        <time>2026-08-07T15:14:40.000Z</time>
      </trkpt>
      <trkpt lat="45.84475" lon="2.10988">
        <ele>684.5</ele>
        <time>2026-08-07T15:14:42.000Z</time>
      </trkpt>
      <trkpt lat="45.84477" lon="2.10987">
        <ele>684.7</ele>
        <time>2026-08-07T15:14:43.000Z</time>
      </trkpt>
      <trkpt lat="45.84487" lon="2.10982">
        <ele>685.7</ele>
        <time>2026-08-07T15:14:49.000Z</time>
      </trkpt>
      <trkpt lat="45.84497" lon="2.10982">
        <ele>686.1</ele>
        <time>2026-08-07T15:14:54.000Z</time>
      </trkpt>
      <trkpt lat="45.84502" lon="2.10982">
        <ele>686.5</ele>
        <time>2026-08-07T15:14:57.000Z</time>
      </trkpt>
      <trkpt lat="45.84509" lon="2.10984">
        <ele>687</ele>
        <time>2026-08-07T15:15:01.000Z</time>
      </trkpt>
      <trkpt lat="45.84515" lon="2.10985">
        <ele>687.4</ele>
        <time>2026-08-07T15:15:04.000Z</time>
      </trkpt>
      <trkpt lat="45.84519" lon="2.10984">
        <ele>687.9</ele>
        <time>2026-08-07T15:15:06.000Z</time>
      </trkpt>
      <trkpt lat="45.84529" lon="2.10983">
        <ele>688.9</ele>
        <time>2026-08-07T15:15:13.000Z</time>
      </trkpt>
      <trkpt lat="45.84541" lon="2.10982">
        <ele>689.4</ele>
        <time>2026-08-07T15:15:19.000Z</time>
      </trkpt>
      <trkpt lat="45.84544" lon="2.10981">
        <ele>689.6</ele>
        <time>2026-08-07T15:15:21.000Z</time>
      </trkpt>
      <trkpt lat="45.84545" lon="2.10982">
        <ele>689.6</ele>
        <time>2026-08-07T15:15:22.000Z</time>
      </trkpt>
      <trkpt lat="45.84552" lon="2.10982">
        <ele>689.8</ele>
        <time>2026-08-07T15:15:26.000Z</time>
      </trkpt>
      <trkpt lat="45.84561" lon="2.1098">
        <ele>690.4</ele>
        <time>2026-08-07T15:15:31.000Z</time>
      </trkpt>
      <trkpt lat="45.84564" lon="2.10979">
        <ele>690.7</ele>
        <time>2026-08-07T15:15:33.000Z</time>
      </trkpt>
      <trkpt lat="45.8457" lon="2.1098">
        <ele>691</ele>
        <time>2026-08-07T15:15:36.000Z</time>
      </trkpt>
      <trkpt lat="45.84578" lon="2.10977">
        <ele>691.6</ele>
        <time>2026-08-07T15:15:41.000Z</time>
      </trkpt>
      <trkpt lat="45.8458" lon="2.10978">
        <ele>691.6</ele>
        <time>2026-08-07T15:15:42.000Z</time>
      </trkpt>
      <trkpt lat="45.84592" lon="2.10969">
        <ele>692.1</ele>
        <time>2026-08-07T15:15:49.000Z</time>
      </trkpt>
      <trkpt lat="45.84599" lon="2.10964">
        <ele>692.4</ele>
        <time>2026-08-07T15:15:53.000Z</time>
      </trkpt>
      <trkpt lat="45.84606" lon="2.10959">
        <ele>692.8</ele>
        <time>2026-08-07T15:15:57.000Z</time>
      </trkpt>
      <trkpt lat="45.84613" lon="2.10951">
        <ele>693.3</ele>
        <time>2026-08-07T15:16:03.000Z</time>
      </trkpt>
      <trkpt lat="45.84617" lon="2.10945">
        <ele>694</ele>
        <time>2026-08-07T15:16:07.000Z</time>
      </trkpt>
      <trkpt lat="45.84623" lon="2.10939">
        <ele>694.8</ele>
        <time>2026-08-07T15:16:11.000Z</time>
      </trkpt>
      <trkpt lat="45.84631" lon="2.10931">
        <ele>695.3</ele>
        <time>2026-08-07T15:16:17.000Z</time>
      </trkpt>
      <trkpt lat="45.84637" lon="2.10927">
        <ele>695.4</ele>
        <time>2026-08-07T15:16:21.000Z</time>
      </trkpt>
      <trkpt lat="45.84646" lon="2.10918">
        <ele>696.2</ele>
        <time>2026-08-07T15:16:28.000Z</time>
      </trkpt>
      <trkpt lat="45.84655" lon="2.10909">
        <ele>697.6</ele>
        <time>2026-08-07T15:16:34.000Z</time>
      </trkpt>
      <trkpt lat="45.84656" lon="2.10907">
        <ele>697.8</ele>
        <time>2026-08-07T15:16:35.000Z</time>
      </trkpt>
      <trkpt lat="45.8467" lon="2.10894">
        <ele>698.5</ele>
        <time>2026-08-07T15:16:45.000Z</time>
      </trkpt>
      <trkpt lat="45.84682" lon="2.10883">
        <ele>699.1</ele>
        <time>2026-08-07T15:16:53.000Z</time>
      </trkpt>
      <trkpt lat="45.84692" lon="2.10873">
        <ele>699.4</ele>
        <time>2026-08-07T15:17:01.000Z</time>
      </trkpt>
      <trkpt lat="45.84695" lon="2.1087">
        <ele>699.3</ele>
        <time>2026-08-07T15:17:03.000Z</time>
      </trkpt>
      <trkpt lat="45.84701" lon="2.10865">
        <ele>699.5</ele>
        <time>2026-08-07T15:17:07.000Z</time>
      </trkpt>
      <trkpt lat="45.84714" lon="2.10856">
        <ele>700</ele>
        <time>2026-08-07T15:17:16.000Z</time>
      </trkpt>
      <trkpt lat="45.84723" lon="2.10849">
        <ele>700.7</ele>
        <time>2026-08-07T15:17:23.000Z</time>
      </trkpt>
      <trkpt lat="45.8473" lon="2.10844">
        <ele>701.3</ele>
        <time>2026-08-07T15:17:28.000Z</time>
      </trkpt>
      <trkpt lat="45.84732" lon="2.10842">
        <ele>701.5</ele>
        <time>2026-08-07T15:17:30.000Z</time>
      </trkpt>
      <trkpt lat="45.84734" lon="2.1084">
        <ele>701.8</ele>
        <time>2026-08-07T15:17:32.000Z</time>
      </trkpt>
      <trkpt lat="45.84741" lon="2.10834">
        <ele>702.3</ele>
        <time>2026-08-07T15:17:37.000Z</time>
      </trkpt>
      <trkpt lat="45.84742" lon="2.10833">
        <ele>702.3</ele>
        <time>2026-08-07T15:17:38.000Z</time>
      </trkpt>
      <trkpt lat="45.84744" lon="2.10832">
        <ele>702.4</ele>
        <time>2026-08-07T15:17:39.000Z</time>
      </trkpt>
      <trkpt lat="45.84748" lon="2.10827">
        <ele>703</ele>
        <time>2026-08-07T15:17:43.000Z</time>
      </trkpt>
      <trkpt lat="45.84753" lon="2.10823">
        <ele>703.2</ele>
        <time>2026-08-07T15:17:47.000Z</time>
      </trkpt>
      <trkpt lat="45.84758" lon="2.10819">
        <ele>703.3</ele>
        <time>2026-08-07T15:17:51.000Z</time>
      </trkpt>
      <trkpt lat="45.8476" lon="2.10816">
        <ele>703.5</ele>
        <time>2026-08-07T15:17:53.000Z</time>
      </trkpt>
      <trkpt lat="45.84765" lon="2.10811">
        <ele>703.6</ele>
        <time>2026-08-07T15:17:57.000Z</time>
      </trkpt>
      <trkpt lat="45.84767" lon="2.10809">
        <ele>703.7</ele>
        <time>2026-08-07T15:17:59.000Z</time>
      </trkpt>
      <trkpt lat="45.84776" lon="2.10798">
        <ele>704.5</ele>
        <time>2026-08-07T15:18:07.000Z</time>
      </trkpt>
      <trkpt lat="45.84783" lon="2.1079">
        <ele>705.1</ele>
        <time>2026-08-07T15:18:13.000Z</time>
      </trkpt>
      <trkpt lat="45.84786" lon="2.10788">
        <ele>705.2</ele>
        <time>2026-08-07T15:18:15.000Z</time>
      </trkpt>
      <trkpt lat="45.84797" lon="2.10775">
        <ele>705.6</ele>
        <time>2026-08-07T15:18:25.000Z</time>
      </trkpt>
      <trkpt lat="45.848" lon="2.1077">
        <ele>705.8</ele>
        <time>2026-08-07T15:18:28.000Z</time>
      </trkpt>
      <trkpt lat="45.84808" lon="2.10762">
        <ele>706.1</ele>
        <time>2026-08-07T15:18:34.000Z</time>
      </trkpt>
      <trkpt lat="45.84809" lon="2.10761">
        <ele>706</ele>
        <time>2026-08-07T15:18:35.000Z</time>
      </trkpt>
      <trkpt lat="45.8481" lon="2.10761">
        <ele>705.9</ele>
        <time>2026-08-07T15:18:36.000Z</time>
      </trkpt>
      <trkpt lat="45.84813" lon="2.10755">
        <ele>706.5</ele>
        <time>2026-08-07T15:18:39.000Z</time>
      </trkpt>
      <trkpt lat="45.84815" lon="2.10752">
        <ele>706.6</ele>
        <time>2026-08-07T15:18:41.000Z</time>
      </trkpt>
      <trkpt lat="45.84822" lon="2.10736">
        <ele>707.7</ele>
        <time>2026-08-07T15:18:49.000Z</time>
      </trkpt>
      <trkpt lat="45.84826" lon="2.10723">
        <ele>708.7</ele>
        <time>2026-08-07T15:18:55.000Z</time>
      </trkpt>
      <trkpt lat="45.84829" lon="2.10714">
        <ele>708.8</ele>
        <time>2026-08-07T15:18:59.000Z</time>
      </trkpt>
      <trkpt lat="45.84834" lon="2.10695">
        <ele>708.9</ele>
        <time>2026-08-07T15:19:07.000Z</time>
      </trkpt>
      <trkpt lat="45.84835" lon="2.10692">
        <ele>709</ele>
        <time>2026-08-07T15:19:08.000Z</time>
      </trkpt>
      <trkpt lat="45.8484" lon="2.10673">
        <ele>710.2</ele>
        <time>2026-08-07T15:19:16.000Z</time>
      </trkpt>
      <trkpt lat="45.84842" lon="2.10665">
        <ele>710.6</ele>
        <time>2026-08-07T15:19:20.000Z</time>
      </trkpt>
      <trkpt lat="45.84847" lon="2.10653">
        <ele>711</ele>
        <time>2026-08-07T15:19:25.000Z</time>
      </trkpt>
      <trkpt lat="45.84851" lon="2.10639">
        <ele>712</ele>
        <time>2026-08-07T15:19:32.000Z</time>
      </trkpt>
      <trkpt lat="45.84852" lon="2.10637">
        <ele>712.2</ele>
        <time>2026-08-07T15:19:33.000Z</time>
      </trkpt>
      <trkpt lat="45.84851" lon="2.10635">
        <ele>712.6</ele>
        <time>2026-08-07T15:19:35.000Z</time>
      </trkpt>
      <trkpt lat="45.84852" lon="2.10633">
        <ele>712.7</ele>
        <time>2026-08-07T15:19:37.000Z</time>
      </trkpt>
      <trkpt lat="45.84855" lon="2.10629">
        <ele>712.8</ele>
        <time>2026-08-07T15:19:40.000Z</time>
      </trkpt>
      <trkpt lat="45.84859" lon="2.10619">
        <ele>713.5</ele>
        <time>2026-08-07T15:19:45.000Z</time>
      </trkpt>
      <trkpt lat="45.8486" lon="2.10616">
        <ele>713.6</ele>
        <time>2026-08-07T15:19:47.000Z</time>
      </trkpt>
      <trkpt lat="45.84866" lon="2.10601">
        <ele>713.8</ele>
        <time>2026-08-07T15:19:55.000Z</time>
      </trkpt>
      <trkpt lat="45.84868" lon="2.10596">
        <ele>713.9</ele>
        <time>2026-08-07T15:19:58.000Z</time>
      </trkpt>
      <trkpt lat="45.84871" lon="2.10585">
        <ele>714.1</ele>
        <time>2026-08-07T15:20:04.000Z</time>
      </trkpt>
      <trkpt lat="45.84872" lon="2.10579">
        <ele>714.3</ele>
        <time>2026-08-07T15:20:07.000Z</time>
      </trkpt>
      <trkpt lat="45.84874" lon="2.10568">
        <ele>714.9</ele>
        <time>2026-08-07T15:20:12.000Z</time>
      </trkpt>
      <trkpt lat="45.84879" lon="2.10549">
        <ele>715.5</ele>
        <time>2026-08-07T15:20:21.000Z</time>
      </trkpt>
      <trkpt lat="45.84881" lon="2.10545">
        <ele>715.7</ele>
        <time>2026-08-07T15:20:23.000Z</time>
      </trkpt>
      <trkpt lat="45.84885" lon="2.10524">
        <ele>717.1</ele>
        <time>2026-08-07T15:20:32.000Z</time>
      </trkpt>
      <trkpt lat="45.84888" lon="2.10516">
        <ele>717.1</ele>
        <time>2026-08-07T15:20:36.000Z</time>
      </trkpt>
      <trkpt lat="45.8489" lon="2.10509">
        <ele>717.3</ele>
        <time>2026-08-07T15:20:39.000Z</time>
      </trkpt>
      <trkpt lat="45.84895" lon="2.10492">
        <ele>717.8</ele>
        <time>2026-08-07T15:20:47.000Z</time>
      </trkpt>
      <trkpt lat="45.84901" lon="2.10474">
        <ele>718.2</ele>
        <time>2026-08-07T15:20:55.000Z</time>
      </trkpt>
      <trkpt lat="45.84904" lon="2.10463">
        <ele>718.2</ele>
        <time>2026-08-07T15:20:59.000Z</time>
      </trkpt>
      <trkpt lat="45.84905" lon="2.10452">
        <ele>718.5</ele>
        <time>2026-08-07T15:21:03.000Z</time>
      </trkpt>
      <trkpt lat="45.84906" lon="2.10422">
        <ele>719.4</ele>
        <time>2026-08-07T15:21:14.000Z</time>
      </trkpt>
      <trkpt lat="45.84907" lon="2.10408">
        <ele>719.6</ele>
        <time>2026-08-07T15:21:20.000Z</time>
      </trkpt>
      <trkpt lat="45.84908" lon="2.10396">
        <ele>719.7</ele>
        <time>2026-08-07T15:21:24.000Z</time>
      </trkpt>
      <trkpt lat="45.84914" lon="2.1037">
        <ele>720.5</ele>
        <time>2026-08-07T15:21:33.000Z</time>
      </trkpt>
      <trkpt lat="45.84921" lon="2.10354">
        <ele>721.4</ele>
        <time>2026-08-07T15:21:40.000Z</time>
      </trkpt>
      <trkpt lat="45.84923" lon="2.10352">
        <ele>721.5</ele>
        <time>2026-08-07T15:21:41.000Z</time>
      </trkpt>
      <trkpt lat="45.84932" lon="2.10329">
        <ele>722.1</ele>
        <time>2026-08-07T15:21:50.000Z</time>
      </trkpt>
      <trkpt lat="45.84934" lon="2.10325">
        <ele>722.2</ele>
        <time>2026-08-07T15:21:52.000Z</time>
      </trkpt>
      <trkpt lat="45.84936" lon="2.10321">
        <ele>722.3</ele>
        <time>2026-08-07T15:21:54.000Z</time>
      </trkpt>
      <trkpt lat="45.84944" lon="2.10311">
        <ele>722.8</ele>
        <time>2026-08-07T15:22:00.000Z</time>
      </trkpt>
      <trkpt lat="45.84945" lon="2.10309">
        <ele>722.9</ele>
        <time>2026-08-07T15:22:01.000Z</time>
      </trkpt>
      <trkpt lat="45.84953" lon="2.10293">
        <ele>723.3</ele>
        <time>2026-08-07T15:22:08.000Z</time>
      </trkpt>
      <trkpt lat="45.84957" lon="2.10288">
        <ele>723.4</ele>
        <time>2026-08-07T15:22:11.000Z</time>
      </trkpt>
      <trkpt lat="45.84962" lon="2.10275">
        <ele>723.7</ele>
        <time>2026-08-07T15:22:16.000Z</time>
      </trkpt>
      <trkpt lat="45.84971" lon="2.10267">
        <ele>724</ele>
        <time>2026-08-07T15:22:21.000Z</time>
      </trkpt>
      <trkpt lat="45.84973" lon="2.10263">
        <ele>724</ele>
        <time>2026-08-07T15:22:23.000Z</time>
      </trkpt>
      <trkpt lat="45.84979" lon="2.10255">
        <ele>724.3</ele>
        <time>2026-08-07T15:22:29.000Z</time>
      </trkpt>
      <trkpt lat="45.84986" lon="2.10245">
        <ele>724.6</ele>
        <time>2026-08-07T15:22:35.000Z</time>
      </trkpt>
      <trkpt lat="45.84992" lon="2.10235">
        <ele>724.9</ele>
        <time>2026-08-07T15:22:40.000Z</time>
      </trkpt>
      <trkpt lat="45.84996" lon="2.10229">
        <ele>725</ele>
        <time>2026-08-07T15:22:43.000Z</time>
      </trkpt>
      <trkpt lat="45.85004" lon="2.1022">
        <ele>725.3</ele>
        <time>2026-08-07T15:22:49.000Z</time>
      </trkpt>
      <trkpt lat="45.85006" lon="2.10217">
        <ele>725.4</ele>
        <time>2026-08-07T15:22:50.000Z</time>
      </trkpt>
      <trkpt lat="45.85015" lon="2.10209">
        <ele>726.1</ele>
        <time>2026-08-07T15:22:56.000Z</time>
      </trkpt>
      <trkpt lat="45.85027" lon="2.10191">
        <ele>726.8</ele>
        <time>2026-08-07T15:23:05.000Z</time>
      </trkpt>
      <trkpt lat="45.85032" lon="2.10184">
        <ele>726.9</ele>
        <time>2026-08-07T15:23:08.000Z</time>
      </trkpt>
      <trkpt lat="45.8504" lon="2.10173">
        <ele>727.1</ele>
        <time>2026-08-07T15:23:13.000Z</time>
      </trkpt>
      <trkpt lat="45.85058" lon="2.10157">
        <ele>727.8</ele>
        <time>2026-08-07T15:23:23.000Z</time>
      </trkpt>
      <trkpt lat="45.85071" lon="2.10143">
        <ele>728.3</ele>
        <time>2026-08-07T15:23:32.000Z</time>
      </trkpt>
      <trkpt lat="45.85081" lon="2.10127">
        <ele>728.4</ele>
        <time>2026-08-07T15:23:39.000Z</time>
      </trkpt>
      <trkpt lat="45.85089" lon="2.10113">
        <ele>728.7</ele>
        <time>2026-08-07T15:23:45.000Z</time>
      </trkpt>
      <trkpt lat="45.8509" lon="2.10111">
        <ele>728.8</ele>
        <time>2026-08-07T15:23:46.000Z</time>
      </trkpt>
      <trkpt lat="45.85094" lon="2.10101">
        <ele>729.2</ele>
        <time>2026-08-07T15:23:50.000Z</time>
      </trkpt>
      <trkpt lat="45.85096" lon="2.10082">
        <ele>729.4</ele>
        <time>2026-08-07T15:23:56.000Z</time>
      </trkpt>
      <trkpt lat="45.85095" lon="2.10074">
        <ele>729.4</ele>
        <time>2026-08-07T15:23:58.000Z</time>
      </trkpt>
      <trkpt lat="45.85092" lon="2.10055">
        <ele>729.6</ele>
        <time>2026-08-07T15:24:04.000Z</time>
      </trkpt>
      <trkpt lat="45.85092" lon="2.10048">
        <ele>729.8</ele>
        <time>2026-08-07T15:24:07.000Z</time>
      </trkpt>
      <trkpt lat="45.85091" lon="2.10046">
        <ele>729.8</ele>
        <time>2026-08-07T15:24:08.000Z</time>
      </trkpt>
      <trkpt lat="45.85088" lon="2.1003">
        <ele>730.1</ele>
        <time>2026-08-07T15:24:12.000Z</time>
      </trkpt>
      <trkpt lat="45.85087" lon="2.10023">
        <ele>730.3</ele>
        <time>2026-08-07T15:24:14.000Z</time>
      </trkpt>
      <trkpt lat="45.85085" lon="2.10019">
        <ele>730.4</ele>
        <time>2026-08-07T15:24:16.000Z</time>
      </trkpt>
      <trkpt lat="45.85082" lon="2.10014">
        <ele>730.4</ele>
        <time>2026-08-07T15:24:19.000Z</time>
      </trkpt>
      <trkpt lat="45.85076" lon="2.10009">
        <ele>730.3</ele>
        <time>2026-08-07T15:24:23.000Z</time>
      </trkpt>
      <trkpt lat="45.85075" lon="2.10007">
        <ele>730.4</ele>
        <time>2026-08-07T15:24:25.000Z</time>
      </trkpt>
      <trkpt lat="45.85073" lon="2.10002">
        <ele>730.5</ele>
        <time>2026-08-07T15:24:27.000Z</time>
      </trkpt>
      <trkpt lat="45.85065" lon="2.09996">
        <ele>730.8</ele>
        <time>2026-08-07T15:24:31.000Z</time>
      </trkpt>
      <trkpt lat="45.85052" lon="2.09985">
        <ele>730.8</ele>
        <time>2026-08-07T15:24:38.000Z</time>
      </trkpt>
      <trkpt lat="45.85033" lon="2.09968">
        <ele>731.6</ele>
        <time>2026-08-07T15:24:47.000Z</time>
      </trkpt>
      <trkpt lat="45.85029" lon="2.09963">
        <ele>731.7</ele>
        <time>2026-08-07T15:24:49.000Z</time>
      </trkpt>
      <trkpt lat="45.85018" lon="2.09952">
        <ele>731.6</ele>
        <time>2026-08-07T15:24:54.000Z</time>
      </trkpt>
      <trkpt lat="45.85007" lon="2.09938">
        <ele>732.2</ele>
        <time>2026-08-07T15:25:02.000Z</time>
      </trkpt>
      <trkpt lat="45.85002" lon="2.0993">
        <ele>732.7</ele>
        <time>2026-08-07T15:25:06.000Z</time>
      </trkpt>
      <trkpt lat="45.84998" lon="2.09921">
        <ele>733.3</ele>
        <time>2026-08-07T15:25:09.000Z</time>
      </trkpt>
      <trkpt lat="45.84983" lon="2.09903">
        <ele>733.4</ele>
        <time>2026-08-07T15:25:17.000Z</time>
      </trkpt>
      <trkpt lat="45.84968" lon="2.09893">
        <ele>733.4</ele>
        <time>2026-08-07T15:25:25.000Z</time>
      </trkpt>
      <trkpt lat="45.84966" lon="2.09892">
        <ele>733.6</ele>
        <time>2026-08-07T15:25:26.000Z</time>
      </trkpt>
      <trkpt lat="45.84956" lon="2.09888">
        <ele>734.2</ele>
        <time>2026-08-07T15:25:31.000Z</time>
      </trkpt>
      <trkpt lat="45.84938" lon="2.09879">
        <ele>735</ele>
        <time>2026-08-07T15:25:39.000Z</time>
      </trkpt>
      <trkpt lat="45.84936" lon="2.09878">
        <ele>735</ele>
        <time>2026-08-07T15:25:40.000Z</time>
      </trkpt>
      <trkpt lat="45.84921" lon="2.09866">
        <ele>735.1</ele>
        <time>2026-08-07T15:25:47.000Z</time>
      </trkpt>
      <trkpt lat="45.84908" lon="2.09853">
        <ele>735</ele>
        <time>2026-08-07T15:25:53.000Z</time>
      </trkpt>
      <trkpt lat="45.84901" lon="2.09845">
        <ele>735.1</ele>
        <time>2026-08-07T15:25:56.000Z</time>
      </trkpt>
      <trkpt lat="45.84894" lon="2.09839">
        <ele>734.9</ele>
        <time>2026-08-07T15:25:59.000Z</time>
      </trkpt>
      <trkpt lat="45.84876" lon="2.09814">
        <ele>736</ele>
        <time>2026-08-07T15:26:09.000Z</time>
      </trkpt>
      <trkpt lat="45.84865" lon="2.09804">
        <ele>736.3</ele>
        <time>2026-08-07T15:26:15.000Z</time>
      </trkpt>
      <trkpt lat="45.84861" lon="2.09799">
        <ele>736.4</ele>
        <time>2026-08-07T15:26:17.000Z</time>
      </trkpt>
      <trkpt lat="45.8485" lon="2.09781">
        <ele>736.6</ele>
        <time>2026-08-07T15:26:24.000Z</time>
      </trkpt>
      <trkpt lat="45.84836" lon="2.09757">
        <ele>736.7</ele>
        <time>2026-08-07T15:26:32.000Z</time>
      </trkpt>
      <trkpt lat="45.84824" lon="2.09721">
        <ele>736</ele>
        <time>2026-08-07T15:26:42.000Z</time>
      </trkpt>
      <trkpt lat="45.84815" lon="2.0968">
        <ele>736.3</ele>
        <time>2026-08-07T15:26:51.000Z</time>
      </trkpt>
      <trkpt lat="45.84813" lon="2.09648">
        <ele>737</ele>
        <time>2026-08-07T15:26:59.000Z</time>
      </trkpt>
      <trkpt lat="45.84817" lon="2.09615">
        <ele>736.2</ele>
        <time>2026-08-07T15:27:06.000Z</time>
      </trkpt>
      <trkpt lat="45.84825" lon="2.09585">
        <ele>734.1</ele>
        <time>2026-08-07T15:27:11.000Z</time>
      </trkpt>
      <trkpt lat="45.8483" lon="2.09573">
        <ele>733.7</ele>
        <time>2026-08-07T15:27:13.000Z</time>
      </trkpt>
      <trkpt lat="45.84848" lon="2.09543">
        <ele>732.3</ele>
        <time>2026-08-07T15:27:18.000Z</time>
      </trkpt>
      <trkpt lat="45.84854" lon="2.09531">
        <ele>731.5</ele>
        <time>2026-08-07T15:27:20.000Z</time>
      </trkpt>
      <trkpt lat="45.84865" lon="2.09515">
        <ele>730.8</ele>
        <time>2026-08-07T15:27:23.000Z</time>
      </trkpt>
      <trkpt lat="45.84879" lon="2.09491">
        <ele>729.9</ele>
        <time>2026-08-07T15:27:27.000Z</time>
      </trkpt>
      <trkpt lat="45.84882" lon="2.09486">
        <ele>729.5</ele>
        <time>2026-08-07T15:27:28.000Z</time>
      </trkpt>
      <trkpt lat="45.84895" lon="2.09465">
        <ele>728.7</ele>
        <time>2026-08-07T15:27:32.000Z</time>
      </trkpt>
      <trkpt lat="45.84898" lon="2.09461">
        <ele>728.9</ele>
        <time>2026-08-07T15:27:33.000Z</time>
      </trkpt>
      <trkpt lat="45.84901" lon="2.09457">
        <ele>729</ele>
        <time>2026-08-07T15:27:34.000Z</time>
      </trkpt>
      <trkpt lat="45.84908" lon="2.09446">
        <ele>728.9</ele>
        <time>2026-08-07T15:27:36.000Z</time>
      </trkpt>
      <trkpt lat="45.84916" lon="2.09433">
        <ele>727.9</ele>
        <time>2026-08-07T15:27:38.000Z</time>
      </trkpt>
      <trkpt lat="45.8492" lon="2.09427">
        <ele>727.4</ele>
        <time>2026-08-07T15:27:39.000Z</time>
      </trkpt>
      <trkpt lat="45.84938" lon="2.09398">
        <ele>725.4</ele>
        <time>2026-08-07T15:27:43.000Z</time>
      </trkpt>
      <trkpt lat="45.84942" lon="2.09391">
        <ele>724.4</ele>
        <time>2026-08-07T15:27:44.000Z</time>
      </trkpt>
      <trkpt lat="45.84951" lon="2.09379">
        <ele>723.5</ele>
        <time>2026-08-07T15:27:46.000Z</time>
      </trkpt>
      <trkpt lat="45.84958" lon="2.0937">
        <ele>723.5</ele>
        <time>2026-08-07T15:27:48.000Z</time>
      </trkpt>
      <trkpt lat="45.84962" lon="2.09365">
        <ele>723.5</ele>
        <time>2026-08-07T15:27:49.000Z</time>
      </trkpt>
      <trkpt lat="45.84971" lon="2.09349">
        <ele>722.9</ele>
        <time>2026-08-07T15:27:52.000Z</time>
      </trkpt>
      <trkpt lat="45.84973" lon="2.09342">
        <ele>722.4</ele>
        <time>2026-08-07T15:27:53.000Z</time>
      </trkpt>
      <trkpt lat="45.84983" lon="2.09308">
        <ele>720.2</ele>
        <time>2026-08-07T15:27:58.000Z</time>
      </trkpt>
      <trkpt lat="45.84991" lon="2.09286">
        <ele>719.1</ele>
        <time>2026-08-07T15:28:01.000Z</time>
      </trkpt>
      <trkpt lat="45.84997" lon="2.09274">
        <ele>719</ele>
        <time>2026-08-07T15:28:03.000Z</time>
      </trkpt>
      <trkpt lat="45.85003" lon="2.09263">
        <ele>718.8</ele>
        <time>2026-08-07T15:28:05.000Z</time>
      </trkpt>
      <trkpt lat="45.85013" lon="2.09242">
        <ele>717.8</ele>
        <time>2026-08-07T15:28:08.000Z</time>
      </trkpt>
      <trkpt lat="45.85017" lon="2.09234">
        <ele>717.3</ele>
        <time>2026-08-07T15:28:09.000Z</time>
      </trkpt>
      <trkpt lat="45.85023" lon="2.0922">
        <ele>716.2</ele>
        <time>2026-08-07T15:28:11.000Z</time>
      </trkpt>
      <trkpt lat="45.85026" lon="2.09213">
        <ele>715.9</ele>
        <time>2026-08-07T15:28:12.000Z</time>
      </trkpt>
      <trkpt lat="45.85037" lon="2.0919">
        <ele>714.5</ele>
        <time>2026-08-07T15:28:16.000Z</time>
      </trkpt>
      <trkpt lat="45.85041" lon="2.09185">
        <ele>714.4</ele>
        <time>2026-08-07T15:28:17.000Z</time>
      </trkpt>
      <trkpt lat="45.85046" lon="2.09181">
        <ele>714.5</ele>
        <time>2026-08-07T15:28:18.000Z</time>
      </trkpt>
      <trkpt lat="45.85053" lon="2.09172">
        <ele>714.3</ele>
        <time>2026-08-07T15:28:20.000Z</time>
      </trkpt>
      <trkpt lat="45.85059" lon="2.0916">
        <ele>713.4</ele>
        <time>2026-08-07T15:28:22.000Z</time>
      </trkpt>
      <trkpt lat="45.85073" lon="2.09137">
        <ele>710.8</ele>
        <time>2026-08-07T15:28:26.000Z</time>
      </trkpt>
      <trkpt lat="45.85078" lon="2.09133">
        <ele>710.2</ele>
        <time>2026-08-07T15:28:27.000Z</time>
      </trkpt>
      <trkpt lat="45.85084" lon="2.09132">
        <ele>710</ele>
        <time>2026-08-07T15:28:28.000Z</time>
      </trkpt>
      <trkpt lat="45.85091" lon="2.09131">
        <ele>709.9</ele>
        <time>2026-08-07T15:28:29.000Z</time>
      </trkpt>
      <trkpt lat="45.85102" lon="2.09128">
        <ele>709.4</ele>
        <time>2026-08-07T15:28:31.000Z</time>
      </trkpt>
      <trkpt lat="45.85108" lon="2.09129">
        <ele>709.5</ele>
        <time>2026-08-07T15:28:32.000Z</time>
      </trkpt>
      <trkpt lat="45.85116" lon="2.09128">
        <ele>709.1</ele>
        <time>2026-08-07T15:28:34.000Z</time>
      </trkpt>
      <trkpt lat="45.85128" lon="2.09129">
        <ele>708.3</ele>
        <time>2026-08-07T15:28:37.000Z</time>
      </trkpt>
      <trkpt lat="45.85133" lon="2.09129">
        <ele>707.9</ele>
        <time>2026-08-07T15:28:38.000Z</time>
      </trkpt>
      <trkpt lat="45.85151" lon="2.09126">
        <ele>707.3</ele>
        <time>2026-08-07T15:28:42.000Z</time>
      </trkpt>
      <trkpt lat="45.85164" lon="2.09118">
        <ele>706.7</ele>
        <time>2026-08-07T15:28:45.000Z</time>
      </trkpt>
      <trkpt lat="45.85169" lon="2.09115">
        <ele>706.6</ele>
        <time>2026-08-07T15:28:46.000Z</time>
      </trkpt>
      <trkpt lat="45.85177" lon="2.09109">
        <ele>706.4</ele>
        <time>2026-08-07T15:28:48.000Z</time>
      </trkpt>
      <trkpt lat="45.85185" lon="2.09101">
        <ele>706</ele>
        <time>2026-08-07T15:28:50.000Z</time>
      </trkpt>
      <trkpt lat="45.85206" lon="2.09078">
        <ele>704.4</ele>
        <time>2026-08-07T15:28:55.000Z</time>
      </trkpt>
      <trkpt lat="45.85221" lon="2.09058">
        <ele>702.4</ele>
        <time>2026-08-07T15:28:59.000Z</time>
      </trkpt>
      <trkpt lat="45.85232" lon="2.09042">
        <ele>701.5</ele>
        <time>2026-08-07T15:29:02.000Z</time>
      </trkpt>
      <trkpt lat="45.85236" lon="2.09037">
        <ele>701.4</ele>
        <time>2026-08-07T15:29:03.000Z</time>
      </trkpt>
      <trkpt lat="45.85252" lon="2.09017">
        <ele>700.6</ele>
        <time>2026-08-07T15:29:07.000Z</time>
      </trkpt>
      <trkpt lat="45.85259" lon="2.09009">
        <ele>699.9</ele>
        <time>2026-08-07T15:29:09.000Z</time>
      </trkpt>
      <trkpt lat="45.85264" lon="2.09005">
        <ele>699.8</ele>
        <time>2026-08-07T15:29:10.000Z</time>
      </trkpt>
      <trkpt lat="45.85292" lon="2.08984">
        <ele>698.5</ele>
        <time>2026-08-07T15:29:15.000Z</time>
      </trkpt>
      <trkpt lat="45.85315" lon="2.08965">
        <ele>697.1</ele>
        <time>2026-08-07T15:29:19.000Z</time>
      </trkpt>
      <trkpt lat="45.85334" lon="2.08952">
        <ele>695.6</ele>
        <time>2026-08-07T15:29:22.000Z</time>
      </trkpt>
      <trkpt lat="45.85341" lon="2.08949">
        <ele>695</ele>
        <time>2026-08-07T15:29:23.000Z</time>
      </trkpt>
      <trkpt lat="45.85348" lon="2.08947">
        <ele>694.6</ele>
        <time>2026-08-07T15:29:24.000Z</time>
      </trkpt>
      <trkpt lat="45.85363" lon="2.08946">
        <ele>694.3</ele>
        <time>2026-08-07T15:29:26.000Z</time>
      </trkpt>
      <trkpt lat="45.8537" lon="2.08947">
        <ele>693.8</ele>
        <time>2026-08-07T15:29:27.000Z</time>
      </trkpt>
      <trkpt lat="45.85391" lon="2.08947">
        <ele>692.3</ele>
        <time>2026-08-07T15:29:30.000Z</time>
      </trkpt>
      <trkpt lat="45.85414" lon="2.08947">
        <ele>690.8</ele>
        <time>2026-08-07T15:29:33.000Z</time>
      </trkpt>
      <trkpt lat="45.85422" lon="2.08947">
        <ele>690.3</ele>
        <time>2026-08-07T15:29:34.000Z</time>
      </trkpt>
      <trkpt lat="45.85444" lon="2.08947">
        <ele>688.6</ele>
        <time>2026-08-07T15:29:37.000Z</time>
      </trkpt>
      <trkpt lat="45.85467" lon="2.08945">
        <ele>687.2</ele>
        <time>2026-08-07T15:29:40.000Z</time>
      </trkpt>
      <trkpt lat="45.85475" lon="2.08942">
        <ele>686.8</ele>
        <time>2026-08-07T15:29:41.000Z</time>
      </trkpt>
      <trkpt lat="45.85482" lon="2.08938">
        <ele>686.7</ele>
        <time>2026-08-07T15:29:42.000Z</time>
      </trkpt>
      <trkpt lat="45.8549" lon="2.08933">
        <ele>686.4</ele>
        <time>2026-08-07T15:29:43.000Z</time>
      </trkpt>
      <trkpt lat="45.85497" lon="2.08927">
        <ele>686</ele>
        <time>2026-08-07T15:29:44.000Z</time>
      </trkpt>
      <trkpt lat="45.85504" lon="2.0892">
        <ele>685.6</ele>
        <time>2026-08-07T15:29:45.000Z</time>
      </trkpt>
      <trkpt lat="45.8551" lon="2.08912">
        <ele>685.2</ele>
        <time>2026-08-07T15:29:46.000Z</time>
      </trkpt>
      <trkpt lat="45.85527" lon="2.08884">
        <ele>683.5</ele>
        <time>2026-08-07T15:29:49.000Z</time>
      </trkpt>
      <trkpt lat="45.85543" lon="2.08855">
        <ele>682.1</ele>
        <time>2026-08-07T15:29:52.000Z</time>
      </trkpt>
      <trkpt lat="45.85559" lon="2.08825">
        <ele>680.9</ele>
        <time>2026-08-07T15:29:55.000Z</time>
      </trkpt>
      <trkpt lat="45.85575" lon="2.08797">
        <ele>679.9</ele>
        <time>2026-08-07T15:29:58.000Z</time>
      </trkpt>
      <trkpt lat="45.85596" lon="2.08759">
        <ele>677.4</ele>
        <time>2026-08-07T15:30:02.000Z</time>
      </trkpt>
      <trkpt lat="45.85613" lon="2.08732">
        <ele>676.1</ele>
        <time>2026-08-07T15:30:05.000Z</time>
      </trkpt>
      <trkpt lat="45.85622" lon="2.08713">
        <ele>674.9</ele>
        <time>2026-08-07T15:30:07.000Z</time>
      </trkpt>
      <trkpt lat="45.85627" lon="2.08695">
        <ele>674</ele>
        <time>2026-08-07T15:30:09.000Z</time>
      </trkpt>
      <trkpt lat="45.85631" lon="2.08668">
        <ele>672.8</ele>
        <time>2026-08-07T15:30:12.000Z</time>
      </trkpt>
      <trkpt lat="45.85632" lon="2.0865">
        <ele>672.3</ele>
        <time>2026-08-07T15:30:14.000Z</time>
      </trkpt>
      <trkpt lat="45.85628" lon="2.08633">
        <ele>671.7</ele>
        <time>2026-08-07T15:30:16.000Z</time>
      </trkpt>
      <trkpt lat="45.85621" lon="2.08617">
        <ele>670.9</ele>
        <time>2026-08-07T15:30:18.000Z</time>
      </trkpt>
      <trkpt lat="45.85608" lon="2.08594">
        <ele>670.4</ele>
        <time>2026-08-07T15:30:21.000Z</time>
      </trkpt>
      <trkpt lat="45.85604" lon="2.08585">
        <ele>670.1</ele>
        <time>2026-08-07T15:30:22.000Z</time>
      </trkpt>
      <trkpt lat="45.85596" lon="2.08565">
        <ele>669.4</ele>
        <time>2026-08-07T15:30:24.000Z</time>
      </trkpt>
      <trkpt lat="45.85593" lon="2.08555">
        <ele>669</ele>
        <time>2026-08-07T15:30:25.000Z</time>
      </trkpt>
      <trkpt lat="45.85586" lon="2.08523">
        <ele>668.9</ele>
        <time>2026-08-07T15:30:28.000Z</time>
      </trkpt>
      <trkpt lat="45.85584" lon="2.08504">
        <ele>669</ele>
        <time>2026-08-07T15:30:30.000Z</time>
      </trkpt>
      <trkpt lat="45.85583" lon="2.0849">
        <ele>669</ele>
        <time>2026-08-07T15:30:32.000Z</time>
      </trkpt>
      <trkpt lat="45.85583" lon="2.08476">
        <ele>669</ele>
        <time>2026-08-07T15:30:34.000Z</time>
      </trkpt>
      <trkpt lat="45.85581" lon="2.08455">
        <ele>668.9</ele>
        <time>2026-08-07T15:30:37.000Z</time>
      </trkpt>
      <trkpt lat="45.85581" lon="2.08449">
        <ele>668.9</ele>
        <time>2026-08-07T15:30:38.000Z</time>
      </trkpt>
      <trkpt lat="45.85577" lon="2.0843">
        <ele>668.4</ele>
        <time>2026-08-07T15:30:41.000Z</time>
      </trkpt>
      <trkpt lat="45.85576" lon="2.08424">
        <ele>668.2</ele>
        <time>2026-08-07T15:30:42.000Z</time>
      </trkpt>
      <trkpt lat="45.85573" lon="2.08404">
        <ele>667.4</ele>
        <time>2026-08-07T15:30:45.000Z</time>
      </trkpt>
      <trkpt lat="45.85572" lon="2.08388">
        <ele>666.6</ele>
        <time>2026-08-07T15:30:47.000Z</time>
      </trkpt>
      <trkpt lat="45.85572" lon="2.0838">
        <ele>666.3</ele>
        <time>2026-08-07T15:30:48.000Z</time>
      </trkpt>
      <trkpt lat="45.85575" lon="2.08364">
        <ele>665.8</ele>
        <time>2026-08-07T15:30:50.000Z</time>
      </trkpt>
      <trkpt lat="45.8558" lon="2.08333">
        <ele>664</ele>
        <time>2026-08-07T15:30:53.000Z</time>
      </trkpt>
      <trkpt lat="45.85582" lon="2.08322">
        <ele>663.6</ele>
        <time>2026-08-07T15:30:54.000Z</time>
      </trkpt>
      <trkpt lat="45.85583" lon="2.08311">
        <ele>663.2</ele>
        <time>2026-08-07T15:30:55.000Z</time>
      </trkpt>
      <trkpt lat="45.85582" lon="2.0829">
        <ele>663</ele>
        <time>2026-08-07T15:30:57.000Z</time>
      </trkpt>
      <trkpt lat="45.85582" lon="2.08272">
        <ele>662.7</ele>
        <time>2026-08-07T15:30:59.000Z</time>
      </trkpt>
      <trkpt lat="45.85582" lon="2.08257">
        <ele>662.2</ele>
        <time>2026-08-07T15:31:01.000Z</time>
      </trkpt>
      <trkpt lat="45.85582" lon="2.08246">
        <ele>661.9</ele>
        <time>2026-08-07T15:31:03.000Z</time>
      </trkpt>
      <trkpt lat="45.85582" lon="2.0824">
        <ele>661.9</ele>
        <time>2026-08-07T15:31:05.000Z</time>
      </trkpt>
      <trkpt lat="45.85581" lon="2.08238">
        <ele>661.9</ele>
        <time>2026-08-07T15:31:07.000Z</time>
      </trkpt>
      <trkpt lat="45.85581" lon="2.08238">
        <ele>661.9</ele>
        <time>2026-08-07T15:31:08.000Z</time>
      </trkpt>
      <trkpt lat="45.85578" lon="2.08224">
        <ele>661.6</ele>
        <time>2026-08-07T15:31:49.000Z</time>
      </trkpt>
      <trkpt lat="45.85571" lon="2.08193">
        <ele>659.5</ele>
        <time>2026-08-07T15:31:55.000Z</time>
      </trkpt>
      <trkpt lat="45.85563" lon="2.08159">
        <ele>658</ele>
        <time>2026-08-07T15:32:00.000Z</time>
      </trkpt>
      <trkpt lat="45.85561" lon="2.08151">
        <ele>657.6</ele>
        <time>2026-08-07T15:32:01.000Z</time>
      </trkpt>
      <trkpt lat="45.85558" lon="2.08135">
        <ele>656.9</ele>
        <time>2026-08-07T15:32:03.000Z</time>
      </trkpt>
      <trkpt lat="45.85556" lon="2.08108">
        <ele>655.8</ele>
        <time>2026-08-07T15:32:06.000Z</time>
      </trkpt>
      <trkpt lat="45.85556" lon="2.08089">
        <ele>654.4</ele>
        <time>2026-08-07T15:32:08.000Z</time>
      </trkpt>
      <trkpt lat="45.85556" lon="2.08079">
        <ele>653.8</ele>
        <time>2026-08-07T15:32:09.000Z</time>
      </trkpt>
      <trkpt lat="45.85555" lon="2.0806">
        <ele>653.2</ele>
        <time>2026-08-07T15:32:11.000Z</time>
      </trkpt>
      <trkpt lat="45.85553" lon="2.08031">
        <ele>652</ele>
        <time>2026-08-07T15:32:14.000Z</time>
      </trkpt>
      <trkpt lat="45.85551" lon="2.08021">
        <ele>651.4</ele>
        <time>2026-08-07T15:32:15.000Z</time>
      </trkpt>
      <trkpt lat="45.85549" lon="2.08012">
        <ele>650.8</ele>
        <time>2026-08-07T15:32:16.000Z</time>
      </trkpt>
      <trkpt lat="45.85546" lon="2.08004">
        <ele>650.2</ele>
        <time>2026-08-07T15:32:17.000Z</time>
      </trkpt>
      <trkpt lat="45.85543" lon="2.07996">
        <ele>649.8</ele>
        <time>2026-08-07T15:32:18.000Z</time>
      </trkpt>
      <trkpt lat="45.85539" lon="2.07989">
        <ele>649.6</ele>
        <time>2026-08-07T15:32:19.000Z</time>
      </trkpt>
      <trkpt lat="45.85534" lon="2.07982">
        <ele>649.4</ele>
        <time>2026-08-07T15:32:20.000Z</time>
      </trkpt>
      <trkpt lat="45.85528" lon="2.07976">
        <ele>649.1</ele>
        <time>2026-08-07T15:32:21.000Z</time>
      </trkpt>
      <trkpt lat="45.85522" lon="2.07972">
        <ele>648.8</ele>
        <time>2026-08-07T15:32:22.000Z</time>
      </trkpt>
      <trkpt lat="45.85508" lon="2.07965">
        <ele>648.1</ele>
        <time>2026-08-07T15:32:24.000Z</time>
      </trkpt>
      <trkpt lat="45.85493" lon="2.07961">
        <ele>647.6</ele>
        <time>2026-08-07T15:32:26.000Z</time>
      </trkpt>
      <trkpt lat="45.85468" lon="2.07956">
        <ele>647.2</ele>
        <time>2026-08-07T15:32:29.000Z</time>
      </trkpt>
      <trkpt lat="45.8546" lon="2.07955">
        <ele>646.5</ele>
        <time>2026-08-07T15:32:30.000Z</time>
      </trkpt>
      <trkpt lat="45.85434" lon="2.07949">
        <ele>645</ele>
        <time>2026-08-07T15:32:33.000Z</time>
      </trkpt>
      <trkpt lat="45.85411" lon="2.07944">
        <ele>644.6</ele>
        <time>2026-08-07T15:32:36.000Z</time>
      </trkpt>
      <trkpt lat="45.85403" lon="2.07942">
        <ele>644</ele>
        <time>2026-08-07T15:32:37.000Z</time>
      </trkpt>
      <trkpt lat="45.85362" lon="2.07932">
        <ele>642.5</ele>
        <time>2026-08-07T15:32:42.000Z</time>
      </trkpt>
      <trkpt lat="45.85345" lon="2.07928">
        <ele>642</ele>
        <time>2026-08-07T15:32:44.000Z</time>
      </trkpt>
      <trkpt lat="45.85328" lon="2.07922">
        <ele>641.6</ele>
        <time>2026-08-07T15:32:46.000Z</time>
      </trkpt>
      <trkpt lat="45.85312" lon="2.07913">
        <ele>641.3</ele>
        <time>2026-08-07T15:32:48.000Z</time>
      </trkpt>
      <trkpt lat="45.85304" lon="2.07907">
        <ele>641.2</ele>
        <time>2026-08-07T15:32:49.000Z</time>
      </trkpt>
      <trkpt lat="45.85297" lon="2.07899">
        <ele>640.8</ele>
        <time>2026-08-07T15:32:50.000Z</time>
      </trkpt>
      <trkpt lat="45.85285" lon="2.07882">
        <ele>639.8</ele>
        <time>2026-08-07T15:32:52.000Z</time>
      </trkpt>
      <trkpt lat="45.85279" lon="2.07871">
        <ele>639.2</ele>
        <time>2026-08-07T15:32:53.000Z</time>
      </trkpt>
      <trkpt lat="45.85274" lon="2.0786">
        <ele>638.9</ele>
        <time>2026-08-07T15:32:54.000Z</time>
      </trkpt>
      <trkpt lat="45.85265" lon="2.07838">
        <ele>638.2</ele>
        <time>2026-08-07T15:32:56.000Z</time>
      </trkpt>
      <trkpt lat="45.85257" lon="2.07814">
        <ele>636.8</ele>
        <time>2026-08-07T15:32:58.000Z</time>
      </trkpt>
      <trkpt lat="45.85244" lon="2.07777">
        <ele>636.4</ele>
        <time>2026-08-07T15:33:01.000Z</time>
      </trkpt>
      <trkpt lat="45.85233" lon="2.07744">
        <ele>636.1</ele>
        <time>2026-08-07T15:33:04.000Z</time>
      </trkpt>
      <trkpt lat="45.85228" lon="2.07734">
        <ele>634.9</ele>
        <time>2026-08-07T15:33:05.000Z</time>
      </trkpt>
      <trkpt lat="45.85218" lon="2.07715">
        <ele>632.8</ele>
        <time>2026-08-07T15:33:07.000Z</time>
      </trkpt>
      <trkpt lat="45.85212" lon="2.07707">
        <ele>632.3</ele>
        <time>2026-08-07T15:33:08.000Z</time>
      </trkpt>
      <trkpt lat="45.85201" lon="2.0769">
        <ele>630.5</ele>
        <time>2026-08-07T15:33:10.000Z</time>
      </trkpt>
      <trkpt lat="45.85192" lon="2.07671">
        <ele>629.5</ele>
        <time>2026-08-07T15:33:12.000Z</time>
      </trkpt>
      <trkpt lat="45.8519" lon="2.07661">
        <ele>629.2</ele>
        <time>2026-08-07T15:33:13.000Z</time>
      </trkpt>
      <trkpt lat="45.8519" lon="2.07651">
        <ele>628.9</ele>
        <time>2026-08-07T15:33:14.000Z</time>
      </trkpt>
      <trkpt lat="45.8519" lon="2.07641">
        <ele>628.5</ele>
        <time>2026-08-07T15:33:15.000Z</time>
      </trkpt>
      <trkpt lat="45.85193" lon="2.0763">
        <ele>628.5</ele>
        <time>2026-08-07T15:33:16.000Z</time>
      </trkpt>
      <trkpt lat="45.85201" lon="2.07612">
        <ele>627.9</ele>
        <time>2026-08-07T15:33:18.000Z</time>
      </trkpt>
      <trkpt lat="45.85204" lon="2.07603">
        <ele>627.3</ele>
        <time>2026-08-07T15:33:19.000Z</time>
      </trkpt>
      <trkpt lat="45.8521" lon="2.07584">
        <ele>626.1</ele>
        <time>2026-08-07T15:33:21.000Z</time>
      </trkpt>
      <trkpt lat="45.85212" lon="2.07575">
        <ele>625.5</ele>
        <time>2026-08-07T15:33:22.000Z</time>
      </trkpt>
      <trkpt lat="45.85213" lon="2.07565">
        <ele>625.3</ele>
        <time>2026-08-07T15:33:23.000Z</time>
      </trkpt>
      <trkpt lat="45.85216" lon="2.07546">
        <ele>624.4</ele>
        <time>2026-08-07T15:33:25.000Z</time>
      </trkpt>
      <trkpt lat="45.85219" lon="2.07537">
        <ele>623.8</ele>
        <time>2026-08-07T15:33:26.000Z</time>
      </trkpt>
      <trkpt lat="45.85226" lon="2.07523">
        <ele>622.4</ele>
        <time>2026-08-07T15:33:28.000Z</time>
      </trkpt>
      <trkpt lat="45.85232" lon="2.07519">
        <ele>621.8</ele>
        <time>2026-08-07T15:33:29.000Z</time>
      </trkpt>
      <trkpt lat="45.8524" lon="2.07519">
        <ele>621.3</ele>
        <time>2026-08-07T15:33:30.000Z</time>
      </trkpt>
      <trkpt lat="45.85247" lon="2.0752">
        <ele>620.9</ele>
        <time>2026-08-07T15:33:31.000Z</time>
      </trkpt>
      <trkpt lat="45.85253" lon="2.0752">
        <ele>620.6</ele>
        <time>2026-08-07T15:33:32.000Z</time>
      </trkpt>
      <trkpt lat="45.85263" lon="2.07518">
        <ele>620.2</ele>
        <time>2026-08-07T15:33:34.000Z</time>
      </trkpt>
      <trkpt lat="45.85268" lon="2.07514">
        <ele>619.8</ele>
        <time>2026-08-07T15:33:35.000Z</time>
      </trkpt>
      <trkpt lat="45.85273" lon="2.07508">
        <ele>619.4</ele>
        <time>2026-08-07T15:33:36.000Z</time>
      </trkpt>
      <trkpt lat="45.85278" lon="2.075">
        <ele>619</ele>
        <time>2026-08-07T15:33:37.000Z</time>
      </trkpt>
      <trkpt lat="45.85282" lon="2.07491">
        <ele>618</ele>
        <time>2026-08-07T15:33:38.000Z</time>
      </trkpt>
      <trkpt lat="45.85285" lon="2.07482">
        <ele>617.2</ele>
        <time>2026-08-07T15:33:39.000Z</time>
      </trkpt>
      <trkpt lat="45.85288" lon="2.07472">
        <ele>616.7</ele>
        <time>2026-08-07T15:33:40.000Z</time>
      </trkpt>
      <trkpt lat="45.85294" lon="2.07454">
        <ele>618.1</ele>
        <time>2026-08-07T15:33:42.000Z</time>
      </trkpt>
      <trkpt lat="45.85303" lon="2.07441">
        <ele>618.4</ele>
        <time>2026-08-07T15:33:44.000Z</time>
      </trkpt>
      <trkpt lat="45.85313" lon="2.07437">
        <ele>619.3</ele>
        <time>2026-08-07T15:33:46.000Z</time>
      </trkpt>
      <trkpt lat="45.85317" lon="2.07436">
        <ele>619.7</ele>
        <time>2026-08-07T15:33:47.000Z</time>
      </trkpt>
      <trkpt lat="45.85329" lon="2.07443">
        <ele>620.6</ele>
        <time>2026-08-07T15:33:51.000Z</time>
      </trkpt>
      <trkpt lat="45.85342" lon="2.07447">
        <ele>621.2</ele>
        <time>2026-08-07T15:33:58.000Z</time>
      </trkpt>
      <trkpt lat="45.85346" lon="2.07448">
        <ele>621.2</ele>
        <time>2026-08-07T15:34:00.000Z</time>
      </trkpt>
      <trkpt lat="45.85353" lon="2.07447">
        <ele>621.9</ele>
        <time>2026-08-07T15:34:04.000Z</time>
      </trkpt>
      <trkpt lat="45.85367" lon="2.07439">
        <ele>621.5</ele>
        <time>2026-08-07T15:34:12.000Z</time>
      </trkpt>
      <trkpt lat="45.85374" lon="2.07431">
        <ele>620.3</ele>
        <time>2026-08-07T15:34:16.000Z</time>
      </trkpt>
      <trkpt lat="45.85377" lon="2.07424">
        <ele>620.1</ele>
        <time>2026-08-07T15:34:19.000Z</time>
      </trkpt>
      <trkpt lat="45.85379" lon="2.07411">
        <ele>621.1</ele>
        <time>2026-08-07T15:34:24.000Z</time>
      </trkpt>
      <trkpt lat="45.85383" lon="2.07397">
        <ele>622.4</ele>
        <time>2026-08-07T15:34:29.000Z</time>
      </trkpt>
      <trkpt lat="45.85385" lon="2.07387">
        <ele>623.6</ele>
        <time>2026-08-07T15:34:33.000Z</time>
      </trkpt>
      <trkpt lat="45.85386" lon="2.07376">
        <ele>624.8</ele>
        <time>2026-08-07T15:34:37.000Z</time>
      </trkpt>
      <trkpt lat="45.85387" lon="2.07365">
        <ele>625.9</ele>
        <time>2026-08-07T15:34:41.000Z</time>
      </trkpt>
      <trkpt lat="45.85389" lon="2.07345">
        <ele>626.6</ele>
        <time>2026-08-07T15:34:49.000Z</time>
      </trkpt>
      <trkpt lat="45.85387" lon="2.07327">
        <ele>627.2</ele>
        <time>2026-08-07T15:34:57.000Z</time>
      </trkpt>
      <trkpt lat="45.85378" lon="2.07304">
        <ele>627.9</ele>
        <time>2026-08-07T15:35:07.000Z</time>
      </trkpt>
      <trkpt lat="45.8537" lon="2.0729">
        <ele>628</ele>
        <time>2026-08-07T15:35:14.000Z</time>
      </trkpt>
      <trkpt lat="45.85355" lon="2.07277">
        <ele>629.8</ele>
        <time>2026-08-07T15:35:22.000Z</time>
      </trkpt>
      <trkpt lat="45.85351" lon="2.07276">
        <ele>630.2</ele>
        <time>2026-08-07T15:35:25.000Z</time>
      </trkpt>
      <trkpt lat="45.85339" lon="2.07269">
        <ele>631.5</ele>
        <time>2026-08-07T15:35:33.000Z</time>
      </trkpt>
      <trkpt lat="45.8533" lon="2.07268">
        <ele>632.4</ele>
        <time>2026-08-07T15:35:38.000Z</time>
      </trkpt>
      <trkpt lat="45.85325" lon="2.07268">
        <ele>632.6</ele>
        <time>2026-08-07T15:35:40.000Z</time>
      </trkpt>
      <trkpt lat="45.8531" lon="2.07265">
        <ele>633.2</ele>
        <time>2026-08-07T15:35:48.000Z</time>
      </trkpt>
      <trkpt lat="45.85297" lon="2.07251">
        <ele>633.3</ele>
        <time>2026-08-07T15:35:58.000Z</time>
      </trkpt>
      <trkpt lat="45.85291" lon="2.07235">
        <ele>633.5</ele>
        <time>2026-08-07T15:36:05.000Z</time>
      </trkpt>
      <trkpt lat="45.8529" lon="2.07227">
        <ele>633.7</ele>
        <time>2026-08-07T15:36:08.000Z</time>
      </trkpt>
      <trkpt lat="45.85288" lon="2.07217">
        <ele>634</ele>
        <time>2026-08-07T15:36:12.000Z</time>
      </trkpt>
      <trkpt lat="45.85284" lon="2.07204">
        <ele>634.6</ele>
        <time>2026-08-07T15:36:18.000Z</time>
      </trkpt>
      <trkpt lat="45.85284" lon="2.07202">
        <ele>634.7</ele>
        <time>2026-08-07T15:36:19.000Z</time>
      </trkpt>
      <trkpt lat="45.85276" lon="2.07184">
        <ele>636</ele>
        <time>2026-08-07T15:36:27.000Z</time>
      </trkpt>
      <trkpt lat="45.85273" lon="2.07176">
        <ele>636.5</ele>
        <time>2026-08-07T15:36:31.000Z</time>
      </trkpt>
      <trkpt lat="45.85269" lon="2.07169">
        <ele>637.1</ele>
        <time>2026-08-07T15:36:35.000Z</time>
      </trkpt>
      <trkpt lat="45.85257" lon="2.07154">
        <ele>637.7</ele>
        <time>2026-08-07T15:36:44.000Z</time>
      </trkpt>
      <trkpt lat="45.85256" lon="2.07153">
        <ele>637.8</ele>
        <time>2026-08-07T15:36:45.000Z</time>
      </trkpt>
      <trkpt lat="45.85244" lon="2.07147">
        <ele>638.5</ele>
        <time>2026-08-07T15:36:52.000Z</time>
      </trkpt>
      <trkpt lat="45.85242" lon="2.07147">
        <ele>638.7</ele>
        <time>2026-08-07T15:36:53.000Z</time>
      </trkpt>
      <trkpt lat="45.8524" lon="2.07147">
        <ele>638.8</ele>
        <time>2026-08-07T15:36:54.000Z</time>
      </trkpt>
      <trkpt lat="45.8523" lon="2.07147">
        <ele>639.3</ele>
        <time>2026-08-07T15:37:00.000Z</time>
      </trkpt>
      <trkpt lat="45.85227" lon="2.07147">
        <ele>639.6</ele>
        <time>2026-08-07T15:37:02.000Z</time>
      </trkpt>
      <trkpt lat="45.85219" lon="2.07148">
        <ele>639.9</ele>
        <time>2026-08-07T15:37:07.000Z</time>
      </trkpt>
      <trkpt lat="45.85214" lon="2.07148">
        <ele>640.1</ele>
        <time>2026-08-07T15:37:10.000Z</time>
      </trkpt>
      <trkpt lat="45.85208" lon="2.07145">
        <ele>640.7</ele>
        <time>2026-08-07T15:37:14.000Z</time>
      </trkpt>
      <trkpt lat="45.85205" lon="2.07144">
        <ele>641.1</ele>
        <time>2026-08-07T15:37:16.000Z</time>
      </trkpt>
      <trkpt lat="45.85197" lon="2.07137">
        <ele>642.1</ele>
        <time>2026-08-07T15:37:21.000Z</time>
      </trkpt>
      <trkpt lat="45.8519" lon="2.0713">
        <ele>642.1</ele>
        <time>2026-08-07T15:37:27.000Z</time>
      </trkpt>
      <trkpt lat="45.85187" lon="2.07126">
        <ele>642.2</ele>
        <time>2026-08-07T15:37:29.000Z</time>
      </trkpt>
      <trkpt lat="45.85183" lon="2.07116">
        <ele>642.4</ele>
        <time>2026-08-07T15:37:33.000Z</time>
      </trkpt>
      <trkpt lat="45.85182" lon="2.07115">
        <ele>642.4</ele>
        <time>2026-08-07T15:37:34.000Z</time>
      </trkpt>
      <trkpt lat="45.85182" lon="2.07113">
        <ele>642.5</ele>
        <time>2026-08-07T15:37:35.000Z</time>
      </trkpt>
      <trkpt lat="45.85176" lon="2.07097">
        <ele>643.2</ele>
        <time>2026-08-07T15:37:40.000Z</time>
      </trkpt>
      <trkpt lat="45.8517" lon="2.07075">
        <ele>644</ele>
        <time>2026-08-07T15:37:46.000Z</time>
      </trkpt>
      <trkpt lat="45.85169" lon="2.07072">
        <ele>644.1</ele>
        <time>2026-08-07T15:37:47.000Z</time>
      </trkpt>
      <trkpt lat="45.85167" lon="2.07057">
        <ele>644.9</ele>
        <time>2026-08-07T15:37:52.000Z</time>
      </trkpt>
      <trkpt lat="45.85162" lon="2.0705">
        <ele>646</ele>
        <time>2026-08-07T15:37:56.000Z</time>
      </trkpt>
      <trkpt lat="45.85159" lon="2.07048">
        <ele>646.4</ele>
        <time>2026-08-07T15:37:58.000Z</time>
      </trkpt>
      <trkpt lat="45.85151" lon="2.07045">
        <ele>646.9</ele>
        <time>2026-08-07T15:38:02.000Z</time>
      </trkpt>
      <trkpt lat="45.85135" lon="2.07049">
        <ele>647.7</ele>
        <time>2026-08-07T15:38:10.000Z</time>
      </trkpt>
      <trkpt lat="45.85134" lon="2.07051">
        <ele>648</ele>
        <time>2026-08-07T15:38:11.000Z</time>
      </trkpt>
      <trkpt lat="45.85125" lon="2.07063">
        <ele>649</ele>
        <time>2026-08-07T15:38:19.000Z</time>
      </trkpt>
      <trkpt lat="45.85124" lon="2.07065">
        <ele>648.9</ele>
        <time>2026-08-07T15:38:20.000Z</time>
      </trkpt>
      <trkpt lat="45.85122" lon="2.07069">
        <ele>649</ele>
        <time>2026-08-07T15:38:22.000Z</time>
      </trkpt>
      <trkpt lat="45.85118" lon="2.07073">
        <ele>649.3</ele>
        <time>2026-08-07T15:38:25.000Z</time>
      </trkpt>
      <trkpt lat="45.85112" lon="2.0708">
        <ele>649.3</ele>
        <time>2026-08-07T15:38:31.000Z</time>
      </trkpt>
      <trkpt lat="45.85111" lon="2.07083">
        <ele>649.1</ele>
        <time>2026-08-07T15:38:33.000Z</time>
      </trkpt>
      <trkpt lat="45.85106" lon="2.07093">
        <ele>649.5</ele>
        <time>2026-08-07T15:38:40.000Z</time>
      </trkpt>
      <trkpt lat="45.85105" lon="2.07095">
        <ele>649.6</ele>
        <time>2026-08-07T15:38:41.000Z</time>
      </trkpt>
      <trkpt lat="45.85103" lon="2.07098">
        <ele>649.8</ele>
        <time>2026-08-07T15:38:44.000Z</time>
      </trkpt>
      <trkpt lat="45.85102" lon="2.07099">
        <ele>650</ele>
        <time>2026-08-07T15:38:45.000Z</time>
      </trkpt>
      <trkpt lat="45.85101" lon="2.07101">
        <ele>650.1</ele>
        <time>2026-08-07T15:38:47.000Z</time>
      </trkpt>
      <trkpt lat="45.85098" lon="2.07105">
        <ele>650.6</ele>
        <time>2026-08-07T15:38:51.000Z</time>
      </trkpt>
      <trkpt lat="45.85097" lon="2.07108">
        <ele>650.5</ele>
        <time>2026-08-07T15:38:53.000Z</time>
      </trkpt>
      <trkpt lat="45.85094" lon="2.07111">
        <ele>650.9</ele>
        <time>2026-08-07T15:38:56.000Z</time>
      </trkpt>
      <trkpt lat="45.85093" lon="2.07113">
        <ele>651.2</ele>
        <time>2026-08-07T15:38:58.000Z</time>
      </trkpt>
      <trkpt lat="45.85092" lon="2.07114">
        <ele>651.3</ele>
        <time>2026-08-07T15:38:59.000Z</time>
      </trkpt>
      <trkpt lat="45.85089" lon="2.07119">
        <ele>651.5</ele>
        <time>2026-08-07T15:39:04.000Z</time>
      </trkpt>
      <trkpt lat="45.85089" lon="2.0712">
        <ele>651.6</ele>
        <time>2026-08-07T15:39:05.000Z</time>
      </trkpt>
      <trkpt lat="45.85087" lon="2.07124">
        <ele>651.7</ele>
        <time>2026-08-07T15:39:11.000Z</time>
      </trkpt>
      <trkpt lat="45.85087" lon="2.07124">
        <ele>651.7</ele>
        <time>2026-08-07T15:39:12.000Z</time>
      </trkpt>
      <trkpt lat="45.85083" lon="2.07131">
        <ele>651.9</ele>
        <time>2026-08-07T15:39:30.000Z</time>
      </trkpt>
      <trkpt lat="45.85082" lon="2.07133">
        <ele>652</ele>
        <time>2026-08-07T15:39:31.000Z</time>
      </trkpt>
      <trkpt lat="45.85081" lon="2.07135">
        <ele>652</ele>
        <time>2026-08-07T15:39:32.000Z</time>
      </trkpt>
      <trkpt lat="45.85068" lon="2.07145">
        <ele>653.7</ele>
        <time>2026-08-07T15:39:39.000Z</time>
      </trkpt>
      <trkpt lat="45.85051" lon="2.07158">
        <ele>654.9</ele>
        <time>2026-08-07T15:39:48.000Z</time>
      </trkpt>
      <trkpt lat="45.85042" lon="2.07162">
        <ele>654.8</ele>
        <time>2026-08-07T15:39:53.000Z</time>
      </trkpt>
      <trkpt lat="45.85037" lon="2.07161">
        <ele>655.3</ele>
        <time>2026-08-07T15:39:56.000Z</time>
      </trkpt>
      <trkpt lat="45.85028" lon="2.07162">
        <ele>655.9</ele>
        <time>2026-08-07T15:40:02.000Z</time>
      </trkpt>
      <trkpt lat="45.85023" lon="2.07162">
        <ele>655.8</ele>
        <time>2026-08-07T15:40:04.000Z</time>
      </trkpt>
      <trkpt lat="45.8502" lon="2.07161">
        <ele>655.8</ele>
        <time>2026-08-07T15:40:06.000Z</time>
      </trkpt>
      <trkpt lat="45.85015" lon="2.07159">
        <ele>656.1</ele>
        <time>2026-08-07T15:40:09.000Z</time>
      </trkpt>
      <trkpt lat="45.85011" lon="2.07158">
        <ele>656.1</ele>
        <time>2026-08-07T15:40:11.000Z</time>
      </trkpt>
      <trkpt lat="45.84998" lon="2.07154">
        <ele>656.8</ele>
        <time>2026-08-07T15:40:19.000Z</time>
      </trkpt>
      <trkpt lat="45.84994" lon="2.07152">
        <ele>657</ele>
        <time>2026-08-07T15:40:21.000Z</time>
      </trkpt>
      <trkpt lat="45.84982" lon="2.07149">
        <ele>657.5</ele>
        <time>2026-08-07T15:40:28.000Z</time>
      </trkpt>
      <trkpt lat="45.84973" lon="2.07145">
        <ele>657.9</ele>
        <time>2026-08-07T15:40:34.000Z</time>
      </trkpt>
      <trkpt lat="45.84969" lon="2.07144">
        <ele>657.9</ele>
        <time>2026-08-07T15:40:36.000Z</time>
      </trkpt>
      <trkpt lat="45.84962" lon="2.07141">
        <ele>658.3</ele>
        <time>2026-08-07T15:40:40.000Z</time>
      </trkpt>
      <trkpt lat="45.8495" lon="2.0713">
        <ele>659.6</ele>
        <time>2026-08-07T15:40:47.000Z</time>
      </trkpt>
      <trkpt lat="45.8494" lon="2.07118">
        <ele>660.4</ele>
        <time>2026-08-07T15:40:54.000Z</time>
      </trkpt>
      <trkpt lat="45.84939" lon="2.07117">
        <ele>660.5</ele>
        <time>2026-08-07T15:40:55.000Z</time>
      </trkpt>
      <trkpt lat="45.84936" lon="2.07109">
        <ele>661</ele>
        <time>2026-08-07T15:40:58.000Z</time>
      </trkpt>
      <trkpt lat="45.84935" lon="2.07107">
        <ele>661.1</ele>
        <time>2026-08-07T15:40:59.000Z</time>
      </trkpt>
      <trkpt lat="45.84931" lon="2.07098">
        <ele>661.5</ele>
        <time>2026-08-07T15:41:03.000Z</time>
      </trkpt>
      <trkpt lat="45.84928" lon="2.07093">
        <ele>661.6</ele>
        <time>2026-08-07T15:41:06.000Z</time>
      </trkpt>
      <trkpt lat="45.84923" lon="2.07082">
        <ele>662.2</ele>
        <time>2026-08-07T15:41:11.000Z</time>
      </trkpt>
      <trkpt lat="45.8492" lon="2.07076">
        <ele>662.6</ele>
        <time>2026-08-07T15:41:14.000Z</time>
      </trkpt>
      <trkpt lat="45.84914" lon="2.07064">
        <ele>663.5</ele>
        <time>2026-08-07T15:41:21.000Z</time>
      </trkpt>
      <trkpt lat="45.84903" lon="2.07046">
        <ele>664.1</ele>
        <time>2026-08-07T15:41:30.000Z</time>
      </trkpt>
      <trkpt lat="45.84902" lon="2.07044">
        <ele>664</ele>
        <time>2026-08-07T15:41:31.000Z</time>
      </trkpt>
      <trkpt lat="45.84896" lon="2.07032">
        <ele>664.3</ele>
        <time>2026-08-07T15:41:36.000Z</time>
      </trkpt>
      <trkpt lat="45.84893" lon="2.07027">
        <ele>664.4</ele>
        <time>2026-08-07T15:41:38.000Z</time>
      </trkpt>
      <trkpt lat="45.84892" lon="2.07014">
        <ele>665.2</ele>
        <time>2026-08-07T15:41:43.000Z</time>
      </trkpt>
      <trkpt lat="45.84891" lon="2.07009">
        <ele>665.6</ele>
        <time>2026-08-07T15:41:45.000Z</time>
      </trkpt>
      <trkpt lat="45.84889" lon="2.06988">
        <ele>666.4</ele>
        <time>2026-08-07T15:41:51.000Z</time>
      </trkpt>
      <trkpt lat="45.84888" lon="2.06963">
        <ele>666.9</ele>
        <time>2026-08-07T15:42:00.000Z</time>
      </trkpt>
      <trkpt lat="45.84892" lon="2.06937">
        <ele>667.7</ele>
        <time>2026-08-07T15:42:11.000Z</time>
      </trkpt>
      <trkpt lat="45.84896" lon="2.06923">
        <ele>668.6</ele>
        <time>2026-08-07T15:42:17.000Z</time>
      </trkpt>
      <trkpt lat="45.849" lon="2.06911">
        <ele>668.8</ele>
        <time>2026-08-07T15:42:22.000Z</time>
      </trkpt>
      <trkpt lat="45.84908" lon="2.06894">
        <ele>668.9</ele>
        <time>2026-08-07T15:42:30.000Z</time>
      </trkpt>
      <trkpt lat="45.8491" lon="2.06889">
        <ele>669.1</ele>
        <time>2026-08-07T15:42:32.000Z</time>
      </trkpt>
      <trkpt lat="45.84916" lon="2.06878">
        <ele>670.3</ele>
        <time>2026-08-07T15:42:38.000Z</time>
      </trkpt>
      <trkpt lat="45.84921" lon="2.06869">
        <ele>670.9</ele>
        <time>2026-08-07T15:42:44.000Z</time>
      </trkpt>
      <trkpt lat="45.84923" lon="2.06865">
        <ele>671.1</ele>
        <time>2026-08-07T15:42:46.000Z</time>
      </trkpt>
      <trkpt lat="45.84929" lon="2.06852">
        <ele>671.3</ele>
        <time>2026-08-07T15:42:52.000Z</time>
      </trkpt>
      <trkpt lat="45.84933" lon="2.06831">
        <ele>671.3</ele>
        <time>2026-08-07T15:43:00.000Z</time>
      </trkpt>
      <trkpt lat="45.84934" lon="2.06828">
        <ele>671.4</ele>
        <time>2026-08-07T15:43:01.000Z</time>
      </trkpt>
      <trkpt lat="45.84936" lon="2.06801">
        <ele>672.6</ele>
        <time>2026-08-07T15:43:11.000Z</time>
      </trkpt>
      <trkpt lat="45.84936" lon="2.06793">
        <ele>672.9</ele>
        <time>2026-08-07T15:43:14.000Z</time>
      </trkpt>
      <trkpt lat="45.84936" lon="2.06778">
        <ele>673.4</ele>
        <time>2026-08-07T15:43:20.000Z</time>
      </trkpt>
      <trkpt lat="45.84937" lon="2.06765">
        <ele>674.2</ele>
        <time>2026-08-07T15:43:25.000Z</time>
      </trkpt>
      <trkpt lat="45.84936" lon="2.06758">
        <ele>674.5</ele>
        <time>2026-08-07T15:43:28.000Z</time>
      </trkpt>
      <trkpt lat="45.84928" lon="2.06746">
        <ele>675.3</ele>
        <time>2026-08-07T15:43:35.000Z</time>
      </trkpt>
      <trkpt lat="45.84926" lon="2.06742">
        <ele>675.7</ele>
        <time>2026-08-07T15:43:37.000Z</time>
      </trkpt>
      <trkpt lat="45.8492" lon="2.06737">
        <ele>676.3</ele>
        <time>2026-08-07T15:43:41.000Z</time>
      </trkpt>
      <trkpt lat="45.84908" lon="2.06731">
        <ele>677.2</ele>
        <time>2026-08-07T15:43:49.000Z</time>
      </trkpt>
      <trkpt lat="45.84904" lon="2.06731">
        <ele>677.4</ele>
        <time>2026-08-07T15:43:51.000Z</time>
      </trkpt>
      <trkpt lat="45.84897" lon="2.06729">
        <ele>677.8</ele>
        <time>2026-08-07T15:43:55.000Z</time>
      </trkpt>
      <trkpt lat="45.84895" lon="2.06729">
        <ele>677.9</ele>
        <time>2026-08-07T15:43:56.000Z</time>
      </trkpt>
      <trkpt lat="45.84894" lon="2.06729">
        <ele>677.9</ele>
        <time>2026-08-07T15:43:57.000Z</time>
      </trkpt>
      <trkpt lat="45.84878" lon="2.06722">
        <ele>679.4</ele>
        <time>2026-08-07T15:44:06.000Z</time>
      </trkpt>
      <trkpt lat="45.84877" lon="2.06722">
        <ele>679.5</ele>
        <time>2026-08-07T15:44:07.000Z</time>
      </trkpt>
      <trkpt lat="45.84862" lon="2.06716">
        <ele>680.2</ele>
        <time>2026-08-07T15:44:15.000Z</time>
      </trkpt>
      <trkpt lat="45.84854" lon="2.06712">
        <ele>680.8</ele>
        <time>2026-08-07T15:44:20.000Z</time>
      </trkpt>
      <trkpt lat="45.84848" lon="2.0671">
        <ele>681.4</ele>
        <time>2026-08-07T15:44:24.000Z</time>
      </trkpt>
      <trkpt lat="45.84847" lon="2.0671">
        <ele>681.5</ele>
        <time>2026-08-07T15:44:25.000Z</time>
      </trkpt>
      <trkpt lat="45.84838" lon="2.06708">
        <ele>682.1</ele>
        <time>2026-08-07T15:44:30.000Z</time>
      </trkpt>
      <trkpt lat="45.84834" lon="2.06706">
        <ele>682.5</ele>
        <time>2026-08-07T15:44:32.000Z</time>
      </trkpt>
      <trkpt lat="45.84822" lon="2.067">
        <ele>682.9</ele>
        <time>2026-08-07T15:44:39.000Z</time>
      </trkpt>
      <trkpt lat="45.8482" lon="2.06699">
        <ele>682.9</ele>
        <time>2026-08-07T15:44:40.000Z</time>
      </trkpt>
      <trkpt lat="45.84806" lon="2.0669">
        <ele>683.2</ele>
        <time>2026-08-07T15:44:48.000Z</time>
      </trkpt>
      <trkpt lat="45.84804" lon="2.06689">
        <ele>683.4</ele>
        <time>2026-08-07T15:44:49.000Z</time>
      </trkpt>
      <trkpt lat="45.84802" lon="2.06687">
        <ele>683.6</ele>
        <time>2026-08-07T15:44:50.000Z</time>
      </trkpt>
      <trkpt lat="45.84789" lon="2.06675">
        <ele>684.6</ele>
        <time>2026-08-07T15:44:58.000Z</time>
      </trkpt>
      <trkpt lat="45.84775" lon="2.0666">
        <ele>685.1</ele>
        <time>2026-08-07T15:45:07.000Z</time>
      </trkpt>
      <trkpt lat="45.84773" lon="2.06659">
        <ele>685.2</ele>
        <time>2026-08-07T15:45:08.000Z</time>
      </trkpt>
      <trkpt lat="45.84762" lon="2.06647">
        <ele>685.6</ele>
        <time>2026-08-07T15:45:15.000Z</time>
      </trkpt>
      <trkpt lat="45.8476" lon="2.06643">
        <ele>685.7</ele>
        <time>2026-08-07T15:45:17.000Z</time>
      </trkpt>
      <trkpt lat="45.8475" lon="2.06631">
        <ele>686.3</ele>
        <time>2026-08-07T15:45:24.000Z</time>
      </trkpt>
      <trkpt lat="45.84746" lon="2.06627">
        <ele>686.4</ele>
        <time>2026-08-07T15:45:27.000Z</time>
      </trkpt>
      <trkpt lat="45.84737" lon="2.06619">
        <ele>686.7</ele>
        <time>2026-08-07T15:45:33.000Z</time>
      </trkpt>
      <trkpt lat="45.84732" lon="2.06612">
        <ele>687</ele>
        <time>2026-08-07T15:45:37.000Z</time>
      </trkpt>
      <trkpt lat="45.84724" lon="2.06604">
        <ele>687.5</ele>
        <time>2026-08-07T15:45:43.000Z</time>
      </trkpt>
      <trkpt lat="45.84721" lon="2.06601">
        <ele>687.8</ele>
        <time>2026-08-07T15:45:45.000Z</time>
      </trkpt>
      <trkpt lat="45.84717" lon="2.06599">
        <ele>688.1</ele>
        <time>2026-08-07T15:45:48.000Z</time>
      </trkpt>
      <trkpt lat="45.84716" lon="2.06594">
        <ele>688.4</ele>
        <time>2026-08-07T15:45:50.000Z</time>
      </trkpt>
      <trkpt lat="45.84715" lon="2.06593">
        <ele>688.6</ele>
        <time>2026-08-07T15:45:51.000Z</time>
      </trkpt>
      <trkpt lat="45.84712" lon="2.0659">
        <ele>688.9</ele>
        <time>2026-08-07T15:45:54.000Z</time>
      </trkpt>
      <trkpt lat="45.84711" lon="2.06589">
        <ele>689</ele>
        <time>2026-08-07T15:45:55.000Z</time>
      </trkpt>
      <trkpt lat="45.8471" lon="2.06588">
        <ele>689.1</ele>
        <time>2026-08-07T15:45:56.000Z</time>
      </trkpt>
      <trkpt lat="45.84707" lon="2.06587">
        <ele>689.3</ele>
        <time>2026-08-07T15:45:58.000Z</time>
      </trkpt>
      <trkpt lat="45.84705" lon="2.06584">
        <ele>689.6</ele>
        <time>2026-08-07T15:46:00.000Z</time>
      </trkpt>
      <trkpt lat="45.84701" lon="2.06584">
        <ele>689.7</ele>
        <time>2026-08-07T15:46:02.000Z</time>
      </trkpt>
      <trkpt lat="45.847" lon="2.06582">
        <ele>689.8</ele>
        <time>2026-08-07T15:46:03.000Z</time>
      </trkpt>
      <trkpt lat="45.84699" lon="2.06581">
        <ele>689.9</ele>
        <time>2026-08-07T15:46:04.000Z</time>
      </trkpt>
      <trkpt lat="45.84697" lon="2.06579">
        <ele>690.1</ele>
        <time>2026-08-07T15:46:06.000Z</time>
      </trkpt>
      <trkpt lat="45.84696" lon="2.06577">
        <ele>690.2</ele>
        <time>2026-08-07T15:46:07.000Z</time>
      </trkpt>
      <trkpt lat="45.84696" lon="2.06576">
        <ele>690.2</ele>
        <time>2026-08-07T15:46:08.000Z</time>
      </trkpt>
      <trkpt lat="45.84695" lon="2.06575">
        <ele>690.3</ele>
        <time>2026-08-07T15:46:09.000Z</time>
      </trkpt>
      <trkpt lat="45.84693" lon="2.06574">
        <ele>690.4</ele>
        <time>2026-08-07T15:46:11.000Z</time>
      </trkpt>
      <trkpt lat="45.84691" lon="2.06573">
        <ele>690.4</ele>
        <time>2026-08-07T15:46:12.000Z</time>
      </trkpt>
      <trkpt lat="45.84689" lon="2.0657">
        <ele>690.6</ele>
        <time>2026-08-07T15:46:14.000Z</time>
      </trkpt>
      <trkpt lat="45.84686" lon="2.06569">
        <ele>690.7</ele>
        <time>2026-08-07T15:46:16.000Z</time>
      </trkpt>
      <trkpt lat="45.84685" lon="2.06568">
        <ele>690.8</ele>
        <time>2026-08-07T15:46:17.000Z</time>
      </trkpt>
      <trkpt lat="45.84684" lon="2.06567">
        <ele>690.8</ele>
        <time>2026-08-07T15:46:18.000Z</time>
      </trkpt>
      <trkpt lat="45.84683" lon="2.06565">
        <ele>690.9</ele>
        <time>2026-08-07T15:46:19.000Z</time>
      </trkpt>
      <trkpt lat="45.8468" lon="2.06563">
        <ele>691.1</ele>
        <time>2026-08-07T15:46:21.000Z</time>
      </trkpt>
      <trkpt lat="45.8468" lon="2.06561">
        <ele>691.2</ele>
        <time>2026-08-07T15:46:22.000Z</time>
      </trkpt>
      <trkpt lat="45.84679" lon="2.06559">
        <ele>691.3</ele>
        <time>2026-08-07T15:46:23.000Z</time>
      </trkpt>
      <trkpt lat="45.84679" lon="2.06558">
        <ele>691.4</ele>
        <time>2026-08-07T15:46:24.000Z</time>
      </trkpt>
      <trkpt lat="45.84677" lon="2.06556">
        <ele>691.6</ele>
        <time>2026-08-07T15:46:26.000Z</time>
      </trkpt>
      <trkpt lat="45.84676" lon="2.06553">
        <ele>691.9</ele>
        <time>2026-08-07T15:46:28.000Z</time>
      </trkpt>
      <trkpt lat="45.84673" lon="2.06552">
        <ele>692.1</ele>
        <time>2026-08-07T15:46:30.000Z</time>
      </trkpt>
      <trkpt lat="45.84672" lon="2.06551">
        <ele>692.3</ele>
        <time>2026-08-07T15:46:32.000Z</time>
      </trkpt>
      <trkpt lat="45.8467" lon="2.06548">
        <ele>692.6</ele>
        <time>2026-08-07T15:46:34.000Z</time>
      </trkpt>
      <trkpt lat="45.84667" lon="2.06546">
        <ele>693</ele>
        <time>2026-08-07T15:46:36.000Z</time>
      </trkpt>
      <trkpt lat="45.84666" lon="2.06543">
        <ele>693.4</ele>
        <time>2026-08-07T15:46:38.000Z</time>
      </trkpt>
      <trkpt lat="45.84665" lon="2.06542">
        <ele>693.5</ele>
        <time>2026-08-07T15:46:40.000Z</time>
      </trkpt>
      <trkpt lat="45.84663" lon="2.06539">
        <ele>693.7</ele>
        <time>2026-08-07T15:46:42.000Z</time>
      </trkpt>
      <trkpt lat="45.84663" lon="2.06537">
        <ele>693.9</ele>
        <time>2026-08-07T15:46:43.000Z</time>
      </trkpt>
      <trkpt lat="45.84661" lon="2.06536">
        <ele>694</ele>
        <time>2026-08-07T15:46:44.000Z</time>
      </trkpt>
      <trkpt lat="45.84658" lon="2.06534">
        <ele>694.1</ele>
        <time>2026-08-07T15:46:46.000Z</time>
      </trkpt>
      <trkpt lat="45.84651" lon="2.06521">
        <ele>694.7</ele>
        <time>2026-08-07T15:46:52.000Z</time>
      </trkpt>
      <trkpt lat="45.84643" lon="2.06508">
        <ele>694.9</ele>
        <time>2026-08-07T15:46:58.000Z</time>
      </trkpt>
      <trkpt lat="45.84643" lon="2.06505">
        <ele>695</ele>
        <time>2026-08-07T15:47:00.000Z</time>
      </trkpt>
      <trkpt lat="45.84642" lon="2.06502">
        <ele>695.1</ele>
        <time>2026-08-07T15:47:03.000Z</time>
      </trkpt>
      <trkpt lat="45.84643" lon="2.06502">
        <ele>695.1</ele>
        <time>2026-08-07T15:47:04.000Z</time>
      </trkpt>
      <trkpt lat="45.84644" lon="2.06502">
        <ele>695.1</ele>
        <time>2026-08-07T15:47:08.000Z</time>
      </trkpt>
      <trkpt lat="45.84639" lon="2.06498">
        <ele>695</ele>
        <time>2026-08-07T15:47:46.000Z</time>
      </trkpt>
      <trkpt lat="45.84634" lon="2.06492">
        <ele>695</ele>
        <time>2026-08-07T15:47:49.000Z</time>
      </trkpt>
      <trkpt lat="45.84623" lon="2.06475">
        <ele>695</ele>
        <time>2026-08-07T15:47:56.000Z</time>
      </trkpt>
      <trkpt lat="45.84616" lon="2.06469">
        <ele>695</ele>
        <time>2026-08-07T15:47:59.000Z</time>
      </trkpt>
      <trkpt lat="45.84609" lon="2.06457">
        <ele>695</ele>
        <time>2026-08-07T15:48:04.000Z</time>
      </trkpt>
      <trkpt lat="45.84608" lon="2.06455">
        <ele>695</ele>
        <time>2026-08-07T15:48:05.000Z</time>
      </trkpt>
      <trkpt lat="45.84609" lon="2.0645">
        <ele>695</ele>
        <time>2026-08-07T15:48:07.000Z</time>
      </trkpt>
      <trkpt lat="45.8461" lon="2.06448">
        <ele>695</ele>
        <time>2026-08-07T15:48:08.000Z</time>
      </trkpt>
      <trkpt lat="45.84617" lon="2.06444">
        <ele>695</ele>
        <time>2026-08-07T15:48:12.000Z</time>
      </trkpt>
      <trkpt lat="45.84622" lon="2.06444">
        <ele>695</ele>
        <time>2026-08-07T15:48:14.000Z</time>
      </trkpt>
      <trkpt lat="45.84624" lon="2.06444">
        <ele>695</ele>
        <time>2026-08-07T15:48:15.000Z</time>
      </trkpt>
      <trkpt lat="45.8463" lon="2.06448">
        <ele>695</ele>
        <time>2026-08-07T15:48:19.000Z</time>
      </trkpt>
      <trkpt lat="45.84629" lon="2.06447">
        <ele>695</ele>
        <time>2026-08-07T15:48:22.000Z</time>
      </trkpt>
      <trkpt lat="45.84629" lon="2.06447">
        <ele>695</ele>
        <time>2026-08-07T15:48:28.000Z</time>
      </trkpt>
      <trkpt lat="45.84621" lon="2.0644">
        <ele>695.1</ele>
        <time>2026-08-07T15:51:51.000Z</time>
      </trkpt>
      <trkpt lat="45.84612" lon="2.06437">
        <ele>695.3</ele>
        <time>2026-08-07T15:51:56.000Z</time>
      </trkpt>
      <trkpt lat="45.84602" lon="2.06432">
        <ele>695.4</ele>
        <time>2026-08-07T15:52:01.000Z</time>
      </trkpt>
      <trkpt lat="45.84601" lon="2.06433">
        <ele>695.4</ele>
        <time>2026-08-07T15:52:02.000Z</time>
      </trkpt>
      <trkpt lat="45.84591" lon="2.06433">
        <ele>695.4</ele>
        <time>2026-08-07T15:52:06.000Z</time>
      </trkpt>
      <trkpt lat="45.84588" lon="2.06432">
        <ele>695.5</ele>
        <time>2026-08-07T15:52:07.000Z</time>
      </trkpt>
      <trkpt lat="45.84572" lon="2.06416">
        <ele>695.6</ele>
        <time>2026-08-07T15:52:14.000Z</time>
      </trkpt>
      <trkpt lat="45.8455" lon="2.06396">
        <ele>696</ele>
        <time>2026-08-07T15:52:23.000Z</time>
      </trkpt>
      <trkpt lat="45.84532" lon="2.06383">
        <ele>696.9</ele>
        <time>2026-08-07T15:52:31.000Z</time>
      </trkpt>
      <trkpt lat="45.84522" lon="2.06378">
        <ele>697.2</ele>
        <time>2026-08-07T15:52:36.000Z</time>
      </trkpt>
      <trkpt lat="45.84507" lon="2.06374">
        <ele>697.7</ele>
        <time>2026-08-07T15:52:44.000Z</time>
      </trkpt>
      <trkpt lat="45.84498" lon="2.06367">
        <ele>698.1</ele>
        <time>2026-08-07T15:52:50.000Z</time>
      </trkpt>
      <trkpt lat="45.84496" lon="2.06364">
        <ele>698.1</ele>
        <time>2026-08-07T15:52:52.000Z</time>
      </trkpt>
      <trkpt lat="45.84487" lon="2.06347">
        <ele>698.5</ele>
        <time>2026-08-07T15:53:00.000Z</time>
      </trkpt>
      <trkpt lat="45.84485" lon="2.06334">
        <ele>698.5</ele>
        <time>2026-08-07T15:53:07.000Z</time>
      </trkpt>
      <trkpt lat="45.84485" lon="2.0633">
        <ele>698.4</ele>
        <time>2026-08-07T15:53:09.000Z</time>
      </trkpt>
      <trkpt lat="45.84482" lon="2.06323">
        <ele>698.3</ele>
        <time>2026-08-07T15:53:13.000Z</time>
      </trkpt>
      <trkpt lat="45.84477" lon="2.06305">
        <ele>697.8</ele>
        <time>2026-08-07T15:53:21.000Z</time>
      </trkpt>
      <trkpt lat="45.84473" lon="2.06285">
        <ele>697.2</ele>
        <time>2026-08-07T15:53:26.000Z</time>
      </trkpt>
      <trkpt lat="45.84464" lon="2.0626">
        <ele>697</ele>
        <time>2026-08-07T15:53:30.000Z</time>
      </trkpt>
      <trkpt lat="45.84462" lon="2.06253">
        <ele>696.8</ele>
        <time>2026-08-07T15:53:31.000Z</time>
      </trkpt>
      <trkpt lat="45.8445" lon="2.06208">
        <ele>694.9</ele>
        <time>2026-08-07T15:53:37.000Z</time>
      </trkpt>
      <trkpt lat="45.84445" lon="2.0619">
        <ele>693.7</ele>
        <time>2026-08-07T15:53:39.000Z</time>
      </trkpt>
      <trkpt lat="45.84435" lon="2.06164">
        <ele>692.4</ele>
        <time>2026-08-07T15:53:42.000Z</time>
      </trkpt>
      <trkpt lat="45.84429" lon="2.06145">
        <ele>691.2</ele>
        <time>2026-08-07T15:53:44.000Z</time>
      </trkpt>
      <trkpt lat="45.84419" lon="2.06119">
        <ele>689.6</ele>
        <time>2026-08-07T15:53:47.000Z</time>
      </trkpt>
      <trkpt lat="45.84412" lon="2.06102">
        <ele>688.5</ele>
        <time>2026-08-07T15:53:49.000Z</time>
      </trkpt>
      <trkpt lat="45.84409" lon="2.06094">
        <ele>688</ele>
        <time>2026-08-07T15:53:50.000Z</time>
      </trkpt>
      <trkpt lat="45.84398" lon="2.06068">
        <ele>686.6</ele>
        <time>2026-08-07T15:53:53.000Z</time>
      </trkpt>
      <trkpt lat="45.84388" lon="2.06043">
        <ele>686.7</ele>
        <time>2026-08-07T15:53:56.000Z</time>
      </trkpt>
      <trkpt lat="45.84381" lon="2.06027">
        <ele>686.4</ele>
        <time>2026-08-07T15:53:58.000Z</time>
      </trkpt>
      <trkpt lat="45.84373" lon="2.06002">
        <ele>684.9</ele>
        <time>2026-08-07T15:54:01.000Z</time>
      </trkpt>
      <trkpt lat="45.84372" lon="2.05993">
        <ele>684.5</ele>
        <time>2026-08-07T15:54:02.000Z</time>
      </trkpt>
      <trkpt lat="45.84371" lon="2.05984">
        <ele>684.1</ele>
        <time>2026-08-07T15:54:04.000Z</time>
      </trkpt>
      <trkpt lat="45.84372" lon="2.05975">
        <ele>683.6</ele>
        <time>2026-08-07T15:54:05.000Z</time>
      </trkpt>
      <trkpt lat="45.84372" lon="2.05967">
        <ele>683.4</ele>
        <time>2026-08-07T15:54:06.000Z</time>
      </trkpt>
      <trkpt lat="45.84373" lon="2.05958">
        <ele>683.3</ele>
        <time>2026-08-07T15:54:07.000Z</time>
      </trkpt>
      <trkpt lat="45.84373" lon="2.05949">
        <ele>683.3</ele>
        <time>2026-08-07T15:54:08.000Z</time>
      </trkpt>
      <trkpt lat="45.84372" lon="2.05939">
        <ele>683</ele>
        <time>2026-08-07T15:54:09.000Z</time>
      </trkpt>
      <trkpt lat="45.8437" lon="2.05928">
        <ele>682.4</ele>
        <time>2026-08-07T15:54:10.000Z</time>
      </trkpt>
      <trkpt lat="45.84368" lon="2.05917">
        <ele>681.9</ele>
        <time>2026-08-07T15:54:11.000Z</time>
      </trkpt>
      <trkpt lat="45.84366" lon="2.05906">
        <ele>681.5</ele>
        <time>2026-08-07T15:54:12.000Z</time>
      </trkpt>
      <trkpt lat="45.84359" lon="2.05874">
        <ele>679.8</ele>
        <time>2026-08-07T15:54:15.000Z</time>
      </trkpt>
      <trkpt lat="45.84356" lon="2.05863">
        <ele>679.3</ele>
        <time>2026-08-07T15:54:16.000Z</time>
      </trkpt>
      <trkpt lat="45.84352" lon="2.05853">
        <ele>679.1</ele>
        <time>2026-08-07T15:54:17.000Z</time>
      </trkpt>
      <trkpt lat="45.84347" lon="2.05843">
        <ele>679</ele>
        <time>2026-08-07T15:54:18.000Z</time>
      </trkpt>
      <trkpt lat="45.8434" lon="2.05826">
        <ele>678.8</ele>
        <time>2026-08-07T15:54:20.000Z</time>
      </trkpt>
      <trkpt lat="45.84337" lon="2.05817">
        <ele>678.4</ele>
        <time>2026-08-07T15:54:21.000Z</time>
      </trkpt>
      <trkpt lat="45.84336" lon="2.05797">
        <ele>677.5</ele>
        <time>2026-08-07T15:54:23.000Z</time>
      </trkpt>
      <trkpt lat="45.84338" lon="2.05788">
        <ele>677.3</ele>
        <time>2026-08-07T15:54:24.000Z</time>
      </trkpt>
      <trkpt lat="45.84339" lon="2.05778">
        <ele>677.1</ele>
        <time>2026-08-07T15:54:25.000Z</time>
      </trkpt>
      <trkpt lat="45.84345" lon="2.05752">
        <ele>677.6</ele>
        <time>2026-08-07T15:54:28.000Z</time>
      </trkpt>
      <trkpt lat="45.84345" lon="2.05733">
        <ele>677.7</ele>
        <time>2026-08-07T15:54:30.000Z</time>
      </trkpt>
      <trkpt lat="45.84344" lon="2.05723">
        <ele>677.9</ele>
        <time>2026-08-07T15:54:31.000Z</time>
      </trkpt>
      <trkpt lat="45.84343" lon="2.05714">
        <ele>677.5</ele>
        <time>2026-08-07T15:54:32.000Z</time>
      </trkpt>
      <trkpt lat="45.84338" lon="2.05695">
        <ele>676.7</ele>
        <time>2026-08-07T15:54:34.000Z</time>
      </trkpt>
      <trkpt lat="45.84335" lon="2.05686">
        <ele>676.6</ele>
        <time>2026-08-07T15:54:35.000Z</time>
      </trkpt>
      <trkpt lat="45.84331" lon="2.05678">
        <ele>676.6</ele>
        <time>2026-08-07T15:54:36.000Z</time>
      </trkpt>
      <trkpt lat="45.84306" lon="2.0564">
        <ele>675.1</ele>
        <time>2026-08-07T15:54:41.000Z</time>
      </trkpt>
      <trkpt lat="45.84275" lon="2.05602">
        <ele>673.7</ele>
        <time>2026-08-07T15:54:47.000Z</time>
      </trkpt>
      <trkpt lat="45.84269" lon="2.05596">
        <ele>673.6</ele>
        <time>2026-08-07T15:54:48.000Z</time>
      </trkpt>
      <trkpt lat="45.84257" lon="2.05589">
        <ele>673.3</ele>
        <time>2026-08-07T15:54:50.000Z</time>
      </trkpt>
      <trkpt lat="45.8425" lon="2.05586">
        <ele>673.2</ele>
        <time>2026-08-07T15:54:51.000Z</time>
      </trkpt>
      <trkpt lat="45.84243" lon="2.05584">
        <ele>672.8</ele>
        <time>2026-08-07T15:54:52.000Z</time>
      </trkpt>
      <trkpt lat="45.8423" lon="2.05577">
        <ele>671.8</ele>
        <time>2026-08-07T15:54:54.000Z</time>
      </trkpt>
      <trkpt lat="45.84217" lon="2.05567">
        <ele>671.6</ele>
        <time>2026-08-07T15:54:56.000Z</time>
      </trkpt>
      <trkpt lat="45.84211" lon="2.05554">
        <ele>672</ele>
        <time>2026-08-07T15:54:58.000Z</time>
      </trkpt>
      <trkpt lat="45.8421" lon="2.05548">
        <ele>672</ele>
        <time>2026-08-07T15:54:59.000Z</time>
      </trkpt>
      <trkpt lat="45.84211" lon="2.0553">
        <ele>671.4</ele>
        <time>2026-08-07T15:55:02.000Z</time>
      </trkpt>
      <trkpt lat="45.84215" lon="2.05521">
        <ele>671</ele>
        <time>2026-08-07T15:55:04.000Z</time>
      </trkpt>
      <trkpt lat="45.84217" lon="2.05516">
        <ele>671</ele>
        <time>2026-08-07T15:55:05.000Z</time>
      </trkpt>
      <trkpt lat="45.84219" lon="2.05511">
        <ele>671</ele>
        <time>2026-08-07T15:55:06.000Z</time>
      </trkpt>
      <trkpt lat="45.84231" lon="2.05493">
        <ele>669.9</ele>
        <time>2026-08-07T15:55:09.000Z</time>
      </trkpt>
      <trkpt lat="45.84238" lon="2.05487">
        <ele>668.9</ele>
        <time>2026-08-07T15:55:10.000Z</time>
      </trkpt>
      <trkpt lat="45.84241" lon="2.05481">
        <ele>668.8</ele>
        <time>2026-08-07T15:55:11.000Z</time>
      </trkpt>
      <trkpt lat="45.84251" lon="2.05462">
        <ele>667.5</ele>
        <time>2026-08-07T15:55:14.000Z</time>
      </trkpt>
      <trkpt lat="45.84252" lon="2.05455">
        <ele>667.5</ele>
        <time>2026-08-07T15:55:15.000Z</time>
      </trkpt>
      <trkpt lat="45.84253" lon="2.05447">
        <ele>667.9</ele>
        <time>2026-08-07T15:55:16.000Z</time>
      </trkpt>
      <trkpt lat="45.84251" lon="2.05421">
        <ele>667.8</ele>
        <time>2026-08-07T15:55:19.000Z</time>
      </trkpt>
      <trkpt lat="45.84238" lon="2.05376">
        <ele>667</ele>
        <time>2026-08-07T15:55:25.000Z</time>
      </trkpt>
      <trkpt lat="45.84226" lon="2.05358">
        <ele>667.6</ele>
        <time>2026-08-07T15:55:28.000Z</time>
      </trkpt>
      <trkpt lat="45.84211" lon="2.05342">
        <ele>667.5</ele>
        <time>2026-08-07T15:55:31.000Z</time>
      </trkpt>
      <trkpt lat="45.84201" lon="2.05332">
        <ele>667.7</ele>
        <time>2026-08-07T15:55:33.000Z</time>
      </trkpt>
      <trkpt lat="45.84195" lon="2.05319">
        <ele>667.9</ele>
        <time>2026-08-07T15:55:35.000Z</time>
      </trkpt>
      <trkpt lat="45.84193" lon="2.05304">
        <ele>667.3</ele>
        <time>2026-08-07T15:55:37.000Z</time>
      </trkpt>
      <trkpt lat="45.84195" lon="2.05298">
        <ele>667.8</ele>
        <time>2026-08-07T15:55:38.000Z</time>
      </trkpt>
      <trkpt lat="45.84198" lon="2.05291">
        <ele>667.9</ele>
        <time>2026-08-07T15:55:39.000Z</time>
      </trkpt>
      <trkpt lat="45.84204" lon="2.05281">
        <ele>667.3</ele>
        <time>2026-08-07T15:55:41.000Z</time>
      </trkpt>
      <trkpt lat="45.84207" lon="2.05277">
        <ele>667.1</ele>
        <time>2026-08-07T15:55:42.000Z</time>
      </trkpt>
      <trkpt lat="45.84212" lon="2.05273">
        <ele>667.1</ele>
        <time>2026-08-07T15:55:43.000Z</time>
      </trkpt>
      <trkpt lat="45.84223" lon="2.05266">
        <ele>666.4</ele>
        <time>2026-08-07T15:55:45.000Z</time>
      </trkpt>
      <trkpt lat="45.84229" lon="2.05263">
        <ele>665.9</ele>
        <time>2026-08-07T15:55:46.000Z</time>
      </trkpt>
      <trkpt lat="45.84234" lon="2.0526">
        <ele>665.6</ele>
        <time>2026-08-07T15:55:47.000Z</time>
      </trkpt>
      <trkpt lat="45.84243" lon="2.05253">
        <ele>665</ele>
        <time>2026-08-07T15:55:49.000Z</time>
      </trkpt>
      <trkpt lat="45.84249" lon="2.05249">
        <ele>664.4</ele>
        <time>2026-08-07T15:55:50.000Z</time>
      </trkpt>
      <trkpt lat="45.84256" lon="2.05245">
        <ele>664.2</ele>
        <time>2026-08-07T15:55:51.000Z</time>
      </trkpt>
      <trkpt lat="45.84278" lon="2.05226">
        <ele>664.1</ele>
        <time>2026-08-07T15:55:55.000Z</time>
      </trkpt>
      <trkpt lat="45.84286" lon="2.05214">
        <ele>664</ele>
        <time>2026-08-07T15:55:57.000Z</time>
      </trkpt>
      <trkpt lat="45.8429" lon="2.05209">
        <ele>664.1</ele>
        <time>2026-08-07T15:55:58.000Z</time>
      </trkpt>
      <trkpt lat="45.84305" lon="2.05179">
        <ele>664.8</ele>
        <time>2026-08-07T15:56:03.000Z</time>
      </trkpt>
      <trkpt lat="45.84308" lon="2.05161">
        <ele>665.4</ele>
        <time>2026-08-07T15:56:06.000Z</time>
      </trkpt>
      <trkpt lat="45.84308" lon="2.0515">
        <ele>665.4</ele>
        <time>2026-08-07T15:56:08.000Z</time>
      </trkpt>
      <trkpt lat="45.843" lon="2.05128">
        <ele>666</ele>
        <time>2026-08-07T15:56:13.000Z</time>
      </trkpt>
      <trkpt lat="45.84285" lon="2.05108">
        <ele>666.7</ele>
        <time>2026-08-07T15:56:19.000Z</time>
      </trkpt>
      <trkpt lat="45.84264" lon="2.05082">
        <ele>667.4</ele>
        <time>2026-08-07T15:56:28.000Z</time>
      </trkpt>
      <trkpt lat="45.84257" lon="2.05063">
        <ele>668</ele>
        <time>2026-08-07T15:56:34.000Z</time>
      </trkpt>
      <trkpt lat="45.84256" lon="2.05048">
        <ele>668.9</ele>
        <time>2026-08-07T15:56:39.000Z</time>
      </trkpt>
      <trkpt lat="45.84258" lon="2.05038">
        <ele>669.5</ele>
        <time>2026-08-07T15:56:42.000Z</time>
      </trkpt>
      <trkpt lat="45.84262" lon="2.05023">
        <ele>670.5</ele>
        <time>2026-08-07T15:56:47.000Z</time>
      </trkpt>
      <trkpt lat="45.84266" lon="2.05014">
        <ele>671</ele>
        <time>2026-08-07T15:56:50.000Z</time>
      </trkpt>
      <trkpt lat="45.84271" lon="2.05005">
        <ele>671</ele>
        <time>2026-08-07T15:56:54.000Z</time>
      </trkpt>
      <trkpt lat="45.8428" lon="2.04996">
        <ele>670.3</ele>
        <time>2026-08-07T15:56:59.000Z</time>
      </trkpt>
      <trkpt lat="45.84286" lon="2.04992">
        <ele>670.4</ele>
        <time>2026-08-07T15:57:02.000Z</time>
      </trkpt>
      <trkpt lat="45.84298" lon="2.0499">
        <ele>670</ele>
        <time>2026-08-07T15:57:08.000Z</time>
      </trkpt>
      <trkpt lat="45.84305" lon="2.0499">
        <ele>669.6</ele>
        <time>2026-08-07T15:57:11.000Z</time>
      </trkpt>
      <trkpt lat="45.84307" lon="2.0499">
        <ele>669.5</ele>
        <time>2026-08-07T15:57:12.000Z</time>
      </trkpt>
      <trkpt lat="45.84312" lon="2.0499">
        <ele>669.7</ele>
        <time>2026-08-07T15:57:14.000Z</time>
      </trkpt>
      <trkpt lat="45.84326" lon="2.04992">
        <ele>670</ele>
        <time>2026-08-07T15:57:21.000Z</time>
      </trkpt>
      <trkpt lat="45.84328" lon="2.04993">
        <ele>669.8</ele>
        <time>2026-08-07T15:57:22.000Z</time>
      </trkpt>
      <trkpt lat="45.84336" lon="2.04994">
        <ele>670.2</ele>
        <time>2026-08-07T15:57:27.000Z</time>
      </trkpt>
      <trkpt lat="45.84351" lon="2.05">
        <ele>671.9</ele>
        <time>2026-08-07T15:57:35.000Z</time>
      </trkpt>
      <trkpt lat="45.84355" lon="2.05001">
        <ele>672.4</ele>
        <time>2026-08-07T15:57:37.000Z</time>
      </trkpt>
      <trkpt lat="45.84365" lon="2.05003">
        <ele>672.9</ele>
        <time>2026-08-07T15:57:42.000Z</time>
      </trkpt>
      <trkpt lat="45.8438" lon="2.04999">
        <ele>673.5</ele>
        <time>2026-08-07T15:57:49.000Z</time>
      </trkpt>
      <trkpt lat="45.84383" lon="2.04997">
        <ele>673.7</ele>
        <time>2026-08-07T15:57:51.000Z</time>
      </trkpt>
      <trkpt lat="45.84385" lon="2.04997">
        <ele>673.6</ele>
        <time>2026-08-07T15:57:52.000Z</time>
      </trkpt>
      <trkpt lat="45.84391" lon="2.04995">
        <ele>673.6</ele>
        <time>2026-08-07T15:57:55.000Z</time>
      </trkpt>
      <trkpt lat="45.84405" lon="2.04987">
        <ele>674.2</ele>
        <time>2026-08-07T15:58:01.000Z</time>
      </trkpt>
      <trkpt lat="45.84409" lon="2.04983">
        <ele>674.7</ele>
        <time>2026-08-07T15:58:03.000Z</time>
      </trkpt>
      <trkpt lat="45.84415" lon="2.04979">
        <ele>675.1</ele>
        <time>2026-08-07T15:58:06.000Z</time>
      </trkpt>
      <trkpt lat="45.84416" lon="2.04977">
        <ele>675.3</ele>
        <time>2026-08-07T15:58:07.000Z</time>
      </trkpt>
      <trkpt lat="45.84429" lon="2.0496">
        <ele>676.1</ele>
        <time>2026-08-07T15:58:13.000Z</time>
      </trkpt>
      <trkpt lat="45.8443" lon="2.04955">
        <ele>676.2</ele>
        <time>2026-08-07T15:58:15.000Z</time>
      </trkpt>
      <trkpt lat="45.84433" lon="2.04931">
        <ele>676</ele>
        <time>2026-08-07T15:58:22.000Z</time>
      </trkpt>
      <trkpt lat="45.84435" lon="2.04903">
        <ele>675.2</ele>
        <time>2026-08-07T15:58:27.000Z</time>
      </trkpt>
      <trkpt lat="45.84438" lon="2.04865">
        <ele>674</ele>
        <time>2026-08-07T15:58:33.000Z</time>
      </trkpt>
      <trkpt lat="45.84439" lon="2.04847">
        <ele>673.8</ele>
        <time>2026-08-07T15:58:35.000Z</time>
      </trkpt>
      <trkpt lat="45.84439" lon="2.04838">
        <ele>673.7</ele>
        <time>2026-08-07T15:58:36.000Z</time>
      </trkpt>
      <trkpt lat="45.8444" lon="2.04823">
        <ele>673.3</ele>
        <time>2026-08-07T15:58:38.000Z</time>
      </trkpt>
      <trkpt lat="45.84441" lon="2.04814">
        <ele>672.9</ele>
        <time>2026-08-07T15:58:39.000Z</time>
      </trkpt>
      <trkpt lat="45.84446" lon="2.04779">
        <ele>671.8</ele>
        <time>2026-08-07T15:58:43.000Z</time>
      </trkpt>
      <trkpt lat="45.84446" lon="2.04772">
        <ele>671.7</ele>
        <time>2026-08-07T15:58:44.000Z</time>
      </trkpt>
      <trkpt lat="45.84448" lon="2.04762">
        <ele>671.3</ele>
        <time>2026-08-07T15:58:45.000Z</time>
      </trkpt>
      <trkpt lat="45.84449" lon="2.0475">
        <ele>671.1</ele>
        <time>2026-08-07T15:58:46.000Z</time>
      </trkpt>
      <trkpt lat="45.84448" lon="2.0473">
        <ele>670</ele>
        <time>2026-08-07T15:58:48.000Z</time>
      </trkpt>
      <trkpt lat="45.84446" lon="2.04721">
        <ele>669.7</ele>
        <time>2026-08-07T15:58:49.000Z</time>
      </trkpt>
      <trkpt lat="45.84443" lon="2.04712">
        <ele>669.8</ele>
        <time>2026-08-07T15:58:50.000Z</time>
      </trkpt>
      <trkpt lat="45.84439" lon="2.04704">
        <ele>669.8</ele>
        <time>2026-08-07T15:58:51.000Z</time>
      </trkpt>
      <trkpt lat="45.84431" lon="2.0469">
        <ele>669.7</ele>
        <time>2026-08-07T15:58:53.000Z</time>
      </trkpt>
      <trkpt lat="45.84405" lon="2.0465">
        <ele>669.2</ele>
        <time>2026-08-07T15:58:59.000Z</time>
      </trkpt>
      <trkpt lat="45.84386" lon="2.04623">
        <ele>668.1</ele>
        <time>2026-08-07T15:59:03.000Z</time>
      </trkpt>
      <trkpt lat="45.84356" lon="2.04583">
        <ele>669.1</ele>
        <time>2026-08-07T15:59:10.000Z</time>
      </trkpt>
      <trkpt lat="45.84326" lon="2.04548">
        <ele>669.6</ele>
        <time>2026-08-07T15:59:17.000Z</time>
      </trkpt>
      <trkpt lat="45.84303" lon="2.0451">
        <ele>669.7</ele>
        <time>2026-08-07T15:59:24.000Z</time>
      </trkpt>
      <trkpt lat="45.8429" lon="2.04484">
        <ele>670</ele>
        <time>2026-08-07T15:59:30.000Z</time>
      </trkpt>
      <trkpt lat="45.84278" lon="2.04461">
        <ele>670.7</ele>
        <time>2026-08-07T15:59:36.000Z</time>
      </trkpt>
      <trkpt lat="45.84265" lon="2.04434">
        <ele>669.7</ele>
        <time>2026-08-07T15:59:42.000Z</time>
      </trkpt>
      <trkpt lat="45.84248" lon="2.04404">
        <ele>668.9</ele>
        <time>2026-08-07T15:59:47.000Z</time>
      </trkpt>
      <trkpt lat="45.84244" lon="2.04399">
        <ele>668.9</ele>
        <time>2026-08-07T15:59:48.000Z</time>
      </trkpt>
      <trkpt lat="45.84222" lon="2.04377">
        <ele>669.3</ele>
        <time>2026-08-07T15:59:53.000Z</time>
      </trkpt>
      <trkpt lat="45.84205" lon="2.04361">
        <ele>670.1</ele>
        <time>2026-08-07T15:59:58.000Z</time>
      </trkpt>
      <trkpt lat="45.84186" lon="2.04337">
        <ele>669.1</ele>
        <time>2026-08-07T16:00:05.000Z</time>
      </trkpt>
      <trkpt lat="45.84173" lon="2.04303">
        <ele>669.1</ele>
        <time>2026-08-07T16:00:11.000Z</time>
      </trkpt>
      <trkpt lat="45.84167" lon="2.04276">
        <ele>669.9</ele>
        <time>2026-08-07T16:00:17.000Z</time>
      </trkpt>
      <trkpt lat="45.84167" lon="2.04269">
        <ele>670</ele>
        <time>2026-08-07T16:00:19.000Z</time>
      </trkpt>
      <trkpt lat="45.84167" lon="2.04261">
        <ele>669.9</ele>
        <time>2026-08-07T16:00:21.000Z</time>
      </trkpt>
      <trkpt lat="45.84163" lon="2.04233">
        <ele>669.9</ele>
        <time>2026-08-07T16:00:27.000Z</time>
      </trkpt>
      <trkpt lat="45.84157" lon="2.04197">
        <ele>669.9</ele>
        <time>2026-08-07T16:00:33.000Z</time>
      </trkpt>
      <trkpt lat="45.84155" lon="2.04182">
        <ele>669.6</ele>
        <time>2026-08-07T16:00:35.000Z</time>
      </trkpt>
      <trkpt lat="45.84155" lon="2.04169">
        <ele>668.9</ele>
        <time>2026-08-07T16:00:37.000Z</time>
      </trkpt>
      <trkpt lat="45.84157" lon="2.04162">
        <ele>668.9</ele>
        <time>2026-08-07T16:00:38.000Z</time>
      </trkpt>
      <trkpt lat="45.8416" lon="2.0415">
        <ele>669.2</ele>
        <time>2026-08-07T16:00:40.000Z</time>
      </trkpt>
      <trkpt lat="45.84164" lon="2.04132">
        <ele>670.2</ele>
        <time>2026-08-07T16:00:43.000Z</time>
      </trkpt>
      <trkpt lat="45.84165" lon="2.04125">
        <ele>670.4</ele>
        <time>2026-08-07T16:00:44.000Z</time>
      </trkpt>
      <trkpt lat="45.84164" lon="2.04107">
        <ele>670.9</ele>
        <time>2026-08-07T16:00:48.000Z</time>
      </trkpt>
      <trkpt lat="45.84164" lon="2.04092">
        <ele>671.4</ele>
        <time>2026-08-07T16:00:53.000Z</time>
      </trkpt>
      <trkpt lat="45.84163" lon="2.04084">
        <ele>671.6</ele>
        <time>2026-08-07T16:00:56.000Z</time>
      </trkpt>
      <trkpt lat="45.84162" lon="2.0407">
        <ele>672.4</ele>
        <time>2026-08-07T16:01:02.000Z</time>
      </trkpt>
      <trkpt lat="45.84162" lon="2.04068">
        <ele>672.6</ele>
        <time>2026-08-07T16:01:03.000Z</time>
      </trkpt>
      <trkpt lat="45.84163" lon="2.04064">
        <ele>672.9</ele>
        <time>2026-08-07T16:01:05.000Z</time>
      </trkpt>
      <trkpt lat="45.84162" lon="2.04061">
        <ele>673</ele>
        <time>2026-08-07T16:01:07.000Z</time>
      </trkpt>
      <trkpt lat="45.84163" lon="2.04057">
        <ele>673.3</ele>
        <time>2026-08-07T16:01:09.000Z</time>
      </trkpt>
      <trkpt lat="45.84162" lon="2.04055">
        <ele>673.4</ele>
        <time>2026-08-07T16:01:10.000Z</time>
      </trkpt>
      <trkpt lat="45.84162" lon="2.04054">
        <ele>673.5</ele>
        <time>2026-08-07T16:01:11.000Z</time>
      </trkpt>
      <trkpt lat="45.84163" lon="2.04052">
        <ele>673.6</ele>
        <time>2026-08-07T16:01:12.000Z</time>
      </trkpt>
      <trkpt lat="45.84162" lon="2.04045">
        <ele>674.2</ele>
        <time>2026-08-07T16:01:15.000Z</time>
      </trkpt>
      <trkpt lat="45.84162" lon="2.04028">
        <ele>675.3</ele>
        <time>2026-08-07T16:01:23.000Z</time>
      </trkpt>
      <trkpt lat="45.84162" lon="2.04026">
        <ele>675.5</ele>
        <time>2026-08-07T16:01:24.000Z</time>
      </trkpt>
      <trkpt lat="45.84162" lon="2.04021">
        <ele>675.7</ele>
        <time>2026-08-07T16:01:26.000Z</time>
      </trkpt>
      <trkpt lat="45.84162" lon="2.04005">
        <ele>676.2</ele>
        <time>2026-08-07T16:01:32.000Z</time>
      </trkpt>
      <trkpt lat="45.84161" lon="2.03985">
        <ele>676.6</ele>
        <time>2026-08-07T16:01:40.000Z</time>
      </trkpt>
      <trkpt lat="45.84161" lon="2.03979">
        <ele>676.7</ele>
        <time>2026-08-07T16:01:42.000Z</time>
      </trkpt>
      <trkpt lat="45.84157" lon="2.03956">
        <ele>676.3</ele>
        <time>2026-08-07T16:01:49.000Z</time>
      </trkpt>
      <trkpt lat="45.84145" lon="2.03932">
        <ele>676</ele>
        <time>2026-08-07T16:01:57.000Z</time>
      </trkpt>
      <trkpt lat="45.84142" lon="2.03923">
        <ele>676</ele>
        <time>2026-08-07T16:02:02.000Z</time>
      </trkpt>
      <trkpt lat="45.84138" lon="2.03901">
        <ele>676.5</ele>
        <time>2026-08-07T16:02:09.000Z</time>
      </trkpt>
      <trkpt lat="45.8413" lon="2.0388">
        <ele>677.3</ele>
        <time>2026-08-07T16:02:17.000Z</time>
      </trkpt>
      <trkpt lat="45.84128" lon="2.03866">
        <ele>678.3</ele>
        <time>2026-08-07T16:02:22.000Z</time>
      </trkpt>
      <trkpt lat="45.84127" lon="2.0386">
        <ele>678.6</ele>
        <time>2026-08-07T16:02:24.000Z</time>
      </trkpt>
      <trkpt lat="45.84124" lon="2.03852">
        <ele>679.1</ele>
        <time>2026-08-07T16:02:28.000Z</time>
      </trkpt>
      <trkpt lat="45.84123" lon="2.03841">
        <ele>679.7</ele>
        <time>2026-08-07T16:02:33.000Z</time>
      </trkpt>
      <trkpt lat="45.84122" lon="2.03837">
        <ele>680</ele>
        <time>2026-08-07T16:02:36.000Z</time>
      </trkpt>
      <trkpt lat="45.84123" lon="2.03832">
        <ele>680.3</ele>
        <time>2026-08-07T16:02:39.000Z</time>
      </trkpt>
      <trkpt lat="45.84122" lon="2.03827">
        <ele>680.4</ele>
        <time>2026-08-07T16:02:41.000Z</time>
      </trkpt>
      <trkpt lat="45.84122" lon="2.03823">
        <ele>680.5</ele>
        <time>2026-08-07T16:02:43.000Z</time>
      </trkpt>
      <trkpt lat="45.84117" lon="2.03797">
        <ele>681.1</ele>
        <time>2026-08-07T16:02:52.000Z</time>
      </trkpt>
      <trkpt lat="45.84115" lon="2.03786">
        <ele>681.6</ele>
        <time>2026-08-07T16:02:56.000Z</time>
      </trkpt>
      <trkpt lat="45.84113" lon="2.03778">
        <ele>682.1</ele>
        <time>2026-08-07T16:02:59.000Z</time>
      </trkpt>
      <trkpt lat="45.84108" lon="2.03759">
        <ele>683</ele>
        <time>2026-08-07T16:03:06.000Z</time>
      </trkpt>
      <trkpt lat="45.84108" lon="2.03756">
        <ele>683.1</ele>
        <time>2026-08-07T16:03:07.000Z</time>
      </trkpt>
      <trkpt lat="45.84106" lon="2.03744">
        <ele>683.8</ele>
        <time>2026-08-07T16:03:12.000Z</time>
      </trkpt>
      <trkpt lat="45.84105" lon="2.03739">
        <ele>684.2</ele>
        <time>2026-08-07T16:03:15.000Z</time>
      </trkpt>
      <trkpt lat="45.84105" lon="2.03729">
        <ele>685.1</ele>
        <time>2026-08-07T16:03:20.000Z</time>
      </trkpt>
      <trkpt lat="45.84105" lon="2.03725">
        <ele>685.5</ele>
        <time>2026-08-07T16:03:22.000Z</time>
      </trkpt>
      <trkpt lat="45.84106" lon="2.03723">
        <ele>685.8</ele>
        <time>2026-08-07T16:03:23.000Z</time>
      </trkpt>
      <trkpt lat="45.84105" lon="2.03712">
        <ele>686.1</ele>
        <time>2026-08-07T16:03:28.000Z</time>
      </trkpt>
      <trkpt lat="45.84105" lon="2.03708">
        <ele>686.3</ele>
        <time>2026-08-07T16:03:30.000Z</time>
      </trkpt>
      <trkpt lat="45.84106" lon="2.03692">
        <ele>687</ele>
        <time>2026-08-07T16:03:37.000Z</time>
      </trkpt>
      <trkpt lat="45.84105" lon="2.03683">
        <ele>687.1</ele>
        <time>2026-08-07T16:03:40.000Z</time>
      </trkpt>
      <trkpt lat="45.84105" lon="2.03673">
        <ele>687.4</ele>
        <time>2026-08-07T16:03:44.000Z</time>
      </trkpt>
      <trkpt lat="45.84105" lon="2.03669">
        <ele>687.7</ele>
        <time>2026-08-07T16:03:46.000Z</time>
      </trkpt>
      <trkpt lat="45.84105" lon="2.03658">
        <ele>687.9</ele>
        <time>2026-08-07T16:03:50.000Z</time>
      </trkpt>
      <trkpt lat="45.84106" lon="2.03652">
        <ele>688</ele>
        <time>2026-08-07T16:03:52.000Z</time>
      </trkpt>
      <trkpt lat="45.84108" lon="2.03635">
        <ele>688.4</ele>
        <time>2026-08-07T16:03:58.000Z</time>
      </trkpt>
      <trkpt lat="45.84109" lon="2.03631">
        <ele>688.5</ele>
        <time>2026-08-07T16:04:00.000Z</time>
      </trkpt>
      <trkpt lat="45.84112" lon="2.03613">
        <ele>688.4</ele>
        <time>2026-08-07T16:04:07.000Z</time>
      </trkpt>
      <trkpt lat="45.84113" lon="2.03596">
        <ele>689.1</ele>
        <time>2026-08-07T16:04:14.000Z</time>
      </trkpt>
      <trkpt lat="45.84113" lon="2.03593">
        <ele>689.1</ele>
        <time>2026-08-07T16:04:15.000Z</time>
      </trkpt>
      <trkpt lat="45.84109" lon="2.0358">
        <ele>689.3</ele>
        <time>2026-08-07T16:04:20.000Z</time>
      </trkpt>
      <trkpt lat="45.84104" lon="2.03574">
        <ele>689.7</ele>
        <time>2026-08-07T16:04:23.000Z</time>
      </trkpt>
      <trkpt lat="45.84099" lon="2.03571">
        <ele>690.1</ele>
        <time>2026-08-07T16:04:26.000Z</time>
      </trkpt>
      <trkpt lat="45.84093" lon="2.03566">
        <ele>690.7</ele>
        <time>2026-08-07T16:04:29.000Z</time>
      </trkpt>
      <trkpt lat="45.84086" lon="2.03563">
        <ele>691.1</ele>
        <time>2026-08-07T16:04:33.000Z</time>
      </trkpt>
      <trkpt lat="45.84078" lon="2.03559">
        <ele>691.9</ele>
        <time>2026-08-07T16:04:39.000Z</time>
      </trkpt>
      <trkpt lat="45.84076" lon="2.03559">
        <ele>692</ele>
        <time>2026-08-07T16:04:40.000Z</time>
      </trkpt>
      <trkpt lat="45.84062" lon="2.03554">
        <ele>692.8</ele>
        <time>2026-08-07T16:04:48.000Z</time>
      </trkpt>
      <trkpt lat="45.84055" lon="2.03542">
        <ele>693.5</ele>
        <time>2026-08-07T16:04:55.000Z</time>
      </trkpt>
      <trkpt lat="45.84053" lon="2.03538">
        <ele>693.8</ele>
        <time>2026-08-07T16:04:57.000Z</time>
      </trkpt>
      <trkpt lat="45.84052" lon="2.03528">
        <ele>694.3</ele>
        <time>2026-08-07T16:05:02.000Z</time>
      </trkpt>
      <trkpt lat="45.84053" lon="2.03524">
        <ele>694.6</ele>
        <time>2026-08-07T16:05:04.000Z</time>
      </trkpt>
      <trkpt lat="45.84053" lon="2.03519">
        <ele>695.1</ele>
        <time>2026-08-07T16:05:06.000Z</time>
      </trkpt>
      <trkpt lat="45.84054" lon="2.03517">
        <ele>695.3</ele>
        <time>2026-08-07T16:05:07.000Z</time>
      </trkpt>
      <trkpt lat="45.8406" lon="2.03505">
        <ele>696</ele>
        <time>2026-08-07T16:05:13.000Z</time>
      </trkpt>
      <trkpt lat="45.84062" lon="2.03502">
        <ele>696.2</ele>
        <time>2026-08-07T16:05:15.000Z</time>
      </trkpt>
      <trkpt lat="45.84065" lon="2.03497">
        <ele>696.4</ele>
        <time>2026-08-07T16:05:18.000Z</time>
      </trkpt>
      <trkpt lat="45.84068" lon="2.03495">
        <ele>696.5</ele>
        <time>2026-08-07T16:05:20.000Z</time>
      </trkpt>
      <trkpt lat="45.8407" lon="2.03491">
        <ele>696.7</ele>
        <time>2026-08-07T16:05:22.000Z</time>
      </trkpt>
      <trkpt lat="45.84081" lon="2.03479">
        <ele>697.3</ele>
        <time>2026-08-07T16:05:30.000Z</time>
      </trkpt>
      <trkpt lat="45.84082" lon="2.03478">
        <ele>697.4</ele>
        <time>2026-08-07T16:05:31.000Z</time>
      </trkpt>
      <trkpt lat="45.84089" lon="2.03465">
        <ele>698.4</ele>
        <time>2026-08-07T16:05:37.000Z</time>
      </trkpt>
      <trkpt lat="45.84096" lon="2.03453">
        <ele>699.1</ele>
        <time>2026-08-07T16:05:43.000Z</time>
      </trkpt>
      <trkpt lat="45.84101" lon="2.03445">
        <ele>699.4</ele>
        <time>2026-08-07T16:05:47.000Z</time>
      </trkpt>
      <trkpt lat="45.84107" lon="2.03435">
        <ele>700</ele>
        <time>2026-08-07T16:05:52.000Z</time>
      </trkpt>
      <trkpt lat="45.8411" lon="2.03432">
        <ele>700</ele>
        <time>2026-08-07T16:05:54.000Z</time>
      </trkpt>
      <trkpt lat="45.84121" lon="2.03423">
        <ele>701.2</ele>
        <time>2026-08-07T16:06:01.000Z</time>
      </trkpt>
      <trkpt lat="45.84126" lon="2.03421">
        <ele>701.4</ele>
        <time>2026-08-07T16:06:04.000Z</time>
      </trkpt>
      <trkpt lat="45.84133" lon="2.03421">
        <ele>701.5</ele>
        <time>2026-08-07T16:06:08.000Z</time>
      </trkpt>
      <trkpt lat="45.84144" lon="2.03423">
        <ele>701.8</ele>
        <time>2026-08-07T16:06:14.000Z</time>
      </trkpt>
      <trkpt lat="45.84148" lon="2.03425">
        <ele>702</ele>
        <time>2026-08-07T16:06:17.000Z</time>
      </trkpt>
      <trkpt lat="45.84153" lon="2.03426">
        <ele>702.3</ele>
        <time>2026-08-07T16:06:20.000Z</time>
      </trkpt>
      <trkpt lat="45.84157" lon="2.03428">
        <ele>702.5</ele>
        <time>2026-08-07T16:06:23.000Z</time>
      </trkpt>
      <trkpt lat="45.84173" lon="2.03433">
        <ele>703.3</ele>
        <time>2026-08-07T16:06:32.000Z</time>
      </trkpt>
      <trkpt lat="45.84175" lon="2.03433">
        <ele>703.4</ele>
        <time>2026-08-07T16:06:33.000Z</time>
      </trkpt>
      <trkpt lat="45.84194" lon="2.0344">
        <ele>704.4</ele>
        <time>2026-08-07T16:06:41.000Z</time>
      </trkpt>
      <trkpt lat="45.84206" lon="2.03441">
        <ele>704.8</ele>
        <time>2026-08-07T16:06:46.000Z</time>
      </trkpt>
      <trkpt lat="45.84214" lon="2.0344">
        <ele>705.1</ele>
        <time>2026-08-07T16:06:50.000Z</time>
      </trkpt>
      <trkpt lat="45.84222" lon="2.03438">
        <ele>705.7</ele>
        <time>2026-08-07T16:06:55.000Z</time>
      </trkpt>
      <trkpt lat="45.84226" lon="2.03437">
        <ele>705.9</ele>
        <time>2026-08-07T16:06:58.000Z</time>
      </trkpt>
      <trkpt lat="45.84236" lon="2.03436">
        <ele>706.4</ele>
        <time>2026-08-07T16:07:04.000Z</time>
      </trkpt>
      <trkpt lat="45.84252" lon="2.03434">
        <ele>707.3</ele>
        <time>2026-08-07T16:07:12.000Z</time>
      </trkpt>
      <trkpt lat="45.84256" lon="2.03433">
        <ele>707.5</ele>
        <time>2026-08-07T16:07:14.000Z</time>
      </trkpt>
      <trkpt lat="45.84276" lon="2.0343">
        <ele>709</ele>
        <time>2026-08-07T16:07:24.000Z</time>
      </trkpt>
      <trkpt lat="45.84282" lon="2.0343">
        <ele>709.3</ele>
        <time>2026-08-07T16:07:27.000Z</time>
      </trkpt>
      <trkpt lat="45.84298" lon="2.03431">
        <ele>710</ele>
        <time>2026-08-07T16:07:35.000Z</time>
      </trkpt>
      <trkpt lat="45.84303" lon="2.03433">
        <ele>710.3</ele>
        <time>2026-08-07T16:07:38.000Z</time>
      </trkpt>
      <trkpt lat="45.84314" lon="2.0344">
        <ele>711.3</ele>
        <time>2026-08-07T16:07:44.000Z</time>
      </trkpt>
      <trkpt lat="45.84322" lon="2.0345">
        <ele>712.1</ele>
        <time>2026-08-07T16:07:51.000Z</time>
      </trkpt>
      <trkpt lat="45.84323" lon="2.03452">
        <ele>712.2</ele>
        <time>2026-08-07T16:07:52.000Z</time>
      </trkpt>
      <trkpt lat="45.84323" lon="2.03453">
        <ele>712.3</ele>
        <time>2026-08-07T16:07:53.000Z</time>
      </trkpt>
      <trkpt lat="45.84328" lon="2.0346">
        <ele>712.7</ele>
        <time>2026-08-07T16:07:58.000Z</time>
      </trkpt>
      <trkpt lat="45.84331" lon="2.03467">
        <ele>712.8</ele>
        <time>2026-08-07T16:08:01.000Z</time>
      </trkpt>
      <trkpt lat="45.84335" lon="2.03475">
        <ele>713</ele>
        <time>2026-08-07T16:08:06.000Z</time>
      </trkpt>
      <trkpt lat="45.8434" lon="2.03484">
        <ele>713.2</ele>
        <time>2026-08-07T16:08:11.000Z</time>
      </trkpt>
      <trkpt lat="45.84348" lon="2.03495">
        <ele>713.4</ele>
        <time>2026-08-07T16:08:16.000Z</time>
      </trkpt>
      <trkpt lat="45.84356" lon="2.03505">
        <ele>713.8</ele>
        <time>2026-08-07T16:08:22.000Z</time>
      </trkpt>
      <trkpt lat="45.84359" lon="2.03508">
        <ele>714.1</ele>
        <time>2026-08-07T16:08:24.000Z</time>
      </trkpt>
      <trkpt lat="45.84362" lon="2.0351">
        <ele>714.4</ele>
        <time>2026-08-07T16:08:26.000Z</time>
      </trkpt>
      <trkpt lat="45.84375" lon="2.03513">
        <ele>715.8</ele>
        <time>2026-08-07T16:08:33.000Z</time>
      </trkpt>
      <trkpt lat="45.84379" lon="2.03513">
        <ele>716.4</ele>
        <time>2026-08-07T16:08:36.000Z</time>
      </trkpt>
      <trkpt lat="45.84383" lon="2.0351">
        <ele>716.9</ele>
        <time>2026-08-07T16:08:38.000Z</time>
      </trkpt>
      <trkpt lat="45.84387" lon="2.03505">
        <ele>717.6</ele>
        <time>2026-08-07T16:08:41.000Z</time>
      </trkpt>
      <trkpt lat="45.84388" lon="2.03503">
        <ele>717.8</ele>
        <time>2026-08-07T16:08:42.000Z</time>
      </trkpt>
      <trkpt lat="45.84389" lon="2.03499">
        <ele>718.1</ele>
        <time>2026-08-07T16:08:44.000Z</time>
      </trkpt>
      <trkpt lat="45.84394" lon="2.03481">
        <ele>719.6</ele>
        <time>2026-08-07T16:08:52.000Z</time>
      </trkpt>
      <trkpt lat="45.84394" lon="2.03471">
        <ele>720</ele>
        <time>2026-08-07T16:08:56.000Z</time>
      </trkpt>
      <trkpt lat="45.84393" lon="2.03465">
        <ele>720.2</ele>
        <time>2026-08-07T16:08:59.000Z</time>
      </trkpt>
      <trkpt lat="45.84389" lon="2.03448">
        <ele>720.7</ele>
        <time>2026-08-07T16:09:06.000Z</time>
      </trkpt>
      <trkpt lat="45.84386" lon="2.03432">
        <ele>721.1</ele>
        <time>2026-08-07T16:09:13.000Z</time>
      </trkpt>
      <trkpt lat="45.84383" lon="2.03415">
        <ele>721.3</ele>
        <time>2026-08-07T16:09:20.000Z</time>
      </trkpt>
      <trkpt lat="45.84382" lon="2.03407">
        <ele>721.2</ele>
        <time>2026-08-07T16:09:23.000Z</time>
      </trkpt>
      <trkpt lat="45.8438" lon="2.03401">
        <ele>721</ele>
        <time>2026-08-07T16:09:26.000Z</time>
      </trkpt>
      <trkpt lat="45.84378" lon="2.03393">
        <ele>720.9</ele>
        <time>2026-08-07T16:09:29.000Z</time>
      </trkpt>
      <trkpt lat="45.84376" lon="2.03381">
        <ele>720.9</ele>
        <time>2026-08-07T16:09:34.000Z</time>
      </trkpt>
      <trkpt lat="45.84371" lon="2.03361">
        <ele>721</ele>
        <time>2026-08-07T16:09:42.000Z</time>
      </trkpt>
      <trkpt lat="45.8437" lon="2.03359">
        <ele>721.1</ele>
        <time>2026-08-07T16:09:43.000Z</time>
      </trkpt>
      <trkpt lat="45.84367" lon="2.03349">
        <ele>721.4</ele>
        <time>2026-08-07T16:09:47.000Z</time>
      </trkpt>
      <trkpt lat="45.84359" lon="2.03329">
        <ele>722.1</ele>
        <time>2026-08-07T16:09:55.000Z</time>
      </trkpt>
      <trkpt lat="45.84358" lon="2.03327">
        <ele>722.1</ele>
        <time>2026-08-07T16:09:56.000Z</time>
      </trkpt>
      <trkpt lat="45.84354" lon="2.03307">
        <ele>722.7</ele>
        <time>2026-08-07T16:10:03.000Z</time>
      </trkpt>
      <trkpt lat="45.84353" lon="2.03285">
        <ele>723.2</ele>
        <time>2026-08-07T16:10:11.000Z</time>
      </trkpt>
      <trkpt lat="45.84354" lon="2.03277">
        <ele>723.5</ele>
        <time>2026-08-07T16:10:14.000Z</time>
      </trkpt>
      <trkpt lat="45.84356" lon="2.03257">
        <ele>723.6</ele>
        <time>2026-08-07T16:10:21.000Z</time>
      </trkpt>
      <trkpt lat="45.84362" lon="2.03236">
        <ele>723.5</ele>
        <time>2026-08-07T16:10:30.000Z</time>
      </trkpt>
      <trkpt lat="45.84363" lon="2.03231">
        <ele>723.5</ele>
        <time>2026-08-07T16:10:32.000Z</time>
      </trkpt>
      <trkpt lat="45.84369" lon="2.03212">
        <ele>723.6</ele>
        <time>2026-08-07T16:10:38.000Z</time>
      </trkpt>
      <trkpt lat="45.84378" lon="2.03186">
        <ele>723.4</ele>
        <time>2026-08-07T16:10:46.000Z</time>
      </trkpt>
      <trkpt lat="45.84387" lon="2.03159">
        <ele>723.3</ele>
        <time>2026-08-07T16:10:54.000Z</time>
      </trkpt>
      <trkpt lat="45.84398" lon="2.03126">
        <ele>722.6</ele>
        <time>2026-08-07T16:11:02.000Z</time>
      </trkpt>
      <trkpt lat="45.84411" lon="2.03089">
        <ele>722</ele>
        <time>2026-08-07T16:11:10.000Z</time>
      </trkpt>
      <trkpt lat="45.84418" lon="2.03075">
        <ele>721.8</ele>
        <time>2026-08-07T16:11:13.000Z</time>
      </trkpt>
      <trkpt lat="45.8443" lon="2.03055">
        <ele>721.5</ele>
        <time>2026-08-07T16:11:18.000Z</time>
      </trkpt>
      <trkpt lat="45.84439" lon="2.03043">
        <ele>721.3</ele>
        <time>2026-08-07T16:11:21.000Z</time>
      </trkpt>
      <trkpt lat="45.84452" lon="2.03027">
        <ele>721.2</ele>
        <time>2026-08-07T16:11:26.000Z</time>
      </trkpt>
      <trkpt lat="45.84466" lon="2.03001">
        <ele>720.8</ele>
        <time>2026-08-07T16:11:33.000Z</time>
      </trkpt>
      <trkpt lat="45.84479" lon="2.02959">
        <ele>721.4</ele>
        <time>2026-08-07T16:11:43.000Z</time>
      </trkpt>
      <trkpt lat="45.84491" lon="2.02919">
        <ele>722.2</ele>
        <time>2026-08-07T16:11:53.000Z</time>
      </trkpt>
      <trkpt lat="45.84504" lon="2.02878">
        <ele>721.8</ele>
        <time>2026-08-07T16:12:03.000Z</time>
      </trkpt>
      <trkpt lat="45.84518" lon="2.02852">
        <ele>721.6</ele>
        <time>2026-08-07T16:12:11.000Z</time>
      </trkpt>
      <trkpt lat="45.84534" lon="2.02838">
        <ele>721.6</ele>
        <time>2026-08-07T16:12:17.000Z</time>
      </trkpt>
      <trkpt lat="45.84555" lon="2.02829">
        <ele>721.3</ele>
        <time>2026-08-07T16:12:24.000Z</time>
      </trkpt>
      <trkpt lat="45.84573" lon="2.02831">
        <ele>721.8</ele>
        <time>2026-08-07T16:12:30.000Z</time>
      </trkpt>
      <trkpt lat="45.84576" lon="2.02832">
        <ele>721.8</ele>
        <time>2026-08-07T16:12:31.000Z</time>
      </trkpt>
      <trkpt lat="45.84602" lon="2.02836">
        <ele>722.5</ele>
        <time>2026-08-07T16:12:39.000Z</time>
      </trkpt>
      <trkpt lat="45.84611" lon="2.02837">
        <ele>722.8</ele>
        <time>2026-08-07T16:12:42.000Z</time>
      </trkpt>
      <trkpt lat="45.84627" lon="2.02841">
        <ele>723</ele>
        <time>2026-08-07T16:12:47.000Z</time>
      </trkpt>
      <trkpt lat="45.84641" lon="2.02844">
        <ele>723.4</ele>
        <time>2026-08-07T16:12:53.000Z</time>
      </trkpt>
      <trkpt lat="45.84645" lon="2.02845">
        <ele>723.4</ele>
        <time>2026-08-07T16:12:55.000Z</time>
      </trkpt>
      <trkpt lat="45.84649" lon="2.02846">
        <ele>723.4</ele>
        <time>2026-08-07T16:12:57.000Z</time>
      </trkpt>
      <trkpt lat="45.84665" lon="2.02851">
        <ele>723.7</ele>
        <time>2026-08-07T16:13:04.000Z</time>
      </trkpt>
      <trkpt lat="45.84671" lon="2.02853">
        <ele>723.7</ele>
        <time>2026-08-07T16:13:06.000Z</time>
      </trkpt>
      <trkpt lat="45.84681" lon="2.02856">
        <ele>723.9</ele>
        <time>2026-08-07T16:13:09.000Z</time>
      </trkpt>
      <trkpt lat="45.84698" lon="2.02859">
        <ele>724.2</ele>
        <time>2026-08-07T16:13:14.000Z</time>
      </trkpt>
      <trkpt lat="45.8472" lon="2.02848">
        <ele>724.9</ele>
        <time>2026-08-07T16:13:20.000Z</time>
      </trkpt>
      <trkpt lat="45.84734" lon="2.0283">
        <ele>725</ele>
        <time>2026-08-07T16:13:25.000Z</time>
      </trkpt>
      <trkpt lat="45.84755" lon="2.02805">
        <ele>725.1</ele>
        <time>2026-08-07T16:13:33.000Z</time>
      </trkpt>
      <trkpt lat="45.84758" lon="2.02802">
        <ele>725</ele>
        <time>2026-08-07T16:13:34.000Z</time>
      </trkpt>
      <trkpt lat="45.84782" lon="2.02772">
        <ele>724.9</ele>
        <time>2026-08-07T16:13:44.000Z</time>
      </trkpt>
      <trkpt lat="45.84802" lon="2.02755">
        <ele>724.6</ele>
        <time>2026-08-07T16:13:51.000Z</time>
      </trkpt>
      <trkpt lat="45.84827" lon="2.02743">
        <ele>724.5</ele>
        <time>2026-08-07T16:13:59.000Z</time>
      </trkpt>
      <trkpt lat="45.84862" lon="2.02727">
        <ele>723</ele>
        <time>2026-08-07T16:14:08.000Z</time>
      </trkpt>
      <trkpt lat="45.84872" lon="2.02721">
        <ele>722.6</ele>
        <time>2026-08-07T16:14:10.000Z</time>
      </trkpt>
      <trkpt lat="45.84884" lon="2.02711">
        <ele>721.9</ele>
        <time>2026-08-07T16:14:12.000Z</time>
      </trkpt>
      <trkpt lat="45.84889" lon="2.02705">
        <ele>721.4</ele>
        <time>2026-08-07T16:14:13.000Z</time>
      </trkpt>
      <trkpt lat="45.84898" lon="2.02687">
        <ele>720.1</ele>
        <time>2026-08-07T16:14:15.000Z</time>
      </trkpt>
      <trkpt lat="45.849" lon="2.02676">
        <ele>719.5</ele>
        <time>2026-08-07T16:14:16.000Z</time>
      </trkpt>
      <trkpt lat="45.84902" lon="2.02665">
        <ele>719</ele>
        <time>2026-08-07T16:14:17.000Z</time>
      </trkpt>
      <trkpt lat="45.84903" lon="2.02628">
        <ele>716.9</ele>
        <time>2026-08-07T16:14:20.000Z</time>
      </trkpt>
      <trkpt lat="45.84903" lon="2.02602">
        <ele>715.6</ele>
        <time>2026-08-07T16:14:22.000Z</time>
      </trkpt>
      <trkpt lat="45.84903" lon="2.02562">
        <ele>714.2</ele>
        <time>2026-08-07T16:14:25.000Z</time>
      </trkpt>
      <trkpt lat="45.84903" lon="2.02535">
        <ele>712.9</ele>
        <time>2026-08-07T16:14:27.000Z</time>
      </trkpt>
      <trkpt lat="45.84903" lon="2.02522">
        <ele>712.3</ele>
        <time>2026-08-07T16:14:28.000Z</time>
      </trkpt>
      <trkpt lat="45.84902" lon="2.02496">
        <ele>711.4</ele>
        <time>2026-08-07T16:14:30.000Z</time>
      </trkpt>
      <trkpt lat="45.84902" lon="2.0247">
        <ele>710.5</ele>
        <time>2026-08-07T16:14:32.000Z</time>
      </trkpt>
      <trkpt lat="45.84898" lon="2.0243">
        <ele>708.8</ele>
        <time>2026-08-07T16:14:35.000Z</time>
      </trkpt>
      <trkpt lat="45.84896" lon="2.02416">
        <ele>708</ele>
        <time>2026-08-07T16:14:36.000Z</time>
      </trkpt>
      <trkpt lat="45.8489" lon="2.0239">
        <ele>706.1</ele>
        <time>2026-08-07T16:14:38.000Z</time>
      </trkpt>
      <trkpt lat="45.84887" lon="2.02377">
        <ele>705.3</ele>
        <time>2026-08-07T16:14:39.000Z</time>
      </trkpt>
      <trkpt lat="45.84884" lon="2.02363">
        <ele>704.5</ele>
        <time>2026-08-07T16:14:40.000Z</time>
      </trkpt>
      <trkpt lat="45.84877" lon="2.02336">
        <ele>703.5</ele>
        <time>2026-08-07T16:14:42.000Z</time>
      </trkpt>
      <trkpt lat="45.84869" lon="2.02311">
        <ele>701.7</ele>
        <time>2026-08-07T16:14:44.000Z</time>
      </trkpt>
      <trkpt lat="45.84865" lon="2.02298">
        <ele>701.1</ele>
        <time>2026-08-07T16:14:45.000Z</time>
      </trkpt>
      <trkpt lat="45.84861" lon="2.02287">
        <ele>700.7</ele>
        <time>2026-08-07T16:14:46.000Z</time>
      </trkpt>
      <trkpt lat="45.84854" lon="2.02264">
        <ele>699.4</ele>
        <time>2026-08-07T16:14:48.000Z</time>
      </trkpt>
      <trkpt lat="45.84846" lon="2.02241">
        <ele>698</ele>
        <time>2026-08-07T16:14:50.000Z</time>
      </trkpt>
      <trkpt lat="45.84839" lon="2.02219">
        <ele>696.2</ele>
        <time>2026-08-07T16:14:52.000Z</time>
      </trkpt>
      <trkpt lat="45.84835" lon="2.02208">
        <ele>695.8</ele>
        <time>2026-08-07T16:14:53.000Z</time>
      </trkpt>
      <trkpt lat="45.8483" lon="2.02198">
        <ele>695.7</ele>
        <time>2026-08-07T16:14:54.000Z</time>
      </trkpt>
      <trkpt lat="45.84825" lon="2.02188">
        <ele>695</ele>
        <time>2026-08-07T16:14:55.000Z</time>
      </trkpt>
      <trkpt lat="45.8482" lon="2.02179">
        <ele>694</ele>
        <time>2026-08-07T16:14:56.000Z</time>
      </trkpt>
      <trkpt lat="45.84807" lon="2.02155">
        <ele>692.1</ele>
        <time>2026-08-07T16:14:59.000Z</time>
      </trkpt>
      <trkpt lat="45.84796" lon="2.02141">
        <ele>691.7</ele>
        <time>2026-08-07T16:15:01.000Z</time>
      </trkpt>
      <trkpt lat="45.84785" lon="2.02124">
        <ele>690.4</ele>
        <time>2026-08-07T16:15:03.000Z</time>
      </trkpt>
      <trkpt lat="45.84767" lon="2.02098">
        <ele>688.1</ele>
        <time>2026-08-07T16:15:06.000Z</time>
      </trkpt>
      <trkpt lat="45.84762" lon="2.02089">
        <ele>687.3</ele>
        <time>2026-08-07T16:15:07.000Z</time>
      </trkpt>
      <trkpt lat="45.84753" lon="2.0207">
        <ele>686.1</ele>
        <time>2026-08-07T16:15:09.000Z</time>
      </trkpt>
      <trkpt lat="45.84749" lon="2.02049">
        <ele>684.8</ele>
        <time>2026-08-07T16:15:11.000Z</time>
      </trkpt>
      <trkpt lat="45.84751" lon="2.02037">
        <ele>684.2</ele>
        <time>2026-08-07T16:15:12.000Z</time>
      </trkpt>
      <trkpt lat="45.84755" lon="2.02026">
        <ele>683.3</ele>
        <time>2026-08-07T16:15:13.000Z</time>
      </trkpt>
      <trkpt lat="45.84764" lon="2.02005">
        <ele>682.8</ele>
        <time>2026-08-07T16:15:15.000Z</time>
      </trkpt>
      <trkpt lat="45.84767" lon="2.01995">
        <ele>682.5</ele>
        <time>2026-08-07T16:15:16.000Z</time>
      </trkpt>
      <trkpt lat="45.8477" lon="2.01984">
        <ele>681.8</ele>
        <time>2026-08-07T16:15:17.000Z</time>
      </trkpt>
      <trkpt lat="45.84774" lon="2.01959">
        <ele>680.2</ele>
        <time>2026-08-07T16:15:19.000Z</time>
      </trkpt>
      <trkpt lat="45.84777" lon="2.01946">
        <ele>679.2</ele>
        <time>2026-08-07T16:15:20.000Z</time>
      </trkpt>
      <trkpt lat="45.84781" lon="2.01935">
        <ele>678.4</ele>
        <time>2026-08-07T16:15:21.000Z</time>
      </trkpt>
      <trkpt lat="45.84792" lon="2.019">
        <ele>675.8</ele>
        <time>2026-08-07T16:15:24.000Z</time>
      </trkpt>
      <trkpt lat="45.84796" lon="2.01889">
        <ele>675.3</ele>
        <time>2026-08-07T16:15:25.000Z</time>
      </trkpt>
      <trkpt lat="45.84799" lon="2.01877">
        <ele>675</ele>
        <time>2026-08-07T16:15:26.000Z</time>
      </trkpt>
      <trkpt lat="45.84799" lon="2.01865">
        <ele>674.5</ele>
        <time>2026-08-07T16:15:27.000Z</time>
      </trkpt>
      <trkpt lat="45.84799" lon="2.01853">
        <ele>674.2</ele>
        <time>2026-08-07T16:15:28.000Z</time>
      </trkpt>
      <trkpt lat="45.84797" lon="2.01842">
        <ele>673.9</ele>
        <time>2026-08-07T16:15:29.000Z</time>
      </trkpt>
      <trkpt lat="45.84793" lon="2.01821">
        <ele>673.2</ele>
        <time>2026-08-07T16:15:31.000Z</time>
      </trkpt>
      <trkpt lat="45.84789" lon="2.01802">
        <ele>672.5</ele>
        <time>2026-08-07T16:15:33.000Z</time>
      </trkpt>
      <trkpt lat="45.84781" lon="2.01785">
        <ele>671.3</ele>
        <time>2026-08-07T16:15:35.000Z</time>
      </trkpt>
      <trkpt lat="45.8477" lon="2.01768">
        <ele>670.3</ele>
        <time>2026-08-07T16:15:37.000Z</time>
      </trkpt>
      <trkpt lat="45.84765" lon="2.0176">
        <ele>669.8</ele>
        <time>2026-08-07T16:15:38.000Z</time>
      </trkpt>
      <trkpt lat="45.84754" lon="2.01744">
        <ele>668.6</ele>
        <time>2026-08-07T16:15:40.000Z</time>
      </trkpt>
      <trkpt lat="45.84745" lon="2.01729">
        <ele>667.4</ele>
        <time>2026-08-07T16:15:42.000Z</time>
      </trkpt>
      <trkpt lat="45.84742" lon="2.01721">
        <ele>666.8</ele>
        <time>2026-08-07T16:15:43.000Z</time>
      </trkpt>
      <trkpt lat="45.84738" lon="2.01711">
        <ele>666.1</ele>
        <time>2026-08-07T16:15:44.000Z</time>
      </trkpt>
      <trkpt lat="45.84735" lon="2.01701">
        <ele>665.5</ele>
        <time>2026-08-07T16:15:45.000Z</time>
      </trkpt>
      <trkpt lat="45.84732" lon="2.01681">
        <ele>664.2</ele>
        <time>2026-08-07T16:15:47.000Z</time>
      </trkpt>
      <trkpt lat="45.8473" lon="2.0167">
        <ele>663.6</ele>
        <time>2026-08-07T16:15:48.000Z</time>
      </trkpt>
      <trkpt lat="45.84727" lon="2.01646">
        <ele>662.3</ele>
        <time>2026-08-07T16:15:50.000Z</time>
      </trkpt>
      <trkpt lat="45.84725" lon="2.01617">
        <ele>660.5</ele>
        <time>2026-08-07T16:15:52.000Z</time>
      </trkpt>
      <trkpt lat="45.84723" lon="2.01589">
        <ele>659.2</ele>
        <time>2026-08-07T16:15:54.000Z</time>
      </trkpt>
      <trkpt lat="45.8472" lon="2.01547">
        <ele>658.7</ele>
        <time>2026-08-07T16:15:57.000Z</time>
      </trkpt>
      <trkpt lat="45.84719" lon="2.01533">
        <ele>658.3</ele>
        <time>2026-08-07T16:15:58.000Z</time>
      </trkpt>
      <trkpt lat="45.84718" lon="2.0152">
        <ele>658.1</ele>
        <time>2026-08-07T16:15:59.000Z</time>
      </trkpt>
      <trkpt lat="45.84719" lon="2.01495">
        <ele>658.1</ele>
        <time>2026-08-07T16:16:01.000Z</time>
      </trkpt>
      <trkpt lat="45.8472" lon="2.01483">
        <ele>658.1</ele>
        <time>2026-08-07T16:16:02.000Z</time>
      </trkpt>
      <trkpt lat="45.84723" lon="2.01473">
        <ele>658</ele>
        <time>2026-08-07T16:16:03.000Z</time>
      </trkpt>
      <trkpt lat="45.84733" lon="2.01443">
        <ele>659.3</ele>
        <time>2026-08-07T16:16:06.000Z</time>
      </trkpt>
      <trkpt lat="45.84744" lon="2.01407">
        <ele>659.8</ele>
        <time>2026-08-07T16:16:11.000Z</time>
      </trkpt>
      <trkpt lat="45.84748" lon="2.01387">
        <ele>660.2</ele>
        <time>2026-08-07T16:16:14.000Z</time>
      </trkpt>
      <trkpt lat="45.84751" lon="2.01369">
        <ele>660.7</ele>
        <time>2026-08-07T16:16:17.000Z</time>
      </trkpt>
      <trkpt lat="45.84754" lon="2.01342">
        <ele>661.4</ele>
        <time>2026-08-07T16:16:22.000Z</time>
      </trkpt>
      <trkpt lat="45.84756" lon="2.01313">
        <ele>661.7</ele>
        <time>2026-08-07T16:16:28.000Z</time>
      </trkpt>
      <trkpt lat="45.84757" lon="2.01295">
        <ele>662.1</ele>
        <time>2026-08-07T16:16:32.000Z</time>
      </trkpt>
      <trkpt lat="45.84757" lon="2.01287">
        <ele>662.4</ele>
        <time>2026-08-07T16:16:34.000Z</time>
      </trkpt>
      <trkpt lat="45.84759" lon="2.0125">
        <ele>663.7</ele>
        <time>2026-08-07T16:16:44.000Z</time>
      </trkpt>
      <trkpt lat="45.84759" lon="2.01236">
        <ele>664.2</ele>
        <time>2026-08-07T16:16:48.000Z</time>
      </trkpt>
      <trkpt lat="45.84759" lon="2.01225">
        <ele>664.6</ele>
        <time>2026-08-07T16:16:51.000Z</time>
      </trkpt>
      <trkpt lat="45.84761" lon="2.01191">
        <ele>665.1</ele>
        <time>2026-08-07T16:17:01.000Z</time>
      </trkpt>
      <trkpt lat="45.84762" lon="2.01188">
        <ele>665.2</ele>
        <time>2026-08-07T16:17:02.000Z</time>
      </trkpt>
      <trkpt lat="45.84764" lon="2.01155">
        <ele>666.4</ele>
        <time>2026-08-07T16:17:12.000Z</time>
      </trkpt>
      <trkpt lat="45.84764" lon="2.01145">
        <ele>666.8</ele>
        <time>2026-08-07T16:17:15.000Z</time>
      </trkpt>
      <trkpt lat="45.84767" lon="2.01125">
        <ele>667.5</ele>
        <time>2026-08-07T16:17:21.000Z</time>
      </trkpt>
      <trkpt lat="45.84768" lon="2.01113">
        <ele>667.9</ele>
        <time>2026-08-07T16:17:25.000Z</time>
      </trkpt>
      <trkpt lat="45.8477" lon="2.01105">
        <ele>668.4</ele>
        <time>2026-08-07T16:17:28.000Z</time>
      </trkpt>
      <trkpt lat="45.84771" lon="2.01101">
        <ele>668.6</ele>
        <time>2026-08-07T16:17:30.000Z</time>
      </trkpt>
      <trkpt lat="45.84771" lon="2.01097">
        <ele>668.9</ele>
        <time>2026-08-07T16:17:32.000Z</time>
      </trkpt>
      <trkpt lat="45.84772" lon="2.01096">
        <ele>669</ele>
        <time>2026-08-07T16:17:33.000Z</time>
      </trkpt>
      <trkpt lat="45.84773" lon="2.01093">
        <ele>669.2</ele>
        <time>2026-08-07T16:17:35.000Z</time>
      </trkpt>
      <trkpt lat="45.84774" lon="2.01088">
        <ele>669.6</ele>
        <time>2026-08-07T16:17:38.000Z</time>
      </trkpt>
      <trkpt lat="45.84776" lon="2.01078">
        <ele>670.1</ele>
        <time>2026-08-07T16:17:43.000Z</time>
      </trkpt>
      <trkpt lat="45.84777" lon="2.01074">
        <ele>670.3</ele>
        <time>2026-08-07T16:17:45.000Z</time>
      </trkpt>
      <trkpt lat="45.84782" lon="2.0106">
        <ele>670.9</ele>
        <time>2026-08-07T16:17:52.000Z</time>
      </trkpt>
      <trkpt lat="45.84783" lon="2.01058">
        <ele>670.9</ele>
        <time>2026-08-07T16:17:53.000Z</time>
      </trkpt>
      <trkpt lat="45.84785" lon="2.01046">
        <ele>671.7</ele>
        <time>2026-08-07T16:17:58.000Z</time>
      </trkpt>
      <trkpt lat="45.84788" lon="2.01029">
        <ele>672.9</ele>
        <time>2026-08-07T16:18:05.000Z</time>
      </trkpt>
      <trkpt lat="45.84788" lon="2.01027">
        <ele>673</ele>
        <time>2026-08-07T16:18:06.000Z</time>
      </trkpt>
      <trkpt lat="45.84793" lon="2.0101">
        <ele>673.6</ele>
        <time>2026-08-07T16:18:13.000Z</time>
      </trkpt>
      <trkpt lat="45.84793" lon="2.01007">
        <ele>673.7</ele>
        <time>2026-08-07T16:18:14.000Z</time>
      </trkpt>
      <trkpt lat="45.84799" lon="2.00988">
        <ele>673.7</ele>
        <time>2026-08-07T16:18:22.000Z</time>
      </trkpt>
      <trkpt lat="45.84808" lon="2.00955">
        <ele>673.3</ele>
        <time>2026-08-07T16:18:32.000Z</time>
      </trkpt>
      <trkpt lat="45.84818" lon="2.00913">
        <ele>673.4</ele>
        <time>2026-08-07T16:18:43.000Z</time>
      </trkpt>
      <trkpt lat="45.84827" lon="2.0088">
        <ele>673.4</ele>
        <time>2026-08-07T16:18:51.000Z</time>
      </trkpt>
      <trkpt lat="45.84837" lon="2.00843">
        <ele>673.2</ele>
        <time>2026-08-07T16:18:59.000Z</time>
      </trkpt>
      <trkpt lat="45.84851" lon="2.00798">
        <ele>672.6</ele>
        <time>2026-08-07T16:19:07.000Z</time>
      </trkpt>
      <trkpt lat="45.84861" lon="2.00776">
        <ele>672</ele>
        <time>2026-08-07T16:19:11.000Z</time>
      </trkpt>
      <trkpt lat="45.84869" lon="2.00765">
        <ele>672</ele>
        <time>2026-08-07T16:19:14.000Z</time>
      </trkpt>
      <trkpt lat="45.84884" lon="2.00738">
        <ele>673.6</ele>
        <time>2026-08-07T16:19:21.000Z</time>
      </trkpt>
      <trkpt lat="45.84884" lon="2.00737">
        <ele>673.7</ele>
        <time>2026-08-07T16:19:22.000Z</time>
      </trkpt>
      <trkpt lat="45.84887" lon="2.00731">
        <ele>674.3</ele>
        <time>2026-08-07T16:19:26.000Z</time>
      </trkpt>
      <trkpt lat="45.84889" lon="2.00723">
        <ele>674.9</ele>
        <time>2026-08-07T16:19:31.000Z</time>
      </trkpt>
      <trkpt lat="45.84889" lon="2.00719">
        <ele>675.2</ele>
        <time>2026-08-07T16:19:33.000Z</time>
      </trkpt>
      <trkpt lat="45.84888" lon="2.00709">
        <ele>675.9</ele>
        <time>2026-08-07T16:19:37.000Z</time>
      </trkpt>
      <trkpt lat="45.84888" lon="2.00705">
        <ele>676.1</ele>
        <time>2026-08-07T16:19:39.000Z</time>
      </trkpt>
      <trkpt lat="45.84888" lon="2.00703">
        <ele>676.3</ele>
        <time>2026-08-07T16:19:40.000Z</time>
      </trkpt>
      <trkpt lat="45.84888" lon="2.00701">
        <ele>676.5</ele>
        <time>2026-08-07T16:19:41.000Z</time>
      </trkpt>
      <trkpt lat="45.84888" lon="2.00696">
        <ele>676.8</ele>
        <time>2026-08-07T16:19:44.000Z</time>
      </trkpt>
      <trkpt lat="45.84888" lon="2.00695">
        <ele>676.9</ele>
        <time>2026-08-07T16:19:45.000Z</time>
      </trkpt>
      <trkpt lat="45.84889" lon="2.00693">
        <ele>677</ele>
        <time>2026-08-07T16:19:48.000Z</time>
      </trkpt>
      <trkpt lat="45.84888" lon="2.0069">
        <ele>677.1</ele>
        <time>2026-08-07T16:19:50.000Z</time>
      </trkpt>
      <trkpt lat="45.84888" lon="2.00686">
        <ele>677.3</ele>
        <time>2026-08-07T16:19:52.000Z</time>
      </trkpt>
      <trkpt lat="45.84888" lon="2.00684">
        <ele>677.3</ele>
        <time>2026-08-07T16:19:53.000Z</time>
      </trkpt>
      <trkpt lat="45.84887" lon="2.00682">
        <ele>677.3</ele>
        <time>2026-08-07T16:19:54.000Z</time>
      </trkpt>
      <trkpt lat="45.84887" lon="2.00678">
        <ele>677.5</ele>
        <time>2026-08-07T16:19:56.000Z</time>
      </trkpt>
      <trkpt lat="45.84887" lon="2.00674">
        <ele>677.6</ele>
        <time>2026-08-07T16:19:58.000Z</time>
      </trkpt>
      <trkpt lat="45.84886" lon="2.00671">
        <ele>677.7</ele>
        <time>2026-08-07T16:20:00.000Z</time>
      </trkpt>
      <trkpt lat="45.84886" lon="2.00669">
        <ele>677.8</ele>
        <time>2026-08-07T16:20:01.000Z</time>
      </trkpt>
      <trkpt lat="45.84887" lon="2.00664">
        <ele>678.2</ele>
        <time>2026-08-07T16:20:04.000Z</time>
      </trkpt>
      <trkpt lat="45.84886" lon="2.00653">
        <ele>679</ele>
        <time>2026-08-07T16:20:08.000Z</time>
      </trkpt>
      <trkpt lat="45.84888" lon="2.00646">
        <ele>679.5</ele>
        <time>2026-08-07T16:20:11.000Z</time>
      </trkpt>
      <trkpt lat="45.84888" lon="2.0064">
        <ele>680</ele>
        <time>2026-08-07T16:20:14.000Z</time>
      </trkpt>
      <trkpt lat="45.84888" lon="2.00638">
        <ele>680.1</ele>
        <time>2026-08-07T16:20:15.000Z</time>
      </trkpt>
      <trkpt lat="45.84889" lon="2.0063">
        <ele>680.6</ele>
        <time>2026-08-07T16:20:18.000Z</time>
      </trkpt>
      <trkpt lat="45.84887" lon="2.00626">
        <ele>681</ele>
        <time>2026-08-07T16:20:20.000Z</time>
      </trkpt>
      <trkpt lat="45.84887" lon="2.00623">
        <ele>681.2</ele>
        <time>2026-08-07T16:20:21.000Z</time>
      </trkpt>
      <trkpt lat="45.84887" lon="2.0062">
        <ele>681.4</ele>
        <time>2026-08-07T16:20:22.000Z</time>
      </trkpt>
      <trkpt lat="45.84887" lon="2.00616">
        <ele>681.7</ele>
        <time>2026-08-07T16:20:24.000Z</time>
      </trkpt>
      <trkpt lat="45.84886" lon="2.00615">
        <ele>681.8</ele>
        <time>2026-08-07T16:20:25.000Z</time>
      </trkpt>
      <trkpt lat="45.84886" lon="2.00613">
        <ele>681.9</ele>
        <time>2026-08-07T16:20:26.000Z</time>
      </trkpt>
      <trkpt lat="45.8489" lon="2.00608">
        <ele>682</ele>
        <time>2026-08-07T16:20:29.000Z</time>
      </trkpt>
      <trkpt lat="45.84886" lon="2.00598">
        <ele>682.6</ele>
        <time>2026-08-07T16:20:33.000Z</time>
      </trkpt>
      <trkpt lat="45.84887" lon="2.00596">
        <ele>682.7</ele>
        <time>2026-08-07T16:20:34.000Z</time>
      </trkpt>
      <trkpt lat="45.84888" lon="2.00593">
        <ele>682.7</ele>
        <time>2026-08-07T16:20:36.000Z</time>
      </trkpt>
      <trkpt lat="45.84888" lon="2.00591">
        <ele>682.8</ele>
        <time>2026-08-07T16:20:37.000Z</time>
      </trkpt>
      <trkpt lat="45.84887" lon="2.00589">
        <ele>682.9</ele>
        <time>2026-08-07T16:20:38.000Z</time>
      </trkpt>
      <trkpt lat="45.84886" lon="2.00586">
        <ele>683.1</ele>
        <time>2026-08-07T16:20:40.000Z</time>
      </trkpt>
      <trkpt lat="45.84886" lon="2.00583">
        <ele>683.2</ele>
        <time>2026-08-07T16:20:42.000Z</time>
      </trkpt>
      <trkpt lat="45.84886" lon="2.00582">
        <ele>683.3</ele>
        <time>2026-08-07T16:20:43.000Z</time>
      </trkpt>
      <trkpt lat="45.84885" lon="2.00578">
        <ele>683.5</ele>
        <time>2026-08-07T16:20:45.000Z</time>
      </trkpt>
      <trkpt lat="45.84884" lon="2.00576">
        <ele>683.7</ele>
        <time>2026-08-07T16:20:46.000Z</time>
      </trkpt>
      <trkpt lat="45.84885" lon="2.00571">
        <ele>683.8</ele>
        <time>2026-08-07T16:20:49.000Z</time>
      </trkpt>
      <trkpt lat="45.84883" lon="2.00566">
        <ele>684.2</ele>
        <time>2026-08-07T16:20:52.000Z</time>
      </trkpt>
      <trkpt lat="45.84884" lon="2.00564">
        <ele>684.2</ele>
        <time>2026-08-07T16:20:53.000Z</time>
      </trkpt>
      <trkpt lat="45.84885" lon="2.00561">
        <ele>684.2</ele>
        <time>2026-08-07T16:20:55.000Z</time>
      </trkpt>
      <trkpt lat="45.84883" lon="2.00557">
        <ele>684.6</ele>
        <time>2026-08-07T16:20:57.000Z</time>
      </trkpt>
      <trkpt lat="45.84882" lon="2.00555">
        <ele>684.8</ele>
        <time>2026-08-07T16:20:58.000Z</time>
      </trkpt>
      <trkpt lat="45.84884" lon="2.0055">
        <ele>684.8</ele>
        <time>2026-08-07T16:21:01.000Z</time>
      </trkpt>
      <trkpt lat="45.84884" lon="2.00548">
        <ele>684.9</ele>
        <time>2026-08-07T16:21:02.000Z</time>
      </trkpt>
      <trkpt lat="45.84882" lon="2.00543">
        <ele>685.4</ele>
        <time>2026-08-07T16:21:05.000Z</time>
      </trkpt>
      <trkpt lat="45.84881" lon="2.00541">
        <ele>685.5</ele>
        <time>2026-08-07T16:21:06.000Z</time>
      </trkpt>
      <trkpt lat="45.84882" lon="2.00536">
        <ele>685.6</ele>
        <time>2026-08-07T16:21:09.000Z</time>
      </trkpt>
      <trkpt lat="45.8488" lon="2.00532">
        <ele>686.1</ele>
        <time>2026-08-07T16:21:11.000Z</time>
      </trkpt>
      <trkpt lat="45.8488" lon="2.0053">
        <ele>686.2</ele>
        <time>2026-08-07T16:21:12.000Z</time>
      </trkpt>
      <trkpt lat="45.8488" lon="2.00528">
        <ele>686.2</ele>
        <time>2026-08-07T16:21:13.000Z</time>
      </trkpt>
      <trkpt lat="45.84881" lon="2.00525">
        <ele>686.3</ele>
        <time>2026-08-07T16:21:15.000Z</time>
      </trkpt>
      <trkpt lat="45.84879" lon="2.00522">
        <ele>686.8</ele>
        <time>2026-08-07T16:21:17.000Z</time>
      </trkpt>
      <trkpt lat="45.84879" lon="2.0052">
        <ele>687</ele>
        <time>2026-08-07T16:21:18.000Z</time>
      </trkpt>
      <trkpt lat="45.8488" lon="2.00517">
        <ele>687</ele>
        <time>2026-08-07T16:21:20.000Z</time>
      </trkpt>
      <trkpt lat="45.84879" lon="2.00514">
        <ele>687.3</ele>
        <time>2026-08-07T16:21:22.000Z</time>
      </trkpt>
      <trkpt lat="45.84878" lon="2.0051">
        <ele>687.6</ele>
        <time>2026-08-07T16:21:24.000Z</time>
      </trkpt>
      <trkpt lat="45.84879" lon="2.00507">
        <ele>687.6</ele>
        <time>2026-08-07T16:21:26.000Z</time>
      </trkpt>
      <trkpt lat="45.84877" lon="2.00504">
        <ele>688</ele>
        <time>2026-08-07T16:21:28.000Z</time>
      </trkpt>
      <trkpt lat="45.84877" lon="2.00499">
        <ele>688.4</ele>
        <time>2026-08-07T16:21:31.000Z</time>
      </trkpt>
      <trkpt lat="45.84877" lon="2.00497">
        <ele>688.5</ele>
        <time>2026-08-07T16:21:32.000Z</time>
      </trkpt>
      <trkpt lat="45.84874" lon="2.00491">
        <ele>689.1</ele>
        <time>2026-08-07T16:21:36.000Z</time>
      </trkpt>
      <trkpt lat="45.84874" lon="2.00489">
        <ele>689.3</ele>
        <time>2026-08-07T16:21:37.000Z</time>
      </trkpt>
      <trkpt lat="45.84874" lon="2.00486">
        <ele>689.5</ele>
        <time>2026-08-07T16:21:39.000Z</time>
      </trkpt>
      <trkpt lat="45.84871" lon="2.00482">
        <ele>690</ele>
        <time>2026-08-07T16:21:42.000Z</time>
      </trkpt>
      <trkpt lat="45.84871" lon="2.00479">
        <ele>690.2</ele>
        <time>2026-08-07T16:21:44.000Z</time>
      </trkpt>
      <trkpt lat="45.84871" lon="2.00475">
        <ele>690.4</ele>
        <time>2026-08-07T16:21:46.000Z</time>
      </trkpt>
      <trkpt lat="45.8487" lon="2.00474">
        <ele>690.6</ele>
        <time>2026-08-07T16:21:47.000Z</time>
      </trkpt>
      <trkpt lat="45.84869" lon="2.00472">
        <ele>690.8</ele>
        <time>2026-08-07T16:21:48.000Z</time>
      </trkpt>
      <trkpt lat="45.84869" lon="2.00469">
        <ele>691.2</ele>
        <time>2026-08-07T16:21:50.000Z</time>
      </trkpt>
      <trkpt lat="45.84869" lon="2.00467">
        <ele>691.3</ele>
        <time>2026-08-07T16:21:51.000Z</time>
      </trkpt>
      <trkpt lat="45.84869" lon="2.00465">
        <ele>691.5</ele>
        <time>2026-08-07T16:21:52.000Z</time>
      </trkpt>
      <trkpt lat="45.84867" lon="2.00462">
        <ele>692</ele>
        <time>2026-08-07T16:21:54.000Z</time>
      </trkpt>
      <trkpt lat="45.84867" lon="2.00461">
        <ele>692.1</ele>
        <time>2026-08-07T16:21:55.000Z</time>
      </trkpt>
      <trkpt lat="45.84867" lon="2.00459">
        <ele>692.2</ele>
        <time>2026-08-07T16:21:56.000Z</time>
      </trkpt>
      <trkpt lat="45.84868" lon="2.00458">
        <ele>692.2</ele>
        <time>2026-08-07T16:21:57.000Z</time>
      </trkpt>
      <trkpt lat="45.84866" lon="2.00455">
        <ele>692.6</ele>
        <time>2026-08-07T16:21:59.000Z</time>
      </trkpt>
      <trkpt lat="45.84865" lon="2.00454">
        <ele>692.8</ele>
        <time>2026-08-07T16:22:00.000Z</time>
      </trkpt>
      <trkpt lat="45.84864" lon="2.00452">
        <ele>693.1</ele>
        <time>2026-08-07T16:22:01.000Z</time>
      </trkpt>
      <trkpt lat="45.84865" lon="2.00447">
        <ele>693.4</ele>
        <time>2026-08-07T16:22:04.000Z</time>
      </trkpt>
      <trkpt lat="45.84864" lon="2.00446">
        <ele>693.6</ele>
        <time>2026-08-07T16:22:05.000Z</time>
      </trkpt>
      <trkpt lat="45.84863" lon="2.00445">
        <ele>693.8</ele>
        <time>2026-08-07T16:22:06.000Z</time>
      </trkpt>
      <trkpt lat="45.84863" lon="2.00442">
        <ele>694</ele>
        <time>2026-08-07T16:22:08.000Z</time>
      </trkpt>
      <trkpt lat="45.84863" lon="2.00438">
        <ele>694.3</ele>
        <time>2026-08-07T16:22:11.000Z</time>
      </trkpt>
      <trkpt lat="45.84862" lon="2.00437">
        <ele>694.4</ele>
        <time>2026-08-07T16:22:12.000Z</time>
      </trkpt>
      <trkpt lat="45.84861" lon="2.00436">
        <ele>694.6</ele>
        <time>2026-08-07T16:22:13.000Z</time>
      </trkpt>
      <trkpt lat="45.84861" lon="2.00432">
        <ele>694.9</ele>
        <time>2026-08-07T16:22:16.000Z</time>
      </trkpt>
      <trkpt lat="45.8486" lon="2.00431">
        <ele>695</ele>
        <time>2026-08-07T16:22:17.000Z</time>
      </trkpt>
      <trkpt lat="45.84859" lon="2.00429">
        <ele>695.2</ele>
        <time>2026-08-07T16:22:19.000Z</time>
      </trkpt>
      <trkpt lat="45.84859" lon="2.00427">
        <ele>695.3</ele>
        <time>2026-08-07T16:22:20.000Z</time>
      </trkpt>
      <trkpt lat="45.84859" lon="2.00426">
        <ele>695.4</ele>
        <time>2026-08-07T16:22:21.000Z</time>
      </trkpt>
      <trkpt lat="45.84859" lon="2.00425">
        <ele>695.5</ele>
        <time>2026-08-07T16:22:22.000Z</time>
      </trkpt>
      <trkpt lat="45.84857" lon="2.00423">
        <ele>695.7</ele>
        <time>2026-08-07T16:22:24.000Z</time>
      </trkpt>
      <trkpt lat="45.84857" lon="2.00421">
        <ele>695.8</ele>
        <time>2026-08-07T16:22:25.000Z</time>
      </trkpt>
      <trkpt lat="45.84857" lon="2.0042">
        <ele>695.9</ele>
        <time>2026-08-07T16:22:26.000Z</time>
      </trkpt>
      <trkpt lat="45.84856" lon="2.00416">
        <ele>696.2</ele>
        <time>2026-08-07T16:22:29.000Z</time>
      </trkpt>
      <trkpt lat="45.84854" lon="2.00413">
        <ele>696.5</ele>
        <time>2026-08-07T16:22:31.000Z</time>
      </trkpt>
      <trkpt lat="45.84854" lon="2.00411">
        <ele>696.7</ele>
        <time>2026-08-07T16:22:33.000Z</time>
      </trkpt>
      <trkpt lat="45.84854" lon="2.00409">
        <ele>696.7</ele>
        <time>2026-08-07T16:22:34.000Z</time>
      </trkpt>
      <trkpt lat="45.84854" lon="2.00408">
        <ele>696.9</ele>
        <time>2026-08-07T16:22:35.000Z</time>
      </trkpt>
      <trkpt lat="45.84851" lon="2.00404">
        <ele>697.3</ele>
        <time>2026-08-07T16:22:38.000Z</time>
      </trkpt>
      <trkpt lat="45.84851" lon="2.00402">
        <ele>697.5</ele>
        <time>2026-08-07T16:22:39.000Z</time>
      </trkpt>
      <trkpt lat="45.84851" lon="2.00398">
        <ele>697.8</ele>
        <time>2026-08-07T16:22:42.000Z</time>
      </trkpt>
      <trkpt lat="45.84848" lon="2.00395">
        <ele>698.4</ele>
        <time>2026-08-07T16:22:44.000Z</time>
      </trkpt>
      <trkpt lat="45.84847" lon="2.00394">
        <ele>698.6</ele>
        <time>2026-08-07T16:22:45.000Z</time>
      </trkpt>
      <trkpt lat="45.84847" lon="2.00391">
        <ele>698.8</ele>
        <time>2026-08-07T16:22:47.000Z</time>
      </trkpt>
      <trkpt lat="45.84848" lon="2.00388">
        <ele>698.9</ele>
        <time>2026-08-07T16:22:49.000Z</time>
      </trkpt>
      <trkpt lat="45.84846" lon="2.00383">
        <ele>699.2</ele>
        <time>2026-08-07T16:22:52.000Z</time>
      </trkpt>
      <trkpt lat="45.84846" lon="2.00381">
        <ele>699.2</ele>
        <time>2026-08-07T16:22:53.000Z</time>
      </trkpt>
      <trkpt lat="45.84845" lon="2.00379">
        <ele>699.3</ele>
        <time>2026-08-07T16:22:54.000Z</time>
      </trkpt>
      <trkpt lat="45.84843" lon="2.00376">
        <ele>699.6</ele>
        <time>2026-08-07T16:22:56.000Z</time>
      </trkpt>
      <trkpt lat="45.84842" lon="2.00374">
        <ele>699.8</ele>
        <time>2026-08-07T16:22:57.000Z</time>
      </trkpt>
      <trkpt lat="45.84839" lon="2.00365">
        <ele>700.3</ele>
        <time>2026-08-07T16:23:03.000Z</time>
      </trkpt>
      <trkpt lat="45.84837" lon="2.00363">
        <ele>700.4</ele>
        <time>2026-08-07T16:23:05.000Z</time>
      </trkpt>
      <trkpt lat="45.84836" lon="2.00358">
        <ele>700.6</ele>
        <time>2026-08-07T16:23:08.000Z</time>
      </trkpt>
      <trkpt lat="45.84836" lon="2.00356">
        <ele>700.6</ele>
        <time>2026-08-07T16:23:09.000Z</time>
      </trkpt>
      <trkpt lat="45.84832" lon="2.00344">
        <ele>701.2</ele>
        <time>2026-08-07T16:23:17.000Z</time>
      </trkpt>
      <trkpt lat="45.84828" lon="2.00335">
        <ele>701.7</ele>
        <time>2026-08-07T16:23:22.000Z</time>
      </trkpt>
      <trkpt lat="45.84825" lon="2.00325">
        <ele>702.3</ele>
        <time>2026-08-07T16:23:27.000Z</time>
      </trkpt>
      <trkpt lat="45.84822" lon="2.00316">
        <ele>703.1</ele>
        <time>2026-08-07T16:23:32.000Z</time>
      </trkpt>
      <trkpt lat="45.84822" lon="2.00312">
        <ele>703.2</ele>
        <time>2026-08-07T16:23:34.000Z</time>
      </trkpt>
      <trkpt lat="45.84821" lon="2.003">
        <ele>704</ele>
        <time>2026-08-07T16:23:40.000Z</time>
      </trkpt>
      <trkpt lat="45.8482" lon="2.00293">
        <ele>704.3</ele>
        <time>2026-08-07T16:23:44.000Z</time>
      </trkpt>
      <trkpt lat="45.84819" lon="2.00288">
        <ele>704.7</ele>
        <time>2026-08-07T16:23:47.000Z</time>
      </trkpt>
      <trkpt lat="45.84818" lon="2.0028">
        <ele>705.1</ele>
        <time>2026-08-07T16:23:52.000Z</time>
      </trkpt>
      <trkpt lat="45.84818" lon="2.00277">
        <ele>705.3</ele>
        <time>2026-08-07T16:23:54.000Z</time>
      </trkpt>
      <trkpt lat="45.84818" lon="2.00275">
        <ele>705.5</ele>
        <time>2026-08-07T16:23:55.000Z</time>
      </trkpt>
      <trkpt lat="45.84817" lon="2.00271">
        <ele>705.9</ele>
        <time>2026-08-07T16:23:57.000Z</time>
      </trkpt>
      <trkpt lat="45.84817" lon="2.00268">
        <ele>706.2</ele>
        <time>2026-08-07T16:23:59.000Z</time>
      </trkpt>
      <trkpt lat="45.84817" lon="2.00259">
        <ele>706.9</ele>
        <time>2026-08-07T16:24:05.000Z</time>
      </trkpt>
      <trkpt lat="45.84817" lon="2.00257">
        <ele>706.9</ele>
        <time>2026-08-07T16:24:06.000Z</time>
      </trkpt>
      <trkpt lat="45.84818" lon="2.00254">
        <ele>707</ele>
        <time>2026-08-07T16:24:08.000Z</time>
      </trkpt>
      <trkpt lat="45.84818" lon="2.00244">
        <ele>707.8</ele>
        <time>2026-08-07T16:24:13.000Z</time>
      </trkpt>
      <trkpt lat="45.84818" lon="2.00234">
        <ele>709.1</ele>
        <time>2026-08-07T16:24:18.000Z</time>
      </trkpt>
      <trkpt lat="45.84819" lon="2.00228">
        <ele>709.5</ele>
        <time>2026-08-07T16:24:21.000Z</time>
      </trkpt>
      <trkpt lat="45.84819" lon="2.00227">
        <ele>709.6</ele>
        <time>2026-08-07T16:24:22.000Z</time>
      </trkpt>
      <trkpt lat="45.84821" lon="2.00222">
        <ele>709.8</ele>
        <time>2026-08-07T16:24:25.000Z</time>
      </trkpt>
      <trkpt lat="45.84821" lon="2.00216">
        <ele>710.2</ele>
        <time>2026-08-07T16:24:28.000Z</time>
      </trkpt>
      <trkpt lat="45.8482" lon="2.00213">
        <ele>710.6</ele>
        <time>2026-08-07T16:24:30.000Z</time>
      </trkpt>
      <trkpt lat="45.84821" lon="2.00211">
        <ele>710.6</ele>
        <time>2026-08-07T16:24:31.000Z</time>
      </trkpt>
      <trkpt lat="45.84823" lon="2.00209">
        <ele>710.5</ele>
        <time>2026-08-07T16:24:33.000Z</time>
      </trkpt>
      <trkpt lat="45.84823" lon="2.00205">
        <ele>710.8</ele>
        <time>2026-08-07T16:24:35.000Z</time>
      </trkpt>
      <trkpt lat="45.84822" lon="2.00202">
        <ele>711.1</ele>
        <time>2026-08-07T16:24:37.000Z</time>
      </trkpt>
      <trkpt lat="45.84824" lon="2.00199">
        <ele>711.1</ele>
        <time>2026-08-07T16:24:39.000Z</time>
      </trkpt>
      <trkpt lat="45.84824" lon="2.00196">
        <ele>711.2</ele>
        <time>2026-08-07T16:24:41.000Z</time>
      </trkpt>
      <trkpt lat="45.84823" lon="2.00195">
        <ele>711.4</ele>
        <time>2026-08-07T16:24:42.000Z</time>
      </trkpt>
      <trkpt lat="45.84823" lon="2.00191">
        <ele>711.8</ele>
        <time>2026-08-07T16:24:44.000Z</time>
      </trkpt>
      <trkpt lat="45.84825" lon="2.00189">
        <ele>711.8</ele>
        <time>2026-08-07T16:24:46.000Z</time>
      </trkpt>
      <trkpt lat="45.84825" lon="2.00187">
        <ele>711.9</ele>
        <time>2026-08-07T16:24:47.000Z</time>
      </trkpt>
      <trkpt lat="45.84824" lon="2.0018">
        <ele>712.7</ele>
        <time>2026-08-07T16:24:51.000Z</time>
      </trkpt>
      <trkpt lat="45.84824" lon="2.00177">
        <ele>713</ele>
        <time>2026-08-07T16:24:53.000Z</time>
      </trkpt>
      <trkpt lat="45.84822" lon="2.00169">
        <ele>714</ele>
        <time>2026-08-07T16:24:57.000Z</time>
      </trkpt>
      <trkpt lat="45.84823" lon="2.00164">
        <ele>714.4</ele>
        <time>2026-08-07T16:25:00.000Z</time>
      </trkpt>
      <trkpt lat="45.84823" lon="2.00162">
        <ele>714.5</ele>
        <time>2026-08-07T16:25:01.000Z</time>
      </trkpt>
      <trkpt lat="45.84824" lon="2.00161">
        <ele>714.6</ele>
        <time>2026-08-07T16:25:02.000Z</time>
      </trkpt>
      <trkpt lat="45.84824" lon="2.00159">
        <ele>714.7</ele>
        <time>2026-08-07T16:25:03.000Z</time>
      </trkpt>
      <trkpt lat="45.84823" lon="2.00152">
        <ele>715.3</ele>
        <time>2026-08-07T16:25:07.000Z</time>
      </trkpt>
      <trkpt lat="45.84823" lon="2.00151">
        <ele>715.4</ele>
        <time>2026-08-07T16:25:10.000Z</time>
      </trkpt>
      <trkpt lat="45.84821" lon="2.00138">
        <ele>716.4</ele>
        <time>2026-08-07T16:26:40.000Z</time>
      </trkpt>
      <trkpt lat="45.84821" lon="2.00134">
        <ele>716.4</ele>
        <time>2026-08-07T16:26:42.000Z</time>
      </trkpt>
      <trkpt lat="45.84822" lon="2.00114">
        <ele>716.4</ele>
        <time>2026-08-07T16:26:50.000Z</time>
      </trkpt>
      <trkpt lat="45.84822" lon="2.00108">
        <ele>716.4</ele>
        <time>2026-08-07T16:26:52.000Z</time>
      </trkpt>
      <trkpt lat="45.84825" lon="2.00094">
        <ele>716.3</ele>
        <time>2026-08-07T16:26:56.000Z</time>
      </trkpt>
      <trkpt lat="45.84832" lon="2.00061">
        <ele>713.7</ele>
        <time>2026-08-07T16:27:04.000Z</time>
      </trkpt>
      <trkpt lat="45.84837" lon="2.00043">
        <ele>713.1</ele>
        <time>2026-08-07T16:27:08.000Z</time>
      </trkpt>
      <trkpt lat="45.84839" lon="2.00032">
        <ele>713</ele>
        <time>2026-08-07T16:27:10.000Z</time>
      </trkpt>
      <trkpt lat="45.84847" lon="2.00005">
        <ele>711.7</ele>
        <time>2026-08-07T16:27:15.000Z</time>
      </trkpt>
      <trkpt lat="45.84848" lon="1.99999">
        <ele>711.5</ele>
        <time>2026-08-07T16:27:16.000Z</time>
      </trkpt>
      <trkpt lat="45.84851" lon="1.99986">
        <ele>710.8</ele>
        <time>2026-08-07T16:27:18.000Z</time>
      </trkpt>
      <trkpt lat="45.84855" lon="1.99967">
        <ele>709.6</ele>
        <time>2026-08-07T16:27:21.000Z</time>
      </trkpt>
      <trkpt lat="45.84857" lon="1.9996">
        <ele>709.1</ele>
        <time>2026-08-07T16:27:22.000Z</time>
      </trkpt>
      <trkpt lat="45.84859" lon="1.99946">
        <ele>708.1</ele>
        <time>2026-08-07T16:27:24.000Z</time>
      </trkpt>
      <trkpt lat="45.8486" lon="1.99939">
        <ele>707.6</ele>
        <time>2026-08-07T16:27:25.000Z</time>
      </trkpt>
      <trkpt lat="45.84862" lon="1.99918">
        <ele>706.1</ele>
        <time>2026-08-07T16:27:28.000Z</time>
      </trkpt>
      <trkpt lat="45.84863" lon="1.99911">
        <ele>705.8</ele>
        <time>2026-08-07T16:27:29.000Z</time>
      </trkpt>
      <trkpt lat="45.84864" lon="1.99904">
        <ele>705.6</ele>
        <time>2026-08-07T16:27:30.000Z</time>
      </trkpt>
      <trkpt lat="45.84865" lon="1.99889">
        <ele>705.2</ele>
        <time>2026-08-07T16:27:32.000Z</time>
      </trkpt>
      <trkpt lat="45.84866" lon="1.99883">
        <ele>705.1</ele>
        <time>2026-08-07T16:27:33.000Z</time>
      </trkpt>
      <trkpt lat="45.84868" lon="1.99874">
        <ele>705.1</ele>
        <time>2026-08-07T16:27:35.000Z</time>
      </trkpt>
      <trkpt lat="45.8487" lon="1.99864">
        <ele>705</ele>
        <time>2026-08-07T16:27:38.000Z</time>
      </trkpt>
      <trkpt lat="45.84869" lon="1.9986">
        <ele>704.9</ele>
        <time>2026-08-07T16:27:39.000Z</time>
      </trkpt>
      <trkpt lat="45.84872" lon="1.99827">
        <ele>703.9</ele>
        <time>2026-08-07T16:27:45.000Z</time>
      </trkpt>
      <trkpt lat="45.84874" lon="1.99815">
        <ele>703.6</ele>
        <time>2026-08-07T16:27:47.000Z</time>
      </trkpt>
      <trkpt lat="45.84875" lon="1.99808">
        <ele>703.6</ele>
        <time>2026-08-07T16:27:48.000Z</time>
      </trkpt>
      <trkpt lat="45.8488" lon="1.9979">
        <ele>703.1</ele>
        <time>2026-08-07T16:27:51.000Z</time>
      </trkpt>
      <trkpt lat="45.84888" lon="1.99747">
        <ele>703.1</ele>
        <time>2026-08-07T16:27:58.000Z</time>
      </trkpt>
      <trkpt lat="45.84888" lon="1.99741">
        <ele>703.3</ele>
        <time>2026-08-07T16:27:59.000Z</time>
      </trkpt>
      <trkpt lat="45.84884" lon="1.99717">
        <ele>703.8</ele>
        <time>2026-08-07T16:28:03.000Z</time>
      </trkpt>
      <trkpt lat="45.84881" lon="1.99694">
        <ele>704.4</ele>
        <time>2026-08-07T16:28:07.000Z</time>
      </trkpt>
      <trkpt lat="45.84879" lon="1.99683">
        <ele>704</ele>
        <time>2026-08-07T16:28:09.000Z</time>
      </trkpt>
      <trkpt lat="45.84871" lon="1.99645">
        <ele>703.3</ele>
        <time>2026-08-07T16:28:17.000Z</time>
      </trkpt>
      <trkpt lat="45.8487" lon="1.99636">
        <ele>703.4</ele>
        <time>2026-08-07T16:28:19.000Z</time>
      </trkpt>
      <trkpt lat="45.84868" lon="1.99602">
        <ele>704.1</ele>
        <time>2026-08-07T16:28:26.000Z</time>
      </trkpt>
      <trkpt lat="45.84861" lon="1.99574">
        <ele>704</ele>
        <time>2026-08-07T16:28:32.000Z</time>
      </trkpt>
      <trkpt lat="45.84853" lon="1.99536">
        <ele>704.1</ele>
        <time>2026-08-07T16:28:40.000Z</time>
      </trkpt>
      <trkpt lat="45.84839" lon="1.99495">
        <ele>704.7</ele>
        <time>2026-08-07T16:28:49.000Z</time>
      </trkpt>
      <trkpt lat="45.84828" lon="1.99459">
        <ele>704.9</ele>
        <time>2026-08-07T16:28:56.000Z</time>
      </trkpt>
      <trkpt lat="45.84826" lon="1.99414">
        <ele>704.8</ele>
        <time>2026-08-07T16:29:04.000Z</time>
      </trkpt>
      <trkpt lat="45.84826" lon="1.9938">
        <ele>704.4</ele>
        <time>2026-08-07T16:29:10.000Z</time>
      </trkpt>
      <trkpt lat="45.84827" lon="1.99329">
        <ele>704.2</ele>
        <time>2026-08-07T16:29:18.000Z</time>
      </trkpt>
      <trkpt lat="45.84828" lon="1.99299">
        <ele>703.6</ele>
        <time>2026-08-07T16:29:23.000Z</time>
      </trkpt>
      <trkpt lat="45.84828" lon="1.99288">
        <ele>703.2</ele>
        <time>2026-08-07T16:29:25.000Z</time>
      </trkpt>
      <trkpt lat="45.84828" lon="1.99266">
        <ele>702.4</ele>
        <time>2026-08-07T16:29:29.000Z</time>
      </trkpt>
      <trkpt lat="45.84827" lon="1.99239">
        <ele>702</ele>
        <time>2026-08-07T16:29:33.000Z</time>
      </trkpt>
      <trkpt lat="45.84826" lon="1.99232">
        <ele>702</ele>
        <time>2026-08-07T16:29:34.000Z</time>
      </trkpt>
      <trkpt lat="45.84824" lon="1.99226">
        <ele>702</ele>
        <time>2026-08-07T16:29:35.000Z</time>
      </trkpt>
      <trkpt lat="45.84819" lon="1.99199">
        <ele>703</ele>
        <time>2026-08-07T16:29:40.000Z</time>
      </trkpt>
      <trkpt lat="45.84807" lon="1.99169">
        <ele>704</ele>
        <time>2026-08-07T16:29:47.000Z</time>
      </trkpt>
      <trkpt lat="45.84783" lon="1.99133">
        <ele>703.1</ele>
        <time>2026-08-07T16:29:58.000Z</time>
      </trkpt>
      <trkpt lat="45.84765" lon="1.99106">
        <ele>702.8</ele>
        <time>2026-08-07T16:30:06.000Z</time>
      </trkpt>
      <trkpt lat="45.84752" lon="1.99086">
        <ele>702.1</ele>
        <time>2026-08-07T16:30:12.000Z</time>
      </trkpt>
      <trkpt lat="45.84738" lon="1.99069">
        <ele>702.3</ele>
        <time>2026-08-07T16:30:17.000Z</time>
      </trkpt>
      <trkpt lat="45.84719" lon="1.99045">
        <ele>703.3</ele>
        <time>2026-08-07T16:30:24.000Z</time>
      </trkpt>
      <trkpt lat="45.84708" lon="1.99024">
        <ele>704.2</ele>
        <time>2026-08-07T16:30:29.000Z</time>
      </trkpt>
      <trkpt lat="45.84693" lon="1.99001">
        <ele>705.8</ele>
        <time>2026-08-07T16:30:35.000Z</time>
      </trkpt>
      <trkpt lat="45.84687" lon="1.98992">
        <ele>706.3</ele>
        <time>2026-08-07T16:30:39.000Z</time>
      </trkpt>
      <trkpt lat="45.84682" lon="1.98984">
        <ele>706.7</ele>
        <time>2026-08-07T16:30:42.000Z</time>
      </trkpt>
      <trkpt lat="45.84677" lon="1.98974">
        <ele>707.3</ele>
        <time>2026-08-07T16:30:47.000Z</time>
      </trkpt>
      <trkpt lat="45.84674" lon="1.98968">
        <ele>707.6</ele>
        <time>2026-08-07T16:30:50.000Z</time>
      </trkpt>
      <trkpt lat="45.8467" lon="1.98957">
        <ele>708.2</ele>
        <time>2026-08-07T16:30:56.000Z</time>
      </trkpt>
      <trkpt lat="45.84667" lon="1.98949">
        <ele>708.7</ele>
        <time>2026-08-07T16:31:00.000Z</time>
      </trkpt>
      <trkpt lat="45.84659" lon="1.98937">
        <ele>709.8</ele>
        <time>2026-08-07T16:31:07.000Z</time>
      </trkpt>
      <trkpt lat="45.84658" lon="1.98935">
        <ele>710</ele>
        <time>2026-08-07T16:31:08.000Z</time>
      </trkpt>
      <trkpt lat="45.84652" lon="1.98919">
        <ele>711.3</ele>
        <time>2026-08-07T16:31:16.000Z</time>
      </trkpt>
      <trkpt lat="45.84651" lon="1.98917">
        <ele>711.5</ele>
        <time>2026-08-07T16:31:17.000Z</time>
      </trkpt>
      <trkpt lat="45.84645" lon="1.98906">
        <ele>712.2</ele>
        <time>2026-08-07T16:31:23.000Z</time>
      </trkpt>
      <trkpt lat="45.84644" lon="1.98903">
        <ele>712.4</ele>
        <time>2026-08-07T16:31:25.000Z</time>
      </trkpt>
      <trkpt lat="45.84637" lon="1.98888">
        <ele>713</ele>
        <time>2026-08-07T16:31:32.000Z</time>
      </trkpt>
      <trkpt lat="45.84631" lon="1.98877">
        <ele>713</ele>
        <time>2026-08-07T16:31:38.000Z</time>
      </trkpt>
      <trkpt lat="45.8463" lon="1.98875">
        <ele>713</ele>
        <time>2026-08-07T16:31:39.000Z</time>
      </trkpt>
      <trkpt lat="45.84621" lon="1.98859">
        <ele>712.7</ele>
        <time>2026-08-07T16:31:46.000Z</time>
      </trkpt>
      <trkpt lat="45.84612" lon="1.98841">
        <ele>712</ele>
        <time>2026-08-07T16:31:54.000Z</time>
      </trkpt>
      <trkpt lat="45.84611" lon="1.98841">
        <ele>712</ele>
        <time>2026-08-07T16:31:57.000Z</time>
      </trkpt>
      <trkpt lat="45.84608" lon="1.98833">
        <ele>711.9</ele>
        <time>2026-08-07T16:32:09.000Z</time>
      </trkpt>
      <trkpt lat="45.84597" lon="1.98814">
        <ele>711.5</ele>
        <time>2026-08-07T16:32:14.000Z</time>
      </trkpt>
      <trkpt lat="45.84586" lon="1.9879">
        <ele>710.2</ele>
        <time>2026-08-07T16:32:18.000Z</time>
      </trkpt>
      <trkpt lat="45.8458" lon="1.98776">
        <ele>709.7</ele>
        <time>2026-08-07T16:32:20.000Z</time>
      </trkpt>
      <trkpt lat="45.84573" lon="1.98759">
        <ele>709</ele>
        <time>2026-08-07T16:32:22.000Z</time>
      </trkpt>
      <trkpt lat="45.84569" lon="1.98749">
        <ele>708.4</ele>
        <time>2026-08-07T16:32:23.000Z</time>
      </trkpt>
      <trkpt lat="45.84562" lon="1.98728">
        <ele>706.9</ele>
        <time>2026-08-07T16:32:25.000Z</time>
      </trkpt>
      <trkpt lat="45.84558" lon="1.98707">
        <ele>706.3</ele>
        <time>2026-08-07T16:32:27.000Z</time>
      </trkpt>
      <trkpt lat="45.84556" lon="1.98696">
        <ele>706.1</ele>
        <time>2026-08-07T16:32:28.000Z</time>
      </trkpt>
      <trkpt lat="45.84555" lon="1.98684">
        <ele>705.9</ele>
        <time>2026-08-07T16:32:29.000Z</time>
      </trkpt>
      <trkpt lat="45.84554" lon="1.98673">
        <ele>705.7</ele>
        <time>2026-08-07T16:32:30.000Z</time>
      </trkpt>
      <trkpt lat="45.84548" lon="1.98642">
        <ele>704.8</ele>
        <time>2026-08-07T16:32:33.000Z</time>
      </trkpt>
      <trkpt lat="45.84541" lon="1.98623">
        <ele>705.1</ele>
        <time>2026-08-07T16:32:35.000Z</time>
      </trkpt>
      <trkpt lat="45.84524" lon="1.98589">
        <ele>705.1</ele>
        <time>2026-08-07T16:32:39.000Z</time>
      </trkpt>
      <trkpt lat="45.84515" lon="1.98574">
        <ele>704.8</ele>
        <time>2026-08-07T16:32:41.000Z</time>
      </trkpt>
      <trkpt lat="45.84508" lon="1.9856">
        <ele>704.8</ele>
        <time>2026-08-07T16:32:43.000Z</time>
      </trkpt>
      <trkpt lat="45.84502" lon="1.98546">
        <ele>705</ele>
        <time>2026-08-07T16:32:45.000Z</time>
      </trkpt>
      <trkpt lat="45.84486" lon="1.98496">
        <ele>705.5</ele>
        <time>2026-08-07T16:32:52.000Z</time>
      </trkpt>
      <trkpt lat="45.84474" lon="1.98449">
        <ele>703.4</ele>
        <time>2026-08-07T16:32:58.000Z</time>
      </trkpt>
      <trkpt lat="45.84467" lon="1.98416">
        <ele>703.5</ele>
        <time>2026-08-07T16:33:02.000Z</time>
      </trkpt>
      <trkpt lat="45.8446" lon="1.98384">
        <ele>702.4</ele>
        <time>2026-08-07T16:33:06.000Z</time>
      </trkpt>
      <trkpt lat="45.84449" lon="1.98326">
        <ele>701.6</ele>
        <time>2026-08-07T16:33:13.000Z</time>
      </trkpt>
      <trkpt lat="45.84447" lon="1.98318">
        <ele>701.3</ele>
        <time>2026-08-07T16:33:14.000Z</time>
      </trkpt>
      <trkpt lat="45.84438" lon="1.98253">
        <ele>700.3</ele>
        <time>2026-08-07T16:33:22.000Z</time>
      </trkpt>
      <trkpt lat="45.84439" lon="1.98229">
        <ele>699.8</ele>
        <time>2026-08-07T16:33:25.000Z</time>
      </trkpt>
      <trkpt lat="45.84441" lon="1.98195">
        <ele>697.9</ele>
        <time>2026-08-07T16:33:29.000Z</time>
      </trkpt>
      <trkpt lat="45.84444" lon="1.98167">
        <ele>695</ele>
        <time>2026-08-07T16:33:32.000Z</time>
      </trkpt>
      <trkpt lat="45.84446" lon="1.98147">
        <ele>693.6</ele>
        <time>2026-08-07T16:33:34.000Z</time>
      </trkpt>
      <trkpt lat="45.84447" lon="1.98137">
        <ele>692.9</ele>
        <time>2026-08-07T16:33:35.000Z</time>
      </trkpt>
      <trkpt lat="45.84453" lon="1.98111">
        <ele>691</ele>
        <time>2026-08-07T16:33:38.000Z</time>
      </trkpt>
      <trkpt lat="45.84456" lon="1.98102">
        <ele>690.3</ele>
        <time>2026-08-07T16:33:39.000Z</time>
      </trkpt>
      <trkpt lat="45.84459" lon="1.98093">
        <ele>689.7</ele>
        <time>2026-08-07T16:33:40.000Z</time>
      </trkpt>
      <trkpt lat="45.84463" lon="1.98085">
        <ele>689.1</ele>
        <time>2026-08-07T16:33:41.000Z</time>
      </trkpt>
      <trkpt lat="45.84475" lon="1.98071">
        <ele>687.7</ele>
        <time>2026-08-07T16:33:43.000Z</time>
      </trkpt>
      <trkpt lat="45.84482" lon="1.98066">
        <ele>687.1</ele>
        <time>2026-08-07T16:33:44.000Z</time>
      </trkpt>
      <trkpt lat="45.84489" lon="1.98063">
        <ele>686.8</ele>
        <time>2026-08-07T16:33:45.000Z</time>
      </trkpt>
      <trkpt lat="45.84497" lon="1.9806">
        <ele>686.5</ele>
        <time>2026-08-07T16:33:46.000Z</time>
      </trkpt>
      <trkpt lat="45.84505" lon="1.98058">
        <ele>686</ele>
        <time>2026-08-07T16:33:47.000Z</time>
      </trkpt>
      <trkpt lat="45.84521" lon="1.98056">
        <ele>684.5</ele>
        <time>2026-08-07T16:33:49.000Z</time>
      </trkpt>
      <trkpt lat="45.84538" lon="1.98054">
        <ele>683.8</ele>
        <time>2026-08-07T16:33:51.000Z</time>
      </trkpt>
      <trkpt lat="45.8456" lon="1.9805">
        <ele>683.8</ele>
        <time>2026-08-07T16:33:54.000Z</time>
      </trkpt>
      <trkpt lat="45.84595" lon="1.98038">
        <ele>685.1</ele>
        <time>2026-08-07T16:34:00.000Z</time>
      </trkpt>
      <trkpt lat="45.84599" lon="1.98035">
        <ele>685.4</ele>
        <time>2026-08-07T16:34:01.000Z</time>
      </trkpt>
      <trkpt lat="45.84608" lon="1.98028">
        <ele>686</ele>
        <time>2026-08-07T16:34:04.000Z</time>
      </trkpt>
      <trkpt lat="45.84621" lon="1.9801">
        <ele>687.7</ele>
        <time>2026-08-07T16:34:11.000Z</time>
      </trkpt>
      <trkpt lat="45.84628" lon="1.97997">
        <ele>688.7</ele>
        <time>2026-08-07T16:34:16.000Z</time>
      </trkpt>
      <trkpt lat="45.8463" lon="1.97994">
        <ele>688.7</ele>
        <time>2026-08-07T16:34:17.000Z</time>
      </trkpt>
      <trkpt lat="45.84641" lon="1.97973">
        <ele>689.1</ele>
        <time>2026-08-07T16:34:25.000Z</time>
      </trkpt>
      <trkpt lat="45.84643" lon="1.97967">
        <ele>689.3</ele>
        <time>2026-08-07T16:34:27.000Z</time>
      </trkpt>
      <trkpt lat="45.8465" lon="1.97952">
        <ele>689.8</ele>
        <time>2026-08-07T16:34:33.000Z</time>
      </trkpt>
      <trkpt lat="45.84657" lon="1.97934">
        <ele>690.3</ele>
        <time>2026-08-07T16:34:39.000Z</time>
      </trkpt>
      <trkpt lat="45.84663" lon="1.97908">
        <ele>689.8</ele>
        <time>2026-08-07T16:34:45.000Z</time>
      </trkpt>
      <trkpt lat="45.84674" lon="1.97877">
        <ele>689.1</ele>
        <time>2026-08-07T16:34:52.000Z</time>
      </trkpt>
      <trkpt lat="45.84692" lon="1.97835">
        <ele>689.7</ele>
        <time>2026-08-07T16:35:02.000Z</time>
      </trkpt>
      <trkpt lat="45.84702" lon="1.97811">
        <ele>690.2</ele>
        <time>2026-08-07T16:35:08.000Z</time>
      </trkpt>
      <trkpt lat="45.84706" lon="1.978">
        <ele>690.2</ele>
        <time>2026-08-07T16:35:11.000Z</time>
      </trkpt>
      <trkpt lat="45.84712" lon="1.97779">
        <ele>690</ele>
        <time>2026-08-07T16:35:16.000Z</time>
      </trkpt>
      <trkpt lat="45.84717" lon="1.97764">
        <ele>690.4</ele>
        <time>2026-08-07T16:35:20.000Z</time>
      </trkpt>
      <trkpt lat="45.84727" lon="1.97728">
        <ele>691.3</ele>
        <time>2026-08-07T16:35:29.000Z</time>
      </trkpt>
      <trkpt lat="45.84732" lon="1.97708">
        <ele>691.3</ele>
        <time>2026-08-07T16:35:34.000Z</time>
      </trkpt>
      <trkpt lat="45.84736" lon="1.97695">
        <ele>691.4</ele>
        <time>2026-08-07T16:35:37.000Z</time>
      </trkpt>
      <trkpt lat="45.84744" lon="1.97664">
        <ele>691.2</ele>
        <time>2026-08-07T16:35:45.000Z</time>
      </trkpt>
      <trkpt lat="45.84751" lon="1.97641">
        <ele>691.4</ele>
        <time>2026-08-07T16:35:51.000Z</time>
      </trkpt>
      <trkpt lat="45.84755" lon="1.97627">
        <ele>691.6</ele>
        <time>2026-08-07T16:35:54.000Z</time>
      </trkpt>
      <trkpt lat="45.84766" lon="1.97596">
        <ele>692</ele>
        <time>2026-08-07T16:36:01.000Z</time>
      </trkpt>
      <trkpt lat="45.84781" lon="1.97558">
        <ele>693.5</ele>
        <time>2026-08-07T16:36:11.000Z</time>
      </trkpt>
      <trkpt lat="45.84791" lon="1.97533">
        <ele>693.6</ele>
        <time>2026-08-07T16:36:19.000Z</time>
      </trkpt>
      <trkpt lat="45.84791" lon="1.97517">
        <ele>693.6</ele>
        <time>2026-08-07T16:36:23.000Z</time>
      </trkpt>
      <trkpt lat="45.84789" lon="1.97509">
        <ele>693.6</ele>
        <time>2026-08-07T16:36:25.000Z</time>
      </trkpt>
      <trkpt lat="45.8478" lon="1.97493">
        <ele>693.9</ele>
        <time>2026-08-07T16:36:30.000Z</time>
      </trkpt>
      <trkpt lat="45.84765" lon="1.97481">
        <ele>694.1</ele>
        <time>2026-08-07T16:36:36.000Z</time>
      </trkpt>
      <trkpt lat="45.84748" lon="1.97459">
        <ele>694.9</ele>
        <time>2026-08-07T16:36:45.000Z</time>
      </trkpt>
      <trkpt lat="45.84746" lon="1.97456">
        <ele>695.1</ele>
        <time>2026-08-07T16:36:46.000Z</time>
      </trkpt>
      <trkpt lat="45.84742" lon="1.97435">
        <ele>695.7</ele>
        <time>2026-08-07T16:36:51.000Z</time>
      </trkpt>
      <trkpt lat="45.84738" lon="1.97402">
        <ele>695.6</ele>
        <time>2026-08-07T16:36:58.000Z</time>
      </trkpt>
      <trkpt lat="45.84737" lon="1.97383">
        <ele>695.4</ele>
        <time>2026-08-07T16:37:01.000Z</time>
      </trkpt>
      <trkpt lat="45.84736" lon="1.9737">
        <ele>695.2</ele>
        <time>2026-08-07T16:37:03.000Z</time>
      </trkpt>
      <trkpt lat="45.84734" lon="1.97334">
        <ele>693.8</ele>
        <time>2026-08-07T16:37:08.000Z</time>
      </trkpt>
      <trkpt lat="45.84733" lon="1.97326">
        <ele>693.4</ele>
        <time>2026-08-07T16:37:09.000Z</time>
      </trkpt>
      <trkpt lat="45.8473" lon="1.97309">
        <ele>692.5</ele>
        <time>2026-08-07T16:37:11.000Z</time>
      </trkpt>
      <trkpt lat="45.84722" lon="1.97275">
        <ele>690.9</ele>
        <time>2026-08-07T16:37:15.000Z</time>
      </trkpt>
      <trkpt lat="45.8472" lon="1.97266">
        <ele>690.5</ele>
        <time>2026-08-07T16:37:16.000Z</time>
      </trkpt>
      <trkpt lat="45.84714" lon="1.97249">
        <ele>689.7</ele>
        <time>2026-08-07T16:37:18.000Z</time>
      </trkpt>
      <trkpt lat="45.84707" lon="1.97231">
        <ele>689.1</ele>
        <time>2026-08-07T16:37:20.000Z</time>
      </trkpt>
      <trkpt lat="45.8469" lon="1.97194">
        <ele>687.8</ele>
        <time>2026-08-07T16:37:24.000Z</time>
      </trkpt>
      <trkpt lat="45.84682" lon="1.97174">
        <ele>687.5</ele>
        <time>2026-08-07T16:37:26.000Z</time>
      </trkpt>
      <trkpt lat="45.84678" lon="1.97164">
        <ele>687.4</ele>
        <time>2026-08-07T16:37:27.000Z</time>
      </trkpt>
      <trkpt lat="45.84672" lon="1.97143">
        <ele>687.4</ele>
        <time>2026-08-07T16:37:29.000Z</time>
      </trkpt>
      <trkpt lat="45.8467" lon="1.97132">
        <ele>687.3</ele>
        <time>2026-08-07T16:37:30.000Z</time>
      </trkpt>
      <trkpt lat="45.84668" lon="1.9711">
        <ele>687.2</ele>
        <time>2026-08-07T16:37:32.000Z</time>
      </trkpt>
      <trkpt lat="45.84667" lon="1.97089">
        <ele>687.1</ele>
        <time>2026-08-07T16:37:34.000Z</time>
      </trkpt>
      <trkpt lat="45.84667" lon="1.97067">
        <ele>687</ele>
        <time>2026-08-07T16:37:36.000Z</time>
      </trkpt>
      <trkpt lat="45.84667" lon="1.97024">
        <ele>685</ele>
        <time>2026-08-07T16:37:40.000Z</time>
      </trkpt>
      <trkpt lat="45.84672" lon="1.96986">
        <ele>684.8</ele>
        <time>2026-08-07T16:37:44.000Z</time>
      </trkpt>
      <trkpt lat="45.84674" lon="1.96977">
        <ele>684.9</ele>
        <time>2026-08-07T16:37:45.000Z</time>
      </trkpt>
      <trkpt lat="45.84676" lon="1.96969">
        <ele>684.9</ele>
        <time>2026-08-07T16:37:46.000Z</time>
      </trkpt>
      <trkpt lat="45.84683" lon="1.96947">
        <ele>684.4</ele>
        <time>2026-08-07T16:37:49.000Z</time>
      </trkpt>
      <trkpt lat="45.84686" lon="1.96942">
        <ele>684.2</ele>
        <time>2026-08-07T16:37:50.000Z</time>
      </trkpt>
      <trkpt lat="45.84688" lon="1.96936">
        <ele>683.9</ele>
        <time>2026-08-07T16:37:51.000Z</time>
      </trkpt>
      <trkpt lat="45.84693" lon="1.96924">
        <ele>683.4</ele>
        <time>2026-08-07T16:37:53.000Z</time>
      </trkpt>
      <trkpt lat="45.84694" lon="1.96918">
        <ele>683.1</ele>
        <time>2026-08-07T16:37:54.000Z</time>
      </trkpt>
      <trkpt lat="45.84697" lon="1.96907">
        <ele>682.6</ele>
        <time>2026-08-07T16:37:56.000Z</time>
      </trkpt>
      <trkpt lat="45.84702" lon="1.96892">
        <ele>681.8</ele>
        <time>2026-08-07T16:38:00.000Z</time>
      </trkpt>
      <trkpt lat="45.84708" lon="1.96875">
        <ele>680.9</ele>
        <time>2026-08-07T16:38:04.000Z</time>
      </trkpt>
      <trkpt lat="45.8471" lon="1.96863">
        <ele>680.2</ele>
        <time>2026-08-07T16:38:08.000Z</time>
      </trkpt>
      <trkpt lat="45.8471" lon="1.96861">
        <ele>680.1</ele>
        <time>2026-08-07T16:38:12.000Z</time>
        <extensions>
          <visugpx:TrkExtension xmlns:visugpx="https://www.visugpx.com/editgpx/">
            <visugpx:node>1</visugpx:node>
            </visugpx:TrkExtension>
        </extensions>
      </trkpt>
      <trkpt lat="45.85468" lon="1.96733">
        <ele>685.3</ele>
        <time>2026-08-08T09:15:17.000Z</time>
      </trkpt>
      <trkpt lat="45.85468" lon="1.96727">
        <ele>685.4</ele>
        <time>2026-08-08T09:15:18.000Z</time>
      </trkpt>
      <trkpt lat="45.8547" lon="1.96717">
        <ele>685.7</ele>
        <time>2026-08-08T09:15:20.000Z</time>
      </trkpt>
      <trkpt lat="45.85472" lon="1.96704">
        <ele>686</ele>
        <time>2026-08-08T09:15:23.000Z</time>
      </trkpt>
      <trkpt lat="45.85477" lon="1.96674">
        <ele>686.7</ele>
        <time>2026-08-08T09:15:31.000Z</time>
      </trkpt>
      <trkpt lat="45.85479" lon="1.96663">
        <ele>687.1</ele>
        <time>2026-08-08T09:15:34.000Z</time>
      </trkpt>
      <trkpt lat="45.85481" lon="1.96648">
        <ele>688</ele>
        <time>2026-08-08T09:15:39.000Z</time>
      </trkpt>
      <trkpt lat="45.85484" lon="1.96632">
        <ele>688.7</ele>
        <time>2026-08-08T09:15:44.000Z</time>
      </trkpt>
      <trkpt lat="45.85485" lon="1.96629">
        <ele>688.8</ele>
        <time>2026-08-08T09:15:45.000Z</time>
      </trkpt>
      <trkpt lat="45.85489" lon="1.96597">
        <ele>689.1</ele>
        <time>2026-08-08T09:15:54.000Z</time>
      </trkpt>
      <trkpt lat="45.8549" lon="1.96589">
        <ele>689</ele>
        <time>2026-08-08T09:15:56.000Z</time>
      </trkpt>
      <trkpt lat="45.85493" lon="1.96574">
        <ele>689.2</ele>
        <time>2026-08-08T09:16:00.000Z</time>
      </trkpt>
      <trkpt lat="45.85497" lon="1.96555">
        <ele>689.7</ele>
        <time>2026-08-08T09:16:05.000Z</time>
      </trkpt>
      <trkpt lat="45.855" lon="1.9654">
        <ele>690</ele>
        <time>2026-08-08T09:16:09.000Z</time>
      </trkpt>
      <trkpt lat="45.85502" lon="1.96531">
        <ele>690.1</ele>
        <time>2026-08-08T09:16:11.000Z</time>
      </trkpt>
      <trkpt lat="45.85508" lon="1.965">
        <ele>690.5</ele>
        <time>2026-08-08T09:16:19.000Z</time>
      </trkpt>
      <trkpt lat="45.85511" lon="1.96471">
        <ele>690.8</ele>
        <time>2026-08-08T09:16:28.000Z</time>
      </trkpt>
      <trkpt lat="45.85514" lon="1.96453">
        <ele>691</ele>
        <time>2026-08-08T09:16:34.000Z</time>
      </trkpt>
      <trkpt lat="45.85517" lon="1.96441">
        <ele>691.1</ele>
        <time>2026-08-08T09:16:39.000Z</time>
      </trkpt>
      <trkpt lat="45.85518" lon="1.96435">
        <ele>691.1</ele>
        <time>2026-08-08T09:16:42.000Z</time>
      </trkpt>
      <trkpt lat="45.85522" lon="1.96419">
        <ele>690.8</ele>
        <time>2026-08-08T09:16:49.000Z</time>
      </trkpt>
      <trkpt lat="45.85527" lon="1.96392">
        <ele>690.1</ele>
        <time>2026-08-08T09:16:55.000Z</time>
      </trkpt>
      <trkpt lat="45.85534" lon="1.96351">
        <ele>687.8</ele>
        <time>2026-08-08T09:17:00.000Z</time>
      </trkpt>
      <trkpt lat="45.85541" lon="1.9631">
        <ele>685.3</ele>
        <time>2026-08-08T09:17:04.000Z</time>
      </trkpt>
      <trkpt lat="45.85543" lon="1.96298">
        <ele>684.4</ele>
        <time>2026-08-08T09:17:05.000Z</time>
      </trkpt>
      <trkpt lat="45.85549" lon="1.96262">
        <ele>681.9</ele>
        <time>2026-08-08T09:17:08.000Z</time>
      </trkpt>
      <trkpt lat="45.85553" lon="1.96238">
        <ele>681.7</ele>
        <time>2026-08-08T09:17:10.000Z</time>
      </trkpt>
      <trkpt lat="45.85556" lon="1.96222">
        <ele>682</ele>
        <time>2026-08-08T09:17:11.000Z</time>
      </trkpt>
      <trkpt lat="45.85557" lon="1.96213">
        <ele>681.7</ele>
        <time>2026-08-08T09:17:12.000Z</time>
      </trkpt>
      <trkpt lat="45.85564" lon="1.96178">
        <ele>681.9</ele>
        <time>2026-08-08T09:17:15.000Z</time>
      </trkpt>
      <trkpt lat="45.85567" lon="1.96169">
        <ele>682.7</ele>
        <time>2026-08-08T09:17:16.000Z</time>
      </trkpt>
      <trkpt lat="45.85574" lon="1.96141">
        <ele>684.9</ele>
        <time>2026-08-08T09:17:20.000Z</time>
      </trkpt>
      <trkpt lat="45.85582" lon="1.9612">
        <ele>685.9</ele>
        <time>2026-08-08T09:17:25.000Z</time>
      </trkpt>
      <trkpt lat="45.85585" lon="1.96115">
        <ele>686.3</ele>
        <time>2026-08-08T09:17:27.000Z</time>
      </trkpt>
      <trkpt lat="45.85591" lon="1.96106">
        <ele>687.4</ele>
        <time>2026-08-08T09:17:31.000Z</time>
      </trkpt>
      <trkpt lat="45.85593" lon="1.96103">
        <ele>687.7</ele>
        <time>2026-08-08T09:17:32.000Z</time>
      </trkpt>
      <trkpt lat="45.85601" lon="1.9609">
        <ele>689.1</ele>
        <time>2026-08-08T09:17:38.000Z</time>
      </trkpt>
      <trkpt lat="45.85603" lon="1.96085">
        <ele>689.4</ele>
        <time>2026-08-08T09:17:40.000Z</time>
      </trkpt>
      <trkpt lat="45.85613" lon="1.96074">
        <ele>690</ele>
        <time>2026-08-08T09:17:46.000Z</time>
      </trkpt>
      <trkpt lat="45.85616" lon="1.96071">
        <ele>690.1</ele>
        <time>2026-08-08T09:17:48.000Z</time>
      </trkpt>
      <trkpt lat="45.85619" lon="1.96067">
        <ele>690.1</ele>
        <time>2026-08-08T09:17:50.000Z</time>
      </trkpt>
      <trkpt lat="45.85623" lon="1.96062">
        <ele>690.1</ele>
        <time>2026-08-08T09:17:53.000Z</time>
      </trkpt>
      <trkpt lat="45.85639" lon="1.96051">
        <ele>689.8</ele>
        <time>2026-08-08T09:18:00.000Z</time>
      </trkpt>
      <trkpt lat="45.85642" lon="1.9605">
        <ele>689.7</ele>
        <time>2026-08-08T09:18:01.000Z</time>
      </trkpt>
      <trkpt lat="45.8566" lon="1.96047">
        <ele>688.7</ele>
        <time>2026-08-08T09:18:07.000Z</time>
      </trkpt>
      <trkpt lat="45.85681" lon="1.96045">
        <ele>687.8</ele>
        <time>2026-08-08T09:18:12.000Z</time>
      </trkpt>
      <trkpt lat="45.85711" lon="1.96042">
        <ele>686.7</ele>
        <time>2026-08-08T09:18:18.000Z</time>
      </trkpt>
      <trkpt lat="45.85742" lon="1.9603">
        <ele>686.1</ele>
        <time>2026-08-08T09:18:24.000Z</time>
      </trkpt>
      <trkpt lat="45.85773" lon="1.96007">
        <ele>687.7</ele>
        <time>2026-08-08T09:18:32.000Z</time>
      </trkpt>
      <trkpt lat="45.85784" lon="1.95996">
        <ele>688.9</ele>
        <time>2026-08-08T09:18:37.000Z</time>
      </trkpt>
      <trkpt lat="45.85791" lon="1.95993">
        <ele>690</ele>
        <time>2026-08-08T09:18:42.000Z</time>
      </trkpt>
      <trkpt lat="45.85798" lon="1.95985">
        <ele>690.6</ele>
        <time>2026-08-08T09:18:48.000Z</time>
      </trkpt>
      <trkpt lat="45.85799" lon="1.95985">
        <ele>690.9</ele>
        <time>2026-08-08T09:18:49.000Z</time>
      </trkpt>
      <trkpt lat="45.85803" lon="1.95983">
        <ele>691.3</ele>
        <time>2026-08-08T09:18:51.000Z</time>
      </trkpt>
      <trkpt lat="45.85807" lon="1.95979">
        <ele>691.7</ele>
        <time>2026-08-08T09:18:55.000Z</time>
      </trkpt>
      <trkpt lat="45.85811" lon="1.95976">
        <ele>692.2</ele>
        <time>2026-08-08T09:18:58.000Z</time>
      </trkpt>
      <trkpt lat="45.85813" lon="1.9597">
        <ele>692</ele>
        <time>2026-08-08T09:19:00.000Z</time>
      </trkpt>
      <trkpt lat="45.85814" lon="1.95967">
        <ele>691.9</ele>
        <time>2026-08-08T09:19:01.000Z</time>
      </trkpt>
      <trkpt lat="45.8582" lon="1.95962">
        <ele>692.3</ele>
        <time>2026-08-08T09:19:05.000Z</time>
      </trkpt>
      <trkpt lat="45.85822" lon="1.95959">
        <ele>692.3</ele>
        <time>2026-08-08T09:19:07.000Z</time>
      </trkpt>
      <trkpt lat="45.85825" lon="1.95955">
        <ele>692.2</ele>
        <time>2026-08-08T09:19:09.000Z</time>
      </trkpt>
      <trkpt lat="45.85834" lon="1.95943">
        <ele>692</ele>
        <time>2026-08-08T09:19:15.000Z</time>
      </trkpt>
      <trkpt lat="45.85852" lon="1.95929">
        <ele>692.6</ele>
        <time>2026-08-08T09:19:22.000Z</time>
      </trkpt>
      <trkpt lat="45.85861" lon="1.95926">
        <ele>693.3</ele>
        <time>2026-08-08T09:19:26.000Z</time>
      </trkpt>
      <trkpt lat="45.85865" lon="1.95923">
        <ele>693.6</ele>
        <time>2026-08-08T09:19:28.000Z</time>
      </trkpt>
      <trkpt lat="45.85869" lon="1.95919">
        <ele>693.4</ele>
        <time>2026-08-08T09:19:30.000Z</time>
      </trkpt>
      <trkpt lat="45.85878" lon="1.95914">
        <ele>693.9</ele>
        <time>2026-08-08T09:19:34.000Z</time>
      </trkpt>
      <trkpt lat="45.85882" lon="1.9591">
        <ele>694</ele>
        <time>2026-08-08T09:19:35.000Z</time>
      </trkpt>
      <trkpt lat="45.85889" lon="1.95898">
        <ele>693.4</ele>
        <time>2026-08-08T09:19:39.000Z</time>
      </trkpt>
      <trkpt lat="45.8589" lon="1.95896">
        <ele>693.2</ele>
        <time>2026-08-08T09:19:40.000Z</time>
      </trkpt>
      <trkpt lat="45.85891" lon="1.95891">
        <ele>692.7</ele>
        <time>2026-08-08T09:19:42.000Z</time>
      </trkpt>
      <trkpt lat="45.85892" lon="1.95887">
        <ele>692.5</ele>
        <time>2026-08-08T09:19:43.000Z</time>
      </trkpt>
      <trkpt lat="45.85898" lon="1.95877">
        <ele>693.3</ele>
        <time>2026-08-08T09:19:47.000Z</time>
      </trkpt>
      <trkpt lat="45.85902" lon="1.9587">
        <ele>693.7</ele>
        <time>2026-08-08T09:19:50.000Z</time>
      </trkpt>
      <trkpt lat="45.85912" lon="1.95855">
        <ele>694.3</ele>
        <time>2026-08-08T09:19:57.000Z</time>
      </trkpt>
      <trkpt lat="45.85922" lon="1.95834">
        <ele>694.3</ele>
        <time>2026-08-08T09:20:05.000Z</time>
      </trkpt>
      <trkpt lat="45.85939" lon="1.95813">
        <ele>694.6</ele>
        <time>2026-08-08T09:20:12.000Z</time>
      </trkpt>
      <trkpt lat="45.85953" lon="1.95791">
        <ele>693.7</ele>
        <time>2026-08-08T09:20:17.000Z</time>
      </trkpt>
      <trkpt lat="45.8597" lon="1.95766">
        <ele>693.1</ele>
        <time>2026-08-08T09:20:21.000Z</time>
      </trkpt>
      <trkpt lat="45.85975" lon="1.9576">
        <ele>692.6</ele>
        <time>2026-08-08T09:20:22.000Z</time>
      </trkpt>
      <trkpt lat="45.85985" lon="1.95734">
        <ele>690.6</ele>
        <time>2026-08-08T09:20:25.000Z</time>
      </trkpt>
      <trkpt lat="45.8599" lon="1.95717">
        <ele>689.5</ele>
        <time>2026-08-08T09:20:27.000Z</time>
      </trkpt>
      <trkpt lat="45.85994" lon="1.95697">
        <ele>688.1</ele>
        <time>2026-08-08T09:20:29.000Z</time>
      </trkpt>
      <trkpt lat="45.85995" lon="1.95685">
        <ele>687.3</ele>
        <time>2026-08-08T09:20:30.000Z</time>
      </trkpt>
      <trkpt lat="45.85995" lon="1.95672">
        <ele>686.6</ele>
        <time>2026-08-08T09:20:31.000Z</time>
      </trkpt>
      <trkpt lat="45.85993" lon="1.95648">
        <ele>686.2</ele>
        <time>2026-08-08T09:20:33.000Z</time>
      </trkpt>
      <trkpt lat="45.85991" lon="1.95637">
        <ele>686.1</ele>
        <time>2026-08-08T09:20:34.000Z</time>
      </trkpt>
      <trkpt lat="45.85989" lon="1.95627">
        <ele>686.1</ele>
        <time>2026-08-08T09:20:35.000Z</time>
      </trkpt>
      <trkpt lat="45.85985" lon="1.95617">
        <ele>686.2</ele>
        <time>2026-08-08T09:20:36.000Z</time>
      </trkpt>
      <trkpt lat="45.8598" lon="1.95608">
        <ele>686.3</ele>
        <time>2026-08-08T09:20:37.000Z</time>
      </trkpt>
      <trkpt lat="45.85976" lon="1.956">
        <ele>686.2</ele>
        <time>2026-08-08T09:20:38.000Z</time>
      </trkpt>
      <trkpt lat="45.85971" lon="1.95593">
        <ele>685.9</ele>
        <time>2026-08-08T09:20:39.000Z</time>
      </trkpt>
      <trkpt lat="45.85965" lon="1.95587">
        <ele>685.8</ele>
        <time>2026-08-08T09:20:40.000Z</time>
      </trkpt>
      <trkpt lat="45.85947" lon="1.95575">
        <ele>686.6</ele>
        <time>2026-08-08T09:20:43.000Z</time>
      </trkpt>
      <trkpt lat="45.85919" lon="1.95563">
        <ele>686</ele>
        <time>2026-08-08T09:20:48.000Z</time>
      </trkpt>
      <trkpt lat="45.85914" lon="1.95561">
        <ele>686.1</ele>
        <time>2026-08-08T09:20:49.000Z</time>
      </trkpt>
      <trkpt lat="45.85909" lon="1.95557">
        <ele>686.2</ele>
        <time>2026-08-08T09:20:50.000Z</time>
      </trkpt>
      <trkpt lat="45.859" lon="1.95549">
        <ele>686.6</ele>
        <time>2026-08-08T09:20:52.000Z</time>
      </trkpt>
      <trkpt lat="45.85891" lon="1.95538">
        <ele>687.2</ele>
        <time>2026-08-08T09:20:54.000Z</time>
      </trkpt>
      <trkpt lat="45.85884" lon="1.95524">
        <ele>686.9</ele>
        <time>2026-08-08T09:20:56.000Z</time>
      </trkpt>
      <trkpt lat="45.85879" lon="1.95512">
        <ele>686.8</ele>
        <time>2026-08-08T09:20:58.000Z</time>
      </trkpt>
      <trkpt lat="45.85869" lon="1.95482">
        <ele>687.1</ele>
        <time>2026-08-08T09:21:02.000Z</time>
      </trkpt>
      <trkpt lat="45.85862" lon="1.95461">
        <ele>686.2</ele>
        <time>2026-08-08T09:21:05.000Z</time>
      </trkpt>
      <trkpt lat="45.8586" lon="1.95448">
        <ele>685.7</ele>
        <time>2026-08-08T09:21:07.000Z</time>
      </trkpt>
      <trkpt lat="45.85856" lon="1.95432">
        <ele>685.1</ele>
        <time>2026-08-08T09:21:09.000Z</time>
      </trkpt>
      <trkpt lat="45.85851" lon="1.95417">
        <ele>685.1</ele>
        <time>2026-08-08T09:21:11.000Z</time>
      </trkpt>
      <trkpt lat="45.85849" lon="1.95408">
        <ele>685.2</ele>
        <time>2026-08-08T09:21:12.000Z</time>
      </trkpt>
      <trkpt lat="45.85845" lon="1.95398">
        <ele>685.2</ele>
        <time>2026-08-08T09:21:13.000Z</time>
      </trkpt>
      <trkpt lat="45.85838" lon="1.9538">
        <ele>683.8</ele>
        <time>2026-08-08T09:21:15.000Z</time>
      </trkpt>
      <trkpt lat="45.85834" lon="1.95372">
        <ele>682.2</ele>
        <time>2026-08-08T09:21:16.000Z</time>
      </trkpt>
      <trkpt lat="45.8582" lon="1.95352">
        <ele>680.5</ele>
        <time>2026-08-08T09:21:19.000Z</time>
      </trkpt>
      <trkpt lat="45.85814" lon="1.95347">
        <ele>680.1</ele>
        <time>2026-08-08T09:21:20.000Z</time>
      </trkpt>
      <trkpt lat="45.85807" lon="1.95342">
        <ele>679.4</ele>
        <time>2026-08-08T09:21:21.000Z</time>
      </trkpt>
      <trkpt lat="45.85798" lon="1.95339">
        <ele>678.6</ele>
        <time>2026-08-08T09:21:22.000Z</time>
      </trkpt>
      <trkpt lat="45.85788" lon="1.95336">
        <ele>677.7</ele>
        <time>2026-08-08T09:21:23.000Z</time>
      </trkpt>
      <trkpt lat="45.85779" lon="1.95334">
        <ele>677.1</ele>
        <time>2026-08-08T09:21:24.000Z</time>
      </trkpt>
      <trkpt lat="45.85751" lon="1.95334">
        <ele>675.9</ele>
        <time>2026-08-08T09:21:27.000Z</time>
      </trkpt>
      <trkpt lat="45.85735" lon="1.95336">
        <ele>675.6</ele>
        <time>2026-08-08T09:21:29.000Z</time>
      </trkpt>
      <trkpt lat="45.85728" lon="1.95336">
        <ele>675.6</ele>
        <time>2026-08-08T09:21:30.000Z</time>
      </trkpt>
      <trkpt lat="45.85707" lon="1.95336">
        <ele>675.5</ele>
        <time>2026-08-08T09:21:33.000Z</time>
      </trkpt>
      <trkpt lat="45.85694" lon="1.95338">
        <ele>675.4</ele>
        <time>2026-08-08T09:21:35.000Z</time>
      </trkpt>
      <trkpt lat="45.85665" lon="1.95339">
        <ele>674.4</ele>
        <time>2026-08-08T09:21:40.000Z</time>
      </trkpt>
      <trkpt lat="45.8566" lon="1.9534">
        <ele>674.3</ele>
        <time>2026-08-08T09:21:41.000Z</time>
      </trkpt>
      <trkpt lat="45.85626" lon="1.95342">
        <ele>673.7</ele>
        <time>2026-08-08T09:21:48.000Z</time>
      </trkpt>
      <trkpt lat="45.85574" lon="1.95345">
        <ele>673</ele>
        <time>2026-08-08T09:21:59.000Z</time>
      </trkpt>
      <trkpt lat="45.85547" lon="1.95336">
        <ele>674.2</ele>
        <time>2026-08-08T09:22:05.000Z</time>
      </trkpt>
      <trkpt lat="45.85543" lon="1.95333">
        <ele>675.2</ele>
        <time>2026-08-08T09:22:06.000Z</time>
      </trkpt>
      <trkpt lat="45.85531" lon="1.9532">
        <ele>677.4</ele>
        <time>2026-08-08T09:22:10.000Z</time>
      </trkpt>
      <trkpt lat="45.85517" lon="1.95296">
        <ele>678.7</ele>
        <time>2026-08-08T09:22:16.000Z</time>
      </trkpt>
      <trkpt lat="45.85514" lon="1.95289">
        <ele>678.7</ele>
        <time>2026-08-08T09:22:18.000Z</time>
      </trkpt>
      <trkpt lat="45.8551" lon="1.9528">
        <ele>678.4</ele>
        <time>2026-08-08T09:22:21.000Z</time>
      </trkpt>
      <trkpt lat="45.85506" lon="1.95268">
        <ele>678.7</ele>
        <time>2026-08-08T09:22:26.000Z</time>
      </trkpt>
      <trkpt lat="45.85505" lon="1.95265">
        <ele>678.9</ele>
        <time>2026-08-08T09:22:27.000Z</time>
      </trkpt>
      <trkpt lat="45.85503" lon="1.95256">
        <ele>679.3</ele>
        <time>2026-08-08T09:22:31.000Z</time>
      </trkpt>
      <trkpt lat="45.85499" lon="1.95245">
        <ele>680.3</ele>
        <time>2026-08-08T09:22:35.000Z</time>
      </trkpt>
      <trkpt lat="45.85496" lon="1.95238">
        <ele>680.9</ele>
        <time>2026-08-08T09:22:38.000Z</time>
      </trkpt>
      <trkpt lat="45.85491" lon="1.95226">
        <ele>681.3</ele>
        <time>2026-08-08T09:22:43.000Z</time>
      </trkpt>
      <trkpt lat="45.85486" lon="1.95207">
        <ele>681.8</ele>
        <time>2026-08-08T09:22:50.000Z</time>
      </trkpt>
      <trkpt lat="45.85483" lon="1.95198">
        <ele>682.2</ele>
        <time>2026-08-08T09:22:53.000Z</time>
      </trkpt>
      <trkpt lat="45.85479" lon="1.95189">
        <ele>682.4</ele>
        <time>2026-08-08T09:22:56.000Z</time>
      </trkpt>
      <trkpt lat="45.85474" lon="1.95177">
        <ele>682.8</ele>
        <time>2026-08-08T09:23:00.000Z</time>
      </trkpt>
      <trkpt lat="45.85469" lon="1.95164">
        <ele>683.6</ele>
        <time>2026-08-08T09:23:04.000Z</time>
      </trkpt>
      <trkpt lat="45.85468" lon="1.95157">
        <ele>683.8</ele>
        <time>2026-08-08T09:23:06.000Z</time>
      </trkpt>
      <trkpt lat="45.85462" lon="1.95142">
        <ele>684.5</ele>
        <time>2026-08-08T09:23:10.000Z</time>
      </trkpt>
      <trkpt lat="45.85458" lon="1.95131">
        <ele>684.6</ele>
        <time>2026-08-08T09:23:13.000Z</time>
      </trkpt>
      <trkpt lat="45.85452" lon="1.95109">
        <ele>684.6</ele>
        <time>2026-08-08T09:23:19.000Z</time>
      </trkpt>
      <trkpt lat="45.85442" lon="1.95083">
        <ele>684.3</ele>
        <time>2026-08-08T09:23:27.000Z</time>
      </trkpt>
      <trkpt lat="45.85432" lon="1.9505">
        <ele>684.5</ele>
        <time>2026-08-08T09:23:36.000Z</time>
      </trkpt>
      <trkpt lat="45.85431" lon="1.95046">
        <ele>684.3</ele>
        <time>2026-08-08T09:23:37.000Z</time>
      </trkpt>
      <trkpt lat="45.85419" lon="1.95009">
        <ele>683.7</ele>
        <time>2026-08-08T09:23:46.000Z</time>
      </trkpt>
      <trkpt lat="45.85418" lon="1.95005">
        <ele>683.9</ele>
        <time>2026-08-08T09:23:47.000Z</time>
      </trkpt>
      <trkpt lat="45.85406" lon="1.9497">
        <ele>682.7</ele>
        <time>2026-08-08T09:23:55.000Z</time>
      </trkpt>
      <trkpt lat="45.85398" lon="1.94946">
        <ele>685</ele>
        <time>2026-08-08T09:24:01.000Z</time>
      </trkpt>
      <trkpt lat="45.85386" lon="1.94911">
        <ele>685.4</ele>
        <time>2026-08-08T09:24:10.000Z</time>
      </trkpt>
      <trkpt lat="45.85369" lon="1.94867">
        <ele>686.4</ele>
        <time>2026-08-08T09:24:21.000Z</time>
      </trkpt>
      <trkpt lat="45.85347" lon="1.9483">
        <ele>685.9</ele>
        <time>2026-08-08T09:24:31.000Z</time>
      </trkpt>
      <trkpt lat="45.85345" lon="1.94827">
        <ele>686</ele>
        <time>2026-08-08T09:24:32.000Z</time>
      </trkpt>
      <trkpt lat="45.85317" lon="1.94802">
        <ele>686.5</ele>
        <time>2026-08-08T09:24:41.000Z</time>
      </trkpt>
      <trkpt lat="45.85285" lon="1.94789">
        <ele>686</ele>
        <time>2026-08-08T09:24:50.000Z</time>
      </trkpt>
      <trkpt lat="45.85264" lon="1.9479">
        <ele>685.4</ele>
        <time>2026-08-08T09:24:55.000Z</time>
      </trkpt>
      <trkpt lat="45.85255" lon="1.9479">
        <ele>685</ele>
        <time>2026-08-08T09:24:57.000Z</time>
      </trkpt>
      <trkpt lat="45.85233" lon="1.94791">
        <ele>685.2</ele>
        <time>2026-08-08T09:25:02.000Z</time>
      </trkpt>
      <trkpt lat="45.8522" lon="1.94793">
        <ele>685.6</ele>
        <time>2026-08-08T09:25:05.000Z</time>
      </trkpt>
      <trkpt lat="45.85184" lon="1.94793">
        <ele>685.5</ele>
        <time>2026-08-08T09:25:13.000Z</time>
      </trkpt>
      <trkpt lat="45.85161" lon="1.94794">
        <ele>685.4</ele>
        <time>2026-08-08T09:25:19.000Z</time>
      </trkpt>
      <trkpt lat="45.85136" lon="1.94784">
        <ele>684.8</ele>
        <time>2026-08-08T09:25:26.000Z</time>
      </trkpt>
      <trkpt lat="45.85111" lon="1.94762">
        <ele>684.9</ele>
        <time>2026-08-08T09:25:33.000Z</time>
      </trkpt>
      <trkpt lat="45.85089" lon="1.9473">
        <ele>683.4</ele>
        <time>2026-08-08T09:25:39.000Z</time>
      </trkpt>
      <trkpt lat="45.85081" lon="1.94719">
        <ele>682.8</ele>
        <time>2026-08-08T09:25:41.000Z</time>
      </trkpt>
      <trkpt lat="45.85067" lon="1.94698">
        <ele>681.2</ele>
        <time>2026-08-08T09:25:44.000Z</time>
      </trkpt>
      <trkpt lat="45.85054" lon="1.94675">
        <ele>680.3</ele>
        <time>2026-08-08T09:25:47.000Z</time>
      </trkpt>
      <trkpt lat="45.85041" lon="1.94652">
        <ele>679.5</ele>
        <time>2026-08-08T09:25:50.000Z</time>
      </trkpt>
      <trkpt lat="45.85037" lon="1.94644">
        <ele>679.2</ele>
        <time>2026-08-08T09:25:51.000Z</time>
      </trkpt>
      <trkpt lat="45.85027" lon="1.94629">
        <ele>678.6</ele>
        <time>2026-08-08T09:25:53.000Z</time>
      </trkpt>
      <trkpt lat="45.8501" lon="1.94602">
        <ele>678.7</ele>
        <time>2026-08-08T09:25:57.000Z</time>
      </trkpt>
      <trkpt lat="45.85007" lon="1.94596">
        <ele>679.1</ele>
        <time>2026-08-08T09:25:58.000Z</time>
      </trkpt>
      <trkpt lat="45.84989" lon="1.94566">
        <ele>679.5</ele>
        <time>2026-08-08T09:26:04.000Z</time>
      </trkpt>
      <trkpt lat="45.8498" lon="1.94549">
        <ele>680.2</ele>
        <time>2026-08-08T09:26:10.000Z</time>
      </trkpt>
      <trkpt lat="45.84979" lon="1.94546">
        <ele>680.4</ele>
        <time>2026-08-08T09:26:11.000Z</time>
      </trkpt>
      <trkpt lat="45.84975" lon="1.94537">
        <ele>681.6</ele>
        <time>2026-08-08T09:26:16.000Z</time>
      </trkpt>
      <trkpt lat="45.84968" lon="1.94517">
        <ele>682.9</ele>
        <time>2026-08-08T09:26:23.000Z</time>
      </trkpt>
      <trkpt lat="45.84964" lon="1.94503">
        <ele>683.7</ele>
        <time>2026-08-08T09:26:29.000Z</time>
      </trkpt>
      <trkpt lat="45.84959" lon="1.94477">
        <ele>687.2</ele>
        <time>2026-08-08T09:26:39.000Z</time>
      </trkpt>
      <trkpt lat="45.8496" lon="1.94472">
        <ele>687.5</ele>
        <time>2026-08-08T09:26:41.000Z</time>
      </trkpt>
      <trkpt lat="45.84961" lon="1.9446">
        <ele>688</ele>
        <time>2026-08-08T09:26:47.000Z</time>
      </trkpt>
      <trkpt lat="45.84964" lon="1.94443">
        <ele>688.2</ele>
        <time>2026-08-08T09:26:54.000Z</time>
      </trkpt>
      <trkpt lat="45.84964" lon="1.94441">
        <ele>688.3</ele>
        <time>2026-08-08T09:26:55.000Z</time>
      </trkpt>
      <trkpt lat="45.84966" lon="1.94429">
        <ele>689.1</ele>
        <time>2026-08-08T09:27:00.000Z</time>
      </trkpt>
      <trkpt lat="45.84966" lon="1.94427">
        <ele>689.3</ele>
        <time>2026-08-08T09:27:01.000Z</time>
      </trkpt>
      <trkpt lat="45.84965" lon="1.94422">
        <ele>689.9</ele>
        <time>2026-08-08T09:27:03.000Z</time>
      </trkpt>
      <trkpt lat="45.84964" lon="1.94412">
        <ele>690.6</ele>
        <time>2026-08-08T09:27:06.000Z</time>
      </trkpt>
      <trkpt lat="45.84963" lon="1.94406">
        <ele>690.8</ele>
        <time>2026-08-08T09:27:08.000Z</time>
      </trkpt>
      <trkpt lat="45.84962" lon="1.94399">
        <ele>691</ele>
        <time>2026-08-08T09:27:11.000Z</time>
      </trkpt>
      <trkpt lat="45.8496" lon="1.94393">
        <ele>691.3</ele>
        <time>2026-08-08T09:27:15.000Z</time>
      </trkpt>
      <trkpt lat="45.84951" lon="1.94376">
        <ele>691.9</ele>
        <time>2026-08-08T09:27:23.000Z</time>
      </trkpt>
      <trkpt lat="45.84949" lon="1.94373">
        <ele>692</ele>
        <time>2026-08-08T09:27:25.000Z</time>
      </trkpt>
      <trkpt lat="45.8494" lon="1.9436">
        <ele>692.8</ele>
        <time>2026-08-08T09:27:32.000Z</time>
      </trkpt>
      <trkpt lat="45.84936" lon="1.94355">
        <ele>693</ele>
        <time>2026-08-08T09:27:35.000Z</time>
      </trkpt>
      <trkpt lat="45.84929" lon="1.94347">
        <ele>693.5</ele>
        <time>2026-08-08T09:27:40.000Z</time>
      </trkpt>
      <trkpt lat="45.84921" lon="1.94338">
        <ele>693.8</ele>
        <time>2026-08-08T09:27:46.000Z</time>
      </trkpt>
      <trkpt lat="45.8492" lon="1.94334">
        <ele>693.6</ele>
        <time>2026-08-08T09:27:48.000Z</time>
      </trkpt>
      <trkpt lat="45.84919" lon="1.94332">
        <ele>693.6</ele>
        <time>2026-08-08T09:27:49.000Z</time>
      </trkpt>
      <trkpt lat="45.84913" lon="1.94324">
        <ele>694</ele>
        <time>2026-08-08T09:27:54.000Z</time>
      </trkpt>
      <trkpt lat="45.84902" lon="1.9431">
        <ele>694.9</ele>
        <time>2026-08-08T09:28:02.000Z</time>
      </trkpt>
      <trkpt lat="45.8489" lon="1.94291">
        <ele>695.9</ele>
        <time>2026-08-08T09:28:12.000Z</time>
      </trkpt>
      <trkpt lat="45.84882" lon="1.94277">
        <ele>695.4</ele>
        <time>2026-08-08T09:28:18.000Z</time>
      </trkpt>
      <trkpt lat="45.84881" lon="1.94275">
        <ele>695.4</ele>
        <time>2026-08-08T09:28:19.000Z</time>
      </trkpt>
      <trkpt lat="45.8487" lon="1.94254">
        <ele>695.5</ele>
        <time>2026-08-08T09:28:26.000Z</time>
      </trkpt>
      <trkpt lat="45.84866" lon="1.9423">
        <ele>695.8</ele>
        <time>2026-08-08T09:28:33.000Z</time>
      </trkpt>
      <trkpt lat="45.84864" lon="1.94222">
        <ele>695.9</ele>
        <time>2026-08-08T09:28:36.000Z</time>
      </trkpt>
      <trkpt lat="45.84863" lon="1.94218">
        <ele>695.9</ele>
        <time>2026-08-08T09:28:37.000Z</time>
      </trkpt>
      <trkpt lat="45.84863" lon="1.9421">
        <ele>695.9</ele>
        <time>2026-08-08T09:28:39.000Z</time>
      </trkpt>
      <trkpt lat="45.84872" lon="1.94179">
        <ele>695.6</ele>
        <time>2026-08-08T09:28:47.000Z</time>
      </trkpt>
      <trkpt lat="45.84883" lon="1.94165">
        <ele>695.3</ele>
        <time>2026-08-08T09:28:53.000Z</time>
      </trkpt>
      <trkpt lat="45.84897" lon="1.94157">
        <ele>695.8</ele>
        <time>2026-08-08T09:29:00.000Z</time>
      </trkpt>
      <trkpt lat="45.84915" lon="1.94161">
        <ele>696.5</ele>
        <time>2026-08-08T09:29:09.000Z</time>
      </trkpt>
      <trkpt lat="45.84924" lon="1.94168">
        <ele>696.7</ele>
        <time>2026-08-08T09:29:15.000Z</time>
      </trkpt>
      <trkpt lat="45.84935" lon="1.94178">
        <ele>697.5</ele>
        <time>2026-08-08T09:29:22.000Z</time>
      </trkpt>
      <trkpt lat="45.84939" lon="1.94181">
        <ele>697.8</ele>
        <time>2026-08-08T09:29:25.000Z</time>
      </trkpt>
      <trkpt lat="45.84943" lon="1.94182">
        <ele>698.2</ele>
        <time>2026-08-08T09:29:27.000Z</time>
      </trkpt>
      <trkpt lat="45.84945" lon="1.94183">
        <ele>698.4</ele>
        <time>2026-08-08T09:29:28.000Z</time>
      </trkpt>
      <trkpt lat="45.84965" lon="1.94187">
        <ele>699.2</ele>
        <time>2026-08-08T09:29:37.000Z</time>
      </trkpt>
      <trkpt lat="45.84967" lon="1.94186">
        <ele>699.3</ele>
        <time>2026-08-08T09:29:38.000Z</time>
      </trkpt>
      <trkpt lat="45.84982" lon="1.94187">
        <ele>699.9</ele>
        <time>2026-08-08T09:29:44.000Z</time>
      </trkpt>
      <trkpt lat="45.84999" lon="1.94185">
        <ele>700.6</ele>
        <time>2026-08-08T09:29:51.000Z</time>
      </trkpt>
      <trkpt lat="45.85004" lon="1.94185">
        <ele>700.6</ele>
        <time>2026-08-08T09:29:53.000Z</time>
      </trkpt>
      <trkpt lat="45.85018" lon="1.94182">
        <ele>700.6</ele>
        <time>2026-08-08T09:30:00.000Z</time>
      </trkpt>
      <trkpt lat="45.8504" lon="1.94178">
        <ele>699.5</ele>
        <time>2026-08-08T09:30:08.000Z</time>
      </trkpt>
      <trkpt lat="45.85057" lon="1.94164">
        <ele>699.1</ele>
        <time>2026-08-08T09:30:14.000Z</time>
      </trkpt>
      <trkpt lat="45.85074" lon="1.94138">
        <ele>699.5</ele>
        <time>2026-08-08T09:30:20.000Z</time>
      </trkpt>
      <trkpt lat="45.85079" lon="1.94122">
        <ele>699.7</ele>
        <time>2026-08-08T09:30:23.000Z</time>
      </trkpt>
      <trkpt lat="45.85081" lon="1.94109">
        <ele>700.1</ele>
        <time>2026-08-08T09:30:25.000Z</time>
      </trkpt>
      <trkpt lat="45.85085" lon="1.9406">
        <ele>698.9</ele>
        <time>2026-08-08T09:30:33.000Z</time>
      </trkpt>
      <trkpt lat="45.85092" lon="1.94044">
        <ele>698.6</ele>
        <time>2026-08-08T09:30:36.000Z</time>
      </trkpt>
      <trkpt lat="45.85098" lon="1.94036">
        <ele>698.7</ele>
        <time>2026-08-08T09:30:38.000Z</time>
      </trkpt>
      <trkpt lat="45.85116" lon="1.94025">
        <ele>699.4</ele>
        <time>2026-08-08T09:30:43.000Z</time>
      </trkpt>
      <trkpt lat="45.8512" lon="1.94023">
        <ele>699.6</ele>
        <time>2026-08-08T09:30:44.000Z</time>
      </trkpt>
      <trkpt lat="45.85136" lon="1.94015">
        <ele>700.8</ele>
        <time>2026-08-08T09:30:50.000Z</time>
      </trkpt>
      <trkpt lat="45.85146" lon="1.94005">
        <ele>701.7</ele>
        <time>2026-08-08T09:30:56.000Z</time>
      </trkpt>
      <trkpt lat="45.85147" lon="1.94003">
        <ele>701.8</ele>
        <time>2026-08-08T09:30:57.000Z</time>
      </trkpt>
      <trkpt lat="45.85157" lon="1.93991">
        <ele>702.5</ele>
        <time>2026-08-08T09:31:04.000Z</time>
      </trkpt>
      <trkpt lat="45.85159" lon="1.9399">
        <ele>702.6</ele>
        <time>2026-08-08T09:31:05.000Z</time>
      </trkpt>
      <trkpt lat="45.85165" lon="1.9398">
        <ele>703.4</ele>
        <time>2026-08-08T09:31:11.000Z</time>
      </trkpt>
      <trkpt lat="45.85172" lon="1.9397">
        <ele>704.5</ele>
        <time>2026-08-08T09:31:17.000Z</time>
      </trkpt>
      <trkpt lat="45.85175" lon="1.93965">
        <ele>705.1</ele>
        <time>2026-08-08T09:31:20.000Z</time>
      </trkpt>
      <trkpt lat="45.85179" lon="1.93958">
        <ele>705.7</ele>
        <time>2026-08-08T09:31:24.000Z</time>
      </trkpt>
      <trkpt lat="45.85184" lon="1.93947">
        <ele>706.5</ele>
        <time>2026-08-08T09:31:30.000Z</time>
      </trkpt>
      <trkpt lat="45.85185" lon="1.93945">
        <ele>706.6</ele>
        <time>2026-08-08T09:31:31.000Z</time>
      </trkpt>
      <trkpt lat="45.85187" lon="1.93942">
        <ele>706.8</ele>
        <time>2026-08-08T09:31:33.000Z</time>
      </trkpt>
      <trkpt lat="45.85191" lon="1.93931">
        <ele>707.4</ele>
        <time>2026-08-08T09:31:39.000Z</time>
      </trkpt>
      <trkpt lat="45.85191" lon="1.93929">
        <ele>707.4</ele>
        <time>2026-08-08T09:31:40.000Z</time>
      </trkpt>
      <trkpt lat="45.85192" lon="1.93914">
        <ele>708</ele>
        <time>2026-08-08T09:31:47.000Z</time>
      </trkpt>
      <trkpt lat="45.85192" lon="1.93912">
        <ele>708.1</ele>
        <time>2026-08-08T09:31:48.000Z</time>
      </trkpt>
      <trkpt lat="45.85193" lon="1.9389">
        <ele>708.9</ele>
        <time>2026-08-08T09:31:56.000Z</time>
      </trkpt>
      <trkpt lat="45.85196" lon="1.93868">
        <ele>709</ele>
        <time>2026-08-08T09:32:04.000Z</time>
      </trkpt>
      <trkpt lat="45.852" lon="1.93852">
        <ele>709.5</ele>
        <time>2026-08-08T09:32:10.000Z</time>
      </trkpt>
      <trkpt lat="45.85201" lon="1.9385">
        <ele>709.5</ele>
        <time>2026-08-08T09:32:11.000Z</time>
      </trkpt>
      <trkpt lat="45.85207" lon="1.93834">
        <ele>710</ele>
        <time>2026-08-08T09:32:18.000Z</time>
      </trkpt>
      <trkpt lat="45.85213" lon="1.93819">
        <ele>710.5</ele>
        <time>2026-08-08T09:32:24.000Z</time>
      </trkpt>
      <trkpt lat="45.85216" lon="1.93807">
        <ele>711</ele>
        <time>2026-08-08T09:32:29.000Z</time>
      </trkpt>
      <trkpt lat="45.8522" lon="1.93786">
        <ele>711.8</ele>
        <time>2026-08-08T09:32:38.000Z</time>
      </trkpt>
      <trkpt lat="45.8522" lon="1.93781">
        <ele>712</ele>
        <time>2026-08-08T09:32:40.000Z</time>
      </trkpt>
      <trkpt lat="45.8522" lon="1.93766">
        <ele>712.5</ele>
        <time>2026-08-08T09:32:46.000Z</time>
      </trkpt>
      <trkpt lat="45.85211" lon="1.93757">
        <ele>713.2</ele>
        <time>2026-08-08T09:32:52.000Z</time>
      </trkpt>
      <trkpt lat="45.85204" lon="1.93753">
        <ele>713.5</ele>
        <time>2026-08-08T09:32:56.000Z</time>
      </trkpt>
      <trkpt lat="45.85197" lon="1.93748">
        <ele>714</ele>
        <time>2026-08-08T09:33:00.000Z</time>
      </trkpt>
      <trkpt lat="45.85186" lon="1.93746">
        <ele>714.4</ele>
        <time>2026-08-08T09:33:06.000Z</time>
      </trkpt>
      <trkpt lat="45.85184" lon="1.93745">
        <ele>714.5</ele>
        <time>2026-08-08T09:33:07.000Z</time>
      </trkpt>
      <trkpt lat="45.85177" lon="1.93743">
        <ele>714.9</ele>
        <time>2026-08-08T09:33:11.000Z</time>
      </trkpt>
      <trkpt lat="45.85172" lon="1.93741">
        <ele>715.2</ele>
        <time>2026-08-08T09:33:14.000Z</time>
      </trkpt>
      <trkpt lat="45.85166" lon="1.93737">
        <ele>715.8</ele>
        <time>2026-08-08T09:33:18.000Z</time>
      </trkpt>
      <trkpt lat="45.85156" lon="1.93733">
        <ele>716.2</ele>
        <time>2026-08-08T09:33:24.000Z</time>
      </trkpt>
      <trkpt lat="45.85153" lon="1.9373">
        <ele>716.6</ele>
        <time>2026-08-08T09:33:26.000Z</time>
      </trkpt>
      <trkpt lat="45.85141" lon="1.93721">
        <ele>718.1</ele>
        <time>2026-08-08T09:33:34.000Z</time>
      </trkpt>
      <trkpt lat="45.8513" lon="1.93714">
        <ele>718.2</ele>
        <time>2026-08-08T09:33:41.000Z</time>
      </trkpt>
      <trkpt lat="45.85118" lon="1.93706">
        <ele>718.9</ele>
        <time>2026-08-08T09:33:49.000Z</time>
      </trkpt>
      <trkpt lat="45.85113" lon="1.93703">
        <ele>719.2</ele>
        <time>2026-08-08T09:33:52.000Z</time>
      </trkpt>
      <trkpt lat="45.85108" lon="1.93705">
        <ele>718.9</ele>
        <time>2026-08-08T09:33:55.000Z</time>
      </trkpt>
      <trkpt lat="45.85103" lon="1.93705">
        <ele>719.1</ele>
        <time>2026-08-08T09:33:58.000Z</time>
      </trkpt>
      <trkpt lat="45.851" lon="1.93702">
        <ele>719.8</ele>
        <time>2026-08-08T09:34:00.000Z</time>
      </trkpt>
      <trkpt lat="45.85099" lon="1.93702">
        <ele>720</ele>
        <time>2026-08-08T09:34:01.000Z</time>
      </trkpt>
      <trkpt lat="45.85097" lon="1.93703">
        <ele>719.6</ele>
        <time>2026-08-08T09:34:03.000Z</time>
      </trkpt>
      <trkpt lat="45.85094" lon="1.93703">
        <ele>719.7</ele>
        <time>2026-08-08T09:34:05.000Z</time>
      </trkpt>
      <trkpt lat="45.85093" lon="1.93702">
        <ele>720.1</ele>
        <time>2026-08-08T09:34:06.000Z</time>
      </trkpt>
      <trkpt lat="45.85091" lon="1.93701">
        <ele>720.5</ele>
        <time>2026-08-08T09:34:07.000Z</time>
      </trkpt>
      <trkpt lat="45.85082" lon="1.937">
        <ele>721.4</ele>
        <time>2026-08-08T09:34:12.000Z</time>
      </trkpt>
      <trkpt lat="45.85072" lon="1.93695">
        <ele>722.8</ele>
        <time>2026-08-08T09:34:18.000Z</time>
      </trkpt>
      <trkpt lat="45.8507" lon="1.93693">
        <ele>723.3</ele>
        <time>2026-08-08T09:34:20.000Z</time>
      </trkpt>
      <trkpt lat="45.85065" lon="1.93688">
        <ele>723.9</ele>
        <time>2026-08-08T09:34:24.000Z</time>
      </trkpt>
      <trkpt lat="45.85062" lon="1.93685">
        <ele>724.4</ele>
        <time>2026-08-08T09:34:27.000Z</time>
      </trkpt>
      <trkpt lat="45.85059" lon="1.9368">
        <ele>725.1</ele>
        <time>2026-08-08T09:34:30.000Z</time>
      </trkpt>
      <trkpt lat="45.85059" lon="1.93678">
        <ele>725.4</ele>
        <time>2026-08-08T09:34:31.000Z</time>
      </trkpt>
      <trkpt lat="45.85059" lon="1.93677">
        <ele>725.6</ele>
        <time>2026-08-08T09:34:32.000Z</time>
      </trkpt>
      <trkpt lat="45.85058" lon="1.93671">
        <ele>726.4</ele>
        <time>2026-08-08T09:34:35.000Z</time>
      </trkpt>
      <trkpt lat="45.85059" lon="1.93662">
        <ele>727.5</ele>
        <time>2026-08-08T09:34:39.000Z</time>
      </trkpt>
      <trkpt lat="45.8506" lon="1.93654">
        <ele>728.2</ele>
        <time>2026-08-08T09:34:42.000Z</time>
      </trkpt>
      <trkpt lat="45.85064" lon="1.93645">
        <ele>729.1</ele>
        <time>2026-08-08T09:34:47.000Z</time>
      </trkpt>
      <trkpt lat="45.85071" lon="1.93633">
        <ele>730</ele>
        <time>2026-08-08T09:34:54.000Z</time>
      </trkpt>
      <trkpt lat="45.85073" lon="1.9363">
        <ele>730.2</ele>
        <time>2026-08-08T09:34:56.000Z</time>
      </trkpt>
      <trkpt lat="45.85074" lon="1.93628">
        <ele>730.3</ele>
        <time>2026-08-08T09:34:57.000Z</time>
      </trkpt>
      <trkpt lat="45.85078" lon="1.9362">
        <ele>730.7</ele>
        <time>2026-08-08T09:35:01.000Z</time>
      </trkpt>
      <trkpt lat="45.85081" lon="1.93611">
        <ele>731.2</ele>
        <time>2026-08-08T09:35:06.000Z</time>
      </trkpt>
      <trkpt lat="45.85082" lon="1.93607">
        <ele>731.5</ele>
        <time>2026-08-08T09:35:08.000Z</time>
      </trkpt>
      <trkpt lat="45.85082" lon="1.93601">
        <ele>731.8</ele>
        <time>2026-08-08T09:35:11.000Z</time>
      </trkpt>
      <trkpt lat="45.85083" lon="1.93598">
        <ele>732</ele>
        <time>2026-08-08T09:35:13.000Z</time>
      </trkpt>
      <trkpt lat="45.85083" lon="1.93586">
        <ele>732.8</ele>
        <time>2026-08-08T09:35:19.000Z</time>
      </trkpt>
      <trkpt lat="45.85083" lon="1.93585">
        <ele>732.9</ele>
        <time>2026-08-08T09:35:20.000Z</time>
      </trkpt>
      <trkpt lat="45.85079" lon="1.93568">
        <ele>733.9</ele>
        <time>2026-08-08T09:35:28.000Z</time>
      </trkpt>
      <trkpt lat="45.85076" lon="1.93553">
        <ele>734.8</ele>
        <time>2026-08-08T09:35:35.000Z</time>
      </trkpt>
      <trkpt lat="45.85069" lon="1.93544">
        <ele>735.5</ele>
        <time>2026-08-08T09:35:41.000Z</time>
      </trkpt>
      <trkpt lat="45.85063" lon="1.93536">
        <ele>736.2</ele>
        <time>2026-08-08T09:35:47.000Z</time>
      </trkpt>
      <trkpt lat="45.85059" lon="1.93529">
        <ele>736.7</ele>
        <time>2026-08-08T09:35:51.000Z</time>
      </trkpt>
      <trkpt lat="45.85048" lon="1.93512">
        <ele>737.1</ele>
        <time>2026-08-08T09:36:01.000Z</time>
      </trkpt>
      <trkpt lat="45.85045" lon="1.93507">
        <ele>737.3</ele>
        <time>2026-08-08T09:36:04.000Z</time>
      </trkpt>
      <trkpt lat="45.8504" lon="1.93494">
        <ele>737.6</ele>
        <time>2026-08-08T09:36:11.000Z</time>
      </trkpt>
      <trkpt lat="45.85037" lon="1.93487">
        <ele>737.8</ele>
        <time>2026-08-08T09:36:15.000Z</time>
      </trkpt>
      <trkpt lat="45.85034" lon="1.9348">
        <ele>738.2</ele>
        <time>2026-08-08T09:36:19.000Z</time>
      </trkpt>
      <trkpt lat="45.85033" lon="1.93478">
        <ele>738.3</ele>
        <time>2026-08-08T09:36:20.000Z</time>
      </trkpt>
      <trkpt lat="45.85032" lon="1.93474">
        <ele>738.4</ele>
        <time>2026-08-08T09:36:22.000Z</time>
      </trkpt>
      <trkpt lat="45.85026" lon="1.93461">
        <ele>738.8</ele>
        <time>2026-08-08T09:36:29.000Z</time>
      </trkpt>
      <trkpt lat="45.85025" lon="1.93459">
        <ele>738.9</ele>
        <time>2026-08-08T09:36:30.000Z</time>
      </trkpt>
      <trkpt lat="45.85019" lon="1.93441">
        <ele>739.8</ele>
        <time>2026-08-08T09:36:39.000Z</time>
      </trkpt>
      <trkpt lat="45.85016" lon="1.93434">
        <ele>740.7</ele>
        <time>2026-08-08T09:36:43.000Z</time>
      </trkpt>
      <trkpt lat="45.85012" lon="1.93423">
        <ele>742</ele>
        <time>2026-08-08T09:36:48.000Z</time>
      </trkpt>
      <trkpt lat="45.85011" lon="1.93417">
        <ele>742.6</ele>
        <time>2026-08-08T09:36:51.000Z</time>
      </trkpt>
      <trkpt lat="45.8501" lon="1.93409">
        <ele>743.5</ele>
        <time>2026-08-08T09:36:55.000Z</time>
      </trkpt>
      <trkpt lat="45.8501" lon="1.93407">
        <ele>743.7</ele>
        <time>2026-08-08T09:36:56.000Z</time>
      </trkpt>
      <trkpt lat="45.85009" lon="1.93399">
        <ele>744.5</ele>
        <time>2026-08-08T09:37:00.000Z</time>
      </trkpt>
      <trkpt lat="45.85009" lon="1.9339">
        <ele>745.4</ele>
        <time>2026-08-08T09:37:04.000Z</time>
      </trkpt>
      <trkpt lat="45.85007" lon="1.93381">
        <ele>746.1</ele>
        <time>2026-08-08T09:37:08.000Z</time>
      </trkpt>
      <trkpt lat="45.85006" lon="1.93374">
        <ele>746.5</ele>
        <time>2026-08-08T09:37:11.000Z</time>
      </trkpt>
      <trkpt lat="45.85006" lon="1.93362">
        <ele>747.1</ele>
        <time>2026-08-08T09:37:17.000Z</time>
      </trkpt>
      <trkpt lat="45.85005" lon="1.9335">
        <ele>747.4</ele>
        <time>2026-08-08T09:37:22.000Z</time>
      </trkpt>
      <trkpt lat="45.85005" lon="1.93348">
        <ele>747.4</ele>
        <time>2026-08-08T09:37:23.000Z</time>
      </trkpt>
      <trkpt lat="45.85002" lon="1.9333">
        <ele>747.6</ele>
        <time>2026-08-08T09:37:31.000Z</time>
      </trkpt>
      <trkpt lat="45.85" lon="1.9332">
        <ele>747.5</ele>
        <time>2026-08-08T09:37:35.000Z</time>
      </trkpt>
      <trkpt lat="45.84999" lon="1.93313">
        <ele>747.4</ele>
        <time>2026-08-08T09:37:38.000Z</time>
      </trkpt>
      <trkpt lat="45.84996" lon="1.93301">
        <ele>747.4</ele>
        <time>2026-08-08T09:37:44.000Z</time>
      </trkpt>
      <trkpt lat="45.84996" lon="1.93295">
        <ele>747.2</ele>
        <time>2026-08-08T09:37:47.000Z</time>
      </trkpt>
      <trkpt lat="45.84991" lon="1.93277">
        <ele>747</ele>
        <time>2026-08-08T09:37:56.000Z</time>
      </trkpt>
      <trkpt lat="45.84989" lon="1.93274">
        <ele>747</ele>
        <time>2026-08-08T09:37:59.000Z</time>
      </trkpt>
      <trkpt lat="45.84987" lon="1.93274">
        <ele>747.2</ele>
        <time>2026-08-08T09:38:01.000Z</time>
      </trkpt>
      <trkpt lat="45.84987" lon="1.93274">
        <ele>747.2</ele>
        <time>2026-08-08T09:38:04.000Z</time>
      </trkpt>
      <trkpt lat="45.84985" lon="1.9326">
        <ele>746.6</ele>
        <time>2026-08-08T09:38:22.000Z</time>
      </trkpt>
      <trkpt lat="45.84984" lon="1.93257">
        <ele>746.5</ele>
        <time>2026-08-08T09:38:23.000Z</time>
      </trkpt>
      <trkpt lat="45.84973" lon="1.93232">
        <ele>745</ele>
        <time>2026-08-08T09:38:30.000Z</time>
      </trkpt>
      <trkpt lat="45.84968" lon="1.93216">
        <ele>744.4</ele>
        <time>2026-08-08T09:38:33.000Z</time>
      </trkpt>
      <trkpt lat="45.84957" lon="1.93193">
        <ele>744</ele>
        <time>2026-08-08T09:38:37.000Z</time>
      </trkpt>
      <trkpt lat="45.84939" lon="1.93144">
        <ele>742.5</ele>
        <time>2026-08-08T09:38:44.000Z</time>
      </trkpt>
      <trkpt lat="45.84936" lon="1.93137">
        <ele>742.4</ele>
        <time>2026-08-08T09:38:45.000Z</time>
      </trkpt>
      <trkpt lat="45.84923" lon="1.93102">
        <ele>742.6</ele>
        <time>2026-08-08T09:38:50.000Z</time>
      </trkpt>
      <trkpt lat="45.84919" lon="1.93088">
        <ele>742.7</ele>
        <time>2026-08-08T09:38:52.000Z</time>
      </trkpt>
      <trkpt lat="45.84917" lon="1.93074">
        <ele>742.7</ele>
        <time>2026-08-08T09:38:54.000Z</time>
      </trkpt>
      <trkpt lat="45.84917" lon="1.93054">
        <ele>742.1</ele>
        <time>2026-08-08T09:38:57.000Z</time>
      </trkpt>
      <trkpt lat="45.84919" lon="1.93017">
        <ele>742.3</ele>
        <time>2026-08-08T09:39:03.000Z</time>
      </trkpt>
      <trkpt lat="45.84919" lon="1.93012">
        <ele>742.3</ele>
        <time>2026-08-08T09:39:04.000Z</time>
      </trkpt>
      <trkpt lat="45.84918" lon="1.92993">
        <ele>742.1</ele>
        <time>2026-08-08T09:39:07.000Z</time>
      </trkpt>
      <trkpt lat="45.84915" lon="1.92972">
        <ele>741.4</ele>
        <time>2026-08-08T09:39:10.000Z</time>
      </trkpt>
      <trkpt lat="45.84911" lon="1.92958">
        <ele>741</ele>
        <time>2026-08-08T09:39:12.000Z</time>
      </trkpt>
      <trkpt lat="45.84903" lon="1.92935">
        <ele>740.5</ele>
        <time>2026-08-08T09:39:15.000Z</time>
      </trkpt>
      <trkpt lat="45.849" lon="1.92927">
        <ele>740.3</ele>
        <time>2026-08-08T09:39:16.000Z</time>
      </trkpt>
      <trkpt lat="45.84887" lon="1.92897">
        <ele>739.9</ele>
        <time>2026-08-08T09:39:20.000Z</time>
      </trkpt>
      <trkpt lat="45.8488" lon="1.92881">
        <ele>739.7</ele>
        <time>2026-08-08T09:39:22.000Z</time>
      </trkpt>
      <trkpt lat="45.84867" lon="1.92858">
        <ele>739.1</ele>
        <time>2026-08-08T09:39:25.000Z</time>
      </trkpt>
      <trkpt lat="45.84855" lon="1.92834">
        <ele>738.7</ele>
        <time>2026-08-08T09:39:28.000Z</time>
      </trkpt>
      <trkpt lat="45.84838" lon="1.92801">
        <ele>737.2</ele>
        <time>2026-08-08T09:39:32.000Z</time>
      </trkpt>
      <trkpt lat="45.84826" lon="1.92775">
        <ele>736.4</ele>
        <time>2026-08-08T09:39:35.000Z</time>
      </trkpt>
      <trkpt lat="45.84818" lon="1.92756">
        <ele>736.3</ele>
        <time>2026-08-08T09:39:37.000Z</time>
      </trkpt>
      <trkpt lat="45.84813" lon="1.92738">
        <ele>736.3</ele>
        <time>2026-08-08T09:39:39.000Z</time>
      </trkpt>
      <trkpt lat="45.84811" lon="1.92727">
        <ele>736.4</ele>
        <time>2026-08-08T09:39:40.000Z</time>
      </trkpt>
      <trkpt lat="45.84809" lon="1.92718">
        <ele>736.4</ele>
        <time>2026-08-08T09:39:41.000Z</time>
      </trkpt>
      <trkpt lat="45.84806" lon="1.92699">
        <ele>735.3</ele>
        <time>2026-08-08T09:39:43.000Z</time>
      </trkpt>
      <trkpt lat="45.84806" lon="1.9269">
        <ele>735</ele>
        <time>2026-08-08T09:39:44.000Z</time>
      </trkpt>
      <trkpt lat="45.84804" lon="1.92624">
        <ele>736</ele>
        <time>2026-08-08T09:39:52.000Z</time>
      </trkpt>
      <trkpt lat="45.84802" lon="1.92588">
        <ele>737.4</ele>
        <time>2026-08-08T09:39:58.000Z</time>
      </trkpt>
      <trkpt lat="45.84797" lon="1.92564">
        <ele>739.2</ele>
        <time>2026-08-08T09:40:04.000Z</time>
      </trkpt>
      <trkpt lat="45.84792" lon="1.92549">
        <ele>740</ele>
        <time>2026-08-08T09:40:09.000Z</time>
      </trkpt>
      <trkpt lat="45.8479" lon="1.92544">
        <ele>740.1</ele>
        <time>2026-08-08T09:40:11.000Z</time>
      </trkpt>
      <trkpt lat="45.84786" lon="1.92532">
        <ele>740.3</ele>
        <time>2026-08-08T09:40:17.000Z</time>
      </trkpt>
      <trkpt lat="45.8478" lon="1.92522">
        <ele>739.8</ele>
        <time>2026-08-08T09:40:22.000Z</time>
      </trkpt>
      <trkpt lat="45.84775" lon="1.92509">
        <ele>740.3</ele>
        <time>2026-08-08T09:40:29.000Z</time>
      </trkpt>
      <trkpt lat="45.84774" lon="1.92506">
        <ele>740.4</ele>
        <time>2026-08-08T09:40:30.000Z</time>
      </trkpt>
      <trkpt lat="45.84771" lon="1.92498">
        <ele>741.1</ele>
        <time>2026-08-08T09:40:36.000Z</time>
      </trkpt>
      <trkpt lat="45.8477" lon="1.92496">
        <ele>741.3</ele>
        <time>2026-08-08T09:40:37.000Z</time>
      </trkpt>
      <trkpt lat="45.84768" lon="1.92493">
        <ele>741.7</ele>
        <time>2026-08-08T09:40:38.000Z</time>
      </trkpt>
      <trkpt lat="45.84765" lon="1.92487">
        <ele>742.2</ele>
        <time>2026-08-08T09:40:43.000Z</time>
      </trkpt>
      <trkpt lat="45.84763" lon="1.92484">
        <ele>742.4</ele>
        <time>2026-08-08T09:40:45.000Z</time>
      </trkpt>
      <trkpt lat="45.84762" lon="1.92482">
        <ele>742.5</ele>
        <time>2026-08-08T09:40:46.000Z</time>
      </trkpt>
      <trkpt lat="45.84757" lon="1.92474">
        <ele>742.7</ele>
        <time>2026-08-08T09:40:50.000Z</time>
      </trkpt>
      <trkpt lat="45.84753" lon="1.9247">
        <ele>742.8</ele>
        <time>2026-08-08T09:40:52.000Z</time>
      </trkpt>
      <trkpt lat="45.84749" lon="1.92462">
        <ele>743.1</ele>
        <time>2026-08-08T09:40:55.000Z</time>
      </trkpt>
      <trkpt lat="45.84748" lon="1.92459">
        <ele>743.2</ele>
        <time>2026-08-08T09:40:56.000Z</time>
      </trkpt>
      <trkpt lat="45.84746" lon="1.92457">
        <ele>743.4</ele>
        <time>2026-08-08T09:40:57.000Z</time>
      </trkpt>
      <trkpt lat="45.84745" lon="1.92455">
        <ele>743.5</ele>
        <time>2026-08-08T09:40:58.000Z</time>
      </trkpt>
      <trkpt lat="45.84742" lon="1.92449">
        <ele>743.9</ele>
        <time>2026-08-08T09:41:02.000Z</time>
      </trkpt>
      <trkpt lat="45.84733" lon="1.92435">
        <ele>745.6</ele>
        <time>2026-08-08T09:41:08.000Z</time>
      </trkpt>
      <trkpt lat="45.84731" lon="1.92432">
        <ele>745.8</ele>
        <time>2026-08-08T09:41:10.000Z</time>
      </trkpt>
      <trkpt lat="45.84728" lon="1.92429">
        <ele>746</ele>
        <time>2026-08-08T09:41:12.000Z</time>
      </trkpt>
      <trkpt lat="45.84718" lon="1.9242">
        <ele>746.3</ele>
        <time>2026-08-08T09:41:19.000Z</time>
      </trkpt>
      <trkpt lat="45.84716" lon="1.9242">
        <ele>746.4</ele>
        <time>2026-08-08T09:41:20.000Z</time>
      </trkpt>
      <trkpt lat="45.84701" lon="1.92414">
        <ele>746.7</ele>
        <time>2026-08-08T09:41:29.000Z</time>
      </trkpt>
      <trkpt lat="45.84699" lon="1.92414">
        <ele>746.6</ele>
        <time>2026-08-08T09:41:30.000Z</time>
      </trkpt>
      <trkpt lat="45.84682" lon="1.9241">
        <ele>747.7</ele>
        <time>2026-08-08T09:41:39.000Z</time>
      </trkpt>
      <trkpt lat="45.8467" lon="1.92409">
        <ele>748.4</ele>
        <time>2026-08-08T09:41:47.000Z</time>
      </trkpt>
      <trkpt lat="45.8466" lon="1.92407">
        <ele>748.8</ele>
        <time>2026-08-08T09:41:53.000Z</time>
      </trkpt>
      <trkpt lat="45.84654" lon="1.92404">
        <ele>749.1</ele>
        <time>2026-08-08T09:41:57.000Z</time>
      </trkpt>
      <trkpt lat="45.84638" lon="1.9239">
        <ele>750.8</ele>
        <time>2026-08-08T09:42:06.000Z</time>
      </trkpt>
      <trkpt lat="45.84636" lon="1.92387">
        <ele>750.7</ele>
        <time>2026-08-08T09:42:07.000Z</time>
      </trkpt>
      <trkpt lat="45.84628" lon="1.92371">
        <ele>750.8</ele>
        <time>2026-08-08T09:42:14.000Z</time>
      </trkpt>
      <trkpt lat="45.8462" lon="1.92353">
        <ele>751.9</ele>
        <time>2026-08-08T09:42:22.000Z</time>
      </trkpt>
      <trkpt lat="45.84618" lon="1.92351">
        <ele>752</ele>
        <time>2026-08-08T09:42:23.000Z</time>
      </trkpt>
      <trkpt lat="45.84607" lon="1.92327">
        <ele>752.8</ele>
        <time>2026-08-08T09:42:33.000Z</time>
      </trkpt>
      <trkpt lat="45.84605" lon="1.92324">
        <ele>752.8</ele>
        <time>2026-08-08T09:42:34.000Z</time>
      </trkpt>
      <trkpt lat="45.84592" lon="1.92298">
        <ele>753.7</ele>
        <time>2026-08-08T09:42:45.000Z</time>
      </trkpt>
      <trkpt lat="45.84589" lon="1.92291">
        <ele>753.8</ele>
        <time>2026-08-08T09:42:48.000Z</time>
      </trkpt>
      <trkpt lat="45.84581" lon="1.92279">
        <ele>753.8</ele>
        <time>2026-08-08T09:42:53.000Z</time>
      </trkpt>
      <trkpt lat="45.84566" lon="1.92254">
        <ele>754.2</ele>
        <time>2026-08-08T09:43:02.000Z</time>
      </trkpt>
      <trkpt lat="45.84555" lon="1.92236">
        <ele>754.5</ele>
        <time>2026-08-08T09:43:09.000Z</time>
      </trkpt>
      <trkpt lat="45.8455" lon="1.92229">
        <ele>754.7</ele>
        <time>2026-08-08T09:43:12.000Z</time>
      </trkpt>
      <trkpt lat="45.84548" lon="1.92226">
        <ele>754.8</ele>
        <time>2026-08-08T09:43:13.000Z</time>
      </trkpt>
      <trkpt lat="45.84541" lon="1.92215">
        <ele>755.2</ele>
        <time>2026-08-08T09:43:17.000Z</time>
      </trkpt>
      <trkpt lat="45.84527" lon="1.92196">
        <ele>755.9</ele>
        <time>2026-08-08T09:43:25.000Z</time>
      </trkpt>
      <trkpt lat="45.84512" lon="1.92172">
        <ele>756.2</ele>
        <time>2026-08-08T09:43:33.000Z</time>
      </trkpt>
      <trkpt lat="45.84508" lon="1.92166">
        <ele>756.3</ele>
        <time>2026-08-08T09:43:35.000Z</time>
      </trkpt>
      <trkpt lat="45.845" lon="1.9215">
        <ele>756</ele>
        <time>2026-08-08T09:43:40.000Z</time>
      </trkpt>
      <trkpt lat="45.84494" lon="1.92136">
        <ele>756.4</ele>
        <time>2026-08-08T09:43:44.000Z</time>
      </trkpt>
      <trkpt lat="45.84486" lon="1.9212">
        <ele>757.2</ele>
        <time>2026-08-08T09:43:49.000Z</time>
      </trkpt>
      <trkpt lat="45.84483" lon="1.92111">
        <ele>757.4</ele>
        <time>2026-08-08T09:43:52.000Z</time>
      </trkpt>
      <trkpt lat="45.84473" lon="1.92085">
        <ele>756.1</ele>
        <time>2026-08-08T09:43:59.000Z</time>
      </trkpt>
      <trkpt lat="45.84465" lon="1.92059">
        <ele>756.4</ele>
        <time>2026-08-08T09:44:05.000Z</time>
      </trkpt>
      <trkpt lat="45.84456" lon="1.92026">
        <ele>755.4</ele>
        <time>2026-08-08T09:44:11.000Z</time>
      </trkpt>
      <trkpt lat="45.84445" lon="1.91988">
        <ele>754</ele>
        <time>2026-08-08T09:44:17.000Z</time>
      </trkpt>
      <trkpt lat="45.84437" lon="1.91967">
        <ele>753.7</ele>
        <time>2026-08-08T09:44:20.000Z</time>
      </trkpt>
      <trkpt lat="45.84432" lon="1.91952">
        <ele>753.6</ele>
        <time>2026-08-08T09:44:22.000Z</time>
      </trkpt>
      <trkpt lat="45.84424" lon="1.91928">
        <ele>752.8</ele>
        <time>2026-08-08T09:44:25.000Z</time>
      </trkpt>
      <trkpt lat="45.8441" lon="1.91888">
        <ele>751.5</ele>
        <time>2026-08-08T09:44:30.000Z</time>
      </trkpt>
      <trkpt lat="45.84407" lon="1.9188">
        <ele>751.3</ele>
        <time>2026-08-08T09:44:31.000Z</time>
      </trkpt>
      <trkpt lat="45.84389" lon="1.91834">
        <ele>750</ele>
        <time>2026-08-08T09:44:37.000Z</time>
      </trkpt>
      <trkpt lat="45.84379" lon="1.91811">
        <ele>749.9</ele>
        <time>2026-08-08T09:44:40.000Z</time>
      </trkpt>
      <trkpt lat="45.84376" lon="1.91804">
        <ele>750</ele>
        <time>2026-08-08T09:44:41.000Z</time>
      </trkpt>
      <trkpt lat="45.84357" lon="1.9176">
        <ele>748.4</ele>
        <time>2026-08-08T09:44:47.000Z</time>
      </trkpt>
      <trkpt lat="45.84349" lon="1.91738">
        <ele>748.3</ele>
        <time>2026-08-08T09:44:50.000Z</time>
      </trkpt>
      <trkpt lat="45.84343" lon="1.91724">
        <ele>748</ele>
        <time>2026-08-08T09:44:52.000Z</time>
      </trkpt>
      <trkpt lat="45.84337" lon="1.91711">
        <ele>747.6</ele>
        <time>2026-08-08T09:44:54.000Z</time>
      </trkpt>
      <trkpt lat="45.84332" lon="1.91697">
        <ele>747.1</ele>
        <time>2026-08-08T09:44:56.000Z</time>
      </trkpt>
      <trkpt lat="45.84316" lon="1.9166">
        <ele>747</ele>
        <time>2026-08-08T09:45:02.000Z</time>
      </trkpt>
      <trkpt lat="45.84314" lon="1.91654">
        <ele>747</ele>
        <time>2026-08-08T09:45:03.000Z</time>
      </trkpt>
      <trkpt lat="45.84307" lon="1.91636">
        <ele>747</ele>
        <time>2026-08-08T09:45:06.000Z</time>
      </trkpt>
      <trkpt lat="45.84295" lon="1.91607">
        <ele>746.7</ele>
        <time>2026-08-08T09:45:11.000Z</time>
      </trkpt>
      <trkpt lat="45.84278" lon="1.91566">
        <ele>747</ele>
        <time>2026-08-08T09:45:19.000Z</time>
      </trkpt>
      <trkpt lat="45.84275" lon="1.9156">
        <ele>746.9</ele>
        <time>2026-08-08T09:45:20.000Z</time>
      </trkpt>
      <trkpt lat="45.84265" lon="1.91534">
        <ele>746.9</ele>
        <time>2026-08-08T09:45:25.000Z</time>
      </trkpt>
      <trkpt lat="45.84262" lon="1.91529">
        <ele>747</ele>
        <time>2026-08-08T09:45:26.000Z</time>
      </trkpt>
      <trkpt lat="45.84256" lon="1.91519">
        <ele>747</ele>
        <time>2026-08-08T09:45:28.000Z</time>
      </trkpt>
      <trkpt lat="45.84243" lon="1.91501">
        <ele>746.7</ele>
        <time>2026-08-08T09:45:32.000Z</time>
      </trkpt>
      <trkpt lat="45.84219" lon="1.91468">
        <ele>746.1</ele>
        <time>2026-08-08T09:45:40.000Z</time>
      </trkpt>
      <trkpt lat="45.84199" lon="1.91442">
        <ele>746.2</ele>
        <time>2026-08-08T09:45:47.000Z</time>
      </trkpt>
      <trkpt lat="45.84196" lon="1.91438">
        <ele>746.1</ele>
        <time>2026-08-08T09:45:48.000Z</time>
      </trkpt>
      <trkpt lat="45.84176" lon="1.91408">
        <ele>744.5</ele>
        <time>2026-08-08T09:45:55.000Z</time>
      </trkpt>
      <trkpt lat="45.84171" lon="1.91397">
        <ele>743.8</ele>
        <time>2026-08-08T09:45:57.000Z</time>
      </trkpt>
      <trkpt lat="45.84169" lon="1.91391">
        <ele>743.4</ele>
        <time>2026-08-08T09:45:58.000Z</time>
      </trkpt>
      <trkpt lat="45.84165" lon="1.91379">
        <ele>742.9</ele>
        <time>2026-08-08T09:46:00.000Z</time>
      </trkpt>
      <trkpt lat="45.84159" lon="1.91353">
        <ele>742.5</ele>
        <time>2026-08-08T09:46:04.000Z</time>
      </trkpt>
      <trkpt lat="45.84154" lon="1.91332">
        <ele>741.6</ele>
        <time>2026-08-08T09:46:07.000Z</time>
      </trkpt>
      <trkpt lat="45.84153" lon="1.91325">
        <ele>741.1</ele>
        <time>2026-08-08T09:46:08.000Z</time>
      </trkpt>
      <trkpt lat="45.8415" lon="1.91305">
        <ele>739.8</ele>
        <time>2026-08-08T09:46:11.000Z</time>
      </trkpt>
      <trkpt lat="45.84147" lon="1.91288">
        <ele>737.7</ele>
        <time>2026-08-08T09:46:14.000Z</time>
      </trkpt>
      <trkpt lat="45.84146" lon="1.91282">
        <ele>737</ele>
        <time>2026-08-08T09:46:15.000Z</time>
      </trkpt>
      <trkpt lat="45.84144" lon="1.91269">
        <ele>736.1</ele>
        <time>2026-08-08T09:46:17.000Z</time>
      </trkpt>
      <trkpt lat="45.84139" lon="1.91242">
        <ele>734.5</ele>
        <time>2026-08-08T09:46:21.000Z</time>
      </trkpt>
      <trkpt lat="45.84138" lon="1.91235">
        <ele>733.9</ele>
        <time>2026-08-08T09:46:22.000Z</time>
      </trkpt>
      <trkpt lat="45.84136" lon="1.91222">
        <ele>732.9</ele>
        <time>2026-08-08T09:46:24.000Z</time>
      </trkpt>
      <trkpt lat="45.84134" lon="1.91216">
        <ele>732.4</ele>
        <time>2026-08-08T09:46:25.000Z</time>
      </trkpt>
      <trkpt lat="45.84131" lon="1.91202">
        <ele>731.5</ele>
        <time>2026-08-08T09:46:27.000Z</time>
      </trkpt>
      <trkpt lat="45.84129" lon="1.91187">
        <ele>730.7</ele>
        <time>2026-08-08T09:46:29.000Z</time>
      </trkpt>
      <trkpt lat="45.84126" lon="1.91161">
        <ele>729.6</ele>
        <time>2026-08-08T09:46:33.000Z</time>
      </trkpt>
      <trkpt lat="45.84123" lon="1.9115">
        <ele>728.8</ele>
        <time>2026-08-08T09:46:35.000Z</time>
      </trkpt>
      <trkpt lat="45.84122" lon="1.91145">
        <ele>728.4</ele>
        <time>2026-08-08T09:46:36.000Z</time>
      </trkpt>
      <trkpt lat="45.84121" lon="1.91141">
        <ele>728.1</ele>
        <time>2026-08-08T09:46:37.000Z</time>
      </trkpt>
      <trkpt lat="45.8412" lon="1.91136">
        <ele>728</ele>
        <time>2026-08-08T09:46:40.000Z</time>
      </trkpt>
      <trkpt lat="45.8412" lon="1.91136">
        <ele>728</ele>
        <time>2026-08-08T09:46:41.000Z</time>
      </trkpt>
      <trkpt lat="45.84117" lon="1.9113">
        <ele>728</ele>
        <time>2026-08-08T09:46:49.000Z</time>
      </trkpt>
      <trkpt lat="45.84113" lon="1.91129">
        <ele>728</ele>
        <time>2026-08-08T09:46:51.000Z</time>
      </trkpt>
      <trkpt lat="45.84093" lon="1.91135">
        <ele>727</ele>
        <time>2026-08-08T09:46:57.000Z</time>
      </trkpt>
      <trkpt lat="45.84089" lon="1.91135">
        <ele>726.7</ele>
        <time>2026-08-08T09:46:58.000Z</time>
      </trkpt>
      <trkpt lat="45.8408" lon="1.91137">
        <ele>726.1</ele>
        <time>2026-08-08T09:47:00.000Z</time>
      </trkpt>
      <trkpt lat="45.84072" lon="1.9114">
        <ele>725.6</ele>
        <time>2026-08-08T09:47:02.000Z</time>
      </trkpt>
      <trkpt lat="45.84062" lon="1.91142">
        <ele>725.3</ele>
        <time>2026-08-08T09:47:04.000Z</time>
      </trkpt>
      <trkpt lat="45.84052" lon="1.91143">
        <ele>725</ele>
        <time>2026-08-08T09:47:06.000Z</time>
      </trkpt>
      <trkpt lat="45.84048" lon="1.91142">
        <ele>725</ele>
        <time>2026-08-08T09:47:07.000Z</time>
      </trkpt>
      <trkpt lat="45.84024" lon="1.91141">
        <ele>725.2</ele>
        <time>2026-08-08T09:47:12.000Z</time>
      </trkpt>
      <trkpt lat="45.84016" lon="1.91137">
        <ele>725.4</ele>
        <time>2026-08-08T09:47:14.000Z</time>
      </trkpt>
      <trkpt lat="45.84012" lon="1.91135">
        <ele>725.4</ele>
        <time>2026-08-08T09:47:15.000Z</time>
      </trkpt>
      <trkpt lat="45.84002" lon="1.91127">
        <ele>725.2</ele>
        <time>2026-08-08T09:47:18.000Z</time>
      </trkpt>
      <trkpt lat="45.83991" lon="1.91119">
        <ele>724.5</ele>
        <time>2026-08-08T09:47:21.000Z</time>
      </trkpt>
      <trkpt lat="45.83983" lon="1.91112">
        <ele>723.5</ele>
        <time>2026-08-08T09:47:23.000Z</time>
      </trkpt>
      <trkpt lat="45.83968" lon="1.91103">
        <ele>722.6</ele>
        <time>2026-08-08T09:47:26.000Z</time>
      </trkpt>
      <trkpt lat="45.83949" lon="1.91093">
        <ele>721.7</ele>
        <time>2026-08-08T09:47:30.000Z</time>
      </trkpt>
      <trkpt lat="45.83941" lon="1.91091">
        <ele>721</ele>
        <time>2026-08-08T09:47:32.000Z</time>
      </trkpt>
      <trkpt lat="45.83934" lon="1.91091">
        <ele>720.4</ele>
        <time>2026-08-08T09:47:34.000Z</time>
      </trkpt>
      <trkpt lat="45.83924" lon="1.91091">
        <ele>719.7</ele>
        <time>2026-08-08T09:47:37.000Z</time>
      </trkpt>
      <trkpt lat="45.83921" lon="1.91092">
        <ele>719.6</ele>
        <time>2026-08-08T09:47:38.000Z</time>
      </trkpt>
      <trkpt lat="45.839" lon="1.91096">
        <ele>718</ele>
        <time>2026-08-08T09:47:43.000Z</time>
      </trkpt>
      <trkpt lat="45.83891" lon="1.91098">
        <ele>717.4</ele>
        <time>2026-08-08T09:47:45.000Z</time>
      </trkpt>
      <trkpt lat="45.83882" lon="1.91101">
        <ele>716.6</ele>
        <time>2026-08-08T09:47:48.000Z</time>
      </trkpt>
      <trkpt lat="45.83864" lon="1.91112">
        <ele>715.5</ele>
        <time>2026-08-08T09:47:52.000Z</time>
      </trkpt>
      <trkpt lat="45.83859" lon="1.91116">
        <ele>715.4</ele>
        <time>2026-08-08T09:47:53.000Z</time>
      </trkpt>
      <trkpt lat="45.83855" lon="1.9112">
        <ele>715.1</ele>
        <time>2026-08-08T09:47:54.000Z</time>
      </trkpt>
      <trkpt lat="45.83836" lon="1.91146">
        <ele>713.4</ele>
        <time>2026-08-08T09:47:58.000Z</time>
      </trkpt>
      <trkpt lat="45.83831" lon="1.91154">
        <ele>713.3</ele>
        <time>2026-08-08T09:47:59.000Z</time>
      </trkpt>
      <trkpt lat="45.83805" lon="1.91199">
        <ele>711</ele>
        <time>2026-08-08T09:48:05.000Z</time>
      </trkpt>
      <trkpt lat="45.83796" lon="1.91214">
        <ele>709.9</ele>
        <time>2026-08-08T09:48:07.000Z</time>
      </trkpt>
      <trkpt lat="45.83787" lon="1.91228">
        <ele>708.3</ele>
        <time>2026-08-08T09:48:09.000Z</time>
      </trkpt>
      <trkpt lat="45.83777" lon="1.91241">
        <ele>707.6</ele>
        <time>2026-08-08T09:48:11.000Z</time>
      </trkpt>
      <trkpt lat="45.83772" lon="1.91248">
        <ele>706.9</ele>
        <time>2026-08-08T09:48:12.000Z</time>
      </trkpt>
      <trkpt lat="45.8376" lon="1.9126">
        <ele>705.5</ele>
        <time>2026-08-08T09:48:14.000Z</time>
      </trkpt>
      <trkpt lat="45.83746" lon="1.91272">
        <ele>705.8</ele>
        <time>2026-08-08T09:48:16.000Z</time>
      </trkpt>
      <trkpt lat="45.83739" lon="1.91276">
        <ele>706</ele>
        <time>2026-08-08T09:48:17.000Z</time>
      </trkpt>
      <trkpt lat="45.83697" lon="1.91295">
        <ele>704.9</ele>
        <time>2026-08-08T09:48:23.000Z</time>
      </trkpt>
      <trkpt lat="45.83669" lon="1.91307">
        <ele>704.3</ele>
        <time>2026-08-08T09:48:27.000Z</time>
      </trkpt>
      <trkpt lat="45.83649" lon="1.91316">
        <ele>703.4</ele>
        <time>2026-08-08T09:48:30.000Z</time>
      </trkpt>
      <trkpt lat="45.83614" lon="1.91342">
        <ele>702.5</ele>
        <time>2026-08-08T09:48:36.000Z</time>
      </trkpt>
      <trkpt lat="45.83603" lon="1.91352">
        <ele>702.5</ele>
        <time>2026-08-08T09:48:38.000Z</time>
      </trkpt>
      <trkpt lat="45.83577" lon="1.91376">
        <ele>702.4</ele>
        <time>2026-08-08T09:48:43.000Z</time>
      </trkpt>
      <trkpt lat="45.83561" lon="1.91392">
        <ele>701.6</ele>
        <time>2026-08-08T09:48:46.000Z</time>
      </trkpt>
      <trkpt lat="45.83546" lon="1.91407">
        <ele>701.4</ele>
        <time>2026-08-08T09:48:49.000Z</time>
      </trkpt>
      <trkpt lat="45.83513" lon="1.91434">
        <ele>701.3</ele>
        <time>2026-08-08T09:48:55.000Z</time>
      </trkpt>
      <trkpt lat="45.83489" lon="1.91446">
        <ele>701.4</ele>
        <time>2026-08-08T09:48:59.000Z</time>
      </trkpt>
      <trkpt lat="45.83471" lon="1.91452">
        <ele>701</ele>
        <time>2026-08-08T09:49:02.000Z</time>
      </trkpt>
      <trkpt lat="45.83447" lon="1.91461">
        <ele>699.6</ele>
        <time>2026-08-08T09:49:06.000Z</time>
      </trkpt>
      <trkpt lat="45.83441" lon="1.91462">
        <ele>699.2</ele>
        <time>2026-08-08T09:49:07.000Z</time>
      </trkpt>
      <trkpt lat="45.83429" lon="1.91466">
        <ele>698.5</ele>
        <time>2026-08-08T09:49:09.000Z</time>
      </trkpt>
      <trkpt lat="45.8339" lon="1.91478">
        <ele>697.9</ele>
        <time>2026-08-08T09:49:15.000Z</time>
      </trkpt>
      <trkpt lat="45.83383" lon="1.9148">
        <ele>697.1</ele>
        <time>2026-08-08T09:49:16.000Z</time>
      </trkpt>
      <trkpt lat="45.83334" lon="1.91494">
        <ele>694.8</ele>
        <time>2026-08-08T09:49:23.000Z</time>
      </trkpt>
      <trkpt lat="45.83319" lon="1.91499">
        <ele>694.7</ele>
        <time>2026-08-08T09:49:25.000Z</time>
      </trkpt>
      <trkpt lat="45.83305" lon="1.91504">
        <ele>694.4</ele>
        <time>2026-08-08T09:49:27.000Z</time>
      </trkpt>
      <trkpt lat="45.83298" lon="1.91506">
        <ele>694.3</ele>
        <time>2026-08-08T09:49:28.000Z</time>
      </trkpt>
      <trkpt lat="45.8329" lon="1.91509">
        <ele>694.1</ele>
        <time>2026-08-08T09:49:29.000Z</time>
      </trkpt>
      <trkpt lat="45.83274" lon="1.91517">
        <ele>693.7</ele>
        <time>2026-08-08T09:49:31.000Z</time>
      </trkpt>
      <trkpt lat="45.83265" lon="1.91522">
        <ele>693.7</ele>
        <time>2026-08-08T09:49:32.000Z</time>
      </trkpt>
      <trkpt lat="45.83238" lon="1.91531">
        <ele>692.4</ele>
        <time>2026-08-08T09:49:35.000Z</time>
      </trkpt>
      <trkpt lat="45.83212" lon="1.91541">
        <ele>690.8</ele>
        <time>2026-08-08T09:49:38.000Z</time>
      </trkpt>
      <trkpt lat="45.83202" lon="1.91544">
        <ele>690.6</ele>
        <time>2026-08-08T09:49:39.000Z</time>
      </trkpt>
      <trkpt lat="45.83162" lon="1.91559">
        <ele>687.6</ele>
        <time>2026-08-08T09:49:43.000Z</time>
      </trkpt>
      <trkpt lat="45.83152" lon="1.91561">
        <ele>687.1</ele>
        <time>2026-08-08T09:49:44.000Z</time>
      </trkpt>
      <trkpt lat="45.83131" lon="1.91566">
        <ele>686.4</ele>
        <time>2026-08-08T09:49:46.000Z</time>
      </trkpt>
      <trkpt lat="45.83104" lon="1.91574">
        <ele>685.5</ele>
        <time>2026-08-08T09:49:49.000Z</time>
      </trkpt>
      <trkpt lat="45.83094" lon="1.91577">
        <ele>684.7</ele>
        <time>2026-08-08T09:49:50.000Z</time>
      </trkpt>
      <trkpt lat="45.83075" lon="1.91579">
        <ele>683.6</ele>
        <time>2026-08-08T09:49:52.000Z</time>
      </trkpt>
      <trkpt lat="45.83053" lon="1.91577">
        <ele>682.5</ele>
        <time>2026-08-08T09:49:54.000Z</time>
      </trkpt>
      <trkpt lat="45.83043" lon="1.91575">
        <ele>682.1</ele>
        <time>2026-08-08T09:49:55.000Z</time>
      </trkpt>
      <trkpt lat="45.83006" lon="1.91563">
        <ele>681.8</ele>
        <time>2026-08-08T09:49:59.000Z</time>
      </trkpt>
      <trkpt lat="45.82982" lon="1.9155">
        <ele>682.9</ele>
        <time>2026-08-08T09:50:02.000Z</time>
      </trkpt>
      <trkpt lat="45.82967" lon="1.91541">
        <ele>683.3</ele>
        <time>2026-08-08T09:50:04.000Z</time>
      </trkpt>
      <trkpt lat="45.82936" lon="1.91523">
        <ele>683.7</ele>
        <time>2026-08-08T09:50:09.000Z</time>
      </trkpt>
      <trkpt lat="45.82905" lon="1.91509">
        <ele>686</ele>
        <time>2026-08-08T09:50:15.000Z</time>
      </trkpt>
      <trkpt lat="45.82875" lon="1.91503">
        <ele>684.9</ele>
        <time>2026-08-08T09:50:21.000Z</time>
      </trkpt>
      <trkpt lat="45.8287" lon="1.91502">
        <ele>684.6</ele>
        <time>2026-08-08T09:50:22.000Z</time>
      </trkpt>
      <trkpt lat="45.8285" lon="1.91499">
        <ele>684.1</ele>
        <time>2026-08-08T09:50:26.000Z</time>
      </trkpt>
      <trkpt lat="45.82827" lon="1.91499">
        <ele>684</ele>
        <time>2026-08-08T09:50:31.000Z</time>
      </trkpt>
      <trkpt lat="45.82817" lon="1.91503">
        <ele>684.3</ele>
        <time>2026-08-08T09:50:33.000Z</time>
      </trkpt>
      <trkpt lat="45.82791" lon="1.9151">
        <ele>684.1</ele>
        <time>2026-08-08T09:50:38.000Z</time>
      </trkpt>
      <trkpt lat="45.82782" lon="1.91512">
        <ele>684</ele>
        <time>2026-08-08T09:50:40.000Z</time>
      </trkpt>
      <trkpt lat="45.82766" lon="1.9152">
        <ele>684.3</ele>
        <time>2026-08-08T09:50:43.000Z</time>
      </trkpt>
      <trkpt lat="45.8275" lon="1.91524">
        <ele>684.6</ele>
        <time>2026-08-08T09:50:46.000Z</time>
      </trkpt>
      <trkpt lat="45.82724" lon="1.91531">
        <ele>685.4</ele>
        <time>2026-08-08T09:50:51.000Z</time>
      </trkpt>
      <trkpt lat="45.82719" lon="1.91532">
        <ele>685.6</ele>
        <time>2026-08-08T09:50:52.000Z</time>
      </trkpt>
      <trkpt lat="45.82693" lon="1.91535">
        <ele>685.5</ele>
        <time>2026-08-08T09:50:58.000Z</time>
      </trkpt>
      <trkpt lat="45.82644" lon="1.91534">
        <ele>685</ele>
        <time>2026-08-08T09:51:08.000Z</time>
      </trkpt>
      <trkpt lat="45.82597" lon="1.91529">
        <ele>684</ele>
        <time>2026-08-08T09:51:17.000Z</time>
      </trkpt>
      <trkpt lat="45.82568" lon="1.91523">
        <ele>683.1</ele>
        <time>2026-08-08T09:51:22.000Z</time>
      </trkpt>
      <trkpt lat="45.8255" lon="1.91521">
        <ele>682.7</ele>
        <time>2026-08-08T09:51:25.000Z</time>
      </trkpt>
      <trkpt lat="45.82537" lon="1.91519">
        <ele>682.1</ele>
        <time>2026-08-08T09:51:27.000Z</time>
      </trkpt>
      <trkpt lat="45.82498" lon="1.91515">
        <ele>679.5</ele>
        <time>2026-08-08T09:51:33.000Z</time>
      </trkpt>
      <trkpt lat="45.82453" lon="1.91507">
        <ele>679</ele>
        <time>2026-08-08T09:51:40.000Z</time>
      </trkpt>
      <trkpt lat="45.82415" lon="1.91501">
        <ele>679.1</ele>
        <time>2026-08-08T09:51:46.000Z</time>
      </trkpt>
      <trkpt lat="45.82408" lon="1.915">
        <ele>678.7</ele>
        <time>2026-08-08T09:51:47.000Z</time>
      </trkpt>
      <trkpt lat="45.82357" lon="1.91494">
        <ele>677.3</ele>
        <time>2026-08-08T09:51:55.000Z</time>
      </trkpt>
      <trkpt lat="45.82344" lon="1.91494">
        <ele>677.3</ele>
        <time>2026-08-08T09:51:57.000Z</time>
      </trkpt>
      <trkpt lat="45.82292" lon="1.915">
        <ele>676.5</ele>
        <time>2026-08-08T09:52:05.000Z</time>
      </trkpt>
      <trkpt lat="45.82286" lon="1.91501">
        <ele>676.3</ele>
        <time>2026-08-08T09:52:06.000Z</time>
      </trkpt>
      <trkpt lat="45.82234" lon="1.91514">
        <ele>674.7</ele>
        <time>2026-08-08T09:52:14.000Z</time>
      </trkpt>
      <trkpt lat="45.82178" lon="1.91523">
        <ele>674.8</ele>
        <time>2026-08-08T09:52:23.000Z</time>
      </trkpt>
      <trkpt lat="45.82165" lon="1.91523">
        <ele>674.8</ele>
        <time>2026-08-08T09:52:25.000Z</time>
      </trkpt>
      <trkpt lat="45.82136" lon="1.91516">
        <ele>674.6</ele>
        <time>2026-08-08T09:52:30.000Z</time>
      </trkpt>
      <trkpt lat="45.82095" lon="1.91493">
        <ele>674.4</ele>
        <time>2026-08-08T09:52:37.000Z</time>
      </trkpt>
      <trkpt lat="45.82061" lon="1.91458">
        <ele>674.7</ele>
        <time>2026-08-08T09:52:44.000Z</time>
      </trkpt>
      <trkpt lat="45.8203" lon="1.91406">
        <ele>674.1</ele>
        <time>2026-08-08T09:52:52.000Z</time>
      </trkpt>
      <trkpt lat="45.82011" lon="1.91355">
        <ele>673.2</ele>
        <time>2026-08-08T09:52:59.000Z</time>
      </trkpt>
      <trkpt lat="45.82009" lon="1.91348">
        <ele>673.2</ele>
        <time>2026-08-08T09:53:00.000Z</time>
      </trkpt>
      <trkpt lat="45.82008" lon="1.9134">
        <ele>673.1</ele>
        <time>2026-08-08T09:53:01.000Z</time>
      </trkpt>
      <trkpt lat="45.82006" lon="1.91332">
        <ele>673.1</ele>
        <time>2026-08-08T09:53:02.000Z</time>
      </trkpt>
      <trkpt lat="45.82001" lon="1.91308">
        <ele>673</ele>
        <time>2026-08-08T09:53:05.000Z</time>
      </trkpt>
      <trkpt lat="45.81983" lon="1.91229">
        <ele>672.9</ele>
        <time>2026-08-08T09:53:15.000Z</time>
      </trkpt>
      <trkpt lat="45.81981" lon="1.91221">
        <ele>672.5</ele>
        <time>2026-08-08T09:53:16.000Z</time>
      </trkpt>
      <trkpt lat="45.81966" lon="1.91184">
        <ele>672.3</ele>
        <time>2026-08-08T09:53:21.000Z</time>
      </trkpt>
      <trkpt lat="45.8196" lon="1.91171">
        <ele>671.6</ele>
        <time>2026-08-08T09:53:23.000Z</time>
      </trkpt>
      <trkpt lat="45.81956" lon="1.91165">
        <ele>671.3</ele>
        <time>2026-08-08T09:53:24.000Z</time>
      </trkpt>
      <trkpt lat="45.81923" lon="1.91127">
        <ele>671.6</ele>
        <time>2026-08-08T09:53:31.000Z</time>
      </trkpt>
      <trkpt lat="45.81918" lon="1.91122">
        <ele>671.4</ele>
        <time>2026-08-08T09:53:32.000Z</time>
      </trkpt>
      <trkpt lat="45.81883" lon="1.91093">
        <ele>669.9</ele>
        <time>2026-08-08T09:53:39.000Z</time>
      </trkpt>
      <trkpt lat="45.81866" lon="1.91082">
        <ele>669.7</ele>
        <time>2026-08-08T09:53:42.000Z</time>
      </trkpt>
      <trkpt lat="45.81843" lon="1.91073">
        <ele>669.1</ele>
        <time>2026-08-08T09:53:46.000Z</time>
      </trkpt>
      <trkpt lat="45.81826" lon="1.91067">
        <ele>669</ele>
        <time>2026-08-08T09:53:49.000Z</time>
      </trkpt>
      <trkpt lat="45.81801" lon="1.91058">
        <ele>668.2</ele>
        <time>2026-08-08T09:53:53.000Z</time>
      </trkpt>
      <trkpt lat="45.81781" lon="1.91052">
        <ele>666.8</ele>
        <time>2026-08-08T09:53:56.000Z</time>
      </trkpt>
      <trkpt lat="45.81759" lon="1.91044">
        <ele>665.2</ele>
        <time>2026-08-08T09:53:59.000Z</time>
      </trkpt>
      <trkpt lat="45.81728" lon="1.9103">
        <ele>664.7</ele>
        <time>2026-08-08T09:54:03.000Z</time>
      </trkpt>
      <trkpt lat="45.81712" lon="1.91021">
        <ele>664.2</ele>
        <time>2026-08-08T09:54:05.000Z</time>
      </trkpt>
      <trkpt lat="45.81697" lon="1.91009">
        <ele>663.5</ele>
        <time>2026-08-08T09:54:07.000Z</time>
      </trkpt>
      <trkpt lat="45.81675" lon="1.90986">
        <ele>663.4</ele>
        <time>2026-08-08T09:54:10.000Z</time>
      </trkpt>
      <trkpt lat="45.81662" lon="1.9097">
        <ele>662.6</ele>
        <time>2026-08-08T09:54:12.000Z</time>
      </trkpt>
      <trkpt lat="45.81643" lon="1.90944">
        <ele>660.3</ele>
        <time>2026-08-08T09:54:15.000Z</time>
      </trkpt>
      <trkpt lat="45.81619" lon="1.90909">
        <ele>658.7</ele>
        <time>2026-08-08T09:54:19.000Z</time>
      </trkpt>
      <trkpt lat="45.81595" lon="1.90875">
        <ele>657.9</ele>
        <time>2026-08-08T09:54:23.000Z</time>
      </trkpt>
      <trkpt lat="45.81579" lon="1.90853">
        <ele>657</ele>
        <time>2026-08-08T09:54:26.000Z</time>
      </trkpt>
      <trkpt lat="45.81572" lon="1.90839">
        <ele>656.7</ele>
        <time>2026-08-08T09:54:28.000Z</time>
      </trkpt>
      <trkpt lat="45.81571" lon="1.90831">
        <ele>656.3</ele>
        <time>2026-08-08T09:54:29.000Z</time>
      </trkpt>
      <trkpt lat="45.81571" lon="1.90822">
        <ele>655.9</ele>
        <time>2026-08-08T09:54:30.000Z</time>
      </trkpt>
      <trkpt lat="45.81571" lon="1.90814">
        <ele>655.4</ele>
        <time>2026-08-08T09:54:31.000Z</time>
      </trkpt>
      <trkpt lat="45.81569" lon="1.90805">
        <ele>655</ele>
        <time>2026-08-08T09:54:32.000Z</time>
      </trkpt>
      <trkpt lat="45.8156" lon="1.90792">
        <ele>654.5</ele>
        <time>2026-08-08T09:54:34.000Z</time>
      </trkpt>
      <trkpt lat="45.81554" lon="1.90789">
        <ele>654.4</ele>
        <time>2026-08-08T09:54:35.000Z</time>
      </trkpt>
      <trkpt lat="45.81548" lon="1.90788">
        <ele>654.2</ele>
        <time>2026-08-08T09:54:36.000Z</time>
      </trkpt>
      <trkpt lat="45.81537" lon="1.90794">
        <ele>654.3</ele>
        <time>2026-08-08T09:54:38.000Z</time>
      </trkpt>
      <trkpt lat="45.81532" lon="1.90799">
        <ele>654.5</ele>
        <time>2026-08-08T09:54:39.000Z</time>
      </trkpt>
      <trkpt lat="45.81527" lon="1.90802">
        <ele>654.7</ele>
        <time>2026-08-08T09:54:40.000Z</time>
      </trkpt>
      <trkpt lat="45.81515" lon="1.90806">
        <ele>654.6</ele>
        <time>2026-08-08T09:54:42.000Z</time>
      </trkpt>
      <trkpt lat="45.81476" lon="1.90804">
        <ele>653.9</ele>
        <time>2026-08-08T09:54:49.000Z</time>
      </trkpt>
      <trkpt lat="45.81449" lon="1.90802">
        <ele>654.5</ele>
        <time>2026-08-08T09:54:54.000Z</time>
      </trkpt>
      <trkpt lat="45.8144" lon="1.90799">
        <ele>654.6</ele>
        <time>2026-08-08T09:54:56.000Z</time>
      </trkpt>
      <trkpt lat="45.81431" lon="1.90795">
        <ele>654.6</ele>
        <time>2026-08-08T09:54:58.000Z</time>
      </trkpt>
      <trkpt lat="45.81427" lon="1.90792">
        <ele>654.6</ele>
        <time>2026-08-08T09:54:59.000Z</time>
      </trkpt>
      <trkpt lat="45.81408" lon="1.90773">
        <ele>655.5</ele>
        <time>2026-08-08T09:55:05.000Z</time>
      </trkpt>
      <trkpt lat="45.81384" lon="1.90742">
        <ele>657.1</ele>
        <time>2026-08-08T09:55:15.000Z</time>
      </trkpt>
      <trkpt lat="45.81366" lon="1.9072">
        <ele>657.6</ele>
        <time>2026-08-08T09:55:22.000Z</time>
      </trkpt>
      <trkpt lat="45.81363" lon="1.90717">
        <ele>657.6</ele>
        <time>2026-08-08T09:55:23.000Z</time>
      </trkpt>
      <trkpt lat="45.81345" lon="1.90692">
        <ele>658.6</ele>
        <time>2026-08-08T09:55:31.000Z</time>
      </trkpt>
      <trkpt lat="45.8132" lon="1.90661">
        <ele>658.4</ele>
        <time>2026-08-08T09:55:41.000Z</time>
      </trkpt>
      <trkpt lat="45.81306" lon="1.90643">
        <ele>658.4</ele>
        <time>2026-08-08T09:55:47.000Z</time>
      </trkpt>
      <trkpt lat="45.81295" lon="1.90631">
        <ele>658.5</ele>
        <time>2026-08-08T09:55:51.000Z</time>
      </trkpt>
      <trkpt lat="45.81271" lon="1.90609">
        <ele>659.1</ele>
        <time>2026-08-08T09:56:00.000Z</time>
      </trkpt>
      <trkpt lat="45.8126" lon="1.90601">
        <ele>658.9</ele>
        <time>2026-08-08T09:56:04.000Z</time>
      </trkpt>
      <trkpt lat="45.81248" lon="1.90592">
        <ele>659.2</ele>
        <time>2026-08-08T09:56:08.000Z</time>
      </trkpt>
      <trkpt lat="45.8123" lon="1.90582">
        <ele>660</ele>
        <time>2026-08-08T09:56:14.000Z</time>
      </trkpt>
      <trkpt lat="45.8119" lon="1.90567">
        <ele>660.6</ele>
        <time>2026-08-08T09:56:25.000Z</time>
      </trkpt>
      <trkpt lat="45.81156" lon="1.90556">
        <ele>660.1</ele>
        <time>2026-08-08T09:56:34.000Z</time>
      </trkpt>
      <trkpt lat="45.81127" lon="1.90549">
        <ele>659.2</ele>
        <time>2026-08-08T09:56:42.000Z</time>
      </trkpt>
      <trkpt lat="45.81093" lon="1.90537">
        <ele>658.8</ele>
        <time>2026-08-08T09:56:51.000Z</time>
      </trkpt>
      <trkpt lat="45.81055" lon="1.90525">
        <ele>659.7</ele>
        <time>2026-08-08T09:57:01.000Z</time>
      </trkpt>
      <trkpt lat="45.81034" lon="1.90519">
        <ele>660.3</ele>
        <time>2026-08-08T09:57:07.000Z</time>
      </trkpt>
      <trkpt lat="45.81001" lon="1.90508">
        <ele>660.8</ele>
        <time>2026-08-08T09:57:16.000Z</time>
      </trkpt>
      <trkpt lat="45.8097" lon="1.90499">
        <ele>660</ele>
        <time>2026-08-08T09:57:24.000Z</time>
      </trkpt>
      <trkpt lat="45.8093" lon="1.90495">
        <ele>660.1</ele>
        <time>2026-08-08T09:57:34.000Z</time>
      </trkpt>
      <trkpt lat="45.80904" lon="1.90498">
        <ele>659.3</ele>
        <time>2026-08-08T09:57:40.000Z</time>
      </trkpt>
      <trkpt lat="45.80876" lon="1.90509">
        <ele>658.8</ele>
        <time>2026-08-08T09:57:47.000Z</time>
      </trkpt>
      <trkpt lat="45.80872" lon="1.90511">
        <ele>658.6</ele>
        <time>2026-08-08T09:57:48.000Z</time>
      </trkpt>
      <trkpt lat="45.80857" lon="1.90519">
        <ele>658.5</ele>
        <time>2026-08-08T09:57:52.000Z</time>
      </trkpt>
      <trkpt lat="45.8085" lon="1.90523">
        <ele>658.7</ele>
        <time>2026-08-08T09:57:54.000Z</time>
      </trkpt>
      <trkpt lat="45.80824" lon="1.90538">
        <ele>659.2</ele>
        <time>2026-08-08T09:58:00.000Z</time>
      </trkpt>
      <trkpt lat="45.80816" lon="1.90542">
        <ele>659.1</ele>
        <time>2026-08-08T09:58:02.000Z</time>
      </trkpt>
      <trkpt lat="45.80807" lon="1.90547">
        <ele>659.2</ele>
        <time>2026-08-08T09:58:04.000Z</time>
      </trkpt>
      <trkpt lat="45.80798" lon="1.90552">
        <ele>659.1</ele>
        <time>2026-08-08T09:58:06.000Z</time>
      </trkpt>
      <trkpt lat="45.80772" lon="1.90567">
        <ele>658.8</ele>
        <time>2026-08-08T09:58:12.000Z</time>
      </trkpt>
      <trkpt lat="45.80767" lon="1.9057">
        <ele>658.8</ele>
        <time>2026-08-08T09:58:13.000Z</time>
      </trkpt>
      <trkpt lat="45.80753" lon="1.90579">
        <ele>658.7</ele>
        <time>2026-08-08T09:58:16.000Z</time>
      </trkpt>
      <trkpt lat="45.80748" lon="1.90581">
        <ele>658.6</ele>
        <time>2026-08-08T09:58:17.000Z</time>
      </trkpt>
      <trkpt lat="45.80711" lon="1.906">
        <ele>657.9</ele>
        <time>2026-08-08T09:58:25.000Z</time>
      </trkpt>
      <trkpt lat="45.80673" lon="1.90624">
        <ele>658</ele>
        <time>2026-08-08T09:58:32.000Z</time>
      </trkpt>
      <trkpt lat="45.80641" lon="1.90653">
        <ele>659.2</ele>
        <time>2026-08-08T09:58:40.000Z</time>
      </trkpt>
      <trkpt lat="45.8062" lon="1.90674">
        <ele>658.8</ele>
        <time>2026-08-08T09:58:45.000Z</time>
      </trkpt>
      <trkpt lat="45.80609" lon="1.90687">
        <ele>657.5</ele>
        <time>2026-08-08T09:58:48.000Z</time>
      </trkpt>
      <trkpt lat="45.80574" lon="1.9073">
        <ele>658</ele>
        <time>2026-08-08T09:58:58.000Z</time>
      </trkpt>
      <trkpt lat="45.80567" lon="1.90737">
        <ele>658.2</ele>
        <time>2026-08-08T09:59:00.000Z</time>
      </trkpt>
      <trkpt lat="45.80555" lon="1.90752">
        <ele>658.3</ele>
        <time>2026-08-08T09:59:04.000Z</time>
      </trkpt>
      <trkpt lat="45.80537" lon="1.90781">
        <ele>660.9</ele>
        <time>2026-08-08T09:59:12.000Z</time>
      </trkpt>
      <trkpt lat="45.80523" lon="1.9081">
        <ele>659.5</ele>
        <time>2026-08-08T09:59:20.000Z</time>
      </trkpt>
      <trkpt lat="45.80509" lon="1.90841">
        <ele>659.9</ele>
        <time>2026-08-08T09:59:28.000Z</time>
      </trkpt>
      <trkpt lat="45.80503" lon="1.90855">
        <ele>660.8</ele>
        <time>2026-08-08T09:59:32.000Z</time>
      </trkpt>
      <trkpt lat="45.80495" lon="1.90868">
        <ele>661</ele>
        <time>2026-08-08T09:59:36.000Z</time>
      </trkpt>
      <trkpt lat="45.80479" lon="1.90892">
        <ele>661.7</ele>
        <time>2026-08-08T09:59:44.000Z</time>
      </trkpt>
      <trkpt lat="45.80477" lon="1.90894">
        <ele>661.7</ele>
        <time>2026-08-08T09:59:45.000Z</time>
      </trkpt>
      <trkpt lat="45.80459" lon="1.90912">
        <ele>662.7</ele>
        <time>2026-08-08T09:59:53.000Z</time>
      </trkpt>
      <trkpt lat="45.80442" lon="1.90924">
        <ele>664.1</ele>
        <time>2026-08-08T09:59:59.000Z</time>
      </trkpt>
      <trkpt lat="45.8042" lon="1.90931">
        <ele>663.4</ele>
        <time>2026-08-08T10:00:06.000Z</time>
      </trkpt>
      <trkpt lat="45.80416" lon="1.90933">
        <ele>663.3</ele>
        <time>2026-08-08T10:00:07.000Z</time>
      </trkpt>
      <trkpt lat="45.80402" lon="1.90939">
        <ele>663.4</ele>
        <time>2026-08-08T10:00:12.000Z</time>
      </trkpt>
      <trkpt lat="45.80384" lon="1.9095">
        <ele>664.3</ele>
        <time>2026-08-08T10:00:18.000Z</time>
      </trkpt>
      <trkpt lat="45.80379" lon="1.90954">
        <ele>664.3</ele>
        <time>2026-08-08T10:00:20.000Z</time>
      </trkpt>
      <trkpt lat="45.8037" lon="1.90964">
        <ele>664.7</ele>
        <time>2026-08-08T10:00:23.000Z</time>
      </trkpt>
      <trkpt lat="45.80361" lon="1.90975">
        <ele>665.6</ele>
        <time>2026-08-08T10:00:27.000Z</time>
      </trkpt>
      <trkpt lat="45.80345" lon="1.90993">
        <ele>666.5</ele>
        <time>2026-08-08T10:00:32.000Z</time>
      </trkpt>
      <trkpt lat="45.80325" lon="1.91007">
        <ele>664.9</ele>
        <time>2026-08-08T10:00:37.000Z</time>
      </trkpt>
      <trkpt lat="45.80307" lon="1.91015">
        <ele>663.4</ele>
        <time>2026-08-08T10:00:41.000Z</time>
      </trkpt>
      <trkpt lat="45.80296" lon="1.91023">
        <ele>662.9</ele>
        <time>2026-08-08T10:00:44.000Z</time>
      </trkpt>
      <trkpt lat="45.80268" lon="1.91054">
        <ele>664.7</ele>
        <time>2026-08-08T10:00:54.000Z</time>
      </trkpt>
      <trkpt lat="45.80246" lon="1.91077">
        <ele>665.8</ele>
        <time>2026-08-08T10:01:02.000Z</time>
      </trkpt>
      <trkpt lat="45.80221" lon="1.91103">
        <ele>666.3</ele>
        <time>2026-08-08T10:01:10.000Z</time>
      </trkpt>
      <trkpt lat="45.80195" lon="1.9113">
        <ele>666.2</ele>
        <time>2026-08-08T10:01:19.000Z</time>
      </trkpt>
      <trkpt lat="45.80172" lon="1.91154">
        <ele>666.5</ele>
        <time>2026-08-08T10:01:26.000Z</time>
      </trkpt>
      <trkpt lat="45.80146" lon="1.91185">
        <ele>665.7</ele>
        <time>2026-08-08T10:01:35.000Z</time>
      </trkpt>
      <trkpt lat="45.80126" lon="1.9121">
        <ele>664.8</ele>
        <time>2026-08-08T10:01:40.000Z</time>
      </trkpt>
      <trkpt lat="45.80108" lon="1.91248">
        <ele>662.6</ele>
        <time>2026-08-08T10:01:46.000Z</time>
      </trkpt>
      <trkpt lat="45.80099" lon="1.91288">
        <ele>663.5</ele>
        <time>2026-08-08T10:01:51.000Z</time>
      </trkpt>
      <trkpt lat="45.80095" lon="1.91307">
        <ele>662.2</ele>
        <time>2026-08-08T10:01:53.000Z</time>
      </trkpt>
      <trkpt lat="45.80089" lon="1.91326">
        <ele>660.6</ele>
        <time>2026-08-08T10:01:55.000Z</time>
      </trkpt>
      <trkpt lat="45.80086" lon="1.91336">
        <ele>659.7</ele>
        <time>2026-08-08T10:01:56.000Z</time>
      </trkpt>
      <trkpt lat="45.80077" lon="1.91355">
        <ele>658.1</ele>
        <time>2026-08-08T10:01:58.000Z</time>
      </trkpt>
      <trkpt lat="45.80073" lon="1.91363">
        <ele>657.5</ele>
        <time>2026-08-08T10:01:59.000Z</time>
      </trkpt>
      <trkpt lat="45.80067" lon="1.91372">
        <ele>657.4</ele>
        <time>2026-08-08T10:02:00.000Z</time>
      </trkpt>
      <trkpt lat="45.80055" lon="1.91385">
        <ele>658.4</ele>
        <time>2026-08-08T10:02:02.000Z</time>
      </trkpt>
      <trkpt lat="45.80049" lon="1.9139">
        <ele>658.8</ele>
        <time>2026-08-08T10:02:03.000Z</time>
      </trkpt>
      <trkpt lat="45.80032" lon="1.914">
        <ele>659.5</ele>
        <time>2026-08-08T10:02:06.000Z</time>
      </trkpt>
      <trkpt lat="45.8001" lon="1.9141">
        <ele>661.5</ele>
        <time>2026-08-08T10:02:11.000Z</time>
      </trkpt>
      <trkpt lat="45.79995" lon="1.91413">
        <ele>662.3</ele>
        <time>2026-08-08T10:02:16.000Z</time>
      </trkpt>
      <trkpt lat="45.79992" lon="1.91413">
        <ele>662.3</ele>
        <time>2026-08-08T10:02:17.000Z</time>
      </trkpt>
      <trkpt lat="45.79978" lon="1.91422">
        <ele>663.5</ele>
        <time>2026-08-08T10:02:23.000Z</time>
      </trkpt>
      <trkpt lat="45.79963" lon="1.91438">
        <ele>664.5</ele>
        <time>2026-08-08T10:02:30.000Z</time>
      </trkpt>
      <trkpt lat="45.79959" lon="1.91446">
        <ele>665.1</ele>
        <time>2026-08-08T10:02:33.000Z</time>
      </trkpt>
      <trkpt lat="45.79953" lon="1.91454">
        <ele>665.8</ele>
        <time>2026-08-08T10:02:36.000Z</time>
      </trkpt>
      <trkpt lat="45.79939" lon="1.91476">
        <ele>666.2</ele>
        <time>2026-08-08T10:02:43.000Z</time>
      </trkpt>
      <trkpt lat="45.79934" lon="1.9149">
        <ele>667.7</ele>
        <time>2026-08-08T10:02:47.000Z</time>
      </trkpt>
      <trkpt lat="45.7993" lon="1.91505">
        <ele>668.5</ele>
        <time>2026-08-08T10:02:50.000Z</time>
      </trkpt>
      <trkpt lat="45.79918" lon="1.91534">
        <ele>666.2</ele>
        <time>2026-08-08T10:02:56.000Z</time>
      </trkpt>
      <trkpt lat="45.79903" lon="1.91571">
        <ele>663.9</ele>
        <time>2026-08-08T10:03:02.000Z</time>
      </trkpt>
      <trkpt lat="45.7989" lon="1.91594">
        <ele>665.2</ele>
        <time>2026-08-08T10:03:07.000Z</time>
      </trkpt>
      <trkpt lat="45.79884" lon="1.91603">
        <ele>665.8</ele>
        <time>2026-08-08T10:03:09.000Z</time>
      </trkpt>
      <trkpt lat="45.79866" lon="1.91619">
        <ele>667</ele>
        <time>2026-08-08T10:03:14.000Z</time>
      </trkpt>
      <trkpt lat="45.79858" lon="1.91624">
        <ele>667.3</ele>
        <time>2026-08-08T10:03:16.000Z</time>
      </trkpt>
      <trkpt lat="45.79824" lon="1.91636">
        <ele>666.4</ele>
        <time>2026-08-08T10:03:24.000Z</time>
      </trkpt>
      <trkpt lat="45.79816" lon="1.91639">
        <ele>666.4</ele>
        <time>2026-08-08T10:03:26.000Z</time>
      </trkpt>
      <trkpt lat="45.79793" lon="1.91644">
        <ele>665.8</ele>
        <time>2026-08-08T10:03:31.000Z</time>
      </trkpt>
      <trkpt lat="45.79761" lon="1.91655">
        <ele>664.5</ele>
        <time>2026-08-08T10:03:38.000Z</time>
      </trkpt>
      <trkpt lat="45.79729" lon="1.91672">
        <ele>665.1</ele>
        <time>2026-08-08T10:03:45.000Z</time>
      </trkpt>
      <trkpt lat="45.79707" lon="1.91691">
        <ele>666</ele>
        <time>2026-08-08T10:03:50.000Z</time>
      </trkpt>
      <trkpt lat="45.79686" lon="1.91712">
        <ele>665.7</ele>
        <time>2026-08-08T10:03:55.000Z</time>
      </trkpt>
      <trkpt lat="45.7965" lon="1.91749">
        <ele>663.6</ele>
        <time>2026-08-08T10:04:02.000Z</time>
      </trkpt>
      <trkpt lat="45.7962" lon="1.91783">
        <ele>663.3</ele>
        <time>2026-08-08T10:04:08.000Z</time>
      </trkpt>
      <trkpt lat="45.79615" lon="1.91789">
        <ele>663.5</ele>
        <time>2026-08-08T10:04:09.000Z</time>
      </trkpt>
      <trkpt lat="45.79611" lon="1.91795">
        <ele>663.8</ele>
        <time>2026-08-08T10:04:10.000Z</time>
      </trkpt>
      <trkpt lat="45.79591" lon="1.91819">
        <ele>664.3</ele>
        <time>2026-08-08T10:04:15.000Z</time>
      </trkpt>
      <trkpt lat="45.79571" lon="1.91841">
        <ele>665.5</ele>
        <time>2026-08-08T10:04:21.000Z</time>
      </trkpt>
      <trkpt lat="45.7956" lon="1.91853">
        <ele>666.4</ele>
        <time>2026-08-08T10:04:26.000Z</time>
      </trkpt>
      <trkpt lat="45.79559" lon="1.91855">
        <ele>666.5</ele>
        <time>2026-08-08T10:04:27.000Z</time>
      </trkpt>
      <trkpt lat="45.79554" lon="1.9186">
        <ele>666.8</ele>
        <time>2026-08-08T10:04:31.000Z</time>
      </trkpt>
      <trkpt lat="45.7955" lon="1.91866">
        <ele>667</ele>
        <time>2026-08-08T10:04:34.000Z</time>
      </trkpt>
      <trkpt lat="45.79541" lon="1.9188">
        <ele>667.7</ele>
        <time>2026-08-08T10:04:41.000Z</time>
      </trkpt>
      <trkpt lat="45.7954" lon="1.91881">
        <ele>667.9</ele>
        <time>2026-08-08T10:04:42.000Z</time>
      </trkpt>
      <trkpt lat="45.79539" lon="1.91883">
        <ele>668</ele>
        <time>2026-08-08T10:04:43.000Z</time>
      </trkpt>
      <trkpt lat="45.79537" lon="1.91889">
        <ele>668.7</ele>
        <time>2026-08-08T10:04:46.000Z</time>
      </trkpt>
      <trkpt lat="45.79535" lon="1.91892">
        <ele>668.9</ele>
        <time>2026-08-08T10:04:47.000Z</time>
      </trkpt>
      <trkpt lat="45.79527" lon="1.91911">
        <ele>670.2</ele>
        <time>2026-08-08T10:04:54.000Z</time>
      </trkpt>
      <trkpt lat="45.79521" lon="1.91921">
        <ele>670.1</ele>
        <time>2026-08-08T10:04:57.000Z</time>
      </trkpt>
      <trkpt lat="45.79509" lon="1.91936">
        <ele>669.5</ele>
        <time>2026-08-08T10:05:02.000Z</time>
      </trkpt>
      <trkpt lat="45.79491" lon="1.91951">
        <ele>668.5</ele>
        <time>2026-08-08T10:05:06.000Z</time>
      </trkpt>
      <trkpt lat="45.79483" lon="1.91956">
        <ele>667.9</ele>
        <time>2026-08-08T10:05:07.000Z</time>
      </trkpt>
      <trkpt lat="45.79463" lon="1.91969">
        <ele>667.1</ele>
        <time>2026-08-08T10:05:10.000Z</time>
      </trkpt>
      <trkpt lat="45.79432" lon="1.91985">
        <ele>664.8</ele>
        <time>2026-08-08T10:05:15.000Z</time>
      </trkpt>
      <trkpt lat="45.79418" lon="1.91993">
        <ele>663.4</ele>
        <time>2026-08-08T10:05:17.000Z</time>
      </trkpt>
      <trkpt lat="45.7941" lon="1.91997">
        <ele>663</ele>
        <time>2026-08-08T10:05:18.000Z</time>
      </trkpt>
      <trkpt lat="45.79402" lon="1.92001">
        <ele>662.6</ele>
        <time>2026-08-08T10:05:19.000Z</time>
      </trkpt>
      <trkpt lat="45.79386" lon="1.92007">
        <ele>661.9</ele>
        <time>2026-08-08T10:05:21.000Z</time>
      </trkpt>
      <trkpt lat="45.79363" lon="1.92013">
        <ele>660.7</ele>
        <time>2026-08-08T10:05:24.000Z</time>
      </trkpt>
      <trkpt lat="45.79347" lon="1.92018">
        <ele>659.4</ele>
        <time>2026-08-08T10:05:26.000Z</time>
      </trkpt>
      <trkpt lat="45.79339" lon="1.92022">
        <ele>658.9</ele>
        <time>2026-08-08T10:05:27.000Z</time>
      </trkpt>
      <trkpt lat="45.79331" lon="1.92027">
        <ele>658.4</ele>
        <time>2026-08-08T10:05:28.000Z</time>
      </trkpt>
      <trkpt lat="45.79324" lon="1.92032">
        <ele>657.6</ele>
        <time>2026-08-08T10:05:29.000Z</time>
      </trkpt>
      <trkpt lat="45.79309" lon="1.92048">
        <ele>656.7</ele>
        <time>2026-08-08T10:05:31.000Z</time>
      </trkpt>
      <trkpt lat="45.79296" lon="1.92066">
        <ele>656.3</ele>
        <time>2026-08-08T10:05:33.000Z</time>
      </trkpt>
      <trkpt lat="45.7929" lon="1.92076">
        <ele>656</ele>
        <time>2026-08-08T10:05:34.000Z</time>
      </trkpt>
      <trkpt lat="45.79264" lon="1.9211">
        <ele>654</ele>
        <time>2026-08-08T10:05:38.000Z</time>
      </trkpt>
      <trkpt lat="45.79258" lon="1.92118">
        <ele>653.8</ele>
        <time>2026-08-08T10:05:39.000Z</time>
      </trkpt>
      <trkpt lat="45.79242" lon="1.9213">
        <ele>653.4</ele>
        <time>2026-08-08T10:05:41.000Z</time>
      </trkpt>
      <trkpt lat="45.79234" lon="1.92134">
        <ele>653.2</ele>
        <time>2026-08-08T10:05:42.000Z</time>
      </trkpt>
      <trkpt lat="45.79217" lon="1.92137">
        <ele>652.9</ele>
        <time>2026-08-08T10:05:44.000Z</time>
      </trkpt>
      <trkpt lat="45.79202" lon="1.92138">
        <ele>653</ele>
        <time>2026-08-08T10:05:46.000Z</time>
      </trkpt>
      <trkpt lat="45.79187" lon="1.92137">
        <ele>652.9</ele>
        <time>2026-08-08T10:05:48.000Z</time>
      </trkpt>
      <trkpt lat="45.79151" lon="1.92139">
        <ele>653</ele>
        <time>2026-08-08T10:05:53.000Z</time>
      </trkpt>
      <trkpt lat="45.79138" lon="1.9214">
        <ele>652.9</ele>
        <time>2026-08-08T10:05:55.000Z</time>
      </trkpt>
      <trkpt lat="45.79101" lon="1.92145">
        <ele>653.1</ele>
        <time>2026-08-08T10:06:00.000Z</time>
      </trkpt>
      <trkpt lat="45.79095" lon="1.92148">
        <ele>653.3</ele>
        <time>2026-08-08T10:06:02.000Z</time>
      </trkpt>
      <trkpt lat="45.79082" lon="1.9216">
        <ele>654.2</ele>
        <time>2026-08-08T10:06:04.000Z</time>
      </trkpt>
      <trkpt lat="45.79082" lon="1.9216">
        <ele>654.2</ele>
        <time>2026-08-08T10:06:05.000Z</time>
      </trkpt>
      <trkpt lat="45.79079" lon="1.92165">
        <ele>655</ele>
        <time>2026-08-08T10:06:06.000Z</time>
      </trkpt>
      <trkpt lat="45.79071" lon="1.92179">
        <ele>655.4</ele>
        <time>2026-08-08T10:06:09.000Z</time>
      </trkpt>
      <trkpt lat="45.79069" lon="1.92184">
        <ele>655.2</ele>
        <time>2026-08-08T10:06:10.000Z</time>
      </trkpt>
      <trkpt lat="45.79049" lon="1.92219">
        <ele>656.2</ele>
        <time>2026-08-08T10:06:17.000Z</time>
      </trkpt>
      <trkpt lat="45.79037" lon="1.92229">
        <ele>656.8</ele>
        <time>2026-08-08T10:06:21.000Z</time>
      </trkpt>
      <trkpt lat="45.79027" lon="1.92233">
        <ele>657.6</ele>
        <time>2026-08-08T10:06:24.000Z</time>
      </trkpt>
      <trkpt lat="45.79016" lon="1.92235">
        <ele>657.9</ele>
        <time>2026-08-08T10:06:28.000Z</time>
      </trkpt>
      <trkpt lat="45.79002" lon="1.92233">
        <ele>658.8</ele>
        <time>2026-08-08T10:06:33.000Z</time>
      </trkpt>
      <trkpt lat="45.78995" lon="1.92233">
        <ele>659</ele>
        <time>2026-08-08T10:06:35.000Z</time>
      </trkpt>
      <trkpt lat="45.78975" lon="1.92228">
        <ele>659.7</ele>
        <time>2026-08-08T10:06:42.000Z</time>
      </trkpt>
      <trkpt lat="45.7897" lon="1.92225">
        <ele>660.1</ele>
        <time>2026-08-08T10:06:44.000Z</time>
      </trkpt>
      <trkpt lat="45.78969" lon="1.92223">
        <ele>660.2</ele>
        <time>2026-08-08T10:06:45.000Z</time>
      </trkpt>
      <trkpt lat="45.78968" lon="1.9222">
        <ele>660.4</ele>
        <time>2026-08-08T10:06:46.000Z</time>
      </trkpt>
      <trkpt lat="45.78968" lon="1.92217">
        <ele>660.7</ele>
        <time>2026-08-08T10:06:47.000Z</time>
      </trkpt>
      <trkpt lat="45.7897" lon="1.92209">
        <ele>661.1</ele>
        <time>2026-08-08T10:06:50.000Z</time>
      </trkpt>
      <trkpt lat="45.78971" lon="1.92206">
        <ele>661.2</ele>
        <time>2026-08-08T10:06:51.000Z</time>
      </trkpt>
      <trkpt lat="45.78977" lon="1.92198">
        <ele>661.8</ele>
        <time>2026-08-08T10:06:55.000Z</time>
      </trkpt>
      <trkpt lat="45.7898" lon="1.92193">
        <ele>662.1</ele>
        <time>2026-08-08T10:06:57.000Z</time>
      </trkpt>
      <trkpt lat="45.78986" lon="1.92185">
        <ele>662.8</ele>
        <time>2026-08-08T10:07:01.000Z</time>
      </trkpt>
      <trkpt lat="45.7899" lon="1.9218">
        <ele>663.3</ele>
        <time>2026-08-08T10:07:04.000Z</time>
      </trkpt>
      <trkpt lat="45.78995" lon="1.92172">
        <ele>663.8</ele>
        <time>2026-08-08T10:07:08.000Z</time>
      </trkpt>
      <trkpt lat="45.79001" lon="1.92163">
        <ele>664.2</ele>
        <time>2026-08-08T10:07:12.000Z</time>
      </trkpt>
      <trkpt lat="45.79007" lon="1.9215">
        <ele>664.5</ele>
        <time>2026-08-08T10:07:17.000Z</time>
      </trkpt>
      <trkpt lat="45.79011" lon="1.92142">
        <ele>664.4</ele>
        <time>2026-08-08T10:07:20.000Z</time>
      </trkpt>
      <trkpt lat="45.79017" lon="1.92123">
        <ele>664.4</ele>
        <time>2026-08-08T10:07:27.000Z</time>
      </trkpt>
      <trkpt lat="45.79019" lon="1.92117">
        <ele>664.3</ele>
        <time>2026-08-08T10:07:29.000Z</time>
      </trkpt>
      <trkpt lat="45.79022" lon="1.92103">
        <ele>664.9</ele>
        <time>2026-08-08T10:07:34.000Z</time>
      </trkpt>
      <trkpt lat="45.79024" lon="1.92098">
        <ele>665.2</ele>
        <time>2026-08-08T10:07:36.000Z</time>
      </trkpt>
      <trkpt lat="45.79037" lon="1.92061">
        <ele>665</ele>
        <time>2026-08-08T10:07:46.000Z</time>
      </trkpt>
      <trkpt lat="45.79046" lon="1.92044">
        <ele>664.5</ele>
        <time>2026-08-08T10:07:50.000Z</time>
      </trkpt>
      <trkpt lat="45.79048" lon="1.9204">
        <ele>664.5</ele>
        <time>2026-08-08T10:07:51.000Z</time>
      </trkpt>
      <trkpt lat="45.79057" lon="1.92024">
        <ele>665</ele>
        <time>2026-08-08T10:07:57.000Z</time>
      </trkpt>
      <trkpt lat="45.79064" lon="1.92005">
        <ele>664.9</ele>
        <time>2026-08-08T10:08:03.000Z</time>
      </trkpt>
      <trkpt lat="45.79069" lon="1.91994">
        <ele>665.4</ele>
        <time>2026-08-08T10:08:07.000Z</time>
      </trkpt>
      <trkpt lat="45.79072" lon="1.91984">
        <ele>666.4</ele>
        <time>2026-08-08T10:08:11.000Z</time>
      </trkpt>
      <trkpt lat="45.79074" lon="1.91981">
        <ele>666.7</ele>
        <time>2026-08-08T10:08:12.000Z</time>
      </trkpt>
      <trkpt lat="45.79083" lon="1.91962">
        <ele>667.3</ele>
        <time>2026-08-08T10:08:17.000Z</time>
      </trkpt>
      <trkpt lat="45.79086" lon="1.91954">
        <ele>667.4</ele>
        <time>2026-08-08T10:08:19.000Z</time>
      </trkpt>
      <trkpt lat="45.79092" lon="1.91945">
        <ele>667.2</ele>
        <time>2026-08-08T10:08:22.000Z</time>
      </trkpt>
      <trkpt lat="45.79092" lon="1.91943">
        <ele>667.3</ele>
        <time>2026-08-08T10:08:23.000Z</time>
      </trkpt>
      <trkpt lat="45.79097" lon="1.91928">
        <ele>667.9</ele>
        <time>2026-08-08T10:08:28.000Z</time>
      </trkpt>
      <trkpt lat="45.79103" lon="1.91912">
        <ele>668</ele>
        <time>2026-08-08T10:08:33.000Z</time>
      </trkpt>
      <trkpt lat="45.79105" lon="1.91906">
        <ele>668.1</ele>
        <time>2026-08-08T10:08:35.000Z</time>
      </trkpt>
      <trkpt lat="45.79111" lon="1.91889">
        <ele>668.9</ele>
        <time>2026-08-08T10:08:41.000Z</time>
      </trkpt>
      <trkpt lat="45.79113" lon="1.91886">
        <ele>668.8</ele>
        <time>2026-08-08T10:08:42.000Z</time>
      </trkpt>
      <trkpt lat="45.79115" lon="1.91881">
        <ele>668.7</ele>
        <time>2026-08-08T10:08:44.000Z</time>
      </trkpt>
      <trkpt lat="45.79118" lon="1.91871">
        <ele>668.9</ele>
        <time>2026-08-08T10:08:47.000Z</time>
      </trkpt>
      <trkpt lat="45.79121" lon="1.9186">
        <ele>669.3</ele>
        <time>2026-08-08T10:08:51.000Z</time>
      </trkpt>
      <trkpt lat="45.79122" lon="1.91856">
        <ele>669.6</ele>
        <time>2026-08-08T10:08:53.000Z</time>
      </trkpt>
      <trkpt lat="45.79126" lon="1.91839">
        <ele>671.3</ele>
        <time>2026-08-08T10:09:00.000Z</time>
      </trkpt>
      <trkpt lat="45.79126" lon="1.91836">
        <ele>671.7</ele>
        <time>2026-08-08T10:09:01.000Z</time>
      </trkpt>
      <trkpt lat="45.79128" lon="1.91831">
        <ele>671.9</ele>
        <time>2026-08-08T10:09:03.000Z</time>
      </trkpt>
      <trkpt lat="45.79132" lon="1.91819">
        <ele>673</ele>
        <time>2026-08-08T10:09:07.000Z</time>
      </trkpt>
      <trkpt lat="45.79134" lon="1.9181">
        <ele>673.9</ele>
        <time>2026-08-08T10:09:11.000Z</time>
      </trkpt>
      <trkpt lat="45.79136" lon="1.91806">
        <ele>674.1</ele>
        <time>2026-08-08T10:09:12.000Z</time>
      </trkpt>
      <trkpt lat="45.79137" lon="1.91803">
        <ele>673.9</ele>
        <time>2026-08-08T10:09:13.000Z</time>
      </trkpt>
      <trkpt lat="45.79139" lon="1.91796">
        <ele>674</ele>
        <time>2026-08-08T10:09:15.000Z</time>
      </trkpt>
      <trkpt lat="45.79142" lon="1.91784">
        <ele>674.4</ele>
        <time>2026-08-08T10:09:19.000Z</time>
      </trkpt>
      <trkpt lat="45.79149" lon="1.91767">
        <ele>675.6</ele>
        <time>2026-08-08T10:09:24.000Z</time>
      </trkpt>
      <trkpt lat="45.79149" lon="1.91759">
        <ele>677.3</ele>
        <time>2026-08-08T10:09:27.000Z</time>
      </trkpt>
      <trkpt lat="45.79149" lon="1.91753">
        <ele>678.4</ele>
        <time>2026-08-08T10:09:29.000Z</time>
      </trkpt>
      <trkpt lat="45.7915" lon="1.91748">
        <ele>679.1</ele>
        <time>2026-08-08T10:09:31.000Z</time>
      </trkpt>
      <trkpt lat="45.79152" lon="1.91736">
        <ele>679.4</ele>
        <time>2026-08-08T10:09:35.000Z</time>
      </trkpt>
      <trkpt lat="45.79153" lon="1.91734">
        <ele>679.4</ele>
        <time>2026-08-08T10:09:36.000Z</time>
      </trkpt>
      <trkpt lat="45.79153" lon="1.91729">
        <ele>679.6</ele>
        <time>2026-08-08T10:09:38.000Z</time>
      </trkpt>
      <trkpt lat="45.79153" lon="1.91724">
        <ele>679.9</ele>
        <time>2026-08-08T10:09:40.000Z</time>
      </trkpt>
      <trkpt lat="45.79153" lon="1.91723">
        <ele>680</ele>
        <time>2026-08-08T10:09:41.000Z</time>
      </trkpt>
      <trkpt lat="45.79154" lon="1.9172">
        <ele>679.9</ele>
        <time>2026-08-08T10:09:43.000Z</time>
      </trkpt>
      <trkpt lat="45.79154" lon="1.91719">
        <ele>679.9</ele>
        <time>2026-08-08T10:09:44.000Z</time>
      </trkpt>
      <trkpt lat="45.79154" lon="1.91718">
        <ele>679.9</ele>
        <time>2026-08-08T10:09:47.000Z</time>
      </trkpt>
      <trkpt lat="45.79154" lon="1.9171">
        <ele>680.1</ele>
        <time>2026-08-08T10:10:02.000Z</time>
      </trkpt>
      <trkpt lat="45.79155" lon="1.91687">
        <ele>679.9</ele>
        <time>2026-08-08T10:10:08.000Z</time>
      </trkpt>
      <trkpt lat="45.79155" lon="1.91652">
        <ele>678.3</ele>
        <time>2026-08-08T10:10:15.000Z</time>
      </trkpt>
      <trkpt lat="45.79147" lon="1.91629">
        <ele>677.8</ele>
        <time>2026-08-08T10:10:19.000Z</time>
      </trkpt>
      <trkpt lat="45.79147" lon="1.91622">
        <ele>677.4</ele>
        <time>2026-08-08T10:10:20.000Z</time>
      </trkpt>
      <trkpt lat="45.79144" lon="1.91609">
        <ele>676.8</ele>
        <time>2026-08-08T10:10:22.000Z</time>
      </trkpt>
      <trkpt lat="45.79143" lon="1.91602">
        <ele>676.7</ele>
        <time>2026-08-08T10:10:23.000Z</time>
      </trkpt>
      <trkpt lat="45.79142" lon="1.91594">
        <ele>676.7</ele>
        <time>2026-08-08T10:10:24.000Z</time>
      </trkpt>
      <trkpt lat="45.79141" lon="1.91586">
        <ele>676.8</ele>
        <time>2026-08-08T10:10:25.000Z</time>
      </trkpt>
      <trkpt lat="45.79138" lon="1.91572">
        <ele>676.7</ele>
        <time>2026-08-08T10:10:27.000Z</time>
      </trkpt>
      <trkpt lat="45.79138" lon="1.91565">
        <ele>676.4</ele>
        <time>2026-08-08T10:10:28.000Z</time>
      </trkpt>
      <trkpt lat="45.79139" lon="1.91552">
        <ele>676.1</ele>
        <time>2026-08-08T10:10:30.000Z</time>
      </trkpt>
      <trkpt lat="45.79143" lon="1.91528">
        <ele>676.2</ele>
        <time>2026-08-08T10:10:34.000Z</time>
      </trkpt>
      <trkpt lat="45.79145" lon="1.91523">
        <ele>676.4</ele>
        <time>2026-08-08T10:10:35.000Z</time>
      </trkpt>
      <trkpt lat="45.7915" lon="1.91502">
        <ele>677.6</ele>
        <time>2026-08-08T10:10:39.000Z</time>
      </trkpt>
      <trkpt lat="45.79152" lon="1.91478">
        <ele>677.6</ele>
        <time>2026-08-08T10:10:43.000Z</time>
      </trkpt>
      <trkpt lat="45.79151" lon="1.91463">
        <ele>677</ele>
        <time>2026-08-08T10:10:45.000Z</time>
      </trkpt>
      <trkpt lat="45.7915" lon="1.91456">
        <ele>676.5</ele>
        <time>2026-08-08T10:10:46.000Z</time>
      </trkpt>
      <trkpt lat="45.79145" lon="1.91426">
        <ele>673.9</ele>
        <time>2026-08-08T10:10:50.000Z</time>
      </trkpt>
      <trkpt lat="45.79143" lon="1.91418">
        <ele>673.2</ele>
        <time>2026-08-08T10:10:51.000Z</time>
      </trkpt>
      <trkpt lat="45.79141" lon="1.9141">
        <ele>672.3</ele>
        <time>2026-08-08T10:10:52.000Z</time>
      </trkpt>
      <trkpt lat="45.79133" lon="1.91395">
        <ele>671.4</ele>
        <time>2026-08-08T10:10:54.000Z</time>
      </trkpt>
      <trkpt lat="45.79124" lon="1.91378">
        <ele>670.9</ele>
        <time>2026-08-08T10:10:56.000Z</time>
      </trkpt>
      <trkpt lat="45.79115" lon="1.9136">
        <ele>670.3</ele>
        <time>2026-08-08T10:10:58.000Z</time>
      </trkpt>
      <trkpt lat="45.79108" lon="1.91341">
        <ele>669.5</ele>
        <time>2026-08-08T10:11:00.000Z</time>
      </trkpt>
      <trkpt lat="45.79105" lon="1.91332">
        <ele>669.2</ele>
        <time>2026-08-08T10:11:01.000Z</time>
      </trkpt>
      <trkpt lat="45.79104" lon="1.91322">
        <ele>669</ele>
        <time>2026-08-08T10:11:02.000Z</time>
      </trkpt>
      <trkpt lat="45.79102" lon="1.91312">
        <ele>668.8</ele>
        <time>2026-08-08T10:11:03.000Z</time>
      </trkpt>
      <trkpt lat="45.79102" lon="1.91292">
        <ele>668.6</ele>
        <time>2026-08-08T10:11:05.000Z</time>
      </trkpt>
      <trkpt lat="45.79103" lon="1.91274">
        <ele>668.4</ele>
        <time>2026-08-08T10:11:07.000Z</time>
      </trkpt>
      <trkpt lat="45.79106" lon="1.91255">
        <ele>668.2</ele>
        <time>2026-08-08T10:11:09.000Z</time>
      </trkpt>
      <trkpt lat="45.79108" lon="1.91246">
        <ele>667.8</ele>
        <time>2026-08-08T10:11:10.000Z</time>
      </trkpt>
      <trkpt lat="45.79112" lon="1.91237">
        <ele>667.2</ele>
        <time>2026-08-08T10:11:11.000Z</time>
      </trkpt>
      <trkpt lat="45.79117" lon="1.91228">
        <ele>666.7</ele>
        <time>2026-08-08T10:11:12.000Z</time>
      </trkpt>
      <trkpt lat="45.79122" lon="1.9122">
        <ele>666.2</ele>
        <time>2026-08-08T10:11:13.000Z</time>
      </trkpt>
      <trkpt lat="45.79136" lon="1.912">
        <ele>664.2</ele>
        <time>2026-08-08T10:11:16.000Z</time>
      </trkpt>
      <trkpt lat="45.79141" lon="1.91194">
        <ele>663.9</ele>
        <time>2026-08-08T10:11:17.000Z</time>
      </trkpt>
      <trkpt lat="45.79153" lon="1.91179">
        <ele>663.8</ele>
        <time>2026-08-08T10:11:20.000Z</time>
      </trkpt>
      <trkpt lat="45.79156" lon="1.91175">
        <ele>663.8</ele>
        <time>2026-08-08T10:11:21.000Z</time>
      </trkpt>
      <trkpt lat="45.7916" lon="1.9117">
        <ele>663.6</ele>
        <time>2026-08-08T10:11:22.000Z</time>
      </trkpt>
      <trkpt lat="45.79163" lon="1.91166">
        <ele>663.4</ele>
        <time>2026-08-08T10:11:23.000Z</time>
      </trkpt>
      <trkpt lat="45.7917" lon="1.91159">
        <ele>662.5</ele>
        <time>2026-08-08T10:11:26.000Z</time>
      </trkpt>
      <trkpt lat="45.7917" lon="1.91158">
        <ele>662.5</ele>
        <time>2026-08-08T10:11:28.000Z</time>
      </trkpt>
      <trkpt lat="45.79173" lon="1.91152">
        <ele>662.2</ele>
        <time>2026-08-08T10:12:59.000Z</time>
      </trkpt>
      <trkpt lat="45.79183" lon="1.91137">
        <ele>661.4</ele>
        <time>2026-08-08T10:13:05.000Z</time>
      </trkpt>
      <trkpt lat="45.792" lon="1.9112">
        <ele>660.8</ele>
        <time>2026-08-08T10:13:11.000Z</time>
      </trkpt>
      <trkpt lat="45.79222" lon="1.91099">
        <ele>660</ele>
        <time>2026-08-08T10:13:19.000Z</time>
      </trkpt>
      <trkpt lat="45.79224" lon="1.91097">
        <ele>660</ele>
        <time>2026-08-08T10:13:20.000Z</time>
      </trkpt>
      <trkpt lat="45.79244" lon="1.91076">
        <ele>659.7</ele>
        <time>2026-08-08T10:13:26.000Z</time>
      </trkpt>
      <trkpt lat="45.7925" lon="1.9107">
        <ele>659.5</ele>
        <time>2026-08-08T10:13:28.000Z</time>
      </trkpt>
      <trkpt lat="45.79269" lon="1.91052">
        <ele>659</ele>
        <time>2026-08-08T10:13:34.000Z</time>
      </trkpt>
      <trkpt lat="45.7928" lon="1.91034">
        <ele>659</ele>
        <time>2026-08-08T10:13:39.000Z</time>
      </trkpt>
      <trkpt lat="45.79287" lon="1.91004">
        <ele>659.1</ele>
        <time>2026-08-08T10:13:46.000Z</time>
      </trkpt>
      <trkpt lat="45.79293" lon="1.9098">
        <ele>658.7</ele>
        <time>2026-08-08T10:13:51.000Z</time>
      </trkpt>
      <trkpt lat="45.79294" lon="1.90974">
        <ele>658.6</ele>
        <time>2026-08-08T10:13:52.000Z</time>
      </trkpt>
      <trkpt lat="45.79297" lon="1.90961">
        <ele>658.4</ele>
        <time>2026-08-08T10:13:55.000Z</time>
      </trkpt>
      <trkpt lat="45.79305" lon="1.90927">
        <ele>658</ele>
        <time>2026-08-08T10:14:02.000Z</time>
      </trkpt>
      <trkpt lat="45.79313" lon="1.90897">
        <ele>657.2</ele>
        <time>2026-08-08T10:14:08.000Z</time>
      </trkpt>
      <trkpt lat="45.79319" lon="1.90868">
        <ele>657</ele>
        <time>2026-08-08T10:14:14.000Z</time>
      </trkpt>
      <trkpt lat="45.79321" lon="1.90848">
        <ele>657</ele>
        <time>2026-08-08T10:14:18.000Z</time>
      </trkpt>
      <trkpt lat="45.79323" lon="1.90834">
        <ele>657</ele>
        <time>2026-08-08T10:14:21.000Z</time>
      </trkpt>
      <trkpt lat="45.79327" lon="1.90796">
        <ele>656.5</ele>
        <time>2026-08-08T10:14:28.000Z</time>
      </trkpt>
      <trkpt lat="45.79325" lon="1.90761">
        <ele>656</ele>
        <time>2026-08-08T10:14:35.000Z</time>
      </trkpt>
      <trkpt lat="45.79324" lon="1.90742">
        <ele>656</ele>
        <time>2026-08-08T10:14:39.000Z</time>
      </trkpt>
      <trkpt lat="45.79323" lon="1.90735">
        <ele>656</ele>
        <time>2026-08-08T10:14:42.000Z</time>
      </trkpt>
      <trkpt lat="45.79323" lon="1.90733">
        <ele>656</ele>
        <time>2026-08-08T10:14:43.000Z</time>
      </trkpt>
      <trkpt lat="45.79323" lon="1.90733">
        <ele>656</ele>
        <time>2026-08-08T10:14:45.000Z</time>
      </trkpt>
      <trkpt lat="45.7932" lon="1.90726">
        <ele>656</ele>
        <time>2026-08-08T10:15:06.000Z</time>
      </trkpt>
      <trkpt lat="45.79319" lon="1.90702">
        <ele>656</ele>
        <time>2026-08-08T10:15:13.000Z</time>
      </trkpt>
      <trkpt lat="45.79317" lon="1.90682">
        <ele>655.8</ele>
        <time>2026-08-08T10:15:19.000Z</time>
      </trkpt>
      <trkpt lat="45.79314" lon="1.90665">
        <ele>655.7</ele>
        <time>2026-08-08T10:15:24.000Z</time>
      </trkpt>
      <trkpt lat="45.79315" lon="1.90655">
        <ele>655.4</ele>
        <time>2026-08-08T10:15:26.000Z</time>
      </trkpt>
      <trkpt lat="45.79312" lon="1.90631">
        <ele>655.3</ele>
        <time>2026-08-08T10:15:30.000Z</time>
      </trkpt>
      <trkpt lat="45.79312" lon="1.90621">
        <ele>655.3</ele>
        <time>2026-08-08T10:15:32.000Z</time>
      </trkpt>
      <trkpt lat="45.79307" lon="1.90587">
        <ele>655.9</ele>
        <time>2026-08-08T10:15:39.000Z</time>
      </trkpt>
      <trkpt lat="45.79305" lon="1.90567">
        <ele>656</ele>
        <time>2026-08-08T10:15:44.000Z</time>
      </trkpt>
      <trkpt lat="45.79302" lon="1.90542">
        <ele>656.1</ele>
        <time>2026-08-08T10:15:50.000Z</time>
      </trkpt>
      <trkpt lat="45.79304" lon="1.90508">
        <ele>656.1</ele>
        <time>2026-08-08T10:15:59.000Z</time>
      </trkpt>
      <trkpt lat="45.79299" lon="1.90477">
        <ele>656.3</ele>
        <time>2026-08-08T10:16:08.000Z</time>
      </trkpt>
      <trkpt lat="45.79297" lon="1.9046">
        <ele>656.3</ele>
        <time>2026-08-08T10:16:15.000Z</time>
      </trkpt>
      <trkpt lat="45.79296" lon="1.90452">
        <ele>656.3</ele>
        <time>2026-08-08T10:16:21.000Z</time>
      </trkpt>
      <trkpt lat="45.79296" lon="1.90452">
        <ele>656.3</ele>
        <time>2026-08-08T10:16:23.000Z</time>
      </trkpt>
      <trkpt lat="45.79298" lon="1.90456">
        <ele>656.3</ele>
        <time>2026-08-08T10:21:23.000Z</time>
      </trkpt>
      <trkpt lat="45.79299" lon="1.90461">
        <ele>656.2</ele>
        <time>2026-08-08T10:21:25.000Z</time>
      </trkpt>
      <trkpt lat="45.79302" lon="1.90486">
        <ele>656.2</ele>
        <time>2026-08-08T10:21:32.000Z</time>
      </trkpt>
      <trkpt lat="45.79304" lon="1.90506">
        <ele>656.1</ele>
        <time>2026-08-08T10:21:37.000Z</time>
      </trkpt>
      <trkpt lat="45.79304" lon="1.90523">
        <ele>656.1</ele>
        <time>2026-08-08T10:21:41.000Z</time>
      </trkpt>
      <trkpt lat="45.79304" lon="1.90531">
        <ele>656</ele>
        <time>2026-08-08T10:21:43.000Z</time>
      </trkpt>
      <trkpt lat="45.79307" lon="1.9056">
        <ele>655.9</ele>
        <time>2026-08-08T10:21:49.000Z</time>
      </trkpt>
      <trkpt lat="45.79309" lon="1.90585">
        <ele>655.7</ele>
        <time>2026-08-08T10:21:54.000Z</time>
      </trkpt>
      <trkpt lat="45.79311" lon="1.90596">
        <ele>655.6</ele>
        <time>2026-08-08T10:21:56.000Z</time>
      </trkpt>
      <trkpt lat="45.79315" lon="1.90634">
        <ele>655</ele>
        <time>2026-08-08T10:22:04.000Z</time>
      </trkpt>
      <trkpt lat="45.79315" lon="1.90659">
        <ele>655.5</ele>
        <time>2026-08-08T10:22:10.000Z</time>
      </trkpt>
      <trkpt lat="45.79315" lon="1.90662">
        <ele>655.5</ele>
        <time>2026-08-08T10:22:11.000Z</time>
      </trkpt>
      <trkpt lat="45.79317" lon="1.90687">
        <ele>655.9</ele>
        <time>2026-08-08T10:22:18.000Z</time>
      </trkpt>
      <trkpt lat="45.79319" lon="1.90709">
        <ele>656</ele>
        <time>2026-08-08T10:22:24.000Z</time>
      </trkpt>
      <trkpt lat="45.7932" lon="1.90721">
        <ele>656</ele>
        <time>2026-08-08T10:22:27.000Z</time>
      </trkpt>
      <trkpt lat="45.79324" lon="1.90744">
        <ele>656</ele>
        <time>2026-08-08T10:22:33.000Z</time>
      </trkpt>
      <trkpt lat="45.79325" lon="1.90747">
        <ele>656</ele>
        <time>2026-08-08T10:22:34.000Z</time>
      </trkpt>
      <trkpt lat="45.79328" lon="1.90752">
        <ele>656</ele>
        <time>2026-08-08T10:22:36.000Z</time>
      </trkpt>
      <trkpt lat="45.7933" lon="1.90753">
        <ele>656</ele>
        <time>2026-08-08T10:22:37.000Z</time>
      </trkpt>
      <trkpt lat="45.79342" lon="1.9076">
        <ele>655.7</ele>
        <time>2026-08-08T10:22:43.000Z</time>
      </trkpt>
      <trkpt lat="45.79345" lon="1.90775">
        <ele>655.6</ele>
        <time>2026-08-08T10:22:48.000Z</time>
      </trkpt>
      <trkpt lat="45.79342" lon="1.90775">
        <ele>655.7</ele>
        <time>2026-08-08T10:22:51.000Z</time>
      </trkpt>
      <trkpt lat="45.79343" lon="1.90772">
        <ele>655.6</ele>
        <time>2026-08-08T10:22:53.000Z</time>
      </trkpt>
      <trkpt lat="45.79345" lon="1.90769">
        <ele>655.6</ele>
        <time>2026-08-08T10:22:55.000Z</time>
      </trkpt>
      <trkpt lat="45.79351" lon="1.90756">
        <ele>655.4</ele>
        <time>2026-08-08T10:23:02.000Z</time>
      </trkpt>
      <trkpt lat="45.79351" lon="1.90753">
        <ele>655.3</ele>
        <time>2026-08-08T10:23:04.000Z</time>
      </trkpt>
      <trkpt lat="45.79351" lon="1.90753">
        <ele>655.3</ele>
        <time>2026-08-08T10:23:06.000Z</time>
      </trkpt>
      <trkpt lat="45.79323" lon="1.90779">
        <ele>656</ele>
        <time>2026-08-08T10:28:53.000Z</time>
      </trkpt>
      <trkpt lat="45.79323" lon="1.90786">
        <ele>656.2</ele>
        <time>2026-08-08T10:28:56.000Z</time>
      </trkpt>
      <trkpt lat="45.79323" lon="1.90803">
        <ele>656.6</ele>
        <time>2026-08-08T10:29:02.000Z</time>
      </trkpt>
      <trkpt lat="45.79322" lon="1.90819">
        <ele>656.8</ele>
        <time>2026-08-08T10:29:08.000Z</time>
      </trkpt>
      <trkpt lat="45.79321" lon="1.90821">
        <ele>656.8</ele>
        <time>2026-08-08T10:29:09.000Z</time>
      </trkpt>
      <trkpt lat="45.79319" lon="1.90822">
        <ele>656.8</ele>
        <time>2026-08-08T10:29:12.000Z</time>
      </trkpt>
      <trkpt lat="45.79317" lon="1.90821">
        <ele>656.7</ele>
        <time>2026-08-08T10:29:14.000Z</time>
      </trkpt>
      <trkpt lat="45.79317" lon="1.9082">
        <ele>656.7</ele>
        <time>2026-08-08T10:29:15.000Z</time>
      </trkpt>
      <trkpt lat="45.79321" lon="1.90816">
        <ele>656.7</ele>
        <time>2026-08-08T10:29:18.000Z</time>
      </trkpt>
      <trkpt lat="45.79324" lon="1.90802">
        <ele>656.6</ele>
        <time>2026-08-08T10:29:23.000Z</time>
      </trkpt>
      <trkpt lat="45.79326" lon="1.90783">
        <ele>656.1</ele>
        <time>2026-08-08T10:29:29.000Z</time>
      </trkpt>
      <trkpt lat="45.79328" lon="1.90767">
        <ele>656</ele>
        <time>2026-08-08T10:29:35.000Z</time>
      </trkpt>
      <trkpt lat="45.79332" lon="1.90765">
        <ele>656</ele>
        <time>2026-08-08T10:29:39.000Z</time>
      </trkpt>
      <trkpt lat="45.79334" lon="1.90766">
        <ele>656</ele>
        <time>2026-08-08T10:29:41.000Z</time>
      </trkpt>
      <trkpt lat="45.79334" lon="1.90764">
        <ele>656</ele>
        <time>2026-08-08T10:29:43.000Z</time>
      </trkpt>
      <trkpt lat="45.79334" lon="1.90762">
        <ele>656</ele>
        <time>2026-08-08T10:29:45.000Z</time>
      </trkpt>
      <trkpt lat="45.79337" lon="1.90758">
        <ele>655.9</ele>
        <time>2026-08-08T10:29:50.000Z</time>
      </trkpt>
      <trkpt lat="45.79338" lon="1.90758">
        <ele>655.8</ele>
        <time>2026-08-08T10:29:51.000Z</time>
      </trkpt>
      <trkpt lat="45.79339" lon="1.90759">
        <ele>655.8</ele>
        <time>2026-08-08T10:29:52.000Z</time>
      </trkpt>
      <trkpt lat="45.79338" lon="1.90761">
        <ele>655.8</ele>
        <time>2026-08-08T10:29:55.000Z</time>
      </trkpt>
      <trkpt lat="45.79337" lon="1.90762">
        <ele>655.9</ele>
        <time>2026-08-08T10:29:56.000Z</time>
      </trkpt>
      <trkpt lat="45.79335" lon="1.90763">
        <ele>656</ele>
        <time>2026-08-08T10:29:59.000Z</time>
      </trkpt>
      <trkpt lat="45.79334" lon="1.90763">
        <ele>656</ele>
        <time>2026-08-08T10:30:00.000Z</time>
      </trkpt>
      <trkpt lat="45.79328" lon="1.90766">
        <ele>656</ele>
        <time>2026-08-08T10:30:05.000Z</time>
      </trkpt>
      <trkpt lat="45.79326" lon="1.90769">
        <ele>656</ele>
        <time>2026-08-08T10:30:07.000Z</time>
      </trkpt>
      <trkpt lat="45.79325" lon="1.90772">
        <ele>656</ele>
        <time>2026-08-08T10:30:09.000Z</time>
      </trkpt>
      <trkpt lat="45.79323" lon="1.90776">
        <ele>656</ele>
        <time>2026-08-08T10:30:12.000Z</time>
      </trkpt>
      <trkpt lat="45.79323" lon="1.9078">
        <ele>656.1</ele>
        <time>2026-08-08T10:30:15.000Z</time>
      </trkpt>
      <trkpt lat="45.79322" lon="1.90794">
        <ele>656.3</ele>
        <time>2026-08-08T10:30:25.000Z</time>
      </trkpt>
      <trkpt lat="45.79321" lon="1.90805">
        <ele>656.5</ele>
        <time>2026-08-08T10:30:33.000Z</time>
      </trkpt>
      <trkpt lat="45.79321" lon="1.90808">
        <ele>656.6</ele>
        <time>2026-08-08T10:30:35.000Z</time>
      </trkpt>
      <trkpt lat="45.79321" lon="1.90827">
        <ele>656.9</ele>
        <time>2026-08-08T10:30:43.000Z</time>
      </trkpt>
      <trkpt lat="45.79319" lon="1.90851">
        <ele>657</ele>
        <time>2026-08-08T10:30:51.000Z</time>
      </trkpt>
      <trkpt lat="45.79314" lon="1.90885">
        <ele>657</ele>
        <time>2026-08-08T10:31:02.000Z</time>
      </trkpt>
      <trkpt lat="45.79311" lon="1.90897">
        <ele>657.2</ele>
        <time>2026-08-08T10:31:06.000Z</time>
      </trkpt>
      <trkpt lat="45.79308" lon="1.90911">
        <ele>657.7</ele>
        <time>2026-08-08T10:31:10.000Z</time>
      </trkpt>
      <trkpt lat="45.79308" lon="1.90914">
        <ele>657.8</ele>
        <time>2026-08-08T10:31:11.000Z</time>
      </trkpt>
      <trkpt lat="45.79301" lon="1.90935">
        <ele>657.9</ele>
        <time>2026-08-08T10:31:17.000Z</time>
      </trkpt>
      <trkpt lat="45.79296" lon="1.90949">
        <ele>658.1</ele>
        <time>2026-08-08T10:31:21.000Z</time>
      </trkpt>
      <trkpt lat="45.79292" lon="1.90974">
        <ele>658.5</ele>
        <time>2026-08-08T10:31:29.000Z</time>
      </trkpt>
      <trkpt lat="45.79291" lon="1.90977">
        <ele>658.6</ele>
        <time>2026-08-08T10:31:30.000Z</time>
      </trkpt>
      <trkpt lat="45.7929" lon="1.90984">
        <ele>658.7</ele>
        <time>2026-08-08T10:31:32.000Z</time>
      </trkpt>
      <trkpt lat="45.79289" lon="1.90987">
        <ele>658.7</ele>
        <time>2026-08-08T10:31:33.000Z</time>
      </trkpt>
      <trkpt lat="45.79289" lon="1.9099">
        <ele>658.8</ele>
        <time>2026-08-08T10:31:34.000Z</time>
      </trkpt>
      <trkpt lat="45.79286" lon="1.91004">
        <ele>659</ele>
        <time>2026-08-08T10:31:39.000Z</time>
      </trkpt>
      <trkpt lat="45.79281" lon="1.91024">
        <ele>659.1</ele>
        <time>2026-08-08T10:31:45.000Z</time>
      </trkpt>
      <trkpt lat="45.79271" lon="1.91044">
        <ele>659</ele>
        <time>2026-08-08T10:31:50.000Z</time>
      </trkpt>
      <trkpt lat="45.79253" lon="1.91065">
        <ele>659.3</ele>
        <time>2026-08-08T10:31:58.000Z</time>
      </trkpt>
      <trkpt lat="45.79233" lon="1.91087">
        <ele>659.9</ele>
        <time>2026-08-08T10:32:08.000Z</time>
      </trkpt>
      <trkpt lat="45.79221" lon="1.91098">
        <ele>660</ele>
        <time>2026-08-08T10:32:14.000Z</time>
      </trkpt>
      <trkpt lat="45.79204" lon="1.91111">
        <ele>660.6</ele>
        <time>2026-08-08T10:32:22.000Z</time>
      </trkpt>
      <trkpt lat="45.79189" lon="1.91127">
        <ele>661.1</ele>
        <time>2026-08-08T10:32:30.000Z</time>
      </trkpt>
      <trkpt lat="45.79178" lon="1.91138">
        <ele>661.6</ele>
        <time>2026-08-08T10:32:36.000Z</time>
      </trkpt>
      <trkpt lat="45.79167" lon="1.91138">
        <ele>662</ele>
        <time>2026-08-08T10:32:42.000Z</time>
      </trkpt>
      <trkpt lat="45.79158" lon="1.91121">
        <ele>661.9</ele>
        <time>2026-08-08T10:32:48.000Z</time>
      </trkpt>
      <trkpt lat="45.79142" lon="1.9109">
        <ele>661.1</ele>
        <time>2026-08-08T10:32:55.000Z</time>
      </trkpt>
      <trkpt lat="45.79123" lon="1.91067">
        <ele>659.8</ele>
        <time>2026-08-08T10:33:01.000Z</time>
      </trkpt>
      <trkpt lat="45.79113" lon="1.91063">
        <ele>659.5</ele>
        <time>2026-08-08T10:33:03.000Z</time>
      </trkpt>
      <trkpt lat="45.79098" lon="1.91062">
        <ele>659.6</ele>
        <time>2026-08-08T10:33:06.000Z</time>
      </trkpt>
      <trkpt lat="45.79081" lon="1.91064">
        <ele>660</ele>
        <time>2026-08-08T10:33:10.000Z</time>
      </trkpt>
      <trkpt lat="45.79072" lon="1.91063">
        <ele>660.2</ele>
        <time>2026-08-08T10:33:12.000Z</time>
      </trkpt>
      <trkpt lat="45.79067" lon="1.91061">
        <ele>660.2</ele>
        <time>2026-08-08T10:33:13.000Z</time>
      </trkpt>
      <trkpt lat="45.79059" lon="1.91055">
        <ele>659.9</ele>
        <time>2026-08-08T10:33:16.000Z</time>
      </trkpt>
      <trkpt lat="45.79039" lon="1.91038">
        <ele>659.6</ele>
        <time>2026-08-08T10:33:23.000Z</time>
      </trkpt>
      <trkpt lat="45.79022" lon="1.9102">
        <ele>659.4</ele>
        <time>2026-08-08T10:33:29.000Z</time>
      </trkpt>
      <trkpt lat="45.79012" lon="1.91016">
        <ele>659.3</ele>
        <time>2026-08-08T10:33:32.000Z</time>
      </trkpt>
      <trkpt lat="45.79006" lon="1.91014">
        <ele>659.3</ele>
        <time>2026-08-08T10:33:34.000Z</time>
      </trkpt>
      <trkpt lat="45.78989" lon="1.91009">
        <ele>659.2</ele>
        <time>2026-08-08T10:33:39.000Z</time>
      </trkpt>
      <trkpt lat="45.78962" lon="1.91006">
        <ele>659.9</ele>
        <time>2026-08-08T10:33:45.000Z</time>
      </trkpt>
      <trkpt lat="45.78936" lon="1.90994">
        <ele>659.3</ele>
        <time>2026-08-08T10:33:51.000Z</time>
      </trkpt>
      <trkpt lat="45.7892" lon="1.90973">
        <ele>658.6</ele>
        <time>2026-08-08T10:33:55.000Z</time>
      </trkpt>
      <trkpt lat="45.78909" lon="1.9094">
        <ele>656.3</ele>
        <time>2026-08-08T10:34:00.000Z</time>
      </trkpt>
      <trkpt lat="45.78908" lon="1.90933">
        <ele>655.7</ele>
        <time>2026-08-08T10:34:01.000Z</time>
      </trkpt>
      <trkpt lat="45.78902" lon="1.9091">
        <ele>655</ele>
        <time>2026-08-08T10:34:05.000Z</time>
      </trkpt>
      <trkpt lat="45.78898" lon="1.90898">
        <ele>656.2</ele>
        <time>2026-08-08T10:34:07.000Z</time>
      </trkpt>
      <trkpt lat="45.78887" lon="1.9086">
        <ele>658.2</ele>
        <time>2026-08-08T10:34:14.000Z</time>
      </trkpt>
      <trkpt lat="45.78878" lon="1.90831">
        <ele>658.4</ele>
        <time>2026-08-08T10:34:20.000Z</time>
      </trkpt>
      <trkpt lat="45.78873" lon="1.90805">
        <ele>661.2</ele>
        <time>2026-08-08T10:34:27.000Z</time>
      </trkpt>
      <trkpt lat="45.7887" lon="1.90794">
        <ele>661.8</ele>
        <time>2026-08-08T10:34:31.000Z</time>
      </trkpt>
      <trkpt lat="45.7887" lon="1.90792">
        <ele>661.9</ele>
        <time>2026-08-08T10:34:32.000Z</time>
      </trkpt>
      <trkpt lat="45.78864" lon="1.90777">
        <ele>662.8</ele>
        <time>2026-08-08T10:34:38.000Z</time>
      </trkpt>
      <trkpt lat="45.78863" lon="1.90765">
        <ele>662.9</ele>
        <time>2026-08-08T10:34:42.000Z</time>
      </trkpt>
      <trkpt lat="45.78861" lon="1.9076">
        <ele>663</ele>
        <time>2026-08-08T10:34:44.000Z</time>
      </trkpt>
      <trkpt lat="45.78856" lon="1.90743">
        <ele>664.4</ele>
        <time>2026-08-08T10:34:50.000Z</time>
      </trkpt>
      <trkpt lat="45.78855" lon="1.90737">
        <ele>665</ele>
        <time>2026-08-08T10:34:52.000Z</time>
      </trkpt>
      <trkpt lat="45.78851" lon="1.90718">
        <ele>666.5</ele>
        <time>2026-08-08T10:34:59.000Z</time>
      </trkpt>
      <trkpt lat="45.7885" lon="1.90715">
        <ele>666.7</ele>
        <time>2026-08-08T10:35:00.000Z</time>
      </trkpt>
      <trkpt lat="45.78845" lon="1.907">
        <ele>667.6</ele>
        <time>2026-08-08T10:35:06.000Z</time>
      </trkpt>
      <trkpt lat="45.78842" lon="1.90684">
        <ele>668.1</ele>
        <time>2026-08-08T10:35:13.000Z</time>
      </trkpt>
      <trkpt lat="45.78837" lon="1.90664">
        <ele>668.9</ele>
        <time>2026-08-08T10:35:21.000Z</time>
      </trkpt>
      <trkpt lat="45.78831" lon="1.90647">
        <ele>669.7</ele>
        <time>2026-08-08T10:35:28.000Z</time>
      </trkpt>
      <trkpt lat="45.7883" lon="1.90645">
        <ele>669.8</ele>
        <time>2026-08-08T10:35:29.000Z</time>
      </trkpt>
      <trkpt lat="45.78825" lon="1.90632">
        <ele>670.2</ele>
        <time>2026-08-08T10:35:35.000Z</time>
      </trkpt>
      <trkpt lat="45.78824" lon="1.9063">
        <ele>670.2</ele>
        <time>2026-08-08T10:35:36.000Z</time>
      </trkpt>
      <trkpt lat="45.78817" lon="1.90621">
        <ele>670.5</ele>
        <time>2026-08-08T10:35:42.000Z</time>
      </trkpt>
      <trkpt lat="45.78812" lon="1.90615">
        <ele>670.7</ele>
        <time>2026-08-08T10:35:46.000Z</time>
      </trkpt>
      <trkpt lat="45.78807" lon="1.90611">
        <ele>670.8</ele>
        <time>2026-08-08T10:35:51.000Z</time>
      </trkpt>
      <trkpt lat="45.78799" lon="1.90607">
        <ele>671.3</ele>
        <time>2026-08-08T10:35:57.000Z</time>
      </trkpt>
      <trkpt lat="45.78799" lon="1.90607">
        <ele>671.4</ele>
        <time>2026-08-08T10:35:58.000Z</time>
      </trkpt>
      <trkpt lat="45.78796" lon="1.90606">
        <ele>671.6</ele>
        <time>2026-08-08T10:36:01.000Z</time>
      </trkpt>
      <trkpt lat="45.78789" lon="1.90606">
        <ele>672.4</ele>
        <time>2026-08-08T10:36:06.000Z</time>
      </trkpt>
      <trkpt lat="45.78787" lon="1.90606">
        <ele>672.5</ele>
        <time>2026-08-08T10:36:07.000Z</time>
      </trkpt>
      <trkpt lat="45.78785" lon="1.90606">
        <ele>672.7</ele>
        <time>2026-08-08T10:36:09.000Z</time>
      </trkpt>
      <trkpt lat="45.78781" lon="1.90607">
        <ele>673.2</ele>
        <time>2026-08-08T10:36:12.000Z</time>
      </trkpt>
      <trkpt lat="45.78777" lon="1.90606">
        <ele>673.5</ele>
        <time>2026-08-08T10:36:15.000Z</time>
      </trkpt>
      <trkpt lat="45.78775" lon="1.90604">
        <ele>673.5</ele>
        <time>2026-08-08T10:36:17.000Z</time>
      </trkpt>
      <trkpt lat="45.78772" lon="1.90604">
        <ele>673.7</ele>
        <time>2026-08-08T10:36:19.000Z</time>
      </trkpt>
      <trkpt lat="45.78763" lon="1.90605">
        <ele>674.4</ele>
        <time>2026-08-08T10:36:25.000Z</time>
      </trkpt>
      <trkpt lat="45.78762" lon="1.90604">
        <ele>674.4</ele>
        <time>2026-08-08T10:36:26.000Z</time>
      </trkpt>
      <trkpt lat="45.78756" lon="1.90604">
        <ele>674.7</ele>
        <time>2026-08-08T10:36:29.000Z</time>
      </trkpt>
      <trkpt lat="45.7875" lon="1.90604">
        <ele>675.2</ele>
        <time>2026-08-08T10:36:33.000Z</time>
      </trkpt>
      <trkpt lat="45.78747" lon="1.90603">
        <ele>675.4</ele>
        <time>2026-08-08T10:36:35.000Z</time>
      </trkpt>
      <trkpt lat="45.78737" lon="1.90603">
        <ele>676.4</ele>
        <time>2026-08-08T10:36:40.000Z</time>
      </trkpt>
      <trkpt lat="45.78726" lon="1.90602">
        <ele>677.3</ele>
        <time>2026-08-08T10:36:46.000Z</time>
      </trkpt>
      <trkpt lat="45.78716" lon="1.906">
        <ele>677.9</ele>
        <time>2026-08-08T10:36:53.000Z</time>
      </trkpt>
      <trkpt lat="45.78711" lon="1.90601">
        <ele>678.3</ele>
        <time>2026-08-08T10:36:56.000Z</time>
      </trkpt>
      <trkpt lat="45.78709" lon="1.90601">
        <ele>678.5</ele>
        <time>2026-08-08T10:36:57.000Z</time>
      </trkpt>
      <trkpt lat="45.78702" lon="1.90601">
        <ele>678.9</ele>
        <time>2026-08-08T10:37:02.000Z</time>
      </trkpt>
      <trkpt lat="45.78701" lon="1.90601">
        <ele>679.1</ele>
        <time>2026-08-08T10:37:04.000Z</time>
      </trkpt>
      <trkpt lat="45.787" lon="1.90601">
        <ele>679.2</ele>
        <time>2026-08-08T10:37:05.000Z</time>
      </trkpt>
      <trkpt lat="45.78699" lon="1.90601">
        <ele>679.3</ele>
        <time>2026-08-08T10:37:07.000Z</time>
      </trkpt>
      <trkpt lat="45.78693" lon="1.906">
        <ele>679.5</ele>
        <time>2026-08-08T10:37:13.000Z</time>
      </trkpt>
      <trkpt lat="45.78691" lon="1.906">
        <ele>679.5</ele>
        <time>2026-08-08T10:37:14.000Z</time>
      </trkpt>
      <trkpt lat="45.78685" lon="1.906">
        <ele>679.9</ele>
        <time>2026-08-08T10:37:19.000Z</time>
      </trkpt>
      <trkpt lat="45.78683" lon="1.906">
        <ele>680.1</ele>
        <time>2026-08-08T10:37:20.000Z</time>
      </trkpt>
      <trkpt lat="45.78681" lon="1.906">
        <ele>680.1</ele>
        <time>2026-08-08T10:37:21.000Z</time>
      </trkpt>
      <trkpt lat="45.7868" lon="1.906">
        <ele>680.1</ele>
        <time>2026-08-08T10:37:22.000Z</time>
      </trkpt>
      <trkpt lat="45.78672" lon="1.90599">
        <ele>680.5</ele>
        <time>2026-08-08T10:37:27.000Z</time>
      </trkpt>
      <trkpt lat="45.78668" lon="1.906">
        <ele>681</ele>
        <time>2026-08-08T10:37:30.000Z</time>
      </trkpt>
      <trkpt lat="45.78663" lon="1.90598">
        <ele>681</ele>
        <time>2026-08-08T10:37:33.000Z</time>
      </trkpt>
      <trkpt lat="45.7865" lon="1.90597">
        <ele>681.9</ele>
        <time>2026-08-08T10:37:40.000Z</time>
      </trkpt>
      <trkpt lat="45.78648" lon="1.90597">
        <ele>682.1</ele>
        <time>2026-08-08T10:37:41.000Z</time>
      </trkpt>
      <trkpt lat="45.78645" lon="1.90599">
        <ele>682.7</ele>
        <time>2026-08-08T10:37:44.000Z</time>
      </trkpt>
      <trkpt lat="45.7864" lon="1.90599">
        <ele>683.2</ele>
        <time>2026-08-08T10:37:47.000Z</time>
      </trkpt>
      <trkpt lat="45.78637" lon="1.90597">
        <ele>683.1</ele>
        <time>2026-08-08T10:37:49.000Z</time>
      </trkpt>
      <trkpt lat="45.78635" lon="1.90596">
        <ele>683</ele>
        <time>2026-08-08T10:37:51.000Z</time>
      </trkpt>
      <trkpt lat="45.78632" lon="1.90595">
        <ele>683</ele>
        <time>2026-08-08T10:37:53.000Z</time>
      </trkpt>
      <trkpt lat="45.7863" lon="1.90592">
        <ele>682.9</ele>
        <time>2026-08-08T10:37:55.000Z</time>
      </trkpt>
      <trkpt lat="45.78625" lon="1.90588">
        <ele>682.6</ele>
        <time>2026-08-08T10:37:59.000Z</time>
      </trkpt>
      <trkpt lat="45.78623" lon="1.90587">
        <ele>682.6</ele>
        <time>2026-08-08T10:38:00.000Z</time>
      </trkpt>
      <trkpt lat="45.78623" lon="1.90586">
        <ele>682.5</ele>
        <time>2026-08-08T10:38:01.000Z</time>
      </trkpt>
      <trkpt lat="45.78619" lon="1.90584">
        <ele>682.5</ele>
        <time>2026-08-08T10:38:04.000Z</time>
      </trkpt>
      <trkpt lat="45.78616" lon="1.90584">
        <ele>682.7</ele>
        <time>2026-08-08T10:38:06.000Z</time>
      </trkpt>
      <trkpt lat="45.78608" lon="1.90577">
        <ele>682.2</ele>
        <time>2026-08-08T10:38:12.000Z</time>
      </trkpt>
      <trkpt lat="45.78606" lon="1.90574">
        <ele>682</ele>
        <time>2026-08-08T10:38:13.000Z</time>
      </trkpt>
      <trkpt lat="45.78588" lon="1.9056">
        <ele>680.7</ele>
        <time>2026-08-08T10:38:17.000Z</time>
      </trkpt>
      <trkpt lat="45.7858" lon="1.90551">
        <ele>680.2</ele>
        <time>2026-08-08T10:38:19.000Z</time>
      </trkpt>
      <trkpt lat="45.78568" lon="1.90536">
        <ele>680</ele>
        <time>2026-08-08T10:38:21.000Z</time>
      </trkpt>
      <trkpt lat="45.78561" lon="1.9052">
        <ele>678.7</ele>
        <time>2026-08-08T10:38:23.000Z</time>
      </trkpt>
      <trkpt lat="45.78557" lon="1.9051">
        <ele>677.9</ele>
        <time>2026-08-08T10:38:24.000Z</time>
      </trkpt>
      <trkpt lat="45.78552" lon="1.90496">
        <ele>676.9</ele>
        <time>2026-08-08T10:38:25.000Z</time>
      </trkpt>
      <trkpt lat="45.78549" lon="1.90484">
        <ele>676</ele>
        <time>2026-08-08T10:38:26.000Z</time>
      </trkpt>
      <trkpt lat="45.78545" lon="1.90473">
        <ele>675.2</ele>
        <time>2026-08-08T10:38:27.000Z</time>
      </trkpt>
      <trkpt lat="45.78537" lon="1.9045">
        <ele>673.9</ele>
        <time>2026-08-08T10:38:29.000Z</time>
      </trkpt>
      <trkpt lat="45.78533" lon="1.90437">
        <ele>672.8</ele>
        <time>2026-08-08T10:38:30.000Z</time>
      </trkpt>
      <trkpt lat="45.78519" lon="1.90398">
        <ele>670.4</ele>
        <time>2026-08-08T10:38:33.000Z</time>
      </trkpt>
      <trkpt lat="45.78513" lon="1.90386">
        <ele>669.8</ele>
        <time>2026-08-08T10:38:34.000Z</time>
      </trkpt>
      <trkpt lat="45.78506" lon="1.90375">
        <ele>669.6</ele>
        <time>2026-08-08T10:38:35.000Z</time>
      </trkpt>
      <trkpt lat="45.78499" lon="1.90366">
        <ele>669.4</ele>
        <time>2026-08-08T10:38:36.000Z</time>
      </trkpt>
      <trkpt lat="45.78491" lon="1.90358">
        <ele>669.3</ele>
        <time>2026-08-08T10:38:37.000Z</time>
      </trkpt>
      <trkpt lat="45.78484" lon="1.90352">
        <ele>669.1</ele>
        <time>2026-08-08T10:38:38.000Z</time>
      </trkpt>
      <trkpt lat="45.78468" lon="1.90349">
        <ele>669.9</ele>
        <time>2026-08-08T10:38:40.000Z</time>
      </trkpt>
      <trkpt lat="45.78449" lon="1.90349">
        <ele>670.9</ele>
        <time>2026-08-08T10:38:43.000Z</time>
      </trkpt>
      <trkpt lat="45.78444" lon="1.90348">
        <ele>671.2</ele>
        <time>2026-08-08T10:38:44.000Z</time>
      </trkpt>
      <trkpt lat="45.78439" lon="1.90349">
        <ele>671.4</ele>
        <time>2026-08-08T10:38:45.000Z</time>
      </trkpt>
      <trkpt lat="45.78426" lon="1.90348">
        <ele>671.7</ele>
        <time>2026-08-08T10:38:48.000Z</time>
      </trkpt>
      <trkpt lat="45.78422" lon="1.90347">
        <ele>671.8</ele>
        <time>2026-08-08T10:38:49.000Z</time>
      </trkpt>
      <trkpt lat="45.78413" lon="1.90342">
        <ele>672.1</ele>
        <time>2026-08-08T10:38:51.000Z</time>
      </trkpt>
      <trkpt lat="45.7841" lon="1.90339">
        <ele>672.4</ele>
        <time>2026-08-08T10:38:52.000Z</time>
      </trkpt>
      <trkpt lat="45.78396" lon="1.90323">
        <ele>673.3</ele>
        <time>2026-08-08T10:38:57.000Z</time>
      </trkpt>
      <trkpt lat="45.78388" lon="1.90311">
        <ele>673.6</ele>
        <time>2026-08-08T10:39:01.000Z</time>
      </trkpt>
      <trkpt lat="45.78383" lon="1.903">
        <ele>674.2</ele>
        <time>2026-08-08T10:39:04.000Z</time>
      </trkpt>
      <trkpt lat="45.78383" lon="1.90296">
        <ele>674.1</ele>
        <time>2026-08-08T10:39:05.000Z</time>
      </trkpt>
      <trkpt lat="45.78387" lon="1.90267">
        <ele>672.8</ele>
        <time>2026-08-08T10:39:10.000Z</time>
      </trkpt>
      <trkpt lat="45.78391" lon="1.90257">
        <ele>672.4</ele>
        <time>2026-08-08T10:39:12.000Z</time>
      </trkpt>
      <trkpt lat="45.78402" lon="1.90236">
        <ele>670.9</ele>
        <time>2026-08-08T10:39:15.000Z</time>
      </trkpt>
      <trkpt lat="45.78428" lon="1.9019">
        <ele>669.3</ele>
        <time>2026-08-08T10:39:21.000Z</time>
      </trkpt>
      <trkpt lat="45.78436" lon="1.90177">
        <ele>669.3</ele>
        <time>2026-08-08T10:39:23.000Z</time>
      </trkpt>
      <trkpt lat="45.7844" lon="1.9017">
        <ele>669.2</ele>
        <time>2026-08-08T10:39:24.000Z</time>
      </trkpt>
      <trkpt lat="45.78445" lon="1.90163">
        <ele>669.1</ele>
        <time>2026-08-08T10:39:25.000Z</time>
      </trkpt>
      <trkpt lat="45.78471" lon="1.90137">
        <ele>670.1</ele>
        <time>2026-08-08T10:39:30.000Z</time>
      </trkpt>
      <trkpt lat="45.78483" lon="1.90131">
        <ele>670.3</ele>
        <time>2026-08-08T10:39:33.000Z</time>
      </trkpt>
      <trkpt lat="45.7849" lon="1.90129">
        <ele>670.4</ele>
        <time>2026-08-08T10:39:35.000Z</time>
      </trkpt>
      <trkpt lat="45.78511" lon="1.90132">
        <ele>670.7</ele>
        <time>2026-08-08T10:39:41.000Z</time>
      </trkpt>
      <trkpt lat="45.78519" lon="1.90132">
        <ele>670.9</ele>
        <time>2026-08-08T10:39:43.000Z</time>
      </trkpt>
      <trkpt lat="45.78534" lon="1.90131">
        <ele>671.5</ele>
        <time>2026-08-08T10:39:48.000Z</time>
      </trkpt>
      <trkpt lat="45.78552" lon="1.90129">
        <ele>672.2</ele>
        <time>2026-08-08T10:39:54.000Z</time>
      </trkpt>
      <trkpt lat="45.78575" lon="1.90129">
        <ele>672.1</ele>
        <time>2026-08-08T10:40:01.000Z</time>
      </trkpt>
      <trkpt lat="45.78577" lon="1.9013">
        <ele>672.1</ele>
        <time>2026-08-08T10:40:02.000Z</time>
      </trkpt>
      <trkpt lat="45.78597" lon="1.90132">
        <ele>671.1</ele>
        <time>2026-08-08T10:40:08.000Z</time>
      </trkpt>
      <trkpt lat="45.78618" lon="1.90133">
        <ele>670</ele>
        <time>2026-08-08T10:40:13.000Z</time>
      </trkpt>
      <trkpt lat="45.78636" lon="1.90132">
        <ele>669.6</ele>
        <time>2026-08-08T10:40:17.000Z</time>
      </trkpt>
      <trkpt lat="45.78641" lon="1.90131">
        <ele>669.5</ele>
        <time>2026-08-08T10:40:18.000Z</time>
      </trkpt>
      <trkpt lat="45.78649" lon="1.90129">
        <ele>669.4</ele>
        <time>2026-08-08T10:40:20.000Z</time>
      </trkpt>
      <trkpt lat="45.78659" lon="1.90126">
        <ele>669.5</ele>
        <time>2026-08-08T10:40:23.000Z</time>
      </trkpt>
      <trkpt lat="45.78662" lon="1.90125">
        <ele>669.6</ele>
        <time>2026-08-08T10:40:24.000Z</time>
      </trkpt>
      <trkpt lat="45.78678" lon="1.90119">
        <ele>669.7</ele>
        <time>2026-08-08T10:40:30.000Z</time>
      </trkpt>
      <trkpt lat="45.78689" lon="1.90114">
        <ele>670.3</ele>
        <time>2026-08-08T10:40:35.000Z</time>
      </trkpt>
      <trkpt lat="45.78695" lon="1.90107">
        <ele>671.4</ele>
        <time>2026-08-08T10:40:40.000Z</time>
      </trkpt>
      <trkpt lat="45.787" lon="1.90103">
        <ele>670.9</ele>
        <time>2026-08-08T10:40:43.000Z</time>
      </trkpt>
      <trkpt lat="45.78712" lon="1.90088">
        <ele>670.9</ele>
        <time>2026-08-08T10:40:49.000Z</time>
      </trkpt>
      <trkpt lat="45.78728" lon="1.90063">
        <ele>670.6</ele>
        <time>2026-08-08T10:40:55.000Z</time>
      </trkpt>
      <trkpt lat="45.78751" lon="1.90021">
        <ele>669.7</ele>
        <time>2026-08-08T10:41:02.000Z</time>
      </trkpt>
      <trkpt lat="45.78763" lon="1.89999">
        <ele>669.3</ele>
        <time>2026-08-08T10:41:05.000Z</time>
      </trkpt>
      <trkpt lat="45.78767" lon="1.89993">
        <ele>669.2</ele>
        <time>2026-08-08T10:41:06.000Z</time>
      </trkpt>
      <trkpt lat="45.78771" lon="1.89987">
        <ele>669</ele>
        <time>2026-08-08T10:41:07.000Z</time>
      </trkpt>
      <trkpt lat="45.78781" lon="1.89974">
        <ele>668.4</ele>
        <time>2026-08-08T10:41:09.000Z</time>
      </trkpt>
      <trkpt lat="45.78791" lon="1.89961">
        <ele>668.5</ele>
        <time>2026-08-08T10:41:11.000Z</time>
      </trkpt>
      <trkpt lat="45.78798" lon="1.8995">
        <ele>669.1</ele>
        <time>2026-08-08T10:41:13.000Z</time>
      </trkpt>
      <trkpt lat="45.78802" lon="1.89945">
        <ele>669.4</ele>
        <time>2026-08-08T10:41:14.000Z</time>
      </trkpt>
      <trkpt lat="45.78819" lon="1.89924">
        <ele>667.9</ele>
        <time>2026-08-08T10:41:19.000Z</time>
      </trkpt>
      <trkpt lat="45.78845" lon="1.89891">
        <ele>668.1</ele>
        <time>2026-08-08T10:41:27.000Z</time>
      </trkpt>
      <trkpt lat="45.78858" lon="1.89872">
        <ele>667.7</ele>
        <time>2026-08-08T10:41:31.000Z</time>
      </trkpt>
      <trkpt lat="45.78864" lon="1.89861">
        <ele>667.7</ele>
        <time>2026-08-08T10:41:33.000Z</time>
      </trkpt>
      <trkpt lat="45.78878" lon="1.89824">
        <ele>669.3</ele>
        <time>2026-08-08T10:41:40.000Z</time>
      </trkpt>
      <trkpt lat="45.7888" lon="1.89819">
        <ele>669.3</ele>
        <time>2026-08-08T10:41:41.000Z</time>
      </trkpt>
      <trkpt lat="45.78886" lon="1.89796">
        <ele>669.2</ele>
        <time>2026-08-08T10:41:46.000Z</time>
      </trkpt>
      <trkpt lat="45.78888" lon="1.89792">
        <ele>669.2</ele>
        <time>2026-08-08T10:41:47.000Z</time>
      </trkpt>
      <trkpt lat="45.78893" lon="1.89769">
        <ele>669.9</ele>
        <time>2026-08-08T10:41:53.000Z</time>
      </trkpt>
      <trkpt lat="45.78896" lon="1.89735">
        <ele>669.8</ele>
        <time>2026-08-08T10:42:01.000Z</time>
      </trkpt>
      <trkpt lat="45.78897" lon="1.8972">
        <ele>669.4</ele>
        <time>2026-08-08T10:42:06.000Z</time>
      </trkpt>
      <trkpt lat="45.78897" lon="1.89718">
        <ele>669.4</ele>
        <time>2026-08-08T10:42:07.000Z</time>
      </trkpt>
      <trkpt lat="45.78896" lon="1.89714">
        <ele>669.4</ele>
        <time>2026-08-08T10:42:10.000Z</time>
      </trkpt>
      <trkpt lat="45.78896" lon="1.89712">
        <ele>669.4</ele>
        <time>2026-08-08T10:42:11.000Z</time>
      </trkpt>
      <trkpt lat="45.78896" lon="1.89696">
        <ele>669.2</ele>
        <time>2026-08-08T10:42:16.000Z</time>
      </trkpt>
      <trkpt lat="45.78897" lon="1.89672">
        <ele>667.5</ele>
        <time>2026-08-08T10:42:22.000Z</time>
      </trkpt>
      <trkpt lat="45.78888" lon="1.89637">
        <ele>668.1</ele>
        <time>2026-08-08T10:42:29.000Z</time>
      </trkpt>
      <trkpt lat="45.78887" lon="1.89626">
        <ele>667.7</ele>
        <time>2026-08-08T10:42:31.000Z</time>
      </trkpt>
      <trkpt lat="45.78886" lon="1.8961">
        <ele>667.2</ele>
        <time>2026-08-08T10:42:35.000Z</time>
      </trkpt>
      <trkpt lat="45.78885" lon="1.89599">
        <ele>666.9</ele>
        <time>2026-08-08T10:42:38.000Z</time>
      </trkpt>
      <trkpt lat="45.78887" lon="1.89594">
        <ele>666.6</ele>
        <time>2026-08-08T10:42:41.000Z</time>
      </trkpt>
      <trkpt lat="45.78894" lon="1.89589">
        <ele>665.9</ele>
        <time>2026-08-08T10:42:47.000Z</time>
      </trkpt>
      <trkpt lat="45.78908" lon="1.89587">
        <ele>665.2</ele>
        <time>2026-08-08T10:42:55.000Z</time>
      </trkpt>
      <trkpt lat="45.78913" lon="1.89586">
        <ele>665</ele>
        <time>2026-08-08T10:42:57.000Z</time>
      </trkpt>
      <trkpt lat="45.78931" lon="1.89581">
        <ele>664.1</ele>
        <time>2026-08-08T10:43:05.000Z</time>
      </trkpt>
      <trkpt lat="45.78935" lon="1.89579">
        <ele>664</ele>
        <time>2026-08-08T10:43:07.000Z</time>
      </trkpt>
      <trkpt lat="45.78937" lon="1.89577">
        <ele>664</ele>
        <time>2026-08-08T10:43:08.000Z</time>
      </trkpt>
      <trkpt lat="45.78945" lon="1.89573">
        <ele>663.6</ele>
        <time>2026-08-08T10:43:11.000Z</time>
      </trkpt>
      <trkpt lat="45.78955" lon="1.89572">
        <ele>662.4</ele>
        <time>2026-08-08T10:43:14.000Z</time>
      </trkpt>
      <trkpt lat="45.78957" lon="1.89574">
        <ele>661.9</ele>
        <time>2026-08-08T10:43:15.000Z</time>
      </trkpt>
      <trkpt lat="45.78959" lon="1.89576">
        <ele>661.5</ele>
        <time>2026-08-08T10:43:16.000Z</time>
      </trkpt>
      <trkpt lat="45.78962" lon="1.89591">
        <ele>660</ele>
        <time>2026-08-08T10:43:20.000Z</time>
      </trkpt>
      <trkpt lat="45.78962" lon="1.89598">
        <ele>659.3</ele>
        <time>2026-08-08T10:43:22.000Z</time>
      </trkpt>
      <trkpt lat="45.78962" lon="1.89601">
        <ele>659</ele>
        <time>2026-08-08T10:43:23.000Z</time>
      </trkpt>
      <trkpt lat="45.78962" lon="1.89614">
        <ele>658.1</ele>
        <time>2026-08-08T10:43:26.000Z</time>
      </trkpt>
      <trkpt lat="45.78962" lon="1.89629">
        <ele>657.8</ele>
        <time>2026-08-08T10:43:29.000Z</time>
      </trkpt>
      <trkpt lat="45.78961" lon="1.89645">
        <ele>657.7</ele>
        <time>2026-08-08T10:43:32.000Z</time>
      </trkpt>
      <trkpt lat="45.78962" lon="1.89659">
        <ele>657.7</ele>
        <time>2026-08-08T10:43:35.000Z</time>
      </trkpt>
      <trkpt lat="45.78964" lon="1.89682">
        <ele>658.2</ele>
        <time>2026-08-08T10:43:40.000Z</time>
      </trkpt>
      <trkpt lat="45.78964" lon="1.89686">
        <ele>658.3</ele>
        <time>2026-08-08T10:43:41.000Z</time>
      </trkpt>
      <trkpt lat="45.78967" lon="1.89702">
        <ele>658.4</ele>
        <time>2026-08-08T10:43:46.000Z</time>
      </trkpt>
      <trkpt lat="45.78968" lon="1.89704">
        <ele>658.3</ele>
        <time>2026-08-08T10:43:47.000Z</time>
      </trkpt>
      <trkpt lat="45.78972" lon="1.89714">
        <ele>657.8</ele>
        <time>2026-08-08T10:43:51.000Z</time>
      </trkpt>
      <trkpt lat="45.78973" lon="1.89725">
        <ele>657.9</ele>
        <time>2026-08-08T10:43:55.000Z</time>
      </trkpt>
      <trkpt lat="45.7897" lon="1.8973">
        <ele>658.6</ele>
        <time>2026-08-08T10:43:57.000Z</time>
      </trkpt>
      <trkpt lat="45.78967" lon="1.89737">
        <ele>659.2</ele>
        <time>2026-08-08T10:44:00.000Z</time>
      </trkpt>
      <trkpt lat="45.78967" lon="1.8974">
        <ele>659.1</ele>
        <time>2026-08-08T10:44:01.000Z</time>
      </trkpt>
      <trkpt lat="45.78967" lon="1.89743">
        <ele>659.1</ele>
        <time>2026-08-08T10:44:03.000Z</time>
      </trkpt>
      <trkpt lat="45.78966" lon="1.89745">
        <ele>659.3</ele>
        <time>2026-08-08T10:44:07.000Z</time>
      </trkpt>
      <trkpt lat="45.78974" lon="1.89715">
        <ele>657.5</ele>
        <time>2026-08-08T11:09:53.000Z</time>
      </trkpt>
      <trkpt lat="45.78972" lon="1.89703">
        <ele>657.4</ele>
        <time>2026-08-08T11:09:59.000Z</time>
      </trkpt>
      <trkpt lat="45.78969" lon="1.89686">
        <ele>657.3</ele>
        <time>2026-08-08T11:10:04.000Z</time>
      </trkpt>
      <trkpt lat="45.78966" lon="1.89662">
        <ele>657</ele>
        <time>2026-08-08T11:10:10.000Z</time>
      </trkpt>
      <trkpt lat="45.78965" lon="1.89648">
        <ele>657.2</ele>
        <time>2026-08-08T11:10:15.000Z</time>
      </trkpt>
      <trkpt lat="45.78964" lon="1.89626">
        <ele>657.5</ele>
        <time>2026-08-08T11:10:22.000Z</time>
      </trkpt>
      <trkpt lat="45.78969" lon="1.89608">
        <ele>657</ele>
        <time>2026-08-08T11:10:28.000Z</time>
      </trkpt>
      <trkpt lat="45.78966" lon="1.89605">
        <ele>657.8</ele>
        <time>2026-08-08T11:10:30.000Z</time>
      </trkpt>
      <trkpt lat="45.78966" lon="1.89592">
        <ele>659.2</ele>
        <time>2026-08-08T11:10:36.000Z</time>
      </trkpt>
      <trkpt lat="45.78965" lon="1.8959">
        <ele>659.4</ele>
        <time>2026-08-08T11:10:37.000Z</time>
      </trkpt>
      <trkpt lat="45.78964" lon="1.89574">
        <ele>660.9</ele>
        <time>2026-08-08T11:10:44.000Z</time>
      </trkpt>
      <trkpt lat="45.78963" lon="1.89568">
        <ele>661.4</ele>
        <time>2026-08-08T11:10:48.000Z</time>
      </trkpt>
      <trkpt lat="45.78964" lon="1.8956">
        <ele>661.9</ele>
        <time>2026-08-08T11:10:51.000Z</time>
      </trkpt>
      <trkpt lat="45.78968" lon="1.89545">
        <ele>661.6</ele>
        <time>2026-08-08T11:10:58.000Z</time>
      </trkpt>
      <trkpt lat="45.78968" lon="1.89545">
        <ele>661.6</ele>
        <time>2026-08-08T11:10:59.000Z</time>
      </trkpt>
      <trkpt lat="45.78968" lon="1.89545">
        <ele>661.6</ele>
        <time>2026-08-08T11:11:00.000Z</time>
      </trkpt>
      <trkpt lat="45.78876" lon="1.89583">
        <ele>667</ele>
        <time>2026-08-08T13:16:40.000Z</time>
      </trkpt>
      <trkpt lat="45.78874" lon="1.89582">
        <ele>667.1</ele>
        <time>2026-08-08T13:16:41.000Z</time>
      </trkpt>
      <trkpt lat="45.78873" lon="1.89581">
        <ele>667.2</ele>
        <time>2026-08-08T13:16:42.000Z</time>
      </trkpt>
      <trkpt lat="45.78864" lon="1.8958">
        <ele>667.8</ele>
        <time>2026-08-08T13:16:47.000Z</time>
      </trkpt>
      <trkpt lat="45.7885" lon="1.89582">
        <ele>668.4</ele>
        <time>2026-08-08T13:16:56.000Z</time>
      </trkpt>
      <trkpt lat="45.7884" lon="1.89586">
        <ele>668.9</ele>
        <time>2026-08-08T13:17:02.000Z</time>
      </trkpt>
      <trkpt lat="45.78838" lon="1.89586">
        <ele>669</ele>
        <time>2026-08-08T13:17:03.000Z</time>
      </trkpt>
      <trkpt lat="45.7882" lon="1.89584">
        <ele>669</ele>
        <time>2026-08-08T13:17:12.000Z</time>
      </trkpt>
      <trkpt lat="45.78805" lon="1.89573">
        <ele>668.6</ele>
        <time>2026-08-08T13:17:17.000Z</time>
      </trkpt>
      <trkpt lat="45.78798" lon="1.89566">
        <ele>668.4</ele>
        <time>2026-08-08T13:17:19.000Z</time>
      </trkpt>
      <trkpt lat="45.7879" lon="1.89551">
        <ele>667.7</ele>
        <time>2026-08-08T13:17:22.000Z</time>
      </trkpt>
      <trkpt lat="45.78783" lon="1.89531">
        <ele>666.4</ele>
        <time>2026-08-08T13:17:25.000Z</time>
      </trkpt>
      <trkpt lat="45.7878" lon="1.89517">
        <ele>665.7</ele>
        <time>2026-08-08T13:17:27.000Z</time>
      </trkpt>
      <trkpt lat="45.78776" lon="1.89494">
        <ele>664.7</ele>
        <time>2026-08-08T13:17:30.000Z</time>
      </trkpt>
      <trkpt lat="45.78775" lon="1.89487">
        <ele>664.4</ele>
        <time>2026-08-08T13:17:31.000Z</time>
      </trkpt>
      <trkpt lat="45.78775" lon="1.89479">
        <ele>664.1</ele>
        <time>2026-08-08T13:17:32.000Z</time>
      </trkpt>
      <trkpt lat="45.78775" lon="1.8947">
        <ele>663.9</ele>
        <time>2026-08-08T13:17:33.000Z</time>
      </trkpt>
      <trkpt lat="45.78776" lon="1.89454">
        <ele>663.9</ele>
        <time>2026-08-08T13:17:35.000Z</time>
      </trkpt>
      <trkpt lat="45.78778" lon="1.89446">
        <ele>664</ele>
        <time>2026-08-08T13:17:36.000Z</time>
      </trkpt>
      <trkpt lat="45.7878" lon="1.89439">
        <ele>663.7</ele>
        <time>2026-08-08T13:17:37.000Z</time>
      </trkpt>
      <trkpt lat="45.78794" lon="1.89413">
        <ele>663</ele>
        <time>2026-08-08T13:17:41.000Z</time>
      </trkpt>
      <trkpt lat="45.78801" lon="1.89402">
        <ele>663.1</ele>
        <time>2026-08-08T13:17:43.000Z</time>
      </trkpt>
      <trkpt lat="45.78805" lon="1.89396">
        <ele>663.2</ele>
        <time>2026-08-08T13:17:44.000Z</time>
      </trkpt>
      <trkpt lat="45.78823" lon="1.89374">
        <ele>662.6</ele>
        <time>2026-08-08T13:17:48.000Z</time>
      </trkpt>
      <trkpt lat="45.78832" lon="1.89365">
        <ele>663.1</ele>
        <time>2026-08-08T13:17:50.000Z</time>
      </trkpt>
      <trkpt lat="45.7885" lon="1.89349">
        <ele>662.4</ele>
        <time>2026-08-08T13:17:54.000Z</time>
      </trkpt>
      <trkpt lat="45.78865" lon="1.89339">
        <ele>662.3</ele>
        <time>2026-08-08T13:17:57.000Z</time>
      </trkpt>
      <trkpt lat="45.78897" lon="1.89306">
        <ele>662.6</ele>
        <time>2026-08-08T13:18:05.000Z</time>
      </trkpt>
      <trkpt lat="45.78903" lon="1.89296">
        <ele>662.7</ele>
        <time>2026-08-08T13:18:07.000Z</time>
      </trkpt>
      <trkpt lat="45.78906" lon="1.89285">
        <ele>662.5</ele>
        <time>2026-08-08T13:18:09.000Z</time>
      </trkpt>
      <trkpt lat="45.78909" lon="1.89269">
        <ele>662.9</ele>
        <time>2026-08-08T13:18:12.000Z</time>
      </trkpt>
      <trkpt lat="45.78908" lon="1.89258">
        <ele>663.3</ele>
        <time>2026-08-08T13:18:14.000Z</time>
      </trkpt>
      <trkpt lat="45.78898" lon="1.89228">
        <ele>664.1</ele>
        <time>2026-08-08T13:18:21.000Z</time>
      </trkpt>
      <trkpt lat="45.78886" lon="1.89214">
        <ele>664.1</ele>
        <time>2026-08-08T13:18:26.000Z</time>
      </trkpt>
      <trkpt lat="45.78863" lon="1.89197">
        <ele>662.1</ele>
        <time>2026-08-08T13:18:32.000Z</time>
      </trkpt>
      <trkpt lat="45.78844" lon="1.89179">
        <ele>660.8</ele>
        <time>2026-08-08T13:18:36.000Z</time>
      </trkpt>
      <trkpt lat="45.78839" lon="1.89173">
        <ele>660.5</ele>
        <time>2026-08-08T13:18:37.000Z</time>
      </trkpt>
      <trkpt lat="45.78835" lon="1.89165">
        <ele>660.3</ele>
        <time>2026-08-08T13:18:38.000Z</time>
      </trkpt>
      <trkpt lat="45.78828" lon="1.89148">
        <ele>660.1</ele>
        <time>2026-08-08T13:18:40.000Z</time>
      </trkpt>
      <trkpt lat="45.78826" lon="1.89138">
        <ele>660.2</ele>
        <time>2026-08-08T13:18:41.000Z</time>
      </trkpt>
      <trkpt lat="45.7882" lon="1.89111">
        <ele>659.5</ele>
        <time>2026-08-08T13:18:44.000Z</time>
      </trkpt>
      <trkpt lat="45.78814" lon="1.89095">
        <ele>659.1</ele>
        <time>2026-08-08T13:18:46.000Z</time>
      </trkpt>
      <trkpt lat="45.78795" lon="1.89065">
        <ele>658.2</ele>
        <time>2026-08-08T13:18:51.000Z</time>
      </trkpt>
      <trkpt lat="45.78791" lon="1.89053">
        <ele>658.1</ele>
        <time>2026-08-08T13:18:53.000Z</time>
      </trkpt>
      <trkpt lat="45.78789" lon="1.8904">
        <ele>658.9</ele>
        <time>2026-08-08T13:18:55.000Z</time>
      </trkpt>
      <trkpt lat="45.78789" lon="1.89018">
        <ele>659.7</ele>
        <time>2026-08-08T13:18:59.000Z</time>
      </trkpt>
      <trkpt lat="45.78791" lon="1.88999">
        <ele>660.1</ele>
        <time>2026-08-08T13:19:03.000Z</time>
      </trkpt>
      <trkpt lat="45.78797" lon="1.88965">
        <ele>660.2</ele>
        <time>2026-08-08T13:19:09.000Z</time>
      </trkpt>
      <trkpt lat="45.78798" lon="1.88959">
        <ele>660</ele>
        <time>2026-08-08T13:19:10.000Z</time>
      </trkpt>
      <trkpt lat="45.78805" lon="1.88928">
        <ele>659</ele>
        <time>2026-08-08T13:19:15.000Z</time>
      </trkpt>
      <trkpt lat="45.78807" lon="1.88922">
        <ele>659</ele>
        <time>2026-08-08T13:19:16.000Z</time>
      </trkpt>
      <trkpt lat="45.78817" lon="1.88903">
        <ele>660</ele>
        <time>2026-08-08T13:19:21.000Z</time>
      </trkpt>
      <trkpt lat="45.78827" lon="1.88888">
        <ele>661</ele>
        <time>2026-08-08T13:19:26.000Z</time>
      </trkpt>
      <trkpt lat="45.78834" lon="1.88882">
        <ele>661.3</ele>
        <time>2026-08-08T13:19:30.000Z</time>
      </trkpt>
      <trkpt lat="45.78837" lon="1.88879">
        <ele>661.4</ele>
        <time>2026-08-08T13:19:32.000Z</time>
      </trkpt>
      <trkpt lat="45.78849" lon="1.88866">
        <ele>662.6</ele>
        <time>2026-08-08T13:19:39.000Z</time>
      </trkpt>
      <trkpt lat="45.7885" lon="1.88865">
        <ele>662.8</ele>
        <time>2026-08-08T13:19:40.000Z</time>
      </trkpt>
      <trkpt lat="45.78852" lon="1.88862">
        <ele>663.3</ele>
        <time>2026-08-08T13:19:42.000Z</time>
      </trkpt>
      <trkpt lat="45.78861" lon="1.88851">
        <ele>664</ele>
        <time>2026-08-08T13:19:48.000Z</time>
      </trkpt>
      <trkpt lat="45.78866" lon="1.88845">
        <ele>663.9</ele>
        <time>2026-08-08T13:19:51.000Z</time>
      </trkpt>
      <trkpt lat="45.78872" lon="1.88835">
        <ele>664</ele>
        <time>2026-08-08T13:19:55.000Z</time>
      </trkpt>
      <trkpt lat="45.78883" lon="1.88819">
        <ele>663.7</ele>
        <time>2026-08-08T13:20:00.000Z</time>
      </trkpt>
      <trkpt lat="45.78892" lon="1.88799">
        <ele>662.3</ele>
        <time>2026-08-08T13:20:04.000Z</time>
      </trkpt>
      <trkpt lat="45.78895" lon="1.88785">
        <ele>661</ele>
        <time>2026-08-08T13:20:06.000Z</time>
      </trkpt>
      <trkpt lat="45.78904" lon="1.88747">
        <ele>658.4</ele>
        <time>2026-08-08T13:20:10.000Z</time>
      </trkpt>
      <trkpt lat="45.78906" lon="1.88736">
        <ele>658.4</ele>
        <time>2026-08-08T13:20:11.000Z</time>
      </trkpt>
      <trkpt lat="45.78918" lon="1.88684">
        <ele>657.3</ele>
        <time>2026-08-08T13:20:16.000Z</time>
      </trkpt>
      <trkpt lat="45.78922" lon="1.88663">
        <ele>655.9</ele>
        <time>2026-08-08T13:20:18.000Z</time>
      </trkpt>
      <trkpt lat="45.78926" lon="1.88642">
        <ele>655.6</ele>
        <time>2026-08-08T13:20:20.000Z</time>
      </trkpt>
      <trkpt lat="45.78928" lon="1.88631">
        <ele>655.5</ele>
        <time>2026-08-08T13:20:21.000Z</time>
      </trkpt>
      <trkpt lat="45.7894" lon="1.88586">
        <ele>655</ele>
        <time>2026-08-08T13:20:25.000Z</time>
      </trkpt>
      <trkpt lat="45.78944" lon="1.88564">
        <ele>654.7</ele>
        <time>2026-08-08T13:20:27.000Z</time>
      </trkpt>
      <trkpt lat="45.78949" lon="1.88535">
        <ele>654.7</ele>
        <time>2026-08-08T13:20:30.000Z</time>
      </trkpt>
      <trkpt lat="45.7895" lon="1.88527">
        <ele>654.7</ele>
        <time>2026-08-08T13:20:31.000Z</time>
      </trkpt>
      <trkpt lat="45.78954" lon="1.88494">
        <ele>654.8</ele>
        <time>2026-08-08T13:20:35.000Z</time>
      </trkpt>
      <trkpt lat="45.7896" lon="1.88453">
        <ele>655.5</ele>
        <time>2026-08-08T13:20:41.000Z</time>
      </trkpt>
      <trkpt lat="45.78963" lon="1.88437">
        <ele>655.2</ele>
        <time>2026-08-08T13:20:44.000Z</time>
      </trkpt>
      <trkpt lat="45.78965" lon="1.88422">
        <ele>655.5</ele>
        <time>2026-08-08T13:20:47.000Z</time>
      </trkpt>
      <trkpt lat="45.78968" lon="1.88405">
        <ele>655.5</ele>
        <time>2026-08-08T13:20:51.000Z</time>
      </trkpt>
      <trkpt lat="45.78969" lon="1.88391">
        <ele>655.9</ele>
        <time>2026-08-08T13:20:54.000Z</time>
      </trkpt>
      <trkpt lat="45.78968" lon="1.88354">
        <ele>656.7</ele>
        <time>2026-08-08T13:21:02.000Z</time>
      </trkpt>
      <trkpt lat="45.78958" lon="1.88323">
        <ele>656.8</ele>
        <time>2026-08-08T13:21:09.000Z</time>
      </trkpt>
      <trkpt lat="45.78943" lon="1.88298">
        <ele>657.3</ele>
        <time>2026-08-08T13:21:15.000Z</time>
      </trkpt>
      <trkpt lat="45.78923" lon="1.88283">
        <ele>657.9</ele>
        <time>2026-08-08T13:21:21.000Z</time>
      </trkpt>
      <trkpt lat="45.789" lon="1.88271">
        <ele>658.4</ele>
        <time>2026-08-08T13:21:28.000Z</time>
      </trkpt>
      <trkpt lat="45.78865" lon="1.88253">
        <ele>658.3</ele>
        <time>2026-08-08T13:21:38.000Z</time>
      </trkpt>
      <trkpt lat="45.78832" lon="1.88237">
        <ele>658.3</ele>
        <time>2026-08-08T13:21:47.000Z</time>
      </trkpt>
      <trkpt lat="45.78806" lon="1.88224">
        <ele>659.1</ele>
        <time>2026-08-08T13:21:54.000Z</time>
      </trkpt>
      <trkpt lat="45.78771" lon="1.88207">
        <ele>659.2</ele>
        <time>2026-08-08T13:22:04.000Z</time>
      </trkpt>
      <trkpt lat="45.78744" lon="1.88199">
        <ele>659.9</ele>
        <time>2026-08-08T13:22:12.000Z</time>
      </trkpt>
      <trkpt lat="45.78721" lon="1.88195">
        <ele>660.1</ele>
        <time>2026-08-08T13:22:19.000Z</time>
      </trkpt>
      <trkpt lat="45.78693" lon="1.8819">
        <ele>659.6</ele>
        <time>2026-08-08T13:22:27.000Z</time>
      </trkpt>
      <trkpt lat="45.78676" lon="1.88183">
        <ele>660.4</ele>
        <time>2026-08-08T13:22:32.000Z</time>
      </trkpt>
      <trkpt lat="45.78665" lon="1.88177">
        <ele>660.6</ele>
        <time>2026-08-08T13:22:35.000Z</time>
      </trkpt>
      <trkpt lat="45.78642" lon="1.88164">
        <ele>660.4</ele>
        <time>2026-08-08T13:22:41.000Z</time>
      </trkpt>
      <trkpt lat="45.78619" lon="1.8815">
        <ele>659.9</ele>
        <time>2026-08-08T13:22:47.000Z</time>
      </trkpt>
      <trkpt lat="45.78588" lon="1.88134">
        <ele>659.3</ele>
        <time>2026-08-08T13:22:54.000Z</time>
      </trkpt>
      <trkpt lat="45.7856" lon="1.88123">
        <ele>659.1</ele>
        <time>2026-08-08T13:23:00.000Z</time>
      </trkpt>
      <trkpt lat="45.78551" lon="1.88121">
        <ele>659.3</ele>
        <time>2026-08-08T13:23:02.000Z</time>
      </trkpt>
      <trkpt lat="45.78542" lon="1.88119">
        <ele>659.4</ele>
        <time>2026-08-08T13:23:04.000Z</time>
      </trkpt>
      <trkpt lat="45.78519" lon="1.88114">
        <ele>659.6</ele>
        <time>2026-08-08T13:23:10.000Z</time>
      </trkpt>
      <trkpt lat="45.78493" lon="1.88107">
        <ele>659.6</ele>
        <time>2026-08-08T13:23:18.000Z</time>
      </trkpt>
      <trkpt lat="45.78472" lon="1.88104">
        <ele>659.8</ele>
        <time>2026-08-08T13:23:25.000Z</time>
      </trkpt>
      <trkpt lat="45.78448" lon="1.88097">
        <ele>661.3</ele>
        <time>2026-08-08T13:23:33.000Z</time>
      </trkpt>
      <trkpt lat="45.78445" lon="1.88097">
        <ele>661.4</ele>
        <time>2026-08-08T13:23:34.000Z</time>
      </trkpt>
      <trkpt lat="45.7842" lon="1.88091">
        <ele>661.4</ele>
        <time>2026-08-08T13:23:42.000Z</time>
      </trkpt>
      <trkpt lat="45.78396" lon="1.88086">
        <ele>662.1</ele>
        <time>2026-08-08T13:23:50.000Z</time>
      </trkpt>
      <trkpt lat="45.78379" lon="1.88084">
        <ele>661.8</ele>
        <time>2026-08-08T13:23:56.000Z</time>
      </trkpt>
      <trkpt lat="45.78373" lon="1.88084">
        <ele>661.5</ele>
        <time>2026-08-08T13:23:58.000Z</time>
      </trkpt>
      <trkpt lat="45.78358" lon="1.8808">
        <ele>660.5</ele>
        <time>2026-08-08T13:24:02.000Z</time>
      </trkpt>
      <trkpt lat="45.78353" lon="1.88078">
        <ele>660.2</ele>
        <time>2026-08-08T13:24:03.000Z</time>
      </trkpt>
      <trkpt lat="45.78348" lon="1.88075">
        <ele>659.8</ele>
        <time>2026-08-08T13:24:04.000Z</time>
      </trkpt>
      <trkpt lat="45.78339" lon="1.88066">
        <ele>658.8</ele>
        <time>2026-08-08T13:24:06.000Z</time>
      </trkpt>
      <trkpt lat="45.78335" lon="1.8806">
        <ele>658.4</ele>
        <time>2026-08-08T13:24:07.000Z</time>
      </trkpt>
      <trkpt lat="45.78331" lon="1.88053">
        <ele>657.9</ele>
        <time>2026-08-08T13:24:08.000Z</time>
      </trkpt>
      <trkpt lat="45.78325" lon="1.88031">
        <ele>656.8</ele>
        <time>2026-08-08T13:24:11.000Z</time>
      </trkpt>
      <trkpt lat="45.78325" lon="1.88003">
        <ele>657.7</ele>
        <time>2026-08-08T13:24:15.000Z</time>
      </trkpt>
      <trkpt lat="45.78326" lon="1.87998">
        <ele>657.9</ele>
        <time>2026-08-08T13:24:16.000Z</time>
      </trkpt>
      <trkpt lat="45.78328" lon="1.87988">
        <ele>658.8</ele>
        <time>2026-08-08T13:24:18.000Z</time>
      </trkpt>
      <trkpt lat="45.78331" lon="1.87971">
        <ele>660.5</ele>
        <time>2026-08-08T13:24:22.000Z</time>
      </trkpt>
      <trkpt lat="45.78334" lon="1.87944">
        <ele>661.9</ele>
        <time>2026-08-08T13:24:29.000Z</time>
      </trkpt>
      <trkpt lat="45.78337" lon="1.87923">
        <ele>662</ele>
        <time>2026-08-08T13:24:35.000Z</time>
      </trkpt>
      <trkpt lat="45.7834" lon="1.87916">
        <ele>661.7</ele>
        <time>2026-08-08T13:24:37.000Z</time>
      </trkpt>
      <trkpt lat="45.7834" lon="1.87902">
        <ele>661.9</ele>
        <time>2026-08-08T13:24:42.000Z</time>
      </trkpt>
      <trkpt lat="45.78341" lon="1.87892">
        <ele>661.9</ele>
        <time>2026-08-08T13:24:45.000Z</time>
      </trkpt>
      <trkpt lat="45.78341" lon="1.87881">
        <ele>662.3</ele>
        <time>2026-08-08T13:24:49.000Z</time>
      </trkpt>
      <trkpt lat="45.78341" lon="1.87873">
        <ele>662.4</ele>
        <time>2026-08-08T13:24:52.000Z</time>
      </trkpt>
      <trkpt lat="45.7834" lon="1.87851">
        <ele>663.4</ele>
        <time>2026-08-08T13:25:00.000Z</time>
      </trkpt>
      <trkpt lat="45.78332" lon="1.87831">
        <ele>666</ele>
        <time>2026-08-08T13:25:07.000Z</time>
      </trkpt>
      <trkpt lat="45.78332" lon="1.87829">
        <ele>666</ele>
        <time>2026-08-08T13:25:08.000Z</time>
      </trkpt>
      <trkpt lat="45.7833" lon="1.87827">
        <ele>666.2</ele>
        <time>2026-08-08T13:25:09.000Z</time>
      </trkpt>
      <trkpt lat="45.78326" lon="1.87822">
        <ele>666.9</ele>
        <time>2026-08-08T13:25:12.000Z</time>
      </trkpt>
      <trkpt lat="45.78316" lon="1.8781">
        <ele>668.6</ele>
        <time>2026-08-08T13:25:18.000Z</time>
      </trkpt>
      <trkpt lat="45.78314" lon="1.87808">
        <ele>668.9</ele>
        <time>2026-08-08T13:25:19.000Z</time>
      </trkpt>
      <trkpt lat="45.78307" lon="1.87799">
        <ele>669.9</ele>
        <time>2026-08-08T13:25:24.000Z</time>
      </trkpt>
      <trkpt lat="45.78306" lon="1.87798">
        <ele>670.2</ele>
        <time>2026-08-08T13:25:25.000Z</time>
      </trkpt>
      <trkpt lat="45.78304" lon="1.87796">
        <ele>670.2</ele>
        <time>2026-08-08T13:25:26.000Z</time>
      </trkpt>
      <trkpt lat="45.78294" lon="1.87782">
        <ele>670.1</ele>
        <time>2026-08-08T13:25:33.000Z</time>
      </trkpt>
      <trkpt lat="45.78293" lon="1.8778">
        <ele>670.1</ele>
        <time>2026-08-08T13:25:34.000Z</time>
      </trkpt>
      <trkpt lat="45.78281" lon="1.87764">
        <ele>670.6</ele>
        <time>2026-08-08T13:25:42.000Z</time>
      </trkpt>
      <trkpt lat="45.7827" lon="1.87756">
        <ele>671.2</ele>
        <time>2026-08-08T13:25:48.000Z</time>
      </trkpt>
      <trkpt lat="45.78267" lon="1.87753">
        <ele>671.4</ele>
        <time>2026-08-08T13:25:50.000Z</time>
      </trkpt>
      <trkpt lat="45.78257" lon="1.87742">
        <ele>671.7</ele>
        <time>2026-08-08T13:25:56.000Z</time>
      </trkpt>
      <trkpt lat="45.78241" lon="1.87728">
        <ele>672</ele>
        <time>2026-08-08T13:26:04.000Z</time>
      </trkpt>
      <trkpt lat="45.78226" lon="1.87714">
        <ele>671.8</ele>
        <time>2026-08-08T13:26:11.000Z</time>
      </trkpt>
      <trkpt lat="45.7821" lon="1.87703">
        <ele>671.8</ele>
        <time>2026-08-08T13:26:17.000Z</time>
      </trkpt>
      <trkpt lat="45.78189" lon="1.87692">
        <ele>672.2</ele>
        <time>2026-08-08T13:26:24.000Z</time>
      </trkpt>
      <trkpt lat="45.78183" lon="1.87689">
        <ele>672.2</ele>
        <time>2026-08-08T13:26:26.000Z</time>
      </trkpt>
      <trkpt lat="45.78166" lon="1.87677">
        <ele>671.6</ele>
        <time>2026-08-08T13:26:33.000Z</time>
      </trkpt>
      <trkpt lat="45.78157" lon="1.87673">
        <ele>671.7</ele>
        <time>2026-08-08T13:26:36.000Z</time>
      </trkpt>
      <trkpt lat="45.78132" lon="1.87663">
        <ele>672.5</ele>
        <time>2026-08-08T13:26:44.000Z</time>
      </trkpt>
      <trkpt lat="45.78104" lon="1.87669">
        <ele>673.5</ele>
        <time>2026-08-08T13:26:52.000Z</time>
      </trkpt>
      <trkpt lat="45.78083" lon="1.87674">
        <ele>674.8</ele>
        <time>2026-08-08T13:26:59.000Z</time>
      </trkpt>
      <trkpt lat="45.78077" lon="1.87675">
        <ele>674.9</ele>
        <time>2026-08-08T13:27:01.000Z</time>
      </trkpt>
      <trkpt lat="45.78054" lon="1.87676">
        <ele>674.9</ele>
        <time>2026-08-08T13:27:09.000Z</time>
      </trkpt>
      <trkpt lat="45.78051" lon="1.87676">
        <ele>674.6</ele>
        <time>2026-08-08T13:27:10.000Z</time>
      </trkpt>
      <trkpt lat="45.78033" lon="1.87678">
        <ele>673.7</ele>
        <time>2026-08-08T13:27:14.000Z</time>
      </trkpt>
      <trkpt lat="45.7801" lon="1.8768">
        <ele>671.8</ele>
        <time>2026-08-08T13:27:18.000Z</time>
      </trkpt>
      <trkpt lat="45.78002" lon="1.87679">
        <ele>671</ele>
        <time>2026-08-08T13:27:19.000Z</time>
      </trkpt>
      <trkpt lat="45.77987" lon="1.87674">
        <ele>669.6</ele>
        <time>2026-08-08T13:27:21.000Z</time>
      </trkpt>
      <trkpt lat="45.77979" lon="1.8767">
        <ele>668.7</ele>
        <time>2026-08-08T13:27:22.000Z</time>
      </trkpt>
      <trkpt lat="45.77972" lon="1.87665">
        <ele>667.9</ele>
        <time>2026-08-08T13:27:23.000Z</time>
      </trkpt>
      <trkpt lat="45.77965" lon="1.87659">
        <ele>667.6</ele>
        <time>2026-08-08T13:27:24.000Z</time>
      </trkpt>
      <trkpt lat="45.77959" lon="1.87651">
        <ele>667.4</ele>
        <time>2026-08-08T13:27:25.000Z</time>
      </trkpt>
      <trkpt lat="45.77949" lon="1.87634">
        <ele>667.5</ele>
        <time>2026-08-08T13:27:27.000Z</time>
      </trkpt>
      <trkpt lat="45.77945" lon="1.87625">
        <ele>667.5</ele>
        <time>2026-08-08T13:27:28.000Z</time>
      </trkpt>
      <trkpt lat="45.77942" lon="1.87616">
        <ele>667.3</ele>
        <time>2026-08-08T13:27:29.000Z</time>
      </trkpt>
      <trkpt lat="45.77937" lon="1.87598">
        <ele>668.3</ele>
        <time>2026-08-08T13:27:31.000Z</time>
      </trkpt>
      <trkpt lat="45.77934" lon="1.87577">
        <ele>670.6</ele>
        <time>2026-08-08T13:27:34.000Z</time>
      </trkpt>
      <trkpt lat="45.77932" lon="1.87561">
        <ele>672.9</ele>
        <time>2026-08-08T13:27:38.000Z</time>
      </trkpt>
      <trkpt lat="45.77931" lon="1.87549">
        <ele>674.1</ele>
        <time>2026-08-08T13:27:43.000Z</time>
      </trkpt>
      <trkpt lat="45.7793" lon="1.87547">
        <ele>674.3</ele>
        <time>2026-08-08T13:27:44.000Z</time>
      </trkpt>
      <trkpt lat="45.77928" lon="1.87538">
        <ele>675</ele>
        <time>2026-08-08T13:27:48.000Z</time>
      </trkpt>
      <trkpt lat="45.77926" lon="1.87529">
        <ele>675.6</ele>
        <time>2026-08-08T13:27:52.000Z</time>
      </trkpt>
      <trkpt lat="45.77925" lon="1.87524">
        <ele>675.7</ele>
        <time>2026-08-08T13:27:54.000Z</time>
      </trkpt>
      <trkpt lat="45.77923" lon="1.87517">
        <ele>675.5</ele>
        <time>2026-08-08T13:27:57.000Z</time>
      </trkpt>
      <trkpt lat="45.77918" lon="1.87506">
        <ele>675.2</ele>
        <time>2026-08-08T13:28:03.000Z</time>
      </trkpt>
      <trkpt lat="45.77917" lon="1.87502">
        <ele>675</ele>
        <time>2026-08-08T13:28:05.000Z</time>
      </trkpt>
      <trkpt lat="45.77914" lon="1.87494">
        <ele>675.6</ele>
        <time>2026-08-08T13:28:09.000Z</time>
      </trkpt>
      <trkpt lat="45.77911" lon="1.87484">
        <ele>676.3</ele>
        <time>2026-08-08T13:28:13.000Z</time>
      </trkpt>
      <trkpt lat="45.77909" lon="1.87477">
        <ele>676.7</ele>
        <time>2026-08-08T13:28:16.000Z</time>
      </trkpt>
      <trkpt lat="45.77903" lon="1.87458">
        <ele>677</ele>
        <time>2026-08-08T13:28:24.000Z</time>
      </trkpt>
      <trkpt lat="45.779" lon="1.87448">
        <ele>677</ele>
        <time>2026-08-08T13:28:28.000Z</time>
      </trkpt>
      <trkpt lat="45.77896" lon="1.87438">
        <ele>677</ele>
        <time>2026-08-08T13:28:32.000Z</time>
      </trkpt>
      <trkpt lat="45.77891" lon="1.87421">
        <ele>676.9</ele>
        <time>2026-08-08T13:28:39.000Z</time>
      </trkpt>
      <trkpt lat="45.7789" lon="1.87419">
        <ele>676.9</ele>
        <time>2026-08-08T13:28:40.000Z</time>
      </trkpt>
      <trkpt lat="45.77888" lon="1.87405">
        <ele>677.2</ele>
        <time>2026-08-08T13:28:47.000Z</time>
      </trkpt>
      <trkpt lat="45.77886" lon="1.874">
        <ele>677.6</ele>
        <time>2026-08-08T13:28:49.000Z</time>
      </trkpt>
      <trkpt lat="45.77879" lon="1.87393">
        <ele>678.8</ele>
        <time>2026-08-08T13:28:53.000Z</time>
      </trkpt>
      <trkpt lat="45.77869" lon="1.87384">
        <ele>680.2</ele>
        <time>2026-08-08T13:28:59.000Z</time>
      </trkpt>
      <trkpt lat="45.77868" lon="1.87383">
        <ele>680.3</ele>
        <time>2026-08-08T13:29:00.000Z</time>
      </trkpt>
      <trkpt lat="45.77852" lon="1.87371">
        <ele>681.5</ele>
        <time>2026-08-08T13:29:09.000Z</time>
      </trkpt>
      <trkpt lat="45.77834" lon="1.87364">
        <ele>682.3</ele>
        <time>2026-08-08T13:29:19.000Z</time>
      </trkpt>
      <trkpt lat="45.77817" lon="1.87358">
        <ele>682.8</ele>
        <time>2026-08-08T13:29:28.000Z</time>
      </trkpt>
      <trkpt lat="45.77813" lon="1.87357">
        <ele>683</ele>
        <time>2026-08-08T13:29:30.000Z</time>
      </trkpt>
      <trkpt lat="45.77805" lon="1.87355">
        <ele>683.4</ele>
        <time>2026-08-08T13:29:33.000Z</time>
      </trkpt>
      <trkpt lat="45.77799" lon="1.87353">
        <ele>683.3</ele>
        <time>2026-08-08T13:29:36.000Z</time>
      </trkpt>
      <trkpt lat="45.77775" lon="1.87347">
        <ele>683.1</ele>
        <time>2026-08-08T13:29:45.000Z</time>
      </trkpt>
      <trkpt lat="45.77743" lon="1.87342">
        <ele>683.1</ele>
        <time>2026-08-08T13:29:54.000Z</time>
      </trkpt>
      <trkpt lat="45.77711" lon="1.87339">
        <ele>682.1</ele>
        <time>2026-08-08T13:30:02.000Z</time>
      </trkpt>
      <trkpt lat="45.77688" lon="1.87332">
        <ele>681.2</ele>
        <time>2026-08-08T13:30:07.000Z</time>
      </trkpt>
      <trkpt lat="45.77676" lon="1.87322">
        <ele>680.6</ele>
        <time>2026-08-08T13:30:09.000Z</time>
      </trkpt>
      <trkpt lat="45.77667" lon="1.87309">
        <ele>679.5</ele>
        <time>2026-08-08T13:30:11.000Z</time>
      </trkpt>
      <trkpt lat="45.7766" lon="1.87293">
        <ele>678.9</ele>
        <time>2026-08-08T13:30:13.000Z</time>
      </trkpt>
      <trkpt lat="45.77657" lon="1.87284">
        <ele>678.5</ele>
        <time>2026-08-08T13:30:14.000Z</time>
      </trkpt>
      <trkpt lat="45.77653" lon="1.87274">
        <ele>677.9</ele>
        <time>2026-08-08T13:30:15.000Z</time>
      </trkpt>
      <trkpt lat="45.77643" lon="1.87253">
        <ele>676.1</ele>
        <time>2026-08-08T13:30:17.000Z</time>
      </trkpt>
      <trkpt lat="45.77637" lon="1.87244">
        <ele>675.4</ele>
        <time>2026-08-08T13:30:18.000Z</time>
      </trkpt>
      <trkpt lat="45.77631" lon="1.87235">
        <ele>674.6</ele>
        <time>2026-08-08T13:30:19.000Z</time>
      </trkpt>
      <trkpt lat="45.77617" lon="1.87219">
        <ele>673.3</ele>
        <time>2026-08-08T13:30:21.000Z</time>
      </trkpt>
      <trkpt lat="45.77608" lon="1.87212">
        <ele>672.7</ele>
        <time>2026-08-08T13:30:22.000Z</time>
      </trkpt>
      <trkpt lat="45.77599" lon="1.87206">
        <ele>672</ele>
        <time>2026-08-08T13:30:23.000Z</time>
      </trkpt>
      <trkpt lat="45.7759" lon="1.872">
        <ele>671.5</ele>
        <time>2026-08-08T13:30:24.000Z</time>
      </trkpt>
      <trkpt lat="45.77563" lon="1.87191">
        <ele>669.7</ele>
        <time>2026-08-08T13:30:27.000Z</time>
      </trkpt>
      <trkpt lat="45.77544" lon="1.87188">
        <ele>668.8</ele>
        <time>2026-08-08T13:30:29.000Z</time>
      </trkpt>
      <trkpt lat="45.77535" lon="1.87183">
        <ele>667.9</ele>
        <time>2026-08-08T13:30:30.000Z</time>
      </trkpt>
      <trkpt lat="45.77526" lon="1.87175">
        <ele>666.9</ele>
        <time>2026-08-08T13:30:31.000Z</time>
      </trkpt>
      <trkpt lat="45.7752" lon="1.87163">
        <ele>666</ele>
        <time>2026-08-08T13:30:32.000Z</time>
      </trkpt>
      <trkpt lat="45.77516" lon="1.87149">
        <ele>665.2</ele>
        <time>2026-08-08T13:30:33.000Z</time>
      </trkpt>
      <trkpt lat="45.77513" lon="1.87135">
        <ele>664.5</ele>
        <time>2026-08-08T13:30:34.000Z</time>
      </trkpt>
      <trkpt lat="45.77508" lon="1.87109">
        <ele>665.2</ele>
        <time>2026-08-08T13:30:36.000Z</time>
      </trkpt>
      <trkpt lat="45.77507" lon="1.87096">
        <ele>665.3</ele>
        <time>2026-08-08T13:30:37.000Z</time>
      </trkpt>
      <trkpt lat="45.77508" lon="1.87085">
        <ele>665.2</ele>
        <time>2026-08-08T13:30:38.000Z</time>
      </trkpt>
      <trkpt lat="45.77512" lon="1.87074">
        <ele>664.8</ele>
        <time>2026-08-08T13:30:39.000Z</time>
      </trkpt>
      <trkpt lat="45.77524" lon="1.87056">
        <ele>665</ele>
        <time>2026-08-08T13:30:41.000Z</time>
      </trkpt>
      <trkpt lat="45.77538" lon="1.87042">
        <ele>663.8</ele>
        <time>2026-08-08T13:30:43.000Z</time>
      </trkpt>
      <trkpt lat="45.77544" lon="1.87036">
        <ele>663.6</ele>
        <time>2026-08-08T13:30:44.000Z</time>
      </trkpt>
      <trkpt lat="45.7755" lon="1.87029">
        <ele>663.9</ele>
        <time>2026-08-08T13:30:45.000Z</time>
      </trkpt>
      <trkpt lat="45.77564" lon="1.87015">
        <ele>662.4</ele>
        <time>2026-08-08T13:30:47.000Z</time>
      </trkpt>
      <trkpt lat="45.77592" lon="1.86985">
        <ele>660.4</ele>
        <time>2026-08-08T13:30:51.000Z</time>
      </trkpt>
      <trkpt lat="45.77599" lon="1.86977">
        <ele>659.7</ele>
        <time>2026-08-08T13:30:52.000Z</time>
      </trkpt>
      <trkpt lat="45.7763" lon="1.86946">
        <ele>658.7</ele>
        <time>2026-08-08T13:30:56.000Z</time>
      </trkpt>
      <trkpt lat="45.77644" lon="1.8693">
        <ele>658.1</ele>
        <time>2026-08-08T13:30:58.000Z</time>
      </trkpt>
      <trkpt lat="45.77658" lon="1.86916">
        <ele>657.5</ele>
        <time>2026-08-08T13:31:00.000Z</time>
      </trkpt>
      <trkpt lat="45.77684" lon="1.86888">
        <ele>656.6</ele>
        <time>2026-08-08T13:31:04.000Z</time>
      </trkpt>
      <trkpt lat="45.77703" lon="1.86866">
        <ele>657.6</ele>
        <time>2026-08-08T13:31:07.000Z</time>
      </trkpt>
      <trkpt lat="45.77726" lon="1.86831">
        <ele>658.1</ele>
        <time>2026-08-08T13:31:11.000Z</time>
      </trkpt>
      <trkpt lat="45.7773" lon="1.86821">
        <ele>658.2</ele>
        <time>2026-08-08T13:31:12.000Z</time>
      </trkpt>
      <trkpt lat="45.77737" lon="1.86799">
        <ele>658.1</ele>
        <time>2026-08-08T13:31:14.000Z</time>
      </trkpt>
      <trkpt lat="45.77739" lon="1.86788">
        <ele>658.1</ele>
        <time>2026-08-08T13:31:15.000Z</time>
      </trkpt>
      <trkpt lat="45.77741" lon="1.86764">
        <ele>657.8</ele>
        <time>2026-08-08T13:31:17.000Z</time>
      </trkpt>
      <trkpt lat="45.7774" lon="1.8673">
        <ele>656.3</ele>
        <time>2026-08-08T13:31:20.000Z</time>
      </trkpt>
      <trkpt lat="45.77736" lon="1.86708">
        <ele>654.5</ele>
        <time>2026-08-08T13:31:22.000Z</time>
      </trkpt>
      <trkpt lat="45.77733" lon="1.86697">
        <ele>653.5</ele>
        <time>2026-08-08T13:31:23.000Z</time>
      </trkpt>
      <trkpt lat="45.77723" lon="1.86641">
        <ele>653.9</ele>
        <time>2026-08-08T13:31:28.000Z</time>
      </trkpt>
      <trkpt lat="45.77714" lon="1.86589">
        <ele>654.2</ele>
        <time>2026-08-08T13:31:33.000Z</time>
      </trkpt>
      <trkpt lat="45.77707" lon="1.86542">
        <ele>655.6</ele>
        <time>2026-08-08T13:31:38.000Z</time>
      </trkpt>
      <trkpt lat="45.77704" lon="1.86499">
        <ele>654.3</ele>
        <time>2026-08-08T13:31:43.000Z</time>
      </trkpt>
      <trkpt lat="45.77705" lon="1.86474">
        <ele>653.7</ele>
        <time>2026-08-08T13:31:46.000Z</time>
      </trkpt>
      <trkpt lat="45.77706" lon="1.86466">
        <ele>653.1</ele>
        <time>2026-08-08T13:31:47.000Z</time>
      </trkpt>
      <trkpt lat="45.77708" lon="1.86458">
        <ele>652.5</ele>
        <time>2026-08-08T13:31:48.000Z</time>
      </trkpt>
      <trkpt lat="45.77721" lon="1.86422">
        <ele>652.5</ele>
        <time>2026-08-08T13:31:53.000Z</time>
      </trkpt>
      <trkpt lat="45.77729" lon="1.86409">
        <ele>651.9</ele>
        <time>2026-08-08T13:31:55.000Z</time>
      </trkpt>
      <trkpt lat="45.77742" lon="1.86395">
        <ele>651.8</ele>
        <time>2026-08-08T13:31:58.000Z</time>
      </trkpt>
      <trkpt lat="45.77762" lon="1.86382">
        <ele>652.5</ele>
        <time>2026-08-08T13:32:02.000Z</time>
      </trkpt>
      <trkpt lat="45.77771" lon="1.86379">
        <ele>652.5</ele>
        <time>2026-08-08T13:32:04.000Z</time>
      </trkpt>
      <trkpt lat="45.77785" lon="1.86376">
        <ele>653.2</ele>
        <time>2026-08-08T13:32:08.000Z</time>
      </trkpt>
      <trkpt lat="45.77807" lon="1.8638">
        <ele>655.1</ele>
        <time>2026-08-08T13:32:15.000Z</time>
      </trkpt>
      <trkpt lat="45.77819" lon="1.86385">
        <ele>656.2</ele>
        <time>2026-08-08T13:32:20.000Z</time>
      </trkpt>
      <trkpt lat="45.77826" lon="1.8639">
        <ele>656.5</ele>
        <time>2026-08-08T13:32:23.000Z</time>
      </trkpt>
      <trkpt lat="45.77838" lon="1.86399">
        <ele>658.3</ele>
        <time>2026-08-08T13:32:29.000Z</time>
      </trkpt>
      <trkpt lat="45.77843" lon="1.86405">
        <ele>659.2</ele>
        <time>2026-08-08T13:32:32.000Z</time>
      </trkpt>
      <trkpt lat="45.77854" lon="1.86419">
        <ele>659.4</ele>
        <time>2026-08-08T13:32:38.000Z</time>
      </trkpt>
      <trkpt lat="45.77858" lon="1.86425">
        <ele>659.5</ele>
        <time>2026-08-08T13:32:41.000Z</time>
      </trkpt>
      <trkpt lat="45.77858" lon="1.86426">
        <ele>659.5</ele>
        <time>2026-08-08T13:32:42.000Z</time>
      </trkpt>
      <trkpt lat="45.7786" lon="1.86431">
        <ele>659.4</ele>
        <time>2026-08-08T13:32:45.000Z</time>
      </trkpt>
      <trkpt lat="45.77861" lon="1.86433">
        <ele>659.4</ele>
        <time>2026-08-08T13:32:46.000Z</time>
      </trkpt>
      <trkpt lat="45.77865" lon="1.8644">
        <ele>659.7</ele>
        <time>2026-08-08T13:32:50.000Z</time>
      </trkpt>
      <trkpt lat="45.77866" lon="1.86443">
        <ele>659.6</ele>
        <time>2026-08-08T13:32:51.000Z</time>
      </trkpt>
      <trkpt lat="45.77869" lon="1.86452">
        <ele>659.1</ele>
        <time>2026-08-08T13:32:54.000Z</time>
      </trkpt>
      <trkpt lat="45.77875" lon="1.86475">
        <ele>657.9</ele>
        <time>2026-08-08T13:33:01.000Z</time>
      </trkpt>
      <trkpt lat="45.7788" lon="1.86491">
        <ele>658.3</ele>
        <time>2026-08-08T13:33:06.000Z</time>
      </trkpt>
      <trkpt lat="45.77881" lon="1.86494">
        <ele>658.4</ele>
        <time>2026-08-08T13:33:07.000Z</time>
      </trkpt>
      <trkpt lat="45.77882" lon="1.86497">
        <ele>658.5</ele>
        <time>2026-08-08T13:33:08.000Z</time>
      </trkpt>
      <trkpt lat="45.77887" lon="1.86516">
        <ele>659.6</ele>
        <time>2026-08-08T13:33:14.000Z</time>
      </trkpt>
      <trkpt lat="45.77895" lon="1.86537">
        <ele>659.1</ele>
        <time>2026-08-08T13:33:20.000Z</time>
      </trkpt>
      <trkpt lat="45.779" lon="1.86545">
        <ele>658.6</ele>
        <time>2026-08-08T13:33:23.000Z</time>
      </trkpt>
      <trkpt lat="45.77914" lon="1.86563">
        <ele>659.6</ele>
        <time>2026-08-08T13:33:30.000Z</time>
      </trkpt>
      <trkpt lat="45.77932" lon="1.86576">
        <ele>661</ele>
        <time>2026-08-08T13:33:38.000Z</time>
      </trkpt>
      <trkpt lat="45.7794" lon="1.86579">
        <ele>661.9</ele>
        <time>2026-08-08T13:33:41.000Z</time>
      </trkpt>
      <trkpt lat="45.77962" lon="1.86584">
        <ele>661.9</ele>
        <time>2026-08-08T13:33:48.000Z</time>
      </trkpt>
      <trkpt lat="45.77995" lon="1.86583">
        <ele>661.3</ele>
        <time>2026-08-08T13:33:56.000Z</time>
      </trkpt>
      <trkpt lat="45.78019" lon="1.86572">
        <ele>661.2</ele>
        <time>2026-08-08T13:34:01.000Z</time>
      </trkpt>
      <trkpt lat="45.78023" lon="1.86569">
        <ele>660.8</ele>
        <time>2026-08-08T13:34:02.000Z</time>
      </trkpt>
      <trkpt lat="45.78036" lon="1.86554">
        <ele>658.3</ele>
        <time>2026-08-08T13:34:05.000Z</time>
      </trkpt>
      <trkpt lat="45.78039" lon="1.86548">
        <ele>658.4</ele>
        <time>2026-08-08T13:34:06.000Z</time>
      </trkpt>
      <trkpt lat="45.78046" lon="1.86536">
        <ele>658.9</ele>
        <time>2026-08-08T13:34:08.000Z</time>
      </trkpt>
      <trkpt lat="45.78052" lon="1.86521">
        <ele>659.1</ele>
        <time>2026-08-08T13:34:10.000Z</time>
      </trkpt>
      <trkpt lat="45.78054" lon="1.86514">
        <ele>658.8</ele>
        <time>2026-08-08T13:34:11.000Z</time>
      </trkpt>
      <trkpt lat="45.78062" lon="1.86482">
        <ele>658.1</ele>
        <time>2026-08-08T13:34:15.000Z</time>
      </trkpt>
      <trkpt lat="45.78065" lon="1.86466">
        <ele>658.3</ele>
        <time>2026-08-08T13:34:17.000Z</time>
      </trkpt>
      <trkpt lat="45.78068" lon="1.8645">
        <ele>658.8</ele>
        <time>2026-08-08T13:34:19.000Z</time>
      </trkpt>
      <trkpt lat="45.78079" lon="1.86394">
        <ele>658.5</ele>
        <time>2026-08-08T13:34:26.000Z</time>
      </trkpt>
      <trkpt lat="45.7808" lon="1.86386">
        <ele>658.2</ele>
        <time>2026-08-08T13:34:27.000Z</time>
      </trkpt>
      <trkpt lat="45.78092" lon="1.86329">
        <ele>657.2</ele>
        <time>2026-08-08T13:34:34.000Z</time>
      </trkpt>
      <trkpt lat="45.78094" lon="1.86312">
        <ele>656.9</ele>
        <time>2026-08-08T13:34:36.000Z</time>
      </trkpt>
      <trkpt lat="45.78104" lon="1.86255">
        <ele>655.9</ele>
        <time>2026-08-08T13:34:43.000Z</time>
      </trkpt>
      <trkpt lat="45.78112" lon="1.86214">
        <ele>655.8</ele>
        <time>2026-08-08T13:34:48.000Z</time>
      </trkpt>
      <trkpt lat="45.78117" lon="1.86188">
        <ele>656.2</ele>
        <time>2026-08-08T13:34:51.000Z</time>
      </trkpt>
      <trkpt lat="45.78118" lon="1.8618">
        <ele>656.4</ele>
        <time>2026-08-08T13:34:52.000Z</time>
      </trkpt>
      <trkpt lat="45.78131" lon="1.86109">
        <ele>655.1</ele>
        <time>2026-08-08T13:35:00.000Z</time>
      </trkpt>
      <trkpt lat="45.78135" lon="1.86091">
        <ele>654.8</ele>
        <time>2026-08-08T13:35:02.000Z</time>
      </trkpt>
      <trkpt lat="45.78143" lon="1.86048">
        <ele>653.4</ele>
        <time>2026-08-08T13:35:07.000Z</time>
      </trkpt>
      <trkpt lat="45.78147" lon="1.86031">
        <ele>653.3</ele>
        <time>2026-08-08T13:35:09.000Z</time>
      </trkpt>
      <trkpt lat="45.78158" lon="1.8597">
        <ele>651.3</ele>
        <time>2026-08-08T13:35:16.000Z</time>
      </trkpt>
      <trkpt lat="45.78162" lon="1.85945">
        <ele>650.8</ele>
        <time>2026-08-08T13:35:19.000Z</time>
      </trkpt>
      <trkpt lat="45.78164" lon="1.85927">
        <ele>650.3</ele>
        <time>2026-08-08T13:35:21.000Z</time>
      </trkpt>
      <trkpt lat="45.78164" lon="1.85918">
        <ele>650</ele>
        <time>2026-08-08T13:35:22.000Z</time>
      </trkpt>
      <trkpt lat="45.78161" lon="1.85876">
        <ele>651.4</ele>
        <time>2026-08-08T13:35:27.000Z</time>
      </trkpt>
      <trkpt lat="45.78147" lon="1.8584">
        <ele>652</ele>
        <time>2026-08-08T13:35:32.000Z</time>
      </trkpt>
      <trkpt lat="45.78125" lon="1.858">
        <ele>653.2</ele>
        <time>2026-08-08T13:35:38.000Z</time>
      </trkpt>
      <trkpt lat="45.78121" lon="1.85794">
        <ele>652.8</ele>
        <time>2026-08-08T13:35:39.000Z</time>
      </trkpt>
      <trkpt lat="45.78118" lon="1.85787">
        <ele>652.3</ele>
        <time>2026-08-08T13:35:40.000Z</time>
      </trkpt>
      <trkpt lat="45.78096" lon="1.85744">
        <ele>651.4</ele>
        <time>2026-08-08T13:35:47.000Z</time>
      </trkpt>
      <trkpt lat="45.78072" lon="1.857">
        <ele>650.5</ele>
        <time>2026-08-08T13:35:55.000Z</time>
      </trkpt>
      <trkpt lat="45.78066" lon="1.8569">
        <ele>650.9</ele>
        <time>2026-08-08T13:35:57.000Z</time>
      </trkpt>
      <trkpt lat="45.78062" lon="1.85679">
        <ele>651.3</ele>
        <time>2026-08-08T13:35:59.000Z</time>
      </trkpt>
      <trkpt lat="45.78061" lon="1.85673">
        <ele>651.4</ele>
        <time>2026-08-08T13:36:00.000Z</time>
      </trkpt>
      <trkpt lat="45.78056" lon="1.85651">
        <ele>652.5</ele>
        <time>2026-08-08T13:36:04.000Z</time>
      </trkpt>
      <trkpt lat="45.78055" lon="1.85636">
        <ele>653.3</ele>
        <time>2026-08-08T13:36:07.000Z</time>
      </trkpt>
      <trkpt lat="45.78052" lon="1.85606">
        <ele>654.8</ele>
        <time>2026-08-08T13:36:13.000Z</time>
      </trkpt>
      <trkpt lat="45.78047" lon="1.85552">
        <ele>655</ele>
        <time>2026-08-08T13:36:24.000Z</time>
      </trkpt>
      <trkpt lat="45.78046" lon="1.85548">
        <ele>654.7</ele>
        <time>2026-08-08T13:36:25.000Z</time>
      </trkpt>
      <trkpt lat="45.78043" lon="1.85516">
        <ele>652.9</ele>
        <time>2026-08-08T13:36:32.000Z</time>
      </trkpt>
      <trkpt lat="45.7804" lon="1.85478">
        <ele>653.3</ele>
        <time>2026-08-08T13:36:40.000Z</time>
      </trkpt>
      <trkpt lat="45.78034" lon="1.8544">
        <ele>654.8</ele>
        <time>2026-08-08T13:36:48.000Z</time>
      </trkpt>
      <trkpt lat="45.7803" lon="1.85394">
        <ele>656.7</ele>
        <time>2026-08-08T13:36:57.000Z</time>
      </trkpt>
      <trkpt lat="45.78028" lon="1.85374">
        <ele>657.1</ele>
        <time>2026-08-08T13:37:01.000Z</time>
      </trkpt>
      <trkpt lat="45.78026" lon="1.85364">
        <ele>657.6</ele>
        <time>2026-08-08T13:37:03.000Z</time>
      </trkpt>
      <trkpt lat="45.78023" lon="1.85349">
        <ele>658.3</ele>
        <time>2026-08-08T13:37:06.000Z</time>
      </trkpt>
      <trkpt lat="45.78016" lon="1.85307">
        <ele>658.8</ele>
        <time>2026-08-08T13:37:14.000Z</time>
      </trkpt>
      <trkpt lat="45.78003" lon="1.85261">
        <ele>656.7</ele>
        <time>2026-08-08T13:37:23.000Z</time>
      </trkpt>
      <trkpt lat="45.77987" lon="1.85215">
        <ele>656.7</ele>
        <time>2026-08-08T13:37:31.000Z</time>
      </trkpt>
      <trkpt lat="45.77968" lon="1.85166">
        <ele>656.8</ele>
        <time>2026-08-08T13:37:39.000Z</time>
      </trkpt>
      <trkpt lat="45.77961" lon="1.85109">
        <ele>654.5</ele>
        <time>2026-08-08T13:37:47.000Z</time>
      </trkpt>
      <trkpt lat="45.77965" lon="1.8508">
        <ele>655.7</ele>
        <time>2026-08-08T13:37:51.000Z</time>
      </trkpt>
      <trkpt lat="45.77969" lon="1.85067">
        <ele>655.9</ele>
        <time>2026-08-08T13:37:53.000Z</time>
      </trkpt>
      <trkpt lat="45.77971" lon="1.85062">
        <ele>656</ele>
        <time>2026-08-08T13:37:54.000Z</time>
      </trkpt>
      <trkpt lat="45.7798" lon="1.85041">
        <ele>657.1</ele>
        <time>2026-08-08T13:37:58.000Z</time>
      </trkpt>
      <trkpt lat="45.77998" lon="1.8502">
        <ele>657.9</ele>
        <time>2026-08-08T13:38:03.000Z</time>
      </trkpt>
      <trkpt lat="45.78005" lon="1.85013">
        <ele>657.6</ele>
        <time>2026-08-08T13:38:05.000Z</time>
      </trkpt>
      <trkpt lat="45.78045" lon="1.84981">
        <ele>658.8</ele>
        <time>2026-08-08T13:38:16.000Z</time>
      </trkpt>
      <trkpt lat="45.78074" lon="1.84954">
        <ele>658.7</ele>
        <time>2026-08-08T13:38:24.000Z</time>
      </trkpt>
      <trkpt lat="45.78087" lon="1.84931">
        <ele>658</ele>
        <time>2026-08-08T13:38:29.000Z</time>
      </trkpt>
      <trkpt lat="45.78091" lon="1.84922">
        <ele>657.9</ele>
        <time>2026-08-08T13:38:31.000Z</time>
      </trkpt>
      <trkpt lat="45.78098" lon="1.84908">
        <ele>658.5</ele>
        <time>2026-08-08T13:38:35.000Z</time>
      </trkpt>
      <trkpt lat="45.78099" lon="1.84905">
        <ele>658.7</ele>
        <time>2026-08-08T13:38:36.000Z</time>
      </trkpt>
      <trkpt lat="45.78104" lon="1.84874">
        <ele>660.4</ele>
        <time>2026-08-08T13:38:44.000Z</time>
      </trkpt>
      <trkpt lat="45.78109" lon="1.84837">
        <ele>659.8</ele>
        <time>2026-08-08T13:38:52.000Z</time>
      </trkpt>
      <trkpt lat="45.78114" lon="1.84805">
        <ele>658.3</ele>
        <time>2026-08-08T13:38:59.000Z</time>
      </trkpt>
      <trkpt lat="45.78114" lon="1.84796">
        <ele>658.6</ele>
        <time>2026-08-08T13:39:01.000Z</time>
      </trkpt>
      <trkpt lat="45.78113" lon="1.84782">
        <ele>659.3</ele>
        <time>2026-08-08T13:39:06.000Z</time>
      </trkpt>
      <trkpt lat="45.78114" lon="1.84779">
        <ele>659.3</ele>
        <time>2026-08-08T13:39:11.000Z</time>
      </trkpt>
      <trkpt lat="45.78114" lon="1.84779">
        <ele>659.3</ele>
        <time>2026-08-08T13:39:12.000Z</time>
      </trkpt>
      <trkpt lat="45.78121" lon="1.84777">
        <ele>657.6</ele>
        <time>2026-08-08T13:40:59.000Z</time>
      </trkpt>
      <trkpt lat="45.78123" lon="1.84773">
        <ele>657.2</ele>
        <time>2026-08-08T13:41:01.000Z</time>
      </trkpt>
      <trkpt lat="45.78136" lon="1.84749">
        <ele>658.9</ele>
        <time>2026-08-08T13:41:09.000Z</time>
      </trkpt>
      <trkpt lat="45.78153" lon="1.8473">
        <ele>659.3</ele>
        <time>2026-08-08T13:41:17.000Z</time>
      </trkpt>
      <trkpt lat="45.78166" lon="1.8472">
        <ele>661.1</ele>
        <time>2026-08-08T13:41:24.000Z</time>
      </trkpt>
      <trkpt lat="45.78178" lon="1.84715">
        <ele>662.1</ele>
        <time>2026-08-08T13:41:30.000Z</time>
      </trkpt>
      <trkpt lat="45.78186" lon="1.84714">
        <ele>662.7</ele>
        <time>2026-08-08T13:41:34.000Z</time>
      </trkpt>
      <trkpt lat="45.78193" lon="1.84713">
        <ele>663.3</ele>
        <time>2026-08-08T13:41:38.000Z</time>
      </trkpt>
      <trkpt lat="45.78201" lon="1.84713">
        <ele>664.1</ele>
        <time>2026-08-08T13:41:43.000Z</time>
      </trkpt>
      <trkpt lat="45.78205" lon="1.84714">
        <ele>664.4</ele>
        <time>2026-08-08T13:41:45.000Z</time>
      </trkpt>
      <trkpt lat="45.7821" lon="1.84714">
        <ele>665</ele>
        <time>2026-08-08T13:41:48.000Z</time>
      </trkpt>
      <trkpt lat="45.78218" lon="1.84717">
        <ele>665.4</ele>
        <time>2026-08-08T13:41:53.000Z</time>
      </trkpt>
      <trkpt lat="45.7822" lon="1.84718">
        <ele>665.5</ele>
        <time>2026-08-08T13:41:54.000Z</time>
      </trkpt>
      <trkpt lat="45.78232" lon="1.84723">
        <ele>666</ele>
        <time>2026-08-08T13:42:01.000Z</time>
      </trkpt>
      <trkpt lat="45.78234" lon="1.84723">
        <ele>666.1</ele>
        <time>2026-08-08T13:42:02.000Z</time>
      </trkpt>
      <trkpt lat="45.78245" lon="1.84729">
        <ele>666.4</ele>
        <time>2026-08-08T13:42:09.000Z</time>
      </trkpt>
      <trkpt lat="45.78247" lon="1.84731">
        <ele>666.6</ele>
        <time>2026-08-08T13:42:11.000Z</time>
      </trkpt>
      <trkpt lat="45.78258" lon="1.84737">
        <ele>667.9</ele>
        <time>2026-08-08T13:42:18.000Z</time>
      </trkpt>
      <trkpt lat="45.78271" lon="1.84745">
        <ele>669.3</ele>
        <time>2026-08-08T13:42:27.000Z</time>
      </trkpt>
      <trkpt lat="45.78273" lon="1.84746">
        <ele>669.5</ele>
        <time>2026-08-08T13:42:28.000Z</time>
      </trkpt>
      <trkpt lat="45.78283" lon="1.84754">
        <ele>669.9</ele>
        <time>2026-08-08T13:42:35.000Z</time>
      </trkpt>
      <trkpt lat="45.78285" lon="1.84755">
        <ele>670.1</ele>
        <time>2026-08-08T13:42:37.000Z</time>
      </trkpt>
      <trkpt lat="45.78292" lon="1.8476">
        <ele>670.5</ele>
        <time>2026-08-08T13:42:42.000Z</time>
      </trkpt>
      <trkpt lat="45.78298" lon="1.84762">
        <ele>671.3</ele>
        <time>2026-08-08T13:42:46.000Z</time>
      </trkpt>
      <trkpt lat="45.78308" lon="1.84768">
        <ele>672.8</ele>
        <time>2026-08-08T13:42:53.000Z</time>
      </trkpt>
      <trkpt lat="45.7831" lon="1.84769">
        <ele>673.1</ele>
        <time>2026-08-08T13:42:54.000Z</time>
      </trkpt>
      <trkpt lat="45.78312" lon="1.8477">
        <ele>673.6</ele>
        <time>2026-08-08T13:42:56.000Z</time>
      </trkpt>
      <trkpt lat="45.78317" lon="1.84773">
        <ele>674.1</ele>
        <time>2026-08-08T13:42:59.000Z</time>
      </trkpt>
      <trkpt lat="45.78325" lon="1.84777">
        <ele>674.8</ele>
        <time>2026-08-08T13:43:04.000Z</time>
      </trkpt>
      <trkpt lat="45.7833" lon="1.8478">
        <ele>675.2</ele>
        <time>2026-08-08T13:43:07.000Z</time>
      </trkpt>
      <trkpt lat="45.78338" lon="1.84785">
        <ele>675.9</ele>
        <time>2026-08-08T13:43:12.000Z</time>
      </trkpt>
      <trkpt lat="45.78345" lon="1.84791">
        <ele>676.8</ele>
        <time>2026-08-08T13:43:17.000Z</time>
      </trkpt>
      <trkpt lat="45.78348" lon="1.84793">
        <ele>677.3</ele>
        <time>2026-08-08T13:43:19.000Z</time>
      </trkpt>
      <trkpt lat="45.78358" lon="1.84799">
        <ele>678.6</ele>
        <time>2026-08-08T13:43:25.000Z</time>
      </trkpt>
      <trkpt lat="45.78359" lon="1.848">
        <ele>678.8</ele>
        <time>2026-08-08T13:43:26.000Z</time>
      </trkpt>
      <trkpt lat="45.7837" lon="1.84807">
        <ele>678.7</ele>
        <time>2026-08-08T13:43:33.000Z</time>
      </trkpt>
      <trkpt lat="45.78372" lon="1.84808">
        <ele>678.7</ele>
        <time>2026-08-08T13:43:34.000Z</time>
      </trkpt>
      <trkpt lat="45.78383" lon="1.84816">
        <ele>679.2</ele>
        <time>2026-08-08T13:43:41.000Z</time>
      </trkpt>
      <trkpt lat="45.78387" lon="1.84818">
        <ele>679.6</ele>
        <time>2026-08-08T13:43:43.000Z</time>
      </trkpt>
      <trkpt lat="45.78399" lon="1.84825">
        <ele>681.7</ele>
        <time>2026-08-08T13:43:50.000Z</time>
      </trkpt>
      <trkpt lat="45.78408" lon="1.8483">
        <ele>682.6</ele>
        <time>2026-08-08T13:43:55.000Z</time>
      </trkpt>
      <trkpt lat="45.7841" lon="1.84831">
        <ele>682.6</ele>
        <time>2026-08-08T13:43:56.000Z</time>
      </trkpt>
      <trkpt lat="45.78413" lon="1.84833">
        <ele>682.5</ele>
        <time>2026-08-08T13:43:58.000Z</time>
      </trkpt>
      <trkpt lat="45.78419" lon="1.84835">
        <ele>682.9</ele>
        <time>2026-08-08T13:44:01.000Z</time>
      </trkpt>
      <trkpt lat="45.78427" lon="1.8484">
        <ele>683.3</ele>
        <time>2026-08-08T13:44:06.000Z</time>
      </trkpt>
      <trkpt lat="45.78435" lon="1.84843">
        <ele>684.1</ele>
        <time>2026-08-08T13:44:11.000Z</time>
      </trkpt>
      <trkpt lat="45.7844" lon="1.84845">
        <ele>684.6</ele>
        <time>2026-08-08T13:44:14.000Z</time>
      </trkpt>
      <trkpt lat="45.78447" lon="1.84848">
        <ele>685.5</ele>
        <time>2026-08-08T13:44:18.000Z</time>
      </trkpt>
      <trkpt lat="45.78452" lon="1.84851">
        <ele>685.7</ele>
        <time>2026-08-08T13:44:21.000Z</time>
      </trkpt>
      <trkpt lat="45.78463" lon="1.84855">
        <ele>686.9</ele>
        <time>2026-08-08T13:44:27.000Z</time>
      </trkpt>
      <trkpt lat="45.78468" lon="1.84857">
        <ele>687.2</ele>
        <time>2026-08-08T13:44:30.000Z</time>
      </trkpt>
      <trkpt lat="45.78479" lon="1.84862">
        <ele>687.5</ele>
        <time>2026-08-08T13:44:36.000Z</time>
      </trkpt>
      <trkpt lat="45.78495" lon="1.84867">
        <ele>687.8</ele>
        <time>2026-08-08T13:44:45.000Z</time>
      </trkpt>
      <trkpt lat="45.785" lon="1.8487">
        <ele>687.9</ele>
        <time>2026-08-08T13:44:48.000Z</time>
      </trkpt>
      <trkpt lat="45.78509" lon="1.84873">
        <ele>688.5</ele>
        <time>2026-08-08T13:44:53.000Z</time>
      </trkpt>
      <trkpt lat="45.78515" lon="1.84875">
        <ele>689</ele>
        <time>2026-08-08T13:44:56.000Z</time>
      </trkpt>
      <trkpt lat="45.78518" lon="1.84875">
        <ele>689.4</ele>
        <time>2026-08-08T13:44:58.000Z</time>
      </trkpt>
      <trkpt lat="45.78523" lon="1.84877">
        <ele>689.9</ele>
        <time>2026-08-08T13:45:01.000Z</time>
      </trkpt>
      <trkpt lat="45.78525" lon="1.84878">
        <ele>690.1</ele>
        <time>2026-08-08T13:45:02.000Z</time>
      </trkpt>
      <trkpt lat="45.78538" lon="1.84882">
        <ele>691.4</ele>
        <time>2026-08-08T13:45:10.000Z</time>
      </trkpt>
      <trkpt lat="45.7854" lon="1.84883">
        <ele>691.5</ele>
        <time>2026-08-08T13:45:11.000Z</time>
      </trkpt>
      <trkpt lat="45.78548" lon="1.84885">
        <ele>692.1</ele>
        <time>2026-08-08T13:45:16.000Z</time>
      </trkpt>
      <trkpt lat="45.7856" lon="1.84889">
        <ele>692.4</ele>
        <time>2026-08-08T13:45:23.000Z</time>
      </trkpt>
      <trkpt lat="45.78561" lon="1.84889">
        <ele>692.4</ele>
        <time>2026-08-08T13:45:24.000Z</time>
      </trkpt>
      <trkpt lat="45.78575" lon="1.84894">
        <ele>692.9</ele>
        <time>2026-08-08T13:45:32.000Z</time>
      </trkpt>
      <trkpt lat="45.78579" lon="1.84895">
        <ele>693.1</ele>
        <time>2026-08-08T13:45:34.000Z</time>
      </trkpt>
      <trkpt lat="45.78591" lon="1.849">
        <ele>694.6</ele>
        <time>2026-08-08T13:45:41.000Z</time>
      </trkpt>
      <trkpt lat="45.78595" lon="1.849">
        <ele>695.3</ele>
        <time>2026-08-08T13:45:43.000Z</time>
      </trkpt>
      <trkpt lat="45.78607" lon="1.84904">
        <ele>696.6</ele>
        <time>2026-08-08T13:45:50.000Z</time>
      </trkpt>
      <trkpt lat="45.78609" lon="1.84906">
        <ele>696.7</ele>
        <time>2026-08-08T13:45:52.000Z</time>
      </trkpt>
      <trkpt lat="45.78621" lon="1.8491">
        <ele>697.1</ele>
        <time>2026-08-08T13:45:58.000Z</time>
      </trkpt>
      <trkpt lat="45.78628" lon="1.84913">
        <ele>697.2</ele>
        <time>2026-08-08T13:46:02.000Z</time>
      </trkpt>
      <trkpt lat="45.78632" lon="1.84914">
        <ele>697.2</ele>
        <time>2026-08-08T13:46:04.000Z</time>
      </trkpt>
      <trkpt lat="45.78645" lon="1.8492">
        <ele>697.1</ele>
        <time>2026-08-08T13:46:12.000Z</time>
      </trkpt>
      <trkpt lat="45.78655" lon="1.84924">
        <ele>697.5</ele>
        <time>2026-08-08T13:46:18.000Z</time>
      </trkpt>
      <trkpt lat="45.78669" lon="1.8493">
        <ele>698.3</ele>
        <time>2026-08-08T13:46:27.000Z</time>
      </trkpt>
      <trkpt lat="45.78679" lon="1.84934">
        <ele>698.8</ele>
        <time>2026-08-08T13:46:34.000Z</time>
      </trkpt>
      <trkpt lat="45.78682" lon="1.84936">
        <ele>698.9</ele>
        <time>2026-08-08T13:46:36.000Z</time>
      </trkpt>
      <trkpt lat="45.78699" lon="1.84941">
        <ele>698.8</ele>
        <time>2026-08-08T13:46:46.000Z</time>
      </trkpt>
      <trkpt lat="45.78712" lon="1.84944">
        <ele>698.6</ele>
        <time>2026-08-08T13:46:53.000Z</time>
      </trkpt>
      <trkpt lat="45.78715" lon="1.84945">
        <ele>698.5</ele>
        <time>2026-08-08T13:46:55.000Z</time>
      </trkpt>
      <trkpt lat="45.78727" lon="1.84948">
        <ele>698.1</ele>
        <time>2026-08-08T13:47:02.000Z</time>
      </trkpt>
      <trkpt lat="45.78737" lon="1.84952">
        <ele>697.7</ele>
        <time>2026-08-08T13:47:09.000Z</time>
      </trkpt>
      <trkpt lat="45.78742" lon="1.84954">
        <ele>697.7</ele>
        <time>2026-08-08T13:47:13.000Z</time>
      </trkpt>
      <trkpt lat="45.78747" lon="1.84955">
        <ele>697.8</ele>
        <time>2026-08-08T13:47:16.000Z</time>
      </trkpt>
      <trkpt lat="45.78759" lon="1.84961">
        <ele>697.9</ele>
        <time>2026-08-08T13:47:24.000Z</time>
      </trkpt>
      <trkpt lat="45.78772" lon="1.84965">
        <ele>698.5</ele>
        <time>2026-08-08T13:47:31.000Z</time>
      </trkpt>
      <trkpt lat="45.78792" lon="1.84973">
        <ele>698.7</ele>
        <time>2026-08-08T13:47:40.000Z</time>
      </trkpt>
      <trkpt lat="45.78794" lon="1.84974">
        <ele>698.6</ele>
        <time>2026-08-08T13:47:41.000Z</time>
      </trkpt>
      <trkpt lat="45.7881" lon="1.84985">
        <ele>697.9</ele>
        <time>2026-08-08T13:47:48.000Z</time>
      </trkpt>
      <trkpt lat="45.78825" lon="1.84995">
        <ele>699.2</ele>
        <time>2026-08-08T13:47:55.000Z</time>
      </trkpt>
      <trkpt lat="45.78848" lon="1.8501">
        <ele>699.9</ele>
        <time>2026-08-08T13:48:05.000Z</time>
      </trkpt>
      <trkpt lat="45.78879" lon="1.85032">
        <ele>698.7</ele>
        <time>2026-08-08T13:48:17.000Z</time>
      </trkpt>
      <trkpt lat="45.78898" lon="1.85045">
        <ele>699.4</ele>
        <time>2026-08-08T13:48:24.000Z</time>
      </trkpt>
      <trkpt lat="45.78904" lon="1.8505">
        <ele>699.8</ele>
        <time>2026-08-08T13:48:26.000Z</time>
      </trkpt>
      <trkpt lat="45.78911" lon="1.85053">
        <ele>700.5</ele>
        <time>2026-08-08T13:48:29.000Z</time>
      </trkpt>
      <trkpt lat="45.78923" lon="1.85062">
        <ele>700.2</ele>
        <time>2026-08-08T13:48:33.000Z</time>
      </trkpt>
      <trkpt lat="45.78949" lon="1.85078">
        <ele>700.3</ele>
        <time>2026-08-08T13:48:42.000Z</time>
      </trkpt>
      <trkpt lat="45.78959" lon="1.85086">
        <ele>700</ele>
        <time>2026-08-08T13:48:46.000Z</time>
      </trkpt>
      <trkpt lat="45.78969" lon="1.85093">
        <ele>699.8</ele>
        <time>2026-08-08T13:48:50.000Z</time>
      </trkpt>
      <trkpt lat="45.78991" lon="1.85105">
        <ele>701.2</ele>
        <time>2026-08-08T13:48:58.000Z</time>
      </trkpt>
      <trkpt lat="45.79017" lon="1.85114">
        <ele>701.1</ele>
        <time>2026-08-08T13:49:06.000Z</time>
      </trkpt>
      <trkpt lat="45.79049" lon="1.8512">
        <ele>699.8</ele>
        <time>2026-08-08T13:49:15.000Z</time>
      </trkpt>
      <trkpt lat="45.79066" lon="1.85122">
        <ele>699.4</ele>
        <time>2026-08-08T13:49:20.000Z</time>
      </trkpt>
      <trkpt lat="45.79073" lon="1.85121">
        <ele>699.8</ele>
        <time>2026-08-08T13:49:22.000Z</time>
      </trkpt>
      <trkpt lat="45.79089" lon="1.85121">
        <ele>700.1</ele>
        <time>2026-08-08T13:49:27.000Z</time>
      </trkpt>
      <trkpt lat="45.79122" lon="1.85117">
        <ele>701</ele>
        <time>2026-08-08T13:49:36.000Z</time>
      </trkpt>
      <trkpt lat="45.79148" lon="1.85111">
        <ele>702</ele>
        <time>2026-08-08T13:49:42.000Z</time>
      </trkpt>
      <trkpt lat="45.79173" lon="1.85112">
        <ele>701.2</ele>
        <time>2026-08-08T13:49:48.000Z</time>
      </trkpt>
      <trkpt lat="45.7921" lon="1.85101">
        <ele>700.1</ele>
        <time>2026-08-08T13:49:57.000Z</time>
      </trkpt>
      <trkpt lat="45.79233" lon="1.85096">
        <ele>700.1</ele>
        <time>2026-08-08T13:50:03.000Z</time>
      </trkpt>
      <trkpt lat="45.7926" lon="1.85091">
        <ele>700.2</ele>
        <time>2026-08-08T13:50:11.000Z</time>
      </trkpt>
      <trkpt lat="45.7929" lon="1.85084">
        <ele>700.8</ele>
        <time>2026-08-08T13:50:19.000Z</time>
      </trkpt>
      <trkpt lat="45.79321" lon="1.85076">
        <ele>700.2</ele>
        <time>2026-08-08T13:50:28.000Z</time>
      </trkpt>
      <trkpt lat="45.79348" lon="1.85062">
        <ele>700.2</ele>
        <time>2026-08-08T13:50:36.000Z</time>
      </trkpt>
      <trkpt lat="45.79369" lon="1.85044">
        <ele>701</ele>
        <time>2026-08-08T13:50:42.000Z</time>
      </trkpt>
      <trkpt lat="45.7939" lon="1.85021">
        <ele>700.4</ele>
        <time>2026-08-08T13:50:48.000Z</time>
      </trkpt>
      <trkpt lat="45.79396" lon="1.85012">
        <ele>700</ele>
        <time>2026-08-08T13:50:50.000Z</time>
      </trkpt>
      <trkpt lat="45.79405" lon="1.84997">
        <ele>699.8</ele>
        <time>2026-08-08T13:50:53.000Z</time>
      </trkpt>
      <trkpt lat="45.79419" lon="1.84979">
        <ele>698.9</ele>
        <time>2026-08-08T13:50:57.000Z</time>
      </trkpt>
      <trkpt lat="45.79442" lon="1.84945">
        <ele>699.5</ele>
        <time>2026-08-08T13:51:04.000Z</time>
      </trkpt>
      <trkpt lat="45.79456" lon="1.84922">
        <ele>697.9</ele>
        <time>2026-08-08T13:51:08.000Z</time>
      </trkpt>
      <trkpt lat="45.79463" lon="1.84912">
        <ele>697.8</ele>
        <time>2026-08-08T13:51:10.000Z</time>
      </trkpt>
      <trkpt lat="45.79466" lon="1.84907">
        <ele>697.8</ele>
        <time>2026-08-08T13:51:11.000Z</time>
      </trkpt>
      <trkpt lat="45.79486" lon="1.84874">
        <ele>697.3</ele>
        <time>2026-08-08T13:51:17.000Z</time>
      </trkpt>
      <trkpt lat="45.79493" lon="1.84862">
        <ele>697.3</ele>
        <time>2026-08-08T13:51:19.000Z</time>
      </trkpt>
      <trkpt lat="45.79508" lon="1.84833">
        <ele>696.1</ele>
        <time>2026-08-08T13:51:24.000Z</time>
      </trkpt>
      <trkpt lat="45.79511" lon="1.84827">
        <ele>696.1</ele>
        <time>2026-08-08T13:51:25.000Z</time>
      </trkpt>
      <trkpt lat="45.79516" lon="1.84816">
        <ele>696.2</ele>
        <time>2026-08-08T13:51:27.000Z</time>
      </trkpt>
      <trkpt lat="45.79521" lon="1.84791">
        <ele>697.8</ele>
        <time>2026-08-08T13:51:31.000Z</time>
      </trkpt>
      <trkpt lat="45.79527" lon="1.84766">
        <ele>698.2</ele>
        <time>2026-08-08T13:51:35.000Z</time>
      </trkpt>
      <trkpt lat="45.7953" lon="1.84753">
        <ele>697.4</ele>
        <time>2026-08-08T13:51:37.000Z</time>
      </trkpt>
      <trkpt lat="45.7953" lon="1.84747">
        <ele>697.5</ele>
        <time>2026-08-08T13:51:38.000Z</time>
      </trkpt>
      <trkpt lat="45.79545" lon="1.84677">
        <ele>698.1</ele>
        <time>2026-08-08T13:51:48.000Z</time>
      </trkpt>
      <trkpt lat="45.79552" lon="1.84642">
        <ele>697.3</ele>
        <time>2026-08-08T13:51:53.000Z</time>
      </trkpt>
      <trkpt lat="45.79555" lon="1.84628">
        <ele>696.8</ele>
        <time>2026-08-08T13:51:55.000Z</time>
      </trkpt>
      <trkpt lat="45.79567" lon="1.84571">
        <ele>694.9</ele>
        <time>2026-08-08T13:52:04.000Z</time>
      </trkpt>
      <trkpt lat="45.79571" lon="1.84557">
        <ele>694.6</ele>
        <time>2026-08-08T13:52:06.000Z</time>
      </trkpt>
      <trkpt lat="45.79583" lon="1.84501">
        <ele>695.9</ele>
        <time>2026-08-08T13:52:14.000Z</time>
      </trkpt>
      <trkpt lat="45.79596" lon="1.84438">
        <ele>693.8</ele>
        <time>2026-08-08T13:52:23.000Z</time>
      </trkpt>
      <trkpt lat="45.79597" lon="1.84399">
        <ele>694.8</ele>
        <time>2026-08-08T13:52:28.000Z</time>
      </trkpt>
      <trkpt lat="45.79596" lon="1.84392">
        <ele>694.8</ele>
        <time>2026-08-08T13:52:29.000Z</time>
      </trkpt>
      <trkpt lat="45.79589" lon="1.84352">
        <ele>694.1</ele>
        <time>2026-08-08T13:52:34.000Z</time>
      </trkpt>
      <trkpt lat="45.79583" lon="1.84327">
        <ele>694</ele>
        <time>2026-08-08T13:52:37.000Z</time>
      </trkpt>
      <trkpt lat="45.79583" lon="1.84319">
        <ele>694.2</ele>
        <time>2026-08-08T13:52:38.000Z</time>
      </trkpt>
      <trkpt lat="45.79581" lon="1.84283">
        <ele>693.6</ele>
        <time>2026-08-08T13:52:42.000Z</time>
      </trkpt>
      <trkpt lat="45.79581" lon="1.84275">
        <ele>693.4</ele>
        <time>2026-08-08T13:52:43.000Z</time>
      </trkpt>
      <trkpt lat="45.79583" lon="1.8426">
        <ele>693.1</ele>
        <time>2026-08-08T13:52:45.000Z</time>
      </trkpt>
      <trkpt lat="45.79587" lon="1.84244">
        <ele>692.3</ele>
        <time>2026-08-08T13:52:47.000Z</time>
      </trkpt>
      <trkpt lat="45.79589" lon="1.84237">
        <ele>691.8</ele>
        <time>2026-08-08T13:52:48.000Z</time>
      </trkpt>
      <trkpt lat="45.796" lon="1.84212">
        <ele>690.7</ele>
        <time>2026-08-08T13:52:52.000Z</time>
      </trkpt>
      <trkpt lat="45.7962" lon="1.84187">
        <ele>691.7</ele>
        <time>2026-08-08T13:52:57.000Z</time>
      </trkpt>
      <trkpt lat="45.79624" lon="1.84183">
        <ele>691.7</ele>
        <time>2026-08-08T13:52:58.000Z</time>
      </trkpt>
      <trkpt lat="45.7963" lon="1.8418">
        <ele>691.6</ele>
        <time>2026-08-08T13:52:59.000Z</time>
      </trkpt>
      <trkpt lat="45.79653" lon="1.84169">
        <ele>691.7</ele>
        <time>2026-08-08T13:53:04.000Z</time>
      </trkpt>
      <trkpt lat="45.79678" lon="1.8416">
        <ele>692.9</ele>
        <time>2026-08-08T13:53:10.000Z</time>
      </trkpt>
      <trkpt lat="45.79699" lon="1.84157">
        <ele>693.5</ele>
        <time>2026-08-08T13:53:16.000Z</time>
      </trkpt>
      <trkpt lat="45.79735" lon="1.8415">
        <ele>693.5</ele>
        <time>2026-08-08T13:53:27.000Z</time>
      </trkpt>
      <trkpt lat="45.79761" lon="1.84143">
        <ele>693.4</ele>
        <time>2026-08-08T13:53:35.000Z</time>
      </trkpt>
      <trkpt lat="45.79777" lon="1.84136">
        <ele>694.7</ele>
        <time>2026-08-08T13:53:40.000Z</time>
      </trkpt>
      <trkpt lat="45.79784" lon="1.84133">
        <ele>694.6</ele>
        <time>2026-08-08T13:53:42.000Z</time>
      </trkpt>
      <trkpt lat="45.79801" lon="1.84124">
        <ele>694.3</ele>
        <time>2026-08-08T13:53:48.000Z</time>
      </trkpt>
      <trkpt lat="45.79831" lon="1.84109">
        <ele>694.5</ele>
        <time>2026-08-08T13:53:58.000Z</time>
      </trkpt>
      <trkpt lat="45.79844" lon="1.84101">
        <ele>693.7</ele>
        <time>2026-08-08T13:54:03.000Z</time>
      </trkpt>
      <trkpt lat="45.79851" lon="1.84096">
        <ele>693.9</ele>
        <time>2026-08-08T13:54:05.000Z</time>
      </trkpt>
      <trkpt lat="45.79865" lon="1.84088">
        <ele>695</ele>
        <time>2026-08-08T13:54:10.000Z</time>
      </trkpt>
      <trkpt lat="45.79882" lon="1.84079">
        <ele>695.4</ele>
        <time>2026-08-08T13:54:15.000Z</time>
      </trkpt>
      <trkpt lat="45.7989" lon="1.84074">
        <ele>695.2</ele>
        <time>2026-08-08T13:54:18.000Z</time>
      </trkpt>
      <trkpt lat="45.79911" lon="1.8406">
        <ele>696.9</ele>
        <time>2026-08-08T13:54:25.000Z</time>
      </trkpt>
      <trkpt lat="45.7994" lon="1.84043">
        <ele>697.3</ele>
        <time>2026-08-08T13:54:34.000Z</time>
      </trkpt>
      <trkpt lat="45.79946" lon="1.8404">
        <ele>697.1</ele>
        <time>2026-08-08T13:54:36.000Z</time>
      </trkpt>
      <trkpt lat="45.79956" lon="1.84035">
        <ele>697.3</ele>
        <time>2026-08-08T13:54:39.000Z</time>
      </trkpt>
      <trkpt lat="45.79964" lon="1.8403">
        <ele>697.8</ele>
        <time>2026-08-08T13:54:42.000Z</time>
      </trkpt>
      <trkpt lat="45.79977" lon="1.8402">
        <ele>698.7</ele>
        <time>2026-08-08T13:54:48.000Z</time>
      </trkpt>
      <trkpt lat="45.79979" lon="1.84019">
        <ele>698.7</ele>
        <time>2026-08-08T13:54:52.000Z</time>
      </trkpt>
      <trkpt lat="45.79983" lon="1.84026">
        <ele>697.8</ele>
        <time>2026-08-08T13:56:35.000Z</time>
      </trkpt>
      <trkpt lat="45.79995" lon="1.84027">
        <ele>697.2</ele>
        <time>2026-08-08T13:56:39.000Z</time>
      </trkpt>
      <trkpt lat="45.80012" lon="1.8403">
        <ele>696.7</ele>
        <time>2026-08-08T13:56:44.000Z</time>
      </trkpt>
      <trkpt lat="45.80036" lon="1.84041">
        <ele>695.7</ele>
        <time>2026-08-08T13:56:50.000Z</time>
      </trkpt>
      <trkpt lat="45.8004" lon="1.84043">
        <ele>695.7</ele>
        <time>2026-08-08T13:56:51.000Z</time>
      </trkpt>
      <trkpt lat="45.80052" lon="1.84052">
        <ele>696</ele>
        <time>2026-08-08T13:56:54.000Z</time>
      </trkpt>
      <trkpt lat="45.80057" lon="1.84055">
        <ele>696.1</ele>
        <time>2026-08-08T13:56:55.000Z</time>
      </trkpt>
      <trkpt lat="45.80088" lon="1.84097">
        <ele>695.1</ele>
        <time>2026-08-08T13:57:03.000Z</time>
      </trkpt>
      <trkpt lat="45.80098" lon="1.84119">
        <ele>694.1</ele>
        <time>2026-08-08T13:57:06.000Z</time>
      </trkpt>
      <trkpt lat="45.80103" lon="1.84134">
        <ele>692.3</ele>
        <time>2026-08-08T13:57:08.000Z</time>
      </trkpt>
      <trkpt lat="45.80108" lon="1.84149">
        <ele>691.4</ele>
        <time>2026-08-08T13:57:10.000Z</time>
      </trkpt>
      <trkpt lat="45.8011" lon="1.84157">
        <ele>691.3</ele>
        <time>2026-08-08T13:57:11.000Z</time>
      </trkpt>
      <trkpt lat="45.80118" lon="1.84188">
        <ele>690.5</ele>
        <time>2026-08-08T13:57:15.000Z</time>
      </trkpt>
      <trkpt lat="45.80124" lon="1.84218">
        <ele>688.4</ele>
        <time>2026-08-08T13:57:19.000Z</time>
      </trkpt>
      <trkpt lat="45.80129" lon="1.84239">
        <ele>686.7</ele>
        <time>2026-08-08T13:57:22.000Z</time>
      </trkpt>
      <trkpt lat="45.80134" lon="1.8426">
        <ele>685.4</ele>
        <time>2026-08-08T13:57:25.000Z</time>
      </trkpt>
      <trkpt lat="45.8014" lon="1.84281">
        <ele>684.7</ele>
        <time>2026-08-08T13:57:28.000Z</time>
      </trkpt>
      <trkpt lat="45.80143" lon="1.84288">
        <ele>684.2</ele>
        <time>2026-08-08T13:57:29.000Z</time>
      </trkpt>
      <trkpt lat="45.80146" lon="1.84297">
        <ele>683.4</ele>
        <time>2026-08-08T13:57:30.000Z</time>
      </trkpt>
      <trkpt lat="45.80152" lon="1.8431">
        <ele>682.1</ele>
        <time>2026-08-08T13:57:32.000Z</time>
      </trkpt>
      <trkpt lat="45.80172" lon="1.84336">
        <ele>681</ele>
        <time>2026-08-08T13:57:36.000Z</time>
      </trkpt>
      <trkpt lat="45.80178" lon="1.84341">
        <ele>680.7</ele>
        <time>2026-08-08T13:57:37.000Z</time>
      </trkpt>
      <trkpt lat="45.80189" lon="1.8435">
        <ele>680.1</ele>
        <time>2026-08-08T13:57:39.000Z</time>
      </trkpt>
      <trkpt lat="45.802" lon="1.84357">
        <ele>679.2</ele>
        <time>2026-08-08T13:57:41.000Z</time>
      </trkpt>
      <trkpt lat="45.80205" lon="1.84359">
        <ele>678.6</ele>
        <time>2026-08-08T13:57:42.000Z</time>
      </trkpt>
      <trkpt lat="45.80215" lon="1.84362">
        <ele>677.4</ele>
        <time>2026-08-08T13:57:44.000Z</time>
      </trkpt>
      <trkpt lat="45.8022" lon="1.84363">
        <ele>676.9</ele>
        <time>2026-08-08T13:57:45.000Z</time>
      </trkpt>
      <trkpt lat="45.80237" lon="1.84362">
        <ele>675.2</ele>
        <time>2026-08-08T13:57:48.000Z</time>
      </trkpt>
      <trkpt lat="45.80241" lon="1.84361">
        <ele>675.1</ele>
        <time>2026-08-08T13:57:49.000Z</time>
      </trkpt>
      <trkpt lat="45.80246" lon="1.84359">
        <ele>675.1</ele>
        <time>2026-08-08T13:57:50.000Z</time>
      </trkpt>
      <trkpt lat="45.80255" lon="1.84353">
        <ele>674.9</ele>
        <time>2026-08-08T13:57:52.000Z</time>
      </trkpt>
      <trkpt lat="45.8027" lon="1.84342">
        <ele>673.7</ele>
        <time>2026-08-08T13:57:55.000Z</time>
      </trkpt>
      <trkpt lat="45.80275" lon="1.84338">
        <ele>672.9</ele>
        <time>2026-08-08T13:57:56.000Z</time>
      </trkpt>
      <trkpt lat="45.80287" lon="1.84328">
        <ele>673.7</ele>
        <time>2026-08-08T13:57:58.000Z</time>
      </trkpt>
      <trkpt lat="45.80293" lon="1.84323">
        <ele>673.8</ele>
        <time>2026-08-08T13:57:59.000Z</time>
      </trkpt>
      <trkpt lat="45.80299" lon="1.84318">
        <ele>673.2</ele>
        <time>2026-08-08T13:58:00.000Z</time>
      </trkpt>
      <trkpt lat="45.80311" lon="1.84308">
        <ele>671.6</ele>
        <time>2026-08-08T13:58:02.000Z</time>
      </trkpt>
      <trkpt lat="45.80318" lon="1.84303">
        <ele>671.9</ele>
        <time>2026-08-08T13:58:03.000Z</time>
      </trkpt>
      <trkpt lat="45.80349" lon="1.84281">
        <ele>670.6</ele>
        <time>2026-08-08T13:58:08.000Z</time>
      </trkpt>
      <trkpt lat="45.80379" lon="1.84261">
        <ele>670</ele>
        <time>2026-08-08T13:58:13.000Z</time>
      </trkpt>
      <trkpt lat="45.80429" lon="1.84229">
        <ele>668.2</ele>
        <time>2026-08-08T13:58:21.000Z</time>
      </trkpt>
      <trkpt lat="45.8046" lon="1.84195">
        <ele>666.7</ele>
        <time>2026-08-08T13:58:27.000Z</time>
      </trkpt>
      <trkpt lat="45.80473" lon="1.84176">
        <ele>665.6</ele>
        <time>2026-08-08T13:58:30.000Z</time>
      </trkpt>
      <trkpt lat="45.80479" lon="1.84169">
        <ele>665.2</ele>
        <time>2026-08-08T13:58:31.000Z</time>
      </trkpt>
      <trkpt lat="45.80483" lon="1.84162">
        <ele>665.2</ele>
        <time>2026-08-08T13:58:32.000Z</time>
      </trkpt>
      <trkpt lat="45.80499" lon="1.84138">
        <ele>664.3</ele>
        <time>2026-08-08T13:58:35.000Z</time>
      </trkpt>
      <trkpt lat="45.80515" lon="1.84114">
        <ele>661.1</ele>
        <time>2026-08-08T13:58:38.000Z</time>
      </trkpt>
      <trkpt lat="45.80535" lon="1.84085">
        <ele>662</ele>
        <time>2026-08-08T13:58:42.000Z</time>
      </trkpt>
      <trkpt lat="45.80539" lon="1.84079">
        <ele>661.7</ele>
        <time>2026-08-08T13:58:43.000Z</time>
      </trkpt>
      <trkpt lat="45.80549" lon="1.84059">
        <ele>662.4</ele>
        <time>2026-08-08T13:58:46.000Z</time>
      </trkpt>
      <trkpt lat="45.80552" lon="1.84047">
        <ele>663.4</ele>
        <time>2026-08-08T13:58:48.000Z</time>
      </trkpt>
      <trkpt lat="45.80553" lon="1.8404">
        <ele>664</ele>
        <time>2026-08-08T13:58:49.000Z</time>
      </trkpt>
      <trkpt lat="45.8055" lon="1.84025">
        <ele>665.5</ele>
        <time>2026-08-08T13:58:51.000Z</time>
      </trkpt>
      <trkpt lat="45.80549" lon="1.84017">
        <ele>665.6</ele>
        <time>2026-08-08T13:58:52.000Z</time>
      </trkpt>
      <trkpt lat="45.80548" lon="1.8401">
        <ele>665.7</ele>
        <time>2026-08-08T13:58:53.000Z</time>
      </trkpt>
      <trkpt lat="45.80542" lon="1.83989">
        <ele>665.6</ele>
        <time>2026-08-08T13:58:56.000Z</time>
      </trkpt>
      <trkpt lat="45.80536" lon="1.83974">
        <ele>665.1</ele>
        <time>2026-08-08T13:58:58.000Z</time>
      </trkpt>
      <trkpt lat="45.80526" lon="1.83954">
        <ele>663.8</ele>
        <time>2026-08-08T13:59:01.000Z</time>
      </trkpt>
      <trkpt lat="45.80522" lon="1.83946">
        <ele>663.6</ele>
        <time>2026-08-08T13:59:02.000Z</time>
      </trkpt>
      <trkpt lat="45.80503" lon="1.83916">
        <ele>661.8</ele>
        <time>2026-08-08T13:59:06.000Z</time>
      </trkpt>
      <trkpt lat="45.80488" lon="1.83889">
        <ele>659.5</ele>
        <time>2026-08-08T13:59:09.000Z</time>
      </trkpt>
      <trkpt lat="45.80483" lon="1.83881">
        <ele>659.1</ele>
        <time>2026-08-08T13:59:10.000Z</time>
      </trkpt>
      <trkpt lat="45.80478" lon="1.83872">
        <ele>658.9</ele>
        <time>2026-08-08T13:59:11.000Z</time>
      </trkpt>
      <trkpt lat="45.80474" lon="1.83861">
        <ele>658.8</ele>
        <time>2026-08-08T13:59:12.000Z</time>
      </trkpt>
      <trkpt lat="45.80471" lon="1.83849">
        <ele>658.3</ele>
        <time>2026-08-08T13:59:13.000Z</time>
      </trkpt>
      <trkpt lat="45.80469" lon="1.83837">
        <ele>657.6</ele>
        <time>2026-08-08T13:59:14.000Z</time>
      </trkpt>
      <trkpt lat="45.80469" lon="1.83811">
        <ele>657.6</ele>
        <time>2026-08-08T13:59:16.000Z</time>
      </trkpt>
      <trkpt lat="45.8047" lon="1.838">
        <ele>657.8</ele>
        <time>2026-08-08T13:59:17.000Z</time>
      </trkpt>
      <trkpt lat="45.80473" lon="1.8377">
        <ele>657.7</ele>
        <time>2026-08-08T13:59:20.000Z</time>
      </trkpt>
      <trkpt lat="45.80473" lon="1.8375">
        <ele>656.9</ele>
        <time>2026-08-08T13:59:22.000Z</time>
      </trkpt>
      <trkpt lat="45.80473" lon="1.83739">
        <ele>656.6</ele>
        <time>2026-08-08T13:59:23.000Z</time>
      </trkpt>
      <trkpt lat="45.80471" lon="1.83728">
        <ele>656.4</ele>
        <time>2026-08-08T13:59:24.000Z</time>
      </trkpt>
      <trkpt lat="45.80464" lon="1.83696">
        <ele>654.3</ele>
        <time>2026-08-08T13:59:27.000Z</time>
      </trkpt>
      <trkpt lat="45.80461" lon="1.83684">
        <ele>653.1</ele>
        <time>2026-08-08T13:59:28.000Z</time>
      </trkpt>
      <trkpt lat="45.80459" lon="1.83673">
        <ele>651.7</ele>
        <time>2026-08-08T13:59:29.000Z</time>
      </trkpt>
      <trkpt lat="45.80459" lon="1.83649">
        <ele>650.2</ele>
        <time>2026-08-08T13:59:31.000Z</time>
      </trkpt>
      <trkpt lat="45.80461" lon="1.83637">
        <ele>649.9</ele>
        <time>2026-08-08T13:59:32.000Z</time>
      </trkpt>
      <trkpt lat="45.80465" lon="1.83625">
        <ele>650.7</ele>
        <time>2026-08-08T13:59:33.000Z</time>
      </trkpt>
      <trkpt lat="45.8047" lon="1.83615">
        <ele>650.9</ele>
        <time>2026-08-08T13:59:34.000Z</time>
      </trkpt>
      <trkpt lat="45.80476" lon="1.83606">
        <ele>650.3</ele>
        <time>2026-08-08T13:59:35.000Z</time>
      </trkpt>
      <trkpt lat="45.80481" lon="1.83596">
        <ele>649.5</ele>
        <time>2026-08-08T13:59:36.000Z</time>
      </trkpt>
      <trkpt lat="45.80491" lon="1.83577">
        <ele>649</ele>
        <time>2026-08-08T13:59:38.000Z</time>
      </trkpt>
      <trkpt lat="45.80493" lon="1.83565">
        <ele>649</ele>
        <time>2026-08-08T13:59:39.000Z</time>
      </trkpt>
      <trkpt lat="45.80497" lon="1.83551">
        <ele>648.8</ele>
        <time>2026-08-08T13:59:40.000Z</time>
      </trkpt>
      <trkpt lat="45.80499" lon="1.83523">
        <ele>648.1</ele>
        <time>2026-08-08T13:59:42.000Z</time>
      </trkpt>
      <trkpt lat="45.80498" lon="1.8348">
        <ele>646.8</ele>
        <time>2026-08-08T13:59:45.000Z</time>
      </trkpt>
      <trkpt lat="45.80495" lon="1.83452">
        <ele>645.6</ele>
        <time>2026-08-08T13:59:47.000Z</time>
      </trkpt>
      <trkpt lat="45.80494" lon="1.83438">
        <ele>644.9</ele>
        <time>2026-08-08T13:59:48.000Z</time>
      </trkpt>
      <trkpt lat="45.80493" lon="1.83425">
        <ele>644.1</ele>
        <time>2026-08-08T13:59:49.000Z</time>
      </trkpt>
      <trkpt lat="45.80491" lon="1.83396">
        <ele>642.3</ele>
        <time>2026-08-08T13:59:51.000Z</time>
      </trkpt>
      <trkpt lat="45.80487" lon="1.83367">
        <ele>641.5</ele>
        <time>2026-08-08T13:59:53.000Z</time>
      </trkpt>
      <trkpt lat="45.80486" lon="1.83354">
        <ele>641.2</ele>
        <time>2026-08-08T13:59:54.000Z</time>
      </trkpt>
      <trkpt lat="45.80483" lon="1.83325">
        <ele>641</ele>
        <time>2026-08-08T13:59:56.000Z</time>
      </trkpt>
      <trkpt lat="45.8048" lon="1.83299">
        <ele>640.9</ele>
        <time>2026-08-08T13:59:58.000Z</time>
      </trkpt>
      <trkpt lat="45.8048" lon="1.83275">
        <ele>641</ele>
        <time>2026-08-08T14:00:00.000Z</time>
      </trkpt>
      <trkpt lat="45.8048" lon="1.83264">
        <ele>641.2</ele>
        <time>2026-08-08T14:00:01.000Z</time>
      </trkpt>
      <trkpt lat="45.80484" lon="1.83225">
        <ele>641.8</ele>
        <time>2026-08-08T14:00:05.000Z</time>
      </trkpt>
      <trkpt lat="45.80487" lon="1.83203">
        <ele>643.7</ele>
        <time>2026-08-08T14:00:08.000Z</time>
      </trkpt>
      <trkpt lat="45.80487" lon="1.83198">
        <ele>644.3</ele>
        <time>2026-08-08T14:00:09.000Z</time>
      </trkpt>
      <trkpt lat="45.80489" lon="1.83163">
        <ele>646.2</ele>
        <time>2026-08-08T14:00:15.000Z</time>
      </trkpt>
      <trkpt lat="45.80492" lon="1.83142">
        <ele>647</ele>
        <time>2026-08-08T14:00:20.000Z</time>
      </trkpt>
      <trkpt lat="45.80492" lon="1.83128">
        <ele>647.1</ele>
        <time>2026-08-08T14:00:24.000Z</time>
      </trkpt>
      <trkpt lat="45.80492" lon="1.83122">
        <ele>647.1</ele>
        <time>2026-08-08T14:00:26.000Z</time>
      </trkpt>
      <trkpt lat="45.80493" lon="1.83103">
        <ele>647.2</ele>
        <time>2026-08-08T14:00:32.000Z</time>
      </trkpt>
      <trkpt lat="45.80495" lon="1.83082">
        <ele>647.6</ele>
        <time>2026-08-08T14:00:38.000Z</time>
      </trkpt>
      <trkpt lat="45.80497" lon="1.83068">
        <ele>648</ele>
        <time>2026-08-08T14:00:42.000Z</time>
      </trkpt>
      <trkpt lat="45.80498" lon="1.83048">
        <ele>648.6</ele>
        <time>2026-08-08T14:00:48.000Z</time>
      </trkpt>
      <trkpt lat="45.80498" lon="1.83042">
        <ele>648.8</ele>
        <time>2026-08-08T14:00:50.000Z</time>
      </trkpt>
      <trkpt lat="45.80501" lon="1.83012">
        <ele>649.5</ele>
        <time>2026-08-08T14:01:00.000Z</time>
      </trkpt>
      <trkpt lat="45.80501" lon="1.83009">
        <ele>649.6</ele>
        <time>2026-08-08T14:01:01.000Z</time>
      </trkpt>
      <trkpt lat="45.80502" lon="1.82992">
        <ele>650.2</ele>
        <time>2026-08-08T14:01:07.000Z</time>
      </trkpt>
      <trkpt lat="45.80503" lon="1.8297">
        <ele>651</ele>
        <time>2026-08-08T14:01:15.000Z</time>
      </trkpt>
      <trkpt lat="45.80503" lon="1.82968">
        <ele>651</ele>
        <time>2026-08-08T14:01:16.000Z</time>
      </trkpt>
      <trkpt lat="45.80506" lon="1.82944">
        <ele>652</ele>
        <time>2026-08-08T14:01:25.000Z</time>
      </trkpt>
      <trkpt lat="45.80507" lon="1.82939">
        <ele>652.3</ele>
        <time>2026-08-08T14:01:27.000Z</time>
      </trkpt>
      <trkpt lat="45.80508" lon="1.82932">
        <ele>652.8</ele>
        <time>2026-08-08T14:01:30.000Z</time>
      </trkpt>
      <trkpt lat="45.80509" lon="1.82925">
        <ele>653.2</ele>
        <time>2026-08-08T14:01:33.000Z</time>
      </trkpt>
      <trkpt lat="45.80509" lon="1.82921">
        <ele>653.4</ele>
        <time>2026-08-08T14:01:35.000Z</time>
      </trkpt>
      <trkpt lat="45.80511" lon="1.82905">
        <ele>653.6</ele>
        <time>2026-08-08T14:01:41.000Z</time>
      </trkpt>
      <trkpt lat="45.80511" lon="1.82901">
        <ele>653.6</ele>
        <time>2026-08-08T14:01:42.000Z</time>
      </trkpt>
      <trkpt lat="45.80513" lon="1.82885">
        <ele>653.4</ele>
        <time>2026-08-08T14:01:46.000Z</time>
      </trkpt>
      <trkpt lat="45.80515" lon="1.82854">
        <ele>652.3</ele>
        <time>2026-08-08T14:01:52.000Z</time>
      </trkpt>
      <trkpt lat="45.80518" lon="1.82824">
        <ele>651.4</ele>
        <time>2026-08-08T14:01:57.000Z</time>
      </trkpt>
      <trkpt lat="45.80522" lon="1.8278">
        <ele>650.5</ele>
        <time>2026-08-08T14:02:03.000Z</time>
      </trkpt>
      <trkpt lat="45.80523" lon="1.82772">
        <ele>650.5</ele>
        <time>2026-08-08T14:02:04.000Z</time>
      </trkpt>
      <trkpt lat="45.80525" lon="1.82759">
        <ele>650.6</ele>
        <time>2026-08-08T14:02:06.000Z</time>
      </trkpt>
      <trkpt lat="45.80526" lon="1.82742">
        <ele>650.2</ele>
        <time>2026-08-08T14:02:08.000Z</time>
      </trkpt>
      <trkpt lat="45.80528" lon="1.82727">
        <ele>649.4</ele>
        <time>2026-08-08T14:02:10.000Z</time>
      </trkpt>
      <trkpt lat="45.8053" lon="1.82712">
        <ele>649.4</ele>
        <time>2026-08-08T14:02:12.000Z</time>
      </trkpt>
      <trkpt lat="45.80535" lon="1.82665">
        <ele>649.2</ele>
        <time>2026-08-08T14:02:18.000Z</time>
      </trkpt>
      <trkpt lat="45.80543" lon="1.8263">
        <ele>648</ele>
        <time>2026-08-08T14:02:23.000Z</time>
      </trkpt>
      <trkpt lat="45.80547" lon="1.82618">
        <ele>647.5</ele>
        <time>2026-08-08T14:02:25.000Z</time>
      </trkpt>
      <trkpt lat="45.80552" lon="1.82603">
        <ele>647.2</ele>
        <time>2026-08-08T14:02:27.000Z</time>
      </trkpt>
      <trkpt lat="45.80565" lon="1.82574">
        <ele>647.4</ele>
        <time>2026-08-08T14:02:31.000Z</time>
      </trkpt>
      <trkpt lat="45.80577" lon="1.82552">
        <ele>646.9</ele>
        <time>2026-08-08T14:02:34.000Z</time>
      </trkpt>
      <trkpt lat="45.80589" lon="1.82529">
        <ele>645.7</ele>
        <time>2026-08-08T14:02:37.000Z</time>
      </trkpt>
      <trkpt lat="45.80603" lon="1.82507">
        <ele>644.6</ele>
        <time>2026-08-08T14:02:40.000Z</time>
      </trkpt>
      <trkpt lat="45.80623" lon="1.82478">
        <ele>644.2</ele>
        <time>2026-08-08T14:02:44.000Z</time>
      </trkpt>
      <trkpt lat="45.8065" lon="1.82443">
        <ele>642.6</ele>
        <time>2026-08-08T14:02:49.000Z</time>
      </trkpt>
      <trkpt lat="45.80656" lon="1.82438">
        <ele>642</ele>
        <time>2026-08-08T14:02:50.000Z</time>
      </trkpt>
      <trkpt lat="45.80693" lon="1.82412">
        <ele>638.3</ele>
        <time>2026-08-08T14:02:55.000Z</time>
      </trkpt>
      <trkpt lat="45.80732" lon="1.82396">
        <ele>635.6</ele>
        <time>2026-08-08T14:03:00.000Z</time>
      </trkpt>
      <trkpt lat="45.80749" lon="1.82392">
        <ele>633.7</ele>
        <time>2026-08-08T14:03:02.000Z</time>
      </trkpt>
      <trkpt lat="45.80769" lon="1.82384">
        <ele>632.1</ele>
        <time>2026-08-08T14:03:04.000Z</time>
      </trkpt>
      <trkpt lat="45.80787" lon="1.8237">
        <ele>631.1</ele>
        <time>2026-08-08T14:03:06.000Z</time>
      </trkpt>
      <trkpt lat="45.80805" lon="1.82353">
        <ele>629.5</ele>
        <time>2026-08-08T14:03:08.000Z</time>
      </trkpt>
      <trkpt lat="45.80821" lon="1.82335">
        <ele>627.5</ele>
        <time>2026-08-08T14:03:10.000Z</time>
      </trkpt>
      <trkpt lat="45.80838" lon="1.82317">
        <ele>626.6</ele>
        <time>2026-08-08T14:03:12.000Z</time>
      </trkpt>
      <trkpt lat="45.80855" lon="1.823">
        <ele>624.9</ele>
        <time>2026-08-08T14:03:14.000Z</time>
      </trkpt>
      <trkpt lat="45.80872" lon="1.82282">
        <ele>623.4</ele>
        <time>2026-08-08T14:03:16.000Z</time>
      </trkpt>
      <trkpt lat="45.80888" lon="1.82265">
        <ele>622.5</ele>
        <time>2026-08-08T14:03:18.000Z</time>
      </trkpt>
      <trkpt lat="45.80902" lon="1.82249">
        <ele>621.8</ele>
        <time>2026-08-08T14:03:20.000Z</time>
      </trkpt>
      <trkpt lat="45.80907" lon="1.82242">
        <ele>621.4</ele>
        <time>2026-08-08T14:03:21.000Z</time>
      </trkpt>
      <trkpt lat="45.80912" lon="1.82235">
        <ele>621</ele>
        <time>2026-08-08T14:03:22.000Z</time>
      </trkpt>
      <trkpt lat="45.80915" lon="1.82228">
        <ele>620.5</ele>
        <time>2026-08-08T14:03:23.000Z</time>
      </trkpt>
      <trkpt lat="45.80919" lon="1.82221">
        <ele>620.1</ele>
        <time>2026-08-08T14:03:24.000Z</time>
      </trkpt>
      <trkpt lat="45.80921" lon="1.82216">
        <ele>619.8</ele>
        <time>2026-08-08T14:03:25.000Z</time>
      </trkpt>
      <trkpt lat="45.80923" lon="1.82207">
        <ele>619.4</ele>
        <time>2026-08-08T14:03:27.000Z</time>
      </trkpt>
      <trkpt lat="45.80924" lon="1.82204">
        <ele>619.2</ele>
        <time>2026-08-08T14:03:29.000Z</time>
      </trkpt>
      <trkpt lat="45.80924" lon="1.82204">
        <ele>619.2</ele>
        <time>2026-08-08T14:03:31.000Z</time>
      </trkpt>
      <trkpt lat="45.80921" lon="1.82201">
        <ele>618.8</ele>
        <time>2026-08-08T14:04:10.000Z</time>
      </trkpt>
      <trkpt lat="45.80917" lon="1.82201">
        <ele>618.5</ele>
        <time>2026-08-08T14:04:12.000Z</time>
      </trkpt>
      <trkpt lat="45.809" lon="1.82205">
        <ele>617.5</ele>
        <time>2026-08-08T14:04:17.000Z</time>
      </trkpt>
      <trkpt lat="45.80895" lon="1.82206">
        <ele>617.3</ele>
        <time>2026-08-08T14:04:18.000Z</time>
      </trkpt>
      <trkpt lat="45.8088" lon="1.8221">
        <ele>616.5</ele>
        <time>2026-08-08T14:04:21.000Z</time>
      </trkpt>
      <trkpt lat="45.80875" lon="1.82212">
        <ele>616.2</ele>
        <time>2026-08-08T14:04:22.000Z</time>
      </trkpt>
      <trkpt lat="45.80842" lon="1.82219">
        <ele>614.3</ele>
        <time>2026-08-08T14:04:27.000Z</time>
      </trkpt>
      <trkpt lat="45.80827" lon="1.82221">
        <ele>613.5</ele>
        <time>2026-08-08T14:04:29.000Z</time>
      </trkpt>
      <trkpt lat="45.80819" lon="1.82222">
        <ele>612.9</ele>
        <time>2026-08-08T14:04:30.000Z</time>
      </trkpt>
      <trkpt lat="45.80801" lon="1.82222">
        <ele>611.8</ele>
        <time>2026-08-08T14:04:32.000Z</time>
      </trkpt>
      <trkpt lat="45.80792" lon="1.82221">
        <ele>611.4</ele>
        <time>2026-08-08T14:04:33.000Z</time>
      </trkpt>
      <trkpt lat="45.80783" lon="1.82219">
        <ele>610.8</ele>
        <time>2026-08-08T14:04:34.000Z</time>
      </trkpt>
      <trkpt lat="45.80765" lon="1.8221">
        <ele>609.4</ele>
        <time>2026-08-08T14:04:36.000Z</time>
      </trkpt>
      <trkpt lat="45.80758" lon="1.82203">
        <ele>608.7</ele>
        <time>2026-08-08T14:04:37.000Z</time>
      </trkpt>
      <trkpt lat="45.8075" lon="1.82191">
        <ele>607.7</ele>
        <time>2026-08-08T14:04:38.000Z</time>
      </trkpt>
      <trkpt lat="45.80747" lon="1.82181">
        <ele>607.2</ele>
        <time>2026-08-08T14:04:39.000Z</time>
      </trkpt>
      <trkpt lat="45.80745" lon="1.82168">
        <ele>606.3</ele>
        <time>2026-08-08T14:04:40.000Z</time>
      </trkpt>
      <trkpt lat="45.80747" lon="1.82141">
        <ele>606.3</ele>
        <time>2026-08-08T14:04:42.000Z</time>
      </trkpt>
      <trkpt lat="45.80757" lon="1.82113">
        <ele>606</ele>
        <time>2026-08-08T14:04:44.000Z</time>
      </trkpt>
      <trkpt lat="45.80765" lon="1.82092">
        <ele>606.6</ele>
        <time>2026-08-08T14:04:46.000Z</time>
      </trkpt>
      <trkpt lat="45.80774" lon="1.82067">
        <ele>604.2</ele>
        <time>2026-08-08T14:04:48.000Z</time>
      </trkpt>
      <trkpt lat="45.80794" lon="1.82018">
        <ele>603</ele>
        <time>2026-08-08T14:04:52.000Z</time>
      </trkpt>
      <trkpt lat="45.80802" lon="1.81993">
        <ele>600.2</ele>
        <time>2026-08-08T14:04:54.000Z</time>
      </trkpt>
      <trkpt lat="45.80803" lon="1.81983">
        <ele>599.4</ele>
        <time>2026-08-08T14:04:55.000Z</time>
      </trkpt>
      <trkpt lat="45.80803" lon="1.81968">
        <ele>598.7</ele>
        <time>2026-08-08T14:04:56.000Z</time>
      </trkpt>
      <trkpt lat="45.80801" lon="1.81955">
        <ele>598.3</ele>
        <time>2026-08-08T14:04:57.000Z</time>
      </trkpt>
      <trkpt lat="45.80798" lon="1.81945">
        <ele>598.4</ele>
        <time>2026-08-08T14:04:58.000Z</time>
      </trkpt>
      <trkpt lat="45.80792" lon="1.81931">
        <ele>597.9</ele>
        <time>2026-08-08T14:04:59.000Z</time>
      </trkpt>
      <trkpt lat="45.80781" lon="1.81912">
        <ele>595.4</ele>
        <time>2026-08-08T14:05:01.000Z</time>
      </trkpt>
      <trkpt lat="45.8077" lon="1.81885">
        <ele>593.4</ele>
        <time>2026-08-08T14:05:03.000Z</time>
      </trkpt>
      <trkpt lat="45.80767" lon="1.81875">
        <ele>593.1</ele>
        <time>2026-08-08T14:05:04.000Z</time>
      </trkpt>
      <trkpt lat="45.80765" lon="1.81858">
        <ele>592.4</ele>
        <time>2026-08-08T14:05:05.000Z</time>
      </trkpt>
      <trkpt lat="45.80765" lon="1.81843">
        <ele>592.1</ele>
        <time>2026-08-08T14:05:06.000Z</time>
      </trkpt>
      <trkpt lat="45.80768" lon="1.81832">
        <ele>591.8</ele>
        <time>2026-08-08T14:05:07.000Z</time>
      </trkpt>
      <trkpt lat="45.80779" lon="1.81804">
        <ele>591</ele>
        <time>2026-08-08T14:05:09.000Z</time>
      </trkpt>
      <trkpt lat="45.80784" lon="1.81795">
        <ele>591.3</ele>
        <time>2026-08-08T14:05:10.000Z</time>
      </trkpt>
      <trkpt lat="45.80792" lon="1.81783">
        <ele>590.5</ele>
        <time>2026-08-08T14:05:11.000Z</time>
      </trkpt>
      <trkpt lat="45.80817" lon="1.81748">
        <ele>587</ele>
        <time>2026-08-08T14:05:14.000Z</time>
      </trkpt>
      <trkpt lat="45.80826" lon="1.81737">
        <ele>586.2</ele>
        <time>2026-08-08T14:05:15.000Z</time>
      </trkpt>
      <trkpt lat="45.80843" lon="1.81714">
        <ele>584.1</ele>
        <time>2026-08-08T14:05:17.000Z</time>
      </trkpt>
      <trkpt lat="45.8086" lon="1.81691">
        <ele>581.2</ele>
        <time>2026-08-08T14:05:19.000Z</time>
      </trkpt>
      <trkpt lat="45.80874" lon="1.81666">
        <ele>579.7</ele>
        <time>2026-08-08T14:05:21.000Z</time>
      </trkpt>
      <trkpt lat="45.8088" lon="1.81653">
        <ele>578.5</ele>
        <time>2026-08-08T14:05:22.000Z</time>
      </trkpt>
      <trkpt lat="45.80884" lon="1.81641">
        <ele>577.9</ele>
        <time>2026-08-08T14:05:23.000Z</time>
      </trkpt>
      <trkpt lat="45.8089" lon="1.81624">
        <ele>577.4</ele>
        <time>2026-08-08T14:05:24.000Z</time>
      </trkpt>
      <trkpt lat="45.80893" lon="1.81609">
        <ele>577.6</ele>
        <time>2026-08-08T14:05:25.000Z</time>
      </trkpt>
      <trkpt lat="45.80897" lon="1.81595">
        <ele>576.6</ele>
        <time>2026-08-08T14:05:26.000Z</time>
      </trkpt>
      <trkpt lat="45.80901" lon="1.81581">
        <ele>576</ele>
        <time>2026-08-08T14:05:27.000Z</time>
      </trkpt>
      <trkpt lat="45.80904" lon="1.81565">
        <ele>574.9</ele>
        <time>2026-08-08T14:05:28.000Z</time>
      </trkpt>
      <trkpt lat="45.80907" lon="1.81551">
        <ele>573.9</ele>
        <time>2026-08-08T14:05:29.000Z</time>
      </trkpt>
      <trkpt lat="45.80908" lon="1.81536">
        <ele>573.5</ele>
        <time>2026-08-08T14:05:30.000Z</time>
      </trkpt>
      <trkpt lat="45.80907" lon="1.81525">
        <ele>573.3</ele>
        <time>2026-08-08T14:05:31.000Z</time>
      </trkpt>
      <trkpt lat="45.80904" lon="1.81513">
        <ele>572.4</ele>
        <time>2026-08-08T14:05:32.000Z</time>
      </trkpt>
      <trkpt lat="45.80898" lon="1.81499">
        <ele>571.8</ele>
        <time>2026-08-08T14:05:33.000Z</time>
      </trkpt>
      <trkpt lat="45.80892" lon="1.81486">
        <ele>571.9</ele>
        <time>2026-08-08T14:05:34.000Z</time>
      </trkpt>
      <trkpt lat="45.80887" lon="1.81473">
        <ele>571.6</ele>
        <time>2026-08-08T14:05:35.000Z</time>
      </trkpt>
      <trkpt lat="45.80881" lon="1.81458">
        <ele>571</ele>
        <time>2026-08-08T14:05:36.000Z</time>
      </trkpt>
      <trkpt lat="45.80876" lon="1.81428">
        <ele>571.7</ele>
        <time>2026-08-08T14:05:38.000Z</time>
      </trkpt>
      <trkpt lat="45.80879" lon="1.81417">
        <ele>571.4</ele>
        <time>2026-08-08T14:05:39.000Z</time>
      </trkpt>
      <trkpt lat="45.80888" lon="1.814">
        <ele>569</ele>
        <time>2026-08-08T14:05:40.000Z</time>
      </trkpt>
      <trkpt lat="45.80894" lon="1.81387">
        <ele>567</ele>
        <time>2026-08-08T14:05:41.000Z</time>
      </trkpt>
      <trkpt lat="45.80899" lon="1.81378">
        <ele>566.3</ele>
        <time>2026-08-08T14:05:42.000Z</time>
      </trkpt>
      <trkpt lat="45.80907" lon="1.81365">
        <ele>565.8</ele>
        <time>2026-08-08T14:05:43.000Z</time>
      </trkpt>
      <trkpt lat="45.80928" lon="1.81333">
        <ele>563.4</ele>
        <time>2026-08-08T14:05:46.000Z</time>
      </trkpt>
      <trkpt lat="45.80934" lon="1.81325">
        <ele>563.2</ele>
        <time>2026-08-08T14:05:47.000Z</time>
      </trkpt>
      <trkpt lat="45.80941" lon="1.81316">
        <ele>562.4</ele>
        <time>2026-08-08T14:05:48.000Z</time>
      </trkpt>
      <trkpt lat="45.80952" lon="1.81306">
        <ele>561.1</ele>
        <time>2026-08-08T14:05:49.000Z</time>
      </trkpt>
      <trkpt lat="45.80976" lon="1.81292">
        <ele>559.2</ele>
        <time>2026-08-08T14:05:51.000Z</time>
      </trkpt>
      <trkpt lat="45.80983" lon="1.81288">
        <ele>559</ele>
        <time>2026-08-08T14:05:52.000Z</time>
      </trkpt>
      <trkpt lat="45.81001" lon="1.81278">
        <ele>557.8</ele>
        <time>2026-08-08T14:05:54.000Z</time>
      </trkpt>
      <trkpt lat="45.81027" lon="1.81265">
        <ele>556</ele>
        <time>2026-08-08T14:05:57.000Z</time>
      </trkpt>
      <trkpt lat="45.81047" lon="1.81255">
        <ele>555.1</ele>
        <time>2026-08-08T14:05:59.000Z</time>
      </trkpt>
      <trkpt lat="45.81056" lon="1.8125">
        <ele>554.9</ele>
        <time>2026-08-08T14:06:00.000Z</time>
      </trkpt>
      <trkpt lat="45.81076" lon="1.8124">
        <ele>552.6</ele>
        <time>2026-08-08T14:06:02.000Z</time>
      </trkpt>
      <trkpt lat="45.81097" lon="1.81227">
        <ele>551.1</ele>
        <time>2026-08-08T14:06:04.000Z</time>
      </trkpt>
      <trkpt lat="45.81106" lon="1.81219">
        <ele>551.3</ele>
        <time>2026-08-08T14:06:05.000Z</time>
      </trkpt>
      <trkpt lat="45.81113" lon="1.81211">
        <ele>550.8</ele>
        <time>2026-08-08T14:06:06.000Z</time>
      </trkpt>
      <trkpt lat="45.8112" lon="1.81203">
        <ele>549.3</ele>
        <time>2026-08-08T14:06:07.000Z</time>
      </trkpt>
      <trkpt lat="45.8113" lon="1.81186">
        <ele>547.7</ele>
        <time>2026-08-08T14:06:09.000Z</time>
      </trkpt>
      <trkpt lat="45.81133" lon="1.81177">
        <ele>547.5</ele>
        <time>2026-08-08T14:06:10.000Z</time>
      </trkpt>
      <trkpt lat="45.81135" lon="1.8117">
        <ele>547.4</ele>
        <time>2026-08-08T14:06:11.000Z</time>
      </trkpt>
      <trkpt lat="45.8114" lon="1.81153">
        <ele>546.6</ele>
        <time>2026-08-08T14:06:13.000Z</time>
      </trkpt>
      <trkpt lat="45.81141" lon="1.81147">
        <ele>546.2</ele>
        <time>2026-08-08T14:06:14.000Z</time>
      </trkpt>
      <trkpt lat="45.81146" lon="1.81129">
        <ele>545.3</ele>
        <time>2026-08-08T14:06:16.000Z</time>
      </trkpt>
      <trkpt lat="45.81151" lon="1.81112">
        <ele>544.7</ele>
        <time>2026-08-08T14:06:18.000Z</time>
      </trkpt>
      <trkpt lat="45.81154" lon="1.81104">
        <ele>544.6</ele>
        <time>2026-08-08T14:06:19.000Z</time>
      </trkpt>
      <trkpt lat="45.81167" lon="1.81073">
        <ele>544.6</ele>
        <time>2026-08-08T14:06:23.000Z</time>
      </trkpt>
      <trkpt lat="45.81169" lon="1.81065">
        <ele>544.3</ele>
        <time>2026-08-08T14:06:24.000Z</time>
      </trkpt>
      <trkpt lat="45.81183" lon="1.81032">
        <ele>542.5</ele>
        <time>2026-08-08T14:06:28.000Z</time>
      </trkpt>
      <trkpt lat="45.81188" lon="1.81024">
        <ele>541.7</ele>
        <time>2026-08-08T14:06:29.000Z</time>
      </trkpt>
      <trkpt lat="45.81192" lon="1.81017">
        <ele>541.6</ele>
        <time>2026-08-08T14:06:30.000Z</time>
      </trkpt>
      <trkpt lat="45.81197" lon="1.81006">
        <ele>541.4</ele>
        <time>2026-08-08T14:06:31.000Z</time>
      </trkpt>
      <trkpt lat="45.81218" lon="1.8097">
        <ele>538.9</ele>
        <time>2026-08-08T14:06:35.000Z</time>
      </trkpt>
      <trkpt lat="45.81222" lon="1.80963">
        <ele>538.8</ele>
        <time>2026-08-08T14:06:36.000Z</time>
      </trkpt>
      <trkpt lat="45.81231" lon="1.80943">
        <ele>538.4</ele>
        <time>2026-08-08T14:06:38.000Z</time>
      </trkpt>
      <trkpt lat="45.81236" lon="1.80934">
        <ele>537.3</ele>
        <time>2026-08-08T14:06:39.000Z</time>
      </trkpt>
      <trkpt lat="45.81253" lon="1.809">
        <ele>535.9</ele>
        <time>2026-08-08T14:06:42.000Z</time>
      </trkpt>
      <trkpt lat="45.81265" lon="1.80881">
        <ele>535.6</ele>
        <time>2026-08-08T14:06:44.000Z</time>
      </trkpt>
      <trkpt lat="45.81272" lon="1.80873">
        <ele>535.1</ele>
        <time>2026-08-08T14:06:45.000Z</time>
      </trkpt>
      <trkpt lat="45.81294" lon="1.80852">
        <ele>532.3</ele>
        <time>2026-08-08T14:06:48.000Z</time>
      </trkpt>
      <trkpt lat="45.81305" lon="1.80834">
        <ele>533</ele>
        <time>2026-08-08T14:06:50.000Z</time>
      </trkpt>
      <trkpt lat="45.81307" lon="1.80824">
        <ele>533.5</ele>
        <time>2026-08-08T14:06:51.000Z</time>
      </trkpt>
      <trkpt lat="45.81307" lon="1.80813">
        <ele>534.7</ele>
        <time>2026-08-08T14:06:52.000Z</time>
      </trkpt>
      <trkpt lat="45.81305" lon="1.80802">
        <ele>535.7</ele>
        <time>2026-08-08T14:06:53.000Z</time>
      </trkpt>
      <trkpt lat="45.81301" lon="1.80791">
        <ele>535</ele>
        <time>2026-08-08T14:06:54.000Z</time>
      </trkpt>
      <trkpt lat="45.81295" lon="1.80781">
        <ele>534.5</ele>
        <time>2026-08-08T14:06:55.000Z</time>
      </trkpt>
      <trkpt lat="45.81289" lon="1.80771">
        <ele>533.7</ele>
        <time>2026-08-08T14:06:56.000Z</time>
      </trkpt>
      <trkpt lat="45.81275" lon="1.80754">
        <ele>532.8</ele>
        <time>2026-08-08T14:06:58.000Z</time>
      </trkpt>
      <trkpt lat="45.81261" lon="1.80736">
        <ele>531.5</ele>
        <time>2026-08-08T14:07:00.000Z</time>
      </trkpt>
      <trkpt lat="45.81247" lon="1.80718">
        <ele>530.8</ele>
        <time>2026-08-08T14:07:02.000Z</time>
      </trkpt>
      <trkpt lat="45.81224" lon="1.80692">
        <ele>529.4</ele>
        <time>2026-08-08T14:07:05.000Z</time>
      </trkpt>
      <trkpt lat="45.81219" lon="1.80684">
        <ele>528.7</ele>
        <time>2026-08-08T14:07:06.000Z</time>
      </trkpt>
      <trkpt lat="45.81213" lon="1.80673">
        <ele>527.7</ele>
        <time>2026-08-08T14:07:07.000Z</time>
      </trkpt>
      <trkpt lat="45.81204" lon="1.80649">
        <ele>526.7</ele>
        <time>2026-08-08T14:07:09.000Z</time>
      </trkpt>
      <trkpt lat="45.812" lon="1.80636">
        <ele>526.3</ele>
        <time>2026-08-08T14:07:10.000Z</time>
      </trkpt>
      <trkpt lat="45.81197" lon="1.80623">
        <ele>526.2</ele>
        <time>2026-08-08T14:07:11.000Z</time>
      </trkpt>
      <trkpt lat="45.81186" lon="1.80586">
        <ele>525</ele>
        <time>2026-08-08T14:07:14.000Z</time>
      </trkpt>
      <trkpt lat="45.81182" lon="1.80574">
        <ele>524.4</ele>
        <time>2026-08-08T14:07:15.000Z</time>
      </trkpt>
      <trkpt lat="45.81166" lon="1.8054">
        <ele>522.9</ele>
        <time>2026-08-08T14:07:18.000Z</time>
      </trkpt>
      <trkpt lat="45.81155" lon="1.80514">
        <ele>521.5</ele>
        <time>2026-08-08T14:07:20.000Z</time>
      </trkpt>
      <trkpt lat="45.81151" lon="1.80502">
        <ele>520.8</ele>
        <time>2026-08-08T14:07:21.000Z</time>
      </trkpt>
      <trkpt lat="45.81146" lon="1.8049">
        <ele>520.5</ele>
        <time>2026-08-08T14:07:22.000Z</time>
      </trkpt>
      <trkpt lat="45.81138" lon="1.80467">
        <ele>519.6</ele>
        <time>2026-08-08T14:07:24.000Z</time>
      </trkpt>
      <trkpt lat="45.81134" lon="1.80439">
        <ele>517.6</ele>
        <time>2026-08-08T14:07:26.000Z</time>
      </trkpt>
      <trkpt lat="45.81138" lon="1.8041">
        <ele>517.4</ele>
        <time>2026-08-08T14:07:28.000Z</time>
      </trkpt>
      <trkpt lat="45.81143" lon="1.80397">
        <ele>516.9</ele>
        <time>2026-08-08T14:07:29.000Z</time>
      </trkpt>
      <trkpt lat="45.81149" lon="1.80384">
        <ele>516.2</ele>
        <time>2026-08-08T14:07:30.000Z</time>
      </trkpt>
      <trkpt lat="45.81162" lon="1.80363">
        <ele>515.5</ele>
        <time>2026-08-08T14:07:32.000Z</time>
      </trkpt>
      <trkpt lat="45.81182" lon="1.80347">
        <ele>514.6</ele>
        <time>2026-08-08T14:07:34.000Z</time>
      </trkpt>
      <trkpt lat="45.81189" lon="1.80344">
        <ele>514.1</ele>
        <time>2026-08-08T14:07:35.000Z</time>
      </trkpt>
      <trkpt lat="45.81207" lon="1.80334">
        <ele>513.7</ele>
        <time>2026-08-08T14:07:37.000Z</time>
      </trkpt>
      <trkpt lat="45.81214" lon="1.80327">
        <ele>513.2</ele>
        <time>2026-08-08T14:07:38.000Z</time>
      </trkpt>
      <trkpt lat="45.81221" lon="1.80318">
        <ele>512.2</ele>
        <time>2026-08-08T14:07:39.000Z</time>
      </trkpt>
      <trkpt lat="45.81228" lon="1.80296">
        <ele>509.9</ele>
        <time>2026-08-08T14:07:41.000Z</time>
      </trkpt>
      <trkpt lat="45.81231" lon="1.8026">
        <ele>508</ele>
        <time>2026-08-08T14:07:44.000Z</time>
      </trkpt>
      <trkpt lat="45.8123" lon="1.80247">
        <ele>507.5</ele>
        <time>2026-08-08T14:07:45.000Z</time>
      </trkpt>
      <trkpt lat="45.81228" lon="1.80219">
        <ele>507.5</ele>
        <time>2026-08-08T14:07:47.000Z</time>
      </trkpt>
      <trkpt lat="45.81227" lon="1.80192">
        <ele>507</ele>
        <time>2026-08-08T14:07:49.000Z</time>
      </trkpt>
      <trkpt lat="45.81225" lon="1.80165">
        <ele>506.9</ele>
        <time>2026-08-08T14:07:51.000Z</time>
      </trkpt>
      <trkpt lat="45.81219" lon="1.80115">
        <ele>505</ele>
        <time>2026-08-08T14:07:55.000Z</time>
      </trkpt>
      <trkpt lat="45.81216" lon="1.80103">
        <ele>504.2</ele>
        <time>2026-08-08T14:07:56.000Z</time>
      </trkpt>
      <trkpt lat="45.8121" lon="1.80079">
        <ele>502.6</ele>
        <time>2026-08-08T14:07:58.000Z</time>
      </trkpt>
      <trkpt lat="45.81202" lon="1.80056">
        <ele>501.5</ele>
        <time>2026-08-08T14:08:00.000Z</time>
      </trkpt>
      <trkpt lat="45.81197" lon="1.80045">
        <ele>501</ele>
        <time>2026-08-08T14:08:01.000Z</time>
      </trkpt>
      <trkpt lat="45.81186" lon="1.80024">
        <ele>500.3</ele>
        <time>2026-08-08T14:08:03.000Z</time>
      </trkpt>
      <trkpt lat="45.81169" lon="1.79992">
        <ele>498.8</ele>
        <time>2026-08-08T14:08:06.000Z</time>
      </trkpt>
      <trkpt lat="45.81157" lon="1.7997">
        <ele>498.1</ele>
        <time>2026-08-08T14:08:08.000Z</time>
      </trkpt>
      <trkpt lat="45.81145" lon="1.79948">
        <ele>496.9</ele>
        <time>2026-08-08T14:08:10.000Z</time>
      </trkpt>
      <trkpt lat="45.81126" lon="1.79916">
        <ele>493.9</ele>
        <time>2026-08-08T14:08:13.000Z</time>
      </trkpt>
      <trkpt lat="45.81113" lon="1.79895">
        <ele>493.2</ele>
        <time>2026-08-08T14:08:15.000Z</time>
      </trkpt>
      <trkpt lat="45.811" lon="1.79871">
        <ele>491.7</ele>
        <time>2026-08-08T14:08:17.000Z</time>
      </trkpt>
      <trkpt lat="45.81096" lon="1.79861">
        <ele>491.1</ele>
        <time>2026-08-08T14:08:18.000Z</time>
      </trkpt>
      <trkpt lat="45.81081" lon="1.79821">
        <ele>490.5</ele>
        <time>2026-08-08T14:08:21.000Z</time>
      </trkpt>
      <trkpt lat="45.81077" lon="1.79808">
        <ele>489.8</ele>
        <time>2026-08-08T14:08:22.000Z</time>
      </trkpt>
      <trkpt lat="45.81068" lon="1.7978">
        <ele>489</ele>
        <time>2026-08-08T14:08:24.000Z</time>
      </trkpt>
      <trkpt lat="45.81055" lon="1.7974">
        <ele>488.6</ele>
        <time>2026-08-08T14:08:27.000Z</time>
      </trkpt>
      <trkpt lat="45.81043" lon="1.79702">
        <ele>488.7</ele>
        <time>2026-08-08T14:08:30.000Z</time>
      </trkpt>
      <trkpt lat="45.81025" lon="1.79645">
        <ele>490.1</ele>
        <time>2026-08-08T14:08:35.000Z</time>
      </trkpt>
      <trkpt lat="45.81009" lon="1.79589">
        <ele>490.4</ele>
        <time>2026-08-08T14:08:41.000Z</time>
      </trkpt>
      <trkpt lat="45.81006" lon="1.7957">
        <ele>490.4</ele>
        <time>2026-08-08T14:08:43.000Z</time>
      </trkpt>
      <trkpt lat="45.81005" lon="1.79561">
        <ele>490.5</ele>
        <time>2026-08-08T14:08:44.000Z</time>
      </trkpt>
      <trkpt lat="45.81004" lon="1.79545">
        <ele>490.6</ele>
        <time>2026-08-08T14:08:46.000Z</time>
      </trkpt>
      <trkpt lat="45.81003" lon="1.79507">
        <ele>490.6</ele>
        <time>2026-08-08T14:08:51.000Z</time>
      </trkpt>
      <trkpt lat="45.81002" lon="1.79442">
        <ele>490.3</ele>
        <time>2026-08-08T14:09:00.000Z</time>
      </trkpt>
      <trkpt lat="45.81002" lon="1.79416">
        <ele>490.3</ele>
        <time>2026-08-08T14:09:04.000Z</time>
      </trkpt>
      <trkpt lat="45.81002" lon="1.79395">
        <ele>490.2</ele>
        <time>2026-08-08T14:09:07.000Z</time>
      </trkpt>
      <trkpt lat="45.81002" lon="1.79389">
        <ele>490.2</ele>
        <time>2026-08-08T14:09:08.000Z</time>
      </trkpt>
      <trkpt lat="45.81001" lon="1.79336">
        <ele>490.1</ele>
        <time>2026-08-08T14:09:16.000Z</time>
      </trkpt>
      <trkpt lat="45.81001" lon="1.79288">
        <ele>490.1</ele>
        <time>2026-08-08T14:09:24.000Z</time>
      </trkpt>
      <trkpt lat="45.81" lon="1.79263">
        <ele>490</ele>
        <time>2026-08-08T14:09:28.000Z</time>
      </trkpt>
      <trkpt lat="45.81" lon="1.79234">
        <ele>490</ele>
        <time>2026-08-08T14:09:33.000Z</time>
      </trkpt>
      <trkpt lat="45.80999" lon="1.79184">
        <ele>489.7</ele>
        <time>2026-08-08T14:09:41.000Z</time>
      </trkpt>
      <trkpt lat="45.80996" lon="1.7914">
        <ele>487.5</ele>
        <time>2026-08-08T14:09:46.000Z</time>
      </trkpt>
      <trkpt lat="45.80991" lon="1.79095">
        <ele>484.9</ele>
        <time>2026-08-08T14:09:50.000Z</time>
      </trkpt>
      <trkpt lat="45.80991" lon="1.79082">
        <ele>484.2</ele>
        <time>2026-08-08T14:09:51.000Z</time>
      </trkpt>
      <trkpt lat="45.80989" lon="1.79069">
        <ele>482.9</ele>
        <time>2026-08-08T14:09:52.000Z</time>
      </trkpt>
      <trkpt lat="45.80986" lon="1.79028">
        <ele>480.5</ele>
        <time>2026-08-08T14:09:55.000Z</time>
      </trkpt>
      <trkpt lat="45.80985" lon="1.79013">
        <ele>479.7</ele>
        <time>2026-08-08T14:09:56.000Z</time>
      </trkpt>
      <trkpt lat="45.80982" lon="1.78983">
        <ele>477.7</ele>
        <time>2026-08-08T14:09:58.000Z</time>
      </trkpt>
      <trkpt lat="45.80981" lon="1.78955">
        <ele>476.7</ele>
        <time>2026-08-08T14:10:00.000Z</time>
      </trkpt>
      <trkpt lat="45.8098" lon="1.78924">
        <ele>476.5</ele>
        <time>2026-08-08T14:10:02.000Z</time>
      </trkpt>
      <trkpt lat="45.80982" lon="1.78911">
        <ele>476.4</ele>
        <time>2026-08-08T14:10:03.000Z</time>
      </trkpt>
      <trkpt lat="45.80986" lon="1.78898">
        <ele>476.5</ele>
        <time>2026-08-08T14:10:04.000Z</time>
      </trkpt>
      <trkpt lat="45.80992" lon="1.78888">
        <ele>476.7</ele>
        <time>2026-08-08T14:10:05.000Z</time>
      </trkpt>
      <trkpt lat="45.80999" lon="1.7888">
        <ele>476.8</ele>
        <time>2026-08-08T14:10:06.000Z</time>
      </trkpt>
      <trkpt lat="45.81014" lon="1.78867">
        <ele>476.4</ele>
        <time>2026-08-08T14:10:08.000Z</time>
      </trkpt>
      <trkpt lat="45.8103" lon="1.78857">
        <ele>476.1</ele>
        <time>2026-08-08T14:10:10.000Z</time>
      </trkpt>
      <trkpt lat="45.81052" lon="1.7884">
        <ele>474.8</ele>
        <time>2026-08-08T14:10:13.000Z</time>
      </trkpt>
      <trkpt lat="45.81059" lon="1.78833">
        <ele>474.5</ele>
        <time>2026-08-08T14:10:14.000Z</time>
      </trkpt>
      <trkpt lat="45.81066" lon="1.78824">
        <ele>473.7</ele>
        <time>2026-08-08T14:10:15.000Z</time>
      </trkpt>
      <trkpt lat="45.81071" lon="1.78815">
        <ele>473</ele>
        <time>2026-08-08T14:10:16.000Z</time>
      </trkpt>
      <trkpt lat="45.81076" lon="1.78804">
        <ele>472.3</ele>
        <time>2026-08-08T14:10:17.000Z</time>
      </trkpt>
      <trkpt lat="45.8108" lon="1.78791">
        <ele>472</ele>
        <time>2026-08-08T14:10:18.000Z</time>
      </trkpt>
      <trkpt lat="45.81083" lon="1.78776">
        <ele>472</ele>
        <time>2026-08-08T14:10:19.000Z</time>
      </trkpt>
      <trkpt lat="45.81083" lon="1.78766">
        <ele>471.6</ele>
        <time>2026-08-08T14:10:20.000Z</time>
      </trkpt>
      <trkpt lat="45.81083" lon="1.7875">
        <ele>471</ele>
        <time>2026-08-08T14:10:21.000Z</time>
      </trkpt>
      <trkpt lat="45.81079" lon="1.78727">
        <ele>469.7</ele>
        <time>2026-08-08T14:10:23.000Z</time>
      </trkpt>
      <trkpt lat="45.81074" lon="1.78714">
        <ele>469.3</ele>
        <time>2026-08-08T14:10:24.000Z</time>
      </trkpt>
      <trkpt lat="45.81069" lon="1.78703">
        <ele>469</ele>
        <time>2026-08-08T14:10:25.000Z</time>
      </trkpt>
      <trkpt lat="45.81057" lon="1.78681">
        <ele>467.9</ele>
        <time>2026-08-08T14:10:27.000Z</time>
      </trkpt>
      <trkpt lat="45.81047" lon="1.78654">
        <ele>466.5</ele>
        <time>2026-08-08T14:10:29.000Z</time>
      </trkpt>
      <trkpt lat="45.81045" lon="1.7864">
        <ele>465.8</ele>
        <time>2026-08-08T14:10:30.000Z</time>
      </trkpt>
      <trkpt lat="45.81044" lon="1.78628">
        <ele>465</ele>
        <time>2026-08-08T14:10:31.000Z</time>
      </trkpt>
      <trkpt lat="45.81045" lon="1.78613">
        <ele>463.8</ele>
        <time>2026-08-08T14:10:32.000Z</time>
      </trkpt>
      <trkpt lat="45.81048" lon="1.78598">
        <ele>463.5</ele>
        <time>2026-08-08T14:10:33.000Z</time>
      </trkpt>
      <trkpt lat="45.81057" lon="1.78568">
        <ele>462.2</ele>
        <time>2026-08-08T14:10:35.000Z</time>
      </trkpt>
      <trkpt lat="45.81065" lon="1.78545">
        <ele>461.3</ele>
        <time>2026-08-08T14:10:37.000Z</time>
      </trkpt>
      <trkpt lat="45.81073" lon="1.78518">
        <ele>460.9</ele>
        <time>2026-08-08T14:10:39.000Z</time>
      </trkpt>
      <trkpt lat="45.81081" lon="1.78489">
        <ele>458.6</ele>
        <time>2026-08-08T14:10:41.000Z</time>
      </trkpt>
      <trkpt lat="45.81087" lon="1.78464">
        <ele>457.4</ele>
        <time>2026-08-08T14:10:43.000Z</time>
      </trkpt>
      <trkpt lat="45.8109" lon="1.78447">
        <ele>457.7</ele>
        <time>2026-08-08T14:10:44.000Z</time>
      </trkpt>
      <trkpt lat="45.81091" lon="1.78422">
        <ele>456.5</ele>
        <time>2026-08-08T14:10:46.000Z</time>
      </trkpt>
      <trkpt lat="45.81091" lon="1.78405">
        <ele>455.9</ele>
        <time>2026-08-08T14:10:47.000Z</time>
      </trkpt>
      <trkpt lat="45.81093" lon="1.78379">
        <ele>455.4</ele>
        <time>2026-08-08T14:10:49.000Z</time>
      </trkpt>
      <trkpt lat="45.81099" lon="1.78339">
        <ele>455</ele>
        <time>2026-08-08T14:10:52.000Z</time>
      </trkpt>
      <trkpt lat="45.81102" lon="1.78324">
        <ele>455.1</ele>
        <time>2026-08-08T14:10:53.000Z</time>
      </trkpt>
      <trkpt lat="45.8111" lon="1.78302">
        <ele>455.3</ele>
        <time>2026-08-08T14:10:55.000Z</time>
      </trkpt>
      <trkpt lat="45.81115" lon="1.78289">
        <ele>455.2</ele>
        <time>2026-08-08T14:10:56.000Z</time>
      </trkpt>
      <trkpt lat="45.81133" lon="1.78248">
        <ele>453.9</ele>
        <time>2026-08-08T14:11:00.000Z</time>
      </trkpt>
      <trkpt lat="45.81136" lon="1.78241">
        <ele>453.4</ele>
        <time>2026-08-08T14:11:01.000Z</time>
      </trkpt>
      <trkpt lat="45.81158" lon="1.78192">
        <ele>452.2</ele>
        <time>2026-08-08T14:11:06.000Z</time>
      </trkpt>
      <trkpt lat="45.81171" lon="1.78161">
        <ele>449.9</ele>
        <time>2026-08-08T14:11:09.000Z</time>
      </trkpt>
      <trkpt lat="45.81183" lon="1.7813">
        <ele>448.7</ele>
        <time>2026-08-08T14:11:12.000Z</time>
      </trkpt>
      <trkpt lat="45.81202" lon="1.7809">
        <ele>447.3</ele>
        <time>2026-08-08T14:11:16.000Z</time>
      </trkpt>
      <trkpt lat="45.81206" lon="1.7808">
        <ele>447</ele>
        <time>2026-08-08T14:11:17.000Z</time>
      </trkpt>
      <trkpt lat="45.81214" lon="1.78064">
        <ele>447</ele>
        <time>2026-08-08T14:11:19.000Z</time>
      </trkpt>
      <trkpt lat="45.8122" lon="1.78051">
        <ele>446.8</ele>
        <time>2026-08-08T14:11:21.000Z</time>
      </trkpt>
      <trkpt lat="45.81224" lon="1.78041">
        <ele>446.7</ele>
        <time>2026-08-08T14:11:23.000Z</time>
      </trkpt>
      <trkpt lat="45.81229" lon="1.78032">
        <ele>446.3</ele>
        <time>2026-08-08T14:11:26.000Z</time>
      </trkpt>
      <trkpt lat="45.81231" lon="1.78029">
        <ele>446.2</ele>
        <time>2026-08-08T14:11:27.000Z</time>
      </trkpt>
      <trkpt lat="45.81239" lon="1.78007">
        <ele>445.4</ele>
        <time>2026-08-08T14:11:33.000Z</time>
      </trkpt>
      <trkpt lat="45.8125" lon="1.77985">
        <ele>444.1</ele>
        <time>2026-08-08T14:11:37.000Z</time>
      </trkpt>
      <trkpt lat="45.81257" lon="1.77972">
        <ele>444.3</ele>
        <time>2026-08-08T14:11:39.000Z</time>
      </trkpt>
      <trkpt lat="45.81268" lon="1.77949">
        <ele>442.6</ele>
        <time>2026-08-08T14:11:43.000Z</time>
      </trkpt>
      <trkpt lat="45.81274" lon="1.77931">
        <ele>441.4</ele>
        <time>2026-08-08T14:11:46.000Z</time>
      </trkpt>
      <trkpt lat="45.8128" lon="1.77918">
        <ele>440.6</ele>
        <time>2026-08-08T14:11:48.000Z</time>
      </trkpt>
      <trkpt lat="45.81296" lon="1.77885">
        <ele>438.7</ele>
        <time>2026-08-08T14:11:53.000Z</time>
      </trkpt>
      <trkpt lat="45.81299" lon="1.77878">
        <ele>439</ele>
        <time>2026-08-08T14:11:54.000Z</time>
      </trkpt>
      <trkpt lat="45.81318" lon="1.77835">
        <ele>438.7</ele>
        <time>2026-08-08T14:12:00.000Z</time>
      </trkpt>
      <trkpt lat="45.81321" lon="1.77828">
        <ele>438.9</ele>
        <time>2026-08-08T14:12:01.000Z</time>
      </trkpt>
      <trkpt lat="45.81327" lon="1.77815">
        <ele>439.3</ele>
        <time>2026-08-08T14:12:03.000Z</time>
      </trkpt>
      <trkpt lat="45.8135" lon="1.77758">
        <ele>437.3</ele>
        <time>2026-08-08T14:12:11.000Z</time>
      </trkpt>
      <trkpt lat="45.81352" lon="1.77748">
        <ele>437</ele>
        <time>2026-08-08T14:12:12.000Z</time>
      </trkpt>
      <trkpt lat="45.81354" lon="1.77741">
        <ele>436.9</ele>
        <time>2026-08-08T14:12:13.000Z</time>
      </trkpt>
      <trkpt lat="45.81354" lon="1.77733">
        <ele>436.9</ele>
        <time>2026-08-08T14:12:14.000Z</time>
      </trkpt>
      <trkpt lat="45.81353" lon="1.77696">
        <ele>437.8</ele>
        <time>2026-08-08T14:12:18.000Z</time>
      </trkpt>
      <trkpt lat="45.81352" lon="1.77632">
        <ele>436.3</ele>
        <time>2026-08-08T14:12:25.000Z</time>
      </trkpt>
      <trkpt lat="45.81353" lon="1.77625">
        <ele>436.2</ele>
        <time>2026-08-08T14:12:26.000Z</time>
      </trkpt>
      <trkpt lat="45.81357" lon="1.77606">
        <ele>435.8</ele>
        <time>2026-08-08T14:12:28.000Z</time>
      </trkpt>
      <trkpt lat="45.81363" lon="1.77592">
        <ele>435.6</ele>
        <time>2026-08-08T14:12:30.000Z</time>
      </trkpt>
      <trkpt lat="45.81371" lon="1.77578">
        <ele>436</ele>
        <time>2026-08-08T14:12:32.000Z</time>
      </trkpt>
      <trkpt lat="45.81384" lon="1.7756">
        <ele>435.6</ele>
        <time>2026-08-08T14:12:35.000Z</time>
      </trkpt>
      <trkpt lat="45.81397" lon="1.7754">
        <ele>435.1</ele>
        <time>2026-08-08T14:12:38.000Z</time>
      </trkpt>
      <trkpt lat="45.81406" lon="1.77527">
        <ele>434.8</ele>
        <time>2026-08-08T14:12:40.000Z</time>
      </trkpt>
      <trkpt lat="45.81409" lon="1.77522">
        <ele>434.4</ele>
        <time>2026-08-08T14:12:41.000Z</time>
      </trkpt>
      <trkpt lat="45.81413" lon="1.77516">
        <ele>433.9</ele>
        <time>2026-08-08T14:12:42.000Z</time>
      </trkpt>
      <trkpt lat="45.81424" lon="1.7749">
        <ele>433</ele>
        <time>2026-08-08T14:12:45.000Z</time>
      </trkpt>
      <trkpt lat="45.81437" lon="1.7746">
        <ele>432.2</ele>
        <time>2026-08-08T14:12:49.000Z</time>
      </trkpt>
      <trkpt lat="45.81448" lon="1.77428">
        <ele>430.3</ele>
        <time>2026-08-08T14:12:53.000Z</time>
      </trkpt>
      <trkpt lat="45.81449" lon="1.77422">
        <ele>430</ele>
        <time>2026-08-08T14:12:54.000Z</time>
      </trkpt>
      <trkpt lat="45.81448" lon="1.77411">
        <ele>429.9</ele>
        <time>2026-08-08T14:12:56.000Z</time>
      </trkpt>
      <trkpt lat="45.81447" lon="1.77405">
        <ele>429.9</ele>
        <time>2026-08-08T14:12:57.000Z</time>
      </trkpt>
      <trkpt lat="45.81446" lon="1.77399">
        <ele>430</ele>
        <time>2026-08-08T14:12:58.000Z</time>
      </trkpt>
      <trkpt lat="45.81441" lon="1.77387">
        <ele>430.1</ele>
        <time>2026-08-08T14:13:00.000Z</time>
      </trkpt>
      <trkpt lat="45.81439" lon="1.7738">
        <ele>430.1</ele>
        <time>2026-08-08T14:13:01.000Z</time>
      </trkpt>
      <trkpt lat="45.81432" lon="1.77359">
        <ele>429.4</ele>
        <time>2026-08-08T14:13:04.000Z</time>
      </trkpt>
      <trkpt lat="45.81429" lon="1.77352">
        <ele>428.9</ele>
        <time>2026-08-08T14:13:05.000Z</time>
      </trkpt>
      <trkpt lat="45.81422" lon="1.77324">
        <ele>427</ele>
        <time>2026-08-08T14:13:09.000Z</time>
      </trkpt>
      <trkpt lat="45.8142" lon="1.77317">
        <ele>426.6</ele>
        <time>2026-08-08T14:13:10.000Z</time>
      </trkpt>
      <trkpt lat="45.81416" lon="1.77302">
        <ele>426</ele>
        <time>2026-08-08T14:13:12.000Z</time>
      </trkpt>
      <trkpt lat="45.81414" lon="1.77288">
        <ele>426</ele>
        <time>2026-08-08T14:13:14.000Z</time>
      </trkpt>
      <trkpt lat="45.81412" lon="1.77275">
        <ele>425.9</ele>
        <time>2026-08-08T14:13:16.000Z</time>
      </trkpt>
      <trkpt lat="45.81412" lon="1.77264">
        <ele>425.5</ele>
        <time>2026-08-08T14:13:18.000Z</time>
      </trkpt>
      <trkpt lat="45.81412" lon="1.77252">
        <ele>425.1</ele>
        <time>2026-08-08T14:13:21.000Z</time>
      </trkpt>
      <trkpt lat="45.81409" lon="1.77245">
        <ele>424.9</ele>
        <time>2026-08-08T14:13:26.000Z</time>
      </trkpt>
      <trkpt lat="45.81406" lon="1.77242">
        <ele>424.9</ele>
        <time>2026-08-08T14:13:28.000Z</time>
      </trkpt>
      <trkpt lat="45.81396" lon="1.77238">
        <ele>424.7</ele>
        <time>2026-08-08T14:13:32.000Z</time>
      </trkpt>
      <trkpt lat="45.81379" lon="1.77232">
        <ele>425</ele>
        <time>2026-08-08T14:13:39.000Z</time>
      </trkpt>
      <trkpt lat="45.81377" lon="1.77231">
        <ele>425.1</ele>
        <time>2026-08-08T14:13:40.000Z</time>
      </trkpt>
      <trkpt lat="45.8137" lon="1.77231">
        <ele>425.5</ele>
        <time>2026-08-08T14:13:43.000Z</time>
      </trkpt>
      <trkpt lat="45.81352" lon="1.77223">
        <ele>426.1</ele>
        <time>2026-08-08T14:13:50.000Z</time>
      </trkpt>
      <trkpt lat="45.8135" lon="1.77223">
        <ele>426</ele>
        <time>2026-08-08T14:13:51.000Z</time>
      </trkpt>
      <trkpt lat="45.81338" lon="1.77221">
        <ele>426</ele>
        <time>2026-08-08T14:13:56.000Z</time>
      </trkpt>
      <trkpt lat="45.81329" lon="1.77218">
        <ele>426.3</ele>
        <time>2026-08-08T14:14:00.000Z</time>
      </trkpt>
      <trkpt lat="45.81315" lon="1.77215">
        <ele>427.1</ele>
        <time>2026-08-08T14:14:06.000Z</time>
      </trkpt>
      <trkpt lat="45.81291" lon="1.77205">
        <ele>428.1</ele>
        <time>2026-08-08T14:14:16.000Z</time>
      </trkpt>
      <trkpt lat="45.81288" lon="1.77203">
        <ele>428.1</ele>
        <time>2026-08-08T14:14:17.000Z</time>
      </trkpt>
      <trkpt lat="45.81267" lon="1.77197">
        <ele>428.1</ele>
        <time>2026-08-08T14:14:24.000Z</time>
      </trkpt>
      <trkpt lat="45.81247" lon="1.7719">
        <ele>428.7</ele>
        <time>2026-08-08T14:14:32.000Z</time>
      </trkpt>
      <trkpt lat="45.81234" lon="1.77186">
        <ele>429</ele>
        <time>2026-08-08T14:14:37.000Z</time>
      </trkpt>
      <trkpt lat="45.81229" lon="1.77184">
        <ele>429</ele>
        <time>2026-08-08T14:14:39.000Z</time>
      </trkpt>
      <trkpt lat="45.81209" lon="1.77175">
        <ele>429</ele>
        <time>2026-08-08T14:14:47.000Z</time>
      </trkpt>
      <trkpt lat="45.81191" lon="1.77167">
        <ele>429.3</ele>
        <time>2026-08-08T14:14:54.000Z</time>
      </trkpt>
      <trkpt lat="45.81175" lon="1.77153">
        <ele>430.1</ele>
        <time>2026-08-08T14:15:01.000Z</time>
      </trkpt>
      <trkpt lat="45.81164" lon="1.77137">
        <ele>431.4</ele>
        <time>2026-08-08T14:15:07.000Z</time>
      </trkpt>
      <trkpt lat="45.81157" lon="1.77114">
        <ele>432.1</ele>
        <time>2026-08-08T14:15:14.000Z</time>
      </trkpt>
      <trkpt lat="45.81152" lon="1.77085">
        <ele>431.2</ele>
        <time>2026-08-08T14:15:22.000Z</time>
      </trkpt>
      <trkpt lat="45.81151" lon="1.77073">
        <ele>431.3</ele>
        <time>2026-08-08T14:15:25.000Z</time>
      </trkpt>
      <trkpt lat="45.81152" lon="1.77036">
        <ele>431.5</ele>
        <time>2026-08-08T14:15:35.000Z</time>
      </trkpt>
      <trkpt lat="45.81154" lon="1.7702">
        <ele>431.9</ele>
        <time>2026-08-08T14:15:39.000Z</time>
      </trkpt>
      <trkpt lat="45.81157" lon="1.77008">
        <ele>432.4</ele>
        <time>2026-08-08T14:15:42.000Z</time>
      </trkpt>
      <trkpt lat="45.81165" lon="1.76984">
        <ele>433.8</ele>
        <time>2026-08-08T14:15:49.000Z</time>
      </trkpt>
      <trkpt lat="45.81168" lon="1.76978">
        <ele>434.2</ele>
        <time>2026-08-08T14:15:51.000Z</time>
      </trkpt>
      <trkpt lat="45.81176" lon="1.76957">
        <ele>435.5</ele>
        <time>2026-08-08T14:15:58.000Z</time>
      </trkpt>
      <trkpt lat="45.81177" lon="1.76946">
        <ele>436.4</ele>
        <time>2026-08-08T14:16:01.000Z</time>
      </trkpt>
      <trkpt lat="45.81178" lon="1.76939">
        <ele>436.5</ele>
        <time>2026-08-08T14:16:03.000Z</time>
      </trkpt>
      <trkpt lat="45.81178" lon="1.76923">
        <ele>436.1</ele>
        <time>2026-08-08T14:16:07.000Z</time>
      </trkpt>
      <trkpt lat="45.8117" lon="1.76901">
        <ele>434.9</ele>
        <time>2026-08-08T14:16:12.000Z</time>
      </trkpt>
      <trkpt lat="45.81156" lon="1.76868">
        <ele>433.6</ele>
        <time>2026-08-08T14:16:19.000Z</time>
      </trkpt>
      <trkpt lat="45.81137" lon="1.76822">
        <ele>432.4</ele>
        <time>2026-08-08T14:16:27.000Z</time>
      </trkpt>
      <trkpt lat="45.81135" lon="1.76817">
        <ele>432.3</ele>
        <time>2026-08-08T14:16:28.000Z</time>
      </trkpt>
      <trkpt lat="45.81114" lon="1.7677">
        <ele>431.4</ele>
        <time>2026-08-08T14:16:36.000Z</time>
      </trkpt>
      <trkpt lat="45.81109" lon="1.76758">
        <ele>431.5</ele>
        <time>2026-08-08T14:16:38.000Z</time>
      </trkpt>
      <trkpt lat="45.81103" lon="1.76745">
        <ele>431.3</ele>
        <time>2026-08-08T14:16:40.000Z</time>
      </trkpt>
      <trkpt lat="45.81101" lon="1.76739">
        <ele>431.2</ele>
        <time>2026-08-08T14:16:41.000Z</time>
      </trkpt>
      <trkpt lat="45.81092" lon="1.7672">
        <ele>430.5</ele>
        <time>2026-08-08T14:16:44.000Z</time>
      </trkpt>
      <trkpt lat="45.81079" lon="1.76691">
        <ele>429.1</ele>
        <time>2026-08-08T14:16:49.000Z</time>
      </trkpt>
      <trkpt lat="45.81077" lon="1.76686">
        <ele>429.1</ele>
        <time>2026-08-08T14:16:50.000Z</time>
      </trkpt>
      <trkpt lat="45.81058" lon="1.76652">
        <ele>428.4</ele>
        <time>2026-08-08T14:16:57.000Z</time>
      </trkpt>
      <trkpt lat="45.81045" lon="1.76637">
        <ele>427.2</ele>
        <time>2026-08-08T14:17:00.000Z</time>
      </trkpt>
      <trkpt lat="45.81032" lon="1.76625">
        <ele>426.1</ele>
        <time>2026-08-08T14:17:03.000Z</time>
      </trkpt>
      <trkpt lat="45.81022" lon="1.7662">
        <ele>425.7</ele>
        <time>2026-08-08T14:17:05.000Z</time>
      </trkpt>
      <trkpt lat="45.81012" lon="1.76616">
        <ele>425</ele>
        <time>2026-08-08T14:17:07.000Z</time>
      </trkpt>
      <trkpt lat="45.81008" lon="1.76613">
        <ele>424.6</ele>
        <time>2026-08-08T14:17:08.000Z</time>
      </trkpt>
      <trkpt lat="45.81004" lon="1.76608">
        <ele>424.3</ele>
        <time>2026-08-08T14:17:09.000Z</time>
      </trkpt>
      <trkpt lat="45.81" lon="1.76603">
        <ele>424.3</ele>
        <time>2026-08-08T14:17:10.000Z</time>
      </trkpt>
      <trkpt lat="45.80999" lon="1.76597">
        <ele>424.4</ele>
        <time>2026-08-08T14:17:11.000Z</time>
      </trkpt>
      <trkpt lat="45.80998" lon="1.76576">
        <ele>424.5</ele>
        <time>2026-08-08T14:17:14.000Z</time>
      </trkpt>
      <trkpt lat="45.80998" lon="1.76569">
        <ele>424.3</ele>
        <time>2026-08-08T14:17:15.000Z</time>
      </trkpt>
      <trkpt lat="45.81002" lon="1.76547">
        <ele>423.8</ele>
        <time>2026-08-08T14:17:18.000Z</time>
      </trkpt>
      <trkpt lat="45.81007" lon="1.76526">
        <ele>423.4</ele>
        <time>2026-08-08T14:17:21.000Z</time>
      </trkpt>
      <trkpt lat="45.8101" lon="1.76517">
        <ele>423.2</ele>
        <time>2026-08-08T14:17:22.000Z</time>
      </trkpt>
      <trkpt lat="45.81016" lon="1.76504">
        <ele>422.8</ele>
        <time>2026-08-08T14:17:24.000Z</time>
      </trkpt>
      <trkpt lat="45.81025" lon="1.76492">
        <ele>422.6</ele>
        <time>2026-08-08T14:17:26.000Z</time>
      </trkpt>
      <trkpt lat="45.81028" lon="1.76486">
        <ele>422.5</ele>
        <time>2026-08-08T14:17:27.000Z</time>
      </trkpt>
      <trkpt lat="45.81032" lon="1.76475">
        <ele>422.1</ele>
        <time>2026-08-08T14:17:29.000Z</time>
      </trkpt>
      <trkpt lat="45.81032" lon="1.76469">
        <ele>421.9</ele>
        <time>2026-08-08T14:17:30.000Z</time>
      </trkpt>
      <trkpt lat="45.81029" lon="1.76462">
        <ele>421.7</ele>
        <time>2026-08-08T14:17:31.000Z</time>
      </trkpt>
      <trkpt lat="45.81027" lon="1.76458">
        <ele>421.5</ele>
        <time>2026-08-08T14:17:32.000Z</time>
      </trkpt>
      <trkpt lat="45.8102" lon="1.76439">
        <ele>421</ele>
        <time>2026-08-08T14:17:35.000Z</time>
      </trkpt>
      <trkpt lat="45.8101" lon="1.76414">
        <ele>419.8</ele>
        <time>2026-08-08T14:17:39.000Z</time>
      </trkpt>
      <trkpt lat="45.80998" lon="1.76386">
        <ele>417.1</ele>
        <time>2026-08-08T14:17:43.000Z</time>
      </trkpt>
      <trkpt lat="45.80995" lon="1.76377">
        <ele>417.2</ele>
        <time>2026-08-08T14:17:44.000Z</time>
      </trkpt>
      <trkpt lat="45.80989" lon="1.76362">
        <ele>417</ele>
        <time>2026-08-08T14:17:46.000Z</time>
      </trkpt>
      <trkpt lat="45.80978" lon="1.76334">
        <ele>414.5</ele>
        <time>2026-08-08T14:17:49.000Z</time>
      </trkpt>
      <trkpt lat="45.80974" lon="1.76324">
        <ele>413.8</ele>
        <time>2026-08-08T14:17:50.000Z</time>
      </trkpt>
      <trkpt lat="45.80966" lon="1.76302">
        <ele>413.2</ele>
        <time>2026-08-08T14:17:52.000Z</time>
      </trkpt>
      <trkpt lat="45.80953" lon="1.76266">
        <ele>411.7</ele>
        <time>2026-08-08T14:17:55.000Z</time>
      </trkpt>
      <trkpt lat="45.80943" lon="1.76231">
        <ele>409.7</ele>
        <time>2026-08-08T14:17:58.000Z</time>
      </trkpt>
      <trkpt lat="45.80933" lon="1.76199">
        <ele>409.2</ele>
        <time>2026-08-08T14:18:01.000Z</time>
      </trkpt>
      <trkpt lat="45.80929" lon="1.76188">
        <ele>408.6</ele>
        <time>2026-08-08T14:18:02.000Z</time>
      </trkpt>
      <trkpt lat="45.80927" lon="1.76178">
        <ele>408</ele>
        <time>2026-08-08T14:18:03.000Z</time>
      </trkpt>
      <trkpt lat="45.80923" lon="1.76159">
        <ele>406.9</ele>
        <time>2026-08-08T14:18:05.000Z</time>
      </trkpt>
      <trkpt lat="45.8092" lon="1.76152">
        <ele>406.6</ele>
        <time>2026-08-08T14:18:06.000Z</time>
      </trkpt>
      <trkpt lat="45.80909" lon="1.76124">
        <ele>404.8</ele>
        <time>2026-08-08T14:18:09.000Z</time>
      </trkpt>
      <trkpt lat="45.80899" lon="1.76106">
        <ele>403.5</ele>
        <time>2026-08-08T14:18:11.000Z</time>
      </trkpt>
      <trkpt lat="45.80894" lon="1.76096">
        <ele>402.4</ele>
        <time>2026-08-08T14:18:12.000Z</time>
      </trkpt>
      <trkpt lat="45.80876" lon="1.76066">
        <ele>400.5</ele>
        <time>2026-08-08T14:18:15.000Z</time>
      </trkpt>
      <trkpt lat="45.80865" lon="1.76046">
        <ele>400.6</ele>
        <time>2026-08-08T14:18:17.000Z</time>
      </trkpt>
      <trkpt lat="45.80861" lon="1.76039">
        <ele>400.4</ele>
        <time>2026-08-08T14:18:18.000Z</time>
      </trkpt>
      <trkpt lat="45.80849" lon="1.7602">
        <ele>399.7</ele>
        <time>2026-08-08T14:18:20.000Z</time>
      </trkpt>
      <trkpt lat="45.80836" lon="1.75997">
        <ele>400.8</ele>
        <time>2026-08-08T14:18:23.000Z</time>
      </trkpt>
      <trkpt lat="45.80829" lon="1.75984">
        <ele>400.9</ele>
        <time>2026-08-08T14:18:25.000Z</time>
      </trkpt>
      <trkpt lat="45.80818" lon="1.75966">
        <ele>401.3</ele>
        <time>2026-08-08T14:18:28.000Z</time>
      </trkpt>
      <trkpt lat="45.80807" lon="1.75944">
        <ele>403.9</ele>
        <time>2026-08-08T14:18:33.000Z</time>
      </trkpt>
      <trkpt lat="45.808" lon="1.75934">
        <ele>404.5</ele>
        <time>2026-08-08T14:18:37.000Z</time>
      </trkpt>
      <trkpt lat="45.80799" lon="1.75932">
        <ele>404.6</ele>
        <time>2026-08-08T14:18:38.000Z</time>
      </trkpt>
      <trkpt lat="45.80793" lon="1.75923">
        <ele>405.3</ele>
        <time>2026-08-08T14:18:43.000Z</time>
      </trkpt>
      <trkpt lat="45.8079" lon="1.75917">
        <ele>405.7</ele>
        <time>2026-08-08T14:18:46.000Z</time>
      </trkpt>
      <trkpt lat="45.80788" lon="1.75914">
        <ele>406.2</ele>
        <time>2026-08-08T14:18:48.000Z</time>
      </trkpt>
      <trkpt lat="45.80783" lon="1.75911">
        <ele>407.2</ele>
        <time>2026-08-08T14:18:52.000Z</time>
      </trkpt>
      <trkpt lat="45.80781" lon="1.75908">
        <ele>407.7</ele>
        <time>2026-08-08T14:18:54.000Z</time>
      </trkpt>
      <trkpt lat="45.8078" lon="1.75907">
        <ele>407.9</ele>
        <time>2026-08-08T14:18:55.000Z</time>
      </trkpt>
      <trkpt lat="45.80772" lon="1.75896">
        <ele>410.1</ele>
        <time>2026-08-08T14:19:02.000Z</time>
      </trkpt>
      <trkpt lat="45.80771" lon="1.75894">
        <ele>410.5</ele>
        <time>2026-08-08T14:19:03.000Z</time>
      </trkpt>
      <trkpt lat="45.80761" lon="1.75883">
        <ele>412.6</ele>
        <time>2026-08-08T14:19:11.000Z</time>
      </trkpt>
      <trkpt lat="45.80759" lon="1.75881">
        <ele>412.8</ele>
        <time>2026-08-08T14:19:13.000Z</time>
      </trkpt>
      <trkpt lat="45.80751" lon="1.7587">
        <ele>412.6</ele>
        <time>2026-08-08T14:19:20.000Z</time>
      </trkpt>
      <trkpt lat="45.8075" lon="1.75868">
        <ele>412.5</ele>
        <time>2026-08-08T14:19:21.000Z</time>
      </trkpt>
      <trkpt lat="45.80744" lon="1.75858">
        <ele>413.5</ele>
        <time>2026-08-08T14:19:27.000Z</time>
      </trkpt>
      <trkpt lat="45.80742" lon="1.75856">
        <ele>413.9</ele>
        <time>2026-08-08T14:19:28.000Z</time>
      </trkpt>
      <trkpt lat="45.80736" lon="1.75844">
        <ele>415.1</ele>
        <time>2026-08-08T14:19:35.000Z</time>
      </trkpt>
      <trkpt lat="45.80728" lon="1.75831">
        <ele>414.7</ele>
        <time>2026-08-08T14:19:43.000Z</time>
      </trkpt>
      <trkpt lat="45.80725" lon="1.75825">
        <ele>414.5</ele>
        <time>2026-08-08T14:19:46.000Z</time>
      </trkpt>
      <trkpt lat="45.80719" lon="1.75812">
        <ele>414.9</ele>
        <time>2026-08-08T14:19:52.000Z</time>
      </trkpt>
      <trkpt lat="45.80711" lon="1.75798">
        <ele>415.2</ele>
        <time>2026-08-08T14:19:59.000Z</time>
      </trkpt>
      <trkpt lat="45.80699" lon="1.75773">
        <ele>414</ele>
        <time>2026-08-08T14:20:08.000Z</time>
      </trkpt>
      <trkpt lat="45.80683" lon="1.75751">
        <ele>413.5</ele>
        <time>2026-08-08T14:20:14.000Z</time>
      </trkpt>
      <trkpt lat="45.80654" lon="1.75723">
        <ele>412.5</ele>
        <time>2026-08-08T14:20:21.000Z</time>
      </trkpt>
      <trkpt lat="45.80631" lon="1.757">
        <ele>411.3</ele>
        <time>2026-08-08T14:20:26.000Z</time>
      </trkpt>
      <trkpt lat="45.80621" lon="1.75689">
        <ele>410.8</ele>
        <time>2026-08-08T14:20:28.000Z</time>
      </trkpt>
      <trkpt lat="45.80602" lon="1.7567">
        <ele>409.8</ele>
        <time>2026-08-08T14:20:31.000Z</time>
      </trkpt>
      <trkpt lat="45.80575" lon="1.75643">
        <ele>408.7</ele>
        <time>2026-08-08T14:20:35.000Z</time>
      </trkpt>
      <trkpt lat="45.80543" lon="1.75611">
        <ele>408</ele>
        <time>2026-08-08T14:20:40.000Z</time>
      </trkpt>
      <trkpt lat="45.80515" lon="1.75583">
        <ele>409.5</ele>
        <time>2026-08-08T14:20:45.000Z</time>
      </trkpt>
      <trkpt lat="45.80495" lon="1.75562">
        <ele>411.2</ele>
        <time>2026-08-08T14:20:50.000Z</time>
      </trkpt>
      <trkpt lat="45.80483" lon="1.7555">
        <ele>412.4</ele>
        <time>2026-08-08T14:20:55.000Z</time>
      </trkpt>
      <trkpt lat="45.80478" lon="1.75545">
        <ele>412.8</ele>
        <time>2026-08-08T14:20:58.000Z</time>
      </trkpt>
      <trkpt lat="45.80472" lon="1.7554">
        <ele>413</ele>
        <time>2026-08-08T14:21:01.000Z</time>
      </trkpt>
      <trkpt lat="45.80466" lon="1.75534">
        <ele>413.9</ele>
        <time>2026-08-08T14:21:05.000Z</time>
      </trkpt>
      <trkpt lat="45.80463" lon="1.75533">
        <ele>414.2</ele>
        <time>2026-08-08T14:21:06.000Z</time>
      </trkpt>
      <trkpt lat="45.80461" lon="1.7553">
        <ele>414.7</ele>
        <time>2026-08-08T14:21:08.000Z</time>
      </trkpt>
      <trkpt lat="45.80449" lon="1.75521">
        <ele>416</ele>
        <time>2026-08-08T14:21:15.000Z</time>
      </trkpt>
      <trkpt lat="45.80442" lon="1.75514">
        <ele>416.3</ele>
        <time>2026-08-08T14:21:20.000Z</time>
      </trkpt>
      <trkpt lat="45.80436" lon="1.75506">
        <ele>416.3</ele>
        <time>2026-08-08T14:21:25.000Z</time>
      </trkpt>
      <trkpt lat="45.80432" lon="1.75502">
        <ele>416.5</ele>
        <time>2026-08-08T14:21:29.000Z</time>
      </trkpt>
      <trkpt lat="45.80429" lon="1.75499">
        <ele>416.6</ele>
        <time>2026-08-08T14:21:32.000Z</time>
      </trkpt>
      <trkpt lat="45.80421" lon="1.75491">
        <ele>417.3</ele>
        <time>2026-08-08T14:21:39.000Z</time>
      </trkpt>
      <trkpt lat="45.80406" lon="1.75477">
        <ele>418</ele>
        <time>2026-08-08T14:21:49.000Z</time>
      </trkpt>
      <trkpt lat="45.8039" lon="1.75462">
        <ele>418.5</ele>
        <time>2026-08-08T14:21:57.000Z</time>
      </trkpt>
      <trkpt lat="45.80389" lon="1.75461">
        <ele>418.6</ele>
        <time>2026-08-08T14:21:58.000Z</time>
      </trkpt>
      <trkpt lat="45.80376" lon="1.75448">
        <ele>419.6</ele>
        <time>2026-08-08T14:22:06.000Z</time>
      </trkpt>
      <trkpt lat="45.80363" lon="1.75434">
        <ele>420.4</ele>
        <time>2026-08-08T14:22:15.000Z</time>
      </trkpt>
      <trkpt lat="45.80357" lon="1.75429">
        <ele>421</ele>
        <time>2026-08-08T14:22:19.000Z</time>
      </trkpt>
      <trkpt lat="45.80351" lon="1.75423">
        <ele>421.4</ele>
        <time>2026-08-08T14:22:23.000Z</time>
      </trkpt>
      <trkpt lat="45.80342" lon="1.75413">
        <ele>421.7</ele>
        <time>2026-08-08T14:22:29.000Z</time>
      </trkpt>
      <trkpt lat="45.80334" lon="1.75407">
        <ele>421.9</ele>
        <time>2026-08-08T14:22:34.000Z</time>
      </trkpt>
      <trkpt lat="45.80332" lon="1.75404">
        <ele>421.9</ele>
        <time>2026-08-08T14:22:36.000Z</time>
      </trkpt>
      <trkpt lat="45.80321" lon="1.75386">
        <ele>422.1</ele>
        <time>2026-08-08T14:22:44.000Z</time>
      </trkpt>
      <trkpt lat="45.80316" lon="1.75363">
        <ele>422.6</ele>
        <time>2026-08-08T14:22:52.000Z</time>
      </trkpt>
      <trkpt lat="45.80314" lon="1.75353">
        <ele>422.9</ele>
        <time>2026-08-08T14:22:55.000Z</time>
      </trkpt>
      <trkpt lat="45.80316" lon="1.75343">
        <ele>423</ele>
        <time>2026-08-08T14:22:58.000Z</time>
      </trkpt>
      <trkpt lat="45.80323" lon="1.75317">
        <ele>423.4</ele>
        <time>2026-08-08T14:23:07.000Z</time>
      </trkpt>
      <trkpt lat="45.80323" lon="1.75314">
        <ele>423.4</ele>
        <time>2026-08-08T14:23:08.000Z</time>
      </trkpt>
      <trkpt lat="45.80326" lon="1.75292">
        <ele>424.9</ele>
        <time>2026-08-08T14:23:16.000Z</time>
      </trkpt>
      <trkpt lat="45.80327" lon="1.7529">
        <ele>425.2</ele>
        <time>2026-08-08T14:23:17.000Z</time>
      </trkpt>
      <trkpt lat="45.80327" lon="1.75274">
        <ele>426.5</ele>
        <time>2026-08-08T14:23:24.000Z</time>
      </trkpt>
      <trkpt lat="45.80326" lon="1.7527">
        <ele>426.7</ele>
        <time>2026-08-08T14:23:26.000Z</time>
      </trkpt>
      <trkpt lat="45.80326" lon="1.75268">
        <ele>426.8</ele>
        <time>2026-08-08T14:23:27.000Z</time>
      </trkpt>
      <trkpt lat="45.80325" lon="1.75263">
        <ele>427</ele>
        <time>2026-08-08T14:23:29.000Z</time>
      </trkpt>
      <trkpt lat="45.80326" lon="1.7526">
        <ele>427</ele>
        <time>2026-08-08T14:23:31.000Z</time>
      </trkpt>
      <trkpt lat="45.80323" lon="1.75251">
        <ele>427.9</ele>
        <time>2026-08-08T14:23:35.000Z</time>
      </trkpt>
      <trkpt lat="45.8032" lon="1.75243">
        <ele>428.2</ele>
        <time>2026-08-08T14:23:39.000Z</time>
      </trkpt>
      <trkpt lat="45.80316" lon="1.75237">
        <ele>428.6</ele>
        <time>2026-08-08T14:23:42.000Z</time>
      </trkpt>
      <trkpt lat="45.80309" lon="1.75225">
        <ele>428.8</ele>
        <time>2026-08-08T14:23:48.000Z</time>
      </trkpt>
      <trkpt lat="45.80308" lon="1.75223">
        <ele>428.8</ele>
        <time>2026-08-08T14:23:49.000Z</time>
      </trkpt>
      <trkpt lat="45.80298" lon="1.75211">
        <ele>429.9</ele>
        <time>2026-08-08T14:23:56.000Z</time>
      </trkpt>
      <trkpt lat="45.80294" lon="1.75207">
        <ele>430.4</ele>
        <time>2026-08-08T14:23:59.000Z</time>
      </trkpt>
      <trkpt lat="45.80285" lon="1.75197">
        <ele>431.8</ele>
        <time>2026-08-08T14:24:05.000Z</time>
      </trkpt>
      <trkpt lat="45.80278" lon="1.75188">
        <ele>432</ele>
        <time>2026-08-08T14:24:10.000Z</time>
      </trkpt>
      <trkpt lat="45.80275" lon="1.75183">
        <ele>432</ele>
        <time>2026-08-08T14:24:13.000Z</time>
      </trkpt>
      <trkpt lat="45.80266" lon="1.75171">
        <ele>432.8</ele>
        <time>2026-08-08T14:24:21.000Z</time>
      </trkpt>
      <trkpt lat="45.80265" lon="1.75169">
        <ele>432.9</ele>
        <time>2026-08-08T14:24:22.000Z</time>
      </trkpt>
      <trkpt lat="45.80264" lon="1.75167">
        <ele>432.9</ele>
        <time>2026-08-08T14:24:23.000Z</time>
      </trkpt>
      <trkpt lat="45.80261" lon="1.75161">
        <ele>433.8</ele>
        <time>2026-08-08T14:24:26.000Z</time>
      </trkpt>
      <trkpt lat="45.8026" lon="1.75151">
        <ele>434</ele>
        <time>2026-08-08T14:24:31.000Z</time>
      </trkpt>
      <trkpt lat="45.8026" lon="1.75146">
        <ele>434</ele>
        <time>2026-08-08T14:24:34.000Z</time>
      </trkpt>
      <trkpt lat="45.8026" lon="1.75144">
        <ele>433.8</ele>
        <time>2026-08-08T14:24:35.000Z</time>
      </trkpt>
      <trkpt lat="45.80261" lon="1.75142">
        <ele>433.7</ele>
        <time>2026-08-08T14:24:36.000Z</time>
      </trkpt>
      <trkpt lat="45.80263" lon="1.75135">
        <ele>434</ele>
        <time>2026-08-08T14:24:40.000Z</time>
      </trkpt>
      <trkpt lat="45.80263" lon="1.75131">
        <ele>434.7</ele>
        <time>2026-08-08T14:24:42.000Z</time>
      </trkpt>
      <trkpt lat="45.80264" lon="1.75129">
        <ele>434.9</ele>
        <time>2026-08-08T14:24:43.000Z</time>
      </trkpt>
      <trkpt lat="45.80269" lon="1.75122">
        <ele>435.4</ele>
        <time>2026-08-08T14:24:48.000Z</time>
      </trkpt>
      <trkpt lat="45.80269" lon="1.75118">
        <ele>436.3</ele>
        <time>2026-08-08T14:24:50.000Z</time>
      </trkpt>
      <trkpt lat="45.80273" lon="1.75107">
        <ele>437.3</ele>
        <time>2026-08-08T14:24:55.000Z</time>
      </trkpt>
      <trkpt lat="45.80275" lon="1.75099">
        <ele>437.5</ele>
        <time>2026-08-08T14:25:00.000Z</time>
      </trkpt>
      <trkpt lat="45.80281" lon="1.75085">
        <ele>437.3</ele>
        <time>2026-08-08T14:25:07.000Z</time>
      </trkpt>
      <trkpt lat="45.80286" lon="1.75071">
        <ele>437.9</ele>
        <time>2026-08-08T14:25:14.000Z</time>
      </trkpt>
      <trkpt lat="45.80287" lon="1.75069">
        <ele>437.9</ele>
        <time>2026-08-08T14:25:15.000Z</time>
      </trkpt>
      <trkpt lat="45.8029" lon="1.75057">
        <ele>438.6</ele>
        <time>2026-08-08T14:25:21.000Z</time>
      </trkpt>
      <trkpt lat="45.80292" lon="1.75055">
        <ele>438.7</ele>
        <time>2026-08-08T14:25:23.000Z</time>
      </trkpt>
      <trkpt lat="45.80294" lon="1.75049">
        <ele>439.2</ele>
        <time>2026-08-08T14:25:26.000Z</time>
      </trkpt>
      <trkpt lat="45.80302" lon="1.75037">
        <ele>439.6</ele>
        <time>2026-08-08T14:25:34.000Z</time>
      </trkpt>
      <trkpt lat="45.80303" lon="1.75035">
        <ele>439.6</ele>
        <time>2026-08-08T14:25:36.000Z</time>
      </trkpt>
      <trkpt lat="45.80308" lon="1.75021">
        <ele>440</ele>
        <time>2026-08-08T14:25:43.000Z</time>
      </trkpt>
      <trkpt lat="45.80314" lon="1.75008">
        <ele>439.8</ele>
        <time>2026-08-08T14:25:50.000Z</time>
      </trkpt>
      <trkpt lat="45.80315" lon="1.75004">
        <ele>439.7</ele>
        <time>2026-08-08T14:25:52.000Z</time>
      </trkpt>
      <trkpt lat="45.80315" lon="1.75004">
        <ele>439.7</ele>
        <time>2026-08-08T14:25:55.000Z</time>
      </trkpt>
      <trkpt lat="45.80317" lon="1.74983">
        <ele>440</ele>
        <time>2026-08-08T14:26:20.000Z</time>
      </trkpt>
      <trkpt lat="45.80317" lon="1.7498">
        <ele>440.3</ele>
        <time>2026-08-08T14:26:25.000Z</time>
      </trkpt>
      <trkpt lat="45.80317" lon="1.74977">
        <ele>440.4</ele>
        <time>2026-08-08T14:26:28.000Z</time>
      </trkpt>
      <trkpt lat="45.80316" lon="1.74975">
        <ele>440.6</ele>
        <time>2026-08-08T14:26:30.000Z</time>
      </trkpt>
      <trkpt lat="45.80317" lon="1.74971">
        <ele>440.3</ele>
        <time>2026-08-08T14:26:36.000Z</time>
      </trkpt>
      <trkpt lat="45.80317" lon="1.74969">
        <ele>440.3</ele>
        <time>2026-08-08T14:26:37.000Z</time>
      </trkpt>
      <trkpt lat="45.80315" lon="1.74964">
        <ele>440.9</ele>
        <time>2026-08-08T14:26:40.000Z</time>
      </trkpt>
      <trkpt lat="45.80315" lon="1.7496">
        <ele>440.9</ele>
        <time>2026-08-08T14:26:42.000Z</time>
      </trkpt>
      <trkpt lat="45.80314" lon="1.74958">
        <ele>441.2</ele>
        <time>2026-08-08T14:26:43.000Z</time>
      </trkpt>
      <trkpt lat="45.80314" lon="1.74957">
        <ele>441.3</ele>
        <time>2026-08-08T14:26:44.000Z</time>
      </trkpt>
      <trkpt lat="45.80311" lon="1.74949">
        <ele>442.1</ele>
        <time>2026-08-08T14:26:48.000Z</time>
      </trkpt>
      <trkpt lat="45.8031" lon="1.74944">
        <ele>442.1</ele>
        <time>2026-08-08T14:26:51.000Z</time>
      </trkpt>
      <trkpt lat="45.80309" lon="1.74939">
        <ele>442.4</ele>
        <time>2026-08-08T14:26:54.000Z</time>
      </trkpt>
      <trkpt lat="45.80306" lon="1.74927">
        <ele>443.4</ele>
        <time>2026-08-08T14:27:01.000Z</time>
      </trkpt>
      <trkpt lat="45.80304" lon="1.74924">
        <ele>443.8</ele>
        <time>2026-08-08T14:27:03.000Z</time>
      </trkpt>
      <trkpt lat="45.80299" lon="1.74907">
        <ele>444.5</ele>
        <time>2026-08-08T14:27:09.000Z</time>
      </trkpt>
      <trkpt lat="45.80298" lon="1.74886">
        <ele>443.8</ele>
        <time>2026-08-08T14:27:15.000Z</time>
      </trkpt>
      <trkpt lat="45.80306" lon="1.7487">
        <ele>444</ele>
        <time>2026-08-08T14:27:19.000Z</time>
      </trkpt>
      <trkpt lat="45.80319" lon="1.74858">
        <ele>444.7</ele>
        <time>2026-08-08T14:27:25.000Z</time>
      </trkpt>
      <trkpt lat="45.80324" lon="1.74857">
        <ele>444.6</ele>
        <time>2026-08-08T14:27:27.000Z</time>
      </trkpt>
      <trkpt lat="45.80334" lon="1.74853">
        <ele>444.4</ele>
        <time>2026-08-08T14:27:31.000Z</time>
      </trkpt>
      <trkpt lat="45.80343" lon="1.74846">
        <ele>444</ele>
        <time>2026-08-08T14:27:35.000Z</time>
      </trkpt>
      <trkpt lat="45.80347" lon="1.74841">
        <ele>444.1</ele>
        <time>2026-08-08T14:27:37.000Z</time>
      </trkpt>
      <trkpt lat="45.8035" lon="1.7482">
        <ele>443.9</ele>
        <time>2026-08-08T14:27:43.000Z</time>
      </trkpt>
      <trkpt lat="45.80348" lon="1.74796">
        <ele>444.5</ele>
        <time>2026-08-08T14:27:50.000Z</time>
      </trkpt>
      <trkpt lat="45.80343" lon="1.74777">
        <ele>446.2</ele>
        <time>2026-08-08T14:27:57.000Z</time>
      </trkpt>
      <trkpt lat="45.80338" lon="1.74759">
        <ele>447.5</ele>
        <time>2026-08-08T14:28:04.000Z</time>
      </trkpt>
      <trkpt lat="45.80337" lon="1.74757">
        <ele>447.8</ele>
        <time>2026-08-08T14:28:05.000Z</time>
      </trkpt>
      <trkpt lat="45.80331" lon="1.74742">
        <ele>448.6</ele>
        <time>2026-08-08T14:28:12.000Z</time>
      </trkpt>
      <trkpt lat="45.80327" lon="1.74736">
        <ele>448.7</ele>
        <time>2026-08-08T14:28:15.000Z</time>
      </trkpt>
      <trkpt lat="45.80323" lon="1.74732">
        <ele>449.1</ele>
        <time>2026-08-08T14:28:18.000Z</time>
      </trkpt>
      <trkpt lat="45.80316" lon="1.74722">
        <ele>449.8</ele>
        <time>2026-08-08T14:28:24.000Z</time>
      </trkpt>
      <trkpt lat="45.80314" lon="1.74717">
        <ele>449.9</ele>
        <time>2026-08-08T14:28:26.000Z</time>
      </trkpt>
      <trkpt lat="45.80305" lon="1.74707">
        <ele>451.5</ele>
        <time>2026-08-08T14:28:33.000Z</time>
      </trkpt>
      <trkpt lat="45.80298" lon="1.74698">
        <ele>451.9</ele>
        <time>2026-08-08T14:28:39.000Z</time>
      </trkpt>
      <trkpt lat="45.80297" lon="1.74696">
        <ele>451.9</ele>
        <time>2026-08-08T14:28:40.000Z</time>
      </trkpt>
      <trkpt lat="45.80292" lon="1.74685">
        <ele>451.7</ele>
        <time>2026-08-08T14:28:46.000Z</time>
      </trkpt>
      <trkpt lat="45.80282" lon="1.74673">
        <ele>452.6</ele>
        <time>2026-08-08T14:28:55.000Z</time>
      </trkpt>
      <trkpt lat="45.80281" lon="1.74671">
        <ele>452.6</ele>
        <time>2026-08-08T14:28:56.000Z</time>
      </trkpt>
      <trkpt lat="45.80273" lon="1.7466">
        <ele>453.6</ele>
        <time>2026-08-08T14:29:05.000Z</time>
      </trkpt>
      <trkpt lat="45.80262" lon="1.74644">
        <ele>454.6</ele>
        <time>2026-08-08T14:29:15.000Z</time>
      </trkpt>
      <trkpt lat="45.80258" lon="1.7464">
        <ele>454.9</ele>
        <time>2026-08-08T14:29:18.000Z</time>
      </trkpt>
      <trkpt lat="45.80257" lon="1.74635">
        <ele>455.2</ele>
        <time>2026-08-08T14:29:20.000Z</time>
      </trkpt>
      <trkpt lat="45.80254" lon="1.74627">
        <ele>456</ele>
        <time>2026-08-08T14:29:24.000Z</time>
      </trkpt>
      <trkpt lat="45.80252" lon="1.7462">
        <ele>456.5</ele>
        <time>2026-08-08T14:29:27.000Z</time>
      </trkpt>
      <trkpt lat="45.80249" lon="1.74607">
        <ele>457.2</ele>
        <time>2026-08-08T14:29:33.000Z</time>
      </trkpt>
      <trkpt lat="45.80248" lon="1.74603">
        <ele>457.5</ele>
        <time>2026-08-08T14:29:35.000Z</time>
      </trkpt>
      <trkpt lat="45.80248" lon="1.74592">
        <ele>457.9</ele>
        <time>2026-08-08T14:29:40.000Z</time>
      </trkpt>
      <trkpt lat="45.80252" lon="1.74582">
        <ele>458</ele>
        <time>2026-08-08T14:29:46.000Z</time>
      </trkpt>
      <trkpt lat="45.80259" lon="1.74574">
        <ele>457.9</ele>
        <time>2026-08-08T14:29:54.000Z</time>
      </trkpt>
      <trkpt lat="45.80273" lon="1.74563">
        <ele>457.3</ele>
        <time>2026-08-08T14:30:04.000Z</time>
      </trkpt>
      <trkpt lat="45.8029" lon="1.74549">
        <ele>456.3</ele>
        <time>2026-08-08T14:30:12.000Z</time>
      </trkpt>
      <trkpt lat="45.80298" lon="1.74542">
        <ele>455.5</ele>
        <time>2026-08-08T14:30:15.000Z</time>
      </trkpt>
      <trkpt lat="45.80308" lon="1.74536">
        <ele>454.5</ele>
        <time>2026-08-08T14:30:18.000Z</time>
      </trkpt>
      <trkpt lat="45.8032" lon="1.74531">
        <ele>453.6</ele>
        <time>2026-08-08T14:30:21.000Z</time>
      </trkpt>
      <trkpt lat="45.80329" lon="1.7453">
        <ele>453.2</ele>
        <time>2026-08-08T14:30:23.000Z</time>
      </trkpt>
      <trkpt lat="45.80334" lon="1.7453">
        <ele>453.1</ele>
        <time>2026-08-08T14:30:24.000Z</time>
      </trkpt>
      <trkpt lat="45.80361" lon="1.74525">
        <ele>452</ele>
        <time>2026-08-08T14:30:30.000Z</time>
      </trkpt>
      <trkpt lat="45.80375" lon="1.74524">
        <ele>452.1</ele>
        <time>2026-08-08T14:30:33.000Z</time>
      </trkpt>
      <trkpt lat="45.80396" lon="1.74517">
        <ele>452.3</ele>
        <time>2026-08-08T14:30:38.000Z</time>
      </trkpt>
      <trkpt lat="45.80417" lon="1.74508">
        <ele>452</ele>
        <time>2026-08-08T14:30:44.000Z</time>
      </trkpt>
      <trkpt lat="45.8043" lon="1.74501">
        <ele>452.5</ele>
        <time>2026-08-08T14:30:49.000Z</time>
      </trkpt>
      <trkpt lat="45.80445" lon="1.74493">
        <ele>453</ele>
        <time>2026-08-08T14:30:56.000Z</time>
      </trkpt>
      <trkpt lat="45.80453" lon="1.74487">
        <ele>453.3</ele>
        <time>2026-08-08T14:31:00.000Z</time>
      </trkpt>
      <trkpt lat="45.8046" lon="1.74478">
        <ele>453.6</ele>
        <time>2026-08-08T14:31:04.000Z</time>
      </trkpt>
      <trkpt lat="45.80473" lon="1.74454">
        <ele>453.4</ele>
        <time>2026-08-08T14:31:12.000Z</time>
      </trkpt>
      <trkpt lat="45.80475" lon="1.74447">
        <ele>453.3</ele>
        <time>2026-08-08T14:31:14.000Z</time>
      </trkpt>
      <trkpt lat="45.80476" lon="1.74439">
        <ele>453.1</ele>
        <time>2026-08-08T14:31:16.000Z</time>
      </trkpt>
      <trkpt lat="45.80477" lon="1.74435">
        <ele>453</ele>
        <time>2026-08-08T14:31:17.000Z</time>
      </trkpt>
      <trkpt lat="45.80476" lon="1.74406">
        <ele>451.9</ele>
        <time>2026-08-08T14:31:23.000Z</time>
      </trkpt>
      <trkpt lat="45.80474" lon="1.74397">
        <ele>451.4</ele>
        <time>2026-08-08T14:31:25.000Z</time>
      </trkpt>
      <trkpt lat="45.80469" lon="1.74365">
        <ele>450.1</ele>
        <time>2026-08-08T14:31:32.000Z</time>
      </trkpt>
      <trkpt lat="45.80463" lon="1.74334">
        <ele>448.7</ele>
        <time>2026-08-08T14:31:38.000Z</time>
      </trkpt>
      <trkpt lat="45.80463" lon="1.74328">
        <ele>448.3</ele>
        <time>2026-08-08T14:31:39.000Z</time>
      </trkpt>
      <trkpt lat="45.80462" lon="1.74309">
        <ele>446.8</ele>
        <time>2026-08-08T14:31:42.000Z</time>
      </trkpt>
      <trkpt lat="45.80462" lon="1.74295">
        <ele>445.9</ele>
        <time>2026-08-08T14:31:44.000Z</time>
      </trkpt>
      <trkpt lat="45.80463" lon="1.74282">
        <ele>444.9</ele>
        <time>2026-08-08T14:31:46.000Z</time>
      </trkpt>
      <trkpt lat="45.80464" lon="1.74269">
        <ele>444.1</ele>
        <time>2026-08-08T14:31:48.000Z</time>
      </trkpt>
      <trkpt lat="45.80467" lon="1.74257">
        <ele>443.3</ele>
        <time>2026-08-08T14:31:50.000Z</time>
      </trkpt>
      <trkpt lat="45.80471" lon="1.74245">
        <ele>442.6</ele>
        <time>2026-08-08T14:31:52.000Z</time>
      </trkpt>
      <trkpt lat="45.80474" lon="1.74233">
        <ele>441.9</ele>
        <time>2026-08-08T14:31:54.000Z</time>
      </trkpt>
      <trkpt lat="45.80474" lon="1.7422">
        <ele>441.1</ele>
        <time>2026-08-08T14:31:56.000Z</time>
      </trkpt>
      <trkpt lat="45.80472" lon="1.74206">
        <ele>440.4</ele>
        <time>2026-08-08T14:31:58.000Z</time>
      </trkpt>
      <trkpt lat="45.80467" lon="1.74196">
        <ele>439.8</ele>
        <time>2026-08-08T14:32:00.000Z</time>
      </trkpt>
      <trkpt lat="45.80464" lon="1.74191">
        <ele>439.6</ele>
        <time>2026-08-08T14:32:01.000Z</time>
      </trkpt>
      <trkpt lat="45.80461" lon="1.74187">
        <ele>439.2</ele>
        <time>2026-08-08T14:32:02.000Z</time>
      </trkpt>
      <trkpt lat="45.80454" lon="1.74176">
        <ele>438.2</ele>
        <time>2026-08-08T14:32:05.000Z</time>
      </trkpt>
      <trkpt lat="45.80452" lon="1.74173">
        <ele>438</ele>
        <time>2026-08-08T14:32:06.000Z</time>
      </trkpt>
      <trkpt lat="45.80447" lon="1.74168">
        <ele>437.3</ele>
        <time>2026-08-08T14:32:09.000Z</time>
      </trkpt>
      <trkpt lat="45.80445" lon="1.74165">
        <ele>437</ele>
        <time>2026-08-08T14:32:11.000Z</time>
      </trkpt>
      <trkpt lat="45.80443" lon="1.74163">
        <ele>436.8</ele>
        <time>2026-08-08T14:32:14.000Z</time>
      </trkpt>
      <trkpt lat="45.80441" lon="1.7416">
        <ele>436.6</ele>
        <time>2026-08-08T14:32:17.000Z</time>
      </trkpt>
      <trkpt lat="45.80433" lon="1.74149">
        <ele>436</ele>
        <time>2026-08-08T14:32:22.000Z</time>
      </trkpt>
      <trkpt lat="45.80419" lon="1.74127">
        <ele>434.6</ele>
        <time>2026-08-08T14:32:27.000Z</time>
      </trkpt>
      <trkpt lat="45.80409" lon="1.74109">
        <ele>433.3</ele>
        <time>2026-08-08T14:32:30.000Z</time>
      </trkpt>
      <trkpt lat="45.80407" lon="1.74102">
        <ele>432.7</ele>
        <time>2026-08-08T14:32:31.000Z</time>
      </trkpt>
      <trkpt lat="45.80405" lon="1.74095">
        <ele>432.2</ele>
        <time>2026-08-08T14:32:32.000Z</time>
      </trkpt>
      <trkpt lat="45.804" lon="1.74068">
        <ele>432.3</ele>
        <time>2026-08-08T14:32:36.000Z</time>
      </trkpt>
      <trkpt lat="45.80399" lon="1.74063">
        <ele>432.6</ele>
        <time>2026-08-08T14:32:37.000Z</time>
      </trkpt>
      <trkpt lat="45.80394" lon="1.74034">
        <ele>434.3</ele>
        <time>2026-08-08T14:32:43.000Z</time>
      </trkpt>
      <trkpt lat="45.80392" lon="1.74016">
        <ele>435.2</ele>
        <time>2026-08-08T14:32:48.000Z</time>
      </trkpt>
      <trkpt lat="45.80391" lon="1.73999">
        <ele>436</ele>
        <time>2026-08-08T14:32:54.000Z</time>
      </trkpt>
      <trkpt lat="45.80394" lon="1.73985">
        <ele>436.8</ele>
        <time>2026-08-08T14:32:59.000Z</time>
      </trkpt>
      <trkpt lat="45.80395" lon="1.73972">
        <ele>437.6</ele>
        <time>2026-08-08T14:33:04.000Z</time>
      </trkpt>
      <trkpt lat="45.80395" lon="1.7397">
        <ele>437.6</ele>
        <time>2026-08-08T14:33:05.000Z</time>
      </trkpt>
      <trkpt lat="45.80396" lon="1.73967">
        <ele>437.6</ele>
        <time>2026-08-08T14:33:06.000Z</time>
      </trkpt>
      <trkpt lat="45.80403" lon="1.73946">
        <ele>436.6</ele>
        <time>2026-08-08T14:33:12.000Z</time>
      </trkpt>
      <trkpt lat="45.8041" lon="1.73931">
        <ele>435.8</ele>
        <time>2026-08-08T14:33:15.000Z</time>
      </trkpt>
      <trkpt lat="45.80417" lon="1.73922">
        <ele>435.6</ele>
        <time>2026-08-08T14:33:17.000Z</time>
      </trkpt>
      <trkpt lat="45.80426" lon="1.73914">
        <ele>435.3</ele>
        <time>2026-08-08T14:33:19.000Z</time>
      </trkpt>
      <trkpt lat="45.80441" lon="1.73904">
        <ele>435.1</ele>
        <time>2026-08-08T14:33:22.000Z</time>
      </trkpt>
      <trkpt lat="45.80455" lon="1.73898">
        <ele>434.6</ele>
        <time>2026-08-08T14:33:25.000Z</time>
      </trkpt>
      <trkpt lat="45.80491" lon="1.73878">
        <ele>431.5</ele>
        <time>2026-08-08T14:33:32.000Z</time>
      </trkpt>
      <trkpt lat="45.80525" lon="1.73858">
        <ele>427.3</ele>
        <time>2026-08-08T14:33:38.000Z</time>
      </trkpt>
      <trkpt lat="45.80531" lon="1.73855">
        <ele>426.1</ele>
        <time>2026-08-08T14:33:39.000Z</time>
      </trkpt>
      <trkpt lat="45.80544" lon="1.7385">
        <ele>424.2</ele>
        <time>2026-08-08T14:33:41.000Z</time>
      </trkpt>
      <trkpt lat="45.80556" lon="1.73847">
        <ele>422.4</ele>
        <time>2026-08-08T14:33:43.000Z</time>
      </trkpt>
      <trkpt lat="45.80563" lon="1.73847">
        <ele>421.8</ele>
        <time>2026-08-08T14:33:44.000Z</time>
      </trkpt>
      <trkpt lat="45.80583" lon="1.73849">
        <ele>420.2</ele>
        <time>2026-08-08T14:33:47.000Z</time>
      </trkpt>
      <trkpt lat="45.80597" lon="1.7385">
        <ele>419.7</ele>
        <time>2026-08-08T14:33:49.000Z</time>
      </trkpt>
      <trkpt lat="45.80611" lon="1.73852">
        <ele>419.3</ele>
        <time>2026-08-08T14:33:51.000Z</time>
      </trkpt>
      <trkpt lat="45.80618" lon="1.73853">
        <ele>419</ele>
        <time>2026-08-08T14:33:52.000Z</time>
      </trkpt>
      <trkpt lat="45.80633" lon="1.73854">
        <ele>418.2</ele>
        <time>2026-08-08T14:33:54.000Z</time>
      </trkpt>
      <trkpt lat="45.80655" lon="1.73856">
        <ele>416.7</ele>
        <time>2026-08-08T14:33:57.000Z</time>
      </trkpt>
      <trkpt lat="45.80676" lon="1.73858">
        <ele>414.9</ele>
        <time>2026-08-08T14:34:00.000Z</time>
      </trkpt>
      <trkpt lat="45.80696" lon="1.73861">
        <ele>412.7</ele>
        <time>2026-08-08T14:34:03.000Z</time>
      </trkpt>
      <trkpt lat="45.80716" lon="1.73861">
        <ele>410.7</ele>
        <time>2026-08-08T14:34:06.000Z</time>
      </trkpt>
      <trkpt lat="45.80727" lon="1.73861">
        <ele>409.6</ele>
        <time>2026-08-08T14:34:08.000Z</time>
      </trkpt>
      <trkpt lat="45.80746" lon="1.73861">
        <ele>408.3</ele>
        <time>2026-08-08T14:34:11.000Z</time>
      </trkpt>
      <trkpt lat="45.8076" lon="1.73861">
        <ele>408</ele>
        <time>2026-08-08T14:34:13.000Z</time>
      </trkpt>
      <trkpt lat="45.80767" lon="1.73861">
        <ele>408</ele>
        <time>2026-08-08T14:34:14.000Z</time>
      </trkpt>
      <trkpt lat="45.80774" lon="1.73863">
        <ele>407.6</ele>
        <time>2026-08-08T14:34:15.000Z</time>
      </trkpt>
      <trkpt lat="45.80797" lon="1.73869">
        <ele>405.5</ele>
        <time>2026-08-08T14:34:19.000Z</time>
      </trkpt>
      <trkpt lat="45.80808" lon="1.73868">
        <ele>405.7</ele>
        <time>2026-08-08T14:34:21.000Z</time>
      </trkpt>
      <trkpt lat="45.80823" lon="1.73867">
        <ele>405.8</ele>
        <time>2026-08-08T14:34:24.000Z</time>
      </trkpt>
      <trkpt lat="45.80834" lon="1.73866">
        <ele>406.1</ele>
        <time>2026-08-08T14:34:26.000Z</time>
      </trkpt>
      <trkpt lat="45.80848" lon="1.73861">
        <ele>408.1</ele>
        <time>2026-08-08T14:34:29.000Z</time>
      </trkpt>
      <trkpt lat="45.80863" lon="1.73848">
        <ele>410.5</ele>
        <time>2026-08-08T14:34:32.000Z</time>
      </trkpt>
      <trkpt lat="45.80879" lon="1.73832">
        <ele>409.7</ele>
        <time>2026-08-08T14:34:35.000Z</time>
      </trkpt>
      <trkpt lat="45.80894" lon="1.73817">
        <ele>408.2</ele>
        <time>2026-08-08T14:34:38.000Z</time>
      </trkpt>
      <trkpt lat="45.80909" lon="1.73796">
        <ele>406.1</ele>
        <time>2026-08-08T14:34:41.000Z</time>
      </trkpt>
      <trkpt lat="45.80914" lon="1.73788">
        <ele>405.9</ele>
        <time>2026-08-08T14:34:42.000Z</time>
      </trkpt>
      <trkpt lat="45.80922" lon="1.73773">
        <ele>405.2</ele>
        <time>2026-08-08T14:34:44.000Z</time>
      </trkpt>
      <trkpt lat="45.80923" lon="1.73765">
        <ele>404.7</ele>
        <time>2026-08-08T14:34:45.000Z</time>
      </trkpt>
      <trkpt lat="45.80927" lon="1.73737">
        <ele>403.4</ele>
        <time>2026-08-08T14:34:48.000Z</time>
      </trkpt>
      <trkpt lat="45.80927" lon="1.73726">
        <ele>403.2</ele>
        <time>2026-08-08T14:34:49.000Z</time>
      </trkpt>
      <trkpt lat="45.80927" lon="1.73707">
        <ele>403.3</ele>
        <time>2026-08-08T14:34:51.000Z</time>
      </trkpt>
      <trkpt lat="45.80929" lon="1.7368">
        <ele>404.1</ele>
        <time>2026-08-08T14:34:54.000Z</time>
      </trkpt>
      <trkpt lat="45.80931" lon="1.73672">
        <ele>404.1</ele>
        <time>2026-08-08T14:34:55.000Z</time>
      </trkpt>
      <trkpt lat="45.80934" lon="1.73665">
        <ele>404.1</ele>
        <time>2026-08-08T14:34:56.000Z</time>
      </trkpt>
      <trkpt lat="45.8094" lon="1.73653">
        <ele>404</ele>
        <time>2026-08-08T14:34:58.000Z</time>
      </trkpt>
      <trkpt lat="45.80955" lon="1.73629">
        <ele>403.6</ele>
        <time>2026-08-08T14:35:02.000Z</time>
      </trkpt>
      <trkpt lat="45.80972" lon="1.73603">
        <ele>402.4</ele>
        <time>2026-08-08T14:35:07.000Z</time>
      </trkpt>
      <trkpt lat="45.80978" lon="1.73593">
        <ele>402.8</ele>
        <time>2026-08-08T14:35:09.000Z</time>
      </trkpt>
      <trkpt lat="45.80981" lon="1.73587">
        <ele>402.9</ele>
        <time>2026-08-08T14:35:10.000Z</time>
      </trkpt>
      <trkpt lat="45.80993" lon="1.73567">
        <ele>404.2</ele>
        <time>2026-08-08T14:35:14.000Z</time>
      </trkpt>
      <trkpt lat="45.80995" lon="1.73564">
        <ele>404.5</ele>
        <time>2026-08-08T14:35:15.000Z</time>
      </trkpt>
      <trkpt lat="45.81006" lon="1.73548">
        <ele>404.9</ele>
        <time>2026-08-08T14:35:21.000Z</time>
      </trkpt>
      <trkpt lat="45.81012" lon="1.73537">
        <ele>405.3</ele>
        <time>2026-08-08T14:35:26.000Z</time>
      </trkpt>
      <trkpt lat="45.81015" lon="1.73533">
        <ele>405.3</ele>
        <time>2026-08-08T14:35:28.000Z</time>
      </trkpt>
      <trkpt lat="45.81022" lon="1.73524">
        <ele>404.2</ele>
        <time>2026-08-08T14:35:32.000Z</time>
      </trkpt>
      <trkpt lat="45.81026" lon="1.73508">
        <ele>404.7</ele>
        <time>2026-08-08T14:35:38.000Z</time>
      </trkpt>
      <trkpt lat="45.81029" lon="1.73494">
        <ele>404.3</ele>
        <time>2026-08-08T14:35:43.000Z</time>
      </trkpt>
      <trkpt lat="45.81029" lon="1.73491">
        <ele>404.2</ele>
        <time>2026-08-08T14:35:44.000Z</time>
      </trkpt>
      <trkpt lat="45.81032" lon="1.73475">
        <ele>402.2</ele>
        <time>2026-08-08T14:35:49.000Z</time>
      </trkpt>
      <trkpt lat="45.81033" lon="1.7347">
        <ele>401.9</ele>
        <time>2026-08-08T14:35:50.000Z</time>
      </trkpt>
      <trkpt lat="45.81035" lon="1.73447">
        <ele>401.3</ele>
        <time>2026-08-08T14:35:55.000Z</time>
      </trkpt>
      <trkpt lat="45.81038" lon="1.73428">
        <ele>401.6</ele>
        <time>2026-08-08T14:35:59.000Z</time>
      </trkpt>
      <trkpt lat="45.81045" lon="1.73401">
        <ele>400.3</ele>
        <time>2026-08-08T14:36:05.000Z</time>
      </trkpt>
      <trkpt lat="45.81054" lon="1.73372">
        <ele>398.9</ele>
        <time>2026-08-08T14:36:11.000Z</time>
      </trkpt>
      <trkpt lat="45.81057" lon="1.73354">
        <ele>400.4</ele>
        <time>2026-08-08T14:36:15.000Z</time>
      </trkpt>
      <trkpt lat="45.81056" lon="1.73342">
        <ele>402.1</ele>
        <time>2026-08-08T14:36:18.000Z</time>
      </trkpt>
      <trkpt lat="45.81048" lon="1.73322">
        <ele>403.9</ele>
        <time>2026-08-08T14:36:23.000Z</time>
      </trkpt>
      <trkpt lat="45.81043" lon="1.73312">
        <ele>403.5</ele>
        <time>2026-08-08T14:36:25.000Z</time>
      </trkpt>
      <trkpt lat="45.8104" lon="1.73305">
        <ele>402.7</ele>
        <time>2026-08-08T14:36:26.000Z</time>
      </trkpt>
      <trkpt lat="45.81038" lon="1.73292">
        <ele>401.9</ele>
        <time>2026-08-08T14:36:28.000Z</time>
      </trkpt>
      <trkpt lat="45.81042" lon="1.73276">
        <ele>399.7</ele>
        <time>2026-08-08T14:36:30.000Z</time>
      </trkpt>
      <trkpt lat="45.81046" lon="1.73269">
        <ele>399.8</ele>
        <time>2026-08-08T14:36:31.000Z</time>
      </trkpt>
      <trkpt lat="45.8105" lon="1.73262">
        <ele>399.6</ele>
        <time>2026-08-08T14:36:32.000Z</time>
      </trkpt>
      <trkpt lat="45.81055" lon="1.73256">
        <ele>399.3</ele>
        <time>2026-08-08T14:36:33.000Z</time>
      </trkpt>
      <trkpt lat="45.81069" lon="1.73237">
        <ele>398.7</ele>
        <time>2026-08-08T14:36:36.000Z</time>
      </trkpt>
      <trkpt lat="45.81073" lon="1.73225">
        <ele>398.7</ele>
        <time>2026-08-08T14:36:38.000Z</time>
      </trkpt>
      <trkpt lat="45.81077" lon="1.73211">
        <ele>399.3</ele>
        <time>2026-08-08T14:36:40.000Z</time>
      </trkpt>
      <trkpt lat="45.81079" lon="1.73204">
        <ele>399.7</ele>
        <time>2026-08-08T14:36:41.000Z</time>
      </trkpt>
      <trkpt lat="45.81081" lon="1.73197">
        <ele>399.7</ele>
        <time>2026-08-08T14:36:42.000Z</time>
      </trkpt>
      <trkpt lat="45.81083" lon="1.7319">
        <ele>399.5</ele>
        <time>2026-08-08T14:36:43.000Z</time>
      </trkpt>
      <trkpt lat="45.81088" lon="1.73172">
        <ele>400</ele>
        <time>2026-08-08T14:36:46.000Z</time>
      </trkpt>
      <trkpt lat="45.81089" lon="1.73154">
        <ele>400.1</ele>
        <time>2026-08-08T14:36:50.000Z</time>
      </trkpt>
      <trkpt lat="45.81091" lon="1.73135">
        <ele>399.5</ele>
        <time>2026-08-08T14:36:55.000Z</time>
      </trkpt>
      <trkpt lat="45.81086" lon="1.73107">
        <ele>400.3</ele>
        <time>2026-08-08T14:37:01.000Z</time>
      </trkpt>
      <trkpt lat="45.81086" lon="1.7309">
        <ele>401.1</ele>
        <time>2026-08-08T14:37:06.000Z</time>
      </trkpt>
      <trkpt lat="45.81083" lon="1.73066">
        <ele>402.7</ele>
        <time>2026-08-08T14:37:12.000Z</time>
      </trkpt>
      <trkpt lat="45.81091" lon="1.73048">
        <ele>400.9</ele>
        <time>2026-08-08T14:37:17.000Z</time>
      </trkpt>
      <trkpt lat="45.81091" lon="1.73044">
        <ele>400.9</ele>
        <time>2026-08-08T14:37:18.000Z</time>
      </trkpt>
      <trkpt lat="45.81098" lon="1.73025">
        <ele>400.8</ele>
        <time>2026-08-08T14:37:24.000Z</time>
      </trkpt>
      <trkpt lat="45.811" lon="1.73022">
        <ele>401.2</ele>
        <time>2026-08-08T14:37:26.000Z</time>
      </trkpt>
      <trkpt lat="45.81104" lon="1.73018">
        <ele>401.7</ele>
        <time>2026-08-08T14:37:30.000Z</time>
      </trkpt>
      <trkpt lat="45.81108" lon="1.73015">
        <ele>402.2</ele>
        <time>2026-08-08T14:37:33.000Z</time>
      </trkpt>
      <trkpt lat="45.81108" lon="1.73016">
        <ele>402.1</ele>
        <time>2026-08-08T14:37:34.000Z</time>
      </trkpt>
      <trkpt lat="45.81109" lon="1.73016">
        <ele>402</ele>
        <time>2026-08-08T14:37:35.000Z</time>
      </trkpt>
      <trkpt lat="45.81118" lon="1.73011">
        <ele>404.4</ele>
        <time>2026-08-08T14:37:41.000Z</time>
      </trkpt>
      <trkpt lat="45.81119" lon="1.73011">
        <ele>404.7</ele>
        <time>2026-08-08T14:37:42.000Z</time>
      </trkpt>
      <trkpt lat="45.81127" lon="1.73009">
        <ele>406.2</ele>
        <time>2026-08-08T14:37:47.000Z</time>
      </trkpt>
      <trkpt lat="45.81129" lon="1.7301">
        <ele>406.5</ele>
        <time>2026-08-08T14:37:50.000Z</time>
      </trkpt>
      <trkpt lat="45.81131" lon="1.7301">
        <ele>406.6</ele>
        <time>2026-08-08T14:37:52.000Z</time>
      </trkpt>
      <trkpt lat="45.81133" lon="1.73012">
        <ele>406.3</ele>
        <time>2026-08-08T14:37:54.000Z</time>
      </trkpt>
      <trkpt lat="45.81135" lon="1.73012">
        <ele>406.5</ele>
        <time>2026-08-08T14:37:56.000Z</time>
      </trkpt>
      <trkpt lat="45.81136" lon="1.73012">
        <ele>406.8</ele>
        <time>2026-08-08T14:37:59.000Z</time>
      </trkpt>
      <trkpt lat="45.81142" lon="1.73011">
        <ele>407.7</ele>
        <time>2026-08-08T14:38:02.000Z</time>
      </trkpt>
      <trkpt lat="45.81153" lon="1.7301">
        <ele>409</ele>
        <time>2026-08-08T14:38:09.000Z</time>
      </trkpt>
      <trkpt lat="45.81155" lon="1.73009">
        <ele>409.4</ele>
        <time>2026-08-08T14:38:10.000Z</time>
      </trkpt>
      <trkpt lat="45.81169" lon="1.73007">
        <ele>411</ele>
        <time>2026-08-08T14:38:17.000Z</time>
      </trkpt>
      <trkpt lat="45.81187" lon="1.73016">
        <ele>406.3</ele>
        <time>2026-08-08T14:38:23.000Z</time>
      </trkpt>
      <trkpt lat="45.81205" lon="1.73019">
        <ele>404.8</ele>
        <time>2026-08-08T14:38:29.000Z</time>
      </trkpt>
      <trkpt lat="45.81223" lon="1.73015">
        <ele>406.6</ele>
        <time>2026-08-08T14:38:33.000Z</time>
      </trkpt>
      <trkpt lat="45.81226" lon="1.73014">
        <ele>406.8</ele>
        <time>2026-08-08T14:38:34.000Z</time>
      </trkpt>
      <trkpt lat="45.8124" lon="1.73019">
        <ele>405</ele>
        <time>2026-08-08T14:38:38.000Z</time>
      </trkpt>
      <trkpt lat="45.81245" lon="1.73017">
        <ele>405.9</ele>
        <time>2026-08-08T14:38:41.000Z</time>
      </trkpt>
      <trkpt lat="45.81246" lon="1.73017">
        <ele>406</ele>
        <time>2026-08-08T14:38:42.000Z</time>
      </trkpt>
      <trkpt lat="45.81246" lon="1.73017">
        <ele>406</ele>
        <time>2026-08-08T14:38:43.000Z</time>
      </trkpt>
      <trkpt lat="45.81246" lon="1.73017">
        <ele>406</ele>
        <time>2026-08-08T14:38:44.000Z</time>
      </trkpt>
      <trkpt lat="45.81269" lon="1.73025">
        <ele>403.5</ele>
        <time>2026-08-08T14:39:28.000Z</time>
      </trkpt>
      <trkpt lat="45.81275" lon="1.73028">
        <ele>402.9</ele>
        <time>2026-08-08T14:39:30.000Z</time>
      </trkpt>
      <trkpt lat="45.81295" lon="1.73028">
        <ele>400.5</ele>
        <time>2026-08-08T14:39:36.000Z</time>
      </trkpt>
      <trkpt lat="45.81314" lon="1.73011">
        <ele>402.1</ele>
        <time>2026-08-08T14:39:41.000Z</time>
      </trkpt>
      <trkpt lat="45.81335" lon="1.72991">
        <ele>403.3</ele>
        <time>2026-08-08T14:39:47.000Z</time>
      </trkpt>
      <trkpt lat="45.81355" lon="1.72975">
        <ele>402.7</ele>
        <time>2026-08-08T14:39:53.000Z</time>
      </trkpt>
      <trkpt lat="45.81359" lon="1.7297">
        <ele>402.8</ele>
        <time>2026-08-08T14:39:54.000Z</time>
      </trkpt>
      <trkpt lat="45.81383" lon="1.72944">
        <ele>403.9</ele>
        <time>2026-08-08T14:40:01.000Z</time>
      </trkpt>
      <trkpt lat="45.81386" lon="1.72941">
        <ele>403.9</ele>
        <time>2026-08-08T14:40:02.000Z</time>
      </trkpt>
      <trkpt lat="45.81405" lon="1.7292">
        <ele>402.7</ele>
        <time>2026-08-08T14:40:08.000Z</time>
      </trkpt>
      <trkpt lat="45.81409" lon="1.72917">
        <ele>402.4</ele>
        <time>2026-08-08T14:40:09.000Z</time>
      </trkpt>
      <trkpt lat="45.81421" lon="1.72905">
        <ele>401.5</ele>
        <time>2026-08-08T14:40:12.000Z</time>
      </trkpt>
      <trkpt lat="45.81425" lon="1.72901">
        <ele>401.4</ele>
        <time>2026-08-08T14:40:13.000Z</time>
      </trkpt>
      <trkpt lat="45.81443" lon="1.72887">
        <ele>401.4</ele>
        <time>2026-08-08T14:40:17.000Z</time>
      </trkpt>
      <trkpt lat="45.81451" lon="1.72884">
        <ele>402</ele>
        <time>2026-08-08T14:40:19.000Z</time>
      </trkpt>
      <trkpt lat="45.81456" lon="1.72881">
        <ele>402.6</ele>
        <time>2026-08-08T14:40:22.000Z</time>
      </trkpt>
      <trkpt lat="45.81464" lon="1.72877">
        <ele>403.4</ele>
        <time>2026-08-08T14:40:28.000Z</time>
      </trkpt>
      <trkpt lat="45.81471" lon="1.72875">
        <ele>403.9</ele>
        <time>2026-08-08T14:40:34.000Z</time>
      </trkpt>
      <trkpt lat="45.81474" lon="1.72874">
        <ele>404</ele>
        <time>2026-08-08T14:40:37.000Z</time>
      </trkpt>
      <trkpt lat="45.81478" lon="1.72874">
        <ele>403.9</ele>
        <time>2026-08-08T14:40:39.000Z</time>
      </trkpt>
      <trkpt lat="45.8148" lon="1.72872">
        <ele>404</ele>
        <time>2026-08-08T14:40:43.000Z</time>
      </trkpt>
      <trkpt lat="45.81482" lon="1.72871">
        <ele>404.1</ele>
        <time>2026-08-08T14:40:44.000Z</time>
      </trkpt>
      <trkpt lat="45.81487" lon="1.72868">
        <ele>404.3</ele>
        <time>2026-08-08T14:40:47.000Z</time>
      </trkpt>
      <trkpt lat="45.81491" lon="1.72865">
        <ele>404.7</ele>
        <time>2026-08-08T14:40:50.000Z</time>
      </trkpt>
      <trkpt lat="45.81491" lon="1.72865">
        <ele>404.7</ele>
        <time>2026-08-08T14:40:51.000Z</time>
      </trkpt>
      <trkpt lat="45.81492" lon="1.72863">
        <ele>404.9</ele>
        <time>2026-08-08T14:40:52.000Z</time>
      </trkpt>
      <trkpt lat="45.81494" lon="1.72862">
        <ele>405.1</ele>
        <time>2026-08-08T14:40:53.000Z</time>
      </trkpt>
      <trkpt lat="45.81498" lon="1.7286">
        <ele>405.3</ele>
        <time>2026-08-08T14:40:55.000Z</time>
      </trkpt>
      <trkpt lat="45.81501" lon="1.72858">
        <ele>405.6</ele>
        <time>2026-08-08T14:40:57.000Z</time>
      </trkpt>
      <trkpt lat="45.81511" lon="1.72845">
        <ele>406.9</ele>
        <time>2026-08-08T14:41:04.000Z</time>
      </trkpt>
      <trkpt lat="45.81513" lon="1.72844">
        <ele>407.1</ele>
        <time>2026-08-08T14:41:05.000Z</time>
      </trkpt>
      <trkpt lat="45.81518" lon="1.72839">
        <ele>407.5</ele>
        <time>2026-08-08T14:41:08.000Z</time>
      </trkpt>
      <trkpt lat="45.81521" lon="1.72838">
        <ele>407.6</ele>
        <time>2026-08-08T14:41:10.000Z</time>
      </trkpt>
      <trkpt lat="45.81528" lon="1.72831">
        <ele>408.4</ele>
        <time>2026-08-08T14:41:14.000Z</time>
      </trkpt>
      <trkpt lat="45.81533" lon="1.72828">
        <ele>408.4</ele>
        <time>2026-08-08T14:41:16.000Z</time>
      </trkpt>
      <trkpt lat="45.81538" lon="1.72819">
        <ele>409.3</ele>
        <time>2026-08-08T14:41:20.000Z</time>
      </trkpt>
      <trkpt lat="45.81541" lon="1.7282">
        <ele>408.5</ele>
        <time>2026-08-08T14:41:22.000Z</time>
      </trkpt>
      <trkpt lat="45.81543" lon="1.72818">
        <ele>408.5</ele>
        <time>2026-08-08T14:41:23.000Z</time>
      </trkpt>
      <trkpt lat="45.81549" lon="1.72806">
        <ele>410</ele>
        <time>2026-08-08T14:41:30.000Z</time>
      </trkpt>
      <trkpt lat="45.8155" lon="1.72805">
        <ele>410.1</ele>
        <time>2026-08-08T14:41:31.000Z</time>
      </trkpt>
      <trkpt lat="45.81552" lon="1.72803">
        <ele>410.3</ele>
        <time>2026-08-08T14:41:33.000Z</time>
      </trkpt>
      <trkpt lat="45.81552" lon="1.72801">
        <ele>410.6</ele>
        <time>2026-08-08T14:41:34.000Z</time>
      </trkpt>
      <trkpt lat="45.81553" lon="1.72799">
        <ele>411.1</ele>
        <time>2026-08-08T14:41:36.000Z</time>
      </trkpt>
      <trkpt lat="45.81554" lon="1.72797">
        <ele>411.1</ele>
        <time>2026-08-08T14:41:37.000Z</time>
      </trkpt>
      <trkpt lat="45.81557" lon="1.72794">
        <ele>411</ele>
        <time>2026-08-08T14:41:40.000Z</time>
      </trkpt>
      <trkpt lat="45.81561" lon="1.7279">
        <ele>411</ele>
        <time>2026-08-08T14:41:43.000Z</time>
      </trkpt>
      <trkpt lat="45.81562" lon="1.72789">
        <ele>411</ele>
        <time>2026-08-08T14:41:44.000Z</time>
      </trkpt>
      <trkpt lat="45.81564" lon="1.72784">
        <ele>411.2</ele>
        <time>2026-08-08T14:41:47.000Z</time>
      </trkpt>
      <trkpt lat="45.81566" lon="1.72782">
        <ele>411.2</ele>
        <time>2026-08-08T14:41:49.000Z</time>
      </trkpt>
      <trkpt lat="45.81569" lon="1.72777">
        <ele>411.4</ele>
        <time>2026-08-08T14:41:53.000Z</time>
      </trkpt>
      <trkpt lat="45.8157" lon="1.72776">
        <ele>411.3</ele>
        <time>2026-08-08T14:41:54.000Z</time>
      </trkpt>
      <trkpt lat="45.81572" lon="1.72772">
        <ele>411.5</ele>
        <time>2026-08-08T14:41:57.000Z</time>
      </trkpt>
      <trkpt lat="45.81573" lon="1.72771">
        <ele>411.4</ele>
        <time>2026-08-08T14:41:58.000Z</time>
      </trkpt>
      <trkpt lat="45.81573" lon="1.7277">
        <ele>411.6</ele>
        <time>2026-08-08T14:41:59.000Z</time>
      </trkpt>
      <trkpt lat="45.81577" lon="1.72764">
        <ele>411.9</ele>
        <time>2026-08-08T14:42:03.000Z</time>
      </trkpt>
      <trkpt lat="45.81578" lon="1.72762">
        <ele>412.1</ele>
        <time>2026-08-08T14:42:04.000Z</time>
      </trkpt>
      <trkpt lat="45.81583" lon="1.72751">
        <ele>413.1</ele>
        <time>2026-08-08T14:42:11.000Z</time>
      </trkpt>
      <trkpt lat="45.81586" lon="1.72744">
        <ele>413.1</ele>
        <time>2026-08-08T14:42:15.000Z</time>
      </trkpt>
      <trkpt lat="45.81588" lon="1.72739">
        <ele>413.1</ele>
        <time>2026-08-08T14:42:17.000Z</time>
      </trkpt>
      <trkpt lat="45.81589" lon="1.72737">
        <ele>412.9</ele>
        <time>2026-08-08T14:42:18.000Z</time>
      </trkpt>
      <trkpt lat="45.81592" lon="1.72721">
        <ele>414</ele>
        <time>2026-08-08T14:42:26.000Z</time>
      </trkpt>
      <trkpt lat="45.81592" lon="1.7272">
        <ele>414.2</ele>
        <time>2026-08-08T14:42:27.000Z</time>
      </trkpt>
      <trkpt lat="45.81593" lon="1.7271">
        <ele>414.6</ele>
        <time>2026-08-08T14:42:32.000Z</time>
      </trkpt>
      <trkpt lat="45.81595" lon="1.72701">
        <ele>414.8</ele>
        <time>2026-08-08T14:42:36.000Z</time>
      </trkpt>
      <trkpt lat="45.81597" lon="1.72692">
        <ele>414.9</ele>
        <time>2026-08-08T14:42:40.000Z</time>
      </trkpt>
      <trkpt lat="45.81601" lon="1.72672">
        <ele>414.8</ele>
        <time>2026-08-08T14:42:48.000Z</time>
      </trkpt>
      <trkpt lat="45.81603" lon="1.72664">
        <ele>414.9</ele>
        <time>2026-08-08T14:42:51.000Z</time>
      </trkpt>
      <trkpt lat="45.81604" lon="1.72649">
        <ele>415.5</ele>
        <time>2026-08-08T14:42:57.000Z</time>
      </trkpt>
      <trkpt lat="45.81604" lon="1.72635">
        <ele>416.3</ele>
        <time>2026-08-08T14:43:04.000Z</time>
      </trkpt>
      <trkpt lat="45.81603" lon="1.72623">
        <ele>416.6</ele>
        <time>2026-08-08T14:43:10.000Z</time>
      </trkpt>
      <trkpt lat="45.81603" lon="1.72622">
        <ele>416.6</ele>
        <time>2026-08-08T14:43:11.000Z</time>
      </trkpt>
      <trkpt lat="45.81602" lon="1.72612">
        <ele>417</ele>
        <time>2026-08-08T14:43:17.000Z</time>
      </trkpt>
      <trkpt lat="45.81597" lon="1.72597">
        <ele>418.5</ele>
        <time>2026-08-08T14:43:25.000Z</time>
      </trkpt>
      <trkpt lat="45.81596" lon="1.72595">
        <ele>418.5</ele>
        <time>2026-08-08T14:43:26.000Z</time>
      </trkpt>
      <trkpt lat="45.81595" lon="1.7259">
        <ele>418.7</ele>
        <time>2026-08-08T14:43:30.000Z</time>
      </trkpt>
      <trkpt lat="45.81595" lon="1.7259">
        <ele>418.7</ele>
        <time>2026-08-08T14:43:32.000Z</time>
      </trkpt>
      <trkpt lat="45.81565" lon="1.7253">
        <ele>418.4</ele>
        <time>2026-08-08T14:56:38.000Z</time>
      </trkpt>
      <trkpt lat="45.81565" lon="1.72529">
        <ele>418</ele>
        <time>2026-08-08T14:56:39.000Z</time>
      </trkpt>
      <trkpt lat="45.81563" lon="1.72523">
        <ele>418.3</ele>
        <time>2026-08-08T14:56:42.000Z</time>
      </trkpt>
      <trkpt lat="45.81561" lon="1.7252">
        <ele>418.7</ele>
        <time>2026-08-08T14:56:45.000Z</time>
      </trkpt>
      <trkpt lat="45.81555" lon="1.72509">
        <ele>419.4</ele>
        <time>2026-08-08T14:56:52.000Z</time>
      </trkpt>
      <trkpt lat="45.81553" lon="1.72505">
        <ele>419.6</ele>
        <time>2026-08-08T14:56:56.000Z</time>
      </trkpt>
      <trkpt lat="45.81549" lon="1.72497">
        <ele>420.5</ele>
        <time>2026-08-08T14:57:17.000Z</time>
      </trkpt>
      <trkpt lat="45.81548" lon="1.72495">
        <ele>420.8</ele>
        <time>2026-08-08T14:57:18.000Z</time>
      </trkpt>
      <trkpt lat="45.81544" lon="1.7249">
        <ele>421.6</ele>
        <time>2026-08-08T14:57:22.000Z</time>
      </trkpt>
      <trkpt lat="45.8154" lon="1.72483">
        <ele>422.6</ele>
        <time>2026-08-08T14:57:27.000Z</time>
      </trkpt>
      <trkpt lat="45.8154" lon="1.72481">
        <ele>422.8</ele>
        <time>2026-08-08T14:57:28.000Z</time>
      </trkpt>
      <trkpt lat="45.81537" lon="1.72475">
        <ele>423.3</ele>
        <time>2026-08-08T14:57:31.000Z</time>
      </trkpt>
      <trkpt lat="45.81536" lon="1.72473">
        <ele>423.5</ele>
        <time>2026-08-08T14:57:32.000Z</time>
      </trkpt>
      <trkpt lat="45.81535" lon="1.72465">
        <ele>423.9</ele>
        <time>2026-08-08T14:57:35.000Z</time>
      </trkpt>
      <trkpt lat="45.81534" lon="1.72452">
        <ele>424.2</ele>
        <time>2026-08-08T14:57:40.000Z</time>
      </trkpt>
      <trkpt lat="45.81534" lon="1.72447">
        <ele>424.3</ele>
        <time>2026-08-08T14:57:42.000Z</time>
      </trkpt>
      <trkpt lat="45.81534" lon="1.7243">
        <ele>425</ele>
        <time>2026-08-08T14:57:49.000Z</time>
      </trkpt>
      <trkpt lat="45.81534" lon="1.72427">
        <ele>425.1</ele>
        <time>2026-08-08T14:57:51.000Z</time>
      </trkpt>
      <trkpt lat="45.81535" lon="1.72424">
        <ele>425.1</ele>
        <time>2026-08-08T14:57:53.000Z</time>
      </trkpt>
      <trkpt lat="45.81536" lon="1.72421">
        <ele>425.2</ele>
        <time>2026-08-08T14:57:55.000Z</time>
      </trkpt>
      <trkpt lat="45.81538" lon="1.72414">
        <ele>425.7</ele>
        <time>2026-08-08T14:58:00.000Z</time>
      </trkpt>
      <trkpt lat="45.8154" lon="1.72411">
        <ele>425.9</ele>
        <time>2026-08-08T14:58:03.000Z</time>
      </trkpt>
      <trkpt lat="45.81544" lon="1.72409">
        <ele>426.1</ele>
        <time>2026-08-08T14:58:06.000Z</time>
      </trkpt>
      <trkpt lat="45.81551" lon="1.72403">
        <ele>427</ele>
        <time>2026-08-08T14:58:11.000Z</time>
      </trkpt>
      <trkpt lat="45.81554" lon="1.724">
        <ele>427.7</ele>
        <time>2026-08-08T14:58:16.000Z</time>
      </trkpt>
      <trkpt lat="45.81559" lon="1.72398">
        <ele>428</ele>
        <time>2026-08-08T14:58:19.000Z</time>
      </trkpt>
      <trkpt lat="45.81569" lon="1.72396">
        <ele>428.4</ele>
        <time>2026-08-08T14:58:29.000Z</time>
      </trkpt>
      <trkpt lat="45.81579" lon="1.72394">
        <ele>428.9</ele>
        <time>2026-08-08T14:58:38.000Z</time>
      </trkpt>
      <trkpt lat="45.81582" lon="1.72392">
        <ele>429.3</ele>
        <time>2026-08-08T14:58:42.000Z</time>
      </trkpt>
      <trkpt lat="45.81585" lon="1.72391">
        <ele>429.6</ele>
        <time>2026-08-08T14:58:44.000Z</time>
      </trkpt>
      <trkpt lat="45.81588" lon="1.72389">
        <ele>430</ele>
        <time>2026-08-08T14:58:48.000Z</time>
      </trkpt>
      <trkpt lat="45.81594" lon="1.72385">
        <ele>430.8</ele>
        <time>2026-08-08T14:58:54.000Z</time>
      </trkpt>
      <trkpt lat="45.81598" lon="1.7238">
        <ele>431.8</ele>
        <time>2026-08-08T14:58:57.000Z</time>
      </trkpt>
      <trkpt lat="45.816" lon="1.72373">
        <ele>432.9</ele>
        <time>2026-08-08T14:59:00.000Z</time>
      </trkpt>
      <trkpt lat="45.81608" lon="1.72361">
        <ele>434.4</ele>
        <time>2026-08-08T14:59:09.000Z</time>
      </trkpt>
      <trkpt lat="45.8161" lon="1.7236">
        <ele>434.2</ele>
        <time>2026-08-08T14:59:11.000Z</time>
      </trkpt>
      <trkpt lat="45.81614" lon="1.72355">
        <ele>433.9</ele>
        <time>2026-08-08T14:59:15.000Z</time>
      </trkpt>
      <trkpt lat="45.81616" lon="1.72349">
        <ele>433.8</ele>
        <time>2026-08-08T14:59:17.000Z</time>
      </trkpt>
      <trkpt lat="45.81618" lon="1.72344">
        <ele>433.6</ele>
        <time>2026-08-08T14:59:19.000Z</time>
      </trkpt>
      <trkpt lat="45.81618" lon="1.72336">
        <ele>434.4</ele>
        <time>2026-08-08T14:59:22.000Z</time>
      </trkpt>
      <trkpt lat="45.81619" lon="1.72336">
        <ele>434.1</ele>
        <time>2026-08-08T14:59:23.000Z</time>
      </trkpt>
      <trkpt lat="45.8162" lon="1.72329">
        <ele>434.3</ele>
        <time>2026-08-08T14:59:29.000Z</time>
      </trkpt>
      <trkpt lat="45.81619" lon="1.72327">
        <ele>434.5</ele>
        <time>2026-08-08T14:59:30.000Z</time>
      </trkpt>
      <trkpt lat="45.8162" lon="1.72321">
        <ele>434.8</ele>
        <time>2026-08-08T14:59:35.000Z</time>
      </trkpt>
      <trkpt lat="45.81619" lon="1.7232">
        <ele>434.9</ele>
        <time>2026-08-08T14:59:36.000Z</time>
      </trkpt>
      <trkpt lat="45.81619" lon="1.72309">
        <ele>435.6</ele>
        <time>2026-08-08T14:59:44.000Z</time>
      </trkpt>
      <trkpt lat="45.81619" lon="1.72304">
        <ele>435.8</ele>
        <time>2026-08-08T14:59:47.000Z</time>
      </trkpt>
      <trkpt lat="45.81619" lon="1.72301">
        <ele>436.2</ele>
        <time>2026-08-08T14:59:49.000Z</time>
      </trkpt>
      <trkpt lat="45.81619" lon="1.72299">
        <ele>436.3</ele>
        <time>2026-08-08T14:59:50.000Z</time>
      </trkpt>
      <trkpt lat="45.81617" lon="1.72282">
        <ele>436.9</ele>
        <time>2026-08-08T14:59:57.000Z</time>
      </trkpt>
      <trkpt lat="45.81618" lon="1.72279">
        <ele>436.5</ele>
        <time>2026-08-08T14:59:58.000Z</time>
      </trkpt>
      <trkpt lat="45.81619" lon="1.72276">
        <ele>435.9</ele>
        <time>2026-08-08T14:59:59.000Z</time>
      </trkpt>
      <trkpt lat="45.81623" lon="1.72263">
        <ele>434.4</ele>
        <time>2026-08-08T15:00:04.000Z</time>
      </trkpt>
      <trkpt lat="45.81623" lon="1.72259">
        <ele>434.7</ele>
        <time>2026-08-08T15:00:06.000Z</time>
      </trkpt>
      <trkpt lat="45.81622" lon="1.72249">
        <ele>435.5</ele>
        <time>2026-08-08T15:00:12.000Z</time>
      </trkpt>
      <trkpt lat="45.81622" lon="1.72243">
        <ele>436.3</ele>
        <time>2026-08-08T15:00:16.000Z</time>
      </trkpt>
      <trkpt lat="45.81622" lon="1.7224">
        <ele>436.5</ele>
        <time>2026-08-08T15:00:18.000Z</time>
      </trkpt>
      <trkpt lat="45.81624" lon="1.7223">
        <ele>436.6</ele>
        <time>2026-08-08T15:00:25.000Z</time>
      </trkpt>
      <trkpt lat="45.81624" lon="1.72228">
        <ele>436.7</ele>
        <time>2026-08-08T15:00:27.000Z</time>
      </trkpt>
      <trkpt lat="45.81623" lon="1.72226">
        <ele>437.1</ele>
        <time>2026-08-08T15:00:29.000Z</time>
      </trkpt>
      <trkpt lat="45.81623" lon="1.72224">
        <ele>437.3</ele>
        <time>2026-08-08T15:00:30.000Z</time>
      </trkpt>
      <trkpt lat="45.81623" lon="1.72213">
        <ele>438.8</ele>
        <time>2026-08-08T15:00:36.000Z</time>
      </trkpt>
      <trkpt lat="45.81623" lon="1.72205">
        <ele>439.8</ele>
        <time>2026-08-08T15:00:42.000Z</time>
      </trkpt>
      <trkpt lat="45.81623" lon="1.72204">
        <ele>439.9</ele>
        <time>2026-08-08T15:00:43.000Z</time>
      </trkpt>
      <trkpt lat="45.81623" lon="1.72199">
        <ele>440.5</ele>
        <time>2026-08-08T15:00:48.000Z</time>
      </trkpt>
      <trkpt lat="45.81623" lon="1.72187">
        <ele>441.7</ele>
        <time>2026-08-08T15:00:54.000Z</time>
      </trkpt>
      <trkpt lat="45.81623" lon="1.72185">
        <ele>441.8</ele>
        <time>2026-08-08T15:00:55.000Z</time>
      </trkpt>
      <trkpt lat="45.81623" lon="1.72169">
        <ele>442.8</ele>
        <time>2026-08-08T15:01:02.000Z</time>
      </trkpt>
      <trkpt lat="45.81623" lon="1.72163">
        <ele>443.4</ele>
        <time>2026-08-08T15:01:07.000Z</time>
      </trkpt>
      <trkpt lat="45.81623" lon="1.72161">
        <ele>443.6</ele>
        <time>2026-08-08T15:01:08.000Z</time>
      </trkpt>
      <trkpt lat="45.81623" lon="1.72159">
        <ele>443.6</ele>
        <time>2026-08-08T15:01:09.000Z</time>
      </trkpt>
      <trkpt lat="45.81623" lon="1.72155">
        <ele>443.6</ele>
        <time>2026-08-08T15:01:11.000Z</time>
      </trkpt>
      <trkpt lat="45.81622" lon="1.72137">
        <ele>445.2</ele>
        <time>2026-08-08T15:01:18.000Z</time>
      </trkpt>
      <trkpt lat="45.81621" lon="1.72124">
        <ele>445.8</ele>
        <time>2026-08-08T15:01:24.000Z</time>
      </trkpt>
      <trkpt lat="45.81621" lon="1.72115">
        <ele>445.9</ele>
        <time>2026-08-08T15:01:29.000Z</time>
      </trkpt>
      <trkpt lat="45.81621" lon="1.72109">
        <ele>445.7</ele>
        <time>2026-08-08T15:01:31.000Z</time>
      </trkpt>
      <trkpt lat="45.81623" lon="1.72093">
        <ele>446.4</ele>
        <time>2026-08-08T15:01:37.000Z</time>
      </trkpt>
      <trkpt lat="45.81622" lon="1.72091">
        <ele>446.7</ele>
        <time>2026-08-08T15:01:38.000Z</time>
      </trkpt>
      <trkpt lat="45.81623" lon="1.72088">
        <ele>446.7</ele>
        <time>2026-08-08T15:01:39.000Z</time>
      </trkpt>
      <trkpt lat="45.81623" lon="1.72082">
        <ele>447</ele>
        <time>2026-08-08T15:01:41.000Z</time>
      </trkpt>
      <trkpt lat="45.81624" lon="1.72078">
        <ele>447.4</ele>
        <time>2026-08-08T15:01:43.000Z</time>
      </trkpt>
      <trkpt lat="45.81625" lon="1.72075">
        <ele>447.2</ele>
        <time>2026-08-08T15:01:44.000Z</time>
      </trkpt>
      <trkpt lat="45.81627" lon="1.7207">
        <ele>447.2</ele>
        <time>2026-08-08T15:01:46.000Z</time>
      </trkpt>
      <trkpt lat="45.81628" lon="1.72065">
        <ele>447.3</ele>
        <time>2026-08-08T15:01:49.000Z</time>
      </trkpt>
      <trkpt lat="45.8163" lon="1.7206">
        <ele>447.4</ele>
        <time>2026-08-08T15:01:51.000Z</time>
      </trkpt>
      <trkpt lat="45.81636" lon="1.7205">
        <ele>446.1</ele>
        <time>2026-08-08T15:01:57.000Z</time>
      </trkpt>
      <trkpt lat="45.81641" lon="1.72041">
        <ele>445.5</ele>
        <time>2026-08-08T15:02:02.000Z</time>
      </trkpt>
      <trkpt lat="45.8164" lon="1.72034">
        <ele>448.1</ele>
        <time>2026-08-08T15:02:06.000Z</time>
      </trkpt>
      <trkpt lat="45.81643" lon="1.72025">
        <ele>448.2</ele>
        <time>2026-08-08T15:02:13.000Z</time>
      </trkpt>
      <trkpt lat="45.81643" lon="1.72023">
        <ele>448.1</ele>
        <time>2026-08-08T15:02:14.000Z</time>
      </trkpt>
      <trkpt lat="45.81644" lon="1.72017">
        <ele>448.8</ele>
        <time>2026-08-08T15:02:18.000Z</time>
      </trkpt>
      <trkpt lat="45.81646" lon="1.72015">
        <ele>447.9</ele>
        <time>2026-08-08T15:02:20.000Z</time>
      </trkpt>
      <trkpt lat="45.81647" lon="1.72014">
        <ele>447.7</ele>
        <time>2026-08-08T15:02:21.000Z</time>
      </trkpt>
      <trkpt lat="45.81649" lon="1.7201">
        <ele>447.4</ele>
        <time>2026-08-08T15:02:24.000Z</time>
      </trkpt>
      <trkpt lat="45.81649" lon="1.72009">
        <ele>447.5</ele>
        <time>2026-08-08T15:02:25.000Z</time>
      </trkpt>
      <trkpt lat="45.8165" lon="1.71995">
        <ele>449</ele>
        <time>2026-08-08T15:02:32.000Z</time>
      </trkpt>
      <trkpt lat="45.81651" lon="1.7198">
        <ele>449.6</ele>
        <time>2026-08-08T15:02:39.000Z</time>
      </trkpt>
      <trkpt lat="45.81651" lon="1.71963">
        <ele>450.6</ele>
        <time>2026-08-08T15:02:44.000Z</time>
      </trkpt>
      <trkpt lat="45.81652" lon="1.71963">
        <ele>450.4</ele>
        <time>2026-08-08T15:02:45.000Z</time>
      </trkpt>
      <trkpt lat="45.81652" lon="1.71953">
        <ele>450.7</ele>
        <time>2026-08-08T15:02:50.000Z</time>
      </trkpt>
      <trkpt lat="45.81652" lon="1.7195">
        <ele>450.8</ele>
        <time>2026-08-08T15:02:52.000Z</time>
      </trkpt>
      <trkpt lat="45.81652" lon="1.71934">
        <ele>451.8</ele>
        <time>2026-08-08T15:02:59.000Z</time>
      </trkpt>
      <trkpt lat="45.81652" lon="1.71932">
        <ele>452</ele>
        <time>2026-08-08T15:03:00.000Z</time>
      </trkpt>
      <trkpt lat="45.81654" lon="1.71922">
        <ele>452.5</ele>
        <time>2026-08-08T15:03:05.000Z</time>
      </trkpt>
      <trkpt lat="45.81655" lon="1.71915">
        <ele>453</ele>
        <time>2026-08-08T15:03:10.000Z</time>
      </trkpt>
      <trkpt lat="45.81656" lon="1.71912">
        <ele>453.5</ele>
        <time>2026-08-08T15:03:12.000Z</time>
      </trkpt>
      <trkpt lat="45.81659" lon="1.71899">
        <ele>454.8</ele>
        <time>2026-08-08T15:03:19.000Z</time>
      </trkpt>
      <trkpt lat="45.81661" lon="1.71896">
        <ele>455</ele>
        <time>2026-08-08T15:03:21.000Z</time>
      </trkpt>
      <trkpt lat="45.81662" lon="1.71891">
        <ele>455.6</ele>
        <time>2026-08-08T15:03:23.000Z</time>
      </trkpt>
      <trkpt lat="45.81664" lon="1.71884">
        <ele>456</ele>
        <time>2026-08-08T15:03:26.000Z</time>
      </trkpt>
      <trkpt lat="45.81666" lon="1.71881">
        <ele>456</ele>
        <time>2026-08-08T15:03:28.000Z</time>
      </trkpt>
      <trkpt lat="45.81668" lon="1.71878">
        <ele>455.9</ele>
        <time>2026-08-08T15:03:30.000Z</time>
      </trkpt>
      <trkpt lat="45.81669" lon="1.71873">
        <ele>456.3</ele>
        <time>2026-08-08T15:03:32.000Z</time>
      </trkpt>
      <trkpt lat="45.81669" lon="1.71871">
        <ele>456.3</ele>
        <time>2026-08-08T15:03:33.000Z</time>
      </trkpt>
      <trkpt lat="45.81673" lon="1.71869">
        <ele>455.9</ele>
        <time>2026-08-08T15:03:35.000Z</time>
      </trkpt>
      <trkpt lat="45.81675" lon="1.71866">
        <ele>455.7</ele>
        <time>2026-08-08T15:03:37.000Z</time>
      </trkpt>
      <trkpt lat="45.81677" lon="1.71862">
        <ele>455.8</ele>
        <time>2026-08-08T15:03:39.000Z</time>
      </trkpt>
      <trkpt lat="45.81677" lon="1.7186">
        <ele>455.9</ele>
        <time>2026-08-08T15:03:40.000Z</time>
      </trkpt>
      <trkpt lat="45.8168" lon="1.71852">
        <ele>455.9</ele>
        <time>2026-08-08T15:03:44.000Z</time>
      </trkpt>
      <trkpt lat="45.81681" lon="1.71846">
        <ele>456.2</ele>
        <time>2026-08-08T15:03:47.000Z</time>
      </trkpt>
      <trkpt lat="45.81681" lon="1.71838">
        <ele>457.1</ele>
        <time>2026-08-08T15:03:51.000Z</time>
      </trkpt>
      <trkpt lat="45.81684" lon="1.71823">
        <ele>457.2</ele>
        <time>2026-08-08T15:03:57.000Z</time>
      </trkpt>
      <trkpt lat="45.81683" lon="1.71815">
        <ele>457.4</ele>
        <time>2026-08-08T15:04:00.000Z</time>
      </trkpt>
      <trkpt lat="45.81682" lon="1.71792">
        <ele>457.8</ele>
        <time>2026-08-08T15:04:10.000Z</time>
      </trkpt>
      <trkpt lat="45.81682" lon="1.7179">
        <ele>457.8</ele>
        <time>2026-08-08T15:04:11.000Z</time>
      </trkpt>
      <trkpt lat="45.8168" lon="1.71776">
        <ele>458.1</ele>
        <time>2026-08-08T15:04:17.000Z</time>
      </trkpt>
      <trkpt lat="45.81674" lon="1.71762">
        <ele>459</ele>
        <time>2026-08-08T15:04:25.000Z</time>
      </trkpt>
      <trkpt lat="45.81672" lon="1.71753">
        <ele>459.4</ele>
        <time>2026-08-08T15:04:30.000Z</time>
      </trkpt>
      <trkpt lat="45.81672" lon="1.71749">
        <ele>459.4</ele>
        <time>2026-08-08T15:04:32.000Z</time>
      </trkpt>
      <trkpt lat="45.81671" lon="1.71741">
        <ele>459.6</ele>
        <time>2026-08-08T15:04:36.000Z</time>
      </trkpt>
      <trkpt lat="45.8167" lon="1.71738">
        <ele>459.6</ele>
        <time>2026-08-08T15:04:38.000Z</time>
      </trkpt>
      <trkpt lat="45.81666" lon="1.71724">
        <ele>460</ele>
        <time>2026-08-08T15:04:46.000Z</time>
      </trkpt>
      <trkpt lat="45.81662" lon="1.71714">
        <ele>460.6</ele>
        <time>2026-08-08T15:04:53.000Z</time>
      </trkpt>
      <trkpt lat="45.81661" lon="1.71713">
        <ele>460.6</ele>
        <time>2026-08-08T15:04:54.000Z</time>
      </trkpt>
      <trkpt lat="45.81661" lon="1.71712">
        <ele>460.7</ele>
        <time>2026-08-08T15:04:55.000Z</time>
      </trkpt>
      <trkpt lat="45.81659" lon="1.7171">
        <ele>460.8</ele>
        <time>2026-08-08T15:04:57.000Z</time>
      </trkpt>
      <trkpt lat="45.81654" lon="1.71699">
        <ele>461.4</ele>
        <time>2026-08-08T15:05:03.000Z</time>
      </trkpt>
      <trkpt lat="45.8165" lon="1.71685">
        <ele>461.8</ele>
        <time>2026-08-08T15:05:11.000Z</time>
      </trkpt>
      <trkpt lat="45.81649" lon="1.71683">
        <ele>461.9</ele>
        <time>2026-08-08T15:05:12.000Z</time>
      </trkpt>
      <trkpt lat="45.81644" lon="1.71672">
        <ele>462.4</ele>
        <time>2026-08-08T15:05:19.000Z</time>
      </trkpt>
      <trkpt lat="45.81644" lon="1.71671">
        <ele>462.4</ele>
        <time>2026-08-08T15:05:20.000Z</time>
      </trkpt>
      <trkpt lat="45.8164" lon="1.71661">
        <ele>462.9</ele>
        <time>2026-08-08T15:05:25.000Z</time>
      </trkpt>
      <trkpt lat="45.81634" lon="1.71647">
        <ele>463.6</ele>
        <time>2026-08-08T15:05:33.000Z</time>
      </trkpt>
      <trkpt lat="45.81633" lon="1.71645">
        <ele>463.7</ele>
        <time>2026-08-08T15:05:34.000Z</time>
      </trkpt>
      <trkpt lat="45.81628" lon="1.71639">
        <ele>464.2</ele>
        <time>2026-08-08T15:05:39.000Z</time>
      </trkpt>
      <trkpt lat="45.81628" lon="1.71637">
        <ele>464.1</ele>
        <time>2026-08-08T15:05:40.000Z</time>
      </trkpt>
      <trkpt lat="45.81626" lon="1.71635">
        <ele>464.2</ele>
        <time>2026-08-08T15:05:42.000Z</time>
      </trkpt>
      <trkpt lat="45.81624" lon="1.71628">
        <ele>464.1</ele>
        <time>2026-08-08T15:05:46.000Z</time>
      </trkpt>
      <trkpt lat="45.81618" lon="1.71612">
        <ele>464.5</ele>
        <time>2026-08-08T15:05:52.000Z</time>
      </trkpt>
      <trkpt lat="45.81617" lon="1.71605">
        <ele>464.3</ele>
        <time>2026-08-08T15:05:55.000Z</time>
      </trkpt>
      <trkpt lat="45.81615" lon="1.71596">
        <ele>464</ele>
        <time>2026-08-08T15:05:59.000Z</time>
      </trkpt>
      <trkpt lat="45.81617" lon="1.7159">
        <ele>463.3</ele>
        <time>2026-08-08T15:06:01.000Z</time>
      </trkpt>
      <trkpt lat="45.81606" lon="1.71575">
        <ele>464.1</ele>
        <time>2026-08-08T15:06:09.000Z</time>
      </trkpt>
      <trkpt lat="45.81605" lon="1.71573">
        <ele>464.3</ele>
        <time>2026-08-08T15:06:10.000Z</time>
      </trkpt>
      <trkpt lat="45.81603" lon="1.71572">
        <ele>464.4</ele>
        <time>2026-08-08T15:06:11.000Z</time>
      </trkpt>
      <trkpt lat="45.81597" lon="1.71562">
        <ele>464.7</ele>
        <time>2026-08-08T15:06:15.000Z</time>
      </trkpt>
      <trkpt lat="45.81591" lon="1.71554">
        <ele>465.1</ele>
        <time>2026-08-08T15:06:18.000Z</time>
      </trkpt>
      <trkpt lat="45.81585" lon="1.71548">
        <ele>465.7</ele>
        <time>2026-08-08T15:06:21.000Z</time>
      </trkpt>
      <trkpt lat="45.81582" lon="1.71545">
        <ele>465.7</ele>
        <time>2026-08-08T15:06:23.000Z</time>
      </trkpt>
      <trkpt lat="45.81571" lon="1.71535">
        <ele>466.4</ele>
        <time>2026-08-08T15:06:28.000Z</time>
      </trkpt>
      <trkpt lat="45.81566" lon="1.71531">
        <ele>466.6</ele>
        <time>2026-08-08T15:06:31.000Z</time>
      </trkpt>
      <trkpt lat="45.81564" lon="1.71527">
        <ele>466.4</ele>
        <time>2026-08-08T15:06:33.000Z</time>
      </trkpt>
      <trkpt lat="45.81563" lon="1.71525">
        <ele>466.3</ele>
        <time>2026-08-08T15:06:34.000Z</time>
      </trkpt>
      <trkpt lat="45.81553" lon="1.71512">
        <ele>466.7</ele>
        <time>2026-08-08T15:06:40.000Z</time>
      </trkpt>
      <trkpt lat="45.81541" lon="1.71495">
        <ele>466.9</ele>
        <time>2026-08-08T15:06:47.000Z</time>
      </trkpt>
      <trkpt lat="45.81539" lon="1.71493">
        <ele>467.1</ele>
        <time>2026-08-08T15:06:48.000Z</time>
      </trkpt>
      <trkpt lat="45.81525" lon="1.71478">
        <ele>468</ele>
        <time>2026-08-08T15:06:55.000Z</time>
      </trkpt>
      <trkpt lat="45.8151" lon="1.71466">
        <ele>468.8</ele>
        <time>2026-08-08T15:07:04.000Z</time>
      </trkpt>
      <trkpt lat="45.81501" lon="1.71459">
        <ele>469.4</ele>
        <time>2026-08-08T15:07:10.000Z</time>
      </trkpt>
      <trkpt lat="45.815" lon="1.71458">
        <ele>469.4</ele>
        <time>2026-08-08T15:07:11.000Z</time>
      </trkpt>
      <trkpt lat="45.81488" lon="1.71448">
        <ele>470.2</ele>
        <time>2026-08-08T15:07:19.000Z</time>
      </trkpt>
      <trkpt lat="45.81484" lon="1.71445">
        <ele>470.3</ele>
        <time>2026-08-08T15:07:22.000Z</time>
      </trkpt>
      <trkpt lat="45.81483" lon="1.71444">
        <ele>470.3</ele>
        <time>2026-08-08T15:07:23.000Z</time>
      </trkpt>
      <trkpt lat="45.8148" lon="1.71442">
        <ele>470.4</ele>
        <time>2026-08-08T15:07:25.000Z</time>
      </trkpt>
      <trkpt lat="45.81468" lon="1.71431">
        <ele>470.7</ele>
        <time>2026-08-08T15:07:33.000Z</time>
      </trkpt>
      <trkpt lat="45.81455" lon="1.71421">
        <ele>471</ele>
        <time>2026-08-08T15:07:41.000Z</time>
      </trkpt>
      <trkpt lat="45.81445" lon="1.71415">
        <ele>471.6</ele>
        <time>2026-08-08T15:07:47.000Z</time>
      </trkpt>
      <trkpt lat="45.81438" lon="1.71411">
        <ele>472.2</ele>
        <time>2026-08-08T15:07:51.000Z</time>
      </trkpt>
      <trkpt lat="45.81423" lon="1.714">
        <ele>472.9</ele>
        <time>2026-08-08T15:08:01.000Z</time>
      </trkpt>
      <trkpt lat="45.81412" lon="1.7139">
        <ele>472.9</ele>
        <time>2026-08-08T15:08:09.000Z</time>
      </trkpt>
      <trkpt lat="45.81405" lon="1.71378">
        <ele>471.6</ele>
        <time>2026-08-08T15:08:14.000Z</time>
      </trkpt>
      <trkpt lat="45.81397" lon="1.71356">
        <ele>469.5</ele>
        <time>2026-08-08T15:08:18.000Z</time>
      </trkpt>
      <trkpt lat="45.81396" lon="1.71348">
        <ele>469.2</ele>
        <time>2026-08-08T15:08:19.000Z</time>
      </trkpt>
      <trkpt lat="45.81396" lon="1.71314">
        <ele>467.9</ele>
        <time>2026-08-08T15:08:23.000Z</time>
      </trkpt>
      <trkpt lat="45.81403" lon="1.71283">
        <ele>471.2</ele>
        <time>2026-08-08T15:08:27.000Z</time>
      </trkpt>
      <trkpt lat="45.81404" lon="1.71277">
        <ele>472.1</ele>
        <time>2026-08-08T15:08:28.000Z</time>
      </trkpt>
      <trkpt lat="45.81406" lon="1.71258">
        <ele>474.4</ele>
        <time>2026-08-08T15:08:32.000Z</time>
      </trkpt>
      <trkpt lat="45.81408" lon="1.71238">
        <ele>474</ele>
        <time>2026-08-08T15:08:37.000Z</time>
      </trkpt>
      <trkpt lat="45.81407" lon="1.71211">
        <ele>472.2</ele>
        <time>2026-08-08T15:08:44.000Z</time>
      </trkpt>
      <trkpt lat="45.814" lon="1.71185">
        <ele>471.2</ele>
        <time>2026-08-08T15:08:51.000Z</time>
      </trkpt>
      <trkpt lat="45.81388" lon="1.71155">
        <ele>470.9</ele>
        <time>2026-08-08T15:08:57.000Z</time>
      </trkpt>
      <trkpt lat="45.81371" lon="1.71112">
        <ele>468</ele>
        <time>2026-08-08T15:09:03.000Z</time>
      </trkpt>
      <trkpt lat="45.81353" lon="1.71071">
        <ele>466.6</ele>
        <time>2026-08-08T15:09:08.000Z</time>
      </trkpt>
      <trkpt lat="45.8135" lon="1.71063">
        <ele>466.1</ele>
        <time>2026-08-08T15:09:09.000Z</time>
      </trkpt>
      <trkpt lat="45.81343" lon="1.71047">
        <ele>465.3</ele>
        <time>2026-08-08T15:09:11.000Z</time>
      </trkpt>
      <trkpt lat="45.81333" lon="1.71025">
        <ele>464.7</ele>
        <time>2026-08-08T15:09:14.000Z</time>
      </trkpt>
      <trkpt lat="45.81325" lon="1.71008">
        <ele>463.6</ele>
        <time>2026-08-08T15:09:16.000Z</time>
      </trkpt>
      <trkpt lat="45.81316" lon="1.70993">
        <ele>462.7</ele>
        <time>2026-08-08T15:09:18.000Z</time>
      </trkpt>
      <trkpt lat="45.813" lon="1.70975">
        <ele>460.7</ele>
        <time>2026-08-08T15:09:21.000Z</time>
      </trkpt>
      <trkpt lat="45.81294" lon="1.7097">
        <ele>460</ele>
        <time>2026-08-08T15:09:22.000Z</time>
      </trkpt>
      <trkpt lat="45.81287" lon="1.70965">
        <ele>459.2</ele>
        <time>2026-08-08T15:09:23.000Z</time>
      </trkpt>
      <trkpt lat="45.81267" lon="1.70953">
        <ele>458.2</ele>
        <time>2026-08-08T15:09:26.000Z</time>
      </trkpt>
      <trkpt lat="45.81252" lon="1.70946">
        <ele>457.2</ele>
        <time>2026-08-08T15:09:28.000Z</time>
      </trkpt>
      <trkpt lat="45.81232" lon="1.70934">
        <ele>454.6</ele>
        <time>2026-08-08T15:09:31.000Z</time>
      </trkpt>
      <trkpt lat="45.81226" lon="1.7093">
        <ele>454</ele>
        <time>2026-08-08T15:09:32.000Z</time>
      </trkpt>
      <trkpt lat="45.81211" lon="1.70922">
        <ele>452.8</ele>
        <time>2026-08-08T15:09:34.000Z</time>
      </trkpt>
      <trkpt lat="45.81203" lon="1.70916">
        <ele>451.5</ele>
        <time>2026-08-08T15:09:35.000Z</time>
      </trkpt>
      <trkpt lat="45.81196" lon="1.70909">
        <ele>450.1</ele>
        <time>2026-08-08T15:09:36.000Z</time>
      </trkpt>
      <trkpt lat="45.8119" lon="1.70901">
        <ele>449.9</ele>
        <time>2026-08-08T15:09:37.000Z</time>
      </trkpt>
      <trkpt lat="45.81181" lon="1.70883">
        <ele>449.6</ele>
        <time>2026-08-08T15:09:39.000Z</time>
      </trkpt>
      <trkpt lat="45.81176" lon="1.70872">
        <ele>448.6</ele>
        <time>2026-08-08T15:09:40.000Z</time>
      </trkpt>
      <trkpt lat="45.81171" lon="1.70862">
        <ele>447.7</ele>
        <time>2026-08-08T15:09:41.000Z</time>
      </trkpt>
      <trkpt lat="45.81159" lon="1.70833">
        <ele>448.7</ele>
        <time>2026-08-08T15:09:44.000Z</time>
      </trkpt>
      <trkpt lat="45.81152" lon="1.70817">
        <ele>446.8</ele>
        <time>2026-08-08T15:09:46.000Z</time>
      </trkpt>
      <trkpt lat="45.81148" lon="1.70808">
        <ele>445.3</ele>
        <time>2026-08-08T15:09:47.000Z</time>
      </trkpt>
      <trkpt lat="45.81145" lon="1.70801">
        <ele>444.3</ele>
        <time>2026-08-08T15:09:48.000Z</time>
      </trkpt>
      <trkpt lat="45.81141" lon="1.70793">
        <ele>443.8</ele>
        <time>2026-08-08T15:09:49.000Z</time>
      </trkpt>
      <trkpt lat="45.8114" lon="1.70784">
        <ele>443.2</ele>
        <time>2026-08-08T15:09:50.000Z</time>
      </trkpt>
      <trkpt lat="45.81134" lon="1.70768">
        <ele>442.1</ele>
        <time>2026-08-08T15:09:52.000Z</time>
      </trkpt>
      <trkpt lat="45.8113" lon="1.7076">
        <ele>441.3</ele>
        <time>2026-08-08T15:09:53.000Z</time>
      </trkpt>
      <trkpt lat="45.81123" lon="1.70746">
        <ele>439.6</ele>
        <time>2026-08-08T15:09:55.000Z</time>
      </trkpt>
      <trkpt lat="45.8112" lon="1.70737">
        <ele>438.7</ele>
        <time>2026-08-08T15:09:56.000Z</time>
      </trkpt>
      <trkpt lat="45.81114" lon="1.70725">
        <ele>438.4</ele>
        <time>2026-08-08T15:09:58.000Z</time>
      </trkpt>
      <trkpt lat="45.81106" lon="1.70702">
        <ele>438.4</ele>
        <time>2026-08-08T15:10:01.000Z</time>
      </trkpt>
      <trkpt lat="45.81103" lon="1.70694">
        <ele>438</ele>
        <time>2026-08-08T15:10:02.000Z</time>
      </trkpt>
      <trkpt lat="45.81099" lon="1.70678">
        <ele>436.2</ele>
        <time>2026-08-08T15:10:04.000Z</time>
      </trkpt>
      <trkpt lat="45.81099" lon="1.70672">
        <ele>435.1</ele>
        <time>2026-08-08T15:10:05.000Z</time>
      </trkpt>
      <trkpt lat="45.81099" lon="1.70656">
        <ele>433.8</ele>
        <time>2026-08-08T15:10:07.000Z</time>
      </trkpt>
      <trkpt lat="45.81103" lon="1.70641">
        <ele>433.2</ele>
        <time>2026-08-08T15:10:09.000Z</time>
      </trkpt>
      <trkpt lat="45.81107" lon="1.70633">
        <ele>433.4</ele>
        <time>2026-08-08T15:10:10.000Z</time>
      </trkpt>
      <trkpt lat="45.81111" lon="1.70627">
        <ele>433.3</ele>
        <time>2026-08-08T15:10:11.000Z</time>
      </trkpt>
      <trkpt lat="45.81115" lon="1.70623">
        <ele>433.3</ele>
        <time>2026-08-08T15:10:12.000Z</time>
      </trkpt>
      <trkpt lat="45.8112" lon="1.70619">
        <ele>433.3</ele>
        <time>2026-08-08T15:10:13.000Z</time>
      </trkpt>
      <trkpt lat="45.81126" lon="1.70617">
        <ele>433.1</ele>
        <time>2026-08-08T15:10:14.000Z</time>
      </trkpt>
      <trkpt lat="45.81141" lon="1.70614">
        <ele>432.2</ele>
        <time>2026-08-08T15:10:16.000Z</time>
      </trkpt>
      <trkpt lat="45.81154" lon="1.70613">
        <ele>430.4</ele>
        <time>2026-08-08T15:10:18.000Z</time>
      </trkpt>
      <trkpt lat="45.81159" lon="1.70611">
        <ele>430</ele>
        <time>2026-08-08T15:10:19.000Z</time>
      </trkpt>
      <trkpt lat="45.8117" lon="1.70605">
        <ele>430.3</ele>
        <time>2026-08-08T15:10:21.000Z</time>
      </trkpt>
      <trkpt lat="45.81176" lon="1.70602">
        <ele>429.7</ele>
        <time>2026-08-08T15:10:22.000Z</time>
      </trkpt>
      <trkpt lat="45.81194" lon="1.70586">
        <ele>427.7</ele>
        <time>2026-08-08T15:10:25.000Z</time>
      </trkpt>
      <trkpt lat="45.812" lon="1.7058">
        <ele>427.3</ele>
        <time>2026-08-08T15:10:26.000Z</time>
      </trkpt>
      <trkpt lat="45.81215" lon="1.70563">
        <ele>427.7</ele>
        <time>2026-08-08T15:10:29.000Z</time>
      </trkpt>
      <trkpt lat="45.81221" lon="1.70559">
        <ele>426.4</ele>
        <time>2026-08-08T15:10:30.000Z</time>
      </trkpt>
      <trkpt lat="45.81228" lon="1.70557">
        <ele>425.6</ele>
        <time>2026-08-08T15:10:31.000Z</time>
      </trkpt>
      <trkpt lat="45.81234" lon="1.70553">
        <ele>425.9</ele>
        <time>2026-08-08T15:10:32.000Z</time>
      </trkpt>
      <trkpt lat="45.81241" lon="1.70549">
        <ele>426.5</ele>
        <time>2026-08-08T15:10:33.000Z</time>
      </trkpt>
      <trkpt lat="45.81255" lon="1.70542">
        <ele>426.1</ele>
        <time>2026-08-08T15:10:35.000Z</time>
      </trkpt>
      <trkpt lat="45.81261" lon="1.70538">
        <ele>425.9</ele>
        <time>2026-08-08T15:10:36.000Z</time>
      </trkpt>
      <trkpt lat="45.81268" lon="1.70536">
        <ele>424.9</ele>
        <time>2026-08-08T15:10:37.000Z</time>
      </trkpt>
      <trkpt lat="45.8128" lon="1.70533">
        <ele>422.7</ele>
        <time>2026-08-08T15:10:39.000Z</time>
      </trkpt>
      <trkpt lat="45.81293" lon="1.70531">
        <ele>421.2</ele>
        <time>2026-08-08T15:10:41.000Z</time>
      </trkpt>
      <trkpt lat="45.81299" lon="1.7053">
        <ele>420.5</ele>
        <time>2026-08-08T15:10:42.000Z</time>
      </trkpt>
      <trkpt lat="45.81325" lon="1.70519">
        <ele>419.5</ele>
        <time>2026-08-08T15:10:46.000Z</time>
      </trkpt>
      <trkpt lat="45.81332" lon="1.70513">
        <ele>418.6</ele>
        <time>2026-08-08T15:10:47.000Z</time>
      </trkpt>
      <trkpt lat="45.81338" lon="1.70507">
        <ele>417.9</ele>
        <time>2026-08-08T15:10:48.000Z</time>
      </trkpt>
      <trkpt lat="45.81343" lon="1.70499">
        <ele>418.1</ele>
        <time>2026-08-08T15:10:49.000Z</time>
      </trkpt>
      <trkpt lat="45.81347" lon="1.7049">
        <ele>419.3</ele>
        <time>2026-08-08T15:10:50.000Z</time>
      </trkpt>
      <trkpt lat="45.8135" lon="1.70479">
        <ele>420.3</ele>
        <time>2026-08-08T15:10:51.000Z</time>
      </trkpt>
      <trkpt lat="45.81351" lon="1.70468">
        <ele>420.2</ele>
        <time>2026-08-08T15:10:52.000Z</time>
      </trkpt>
      <trkpt lat="45.81351" lon="1.70458">
        <ele>418.9</ele>
        <time>2026-08-08T15:10:53.000Z</time>
      </trkpt>
      <trkpt lat="45.8135" lon="1.70448">
        <ele>417.7</ele>
        <time>2026-08-08T15:10:54.000Z</time>
      </trkpt>
      <trkpt lat="45.81345" lon="1.70424">
        <ele>415.3</ele>
        <time>2026-08-08T15:10:57.000Z</time>
      </trkpt>
      <trkpt lat="45.81338" lon="1.70403">
        <ele>414.1</ele>
        <time>2026-08-08T15:11:00.000Z</time>
      </trkpt>
      <trkpt lat="45.8133" lon="1.70375">
        <ele>412.7</ele>
        <time>2026-08-08T15:11:04.000Z</time>
      </trkpt>
      <trkpt lat="45.81324" lon="1.70353">
        <ele>410.8</ele>
        <time>2026-08-08T15:11:07.000Z</time>
      </trkpt>
      <trkpt lat="45.81318" lon="1.70332">
        <ele>409.8</ele>
        <time>2026-08-08T15:11:10.000Z</time>
      </trkpt>
      <trkpt lat="45.81311" lon="1.7031">
        <ele>408.5</ele>
        <time>2026-08-08T15:11:13.000Z</time>
      </trkpt>
      <trkpt lat="45.81305" lon="1.70286">
        <ele>408.5</ele>
        <time>2026-08-08T15:11:16.000Z</time>
      </trkpt>
      <trkpt lat="45.81301" lon="1.70271">
        <ele>409.3</ele>
        <time>2026-08-08T15:11:18.000Z</time>
      </trkpt>
      <trkpt lat="45.81295" lon="1.70252">
        <ele>409</ele>
        <time>2026-08-08T15:11:21.000Z</time>
      </trkpt>
      <trkpt lat="45.8129" lon="1.70242">
        <ele>408.1</ele>
        <time>2026-08-08T15:11:23.000Z</time>
      </trkpt>
      <trkpt lat="45.81285" lon="1.70234">
        <ele>407.5</ele>
        <time>2026-08-08T15:11:25.000Z</time>
      </trkpt>
      <trkpt lat="45.81278" lon="1.70225">
        <ele>407.3</ele>
        <time>2026-08-08T15:11:28.000Z</time>
      </trkpt>
      <trkpt lat="45.81268" lon="1.70223">
        <ele>407.9</ele>
        <time>2026-08-08T15:11:32.000Z</time>
      </trkpt>
      <trkpt lat="45.81259" lon="1.70224">
        <ele>408.8</ele>
        <time>2026-08-08T15:11:37.000Z</time>
      </trkpt>
      <trkpt lat="45.81251" lon="1.70223">
        <ele>409.2</ele>
        <time>2026-08-08T15:11:43.000Z</time>
      </trkpt>
      <trkpt lat="45.81239" lon="1.70224">
        <ele>410.5</ele>
        <time>2026-08-08T15:11:50.000Z</time>
      </trkpt>
      <trkpt lat="45.8123" lon="1.70219">
        <ele>410.5</ele>
        <time>2026-08-08T15:11:56.000Z</time>
      </trkpt>
      <trkpt lat="45.81228" lon="1.70215">
        <ele>410.8</ele>
        <time>2026-08-08T15:11:58.000Z</time>
      </trkpt>
      <trkpt lat="45.81225" lon="1.70211">
        <ele>411.1</ele>
        <time>2026-08-08T15:12:01.000Z</time>
      </trkpt>
      <trkpt lat="45.81223" lon="1.70206">
        <ele>411.4</ele>
        <time>2026-08-08T15:12:04.000Z</time>
      </trkpt>
      <trkpt lat="45.81222" lon="1.70202">
        <ele>411.8</ele>
        <time>2026-08-08T15:12:07.000Z</time>
      </trkpt>
      <trkpt lat="45.81222" lon="1.70201">
        <ele>411.8</ele>
        <time>2026-08-08T15:12:08.000Z</time>
      </trkpt>
      <trkpt lat="45.81221" lon="1.70196">
        <ele>412.3</ele>
        <time>2026-08-08T15:12:11.000Z</time>
      </trkpt>
      <trkpt lat="45.81222" lon="1.70192">
        <ele>412.3</ele>
        <time>2026-08-08T15:12:13.000Z</time>
      </trkpt>
      <trkpt lat="45.81225" lon="1.7018">
        <ele>412.3</ele>
        <time>2026-08-08T15:12:18.000Z</time>
      </trkpt>
      <trkpt lat="45.81227" lon="1.70173">
        <ele>412.1</ele>
        <time>2026-08-08T15:12:21.000Z</time>
      </trkpt>
      <trkpt lat="45.81228" lon="1.7016">
        <ele>412.2</ele>
        <time>2026-08-08T15:12:27.000Z</time>
      </trkpt>
      <trkpt lat="45.81228" lon="1.70157">
        <ele>412.2</ele>
        <time>2026-08-08T15:12:28.000Z</time>
      </trkpt>
      <trkpt lat="45.81228" lon="1.70138">
        <ele>413.3</ele>
        <time>2026-08-08T15:12:35.000Z</time>
      </trkpt>
      <trkpt lat="45.81224" lon="1.70105">
        <ele>413.2</ele>
        <time>2026-08-08T15:12:46.000Z</time>
      </trkpt>
      <trkpt lat="45.81218" lon="1.70081">
        <ele>415</ele>
        <time>2026-08-08T15:12:53.000Z</time>
      </trkpt>
      <trkpt lat="45.81212" lon="1.70065">
        <ele>414.6</ele>
        <time>2026-08-08T15:12:58.000Z</time>
      </trkpt>
      <trkpt lat="45.81209" lon="1.70057">
        <ele>414.4</ele>
        <time>2026-08-08T15:13:00.000Z</time>
      </trkpt>
      <trkpt lat="45.81199" lon="1.7003">
        <ele>414.5</ele>
        <time>2026-08-08T15:13:08.000Z</time>
      </trkpt>
      <trkpt lat="45.81196" lon="1.70009">
        <ele>415.5</ele>
        <time>2026-08-08T15:13:15.000Z</time>
      </trkpt>
      <trkpt lat="45.81195" lon="1.70002">
        <ele>415.9</ele>
        <time>2026-08-08T15:13:17.000Z</time>
      </trkpt>
      <trkpt lat="45.81195" lon="1.69983">
        <ele>416.3</ele>
        <time>2026-08-08T15:13:23.000Z</time>
      </trkpt>
      <trkpt lat="45.81197" lon="1.69965">
        <ele>416.8</ele>
        <time>2026-08-08T15:13:29.000Z</time>
      </trkpt>
      <trkpt lat="45.81197" lon="1.69959">
        <ele>417.1</ele>
        <time>2026-08-08T15:13:31.000Z</time>
      </trkpt>
      <trkpt lat="45.81197" lon="1.69956">
        <ele>417.3</ele>
        <time>2026-08-08T15:13:32.000Z</time>
      </trkpt>
      <trkpt lat="45.812" lon="1.69937">
        <ele>417.6</ele>
        <time>2026-08-08T15:13:39.000Z</time>
      </trkpt>
      <trkpt lat="45.812" lon="1.69934">
        <ele>417.8</ele>
        <time>2026-08-08T15:13:40.000Z</time>
      </trkpt>
      <trkpt lat="45.812" lon="1.69927">
        <ele>418.2</ele>
        <time>2026-08-08T15:13:43.000Z</time>
      </trkpt>
      <trkpt lat="45.812" lon="1.69922">
        <ele>418.3</ele>
        <time>2026-08-08T15:13:45.000Z</time>
      </trkpt>
      <trkpt lat="45.81201" lon="1.69902">
        <ele>418.3</ele>
        <time>2026-08-08T15:13:53.000Z</time>
      </trkpt>
      <trkpt lat="45.812" lon="1.69886">
        <ele>418.6</ele>
        <time>2026-08-08T15:13:59.000Z</time>
      </trkpt>
      <trkpt lat="45.81198" lon="1.69876">
        <ele>419.6</ele>
        <time>2026-08-08T15:14:03.000Z</time>
      </trkpt>
      <trkpt lat="45.81196" lon="1.69869">
        <ele>420.2</ele>
        <time>2026-08-08T15:14:06.000Z</time>
      </trkpt>
      <trkpt lat="45.81192" lon="1.69856">
        <ele>421.2</ele>
        <time>2026-08-08T15:14:12.000Z</time>
      </trkpt>
      <trkpt lat="45.81191" lon="1.69854">
        <ele>421.2</ele>
        <time>2026-08-08T15:14:13.000Z</time>
      </trkpt>
      <trkpt lat="45.81186" lon="1.69842">
        <ele>421.2</ele>
        <time>2026-08-08T15:14:20.000Z</time>
      </trkpt>
      <trkpt lat="45.81182" lon="1.69836">
        <ele>421.5</ele>
        <time>2026-08-08T15:14:24.000Z</time>
      </trkpt>
      <trkpt lat="45.81178" lon="1.69833">
        <ele>421.9</ele>
        <time>2026-08-08T15:14:28.000Z</time>
      </trkpt>
      <trkpt lat="45.81174" lon="1.69831">
        <ele>422.2</ele>
        <time>2026-08-08T15:14:31.000Z</time>
      </trkpt>
      <trkpt lat="45.8117" lon="1.69832">
        <ele>423.1</ele>
        <time>2026-08-08T15:14:35.000Z</time>
      </trkpt>
      <trkpt lat="45.81166" lon="1.69832">
        <ele>423.7</ele>
        <time>2026-08-08T15:14:39.000Z</time>
      </trkpt>
      <trkpt lat="45.81164" lon="1.69832">
        <ele>424</ele>
        <time>2026-08-08T15:14:41.000Z</time>
      </trkpt>
      <trkpt lat="45.81162" lon="1.69832">
        <ele>424</ele>
        <time>2026-08-08T15:14:43.000Z</time>
      </trkpt>
      <trkpt lat="45.8116" lon="1.6983">
        <ele>423.8</ele>
        <time>2026-08-08T15:14:46.000Z</time>
      </trkpt>
      <trkpt lat="45.81156" lon="1.69829">
        <ele>423.7</ele>
        <time>2026-08-08T15:14:49.000Z</time>
      </trkpt>
      <trkpt lat="45.81155" lon="1.69829">
        <ele>423.8</ele>
        <time>2026-08-08T15:14:50.000Z</time>
      </trkpt>
      <trkpt lat="45.81149" lon="1.69831">
        <ele>424.7</ele>
        <time>2026-08-08T15:14:55.000Z</time>
      </trkpt>
      <trkpt lat="45.81145" lon="1.69831">
        <ele>425</ele>
        <time>2026-08-08T15:14:58.000Z</time>
      </trkpt>
      <trkpt lat="45.8114" lon="1.69834">
        <ele>426</ele>
        <time>2026-08-08T15:15:03.000Z</time>
      </trkpt>
      <trkpt lat="45.81132" lon="1.69837">
        <ele>427.4</ele>
        <time>2026-08-08T15:15:12.000Z</time>
      </trkpt>
      <trkpt lat="45.81131" lon="1.69837">
        <ele>427.5</ele>
        <time>2026-08-08T15:15:13.000Z</time>
      </trkpt>
      <trkpt lat="45.81119" lon="1.69841">
        <ele>429.1</ele>
        <time>2026-08-08T15:15:23.000Z</time>
      </trkpt>
      <trkpt lat="45.81118" lon="1.69842">
        <ele>429.3</ele>
        <time>2026-08-08T15:15:24.000Z</time>
      </trkpt>
      <trkpt lat="45.81114" lon="1.69844">
        <ele>429.9</ele>
        <time>2026-08-08T15:15:27.000Z</time>
      </trkpt>
      <trkpt lat="45.81105" lon="1.69845">
        <ele>430.6</ele>
        <time>2026-08-08T15:15:34.000Z</time>
      </trkpt>
      <trkpt lat="45.81099" lon="1.69847">
        <ele>431.2</ele>
        <time>2026-08-08T15:15:39.000Z</time>
      </trkpt>
      <trkpt lat="45.81091" lon="1.69847">
        <ele>431.3</ele>
        <time>2026-08-08T15:15:46.000Z</time>
      </trkpt>
      <trkpt lat="45.81089" lon="1.69846">
        <ele>431.2</ele>
        <time>2026-08-08T15:15:47.000Z</time>
      </trkpt>
      <trkpt lat="45.81087" lon="1.69843">
        <ele>430.9</ele>
        <time>2026-08-08T15:15:50.000Z</time>
      </trkpt>
      <trkpt lat="45.81084" lon="1.69841">
        <ele>430.8</ele>
        <time>2026-08-08T15:15:52.000Z</time>
      </trkpt>
      <trkpt lat="45.81081" lon="1.69833">
        <ele>430.8</ele>
        <time>2026-08-08T15:15:58.000Z</time>
      </trkpt>
      <trkpt lat="45.81081" lon="1.69831">
        <ele>431</ele>
        <time>2026-08-08T15:15:59.000Z</time>
      </trkpt>
      <trkpt lat="45.81081" lon="1.69829">
        <ele>431.1</ele>
        <time>2026-08-08T15:16:00.000Z</time>
      </trkpt>
      <trkpt lat="45.81084" lon="1.69819">
        <ele>431</ele>
        <time>2026-08-08T15:16:05.000Z</time>
      </trkpt>
      <trkpt lat="45.81085" lon="1.69816">
        <ele>430.9</ele>
        <time>2026-08-08T15:16:07.000Z</time>
      </trkpt>
      <trkpt lat="45.81087" lon="1.69807">
        <ele>430.5</ele>
        <time>2026-08-08T15:16:13.000Z</time>
      </trkpt>
      <trkpt lat="45.81088" lon="1.69805">
        <ele>430.4</ele>
        <time>2026-08-08T15:16:14.000Z</time>
      </trkpt>
      <trkpt lat="45.8109" lon="1.69795">
        <ele>431.4</ele>
        <time>2026-08-08T15:16:20.000Z</time>
      </trkpt>
      <trkpt lat="45.8109" lon="1.69793">
        <ele>431.7</ele>
        <time>2026-08-08T15:16:21.000Z</time>
      </trkpt>
      <trkpt lat="45.8109" lon="1.69792">
        <ele>431.9</ele>
        <time>2026-08-08T15:16:22.000Z</time>
      </trkpt>
      <trkpt lat="45.81092" lon="1.69789">
        <ele>431.8</ele>
        <time>2026-08-08T15:16:24.000Z</time>
      </trkpt>
      <trkpt lat="45.81092" lon="1.69783">
        <ele>432.8</ele>
        <time>2026-08-08T15:16:27.000Z</time>
      </trkpt>
      <trkpt lat="45.81094" lon="1.69766">
        <ele>433</ele>
        <time>2026-08-08T15:16:35.000Z</time>
      </trkpt>
      <trkpt lat="45.81093" lon="1.69751">
        <ele>433</ele>
        <time>2026-08-08T15:16:39.000Z</time>
      </trkpt>
      <trkpt lat="45.81085" lon="1.69722">
        <ele>431.6</ele>
        <time>2026-08-08T15:16:45.000Z</time>
      </trkpt>
      <trkpt lat="45.81072" lon="1.69687">
        <ele>430.5</ele>
        <time>2026-08-08T15:16:51.000Z</time>
      </trkpt>
      <trkpt lat="45.81064" lon="1.69671">
        <ele>430.4</ele>
        <time>2026-08-08T15:16:54.000Z</time>
      </trkpt>
      <trkpt lat="45.81059" lon="1.6966">
        <ele>429.8</ele>
        <time>2026-08-08T15:16:56.000Z</time>
      </trkpt>
      <trkpt lat="45.81052" lon="1.69652">
        <ele>429.5</ele>
        <time>2026-08-08T15:16:58.000Z</time>
      </trkpt>
      <trkpt lat="45.81048" lon="1.69649">
        <ele>429.4</ele>
        <time>2026-08-08T15:16:59.000Z</time>
      </trkpt>
      <trkpt lat="45.81041" lon="1.69644">
        <ele>429.4</ele>
        <time>2026-08-08T15:17:01.000Z</time>
      </trkpt>
      <trkpt lat="45.8103" lon="1.69639">
        <ele>429.7</ele>
        <time>2026-08-08T15:17:04.000Z</time>
      </trkpt>
      <trkpt lat="45.81023" lon="1.69637">
        <ele>430</ele>
        <time>2026-08-08T15:17:06.000Z</time>
      </trkpt>
      <trkpt lat="45.81005" lon="1.69629">
        <ele>430.4</ele>
        <time>2026-08-08T15:17:13.000Z</time>
      </trkpt>
      <trkpt lat="45.80985" lon="1.69623">
        <ele>430.4</ele>
        <time>2026-08-08T15:17:20.000Z</time>
      </trkpt>
      <trkpt lat="45.80964" lon="1.69619">
        <ele>430.2</ele>
        <time>2026-08-08T15:17:26.000Z</time>
      </trkpt>
      <trkpt lat="45.80945" lon="1.69613">
        <ele>429.5</ele>
        <time>2026-08-08T15:17:32.000Z</time>
      </trkpt>
      <trkpt lat="45.80919" lon="1.69601">
        <ele>428.1</ele>
        <time>2026-08-08T15:17:39.000Z</time>
      </trkpt>
      <trkpt lat="45.80915" lon="1.69599">
        <ele>427.9</ele>
        <time>2026-08-08T15:17:40.000Z</time>
      </trkpt>
      <trkpt lat="45.80898" lon="1.69591">
        <ele>427.6</ele>
        <time>2026-08-08T15:17:45.000Z</time>
      </trkpt>
      <trkpt lat="45.8089" lon="1.69589">
        <ele>427.7</ele>
        <time>2026-08-08T15:17:47.000Z</time>
      </trkpt>
      <trkpt lat="45.80871" lon="1.69595">
        <ele>427.3</ele>
        <time>2026-08-08T15:17:52.000Z</time>
      </trkpt>
      <trkpt lat="45.80868" lon="1.69596">
        <ele>427.4</ele>
        <time>2026-08-08T15:17:53.000Z</time>
      </trkpt>
      <trkpt lat="45.80849" lon="1.69614">
        <ele>427.8</ele>
        <time>2026-08-08T15:17:59.000Z</time>
      </trkpt>
      <trkpt lat="45.80838" lon="1.69624">
        <ele>427.7</ele>
        <time>2026-08-08T15:18:03.000Z</time>
      </trkpt>
      <trkpt lat="45.80834" lon="1.69625">
        <ele>427.2</ele>
        <time>2026-08-08T15:18:04.000Z</time>
      </trkpt>
      <trkpt lat="45.8083" lon="1.69626">
        <ele>426.7</ele>
        <time>2026-08-08T15:18:05.000Z</time>
      </trkpt>
      <trkpt lat="45.80814" lon="1.69635">
        <ele>425.7</ele>
        <time>2026-08-08T15:18:10.000Z</time>
      </trkpt>
      <trkpt lat="45.80806" lon="1.69645">
        <ele>426.5</ele>
        <time>2026-08-08T15:18:13.000Z</time>
      </trkpt>
      <trkpt lat="45.80799" lon="1.69653">
        <ele>427.6</ele>
        <time>2026-08-08T15:18:16.000Z</time>
      </trkpt>
      <trkpt lat="45.80793" lon="1.69656">
        <ele>427.7</ele>
        <time>2026-08-08T15:18:19.000Z</time>
      </trkpt>
      <trkpt lat="45.80791" lon="1.69658">
        <ele>427.8</ele>
        <time>2026-08-08T15:18:20.000Z</time>
      </trkpt>
      <trkpt lat="45.80778" lon="1.69662">
        <ele>427</ele>
        <time>2026-08-08T15:18:27.000Z</time>
      </trkpt>
      <trkpt lat="45.80759" lon="1.69671">
        <ele>426.3</ele>
        <time>2026-08-08T15:18:34.000Z</time>
      </trkpt>
      <trkpt lat="45.80735" lon="1.69681">
        <ele>425.5</ele>
        <time>2026-08-08T15:18:40.000Z</time>
      </trkpt>
      <trkpt lat="45.80721" lon="1.69685">
        <ele>424.5</ele>
        <time>2026-08-08T15:18:43.000Z</time>
      </trkpt>
      <trkpt lat="45.80709" lon="1.69688">
        <ele>424.2</ele>
        <time>2026-08-08T15:18:46.000Z</time>
      </trkpt>
      <trkpt lat="45.80704" lon="1.69689">
        <ele>424.1</ele>
        <time>2026-08-08T15:18:47.000Z</time>
      </trkpt>
      <trkpt lat="45.80699" lon="1.6969">
        <ele>423.8</ele>
        <time>2026-08-08T15:18:48.000Z</time>
      </trkpt>
      <trkpt lat="45.80692" lon="1.6969">
        <ele>423.9</ele>
        <time>2026-08-08T15:18:50.000Z</time>
      </trkpt>
      <trkpt lat="45.80688" lon="1.69689">
        <ele>424.4</ele>
        <time>2026-08-08T15:18:51.000Z</time>
      </trkpt>
      <trkpt lat="45.80679" lon="1.69681">
        <ele>425</ele>
        <time>2026-08-08T15:18:55.000Z</time>
      </trkpt>
      <trkpt lat="45.80673" lon="1.6967">
        <ele>425.2</ele>
        <time>2026-08-08T15:19:00.000Z</time>
      </trkpt>
      <trkpt lat="45.8067" lon="1.69664">
        <ele>424.8</ele>
        <time>2026-08-08T15:19:03.000Z</time>
      </trkpt>
      <trkpt lat="45.80668" lon="1.69661">
        <ele>424.4</ele>
        <time>2026-08-08T15:19:05.000Z</time>
      </trkpt>
      <trkpt lat="45.80659" lon="1.69637">
        <ele>422</ele>
        <time>2026-08-08T15:19:12.000Z</time>
      </trkpt>
      <trkpt lat="45.80649" lon="1.69607">
        <ele>421.1</ele>
        <time>2026-08-08T15:19:18.000Z</time>
      </trkpt>
      <trkpt lat="45.80641" lon="1.69583">
        <ele>420.3</ele>
        <time>2026-08-08T15:19:22.000Z</time>
      </trkpt>
      <trkpt lat="45.80639" lon="1.69579">
        <ele>420.2</ele>
        <time>2026-08-08T15:19:23.000Z</time>
      </trkpt>
      <trkpt lat="45.80634" lon="1.69568">
        <ele>419.3</ele>
        <time>2026-08-08T15:19:25.000Z</time>
      </trkpt>
      <trkpt lat="45.80628" lon="1.69559">
        <ele>418.7</ele>
        <time>2026-08-08T15:19:27.000Z</time>
      </trkpt>
      <trkpt lat="45.80624" lon="1.69554">
        <ele>418.3</ele>
        <time>2026-08-08T15:19:28.000Z</time>
      </trkpt>
      <trkpt lat="45.80619" lon="1.69549">
        <ele>417.9</ele>
        <time>2026-08-08T15:19:29.000Z</time>
      </trkpt>
      <trkpt lat="45.80615" lon="1.69546">
        <ele>417.8</ele>
        <time>2026-08-08T15:19:30.000Z</time>
      </trkpt>
      <trkpt lat="45.806" lon="1.69534">
        <ele>417.3</ele>
        <time>2026-08-08T15:19:33.000Z</time>
      </trkpt>
      <trkpt lat="45.8059" lon="1.69526">
        <ele>416.9</ele>
        <time>2026-08-08T15:19:35.000Z</time>
      </trkpt>
      <trkpt lat="45.8057" lon="1.6951">
        <ele>415.6</ele>
        <time>2026-08-08T15:19:39.000Z</time>
      </trkpt>
      <trkpt lat="45.80565" lon="1.69504">
        <ele>414.9</ele>
        <time>2026-08-08T15:19:40.000Z</time>
      </trkpt>
      <trkpt lat="45.8056" lon="1.69498">
        <ele>414.2</ele>
        <time>2026-08-08T15:19:41.000Z</time>
      </trkpt>
      <trkpt lat="45.80557" lon="1.69489">
        <ele>413.7</ele>
        <time>2026-08-08T15:19:42.000Z</time>
      </trkpt>
      <trkpt lat="45.80553" lon="1.69478">
        <ele>413.2</ele>
        <time>2026-08-08T15:19:43.000Z</time>
      </trkpt>
      <trkpt lat="45.80552" lon="1.69466">
        <ele>412.9</ele>
        <time>2026-08-08T15:19:44.000Z</time>
      </trkpt>
      <trkpt lat="45.80554" lon="1.69444">
        <ele>411.5</ele>
        <time>2026-08-08T15:19:46.000Z</time>
      </trkpt>
      <trkpt lat="45.80556" lon="1.69433">
        <ele>410.5</ele>
        <time>2026-08-08T15:19:47.000Z</time>
      </trkpt>
      <trkpt lat="45.80558" lon="1.69423">
        <ele>409.7</ele>
        <time>2026-08-08T15:19:48.000Z</time>
      </trkpt>
      <trkpt lat="45.80561" lon="1.69413">
        <ele>409</ele>
        <time>2026-08-08T15:19:49.000Z</time>
      </trkpt>
      <trkpt lat="45.80565" lon="1.69403">
        <ele>408.7</ele>
        <time>2026-08-08T15:19:50.000Z</time>
      </trkpt>
      <trkpt lat="45.8057" lon="1.69395">
        <ele>408.4</ele>
        <time>2026-08-08T15:19:51.000Z</time>
      </trkpt>
      <trkpt lat="45.80576" lon="1.69388">
        <ele>408.2</ele>
        <time>2026-08-08T15:19:52.000Z</time>
      </trkpt>
      <trkpt lat="45.80581" lon="1.6938">
        <ele>408.2</ele>
        <time>2026-08-08T15:19:53.000Z</time>
      </trkpt>
      <trkpt lat="45.80598" lon="1.69362">
        <ele>406.8</ele>
        <time>2026-08-08T15:19:56.000Z</time>
      </trkpt>
      <trkpt lat="45.80615" lon="1.69348">
        <ele>404.6</ele>
        <time>2026-08-08T15:19:59.000Z</time>
      </trkpt>
      <trkpt lat="45.80625" lon="1.69335">
        <ele>403.3</ele>
        <time>2026-08-08T15:20:01.000Z</time>
      </trkpt>
      <trkpt lat="45.80629" lon="1.69328">
        <ele>403</ele>
        <time>2026-08-08T15:20:02.000Z</time>
      </trkpt>
      <trkpt lat="45.80641" lon="1.69305">
        <ele>402.2</ele>
        <time>2026-08-08T15:20:05.000Z</time>
      </trkpt>
      <trkpt lat="45.80645" lon="1.69296">
        <ele>401.3</ele>
        <time>2026-08-08T15:20:06.000Z</time>
      </trkpt>
      <trkpt lat="45.80652" lon="1.69277">
        <ele>400</ele>
        <time>2026-08-08T15:20:08.000Z</time>
      </trkpt>
      <trkpt lat="45.80659" lon="1.69259">
        <ele>398.7</ele>
        <time>2026-08-08T15:20:10.000Z</time>
      </trkpt>
      <trkpt lat="45.80666" lon="1.6924">
        <ele>397.9</ele>
        <time>2026-08-08T15:20:12.000Z</time>
      </trkpt>
      <trkpt lat="45.8067" lon="1.69231">
        <ele>397.3</ele>
        <time>2026-08-08T15:20:13.000Z</time>
      </trkpt>
      <trkpt lat="45.80674" lon="1.69221">
        <ele>396.9</ele>
        <time>2026-08-08T15:20:14.000Z</time>
      </trkpt>
      <trkpt lat="45.80686" lon="1.69192">
        <ele>395</ele>
        <time>2026-08-08T15:20:17.000Z</time>
      </trkpt>
      <trkpt lat="45.80689" lon="1.69183">
        <ele>394.2</ele>
        <time>2026-08-08T15:20:18.000Z</time>
      </trkpt>
      <trkpt lat="45.80693" lon="1.69175">
        <ele>393.2</ele>
        <time>2026-08-08T15:20:19.000Z</time>
      </trkpt>
      <trkpt lat="45.80697" lon="1.69167">
        <ele>392.2</ele>
        <time>2026-08-08T15:20:20.000Z</time>
      </trkpt>
      <trkpt lat="45.807" lon="1.69159">
        <ele>391.7</ele>
        <time>2026-08-08T15:20:21.000Z</time>
      </trkpt>
      <trkpt lat="45.80705" lon="1.69145">
        <ele>391</ele>
        <time>2026-08-08T15:20:23.000Z</time>
      </trkpt>
      <trkpt lat="45.80707" lon="1.69138">
        <ele>390.9</ele>
        <time>2026-08-08T15:20:24.000Z</time>
      </trkpt>
      <trkpt lat="45.80711" lon="1.69124">
        <ele>389.9</ele>
        <time>2026-08-08T15:20:26.000Z</time>
      </trkpt>
      <trkpt lat="45.80711" lon="1.69116">
        <ele>389.7</ele>
        <time>2026-08-08T15:20:27.000Z</time>
      </trkpt>
      <trkpt lat="45.80712" lon="1.69107">
        <ele>389.3</ele>
        <time>2026-08-08T15:20:28.000Z</time>
      </trkpt>
      <trkpt lat="45.80711" lon="1.69099">
        <ele>388.7</ele>
        <time>2026-08-08T15:20:29.000Z</time>
      </trkpt>
      <trkpt lat="45.8071" lon="1.69081">
        <ele>387.5</ele>
        <time>2026-08-08T15:20:31.000Z</time>
      </trkpt>
      <trkpt lat="45.80708" lon="1.69056">
        <ele>386.5</ele>
        <time>2026-08-08T15:20:34.000Z</time>
      </trkpt>
      <trkpt lat="45.80706" lon="1.69031">
        <ele>384.7</ele>
        <time>2026-08-08T15:20:37.000Z</time>
      </trkpt>
      <trkpt lat="45.80704" lon="1.69013">
        <ele>383.8</ele>
        <time>2026-08-08T15:20:39.000Z</time>
      </trkpt>
      <trkpt lat="45.80702" lon="1.68994">
        <ele>382.5</ele>
        <time>2026-08-08T15:20:41.000Z</time>
      </trkpt>
      <trkpt lat="45.80698" lon="1.68975">
        <ele>380.5</ele>
        <time>2026-08-08T15:20:43.000Z</time>
      </trkpt>
      <trkpt lat="45.80694" lon="1.68955">
        <ele>379.7</ele>
        <time>2026-08-08T15:20:45.000Z</time>
      </trkpt>
      <trkpt lat="45.8069" lon="1.68933">
        <ele>379.4</ele>
        <time>2026-08-08T15:20:47.000Z</time>
      </trkpt>
      <trkpt lat="45.80689" lon="1.68923">
        <ele>379.2</ele>
        <time>2026-08-08T15:20:48.000Z</time>
      </trkpt>
      <trkpt lat="45.80688" lon="1.68912">
        <ele>379</ele>
        <time>2026-08-08T15:20:49.000Z</time>
      </trkpt>
      <trkpt lat="45.80689" lon="1.68892">
        <ele>378.4</ele>
        <time>2026-08-08T15:20:51.000Z</time>
      </trkpt>
      <trkpt lat="45.80691" lon="1.68873">
        <ele>377.4</ele>
        <time>2026-08-08T15:20:53.000Z</time>
      </trkpt>
      <trkpt lat="45.80692" lon="1.68865">
        <ele>376.7</ele>
        <time>2026-08-08T15:20:54.000Z</time>
      </trkpt>
      <trkpt lat="45.80699" lon="1.68836">
        <ele>376.3</ele>
        <time>2026-08-08T15:20:57.000Z</time>
      </trkpt>
      <trkpt lat="45.80701" lon="1.68826">
        <ele>375.8</ele>
        <time>2026-08-08T15:20:58.000Z</time>
      </trkpt>
      <trkpt lat="45.80702" lon="1.68816">
        <ele>375.3</ele>
        <time>2026-08-08T15:20:59.000Z</time>
      </trkpt>
      <trkpt lat="45.80702" lon="1.68797">
        <ele>374.3</ele>
        <time>2026-08-08T15:21:01.000Z</time>
      </trkpt>
      <trkpt lat="45.80701" lon="1.68788">
        <ele>373.8</ele>
        <time>2026-08-08T15:21:02.000Z</time>
      </trkpt>
      <trkpt lat="45.80697" lon="1.6877">
        <ele>372.5</ele>
        <time>2026-08-08T15:21:04.000Z</time>
      </trkpt>
      <trkpt lat="45.80694" lon="1.68751">
        <ele>370.4</ele>
        <time>2026-08-08T15:21:06.000Z</time>
      </trkpt>
      <trkpt lat="45.80689" lon="1.68732">
        <ele>371</ele>
        <time>2026-08-08T15:21:08.000Z</time>
      </trkpt>
      <trkpt lat="45.80687" lon="1.68722">
        <ele>371</ele>
        <time>2026-08-08T15:21:09.000Z</time>
      </trkpt>
      <trkpt lat="45.8068" lon="1.68692">
        <ele>370.2</ele>
        <time>2026-08-08T15:21:12.000Z</time>
      </trkpt>
      <trkpt lat="45.80678" lon="1.68684">
        <ele>369.2</ele>
        <time>2026-08-08T15:21:13.000Z</time>
      </trkpt>
      <trkpt lat="45.80675" lon="1.68676">
        <ele>368.3</ele>
        <time>2026-08-08T15:21:14.000Z</time>
      </trkpt>
      <trkpt lat="45.80671" lon="1.68669">
        <ele>367.4</ele>
        <time>2026-08-08T15:21:15.000Z</time>
      </trkpt>
      <trkpt lat="45.80663" lon="1.68656">
        <ele>364.7</ele>
        <time>2026-08-08T15:21:17.000Z</time>
      </trkpt>
      <trkpt lat="45.80652" lon="1.68647">
        <ele>362.9</ele>
        <time>2026-08-08T15:21:19.000Z</time>
      </trkpt>
      <trkpt lat="45.80646" lon="1.68644">
        <ele>362.8</ele>
        <time>2026-08-08T15:21:20.000Z</time>
      </trkpt>
      <trkpt lat="45.80639" lon="1.68641">
        <ele>362.7</ele>
        <time>2026-08-08T15:21:21.000Z</time>
      </trkpt>
      <trkpt lat="45.80625" lon="1.68636">
        <ele>362.3</ele>
        <time>2026-08-08T15:21:23.000Z</time>
      </trkpt>
      <trkpt lat="45.80619" lon="1.68634">
        <ele>362.4</ele>
        <time>2026-08-08T15:21:24.000Z</time>
      </trkpt>
      <trkpt lat="45.80586" lon="1.68628">
        <ele>362.2</ele>
        <time>2026-08-08T15:21:29.000Z</time>
      </trkpt>
      <trkpt lat="45.80573" lon="1.68632">
        <ele>362.5</ele>
        <time>2026-08-08T15:21:31.000Z</time>
      </trkpt>
      <trkpt lat="45.80566" lon="1.68635">
        <ele>362.3</ele>
        <time>2026-08-08T15:21:32.000Z</time>
      </trkpt>
      <trkpt lat="45.80559" lon="1.68638">
        <ele>362.2</ele>
        <time>2026-08-08T15:21:33.000Z</time>
      </trkpt>
      <trkpt lat="45.80552" lon="1.68639">
        <ele>361.9</ele>
        <time>2026-08-08T15:21:34.000Z</time>
      </trkpt>
      <trkpt lat="45.80536" lon="1.68637">
        <ele>361.1</ele>
        <time>2026-08-08T15:21:36.000Z</time>
      </trkpt>
      <trkpt lat="45.80525" lon="1.68631">
        <ele>360.1</ele>
        <time>2026-08-08T15:21:38.000Z</time>
      </trkpt>
      <trkpt lat="45.80521" lon="1.68627">
        <ele>359.5</ele>
        <time>2026-08-08T15:21:39.000Z</time>
      </trkpt>
      <trkpt lat="45.80518" lon="1.68622">
        <ele>359.1</ele>
        <time>2026-08-08T15:21:40.000Z</time>
      </trkpt>
      <trkpt lat="45.80514" lon="1.6861">
        <ele>358.7</ele>
        <time>2026-08-08T15:21:43.000Z</time>
      </trkpt>
      <trkpt lat="45.80514" lon="1.68607">
        <ele>359.1</ele>
        <time>2026-08-08T15:21:47.000Z</time>
      </trkpt>
      <trkpt lat="45.80513" lon="1.686">
        <ele>359.9</ele>
        <time>2026-08-08T15:21:52.000Z</time>
      </trkpt>
      <trkpt lat="45.80513" lon="1.68597">
        <ele>360.4</ele>
        <time>2026-08-08T15:21:54.000Z</time>
      </trkpt>
      <trkpt lat="45.80513" lon="1.68595">
        <ele>360.6</ele>
        <time>2026-08-08T15:21:55.000Z</time>
      </trkpt>
      <trkpt lat="45.80512" lon="1.68593">
        <ele>361</ele>
        <time>2026-08-08T15:21:58.000Z</time>
      </trkpt>
      <trkpt lat="45.80513" lon="1.68592">
        <ele>361.1</ele>
        <time>2026-08-08T15:21:59.000Z</time>
      </trkpt>
      <trkpt lat="45.80513" lon="1.6859">
        <ele>361.3</ele>
        <time>2026-08-08T15:22:00.000Z</time>
      </trkpt>
      <trkpt lat="45.80513" lon="1.68584">
        <ele>362.1</ele>
        <time>2026-08-08T15:22:03.000Z</time>
      </trkpt>
      <trkpt lat="45.80512" lon="1.68581">
        <ele>362.5</ele>
        <time>2026-08-08T15:22:05.000Z</time>
      </trkpt>
      <trkpt lat="45.80512" lon="1.68579">
        <ele>362.7</ele>
        <time>2026-08-08T15:22:06.000Z</time>
      </trkpt>
      <trkpt lat="45.80512" lon="1.68569">
        <ele>363.9</ele>
        <time>2026-08-08T15:22:11.000Z</time>
      </trkpt>
      <trkpt lat="45.80513" lon="1.68566">
        <ele>364.1</ele>
        <time>2026-08-08T15:22:13.000Z</time>
      </trkpt>
      <trkpt lat="45.80513" lon="1.68564">
        <ele>364.2</ele>
        <time>2026-08-08T15:22:14.000Z</time>
      </trkpt>
      <trkpt lat="45.80513" lon="1.68558">
        <ele>364.9</ele>
        <time>2026-08-08T15:22:16.000Z</time>
      </trkpt>
      <trkpt lat="45.80513" lon="1.68554">
        <ele>365.3</ele>
        <time>2026-08-08T15:22:19.000Z</time>
      </trkpt>
      <trkpt lat="45.80517" lon="1.68552">
        <ele>365.2</ele>
        <time>2026-08-08T15:22:23.000Z</time>
      </trkpt>
      <trkpt lat="45.80518" lon="1.68549">
        <ele>365.5</ele>
        <time>2026-08-08T15:22:25.000Z</time>
      </trkpt>
      <trkpt lat="45.80519" lon="1.68548">
        <ele>365.6</ele>
        <time>2026-08-08T15:22:26.000Z</time>
      </trkpt>
      <trkpt lat="45.80523" lon="1.6854">
        <ele>366.4</ele>
        <time>2026-08-08T15:22:32.000Z</time>
      </trkpt>
      <trkpt lat="45.80523" lon="1.68539">
        <ele>366.6</ele>
        <time>2026-08-08T15:22:33.000Z</time>
      </trkpt>
      <trkpt lat="45.80524" lon="1.68536">
        <ele>366.9</ele>
        <time>2026-08-08T15:22:35.000Z</time>
      </trkpt>
      <trkpt lat="45.80527" lon="1.68535">
        <ele>366.8</ele>
        <time>2026-08-08T15:22:38.000Z</time>
      </trkpt>
      <trkpt lat="45.8053" lon="1.68534">
        <ele>367</ele>
        <time>2026-08-08T15:22:41.000Z</time>
      </trkpt>
      <trkpt lat="45.80535" lon="1.68533">
        <ele>367.3</ele>
        <time>2026-08-08T15:22:45.000Z</time>
      </trkpt>
      <trkpt lat="45.80536" lon="1.68533">
        <ele>367.3</ele>
        <time>2026-08-08T15:22:46.000Z</time>
      </trkpt>
      <trkpt lat="45.80536" lon="1.68531">
        <ele>367.6</ele>
        <time>2026-08-08T15:22:47.000Z</time>
      </trkpt>
      <trkpt lat="45.80539" lon="1.68528">
        <ele>368.4</ele>
        <time>2026-08-08T15:22:50.000Z</time>
      </trkpt>
      <trkpt lat="45.80543" lon="1.68528">
        <ele>368.6</ele>
        <time>2026-08-08T15:22:54.000Z</time>
      </trkpt>
      <trkpt lat="45.80552" lon="1.68521">
        <ele>370.1</ele>
        <time>2026-08-08T15:23:01.000Z</time>
      </trkpt>
      <trkpt lat="45.80556" lon="1.6852">
        <ele>370.3</ele>
        <time>2026-08-08T15:23:03.000Z</time>
      </trkpt>
      <trkpt lat="45.80559" lon="1.6852">
        <ele>370.2</ele>
        <time>2026-08-08T15:23:05.000Z</time>
      </trkpt>
      <trkpt lat="45.80562" lon="1.6852">
        <ele>370.2</ele>
        <time>2026-08-08T15:23:08.000Z</time>
      </trkpt>
      <trkpt lat="45.80564" lon="1.6852">
        <ele>370.2</ele>
        <time>2026-08-08T15:23:11.000Z</time>
      </trkpt>
      <trkpt lat="45.80568" lon="1.6852">
        <ele>370</ele>
        <time>2026-08-08T15:23:15.000Z</time>
      </trkpt>
      <trkpt lat="45.8057" lon="1.6852">
        <ele>370</ele>
        <time>2026-08-08T15:23:17.000Z</time>
      </trkpt>
      <trkpt lat="45.80574" lon="1.68518">
        <ele>370.3</ele>
        <time>2026-08-08T15:23:22.000Z</time>
      </trkpt>
      <trkpt lat="45.80579" lon="1.68518">
        <ele>370.1</ele>
        <time>2026-08-08T15:23:26.000Z</time>
      </trkpt>
      <trkpt lat="45.80583" lon="1.68518">
        <ele>370.1</ele>
        <time>2026-08-08T15:23:29.000Z</time>
      </trkpt>
      <trkpt lat="45.80586" lon="1.68517">
        <ele>370.4</ele>
        <time>2026-08-08T15:23:35.000Z</time>
      </trkpt>
      <trkpt lat="45.80591" lon="1.68516">
        <ele>370.5</ele>
        <time>2026-08-08T15:23:41.000Z</time>
      </trkpt>
      <trkpt lat="45.80599" lon="1.68513">
        <ele>371.4</ele>
        <time>2026-08-08T15:23:47.000Z</time>
      </trkpt>
      <trkpt lat="45.80603" lon="1.68512">
        <ele>371.5</ele>
        <time>2026-08-08T15:23:50.000Z</time>
      </trkpt>
      <trkpt lat="45.80606" lon="1.68507">
        <ele>373</ele>
        <time>2026-08-08T15:23:53.000Z</time>
      </trkpt>
      <trkpt lat="45.80618" lon="1.685">
        <ele>374.7</ele>
        <time>2026-08-08T15:24:01.000Z</time>
      </trkpt>
      <trkpt lat="45.8062" lon="1.685">
        <ele>374.6</ele>
        <time>2026-08-08T15:24:03.000Z</time>
      </trkpt>
      <trkpt lat="45.80621" lon="1.68501">
        <ele>374.5</ele>
        <time>2026-08-08T15:24:04.000Z</time>
      </trkpt>
      <trkpt lat="45.80623" lon="1.685">
        <ele>374.5</ele>
        <time>2026-08-08T15:24:05.000Z</time>
      </trkpt>
      <trkpt lat="45.80624" lon="1.68499">
        <ele>374.7</ele>
        <time>2026-08-08T15:24:07.000Z</time>
      </trkpt>
      <trkpt lat="45.8063" lon="1.68493">
        <ele>375.5</ele>
        <time>2026-08-08T15:24:14.000Z</time>
      </trkpt>
      <trkpt lat="45.80635" lon="1.68485">
        <ele>376.4</ele>
        <time>2026-08-08T15:24:19.000Z</time>
      </trkpt>
      <trkpt lat="45.80639" lon="1.68478">
        <ele>377.2</ele>
        <time>2026-08-08T15:24:24.000Z</time>
      </trkpt>
      <trkpt lat="45.80643" lon="1.68471">
        <ele>377.3</ele>
        <time>2026-08-08T15:24:30.000Z</time>
      </trkpt>
      <trkpt lat="45.80651" lon="1.68459">
        <ele>378.2</ele>
        <time>2026-08-08T15:24:39.000Z</time>
      </trkpt>
      <trkpt lat="45.80653" lon="1.68456">
        <ele>378.5</ele>
        <time>2026-08-08T15:24:41.000Z</time>
      </trkpt>
      <trkpt lat="45.80655" lon="1.68454">
        <ele>378.5</ele>
        <time>2026-08-08T15:24:44.000Z</time>
      </trkpt>
      <trkpt lat="45.80656" lon="1.68451">
        <ele>379</ele>
        <time>2026-08-08T15:24:45.000Z</time>
      </trkpt>
      <trkpt lat="45.80657" lon="1.68449">
        <ele>379.3</ele>
        <time>2026-08-08T15:24:47.000Z</time>
      </trkpt>
      <trkpt lat="45.80658" lon="1.68448">
        <ele>379.3</ele>
        <time>2026-08-08T15:24:50.000Z</time>
      </trkpt>
      <trkpt lat="45.80658" lon="1.68448">
        <ele>379.3</ele>
        <time>2026-08-08T15:24:51.000Z</time>
      </trkpt>
      <trkpt lat="45.80662" lon="1.68445">
        <ele>379.4</ele>
        <time>2026-08-08T15:24:58.000Z</time>
      </trkpt>
      <trkpt lat="45.80663" lon="1.68444">
        <ele>379.4</ele>
        <time>2026-08-08T15:24:59.000Z</time>
      </trkpt>
      <trkpt lat="45.80664" lon="1.68444">
        <ele>379.3</ele>
        <time>2026-08-08T15:25:00.000Z</time>
      </trkpt>
      <trkpt lat="45.8067" lon="1.68443">
        <ele>379.5</ele>
        <time>2026-08-08T15:25:05.000Z</time>
      </trkpt>
      <trkpt lat="45.80676" lon="1.68445">
        <ele>379.9</ele>
        <time>2026-08-08T15:25:11.000Z</time>
      </trkpt>
      <trkpt lat="45.80678" lon="1.68446">
        <ele>380</ele>
        <time>2026-08-08T15:25:13.000Z</time>
      </trkpt>
      <trkpt lat="45.80682" lon="1.68447">
        <ele>380.2</ele>
        <time>2026-08-08T15:25:17.000Z</time>
      </trkpt>
      <trkpt lat="45.80682" lon="1.68446">
        <ele>380.5</ele>
        <time>2026-08-08T15:25:18.000Z</time>
      </trkpt>
      <trkpt lat="45.80684" lon="1.68445">
        <ele>380.7</ele>
        <time>2026-08-08T15:25:19.000Z</time>
      </trkpt>
      <trkpt lat="45.8069" lon="1.68446">
        <ele>381.3</ele>
        <time>2026-08-08T15:25:25.000Z</time>
      </trkpt>
      <trkpt lat="45.80693" lon="1.68447">
        <ele>381.4</ele>
        <time>2026-08-08T15:25:27.000Z</time>
      </trkpt>
      <trkpt lat="45.80697" lon="1.68445">
        <ele>382</ele>
        <time>2026-08-08T15:25:31.000Z</time>
      </trkpt>
      <trkpt lat="45.80705" lon="1.68442">
        <ele>382.8</ele>
        <time>2026-08-08T15:25:38.000Z</time>
      </trkpt>
      <trkpt lat="45.8071" lon="1.68441">
        <ele>383.3</ele>
        <time>2026-08-08T15:25:42.000Z</time>
      </trkpt>
      <trkpt lat="45.80711" lon="1.6844">
        <ele>383.3</ele>
        <time>2026-08-08T15:25:43.000Z</time>
      </trkpt>
      <trkpt lat="45.80712" lon="1.6844">
        <ele>383.5</ele>
        <time>2026-08-08T15:25:44.000Z</time>
      </trkpt>
      <trkpt lat="45.80713" lon="1.68439">
        <ele>383.7</ele>
        <time>2026-08-08T15:25:45.000Z</time>
      </trkpt>
      <trkpt lat="45.80719" lon="1.68438">
        <ele>384</ele>
        <time>2026-08-08T15:25:50.000Z</time>
      </trkpt>
      <trkpt lat="45.80721" lon="1.68437">
        <ele>384.2</ele>
        <time>2026-08-08T15:25:51.000Z</time>
      </trkpt>
      <trkpt lat="45.80722" lon="1.68436">
        <ele>384.5</ele>
        <time>2026-08-08T15:25:53.000Z</time>
      </trkpt>
      <trkpt lat="45.80725" lon="1.68435">
        <ele>384.5</ele>
        <time>2026-08-08T15:25:56.000Z</time>
      </trkpt>
      <trkpt lat="45.80727" lon="1.68433">
        <ele>384.6</ele>
        <time>2026-08-08T15:25:58.000Z</time>
      </trkpt>
      <trkpt lat="45.80729" lon="1.68432">
        <ele>384.6</ele>
        <time>2026-08-08T15:26:00.000Z</time>
      </trkpt>
      <trkpt lat="45.80731" lon="1.68426">
        <ele>385.5</ele>
        <time>2026-08-08T15:26:04.000Z</time>
      </trkpt>
      <trkpt lat="45.80735" lon="1.68422">
        <ele>386</ele>
        <time>2026-08-08T15:26:08.000Z</time>
      </trkpt>
      <trkpt lat="45.80737" lon="1.68422">
        <ele>385.9</ele>
        <time>2026-08-08T15:26:10.000Z</time>
      </trkpt>
      <trkpt lat="45.80738" lon="1.68422">
        <ele>385.8</ele>
        <time>2026-08-08T15:26:11.000Z</time>
      </trkpt>
      <trkpt lat="45.80739" lon="1.68423">
        <ele>385.6</ele>
        <time>2026-08-08T15:26:12.000Z</time>
      </trkpt>
      <trkpt lat="45.8074" lon="1.68419">
        <ele>386.3</ele>
        <time>2026-08-08T15:26:15.000Z</time>
      </trkpt>
      <trkpt lat="45.80741" lon="1.68417">
        <ele>386.5</ele>
        <time>2026-08-08T15:26:16.000Z</time>
      </trkpt>
      <trkpt lat="45.80743" lon="1.68417">
        <ele>386.5</ele>
        <time>2026-08-08T15:26:18.000Z</time>
      </trkpt>
      <trkpt lat="45.80745" lon="1.68416">
        <ele>386.5</ele>
        <time>2026-08-08T15:26:20.000Z</time>
      </trkpt>
      <trkpt lat="45.80749" lon="1.68408">
        <ele>387.7</ele>
        <time>2026-08-08T15:26:26.000Z</time>
      </trkpt>
      <trkpt lat="45.80754" lon="1.684">
        <ele>388.5</ele>
        <time>2026-08-08T15:26:33.000Z</time>
      </trkpt>
      <trkpt lat="45.80755" lon="1.684">
        <ele>388.4</ele>
        <time>2026-08-08T15:26:34.000Z</time>
      </trkpt>
      <trkpt lat="45.80756" lon="1.684">
        <ele>388.3</ele>
        <time>2026-08-08T15:26:35.000Z</time>
      </trkpt>
      <trkpt lat="45.80758" lon="1.68399">
        <ele>388.3</ele>
        <time>2026-08-08T15:26:37.000Z</time>
      </trkpt>
      <trkpt lat="45.80758" lon="1.68395">
        <ele>388.9</ele>
        <time>2026-08-08T15:26:39.000Z</time>
      </trkpt>
      <trkpt lat="45.8076" lon="1.68393">
        <ele>389.2</ele>
        <time>2026-08-08T15:26:42.000Z</time>
      </trkpt>
      <trkpt lat="45.80762" lon="1.68391">
        <ele>389.4</ele>
        <time>2026-08-08T15:26:44.000Z</time>
      </trkpt>
      <trkpt lat="45.80766" lon="1.68386">
        <ele>389.6</ele>
        <time>2026-08-08T15:26:49.000Z</time>
      </trkpt>
      <trkpt lat="45.80769" lon="1.68382">
        <ele>389.8</ele>
        <time>2026-08-08T15:26:53.000Z</time>
      </trkpt>
      <trkpt lat="45.8077" lon="1.68379">
        <ele>390.2</ele>
        <time>2026-08-08T15:26:55.000Z</time>
      </trkpt>
      <trkpt lat="45.80772" lon="1.68373">
        <ele>390.8</ele>
        <time>2026-08-08T15:26:59.000Z</time>
      </trkpt>
      <trkpt lat="45.80777" lon="1.68371">
        <ele>390.7</ele>
        <time>2026-08-08T15:27:03.000Z</time>
      </trkpt>
      <trkpt lat="45.80779" lon="1.68368">
        <ele>390.9</ele>
        <time>2026-08-08T15:27:05.000Z</time>
      </trkpt>
      <trkpt lat="45.8078" lon="1.68364">
        <ele>391.3</ele>
        <time>2026-08-08T15:27:07.000Z</time>
      </trkpt>
      <trkpt lat="45.80782" lon="1.68361">
        <ele>391.8</ele>
        <time>2026-08-08T15:27:10.000Z</time>
      </trkpt>
      <trkpt lat="45.80782" lon="1.6836">
        <ele>391.9</ele>
        <time>2026-08-08T15:27:11.000Z</time>
      </trkpt>
      <trkpt lat="45.80785" lon="1.68358">
        <ele>392</ele>
        <time>2026-08-08T15:27:14.000Z</time>
      </trkpt>
      <trkpt lat="45.80786" lon="1.68357">
        <ele>392.1</ele>
        <time>2026-08-08T15:27:15.000Z</time>
      </trkpt>
      <trkpt lat="45.80787" lon="1.68357">
        <ele>392.2</ele>
        <time>2026-08-08T15:27:16.000Z</time>
      </trkpt>
      <trkpt lat="45.80794" lon="1.68351">
        <ele>392.7</ele>
        <time>2026-08-08T15:27:23.000Z</time>
      </trkpt>
      <trkpt lat="45.80796" lon="1.68349">
        <ele>392.9</ele>
        <time>2026-08-08T15:27:25.000Z</time>
      </trkpt>
      <trkpt lat="45.80804" lon="1.68343">
        <ele>393.3</ele>
        <time>2026-08-08T15:27:32.000Z</time>
      </trkpt>
      <trkpt lat="45.80811" lon="1.68338">
        <ele>394.1</ele>
        <time>2026-08-08T15:27:37.000Z</time>
      </trkpt>
      <trkpt lat="45.80813" lon="1.68336">
        <ele>394.4</ele>
        <time>2026-08-08T15:27:40.000Z</time>
      </trkpt>
      <trkpt lat="45.80814" lon="1.68336">
        <ele>394.5</ele>
        <time>2026-08-08T15:27:41.000Z</time>
      </trkpt>
      <trkpt lat="45.8082" lon="1.68335">
        <ele>394.7</ele>
        <time>2026-08-08T15:27:46.000Z</time>
      </trkpt>
      <trkpt lat="45.80821" lon="1.68335">
        <ele>394.8</ele>
        <time>2026-08-08T15:27:47.000Z</time>
      </trkpt>
      <trkpt lat="45.80827" lon="1.68332">
        <ele>395.2</ele>
        <time>2026-08-08T15:27:52.000Z</time>
      </trkpt>
      <trkpt lat="45.8083" lon="1.68331">
        <ele>395.4</ele>
        <time>2026-08-08T15:27:55.000Z</time>
      </trkpt>
      <trkpt lat="45.80831" lon="1.68331">
        <ele>395.5</ele>
        <time>2026-08-08T15:27:56.000Z</time>
      </trkpt>
      <trkpt lat="45.80831" lon="1.6833">
        <ele>395.7</ele>
        <time>2026-08-08T15:27:57.000Z</time>
      </trkpt>
      <trkpt lat="45.80834" lon="1.68328">
        <ele>396.2</ele>
        <time>2026-08-08T15:27:59.000Z</time>
      </trkpt>
      <trkpt lat="45.80836" lon="1.68326">
        <ele>396.5</ele>
        <time>2026-08-08T15:28:01.000Z</time>
      </trkpt>
      <trkpt lat="45.80836" lon="1.68325">
        <ele>396.7</ele>
        <time>2026-08-08T15:28:02.000Z</time>
      </trkpt>
      <trkpt lat="45.80841" lon="1.68321">
        <ele>397.4</ele>
        <time>2026-08-08T15:28:07.000Z</time>
      </trkpt>
      <trkpt lat="45.80846" lon="1.68318">
        <ele>397.9</ele>
        <time>2026-08-08T15:28:11.000Z</time>
      </trkpt>
      <trkpt lat="45.80851" lon="1.68314">
        <ele>398.3</ele>
        <time>2026-08-08T15:28:16.000Z</time>
      </trkpt>
      <trkpt lat="45.80854" lon="1.68312">
        <ele>398.4</ele>
        <time>2026-08-08T15:28:19.000Z</time>
      </trkpt>
      <trkpt lat="45.80855" lon="1.68312">
        <ele>398.5</ele>
        <time>2026-08-08T15:28:20.000Z</time>
      </trkpt>
      <trkpt lat="45.80857" lon="1.68311">
        <ele>398.5</ele>
        <time>2026-08-08T15:28:21.000Z</time>
      </trkpt>
      <trkpt lat="45.8086" lon="1.68309">
        <ele>398.7</ele>
        <time>2026-08-08T15:28:24.000Z</time>
      </trkpt>
      <trkpt lat="45.80862" lon="1.68306">
        <ele>398.9</ele>
        <time>2026-08-08T15:28:26.000Z</time>
      </trkpt>
      <trkpt lat="45.80864" lon="1.68305">
        <ele>399</ele>
        <time>2026-08-08T15:28:28.000Z</time>
      </trkpt>
      <trkpt lat="45.80867" lon="1.68304">
        <ele>399</ele>
        <time>2026-08-08T15:28:31.000Z</time>
      </trkpt>
      <trkpt lat="45.80868" lon="1.68303">
        <ele>399.1</ele>
        <time>2026-08-08T15:28:32.000Z</time>
      </trkpt>
      <trkpt lat="45.80871" lon="1.68295">
        <ele>400.1</ele>
        <time>2026-08-08T15:28:38.000Z</time>
      </trkpt>
      <trkpt lat="45.80871" lon="1.68294">
        <ele>400.2</ele>
        <time>2026-08-08T15:28:39.000Z</time>
      </trkpt>
      <trkpt lat="45.80872" lon="1.68293">
        <ele>400.3</ele>
        <time>2026-08-08T15:28:40.000Z</time>
      </trkpt>
      <trkpt lat="45.80875" lon="1.68289">
        <ele>400.6</ele>
        <time>2026-08-08T15:28:44.000Z</time>
      </trkpt>
      <trkpt lat="45.80877" lon="1.68287">
        <ele>400.7</ele>
        <time>2026-08-08T15:28:46.000Z</time>
      </trkpt>
      <trkpt lat="45.8088" lon="1.68283">
        <ele>401</ele>
        <time>2026-08-08T15:28:50.000Z</time>
      </trkpt>
      <trkpt lat="45.80883" lon="1.68277">
        <ele>401.5</ele>
        <time>2026-08-08T15:28:54.000Z</time>
      </trkpt>
      <trkpt lat="45.80883" lon="1.68275">
        <ele>401.6</ele>
        <time>2026-08-08T15:28:55.000Z</time>
      </trkpt>
      <trkpt lat="45.80884" lon="1.68272">
        <ele>401.8</ele>
        <time>2026-08-08T15:28:57.000Z</time>
      </trkpt>
      <trkpt lat="45.80884" lon="1.68265">
        <ele>402.4</ele>
        <time>2026-08-08T15:29:01.000Z</time>
      </trkpt>
      <trkpt lat="45.80884" lon="1.68258">
        <ele>402.9</ele>
        <time>2026-08-08T15:29:05.000Z</time>
      </trkpt>
      <trkpt lat="45.80882" lon="1.68243">
        <ele>403.8</ele>
        <time>2026-08-08T15:29:13.000Z</time>
      </trkpt>
      <trkpt lat="45.80879" lon="1.68227">
        <ele>404.6</ele>
        <time>2026-08-08T15:29:22.000Z</time>
      </trkpt>
      <trkpt lat="45.80877" lon="1.68221">
        <ele>405</ele>
        <time>2026-08-08T15:29:27.000Z</time>
      </trkpt>
      <trkpt lat="45.80875" lon="1.68216">
        <ele>405.2</ele>
        <time>2026-08-08T15:29:30.000Z</time>
      </trkpt>
      <trkpt lat="45.80871" lon="1.68207">
        <ele>405.6</ele>
        <time>2026-08-08T15:29:37.000Z</time>
      </trkpt>
      <trkpt lat="45.80869" lon="1.68194">
        <ele>405.9</ele>
        <time>2026-08-08T15:29:45.000Z</time>
      </trkpt>
      <trkpt lat="45.80868" lon="1.68192">
        <ele>406.2</ele>
        <time>2026-08-08T15:29:46.000Z</time>
      </trkpt>
      <trkpt lat="45.80866" lon="1.6818">
        <ele>407.6</ele>
        <time>2026-08-08T15:29:54.000Z</time>
      </trkpt>
      <trkpt lat="45.80867" lon="1.68176">
        <ele>407.8</ele>
        <time>2026-08-08T15:29:56.000Z</time>
      </trkpt>
      <trkpt lat="45.80867" lon="1.68162">
        <ele>408.8</ele>
        <time>2026-08-08T15:30:04.000Z</time>
      </trkpt>
      <trkpt lat="45.80868" lon="1.68159">
        <ele>408.9</ele>
        <time>2026-08-08T15:30:06.000Z</time>
      </trkpt>
      <trkpt lat="45.8087" lon="1.68146">
        <ele>409.7</ele>
        <time>2026-08-08T15:30:13.000Z</time>
      </trkpt>
      <trkpt lat="45.80872" lon="1.6814">
        <ele>410</ele>
        <time>2026-08-08T15:30:17.000Z</time>
      </trkpt>
      <trkpt lat="45.80877" lon="1.68134">
        <ele>410</ele>
        <time>2026-08-08T15:30:22.000Z</time>
      </trkpt>
      <trkpt lat="45.80887" lon="1.68129">
        <ele>409.3</ele>
        <time>2026-08-08T15:30:30.000Z</time>
      </trkpt>
      <trkpt lat="45.8089" lon="1.68129">
        <ele>409.1</ele>
        <time>2026-08-08T15:30:32.000Z</time>
      </trkpt>
      <trkpt lat="45.80894" lon="1.68131">
        <ele>408.9</ele>
        <time>2026-08-08T15:30:36.000Z</time>
      </trkpt>
      <trkpt lat="45.80896" lon="1.6813">
        <ele>409.2</ele>
        <time>2026-08-08T15:30:38.000Z</time>
      </trkpt>
      <trkpt lat="45.80901" lon="1.68129">
        <ele>409.5</ele>
        <time>2026-08-08T15:30:41.000Z</time>
      </trkpt>
      <trkpt lat="45.80907" lon="1.68128">
        <ele>410</ele>
        <time>2026-08-08T15:30:45.000Z</time>
      </trkpt>
      <trkpt lat="45.80909" lon="1.68126">
        <ele>410.4</ele>
        <time>2026-08-08T15:30:47.000Z</time>
      </trkpt>
      <trkpt lat="45.80919" lon="1.68122">
        <ele>411.4</ele>
        <time>2026-08-08T15:30:54.000Z</time>
      </trkpt>
      <trkpt lat="45.80925" lon="1.68119">
        <ele>411.6</ele>
        <time>2026-08-08T15:30:59.000Z</time>
      </trkpt>
      <trkpt lat="45.80927" lon="1.68116">
        <ele>411.9</ele>
        <time>2026-08-08T15:31:02.000Z</time>
      </trkpt>
      <trkpt lat="45.80928" lon="1.68115">
        <ele>411.9</ele>
        <time>2026-08-08T15:31:03.000Z</time>
      </trkpt>
      <trkpt lat="45.80934" lon="1.68108">
        <ele>412.7</ele>
        <time>2026-08-08T15:31:09.000Z</time>
      </trkpt>
      <trkpt lat="45.80936" lon="1.68107">
        <ele>412.6</ele>
        <time>2026-08-08T15:31:11.000Z</time>
      </trkpt>
      <trkpt lat="45.80943" lon="1.68098">
        <ele>413.2</ele>
        <time>2026-08-08T15:31:18.000Z</time>
      </trkpt>
      <trkpt lat="45.80943" lon="1.68096">
        <ele>413.3</ele>
        <time>2026-08-08T15:31:19.000Z</time>
      </trkpt>
      <trkpt lat="45.80943" lon="1.68091">
        <ele>414.2</ele>
        <time>2026-08-08T15:31:22.000Z</time>
      </trkpt>
      <trkpt lat="45.80943" lon="1.68089">
        <ele>414.4</ele>
        <time>2026-08-08T15:31:23.000Z</time>
      </trkpt>
      <trkpt lat="45.80943" lon="1.68087">
        <ele>414.7</ele>
        <time>2026-08-08T15:31:24.000Z</time>
      </trkpt>
      <trkpt lat="45.80948" lon="1.68074">
        <ele>415.4</ele>
        <time>2026-08-08T15:31:32.000Z</time>
      </trkpt>
      <trkpt lat="45.80952" lon="1.68064">
        <ele>415.5</ele>
        <time>2026-08-08T15:31:38.000Z</time>
      </trkpt>
      <trkpt lat="45.80952" lon="1.68062">
        <ele>415.4</ele>
        <time>2026-08-08T15:31:39.000Z</time>
      </trkpt>
      <trkpt lat="45.80953" lon="1.68061">
        <ele>415.3</ele>
        <time>2026-08-08T15:31:40.000Z</time>
      </trkpt>
      <trkpt lat="45.80954" lon="1.6806">
        <ele>415.1</ele>
        <time>2026-08-08T15:31:41.000Z</time>
      </trkpt>
      <trkpt lat="45.80955" lon="1.68058">
        <ele>415</ele>
        <time>2026-08-08T15:31:45.000Z</time>
      </trkpt>
      <trkpt lat="45.8096" lon="1.68019">
        <ele>417.7</ele>
        <time>2026-08-08T15:35:08.000Z</time>
      </trkpt>
      <trkpt lat="45.80962" lon="1.68011">
        <ele>418.1</ele>
        <time>2026-08-08T15:35:11.000Z</time>
      </trkpt>
      <trkpt lat="45.80967" lon="1.6799">
        <ele>418.4</ele>
        <time>2026-08-08T15:35:19.000Z</time>
      </trkpt>
      <trkpt lat="45.80972" lon="1.67977">
        <ele>417.6</ele>
        <time>2026-08-08T15:35:25.000Z</time>
      </trkpt>
      <trkpt lat="45.80974" lon="1.67972">
        <ele>416.8</ele>
        <time>2026-08-08T15:35:27.000Z</time>
      </trkpt>
      <trkpt lat="45.80977" lon="1.67965">
        <ele>416.7</ele>
        <time>2026-08-08T15:35:32.000Z</time>
      </trkpt>
      <trkpt lat="45.80978" lon="1.67961">
        <ele>416.5</ele>
        <time>2026-08-08T15:35:34.000Z</time>
      </trkpt>
      <trkpt lat="45.80983" lon="1.67936">
        <ele>418.4</ele>
        <time>2026-08-08T15:35:42.000Z</time>
      </trkpt>
      <trkpt lat="45.80985" lon="1.67933">
        <ele>418.2</ele>
        <time>2026-08-08T15:35:44.000Z</time>
      </trkpt>
      <trkpt lat="45.80991" lon="1.67919">
        <ele>418.6</ele>
        <time>2026-08-08T15:35:49.000Z</time>
      </trkpt>
      <trkpt lat="45.80996" lon="1.6791">
        <ele>418.2</ele>
        <time>2026-08-08T15:35:54.000Z</time>
      </trkpt>
      <trkpt lat="45.80997" lon="1.67908">
        <ele>418.5</ele>
        <time>2026-08-08T15:35:55.000Z</time>
      </trkpt>
      <trkpt lat="45.81002" lon="1.67903">
        <ele>417.2</ele>
        <time>2026-08-08T15:35:58.000Z</time>
      </trkpt>
      <trkpt lat="45.81009" lon="1.67897">
        <ele>416.4</ele>
        <time>2026-08-08T15:36:02.000Z</time>
      </trkpt>
      <trkpt lat="45.81013" lon="1.67889">
        <ele>417.5</ele>
        <time>2026-08-08T15:36:06.000Z</time>
      </trkpt>
      <trkpt lat="45.81013" lon="1.67885">
        <ele>418.8</ele>
        <time>2026-08-08T15:36:08.000Z</time>
      </trkpt>
      <trkpt lat="45.81015" lon="1.67879">
        <ele>419.6</ele>
        <time>2026-08-08T15:36:11.000Z</time>
      </trkpt>
      <trkpt lat="45.81017" lon="1.67876">
        <ele>420.1</ele>
        <time>2026-08-08T15:36:13.000Z</time>
      </trkpt>
      <trkpt lat="45.8102" lon="1.67865">
        <ele>421.6</ele>
        <time>2026-08-08T15:36:19.000Z</time>
      </trkpt>
      <trkpt lat="45.81022" lon="1.67859">
        <ele>422.5</ele>
        <time>2026-08-08T15:36:22.000Z</time>
      </trkpt>
      <trkpt lat="45.81022" lon="1.67857">
        <ele>422.6</ele>
        <time>2026-08-08T15:36:23.000Z</time>
      </trkpt>
      <trkpt lat="45.81025" lon="1.6785">
        <ele>422.3</ele>
        <time>2026-08-08T15:36:27.000Z</time>
      </trkpt>
      <trkpt lat="45.81026" lon="1.67847">
        <ele>422.2</ele>
        <time>2026-08-08T15:36:28.000Z</time>
      </trkpt>
      <trkpt lat="45.81027" lon="1.67835">
        <ele>423.1</ele>
        <time>2026-08-08T15:36:34.000Z</time>
      </trkpt>
      <trkpt lat="45.81027" lon="1.67833">
        <ele>423.8</ele>
        <time>2026-08-08T15:36:35.000Z</time>
      </trkpt>
      <trkpt lat="45.81027" lon="1.67823">
        <ele>424.4</ele>
        <time>2026-08-08T15:36:39.000Z</time>
      </trkpt>
      <trkpt lat="45.81028" lon="1.67817">
        <ele>424.8</ele>
        <time>2026-08-08T15:36:41.000Z</time>
      </trkpt>
      <trkpt lat="45.81029" lon="1.67814">
        <ele>424.7</ele>
        <time>2026-08-08T15:36:42.000Z</time>
      </trkpt>
      <trkpt lat="45.81028" lon="1.67811">
        <ele>425.4</ele>
        <time>2026-08-08T15:36:44.000Z</time>
      </trkpt>
      <trkpt lat="45.81029" lon="1.67807">
        <ele>425.2</ele>
        <time>2026-08-08T15:36:46.000Z</time>
      </trkpt>
      <trkpt lat="45.81028" lon="1.67801">
        <ele>425.7</ele>
        <time>2026-08-08T15:36:50.000Z</time>
      </trkpt>
      <trkpt lat="45.81026" lon="1.67798">
        <ele>426.6</ele>
        <time>2026-08-08T15:36:51.000Z</time>
      </trkpt>
      <trkpt lat="45.81024" lon="1.67794">
        <ele>426.9</ele>
        <time>2026-08-08T15:36:54.000Z</time>
      </trkpt>
      <trkpt lat="45.81022" lon="1.67784">
        <ele>427.2</ele>
        <time>2026-08-08T15:37:00.000Z</time>
      </trkpt>
      <trkpt lat="45.81021" lon="1.67783">
        <ele>427.4</ele>
        <time>2026-08-08T15:37:01.000Z</time>
      </trkpt>
      <trkpt lat="45.81019" lon="1.6777">
        <ele>426.4</ele>
        <time>2026-08-08T15:37:09.000Z</time>
      </trkpt>
      <trkpt lat="45.81019" lon="1.67767">
        <ele>425.7</ele>
        <time>2026-08-08T15:37:11.000Z</time>
      </trkpt>
      <trkpt lat="45.81019" lon="1.67765">
        <ele>425.1</ele>
        <time>2026-08-08T15:37:12.000Z</time>
      </trkpt>
      <trkpt lat="45.81019" lon="1.6776">
        <ele>424.1</ele>
        <time>2026-08-08T15:37:14.000Z</time>
      </trkpt>
      <trkpt lat="45.8102" lon="1.67758">
        <ele>423.4</ele>
        <time>2026-08-08T15:37:15.000Z</time>
      </trkpt>
      <trkpt lat="45.81016" lon="1.67747">
        <ele>422.9</ele>
        <time>2026-08-08T15:37:21.000Z</time>
      </trkpt>
      <trkpt lat="45.81016" lon="1.67745">
        <ele>422.5</ele>
        <time>2026-08-08T15:37:22.000Z</time>
      </trkpt>
      <trkpt lat="45.81017" lon="1.67738">
        <ele>420.9</ele>
        <time>2026-08-08T15:37:25.000Z</time>
      </trkpt>
      <trkpt lat="45.81014" lon="1.67733">
        <ele>421.3</ele>
        <time>2026-08-08T15:37:27.000Z</time>
      </trkpt>
      <trkpt lat="45.81012" lon="1.67729">
        <ele>421.8</ele>
        <time>2026-08-08T15:37:29.000Z</time>
      </trkpt>
      <trkpt lat="45.81007" lon="1.67722">
        <ele>423</ele>
        <time>2026-08-08T15:37:34.000Z</time>
      </trkpt>
      <trkpt lat="45.81002" lon="1.67715">
        <ele>424.3</ele>
        <time>2026-08-08T15:37:37.000Z</time>
      </trkpt>
      <trkpt lat="45.81001" lon="1.67705">
        <ele>422.7</ele>
        <time>2026-08-08T15:37:41.000Z</time>
      </trkpt>
      <trkpt lat="45.80996" lon="1.67692">
        <ele>422.5</ele>
        <time>2026-08-08T15:37:47.000Z</time>
      </trkpt>
      <trkpt lat="45.80985" lon="1.67675">
        <ele>423.8</ele>
        <time>2026-08-08T15:37:55.000Z</time>
      </trkpt>
      <trkpt lat="45.80972" lon="1.67653">
        <ele>425.4</ele>
        <time>2026-08-08T15:38:03.000Z</time>
      </trkpt>
      <trkpt lat="45.8096" lon="1.67633">
        <ele>426.8</ele>
        <time>2026-08-08T15:38:10.000Z</time>
      </trkpt>
      <trkpt lat="45.80945" lon="1.6761">
        <ele>428.6</ele>
        <time>2026-08-08T15:38:17.000Z</time>
      </trkpt>
      <trkpt lat="45.80933" lon="1.67582">
        <ele>426.9</ele>
        <time>2026-08-08T15:38:25.000Z</time>
      </trkpt>
      <trkpt lat="45.8092" lon="1.67567">
        <ele>429.8</ele>
        <time>2026-08-08T15:38:31.000Z</time>
      </trkpt>
      <trkpt lat="45.80918" lon="1.67564">
        <ele>430</ele>
        <time>2026-08-08T15:38:33.000Z</time>
      </trkpt>
      <trkpt lat="45.80911" lon="1.67558">
        <ele>430.5</ele>
        <time>2026-08-08T15:38:38.000Z</time>
      </trkpt>
      <trkpt lat="45.80905" lon="1.67554">
        <ele>430.7</ele>
        <time>2026-08-08T15:38:45.000Z</time>
      </trkpt>
      <trkpt lat="45.80904" lon="1.67553">
        <ele>430.7</ele>
        <time>2026-08-08T15:38:46.000Z</time>
      </trkpt>
      <trkpt lat="45.80897" lon="1.67549">
        <ele>431.2</ele>
        <time>2026-08-08T15:38:53.000Z</time>
      </trkpt>
      <trkpt lat="45.80895" lon="1.67549">
        <ele>431.5</ele>
        <time>2026-08-08T15:38:55.000Z</time>
      </trkpt>
      <trkpt lat="45.80889" lon="1.67545">
        <ele>431.7</ele>
        <time>2026-08-08T15:38:59.000Z</time>
      </trkpt>
      <trkpt lat="45.80887" lon="1.67545">
        <ele>431.8</ele>
        <time>2026-08-08T15:39:00.000Z</time>
      </trkpt>
      <trkpt lat="45.80884" lon="1.67544">
        <ele>432.1</ele>
        <time>2026-08-08T15:39:03.000Z</time>
      </trkpt>
      <trkpt lat="45.80878" lon="1.67544">
        <ele>432.3</ele>
        <time>2026-08-08T15:39:06.000Z</time>
      </trkpt>
      <trkpt lat="45.80878" lon="1.67544">
        <ele>432.6</ele>
        <time>2026-08-08T15:39:08.000Z</time>
      </trkpt>
      <trkpt lat="45.80876" lon="1.67544">
        <ele>432.5</ele>
        <time>2026-08-08T15:39:10.000Z</time>
      </trkpt>
      <trkpt lat="45.80869" lon="1.67542">
        <ele>432.9</ele>
        <time>2026-08-08T15:39:14.000Z</time>
      </trkpt>
      <trkpt lat="45.80867" lon="1.67542">
        <ele>433.1</ele>
        <time>2026-08-08T15:39:15.000Z</time>
      </trkpt>
      <trkpt lat="45.80859" lon="1.67541">
        <ele>433.4</ele>
        <time>2026-08-08T15:39:20.000Z</time>
      </trkpt>
      <trkpt lat="45.80857" lon="1.67541">
        <ele>433.5</ele>
        <time>2026-08-08T15:39:21.000Z</time>
      </trkpt>
      <trkpt lat="45.80851" lon="1.6754">
        <ele>433.5</ele>
        <time>2026-08-08T15:39:24.000Z</time>
      </trkpt>
      <trkpt lat="45.80847" lon="1.6754">
        <ele>433.7</ele>
        <time>2026-08-08T15:39:26.000Z</time>
      </trkpt>
      <trkpt lat="45.80847" lon="1.6754">
        <ele>433.7</ele>
        <time>2026-08-08T15:39:27.000Z</time>
      </trkpt>
      <trkpt lat="45.80847" lon="1.6754">
        <ele>433.8</ele>
        <time>2026-08-08T15:39:28.000Z</time>
      </trkpt>
      <trkpt lat="45.80843" lon="1.67541">
        <ele>434</ele>
        <time>2026-08-08T15:39:32.000Z</time>
      </trkpt>
      <trkpt lat="45.80831" lon="1.67539">
        <ele>434.1</ele>
        <time>2026-08-08T15:39:39.000Z</time>
      </trkpt>
      <trkpt lat="45.80829" lon="1.67538">
        <ele>434.1</ele>
        <time>2026-08-08T15:39:40.000Z</time>
      </trkpt>
      <trkpt lat="45.80818" lon="1.67544">
        <ele>435.7</ele>
        <time>2026-08-08T15:39:47.000Z</time>
      </trkpt>
      <trkpt lat="45.80817" lon="1.67544">
        <ele>435.9</ele>
        <time>2026-08-08T15:39:48.000Z</time>
      </trkpt>
      <trkpt lat="45.80809" lon="1.67544">
        <ele>436.2</ele>
        <time>2026-08-08T15:39:53.000Z</time>
      </trkpt>
      <trkpt lat="45.80807" lon="1.67544">
        <ele>436.3</ele>
        <time>2026-08-08T15:39:54.000Z</time>
      </trkpt>
      <trkpt lat="45.80801" lon="1.67544">
        <ele>436.9</ele>
        <time>2026-08-08T15:39:58.000Z</time>
      </trkpt>
      <trkpt lat="45.80796" lon="1.67544">
        <ele>437.1</ele>
        <time>2026-08-08T15:40:01.000Z</time>
      </trkpt>
      <trkpt lat="45.80784" lon="1.67543">
        <ele>437.9</ele>
        <time>2026-08-08T15:40:08.000Z</time>
      </trkpt>
      <trkpt lat="45.80778" lon="1.67543">
        <ele>438.2</ele>
        <time>2026-08-08T15:40:11.000Z</time>
      </trkpt>
      <trkpt lat="45.80765" lon="1.6754">
        <ele>438.8</ele>
        <time>2026-08-08T15:40:19.000Z</time>
      </trkpt>
      <trkpt lat="45.80753" lon="1.67538">
        <ele>439.2</ele>
        <time>2026-08-08T15:40:26.000Z</time>
      </trkpt>
      <trkpt lat="45.80749" lon="1.67536">
        <ele>439.3</ele>
        <time>2026-08-08T15:40:30.000Z</time>
      </trkpt>
      <trkpt lat="45.80746" lon="1.67533">
        <ele>439</ele>
        <time>2026-08-08T15:40:33.000Z</time>
      </trkpt>
      <trkpt lat="45.80741" lon="1.6753">
        <ele>439.2</ele>
        <time>2026-08-08T15:40:36.000Z</time>
      </trkpt>
      <trkpt lat="45.80735" lon="1.67526">
        <ele>439.4</ele>
        <time>2026-08-08T15:40:40.000Z</time>
      </trkpt>
      <trkpt lat="45.8073" lon="1.67521">
        <ele>439</ele>
        <time>2026-08-08T15:40:44.000Z</time>
      </trkpt>
      <trkpt lat="45.80722" lon="1.67516">
        <ele>439</ele>
        <time>2026-08-08T15:40:51.000Z</time>
      </trkpt>
      <trkpt lat="45.80716" lon="1.6751">
        <ele>438.9</ele>
        <time>2026-08-08T15:40:56.000Z</time>
      </trkpt>
      <trkpt lat="45.80713" lon="1.67506">
        <ele>439.1</ele>
        <time>2026-08-08T15:40:59.000Z</time>
      </trkpt>
      <trkpt lat="45.80705" lon="1.67499">
        <ele>439.8</ele>
        <time>2026-08-08T15:41:06.000Z</time>
      </trkpt>
      <trkpt lat="45.80696" lon="1.67491">
        <ele>441</ele>
        <time>2026-08-08T15:41:13.000Z</time>
      </trkpt>
      <trkpt lat="45.80692" lon="1.67487">
        <ele>441.1</ele>
        <time>2026-08-08T15:41:16.000Z</time>
      </trkpt>
      <trkpt lat="45.8069" lon="1.67481">
        <ele>440.6</ele>
        <time>2026-08-08T15:41:19.000Z</time>
      </trkpt>
      <trkpt lat="45.80682" lon="1.67463">
        <ele>440.6</ele>
        <time>2026-08-08T15:41:28.000Z</time>
      </trkpt>
      <trkpt lat="45.80677" lon="1.67453">
        <ele>441.1</ele>
        <time>2026-08-08T15:41:33.000Z</time>
      </trkpt>
      <trkpt lat="45.80675" lon="1.67448">
        <ele>441.2</ele>
        <time>2026-08-08T15:41:35.000Z</time>
      </trkpt>
      <trkpt lat="45.80673" lon="1.6744">
        <ele>441.7</ele>
        <time>2026-08-08T15:41:38.000Z</time>
      </trkpt>
      <trkpt lat="45.80668" lon="1.67428">
        <ele>443</ele>
        <time>2026-08-08T15:41:43.000Z</time>
      </trkpt>
      <trkpt lat="45.80664" lon="1.67416">
        <ele>444.3</ele>
        <time>2026-08-08T15:41:51.000Z</time>
      </trkpt>
      <trkpt lat="45.80656" lon="1.67397">
        <ele>444.2</ele>
        <time>2026-08-08T15:41:58.000Z</time>
      </trkpt>
      <trkpt lat="45.80642" lon="1.67374">
        <ele>442.2</ele>
        <time>2026-08-08T15:42:03.000Z</time>
      </trkpt>
      <trkpt lat="45.80635" lon="1.67363">
        <ele>441.4</ele>
        <time>2026-08-08T15:42:05.000Z</time>
      </trkpt>
      <trkpt lat="45.80627" lon="1.67351">
        <ele>441.2</ele>
        <time>2026-08-08T15:42:07.000Z</time>
      </trkpt>
      <trkpt lat="45.80623" lon="1.67343">
        <ele>440.7</ele>
        <time>2026-08-08T15:42:08.000Z</time>
      </trkpt>
      <trkpt lat="45.8062" lon="1.67335">
        <ele>439.7</ele>
        <time>2026-08-08T15:42:09.000Z</time>
      </trkpt>
      <trkpt lat="45.80619" lon="1.67317">
        <ele>439.1</ele>
        <time>2026-08-08T15:42:11.000Z</time>
      </trkpt>
      <trkpt lat="45.80623" lon="1.673">
        <ele>438.3</ele>
        <time>2026-08-08T15:42:13.000Z</time>
      </trkpt>
      <trkpt lat="45.80625" lon="1.67293">
        <ele>438.3</ele>
        <time>2026-08-08T15:42:14.000Z</time>
      </trkpt>
      <trkpt lat="45.80629" lon="1.67289">
        <ele>438.4</ele>
        <time>2026-08-08T15:42:15.000Z</time>
      </trkpt>
      <trkpt lat="45.80637" lon="1.67278">
        <ele>439</ele>
        <time>2026-08-08T15:42:18.000Z</time>
      </trkpt>
      <trkpt lat="45.80645" lon="1.67269">
        <ele>439.4</ele>
        <time>2026-08-08T15:42:23.000Z</time>
      </trkpt>
      <trkpt lat="45.80654" lon="1.6726">
        <ele>440.2</ele>
        <time>2026-08-08T15:42:29.000Z</time>
      </trkpt>
      <trkpt lat="45.80662" lon="1.67252">
        <ele>441.6</ele>
        <time>2026-08-08T15:42:36.000Z</time>
      </trkpt>
      <trkpt lat="45.80667" lon="1.67247">
        <ele>442.4</ele>
        <time>2026-08-08T15:42:40.000Z</time>
      </trkpt>
      <trkpt lat="45.80669" lon="1.67244">
        <ele>442.9</ele>
        <time>2026-08-08T15:42:42.000Z</time>
      </trkpt>
      <trkpt lat="45.80674" lon="1.6724">
        <ele>443.7</ele>
        <time>2026-08-08T15:42:46.000Z</time>
      </trkpt>
      <trkpt lat="45.80676" lon="1.6724">
        <ele>443.8</ele>
        <time>2026-08-08T15:42:47.000Z</time>
      </trkpt>
      <trkpt lat="45.80677" lon="1.67239">
        <ele>444</ele>
        <time>2026-08-08T15:42:48.000Z</time>
      </trkpt>
      <trkpt lat="45.80679" lon="1.67238">
        <ele>444.2</ele>
        <time>2026-08-08T15:42:49.000Z</time>
      </trkpt>
      <trkpt lat="45.80681" lon="1.67231">
        <ele>445.2</ele>
        <time>2026-08-08T15:42:52.000Z</time>
      </trkpt>
      <trkpt lat="45.80685" lon="1.6723">
        <ele>445.5</ele>
        <time>2026-08-08T15:42:55.000Z</time>
      </trkpt>
      <trkpt lat="45.80688" lon="1.67229">
        <ele>445.8</ele>
        <time>2026-08-08T15:42:57.000Z</time>
      </trkpt>
      <trkpt lat="45.80689" lon="1.67224">
        <ele>446.5</ele>
        <time>2026-08-08T15:42:59.000Z</time>
      </trkpt>
      <trkpt lat="45.80691" lon="1.67224">
        <ele>446.7</ele>
        <time>2026-08-08T15:43:01.000Z</time>
      </trkpt>
      <trkpt lat="45.80693" lon="1.67223">
        <ele>446.8</ele>
        <time>2026-08-08T15:43:02.000Z</time>
      </trkpt>
      <trkpt lat="45.80694" lon="1.67223">
        <ele>446.9</ele>
        <time>2026-08-08T15:43:03.000Z</time>
      </trkpt>
      <trkpt lat="45.80695" lon="1.67218">
        <ele>447.3</ele>
        <time>2026-08-08T15:43:05.000Z</time>
      </trkpt>
      <trkpt lat="45.80698" lon="1.67217">
        <ele>447</ele>
        <time>2026-08-08T15:43:07.000Z</time>
      </trkpt>
      <trkpt lat="45.807" lon="1.67216">
        <ele>446.8</ele>
        <time>2026-08-08T15:43:08.000Z</time>
      </trkpt>
      <trkpt lat="45.80701" lon="1.67212">
        <ele>447.1</ele>
        <time>2026-08-08T15:43:10.000Z</time>
      </trkpt>
      <trkpt lat="45.80702" lon="1.6721">
        <ele>447.2</ele>
        <time>2026-08-08T15:43:11.000Z</time>
      </trkpt>
      <trkpt lat="45.80703" lon="1.67208">
        <ele>447.3</ele>
        <time>2026-08-08T15:43:12.000Z</time>
      </trkpt>
      <trkpt lat="45.80708" lon="1.67201">
        <ele>447.7</ele>
        <time>2026-08-08T15:43:17.000Z</time>
      </trkpt>
      <trkpt lat="45.80709" lon="1.67198">
        <ele>448</ele>
        <time>2026-08-08T15:43:18.000Z</time>
      </trkpt>
      <trkpt lat="45.8071" lon="1.67186">
        <ele>449</ele>
        <time>2026-08-08T15:43:24.000Z</time>
      </trkpt>
      <trkpt lat="45.80709" lon="1.67176">
        <ele>449.7</ele>
        <time>2026-08-08T15:43:29.000Z</time>
      </trkpt>
      <trkpt lat="45.8071" lon="1.67174">
        <ele>449.8</ele>
        <time>2026-08-08T15:43:30.000Z</time>
      </trkpt>
      <trkpt lat="45.8071" lon="1.67172">
        <ele>450</ele>
        <time>2026-08-08T15:43:31.000Z</time>
      </trkpt>
      <trkpt lat="45.80707" lon="1.67161">
        <ele>450.7</ele>
        <time>2026-08-08T15:43:38.000Z</time>
      </trkpt>
      <trkpt lat="45.80706" lon="1.6716">
        <ele>450.9</ele>
        <time>2026-08-08T15:43:39.000Z</time>
      </trkpt>
      <trkpt lat="45.80706" lon="1.67159">
        <ele>450.9</ele>
        <time>2026-08-08T15:43:40.000Z</time>
      </trkpt>
      <trkpt lat="45.80706" lon="1.67156">
        <ele>451</ele>
        <time>2026-08-08T15:43:44.000Z</time>
      </trkpt>
      <trkpt lat="45.80706" lon="1.67156">
        <ele>451</ele>
        <time>2026-08-08T15:43:45.000Z</time>
      </trkpt>
      <trkpt lat="45.80704" lon="1.67148">
        <ele>451.4</ele>
        <time>2026-08-08T15:43:49.000Z</time>
      </trkpt>
      <trkpt lat="45.80703" lon="1.67143">
        <ele>451.6</ele>
        <time>2026-08-08T15:43:52.000Z</time>
      </trkpt>
      <trkpt lat="45.80702" lon="1.67142">
        <ele>451.8</ele>
        <time>2026-08-08T15:43:53.000Z</time>
      </trkpt>
      <trkpt lat="45.80701" lon="1.6714">
        <ele>452</ele>
        <time>2026-08-08T15:43:54.000Z</time>
      </trkpt>
      <trkpt lat="45.80701" lon="1.67131">
        <ele>452.1</ele>
        <time>2026-08-08T15:43:58.000Z</time>
      </trkpt>
      <trkpt lat="45.807" lon="1.67125">
        <ele>452.3</ele>
        <time>2026-08-08T15:44:02.000Z</time>
      </trkpt>
      <trkpt lat="45.807" lon="1.6712">
        <ele>452.4</ele>
        <time>2026-08-08T15:44:05.000Z</time>
      </trkpt>
      <trkpt lat="45.807" lon="1.67104">
        <ele>453.1</ele>
        <time>2026-08-08T15:44:13.000Z</time>
      </trkpt>
      <trkpt lat="45.807" lon="1.67102">
        <ele>453.2</ele>
        <time>2026-08-08T15:44:14.000Z</time>
      </trkpt>
      <trkpt lat="45.80701" lon="1.67099">
        <ele>453.5</ele>
        <time>2026-08-08T15:44:21.000Z</time>
      </trkpt>
      <trkpt lat="45.80704" lon="1.6709">
        <ele>454.1</ele>
        <time>2026-08-08T15:44:27.000Z</time>
      </trkpt>
      <trkpt lat="45.80705" lon="1.67086">
        <ele>454.3</ele>
        <time>2026-08-08T15:44:29.000Z</time>
      </trkpt>
      <trkpt lat="45.8071" lon="1.67065">
        <ele>455.8</ele>
        <time>2026-08-08T15:44:39.000Z</time>
      </trkpt>
      <trkpt lat="45.80711" lon="1.67062">
        <ele>456</ele>
        <time>2026-08-08T15:44:41.000Z</time>
      </trkpt>
      <trkpt lat="45.80712" lon="1.67049">
        <ele>456.6</ele>
        <time>2026-08-08T15:44:48.000Z</time>
      </trkpt>
      <trkpt lat="45.80713" lon="1.67043">
        <ele>456.6</ele>
        <time>2026-08-08T15:44:51.000Z</time>
      </trkpt>
      <trkpt lat="45.80711" lon="1.67031">
        <ele>457.1</ele>
        <time>2026-08-08T15:44:56.000Z</time>
      </trkpt>
      <trkpt lat="45.80711" lon="1.67029">
        <ele>457.2</ele>
        <time>2026-08-08T15:44:57.000Z</time>
      </trkpt>
      <trkpt lat="45.8071" lon="1.67023">
        <ele>457.4</ele>
        <time>2026-08-08T15:45:01.000Z</time>
      </trkpt>
      <trkpt lat="45.80709" lon="1.67022">
        <ele>457.5</ele>
        <time>2026-08-08T15:45:02.000Z</time>
      </trkpt>
      <trkpt lat="45.80709" lon="1.67008">
        <ele>457.8</ele>
        <time>2026-08-08T15:45:10.000Z</time>
      </trkpt>
      <trkpt lat="45.80709" lon="1.67008">
        <ele>457.8</ele>
        <time>2026-08-08T15:45:11.000Z</time>
      </trkpt>
      <trkpt lat="45.80709" lon="1.67008">
        <ele>457.8</ele>
        <time>2026-08-08T15:45:12.000Z</time>
      </trkpt>
      <trkpt lat="45.80711" lon="1.67002">
        <ele>457.5</ele>
        <time>2026-08-08T15:46:18.000Z</time>
      </trkpt>
      <trkpt lat="45.80713" lon="1.66998">
        <ele>457.2</ele>
        <time>2026-08-08T15:46:19.000Z</time>
      </trkpt>
      <trkpt lat="45.80726" lon="1.66979">
        <ele>455.1</ele>
        <time>2026-08-08T15:46:24.000Z</time>
      </trkpt>
      <trkpt lat="45.80745" lon="1.66943">
        <ele>454.7</ele>
        <time>2026-08-08T15:46:29.000Z</time>
      </trkpt>
      <trkpt lat="45.80759" lon="1.66917">
        <ele>452.5</ele>
        <time>2026-08-08T15:46:32.000Z</time>
      </trkpt>
      <trkpt lat="45.80773" lon="1.66894">
        <ele>452.4</ele>
        <time>2026-08-08T15:46:35.000Z</time>
      </trkpt>
      <trkpt lat="45.80785" lon="1.66875">
        <ele>453.5</ele>
        <time>2026-08-08T15:46:38.000Z</time>
      </trkpt>
      <trkpt lat="45.80797" lon="1.66861">
        <ele>454.3</ele>
        <time>2026-08-08T15:46:41.000Z</time>
      </trkpt>
      <trkpt lat="45.80812" lon="1.66842">
        <ele>455.1</ele>
        <time>2026-08-08T15:46:47.000Z</time>
      </trkpt>
      <trkpt lat="45.80825" lon="1.6683">
        <ele>455.3</ele>
        <time>2026-08-08T15:46:53.000Z</time>
      </trkpt>
      <trkpt lat="45.8084" lon="1.66818">
        <ele>455.6</ele>
        <time>2026-08-08T15:47:00.000Z</time>
      </trkpt>
      <trkpt lat="45.8085" lon="1.66811">
        <ele>456.5</ele>
        <time>2026-08-08T15:47:05.000Z</time>
      </trkpt>
      <trkpt lat="45.80859" lon="1.66803">
        <ele>457.2</ele>
        <time>2026-08-08T15:47:10.000Z</time>
      </trkpt>
      <trkpt lat="45.80869" lon="1.66797">
        <ele>457.8</ele>
        <time>2026-08-08T15:47:16.000Z</time>
      </trkpt>
      <trkpt lat="45.80872" lon="1.66796">
        <ele>457.9</ele>
        <time>2026-08-08T15:47:18.000Z</time>
      </trkpt>
      <trkpt lat="45.80884" lon="1.66792">
        <ele>458.1</ele>
        <time>2026-08-08T15:47:25.000Z</time>
      </trkpt>
      <trkpt lat="45.80885" lon="1.66792">
        <ele>458.1</ele>
        <time>2026-08-08T15:47:26.000Z</time>
      </trkpt>
      <trkpt lat="45.80896" lon="1.66786">
        <ele>459</ele>
        <time>2026-08-08T15:47:33.000Z</time>
      </trkpt>
      <trkpt lat="45.80899" lon="1.66785">
        <ele>459.3</ele>
        <time>2026-08-08T15:47:35.000Z</time>
      </trkpt>
      <trkpt lat="45.80906" lon="1.66783">
        <ele>460</ele>
        <time>2026-08-08T15:47:40.000Z</time>
      </trkpt>
      <trkpt lat="45.80915" lon="1.66781">
        <ele>460.8</ele>
        <time>2026-08-08T15:47:46.000Z</time>
      </trkpt>
      <trkpt lat="45.80916" lon="1.66781">
        <ele>460.9</ele>
        <time>2026-08-08T15:47:47.000Z</time>
      </trkpt>
      <trkpt lat="45.80924" lon="1.66776">
        <ele>461.7</ele>
        <time>2026-08-08T15:47:53.000Z</time>
      </trkpt>
      <trkpt lat="45.80925" lon="1.66776">
        <ele>461.8</ele>
        <time>2026-08-08T15:47:54.000Z</time>
      </trkpt>
      <trkpt lat="45.80932" lon="1.66774">
        <ele>462.4</ele>
        <time>2026-08-08T15:47:59.000Z</time>
      </trkpt>
      <trkpt lat="45.80933" lon="1.66774">
        <ele>462.6</ele>
        <time>2026-08-08T15:48:00.000Z</time>
      </trkpt>
      <trkpt lat="45.80945" lon="1.6677">
        <ele>463.6</ele>
        <time>2026-08-08T15:48:08.000Z</time>
      </trkpt>
      <trkpt lat="45.80951" lon="1.66768">
        <ele>464.1</ele>
        <time>2026-08-08T15:48:12.000Z</time>
      </trkpt>
      <trkpt lat="45.80958" lon="1.66766">
        <ele>464.6</ele>
        <time>2026-08-08T15:48:16.000Z</time>
      </trkpt>
      <trkpt lat="45.80972" lon="1.66759">
        <ele>465.7</ele>
        <time>2026-08-08T15:48:25.000Z</time>
      </trkpt>
      <trkpt lat="45.80974" lon="1.66759">
        <ele>465.6</ele>
        <time>2026-08-08T15:48:26.000Z</time>
      </trkpt>
      <trkpt lat="45.80986" lon="1.66755">
        <ele>465.4</ele>
        <time>2026-08-08T15:48:34.000Z</time>
      </trkpt>
      <trkpt lat="45.80994" lon="1.66752">
        <ele>465.2</ele>
        <time>2026-08-08T15:48:39.000Z</time>
      </trkpt>
      <trkpt lat="45.80998" lon="1.66752">
        <ele>465.1</ele>
        <time>2026-08-08T15:48:42.000Z</time>
      </trkpt>
      <trkpt lat="45.80998" lon="1.66752">
        <ele>465.1</ele>
        <time>2026-08-08T15:48:43.000Z</time>
      </trkpt>
      <trkpt lat="45.81002" lon="1.66751">
        <ele>464.9</ele>
        <time>2026-08-08T15:49:57.000Z</time>
      </trkpt>
      <trkpt lat="45.81007" lon="1.66749">
        <ele>464.7</ele>
        <time>2026-08-08T15:49:59.000Z</time>
      </trkpt>
      <trkpt lat="45.81026" lon="1.66741">
        <ele>463.8</ele>
        <time>2026-08-08T15:50:04.000Z</time>
      </trkpt>
      <trkpt lat="45.81036" lon="1.66735">
        <ele>462.4</ele>
        <time>2026-08-08T15:50:06.000Z</time>
      </trkpt>
      <trkpt lat="45.81051" lon="1.6672">
        <ele>460.5</ele>
        <time>2026-08-08T15:50:09.000Z</time>
      </trkpt>
      <trkpt lat="45.81059" lon="1.66708">
        <ele>459.8</ele>
        <time>2026-08-08T15:50:11.000Z</time>
      </trkpt>
      <trkpt lat="45.8107" lon="1.66688">
        <ele>458.2</ele>
        <time>2026-08-08T15:50:14.000Z</time>
      </trkpt>
      <trkpt lat="45.8108" lon="1.66668">
        <ele>457.5</ele>
        <time>2026-08-08T15:50:17.000Z</time>
      </trkpt>
      <trkpt lat="45.81089" lon="1.6665">
        <ele>456.7</ele>
        <time>2026-08-08T15:50:20.000Z</time>
      </trkpt>
      <trkpt lat="45.81092" lon="1.66644">
        <ele>456.2</ele>
        <time>2026-08-08T15:50:21.000Z</time>
      </trkpt>
      <trkpt lat="45.81099" lon="1.66629">
        <ele>455.4</ele>
        <time>2026-08-08T15:50:25.000Z</time>
      </trkpt>
      <trkpt lat="45.81109" lon="1.66608">
        <ele>454.8</ele>
        <time>2026-08-08T15:50:30.000Z</time>
      </trkpt>
      <trkpt lat="45.8111" lon="1.66604">
        <ele>454.5</ele>
        <time>2026-08-08T15:50:31.000Z</time>
      </trkpt>
      <trkpt lat="45.81121" lon="1.66583">
        <ele>452</ele>
        <time>2026-08-08T15:50:35.000Z</time>
      </trkpt>
      <trkpt lat="45.81124" lon="1.66576">
        <ele>451.5</ele>
        <time>2026-08-08T15:50:36.000Z</time>
      </trkpt>
      <trkpt lat="45.8113" lon="1.66565">
        <ele>450.6</ele>
        <time>2026-08-08T15:50:38.000Z</time>
      </trkpt>
      <trkpt lat="45.8114" lon="1.66544">
        <ele>449.3</ele>
        <time>2026-08-08T15:50:41.000Z</time>
      </trkpt>
      <trkpt lat="45.81143" lon="1.66538">
        <ele>448.6</ele>
        <time>2026-08-08T15:50:42.000Z</time>
      </trkpt>
      <trkpt lat="45.81157" lon="1.66512">
        <ele>446.7</ele>
        <time>2026-08-08T15:50:46.000Z</time>
      </trkpt>
      <trkpt lat="45.8116" lon="1.66505">
        <ele>446.6</ele>
        <time>2026-08-08T15:50:47.000Z</time>
      </trkpt>
      <trkpt lat="45.81166" lon="1.66492">
        <ele>445.8</ele>
        <time>2026-08-08T15:50:49.000Z</time>
      </trkpt>
      <trkpt lat="45.8117" lon="1.66485">
        <ele>445</ele>
        <time>2026-08-08T15:50:50.000Z</time>
      </trkpt>
      <trkpt lat="45.81177" lon="1.66469">
        <ele>444</ele>
        <time>2026-08-08T15:50:52.000Z</time>
      </trkpt>
      <trkpt lat="45.81186" lon="1.66448">
        <ele>443.2</ele>
        <time>2026-08-08T15:50:55.000Z</time>
      </trkpt>
      <trkpt lat="45.81189" lon="1.66443">
        <ele>443</ele>
        <time>2026-08-08T15:50:56.000Z</time>
      </trkpt>
      <trkpt lat="45.81194" lon="1.66426">
        <ele>442.5</ele>
        <time>2026-08-08T15:50:58.000Z</time>
      </trkpt>
      <trkpt lat="45.81199" lon="1.66405">
        <ele>441.4</ele>
        <time>2026-08-08T15:51:01.000Z</time>
      </trkpt>
      <trkpt lat="45.81202" lon="1.66391">
        <ele>440.7</ele>
        <time>2026-08-08T15:51:03.000Z</time>
      </trkpt>
      <trkpt lat="45.81205" lon="1.66377">
        <ele>440.6</ele>
        <time>2026-08-08T15:51:05.000Z</time>
      </trkpt>
      <trkpt lat="45.81209" lon="1.66359">
        <ele>440.4</ele>
        <time>2026-08-08T15:51:08.000Z</time>
      </trkpt>
      <trkpt lat="45.8121" lon="1.66353">
        <ele>440.1</ele>
        <time>2026-08-08T15:51:09.000Z</time>
      </trkpt>
      <trkpt lat="45.81213" lon="1.66335">
        <ele>439.3</ele>
        <time>2026-08-08T15:51:12.000Z</time>
      </trkpt>
      <trkpt lat="45.81217" lon="1.66316">
        <ele>438.2</ele>
        <time>2026-08-08T15:51:15.000Z</time>
      </trkpt>
      <trkpt lat="45.8122" lon="1.66301">
        <ele>437.3</ele>
        <time>2026-08-08T15:51:17.000Z</time>
      </trkpt>
      <trkpt lat="45.81224" lon="1.66278">
        <ele>435.6</ele>
        <time>2026-08-08T15:51:20.000Z</time>
      </trkpt>
      <trkpt lat="45.81229" lon="1.66242">
        <ele>432.2</ele>
        <time>2026-08-08T15:51:24.000Z</time>
      </trkpt>
      <trkpt lat="45.8123" lon="1.66222">
        <ele>431.1</ele>
        <time>2026-08-08T15:51:26.000Z</time>
      </trkpt>
      <trkpt lat="45.81226" lon="1.66191">
        <ele>428.9</ele>
        <time>2026-08-08T15:51:29.000Z</time>
      </trkpt>
      <trkpt lat="45.81222" lon="1.66172">
        <ele>428.4</ele>
        <time>2026-08-08T15:51:31.000Z</time>
      </trkpt>
      <trkpt lat="45.81219" lon="1.66163">
        <ele>428</ele>
        <time>2026-08-08T15:51:32.000Z</time>
      </trkpt>
      <trkpt lat="45.81211" lon="1.66147">
        <ele>426.6</ele>
        <time>2026-08-08T15:51:34.000Z</time>
      </trkpt>
      <trkpt lat="45.81206" lon="1.6614">
        <ele>425.9</ele>
        <time>2026-08-08T15:51:35.000Z</time>
      </trkpt>
      <trkpt lat="45.81201" lon="1.66133">
        <ele>425.3</ele>
        <time>2026-08-08T15:51:36.000Z</time>
      </trkpt>
      <trkpt lat="45.81195" lon="1.66127">
        <ele>424.8</ele>
        <time>2026-08-08T15:51:37.000Z</time>
      </trkpt>
      <trkpt lat="45.81187" lon="1.66121">
        <ele>424.4</ele>
        <time>2026-08-08T15:51:38.000Z</time>
      </trkpt>
      <trkpt lat="45.81182" lon="1.66118">
        <ele>424.2</ele>
        <time>2026-08-08T15:51:39.000Z</time>
      </trkpt>
      <trkpt lat="45.81175" lon="1.66113">
        <ele>423.8</ele>
        <time>2026-08-08T15:51:40.000Z</time>
      </trkpt>
      <trkpt lat="45.81155" lon="1.66099">
        <ele>422.1</ele>
        <time>2026-08-08T15:51:43.000Z</time>
      </trkpt>
      <trkpt lat="45.81141" lon="1.66088">
        <ele>421.5</ele>
        <time>2026-08-08T15:51:45.000Z</time>
      </trkpt>
      <trkpt lat="45.81134" lon="1.66082">
        <ele>421.1</ele>
        <time>2026-08-08T15:51:46.000Z</time>
      </trkpt>
      <trkpt lat="45.81128" lon="1.66076">
        <ele>420.6</ele>
        <time>2026-08-08T15:51:47.000Z</time>
      </trkpt>
      <trkpt lat="45.81115" lon="1.66062">
        <ele>419.6</ele>
        <time>2026-08-08T15:51:49.000Z</time>
      </trkpt>
      <trkpt lat="45.81095" lon="1.66043">
        <ele>418.8</ele>
        <time>2026-08-08T15:51:52.000Z</time>
      </trkpt>
      <trkpt lat="45.81089" lon="1.66036">
        <ele>418.2</ele>
        <time>2026-08-08T15:51:53.000Z</time>
      </trkpt>
      <trkpt lat="45.8107" lon="1.66018">
        <ele>415.7</ele>
        <time>2026-08-08T15:51:56.000Z</time>
      </trkpt>
      <trkpt lat="45.8106" lon="1.66008">
        <ele>414.7</ele>
        <time>2026-08-08T15:51:58.000Z</time>
      </trkpt>
      <trkpt lat="45.81056" lon="1.66003">
        <ele>414.3</ele>
        <time>2026-08-08T15:51:59.000Z</time>
      </trkpt>
      <trkpt lat="45.81054" lon="1.65998">
        <ele>414</ele>
        <time>2026-08-08T15:52:00.000Z</time>
      </trkpt>
      <trkpt lat="45.81054" lon="1.65992">
        <ele>413.8</ele>
        <time>2026-08-08T15:52:01.000Z</time>
      </trkpt>
      <trkpt lat="45.81055" lon="1.65986">
        <ele>413.5</ele>
        <time>2026-08-08T15:52:02.000Z</time>
      </trkpt>
      <trkpt lat="45.81059" lon="1.65981">
        <ele>413</ele>
        <time>2026-08-08T15:52:03.000Z</time>
      </trkpt>
      <trkpt lat="45.81068" lon="1.65976">
        <ele>411.9</ele>
        <time>2026-08-08T15:52:05.000Z</time>
      </trkpt>
      <trkpt lat="45.81079" lon="1.65976">
        <ele>410.9</ele>
        <time>2026-08-08T15:52:07.000Z</time>
      </trkpt>
      <trkpt lat="45.81095" lon="1.6598">
        <ele>409.8</ele>
        <time>2026-08-08T15:52:10.000Z</time>
      </trkpt>
      <trkpt lat="45.81106" lon="1.65983">
        <ele>409.3</ele>
        <time>2026-08-08T15:52:12.000Z</time>
      </trkpt>
      <trkpt lat="45.81111" lon="1.65984">
        <ele>409</ele>
        <time>2026-08-08T15:52:13.000Z</time>
      </trkpt>
      <trkpt lat="45.81121" lon="1.65986">
        <ele>408.1</ele>
        <time>2026-08-08T15:52:15.000Z</time>
      </trkpt>
      <trkpt lat="45.81145" lon="1.6599">
        <ele>406</ele>
        <time>2026-08-08T15:52:19.000Z</time>
      </trkpt>
      <trkpt lat="45.81151" lon="1.65991">
        <ele>405.4</ele>
        <time>2026-08-08T15:52:20.000Z</time>
      </trkpt>
      <trkpt lat="45.81163" lon="1.65993">
        <ele>404.3</ele>
        <time>2026-08-08T15:52:22.000Z</time>
      </trkpt>
      <trkpt lat="45.81191" lon="1.65997">
        <ele>402.8</ele>
        <time>2026-08-08T15:52:26.000Z</time>
      </trkpt>
      <trkpt lat="45.81212" lon="1.66002">
        <ele>401.3</ele>
        <time>2026-08-08T15:52:29.000Z</time>
      </trkpt>
      <trkpt lat="45.81226" lon="1.66006">
        <ele>400.3</ele>
        <time>2026-08-08T15:52:31.000Z</time>
      </trkpt>
      <trkpt lat="45.81233" lon="1.66009">
        <ele>399.8</ele>
        <time>2026-08-08T15:52:32.000Z</time>
      </trkpt>
      <trkpt lat="45.81253" lon="1.66021">
        <ele>398.9</ele>
        <time>2026-08-08T15:52:35.000Z</time>
      </trkpt>
      <trkpt lat="45.81259" lon="1.66026">
        <ele>398.5</ele>
        <time>2026-08-08T15:52:36.000Z</time>
      </trkpt>
      <trkpt lat="45.81271" lon="1.66035">
        <ele>398.2</ele>
        <time>2026-08-08T15:52:38.000Z</time>
      </trkpt>
      <trkpt lat="45.81288" lon="1.66048">
        <ele>397.9</ele>
        <time>2026-08-08T15:52:41.000Z</time>
      </trkpt>
      <trkpt lat="45.81294" lon="1.66051">
        <ele>397.4</ele>
        <time>2026-08-08T15:52:42.000Z</time>
      </trkpt>
      <trkpt lat="45.81299" lon="1.66051">
        <ele>396.6</ele>
        <time>2026-08-08T15:52:43.000Z</time>
      </trkpt>
      <trkpt lat="45.81305" lon="1.66049">
        <ele>395.4</ele>
        <time>2026-08-08T15:52:44.000Z</time>
      </trkpt>
      <trkpt lat="45.81314" lon="1.66039">
        <ele>392.5</ele>
        <time>2026-08-08T15:52:46.000Z</time>
      </trkpt>
      <trkpt lat="45.81315" lon="1.66031">
        <ele>391.3</ele>
        <time>2026-08-08T15:52:47.000Z</time>
      </trkpt>
      <trkpt lat="45.81315" lon="1.66022">
        <ele>390.5</ele>
        <time>2026-08-08T15:52:48.000Z</time>
      </trkpt>
      <trkpt lat="45.8131" lon="1.66003">
        <ele>390.1</ele>
        <time>2026-08-08T15:52:50.000Z</time>
      </trkpt>
      <trkpt lat="45.81306" lon="1.65994">
        <ele>389.7</ele>
        <time>2026-08-08T15:52:51.000Z</time>
      </trkpt>
      <trkpt lat="45.81302" lon="1.65985">
        <ele>388.9</ele>
        <time>2026-08-08T15:52:52.000Z</time>
      </trkpt>
      <trkpt lat="45.81289" lon="1.65962">
        <ele>387.6</ele>
        <time>2026-08-08T15:52:55.000Z</time>
      </trkpt>
      <trkpt lat="45.81285" lon="1.65955">
        <ele>387.5</ele>
        <time>2026-08-08T15:52:56.000Z</time>
      </trkpt>
      <trkpt lat="45.8128" lon="1.65949">
        <ele>387.4</ele>
        <time>2026-08-08T15:52:57.000Z</time>
      </trkpt>
      <trkpt lat="45.81275" lon="1.65944">
        <ele>387.2</ele>
        <time>2026-08-08T15:52:58.000Z</time>
      </trkpt>
      <trkpt lat="45.81265" lon="1.65935">
        <ele>386.4</ele>
        <time>2026-08-08T15:53:00.000Z</time>
      </trkpt>
      <trkpt lat="45.81254" lon="1.65926">
        <ele>385.4</ele>
        <time>2026-08-08T15:53:02.000Z</time>
      </trkpt>
      <trkpt lat="45.81249" lon="1.65921">
        <ele>384.8</ele>
        <time>2026-08-08T15:53:03.000Z</time>
      </trkpt>
      <trkpt lat="45.8124" lon="1.65908">
        <ele>383.9</ele>
        <time>2026-08-08T15:53:05.000Z</time>
      </trkpt>
      <trkpt lat="45.81236" lon="1.65899">
        <ele>383.5</ele>
        <time>2026-08-08T15:53:06.000Z</time>
      </trkpt>
      <trkpt lat="45.81229" lon="1.65873">
        <ele>382.6</ele>
        <time>2026-08-08T15:53:09.000Z</time>
      </trkpt>
      <trkpt lat="45.81227" lon="1.65864">
        <ele>382.4</ele>
        <time>2026-08-08T15:53:10.000Z</time>
      </trkpt>
      <trkpt lat="45.81225" lon="1.65856">
        <ele>382</ele>
        <time>2026-08-08T15:53:11.000Z</time>
      </trkpt>
      <trkpt lat="45.81221" lon="1.65839">
        <ele>380.7</ele>
        <time>2026-08-08T15:53:13.000Z</time>
      </trkpt>
      <trkpt lat="45.81209" lon="1.65801">
        <ele>378.6</ele>
        <time>2026-08-08T15:53:17.000Z</time>
      </trkpt>
      <trkpt lat="45.812" lon="1.65773">
        <ele>377.1</ele>
        <time>2026-08-08T15:53:20.000Z</time>
      </trkpt>
      <trkpt lat="45.81195" lon="1.65756">
        <ele>375.6</ele>
        <time>2026-08-08T15:53:22.000Z</time>
      </trkpt>
      <trkpt lat="45.81191" lon="1.6574">
        <ele>374.5</ele>
        <time>2026-08-08T15:53:24.000Z</time>
      </trkpt>
      <trkpt lat="45.8119" lon="1.65733">
        <ele>374</ele>
        <time>2026-08-08T15:53:25.000Z</time>
      </trkpt>
      <trkpt lat="45.81189" lon="1.65727">
        <ele>373.6</ele>
        <time>2026-08-08T15:53:26.000Z</time>
      </trkpt>
      <trkpt lat="45.81186" lon="1.65711">
        <ele>372.6</ele>
        <time>2026-08-08T15:53:29.000Z</time>
      </trkpt>
      <trkpt lat="45.81185" lon="1.65701">
        <ele>372.1</ele>
        <time>2026-08-08T15:53:31.000Z</time>
      </trkpt>
      <trkpt lat="45.81184" lon="1.65692">
        <ele>371.5</ele>
        <time>2026-08-08T15:53:33.000Z</time>
      </trkpt>
      <trkpt lat="45.81182" lon="1.65676">
        <ele>370.6</ele>
        <time>2026-08-08T15:53:36.000Z</time>
      </trkpt>
      <trkpt lat="45.81176" lon="1.65657">
        <ele>370</ele>
        <time>2026-08-08T15:53:40.000Z</time>
      </trkpt>
      <trkpt lat="45.81173" lon="1.65644">
        <ele>369.7</ele>
        <time>2026-08-08T15:53:43.000Z</time>
      </trkpt>
      <trkpt lat="45.81173" lon="1.65639">
        <ele>369.6</ele>
        <time>2026-08-08T15:53:44.000Z</time>
      </trkpt>
      <trkpt lat="45.81167" lon="1.65606">
        <ele>368.8</ele>
        <time>2026-08-08T15:53:50.000Z</time>
      </trkpt>
      <trkpt lat="45.81164" lon="1.65589">
        <ele>368.4</ele>
        <time>2026-08-08T15:53:53.000Z</time>
      </trkpt>
      <trkpt lat="45.81162" lon="1.65566">
        <ele>368.4</ele>
        <time>2026-08-08T15:53:57.000Z</time>
      </trkpt>
      <trkpt lat="45.81155" lon="1.65523">
        <ele>369.7</ele>
        <time>2026-08-08T15:54:05.000Z</time>
      </trkpt>
      <trkpt lat="45.81144" lon="1.65489">
        <ele>369</ele>
        <time>2026-08-08T15:54:12.000Z</time>
      </trkpt>
      <trkpt lat="45.81131" lon="1.65473">
        <ele>368.7</ele>
        <time>2026-08-08T15:54:16.000Z</time>
      </trkpt>
      <trkpt lat="45.81123" lon="1.65467">
        <ele>368.2</ele>
        <time>2026-08-08T15:54:18.000Z</time>
      </trkpt>
      <trkpt lat="45.81104" lon="1.65459">
        <ele>367.4</ele>
        <time>2026-08-08T15:54:22.000Z</time>
      </trkpt>
      <trkpt lat="45.81099" lon="1.65458">
        <ele>367.2</ele>
        <time>2026-08-08T15:54:23.000Z</time>
      </trkpt>
      <trkpt lat="45.81057" lon="1.65449">
        <ele>366.4</ele>
        <time>2026-08-08T15:54:31.000Z</time>
      </trkpt>
      <trkpt lat="45.81052" lon="1.65446">
        <ele>366.2</ele>
        <time>2026-08-08T15:54:32.000Z</time>
      </trkpt>
      <trkpt lat="45.81047" lon="1.65443">
        <ele>365.8</ele>
        <time>2026-08-08T15:54:33.000Z</time>
      </trkpt>
      <trkpt lat="45.81031" lon="1.65432">
        <ele>365</ele>
        <time>2026-08-08T15:54:36.000Z</time>
      </trkpt>
      <trkpt lat="45.81017" lon="1.65416">
        <ele>364.4</ele>
        <time>2026-08-08T15:54:39.000Z</time>
      </trkpt>
      <trkpt lat="45.81" lon="1.65393">
        <ele>363.3</ele>
        <time>2026-08-08T15:54:43.000Z</time>
      </trkpt>
      <trkpt lat="45.80991" lon="1.65369">
        <ele>363.1</ele>
        <time>2026-08-08T15:54:46.000Z</time>
      </trkpt>
      <trkpt lat="45.8099" lon="1.65359">
        <ele>363</ele>
        <time>2026-08-08T15:54:47.000Z</time>
      </trkpt>
      <trkpt lat="45.80989" lon="1.6535">
        <ele>362.5</ele>
        <time>2026-08-08T15:54:48.000Z</time>
      </trkpt>
      <trkpt lat="45.80991" lon="1.65331">
        <ele>361.4</ele>
        <time>2026-08-08T15:54:50.000Z</time>
      </trkpt>
      <trkpt lat="45.80993" lon="1.65322">
        <ele>361.3</ele>
        <time>2026-08-08T15:54:51.000Z</time>
      </trkpt>
      <trkpt lat="45.80996" lon="1.65313">
        <ele>361.2</ele>
        <time>2026-08-08T15:54:52.000Z</time>
      </trkpt>
      <trkpt lat="45.81003" lon="1.65296">
        <ele>360.9</ele>
        <time>2026-08-08T15:54:54.000Z</time>
      </trkpt>
      <trkpt lat="45.81008" lon="1.65288">
        <ele>360.5</ele>
        <time>2026-08-08T15:54:55.000Z</time>
      </trkpt>
      <trkpt lat="45.81017" lon="1.65273">
        <ele>360</ele>
        <time>2026-08-08T15:54:57.000Z</time>
      </trkpt>
      <trkpt lat="45.81027" lon="1.65249">
        <ele>359.2</ele>
        <time>2026-08-08T15:55:00.000Z</time>
      </trkpt>
      <trkpt lat="45.8103" lon="1.6524">
        <ele>358.9</ele>
        <time>2026-08-08T15:55:01.000Z</time>
      </trkpt>
      <trkpt lat="45.81032" lon="1.65231">
        <ele>358.6</ele>
        <time>2026-08-08T15:55:02.000Z</time>
      </trkpt>
      <trkpt lat="45.81043" lon="1.65194">
        <ele>357.7</ele>
        <time>2026-08-08T15:55:06.000Z</time>
      </trkpt>
      <trkpt lat="45.8105" lon="1.65177">
        <ele>357.4</ele>
        <time>2026-08-08T15:55:08.000Z</time>
      </trkpt>
      <trkpt lat="45.81053" lon="1.6517">
        <ele>357.3</ele>
        <time>2026-08-08T15:55:09.000Z</time>
      </trkpt>
      <trkpt lat="45.81064" lon="1.65147">
        <ele>355.6</ele>
        <time>2026-08-08T15:55:12.000Z</time>
      </trkpt>
      <trkpt lat="45.81068" lon="1.6513">
        <ele>355.4</ele>
        <time>2026-08-08T15:55:14.000Z</time>
      </trkpt>
      <trkpt lat="45.81068" lon="1.65121">
        <ele>355.9</ele>
        <time>2026-08-08T15:55:15.000Z</time>
      </trkpt>
      <trkpt lat="45.81068" lon="1.65103">
        <ele>356.8</ele>
        <time>2026-08-08T15:55:17.000Z</time>
      </trkpt>
      <trkpt lat="45.81066" lon="1.65094">
        <ele>356.9</ele>
        <time>2026-08-08T15:55:18.000Z</time>
      </trkpt>
      <trkpt lat="45.81062" lon="1.65077">
        <ele>356.9</ele>
        <time>2026-08-08T15:55:20.000Z</time>
      </trkpt>
      <trkpt lat="45.81056" lon="1.65061">
        <ele>356.4</ele>
        <time>2026-08-08T15:55:22.000Z</time>
      </trkpt>
      <trkpt lat="45.81053" lon="1.65053">
        <ele>356.2</ele>
        <time>2026-08-08T15:55:23.000Z</time>
      </trkpt>
      <trkpt lat="45.8103" lon="1.6501">
        <ele>354.6</ele>
        <time>2026-08-08T15:55:29.000Z</time>
      </trkpt>
      <trkpt lat="45.81027" lon="1.65003">
        <ele>354.4</ele>
        <time>2026-08-08T15:55:30.000Z</time>
      </trkpt>
      <trkpt lat="45.81013" lon="1.64976">
        <ele>352.7</ele>
        <time>2026-08-08T15:55:34.000Z</time>
      </trkpt>
      <trkpt lat="45.81" lon="1.6495">
        <ele>353.5</ele>
        <time>2026-08-08T15:55:38.000Z</time>
      </trkpt>
      <trkpt lat="45.80986" lon="1.64922">
        <ele>352.7</ele>
        <time>2026-08-08T15:55:43.000Z</time>
      </trkpt>
      <trkpt lat="45.80983" lon="1.64917">
        <ele>352.6</ele>
        <time>2026-08-08T15:55:44.000Z</time>
      </trkpt>
      <trkpt lat="45.80976" lon="1.64906">
        <ele>352.6</ele>
        <time>2026-08-08T15:55:46.000Z</time>
      </trkpt>
      <trkpt lat="45.80967" lon="1.64898">
        <ele>352.5</ele>
        <time>2026-08-08T15:55:48.000Z</time>
      </trkpt>
      <trkpt lat="45.8095" lon="1.64885">
        <ele>350.7</ele>
        <time>2026-08-08T15:55:52.000Z</time>
      </trkpt>
      <trkpt lat="45.80944" lon="1.64881">
        <ele>350.2</ele>
        <time>2026-08-08T15:55:53.000Z</time>
      </trkpt>
      <trkpt lat="45.80939" lon="1.64875">
        <ele>349.9</ele>
        <time>2026-08-08T15:55:54.000Z</time>
      </trkpt>
      <trkpt lat="45.80934" lon="1.64869">
        <ele>349.4</ele>
        <time>2026-08-08T15:55:55.000Z</time>
      </trkpt>
      <trkpt lat="45.80923" lon="1.64846">
        <ele>349.4</ele>
        <time>2026-08-08T15:55:58.000Z</time>
      </trkpt>
      <trkpt lat="45.80915" lon="1.64816">
        <ele>349.6</ele>
        <time>2026-08-08T15:56:02.000Z</time>
      </trkpt>
      <trkpt lat="45.80911" lon="1.64803">
        <ele>349.5</ele>
        <time>2026-08-08T15:56:04.000Z</time>
      </trkpt>
      <trkpt lat="45.80901" lon="1.64772">
        <ele>348.7</ele>
        <time>2026-08-08T15:56:08.000Z</time>
      </trkpt>
      <trkpt lat="45.80898" lon="1.64765">
        <ele>348.5</ele>
        <time>2026-08-08T15:56:09.000Z</time>
      </trkpt>
      <trkpt lat="45.80894" lon="1.64757">
        <ele>348.4</ele>
        <time>2026-08-08T15:56:10.000Z</time>
      </trkpt>
      <trkpt lat="45.80891" lon="1.64741">
        <ele>347.7</ele>
        <time>2026-08-08T15:56:12.000Z</time>
      </trkpt>
      <trkpt lat="45.80881" lon="1.64713">
        <ele>348.5</ele>
        <time>2026-08-08T15:56:15.000Z</time>
      </trkpt>
      <trkpt lat="45.80879" lon="1.64704">
        <ele>348</ele>
        <time>2026-08-08T15:56:16.000Z</time>
      </trkpt>
      <trkpt lat="45.80878" lon="1.64695">
        <ele>347.4</ele>
        <time>2026-08-08T15:56:17.000Z</time>
      </trkpt>
      <trkpt lat="45.80879" lon="1.64677">
        <ele>346.8</ele>
        <time>2026-08-08T15:56:19.000Z</time>
      </trkpt>
      <trkpt lat="45.80885" lon="1.64659">
        <ele>343.3</ele>
        <time>2026-08-08T15:56:21.000Z</time>
      </trkpt>
      <trkpt lat="45.80887" lon="1.6465">
        <ele>342.2</ele>
        <time>2026-08-08T15:56:22.000Z</time>
      </trkpt>
      <trkpt lat="45.80886" lon="1.64613">
        <ele>342.4</ele>
        <time>2026-08-08T15:56:26.000Z</time>
      </trkpt>
      <trkpt lat="45.80883" lon="1.64576">
        <ele>342.4</ele>
        <time>2026-08-08T15:56:30.000Z</time>
      </trkpt>
      <trkpt lat="45.80883" lon="1.64566">
        <ele>341.3</ele>
        <time>2026-08-08T15:56:31.000Z</time>
      </trkpt>
      <trkpt lat="45.80883" lon="1.64559">
        <ele>340.4</ele>
        <time>2026-08-08T15:56:32.000Z</time>
      </trkpt>
      <trkpt lat="45.80882" lon="1.64551">
        <ele>339.8</ele>
        <time>2026-08-08T15:56:33.000Z</time>
      </trkpt>
      <trkpt lat="45.80873" lon="1.64525">
        <ele>339.7</ele>
        <time>2026-08-08T15:56:36.000Z</time>
      </trkpt>
      <trkpt lat="45.8087" lon="1.64516">
        <ele>340.2</ele>
        <time>2026-08-08T15:56:37.000Z</time>
      </trkpt>
      <trkpt lat="45.8086" lon="1.64479">
        <ele>342.9</ele>
        <time>2026-08-08T15:56:41.000Z</time>
      </trkpt>
      <trkpt lat="45.80859" lon="1.64471">
        <ele>343.2</ele>
        <time>2026-08-08T15:56:42.000Z</time>
      </trkpt>
      <trkpt lat="45.80855" lon="1.64454">
        <ele>342.7</ele>
        <time>2026-08-08T15:56:44.000Z</time>
      </trkpt>
      <trkpt lat="45.80851" lon="1.64439">
        <ele>342.2</ele>
        <time>2026-08-08T15:56:46.000Z</time>
      </trkpt>
      <trkpt lat="45.80848" lon="1.64431">
        <ele>342.3</ele>
        <time>2026-08-08T15:56:47.000Z</time>
      </trkpt>
      <trkpt lat="45.80847" lon="1.64424">
        <ele>341.5</ele>
        <time>2026-08-08T15:56:48.000Z</time>
      </trkpt>
      <trkpt lat="45.80842" lon="1.64396">
        <ele>340.1</ele>
        <time>2026-08-08T15:56:51.000Z</time>
      </trkpt>
      <trkpt lat="45.8084" lon="1.64384">
        <ele>340</ele>
        <time>2026-08-08T15:56:52.000Z</time>
      </trkpt>
      <trkpt lat="45.80838" lon="1.64347">
        <ele>341.1</ele>
        <time>2026-08-08T15:56:56.000Z</time>
      </trkpt>
      <trkpt lat="45.80839" lon="1.6434">
        <ele>340.4</ele>
        <time>2026-08-08T15:56:57.000Z</time>
      </trkpt>
      <trkpt lat="45.80839" lon="1.64329">
        <ele>340</ele>
        <time>2026-08-08T15:56:58.000Z</time>
      </trkpt>
      <trkpt lat="45.80831" lon="1.64289">
        <ele>339.2</ele>
        <time>2026-08-08T15:57:03.000Z</time>
      </trkpt>
      <trkpt lat="45.8083" lon="1.64281">
        <ele>339.1</ele>
        <time>2026-08-08T15:57:04.000Z</time>
      </trkpt>
      <trkpt lat="45.80818" lon="1.64229">
        <ele>337</ele>
        <time>2026-08-08T15:57:10.000Z</time>
      </trkpt>
      <trkpt lat="45.80811" lon="1.64204">
        <ele>337.7</ele>
        <time>2026-08-08T15:57:13.000Z</time>
      </trkpt>
      <trkpt lat="45.80798" lon="1.64149">
        <ele>335.9</ele>
        <time>2026-08-08T15:57:19.000Z</time>
      </trkpt>
      <trkpt lat="45.80795" lon="1.64139">
        <ele>335.9</ele>
        <time>2026-08-08T15:57:20.000Z</time>
      </trkpt>
      <trkpt lat="45.80775" lon="1.64083">
        <ele>336.6</ele>
        <time>2026-08-08T15:57:26.000Z</time>
      </trkpt>
      <trkpt lat="45.80772" lon="1.64076">
        <ele>336.7</ele>
        <time>2026-08-08T15:57:27.000Z</time>
      </trkpt>
      <trkpt lat="45.8075" lon="1.64027">
        <ele>336</ele>
        <time>2026-08-08T15:57:33.000Z</time>
      </trkpt>
      <trkpt lat="45.80738" lon="1.64006">
        <ele>336</ele>
        <time>2026-08-08T15:57:36.000Z</time>
      </trkpt>
      <trkpt lat="45.80729" lon="1.63993">
        <ele>335.7</ele>
        <time>2026-08-08T15:57:38.000Z</time>
      </trkpt>
      <trkpt lat="45.80701" lon="1.63959">
        <ele>334.9</ele>
        <time>2026-08-08T15:57:44.000Z</time>
      </trkpt>
      <trkpt lat="45.80694" lon="1.63955">
        <ele>335.2</ele>
        <time>2026-08-08T15:57:45.000Z</time>
      </trkpt>
      <trkpt lat="45.8068" lon="1.63948">
        <ele>334</ele>
        <time>2026-08-08T15:57:47.000Z</time>
      </trkpt>
      <trkpt lat="45.80663" lon="1.63935">
        <ele>332.4</ele>
        <time>2026-08-08T15:57:50.000Z</time>
      </trkpt>
      <trkpt lat="45.80657" lon="1.63929">
        <ele>332.3</ele>
        <time>2026-08-08T15:57:51.000Z</time>
      </trkpt>
      <trkpt lat="45.80646" lon="1.63916">
        <ele>332.5</ele>
        <time>2026-08-08T15:57:53.000Z</time>
      </trkpt>
      <trkpt lat="45.80643" lon="1.63911">
        <ele>332.7</ele>
        <time>2026-08-08T15:57:54.000Z</time>
      </trkpt>
      <trkpt lat="45.80639" lon="1.63904">
        <ele>333</ele>
        <time>2026-08-08T15:57:55.000Z</time>
      </trkpt>
      <trkpt lat="45.8063" lon="1.6388">
        <ele>333.6</ele>
        <time>2026-08-08T15:57:58.000Z</time>
      </trkpt>
      <trkpt lat="45.80622" lon="1.63843">
        <ele>334</ele>
        <time>2026-08-08T15:58:04.000Z</time>
      </trkpt>
      <trkpt lat="45.80616" lon="1.63815">
        <ele>333.8</ele>
        <time>2026-08-08T15:58:10.000Z</time>
      </trkpt>
      <trkpt lat="45.80605" lon="1.63792">
        <ele>334.2</ele>
        <time>2026-08-08T15:58:16.000Z</time>
      </trkpt>
      <trkpt lat="45.80584" lon="1.63772">
        <ele>335.3</ele>
        <time>2026-08-08T15:58:24.000Z</time>
      </trkpt>
      <trkpt lat="45.80568" lon="1.63763">
        <ele>335.5</ele>
        <time>2026-08-08T15:58:30.000Z</time>
      </trkpt>
      <trkpt lat="45.80552" lon="1.63754">
        <ele>335.6</ele>
        <time>2026-08-08T15:58:36.000Z</time>
      </trkpt>
      <trkpt lat="45.80534" lon="1.63743">
        <ele>336.1</ele>
        <time>2026-08-08T15:58:43.000Z</time>
      </trkpt>
      <trkpt lat="45.80514" lon="1.63735">
        <ele>336.7</ele>
        <time>2026-08-08T15:58:51.000Z</time>
      </trkpt>
      <trkpt lat="45.80497" lon="1.63733">
        <ele>337.2</ele>
        <time>2026-08-08T15:58:58.000Z</time>
      </trkpt>
      <trkpt lat="45.80484" lon="1.63732">
        <ele>337.4</ele>
        <time>2026-08-08T15:59:04.000Z</time>
      </trkpt>
      <trkpt lat="45.80466" lon="1.63732">
        <ele>337.9</ele>
        <time>2026-08-08T15:59:11.000Z</time>
      </trkpt>
      <trkpt lat="45.80444" lon="1.63727">
        <ele>338.2</ele>
        <time>2026-08-08T15:59:19.000Z</time>
      </trkpt>
      <trkpt lat="45.80428" lon="1.63718">
        <ele>338.4</ele>
        <time>2026-08-08T15:59:26.000Z</time>
      </trkpt>
      <trkpt lat="45.80418" lon="1.63709">
        <ele>338.4</ele>
        <time>2026-08-08T15:59:31.000Z</time>
      </trkpt>
      <trkpt lat="45.80412" lon="1.63706">
        <ele>338.6</ele>
        <time>2026-08-08T15:59:34.000Z</time>
      </trkpt>
      <trkpt lat="45.80399" lon="1.63699">
        <ele>338.8</ele>
        <time>2026-08-08T15:59:40.000Z</time>
      </trkpt>
      <trkpt lat="45.80387" lon="1.63688">
        <ele>338.5</ele>
        <time>2026-08-08T15:59:46.000Z</time>
      </trkpt>
      <trkpt lat="45.80386" lon="1.63685">
        <ele>338.4</ele>
        <time>2026-08-08T15:59:47.000Z</time>
      </trkpt>
      <trkpt lat="45.80385" lon="1.63682">
        <ele>338.2</ele>
        <time>2026-08-08T15:59:50.000Z</time>
      </trkpt>
      <trkpt lat="45.80382" lon="1.63677">
        <ele>338.1</ele>
        <time>2026-08-08T16:00:05.000Z</time>
      </trkpt>
      <trkpt lat="45.80375" lon="1.6366">
        <ele>338</ele>
        <time>2026-08-08T16:00:11.000Z</time>
      </trkpt>
      <trkpt lat="45.80372" lon="1.63645">
        <ele>338.4</ele>
        <time>2026-08-08T16:00:15.000Z</time>
      </trkpt>
      <trkpt lat="45.8037" lon="1.63633">
        <ele>338.6</ele>
        <time>2026-08-08T16:00:18.000Z</time>
      </trkpt>
      <trkpt lat="45.80369" lon="1.63601">
        <ele>339.1</ele>
        <time>2026-08-08T16:00:27.000Z</time>
      </trkpt>
      <trkpt lat="45.8037" lon="1.63594">
        <ele>339.3</ele>
        <time>2026-08-08T16:00:29.000Z</time>
      </trkpt>
      <trkpt lat="45.80371" lon="1.6357">
        <ele>340.1</ele>
        <time>2026-08-08T16:00:36.000Z</time>
      </trkpt>
      <trkpt lat="45.8037" lon="1.63555">
        <ele>340.7</ele>
        <time>2026-08-08T16:00:41.000Z</time>
      </trkpt>
      <trkpt lat="45.8037" lon="1.63552">
        <ele>340.8</ele>
        <time>2026-08-08T16:00:42.000Z</time>
      </trkpt>
      <trkpt lat="45.80371" lon="1.63549">
        <ele>340.9</ele>
        <time>2026-08-08T16:00:43.000Z</time>
      </trkpt>
      <trkpt lat="45.80375" lon="1.6353">
        <ele>340.9</ele>
        <time>2026-08-08T16:00:50.000Z</time>
      </trkpt>
      <trkpt lat="45.80382" lon="1.63516">
        <ele>340.8</ele>
        <time>2026-08-08T16:00:56.000Z</time>
      </trkpt>
      <trkpt lat="45.80383" lon="1.63513">
        <ele>340.8</ele>
        <time>2026-08-08T16:00:57.000Z</time>
      </trkpt>
      <trkpt lat="45.80391" lon="1.63495">
        <ele>340.2</ele>
        <time>2026-08-08T16:01:03.000Z</time>
      </trkpt>
      <trkpt lat="45.80401" lon="1.63471">
        <ele>337.4</ele>
        <time>2026-08-08T16:01:11.000Z</time>
      </trkpt>
      <trkpt lat="45.80402" lon="1.63469">
        <ele>337.3</ele>
        <time>2026-08-08T16:01:12.000Z</time>
      </trkpt>
      <trkpt lat="45.80407" lon="1.63442">
        <ele>336.9</ele>
        <time>2026-08-08T16:01:19.000Z</time>
      </trkpt>
      <trkpt lat="45.80407" lon="1.63437">
        <ele>337</ele>
        <time>2026-08-08T16:01:20.000Z</time>
      </trkpt>
      <trkpt lat="45.8041" lon="1.63414">
        <ele>337.2</ele>
        <time>2026-08-08T16:01:26.000Z</time>
      </trkpt>
      <trkpt lat="45.80411" lon="1.63407">
        <ele>336.8</ele>
        <time>2026-08-08T16:01:28.000Z</time>
      </trkpt>
      <trkpt lat="45.80411" lon="1.63396">
        <ele>336.3</ele>
        <time>2026-08-08T16:01:31.000Z</time>
      </trkpt>
      <trkpt lat="45.80411" lon="1.63388">
        <ele>336</ele>
        <time>2026-08-08T16:01:33.000Z</time>
      </trkpt>
      <trkpt lat="45.80412" lon="1.63367">
        <ele>335.4</ele>
        <time>2026-08-08T16:01:38.000Z</time>
      </trkpt>
      <trkpt lat="45.80413" lon="1.63353">
        <ele>334.7</ele>
        <time>2026-08-08T16:01:41.000Z</time>
      </trkpt>
      <trkpt lat="45.80414" lon="1.63343">
        <ele>334.1</ele>
        <time>2026-08-08T16:01:43.000Z</time>
      </trkpt>
      <trkpt lat="45.80414" lon="1.63322">
        <ele>333</ele>
        <time>2026-08-08T16:01:46.000Z</time>
      </trkpt>
      <trkpt lat="45.80413" lon="1.63308">
        <ele>332.4</ele>
        <time>2026-08-08T16:01:48.000Z</time>
      </trkpt>
      <trkpt lat="45.80413" lon="1.633">
        <ele>332.1</ele>
        <time>2026-08-08T16:01:49.000Z</time>
      </trkpt>
      <trkpt lat="45.80409" lon="1.63269">
        <ele>331.5</ele>
        <time>2026-08-08T16:01:52.000Z</time>
      </trkpt>
      <trkpt lat="45.80404" lon="1.63237">
        <ele>330.8</ele>
        <time>2026-08-08T16:01:55.000Z</time>
      </trkpt>
      <trkpt lat="45.804" lon="1.63217">
        <ele>329.6</ele>
        <time>2026-08-08T16:01:57.000Z</time>
      </trkpt>
      <trkpt lat="45.80396" lon="1.63198">
        <ele>328.2</ele>
        <time>2026-08-08T16:01:59.000Z</time>
      </trkpt>
      <trkpt lat="45.80385" lon="1.63161">
        <ele>327.6</ele>
        <time>2026-08-08T16:02:03.000Z</time>
      </trkpt>
      <trkpt lat="45.80382" lon="1.63152">
        <ele>327.3</ele>
        <time>2026-08-08T16:02:04.000Z</time>
      </trkpt>
      <trkpt lat="45.80371" lon="1.63117">
        <ele>325.7</ele>
        <time>2026-08-08T16:02:08.000Z</time>
      </trkpt>
      <trkpt lat="45.80361" lon="1.63088">
        <ele>326</ele>
        <time>2026-08-08T16:02:12.000Z</time>
      </trkpt>
      <trkpt lat="45.80348" lon="1.63056">
        <ele>326.4</ele>
        <time>2026-08-08T16:02:17.000Z</time>
      </trkpt>
      <trkpt lat="45.80335" lon="1.63027">
        <ele>326.8</ele>
        <time>2026-08-08T16:02:23.000Z</time>
      </trkpt>
      <trkpt lat="45.80314" lon="1.62988">
        <ele>327.8</ele>
        <time>2026-08-08T16:02:32.000Z</time>
      </trkpt>
      <trkpt lat="45.803" lon="1.62961">
        <ele>327.8</ele>
        <time>2026-08-08T16:02:39.000Z</time>
      </trkpt>
      <trkpt lat="45.80289" lon="1.62954">
        <ele>328.9</ele>
        <time>2026-08-08T16:02:44.000Z</time>
      </trkpt>
      <trkpt lat="45.8028" lon="1.62946">
        <ele>329</ele>
        <time>2026-08-08T16:02:50.000Z</time>
      </trkpt>
      <trkpt lat="45.80279" lon="1.62945">
        <ele>329</ele>
        <time>2026-08-08T16:02:51.000Z</time>
      </trkpt>
      <trkpt lat="45.80278" lon="1.62945">
        <ele>329</ele>
        <time>2026-08-08T16:02:55.000Z</time>
      </trkpt>
      <trkpt lat="45.80317" lon="1.62904">
        <ele>329.1</ele>
        <time>2026-08-09T07:58:53.000Z</time>
      </trkpt>
      <trkpt lat="45.80327" lon="1.62901">
        <ele>328.7</ele>
        <time>2026-08-09T07:58:59.000Z</time>
      </trkpt>
      <trkpt lat="45.80328" lon="1.629">
        <ele>328.8</ele>
        <time>2026-08-09T07:59:00.000Z</time>
      </trkpt>
      <trkpt lat="45.80329" lon="1.62898">
        <ele>329.1</ele>
        <time>2026-08-09T07:59:01.000Z</time>
      </trkpt>
      <trkpt lat="45.80331" lon="1.62894">
        <ele>329.5</ele>
        <time>2026-08-09T07:59:03.000Z</time>
      </trkpt>
      <trkpt lat="45.80339" lon="1.6289">
        <ele>329.9</ele>
        <time>2026-08-09T07:59:09.000Z</time>
      </trkpt>
      <trkpt lat="45.80341" lon="1.6289">
        <ele>329.8</ele>
        <time>2026-08-09T07:59:10.000Z</time>
      </trkpt>
      <trkpt lat="45.8035" lon="1.62887">
        <ele>330.3</ele>
        <time>2026-08-09T07:59:16.000Z</time>
      </trkpt>
      <trkpt lat="45.80354" lon="1.62886">
        <ele>330.4</ele>
        <time>2026-08-09T07:59:18.000Z</time>
      </trkpt>
      <trkpt lat="45.80361" lon="1.62879">
        <ele>331.4</ele>
        <time>2026-08-09T07:59:23.000Z</time>
      </trkpt>
      <trkpt lat="45.80366" lon="1.62873">
        <ele>331.6</ele>
        <time>2026-08-09T07:59:27.000Z</time>
      </trkpt>
      <trkpt lat="45.80367" lon="1.62871">
        <ele>331.8</ele>
        <time>2026-08-09T07:59:29.000Z</time>
      </trkpt>
      <trkpt lat="45.80367" lon="1.62869">
        <ele>332.1</ele>
        <time>2026-08-09T07:59:31.000Z</time>
      </trkpt>
      <trkpt lat="45.80368" lon="1.62863">
        <ele>332.9</ele>
        <time>2026-08-09T07:59:34.000Z</time>
      </trkpt>
      <trkpt lat="45.80367" lon="1.62861">
        <ele>333.3</ele>
        <time>2026-08-09T07:59:35.000Z</time>
      </trkpt>
      <trkpt lat="45.80367" lon="1.6286">
        <ele>333.4</ele>
        <time>2026-08-09T07:59:36.000Z</time>
      </trkpt>
      <trkpt lat="45.80359" lon="1.62848">
        <ele>334.6</ele>
        <time>2026-08-09T07:59:44.000Z</time>
      </trkpt>
      <trkpt lat="45.80352" lon="1.62843">
        <ele>335.2</ele>
        <time>2026-08-09T07:59:49.000Z</time>
      </trkpt>
      <trkpt lat="45.80349" lon="1.62843">
        <ele>335.4</ele>
        <time>2026-08-09T07:59:51.000Z</time>
      </trkpt>
      <trkpt lat="45.80347" lon="1.62841">
        <ele>335.6</ele>
        <time>2026-08-09T07:59:52.000Z</time>
      </trkpt>
      <trkpt lat="45.80347" lon="1.62836">
        <ele>335.9</ele>
        <time>2026-08-09T07:59:55.000Z</time>
      </trkpt>
      <trkpt lat="45.80347" lon="1.62834">
        <ele>336</ele>
        <time>2026-08-09T07:59:56.000Z</time>
      </trkpt>
      <trkpt lat="45.80346" lon="1.62829">
        <ele>336.2</ele>
        <time>2026-08-09T07:59:58.000Z</time>
      </trkpt>
      <trkpt lat="45.80345" lon="1.62826">
        <ele>336.4</ele>
        <time>2026-08-09T08:00:00.000Z</time>
      </trkpt>
      <trkpt lat="45.80344" lon="1.6282">
        <ele>336.6</ele>
        <time>2026-08-09T08:00:05.000Z</time>
      </trkpt>
      <trkpt lat="45.80337" lon="1.62808">
        <ele>337.6</ele>
        <time>2026-08-09T08:00:39.000Z</time>
      </trkpt>
      <trkpt lat="45.80334" lon="1.62802">
        <ele>337.9</ele>
        <time>2026-08-09T08:00:42.000Z</time>
      </trkpt>
      <trkpt lat="45.8033" lon="1.628">
        <ele>338.4</ele>
        <time>2026-08-09T08:00:45.000Z</time>
      </trkpt>
      <trkpt lat="45.8033" lon="1.62796">
        <ele>338.5</ele>
        <time>2026-08-09T08:00:47.000Z</time>
      </trkpt>
      <trkpt lat="45.80329" lon="1.62792">
        <ele>338.6</ele>
        <time>2026-08-09T08:00:49.000Z</time>
      </trkpt>
      <trkpt lat="45.80325" lon="1.62789">
        <ele>339.1</ele>
        <time>2026-08-09T08:00:52.000Z</time>
      </trkpt>
      <trkpt lat="45.80325" lon="1.62788">
        <ele>339.3</ele>
        <time>2026-08-09T08:00:53.000Z</time>
      </trkpt>
      <trkpt lat="45.80325" lon="1.62782">
        <ele>339.2</ele>
        <time>2026-08-09T08:00:56.000Z</time>
      </trkpt>
      <trkpt lat="45.8032" lon="1.62776">
        <ele>340</ele>
        <time>2026-08-09T08:01:00.000Z</time>
      </trkpt>
      <trkpt lat="45.80319" lon="1.62774">
        <ele>340.1</ele>
        <time>2026-08-09T08:01:01.000Z</time>
      </trkpt>
      <trkpt lat="45.8032" lon="1.6277">
        <ele>340.1</ele>
        <time>2026-08-09T08:01:03.000Z</time>
      </trkpt>
      <trkpt lat="45.8032" lon="1.62768">
        <ele>340.1</ele>
        <time>2026-08-09T08:01:04.000Z</time>
      </trkpt>
      <trkpt lat="45.80316" lon="1.62765">
        <ele>340.8</ele>
        <time>2026-08-09T08:01:07.000Z</time>
      </trkpt>
      <trkpt lat="45.80315" lon="1.62764">
        <ele>341</ele>
        <time>2026-08-09T08:01:08.000Z</time>
      </trkpt>
      <trkpt lat="45.80315" lon="1.62759">
        <ele>341</ele>
        <time>2026-08-09T08:01:10.000Z</time>
      </trkpt>
      <trkpt lat="45.80316" lon="1.62757">
        <ele>341</ele>
        <time>2026-08-09T08:01:11.000Z</time>
      </trkpt>
      <trkpt lat="45.80313" lon="1.62752">
        <ele>341.6</ele>
        <time>2026-08-09T08:01:14.000Z</time>
      </trkpt>
      <trkpt lat="45.80311" lon="1.6275">
        <ele>342.1</ele>
        <time>2026-08-09T08:01:16.000Z</time>
      </trkpt>
      <trkpt lat="45.80311" lon="1.62746">
        <ele>341.9</ele>
        <time>2026-08-09T08:01:18.000Z</time>
      </trkpt>
      <trkpt lat="45.80311" lon="1.62744">
        <ele>342</ele>
        <time>2026-08-09T08:01:19.000Z</time>
      </trkpt>
      <trkpt lat="45.80307" lon="1.62742">
        <ele>342.7</ele>
        <time>2026-08-09T08:01:22.000Z</time>
      </trkpt>
      <trkpt lat="45.80306" lon="1.62735">
        <ele>342.9</ele>
        <time>2026-08-09T08:01:26.000Z</time>
      </trkpt>
      <trkpt lat="45.80301" lon="1.62731">
        <ele>343.9</ele>
        <time>2026-08-09T08:01:30.000Z</time>
      </trkpt>
      <trkpt lat="45.803" lon="1.62727">
        <ele>344.2</ele>
        <time>2026-08-09T08:01:33.000Z</time>
      </trkpt>
      <trkpt lat="45.80298" lon="1.62725">
        <ele>344.6</ele>
        <time>2026-08-09T08:01:34.000Z</time>
      </trkpt>
      <trkpt lat="45.80297" lon="1.62723">
        <ele>344.9</ele>
        <time>2026-08-09T08:01:36.000Z</time>
      </trkpt>
      <trkpt lat="45.80296" lon="1.6272">
        <ele>344.9</ele>
        <time>2026-08-09T08:01:38.000Z</time>
      </trkpt>
      <trkpt lat="45.80295" lon="1.62719">
        <ele>345.1</ele>
        <time>2026-08-09T08:01:39.000Z</time>
      </trkpt>
      <trkpt lat="45.80291" lon="1.62712">
        <ele>345.8</ele>
        <time>2026-08-09T08:01:43.000Z</time>
      </trkpt>
      <trkpt lat="45.8029" lon="1.62709">
        <ele>345.9</ele>
        <time>2026-08-09T08:01:45.000Z</time>
      </trkpt>
      <trkpt lat="45.80289" lon="1.62708">
        <ele>346</ele>
        <time>2026-08-09T08:01:46.000Z</time>
      </trkpt>
      <trkpt lat="45.80283" lon="1.62699">
        <ele>347.1</ele>
        <time>2026-08-09T08:01:51.000Z</time>
      </trkpt>
      <trkpt lat="45.80282" lon="1.62697">
        <ele>347.3</ele>
        <time>2026-08-09T08:01:53.000Z</time>
      </trkpt>
      <trkpt lat="45.80281" lon="1.62696">
        <ele>347.4</ele>
        <time>2026-08-09T08:01:54.000Z</time>
      </trkpt>
      <trkpt lat="45.80281" lon="1.62695">
        <ele>347.3</ele>
        <time>2026-08-09T08:01:57.000Z</time>
      </trkpt>
      <trkpt lat="45.80263" lon="1.62678">
        <ele>349.9</ele>
        <time>2026-08-09T08:05:20.000Z</time>
      </trkpt>
      <trkpt lat="45.80261" lon="1.62679">
        <ele>350.5</ele>
        <time>2026-08-09T08:05:22.000Z</time>
      </trkpt>
      <trkpt lat="45.8026" lon="1.62677">
        <ele>350.5</ele>
        <time>2026-08-09T08:05:24.000Z</time>
      </trkpt>
      <trkpt lat="45.8026" lon="1.62676">
        <ele>350.5</ele>
        <time>2026-08-09T08:05:25.000Z</time>
      </trkpt>
      <trkpt lat="45.8026" lon="1.62675">
        <ele>350.5</ele>
        <time>2026-08-09T08:05:26.000Z</time>
      </trkpt>
      <trkpt lat="45.80259" lon="1.62674">
        <ele>350.7</ele>
        <time>2026-08-09T08:05:28.000Z</time>
      </trkpt>
      <trkpt lat="45.80258" lon="1.62674">
        <ele>350.9</ele>
        <time>2026-08-09T08:05:29.000Z</time>
      </trkpt>
      <trkpt lat="45.80256" lon="1.62674">
        <ele>351.5</ele>
        <time>2026-08-09T08:05:31.000Z</time>
      </trkpt>
      <trkpt lat="45.80254" lon="1.62672">
        <ele>351.9</ele>
        <time>2026-08-09T08:05:33.000Z</time>
      </trkpt>
      <trkpt lat="45.80254" lon="1.6267">
        <ele>352</ele>
        <time>2026-08-09T08:05:35.000Z</time>
      </trkpt>
      <trkpt lat="45.80252" lon="1.62669">
        <ele>352.4</ele>
        <time>2026-08-09T08:05:36.000Z</time>
      </trkpt>
      <trkpt lat="45.80248" lon="1.62668">
        <ele>353.4</ele>
        <time>2026-08-09T08:05:40.000Z</time>
      </trkpt>
      <trkpt lat="45.80248" lon="1.62665">
        <ele>353.6</ele>
        <time>2026-08-09T08:05:42.000Z</time>
      </trkpt>
      <trkpt lat="45.80245" lon="1.62662">
        <ele>354.1</ele>
        <time>2026-08-09T08:05:45.000Z</time>
      </trkpt>
      <trkpt lat="45.80243" lon="1.62661">
        <ele>354.6</ele>
        <time>2026-08-09T08:05:47.000Z</time>
      </trkpt>
      <trkpt lat="45.80242" lon="1.62658">
        <ele>354.8</ele>
        <time>2026-08-09T08:05:49.000Z</time>
      </trkpt>
      <trkpt lat="45.80242" lon="1.62657">
        <ele>354.9</ele>
        <time>2026-08-09T08:05:50.000Z</time>
      </trkpt>
      <trkpt lat="45.80241" lon="1.62655">
        <ele>355</ele>
        <time>2026-08-09T08:05:51.000Z</time>
      </trkpt>
      <trkpt lat="45.80238" lon="1.62655">
        <ele>355.7</ele>
        <time>2026-08-09T08:05:54.000Z</time>
      </trkpt>
      <trkpt lat="45.80237" lon="1.62651">
        <ele>355.7</ele>
        <time>2026-08-09T08:05:57.000Z</time>
      </trkpt>
      <trkpt lat="45.80237" lon="1.62648">
        <ele>355.7</ele>
        <time>2026-08-09T08:05:58.000Z</time>
      </trkpt>
      <trkpt lat="45.80232" lon="1.62648">
        <ele>356.6</ele>
        <time>2026-08-09T08:06:01.000Z</time>
      </trkpt>
      <trkpt lat="45.80231" lon="1.62648">
        <ele>356.9</ele>
        <time>2026-08-09T08:06:02.000Z</time>
      </trkpt>
      <trkpt lat="45.8023" lon="1.62645">
        <ele>356.8</ele>
        <time>2026-08-09T08:06:04.000Z</time>
      </trkpt>
      <trkpt lat="45.8023" lon="1.62644">
        <ele>356.9</ele>
        <time>2026-08-09T08:06:05.000Z</time>
      </trkpt>
      <trkpt lat="45.80223" lon="1.62642">
        <ele>358.1</ele>
        <time>2026-08-09T08:06:09.000Z</time>
      </trkpt>
      <trkpt lat="45.80221" lon="1.62642">
        <ele>358.3</ele>
        <time>2026-08-09T08:06:10.000Z</time>
      </trkpt>
      <trkpt lat="45.80219" lon="1.62638">
        <ele>358.5</ele>
        <time>2026-08-09T08:06:12.000Z</time>
      </trkpt>
      <trkpt lat="45.80219" lon="1.62636">
        <ele>358.6</ele>
        <time>2026-08-09T08:06:13.000Z</time>
      </trkpt>
      <trkpt lat="45.80219" lon="1.62634">
        <ele>358.7</ele>
        <time>2026-08-09T08:06:14.000Z</time>
      </trkpt>
      <trkpt lat="45.80215" lon="1.62634">
        <ele>359.2</ele>
        <time>2026-08-09T08:06:17.000Z</time>
      </trkpt>
      <trkpt lat="45.80212" lon="1.62635">
        <ele>359.6</ele>
        <time>2026-08-09T08:06:19.000Z</time>
      </trkpt>
      <trkpt lat="45.80211" lon="1.62635">
        <ele>359.8</ele>
        <time>2026-08-09T08:06:20.000Z</time>
      </trkpt>
      <trkpt lat="45.8021" lon="1.62633">
        <ele>360</ele>
        <time>2026-08-09T08:06:22.000Z</time>
      </trkpt>
      <trkpt lat="45.80209" lon="1.62632">
        <ele>360.2</ele>
        <time>2026-08-09T08:06:23.000Z</time>
      </trkpt>
      <trkpt lat="45.80206" lon="1.62632">
        <ele>360.6</ele>
        <time>2026-08-09T08:06:25.000Z</time>
      </trkpt>
      <trkpt lat="45.80205" lon="1.62633">
        <ele>360.7</ele>
        <time>2026-08-09T08:06:26.000Z</time>
      </trkpt>
      <trkpt lat="45.802" lon="1.62634">
        <ele>361.3</ele>
        <time>2026-08-09T08:06:29.000Z</time>
      </trkpt>
      <trkpt lat="45.80197" lon="1.62634">
        <ele>361.9</ele>
        <time>2026-08-09T08:06:32.000Z</time>
      </trkpt>
      <trkpt lat="45.80194" lon="1.62634">
        <ele>362.2</ele>
        <time>2026-08-09T08:06:34.000Z</time>
      </trkpt>
      <trkpt lat="45.80193" lon="1.62634">
        <ele>362.4</ele>
        <time>2026-08-09T08:06:35.000Z</time>
      </trkpt>
      <trkpt lat="45.80188" lon="1.62635">
        <ele>362.9</ele>
        <time>2026-08-09T08:06:40.000Z</time>
      </trkpt>
      <trkpt lat="45.80188" lon="1.62635">
        <ele>362.9</ele>
        <time>2026-08-09T08:06:41.000Z</time>
      </trkpt>
      <trkpt lat="45.80185" lon="1.62636">
        <ele>363.2</ele>
        <time>2026-08-09T08:07:29.000Z</time>
      </trkpt>
      <trkpt lat="45.80181" lon="1.62637">
        <ele>363.6</ele>
        <time>2026-08-09T08:07:31.000Z</time>
      </trkpt>
      <trkpt lat="45.80172" lon="1.62635">
        <ele>364.7</ele>
        <time>2026-08-09T08:07:36.000Z</time>
      </trkpt>
      <trkpt lat="45.80167" lon="1.62638">
        <ele>365.1</ele>
        <time>2026-08-09T08:07:40.000Z</time>
      </trkpt>
      <trkpt lat="45.80163" lon="1.62634">
        <ele>365.7</ele>
        <time>2026-08-09T08:07:43.000Z</time>
      </trkpt>
      <trkpt lat="45.80162" lon="1.62634">
        <ele>365.8</ele>
        <time>2026-08-09T08:07:44.000Z</time>
      </trkpt>
      <trkpt lat="45.8016" lon="1.62637">
        <ele>365.9</ele>
        <time>2026-08-09T08:07:47.000Z</time>
      </trkpt>
      <trkpt lat="45.80158" lon="1.62638">
        <ele>366</ele>
        <time>2026-08-09T08:07:48.000Z</time>
      </trkpt>
      <trkpt lat="45.80156" lon="1.62636">
        <ele>366.3</ele>
        <time>2026-08-09T08:07:50.000Z</time>
      </trkpt>
      <trkpt lat="45.80155" lon="1.62635">
        <ele>366.5</ele>
        <time>2026-08-09T08:07:51.000Z</time>
      </trkpt>
      <trkpt lat="45.80154" lon="1.62635">
        <ele>366.7</ele>
        <time>2026-08-09T08:07:52.000Z</time>
      </trkpt>
      <trkpt lat="45.80153" lon="1.62635">
        <ele>366.8</ele>
        <time>2026-08-09T08:07:53.000Z</time>
      </trkpt>
      <trkpt lat="45.80151" lon="1.62639">
        <ele>366.7</ele>
        <time>2026-08-09T08:07:56.000Z</time>
      </trkpt>
      <trkpt lat="45.80149" lon="1.62642">
        <ele>366.9</ele>
        <time>2026-08-09T08:07:58.000Z</time>
      </trkpt>
      <trkpt lat="45.80145" lon="1.62642">
        <ele>367.2</ele>
        <time>2026-08-09T08:08:00.000Z</time>
      </trkpt>
      <trkpt lat="45.80144" lon="1.62641">
        <ele>367.4</ele>
        <time>2026-08-09T08:08:01.000Z</time>
      </trkpt>
      <trkpt lat="45.80139" lon="1.62637">
        <ele>368.1</ele>
        <time>2026-08-09T08:08:04.000Z</time>
      </trkpt>
      <trkpt lat="45.80135" lon="1.62635">
        <ele>368.6</ele>
        <time>2026-08-09T08:08:06.000Z</time>
      </trkpt>
      <trkpt lat="45.80134" lon="1.62635">
        <ele>368.8</ele>
        <time>2026-08-09T08:08:07.000Z</time>
      </trkpt>
      <trkpt lat="45.80132" lon="1.62635">
        <ele>369</ele>
        <time>2026-08-09T08:08:08.000Z</time>
      </trkpt>
      <trkpt lat="45.80124" lon="1.62638">
        <ele>369.7</ele>
        <time>2026-08-09T08:08:13.000Z</time>
      </trkpt>
      <trkpt lat="45.80121" lon="1.62639">
        <ele>369.9</ele>
        <time>2026-08-09T08:08:15.000Z</time>
      </trkpt>
      <trkpt lat="45.80107" lon="1.62642">
        <ele>371</ele>
        <time>2026-08-09T08:08:23.000Z</time>
      </trkpt>
      <trkpt lat="45.80103" lon="1.62643">
        <ele>371.1</ele>
        <time>2026-08-09T08:08:25.000Z</time>
      </trkpt>
      <trkpt lat="45.80086" lon="1.62646">
        <ele>372</ele>
        <time>2026-08-09T08:08:34.000Z</time>
      </trkpt>
      <trkpt lat="45.80081" lon="1.62647">
        <ele>372.4</ele>
        <time>2026-08-09T08:08:39.000Z</time>
      </trkpt>
      <trkpt lat="45.80081" lon="1.62647">
        <ele>372.4</ele>
        <time>2026-08-09T08:08:40.000Z</time>
      </trkpt>
      <trkpt lat="45.80079" lon="1.62648">
        <ele>372.4</ele>
        <time>2026-08-09T08:09:34.000Z</time>
      </trkpt>
      <trkpt lat="45.80073" lon="1.62649">
        <ele>372.8</ele>
        <time>2026-08-09T08:09:37.000Z</time>
      </trkpt>
      <trkpt lat="45.80061" lon="1.62652">
        <ele>373.5</ele>
        <time>2026-08-09T08:09:43.000Z</time>
      </trkpt>
      <trkpt lat="45.80051" lon="1.62654">
        <ele>374.3</ele>
        <time>2026-08-09T08:09:49.000Z</time>
      </trkpt>
      <trkpt lat="45.80047" lon="1.62654">
        <ele>374.5</ele>
        <time>2026-08-09T08:09:51.000Z</time>
      </trkpt>
      <trkpt lat="45.80039" lon="1.62653">
        <ele>375.2</ele>
        <time>2026-08-09T08:09:55.000Z</time>
      </trkpt>
      <trkpt lat="45.80036" lon="1.62653">
        <ele>375.4</ele>
        <time>2026-08-09T08:09:59.000Z</time>
      </trkpt>
      <trkpt lat="45.80028" lon="1.62658">
        <ele>375.2</ele>
        <time>2026-08-09T08:10:11.000Z</time>
      </trkpt>
      <trkpt lat="45.80024" lon="1.62661">
        <ele>375.2</ele>
        <time>2026-08-09T08:10:13.000Z</time>
      </trkpt>
      <trkpt lat="45.80009" lon="1.62665">
        <ele>376.3</ele>
        <time>2026-08-09T08:10:20.000Z</time>
      </trkpt>
      <trkpt lat="45.80003" lon="1.62665">
        <ele>376.8</ele>
        <time>2026-08-09T08:10:24.000Z</time>
      </trkpt>
      <trkpt lat="45.80002" lon="1.62666">
        <ele>376.9</ele>
        <time>2026-08-09T08:10:26.000Z</time>
      </trkpt>
      <trkpt lat="45.80002" lon="1.62666">
        <ele>376.9</ele>
        <time>2026-08-09T08:10:28.000Z</time>
      </trkpt>
      <trkpt lat="45.79997" lon="1.62669">
        <ele>377.2</ele>
        <time>2026-08-09T08:10:35.000Z</time>
      </trkpt>
      <trkpt lat="45.79995" lon="1.6267">
        <ele>377.4</ele>
        <time>2026-08-09T08:10:36.000Z</time>
      </trkpt>
      <trkpt lat="45.79982" lon="1.62678">
        <ele>378.3</ele>
        <time>2026-08-09T08:10:42.000Z</time>
      </trkpt>
      <trkpt lat="45.79968" lon="1.62685">
        <ele>378.9</ele>
        <time>2026-08-09T08:10:48.000Z</time>
      </trkpt>
      <trkpt lat="45.79964" lon="1.62688">
        <ele>378.9</ele>
        <time>2026-08-09T08:10:50.000Z</time>
      </trkpt>
      <trkpt lat="45.79949" lon="1.62698">
        <ele>379.5</ele>
        <time>2026-08-09T08:10:57.000Z</time>
      </trkpt>
      <trkpt lat="45.79943" lon="1.627">
        <ele>379.7</ele>
        <time>2026-08-09T08:10:59.000Z</time>
      </trkpt>
      <trkpt lat="45.79931" lon="1.62708">
        <ele>379.5</ele>
        <time>2026-08-09T08:11:05.000Z</time>
      </trkpt>
      <trkpt lat="45.7991" lon="1.62719">
        <ele>379.6</ele>
        <time>2026-08-09T08:11:13.000Z</time>
      </trkpt>
      <trkpt lat="45.79907" lon="1.6272">
        <ele>379.8</ele>
        <time>2026-08-09T08:11:14.000Z</time>
      </trkpt>
      <trkpt lat="45.79887" lon="1.62731">
        <ele>380.7</ele>
        <time>2026-08-09T08:11:21.000Z</time>
      </trkpt>
      <trkpt lat="45.79868" lon="1.62742">
        <ele>380.8</ele>
        <time>2026-08-09T08:11:28.000Z</time>
      </trkpt>
      <trkpt lat="45.79866" lon="1.62744">
        <ele>380.9</ele>
        <time>2026-08-09T08:11:29.000Z</time>
      </trkpt>
      <trkpt lat="45.79848" lon="1.62752">
        <ele>381</ele>
        <time>2026-08-09T08:11:35.000Z</time>
      </trkpt>
      <trkpt lat="45.79833" lon="1.62759">
        <ele>381.3</ele>
        <time>2026-08-09T08:11:40.000Z</time>
      </trkpt>
      <trkpt lat="45.79822" lon="1.62766">
        <ele>382.2</ele>
        <time>2026-08-09T08:11:44.000Z</time>
      </trkpt>
      <trkpt lat="45.79814" lon="1.62771">
        <ele>382.6</ele>
        <time>2026-08-09T08:11:47.000Z</time>
      </trkpt>
      <trkpt lat="45.79795" lon="1.62782">
        <ele>383.4</ele>
        <time>2026-08-09T08:11:54.000Z</time>
      </trkpt>
      <trkpt lat="45.79771" lon="1.62794">
        <ele>384</ele>
        <time>2026-08-09T08:12:02.000Z</time>
      </trkpt>
      <trkpt lat="45.79765" lon="1.62797">
        <ele>384</ele>
        <time>2026-08-09T08:12:04.000Z</time>
      </trkpt>
      <trkpt lat="45.7975" lon="1.62804">
        <ele>384</ele>
        <time>2026-08-09T08:12:09.000Z</time>
      </trkpt>
      <trkpt lat="45.79743" lon="1.62809">
        <ele>384.1</ele>
        <time>2026-08-09T08:12:12.000Z</time>
      </trkpt>
      <trkpt lat="45.79723" lon="1.62815">
        <ele>384.4</ele>
        <time>2026-08-09T08:12:19.000Z</time>
      </trkpt>
      <trkpt lat="45.79708" lon="1.62817">
        <ele>384.9</ele>
        <time>2026-08-09T08:12:24.000Z</time>
      </trkpt>
      <trkpt lat="45.79699" lon="1.62819">
        <ele>385.3</ele>
        <time>2026-08-09T08:12:27.000Z</time>
      </trkpt>
      <trkpt lat="45.79693" lon="1.62819">
        <ele>385.5</ele>
        <time>2026-08-09T08:12:29.000Z</time>
      </trkpt>
      <trkpt lat="45.79683" lon="1.62816">
        <ele>385.4</ele>
        <time>2026-08-09T08:12:32.000Z</time>
      </trkpt>
      <trkpt lat="45.79657" lon="1.62816">
        <ele>385.9</ele>
        <time>2026-08-09T08:12:40.000Z</time>
      </trkpt>
      <trkpt lat="45.79654" lon="1.62815">
        <ele>385.9</ele>
        <time>2026-08-09T08:12:41.000Z</time>
      </trkpt>
      <trkpt lat="45.79641" lon="1.62813">
        <ele>386.4</ele>
        <time>2026-08-09T08:12:45.000Z</time>
      </trkpt>
      <trkpt lat="45.79617" lon="1.62812">
        <ele>386.9</ele>
        <time>2026-08-09T08:12:52.000Z</time>
      </trkpt>
      <trkpt lat="45.79603" lon="1.62811">
        <ele>387.1</ele>
        <time>2026-08-09T08:12:56.000Z</time>
      </trkpt>
      <trkpt lat="45.79597" lon="1.6281">
        <ele>387.1</ele>
        <time>2026-08-09T08:12:58.000Z</time>
      </trkpt>
      <trkpt lat="45.79586" lon="1.62807">
        <ele>387</ele>
        <time>2026-08-09T08:13:04.000Z</time>
      </trkpt>
      <trkpt lat="45.79583" lon="1.62804">
        <ele>387.1</ele>
        <time>2026-08-09T08:13:09.000Z</time>
      </trkpt>
      <trkpt lat="45.79582" lon="1.62803">
        <ele>387.1</ele>
        <time>2026-08-09T08:13:10.000Z</time>
      </trkpt>
      <trkpt lat="45.79582" lon="1.62803">
        <ele>387.1</ele>
        <time>2026-08-09T08:13:12.000Z</time>
      </trkpt>
      <trkpt lat="45.79577" lon="1.62804">
        <ele>387.4</ele>
        <time>2026-08-09T08:13:30.000Z</time>
      </trkpt>
      <trkpt lat="45.79576" lon="1.62807">
        <ele>387.6</ele>
        <time>2026-08-09T08:13:31.000Z</time>
      </trkpt>
      <trkpt lat="45.79575" lon="1.6281">
        <ele>387.7</ele>
        <time>2026-08-09T08:13:32.000Z</time>
      </trkpt>
      <trkpt lat="45.79571" lon="1.6282">
        <ele>387.9</ele>
        <time>2026-08-09T08:13:35.000Z</time>
      </trkpt>
      <trkpt lat="45.79562" lon="1.62836">
        <ele>388</ele>
        <time>2026-08-09T08:13:40.000Z</time>
      </trkpt>
      <trkpt lat="45.79558" lon="1.62842">
        <ele>388</ele>
        <time>2026-08-09T08:13:42.000Z</time>
      </trkpt>
      <trkpt lat="45.79552" lon="1.62861">
        <ele>387.9</ele>
        <time>2026-08-09T08:13:47.000Z</time>
      </trkpt>
      <trkpt lat="45.79547" lon="1.62896">
        <ele>387.4</ele>
        <time>2026-08-09T08:13:54.000Z</time>
      </trkpt>
      <trkpt lat="45.7955" lon="1.6292">
        <ele>386.8</ele>
        <time>2026-08-09T08:14:00.000Z</time>
      </trkpt>
      <trkpt lat="45.7955" lon="1.62922">
        <ele>386.8</ele>
        <time>2026-08-09T08:14:01.000Z</time>
      </trkpt>
      <trkpt lat="45.7955" lon="1.62924">
        <ele>386.8</ele>
        <time>2026-08-09T08:14:02.000Z</time>
      </trkpt>
      <trkpt lat="45.79551" lon="1.6293">
        <ele>386.8</ele>
        <time>2026-08-09T08:14:05.000Z</time>
      </trkpt>
      <trkpt lat="45.79554" lon="1.62945">
        <ele>386.9</ele>
        <time>2026-08-09T08:14:12.000Z</time>
      </trkpt>
      <trkpt lat="45.79555" lon="1.62951">
        <ele>386.7</ele>
        <time>2026-08-09T08:14:15.000Z</time>
      </trkpt>
      <trkpt lat="45.79556" lon="1.62957">
        <ele>386.6</ele>
        <time>2026-08-09T08:14:18.000Z</time>
      </trkpt>
      <trkpt lat="45.79557" lon="1.62968">
        <ele>386.4</ele>
        <time>2026-08-09T08:14:25.000Z</time>
      </trkpt>
      <trkpt lat="45.79558" lon="1.62968">
        <ele>386.4</ele>
        <time>2026-08-09T08:14:27.000Z</time>
      </trkpt>
      <trkpt lat="45.79561" lon="1.6295">
        <ele>387.4</ele>
        <time>2026-08-09T08:41:35.000Z</time>
      </trkpt>
      <trkpt lat="45.7956" lon="1.62948">
        <ele>387.4</ele>
        <time>2026-08-09T08:41:36.000Z</time>
      </trkpt>
      <trkpt lat="45.79556" lon="1.62926">
        <ele>387</ele>
        <time>2026-08-09T08:41:44.000Z</time>
      </trkpt>
      <trkpt lat="45.79553" lon="1.62904">
        <ele>387.4</ele>
        <time>2026-08-09T08:41:51.000Z</time>
      </trkpt>
      <trkpt lat="45.79553" lon="1.62889">
        <ele>387.9</ele>
        <time>2026-08-09T08:41:56.000Z</time>
      </trkpt>
      <trkpt lat="45.79552" lon="1.62881">
        <ele>387.9</ele>
        <time>2026-08-09T08:41:59.000Z</time>
      </trkpt>
      <trkpt lat="45.79552" lon="1.62875">
        <ele>387.9</ele>
        <time>2026-08-09T08:42:01.000Z</time>
      </trkpt>
      <trkpt lat="45.79557" lon="1.62857">
        <ele>388</ele>
        <time>2026-08-09T08:42:09.000Z</time>
      </trkpt>
      <trkpt lat="45.79565" lon="1.62836">
        <ele>388</ele>
        <time>2026-08-09T08:42:18.000Z</time>
      </trkpt>
      <trkpt lat="45.79575" lon="1.62813">
        <ele>387.7</ele>
        <time>2026-08-09T08:42:24.000Z</time>
      </trkpt>
      <trkpt lat="45.7958" lon="1.62783">
        <ele>387</ele>
        <time>2026-08-09T08:42:30.000Z</time>
      </trkpt>
      <trkpt lat="45.79583" lon="1.62747">
        <ele>385.9</ele>
        <time>2026-08-09T08:42:36.000Z</time>
      </trkpt>
      <trkpt lat="45.79585" lon="1.62733">
        <ele>385.4</ele>
        <time>2026-08-09T08:42:38.000Z</time>
      </trkpt>
      <trkpt lat="45.79584" lon="1.62713">
        <ele>384.7</ele>
        <time>2026-08-09T08:42:41.000Z</time>
      </trkpt>
      <trkpt lat="45.79579" lon="1.62684">
        <ele>383.6</ele>
        <time>2026-08-09T08:42:45.000Z</time>
      </trkpt>
      <trkpt lat="45.79578" lon="1.62677">
        <ele>383.4</ele>
        <time>2026-08-09T08:42:46.000Z</time>
      </trkpt>
      <trkpt lat="45.79576" lon="1.6267">
        <ele>383.1</ele>
        <time>2026-08-09T08:42:47.000Z</time>
      </trkpt>
      <trkpt lat="45.79573" lon="1.62649">
        <ele>382.2</ele>
        <time>2026-08-09T08:42:50.000Z</time>
      </trkpt>
      <trkpt lat="45.7957" lon="1.62622">
        <ele>381.1</ele>
        <time>2026-08-09T08:42:54.000Z</time>
      </trkpt>
      <trkpt lat="45.7957" lon="1.62616">
        <ele>380.7</ele>
        <time>2026-08-09T08:42:55.000Z</time>
      </trkpt>
      <trkpt lat="45.7957" lon="1.62609">
        <ele>380.5</ele>
        <time>2026-08-09T08:42:56.000Z</time>
      </trkpt>
      <trkpt lat="45.7957" lon="1.62591">
        <ele>380.1</ele>
        <time>2026-08-09T08:42:59.000Z</time>
      </trkpt>
      <trkpt lat="45.7957" lon="1.62586">
        <ele>380</ele>
        <time>2026-08-09T08:43:00.000Z</time>
      </trkpt>
      <trkpt lat="45.79569" lon="1.62577">
        <ele>379.5</ele>
        <time>2026-08-09T08:43:02.000Z</time>
      </trkpt>
      <trkpt lat="45.79568" lon="1.62569">
        <ele>378.8</ele>
        <time>2026-08-09T08:43:04.000Z</time>
      </trkpt>
      <trkpt lat="45.79568" lon="1.62561">
        <ele>378</ele>
        <time>2026-08-09T08:43:06.000Z</time>
      </trkpt>
      <trkpt lat="45.79568" lon="1.62553">
        <ele>377.4</ele>
        <time>2026-08-09T08:43:09.000Z</time>
      </trkpt>
      <trkpt lat="45.79568" lon="1.62553">
        <ele>377.4</ele>
        <time>2026-08-09T08:43:10.000Z</time>
      </trkpt>
      <trkpt lat="45.79568" lon="1.62553">
        <ele>377.4</ele>
        <time>2026-08-09T08:43:12.000Z</time>
      </trkpt>
      <trkpt lat="45.79562" lon="1.62542">
        <ele>376.9</ele>
        <time>2026-08-09T08:43:21.000Z</time>
      </trkpt>
      <trkpt lat="45.7955" lon="1.62527">
        <ele>376.2</ele>
        <time>2026-08-09T08:43:25.000Z</time>
      </trkpt>
      <trkpt lat="45.79539" lon="1.6251">
        <ele>375.3</ele>
        <time>2026-08-09T08:43:28.000Z</time>
      </trkpt>
      <trkpt lat="45.79533" lon="1.62497">
        <ele>374.7</ele>
        <time>2026-08-09T08:43:30.000Z</time>
      </trkpt>
      <trkpt lat="45.79525" lon="1.62483">
        <ele>373.8</ele>
        <time>2026-08-09T08:43:32.000Z</time>
      </trkpt>
      <trkpt lat="45.79514" lon="1.62463">
        <ele>372.8</ele>
        <time>2026-08-09T08:43:35.000Z</time>
      </trkpt>
      <trkpt lat="45.79502" lon="1.62442">
        <ele>373.2</ele>
        <time>2026-08-09T08:43:38.000Z</time>
      </trkpt>
      <trkpt lat="45.79496" lon="1.62435">
        <ele>373.3</ele>
        <time>2026-08-09T08:43:39.000Z</time>
      </trkpt>
      <trkpt lat="45.79487" lon="1.62423">
        <ele>373.5</ele>
        <time>2026-08-09T08:43:41.000Z</time>
      </trkpt>
      <trkpt lat="45.79473" lon="1.62411">
        <ele>373.3</ele>
        <time>2026-08-09T08:43:44.000Z</time>
      </trkpt>
      <trkpt lat="45.79468" lon="1.62409">
        <ele>373.1</ele>
        <time>2026-08-09T08:43:45.000Z</time>
      </trkpt>
      <trkpt lat="45.79435" lon="1.62397">
        <ele>373.4</ele>
        <time>2026-08-09T08:43:52.000Z</time>
      </trkpt>
      <trkpt lat="45.79395" lon="1.62382">
        <ele>372.4</ele>
        <time>2026-08-09T08:44:00.000Z</time>
      </trkpt>
      <trkpt lat="45.7939" lon="1.62379">
        <ele>372.1</ele>
        <time>2026-08-09T08:44:01.000Z</time>
      </trkpt>
      <trkpt lat="45.79379" lon="1.62373">
        <ele>371.4</ele>
        <time>2026-08-09T08:44:03.000Z</time>
      </trkpt>
      <trkpt lat="45.79362" lon="1.62359">
        <ele>370.4</ele>
        <time>2026-08-09T08:44:06.000Z</time>
      </trkpt>
      <trkpt lat="45.79351" lon="1.62349">
        <ele>370</ele>
        <time>2026-08-09T08:44:08.000Z</time>
      </trkpt>
      <trkpt lat="45.79346" lon="1.62344">
        <ele>369.9</ele>
        <time>2026-08-09T08:44:09.000Z</time>
      </trkpt>
      <trkpt lat="45.79337" lon="1.62331">
        <ele>369.6</ele>
        <time>2026-08-09T08:44:11.000Z</time>
      </trkpt>
      <trkpt lat="45.79328" lon="1.62319">
        <ele>369.2</ele>
        <time>2026-08-09T08:44:13.000Z</time>
      </trkpt>
      <trkpt lat="45.79308" lon="1.6229">
        <ele>368.9</ele>
        <time>2026-08-09T08:44:18.000Z</time>
      </trkpt>
      <trkpt lat="45.79293" lon="1.6227">
        <ele>369</ele>
        <time>2026-08-09T08:44:22.000Z</time>
      </trkpt>
      <trkpt lat="45.79286" lon="1.62261">
        <ele>369.3</ele>
        <time>2026-08-09T08:44:24.000Z</time>
      </trkpt>
      <trkpt lat="45.79261" lon="1.62234">
        <ele>369.7</ele>
        <time>2026-08-09T08:44:31.000Z</time>
      </trkpt>
      <trkpt lat="45.79252" lon="1.62225">
        <ele>369.8</ele>
        <time>2026-08-09T08:44:34.000Z</time>
      </trkpt>
      <trkpt lat="45.79239" lon="1.62215">
        <ele>370.8</ele>
        <time>2026-08-09T08:44:38.000Z</time>
      </trkpt>
      <trkpt lat="45.79221" lon="1.622">
        <ele>371.8</ele>
        <time>2026-08-09T08:44:45.000Z</time>
      </trkpt>
      <trkpt lat="45.79203" lon="1.62186">
        <ele>371.7</ele>
        <time>2026-08-09T08:44:52.000Z</time>
      </trkpt>
      <trkpt lat="45.79198" lon="1.62182">
        <ele>371.9</ele>
        <time>2026-08-09T08:44:54.000Z</time>
      </trkpt>
      <trkpt lat="45.79166" lon="1.62165">
        <ele>372.1</ele>
        <time>2026-08-09T08:45:05.000Z</time>
      </trkpt>
      <trkpt lat="45.79152" lon="1.6216">
        <ele>372.2</ele>
        <time>2026-08-09T08:45:10.000Z</time>
      </trkpt>
      <trkpt lat="45.79143" lon="1.62159">
        <ele>372.2</ele>
        <time>2026-08-09T08:45:13.000Z</time>
      </trkpt>
      <trkpt lat="45.79115" lon="1.62155">
        <ele>373.2</ele>
        <time>2026-08-09T08:45:22.000Z</time>
      </trkpt>
      <trkpt lat="45.79088" lon="1.62151">
        <ele>373.6</ele>
        <time>2026-08-09T08:45:31.000Z</time>
      </trkpt>
      <trkpt lat="45.79076" lon="1.62149">
        <ele>373.8</ele>
        <time>2026-08-09T08:45:35.000Z</time>
      </trkpt>
      <trkpt lat="45.79064" lon="1.62146">
        <ele>374.1</ele>
        <time>2026-08-09T08:45:39.000Z</time>
      </trkpt>
      <trkpt lat="45.79042" lon="1.62134">
        <ele>374.1</ele>
        <time>2026-08-09T08:45:47.000Z</time>
      </trkpt>
      <trkpt lat="45.79027" lon="1.62123">
        <ele>374.2</ele>
        <time>2026-08-09T08:45:52.000Z</time>
      </trkpt>
      <trkpt lat="45.79009" lon="1.62113">
        <ele>374.3</ele>
        <time>2026-08-09T08:45:57.000Z</time>
      </trkpt>
      <trkpt lat="45.79005" lon="1.62111">
        <ele>374.4</ele>
        <time>2026-08-09T08:45:58.000Z</time>
      </trkpt>
      <trkpt lat="45.78983" lon="1.62094">
        <ele>374.4</ele>
        <time>2026-08-09T08:46:05.000Z</time>
      </trkpt>
      <trkpt lat="45.78958" lon="1.62077">
        <ele>374.3</ele>
        <time>2026-08-09T08:46:12.000Z</time>
      </trkpt>
      <trkpt lat="45.78936" lon="1.62061">
        <ele>373.3</ele>
        <time>2026-08-09T08:46:17.000Z</time>
      </trkpt>
      <trkpt lat="45.789" lon="1.62035">
        <ele>371.2</ele>
        <time>2026-08-09T08:46:24.000Z</time>
      </trkpt>
      <trkpt lat="45.7887" lon="1.62017">
        <ele>370</ele>
        <time>2026-08-09T08:46:29.000Z</time>
      </trkpt>
      <trkpt lat="45.78857" lon="1.6201">
        <ele>369.6</ele>
        <time>2026-08-09T08:46:31.000Z</time>
      </trkpt>
      <trkpt lat="45.78816" lon="1.61993">
        <ele>368.4</ele>
        <time>2026-08-09T08:46:37.000Z</time>
      </trkpt>
      <trkpt lat="45.78802" lon="1.61987">
        <ele>367.5</ele>
        <time>2026-08-09T08:46:39.000Z</time>
      </trkpt>
      <trkpt lat="45.78771" lon="1.61975">
        <ele>366.1</ele>
        <time>2026-08-09T08:46:43.000Z</time>
      </trkpt>
      <trkpt lat="45.78763" lon="1.61972">
        <ele>365.9</ele>
        <time>2026-08-09T08:46:44.000Z</time>
      </trkpt>
      <trkpt lat="45.78741" lon="1.61961">
        <ele>364</ele>
        <time>2026-08-09T08:46:47.000Z</time>
      </trkpt>
      <trkpt lat="45.78734" lon="1.61955">
        <ele>363.3</ele>
        <time>2026-08-09T08:46:48.000Z</time>
      </trkpt>
      <trkpt lat="45.78727" lon="1.61948">
        <ele>363.1</ele>
        <time>2026-08-09T08:46:49.000Z</time>
      </trkpt>
      <trkpt lat="45.78721" lon="1.61941">
        <ele>363</ele>
        <time>2026-08-09T08:46:50.000Z</time>
      </trkpt>
      <trkpt lat="45.787" lon="1.61919">
        <ele>361.1</ele>
        <time>2026-08-09T08:46:53.000Z</time>
      </trkpt>
      <trkpt lat="45.78692" lon="1.61915">
        <ele>359.7</ele>
        <time>2026-08-09T08:46:54.000Z</time>
      </trkpt>
      <trkpt lat="45.78683" lon="1.61913">
        <ele>358.7</ele>
        <time>2026-08-09T08:46:55.000Z</time>
      </trkpt>
      <trkpt lat="45.78675" lon="1.61913">
        <ele>357.8</ele>
        <time>2026-08-09T08:46:56.000Z</time>
      </trkpt>
      <trkpt lat="45.78666" lon="1.61915">
        <ele>357.1</ele>
        <time>2026-08-09T08:46:57.000Z</time>
      </trkpt>
      <trkpt lat="45.78657" lon="1.61916">
        <ele>358.4</ele>
        <time>2026-08-09T08:46:58.000Z</time>
      </trkpt>
      <trkpt lat="45.78642" lon="1.61913">
        <ele>360.4</ele>
        <time>2026-08-09T08:47:00.000Z</time>
      </trkpt>
      <trkpt lat="45.78633" lon="1.619">
        <ele>361.3</ele>
        <time>2026-08-09T08:47:02.000Z</time>
      </trkpt>
      <trkpt lat="45.78631" lon="1.61892">
        <ele>361.3</ele>
        <time>2026-08-09T08:47:03.000Z</time>
      </trkpt>
      <trkpt lat="45.78624" lon="1.61871">
        <ele>361.2</ele>
        <time>2026-08-09T08:47:06.000Z</time>
      </trkpt>
      <trkpt lat="45.78621" lon="1.61858">
        <ele>361.1</ele>
        <time>2026-08-09T08:47:08.000Z</time>
      </trkpt>
      <trkpt lat="45.78612" lon="1.61816">
        <ele>361.9</ele>
        <time>2026-08-09T08:47:15.000Z</time>
      </trkpt>
      <trkpt lat="45.78608" lon="1.61797">
        <ele>362.2</ele>
        <time>2026-08-09T08:47:18.000Z</time>
      </trkpt>
      <trkpt lat="45.78609" lon="1.61777">
        <ele>361.3</ele>
        <time>2026-08-09T08:47:21.000Z</time>
      </trkpt>
      <trkpt lat="45.78614" lon="1.61729">
        <ele>362.7</ele>
        <time>2026-08-09T08:47:28.000Z</time>
      </trkpt>
      <trkpt lat="45.78617" lon="1.61707">
        <ele>363.5</ele>
        <time>2026-08-09T08:47:33.000Z</time>
      </trkpt>
      <trkpt lat="45.78619" lon="1.61693">
        <ele>364.1</ele>
        <time>2026-08-09T08:47:38.000Z</time>
      </trkpt>
      <trkpt lat="45.78619" lon="1.6169">
        <ele>364.3</ele>
        <time>2026-08-09T08:47:39.000Z</time>
      </trkpt>
      <trkpt lat="45.78621" lon="1.61677">
        <ele>365.2</ele>
        <time>2026-08-09T08:47:44.000Z</time>
      </trkpt>
      <trkpt lat="45.78622" lon="1.61672">
        <ele>365.6</ele>
        <time>2026-08-09T08:47:46.000Z</time>
      </trkpt>
      <trkpt lat="45.78624" lon="1.61657">
        <ele>366.6</ele>
        <time>2026-08-09T08:47:52.000Z</time>
      </trkpt>
      <trkpt lat="45.78624" lon="1.61652">
        <ele>366.8</ele>
        <time>2026-08-09T08:47:54.000Z</time>
      </trkpt>
      <trkpt lat="45.78625" lon="1.61634">
        <ele>367.6</ele>
        <time>2026-08-09T08:48:01.000Z</time>
      </trkpt>
      <trkpt lat="45.78622" lon="1.61616">
        <ele>368.1</ele>
        <time>2026-08-09T08:48:08.000Z</time>
      </trkpt>
      <trkpt lat="45.78621" lon="1.61611">
        <ele>368.3</ele>
        <time>2026-08-09T08:48:10.000Z</time>
      </trkpt>
      <trkpt lat="45.78616" lon="1.616">
        <ele>368.6</ele>
        <time>2026-08-09T08:48:15.000Z</time>
      </trkpt>
      <trkpt lat="45.78609" lon="1.61588">
        <ele>369.1</ele>
        <time>2026-08-09T08:48:21.000Z</time>
      </trkpt>
      <trkpt lat="45.78603" lon="1.61578">
        <ele>369.6</ele>
        <time>2026-08-09T08:48:26.000Z</time>
      </trkpt>
      <trkpt lat="45.78596" lon="1.61567">
        <ele>370.1</ele>
        <time>2026-08-09T08:48:32.000Z</time>
      </trkpt>
      <trkpt lat="45.7859" lon="1.61557">
        <ele>370.5</ele>
        <time>2026-08-09T08:48:37.000Z</time>
      </trkpt>
      <trkpt lat="45.78588" lon="1.61553">
        <ele>370.8</ele>
        <time>2026-08-09T08:48:39.000Z</time>
      </trkpt>
      <trkpt lat="45.78582" lon="1.61543">
        <ele>372</ele>
        <time>2026-08-09T08:48:44.000Z</time>
      </trkpt>
      <trkpt lat="45.78577" lon="1.61533">
        <ele>373.1</ele>
        <time>2026-08-09T08:48:49.000Z</time>
      </trkpt>
      <trkpt lat="45.78574" lon="1.61528">
        <ele>373.7</ele>
        <time>2026-08-09T08:48:52.000Z</time>
      </trkpt>
      <trkpt lat="45.78568" lon="1.61517">
        <ele>374.1</ele>
        <time>2026-08-09T08:48:57.000Z</time>
      </trkpt>
      <trkpt lat="45.78565" lon="1.6151">
        <ele>374.3</ele>
        <time>2026-08-09T08:49:00.000Z</time>
      </trkpt>
      <trkpt lat="45.7856" lon="1.61496">
        <ele>374.7</ele>
        <time>2026-08-09T08:49:06.000Z</time>
      </trkpt>
      <trkpt lat="45.78557" lon="1.61489">
        <ele>374.9</ele>
        <time>2026-08-09T08:49:09.000Z</time>
      </trkpt>
      <trkpt lat="45.78551" lon="1.61476">
        <ele>375.5</ele>
        <time>2026-08-09T08:49:15.000Z</time>
      </trkpt>
      <trkpt lat="45.78549" lon="1.61472">
        <ele>375.7</ele>
        <time>2026-08-09T08:49:17.000Z</time>
      </trkpt>
      <trkpt lat="45.78541" lon="1.61455">
        <ele>376.2</ele>
        <time>2026-08-09T08:49:25.000Z</time>
      </trkpt>
      <trkpt lat="45.78536" lon="1.61443">
        <ele>376.3</ele>
        <time>2026-08-09T08:49:30.000Z</time>
      </trkpt>
      <trkpt lat="45.7853" lon="1.61426">
        <ele>376.2</ele>
        <time>2026-08-09T08:49:36.000Z</time>
      </trkpt>
      <trkpt lat="45.78528" lon="1.6142">
        <ele>376.1</ele>
        <time>2026-08-09T08:49:38.000Z</time>
      </trkpt>
      <trkpt lat="45.78515" lon="1.61384">
        <ele>376.2</ele>
        <time>2026-08-09T08:49:48.000Z</time>
      </trkpt>
      <trkpt lat="45.78504" lon="1.61353">
        <ele>376.1</ele>
        <time>2026-08-09T08:49:56.000Z</time>
      </trkpt>
      <trkpt lat="45.78497" lon="1.61335">
        <ele>375.4</ele>
        <time>2026-08-09T08:50:00.000Z</time>
      </trkpt>
      <trkpt lat="45.78494" lon="1.61326">
        <ele>375.2</ele>
        <time>2026-08-09T08:50:02.000Z</time>
      </trkpt>
      <trkpt lat="45.78479" lon="1.61288">
        <ele>375.5</ele>
        <time>2026-08-09T08:50:10.000Z</time>
      </trkpt>
      <trkpt lat="45.78464" lon="1.61246">
        <ele>376.6</ele>
        <time>2026-08-09T08:50:19.000Z</time>
      </trkpt>
      <trkpt lat="45.78458" lon="1.61228">
        <ele>377</ele>
        <time>2026-08-09T08:50:23.000Z</time>
      </trkpt>
      <trkpt lat="45.78453" lon="1.61215">
        <ele>377.1</ele>
        <time>2026-08-09T08:50:26.000Z</time>
      </trkpt>
      <trkpt lat="45.78436" lon="1.6118">
        <ele>376.6</ele>
        <time>2026-08-09T08:50:34.000Z</time>
      </trkpt>
      <trkpt lat="45.78417" lon="1.61149">
        <ele>375.4</ele>
        <time>2026-08-09T08:50:39.000Z</time>
      </trkpt>
      <trkpt lat="45.78383" lon="1.61094">
        <ele>372.4</ele>
        <time>2026-08-09T08:50:47.000Z</time>
      </trkpt>
      <trkpt lat="45.78374" lon="1.61079">
        <ele>371.8</ele>
        <time>2026-08-09T08:50:49.000Z</time>
      </trkpt>
      <trkpt lat="45.7836" lon="1.61042">
        <ele>370.5</ele>
        <time>2026-08-09T08:50:53.000Z</time>
      </trkpt>
      <trkpt lat="45.78349" lon="1.60993">
        <ele>370.3</ele>
        <time>2026-08-09T08:50:58.000Z</time>
      </trkpt>
      <trkpt lat="45.78347" lon="1.60984">
        <ele>370.3</ele>
        <time>2026-08-09T08:50:59.000Z</time>
      </trkpt>
      <trkpt lat="45.78339" lon="1.60947">
        <ele>370.6</ele>
        <time>2026-08-09T08:51:04.000Z</time>
      </trkpt>
      <trkpt lat="45.78337" lon="1.60941">
        <ele>370.7</ele>
        <time>2026-08-09T08:51:05.000Z</time>
      </trkpt>
      <trkpt lat="45.78336" lon="1.60935">
        <ele>370.8</ele>
        <time>2026-08-09T08:51:06.000Z</time>
      </trkpt>
      <trkpt lat="45.78334" lon="1.60921">
        <ele>370.9</ele>
        <time>2026-08-09T08:51:09.000Z</time>
      </trkpt>
      <trkpt lat="45.78331" lon="1.60904">
        <ele>371.2</ele>
        <time>2026-08-09T08:51:14.000Z</time>
      </trkpt>
      <trkpt lat="45.78331" lon="1.60901">
        <ele>371.2</ele>
        <time>2026-08-09T08:51:15.000Z</time>
      </trkpt>
      <trkpt lat="45.78327" lon="1.60886">
        <ele>371.7</ele>
        <time>2026-08-09T08:51:20.000Z</time>
      </trkpt>
      <trkpt lat="45.78322" lon="1.60875">
        <ele>372.2</ele>
        <time>2026-08-09T08:51:24.000Z</time>
      </trkpt>
      <trkpt lat="45.78316" lon="1.60867">
        <ele>372.8</ele>
        <time>2026-08-09T08:51:27.000Z</time>
      </trkpt>
      <trkpt lat="45.7831" lon="1.60849">
        <ele>373.9</ele>
        <time>2026-08-09T08:51:33.000Z</time>
      </trkpt>
      <trkpt lat="45.78308" lon="1.60842">
        <ele>374.4</ele>
        <time>2026-08-09T08:51:35.000Z</time>
      </trkpt>
      <trkpt lat="45.78302" lon="1.60814">
        <ele>376.1</ele>
        <time>2026-08-09T08:51:44.000Z</time>
      </trkpt>
      <trkpt lat="45.78293" lon="1.60781">
        <ele>377.3</ele>
        <time>2026-08-09T08:51:55.000Z</time>
      </trkpt>
      <trkpt lat="45.78291" lon="1.60768">
        <ele>377.7</ele>
        <time>2026-08-09T08:51:59.000Z</time>
      </trkpt>
      <trkpt lat="45.78288" lon="1.60754">
        <ele>378.2</ele>
        <time>2026-08-09T08:52:04.000Z</time>
      </trkpt>
      <trkpt lat="45.78283" lon="1.6073">
        <ele>378.6</ele>
        <time>2026-08-09T08:52:12.000Z</time>
      </trkpt>
      <trkpt lat="45.78277" lon="1.60704">
        <ele>379.7</ele>
        <time>2026-08-09T08:52:19.000Z</time>
      </trkpt>
      <trkpt lat="45.78269" lon="1.60672">
        <ele>380.3</ele>
        <time>2026-08-09T08:52:28.000Z</time>
      </trkpt>
      <trkpt lat="45.78264" lon="1.6065">
        <ele>381.1</ele>
        <time>2026-08-09T08:52:35.000Z</time>
      </trkpt>
      <trkpt lat="45.7826" lon="1.60631">
        <ele>381.7</ele>
        <time>2026-08-09T08:52:41.000Z</time>
      </trkpt>
      <trkpt lat="45.78257" lon="1.60622">
        <ele>381.9</ele>
        <time>2026-08-09T08:52:44.000Z</time>
      </trkpt>
      <trkpt lat="45.78247" lon="1.60584">
        <ele>382</ele>
        <time>2026-08-09T08:52:55.000Z</time>
      </trkpt>
      <trkpt lat="45.78244" lon="1.60577">
        <ele>382</ele>
        <time>2026-08-09T08:52:57.000Z</time>
      </trkpt>
      <trkpt lat="45.78233" lon="1.60533">
        <ele>381.1</ele>
        <time>2026-08-09T08:53:07.000Z</time>
      </trkpt>
      <trkpt lat="45.78222" lon="1.6049">
        <ele>381</ele>
        <time>2026-08-09T08:53:15.000Z</time>
      </trkpt>
      <trkpt lat="45.78207" lon="1.60435">
        <ele>380.6</ele>
        <time>2026-08-09T08:53:25.000Z</time>
      </trkpt>
      <trkpt lat="45.78196" lon="1.60394">
        <ele>382.6</ele>
        <time>2026-08-09T08:53:34.000Z</time>
      </trkpt>
      <trkpt lat="45.78191" lon="1.60372">
        <ele>383</ele>
        <time>2026-08-09T08:53:40.000Z</time>
      </trkpt>
      <trkpt lat="45.78189" lon="1.60362">
        <ele>383</ele>
        <time>2026-08-09T08:53:43.000Z</time>
      </trkpt>
      <trkpt lat="45.78186" lon="1.60346">
        <ele>383.9</ele>
        <time>2026-08-09T08:53:48.000Z</time>
      </trkpt>
      <trkpt lat="45.78181" lon="1.60329">
        <ele>384.7</ele>
        <time>2026-08-09T08:53:53.000Z</time>
      </trkpt>
      <trkpt lat="45.78178" lon="1.6032">
        <ele>384.9</ele>
        <time>2026-08-09T08:53:56.000Z</time>
      </trkpt>
      <trkpt lat="45.78173" lon="1.603">
        <ele>385.4</ele>
        <time>2026-08-09T08:54:02.000Z</time>
      </trkpt>
      <trkpt lat="45.7817" lon="1.6029">
        <ele>385.7</ele>
        <time>2026-08-09T08:54:05.000Z</time>
      </trkpt>
      <trkpt lat="45.78162" lon="1.60265">
        <ele>386.2</ele>
        <time>2026-08-09T08:54:12.000Z</time>
      </trkpt>
      <trkpt lat="45.78155" lon="1.60234">
        <ele>386.4</ele>
        <time>2026-08-09T08:54:20.000Z</time>
      </trkpt>
      <trkpt lat="45.78141" lon="1.60187">
        <ele>386.3</ele>
        <time>2026-08-09T08:54:31.000Z</time>
      </trkpt>
      <trkpt lat="45.78138" lon="1.60175">
        <ele>386.7</ele>
        <time>2026-08-09T08:54:34.000Z</time>
      </trkpt>
      <trkpt lat="45.78129" lon="1.60142">
        <ele>386.7</ele>
        <time>2026-08-09T08:54:42.000Z</time>
      </trkpt>
      <trkpt lat="45.78121" lon="1.60112">
        <ele>385.4</ele>
        <time>2026-08-09T08:54:47.000Z</time>
      </trkpt>
      <trkpt lat="45.78119" lon="1.60105">
        <ele>385</ele>
        <time>2026-08-09T08:54:48.000Z</time>
      </trkpt>
      <trkpt lat="45.78111" lon="1.60073">
        <ele>384</ele>
        <time>2026-08-09T08:54:52.000Z</time>
      </trkpt>
      <trkpt lat="45.78095" lon="1.60017">
        <ele>382.6</ele>
        <time>2026-08-09T08:54:58.000Z</time>
      </trkpt>
      <trkpt lat="45.78092" lon="1.60008">
        <ele>382.3</ele>
        <time>2026-08-09T08:54:59.000Z</time>
      </trkpt>
      <trkpt lat="45.78074" lon="1.5994">
        <ele>380.8</ele>
        <time>2026-08-09T08:55:06.000Z</time>
      </trkpt>
      <trkpt lat="45.78071" lon="1.5993">
        <ele>380.5</ele>
        <time>2026-08-09T08:55:07.000Z</time>
      </trkpt>
      <trkpt lat="45.78064" lon="1.599">
        <ele>380</ele>
        <time>2026-08-09T08:55:10.000Z</time>
      </trkpt>
      <trkpt lat="45.78049" lon="1.59845">
        <ele>379.9</ele>
        <time>2026-08-09T08:55:16.000Z</time>
      </trkpt>
      <trkpt lat="45.78042" lon="1.59818">
        <ele>379.7</ele>
        <time>2026-08-09T08:55:19.000Z</time>
      </trkpt>
      <trkpt lat="45.78031" lon="1.59778">
        <ele>380</ele>
        <time>2026-08-09T08:55:24.000Z</time>
      </trkpt>
      <trkpt lat="45.78009" lon="1.59701">
        <ele>379.3</ele>
        <time>2026-08-09T08:55:34.000Z</time>
      </trkpt>
      <trkpt lat="45.78007" lon="1.59694">
        <ele>379.3</ele>
        <time>2026-08-09T08:55:35.000Z</time>
      </trkpt>
      <trkpt lat="45.77989" lon="1.59627">
        <ele>379.3</ele>
        <time>2026-08-09T08:55:44.000Z</time>
      </trkpt>
      <trkpt lat="45.77976" lon="1.59576">
        <ele>379</ele>
        <time>2026-08-09T08:55:51.000Z</time>
      </trkpt>
      <trkpt lat="45.77958" lon="1.59509">
        <ele>379</ele>
        <time>2026-08-09T08:56:01.000Z</time>
      </trkpt>
      <trkpt lat="45.77954" lon="1.59496">
        <ele>379.1</ele>
        <time>2026-08-09T08:56:03.000Z</time>
      </trkpt>
      <trkpt lat="45.77944" lon="1.5945">
        <ele>380</ele>
        <time>2026-08-09T08:56:10.000Z</time>
      </trkpt>
      <trkpt lat="45.77938" lon="1.59389">
        <ele>380.2</ele>
        <time>2026-08-09T08:56:20.000Z</time>
      </trkpt>
      <trkpt lat="45.77938" lon="1.59345">
        <ele>381</ele>
        <time>2026-08-09T08:56:28.000Z</time>
      </trkpt>
      <trkpt lat="45.7794" lon="1.59299">
        <ele>382</ele>
        <time>2026-08-09T08:56:37.000Z</time>
      </trkpt>
      <trkpt lat="45.77941" lon="1.59289">
        <ele>382.1</ele>
        <time>2026-08-09T08:56:39.000Z</time>
      </trkpt>
      <trkpt lat="45.77943" lon="1.59253">
        <ele>382.9</ele>
        <time>2026-08-09T08:56:47.000Z</time>
      </trkpt>
      <trkpt lat="45.77944" lon="1.59235">
        <ele>383.5</ele>
        <time>2026-08-09T08:56:51.000Z</time>
      </trkpt>
      <trkpt lat="45.77947" lon="1.59202">
        <ele>384</ele>
        <time>2026-08-09T08:56:58.000Z</time>
      </trkpt>
      <trkpt lat="45.77948" lon="1.59193">
        <ele>384</ele>
        <time>2026-08-09T08:57:00.000Z</time>
      </trkpt>
      <trkpt lat="45.7795" lon="1.59165">
        <ele>385</ele>
        <time>2026-08-09T08:57:06.000Z</time>
      </trkpt>
      <trkpt lat="45.77955" lon="1.59123">
        <ele>385.4</ele>
        <time>2026-08-09T08:57:15.000Z</time>
      </trkpt>
      <trkpt lat="45.77964" lon="1.59091">
        <ele>385</ele>
        <time>2026-08-09T08:57:22.000Z</time>
      </trkpt>
      <trkpt lat="45.77982" lon="1.59048">
        <ele>383.8</ele>
        <time>2026-08-09T08:57:30.000Z</time>
      </trkpt>
      <trkpt lat="45.77997" lon="1.59015">
        <ele>383.4</ele>
        <time>2026-08-09T08:57:35.000Z</time>
      </trkpt>
      <trkpt lat="45.78021" lon="1.58959">
        <ele>381.4</ele>
        <time>2026-08-09T08:57:42.000Z</time>
      </trkpt>
      <trkpt lat="45.78025" lon="1.58951">
        <ele>381.1</ele>
        <time>2026-08-09T08:57:43.000Z</time>
      </trkpt>
      <trkpt lat="45.78043" lon="1.58908">
        <ele>380.4</ele>
        <time>2026-08-09T08:57:48.000Z</time>
      </trkpt>
      <trkpt lat="45.78051" lon="1.58891">
        <ele>380.6</ele>
        <time>2026-08-09T08:57:50.000Z</time>
      </trkpt>
      <trkpt lat="45.78058" lon="1.58874">
        <ele>380.5</ele>
        <time>2026-08-09T08:57:52.000Z</time>
      </trkpt>
      <trkpt lat="45.78076" lon="1.58833">
        <ele>379.7</ele>
        <time>2026-08-09T08:57:57.000Z</time>
      </trkpt>
      <trkpt lat="45.78089" lon="1.58807">
        <ele>379.2</ele>
        <time>2026-08-09T08:58:00.000Z</time>
      </trkpt>
      <trkpt lat="45.78122" lon="1.58768">
        <ele>378.1</ele>
        <time>2026-08-09T08:58:06.000Z</time>
      </trkpt>
      <trkpt lat="45.7817" lon="1.58721">
        <ele>376.9</ele>
        <time>2026-08-09T08:58:14.000Z</time>
      </trkpt>
      <trkpt lat="45.78176" lon="1.58714">
        <ele>376.5</ele>
        <time>2026-08-09T08:58:15.000Z</time>
      </trkpt>
      <trkpt lat="45.78181" lon="1.58706">
        <ele>376.2</ele>
        <time>2026-08-09T08:58:16.000Z</time>
      </trkpt>
      <trkpt lat="45.78204" lon="1.58674">
        <ele>374.8</ele>
        <time>2026-08-09T08:58:20.000Z</time>
      </trkpt>
      <trkpt lat="45.78227" lon="1.58642">
        <ele>373.4</ele>
        <time>2026-08-09T08:58:24.000Z</time>
      </trkpt>
      <trkpt lat="45.78233" lon="1.58633">
        <ele>373.1</ele>
        <time>2026-08-09T08:58:25.000Z</time>
      </trkpt>
      <trkpt lat="45.78252" lon="1.58607">
        <ele>372</ele>
        <time>2026-08-09T08:58:28.000Z</time>
      </trkpt>
      <trkpt lat="45.78268" lon="1.58578">
        <ele>371.3</ele>
        <time>2026-08-09T08:58:31.000Z</time>
      </trkpt>
      <trkpt lat="45.78272" lon="1.58567">
        <ele>371.1</ele>
        <time>2026-08-09T08:58:32.000Z</time>
      </trkpt>
      <trkpt lat="45.78287" lon="1.58523">
        <ele>370.6</ele>
        <time>2026-08-09T08:58:36.000Z</time>
      </trkpt>
      <trkpt lat="45.78297" lon="1.5849">
        <ele>369.7</ele>
        <time>2026-08-09T08:58:39.000Z</time>
      </trkpt>
      <trkpt lat="45.78308" lon="1.58471">
        <ele>368.9</ele>
        <time>2026-08-09T08:58:41.000Z</time>
      </trkpt>
      <trkpt lat="45.78319" lon="1.58457">
        <ele>368.5</ele>
        <time>2026-08-09T08:58:43.000Z</time>
      </trkpt>
      <trkpt lat="45.78347" lon="1.58415">
        <ele>366.4</ele>
        <time>2026-08-09T08:58:48.000Z</time>
      </trkpt>
      <trkpt lat="45.78358" lon="1.58397">
        <ele>365.2</ele>
        <time>2026-08-09T08:58:50.000Z</time>
      </trkpt>
      <trkpt lat="45.78376" lon="1.58366">
        <ele>363</ele>
        <time>2026-08-09T08:58:53.000Z</time>
      </trkpt>
      <trkpt lat="45.78389" lon="1.58345">
        <ele>361.4</ele>
        <time>2026-08-09T08:58:55.000Z</time>
      </trkpt>
      <trkpt lat="45.78395" lon="1.58333">
        <ele>360.6</ele>
        <time>2026-08-09T08:58:56.000Z</time>
      </trkpt>
      <trkpt lat="45.78401" lon="1.58321">
        <ele>359.3</ele>
        <time>2026-08-09T08:58:57.000Z</time>
      </trkpt>
      <trkpt lat="45.78414" lon="1.58298">
        <ele>356.9</ele>
        <time>2026-08-09T08:58:59.000Z</time>
      </trkpt>
      <trkpt lat="45.78427" lon="1.58275">
        <ele>355.1</ele>
        <time>2026-08-09T08:59:01.000Z</time>
      </trkpt>
      <trkpt lat="45.78439" lon="1.58254">
        <ele>353.4</ele>
        <time>2026-08-09T08:59:03.000Z</time>
      </trkpt>
      <trkpt lat="45.78447" lon="1.5824">
        <ele>352.6</ele>
        <time>2026-08-09T08:59:04.000Z</time>
      </trkpt>
      <trkpt lat="45.78461" lon="1.58216">
        <ele>351.8</ele>
        <time>2026-08-09T08:59:06.000Z</time>
      </trkpt>
      <trkpt lat="45.78467" lon="1.58205">
        <ele>351.4</ele>
        <time>2026-08-09T08:59:07.000Z</time>
      </trkpt>
      <trkpt lat="45.7848" lon="1.58182">
        <ele>350.6</ele>
        <time>2026-08-09T08:59:09.000Z</time>
      </trkpt>
      <trkpt lat="45.78492" lon="1.58161">
        <ele>349.9</ele>
        <time>2026-08-09T08:59:11.000Z</time>
      </trkpt>
      <trkpt lat="45.78505" lon="1.58136">
        <ele>349.8</ele>
        <time>2026-08-09T08:59:13.000Z</time>
      </trkpt>
      <trkpt lat="45.78517" lon="1.58114">
        <ele>348.8</ele>
        <time>2026-08-09T08:59:15.000Z</time>
      </trkpt>
      <trkpt lat="45.78529" lon="1.58093">
        <ele>349</ele>
        <time>2026-08-09T08:59:17.000Z</time>
      </trkpt>
      <trkpt lat="45.78534" lon="1.58082">
        <ele>349</ele>
        <time>2026-08-09T08:59:18.000Z</time>
      </trkpt>
      <trkpt lat="45.78545" lon="1.58062">
        <ele>348.7</ele>
        <time>2026-08-09T08:59:20.000Z</time>
      </trkpt>
      <trkpt lat="45.78562" lon="1.58023">
        <ele>349</ele>
        <time>2026-08-09T08:59:24.000Z</time>
      </trkpt>
      <trkpt lat="45.78572" lon="1.57984">
        <ele>349.3</ele>
        <time>2026-08-09T08:59:28.000Z</time>
      </trkpt>
      <trkpt lat="45.78578" lon="1.57933">
        <ele>349.9</ele>
        <time>2026-08-09T08:59:34.000Z</time>
      </trkpt>
      <trkpt lat="45.78585" lon="1.57872">
        <ele>348.9</ele>
        <time>2026-08-09T08:59:42.000Z</time>
      </trkpt>
      <trkpt lat="45.78587" lon="1.57856">
        <ele>348.6</ele>
        <time>2026-08-09T08:59:44.000Z</time>
      </trkpt>
      <trkpt lat="45.78588" lon="1.57848">
        <ele>348.2</ele>
        <time>2026-08-09T08:59:45.000Z</time>
      </trkpt>
      <trkpt lat="45.78592" lon="1.5782">
        <ele>346.6</ele>
        <time>2026-08-09T08:59:48.000Z</time>
      </trkpt>
      <trkpt lat="45.78595" lon="1.57797">
        <ele>345</ele>
        <time>2026-08-09T08:59:50.000Z</time>
      </trkpt>
      <trkpt lat="45.78599" lon="1.57759">
        <ele>341.7</ele>
        <time>2026-08-09T08:59:53.000Z</time>
      </trkpt>
      <trkpt lat="45.78601" lon="1.57745">
        <ele>340.6</ele>
        <time>2026-08-09T08:59:54.000Z</time>
      </trkpt>
      <trkpt lat="45.78605" lon="1.57715">
        <ele>338.5</ele>
        <time>2026-08-09T08:59:56.000Z</time>
      </trkpt>
      <trkpt lat="45.78608" lon="1.57684">
        <ele>336.2</ele>
        <time>2026-08-09T08:59:58.000Z</time>
      </trkpt>
      <trkpt lat="45.78612" lon="1.57652">
        <ele>334</ele>
        <time>2026-08-09T09:00:00.000Z</time>
      </trkpt>
      <trkpt lat="45.78614" lon="1.57636">
        <ele>332.8</ele>
        <time>2026-08-09T09:00:01.000Z</time>
      </trkpt>
      <trkpt lat="45.78617" lon="1.57603">
        <ele>330.9</ele>
        <time>2026-08-09T09:00:03.000Z</time>
      </trkpt>
      <trkpt lat="45.78621" lon="1.57571">
        <ele>329.7</ele>
        <time>2026-08-09T09:00:05.000Z</time>
      </trkpt>
      <trkpt lat="45.78623" lon="1.57556">
        <ele>329.4</ele>
        <time>2026-08-09T09:00:06.000Z</time>
      </trkpt>
      <trkpt lat="45.78625" lon="1.57541">
        <ele>329.2</ele>
        <time>2026-08-09T09:00:07.000Z</time>
      </trkpt>
      <trkpt lat="45.78628" lon="1.57512">
        <ele>328.4</ele>
        <time>2026-08-09T09:00:09.000Z</time>
      </trkpt>
      <trkpt lat="45.78632" lon="1.57484">
        <ele>327.4</ele>
        <time>2026-08-09T09:00:11.000Z</time>
      </trkpt>
      <trkpt lat="45.78633" lon="1.5747">
        <ele>326.9</ele>
        <time>2026-08-09T09:00:12.000Z</time>
      </trkpt>
      <trkpt lat="45.78634" lon="1.57456">
        <ele>326.4</ele>
        <time>2026-08-09T09:00:13.000Z</time>
      </trkpt>
      <trkpt lat="45.78637" lon="1.5743">
        <ele>325.5</ele>
        <time>2026-08-09T09:00:15.000Z</time>
      </trkpt>
      <trkpt lat="45.78642" lon="1.5739">
        <ele>323.1</ele>
        <time>2026-08-09T09:00:18.000Z</time>
      </trkpt>
      <trkpt lat="45.78643" lon="1.57377">
        <ele>322.5</ele>
        <time>2026-08-09T09:00:19.000Z</time>
      </trkpt>
      <trkpt lat="45.78644" lon="1.5735">
        <ele>321.4</ele>
        <time>2026-08-09T09:00:21.000Z</time>
      </trkpt>
      <trkpt lat="45.78643" lon="1.57336">
        <ele>321</ele>
        <time>2026-08-09T09:00:22.000Z</time>
      </trkpt>
      <trkpt lat="45.78641" lon="1.57323">
        <ele>320.9</ele>
        <time>2026-08-09T09:00:23.000Z</time>
      </trkpt>
      <trkpt lat="45.78639" lon="1.57311">
        <ele>321</ele>
        <time>2026-08-09T09:00:24.000Z</time>
      </trkpt>
      <trkpt lat="45.78632" lon="1.57287">
        <ele>320.3</ele>
        <time>2026-08-09T09:00:26.000Z</time>
      </trkpt>
      <trkpt lat="45.78627" lon="1.57277">
        <ele>320.4</ele>
        <time>2026-08-09T09:00:27.000Z</time>
      </trkpt>
      <trkpt lat="45.7861" lon="1.57251">
        <ele>321</ele>
        <time>2026-08-09T09:00:30.000Z</time>
      </trkpt>
      <trkpt lat="45.78604" lon="1.57244">
        <ele>320.9</ele>
        <time>2026-08-09T09:00:31.000Z</time>
      </trkpt>
      <trkpt lat="45.78583" lon="1.57223">
        <ele>321.9</ele>
        <time>2026-08-09T09:00:35.000Z</time>
      </trkpt>
      <trkpt lat="45.78578" lon="1.57218">
        <ele>321.8</ele>
        <time>2026-08-09T09:00:36.000Z</time>
      </trkpt>
      <trkpt lat="45.78557" lon="1.57189">
        <ele>323.1</ele>
        <time>2026-08-09T09:00:42.000Z</time>
      </trkpt>
      <trkpt lat="45.78552" lon="1.5718">
        <ele>323.6</ele>
        <time>2026-08-09T09:00:44.000Z</time>
      </trkpt>
      <trkpt lat="45.78547" lon="1.57161">
        <ele>324.5</ele>
        <time>2026-08-09T09:00:48.000Z</time>
      </trkpt>
      <trkpt lat="45.78544" lon="1.5714">
        <ele>325.3</ele>
        <time>2026-08-09T09:00:53.000Z</time>
      </trkpt>
      <trkpt lat="45.78543" lon="1.57136">
        <ele>325.4</ele>
        <time>2026-08-09T09:00:54.000Z</time>
      </trkpt>
      <trkpt lat="45.78543" lon="1.57112">
        <ele>326.3</ele>
        <time>2026-08-09T09:01:01.000Z</time>
      </trkpt>
      <trkpt lat="45.78543" lon="1.57108">
        <ele>326.6</ele>
        <time>2026-08-09T09:01:02.000Z</time>
      </trkpt>
      <trkpt lat="45.78547" lon="1.5709">
        <ele>327.5</ele>
        <time>2026-08-09T09:01:08.000Z</time>
      </trkpt>
      <trkpt lat="45.7855" lon="1.57078">
        <ele>328</ele>
        <time>2026-08-09T09:01:12.000Z</time>
      </trkpt>
      <trkpt lat="45.78555" lon="1.57065">
        <ele>328.4</ele>
        <time>2026-08-09T09:01:17.000Z</time>
      </trkpt>
      <trkpt lat="45.78563" lon="1.57049">
        <ele>329.2</ele>
        <time>2026-08-09T09:01:24.000Z</time>
      </trkpt>
      <trkpt lat="45.78569" lon="1.57041">
        <ele>329.6</ele>
        <time>2026-08-09T09:01:28.000Z</time>
      </trkpt>
      <trkpt lat="45.78577" lon="1.57035">
        <ele>329.8</ele>
        <time>2026-08-09T09:01:32.000Z</time>
      </trkpt>
      <trkpt lat="45.78581" lon="1.5703">
        <ele>329.9</ele>
        <time>2026-08-09T09:01:35.000Z</time>
      </trkpt>
      <trkpt lat="45.78592" lon="1.5702">
        <ele>330.8</ele>
        <time>2026-08-09T09:01:42.000Z</time>
      </trkpt>
      <trkpt lat="45.78595" lon="1.57018">
        <ele>331</ele>
        <time>2026-08-09T09:01:44.000Z</time>
      </trkpt>
      <trkpt lat="45.78603" lon="1.57011">
        <ele>331.8</ele>
        <time>2026-08-09T09:01:49.000Z</time>
      </trkpt>
      <trkpt lat="45.78607" lon="1.57007">
        <ele>332.2</ele>
        <time>2026-08-09T09:01:52.000Z</time>
      </trkpt>
      <trkpt lat="45.78617" lon="1.57001">
        <ele>333.1</ele>
        <time>2026-08-09T09:01:58.000Z</time>
      </trkpt>
      <trkpt lat="45.78623" lon="1.56996">
        <ele>333.7</ele>
        <time>2026-08-09T09:02:02.000Z</time>
      </trkpt>
      <trkpt lat="45.78634" lon="1.56988">
        <ele>334.7</ele>
        <time>2026-08-09T09:02:09.000Z</time>
      </trkpt>
      <trkpt lat="45.78636" lon="1.56988">
        <ele>334.8</ele>
        <time>2026-08-09T09:02:10.000Z</time>
      </trkpt>
      <trkpt lat="45.78647" lon="1.56981">
        <ele>335.6</ele>
        <time>2026-08-09T09:02:17.000Z</time>
      </trkpt>
      <trkpt lat="45.78651" lon="1.56979">
        <ele>336</ele>
        <time>2026-08-09T09:02:20.000Z</time>
      </trkpt>
      <trkpt lat="45.78658" lon="1.56975">
        <ele>336.5</ele>
        <time>2026-08-09T09:02:24.000Z</time>
      </trkpt>
      <trkpt lat="45.78663" lon="1.56971">
        <ele>337</ele>
        <time>2026-08-09T09:02:28.000Z</time>
      </trkpt>
      <trkpt lat="45.7867" lon="1.56966">
        <ele>337.6</ele>
        <time>2026-08-09T09:02:33.000Z</time>
      </trkpt>
      <trkpt lat="45.78676" lon="1.56962">
        <ele>338.1</ele>
        <time>2026-08-09T09:02:37.000Z</time>
      </trkpt>
      <trkpt lat="45.78682" lon="1.56956">
        <ele>338.7</ele>
        <time>2026-08-09T09:02:41.000Z</time>
      </trkpt>
      <trkpt lat="45.7869" lon="1.56947">
        <ele>339.7</ele>
        <time>2026-08-09T09:02:48.000Z</time>
      </trkpt>
      <trkpt lat="45.78691" lon="1.56945">
        <ele>339.9</ele>
        <time>2026-08-09T09:02:49.000Z</time>
      </trkpt>
      <trkpt lat="45.78699" lon="1.56934">
        <ele>341</ele>
        <time>2026-08-09T09:02:56.000Z</time>
      </trkpt>
      <trkpt lat="45.78701" lon="1.56932">
        <ele>341.1</ele>
        <time>2026-08-09T09:02:57.000Z</time>
      </trkpt>
      <trkpt lat="45.78707" lon="1.5692">
        <ele>342.2</ele>
        <time>2026-08-09T09:03:03.000Z</time>
      </trkpt>
      <trkpt lat="45.78709" lon="1.56915">
        <ele>342.7</ele>
        <time>2026-08-09T09:03:06.000Z</time>
      </trkpt>
      <trkpt lat="45.78712" lon="1.5691">
        <ele>343.3</ele>
        <time>2026-08-09T09:03:09.000Z</time>
      </trkpt>
      <trkpt lat="45.78719" lon="1.569">
        <ele>344.7</ele>
        <time>2026-08-09T09:03:16.000Z</time>
      </trkpt>
      <trkpt lat="45.7872" lon="1.56897">
        <ele>345.1</ele>
        <time>2026-08-09T09:03:18.000Z</time>
      </trkpt>
      <trkpt lat="45.78725" lon="1.56888">
        <ele>346.1</ele>
        <time>2026-08-09T09:03:23.000Z</time>
      </trkpt>
      <trkpt lat="45.78728" lon="1.56882">
        <ele>346.5</ele>
        <time>2026-08-09T09:03:26.000Z</time>
      </trkpt>
      <trkpt lat="45.78728" lon="1.5688">
        <ele>346.6</ele>
        <time>2026-08-09T09:03:27.000Z</time>
      </trkpt>
      <trkpt lat="45.7873" lon="1.56877">
        <ele>346.7</ele>
        <time>2026-08-09T09:03:29.000Z</time>
      </trkpt>
      <trkpt lat="45.78731" lon="1.56874">
        <ele>346.9</ele>
        <time>2026-08-09T09:03:31.000Z</time>
      </trkpt>
      <trkpt lat="45.78734" lon="1.56867">
        <ele>347.3</ele>
        <time>2026-08-09T09:03:35.000Z</time>
      </trkpt>
      <trkpt lat="45.78739" lon="1.56856">
        <ele>347.6</ele>
        <time>2026-08-09T09:03:41.000Z</time>
      </trkpt>
      <trkpt lat="45.78743" lon="1.56847">
        <ele>347.8</ele>
        <time>2026-08-09T09:03:46.000Z</time>
      </trkpt>
      <trkpt lat="45.78746" lon="1.56843">
        <ele>347.8</ele>
        <time>2026-08-09T09:03:49.000Z</time>
      </trkpt>
      <trkpt lat="45.78747" lon="1.56841">
        <ele>347.9</ele>
        <time>2026-08-09T09:03:50.000Z</time>
      </trkpt>
      <trkpt lat="45.7875" lon="1.56833">
        <ele>348</ele>
        <time>2026-08-09T09:03:54.000Z</time>
      </trkpt>
      <trkpt lat="45.78754" lon="1.56826">
        <ele>348.2</ele>
        <time>2026-08-09T09:03:58.000Z</time>
      </trkpt>
      <trkpt lat="45.78757" lon="1.5682">
        <ele>348.4</ele>
        <time>2026-08-09T09:04:01.000Z</time>
      </trkpt>
      <trkpt lat="45.78763" lon="1.5681">
        <ele>348.8</ele>
        <time>2026-08-09T09:04:06.000Z</time>
      </trkpt>
      <trkpt lat="45.78766" lon="1.56805">
        <ele>349.1</ele>
        <time>2026-08-09T09:04:09.000Z</time>
      </trkpt>
      <trkpt lat="45.78773" lon="1.56793">
        <ele>349.9</ele>
        <time>2026-08-09T09:04:15.000Z</time>
      </trkpt>
      <trkpt lat="45.78777" lon="1.56787">
        <ele>350.4</ele>
        <time>2026-08-09T09:04:18.000Z</time>
      </trkpt>
      <trkpt lat="45.78785" lon="1.56773">
        <ele>351.3</ele>
        <time>2026-08-09T09:04:25.000Z</time>
      </trkpt>
      <trkpt lat="45.78785" lon="1.56771">
        <ele>351.4</ele>
        <time>2026-08-09T09:04:26.000Z</time>
      </trkpt>
      <trkpt lat="45.78785" lon="1.5677">
        <ele>351.5</ele>
        <time>2026-08-09T09:04:27.000Z</time>
      </trkpt>
      <trkpt lat="45.78789" lon="1.56764">
        <ele>351.8</ele>
        <time>2026-08-09T09:04:31.000Z</time>
      </trkpt>
      <trkpt lat="45.78795" lon="1.56757">
        <ele>352.1</ele>
        <time>2026-08-09T09:04:36.000Z</time>
      </trkpt>
      <trkpt lat="45.78799" lon="1.56752">
        <ele>352.2</ele>
        <time>2026-08-09T09:04:43.000Z</time>
      </trkpt>
      <trkpt lat="45.78799" lon="1.56752">
        <ele>352.2</ele>
        <time>2026-08-09T09:04:44.000Z</time>
      </trkpt>
      <trkpt lat="45.78804" lon="1.56743">
        <ele>352.1</ele>
        <time>2026-08-09T09:05:08.000Z</time>
      </trkpt>
      <trkpt lat="45.78808" lon="1.56737">
        <ele>351.9</ele>
        <time>2026-08-09T09:05:11.000Z</time>
      </trkpt>
      <trkpt lat="45.78822" lon="1.5672">
        <ele>352</ele>
        <time>2026-08-09T09:05:19.000Z</time>
      </trkpt>
      <trkpt lat="45.78842" lon="1.56699">
        <ele>351.7</ele>
        <time>2026-08-09T09:05:28.000Z</time>
      </trkpt>
      <trkpt lat="45.78869" lon="1.56669">
        <ele>351.6</ele>
        <time>2026-08-09T09:05:38.000Z</time>
      </trkpt>
      <trkpt lat="45.78896" lon="1.56639">
        <ele>352</ele>
        <time>2026-08-09T09:05:48.000Z</time>
      </trkpt>
      <trkpt lat="45.78917" lon="1.56617">
        <ele>352.8</ele>
        <time>2026-08-09T09:05:56.000Z</time>
      </trkpt>
      <trkpt lat="45.78937" lon="1.56596">
        <ele>353.4</ele>
        <time>2026-08-09T09:06:05.000Z</time>
      </trkpt>
      <trkpt lat="45.78957" lon="1.56576">
        <ele>354.3</ele>
        <time>2026-08-09T09:06:14.000Z</time>
      </trkpt>
      <trkpt lat="45.78959" lon="1.56574">
        <ele>354.4</ele>
        <time>2026-08-09T09:06:15.000Z</time>
      </trkpt>
      <trkpt lat="45.78976" lon="1.56556">
        <ele>355</ele>
        <time>2026-08-09T09:06:23.000Z</time>
      </trkpt>
      <trkpt lat="45.78989" lon="1.56542">
        <ele>355.5</ele>
        <time>2026-08-09T09:06:30.000Z</time>
      </trkpt>
      <trkpt lat="45.78995" lon="1.56536">
        <ele>355.7</ele>
        <time>2026-08-09T09:06:33.000Z</time>
      </trkpt>
      <trkpt lat="45.79015" lon="1.56516">
        <ele>356.4</ele>
        <time>2026-08-09T09:06:43.000Z</time>
      </trkpt>
      <trkpt lat="45.79019" lon="1.56511">
        <ele>356.6</ele>
        <time>2026-08-09T09:06:45.000Z</time>
      </trkpt>
      <trkpt lat="45.79035" lon="1.5649">
        <ele>357.1</ele>
        <time>2026-08-09T09:06:53.000Z</time>
      </trkpt>
      <trkpt lat="45.79048" lon="1.56462">
        <ele>357.6</ele>
        <time>2026-08-09T09:07:01.000Z</time>
      </trkpt>
      <trkpt lat="45.79049" lon="1.56459">
        <ele>357.7</ele>
        <time>2026-08-09T09:07:02.000Z</time>
      </trkpt>
      <trkpt lat="45.79059" lon="1.56427">
        <ele>358.5</ele>
        <time>2026-08-09T09:07:11.000Z</time>
      </trkpt>
      <trkpt lat="45.79065" lon="1.56401">
        <ele>358.7</ele>
        <time>2026-08-09T09:07:18.000Z</time>
      </trkpt>
      <trkpt lat="45.79067" lon="1.56389">
        <ele>358.6</ele>
        <time>2026-08-09T09:07:21.000Z</time>
      </trkpt>
      <trkpt lat="45.79078" lon="1.56341">
        <ele>358.8</ele>
        <time>2026-08-09T09:07:31.000Z</time>
      </trkpt>
      <trkpt lat="45.7909" lon="1.56287">
        <ele>358.3</ele>
        <time>2026-08-09T09:07:41.000Z</time>
      </trkpt>
      <trkpt lat="45.79086" lon="1.56252">
        <ele>358</ele>
        <time>2026-08-09T09:07:47.000Z</time>
      </trkpt>
      <trkpt lat="45.79079" lon="1.56236">
        <ele>357.8</ele>
        <time>2026-08-09T09:07:50.000Z</time>
      </trkpt>
      <trkpt lat="45.79073" lon="1.56227">
        <ele>357.6</ele>
        <time>2026-08-09T09:07:52.000Z</time>
      </trkpt>
      <trkpt lat="45.79066" lon="1.56219">
        <ele>357.4</ele>
        <time>2026-08-09T09:07:54.000Z</time>
      </trkpt>
      <trkpt lat="45.7905" lon="1.56205">
        <ele>356.8</ele>
        <time>2026-08-09T09:07:58.000Z</time>
      </trkpt>
      <trkpt lat="45.79036" lon="1.56192">
        <ele>356.2</ele>
        <time>2026-08-09T09:08:01.000Z</time>
      </trkpt>
      <trkpt lat="45.79026" lon="1.56184">
        <ele>355.5</ele>
        <time>2026-08-09T09:08:03.000Z</time>
      </trkpt>
      <trkpt lat="45.78998" lon="1.56159">
        <ele>353.8</ele>
        <time>2026-08-09T09:08:08.000Z</time>
      </trkpt>
      <trkpt lat="45.78991" lon="1.56154">
        <ele>353.4</ele>
        <time>2026-08-09T09:08:09.000Z</time>
      </trkpt>
      <trkpt lat="45.78952" lon="1.56119">
        <ele>350.5</ele>
        <time>2026-08-09T09:08:15.000Z</time>
      </trkpt>
      <trkpt lat="45.78932" lon="1.56101">
        <ele>348.4</ele>
        <time>2026-08-09T09:08:18.000Z</time>
      </trkpt>
      <trkpt lat="45.78919" lon="1.56089">
        <ele>347</ele>
        <time>2026-08-09T09:08:20.000Z</time>
      </trkpt>
      <trkpt lat="45.78905" lon="1.56077">
        <ele>345.5</ele>
        <time>2026-08-09T09:08:22.000Z</time>
      </trkpt>
      <trkpt lat="45.78891" lon="1.56065">
        <ele>343.9</ele>
        <time>2026-08-09T09:08:24.000Z</time>
      </trkpt>
      <trkpt lat="45.78876" lon="1.56051">
        <ele>342.3</ele>
        <time>2026-08-09T09:08:26.000Z</time>
      </trkpt>
      <trkpt lat="45.78862" lon="1.56038">
        <ele>340.7</ele>
        <time>2026-08-09T09:08:28.000Z</time>
      </trkpt>
      <trkpt lat="45.78849" lon="1.56027">
        <ele>338.8</ele>
        <time>2026-08-09T09:08:30.000Z</time>
      </trkpt>
      <trkpt lat="45.78843" lon="1.56021">
        <ele>337.9</ele>
        <time>2026-08-09T09:08:31.000Z</time>
      </trkpt>
      <trkpt lat="45.78837" lon="1.56015">
        <ele>337.1</ele>
        <time>2026-08-09T09:08:32.000Z</time>
      </trkpt>
      <trkpt lat="45.78831" lon="1.56008">
        <ele>336.4</ele>
        <time>2026-08-09T09:08:33.000Z</time>
      </trkpt>
      <trkpt lat="45.78826" lon="1.55999">
        <ele>336</ele>
        <time>2026-08-09T09:08:34.000Z</time>
      </trkpt>
      <trkpt lat="45.78822" lon="1.5599">
        <ele>335.7</ele>
        <time>2026-08-09T09:08:35.000Z</time>
      </trkpt>
      <trkpt lat="45.78819" lon="1.55967">
        <ele>336</ele>
        <time>2026-08-09T09:08:37.000Z</time>
      </trkpt>
      <trkpt lat="45.78819" lon="1.55954">
        <ele>336.3</ele>
        <time>2026-08-09T09:08:38.000Z</time>
      </trkpt>
      <trkpt lat="45.78822" lon="1.55943">
        <ele>336.7</ele>
        <time>2026-08-09T09:08:39.000Z</time>
      </trkpt>
      <trkpt lat="45.78827" lon="1.55932">
        <ele>336.4</ele>
        <time>2026-08-09T09:08:40.000Z</time>
      </trkpt>
      <trkpt lat="45.78833" lon="1.55921">
        <ele>336.3</ele>
        <time>2026-08-09T09:08:41.000Z</time>
      </trkpt>
      <trkpt lat="45.78847" lon="1.559">
        <ele>333.9</ele>
        <time>2026-08-09T09:08:43.000Z</time>
      </trkpt>
      <trkpt lat="45.78853" lon="1.5589">
        <ele>332.6</ele>
        <time>2026-08-09T09:08:44.000Z</time>
      </trkpt>
      <trkpt lat="45.78864" lon="1.55874">
        <ele>330.4</ele>
        <time>2026-08-09T09:08:46.000Z</time>
      </trkpt>
      <trkpt lat="45.78868" lon="1.55865">
        <ele>329.1</ele>
        <time>2026-08-09T09:08:47.000Z</time>
      </trkpt>
      <trkpt lat="45.7887" lon="1.55855">
        <ele>328.3</ele>
        <time>2026-08-09T09:08:48.000Z</time>
      </trkpt>
      <trkpt lat="45.78871" lon="1.55844">
        <ele>327.6</ele>
        <time>2026-08-09T09:08:49.000Z</time>
      </trkpt>
      <trkpt lat="45.78869" lon="1.55833">
        <ele>326.9</ele>
        <time>2026-08-09T09:08:50.000Z</time>
      </trkpt>
      <trkpt lat="45.78863" lon="1.55824">
        <ele>326.9</ele>
        <time>2026-08-09T09:08:51.000Z</time>
      </trkpt>
      <trkpt lat="45.78857" lon="1.55818">
        <ele>326.7</ele>
        <time>2026-08-09T09:08:52.000Z</time>
      </trkpt>
      <trkpt lat="45.7885" lon="1.55814">
        <ele>326.2</ele>
        <time>2026-08-09T09:08:53.000Z</time>
      </trkpt>
      <trkpt lat="45.78842" lon="1.55811">
        <ele>325.5</ele>
        <time>2026-08-09T09:08:54.000Z</time>
      </trkpt>
      <trkpt lat="45.78826" lon="1.55809">
        <ele>323.9</ele>
        <time>2026-08-09T09:08:56.000Z</time>
      </trkpt>
      <trkpt lat="45.7881" lon="1.55809">
        <ele>322.3</ele>
        <time>2026-08-09T09:08:58.000Z</time>
      </trkpt>
      <trkpt lat="45.78795" lon="1.55808">
        <ele>320.6</ele>
        <time>2026-08-09T09:09:00.000Z</time>
      </trkpt>
      <trkpt lat="45.78768" lon="1.55809">
        <ele>317.6</ele>
        <time>2026-08-09T09:09:03.000Z</time>
      </trkpt>
      <trkpt lat="45.7875" lon="1.55809">
        <ele>315.7</ele>
        <time>2026-08-09T09:09:05.000Z</time>
      </trkpt>
      <trkpt lat="45.78741" lon="1.55808">
        <ele>315.1</ele>
        <time>2026-08-09T09:09:06.000Z</time>
      </trkpt>
      <trkpt lat="45.78722" lon="1.55806">
        <ele>314</ele>
        <time>2026-08-09T09:09:08.000Z</time>
      </trkpt>
      <trkpt lat="45.78714" lon="1.55806">
        <ele>313.1</ele>
        <time>2026-08-09T09:09:09.000Z</time>
      </trkpt>
      <trkpt lat="45.78705" lon="1.55805">
        <ele>312.2</ele>
        <time>2026-08-09T09:09:10.000Z</time>
      </trkpt>
      <trkpt lat="45.78696" lon="1.55803">
        <ele>311.6</ele>
        <time>2026-08-09T09:09:11.000Z</time>
      </trkpt>
      <trkpt lat="45.78679" lon="1.55799">
        <ele>310.8</ele>
        <time>2026-08-09T09:09:13.000Z</time>
      </trkpt>
      <trkpt lat="45.78664" lon="1.55796">
        <ele>309.6</ele>
        <time>2026-08-09T09:09:15.000Z</time>
      </trkpt>
      <trkpt lat="45.78656" lon="1.55795">
        <ele>308.8</ele>
        <time>2026-08-09T09:09:16.000Z</time>
      </trkpt>
      <trkpt lat="45.78639" lon="1.55792">
        <ele>306.9</ele>
        <time>2026-08-09T09:09:18.000Z</time>
      </trkpt>
      <trkpt lat="45.78622" lon="1.55793">
        <ele>304.5</ele>
        <time>2026-08-09T09:09:20.000Z</time>
      </trkpt>
      <trkpt lat="45.78615" lon="1.55794">
        <ele>303.3</ele>
        <time>2026-08-09T09:09:21.000Z</time>
      </trkpt>
      <trkpt lat="45.78607" lon="1.55796">
        <ele>302.2</ele>
        <time>2026-08-09T09:09:22.000Z</time>
      </trkpt>
      <trkpt lat="45.78601" lon="1.55797">
        <ele>301.3</ele>
        <time>2026-08-09T09:09:23.000Z</time>
      </trkpt>
      <trkpt lat="45.78594" lon="1.55798">
        <ele>300.6</ele>
        <time>2026-08-09T09:09:24.000Z</time>
      </trkpt>
      <trkpt lat="45.78589" lon="1.55797">
        <ele>300</ele>
        <time>2026-08-09T09:09:25.000Z</time>
      </trkpt>
      <trkpt lat="45.78584" lon="1.55794">
        <ele>299.4</ele>
        <time>2026-08-09T09:09:26.000Z</time>
      </trkpt>
      <trkpt lat="45.78579" lon="1.5579">
        <ele>298.8</ele>
        <time>2026-08-09T09:09:27.000Z</time>
      </trkpt>
      <trkpt lat="45.78575" lon="1.55784">
        <ele>298.4</ele>
        <time>2026-08-09T09:09:28.000Z</time>
      </trkpt>
      <trkpt lat="45.78571" lon="1.55766">
        <ele>298.1</ele>
        <time>2026-08-09T09:09:30.000Z</time>
      </trkpt>
      <trkpt lat="45.78571" lon="1.55757">
        <ele>298.1</ele>
        <time>2026-08-09T09:09:31.000Z</time>
      </trkpt>
      <trkpt lat="45.78571" lon="1.55746">
        <ele>298.2</ele>
        <time>2026-08-09T09:09:32.000Z</time>
      </trkpt>
      <trkpt lat="45.78571" lon="1.55736">
        <ele>298</ele>
        <time>2026-08-09T09:09:33.000Z</time>
      </trkpt>
      <trkpt lat="45.78571" lon="1.55702">
        <ele>297.8</ele>
        <time>2026-08-09T09:09:36.000Z</time>
      </trkpt>
      <trkpt lat="45.78571" lon="1.55678">
        <ele>297.3</ele>
        <time>2026-08-09T09:09:38.000Z</time>
      </trkpt>
      <trkpt lat="45.78572" lon="1.55654">
        <ele>296.2</ele>
        <time>2026-08-09T09:09:40.000Z</time>
      </trkpt>
      <trkpt lat="45.78571" lon="1.55631">
        <ele>295</ele>
        <time>2026-08-09T09:09:42.000Z</time>
      </trkpt>
      <trkpt lat="45.78571" lon="1.55607">
        <ele>294.2</ele>
        <time>2026-08-09T09:09:44.000Z</time>
      </trkpt>
      <trkpt lat="45.78575" lon="1.55575">
        <ele>293.8</ele>
        <time>2026-08-09T09:09:47.000Z</time>
      </trkpt>
      <trkpt lat="45.78579" lon="1.55554">
        <ele>293.1</ele>
        <time>2026-08-09T09:09:49.000Z</time>
      </trkpt>
      <trkpt lat="45.78585" lon="1.55532">
        <ele>289.2</ele>
        <time>2026-08-09T09:09:51.000Z</time>
      </trkpt>
      <trkpt lat="45.78588" lon="1.55521">
        <ele>286.9</ele>
        <time>2026-08-09T09:09:52.000Z</time>
      </trkpt>
      <trkpt lat="45.78592" lon="1.55511">
        <ele>284.4</ele>
        <time>2026-08-09T09:09:53.000Z</time>
      </trkpt>
      <trkpt lat="45.78596" lon="1.55501">
        <ele>282.1</ele>
        <time>2026-08-09T09:09:54.000Z</time>
      </trkpt>
      <trkpt lat="45.78601" lon="1.55492">
        <ele>281.2</ele>
        <time>2026-08-09T09:09:55.000Z</time>
      </trkpt>
      <trkpt lat="45.78606" lon="1.55484">
        <ele>280.5</ele>
        <time>2026-08-09T09:09:56.000Z</time>
      </trkpt>
      <trkpt lat="45.78618" lon="1.55471">
        <ele>279.3</ele>
        <time>2026-08-09T09:09:58.000Z</time>
      </trkpt>
      <trkpt lat="45.78628" lon="1.5546">
        <ele>278.7</ele>
        <time>2026-08-09T09:10:00.000Z</time>
      </trkpt>
      <trkpt lat="45.78637" lon="1.55451">
        <ele>277.9</ele>
        <time>2026-08-09T09:10:02.000Z</time>
      </trkpt>
      <trkpt lat="45.78653" lon="1.55435">
        <ele>278.4</ele>
        <time>2026-08-09T09:10:05.000Z</time>
      </trkpt>
      <trkpt lat="45.78658" lon="1.5543">
        <ele>278.3</ele>
        <time>2026-08-09T09:10:06.000Z</time>
      </trkpt>
      <trkpt lat="45.78667" lon="1.55419">
        <ele>277.6</ele>
        <time>2026-08-09T09:10:08.000Z</time>
      </trkpt>
      <trkpt lat="45.78685" lon="1.55398">
        <ele>280.3</ele>
        <time>2026-08-09T09:10:12.000Z</time>
      </trkpt>
      <trkpt lat="45.78704" lon="1.55377">
        <ele>285.3</ele>
        <time>2026-08-09T09:10:16.000Z</time>
      </trkpt>
      <trkpt lat="45.78712" lon="1.55367">
        <ele>289.3</ele>
        <time>2026-08-09T09:10:18.000Z</time>
      </trkpt>
      <trkpt lat="45.78716" lon="1.55362">
        <ele>291.7</ele>
        <time>2026-08-09T09:10:19.000Z</time>
      </trkpt>
      <trkpt lat="45.78731" lon="1.55348">
        <ele>295</ele>
        <time>2026-08-09T09:10:22.000Z</time>
      </trkpt>
      <trkpt lat="45.7875" lon="1.55331">
        <ele>294.9</ele>
        <time>2026-08-09T09:10:26.000Z</time>
      </trkpt>
      <trkpt lat="45.78792" lon="1.55293">
        <ele>293.6</ele>
        <time>2026-08-09T09:10:35.000Z</time>
      </trkpt>
      <trkpt lat="45.78823" lon="1.55264">
        <ele>293.5</ele>
        <time>2026-08-09T09:10:42.000Z</time>
      </trkpt>
      <trkpt lat="45.78858" lon="1.55233">
        <ele>293.5</ele>
        <time>2026-08-09T09:10:50.000Z</time>
      </trkpt>
      <trkpt lat="45.78891" lon="1.55196">
        <ele>293.4</ele>
        <time>2026-08-09T09:10:58.000Z</time>
      </trkpt>
      <trkpt lat="45.78908" lon="1.55171">
        <ele>292.9</ele>
        <time>2026-08-09T09:11:03.000Z</time>
      </trkpt>
      <trkpt lat="45.78915" lon="1.55161">
        <ele>292.5</ele>
        <time>2026-08-09T09:11:05.000Z</time>
      </trkpt>
      <trkpt lat="45.78922" lon="1.55151">
        <ele>292.6</ele>
        <time>2026-08-09T09:11:07.000Z</time>
      </trkpt>
      <trkpt lat="45.7894" lon="1.55125">
        <ele>292.6</ele>
        <time>2026-08-09T09:11:12.000Z</time>
      </trkpt>
      <trkpt lat="45.78946" lon="1.55114">
        <ele>292.5</ele>
        <time>2026-08-09T09:11:14.000Z</time>
      </trkpt>
      <trkpt lat="45.78955" lon="1.55097">
        <ele>293</ele>
        <time>2026-08-09T09:11:17.000Z</time>
      </trkpt>
      <trkpt lat="45.78959" lon="1.55092">
        <ele>293.1</ele>
        <time>2026-08-09T09:11:18.000Z</time>
      </trkpt>
      <trkpt lat="45.78962" lon="1.55086">
        <ele>293.1</ele>
        <time>2026-08-09T09:11:19.000Z</time>
      </trkpt>
      <trkpt lat="45.78971" lon="1.55069">
        <ele>292.8</ele>
        <time>2026-08-09T09:11:22.000Z</time>
      </trkpt>
      <trkpt lat="45.78974" lon="1.55063">
        <ele>292.9</ele>
        <time>2026-08-09T09:11:23.000Z</time>
      </trkpt>
      <trkpt lat="45.78994" lon="1.55022">
        <ele>293</ele>
        <time>2026-08-09T09:11:30.000Z</time>
      </trkpt>
      <trkpt lat="45.79011" lon="1.54987">
        <ele>293.1</ele>
        <time>2026-08-09T09:11:36.000Z</time>
      </trkpt>
      <trkpt lat="45.79016" lon="1.54976">
        <ele>293</ele>
        <time>2026-08-09T09:11:38.000Z</time>
      </trkpt>
      <trkpt lat="45.79029" lon="1.54946">
        <ele>292.3</ele>
        <time>2026-08-09T09:11:43.000Z</time>
      </trkpt>
      <trkpt lat="45.79031" lon="1.5494">
        <ele>292.4</ele>
        <time>2026-08-09T09:11:44.000Z</time>
      </trkpt>
      <trkpt lat="45.79049" lon="1.54887">
        <ele>291.7</ele>
        <time>2026-08-09T09:11:52.000Z</time>
      </trkpt>
      <trkpt lat="45.79056" lon="1.54859">
        <ele>291</ele>
        <time>2026-08-09T09:11:56.000Z</time>
      </trkpt>
      <trkpt lat="45.7906" lon="1.54835">
        <ele>290.5</ele>
        <time>2026-08-09T09:11:59.000Z</time>
      </trkpt>
      <trkpt lat="45.79064" lon="1.5481">
        <ele>290.6</ele>
        <time>2026-08-09T09:12:02.000Z</time>
      </trkpt>
      <trkpt lat="45.7907" lon="1.54759">
        <ele>290.5</ele>
        <time>2026-08-09T09:12:08.000Z</time>
      </trkpt>
      <trkpt lat="45.79074" lon="1.54707">
        <ele>290.5</ele>
        <time>2026-08-09T09:12:14.000Z</time>
      </trkpt>
      <trkpt lat="45.79076" lon="1.54688">
        <ele>290.5</ele>
        <time>2026-08-09T09:12:16.000Z</time>
      </trkpt>
      <trkpt lat="45.79084" lon="1.54623">
        <ele>292.1</ele>
        <time>2026-08-09T09:12:24.000Z</time>
      </trkpt>
      <trkpt lat="45.79091" lon="1.54584">
        <ele>292.2</ele>
        <time>2026-08-09T09:12:30.000Z</time>
      </trkpt>
      <trkpt lat="45.791" lon="1.54547">
        <ele>292.4</ele>
        <time>2026-08-09T09:12:37.000Z</time>
      </trkpt>
      <trkpt lat="45.79101" lon="1.54542">
        <ele>292.4</ele>
        <time>2026-08-09T09:12:38.000Z</time>
      </trkpt>
      <trkpt lat="45.79107" lon="1.54521">
        <ele>292.4</ele>
        <time>2026-08-09T09:12:42.000Z</time>
      </trkpt>
      <trkpt lat="45.79112" lon="1.54505">
        <ele>292.3</ele>
        <time>2026-08-09T09:12:45.000Z</time>
      </trkpt>
      <trkpt lat="45.79125" lon="1.54454">
        <ele>292.9</ele>
        <time>2026-08-09T09:12:54.000Z</time>
      </trkpt>
      <trkpt lat="45.79134" lon="1.54422">
        <ele>292.6</ele>
        <time>2026-08-09T09:13:00.000Z</time>
      </trkpt>
      <trkpt lat="45.79137" lon="1.54411">
        <ele>292.5</ele>
        <time>2026-08-09T09:13:02.000Z</time>
      </trkpt>
      <trkpt lat="45.79147" lon="1.54365">
        <ele>292.6</ele>
        <time>2026-08-09T09:13:10.000Z</time>
      </trkpt>
      <trkpt lat="45.79151" lon="1.54348">
        <ele>292.7</ele>
        <time>2026-08-09T09:13:13.000Z</time>
      </trkpt>
      <trkpt lat="45.79157" lon="1.54328">
        <ele>293</ele>
        <time>2026-08-09T09:13:17.000Z</time>
      </trkpt>
      <trkpt lat="45.79171" lon="1.54282">
        <ele>292.8</ele>
        <time>2026-08-09T09:13:26.000Z</time>
      </trkpt>
      <trkpt lat="45.79175" lon="1.54268">
        <ele>292.5</ele>
        <time>2026-08-09T09:13:29.000Z</time>
      </trkpt>
      <trkpt lat="45.79185" lon="1.5424">
        <ele>291.7</ele>
        <time>2026-08-09T09:13:35.000Z</time>
      </trkpt>
      <trkpt lat="45.79201" lon="1.54201">
        <ele>289.9</ele>
        <time>2026-08-09T09:13:42.000Z</time>
      </trkpt>
      <trkpt lat="45.79219" lon="1.54164">
        <ele>286.7</ele>
        <time>2026-08-09T09:13:48.000Z</time>
      </trkpt>
      <trkpt lat="45.79248" lon="1.5412">
        <ele>282.9</ele>
        <time>2026-08-09T09:13:55.000Z</time>
      </trkpt>
      <trkpt lat="45.79262" lon="1.54102">
        <ele>281.5</ele>
        <time>2026-08-09T09:13:58.000Z</time>
      </trkpt>
      <trkpt lat="45.79278" lon="1.54085">
        <ele>280.1</ele>
        <time>2026-08-09T09:14:01.000Z</time>
      </trkpt>
      <trkpt lat="45.79288" lon="1.54074">
        <ele>280.2</ele>
        <time>2026-08-09T09:14:03.000Z</time>
      </trkpt>
      <trkpt lat="45.79332" lon="1.54029">
        <ele>280</ele>
        <time>2026-08-09T09:14:12.000Z</time>
      </trkpt>
      <trkpt lat="45.79376" lon="1.53979">
        <ele>278.5</ele>
        <time>2026-08-09T09:14:22.000Z</time>
      </trkpt>
      <trkpt lat="45.79413" lon="1.53922">
        <ele>277.9</ele>
        <time>2026-08-09T09:14:32.000Z</time>
      </trkpt>
      <trkpt lat="45.79416" lon="1.53917">
        <ele>277.9</ele>
        <time>2026-08-09T09:14:33.000Z</time>
      </trkpt>
      <trkpt lat="45.79435" lon="1.53879">
        <ele>279.7</ele>
        <time>2026-08-09T09:14:39.000Z</time>
      </trkpt>
      <trkpt lat="45.79438" lon="1.53872">
        <ele>280.1</ele>
        <time>2026-08-09T09:14:40.000Z</time>
      </trkpt>
      <trkpt lat="45.79453" lon="1.53827">
        <ele>280.8</ele>
        <time>2026-08-09T09:14:46.000Z</time>
      </trkpt>
      <trkpt lat="45.79464" lon="1.5378">
        <ele>279.7</ele>
        <time>2026-08-09T09:14:52.000Z</time>
      </trkpt>
      <trkpt lat="45.79472" lon="1.53735">
        <ele>278.8</ele>
        <time>2026-08-09T09:14:57.000Z</time>
      </trkpt>
      <trkpt lat="45.79476" lon="1.53708">
        <ele>278.5</ele>
        <time>2026-08-09T09:15:00.000Z</time>
      </trkpt>
      <trkpt lat="45.7949" lon="1.53633">
        <ele>277.9</ele>
        <time>2026-08-09T09:15:08.000Z</time>
      </trkpt>
      <trkpt lat="45.79504" lon="1.53587">
        <ele>277.5</ele>
        <time>2026-08-09T09:15:14.000Z</time>
      </trkpt>
      <trkpt lat="45.79507" lon="1.5358">
        <ele>277.7</ele>
        <time>2026-08-09T09:15:15.000Z</time>
      </trkpt>
      <trkpt lat="45.79534" lon="1.53516">
        <ele>278</ele>
        <time>2026-08-09T09:15:24.000Z</time>
      </trkpt>
      <trkpt lat="45.79564" lon="1.53448">
        <ele>276.6</ele>
        <time>2026-08-09T09:15:34.000Z</time>
      </trkpt>
      <trkpt lat="45.7957" lon="1.53434">
        <ele>276.5</ele>
        <time>2026-08-09T09:15:36.000Z</time>
      </trkpt>
      <trkpt lat="45.79599" lon="1.53367">
        <ele>276.4</ele>
        <time>2026-08-09T09:15:46.000Z</time>
      </trkpt>
      <trkpt lat="45.79611" lon="1.53338">
        <ele>276.3</ele>
        <time>2026-08-09T09:15:50.000Z</time>
      </trkpt>
      <trkpt lat="45.79634" lon="1.53282">
        <ele>277.7</ele>
        <time>2026-08-09T09:15:58.000Z</time>
      </trkpt>
      <trkpt lat="45.79651" lon="1.53245">
        <ele>277.7</ele>
        <time>2026-08-09T09:16:04.000Z</time>
      </trkpt>
      <trkpt lat="45.79669" lon="1.532">
        <ele>277.5</ele>
        <time>2026-08-09T09:16:11.000Z</time>
      </trkpt>
      <trkpt lat="45.79692" lon="1.53153">
        <ele>276.8</ele>
        <time>2026-08-09T09:16:18.000Z</time>
      </trkpt>
      <trkpt lat="45.79699" lon="1.5314">
        <ele>276.6</ele>
        <time>2026-08-09T09:16:20.000Z</time>
      </trkpt>
      <trkpt lat="45.7971" lon="1.53121">
        <ele>276.4</ele>
        <time>2026-08-09T09:16:23.000Z</time>
      </trkpt>
      <trkpt lat="45.79733" lon="1.53088">
        <ele>276.1</ele>
        <time>2026-08-09T09:16:29.000Z</time>
      </trkpt>
      <trkpt lat="45.79772" lon="1.53047">
        <ele>276.5</ele>
        <time>2026-08-09T09:16:38.000Z</time>
      </trkpt>
      <trkpt lat="45.7981" lon="1.53017">
        <ele>276.1</ele>
        <time>2026-08-09T09:16:46.000Z</time>
      </trkpt>
      <trkpt lat="45.79853" lon="1.5299">
        <ele>275.5</ele>
        <time>2026-08-09T09:16:55.000Z</time>
      </trkpt>
      <trkpt lat="45.79888" lon="1.52975">
        <ele>275.3</ele>
        <time>2026-08-09T09:17:02.000Z</time>
      </trkpt>
      <trkpt lat="45.79921" lon="1.52966">
        <ele>275.5</ele>
        <time>2026-08-09T09:17:09.000Z</time>
      </trkpt>
      <trkpt lat="45.7993" lon="1.52964">
        <ele>275.6</ele>
        <time>2026-08-09T09:17:11.000Z</time>
      </trkpt>
      <trkpt lat="45.79948" lon="1.5296">
        <ele>275.9</ele>
        <time>2026-08-09T09:17:15.000Z</time>
      </trkpt>
      <trkpt lat="45.79985" lon="1.52952">
        <ele>276.5</ele>
        <time>2026-08-09T09:17:24.000Z</time>
      </trkpt>
      <trkpt lat="45.80005" lon="1.52946">
        <ele>276.6</ele>
        <time>2026-08-09T09:17:29.000Z</time>
      </trkpt>
      <trkpt lat="45.80012" lon="1.52945">
        <ele>277</ele>
        <time>2026-08-09T09:17:31.000Z</time>
      </trkpt>
      <trkpt lat="45.80022" lon="1.52946">
        <ele>277.8</ele>
        <time>2026-08-09T09:17:35.000Z</time>
      </trkpt>
      <trkpt lat="45.80022" lon="1.52945">
        <ele>277.7</ele>
        <time>2026-08-09T09:17:40.000Z</time>
      </trkpt>
      <trkpt lat="45.80027" lon="1.5294">
        <ele>277.3</ele>
        <time>2026-08-09T09:18:06.000Z</time>
      </trkpt>
      <trkpt lat="45.80031" lon="1.52941">
        <ele>277.5</ele>
        <time>2026-08-09T09:18:08.000Z</time>
      </trkpt>
      <trkpt lat="45.80047" lon="1.5294">
        <ele>278</ele>
        <time>2026-08-09T09:18:15.000Z</time>
      </trkpt>
      <trkpt lat="45.80071" lon="1.52936">
        <ele>279.3</ele>
        <time>2026-08-09T09:18:24.000Z</time>
      </trkpt>
      <trkpt lat="45.80092" lon="1.52933">
        <ele>280.8</ele>
        <time>2026-08-09T09:18:33.000Z</time>
      </trkpt>
      <trkpt lat="45.80106" lon="1.52932">
        <ele>282.2</ele>
        <time>2026-08-09T09:18:39.000Z</time>
      </trkpt>
      <trkpt lat="45.80119" lon="1.5293">
        <ele>283.6</ele>
        <time>2026-08-09T09:18:44.000Z</time>
      </trkpt>
      <trkpt lat="45.80124" lon="1.52929">
        <ele>284</ele>
        <time>2026-08-09T09:18:46.000Z</time>
      </trkpt>
      <trkpt lat="45.80146" lon="1.52926">
        <ele>286.3</ele>
        <time>2026-08-09T09:18:54.000Z</time>
      </trkpt>
      <trkpt lat="45.80156" lon="1.52923">
        <ele>287.1</ele>
        <time>2026-08-09T09:18:58.000Z</time>
      </trkpt>
      <trkpt lat="45.80172" lon="1.52917">
        <ele>288.4</ele>
        <time>2026-08-09T09:19:04.000Z</time>
      </trkpt>
      <trkpt lat="45.80193" lon="1.52905">
        <ele>289.5</ele>
        <time>2026-08-09T09:19:13.000Z</time>
      </trkpt>
      <trkpt lat="45.80196" lon="1.52903">
        <ele>289.6</ele>
        <time>2026-08-09T09:19:14.000Z</time>
      </trkpt>
      <trkpt lat="45.80215" lon="1.52891">
        <ele>289.9</ele>
        <time>2026-08-09T09:19:20.000Z</time>
      </trkpt>
      <trkpt lat="45.80236" lon="1.5287">
        <ele>288.6</ele>
        <time>2026-08-09T09:19:26.000Z</time>
      </trkpt>
      <trkpt lat="45.80257" lon="1.52839">
        <ele>284</ele>
        <time>2026-08-09T09:19:32.000Z</time>
      </trkpt>
      <trkpt lat="45.80283" lon="1.52802">
        <ele>280</ele>
        <time>2026-08-09T09:19:38.000Z</time>
      </trkpt>
      <trkpt lat="45.80288" lon="1.52794">
        <ele>279.5</ele>
        <time>2026-08-09T09:19:39.000Z</time>
      </trkpt>
      <trkpt lat="45.80319" lon="1.52764">
        <ele>278.4</ele>
        <time>2026-08-09T09:19:45.000Z</time>
      </trkpt>
      <trkpt lat="45.80324" lon="1.52761">
        <ele>278.7</ele>
        <time>2026-08-09T09:19:46.000Z</time>
      </trkpt>
      <trkpt lat="45.80346" lon="1.52749">
        <ele>278.8</ele>
        <time>2026-08-09T09:19:50.000Z</time>
      </trkpt>
      <trkpt lat="45.80355" lon="1.52741">
        <ele>278.2</ele>
        <time>2026-08-09T09:19:52.000Z</time>
      </trkpt>
      <trkpt lat="45.8037" lon="1.52717">
        <ele>275.5</ele>
        <time>2026-08-09T09:19:56.000Z</time>
      </trkpt>
      <trkpt lat="45.80375" lon="1.52705">
        <ele>274.2</ele>
        <time>2026-08-09T09:19:58.000Z</time>
      </trkpt>
      <trkpt lat="45.80378" lon="1.52699">
        <ele>273.5</ele>
        <time>2026-08-09T09:19:59.000Z</time>
      </trkpt>
      <trkpt lat="45.80385" lon="1.52682">
        <ele>271.7</ele>
        <time>2026-08-09T09:20:03.000Z</time>
      </trkpt>
      <trkpt lat="45.80386" lon="1.52681">
        <ele>271.5</ele>
        <time>2026-08-09T09:20:07.000Z</time>
      </trkpt>
      <trkpt lat="45.80383" lon="1.5268">
        <ele>271.6</ele>
        <time>2026-08-09T09:20:12.000Z</time>
      </trkpt>
      <trkpt lat="45.80381" lon="1.52685">
        <ele>272.1</ele>
        <time>2026-08-09T09:20:14.000Z</time>
      </trkpt>
      <trkpt lat="45.8038" lon="1.52691">
        <ele>272.7</ele>
        <time>2026-08-09T09:20:16.000Z</time>
      </trkpt>
      <trkpt lat="45.8038" lon="1.52691">
        <ele>272.7</ele>
        <time>2026-08-09T09:20:18.000Z</time>
      </trkpt>
      <trkpt lat="45.80382" lon="1.52689">
        <ele>272.5</ele>
        <time>2026-08-09T09:20:21.000Z</time>
      </trkpt>
      <trkpt lat="45.80382" lon="1.52689">
        <ele>272.5</ele>
        <time>2026-08-09T09:20:23.000Z</time>
      </trkpt>
      <trkpt lat="45.80384" lon="1.52682">
        <ele>271.8</ele>
        <time>2026-08-09T09:21:29.000Z</time>
      </trkpt>
      <trkpt lat="45.80388" lon="1.52674">
        <ele>270.8</ele>
        <time>2026-08-09T09:21:32.000Z</time>
      </trkpt>
      <trkpt lat="45.80398" lon="1.52651">
        <ele>269.8</ele>
        <time>2026-08-09T09:21:37.000Z</time>
      </trkpt>
      <trkpt lat="45.80406" lon="1.52631">
        <ele>270.5</ele>
        <time>2026-08-09T09:21:40.000Z</time>
      </trkpt>
      <trkpt lat="45.80411" lon="1.52618">
        <ele>271.3</ele>
        <time>2026-08-09T09:21:42.000Z</time>
      </trkpt>
      <trkpt lat="45.80413" lon="1.52611">
        <ele>271.7</ele>
        <time>2026-08-09T09:21:43.000Z</time>
      </trkpt>
      <trkpt lat="45.80415" lon="1.52605">
        <ele>271.9</ele>
        <time>2026-08-09T09:21:44.000Z</time>
      </trkpt>
      <trkpt lat="45.80417" lon="1.52578">
        <ele>272</ele>
        <time>2026-08-09T09:21:48.000Z</time>
      </trkpt>
      <trkpt lat="45.80416" lon="1.52571">
        <ele>272</ele>
        <time>2026-08-09T09:21:49.000Z</time>
      </trkpt>
      <trkpt lat="45.80415" lon="1.52565">
        <ele>271.9</ele>
        <time>2026-08-09T09:21:50.000Z</time>
      </trkpt>
      <trkpt lat="45.80409" lon="1.52548">
        <ele>271.7</ele>
        <time>2026-08-09T09:21:53.000Z</time>
      </trkpt>
      <trkpt lat="45.80407" lon="1.52543">
        <ele>271.8</ele>
        <time>2026-08-09T09:21:54.000Z</time>
      </trkpt>
      <trkpt lat="45.80404" lon="1.52538">
        <ele>271.7</ele>
        <time>2026-08-09T09:21:55.000Z</time>
      </trkpt>
      <trkpt lat="45.80398" lon="1.5253">
        <ele>271.6</ele>
        <time>2026-08-09T09:21:57.000Z</time>
      </trkpt>
      <trkpt lat="45.80392" lon="1.52523">
        <ele>271.4</ele>
        <time>2026-08-09T09:21:59.000Z</time>
      </trkpt>
      <trkpt lat="45.80373" lon="1.525">
        <ele>272</ele>
        <time>2026-08-09T09:22:05.000Z</time>
      </trkpt>
      <trkpt lat="45.80371" lon="1.52496">
        <ele>272</ele>
        <time>2026-08-09T09:22:06.000Z</time>
      </trkpt>
      <trkpt lat="45.80362" lon="1.52481">
        <ele>271.4</ele>
        <time>2026-08-09T09:22:11.000Z</time>
      </trkpt>
      <trkpt lat="45.80362" lon="1.52469">
        <ele>271</ele>
        <time>2026-08-09T09:22:13.000Z</time>
      </trkpt>
      <trkpt lat="45.80363" lon="1.52454">
        <ele>271.1</ele>
        <time>2026-08-09T09:22:15.000Z</time>
      </trkpt>
      <trkpt lat="45.80365" lon="1.5244">
        <ele>271.2</ele>
        <time>2026-08-09T09:22:17.000Z</time>
      </trkpt>
      <trkpt lat="45.80369" lon="1.52411">
        <ele>271.4</ele>
        <time>2026-08-09T09:22:21.000Z</time>
      </trkpt>
      <trkpt lat="45.80378" lon="1.52342">
        <ele>271.2</ele>
        <time>2026-08-09T09:22:31.000Z</time>
      </trkpt>
      <trkpt lat="45.8039" lon="1.52282">
        <ele>270.3</ele>
        <time>2026-08-09T09:22:40.000Z</time>
      </trkpt>
      <trkpt lat="45.80392" lon="1.52275">
        <ele>270.4</ele>
        <time>2026-08-09T09:22:41.000Z</time>
      </trkpt>
      <trkpt lat="45.80411" lon="1.52206">
        <ele>270.7</ele>
        <time>2026-08-09T09:22:52.000Z</time>
      </trkpt>
      <trkpt lat="45.80424" lon="1.52167">
        <ele>272.4</ele>
        <time>2026-08-09T09:22:59.000Z</time>
      </trkpt>
      <trkpt lat="45.80426" lon="1.52162">
        <ele>272.3</ele>
        <time>2026-08-09T09:23:00.000Z</time>
      </trkpt>
      <trkpt lat="45.80434" lon="1.52142">
        <ele>272.2</ele>
        <time>2026-08-09T09:23:05.000Z</time>
      </trkpt>
      <trkpt lat="45.80442" lon="1.52122">
        <ele>272.3</ele>
        <time>2026-08-09T09:23:10.000Z</time>
      </trkpt>
      <trkpt lat="45.80447" lon="1.52107">
        <ele>272.2</ele>
        <time>2026-08-09T09:23:13.000Z</time>
      </trkpt>
      <trkpt lat="45.80458" lon="1.52083">
        <ele>271.9</ele>
        <time>2026-08-09T09:23:18.000Z</time>
      </trkpt>
      <trkpt lat="45.80481" lon="1.52037">
        <ele>272.3</ele>
        <time>2026-08-09T09:23:27.000Z</time>
      </trkpt>
      <trkpt lat="45.80486" lon="1.52027">
        <ele>272.4</ele>
        <time>2026-08-09T09:23:29.000Z</time>
      </trkpt>
      <trkpt lat="45.80503" lon="1.51994">
        <ele>272.3</ele>
        <time>2026-08-09T09:23:35.000Z</time>
      </trkpt>
      <trkpt lat="45.80526" lon="1.51952">
        <ele>272.6</ele>
        <time>2026-08-09T09:23:43.000Z</time>
      </trkpt>
      <trkpt lat="45.80549" lon="1.51919">
        <ele>272</ele>
        <time>2026-08-09T09:23:51.000Z</time>
      </trkpt>
      <trkpt lat="45.80552" lon="1.51914">
        <ele>272.1</ele>
        <time>2026-08-09T09:23:52.000Z</time>
      </trkpt>
      <trkpt lat="45.80577" lon="1.51883">
        <ele>272.5</ele>
        <time>2026-08-09T09:23:59.000Z</time>
      </trkpt>
      <trkpt lat="45.8061" lon="1.51841">
        <ele>278.2</ele>
        <time>2026-08-09T09:24:08.000Z</time>
      </trkpt>
      <trkpt lat="45.80633" lon="1.51814">
        <ele>277.7</ele>
        <time>2026-08-09T09:24:14.000Z</time>
      </trkpt>
      <trkpt lat="45.80645" lon="1.51802">
        <ele>277.2</ele>
        <time>2026-08-09T09:24:17.000Z</time>
      </trkpt>
      <trkpt lat="45.80689" lon="1.51762">
        <ele>277.7</ele>
        <time>2026-08-09T09:24:28.000Z</time>
      </trkpt>
      <trkpt lat="45.80697" lon="1.51757">
        <ele>277.9</ele>
        <time>2026-08-09T09:24:30.000Z</time>
      </trkpt>
      <trkpt lat="45.80711" lon="1.51745">
        <ele>277.9</ele>
        <time>2026-08-09T09:24:34.000Z</time>
      </trkpt>
      <trkpt lat="45.80737" lon="1.51728">
        <ele>278.6</ele>
        <time>2026-08-09T09:24:41.000Z</time>
      </trkpt>
      <trkpt lat="45.80783" lon="1.51698">
        <ele>279.4</ele>
        <time>2026-08-09T09:24:53.000Z</time>
      </trkpt>
      <trkpt lat="45.80818" lon="1.51672">
        <ele>278.7</ele>
        <time>2026-08-09T09:25:02.000Z</time>
      </trkpt>
      <trkpt lat="45.80852" lon="1.51649">
        <ele>279</ele>
        <time>2026-08-09T09:25:10.000Z</time>
      </trkpt>
      <trkpt lat="45.80886" lon="1.51627">
        <ele>278.7</ele>
        <time>2026-08-09T09:25:18.000Z</time>
      </trkpt>
      <trkpt lat="45.80923" lon="1.51602">
        <ele>272.5</ele>
        <time>2026-08-09T09:25:27.000Z</time>
      </trkpt>
      <trkpt lat="45.8096" lon="1.51566">
        <ele>271.9</ele>
        <time>2026-08-09T09:25:37.000Z</time>
      </trkpt>
      <trkpt lat="45.80991" lon="1.51533">
        <ele>272.4</ele>
        <time>2026-08-09T09:25:46.000Z</time>
      </trkpt>
      <trkpt lat="45.81011" lon="1.51506">
        <ele>272.9</ele>
        <time>2026-08-09T09:25:53.000Z</time>
      </trkpt>
      <trkpt lat="45.81033" lon="1.51484">
        <ele>274.1</ele>
        <time>2026-08-09T09:26:00.000Z</time>
      </trkpt>
      <trkpt lat="45.81061" lon="1.51449">
        <ele>275.3</ele>
        <time>2026-08-09T09:26:09.000Z</time>
      </trkpt>
      <trkpt lat="45.81088" lon="1.51412">
        <ele>280.2</ele>
        <time>2026-08-09T09:26:17.000Z</time>
      </trkpt>
      <trkpt lat="45.81105" lon="1.51385">
        <ele>281.1</ele>
        <time>2026-08-09T09:26:22.000Z</time>
      </trkpt>
      <trkpt lat="45.81111" lon="1.51376">
        <ele>281.1</ele>
        <time>2026-08-09T09:26:24.000Z</time>
      </trkpt>
      <trkpt lat="45.81133" lon="1.51335">
        <ele>281.9</ele>
        <time>2026-08-09T09:26:31.000Z</time>
      </trkpt>
      <trkpt lat="45.81158" lon="1.51279">
        <ele>280.7</ele>
        <time>2026-08-09T09:26:41.000Z</time>
      </trkpt>
      <trkpt lat="45.81172" lon="1.51233">
        <ele>279.9</ele>
        <time>2026-08-09T09:26:49.000Z</time>
      </trkpt>
      <trkpt lat="45.8118" lon="1.51203">
        <ele>278.6</ele>
        <time>2026-08-09T09:26:55.000Z</time>
      </trkpt>
      <trkpt lat="45.81184" lon="1.5119">
        <ele>278.1</ele>
        <time>2026-08-09T09:26:58.000Z</time>
      </trkpt>
      <trkpt lat="45.81192" lon="1.51171">
        <ele>277.3</ele>
        <time>2026-08-09T09:27:04.000Z</time>
      </trkpt>
      <trkpt lat="45.81193" lon="1.51168">
        <ele>277.1</ele>
        <time>2026-08-09T09:27:05.000Z</time>
      </trkpt>
      <trkpt lat="45.81202" lon="1.51145">
        <ele>276.8</ele>
        <time>2026-08-09T09:27:11.000Z</time>
      </trkpt>
      <trkpt lat="45.81208" lon="1.51133">
        <ele>276.9</ele>
        <time>2026-08-09T09:27:14.000Z</time>
      </trkpt>
      <trkpt lat="45.81217" lon="1.51115">
        <ele>276.9</ele>
        <time>2026-08-09T09:27:18.000Z</time>
      </trkpt>
      <trkpt lat="45.81233" lon="1.51083">
        <ele>277.8</ele>
        <time>2026-08-09T09:27:25.000Z</time>
      </trkpt>
      <trkpt lat="45.81249" lon="1.51056">
        <ele>277</ele>
        <time>2026-08-09T09:27:31.000Z</time>
      </trkpt>
      <trkpt lat="45.81259" lon="1.51037">
        <ele>276.3</ele>
        <time>2026-08-09T09:27:35.000Z</time>
      </trkpt>
      <trkpt lat="45.81265" lon="1.51028">
        <ele>276</ele>
        <time>2026-08-09T09:27:37.000Z</time>
      </trkpt>
      <trkpt lat="45.81268" lon="1.51024">
        <ele>275.8</ele>
        <time>2026-08-09T09:27:38.000Z</time>
      </trkpt>
      <trkpt lat="45.81284" lon="1.51">
        <ele>275.2</ele>
        <time>2026-08-09T09:27:43.000Z</time>
      </trkpt>
      <trkpt lat="45.81315" lon="1.50949">
        <ele>274.7</ele>
        <time>2026-08-09T09:27:53.000Z</time>
      </trkpt>
      <trkpt lat="45.81333" lon="1.50914">
        <ele>274.5</ele>
        <time>2026-08-09T09:27:59.000Z</time>
      </trkpt>
      <trkpt lat="45.81335" lon="1.50906">
        <ele>274.1</ele>
        <time>2026-08-09T09:28:00.000Z</time>
      </trkpt>
      <trkpt lat="45.81349" lon="1.50862">
        <ele>272.5</ele>
        <time>2026-08-09T09:28:05.000Z</time>
      </trkpt>
      <trkpt lat="45.81355" lon="1.50829">
        <ele>272.8</ele>
        <time>2026-08-09T09:28:08.000Z</time>
      </trkpt>
      <trkpt lat="45.81359" lon="1.50806">
        <ele>271.6</ele>
        <time>2026-08-09T09:28:10.000Z</time>
      </trkpt>
      <trkpt lat="45.81365" lon="1.5077">
        <ele>271.7</ele>
        <time>2026-08-09T09:28:13.000Z</time>
      </trkpt>
      <trkpt lat="45.81376" lon="1.5071">
        <ele>269.9</ele>
        <time>2026-08-09T09:28:18.000Z</time>
      </trkpt>
      <trkpt lat="45.81378" lon="1.50698">
        <ele>269.4</ele>
        <time>2026-08-09T09:28:19.000Z</time>
      </trkpt>
      <trkpt lat="45.81387" lon="1.50647">
        <ele>268.2</ele>
        <time>2026-08-09T09:28:23.000Z</time>
      </trkpt>
      <trkpt lat="45.81396" lon="1.50597">
        <ele>269.8</ele>
        <time>2026-08-09T09:28:27.000Z</time>
      </trkpt>
      <trkpt lat="45.81404" lon="1.5053">
        <ele>271.2</ele>
        <time>2026-08-09T09:28:33.000Z</time>
      </trkpt>
      <trkpt lat="45.81405" lon="1.50479">
        <ele>272.2</ele>
        <time>2026-08-09T09:28:39.000Z</time>
      </trkpt>
      <trkpt lat="45.81405" lon="1.50454">
        <ele>273</ele>
        <time>2026-08-09T09:28:43.000Z</time>
      </trkpt>
      <trkpt lat="45.81405" lon="1.50444">
        <ele>273.2</ele>
        <time>2026-08-09T09:28:45.000Z</time>
      </trkpt>
      <trkpt lat="45.81405" lon="1.50431">
        <ele>273.3</ele>
        <time>2026-08-09T09:28:48.000Z</time>
      </trkpt>
      <trkpt lat="45.81405" lon="1.50416">
        <ele>273.2</ele>
        <time>2026-08-09T09:28:52.000Z</time>
      </trkpt>
      <trkpt lat="45.81405" lon="1.50405">
        <ele>273.1</ele>
        <time>2026-08-09T09:28:55.000Z</time>
      </trkpt>
      <trkpt lat="45.81406" lon="1.50388">
        <ele>273</ele>
        <time>2026-08-09T09:29:00.000Z</time>
      </trkpt>
      <trkpt lat="45.81405" lon="1.50378">
        <ele>273.4</ele>
        <time>2026-08-09T09:29:03.000Z</time>
      </trkpt>
      <trkpt lat="45.81403" lon="1.50362">
        <ele>273.5</ele>
        <time>2026-08-09T09:29:07.000Z</time>
      </trkpt>
      <trkpt lat="45.81407" lon="1.50343">
        <ele>273.4</ele>
        <time>2026-08-09T09:29:11.000Z</time>
      </trkpt>
      <trkpt lat="45.81412" lon="1.50319">
        <ele>273.5</ele>
        <time>2026-08-09T09:29:15.000Z</time>
      </trkpt>
      <trkpt lat="45.81416" lon="1.50305">
        <ele>273.9</ele>
        <time>2026-08-09T09:29:17.000Z</time>
      </trkpt>
      <trkpt lat="45.81426" lon="1.50261">
        <ele>273.5</ele>
        <time>2026-08-09T09:29:23.000Z</time>
      </trkpt>
      <trkpt lat="45.81438" lon="1.50209">
        <ele>272.9</ele>
        <time>2026-08-09T09:29:29.000Z</time>
      </trkpt>
      <trkpt lat="45.81452" lon="1.50149">
        <ele>270.9</ele>
        <time>2026-08-09T09:29:35.000Z</time>
      </trkpt>
      <trkpt lat="45.8146" lon="1.50117">
        <ele>270.2</ele>
        <time>2026-08-09T09:29:38.000Z</time>
      </trkpt>
      <trkpt lat="45.81466" lon="1.50094">
        <ele>270.2</ele>
        <time>2026-08-09T09:29:40.000Z</time>
      </trkpt>
      <trkpt lat="45.8148" lon="1.50036">
        <ele>269.2</ele>
        <time>2026-08-09T09:29:45.000Z</time>
      </trkpt>
      <trkpt lat="45.81483" lon="1.50022">
        <ele>269.2</ele>
        <time>2026-08-09T09:29:46.000Z</time>
      </trkpt>
      <trkpt lat="45.81493" lon="1.49992">
        <ele>268.9</ele>
        <time>2026-08-09T09:29:49.000Z</time>
      </trkpt>
      <trkpt lat="45.81502" lon="1.49973">
        <ele>268.2</ele>
        <time>2026-08-09T09:29:51.000Z</time>
      </trkpt>
      <trkpt lat="45.81514" lon="1.49956">
        <ele>269</ele>
        <time>2026-08-09T09:29:53.000Z</time>
      </trkpt>
      <trkpt lat="45.81521" lon="1.4995">
        <ele>269.1</ele>
        <time>2026-08-09T09:29:54.000Z</time>
      </trkpt>
      <trkpt lat="45.81527" lon="1.49945">
        <ele>269</ele>
        <time>2026-08-09T09:29:55.000Z</time>
      </trkpt>
      <trkpt lat="45.81577" lon="1.49909">
        <ele>269.7</ele>
        <time>2026-08-09T09:30:03.000Z</time>
      </trkpt>
      <trkpt lat="45.81624" lon="1.49876">
        <ele>267.3</ele>
        <time>2026-08-09T09:30:11.000Z</time>
      </trkpt>
      <trkpt lat="45.81678" lon="1.49841">
        <ele>267.1</ele>
        <time>2026-08-09T09:30:20.000Z</time>
      </trkpt>
      <trkpt lat="45.81683" lon="1.49837">
        <ele>266.6</ele>
        <time>2026-08-09T09:30:21.000Z</time>
      </trkpt>
      <trkpt lat="45.81717" lon="1.49814">
        <ele>266.5</ele>
        <time>2026-08-09T09:30:27.000Z</time>
      </trkpt>
      <trkpt lat="45.81766" lon="1.4978">
        <ele>266.1</ele>
        <time>2026-08-09T09:30:36.000Z</time>
      </trkpt>
      <trkpt lat="45.81771" lon="1.49776">
        <ele>265.6</ele>
        <time>2026-08-09T09:30:37.000Z</time>
      </trkpt>
      <trkpt lat="45.81796" lon="1.49756">
        <ele>266.3</ele>
        <time>2026-08-09T09:30:42.000Z</time>
      </trkpt>
      <trkpt lat="45.81811" lon="1.49744">
        <ele>266.2</ele>
        <time>2026-08-09T09:30:45.000Z</time>
      </trkpt>
      <trkpt lat="45.81829" lon="1.49725">
        <ele>264.8</ele>
        <time>2026-08-09T09:30:49.000Z</time>
      </trkpt>
      <trkpt lat="45.81841" lon="1.4971">
        <ele>265.9</ele>
        <time>2026-08-09T09:30:52.000Z</time>
      </trkpt>
      <trkpt lat="45.81871" lon="1.49672">
        <ele>265.2</ele>
        <time>2026-08-09T09:30:59.000Z</time>
      </trkpt>
      <trkpt lat="45.81904" lon="1.4963">
        <ele>264.9</ele>
        <time>2026-08-09T09:31:08.000Z</time>
      </trkpt>
      <trkpt lat="45.81927" lon="1.496">
        <ele>265.1</ele>
        <time>2026-08-09T09:31:14.000Z</time>
      </trkpt>
      <trkpt lat="45.81935" lon="1.49591">
        <ele>264.8</ele>
        <time>2026-08-09T09:31:16.000Z</time>
      </trkpt>
      <trkpt lat="45.81951" lon="1.49571">
        <ele>264.8</ele>
        <time>2026-08-09T09:31:20.000Z</time>
      </trkpt>
      <trkpt lat="45.81962" lon="1.49556">
        <ele>263.7</ele>
        <time>2026-08-09T09:31:23.000Z</time>
      </trkpt>
      <trkpt lat="45.81988" lon="1.49524">
        <ele>266.5</ele>
        <time>2026-08-09T09:31:30.000Z</time>
      </trkpt>
      <trkpt lat="45.82017" lon="1.49487">
        <ele>267.1</ele>
        <time>2026-08-09T09:31:38.000Z</time>
      </trkpt>
      <trkpt lat="45.82043" lon="1.49453">
        <ele>267.2</ele>
        <time>2026-08-09T09:31:46.000Z</time>
      </trkpt>
      <trkpt lat="45.82053" lon="1.49441">
        <ele>266.3</ele>
        <time>2026-08-09T09:31:49.000Z</time>
      </trkpt>
      <trkpt lat="45.82066" lon="1.49425">
        <ele>267.8</ele>
        <time>2026-08-09T09:31:53.000Z</time>
      </trkpt>
      <trkpt lat="45.82092" lon="1.49401">
        <ele>269.3</ele>
        <time>2026-08-09T09:32:01.000Z</time>
      </trkpt>
      <trkpt lat="45.82103" lon="1.4939">
        <ele>268.8</ele>
        <time>2026-08-09T09:32:05.000Z</time>
      </trkpt>
      <trkpt lat="45.82105" lon="1.49388">
        <ele>268.7</ele>
        <time>2026-08-09T09:32:06.000Z</time>
      </trkpt>
      <trkpt lat="45.8212" lon="1.49375">
        <ele>269.4</ele>
        <time>2026-08-09T09:32:12.000Z</time>
      </trkpt>
      <trkpt lat="45.82123" lon="1.49373">
        <ele>269.5</ele>
        <time>2026-08-09T09:32:13.000Z</time>
      </trkpt>
      <trkpt lat="45.82141" lon="1.49358">
        <ele>269.8</ele>
        <time>2026-08-09T09:32:20.000Z</time>
      </trkpt>
      <trkpt lat="45.82159" lon="1.49345">
        <ele>270.4</ele>
        <time>2026-08-09T09:32:27.000Z</time>
      </trkpt>
      <trkpt lat="45.82165" lon="1.4934">
        <ele>270.4</ele>
        <time>2026-08-09T09:32:29.000Z</time>
      </trkpt>
      <trkpt lat="45.82178" lon="1.49331">
        <ele>270.2</ele>
        <time>2026-08-09T09:32:34.000Z</time>
      </trkpt>
      <trkpt lat="45.82199" lon="1.49315">
        <ele>269.6</ele>
        <time>2026-08-09T09:32:42.000Z</time>
      </trkpt>
      <trkpt lat="45.82228" lon="1.49294">
        <ele>270.2</ele>
        <time>2026-08-09T09:32:51.000Z</time>
      </trkpt>
      <trkpt lat="45.8226" lon="1.49269">
        <ele>270.7</ele>
        <time>2026-08-09T09:33:00.000Z</time>
      </trkpt>
      <trkpt lat="45.82286" lon="1.49246">
        <ele>269.8</ele>
        <time>2026-08-09T09:33:07.000Z</time>
      </trkpt>
      <trkpt lat="45.82289" lon="1.49241">
        <ele>270</ele>
        <time>2026-08-09T09:33:08.000Z</time>
      </trkpt>
      <trkpt lat="45.82312" lon="1.49217">
        <ele>269.5</ele>
        <time>2026-08-09T09:33:14.000Z</time>
      </trkpt>
      <trkpt lat="45.82329" lon="1.49193">
        <ele>269.2</ele>
        <time>2026-08-09T09:33:20.000Z</time>
      </trkpt>
      <trkpt lat="45.82341" lon="1.49175">
        <ele>269.9</ele>
        <time>2026-08-09T09:33:25.000Z</time>
      </trkpt>
      <trkpt lat="45.82355" lon="1.49156">
        <ele>269.9</ele>
        <time>2026-08-09T09:33:31.000Z</time>
      </trkpt>
      <trkpt lat="45.82378" lon="1.49123">
        <ele>268.9</ele>
        <time>2026-08-09T09:33:40.000Z</time>
      </trkpt>
      <trkpt lat="45.82397" lon="1.49093">
        <ele>269.3</ele>
        <time>2026-08-09T09:33:48.000Z</time>
      </trkpt>
      <trkpt lat="45.82416" lon="1.49064">
        <ele>269.5</ele>
        <time>2026-08-09T09:33:56.000Z</time>
      </trkpt>
      <trkpt lat="45.8244" lon="1.4903">
        <ele>270.7</ele>
        <time>2026-08-09T09:34:05.000Z</time>
      </trkpt>
      <trkpt lat="45.82464" lon="1.48997">
        <ele>271.5</ele>
        <time>2026-08-09T09:34:14.000Z</time>
      </trkpt>
      <trkpt lat="45.82482" lon="1.48972">
        <ele>271</ele>
        <time>2026-08-09T09:34:21.000Z</time>
      </trkpt>
      <trkpt lat="45.82499" lon="1.4895">
        <ele>270.8</ele>
        <time>2026-08-09T09:34:27.000Z</time>
      </trkpt>
      <trkpt lat="45.82502" lon="1.48946">
        <ele>270.8</ele>
        <time>2026-08-09T09:34:28.000Z</time>
      </trkpt>
      <trkpt lat="45.82515" lon="1.48926">
        <ele>270.8</ele>
        <time>2026-08-09T09:34:33.000Z</time>
      </trkpt>
      <trkpt lat="45.82535" lon="1.48892">
        <ele>271.2</ele>
        <time>2026-08-09T09:34:41.000Z</time>
      </trkpt>
      <trkpt lat="45.82554" lon="1.4885">
        <ele>271</ele>
        <time>2026-08-09T09:34:50.000Z</time>
      </trkpt>
      <trkpt lat="45.82566" lon="1.48823">
        <ele>271.4</ele>
        <time>2026-08-09T09:34:56.000Z</time>
      </trkpt>
      <trkpt lat="45.82585" lon="1.48781">
        <ele>271.9</ele>
        <time>2026-08-09T09:35:05.000Z</time>
      </trkpt>
      <trkpt lat="45.82602" lon="1.48743">
        <ele>272.1</ele>
        <time>2026-08-09T09:35:13.000Z</time>
      </trkpt>
      <trkpt lat="45.82614" lon="1.48723">
        <ele>272.9</ele>
        <time>2026-08-09T09:35:17.000Z</time>
      </trkpt>
      <trkpt lat="45.82624" lon="1.48697">
        <ele>272.5</ele>
        <time>2026-08-09T09:35:22.000Z</time>
      </trkpt>
      <trkpt lat="45.82643" lon="1.48653">
        <ele>272</ele>
        <time>2026-08-09T09:35:30.000Z</time>
      </trkpt>
      <trkpt lat="45.82661" lon="1.48607">
        <ele>270.4</ele>
        <time>2026-08-09T09:35:37.000Z</time>
      </trkpt>
      <trkpt lat="45.82674" lon="1.48574">
        <ele>270</ele>
        <time>2026-08-09T09:35:41.000Z</time>
      </trkpt>
      <trkpt lat="45.82681" lon="1.48556">
        <ele>270.2</ele>
        <time>2026-08-09T09:35:43.000Z</time>
      </trkpt>
      <trkpt lat="45.82692" lon="1.48529">
        <ele>266.9</ele>
        <time>2026-08-09T09:35:46.000Z</time>
      </trkpt>
      <trkpt lat="45.82706" lon="1.48501">
        <ele>265</ele>
        <time>2026-08-09T09:35:49.000Z</time>
      </trkpt>
      <trkpt lat="45.82717" lon="1.48484">
        <ele>264.6</ele>
        <time>2026-08-09T09:35:51.000Z</time>
      </trkpt>
      <trkpt lat="45.82738" lon="1.48447">
        <ele>262.5</ele>
        <time>2026-08-09T09:35:55.000Z</time>
      </trkpt>
      <trkpt lat="45.82744" lon="1.48438">
        <ele>262.3</ele>
        <time>2026-08-09T09:35:56.000Z</time>
      </trkpt>
      <trkpt lat="45.8276" lon="1.48411">
        <ele>261.8</ele>
        <time>2026-08-09T09:35:59.000Z</time>
      </trkpt>
      <trkpt lat="45.82775" lon="1.48385">
        <ele>261.2</ele>
        <time>2026-08-09T09:36:02.000Z</time>
      </trkpt>
      <trkpt lat="45.8279" lon="1.48359">
        <ele>260.7</ele>
        <time>2026-08-09T09:36:05.000Z</time>
      </trkpt>
      <trkpt lat="45.82795" lon="1.48351">
        <ele>261.1</ele>
        <time>2026-08-09T09:36:06.000Z</time>
      </trkpt>
      <trkpt lat="45.8281" lon="1.48318">
        <ele>261.3</ele>
        <time>2026-08-09T09:36:10.000Z</time>
      </trkpt>
      <trkpt lat="45.82816" lon="1.48302">
        <ele>261.5</ele>
        <time>2026-08-09T09:36:12.000Z</time>
      </trkpt>
      <trkpt lat="45.82828" lon="1.48273">
        <ele>261.8</ele>
        <time>2026-08-09T09:36:16.000Z</time>
      </trkpt>
      <trkpt lat="45.8284" lon="1.48238">
        <ele>263.2</ele>
        <time>2026-08-09T09:36:21.000Z</time>
      </trkpt>
      <trkpt lat="45.82855" lon="1.48194">
        <ele>261.3</ele>
        <time>2026-08-09T09:36:28.000Z</time>
      </trkpt>
      <trkpt lat="45.82866" lon="1.48163">
        <ele>261.4</ele>
        <time>2026-08-09T09:36:33.000Z</time>
      </trkpt>
      <trkpt lat="45.82872" lon="1.48151">
        <ele>261.2</ele>
        <time>2026-08-09T09:36:35.000Z</time>
      </trkpt>
      <trkpt lat="45.82897" lon="1.48116">
        <ele>261.4</ele>
        <time>2026-08-09T09:36:42.000Z</time>
      </trkpt>
      <trkpt lat="45.82912" lon="1.48098">
        <ele>261.2</ele>
        <time>2026-08-09T09:36:46.000Z</time>
      </trkpt>
      <trkpt lat="45.8292" lon="1.48086">
        <ele>261.1</ele>
        <time>2026-08-09T09:36:49.000Z</time>
      </trkpt>
      <trkpt lat="45.82924" lon="1.48082">
        <ele>260.9</ele>
        <time>2026-08-09T09:36:50.000Z</time>
      </trkpt>
      <trkpt lat="45.82943" lon="1.4806">
        <ele>260.9</ele>
        <time>2026-08-09T09:36:55.000Z</time>
      </trkpt>
      <trkpt lat="45.8295" lon="1.48055">
        <ele>261.1</ele>
        <time>2026-08-09T09:36:57.000Z</time>
      </trkpt>
      <trkpt lat="45.82966" lon="1.48044">
        <ele>261.3</ele>
        <time>2026-08-09T09:37:01.000Z</time>
      </trkpt>
      <trkpt lat="45.82974" lon="1.48042">
        <ele>261.6</ele>
        <time>2026-08-09T09:37:03.000Z</time>
      </trkpt>
      <trkpt lat="45.82997" lon="1.48037">
        <ele>262.8</ele>
        <time>2026-08-09T09:37:10.000Z</time>
      </trkpt>
      <trkpt lat="45.83016" lon="1.48035">
        <ele>263.6</ele>
        <time>2026-08-09T09:37:16.000Z</time>
      </trkpt>
      <trkpt lat="45.8302" lon="1.48035">
        <ele>263.7</ele>
        <time>2026-08-09T09:37:17.000Z</time>
      </trkpt>
      <trkpt lat="45.83037" lon="1.48034">
        <ele>264.4</ele>
        <time>2026-08-09T09:37:23.000Z</time>
      </trkpt>
      <trkpt lat="45.8306" lon="1.4803">
        <ele>265.3</ele>
        <time>2026-08-09T09:37:31.000Z</time>
      </trkpt>
      <trkpt lat="45.83073" lon="1.48028">
        <ele>265.6</ele>
        <time>2026-08-09T09:37:36.000Z</time>
      </trkpt>
      <trkpt lat="45.83089" lon="1.48023">
        <ele>266.1</ele>
        <time>2026-08-09T09:37:43.000Z</time>
      </trkpt>
      <trkpt lat="45.83095" lon="1.48023">
        <ele>266.7</ele>
        <time>2026-08-09T09:37:46.000Z</time>
      </trkpt>
      <trkpt lat="45.83097" lon="1.48022">
        <ele>266.8</ele>
        <time>2026-08-09T09:37:47.000Z</time>
      </trkpt>
      <trkpt lat="45.83105" lon="1.48018">
        <ele>267.3</ele>
        <time>2026-08-09T09:37:52.000Z</time>
      </trkpt>
      <trkpt lat="45.83107" lon="1.48017">
        <ele>267.4</ele>
        <time>2026-08-09T09:37:53.000Z</time>
      </trkpt>
      <trkpt lat="45.83112" lon="1.48017">
        <ele>268</ele>
        <time>2026-08-09T09:37:56.000Z</time>
      </trkpt>
      <trkpt lat="45.83124" lon="1.48012">
        <ele>268.7</ele>
        <time>2026-08-09T09:38:02.000Z</time>
      </trkpt>
      <trkpt lat="45.83126" lon="1.48012">
        <ele>268.8</ele>
        <time>2026-08-09T09:38:03.000Z</time>
      </trkpt>
      <trkpt lat="45.83147" lon="1.48003">
        <ele>270.2</ele>
        <time>2026-08-09T09:38:14.000Z</time>
      </trkpt>
      <trkpt lat="45.83159" lon="1.48">
        <ele>271.1</ele>
        <time>2026-08-09T09:38:20.000Z</time>
      </trkpt>
      <trkpt lat="45.83163" lon="1.47998">
        <ele>271.4</ele>
        <time>2026-08-09T09:38:22.000Z</time>
      </trkpt>
      <trkpt lat="45.83177" lon="1.47992">
        <ele>271.2</ele>
        <time>2026-08-09T09:38:29.000Z</time>
      </trkpt>
      <trkpt lat="45.83195" lon="1.47987">
        <ele>271.1</ele>
        <time>2026-08-09T09:38:37.000Z</time>
      </trkpt>
      <trkpt lat="45.83202" lon="1.47984">
        <ele>270.7</ele>
        <time>2026-08-09T09:38:40.000Z</time>
      </trkpt>
      <trkpt lat="45.8321" lon="1.47981">
        <ele>270.5</ele>
        <time>2026-08-09T09:38:43.000Z</time>
      </trkpt>
      <trkpt lat="45.83216" lon="1.47979">
        <ele>270.3</ele>
        <time>2026-08-09T09:38:45.000Z</time>
      </trkpt>
      <trkpt lat="45.83241" lon="1.47973">
        <ele>270</ele>
        <time>2026-08-09T09:38:54.000Z</time>
      </trkpt>
      <trkpt lat="45.83248" lon="1.4798">
        <ele>270.3</ele>
        <time>2026-08-09T09:38:57.000Z</time>
      </trkpt>
      <trkpt lat="45.83248" lon="1.47982">
        <ele>270.4</ele>
        <time>2026-08-09T09:38:58.000Z</time>
      </trkpt>
      <trkpt lat="45.83247" lon="1.47984">
        <ele>270.5</ele>
        <time>2026-08-09T09:38:59.000Z</time>
      </trkpt>
      <trkpt lat="45.83244" lon="1.47987">
        <ele>270.6</ele>
        <time>2026-08-09T09:39:01.000Z</time>
      </trkpt>
      <trkpt lat="45.83243" lon="1.47987">
        <ele>270.7</ele>
        <time>2026-08-09T09:39:02.000Z</time>
      </trkpt>
      <trkpt lat="45.8324" lon="1.4799">
        <ele>270.8</ele>
        <time>2026-08-09T09:39:05.000Z</time>
      </trkpt>
      <trkpt lat="45.8324" lon="1.47992">
        <ele>271</ele>
        <time>2026-08-09T09:39:07.000Z</time>
      </trkpt>
      <trkpt lat="45.83243" lon="1.47993">
        <ele>270.9</ele>
        <time>2026-08-09T09:39:09.000Z</time>
      </trkpt>
      <trkpt lat="45.83249" lon="1.47989">
        <ele>270.6</ele>
        <time>2026-08-09T09:39:11.000Z</time>
      </trkpt>
      <trkpt lat="45.83271" lon="1.47972">
        <ele>269.2</ele>
        <time>2026-08-09T09:39:16.000Z</time>
      </trkpt>
      <trkpt lat="45.83277" lon="1.47969">
        <ele>268.9</ele>
        <time>2026-08-09T09:39:17.000Z</time>
      </trkpt>
      <trkpt lat="45.83288" lon="1.4797">
        <ele>269.2</ele>
        <time>2026-08-09T09:39:19.000Z</time>
      </trkpt>
      <trkpt lat="45.83309" lon="1.47978">
        <ele>270.8</ele>
        <time>2026-08-09T09:39:24.000Z</time>
      </trkpt>
      <trkpt lat="45.8332" lon="1.47983">
        <ele>271.4</ele>
        <time>2026-08-09T09:39:29.000Z</time>
      </trkpt>
      <trkpt lat="45.83333" lon="1.47991">
        <ele>272</ele>
        <time>2026-08-09T09:39:36.000Z</time>
      </trkpt>
      <trkpt lat="45.83339" lon="1.47993">
        <ele>272.1</ele>
        <time>2026-08-09T09:39:39.000Z</time>
      </trkpt>
      <trkpt lat="45.83343" lon="1.47996">
        <ele>272.4</ele>
        <time>2026-08-09T09:39:41.000Z</time>
      </trkpt>
      <trkpt lat="45.83354" lon="1.48002">
        <ele>273.3</ele>
        <time>2026-08-09T09:39:47.000Z</time>
      </trkpt>
      <trkpt lat="45.83358" lon="1.48005">
        <ele>273.6</ele>
        <time>2026-08-09T09:39:49.000Z</time>
      </trkpt>
      <trkpt lat="45.83361" lon="1.48009">
        <ele>273.9</ele>
        <time>2026-08-09T09:39:51.000Z</time>
      </trkpt>
      <trkpt lat="45.8337" lon="1.48019">
        <ele>274.3</ele>
        <time>2026-08-09T09:39:57.000Z</time>
      </trkpt>
      <trkpt lat="45.83377" lon="1.48032">
        <ele>275.3</ele>
        <time>2026-08-09T09:40:04.000Z</time>
      </trkpt>
      <trkpt lat="45.83378" lon="1.48034">
        <ele>275.4</ele>
        <time>2026-08-09T09:40:05.000Z</time>
      </trkpt>
      <trkpt lat="45.83382" lon="1.48046">
        <ele>276.3</ele>
        <time>2026-08-09T09:40:10.000Z</time>
      </trkpt>
      <trkpt lat="45.83385" lon="1.48053">
        <ele>276.9</ele>
        <time>2026-08-09T09:40:13.000Z</time>
      </trkpt>
      <trkpt lat="45.8339" lon="1.48064">
        <ele>277.8</ele>
        <time>2026-08-09T09:40:18.000Z</time>
      </trkpt>
      <trkpt lat="45.83393" lon="1.4807">
        <ele>278.2</ele>
        <time>2026-08-09T09:40:21.000Z</time>
      </trkpt>
      <trkpt lat="45.83397" lon="1.48083">
        <ele>279.1</ele>
        <time>2026-08-09T09:40:26.000Z</time>
      </trkpt>
      <trkpt lat="45.83402" lon="1.48093">
        <ele>280.2</ele>
        <time>2026-08-09T09:40:30.000Z</time>
      </trkpt>
      <trkpt lat="45.83403" lon="1.48095">
        <ele>280.4</ele>
        <time>2026-08-09T09:40:31.000Z</time>
      </trkpt>
      <trkpt lat="45.83403" lon="1.48097">
        <ele>280.6</ele>
        <time>2026-08-09T09:40:32.000Z</time>
      </trkpt>
      <trkpt lat="45.83403" lon="1.48105">
        <ele>282</ele>
        <time>2026-08-09T09:40:35.000Z</time>
      </trkpt>
      <trkpt lat="45.83404" lon="1.48109">
        <ele>282.5</ele>
        <time>2026-08-09T09:40:37.000Z</time>
      </trkpt>
      <trkpt lat="45.834" lon="1.48119">
        <ele>283.3</ele>
        <time>2026-08-09T09:40:42.000Z</time>
      </trkpt>
      <trkpt lat="45.83398" lon="1.48121">
        <ele>283.4</ele>
        <time>2026-08-09T09:40:43.000Z</time>
      </trkpt>
      <trkpt lat="45.83396" lon="1.48124">
        <ele>283.6</ele>
        <time>2026-08-09T09:40:45.000Z</time>
      </trkpt>
      <trkpt lat="45.83393" lon="1.48127">
        <ele>283.5</ele>
        <time>2026-08-09T09:40:47.000Z</time>
      </trkpt>
      <trkpt lat="45.83391" lon="1.4813">
        <ele>283.4</ele>
        <time>2026-08-09T09:40:49.000Z</time>
      </trkpt>
      <trkpt lat="45.83384" lon="1.48135">
        <ele>283.2</ele>
        <time>2026-08-09T09:40:54.000Z</time>
      </trkpt>
      <trkpt lat="45.83379" lon="1.48139">
        <ele>283.2</ele>
        <time>2026-08-09T09:40:58.000Z</time>
      </trkpt>
      <trkpt lat="45.83369" lon="1.48141">
        <ele>284.3</ele>
        <time>2026-08-09T09:41:04.000Z</time>
      </trkpt>
      <trkpt lat="45.83364" lon="1.48144">
        <ele>285.1</ele>
        <time>2026-08-09T09:41:07.000Z</time>
      </trkpt>
      <trkpt lat="45.83353" lon="1.48146">
        <ele>286.8</ele>
        <time>2026-08-09T09:41:13.000Z</time>
      </trkpt>
      <trkpt lat="45.83349" lon="1.48147">
        <ele>287.4</ele>
        <time>2026-08-09T09:41:15.000Z</time>
      </trkpt>
      <trkpt lat="45.83338" lon="1.4815">
        <ele>288.8</ele>
        <time>2026-08-09T09:41:22.000Z</time>
      </trkpt>
      <trkpt lat="45.83334" lon="1.48151">
        <ele>289.1</ele>
        <time>2026-08-09T09:41:24.000Z</time>
      </trkpt>
      <trkpt lat="45.83326" lon="1.48154">
        <ele>289</ele>
        <time>2026-08-09T09:41:29.000Z</time>
      </trkpt>
      <trkpt lat="45.83324" lon="1.48155">
        <ele>289</ele>
        <time>2026-08-09T09:41:30.000Z</time>
      </trkpt>
      <trkpt lat="45.83315" lon="1.48158">
        <ele>288.9</ele>
        <time>2026-08-09T09:41:36.000Z</time>
      </trkpt>
      <trkpt lat="45.83313" lon="1.48159">
        <ele>288.9</ele>
        <time>2026-08-09T09:41:37.000Z</time>
      </trkpt>
      <trkpt lat="45.83304" lon="1.48162">
        <ele>288.7</ele>
        <time>2026-08-09T09:41:44.000Z</time>
      </trkpt>
      <trkpt lat="45.83292" lon="1.48165">
        <ele>288.7</ele>
        <time>2026-08-09T09:41:51.000Z</time>
      </trkpt>
      <trkpt lat="45.83291" lon="1.48166">
        <ele>288.6</ele>
        <time>2026-08-09T09:41:52.000Z</time>
      </trkpt>
      <trkpt lat="45.83288" lon="1.48168">
        <ele>288.8</ele>
        <time>2026-08-09T09:41:54.000Z</time>
      </trkpt>
      <trkpt lat="45.83283" lon="1.48167">
        <ele>288.8</ele>
        <time>2026-08-09T09:41:57.000Z</time>
      </trkpt>
      <trkpt lat="45.83277" lon="1.48169">
        <ele>289.4</ele>
        <time>2026-08-09T09:42:01.000Z</time>
      </trkpt>
      <trkpt lat="45.83276" lon="1.48169">
        <ele>289.6</ele>
        <time>2026-08-09T09:42:02.000Z</time>
      </trkpt>
      <trkpt lat="45.83274" lon="1.48169">
        <ele>289.8</ele>
        <time>2026-08-09T09:42:03.000Z</time>
      </trkpt>
      <trkpt lat="45.8327" lon="1.4817">
        <ele>290.2</ele>
        <time>2026-08-09T09:42:05.000Z</time>
      </trkpt>
      <trkpt lat="45.83261" lon="1.48175">
        <ele>291.3</ele>
        <time>2026-08-09T09:42:11.000Z</time>
      </trkpt>
      <trkpt lat="45.83258" lon="1.48177">
        <ele>291.6</ele>
        <time>2026-08-09T09:42:13.000Z</time>
      </trkpt>
      <trkpt lat="45.83257" lon="1.48177">
        <ele>291.6</ele>
        <time>2026-08-09T09:42:14.000Z</time>
      </trkpt>
      <trkpt lat="45.83256" lon="1.48177">
        <ele>291.7</ele>
        <time>2026-08-09T09:42:15.000Z</time>
      </trkpt>
      <trkpt lat="45.83255" lon="1.48177">
        <ele>291.7</ele>
        <time>2026-08-09T09:42:16.000Z</time>
      </trkpt>
      <trkpt lat="45.83252" lon="1.4818">
        <ele>291.9</ele>
        <time>2026-08-09T09:42:20.000Z</time>
      </trkpt>
      <trkpt lat="45.83251" lon="1.48183">
        <ele>292</ele>
        <time>2026-08-09T09:42:22.000Z</time>
      </trkpt>
      <trkpt lat="45.83249" lon="1.48186">
        <ele>292</ele>
        <time>2026-08-09T09:42:24.000Z</time>
      </trkpt>
      <trkpt lat="45.83245" lon="1.48186">
        <ele>292</ele>
        <time>2026-08-09T09:42:27.000Z</time>
      </trkpt>
      <trkpt lat="45.83245" lon="1.48187">
        <ele>292</ele>
        <time>2026-08-09T09:42:28.000Z</time>
      </trkpt>
      <trkpt lat="45.83243" lon="1.48189">
        <ele>292</ele>
        <time>2026-08-09T09:42:30.000Z</time>
      </trkpt>
      <trkpt lat="45.83241" lon="1.4819">
        <ele>292</ele>
        <time>2026-08-09T09:42:32.000Z</time>
      </trkpt>
      <trkpt lat="45.8324" lon="1.48191">
        <ele>292</ele>
        <time>2026-08-09T09:42:33.000Z</time>
      </trkpt>
      <trkpt lat="45.83237" lon="1.48195">
        <ele>292.1</ele>
        <time>2026-08-09T09:42:36.000Z</time>
      </trkpt>
      <trkpt lat="45.83235" lon="1.48198">
        <ele>292.3</ele>
        <time>2026-08-09T09:42:38.000Z</time>
      </trkpt>
      <trkpt lat="45.83233" lon="1.48198">
        <ele>292.3</ele>
        <time>2026-08-09T09:42:39.000Z</time>
      </trkpt>
      <trkpt lat="45.83232" lon="1.48199">
        <ele>292.3</ele>
        <time>2026-08-09T09:42:40.000Z</time>
      </trkpt>
      <trkpt lat="45.83229" lon="1.48202">
        <ele>292.6</ele>
        <time>2026-08-09T09:42:44.000Z</time>
      </trkpt>
      <trkpt lat="45.83227" lon="1.48203">
        <ele>292.7</ele>
        <time>2026-08-09T09:42:45.000Z</time>
      </trkpt>
      <trkpt lat="45.83221" lon="1.48203">
        <ele>292.6</ele>
        <time>2026-08-09T09:42:52.000Z</time>
      </trkpt>
      <trkpt lat="45.83217" lon="1.48205">
        <ele>292.7</ele>
        <time>2026-08-09T09:43:15.000Z</time>
      </trkpt>
      <trkpt lat="45.83213" lon="1.48207">
        <ele>292.8</ele>
        <time>2026-08-09T09:43:17.000Z</time>
      </trkpt>
      <trkpt lat="45.83205" lon="1.4821">
        <ele>292.8</ele>
        <time>2026-08-09T09:43:21.000Z</time>
      </trkpt>
      <trkpt lat="45.83197" lon="1.48216">
        <ele>292.8</ele>
        <time>2026-08-09T09:43:25.000Z</time>
      </trkpt>
      <trkpt lat="45.83185" lon="1.48227">
        <ele>293.3</ele>
        <time>2026-08-09T09:43:32.000Z</time>
      </trkpt>
      <trkpt lat="45.83182" lon="1.48231">
        <ele>293.6</ele>
        <time>2026-08-09T09:43:34.000Z</time>
      </trkpt>
      <trkpt lat="45.83179" lon="1.48241">
        <ele>294.3</ele>
        <time>2026-08-09T09:43:38.000Z</time>
      </trkpt>
      <trkpt lat="45.83174" lon="1.48251">
        <ele>295.1</ele>
        <time>2026-08-09T09:43:43.000Z</time>
      </trkpt>
      <trkpt lat="45.83173" lon="1.48254">
        <ele>295.2</ele>
        <time>2026-08-09T09:43:44.000Z</time>
      </trkpt>
      <trkpt lat="45.83173" lon="1.48257">
        <ele>295.3</ele>
        <time>2026-08-09T09:43:45.000Z</time>
      </trkpt>
      <trkpt lat="45.83171" lon="1.48275">
        <ele>296.1</ele>
        <time>2026-08-09T09:43:52.000Z</time>
      </trkpt>
      <trkpt lat="45.83173" lon="1.48291">
        <ele>296.6</ele>
        <time>2026-08-09T09:43:59.000Z</time>
      </trkpt>
      <trkpt lat="45.83173" lon="1.48298">
        <ele>296.8</ele>
        <time>2026-08-09T09:44:02.000Z</time>
      </trkpt>
      <trkpt lat="45.83173" lon="1.48302">
        <ele>296.9</ele>
        <time>2026-08-09T09:44:04.000Z</time>
      </trkpt>
      <trkpt lat="45.83172" lon="1.48308">
        <ele>297.2</ele>
        <time>2026-08-09T09:44:07.000Z</time>
      </trkpt>
      <trkpt lat="45.8317" lon="1.48311">
        <ele>297.4</ele>
        <time>2026-08-09T09:44:09.000Z</time>
      </trkpt>
      <trkpt lat="45.83172" lon="1.48315">
        <ele>297.7</ele>
        <time>2026-08-09T09:44:12.000Z</time>
      </trkpt>
      <trkpt lat="45.83172" lon="1.48317">
        <ele>297.8</ele>
        <time>2026-08-09T09:44:13.000Z</time>
      </trkpt>
      <trkpt lat="45.83172" lon="1.48321">
        <ele>298.1</ele>
        <time>2026-08-09T09:44:15.000Z</time>
      </trkpt>
      <trkpt lat="45.8317" lon="1.48328">
        <ele>298.6</ele>
        <time>2026-08-09T09:44:18.000Z</time>
      </trkpt>
      <trkpt lat="45.8317" lon="1.4833">
        <ele>298.8</ele>
        <time>2026-08-09T09:44:19.000Z</time>
      </trkpt>
      <trkpt lat="45.8317" lon="1.48339">
        <ele>299.2</ele>
        <time>2026-08-09T09:44:23.000Z</time>
      </trkpt>
      <trkpt lat="45.8317" lon="1.48343">
        <ele>299.4</ele>
        <time>2026-08-09T09:44:25.000Z</time>
      </trkpt>
      <trkpt lat="45.8317" lon="1.48347">
        <ele>299.5</ele>
        <time>2026-08-09T09:44:27.000Z</time>
      </trkpt>
      <trkpt lat="45.8317" lon="1.48349">
        <ele>299.6</ele>
        <time>2026-08-09T09:44:28.000Z</time>
      </trkpt>
      <trkpt lat="45.8317" lon="1.48352">
        <ele>299.7</ele>
        <time>2026-08-09T09:44:30.000Z</time>
      </trkpt>
      <trkpt lat="45.8317" lon="1.4836">
        <ele>300</ele>
        <time>2026-08-09T09:44:34.000Z</time>
      </trkpt>
      <trkpt lat="45.83169" lon="1.48364">
        <ele>300.1</ele>
        <time>2026-08-09T09:44:36.000Z</time>
      </trkpt>
      <trkpt lat="45.83169" lon="1.48366">
        <ele>300.2</ele>
        <time>2026-08-09T09:44:37.000Z</time>
      </trkpt>
      <trkpt lat="45.8317" lon="1.48378">
        <ele>300.6</ele>
        <time>2026-08-09T09:44:42.000Z</time>
      </trkpt>
      <trkpt lat="45.8317" lon="1.48388">
        <ele>301</ele>
        <time>2026-08-09T09:44:47.000Z</time>
      </trkpt>
      <trkpt lat="45.8317" lon="1.48393">
        <ele>301.2</ele>
        <time>2026-08-09T09:44:49.000Z</time>
      </trkpt>
      <trkpt lat="45.83171" lon="1.48408">
        <ele>301.7</ele>
        <time>2026-08-09T09:44:56.000Z</time>
      </trkpt>
      <trkpt lat="45.83171" lon="1.4841">
        <ele>301.8</ele>
        <time>2026-08-09T09:44:57.000Z</time>
      </trkpt>
      <trkpt lat="45.83167" lon="1.48415">
        <ele>301.9</ele>
        <time>2026-08-09T09:45:01.000Z</time>
      </trkpt>
      <trkpt lat="45.83167" lon="1.48416">
        <ele>302</ele>
        <time>2026-08-09T09:45:02.000Z</time>
      </trkpt>
      <trkpt lat="45.83166" lon="1.48418">
        <ele>302.1</ele>
        <time>2026-08-09T09:45:04.000Z</time>
      </trkpt>
      <trkpt lat="45.83164" lon="1.48421">
        <ele>302.3</ele>
        <time>2026-08-09T09:45:07.000Z</time>
      </trkpt>
      <trkpt lat="45.83162" lon="1.48425">
        <ele>302.5</ele>
        <time>2026-08-09T09:45:13.000Z</time>
      </trkpt>
      <trkpt lat="45.83161" lon="1.48432">
        <ele>302.8</ele>
        <time>2026-08-09T09:46:14.000Z</time>
      </trkpt>
      <trkpt lat="45.83162" lon="1.48439">
        <ele>303.2</ele>
        <time>2026-08-09T09:46:17.000Z</time>
      </trkpt>
      <trkpt lat="45.83164" lon="1.48452">
        <ele>303.5</ele>
        <time>2026-08-09T09:46:21.000Z</time>
      </trkpt>
      <trkpt lat="45.83165" lon="1.48458">
        <ele>303.6</ele>
        <time>2026-08-09T09:46:23.000Z</time>
      </trkpt>
      <trkpt lat="45.83165" lon="1.48478">
        <ele>304.3</ele>
        <time>2026-08-09T09:46:30.000Z</time>
      </trkpt>
      <trkpt lat="45.83165" lon="1.48487">
        <ele>304.6</ele>
        <time>2026-08-09T09:46:33.000Z</time>
      </trkpt>
      <trkpt lat="45.83165" lon="1.48509">
        <ele>305.4</ele>
        <time>2026-08-09T09:46:41.000Z</time>
      </trkpt>
      <trkpt lat="45.83163" lon="1.4853">
        <ele>306.2</ele>
        <time>2026-08-09T09:46:49.000Z</time>
      </trkpt>
      <trkpt lat="45.83163" lon="1.48533">
        <ele>306.3</ele>
        <time>2026-08-09T09:46:50.000Z</time>
      </trkpt>
      <trkpt lat="45.83164" lon="1.48553">
        <ele>307.1</ele>
        <time>2026-08-09T09:46:58.000Z</time>
      </trkpt>
      <trkpt lat="45.83164" lon="1.48562">
        <ele>307.5</ele>
        <time>2026-08-09T09:47:02.000Z</time>
      </trkpt>
      <trkpt lat="45.83162" lon="1.48571">
        <ele>307.9</ele>
        <time>2026-08-09T09:47:06.000Z</time>
      </trkpt>
      <trkpt lat="45.83161" lon="1.48588">
        <ele>308.9</ele>
        <time>2026-08-09T09:47:14.000Z</time>
      </trkpt>
      <trkpt lat="45.83161" lon="1.48599">
        <ele>309.7</ele>
        <time>2026-08-09T09:47:19.000Z</time>
      </trkpt>
      <trkpt lat="45.83161" lon="1.48604">
        <ele>310</ele>
        <time>2026-08-09T09:47:21.000Z</time>
      </trkpt>
      <trkpt lat="45.83162" lon="1.4862">
        <ele>310.7</ele>
        <time>2026-08-09T09:47:28.000Z</time>
      </trkpt>
      <trkpt lat="45.83162" lon="1.48623">
        <ele>310.7</ele>
        <time>2026-08-09T09:47:29.000Z</time>
      </trkpt>
      <trkpt lat="45.83163" lon="1.48641">
        <ele>311.4</ele>
        <time>2026-08-09T09:47:36.000Z</time>
      </trkpt>
      <trkpt lat="45.83163" lon="1.48644">
        <ele>311.4</ele>
        <time>2026-08-09T09:47:37.000Z</time>
      </trkpt>
      <trkpt lat="45.83167" lon="1.4866">
        <ele>311.8</ele>
        <time>2026-08-09T09:47:43.000Z</time>
      </trkpt>
      <trkpt lat="45.83168" lon="1.48666">
        <ele>312</ele>
        <time>2026-08-09T09:47:46.000Z</time>
      </trkpt>
      <trkpt lat="45.83172" lon="1.48679">
        <ele>312.8</ele>
        <time>2026-08-09T09:47:51.000Z</time>
      </trkpt>
      <trkpt lat="45.83182" lon="1.48697">
        <ele>313.6</ele>
        <time>2026-08-09T09:47:59.000Z</time>
      </trkpt>
      <trkpt lat="45.8319" lon="1.48711">
        <ele>314.3</ele>
        <time>2026-08-09T09:48:06.000Z</time>
      </trkpt>
      <trkpt lat="45.83193" lon="1.48714">
        <ele>314.4</ele>
        <time>2026-08-09T09:48:08.000Z</time>
      </trkpt>
      <trkpt lat="45.83205" lon="1.48725">
        <ele>315.3</ele>
        <time>2026-08-09T09:48:16.000Z</time>
      </trkpt>
      <trkpt lat="45.83209" lon="1.48728">
        <ele>315.7</ele>
        <time>2026-08-09T09:48:19.000Z</time>
      </trkpt>
      <trkpt lat="45.83219" lon="1.48734">
        <ele>316.2</ele>
        <time>2026-08-09T09:48:25.000Z</time>
      </trkpt>
      <trkpt lat="45.8323" lon="1.48738">
        <ele>316.8</ele>
        <time>2026-08-09T09:48:31.000Z</time>
      </trkpt>
      <trkpt lat="45.83235" lon="1.48739">
        <ele>317</ele>
        <time>2026-08-09T09:48:34.000Z</time>
      </trkpt>
      <trkpt lat="45.8325" lon="1.4874">
        <ele>317.3</ele>
        <time>2026-08-09T09:48:43.000Z</time>
      </trkpt>
      <trkpt lat="45.83257" lon="1.48739">
        <ele>317.9</ele>
        <time>2026-08-09T09:48:47.000Z</time>
      </trkpt>
      <trkpt lat="45.83264" lon="1.48738">
        <ele>318.6</ele>
        <time>2026-08-09T09:48:51.000Z</time>
      </trkpt>
      <trkpt lat="45.83276" lon="1.48735">
        <ele>319.7</ele>
        <time>2026-08-09T09:48:59.000Z</time>
      </trkpt>
      <trkpt lat="45.83281" lon="1.48735">
        <ele>320</ele>
        <time>2026-08-09T09:49:02.000Z</time>
      </trkpt>
      <trkpt lat="45.83293" lon="1.48732">
        <ele>320.5</ele>
        <time>2026-08-09T09:49:11.000Z</time>
      </trkpt>
      <trkpt lat="45.83306" lon="1.4873">
        <ele>320.9</ele>
        <time>2026-08-09T09:49:20.000Z</time>
      </trkpt>
      <trkpt lat="45.83311" lon="1.4873">
        <ele>321.2</ele>
        <time>2026-08-09T09:49:23.000Z</time>
      </trkpt>
      <trkpt lat="45.83324" lon="1.48732">
        <ele>322.1</ele>
        <time>2026-08-09T09:49:31.000Z</time>
      </trkpt>
      <trkpt lat="45.83339" lon="1.48736">
        <ele>323.2</ele>
        <time>2026-08-09T09:49:40.000Z</time>
      </trkpt>
      <trkpt lat="45.83347" lon="1.48739">
        <ele>323.7</ele>
        <time>2026-08-09T09:49:46.000Z</time>
      </trkpt>
      <trkpt lat="45.8335" lon="1.48741">
        <ele>323.9</ele>
        <time>2026-08-09T09:49:48.000Z</time>
      </trkpt>
      <trkpt lat="45.83364" lon="1.48746">
        <ele>324.8</ele>
        <time>2026-08-09T09:49:56.000Z</time>
      </trkpt>
      <trkpt lat="45.83369" lon="1.48748">
        <ele>325.1</ele>
        <time>2026-08-09T09:49:59.000Z</time>
      </trkpt>
      <trkpt lat="45.83378" lon="1.48753">
        <ele>326</ele>
        <time>2026-08-09T09:50:05.000Z</time>
      </trkpt>
      <trkpt lat="45.83383" lon="1.48757">
        <ele>326.6</ele>
        <time>2026-08-09T09:50:09.000Z</time>
      </trkpt>
      <trkpt lat="45.83396" lon="1.48764">
        <ele>327.5</ele>
        <time>2026-08-09T09:50:17.000Z</time>
      </trkpt>
      <trkpt lat="45.83398" lon="1.48765">
        <ele>327.6</ele>
        <time>2026-08-09T09:50:18.000Z</time>
      </trkpt>
      <trkpt lat="45.83407" lon="1.48771">
        <ele>327.9</ele>
        <time>2026-08-09T09:50:24.000Z</time>
      </trkpt>
      <trkpt lat="45.83412" lon="1.48775">
        <ele>328</ele>
        <time>2026-08-09T09:50:27.000Z</time>
      </trkpt>
      <trkpt lat="45.8342" lon="1.48784">
        <ele>328.4</ele>
        <time>2026-08-09T09:50:33.000Z</time>
      </trkpt>
      <trkpt lat="45.83426" lon="1.48792">
        <ele>328.8</ele>
        <time>2026-08-09T09:50:38.000Z</time>
      </trkpt>
      <trkpt lat="45.83433" lon="1.48798">
        <ele>329.2</ele>
        <time>2026-08-09T09:50:43.000Z</time>
      </trkpt>
      <trkpt lat="45.83441" lon="1.48806">
        <ele>330.2</ele>
        <time>2026-08-09T09:50:49.000Z</time>
      </trkpt>
      <trkpt lat="45.83442" lon="1.48808">
        <ele>330.4</ele>
        <time>2026-08-09T09:50:50.000Z</time>
      </trkpt>
      <trkpt lat="45.8345" lon="1.48817">
        <ele>331</ele>
        <time>2026-08-09T09:50:56.000Z</time>
      </trkpt>
      <trkpt lat="45.83453" lon="1.48821">
        <ele>331.1</ele>
        <time>2026-08-09T09:50:59.000Z</time>
      </trkpt>
      <trkpt lat="45.83455" lon="1.48822">
        <ele>331.2</ele>
        <time>2026-08-09T09:51:00.000Z</time>
      </trkpt>
      <trkpt lat="45.83464" lon="1.48834">
        <ele>332.7</ele>
        <time>2026-08-09T09:51:08.000Z</time>
      </trkpt>
      <trkpt lat="45.83467" lon="1.48841">
        <ele>332.9</ele>
        <time>2026-08-09T09:51:12.000Z</time>
      </trkpt>
      <trkpt lat="45.83473" lon="1.4885">
        <ele>333.1</ele>
        <time>2026-08-09T09:51:18.000Z</time>
      </trkpt>
      <trkpt lat="45.8348" lon="1.4886">
        <ele>333.6</ele>
        <time>2026-08-09T09:51:24.000Z</time>
      </trkpt>
      <trkpt lat="45.83483" lon="1.48864">
        <ele>334</ele>
        <time>2026-08-09T09:51:27.000Z</time>
      </trkpt>
      <trkpt lat="45.83488" lon="1.48875">
        <ele>334.8</ele>
        <time>2026-08-09T09:51:34.000Z</time>
      </trkpt>
      <trkpt lat="45.83492" lon="1.4888">
        <ele>335</ele>
        <time>2026-08-09T09:51:37.000Z</time>
      </trkpt>
      <trkpt lat="45.83495" lon="1.48888">
        <ele>335.4</ele>
        <time>2026-08-09T09:51:42.000Z</time>
      </trkpt>
      <trkpt lat="45.83499" lon="1.48903">
        <ele>336.2</ele>
        <time>2026-08-09T09:51:49.000Z</time>
      </trkpt>
      <trkpt lat="45.83499" lon="1.48906">
        <ele>336.3</ele>
        <time>2026-08-09T09:51:51.000Z</time>
      </trkpt>
      <trkpt lat="45.83501" lon="1.48916">
        <ele>336.9</ele>
        <time>2026-08-09T09:51:58.000Z</time>
      </trkpt>
      <trkpt lat="45.83501" lon="1.4892">
        <ele>337</ele>
        <time>2026-08-09T09:52:00.000Z</time>
      </trkpt>
      <trkpt lat="45.83502" lon="1.48924">
        <ele>337.1</ele>
        <time>2026-08-09T09:52:03.000Z</time>
      </trkpt>
      <trkpt lat="45.83503" lon="1.48926">
        <ele>337.1</ele>
        <time>2026-08-09T09:52:04.000Z</time>
      </trkpt>
      <trkpt lat="45.83503" lon="1.48928">
        <ele>337.2</ele>
        <time>2026-08-09T09:52:05.000Z</time>
      </trkpt>
      <trkpt lat="45.83502" lon="1.48931">
        <ele>337.4</ele>
        <time>2026-08-09T09:52:07.000Z</time>
      </trkpt>
      <trkpt lat="45.83501" lon="1.48935">
        <ele>337.6</ele>
        <time>2026-08-09T09:52:09.000Z</time>
      </trkpt>
      <trkpt lat="45.83499" lon="1.48939">
        <ele>338</ele>
        <time>2026-08-09T09:52:11.000Z</time>
      </trkpt>
      <trkpt lat="45.83495" lon="1.48948">
        <ele>338.8</ele>
        <time>2026-08-09T09:52:15.000Z</time>
      </trkpt>
      <trkpt lat="45.83492" lon="1.48961">
        <ele>339.5</ele>
        <time>2026-08-09T09:52:21.000Z</time>
      </trkpt>
      <trkpt lat="45.83492" lon="1.48963">
        <ele>339.6</ele>
        <time>2026-08-09T09:52:22.000Z</time>
      </trkpt>
      <trkpt lat="45.83494" lon="1.48981">
        <ele>340.3</ele>
        <time>2026-08-09T09:52:31.000Z</time>
      </trkpt>
      <trkpt lat="45.83495" lon="1.48988">
        <ele>340.6</ele>
        <time>2026-08-09T09:52:34.000Z</time>
      </trkpt>
      <trkpt lat="45.835" lon="1.49002">
        <ele>341.2</ele>
        <time>2026-08-09T09:52:41.000Z</time>
      </trkpt>
      <trkpt lat="45.83506" lon="1.49013">
        <ele>342</ele>
        <time>2026-08-09T09:52:46.000Z</time>
      </trkpt>
      <trkpt lat="45.83512" lon="1.49022">
        <ele>342.5</ele>
        <time>2026-08-09T09:52:51.000Z</time>
      </trkpt>
      <trkpt lat="45.8352" lon="1.49028">
        <ele>343</ele>
        <time>2026-08-09T09:52:56.000Z</time>
      </trkpt>
      <trkpt lat="45.83526" lon="1.49033">
        <ele>343.3</ele>
        <time>2026-08-09T09:53:00.000Z</time>
      </trkpt>
      <trkpt lat="45.8354" lon="1.4904">
        <ele>344.4</ele>
        <time>2026-08-09T09:53:08.000Z</time>
      </trkpt>
      <trkpt lat="45.83542" lon="1.49041">
        <ele>344.5</ele>
        <time>2026-08-09T09:53:09.000Z</time>
      </trkpt>
      <trkpt lat="45.83551" lon="1.49042">
        <ele>344.8</ele>
        <time>2026-08-09T09:53:14.000Z</time>
      </trkpt>
      <trkpt lat="45.83557" lon="1.49035">
        <ele>345.1</ele>
        <time>2026-08-09T09:53:18.000Z</time>
      </trkpt>
      <trkpt lat="45.83558" lon="1.49032">
        <ele>345.1</ele>
        <time>2026-08-09T09:53:19.000Z</time>
      </trkpt>
      <trkpt lat="45.83561" lon="1.49027">
        <ele>345.2</ele>
        <time>2026-08-09T09:53:24.000Z</time>
      </trkpt>
      <trkpt lat="45.83565" lon="1.49027">
        <ele>345.3</ele>
        <time>2026-08-09T09:53:28.000Z</time>
      </trkpt>
      <trkpt lat="45.83567" lon="1.49028">
        <ele>345.4</ele>
        <time>2026-08-09T09:53:30.000Z</time>
      </trkpt>
      <trkpt lat="45.83577" lon="1.49027">
        <ele>345.7</ele>
        <time>2026-08-09T09:53:39.000Z</time>
      </trkpt>
      <trkpt lat="45.83591" lon="1.49028">
        <ele>346.3</ele>
        <time>2026-08-09T09:53:48.000Z</time>
      </trkpt>
      <trkpt lat="45.83598" lon="1.49029">
        <ele>346.6</ele>
        <time>2026-08-09T09:53:53.000Z</time>
      </trkpt>
      <trkpt lat="45.83599" lon="1.49029">
        <ele>346.6</ele>
        <time>2026-08-09T09:53:54.000Z</time>
      </trkpt>
      <trkpt lat="45.83599" lon="1.49029">
        <ele>346.6</ele>
        <time>2026-08-09T09:53:55.000Z</time>
      </trkpt>
      <trkpt lat="45.836" lon="1.49027">
        <ele>346.6</ele>
        <time>2026-08-09T09:53:57.000Z</time>
      </trkpt>
      <trkpt lat="45.83604" lon="1.49026">
        <ele>346.7</ele>
        <time>2026-08-09T09:54:00.000Z</time>
      </trkpt>
      <trkpt lat="45.83608" lon="1.49025">
        <ele>346.9</ele>
        <time>2026-08-09T09:54:03.000Z</time>
      </trkpt>
      <trkpt lat="45.83613" lon="1.49025">
        <ele>347.1</ele>
        <time>2026-08-09T09:54:06.000Z</time>
      </trkpt>
      <trkpt lat="45.83621" lon="1.49027">
        <ele>347.3</ele>
        <time>2026-08-09T09:54:10.000Z</time>
      </trkpt>
      <trkpt lat="45.83633" lon="1.4903">
        <ele>348</ele>
        <time>2026-08-09T09:54:17.000Z</time>
      </trkpt>
      <trkpt lat="45.83635" lon="1.4903">
        <ele>348.1</ele>
        <time>2026-08-09T09:54:18.000Z</time>
      </trkpt>
      <trkpt lat="45.83638" lon="1.49029">
        <ele>348.1</ele>
        <time>2026-08-09T09:54:21.000Z</time>
      </trkpt>
      <trkpt lat="45.83645" lon="1.49025">
        <ele>348</ele>
        <time>2026-08-09T09:54:25.000Z</time>
      </trkpt>
      <trkpt lat="45.8365" lon="1.49024">
        <ele>348</ele>
        <time>2026-08-09T09:54:28.000Z</time>
      </trkpt>
      <trkpt lat="45.83651" lon="1.49024">
        <ele>348</ele>
        <time>2026-08-09T09:54:29.000Z</time>
      </trkpt>
      <trkpt lat="45.83659" lon="1.49025">
        <ele>348</ele>
        <time>2026-08-09T09:54:34.000Z</time>
      </trkpt>
      <trkpt lat="45.83661" lon="1.49027">
        <ele>348</ele>
        <time>2026-08-09T09:54:42.000Z</time>
      </trkpt>
      <trkpt lat="45.83666" lon="1.49028">
        <ele>348</ele>
        <time>2026-08-09T09:58:45.000Z</time>
      </trkpt>
      <trkpt lat="45.83671" lon="1.49031">
        <ele>348.4</ele>
        <time>2026-08-09T09:58:48.000Z</time>
      </trkpt>
      <trkpt lat="45.83672" lon="1.49031">
        <ele>348.4</ele>
        <time>2026-08-09T09:58:50.000Z</time>
      </trkpt>
      <trkpt lat="45.83672" lon="1.4903">
        <ele>348.4</ele>
        <time>2026-08-09T09:58:52.000Z</time>
      </trkpt>
      <trkpt lat="45.83673" lon="1.49031">
        <ele>348.5</ele>
        <time>2026-08-09T09:58:55.000Z</time>
      </trkpt>
      <trkpt lat="45.83677" lon="1.49033">
        <ele>348.7</ele>
        <time>2026-08-09T09:59:01.000Z</time>
      </trkpt>
      <trkpt lat="45.83686" lon="1.49036">
        <ele>349.1</ele>
        <time>2026-08-09T09:59:07.000Z</time>
      </trkpt>
      <trkpt lat="45.8369" lon="1.49037">
        <ele>349.2</ele>
        <time>2026-08-09T09:59:09.000Z</time>
      </trkpt>
      <trkpt lat="45.83693" lon="1.49036">
        <ele>349.2</ele>
        <time>2026-08-09T09:59:12.000Z</time>
      </trkpt>
      <trkpt lat="45.83694" lon="1.49035">
        <ele>349.2</ele>
        <time>2026-08-09T09:59:13.000Z</time>
      </trkpt>
      <trkpt lat="45.83702" lon="1.49031">
        <ele>349.4</ele>
        <time>2026-08-09T09:59:18.000Z</time>
      </trkpt>
      <trkpt lat="45.83703" lon="1.4903">
        <ele>349.4</ele>
        <time>2026-08-09T09:59:19.000Z</time>
      </trkpt>
      <trkpt lat="45.83703" lon="1.4903">
        <ele>349.4</ele>
        <time>2026-08-09T09:59:21.000Z</time>
      </trkpt>
      <trkpt lat="45.83708" lon="1.49024">
        <ele>349.5</ele>
        <time>2026-08-09T09:59:48.000Z</time>
      </trkpt>
      <trkpt lat="45.83709" lon="1.49022">
        <ele>349.5</ele>
        <time>2026-08-09T09:59:49.000Z</time>
      </trkpt>
      <trkpt lat="45.83716" lon="1.4901">
        <ele>349.8</ele>
        <time>2026-08-09T09:59:56.000Z</time>
      </trkpt>
      <trkpt lat="45.83717" lon="1.49006">
        <ele>349.8</ele>
        <time>2026-08-09T09:59:58.000Z</time>
      </trkpt>
      <trkpt lat="45.83722" lon="1.49">
        <ele>350</ele>
        <time>2026-08-09T10:00:01.000Z</time>
      </trkpt>
      <trkpt lat="45.83729" lon="1.48987">
        <ele>350.4</ele>
        <time>2026-08-09T10:00:07.000Z</time>
      </trkpt>
      <trkpt lat="45.83731" lon="1.48986">
        <ele>350.5</ele>
        <time>2026-08-09T10:00:08.000Z</time>
      </trkpt>
      <trkpt lat="45.83739" lon="1.48987">
        <ele>350.9</ele>
        <time>2026-08-09T10:00:13.000Z</time>
      </trkpt>
      <trkpt lat="45.83741" lon="1.48987">
        <ele>351</ele>
        <time>2026-08-09T10:00:14.000Z</time>
      </trkpt>
      <trkpt lat="45.83744" lon="1.48989">
        <ele>351.2</ele>
        <time>2026-08-09T10:00:16.000Z</time>
      </trkpt>
      <trkpt lat="45.83746" lon="1.48991">
        <ele>351.4</ele>
        <time>2026-08-09T10:00:18.000Z</time>
      </trkpt>
      <trkpt lat="45.83746" lon="1.48991">
        <ele>351.5</ele>
        <time>2026-08-09T10:00:19.000Z</time>
      </trkpt>
      <trkpt lat="45.83747" lon="1.48992">
        <ele>351.5</ele>
        <time>2026-08-09T10:00:21.000Z</time>
      </trkpt>
      <trkpt lat="45.83768" lon="1.49013">
        <ele>351.5</ele>
        <time>2026-08-09T10:01:05.000Z</time>
      </trkpt>
      <trkpt lat="45.83769" lon="1.49016">
        <ele>351.4</ele>
        <time>2026-08-09T10:01:06.000Z</time>
      </trkpt>
      <trkpt lat="45.83774" lon="1.49022">
        <ele>351.2</ele>
        <time>2026-08-09T10:01:09.000Z</time>
      </trkpt>
      <trkpt lat="45.83777" lon="1.49025">
        <ele>351.1</ele>
        <time>2026-08-09T10:01:11.000Z</time>
      </trkpt>
      <trkpt lat="45.83783" lon="1.49029">
        <ele>351.2</ele>
        <time>2026-08-09T10:01:16.000Z</time>
      </trkpt>
      <trkpt lat="45.83783" lon="1.49029">
        <ele>351.2</ele>
        <time>2026-08-09T10:01:17.000Z</time>
      </trkpt>
      <trkpt lat="45.83791" lon="1.49035">
        <ele>351.5</ele>
        <time>2026-08-09T10:01:41.000Z</time>
      </trkpt>
      <trkpt lat="45.83797" lon="1.49036">
        <ele>351.7</ele>
        <time>2026-08-09T10:01:43.000Z</time>
      </trkpt>
      <trkpt lat="45.83801" lon="1.49034">
        <ele>351.9</ele>
        <time>2026-08-09T10:01:45.000Z</time>
      </trkpt>
      <trkpt lat="45.83806" lon="1.49036">
        <ele>352</ele>
        <time>2026-08-09T10:01:47.000Z</time>
      </trkpt>
      <trkpt lat="45.83814" lon="1.49043">
        <ele>352.4</ele>
        <time>2026-08-09T10:01:53.000Z</time>
      </trkpt>
      <trkpt lat="45.83814" lon="1.49044">
        <ele>352.4</ele>
        <time>2026-08-09T10:01:54.000Z</time>
      </trkpt>
      <trkpt lat="45.83814" lon="1.49044">
        <ele>352.4</ele>
        <time>2026-08-09T10:01:56.000Z</time>
      </trkpt>
      <trkpt lat="45.83814" lon="1.49049">
        <ele>352.4</ele>
        <time>2026-08-09T10:02:16.000Z</time>
      </trkpt>
      <trkpt lat="45.83815" lon="1.49051">
        <ele>352.4</ele>
        <time>2026-08-09T10:02:17.000Z</time>
      </trkpt>
      <trkpt lat="45.83815" lon="1.49053">
        <ele>352.4</ele>
        <time>2026-08-09T10:02:18.000Z</time>
      </trkpt>
      <trkpt lat="45.83817" lon="1.49071">
        <ele>352.2</ele>
        <time>2026-08-09T10:02:24.000Z</time>
      </trkpt>
      <trkpt lat="45.83818" lon="1.49073">
        <ele>352.2</ele>
        <time>2026-08-09T10:02:25.000Z</time>
      </trkpt>
      <trkpt lat="45.83818" lon="1.49079">
        <ele>352.1</ele>
        <time>2026-08-09T10:02:28.000Z</time>
      </trkpt>
      <trkpt lat="45.83815" lon="1.49086">
        <ele>351.9</ele>
        <time>2026-08-09T10:02:32.000Z</time>
      </trkpt>
      <trkpt lat="45.83815" lon="1.49089">
        <ele>351.8</ele>
        <time>2026-08-09T10:02:33.000Z</time>
      </trkpt>
      <trkpt lat="45.83815" lon="1.4909">
        <ele>351.8</ele>
        <time>2026-08-09T10:02:36.000Z</time>
      </trkpt>
      <trkpt lat="45.83814" lon="1.49099">
        <ele>351.4</ele>
        <time>2026-08-09T10:03:24.000Z</time>
      </trkpt>
      <trkpt lat="45.83813" lon="1.49097">
        <ele>351.5</ele>
        <time>2026-08-09T10:03:25.000Z</time>
      </trkpt>
      <trkpt lat="45.83813" lon="1.49097">
        <ele>351.5</ele>
        <time>2026-08-09T10:03:26.000Z</time>
      </trkpt>
      <trkpt lat="45.83811" lon="1.49099">
        <ele>351.4</ele>
        <time>2026-08-09T10:03:29.000Z</time>
      </trkpt>
      <trkpt lat="45.8381" lon="1.491">
        <ele>351.4</ele>
        <time>2026-08-09T10:03:30.000Z</time>
      </trkpt>
      <trkpt lat="45.83801" lon="1.49115">
        <ele>351.1</ele>
        <time>2026-08-09T10:03:36.000Z</time>
      </trkpt>
      <trkpt lat="45.8379" lon="1.49128">
        <ele>351.6</ele>
        <time>2026-08-09T10:03:43.000Z</time>
      </trkpt>
      <trkpt lat="45.83781" lon="1.49142">
        <ele>351.9</ele>
        <time>2026-08-09T10:03:51.000Z</time>
      </trkpt>
      <trkpt lat="45.83772" lon="1.4915">
        <ele>352.2</ele>
        <time>2026-08-09T10:03:57.000Z</time>
      </trkpt>
      <trkpt lat="45.8376" lon="1.49165">
        <ele>352.6</ele>
        <time>2026-08-09T10:04:05.000Z</time>
      </trkpt>
      <trkpt lat="45.83756" lon="1.49174">
        <ele>352.9</ele>
        <time>2026-08-09T10:04:09.000Z</time>
      </trkpt>
      <trkpt lat="45.83753" lon="1.4918">
        <ele>352.9</ele>
        <time>2026-08-09T10:04:12.000Z</time>
      </trkpt>
      <trkpt lat="45.83753" lon="1.49181">
        <ele>353</ele>
        <time>2026-08-09T10:04:15.000Z</time>
      </trkpt>
      <trkpt lat="45.83753" lon="1.49181">
        <ele>353</ele>
        <time>2026-08-09T10:04:16.000Z</time>
      </trkpt>
      <trkpt lat="45.8376" lon="1.49177">
        <ele>352.8</ele>
        <time>2026-08-09T10:05:17.000Z</time>
      </trkpt>
      <trkpt lat="45.8377" lon="1.49162">
        <ele>352.3</ele>
        <time>2026-08-09T10:05:23.000Z</time>
      </trkpt>
      <trkpt lat="45.83779" lon="1.49148">
        <ele>351.9</ele>
        <time>2026-08-09T10:05:28.000Z</time>
      </trkpt>
      <trkpt lat="45.83784" lon="1.49144">
        <ele>351.8</ele>
        <time>2026-08-09T10:05:30.000Z</time>
      </trkpt>
      <trkpt lat="45.83797" lon="1.49124">
        <ele>351.3</ele>
        <time>2026-08-09T10:05:37.000Z</time>
      </trkpt>
      <trkpt lat="45.83811" lon="1.49111">
        <ele>351</ele>
        <time>2026-08-09T10:05:43.000Z</time>
      </trkpt>
      <trkpt lat="45.83816" lon="1.49104">
        <ele>351.3</ele>
        <time>2026-08-09T10:05:46.000Z</time>
      </trkpt>
      <trkpt lat="45.83816" lon="1.49101">
        <ele>351.4</ele>
        <time>2026-08-09T10:05:47.000Z</time>
      </trkpt>
      <trkpt lat="45.83816" lon="1.49097">
        <ele>351.5</ele>
        <time>2026-08-09T10:05:48.000Z</time>
      </trkpt>
      <trkpt lat="45.83819" lon="1.49088">
        <ele>351.8</ele>
        <time>2026-08-09T10:05:51.000Z</time>
      </trkpt>
      <trkpt lat="45.8382" lon="1.49083">
        <ele>352</ele>
        <time>2026-08-09T10:05:53.000Z</time>
      </trkpt>
      <trkpt lat="45.83824" lon="1.49069">
        <ele>352.3</ele>
        <time>2026-08-09T10:05:57.000Z</time>
      </trkpt>
      <trkpt lat="45.83824" lon="1.49065">
        <ele>352.4</ele>
        <time>2026-08-09T10:05:58.000Z</time>
      </trkpt>
      <trkpt lat="45.83823" lon="1.49052">
        <ele>352.7</ele>
        <time>2026-08-09T10:06:01.000Z</time>
      </trkpt>
      <trkpt lat="45.83819" lon="1.49047">
        <ele>352.6</ele>
        <time>2026-08-09T10:06:03.000Z</time>
      </trkpt>
      <trkpt lat="45.83817" lon="1.49045">
        <ele>352.6</ele>
        <time>2026-08-09T10:06:04.000Z</time>
      </trkpt>
      <trkpt lat="45.83816" lon="1.49043">
        <ele>352.5</ele>
        <time>2026-08-09T10:06:05.000Z</time>
      </trkpt>
      <trkpt lat="45.83813" lon="1.49038">
        <ele>352.4</ele>
        <time>2026-08-09T10:06:07.000Z</time>
      </trkpt>
      <trkpt lat="45.83811" lon="1.49037">
        <ele>352.4</ele>
        <time>2026-08-09T10:06:08.000Z</time>
      </trkpt>
      <trkpt lat="45.83811" lon="1.49037">
        <ele>352.3</ele>
        <time>2026-08-09T10:06:09.000Z</time>
      </trkpt>
      <trkpt lat="45.8381" lon="1.49034">
        <ele>352.3</ele>
        <time>2026-08-09T10:06:11.000Z</time>
      </trkpt>
      <trkpt lat="45.8381" lon="1.49033">
        <ele>352.3</ele>
        <time>2026-08-09T10:06:12.000Z</time>
      </trkpt>
      <trkpt lat="45.83809" lon="1.49032">
        <ele>352.2</ele>
        <time>2026-08-09T10:06:13.000Z</time>
      </trkpt>
      <trkpt lat="45.83809" lon="1.4903">
        <ele>352.2</ele>
        <time>2026-08-09T10:06:15.000Z</time>
      </trkpt>
      <trkpt lat="45.83809" lon="1.49029">
        <ele>352.2</ele>
        <time>2026-08-09T10:06:16.000Z</time>
      </trkpt>
      <trkpt lat="45.83809" lon="1.49029">
        <ele>352.2</ele>
        <time>2026-08-09T10:06:17.000Z</time>
      </trkpt>
      <trkpt lat="45.83806" lon="1.49034">
        <ele>352</ele>
        <time>2026-08-09T10:08:31.000Z</time>
      </trkpt>
      <trkpt lat="45.83805" lon="1.49032">
        <ele>352</ele>
        <time>2026-08-09T10:08:33.000Z</time>
      </trkpt>
      <trkpt lat="45.83796" lon="1.49032">
        <ele>351.7</ele>
        <time>2026-08-09T10:08:38.000Z</time>
      </trkpt>
      <trkpt lat="45.83795" lon="1.49031">
        <ele>351.6</ele>
        <time>2026-08-09T10:08:39.000Z</time>
      </trkpt>
      <trkpt lat="45.83793" lon="1.49029">
        <ele>351.5</ele>
        <time>2026-08-09T10:08:42.000Z</time>
      </trkpt>
      <trkpt lat="45.83792" lon="1.49027">
        <ele>351.5</ele>
        <time>2026-08-09T10:08:44.000Z</time>
      </trkpt>
      <trkpt lat="45.83792" lon="1.49024">
        <ele>351.6</ele>
        <time>2026-08-09T10:08:47.000Z</time>
      </trkpt>
      <trkpt lat="45.83792" lon="1.49024">
        <ele>351.7</ele>
        <time>2026-08-09T10:08:50.000Z</time>
      </trkpt>
      <trkpt lat="45.83795" lon="1.49013">
        <ele>352.2</ele>
        <time>2026-08-09T10:27:33.000Z</time>
      </trkpt>
      <trkpt lat="45.83795" lon="1.49013">
        <ele>352.2</ele>
        <time>2026-08-09T10:27:34.000Z</time>
      </trkpt>
      <trkpt lat="45.83795" lon="1.4902">
        <ele>351.9</ele>
        <time>2026-08-09T11:34:04.000Z</time>
      </trkpt>
      <trkpt lat="45.83795" lon="1.4902">
        <ele>351.9</ele>
        <time>2026-08-09T11:34:05.000Z</time>
      </trkpt>
      <trkpt lat="45.83794" lon="1.49021">
        <ele>351.8</ele>
        <time>2026-08-09T11:34:06.000Z</time>
      </trkpt>
      <trkpt lat="45.83793" lon="1.49021">
        <ele>351.8</ele>
        <time>2026-08-09T11:34:10.000Z</time>
      </trkpt>
      <trkpt lat="45.83793" lon="1.49024">
        <ele>351.7</ele>
        <time>2026-08-09T11:34:13.000Z</time>
      </trkpt>
      <trkpt lat="45.83794" lon="1.49024">
        <ele>351.7</ele>
        <time>2026-08-09T11:34:14.000Z</time>
      </trkpt>
      <trkpt lat="45.83797" lon="1.49023">
        <ele>351.8</ele>
        <time>2026-08-09T11:34:19.000Z</time>
      </trkpt>
      <trkpt lat="45.83796" lon="1.49023">
        <ele>351.8</ele>
        <time>2026-08-09T11:36:18.000Z</time>
      </trkpt>
      <trkpt lat="45.83796" lon="1.49023">
        <ele>351.8</ele>
        <time>2026-08-09T11:36:19.000Z</time>
      </trkpt>
      <trkpt lat="45.83797" lon="1.49033">
        <ele>351.7</ele>
        <time>2026-08-09T11:36:36.000Z</time>
      </trkpt>
      <trkpt lat="45.83799" lon="1.49036">
        <ele>351.8</ele>
        <time>2026-08-09T11:36:38.000Z</time>
      </trkpt>
      <trkpt lat="45.83801" lon="1.49034">
        <ele>351.8</ele>
        <time>2026-08-09T11:36:40.000Z</time>
      </trkpt>
      <trkpt lat="45.83801" lon="1.49033">
        <ele>351.8</ele>
        <time>2026-08-09T11:36:41.000Z</time>
      </trkpt>
      <trkpt lat="45.83802" lon="1.49032">
        <ele>351.9</ele>
        <time>2026-08-09T11:36:44.000Z</time>
      </trkpt>
      <trkpt lat="45.83803" lon="1.49032">
        <ele>351.9</ele>
        <time>2026-08-09T11:36:45.000Z</time>
      </trkpt>
      <trkpt lat="45.83807" lon="1.49034">
        <ele>352.1</ele>
        <time>2026-08-09T11:36:51.000Z</time>
      </trkpt>
      <trkpt lat="45.83809" lon="1.49033">
        <ele>352.2</ele>
        <time>2026-08-09T11:36:52.000Z</time>
      </trkpt>
      <trkpt lat="45.83812" lon="1.49033">
        <ele>352.4</ele>
        <time>2026-08-09T11:36:57.000Z</time>
      </trkpt>
      <trkpt lat="45.83815" lon="1.49033">
        <ele>352.6</ele>
        <time>2026-08-09T11:37:02.000Z</time>
      </trkpt>
      <trkpt lat="45.83816" lon="1.49033">
        <ele>352.7</ele>
        <time>2026-08-09T11:37:04.000Z</time>
      </trkpt>
      <trkpt lat="45.83816" lon="1.49033">
        <ele>352.7</ele>
        <time>2026-08-09T11:37:06.000Z</time>
      </trkpt>
      <trkpt lat="45.83816" lon="1.49033">
        <ele>352.7</ele>
        <time>2026-08-09T11:37:08.000Z</time>
      </trkpt>
      <trkpt lat="45.83816" lon="1.49027">
        <ele>352.7</ele>
        <time>2026-08-09T11:37:13.000Z</time>
      </trkpt>
      <trkpt lat="45.83817" lon="1.49025">
        <ele>352.8</ele>
        <time>2026-08-09T11:37:14.000Z</time>
      </trkpt>
      <trkpt lat="45.83821" lon="1.49015">
        <ele>353.1</ele>
        <time>2026-08-09T11:37:21.000Z</time>
      </trkpt>
      <trkpt lat="45.83823" lon="1.49012">
        <ele>353.1</ele>
        <time>2026-08-09T11:37:22.000Z</time>
      </trkpt>
      <trkpt lat="45.83826" lon="1.49006">
        <ele>353.1</ele>
        <time>2026-08-09T11:37:25.000Z</time>
      </trkpt>
      <trkpt lat="45.83829" lon="1.49002">
        <ele>353</ele>
        <time>2026-08-09T11:37:27.000Z</time>
      </trkpt>
      <trkpt lat="45.83837" lon="1.48989">
        <ele>352.6</ele>
        <time>2026-08-09T11:37:32.000Z</time>
      </trkpt>
      <trkpt lat="45.83838" lon="1.48982">
        <ele>352.4</ele>
        <time>2026-08-09T11:37:34.000Z</time>
      </trkpt>
      <trkpt lat="45.8384" lon="1.48977">
        <ele>352.2</ele>
        <time>2026-08-09T11:37:36.000Z</time>
      </trkpt>
      <trkpt lat="45.83852" lon="1.48965">
        <ele>351.5</ele>
        <time>2026-08-09T11:37:41.000Z</time>
      </trkpt>
      <trkpt lat="45.83853" lon="1.48961">
        <ele>351.3</ele>
        <time>2026-08-09T11:37:42.000Z</time>
      </trkpt>
      <trkpt lat="45.83868" lon="1.48948">
        <ele>350.1</ele>
        <time>2026-08-09T11:37:47.000Z</time>
      </trkpt>
      <trkpt lat="45.83874" lon="1.48944">
        <ele>349.5</ele>
        <time>2026-08-09T11:37:49.000Z</time>
      </trkpt>
      <trkpt lat="45.83886" lon="1.4894">
        <ele>349.1</ele>
        <time>2026-08-09T11:37:53.000Z</time>
      </trkpt>
      <trkpt lat="45.83903" lon="1.4893">
        <ele>348.5</ele>
        <time>2026-08-09T11:37:58.000Z</time>
      </trkpt>
      <trkpt lat="45.83908" lon="1.48927">
        <ele>348.1</ele>
        <time>2026-08-09T11:38:02.000Z</time>
      </trkpt>
      <trkpt lat="45.83917" lon="1.4892">
        <ele>347.2</ele>
        <time>2026-08-09T11:38:08.000Z</time>
      </trkpt>
      <trkpt lat="45.83921" lon="1.48918">
        <ele>347</ele>
        <time>2026-08-09T11:38:10.000Z</time>
      </trkpt>
      <trkpt lat="45.83926" lon="1.48915">
        <ele>346.5</ele>
        <time>2026-08-09T11:38:15.000Z</time>
      </trkpt>
      <trkpt lat="45.83926" lon="1.48915">
        <ele>346.5</ele>
        <time>2026-08-09T11:38:16.000Z</time>
      </trkpt>
      <trkpt lat="45.83934" lon="1.48908">
        <ele>345.5</ele>
        <time>2026-08-09T11:38:38.000Z</time>
      </trkpt>
      <trkpt lat="45.83939" lon="1.48906">
        <ele>344.9</ele>
        <time>2026-08-09T11:38:40.000Z</time>
      </trkpt>
      <trkpt lat="45.83952" lon="1.48905">
        <ele>343.9</ele>
        <time>2026-08-09T11:38:45.000Z</time>
      </trkpt>
      <trkpt lat="45.83965" lon="1.48906">
        <ele>343.4</ele>
        <time>2026-08-09T11:38:48.000Z</time>
      </trkpt>
      <trkpt lat="45.83971" lon="1.48906">
        <ele>343.1</ele>
        <time>2026-08-09T11:38:49.000Z</time>
      </trkpt>
      <trkpt lat="45.83976" lon="1.48906">
        <ele>342.8</ele>
        <time>2026-08-09T11:38:50.000Z</time>
      </trkpt>
      <trkpt lat="45.83994" lon="1.4891">
        <ele>342.2</ele>
        <time>2026-08-09T11:38:53.000Z</time>
      </trkpt>
      <trkpt lat="45.84005" lon="1.4891">
        <ele>341.4</ele>
        <time>2026-08-09T11:38:55.000Z</time>
      </trkpt>
      <trkpt lat="45.84022" lon="1.48906">
        <ele>340.1</ele>
        <time>2026-08-09T11:38:58.000Z</time>
      </trkpt>
      <trkpt lat="45.84028" lon="1.48905">
        <ele>339.7</ele>
        <time>2026-08-09T11:38:59.000Z</time>
      </trkpt>
      <trkpt lat="45.8404" lon="1.48905">
        <ele>339.3</ele>
        <time>2026-08-09T11:39:01.000Z</time>
      </trkpt>
      <trkpt lat="45.84047" lon="1.48904">
        <ele>339</ele>
        <time>2026-08-09T11:39:02.000Z</time>
      </trkpt>
      <trkpt lat="45.8407" lon="1.48899">
        <ele>337.4</ele>
        <time>2026-08-09T11:39:06.000Z</time>
      </trkpt>
      <trkpt lat="45.84075" lon="1.48898">
        <ele>337</ele>
        <time>2026-08-09T11:39:07.000Z</time>
      </trkpt>
      <trkpt lat="45.84087" lon="1.48896">
        <ele>336.2</ele>
        <time>2026-08-09T11:39:09.000Z</time>
      </trkpt>
      <trkpt lat="45.84093" lon="1.48896">
        <ele>335.8</ele>
        <time>2026-08-09T11:39:10.000Z</time>
      </trkpt>
      <trkpt lat="45.84112" lon="1.48893">
        <ele>334.5</ele>
        <time>2026-08-09T11:39:13.000Z</time>
      </trkpt>
      <trkpt lat="45.84118" lon="1.48892">
        <ele>334.2</ele>
        <time>2026-08-09T11:39:14.000Z</time>
      </trkpt>
      <trkpt lat="45.84149" lon="1.48886">
        <ele>332.9</ele>
        <time>2026-08-09T11:39:19.000Z</time>
      </trkpt>
      <trkpt lat="45.84155" lon="1.48884">
        <ele>332.8</ele>
        <time>2026-08-09T11:39:20.000Z</time>
      </trkpt>
      <trkpt lat="45.84161" lon="1.48882">
        <ele>332.7</ele>
        <time>2026-08-09T11:39:21.000Z</time>
      </trkpt>
      <trkpt lat="45.84173" lon="1.48872">
        <ele>332.6</ele>
        <time>2026-08-09T11:39:23.000Z</time>
      </trkpt>
      <trkpt lat="45.84177" lon="1.48867">
        <ele>332.6</ele>
        <time>2026-08-09T11:39:24.000Z</time>
      </trkpt>
      <trkpt lat="45.84184" lon="1.48853">
        <ele>332.5</ele>
        <time>2026-08-09T11:39:26.000Z</time>
      </trkpt>
      <trkpt lat="45.84194" lon="1.48833">
        <ele>332.9</ele>
        <time>2026-08-09T11:39:29.000Z</time>
      </trkpt>
      <trkpt lat="45.84197" lon="1.48828">
        <ele>333.1</ele>
        <time>2026-08-09T11:39:30.000Z</time>
      </trkpt>
      <trkpt lat="45.842" lon="1.48824">
        <ele>333.4</ele>
        <time>2026-08-09T11:39:31.000Z</time>
      </trkpt>
      <trkpt lat="45.84204" lon="1.48823">
        <ele>333.6</ele>
        <time>2026-08-09T11:39:32.000Z</time>
      </trkpt>
      <trkpt lat="45.84212" lon="1.48824">
        <ele>334</ele>
        <time>2026-08-09T11:39:34.000Z</time>
      </trkpt>
      <trkpt lat="45.84231" lon="1.48826">
        <ele>334.5</ele>
        <time>2026-08-09T11:39:40.000Z</time>
      </trkpt>
      <trkpt lat="45.84246" lon="1.48827">
        <ele>334.5</ele>
        <time>2026-08-09T11:39:46.000Z</time>
      </trkpt>
      <trkpt lat="45.84267" lon="1.48827">
        <ele>333.8</ele>
        <time>2026-08-09T11:39:53.000Z</time>
      </trkpt>
      <trkpt lat="45.84285" lon="1.48828">
        <ele>332.8</ele>
        <time>2026-08-09T11:39:59.000Z</time>
      </trkpt>
      <trkpt lat="45.84298" lon="1.4883">
        <ele>331.7</ele>
        <time>2026-08-09T11:40:03.000Z</time>
      </trkpt>
      <trkpt lat="45.84302" lon="1.4883">
        <ele>331.4</ele>
        <time>2026-08-09T11:40:04.000Z</time>
      </trkpt>
      <trkpt lat="45.8431" lon="1.48829">
        <ele>331</ele>
        <time>2026-08-09T11:40:06.000Z</time>
      </trkpt>
      <trkpt lat="45.84325" lon="1.48824">
        <ele>330.2</ele>
        <time>2026-08-09T11:40:09.000Z</time>
      </trkpt>
      <trkpt lat="45.84341" lon="1.48818">
        <ele>328.8</ele>
        <time>2026-08-09T11:40:12.000Z</time>
      </trkpt>
      <trkpt lat="45.84358" lon="1.48811">
        <ele>327.3</ele>
        <time>2026-08-09T11:40:15.000Z</time>
      </trkpt>
      <trkpt lat="45.84369" lon="1.48805">
        <ele>326.7</ele>
        <time>2026-08-09T11:40:17.000Z</time>
      </trkpt>
      <trkpt lat="45.84374" lon="1.48801">
        <ele>326.5</ele>
        <time>2026-08-09T11:40:18.000Z</time>
      </trkpt>
      <trkpt lat="45.84389" lon="1.48793">
        <ele>325.5</ele>
        <time>2026-08-09T11:40:21.000Z</time>
      </trkpt>
      <trkpt lat="45.84394" lon="1.48789">
        <ele>325.3</ele>
        <time>2026-08-09T11:40:22.000Z</time>
      </trkpt>
      <trkpt lat="45.84403" lon="1.4878">
        <ele>325</ele>
        <time>2026-08-09T11:40:24.000Z</time>
      </trkpt>
      <trkpt lat="45.84407" lon="1.48774">
        <ele>324.9</ele>
        <time>2026-08-09T11:40:25.000Z</time>
      </trkpt>
      <trkpt lat="45.84412" lon="1.48768">
        <ele>324.7</ele>
        <time>2026-08-09T11:40:26.000Z</time>
      </trkpt>
      <trkpt lat="45.84423" lon="1.48748">
        <ele>323.8</ele>
        <time>2026-08-09T11:40:29.000Z</time>
      </trkpt>
      <trkpt lat="45.84427" lon="1.48742">
        <ele>323.9</ele>
        <time>2026-08-09T11:40:30.000Z</time>
      </trkpt>
      <trkpt lat="45.84436" lon="1.48731">
        <ele>324</ele>
        <time>2026-08-09T11:40:32.000Z</time>
      </trkpt>
      <trkpt lat="45.84449" lon="1.4871">
        <ele>323.9</ele>
        <time>2026-08-09T11:40:36.000Z</time>
      </trkpt>
      <trkpt lat="45.84459" lon="1.48695">
        <ele>324</ele>
        <time>2026-08-09T11:40:39.000Z</time>
      </trkpt>
      <trkpt lat="45.8447" lon="1.48679">
        <ele>323.1</ele>
        <time>2026-08-09T11:40:42.000Z</time>
      </trkpt>
      <trkpt lat="45.84478" lon="1.48668">
        <ele>322.3</ele>
        <time>2026-08-09T11:40:44.000Z</time>
      </trkpt>
      <trkpt lat="45.84486" lon="1.48657">
        <ele>322.7</ele>
        <time>2026-08-09T11:40:46.000Z</time>
      </trkpt>
      <trkpt lat="45.84495" lon="1.48648">
        <ele>322.1</ele>
        <time>2026-08-09T11:40:48.000Z</time>
      </trkpt>
      <trkpt lat="45.845" lon="1.48645">
        <ele>321.4</ele>
        <time>2026-08-09T11:40:49.000Z</time>
      </trkpt>
      <trkpt lat="45.84505" lon="1.48642">
        <ele>321</ele>
        <time>2026-08-09T11:40:50.000Z</time>
      </trkpt>
      <trkpt lat="45.84509" lon="1.4864">
        <ele>320.7</ele>
        <time>2026-08-09T11:40:51.000Z</time>
      </trkpt>
      <trkpt lat="45.84526" lon="1.48636">
        <ele>320.2</ele>
        <time>2026-08-09T11:40:54.000Z</time>
      </trkpt>
      <trkpt lat="45.84532" lon="1.48635">
        <ele>320</ele>
        <time>2026-08-09T11:40:55.000Z</time>
      </trkpt>
      <trkpt lat="45.84558" lon="1.48634">
        <ele>318.9</ele>
        <time>2026-08-09T11:40:59.000Z</time>
      </trkpt>
      <trkpt lat="45.84585" lon="1.48633">
        <ele>317.6</ele>
        <time>2026-08-09T11:41:03.000Z</time>
      </trkpt>
      <trkpt lat="45.84626" lon="1.48631">
        <ele>314.9</ele>
        <time>2026-08-09T11:41:09.000Z</time>
      </trkpt>
      <trkpt lat="45.84638" lon="1.48633">
        <ele>314.3</ele>
        <time>2026-08-09T11:41:11.000Z</time>
      </trkpt>
      <trkpt lat="45.84656" lon="1.48642">
        <ele>315.1</ele>
        <time>2026-08-09T11:41:14.000Z</time>
      </trkpt>
      <trkpt lat="45.84678" lon="1.48656">
        <ele>315.5</ele>
        <time>2026-08-09T11:41:18.000Z</time>
      </trkpt>
      <trkpt lat="45.84688" lon="1.48662">
        <ele>315.7</ele>
        <time>2026-08-09T11:41:20.000Z</time>
      </trkpt>
      <trkpt lat="45.8471" lon="1.48679">
        <ele>316.9</ele>
        <time>2026-08-09T11:41:26.000Z</time>
      </trkpt>
      <trkpt lat="45.84725" lon="1.4869">
        <ele>317.2</ele>
        <time>2026-08-09T11:41:32.000Z</time>
      </trkpt>
      <trkpt lat="45.84734" lon="1.48697">
        <ele>317.3</ele>
        <time>2026-08-09T11:41:37.000Z</time>
      </trkpt>
      <trkpt lat="45.84747" lon="1.48705">
        <ele>317.5</ele>
        <time>2026-08-09T11:41:44.000Z</time>
      </trkpt>
      <trkpt lat="45.84757" lon="1.48711">
        <ele>317.6</ele>
        <time>2026-08-09T11:41:49.000Z</time>
      </trkpt>
      <trkpt lat="45.84778" lon="1.48723">
        <ele>317.9</ele>
        <time>2026-08-09T11:41:57.000Z</time>
      </trkpt>
      <trkpt lat="45.84798" lon="1.48734">
        <ele>316.8</ele>
        <time>2026-08-09T11:42:03.000Z</time>
      </trkpt>
      <trkpt lat="45.84802" lon="1.48735">
        <ele>316.6</ele>
        <time>2026-08-09T11:42:04.000Z</time>
      </trkpt>
      <trkpt lat="45.84826" lon="1.48742">
        <ele>315.6</ele>
        <time>2026-08-09T11:42:09.000Z</time>
      </trkpt>
      <trkpt lat="45.8484" lon="1.48744">
        <ele>314.9</ele>
        <time>2026-08-09T11:42:12.000Z</time>
      </trkpt>
      <trkpt lat="45.84851" lon="1.48742">
        <ele>314.4</ele>
        <time>2026-08-09T11:42:14.000Z</time>
      </trkpt>
      <trkpt lat="45.8487" lon="1.48734">
        <ele>313.2</ele>
        <time>2026-08-09T11:42:17.000Z</time>
      </trkpt>
      <trkpt lat="45.84876" lon="1.4873">
        <ele>312.6</ele>
        <time>2026-08-09T11:42:18.000Z</time>
      </trkpt>
      <trkpt lat="45.84882" lon="1.48725">
        <ele>311.8</ele>
        <time>2026-08-09T11:42:19.000Z</time>
      </trkpt>
      <trkpt lat="45.84905" lon="1.48708">
        <ele>309.6</ele>
        <time>2026-08-09T11:42:22.000Z</time>
      </trkpt>
      <trkpt lat="45.84921" lon="1.48697">
        <ele>308.5</ele>
        <time>2026-08-09T11:42:24.000Z</time>
      </trkpt>
      <trkpt lat="45.84945" lon="1.48681">
        <ele>307</ele>
        <time>2026-08-09T11:42:27.000Z</time>
      </trkpt>
      <trkpt lat="45.8496" lon="1.4867">
        <ele>306.6</ele>
        <time>2026-08-09T11:42:29.000Z</time>
      </trkpt>
      <trkpt lat="45.84981" lon="1.48653">
        <ele>306.3</ele>
        <time>2026-08-09T11:42:32.000Z</time>
      </trkpt>
      <trkpt lat="45.84987" lon="1.48646">
        <ele>306</ele>
        <time>2026-08-09T11:42:33.000Z</time>
      </trkpt>
      <trkpt lat="45.85005" lon="1.48623">
        <ele>305.1</ele>
        <time>2026-08-09T11:42:36.000Z</time>
      </trkpt>
      <trkpt lat="45.85011" lon="1.48616">
        <ele>304.5</ele>
        <time>2026-08-09T11:42:37.000Z</time>
      </trkpt>
      <trkpt lat="45.85025" lon="1.48604">
        <ele>303.5</ele>
        <time>2026-08-09T11:42:39.000Z</time>
      </trkpt>
      <trkpt lat="45.85048" lon="1.48589">
        <ele>302.5</ele>
        <time>2026-08-09T11:42:42.000Z</time>
      </trkpt>
      <trkpt lat="45.85055" lon="1.48584">
        <ele>301.9</ele>
        <time>2026-08-09T11:42:43.000Z</time>
      </trkpt>
      <trkpt lat="45.85071" lon="1.48574">
        <ele>299.9</ele>
        <time>2026-08-09T11:42:45.000Z</time>
      </trkpt>
      <trkpt lat="45.85094" lon="1.48558">
        <ele>297.1</ele>
        <time>2026-08-09T11:42:48.000Z</time>
      </trkpt>
      <trkpt lat="45.85107" lon="1.48548">
        <ele>294.9</ele>
        <time>2026-08-09T11:42:50.000Z</time>
      </trkpt>
      <trkpt lat="45.85114" lon="1.48543">
        <ele>294.4</ele>
        <time>2026-08-09T11:42:51.000Z</time>
      </trkpt>
      <trkpt lat="45.85119" lon="1.48537">
        <ele>294.8</ele>
        <time>2026-08-09T11:42:52.000Z</time>
      </trkpt>
      <trkpt lat="45.85123" lon="1.48529">
        <ele>296</ele>
        <time>2026-08-09T11:42:53.000Z</time>
      </trkpt>
      <trkpt lat="45.85124" lon="1.48511">
        <ele>294.9</ele>
        <time>2026-08-09T11:42:55.000Z</time>
      </trkpt>
      <trkpt lat="45.85113" lon="1.48494">
        <ele>293.2</ele>
        <time>2026-08-09T11:42:57.000Z</time>
      </trkpt>
      <trkpt lat="45.85107" lon="1.48488">
        <ele>292.1</ele>
        <time>2026-08-09T11:42:58.000Z</time>
      </trkpt>
      <trkpt lat="45.85084" lon="1.48467">
        <ele>291</ele>
        <time>2026-08-09T11:43:01.000Z</time>
      </trkpt>
      <trkpt lat="45.85077" lon="1.48461">
        <ele>291.8</ele>
        <time>2026-08-09T11:43:02.000Z</time>
      </trkpt>
      <trkpt lat="45.8507" lon="1.48453">
        <ele>292.1</ele>
        <time>2026-08-09T11:43:03.000Z</time>
      </trkpt>
      <trkpt lat="45.85063" lon="1.48442">
        <ele>291.7</ele>
        <time>2026-08-09T11:43:04.000Z</time>
      </trkpt>
      <trkpt lat="45.85059" lon="1.48431">
        <ele>291.4</ele>
        <time>2026-08-09T11:43:05.000Z</time>
      </trkpt>
      <trkpt lat="45.85051" lon="1.48398">
        <ele>289.6</ele>
        <time>2026-08-09T11:43:08.000Z</time>
      </trkpt>
      <trkpt lat="45.85049" lon="1.48386">
        <ele>289.4</ele>
        <time>2026-08-09T11:43:09.000Z</time>
      </trkpt>
      <trkpt lat="45.85043" lon="1.4835">
        <ele>288.9</ele>
        <time>2026-08-09T11:43:12.000Z</time>
      </trkpt>
      <trkpt lat="45.85042" lon="1.48339">
        <ele>288.7</ele>
        <time>2026-08-09T11:43:13.000Z</time>
      </trkpt>
      <trkpt lat="45.85043" lon="1.48328">
        <ele>288.7</ele>
        <time>2026-08-09T11:43:14.000Z</time>
      </trkpt>
      <trkpt lat="45.85046" lon="1.48317">
        <ele>288.9</ele>
        <time>2026-08-09T11:43:15.000Z</time>
      </trkpt>
      <trkpt lat="45.8505" lon="1.48306">
        <ele>288.5</ele>
        <time>2026-08-09T11:43:16.000Z</time>
      </trkpt>
      <trkpt lat="45.85055" lon="1.48297">
        <ele>286.6</ele>
        <time>2026-08-09T11:43:17.000Z</time>
      </trkpt>
      <trkpt lat="45.85067" lon="1.48285">
        <ele>287</ele>
        <time>2026-08-09T11:43:19.000Z</time>
      </trkpt>
      <trkpt lat="45.85072" lon="1.48281">
        <ele>287.6</ele>
        <time>2026-08-09T11:43:20.000Z</time>
      </trkpt>
      <trkpt lat="45.85078" lon="1.48277">
        <ele>288.1</ele>
        <time>2026-08-09T11:43:21.000Z</time>
      </trkpt>
      <trkpt lat="45.85091" lon="1.48269">
        <ele>288.9</ele>
        <time>2026-08-09T11:43:24.000Z</time>
      </trkpt>
      <trkpt lat="45.85104" lon="1.48263">
        <ele>289.7</ele>
        <time>2026-08-09T11:43:28.000Z</time>
      </trkpt>
      <trkpt lat="45.85123" lon="1.48261">
        <ele>291.2</ele>
        <time>2026-08-09T11:43:35.000Z</time>
      </trkpt>
      <trkpt lat="45.85134" lon="1.48262">
        <ele>292.4</ele>
        <time>2026-08-09T11:43:40.000Z</time>
      </trkpt>
      <trkpt lat="45.85135" lon="1.48262">
        <ele>292.7</ele>
        <time>2026-08-09T11:43:41.000Z</time>
      </trkpt>
      <trkpt lat="45.85146" lon="1.4826">
        <ele>293</ele>
        <time>2026-08-09T11:43:47.000Z</time>
      </trkpt>
      <trkpt lat="45.85157" lon="1.48261">
        <ele>293.6</ele>
        <time>2026-08-09T11:43:52.000Z</time>
      </trkpt>
      <trkpt lat="45.85167" lon="1.48259">
        <ele>293.7</ele>
        <time>2026-08-09T11:43:57.000Z</time>
      </trkpt>
      <trkpt lat="45.85181" lon="1.4826">
        <ele>294.2</ele>
        <time>2026-08-09T11:44:03.000Z</time>
      </trkpt>
      <trkpt lat="45.85199" lon="1.48262">
        <ele>295.1</ele>
        <time>2026-08-09T11:44:11.000Z</time>
      </trkpt>
      <trkpt lat="45.85214" lon="1.48264">
        <ele>294.9</ele>
        <time>2026-08-09T11:44:18.000Z</time>
      </trkpt>
      <trkpt lat="45.85216" lon="1.48264">
        <ele>294.9</ele>
        <time>2026-08-09T11:44:19.000Z</time>
      </trkpt>
      <trkpt lat="45.85218" lon="1.48264">
        <ele>294.8</ele>
        <time>2026-08-09T11:44:20.000Z</time>
      </trkpt>
      <trkpt lat="45.85231" lon="1.4827">
        <ele>295.2</ele>
        <time>2026-08-09T11:44:27.000Z</time>
      </trkpt>
      <trkpt lat="45.8525" lon="1.48278">
        <ele>295.1</ele>
        <time>2026-08-09T11:44:37.000Z</time>
      </trkpt>
      <trkpt lat="45.85254" lon="1.48279">
        <ele>295.8</ele>
        <time>2026-08-09T11:44:39.000Z</time>
      </trkpt>
      <trkpt lat="45.85268" lon="1.48276">
        <ele>296.7</ele>
        <time>2026-08-09T11:44:45.000Z</time>
      </trkpt>
      <trkpt lat="45.8528" lon="1.48263">
        <ele>297</ele>
        <time>2026-08-09T11:44:52.000Z</time>
      </trkpt>
      <trkpt lat="45.85284" lon="1.48256">
        <ele>297.2</ele>
        <time>2026-08-09T11:44:55.000Z</time>
      </trkpt>
      <trkpt lat="45.85292" lon="1.48244">
        <ele>297.5</ele>
        <time>2026-08-09T11:45:00.000Z</time>
      </trkpt>
      <trkpt lat="45.853" lon="1.48231">
        <ele>297.4</ele>
        <time>2026-08-09T11:45:06.000Z</time>
      </trkpt>
      <trkpt lat="45.8531" lon="1.48219">
        <ele>297.4</ele>
        <time>2026-08-09T11:45:12.000Z</time>
      </trkpt>
      <trkpt lat="45.85315" lon="1.48215">
        <ele>297.7</ele>
        <time>2026-08-09T11:45:15.000Z</time>
      </trkpt>
      <trkpt lat="45.85326" lon="1.48204">
        <ele>298.3</ele>
        <time>2026-08-09T11:45:22.000Z</time>
      </trkpt>
      <trkpt lat="45.85336" lon="1.48196">
        <ele>298.6</ele>
        <time>2026-08-09T11:45:28.000Z</time>
      </trkpt>
      <trkpt lat="45.85337" lon="1.48195">
        <ele>298.4</ele>
        <time>2026-08-09T11:45:29.000Z</time>
      </trkpt>
      <trkpt lat="45.85353" lon="1.4819">
        <ele>299.7</ele>
        <time>2026-08-09T11:45:37.000Z</time>
      </trkpt>
      <trkpt lat="45.85372" lon="1.48196">
        <ele>300.1</ele>
        <time>2026-08-09T11:45:45.000Z</time>
      </trkpt>
      <trkpt lat="45.8538" lon="1.48204">
        <ele>300.2</ele>
        <time>2026-08-09T11:45:49.000Z</time>
      </trkpt>
      <trkpt lat="45.85388" lon="1.48213">
        <ele>300.1</ele>
        <time>2026-08-09T11:45:54.000Z</time>
      </trkpt>
      <trkpt lat="45.85407" lon="1.48226">
        <ele>300.6</ele>
        <time>2026-08-09T11:46:02.000Z</time>
      </trkpt>
      <trkpt lat="45.85424" lon="1.48227">
        <ele>301</ele>
        <time>2026-08-09T11:46:08.000Z</time>
      </trkpt>
      <trkpt lat="45.85439" lon="1.48216">
        <ele>302.5</ele>
        <time>2026-08-09T11:46:16.000Z</time>
      </trkpt>
      <trkpt lat="45.85451" lon="1.48205">
        <ele>301.7</ele>
        <time>2026-08-09T11:46:23.000Z</time>
      </trkpt>
      <trkpt lat="45.85452" lon="1.48203">
        <ele>301.3</ele>
        <time>2026-08-09T11:46:24.000Z</time>
      </trkpt>
      <trkpt lat="45.85462" lon="1.48178">
        <ele>300.7</ele>
        <time>2026-08-09T11:46:33.000Z</time>
      </trkpt>
      <trkpt lat="45.8546" lon="1.48159">
        <ele>302</ele>
        <time>2026-08-09T11:46:39.000Z</time>
      </trkpt>
      <trkpt lat="45.85457" lon="1.48149">
        <ele>302.8</ele>
        <time>2026-08-09T11:46:42.000Z</time>
      </trkpt>
      <trkpt lat="45.85451" lon="1.48131">
        <ele>303.4</ele>
        <time>2026-08-09T11:46:48.000Z</time>
      </trkpt>
      <trkpt lat="45.85448" lon="1.48125">
        <ele>303.1</ele>
        <time>2026-08-09T11:46:50.000Z</time>
      </trkpt>
      <trkpt lat="45.85445" lon="1.48115">
        <ele>303</ele>
        <time>2026-08-09T11:46:53.000Z</time>
      </trkpt>
      <trkpt lat="45.85443" lon="1.48088">
        <ele>302.8</ele>
        <time>2026-08-09T11:46:58.000Z</time>
      </trkpt>
      <trkpt lat="45.85446" lon="1.48071">
        <ele>302.4</ele>
        <time>2026-08-09T11:47:01.000Z</time>
      </trkpt>
      <trkpt lat="45.8545" lon="1.48059">
        <ele>302.3</ele>
        <time>2026-08-09T11:47:03.000Z</time>
      </trkpt>
      <trkpt lat="45.85453" lon="1.48053">
        <ele>302.1</ele>
        <time>2026-08-09T11:47:04.000Z</time>
      </trkpt>
      <trkpt lat="45.85465" lon="1.48028">
        <ele>300.5</ele>
        <time>2026-08-09T11:47:08.000Z</time>
      </trkpt>
      <trkpt lat="45.85469" lon="1.48021">
        <ele>300.3</ele>
        <time>2026-08-09T11:47:09.000Z</time>
      </trkpt>
      <trkpt lat="45.85483" lon="1.47998">
        <ele>299.9</ele>
        <time>2026-08-09T11:47:13.000Z</time>
      </trkpt>
      <trkpt lat="45.85502" lon="1.47969">
        <ele>299.7</ele>
        <time>2026-08-09T11:47:18.000Z</time>
      </trkpt>
      <trkpt lat="45.85518" lon="1.47941">
        <ele>298.1</ele>
        <time>2026-08-09T11:47:22.000Z</time>
      </trkpt>
      <trkpt lat="45.85529" lon="1.4792">
        <ele>296.6</ele>
        <time>2026-08-09T11:47:25.000Z</time>
      </trkpt>
      <trkpt lat="45.85532" lon="1.47911">
        <ele>296.5</ele>
        <time>2026-08-09T11:47:26.000Z</time>
      </trkpt>
      <trkpt lat="45.85534" lon="1.47899">
        <ele>296.3</ele>
        <time>2026-08-09T11:47:27.000Z</time>
      </trkpt>
      <trkpt lat="45.85538" lon="1.47868">
        <ele>295</ele>
        <time>2026-08-09T11:47:30.000Z</time>
      </trkpt>
      <trkpt lat="45.85546" lon="1.47852">
        <ele>294.4</ele>
        <time>2026-08-09T11:47:32.000Z</time>
      </trkpt>
      <trkpt lat="45.85553" lon="1.47844">
        <ele>294.2</ele>
        <time>2026-08-09T11:47:33.000Z</time>
      </trkpt>
      <trkpt lat="45.8556" lon="1.47839">
        <ele>293.7</ele>
        <time>2026-08-09T11:47:34.000Z</time>
      </trkpt>
      <trkpt lat="45.85582" lon="1.47829">
        <ele>291.5</ele>
        <time>2026-08-09T11:47:37.000Z</time>
      </trkpt>
      <trkpt lat="45.85591" lon="1.47816">
        <ele>292.2</ele>
        <time>2026-08-09T11:47:39.000Z</time>
      </trkpt>
      <trkpt lat="45.85594" lon="1.47806">
        <ele>292.2</ele>
        <time>2026-08-09T11:47:40.000Z</time>
      </trkpt>
      <trkpt lat="45.85596" lon="1.47794">
        <ele>291.7</ele>
        <time>2026-08-09T11:47:41.000Z</time>
      </trkpt>
      <trkpt lat="45.85596" lon="1.47771">
        <ele>290.4</ele>
        <time>2026-08-09T11:47:43.000Z</time>
      </trkpt>
      <trkpt lat="45.85595" lon="1.47747">
        <ele>289.6</ele>
        <time>2026-08-09T11:47:45.000Z</time>
      </trkpt>
      <trkpt lat="45.85589" lon="1.477">
        <ele>287.9</ele>
        <time>2026-08-09T11:47:49.000Z</time>
      </trkpt>
      <trkpt lat="45.8558" lon="1.47656">
        <ele>286.5</ele>
        <time>2026-08-09T11:47:53.000Z</time>
      </trkpt>
      <trkpt lat="45.85574" lon="1.47633">
        <ele>285.9</ele>
        <time>2026-08-09T11:47:55.000Z</time>
      </trkpt>
      <trkpt lat="45.85571" lon="1.47625">
        <ele>285.7</ele>
        <time>2026-08-09T11:47:56.000Z</time>
      </trkpt>
      <trkpt lat="45.8556" lon="1.47595">
        <ele>285.1</ele>
        <time>2026-08-09T11:47:59.000Z</time>
      </trkpt>
      <trkpt lat="45.85547" lon="1.47563">
        <ele>283.5</ele>
        <time>2026-08-09T11:48:02.000Z</time>
      </trkpt>
      <trkpt lat="45.85543" lon="1.47553">
        <ele>282.7</ele>
        <time>2026-08-09T11:48:03.000Z</time>
      </trkpt>
      <trkpt lat="45.8553" lon="1.47527">
        <ele>282.6</ele>
        <time>2026-08-09T11:48:06.000Z</time>
      </trkpt>
      <trkpt lat="45.85526" lon="1.47515">
        <ele>282.3</ele>
        <time>2026-08-09T11:48:07.000Z</time>
      </trkpt>
      <trkpt lat="45.85523" lon="1.47504">
        <ele>281.9</ele>
        <time>2026-08-09T11:48:08.000Z</time>
      </trkpt>
      <trkpt lat="45.85521" lon="1.47496">
        <ele>281.5</ele>
        <time>2026-08-09T11:48:09.000Z</time>
      </trkpt>
      <trkpt lat="45.8552" lon="1.47472">
        <ele>280.4</ele>
        <time>2026-08-09T11:48:11.000Z</time>
      </trkpt>
      <trkpt lat="45.8552" lon="1.47463">
        <ele>279.9</ele>
        <time>2026-08-09T11:48:12.000Z</time>
      </trkpt>
      <trkpt lat="45.85523" lon="1.47442">
        <ele>279.1</ele>
        <time>2026-08-09T11:48:14.000Z</time>
      </trkpt>
      <trkpt lat="45.85527" lon="1.47432">
        <ele>278.5</ele>
        <time>2026-08-09T11:48:15.000Z</time>
      </trkpt>
      <trkpt lat="45.85531" lon="1.47423">
        <ele>277.9</ele>
        <time>2026-08-09T11:48:16.000Z</time>
      </trkpt>
      <trkpt lat="45.85543" lon="1.47409">
        <ele>277.6</ele>
        <time>2026-08-09T11:48:18.000Z</time>
      </trkpt>
      <trkpt lat="45.85555" lon="1.47396">
        <ele>276.7</ele>
        <time>2026-08-09T11:48:20.000Z</time>
      </trkpt>
      <trkpt lat="45.85568" lon="1.47381">
        <ele>276.7</ele>
        <time>2026-08-09T11:48:22.000Z</time>
      </trkpt>
      <trkpt lat="45.8558" lon="1.47363">
        <ele>275.7</ele>
        <time>2026-08-09T11:48:24.000Z</time>
      </trkpt>
      <trkpt lat="45.85584" lon="1.47354">
        <ele>275.5</ele>
        <time>2026-08-09T11:48:25.000Z</time>
      </trkpt>
      <trkpt lat="45.85587" lon="1.47345">
        <ele>275.5</ele>
        <time>2026-08-09T11:48:26.000Z</time>
      </trkpt>
      <trkpt lat="45.8559" lon="1.47321">
        <ele>274.6</ele>
        <time>2026-08-09T11:48:28.000Z</time>
      </trkpt>
      <trkpt lat="45.85591" lon="1.47307">
        <ele>273.8</ele>
        <time>2026-08-09T11:48:29.000Z</time>
      </trkpt>
      <trkpt lat="45.85593" lon="1.47285">
        <ele>273.7</ele>
        <time>2026-08-09T11:48:31.000Z</time>
      </trkpt>
      <trkpt lat="45.85597" lon="1.47272">
        <ele>273.5</ele>
        <time>2026-08-09T11:48:32.000Z</time>
      </trkpt>
      <trkpt lat="45.85602" lon="1.47265">
        <ele>273</ele>
        <time>2026-08-09T11:48:33.000Z</time>
      </trkpt>
      <trkpt lat="45.85608" lon="1.47257">
        <ele>272.3</ele>
        <time>2026-08-09T11:48:34.000Z</time>
      </trkpt>
      <trkpt lat="45.85615" lon="1.47251">
        <ele>271.4</ele>
        <time>2026-08-09T11:48:35.000Z</time>
      </trkpt>
      <trkpt lat="45.8563" lon="1.47242">
        <ele>270.8</ele>
        <time>2026-08-09T11:48:37.000Z</time>
      </trkpt>
      <trkpt lat="45.85656" lon="1.47229">
        <ele>267.4</ele>
        <time>2026-08-09T11:48:40.000Z</time>
      </trkpt>
      <trkpt lat="45.85663" lon="1.47225">
        <ele>266.5</ele>
        <time>2026-08-09T11:48:41.000Z</time>
      </trkpt>
      <trkpt lat="45.85698" lon="1.47209">
        <ele>265.8</ele>
        <time>2026-08-09T11:48:45.000Z</time>
      </trkpt>
      <trkpt lat="45.85719" lon="1.47199">
        <ele>268.3</ele>
        <time>2026-08-09T11:48:48.000Z</time>
      </trkpt>
      <trkpt lat="45.85723" lon="1.47199">
        <ele>268.8</ele>
        <time>2026-08-09T11:48:49.000Z</time>
      </trkpt>
      <trkpt lat="45.85734" lon="1.47201">
        <ele>270.6</ele>
        <time>2026-08-09T11:48:51.000Z</time>
      </trkpt>
      <trkpt lat="45.85744" lon="1.47208">
        <ele>271.5</ele>
        <time>2026-08-09T11:48:55.000Z</time>
      </trkpt>
      <trkpt lat="45.85751" lon="1.47218">
        <ele>271.7</ele>
        <time>2026-08-09T11:49:01.000Z</time>
      </trkpt>
      <trkpt lat="45.85758" lon="1.47229">
        <ele>272.3</ele>
        <time>2026-08-09T11:49:07.000Z</time>
      </trkpt>
      <trkpt lat="45.85759" lon="1.47232">
        <ele>272.5</ele>
        <time>2026-08-09T11:49:09.000Z</time>
      </trkpt>
      <trkpt lat="45.85761" lon="1.47237">
        <ele>272.6</ele>
        <time>2026-08-09T11:49:12.000Z</time>
      </trkpt>
      <trkpt lat="45.85762" lon="1.47239">
        <ele>272.7</ele>
        <time>2026-08-09T11:49:13.000Z</time>
      </trkpt>
      <trkpt lat="45.85767" lon="1.47251">
        <ele>273.1</ele>
        <time>2026-08-09T11:49:20.000Z</time>
      </trkpt>
      <trkpt lat="45.85774" lon="1.47266">
        <ele>273.8</ele>
        <time>2026-08-09T11:49:28.000Z</time>
      </trkpt>
      <trkpt lat="45.85782" lon="1.47282">
        <ele>274.7</ele>
        <time>2026-08-09T11:49:36.000Z</time>
      </trkpt>
      <trkpt lat="45.85783" lon="1.47283">
        <ele>274.8</ele>
        <time>2026-08-09T11:49:37.000Z</time>
      </trkpt>
      <trkpt lat="45.85787" lon="1.47294">
        <ele>275.4</ele>
        <time>2026-08-09T11:49:43.000Z</time>
      </trkpt>
      <trkpt lat="45.85795" lon="1.47308">
        <ele>276.5</ele>
        <time>2026-08-09T11:49:52.000Z</time>
      </trkpt>
      <trkpt lat="45.85797" lon="1.47311">
        <ele>276.7</ele>
        <time>2026-08-09T11:49:54.000Z</time>
      </trkpt>
      <trkpt lat="45.85805" lon="1.47319">
        <ele>277.3</ele>
        <time>2026-08-09T11:50:00.000Z</time>
      </trkpt>
      <trkpt lat="45.8581" lon="1.47325">
        <ele>277.4</ele>
        <time>2026-08-09T11:50:05.000Z</time>
      </trkpt>
      <trkpt lat="45.85812" lon="1.47327">
        <ele>277.5</ele>
        <time>2026-08-09T11:50:07.000Z</time>
      </trkpt>
      <trkpt lat="45.85813" lon="1.47327">
        <ele>277.6</ele>
        <time>2026-08-09T11:50:08.000Z</time>
      </trkpt>
      <trkpt lat="45.85819" lon="1.47332">
        <ele>277.7</ele>
        <time>2026-08-09T11:50:13.000Z</time>
      </trkpt>
      <trkpt lat="45.85827" lon="1.47338">
        <ele>278.1</ele>
        <time>2026-08-09T11:50:19.000Z</time>
      </trkpt>
      <trkpt lat="45.85837" lon="1.47351">
        <ele>278.8</ele>
        <time>2026-08-09T11:50:28.000Z</time>
      </trkpt>
      <trkpt lat="45.85841" lon="1.47358">
        <ele>278.9</ele>
        <time>2026-08-09T11:50:32.000Z</time>
      </trkpt>
      <trkpt lat="45.85842" lon="1.47366">
        <ele>279.3</ele>
        <time>2026-08-09T11:50:36.000Z</time>
      </trkpt>
      <trkpt lat="45.8584" lon="1.47386">
        <ele>280.5</ele>
        <time>2026-08-09T11:50:45.000Z</time>
      </trkpt>
      <trkpt lat="45.85839" lon="1.4739">
        <ele>280.7</ele>
        <time>2026-08-09T11:50:47.000Z</time>
      </trkpt>
      <trkpt lat="45.85835" lon="1.47403">
        <ele>281.6</ele>
        <time>2026-08-09T11:50:54.000Z</time>
      </trkpt>
      <trkpt lat="45.85831" lon="1.47412">
        <ele>282.3</ele>
        <time>2026-08-09T11:50:59.000Z</time>
      </trkpt>
      <trkpt lat="45.85827" lon="1.47423">
        <ele>282.5</ele>
        <time>2026-08-09T11:51:05.000Z</time>
      </trkpt>
      <trkpt lat="45.85826" lon="1.47429">
        <ele>282.6</ele>
        <time>2026-08-09T11:51:08.000Z</time>
      </trkpt>
      <trkpt lat="45.85825" lon="1.47433">
        <ele>282.7</ele>
        <time>2026-08-09T11:51:10.000Z</time>
      </trkpt>
      <trkpt lat="45.85825" lon="1.47438">
        <ele>282.8</ele>
        <time>2026-08-09T11:51:12.000Z</time>
      </trkpt>
      <trkpt lat="45.85829" lon="1.47461">
        <ele>283.5</ele>
        <time>2026-08-09T11:51:22.000Z</time>
      </trkpt>
      <trkpt lat="45.85832" lon="1.47466">
        <ele>283.8</ele>
        <time>2026-08-09T11:51:25.000Z</time>
      </trkpt>
      <trkpt lat="45.8584" lon="1.47477">
        <ele>284.5</ele>
        <time>2026-08-09T11:51:32.000Z</time>
      </trkpt>
      <trkpt lat="45.85844" lon="1.47481">
        <ele>284.8</ele>
        <time>2026-08-09T11:51:35.000Z</time>
      </trkpt>
      <trkpt lat="45.85856" lon="1.47495">
        <ele>285.7</ele>
        <time>2026-08-09T11:51:45.000Z</time>
      </trkpt>
      <trkpt lat="45.8587" lon="1.47503">
        <ele>285.9</ele>
        <time>2026-08-09T11:51:54.000Z</time>
      </trkpt>
      <trkpt lat="45.85877" lon="1.47506">
        <ele>285.8</ele>
        <time>2026-08-09T11:51:59.000Z</time>
      </trkpt>
      <trkpt lat="45.85882" lon="1.47506">
        <ele>286</ele>
        <time>2026-08-09T11:52:03.000Z</time>
      </trkpt>
      <trkpt lat="45.8589" lon="1.47505">
        <ele>286.5</ele>
        <time>2026-08-09T11:52:09.000Z</time>
      </trkpt>
      <trkpt lat="45.85892" lon="1.47504">
        <ele>286.6</ele>
        <time>2026-08-09T11:52:10.000Z</time>
      </trkpt>
      <trkpt lat="45.85893" lon="1.47504">
        <ele>286.6</ele>
        <time>2026-08-09T11:52:11.000Z</time>
      </trkpt>
      <trkpt lat="45.85904" lon="1.47499">
        <ele>287.7</ele>
        <time>2026-08-09T11:52:19.000Z</time>
      </trkpt>
      <trkpt lat="45.85907" lon="1.47497">
        <ele>288</ele>
        <time>2026-08-09T11:52:21.000Z</time>
      </trkpt>
      <trkpt lat="45.85913" lon="1.47493">
        <ele>288.6</ele>
        <time>2026-08-09T11:52:25.000Z</time>
      </trkpt>
      <trkpt lat="45.85923" lon="1.47486">
        <ele>289.1</ele>
        <time>2026-08-09T11:52:32.000Z</time>
      </trkpt>
      <trkpt lat="45.85925" lon="1.47485">
        <ele>289.2</ele>
        <time>2026-08-09T11:52:33.000Z</time>
      </trkpt>
      <trkpt lat="45.85942" lon="1.47473">
        <ele>290.9</ele>
        <time>2026-08-09T11:52:44.000Z</time>
      </trkpt>
      <trkpt lat="45.85945" lon="1.4747">
        <ele>291.1</ele>
        <time>2026-08-09T11:52:46.000Z</time>
      </trkpt>
      <trkpt lat="45.85952" lon="1.47466">
        <ele>291.1</ele>
        <time>2026-08-09T11:52:51.000Z</time>
      </trkpt>
      <trkpt lat="45.85961" lon="1.4746">
        <ele>291.2</ele>
        <time>2026-08-09T11:52:56.000Z</time>
      </trkpt>
      <trkpt lat="45.85966" lon="1.47458">
        <ele>291.2</ele>
        <time>2026-08-09T11:52:59.000Z</time>
      </trkpt>
      <trkpt lat="45.85981" lon="1.4745">
        <ele>292.3</ele>
        <time>2026-08-09T11:53:08.000Z</time>
      </trkpt>
      <trkpt lat="45.85983" lon="1.47448">
        <ele>292.5</ele>
        <time>2026-08-09T11:53:10.000Z</time>
      </trkpt>
      <trkpt lat="45.85986" lon="1.47446">
        <ele>292.8</ele>
        <time>2026-08-09T11:53:12.000Z</time>
      </trkpt>
      <trkpt lat="45.85995" lon="1.47442">
        <ele>293.2</ele>
        <time>2026-08-09T11:53:17.000Z</time>
      </trkpt>
      <trkpt lat="45.86003" lon="1.47439">
        <ele>293.6</ele>
        <time>2026-08-09T11:53:22.000Z</time>
      </trkpt>
      <trkpt lat="45.8601" lon="1.47436">
        <ele>294</ele>
        <time>2026-08-09T11:53:26.000Z</time>
      </trkpt>
      <trkpt lat="45.86024" lon="1.4743">
        <ele>295</ele>
        <time>2026-08-09T11:53:35.000Z</time>
      </trkpt>
      <trkpt lat="45.86027" lon="1.47429">
        <ele>295.2</ele>
        <time>2026-08-09T11:53:37.000Z</time>
      </trkpt>
      <trkpt lat="45.86037" lon="1.47427">
        <ele>296.1</ele>
        <time>2026-08-09T11:53:43.000Z</time>
      </trkpt>
      <trkpt lat="45.86045" lon="1.47427">
        <ele>296.7</ele>
        <time>2026-08-09T11:53:48.000Z</time>
      </trkpt>
      <trkpt lat="45.86054" lon="1.47429">
        <ele>297</ele>
        <time>2026-08-09T11:53:53.000Z</time>
      </trkpt>
      <trkpt lat="45.86067" lon="1.47435">
        <ele>297.9</ele>
        <time>2026-08-09T11:54:01.000Z</time>
      </trkpt>
      <trkpt lat="45.86079" lon="1.47444">
        <ele>298.6</ele>
        <time>2026-08-09T11:54:09.000Z</time>
      </trkpt>
      <trkpt lat="45.8608" lon="1.47445">
        <ele>298.6</ele>
        <time>2026-08-09T11:54:10.000Z</time>
      </trkpt>
      <trkpt lat="45.86094" lon="1.47463">
        <ele>299.5</ele>
        <time>2026-08-09T11:54:21.000Z</time>
      </trkpt>
      <trkpt lat="45.86102" lon="1.47474">
        <ele>299.8</ele>
        <time>2026-08-09T11:54:28.000Z</time>
      </trkpt>
      <trkpt lat="45.86103" lon="1.47475">
        <ele>299.9</ele>
        <time>2026-08-09T11:54:29.000Z</time>
      </trkpt>
      <trkpt lat="45.8611" lon="1.4748">
        <ele>300.5</ele>
        <time>2026-08-09T11:54:34.000Z</time>
      </trkpt>
      <trkpt lat="45.8611" lon="1.47481">
        <ele>300.6</ele>
        <time>2026-08-09T11:54:35.000Z</time>
      </trkpt>
      <trkpt lat="45.86112" lon="1.47485">
        <ele>300.9</ele>
        <time>2026-08-09T11:54:38.000Z</time>
      </trkpt>
      <trkpt lat="45.86115" lon="1.47489">
        <ele>301.4</ele>
        <time>2026-08-09T11:54:42.000Z</time>
      </trkpt>
      <trkpt lat="45.86126" lon="1.47499">
        <ele>302.5</ele>
        <time>2026-08-09T11:54:51.000Z</time>
      </trkpt>
      <trkpt lat="45.8613" lon="1.47502">
        <ele>302.6</ele>
        <time>2026-08-09T11:54:54.000Z</time>
      </trkpt>
      <trkpt lat="45.86137" lon="1.47505">
        <ele>302.7</ele>
        <time>2026-08-09T11:54:59.000Z</time>
      </trkpt>
      <trkpt lat="45.86138" lon="1.47506">
        <ele>302.8</ele>
        <time>2026-08-09T11:55:00.000Z</time>
      </trkpt>
      <trkpt lat="45.86147" lon="1.47508">
        <ele>303.3</ele>
        <time>2026-08-09T11:55:06.000Z</time>
      </trkpt>
      <trkpt lat="45.86153" lon="1.47505">
        <ele>303.8</ele>
        <time>2026-08-09T11:55:10.000Z</time>
      </trkpt>
      <trkpt lat="45.86156" lon="1.47503">
        <ele>304.2</ele>
        <time>2026-08-09T11:55:13.000Z</time>
      </trkpt>
      <trkpt lat="45.86159" lon="1.47502">
        <ele>304.4</ele>
        <time>2026-08-09T11:55:15.000Z</time>
      </trkpt>
      <trkpt lat="45.8616" lon="1.47501">
        <ele>304.5</ele>
        <time>2026-08-09T11:55:16.000Z</time>
      </trkpt>
      <trkpt lat="45.86169" lon="1.47487">
        <ele>305.4</ele>
        <time>2026-08-09T11:55:24.000Z</time>
      </trkpt>
      <trkpt lat="45.86172" lon="1.47486">
        <ele>305.8</ele>
        <time>2026-08-09T11:55:26.000Z</time>
      </trkpt>
      <trkpt lat="45.86175" lon="1.4748">
        <ele>306.3</ele>
        <time>2026-08-09T11:55:30.000Z</time>
      </trkpt>
      <trkpt lat="45.86177" lon="1.47476">
        <ele>306.5</ele>
        <time>2026-08-09T11:55:32.000Z</time>
      </trkpt>
      <trkpt lat="45.86181" lon="1.47468">
        <ele>306.9</ele>
        <time>2026-08-09T11:55:36.000Z</time>
      </trkpt>
      <trkpt lat="45.86185" lon="1.47459">
        <ele>307.5</ele>
        <time>2026-08-09T11:55:41.000Z</time>
      </trkpt>
      <trkpt lat="45.86192" lon="1.47443">
        <ele>308.6</ele>
        <time>2026-08-09T11:55:49.000Z</time>
      </trkpt>
      <trkpt lat="45.86193" lon="1.47441">
        <ele>308.7</ele>
        <time>2026-08-09T11:55:50.000Z</time>
      </trkpt>
      <trkpt lat="45.86203" lon="1.47425">
        <ele>309.2</ele>
        <time>2026-08-09T11:56:00.000Z</time>
      </trkpt>
      <trkpt lat="45.86214" lon="1.47413">
        <ele>310</ele>
        <time>2026-08-09T11:56:09.000Z</time>
      </trkpt>
      <trkpt lat="45.86217" lon="1.47411">
        <ele>310.3</ele>
        <time>2026-08-09T11:56:11.000Z</time>
      </trkpt>
      <trkpt lat="45.86221" lon="1.47408">
        <ele>310.6</ele>
        <time>2026-08-09T11:56:14.000Z</time>
      </trkpt>
      <trkpt lat="45.8623" lon="1.47401">
        <ele>311.2</ele>
        <time>2026-08-09T11:56:20.000Z</time>
      </trkpt>
      <trkpt lat="45.86239" lon="1.47394">
        <ele>311.6</ele>
        <time>2026-08-09T11:56:26.000Z</time>
      </trkpt>
      <trkpt lat="45.86242" lon="1.47391">
        <ele>311.6</ele>
        <time>2026-08-09T11:56:29.000Z</time>
      </trkpt>
      <trkpt lat="45.86253" lon="1.47385">
        <ele>312.3</ele>
        <time>2026-08-09T11:56:36.000Z</time>
      </trkpt>
      <trkpt lat="45.86256" lon="1.47384">
        <ele>312.7</ele>
        <time>2026-08-09T11:56:38.000Z</time>
      </trkpt>
      <trkpt lat="45.86267" lon="1.47376">
        <ele>313.8</ele>
        <time>2026-08-09T11:56:45.000Z</time>
      </trkpt>
      <trkpt lat="45.86271" lon="1.47374">
        <ele>314</ele>
        <time>2026-08-09T11:56:47.000Z</time>
      </trkpt>
      <trkpt lat="45.86276" lon="1.47372">
        <ele>314.6</ele>
        <time>2026-08-09T11:56:53.000Z</time>
      </trkpt>
      <trkpt lat="45.86276" lon="1.47372">
        <ele>314.6</ele>
        <time>2026-08-09T11:56:54.000Z</time>
      </trkpt>
      <trkpt lat="45.86281" lon="1.47368">
        <ele>314.8</ele>
        <time>2026-08-09T11:58:48.000Z</time>
      </trkpt>
      <trkpt lat="45.86284" lon="1.47366">
        <ele>314.9</ele>
        <time>2026-08-09T11:58:50.000Z</time>
      </trkpt>
      <trkpt lat="45.86294" lon="1.47359">
        <ele>315.1</ele>
        <time>2026-08-09T11:58:56.000Z</time>
      </trkpt>
      <trkpt lat="45.86296" lon="1.47357">
        <ele>315.2</ele>
        <time>2026-08-09T11:58:57.000Z</time>
      </trkpt>
      <trkpt lat="45.86314" lon="1.47344">
        <ele>316.1</ele>
        <time>2026-08-09T11:59:08.000Z</time>
      </trkpt>
      <trkpt lat="45.86317" lon="1.47341">
        <ele>316.2</ele>
        <time>2026-08-09T11:59:10.000Z</time>
      </trkpt>
      <trkpt lat="45.86323" lon="1.47329">
        <ele>316.3</ele>
        <time>2026-08-09T11:59:15.000Z</time>
      </trkpt>
      <trkpt lat="45.86324" lon="1.47306">
        <ele>316.7</ele>
        <time>2026-08-09T11:59:23.000Z</time>
      </trkpt>
      <trkpt lat="45.86321" lon="1.47295">
        <ele>317.3</ele>
        <time>2026-08-09T11:59:27.000Z</time>
      </trkpt>
      <trkpt lat="45.86317" lon="1.47285">
        <ele>317.9</ele>
        <time>2026-08-09T11:59:31.000Z</time>
      </trkpt>
      <trkpt lat="45.86307" lon="1.47263">
        <ele>318.6</ele>
        <time>2026-08-09T11:59:40.000Z</time>
      </trkpt>
      <trkpt lat="45.86307" lon="1.4726">
        <ele>318.7</ele>
        <time>2026-08-09T11:59:41.000Z</time>
      </trkpt>
      <trkpt lat="45.86302" lon="1.47248">
        <ele>319</ele>
        <time>2026-08-09T11:59:46.000Z</time>
      </trkpt>
      <trkpt lat="45.86298" lon="1.4724">
        <ele>319.4</ele>
        <time>2026-08-09T11:59:50.000Z</time>
      </trkpt>
      <trkpt lat="45.86292" lon="1.47221">
        <ele>320.1</ele>
        <time>2026-08-09T11:59:57.000Z</time>
      </trkpt>
      <trkpt lat="45.86288" lon="1.47211">
        <ele>320.6</ele>
        <time>2026-08-09T12:00:01.000Z</time>
      </trkpt>
      <trkpt lat="45.86279" lon="1.47189">
        <ele>321.5</ele>
        <time>2026-08-09T12:00:10.000Z</time>
      </trkpt>
      <trkpt lat="45.86273" lon="1.47167">
        <ele>322.6</ele>
        <time>2026-08-09T12:00:19.000Z</time>
      </trkpt>
      <trkpt lat="45.86272" lon="1.47164">
        <ele>322.8</ele>
        <time>2026-08-09T12:00:20.000Z</time>
      </trkpt>
      <trkpt lat="45.86266" lon="1.4715">
        <ele>323.3</ele>
        <time>2026-08-09T12:00:26.000Z</time>
      </trkpt>
      <trkpt lat="45.86263" lon="1.47143">
        <ele>323.6</ele>
        <time>2026-08-09T12:00:29.000Z</time>
      </trkpt>
      <trkpt lat="45.86257" lon="1.4713">
        <ele>324.2</ele>
        <time>2026-08-09T12:00:35.000Z</time>
      </trkpt>
      <trkpt lat="45.86251" lon="1.47112">
        <ele>325</ele>
        <time>2026-08-09T12:00:43.000Z</time>
      </trkpt>
      <trkpt lat="45.86248" lon="1.47105">
        <ele>325.6</ele>
        <time>2026-08-09T12:00:46.000Z</time>
      </trkpt>
      <trkpt lat="45.86247" lon="1.47102">
        <ele>325.8</ele>
        <time>2026-08-09T12:00:47.000Z</time>
      </trkpt>
      <trkpt lat="45.86243" lon="1.47093">
        <ele>326.4</ele>
        <time>2026-08-09T12:00:51.000Z</time>
      </trkpt>
      <trkpt lat="45.86238" lon="1.47079">
        <ele>326.9</ele>
        <time>2026-08-09T12:00:57.000Z</time>
      </trkpt>
      <trkpt lat="45.86229" lon="1.47056">
        <ele>327.7</ele>
        <time>2026-08-09T12:01:07.000Z</time>
      </trkpt>
      <trkpt lat="45.86221" lon="1.47037">
        <ele>328.3</ele>
        <time>2026-08-09T12:01:15.000Z</time>
      </trkpt>
      <trkpt lat="45.8622" lon="1.47032">
        <ele>328.6</ele>
        <time>2026-08-09T12:01:17.000Z</time>
      </trkpt>
      <trkpt lat="45.86217" lon="1.47024">
        <ele>328.9</ele>
        <time>2026-08-09T12:01:20.000Z</time>
      </trkpt>
      <trkpt lat="45.86212" lon="1.4701">
        <ele>329.5</ele>
        <time>2026-08-09T12:01:26.000Z</time>
      </trkpt>
      <trkpt lat="45.86209" lon="1.47002">
        <ele>329.9</ele>
        <time>2026-08-09T12:01:29.000Z</time>
      </trkpt>
      <trkpt lat="45.86203" lon="1.46979">
        <ele>331.1</ele>
        <time>2026-08-09T12:01:39.000Z</time>
      </trkpt>
      <trkpt lat="45.86203" lon="1.4697">
        <ele>331.6</ele>
        <time>2026-08-09T12:01:42.000Z</time>
      </trkpt>
      <trkpt lat="45.86203" lon="1.46962">
        <ele>331.9</ele>
        <time>2026-08-09T12:01:45.000Z</time>
      </trkpt>
      <trkpt lat="45.8621" lon="1.46943">
        <ele>332.5</ele>
        <time>2026-08-09T12:01:53.000Z</time>
      </trkpt>
      <trkpt lat="45.86211" lon="1.46941">
        <ele>332.5</ele>
        <time>2026-08-09T12:01:54.000Z</time>
      </trkpt>
      <trkpt lat="45.86219" lon="1.46931">
        <ele>332.4</ele>
        <time>2026-08-09T12:02:00.000Z</time>
      </trkpt>
      <trkpt lat="45.86221" lon="1.4693">
        <ele>332.4</ele>
        <time>2026-08-09T12:02:01.000Z</time>
      </trkpt>
      <trkpt lat="45.86235" lon="1.46929">
        <ele>333.1</ele>
        <time>2026-08-09T12:02:09.000Z</time>
      </trkpt>
      <trkpt lat="45.86236" lon="1.46928">
        <ele>333.1</ele>
        <time>2026-08-09T12:02:10.000Z</time>
      </trkpt>
      <trkpt lat="45.86251" lon="1.4693">
        <ele>333.9</ele>
        <time>2026-08-09T12:02:18.000Z</time>
      </trkpt>
      <trkpt lat="45.86265" lon="1.46932">
        <ele>333.9</ele>
        <time>2026-08-09T12:02:25.000Z</time>
      </trkpt>
      <trkpt lat="45.86284" lon="1.46935">
        <ele>334</ele>
        <time>2026-08-09T12:02:34.000Z</time>
      </trkpt>
      <trkpt lat="45.86294" lon="1.46937">
        <ele>334.2</ele>
        <time>2026-08-09T12:02:38.000Z</time>
      </trkpt>
      <trkpt lat="45.86303" lon="1.46939">
        <ele>334.4</ele>
        <time>2026-08-09T12:02:42.000Z</time>
      </trkpt>
      <trkpt lat="45.86328" lon="1.46944">
        <ele>334.9</ele>
        <time>2026-08-09T12:02:52.000Z</time>
      </trkpt>
      <trkpt lat="45.86331" lon="1.46944">
        <ele>334.9</ele>
        <time>2026-08-09T12:02:53.000Z</time>
      </trkpt>
      <trkpt lat="45.86351" lon="1.46947">
        <ele>335.1</ele>
        <time>2026-08-09T12:03:01.000Z</time>
      </trkpt>
      <trkpt lat="45.86374" lon="1.46939">
        <ele>334.8</ele>
        <time>2026-08-09T12:03:09.000Z</time>
      </trkpt>
      <trkpt lat="45.86394" lon="1.46922">
        <ele>335.4</ele>
        <time>2026-08-09T12:03:17.000Z</time>
      </trkpt>
      <trkpt lat="45.86422" lon="1.46895">
        <ele>336.2</ele>
        <time>2026-08-09T12:03:29.000Z</time>
      </trkpt>
      <trkpt lat="45.86444" lon="1.46872">
        <ele>337.1</ele>
        <time>2026-08-09T12:03:39.000Z</time>
      </trkpt>
      <trkpt lat="45.86464" lon="1.46837">
        <ele>335.9</ele>
        <time>2026-08-09T12:03:50.000Z</time>
      </trkpt>
      <trkpt lat="45.86479" lon="1.46808">
        <ele>336.7</ele>
        <time>2026-08-09T12:03:59.000Z</time>
      </trkpt>
      <trkpt lat="45.8649" lon="1.46784">
        <ele>337.7</ele>
        <time>2026-08-09T12:04:07.000Z</time>
      </trkpt>
      <trkpt lat="45.86498" lon="1.46768">
        <ele>338.4</ele>
        <time>2026-08-09T12:04:13.000Z</time>
      </trkpt>
      <trkpt lat="45.8651" lon="1.46748">
        <ele>339.3</ele>
        <time>2026-08-09T12:04:22.000Z</time>
      </trkpt>
      <trkpt lat="45.86513" lon="1.46744">
        <ele>339.4</ele>
        <time>2026-08-09T12:04:24.000Z</time>
      </trkpt>
      <trkpt lat="45.86526" lon="1.4673">
        <ele>340.3</ele>
        <time>2026-08-09T12:04:32.000Z</time>
      </trkpt>
      <trkpt lat="45.86532" lon="1.46727">
        <ele>340.6</ele>
        <time>2026-08-09T12:04:35.000Z</time>
      </trkpt>
      <trkpt lat="45.86543" lon="1.46722">
        <ele>341.1</ele>
        <time>2026-08-09T12:04:41.000Z</time>
      </trkpt>
      <trkpt lat="45.8655" lon="1.46719">
        <ele>341.2</ele>
        <time>2026-08-09T12:04:45.000Z</time>
      </trkpt>
      <trkpt lat="45.8656" lon="1.46715">
        <ele>341.8</ele>
        <time>2026-08-09T12:04:50.000Z</time>
      </trkpt>
      <trkpt lat="45.86564" lon="1.46713">
        <ele>342.1</ele>
        <time>2026-08-09T12:04:52.000Z</time>
      </trkpt>
      <trkpt lat="45.86576" lon="1.46707">
        <ele>343</ele>
        <time>2026-08-09T12:04:59.000Z</time>
      </trkpt>
      <trkpt lat="45.86581" lon="1.46704">
        <ele>343.4</ele>
        <time>2026-08-09T12:05:02.000Z</time>
      </trkpt>
      <trkpt lat="45.86587" lon="1.46699">
        <ele>343.8</ele>
        <time>2026-08-09T12:05:06.000Z</time>
      </trkpt>
      <trkpt lat="45.86596" lon="1.46685">
        <ele>344.6</ele>
        <time>2026-08-09T12:05:13.000Z</time>
      </trkpt>
      <trkpt lat="45.86598" lon="1.46677">
        <ele>344.9</ele>
        <time>2026-08-09T12:05:16.000Z</time>
      </trkpt>
      <trkpt lat="45.86598" lon="1.46664">
        <ele>345.2</ele>
        <time>2026-08-09T12:05:21.000Z</time>
      </trkpt>
      <trkpt lat="45.86594" lon="1.46645">
        <ele>345.4</ele>
        <time>2026-08-09T12:05:28.000Z</time>
      </trkpt>
      <trkpt lat="45.86592" lon="1.4663">
        <ele>345.8</ele>
        <time>2026-08-09T12:05:34.000Z</time>
      </trkpt>
      <trkpt lat="45.86591" lon="1.46628">
        <ele>345.8</ele>
        <time>2026-08-09T12:05:35.000Z</time>
      </trkpt>
      <trkpt lat="45.86588" lon="1.46611">
        <ele>346.6</ele>
        <time>2026-08-09T12:05:42.000Z</time>
      </trkpt>
      <trkpt lat="45.86587" lon="1.46609">
        <ele>346.6</ele>
        <time>2026-08-09T12:05:43.000Z</time>
      </trkpt>
      <trkpt lat="45.86585" lon="1.466">
        <ele>347</ele>
        <time>2026-08-09T12:05:47.000Z</time>
      </trkpt>
      <trkpt lat="45.86585" lon="1.46595">
        <ele>347.4</ele>
        <time>2026-08-09T12:05:49.000Z</time>
      </trkpt>
      <trkpt lat="45.86583" lon="1.46584">
        <ele>347.9</ele>
        <time>2026-08-09T12:05:54.000Z</time>
      </trkpt>
      <trkpt lat="45.86581" lon="1.46581">
        <ele>347.8</ele>
        <time>2026-08-09T12:05:56.000Z</time>
      </trkpt>
      <trkpt lat="45.86578" lon="1.46579">
        <ele>347.4</ele>
        <time>2026-08-09T12:06:01.000Z</time>
      </trkpt>
      <trkpt lat="45.86578" lon="1.46572">
        <ele>347.7</ele>
        <time>2026-08-09T12:07:32.000Z</time>
      </trkpt>
      <trkpt lat="45.86577" lon="1.46564">
        <ele>348</ele>
        <time>2026-08-09T12:07:35.000Z</time>
      </trkpt>
      <trkpt lat="45.86577" lon="1.46561">
        <ele>348</ele>
        <time>2026-08-09T12:07:36.000Z</time>
      </trkpt>
      <trkpt lat="45.86576" lon="1.46552">
        <ele>348.3</ele>
        <time>2026-08-09T12:07:40.000Z</time>
      </trkpt>
      <trkpt lat="45.86576" lon="1.46551">
        <ele>348.3</ele>
        <time>2026-08-09T12:07:41.000Z</time>
      </trkpt>
      <trkpt lat="45.86576" lon="1.46551">
        <ele>348.3</ele>
        <time>2026-08-09T12:07:42.000Z</time>
      </trkpt>
      <trkpt lat="45.86578" lon="1.46546">
        <ele>348.7</ele>
        <time>2026-08-09T12:07:48.000Z</time>
      </trkpt>
      <trkpt lat="45.8658" lon="1.46539">
        <ele>349.1</ele>
        <time>2026-08-09T12:07:51.000Z</time>
      </trkpt>
      <trkpt lat="45.86582" lon="1.46521">
        <ele>350.1</ele>
        <time>2026-08-09T12:07:58.000Z</time>
      </trkpt>
      <trkpt lat="45.86583" lon="1.46514">
        <ele>350.5</ele>
        <time>2026-08-09T12:08:01.000Z</time>
      </trkpt>
      <trkpt lat="45.86587" lon="1.46497">
        <ele>351.3</ele>
        <time>2026-08-09T12:08:08.000Z</time>
      </trkpt>
      <trkpt lat="45.86589" lon="1.46487">
        <ele>351.5</ele>
        <time>2026-08-09T12:08:12.000Z</time>
      </trkpt>
      <trkpt lat="45.86594" lon="1.46473">
        <ele>352.1</ele>
        <time>2026-08-09T12:08:18.000Z</time>
      </trkpt>
      <trkpt lat="45.86595" lon="1.46469">
        <ele>352.3</ele>
        <time>2026-08-09T12:08:20.000Z</time>
      </trkpt>
      <trkpt lat="45.866" lon="1.46456">
        <ele>352.8</ele>
        <time>2026-08-09T12:08:26.000Z</time>
      </trkpt>
      <trkpt lat="45.86604" lon="1.46444">
        <ele>353.2</ele>
        <time>2026-08-09T12:08:31.000Z</time>
      </trkpt>
      <trkpt lat="45.86605" lon="1.46442">
        <ele>353.3</ele>
        <time>2026-08-09T12:08:32.000Z</time>
      </trkpt>
      <trkpt lat="45.86612" lon="1.46425">
        <ele>354</ele>
        <time>2026-08-09T12:08:40.000Z</time>
      </trkpt>
      <trkpt lat="45.86614" lon="1.4642">
        <ele>354.2</ele>
        <time>2026-08-09T12:08:42.000Z</time>
      </trkpt>
      <trkpt lat="45.86616" lon="1.46416">
        <ele>354.3</ele>
        <time>2026-08-09T12:08:44.000Z</time>
      </trkpt>
      <trkpt lat="45.86618" lon="1.46409">
        <ele>354.5</ele>
        <time>2026-08-09T12:08:47.000Z</time>
      </trkpt>
      <trkpt lat="45.86621" lon="1.46398">
        <ele>354.7</ele>
        <time>2026-08-09T12:08:52.000Z</time>
      </trkpt>
      <trkpt lat="45.86622" lon="1.46396">
        <ele>354.8</ele>
        <time>2026-08-09T12:08:53.000Z</time>
      </trkpt>
      <trkpt lat="45.86629" lon="1.46376">
        <ele>355.4</ele>
        <time>2026-08-09T12:09:01.000Z</time>
      </trkpt>
      <trkpt lat="45.8663" lon="1.46371">
        <ele>355.6</ele>
        <time>2026-08-09T12:09:03.000Z</time>
      </trkpt>
      <trkpt lat="45.86638" lon="1.46352">
        <ele>356</ele>
        <time>2026-08-09T12:09:10.000Z</time>
      </trkpt>
      <trkpt lat="45.86649" lon="1.46329">
        <ele>356.1</ele>
        <time>2026-08-09T12:09:17.000Z</time>
      </trkpt>
      <trkpt lat="45.86657" lon="1.46308">
        <ele>355.2</ele>
        <time>2026-08-09T12:09:22.000Z</time>
      </trkpt>
      <trkpt lat="45.86661" lon="1.46299">
        <ele>355</ele>
        <time>2026-08-09T12:09:24.000Z</time>
      </trkpt>
      <trkpt lat="45.86676" lon="1.46264">
        <ele>354</ele>
        <time>2026-08-09T12:09:30.000Z</time>
      </trkpt>
      <trkpt lat="45.86695" lon="1.46218">
        <ele>353.1</ele>
        <time>2026-08-09T12:09:37.000Z</time>
      </trkpt>
      <trkpt lat="45.86713" lon="1.46183">
        <ele>353</ele>
        <time>2026-08-09T12:09:42.000Z</time>
      </trkpt>
      <trkpt lat="45.86717" lon="1.46177">
        <ele>352.9</ele>
        <time>2026-08-09T12:09:43.000Z</time>
      </trkpt>
      <trkpt lat="45.86728" lon="1.46168">
        <ele>352.6</ele>
        <time>2026-08-09T12:09:45.000Z</time>
      </trkpt>
      <trkpt lat="45.86739" lon="1.46164">
        <ele>351.9</ele>
        <time>2026-08-09T12:09:47.000Z</time>
      </trkpt>
      <trkpt lat="45.86752" lon="1.46166">
        <ele>350.9</ele>
        <time>2026-08-09T12:09:49.000Z</time>
      </trkpt>
      <trkpt lat="45.86759" lon="1.46169">
        <ele>350.2</ele>
        <time>2026-08-09T12:09:50.000Z</time>
      </trkpt>
      <trkpt lat="45.86772" lon="1.46177">
        <ele>348.7</ele>
        <time>2026-08-09T12:09:52.000Z</time>
      </trkpt>
      <trkpt lat="45.86802" lon="1.46192">
        <ele>346.3</ele>
        <time>2026-08-09T12:09:56.000Z</time>
      </trkpt>
      <trkpt lat="45.8681" lon="1.46196">
        <ele>345.7</ele>
        <time>2026-08-09T12:09:57.000Z</time>
      </trkpt>
      <trkpt lat="45.86817" lon="1.462">
        <ele>345.1</ele>
        <time>2026-08-09T12:09:58.000Z</time>
      </trkpt>
      <trkpt lat="45.86841" lon="1.46213">
        <ele>343.4</ele>
        <time>2026-08-09T12:10:01.000Z</time>
      </trkpt>
      <trkpt lat="45.86856" lon="1.46221">
        <ele>342.3</ele>
        <time>2026-08-09T12:10:03.000Z</time>
      </trkpt>
      <trkpt lat="45.8688" lon="1.46233">
        <ele>341.2</ele>
        <time>2026-08-09T12:10:06.000Z</time>
      </trkpt>
      <trkpt lat="45.86895" lon="1.46241">
        <ele>340.5</ele>
        <time>2026-08-09T12:10:08.000Z</time>
      </trkpt>
      <trkpt lat="45.86918" lon="1.46253">
        <ele>338.8</ele>
        <time>2026-08-09T12:10:11.000Z</time>
      </trkpt>
      <trkpt lat="45.8694" lon="1.46265">
        <ele>337.5</ele>
        <time>2026-08-09T12:10:14.000Z</time>
      </trkpt>
      <trkpt lat="45.86962" lon="1.46276">
        <ele>334.9</ele>
        <time>2026-08-09T12:10:17.000Z</time>
      </trkpt>
      <trkpt lat="45.86976" lon="1.46284">
        <ele>333.6</ele>
        <time>2026-08-09T12:10:19.000Z</time>
      </trkpt>
      <trkpt lat="45.8699" lon="1.46291">
        <ele>332.6</ele>
        <time>2026-08-09T12:10:21.000Z</time>
      </trkpt>
      <trkpt lat="45.87003" lon="1.46295">
        <ele>331.7</ele>
        <time>2026-08-09T12:10:23.000Z</time>
      </trkpt>
      <trkpt lat="45.87016" lon="1.46292">
        <ele>331.1</ele>
        <time>2026-08-09T12:10:25.000Z</time>
      </trkpt>
      <trkpt lat="45.87033" lon="1.4628">
        <ele>330.1</ele>
        <time>2026-08-09T12:10:28.000Z</time>
      </trkpt>
      <trkpt lat="45.87051" lon="1.46266">
        <ele>328.8</ele>
        <time>2026-08-09T12:10:31.000Z</time>
      </trkpt>
      <trkpt lat="45.87071" lon="1.46255">
        <ele>328.1</ele>
        <time>2026-08-09T12:10:34.000Z</time>
      </trkpt>
      <trkpt lat="45.87078" lon="1.46252">
        <ele>327.5</ele>
        <time>2026-08-09T12:10:35.000Z</time>
      </trkpt>
      <trkpt lat="45.87093" lon="1.4625">
        <ele>327.1</ele>
        <time>2026-08-09T12:10:37.000Z</time>
      </trkpt>
      <trkpt lat="45.871" lon="1.46249">
        <ele>327.1</ele>
        <time>2026-08-09T12:10:38.000Z</time>
      </trkpt>
      <trkpt lat="45.87108" lon="1.4625">
        <ele>327.1</ele>
        <time>2026-08-09T12:10:39.000Z</time>
      </trkpt>
      <trkpt lat="45.87132" lon="1.46249">
        <ele>324.9</ele>
        <time>2026-08-09T12:10:42.000Z</time>
      </trkpt>
      <trkpt lat="45.87139" lon="1.46246">
        <ele>324.5</ele>
        <time>2026-08-09T12:10:43.000Z</time>
      </trkpt>
      <trkpt lat="45.87145" lon="1.4624">
        <ele>323.1</ele>
        <time>2026-08-09T12:10:44.000Z</time>
      </trkpt>
      <trkpt lat="45.87153" lon="1.46221">
        <ele>322.4</ele>
        <time>2026-08-09T12:10:46.000Z</time>
      </trkpt>
      <trkpt lat="45.87155" lon="1.46197">
        <ele>321.7</ele>
        <time>2026-08-09T12:10:48.000Z</time>
      </trkpt>
      <trkpt lat="45.87155" lon="1.46184">
        <ele>321</ele>
        <time>2026-08-09T12:10:49.000Z</time>
      </trkpt>
      <trkpt lat="45.8715" lon="1.4616">
        <ele>320.2</ele>
        <time>2026-08-09T12:10:51.000Z</time>
      </trkpt>
      <trkpt lat="45.87142" lon="1.4612">
        <ele>320.1</ele>
        <time>2026-08-09T12:10:54.000Z</time>
      </trkpt>
      <trkpt lat="45.87145" lon="1.46066">
        <ele>319.2</ele>
        <time>2026-08-09T12:10:58.000Z</time>
      </trkpt>
      <trkpt lat="45.87153" lon="1.46028">
        <ele>314.4</ele>
        <time>2026-08-09T12:11:01.000Z</time>
      </trkpt>
      <trkpt lat="45.87158" lon="1.46016">
        <ele>314.9</ele>
        <time>2026-08-09T12:11:02.000Z</time>
      </trkpt>
      <trkpt lat="45.87173" lon="1.45982">
        <ele>314.2</ele>
        <time>2026-08-09T12:11:05.000Z</time>
      </trkpt>
      <trkpt lat="45.87176" lon="1.45969">
        <ele>313.2</ele>
        <time>2026-08-09T12:11:06.000Z</time>
      </trkpt>
      <trkpt lat="45.87176" lon="1.45957">
        <ele>312.4</ele>
        <time>2026-08-09T12:11:07.000Z</time>
      </trkpt>
      <trkpt lat="45.87175" lon="1.45944">
        <ele>312</ele>
        <time>2026-08-09T12:11:08.000Z</time>
      </trkpt>
      <trkpt lat="45.87173" lon="1.45932">
        <ele>311.7</ele>
        <time>2026-08-09T12:11:09.000Z</time>
      </trkpt>
      <trkpt lat="45.87169" lon="1.45907">
        <ele>311.2</ele>
        <time>2026-08-09T12:11:11.000Z</time>
      </trkpt>
      <trkpt lat="45.87156" lon="1.45861">
        <ele>310.2</ele>
        <time>2026-08-09T12:11:15.000Z</time>
      </trkpt>
      <trkpt lat="45.87154" lon="1.45849">
        <ele>309.5</ele>
        <time>2026-08-09T12:11:16.000Z</time>
      </trkpt>
      <trkpt lat="45.8715" lon="1.45824">
        <ele>308</ele>
        <time>2026-08-09T12:11:18.000Z</time>
      </trkpt>
      <trkpt lat="45.8715" lon="1.45811">
        <ele>307.6</ele>
        <time>2026-08-09T12:11:19.000Z</time>
      </trkpt>
      <trkpt lat="45.8715" lon="1.45787">
        <ele>306.6</ele>
        <time>2026-08-09T12:11:21.000Z</time>
      </trkpt>
      <trkpt lat="45.87149" lon="1.45776">
        <ele>306.3</ele>
        <time>2026-08-09T12:11:22.000Z</time>
      </trkpt>
      <trkpt lat="45.87146" lon="1.45752">
        <ele>305.7</ele>
        <time>2026-08-09T12:11:24.000Z</time>
      </trkpt>
      <trkpt lat="45.87144" lon="1.4574">
        <ele>305.7</ele>
        <time>2026-08-09T12:11:25.000Z</time>
      </trkpt>
      <trkpt lat="45.87139" lon="1.45693">
        <ele>304.8</ele>
        <time>2026-08-09T12:11:29.000Z</time>
      </trkpt>
      <trkpt lat="45.87137" lon="1.45682">
        <ele>303.7</ele>
        <time>2026-08-09T12:11:30.000Z</time>
      </trkpt>
      <trkpt lat="45.87129" lon="1.45651">
        <ele>301.9</ele>
        <time>2026-08-09T12:11:33.000Z</time>
      </trkpt>
      <trkpt lat="45.87126" lon="1.45642">
        <ele>301.6</ele>
        <time>2026-08-09T12:11:34.000Z</time>
      </trkpt>
      <trkpt lat="45.87123" lon="1.45632">
        <ele>301.7</ele>
        <time>2026-08-09T12:11:35.000Z</time>
      </trkpt>
      <trkpt lat="45.87117" lon="1.45615">
        <ele>301.8</ele>
        <time>2026-08-09T12:11:37.000Z</time>
      </trkpt>
      <trkpt lat="45.87116" lon="1.45607">
        <ele>301.9</ele>
        <time>2026-08-09T12:11:38.000Z</time>
      </trkpt>
      <trkpt lat="45.87116" lon="1.45599">
        <ele>301.8</ele>
        <time>2026-08-09T12:11:39.000Z</time>
      </trkpt>
      <trkpt lat="45.87116" lon="1.45591">
        <ele>301.8</ele>
        <time>2026-08-09T12:11:40.000Z</time>
      </trkpt>
      <trkpt lat="45.87116" lon="1.4557">
        <ele>301.2</ele>
        <time>2026-08-09T12:11:42.000Z</time>
      </trkpt>
      <trkpt lat="45.87116" lon="1.45558">
        <ele>300.7</ele>
        <time>2026-08-09T12:11:43.000Z</time>
      </trkpt>
      <trkpt lat="45.87116" lon="1.45548">
        <ele>300.5</ele>
        <time>2026-08-09T12:11:44.000Z</time>
      </trkpt>
      <trkpt lat="45.87111" lon="1.45528">
        <ele>301</ele>
        <time>2026-08-09T12:11:46.000Z</time>
      </trkpt>
      <trkpt lat="45.87104" lon="1.45507">
        <ele>300.2</ele>
        <time>2026-08-09T12:11:48.000Z</time>
      </trkpt>
      <trkpt lat="45.87088" lon="1.45468">
        <ele>299.3</ele>
        <time>2026-08-09T12:11:52.000Z</time>
      </trkpt>
      <trkpt lat="45.87078" lon="1.45452">
        <ele>298.8</ele>
        <time>2026-08-09T12:11:54.000Z</time>
      </trkpt>
      <trkpt lat="45.87064" lon="1.45437">
        <ele>299.5</ele>
        <time>2026-08-09T12:11:56.000Z</time>
      </trkpt>
      <trkpt lat="45.87057" lon="1.4543">
        <ele>299.3</ele>
        <time>2026-08-09T12:11:57.000Z</time>
      </trkpt>
      <trkpt lat="45.87035" lon="1.45411">
        <ele>298.1</ele>
        <time>2026-08-09T12:12:00.000Z</time>
      </trkpt>
      <trkpt lat="45.87029" lon="1.45404">
        <ele>297.6</ele>
        <time>2026-08-09T12:12:01.000Z</time>
      </trkpt>
      <trkpt lat="45.87022" lon="1.45395">
        <ele>297</ele>
        <time>2026-08-09T12:12:02.000Z</time>
      </trkpt>
      <trkpt lat="45.87017" lon="1.45385">
        <ele>295.8</ele>
        <time>2026-08-09T12:12:03.000Z</time>
      </trkpt>
      <trkpt lat="45.87012" lon="1.45374">
        <ele>294</ele>
        <time>2026-08-09T12:12:04.000Z</time>
      </trkpt>
      <trkpt lat="45.87008" lon="1.45362">
        <ele>291.7</ele>
        <time>2026-08-09T12:12:05.000Z</time>
      </trkpt>
      <trkpt lat="45.87005" lon="1.45352">
        <ele>291.9</ele>
        <time>2026-08-09T12:12:06.000Z</time>
      </trkpt>
      <trkpt lat="45.87003" lon="1.45341">
        <ele>292.5</ele>
        <time>2026-08-09T12:12:07.000Z</time>
      </trkpt>
      <trkpt lat="45.86998" lon="1.45316">
        <ele>294</ele>
        <time>2026-08-09T12:12:10.000Z</time>
      </trkpt>
      <trkpt lat="45.86994" lon="1.45302">
        <ele>294.4</ele>
        <time>2026-08-09T12:12:12.000Z</time>
      </trkpt>
      <trkpt lat="45.86993" lon="1.45289">
        <ele>295.3</ele>
        <time>2026-08-09T12:12:14.000Z</time>
      </trkpt>
      <trkpt lat="45.86997" lon="1.45265">
        <ele>296.5</ele>
        <time>2026-08-09T12:12:19.000Z</time>
      </trkpt>
      <trkpt lat="45.87" lon="1.45245">
        <ele>297.2</ele>
        <time>2026-08-09T12:12:25.000Z</time>
      </trkpt>
      <trkpt lat="45.87003" lon="1.45234">
        <ele>297.8</ele>
        <time>2026-08-09T12:12:29.000Z</time>
      </trkpt>
      <trkpt lat="45.87003" lon="1.45228">
        <ele>298</ele>
        <time>2026-08-09T12:12:31.000Z</time>
      </trkpt>
      <trkpt lat="45.87003" lon="1.45225">
        <ele>298.2</ele>
        <time>2026-08-09T12:12:32.000Z</time>
      </trkpt>
      <trkpt lat="45.87003" lon="1.45208">
        <ele>298.7</ele>
        <time>2026-08-09T12:12:38.000Z</time>
      </trkpt>
      <trkpt lat="45.87002" lon="1.45197">
        <ele>299.1</ele>
        <time>2026-08-09T12:12:42.000Z</time>
      </trkpt>
      <trkpt lat="45.87001" lon="1.45183">
        <ele>299.9</ele>
        <time>2026-08-09T12:12:47.000Z</time>
      </trkpt>
      <trkpt lat="45.87001" lon="1.45174">
        <ele>300.6</ele>
        <time>2026-08-09T12:12:51.000Z</time>
      </trkpt>
      <trkpt lat="45.87001" lon="1.45168">
        <ele>301</ele>
        <time>2026-08-09T12:12:53.000Z</time>
      </trkpt>
      <trkpt lat="45.87" lon="1.4515">
        <ele>301.6</ele>
        <time>2026-08-09T12:13:00.000Z</time>
      </trkpt>
      <trkpt lat="45.87" lon="1.45145">
        <ele>301.8</ele>
        <time>2026-08-09T12:13:02.000Z</time>
      </trkpt>
      <trkpt lat="45.87001" lon="1.45135">
        <ele>302.2</ele>
        <time>2026-08-09T12:13:06.000Z</time>
      </trkpt>
      <trkpt lat="45.87001" lon="1.45132">
        <ele>302.4</ele>
        <time>2026-08-09T12:13:07.000Z</time>
      </trkpt>
      <trkpt lat="45.87001" lon="1.45125">
        <ele>302.7</ele>
        <time>2026-08-09T12:13:10.000Z</time>
      </trkpt>
      <trkpt lat="45.87002" lon="1.45119">
        <ele>303</ele>
        <time>2026-08-09T12:13:12.000Z</time>
      </trkpt>
      <trkpt lat="45.87002" lon="1.45102">
        <ele>303.6</ele>
        <time>2026-08-09T12:13:18.000Z</time>
      </trkpt>
      <trkpt lat="45.87001" lon="1.45094">
        <ele>303.8</ele>
        <time>2026-08-09T12:13:21.000Z</time>
      </trkpt>
      <trkpt lat="45.87001" lon="1.45077">
        <ele>304.3</ele>
        <time>2026-08-09T12:13:27.000Z</time>
      </trkpt>
      <trkpt lat="45.87001" lon="1.45072">
        <ele>304.3</ele>
        <time>2026-08-09T12:13:29.000Z</time>
      </trkpt>
      <trkpt lat="45.87002" lon="1.45058">
        <ele>304.5</ele>
        <time>2026-08-09T12:13:35.000Z</time>
      </trkpt>
      <trkpt lat="45.87003" lon="1.4505">
        <ele>304.8</ele>
        <time>2026-08-09T12:13:38.000Z</time>
      </trkpt>
      <trkpt lat="45.87004" lon="1.45034">
        <ele>305.6</ele>
        <time>2026-08-09T12:13:44.000Z</time>
      </trkpt>
      <trkpt lat="45.87004" lon="1.45025">
        <ele>305.9</ele>
        <time>2026-08-09T12:13:47.000Z</time>
      </trkpt>
      <trkpt lat="45.87006" lon="1.45013">
        <ele>306.7</ele>
        <time>2026-08-09T12:13:52.000Z</time>
      </trkpt>
      <trkpt lat="45.8701" lon="1.44995">
        <ele>307.6</ele>
        <time>2026-08-09T12:13:58.000Z</time>
      </trkpt>
      <trkpt lat="45.87012" lon="1.44991">
        <ele>307.7</ele>
        <time>2026-08-09T12:14:00.000Z</time>
      </trkpt>
      <trkpt lat="45.8702" lon="1.44976">
        <ele>308.1</ele>
        <time>2026-08-09T12:14:07.000Z</time>
      </trkpt>
      <trkpt lat="45.87021" lon="1.44975">
        <ele>308.2</ele>
        <time>2026-08-09T12:14:08.000Z</time>
      </trkpt>
      <trkpt lat="45.8703" lon="1.44968">
        <ele>308.5</ele>
        <time>2026-08-09T12:14:14.000Z</time>
      </trkpt>
      <trkpt lat="45.87033" lon="1.44965">
        <ele>308.5</ele>
        <time>2026-08-09T12:14:16.000Z</time>
      </trkpt>
      <trkpt lat="45.87039" lon="1.4496">
        <ele>308.8</ele>
        <time>2026-08-09T12:14:20.000Z</time>
      </trkpt>
      <trkpt lat="45.87049" lon="1.44956">
        <ele>310</ele>
        <time>2026-08-09T12:14:26.000Z</time>
      </trkpt>
      <trkpt lat="45.8705" lon="1.44955">
        <ele>310.1</ele>
        <time>2026-08-09T12:14:27.000Z</time>
      </trkpt>
      <trkpt lat="45.87051" lon="1.44955">
        <ele>310.3</ele>
        <time>2026-08-09T12:14:28.000Z</time>
      </trkpt>
      <trkpt lat="45.87061" lon="1.44953">
        <ele>311</ele>
        <time>2026-08-09T12:14:34.000Z</time>
      </trkpt>
      <trkpt lat="45.87069" lon="1.44954">
        <ele>311.2</ele>
        <time>2026-08-09T12:14:38.000Z</time>
      </trkpt>
      <trkpt lat="45.87072" lon="1.44956">
        <ele>311.5</ele>
        <time>2026-08-09T12:14:40.000Z</time>
      </trkpt>
      <trkpt lat="45.87085" lon="1.44962">
        <ele>312.6</ele>
        <time>2026-08-09T12:14:47.000Z</time>
      </trkpt>
      <trkpt lat="45.87087" lon="1.44964">
        <ele>312.8</ele>
        <time>2026-08-09T12:14:48.000Z</time>
      </trkpt>
      <trkpt lat="45.87102" lon="1.44969">
        <ele>313.6</ele>
        <time>2026-08-09T12:14:57.000Z</time>
      </trkpt>
      <trkpt lat="45.87117" lon="1.44979">
        <ele>314.5</ele>
        <time>2026-08-09T12:15:06.000Z</time>
      </trkpt>
      <trkpt lat="45.87118" lon="1.4498">
        <ele>314.5</ele>
        <time>2026-08-09T12:15:07.000Z</time>
      </trkpt>
      <trkpt lat="45.87132" lon="1.44987">
        <ele>315.1</ele>
        <time>2026-08-09T12:15:15.000Z</time>
      </trkpt>
      <trkpt lat="45.87139" lon="1.4499">
        <ele>315.3</ele>
        <time>2026-08-09T12:15:19.000Z</time>
      </trkpt>
      <trkpt lat="45.87147" lon="1.44995">
        <ele>315.8</ele>
        <time>2026-08-09T12:15:24.000Z</time>
      </trkpt>
      <trkpt lat="45.87159" lon="1.45">
        <ele>316.7</ele>
        <time>2026-08-09T12:15:32.000Z</time>
      </trkpt>
      <trkpt lat="45.87161" lon="1.45001">
        <ele>316.8</ele>
        <time>2026-08-09T12:15:33.000Z</time>
      </trkpt>
      <trkpt lat="45.87171" lon="1.45005">
        <ele>317.2</ele>
        <time>2026-08-09T12:15:40.000Z</time>
      </trkpt>
      <trkpt lat="45.87181" lon="1.45011">
        <ele>317.6</ele>
        <time>2026-08-09T12:15:47.000Z</time>
      </trkpt>
      <trkpt lat="45.87186" lon="1.45014">
        <ele>317.8</ele>
        <time>2026-08-09T12:15:50.000Z</time>
      </trkpt>
      <trkpt lat="45.87201" lon="1.45022">
        <ele>318.9</ele>
        <time>2026-08-09T12:16:00.000Z</time>
      </trkpt>
      <trkpt lat="45.87206" lon="1.45024">
        <ele>319.2</ele>
        <time>2026-08-09T12:16:03.000Z</time>
      </trkpt>
      <trkpt lat="45.87211" lon="1.45027">
        <ele>319.5</ele>
        <time>2026-08-09T12:16:07.000Z</time>
      </trkpt>
      <trkpt lat="45.87212" lon="1.45027">
        <ele>319.6</ele>
        <time>2026-08-09T12:16:08.000Z</time>
      </trkpt>
      <trkpt lat="45.87224" lon="1.45032">
        <ele>320.2</ele>
        <time>2026-08-09T12:16:15.000Z</time>
      </trkpt>
      <trkpt lat="45.87225" lon="1.45033">
        <ele>320.4</ele>
        <time>2026-08-09T12:16:16.000Z</time>
      </trkpt>
      <trkpt lat="45.87239" lon="1.4504">
        <ele>321.4</ele>
        <time>2026-08-09T12:16:25.000Z</time>
      </trkpt>
      <trkpt lat="45.87243" lon="1.45042">
        <ele>321.6</ele>
        <time>2026-08-09T12:16:28.000Z</time>
      </trkpt>
      <trkpt lat="45.87256" lon="1.45049">
        <ele>322.4</ele>
        <time>2026-08-09T12:16:36.000Z</time>
      </trkpt>
      <trkpt lat="45.87267" lon="1.45054">
        <ele>323.2</ele>
        <time>2026-08-09T12:16:44.000Z</time>
      </trkpt>
      <trkpt lat="45.87268" lon="1.45055">
        <ele>323.3</ele>
        <time>2026-08-09T12:16:45.000Z</time>
      </trkpt>
      <trkpt lat="45.87279" lon="1.45058">
        <ele>324</ele>
        <time>2026-08-09T12:16:52.000Z</time>
      </trkpt>
      <trkpt lat="45.87282" lon="1.45059">
        <ele>324.2</ele>
        <time>2026-08-09T12:16:54.000Z</time>
      </trkpt>
      <trkpt lat="45.87291" lon="1.45059">
        <ele>324.5</ele>
        <time>2026-08-09T12:17:00.000Z</time>
      </trkpt>
      <trkpt lat="45.87295" lon="1.4506">
        <ele>324.7</ele>
        <time>2026-08-09T12:17:03.000Z</time>
      </trkpt>
      <trkpt lat="45.87298" lon="1.45059">
        <ele>324.8</ele>
        <time>2026-08-09T12:17:05.000Z</time>
      </trkpt>
      <trkpt lat="45.873" lon="1.45059">
        <ele>324.9</ele>
        <time>2026-08-09T12:17:06.000Z</time>
      </trkpt>
      <trkpt lat="45.87313" lon="1.45057">
        <ele>325.5</ele>
        <time>2026-08-09T12:17:14.000Z</time>
      </trkpt>
      <trkpt lat="45.87317" lon="1.45056">
        <ele>325.8</ele>
        <time>2026-08-09T12:17:17.000Z</time>
      </trkpt>
      <trkpt lat="45.87324" lon="1.45054">
        <ele>326.4</ele>
        <time>2026-08-09T12:17:22.000Z</time>
      </trkpt>
      <trkpt lat="45.87332" lon="1.4505">
        <ele>327.1</ele>
        <time>2026-08-09T12:17:27.000Z</time>
      </trkpt>
      <trkpt lat="45.87336" lon="1.45048">
        <ele>327.4</ele>
        <time>2026-08-09T12:17:30.000Z</time>
      </trkpt>
      <trkpt lat="45.87347" lon="1.45036">
        <ele>328.3</ele>
        <time>2026-08-09T12:17:38.000Z</time>
      </trkpt>
      <trkpt lat="45.87348" lon="1.45034">
        <ele>328.4</ele>
        <time>2026-08-09T12:17:39.000Z</time>
      </trkpt>
      <trkpt lat="45.87358" lon="1.45022">
        <ele>329.1</ele>
        <time>2026-08-09T12:17:48.000Z</time>
      </trkpt>
      <trkpt lat="45.87361" lon="1.45019">
        <ele>329.3</ele>
        <time>2026-08-09T12:17:50.000Z</time>
      </trkpt>
      <trkpt lat="45.87366" lon="1.4501">
        <ele>330.1</ele>
        <time>2026-08-09T12:17:55.000Z</time>
      </trkpt>
      <trkpt lat="45.87368" lon="1.45005">
        <ele>330.4</ele>
        <time>2026-08-09T12:17:57.000Z</time>
      </trkpt>
      <trkpt lat="45.87373" lon="1.44995">
        <ele>330.9</ele>
        <time>2026-08-09T12:18:02.000Z</time>
      </trkpt>
      <trkpt lat="45.87376" lon="1.44986">
        <ele>331</ele>
        <time>2026-08-09T12:18:06.000Z</time>
      </trkpt>
      <trkpt lat="45.87379" lon="1.4498">
        <ele>331.3</ele>
        <time>2026-08-09T12:18:09.000Z</time>
      </trkpt>
      <trkpt lat="45.87379" lon="1.44978">
        <ele>331.3</ele>
        <time>2026-08-09T12:18:10.000Z</time>
      </trkpt>
      <trkpt lat="45.87381" lon="1.44968">
        <ele>331.4</ele>
        <time>2026-08-09T12:18:15.000Z</time>
      </trkpt>
      <trkpt lat="45.87382" lon="1.44954">
        <ele>331.5</ele>
        <time>2026-08-09T12:18:22.000Z</time>
      </trkpt>
      <trkpt lat="45.87384" lon="1.44946">
        <ele>331.6</ele>
        <time>2026-08-09T12:19:14.000Z</time>
      </trkpt>
      <trkpt lat="45.87385" lon="1.44938">
        <ele>331.7</ele>
        <time>2026-08-09T12:19:17.000Z</time>
      </trkpt>
      <trkpt lat="45.87388" lon="1.44908">
        <ele>332.2</ele>
        <time>2026-08-09T12:19:25.000Z</time>
      </trkpt>
      <trkpt lat="45.87392" lon="1.44873">
        <ele>333.1</ele>
        <time>2026-08-09T12:19:34.000Z</time>
      </trkpt>
      <trkpt lat="45.87393" lon="1.44865">
        <ele>333.1</ele>
        <time>2026-08-09T12:19:36.000Z</time>
      </trkpt>
      <trkpt lat="45.87398" lon="1.44811">
        <ele>335</ele>
        <time>2026-08-09T12:19:50.000Z</time>
      </trkpt>
      <trkpt lat="45.87399" lon="1.44803">
        <ele>335.4</ele>
        <time>2026-08-09T12:19:52.000Z</time>
      </trkpt>
      <trkpt lat="45.87406" lon="1.44774">
        <ele>336.7</ele>
        <time>2026-08-09T12:20:00.000Z</time>
      </trkpt>
      <trkpt lat="45.8741" lon="1.44761">
        <ele>337.3</ele>
        <time>2026-08-09T12:20:04.000Z</time>
      </trkpt>
      <trkpt lat="45.87415" lon="1.44751">
        <ele>337.9</ele>
        <time>2026-08-09T12:20:07.000Z</time>
      </trkpt>
      <trkpt lat="45.8742" lon="1.44742">
        <ele>338.2</ele>
        <time>2026-08-09T12:20:10.000Z</time>
      </trkpt>
      <trkpt lat="45.87428" lon="1.4473">
        <ele>338.8</ele>
        <time>2026-08-09T12:20:15.000Z</time>
      </trkpt>
      <trkpt lat="45.87435" lon="1.4472">
        <ele>339.3</ele>
        <time>2026-08-09T12:20:19.000Z</time>
      </trkpt>
      <trkpt lat="45.87443" lon="1.44706">
        <ele>339.9</ele>
        <time>2026-08-09T12:20:24.000Z</time>
      </trkpt>
      <trkpt lat="45.87451" lon="1.44694">
        <ele>340.5</ele>
        <time>2026-08-09T12:20:29.000Z</time>
      </trkpt>
      <trkpt lat="45.87459" lon="1.44682">
        <ele>340.8</ele>
        <time>2026-08-09T12:20:34.000Z</time>
      </trkpt>
      <trkpt lat="45.8746" lon="1.44679">
        <ele>340.9</ele>
        <time>2026-08-09T12:20:35.000Z</time>
      </trkpt>
      <trkpt lat="45.8747" lon="1.44666">
        <ele>341.7</ele>
        <time>2026-08-09T12:20:41.000Z</time>
      </trkpt>
      <trkpt lat="45.87473" lon="1.44661">
        <ele>342</ele>
        <time>2026-08-09T12:20:43.000Z</time>
      </trkpt>
      <trkpt lat="45.87486" lon="1.4464">
        <ele>342.5</ele>
        <time>2026-08-09T12:20:52.000Z</time>
      </trkpt>
      <trkpt lat="45.87488" lon="1.44637">
        <ele>342.6</ele>
        <time>2026-08-09T12:20:53.000Z</time>
      </trkpt>
      <trkpt lat="45.87505" lon="1.44612">
        <ele>344.3</ele>
        <time>2026-08-09T12:21:04.000Z</time>
      </trkpt>
      <trkpt lat="45.87508" lon="1.44608">
        <ele>344.7</ele>
        <time>2026-08-09T12:21:06.000Z</time>
      </trkpt>
      <trkpt lat="45.87517" lon="1.44594">
        <ele>345.5</ele>
        <time>2026-08-09T12:21:12.000Z</time>
      </trkpt>
      <trkpt lat="45.8752" lon="1.44589">
        <ele>345.6</ele>
        <time>2026-08-09T12:21:14.000Z</time>
      </trkpt>
      <trkpt lat="45.87521" lon="1.44587">
        <ele>345.7</ele>
        <time>2026-08-09T12:21:15.000Z</time>
      </trkpt>
      <trkpt lat="45.87532" lon="1.44571">
        <ele>347.2</ele>
        <time>2026-08-09T12:21:22.000Z</time>
      </trkpt>
      <trkpt lat="45.87534" lon="1.44568">
        <ele>347.4</ele>
        <time>2026-08-09T12:21:23.000Z</time>
      </trkpt>
      <trkpt lat="45.87544" lon="1.44551">
        <ele>348.7</ele>
        <time>2026-08-09T12:21:30.000Z</time>
      </trkpt>
      <trkpt lat="45.87551" lon="1.44542">
        <ele>348.9</ele>
        <time>2026-08-09T12:21:34.000Z</time>
      </trkpt>
      <trkpt lat="45.87555" lon="1.44538">
        <ele>349</ele>
        <time>2026-08-09T12:21:36.000Z</time>
      </trkpt>
      <trkpt lat="45.87562" lon="1.44525">
        <ele>349.6</ele>
        <time>2026-08-09T12:21:41.000Z</time>
      </trkpt>
      <trkpt lat="45.87565" lon="1.4452">
        <ele>350.2</ele>
        <time>2026-08-09T12:21:43.000Z</time>
      </trkpt>
      <trkpt lat="45.87573" lon="1.44508">
        <ele>351.3</ele>
        <time>2026-08-09T12:21:48.000Z</time>
      </trkpt>
      <trkpt lat="45.87584" lon="1.44492">
        <ele>352</ele>
        <time>2026-08-09T12:21:54.000Z</time>
      </trkpt>
      <trkpt lat="45.876" lon="1.44468">
        <ele>351.9</ele>
        <time>2026-08-09T12:22:01.000Z</time>
      </trkpt>
      <trkpt lat="45.87602" lon="1.44464">
        <ele>351.7</ele>
        <time>2026-08-09T12:22:02.000Z</time>
      </trkpt>
      <trkpt lat="45.8761" lon="1.4445">
        <ele>351.2</ele>
        <time>2026-08-09T12:22:05.000Z</time>
      </trkpt>
      <trkpt lat="45.87616" lon="1.44439">
        <ele>350.8</ele>
        <time>2026-08-09T12:22:07.000Z</time>
      </trkpt>
      <trkpt lat="45.87634" lon="1.44399">
        <ele>349.4</ele>
        <time>2026-08-09T12:22:13.000Z</time>
      </trkpt>
      <trkpt lat="45.87648" lon="1.44359">
        <ele>347.9</ele>
        <time>2026-08-09T12:22:18.000Z</time>
      </trkpt>
      <trkpt lat="45.8766" lon="1.44313">
        <ele>346.8</ele>
        <time>2026-08-09T12:22:23.000Z</time>
      </trkpt>
      <trkpt lat="45.87663" lon="1.44294">
        <ele>346.9</ele>
        <time>2026-08-09T12:22:25.000Z</time>
      </trkpt>
      <trkpt lat="45.87666" lon="1.44268">
        <ele>347</ele>
        <time>2026-08-09T12:22:28.000Z</time>
      </trkpt>
      <trkpt lat="45.87668" lon="1.44244">
        <ele>347.1</ele>
        <time>2026-08-09T12:22:31.000Z</time>
      </trkpt>
      <trkpt lat="45.87668" lon="1.44196">
        <ele>347.2</ele>
        <time>2026-08-09T12:22:37.000Z</time>
      </trkpt>
      <trkpt lat="45.87658" lon="1.44136">
        <ele>345.5</ele>
        <time>2026-08-09T12:22:44.000Z</time>
      </trkpt>
      <trkpt lat="45.87657" lon="1.44127">
        <ele>345.3</ele>
        <time>2026-08-09T12:22:45.000Z</time>
      </trkpt>
      <trkpt lat="45.87657" lon="1.44117">
        <ele>345.3</ele>
        <time>2026-08-09T12:22:46.000Z</time>
      </trkpt>
      <trkpt lat="45.87659" lon="1.44098">
        <ele>344.6</ele>
        <time>2026-08-09T12:22:48.000Z</time>
      </trkpt>
      <trkpt lat="45.87664" lon="1.44079">
        <ele>343.5</ele>
        <time>2026-08-09T12:22:50.000Z</time>
      </trkpt>
      <trkpt lat="45.87673" lon="1.44062">
        <ele>342.9</ele>
        <time>2026-08-09T12:22:52.000Z</time>
      </trkpt>
      <trkpt lat="45.87679" lon="1.44054">
        <ele>342.7</ele>
        <time>2026-08-09T12:22:53.000Z</time>
      </trkpt>
      <trkpt lat="45.87715" lon="1.44011">
        <ele>340.9</ele>
        <time>2026-08-09T12:22:59.000Z</time>
      </trkpt>
      <trkpt lat="45.87727" lon="1.43994">
        <ele>339.8</ele>
        <time>2026-08-09T12:23:01.000Z</time>
      </trkpt>
      <trkpt lat="45.8773" lon="1.43984">
        <ele>339.3</ele>
        <time>2026-08-09T12:23:02.000Z</time>
      </trkpt>
      <trkpt lat="45.87732" lon="1.43973">
        <ele>338.5</ele>
        <time>2026-08-09T12:23:03.000Z</time>
      </trkpt>
      <trkpt lat="45.87733" lon="1.43949">
        <ele>338</ele>
        <time>2026-08-09T12:23:05.000Z</time>
      </trkpt>
      <trkpt lat="45.87731" lon="1.43938">
        <ele>337.8</ele>
        <time>2026-08-09T12:23:06.000Z</time>
      </trkpt>
      <trkpt lat="45.87728" lon="1.43927">
        <ele>337.6</ele>
        <time>2026-08-09T12:23:07.000Z</time>
      </trkpt>
      <trkpt lat="45.87724" lon="1.43917">
        <ele>337.3</ele>
        <time>2026-08-09T12:23:08.000Z</time>
      </trkpt>
      <trkpt lat="45.87719" lon="1.43907">
        <ele>337.2</ele>
        <time>2026-08-09T12:23:09.000Z</time>
      </trkpt>
      <trkpt lat="45.87713" lon="1.43899">
        <ele>337</ele>
        <time>2026-08-09T12:23:10.000Z</time>
      </trkpt>
      <trkpt lat="45.87706" lon="1.43891">
        <ele>336.5</ele>
        <time>2026-08-09T12:23:11.000Z</time>
      </trkpt>
      <trkpt lat="45.87694" lon="1.43878">
        <ele>335.3</ele>
        <time>2026-08-09T12:23:13.000Z</time>
      </trkpt>
      <trkpt lat="45.87676" lon="1.43857">
        <ele>334.2</ele>
        <time>2026-08-09T12:23:16.000Z</time>
      </trkpt>
      <trkpt lat="45.87665" lon="1.4384">
        <ele>333.6</ele>
        <time>2026-08-09T12:23:18.000Z</time>
      </trkpt>
      <trkpt lat="45.8766" lon="1.43831">
        <ele>333.3</ele>
        <time>2026-08-09T12:23:19.000Z</time>
      </trkpt>
      <trkpt lat="45.8764" lon="1.43794">
        <ele>331.5</ele>
        <time>2026-08-09T12:23:23.000Z</time>
      </trkpt>
      <trkpt lat="45.87624" lon="1.43766">
        <ele>330.2</ele>
        <time>2026-08-09T12:23:26.000Z</time>
      </trkpt>
      <trkpt lat="45.87603" lon="1.43729">
        <ele>328.4</ele>
        <time>2026-08-09T12:23:30.000Z</time>
      </trkpt>
      <trkpt lat="45.87594" lon="1.4371">
        <ele>327.6</ele>
        <time>2026-08-09T12:23:32.000Z</time>
      </trkpt>
      <trkpt lat="45.87591" lon="1.43699">
        <ele>327.3</ele>
        <time>2026-08-09T12:23:33.000Z</time>
      </trkpt>
      <trkpt lat="45.87589" lon="1.43688">
        <ele>327</ele>
        <time>2026-08-09T12:23:34.000Z</time>
      </trkpt>
      <trkpt lat="45.8759" lon="1.43677">
        <ele>326.6</ele>
        <time>2026-08-09T12:23:35.000Z</time>
      </trkpt>
      <trkpt lat="45.87591" lon="1.43666">
        <ele>326.3</ele>
        <time>2026-08-09T12:23:36.000Z</time>
      </trkpt>
      <trkpt lat="45.87594" lon="1.43657">
        <ele>326</ele>
        <time>2026-08-09T12:23:37.000Z</time>
      </trkpt>
      <trkpt lat="45.87599" lon="1.43648">
        <ele>325.9</ele>
        <time>2026-08-09T12:23:38.000Z</time>
      </trkpt>
      <trkpt lat="45.87605" lon="1.43641">
        <ele>325.8</ele>
        <time>2026-08-09T12:23:39.000Z</time>
      </trkpt>
      <trkpt lat="45.87611" lon="1.43634">
        <ele>325.6</ele>
        <time>2026-08-09T12:23:40.000Z</time>
      </trkpt>
      <trkpt lat="45.87636" lon="1.43604">
        <ele>324.1</ele>
        <time>2026-08-09T12:23:44.000Z</time>
      </trkpt>
      <trkpt lat="45.87647" lon="1.43585">
        <ele>322.8</ele>
        <time>2026-08-09T12:23:46.000Z</time>
      </trkpt>
      <trkpt lat="45.87658" lon="1.43552">
        <ele>321.9</ele>
        <time>2026-08-09T12:23:49.000Z</time>
      </trkpt>
      <trkpt lat="45.87661" lon="1.43541">
        <ele>321.4</ele>
        <time>2026-08-09T12:23:50.000Z</time>
      </trkpt>
      <trkpt lat="45.87666" lon="1.43518">
        <ele>320.6</ele>
        <time>2026-08-09T12:23:52.000Z</time>
      </trkpt>
      <trkpt lat="45.87675" lon="1.43471">
        <ele>318.5</ele>
        <time>2026-08-09T12:23:56.000Z</time>
      </trkpt>
      <trkpt lat="45.87681" lon="1.43437">
        <ele>316.4</ele>
        <time>2026-08-09T12:23:59.000Z</time>
      </trkpt>
      <trkpt lat="45.87682" lon="1.43413">
        <ele>315.1</ele>
        <time>2026-08-09T12:24:01.000Z</time>
      </trkpt>
      <trkpt lat="45.87682" lon="1.43402">
        <ele>315.1</ele>
        <time>2026-08-09T12:24:02.000Z</time>
      </trkpt>
      <trkpt lat="45.8768" lon="1.4339">
        <ele>315</ele>
        <time>2026-08-09T12:24:03.000Z</time>
      </trkpt>
      <trkpt lat="45.87677" lon="1.4338">
        <ele>314.7</ele>
        <time>2026-08-09T12:24:04.000Z</time>
      </trkpt>
      <trkpt lat="45.87673" lon="1.43369">
        <ele>314.4</ele>
        <time>2026-08-09T12:24:05.000Z</time>
      </trkpt>
      <trkpt lat="45.87668" lon="1.4336">
        <ele>314.1</ele>
        <time>2026-08-09T12:24:06.000Z</time>
      </trkpt>
      <trkpt lat="45.87663" lon="1.4335">
        <ele>313.7</ele>
        <time>2026-08-09T12:24:07.000Z</time>
      </trkpt>
      <trkpt lat="45.87647" lon="1.43322">
        <ele>312.8</ele>
        <time>2026-08-09T12:24:10.000Z</time>
      </trkpt>
      <trkpt lat="45.87631" lon="1.43294">
        <ele>311.9</ele>
        <time>2026-08-09T12:24:13.000Z</time>
      </trkpt>
      <trkpt lat="45.87627" lon="1.43283">
        <ele>311.2</ele>
        <time>2026-08-09T12:24:14.000Z</time>
      </trkpt>
      <trkpt lat="45.87624" lon="1.43272">
        <ele>310.8</ele>
        <time>2026-08-09T12:24:15.000Z</time>
      </trkpt>
      <trkpt lat="45.87621" lon="1.43247">
        <ele>310.3</ele>
        <time>2026-08-09T12:24:17.000Z</time>
      </trkpt>
      <trkpt lat="45.87625" lon="1.43223">
        <ele>309.5</ele>
        <time>2026-08-09T12:24:19.000Z</time>
      </trkpt>
      <trkpt lat="45.87628" lon="1.43212">
        <ele>309.1</ele>
        <time>2026-08-09T12:24:20.000Z</time>
      </trkpt>
      <trkpt lat="45.87632" lon="1.43201">
        <ele>308.8</ele>
        <time>2026-08-09T12:24:21.000Z</time>
      </trkpt>
      <trkpt lat="45.87645" lon="1.43173">
        <ele>307.8</ele>
        <time>2026-08-09T12:24:24.000Z</time>
      </trkpt>
      <trkpt lat="45.87649" lon="1.43164">
        <ele>307.5</ele>
        <time>2026-08-09T12:24:25.000Z</time>
      </trkpt>
      <trkpt lat="45.87665" lon="1.43129">
        <ele>307</ele>
        <time>2026-08-09T12:24:29.000Z</time>
      </trkpt>
      <trkpt lat="45.87672" lon="1.43112">
        <ele>307</ele>
        <time>2026-08-09T12:24:31.000Z</time>
      </trkpt>
      <trkpt lat="45.87676" lon="1.43104">
        <ele>307.3</ele>
        <time>2026-08-09T12:24:32.000Z</time>
      </trkpt>
      <trkpt lat="45.87682" lon="1.43087">
        <ele>307.5</ele>
        <time>2026-08-09T12:24:34.000Z</time>
      </trkpt>
      <trkpt lat="45.877" lon="1.43045">
        <ele>305.9</ele>
        <time>2026-08-09T12:24:39.000Z</time>
      </trkpt>
      <trkpt lat="45.87704" lon="1.43036">
        <ele>305.7</ele>
        <time>2026-08-09T12:24:40.000Z</time>
      </trkpt>
      <trkpt lat="45.8772" lon="1.43001">
        <ele>303</ele>
        <time>2026-08-09T12:24:44.000Z</time>
      </trkpt>
      <trkpt lat="45.87724" lon="1.42992">
        <ele>302.6</ele>
        <time>2026-08-09T12:24:45.000Z</time>
      </trkpt>
      <trkpt lat="45.8773" lon="1.42984">
        <ele>302.2</ele>
        <time>2026-08-09T12:24:46.000Z</time>
      </trkpt>
      <trkpt lat="45.87735" lon="1.42975">
        <ele>301.7</ele>
        <time>2026-08-09T12:24:47.000Z</time>
      </trkpt>
      <trkpt lat="45.87753" lon="1.42952">
        <ele>300.6</ele>
        <time>2026-08-09T12:24:50.000Z</time>
      </trkpt>
      <trkpt lat="45.87771" lon="1.42931">
        <ele>299</ele>
        <time>2026-08-09T12:24:53.000Z</time>
      </trkpt>
      <trkpt lat="45.87783" lon="1.42916">
        <ele>298.2</ele>
        <time>2026-08-09T12:24:55.000Z</time>
      </trkpt>
      <trkpt lat="45.87801" lon="1.42895">
        <ele>296.6</ele>
        <time>2026-08-09T12:24:58.000Z</time>
      </trkpt>
      <trkpt lat="45.87806" lon="1.42888">
        <ele>296</ele>
        <time>2026-08-09T12:24:59.000Z</time>
      </trkpt>
      <trkpt lat="45.87812" lon="1.4288">
        <ele>295.8</ele>
        <time>2026-08-09T12:25:00.000Z</time>
      </trkpt>
      <trkpt lat="45.87823" lon="1.42866">
        <ele>294.8</ele>
        <time>2026-08-09T12:25:02.000Z</time>
      </trkpt>
      <trkpt lat="45.87829" lon="1.4286">
        <ele>294.1</ele>
        <time>2026-08-09T12:25:03.000Z</time>
      </trkpt>
      <trkpt lat="45.87835" lon="1.42854">
        <ele>293.7</ele>
        <time>2026-08-09T12:25:04.000Z</time>
      </trkpt>
      <trkpt lat="45.87841" lon="1.42849">
        <ele>293.3</ele>
        <time>2026-08-09T12:25:05.000Z</time>
      </trkpt>
      <trkpt lat="45.87848" lon="1.42845">
        <ele>292.8</ele>
        <time>2026-08-09T12:25:06.000Z</time>
      </trkpt>
      <trkpt lat="45.87855" lon="1.42841">
        <ele>292.1</ele>
        <time>2026-08-09T12:25:07.000Z</time>
      </trkpt>
      <trkpt lat="45.87862" lon="1.42837">
        <ele>291.4</ele>
        <time>2026-08-09T12:25:08.000Z</time>
      </trkpt>
      <trkpt lat="45.87878" lon="1.42832">
        <ele>290.2</ele>
        <time>2026-08-09T12:25:10.000Z</time>
      </trkpt>
      <trkpt lat="45.87894" lon="1.42827">
        <ele>288.9</ele>
        <time>2026-08-09T12:25:12.000Z</time>
      </trkpt>
      <trkpt lat="45.87911" lon="1.42823">
        <ele>287.5</ele>
        <time>2026-08-09T12:25:14.000Z</time>
      </trkpt>
      <trkpt lat="45.87936" lon="1.42817">
        <ele>285.6</ele>
        <time>2026-08-09T12:25:17.000Z</time>
      </trkpt>
      <trkpt lat="45.87944" lon="1.42815">
        <ele>285.3</ele>
        <time>2026-08-09T12:25:18.000Z</time>
      </trkpt>
      <trkpt lat="45.87968" lon="1.42803">
        <ele>284.8</ele>
        <time>2026-08-09T12:25:21.000Z</time>
      </trkpt>
      <trkpt lat="45.87976" lon="1.42798">
        <ele>284.6</ele>
        <time>2026-08-09T12:25:22.000Z</time>
      </trkpt>
      <trkpt lat="45.87991" lon="1.42787">
        <ele>285</ele>
        <time>2026-08-09T12:25:24.000Z</time>
      </trkpt>
      <trkpt lat="45.8801" lon="1.42771">
        <ele>286.7</ele>
        <time>2026-08-09T12:25:27.000Z</time>
      </trkpt>
      <trkpt lat="45.88015" lon="1.42766">
        <ele>286.8</ele>
        <time>2026-08-09T12:25:28.000Z</time>
      </trkpt>
      <trkpt lat="45.88025" lon="1.42754">
        <ele>286.3</ele>
        <time>2026-08-09T12:25:30.000Z</time>
      </trkpt>
      <trkpt lat="45.8803" lon="1.42748">
        <ele>286.2</ele>
        <time>2026-08-09T12:25:31.000Z</time>
      </trkpt>
      <trkpt lat="45.88046" lon="1.42724">
        <ele>287.3</ele>
        <time>2026-08-09T12:25:35.000Z</time>
      </trkpt>
      <trkpt lat="45.88048" lon="1.42718">
        <ele>287.3</ele>
        <time>2026-08-09T12:25:36.000Z</time>
      </trkpt>
      <trkpt lat="45.88058" lon="1.42695">
        <ele>287.8</ele>
        <time>2026-08-09T12:25:41.000Z</time>
      </trkpt>
      <trkpt lat="45.88066" lon="1.42673">
        <ele>288.4</ele>
        <time>2026-08-09T12:25:47.000Z</time>
      </trkpt>
      <trkpt lat="45.88074" lon="1.42658">
        <ele>290</ele>
        <time>2026-08-09T12:25:52.000Z</time>
      </trkpt>
      <trkpt lat="45.88084" lon="1.42631">
        <ele>290.6</ele>
        <time>2026-08-09T12:26:01.000Z</time>
      </trkpt>
      <trkpt lat="45.88088" lon="1.42623">
        <ele>290.5</ele>
        <time>2026-08-09T12:26:04.000Z</time>
      </trkpt>
      <trkpt lat="45.88093" lon="1.42613">
        <ele>290.8</ele>
        <time>2026-08-09T12:26:08.000Z</time>
      </trkpt>
      <trkpt lat="45.88095" lon="1.42604">
        <ele>291</ele>
        <time>2026-08-09T12:26:11.000Z</time>
      </trkpt>
      <trkpt lat="45.88098" lon="1.42598">
        <ele>291.4</ele>
        <time>2026-08-09T12:26:13.000Z</time>
      </trkpt>
      <trkpt lat="45.88099" lon="1.42595">
        <ele>291.5</ele>
        <time>2026-08-09T12:26:14.000Z</time>
      </trkpt>
      <trkpt lat="45.88111" lon="1.42569">
        <ele>293</ele>
        <time>2026-08-09T12:26:23.000Z</time>
      </trkpt>
      <trkpt lat="45.88123" lon="1.42542">
        <ele>293.6</ele>
        <time>2026-08-09T12:26:32.000Z</time>
      </trkpt>
      <trkpt lat="45.88125" lon="1.42537">
        <ele>293.7</ele>
        <time>2026-08-09T12:26:34.000Z</time>
      </trkpt>
      <trkpt lat="45.88138" lon="1.42511">
        <ele>294.8</ele>
        <time>2026-08-09T12:26:44.000Z</time>
      </trkpt>
      <trkpt lat="45.88149" lon="1.42492">
        <ele>296</ele>
        <time>2026-08-09T12:26:54.000Z</time>
      </trkpt>
      <trkpt lat="45.88158" lon="1.4248">
        <ele>296.5</ele>
        <time>2026-08-09T12:27:01.000Z</time>
      </trkpt>
      <trkpt lat="45.88162" lon="1.42475">
        <ele>296.7</ele>
        <time>2026-08-09T12:27:04.000Z</time>
      </trkpt>
      <trkpt lat="45.8817" lon="1.42464">
        <ele>298.1</ele>
        <time>2026-08-09T12:27:11.000Z</time>
      </trkpt>
      <trkpt lat="45.88172" lon="1.42462">
        <ele>298.3</ele>
        <time>2026-08-09T12:27:12.000Z</time>
      </trkpt>
      <trkpt lat="45.88185" lon="1.42447">
        <ele>300.3</ele>
        <time>2026-08-09T12:27:22.000Z</time>
      </trkpt>
      <trkpt lat="45.88193" lon="1.42439">
        <ele>300.9</ele>
        <time>2026-08-09T12:27:27.000Z</time>
      </trkpt>
      <trkpt lat="45.88197" lon="1.42436">
        <ele>301.1</ele>
        <time>2026-08-09T12:27:30.000Z</time>
      </trkpt>
      <trkpt lat="45.88212" lon="1.42425">
        <ele>301</ele>
        <time>2026-08-09T12:27:39.000Z</time>
      </trkpt>
      <trkpt lat="45.88214" lon="1.42424">
        <ele>300.9</ele>
        <time>2026-08-09T12:27:40.000Z</time>
      </trkpt>
      <trkpt lat="45.88226" lon="1.42417">
        <ele>300.5</ele>
        <time>2026-08-09T12:27:47.000Z</time>
      </trkpt>
      <trkpt lat="45.88233" lon="1.42414">
        <ele>301.2</ele>
        <time>2026-08-09T12:27:50.000Z</time>
      </trkpt>
      <trkpt lat="45.88238" lon="1.42411">
        <ele>301.6</ele>
        <time>2026-08-09T12:27:52.000Z</time>
      </trkpt>
      <trkpt lat="45.88249" lon="1.42404">
        <ele>302</ele>
        <time>2026-08-09T12:27:56.000Z</time>
      </trkpt>
      <trkpt lat="45.88279" lon="1.42387">
        <ele>299.8</ele>
        <time>2026-08-09T12:28:05.000Z</time>
      </trkpt>
      <trkpt lat="45.88319" lon="1.42364">
        <ele>299</ele>
        <time>2026-08-09T12:28:15.000Z</time>
      </trkpt>
      <trkpt lat="45.88349" lon="1.42345">
        <ele>299.3</ele>
        <time>2026-08-09T12:28:23.000Z</time>
      </trkpt>
      <trkpt lat="45.88368" lon="1.42325">
        <ele>301.4</ele>
        <time>2026-08-09T12:28:30.000Z</time>
      </trkpt>
      <trkpt lat="45.88375" lon="1.42314">
        <ele>301.8</ele>
        <time>2026-08-09T12:28:33.000Z</time>
      </trkpt>
      <trkpt lat="45.88385" lon="1.42296">
        <ele>302.4</ele>
        <time>2026-08-09T12:28:38.000Z</time>
      </trkpt>
      <trkpt lat="45.88396" lon="1.4228">
        <ele>302.8</ele>
        <time>2026-08-09T12:28:43.000Z</time>
      </trkpt>
      <trkpt lat="45.884" lon="1.42274">
        <ele>303</ele>
        <time>2026-08-09T12:28:45.000Z</time>
      </trkpt>
      <trkpt lat="45.88406" lon="1.42264">
        <ele>303.2</ele>
        <time>2026-08-09T12:28:48.000Z</time>
      </trkpt>
      <trkpt lat="45.8842" lon="1.42241">
        <ele>303.1</ele>
        <time>2026-08-09T12:28:54.000Z</time>
      </trkpt>
      <trkpt lat="45.88425" lon="1.42232">
        <ele>303.4</ele>
        <time>2026-08-09T12:28:56.000Z</time>
      </trkpt>
      <trkpt lat="45.88441" lon="1.4221">
        <ele>303</ele>
        <time>2026-08-09T12:29:01.000Z</time>
      </trkpt>
      <trkpt lat="45.88472" lon="1.42178">
        <ele>300.7</ele>
        <time>2026-08-09T12:29:08.000Z</time>
      </trkpt>
      <trkpt lat="45.88493" lon="1.42158">
        <ele>298.5</ele>
        <time>2026-08-09T12:29:12.000Z</time>
      </trkpt>
      <trkpt lat="45.88505" lon="1.42147">
        <ele>298.1</ele>
        <time>2026-08-09T12:29:14.000Z</time>
      </trkpt>
      <trkpt lat="45.88522" lon="1.4213">
        <ele>296.7</ele>
        <time>2026-08-09T12:29:17.000Z</time>
      </trkpt>
      <trkpt lat="45.88526" lon="1.42123">
        <ele>296.2</ele>
        <time>2026-08-09T12:29:18.000Z</time>
      </trkpt>
      <trkpt lat="45.8853" lon="1.42115">
        <ele>295.5</ele>
        <time>2026-08-09T12:29:19.000Z</time>
      </trkpt>
      <trkpt lat="45.88532" lon="1.42106">
        <ele>295</ele>
        <time>2026-08-09T12:29:20.000Z</time>
      </trkpt>
      <trkpt lat="45.88536" lon="1.42085">
        <ele>294.5</ele>
        <time>2026-08-09T12:29:22.000Z</time>
      </trkpt>
      <trkpt lat="45.8854" lon="1.42027">
        <ele>294.7</ele>
        <time>2026-08-09T12:29:27.000Z</time>
      </trkpt>
      <trkpt lat="45.88544" lon="1.42005">
        <ele>294.5</ele>
        <time>2026-08-09T12:29:29.000Z</time>
      </trkpt>
      <trkpt lat="45.88549" lon="1.41983">
        <ele>293.4</ele>
        <time>2026-08-09T12:29:31.000Z</time>
      </trkpt>
      <trkpt lat="45.88557" lon="1.41964">
        <ele>292.5</ele>
        <time>2026-08-09T12:29:33.000Z</time>
      </trkpt>
      <trkpt lat="45.88562" lon="1.41954">
        <ele>292.4</ele>
        <time>2026-08-09T12:29:34.000Z</time>
      </trkpt>
      <trkpt lat="45.88579" lon="1.41929">
        <ele>291.2</ele>
        <time>2026-08-09T12:29:37.000Z</time>
      </trkpt>
      <trkpt lat="45.88597" lon="1.41906">
        <ele>289.4</ele>
        <time>2026-08-09T12:29:40.000Z</time>
      </trkpt>
      <trkpt lat="45.88604" lon="1.41898">
        <ele>288.8</ele>
        <time>2026-08-09T12:29:41.000Z</time>
      </trkpt>
      <trkpt lat="45.88637" lon="1.41857">
        <ele>287.3</ele>
        <time>2026-08-09T12:29:46.000Z</time>
      </trkpt>
      <trkpt lat="45.88656" lon="1.41834">
        <ele>286.9</ele>
        <time>2026-08-09T12:29:49.000Z</time>
      </trkpt>
      <trkpt lat="45.8868" lon="1.41806">
        <ele>285.5</ele>
        <time>2026-08-09T12:29:53.000Z</time>
      </trkpt>
      <trkpt lat="45.88686" lon="1.41799">
        <ele>285.2</ele>
        <time>2026-08-09T12:29:54.000Z</time>
      </trkpt>
      <trkpt lat="45.88692" lon="1.41791">
        <ele>285.2</ele>
        <time>2026-08-09T12:29:55.000Z</time>
      </trkpt>
      <trkpt lat="45.88696" lon="1.41783">
        <ele>285.4</ele>
        <time>2026-08-09T12:29:56.000Z</time>
      </trkpt>
      <trkpt lat="45.88702" lon="1.41765">
        <ele>285.8</ele>
        <time>2026-08-09T12:29:58.000Z</time>
      </trkpt>
      <trkpt lat="45.88704" lon="1.41756">
        <ele>286</ele>
        <time>2026-08-09T12:29:59.000Z</time>
      </trkpt>
      <trkpt lat="45.88705" lon="1.41739">
        <ele>286.7</ele>
        <time>2026-08-09T12:30:01.000Z</time>
      </trkpt>
      <trkpt lat="45.88705" lon="1.41732">
        <ele>287.1</ele>
        <time>2026-08-09T12:30:02.000Z</time>
      </trkpt>
      <trkpt lat="45.88704" lon="1.41724">
        <ele>287.3</ele>
        <time>2026-08-09T12:30:03.000Z</time>
      </trkpt>
      <trkpt lat="45.88701" lon="1.4171">
        <ele>287.4</ele>
        <time>2026-08-09T12:30:05.000Z</time>
      </trkpt>
      <trkpt lat="45.88695" lon="1.41694">
        <ele>287.2</ele>
        <time>2026-08-09T12:30:08.000Z</time>
      </trkpt>
      <trkpt lat="45.88686" lon="1.41666">
        <ele>287.4</ele>
        <time>2026-08-09T12:30:14.000Z</time>
      </trkpt>
      <trkpt lat="45.88678" lon="1.41645">
        <ele>289.6</ele>
        <time>2026-08-09T12:30:20.000Z</time>
      </trkpt>
      <trkpt lat="45.88674" lon="1.41633">
        <ele>290.2</ele>
        <time>2026-08-09T12:30:24.000Z</time>
      </trkpt>
      <trkpt lat="45.88668" lon="1.41619">
        <ele>290.5</ele>
        <time>2026-08-09T12:30:29.000Z</time>
      </trkpt>
      <trkpt lat="45.88662" lon="1.41604">
        <ele>291.7</ele>
        <time>2026-08-09T12:30:35.000Z</time>
      </trkpt>
      <trkpt lat="45.88661" lon="1.41601">
        <ele>292</ele>
        <time>2026-08-09T12:30:36.000Z</time>
      </trkpt>
      <trkpt lat="45.88652" lon="1.41578">
        <ele>293.2</ele>
        <time>2026-08-09T12:30:44.000Z</time>
      </trkpt>
      <trkpt lat="45.88649" lon="1.41569">
        <ele>292.8</ele>
        <time>2026-08-09T12:30:47.000Z</time>
      </trkpt>
      <trkpt lat="45.88646" lon="1.4156">
        <ele>292.6</ele>
        <time>2026-08-09T12:30:50.000Z</time>
      </trkpt>
      <trkpt lat="45.88634" lon="1.41529">
        <ele>291.8</ele>
        <time>2026-08-09T12:30:58.000Z</time>
      </trkpt>
      <trkpt lat="45.8863" lon="1.41518">
        <ele>291.3</ele>
        <time>2026-08-09T12:31:00.000Z</time>
      </trkpt>
      <trkpt lat="45.88625" lon="1.41497">
        <ele>290.4</ele>
        <time>2026-08-09T12:31:03.000Z</time>
      </trkpt>
      <trkpt lat="45.8862" lon="1.41473">
        <ele>288.4</ele>
        <time>2026-08-09T12:31:06.000Z</time>
      </trkpt>
      <trkpt lat="45.88616" lon="1.41449">
        <ele>287.5</ele>
        <time>2026-08-09T12:31:09.000Z</time>
      </trkpt>
      <trkpt lat="45.88608" lon="1.41391">
        <ele>286.2</ele>
        <time>2026-08-09T12:31:16.000Z</time>
      </trkpt>
      <trkpt lat="45.88608" lon="1.41382">
        <ele>286.2</ele>
        <time>2026-08-09T12:31:17.000Z</time>
      </trkpt>
      <trkpt lat="45.8861" lon="1.41317">
        <ele>287.1</ele>
        <time>2026-08-09T12:31:25.000Z</time>
      </trkpt>
      <trkpt lat="45.88616" lon="1.41277">
        <ele>287.9</ele>
        <time>2026-08-09T12:31:31.000Z</time>
      </trkpt>
      <trkpt lat="45.88632" lon="1.41225">
        <ele>287.4</ele>
        <time>2026-08-09T12:31:39.000Z</time>
      </trkpt>
      <trkpt lat="45.88636" lon="1.41211">
        <ele>286.7</ele>
        <time>2026-08-09T12:31:41.000Z</time>
      </trkpt>
      <trkpt lat="45.8864" lon="1.41197">
        <ele>286.3</ele>
        <time>2026-08-09T12:31:43.000Z</time>
      </trkpt>
      <trkpt lat="45.88642" lon="1.41183">
        <ele>285.5</ele>
        <time>2026-08-09T12:31:45.000Z</time>
      </trkpt>
      <trkpt lat="45.88642" lon="1.4116">
        <ele>285.5</ele>
        <time>2026-08-09T12:31:48.000Z</time>
      </trkpt>
      <trkpt lat="45.88639" lon="1.41146">
        <ele>287</ele>
        <time>2026-08-09T12:31:50.000Z</time>
      </trkpt>
      <trkpt lat="45.88628" lon="1.41102">
        <ele>287.8</ele>
        <time>2026-08-09T12:31:57.000Z</time>
      </trkpt>
      <trkpt lat="45.88622" lon="1.41077">
        <ele>287.5</ele>
        <time>2026-08-09T12:32:01.000Z</time>
      </trkpt>
      <trkpt lat="45.88619" lon="1.41063">
        <ele>287.6</ele>
        <time>2026-08-09T12:32:03.000Z</time>
      </trkpt>
      <trkpt lat="45.88618" lon="1.41057">
        <ele>287.8</ele>
        <time>2026-08-09T12:32:04.000Z</time>
      </trkpt>
      <trkpt lat="45.88615" lon="1.41039">
        <ele>287.3</ele>
        <time>2026-08-09T12:32:07.000Z</time>
      </trkpt>
      <trkpt lat="45.88614" lon="1.41028">
        <ele>286.9</ele>
        <time>2026-08-09T12:32:09.000Z</time>
      </trkpt>
      <trkpt lat="45.88613" lon="1.41011">
        <ele>285.9</ele>
        <time>2026-08-09T12:32:12.000Z</time>
      </trkpt>
      <trkpt lat="45.88612" lon="1.40994">
        <ele>285.1</ele>
        <time>2026-08-09T12:32:14.000Z</time>
      </trkpt>
      <trkpt lat="45.88611" lon="1.40947">
        <ele>284.6</ele>
        <time>2026-08-09T12:32:19.000Z</time>
      </trkpt>
      <trkpt lat="45.88609" lon="1.40937">
        <ele>284</ele>
        <time>2026-08-09T12:32:20.000Z</time>
      </trkpt>
      <trkpt lat="45.88604" lon="1.40888">
        <ele>283.1</ele>
        <time>2026-08-09T12:32:25.000Z</time>
      </trkpt>
      <trkpt lat="45.88603" lon="1.40846">
        <ele>281.5</ele>
        <time>2026-08-09T12:32:29.000Z</time>
      </trkpt>
      <trkpt lat="45.88604" lon="1.40814">
        <ele>279.5</ele>
        <time>2026-08-09T12:32:32.000Z</time>
      </trkpt>
      <trkpt lat="45.88604" lon="1.40803">
        <ele>278.8</ele>
        <time>2026-08-09T12:32:33.000Z</time>
      </trkpt>
      <trkpt lat="45.88601" lon="1.40767">
        <ele>276.9</ele>
        <time>2026-08-09T12:32:36.000Z</time>
      </trkpt>
      <trkpt lat="45.88601" lon="1.40732">
        <ele>275.3</ele>
        <time>2026-08-09T12:32:39.000Z</time>
      </trkpt>
      <trkpt lat="45.88602" lon="1.40709">
        <ele>274.7</ele>
        <time>2026-08-09T12:32:41.000Z</time>
      </trkpt>
      <trkpt lat="45.88604" lon="1.40675">
        <ele>272.9</ele>
        <time>2026-08-09T12:32:44.000Z</time>
      </trkpt>
      <trkpt lat="45.88609" lon="1.40641">
        <ele>272.4</ele>
        <time>2026-08-09T12:32:47.000Z</time>
      </trkpt>
      <trkpt lat="45.88612" lon="1.40631">
        <ele>272.3</ele>
        <time>2026-08-09T12:32:48.000Z</time>
      </trkpt>
      <trkpt lat="45.8862" lon="1.4061">
        <ele>271.4</ele>
        <time>2026-08-09T12:32:50.000Z</time>
      </trkpt>
      <trkpt lat="45.88624" lon="1.406">
        <ele>270.4</ele>
        <time>2026-08-09T12:32:51.000Z</time>
      </trkpt>
      <trkpt lat="45.88635" lon="1.40582">
        <ele>269.1</ele>
        <time>2026-08-09T12:32:53.000Z</time>
      </trkpt>
      <trkpt lat="45.88655" lon="1.40544">
        <ele>268</ele>
        <time>2026-08-09T12:32:57.000Z</time>
      </trkpt>
      <trkpt lat="45.88671" lon="1.40515">
        <ele>266.9</ele>
        <time>2026-08-09T12:33:00.000Z</time>
      </trkpt>
      <trkpt lat="45.88687" lon="1.40488">
        <ele>265.3</ele>
        <time>2026-08-09T12:33:03.000Z</time>
      </trkpt>
      <trkpt lat="45.88693" lon="1.40479">
        <ele>264.7</ele>
        <time>2026-08-09T12:33:04.000Z</time>
      </trkpt>
      <trkpt lat="45.88705" lon="1.40464">
        <ele>263.6</ele>
        <time>2026-08-09T12:33:06.000Z</time>
      </trkpt>
      <trkpt lat="45.88711" lon="1.40457">
        <ele>263.3</ele>
        <time>2026-08-09T12:33:07.000Z</time>
      </trkpt>
      <trkpt lat="45.88718" lon="1.40452">
        <ele>263.3</ele>
        <time>2026-08-09T12:33:08.000Z</time>
      </trkpt>
      <trkpt lat="45.88742" lon="1.40432">
        <ele>262.1</ele>
        <time>2026-08-09T12:33:12.000Z</time>
      </trkpt>
      <trkpt lat="45.88747" lon="1.40428">
        <ele>261.8</ele>
        <time>2026-08-09T12:33:13.000Z</time>
      </trkpt>
      <trkpt lat="45.88764" lon="1.40418">
        <ele>260.1</ele>
        <time>2026-08-09T12:33:16.000Z</time>
      </trkpt>
      <trkpt lat="45.88776" lon="1.40416">
        <ele>259.1</ele>
        <time>2026-08-09T12:33:18.000Z</time>
      </trkpt>
      <trkpt lat="45.88781" lon="1.40416">
        <ele>258.6</ele>
        <time>2026-08-09T12:33:19.000Z</time>
      </trkpt>
      <trkpt lat="45.8879" lon="1.40419">
        <ele>257.7</ele>
        <time>2026-08-09T12:33:21.000Z</time>
      </trkpt>
      <trkpt lat="45.88793" lon="1.40418">
        <ele>257.1</ele>
        <time>2026-08-09T12:33:22.000Z</time>
      </trkpt>
      <trkpt lat="45.88795" lon="1.40416">
        <ele>256.4</ele>
        <time>2026-08-09T12:33:23.000Z</time>
      </trkpt>
      <trkpt lat="45.88797" lon="1.40408">
        <ele>255.5</ele>
        <time>2026-08-09T12:33:25.000Z</time>
      </trkpt>
      <trkpt lat="45.88792" lon="1.4039">
        <ele>254.5</ele>
        <time>2026-08-09T12:33:29.000Z</time>
      </trkpt>
      <trkpt lat="45.88789" lon="1.40385">
        <ele>254.1</ele>
        <time>2026-08-09T12:33:30.000Z</time>
      </trkpt>
      <trkpt lat="45.8878" lon="1.40378">
        <ele>254.2</ele>
        <time>2026-08-09T12:33:32.000Z</time>
      </trkpt>
      <trkpt lat="45.88771" lon="1.40372">
        <ele>253.6</ele>
        <time>2026-08-09T12:33:34.000Z</time>
      </trkpt>
      <trkpt lat="45.88763" lon="1.40367">
        <ele>252.8</ele>
        <time>2026-08-09T12:33:36.000Z</time>
      </trkpt>
      <trkpt lat="45.88749" lon="1.40358">
        <ele>251.4</ele>
        <time>2026-08-09T12:33:39.000Z</time>
      </trkpt>
      <trkpt lat="45.88737" lon="1.40344">
        <ele>249.7</ele>
        <time>2026-08-09T12:33:42.000Z</time>
      </trkpt>
      <trkpt lat="45.88729" lon="1.40335">
        <ele>247.9</ele>
        <time>2026-08-09T12:33:44.000Z</time>
      </trkpt>
      <trkpt lat="45.88724" lon="1.40329">
        <ele>247.1</ele>
        <time>2026-08-09T12:33:45.000Z</time>
      </trkpt>
      <trkpt lat="45.8872" lon="1.40324">
        <ele>246.6</ele>
        <time>2026-08-09T12:33:46.000Z</time>
      </trkpt>
      <trkpt lat="45.88717" lon="1.40319">
        <ele>246</ele>
        <time>2026-08-09T12:33:47.000Z</time>
      </trkpt>
      <trkpt lat="45.88714" lon="1.40314">
        <ele>245.5</ele>
        <time>2026-08-09T12:33:48.000Z</time>
      </trkpt>
      <trkpt lat="45.88707" lon="1.40304">
        <ele>244.4</ele>
        <time>2026-08-09T12:33:50.000Z</time>
      </trkpt>
      <trkpt lat="45.88703" lon="1.40299">
        <ele>244.1</ele>
        <time>2026-08-09T12:33:51.000Z</time>
      </trkpt>
      <trkpt lat="45.88695" lon="1.40292">
        <ele>243.5</ele>
        <time>2026-08-09T12:33:53.000Z</time>
      </trkpt>
      <trkpt lat="45.88687" lon="1.40286">
        <ele>242.1</ele>
        <time>2026-08-09T12:33:55.000Z</time>
      </trkpt>
      <trkpt lat="45.88682" lon="1.40282">
        <ele>241.3</ele>
        <time>2026-08-09T12:33:56.000Z</time>
      </trkpt>
      <trkpt lat="45.88672" lon="1.40277">
        <ele>240.3</ele>
        <time>2026-08-09T12:33:58.000Z</time>
      </trkpt>
      <trkpt lat="45.88659" lon="1.40268">
        <ele>240</ele>
        <time>2026-08-09T12:34:01.000Z</time>
      </trkpt>
      <trkpt lat="45.88655" lon="1.40264">
        <ele>239.8</ele>
        <time>2026-08-09T12:34:02.000Z</time>
      </trkpt>
      <trkpt lat="45.88646" lon="1.40257">
        <ele>239.5</ele>
        <time>2026-08-09T12:34:04.000Z</time>
      </trkpt>
      <trkpt lat="45.88636" lon="1.40246">
        <ele>239</ele>
        <time>2026-08-09T12:34:07.000Z</time>
      </trkpt>
      <trkpt lat="45.88632" lon="1.40244">
        <ele>238.9</ele>
        <time>2026-08-09T12:34:08.000Z</time>
      </trkpt>
      <trkpt lat="45.88628" lon="1.40242">
        <ele>238.8</ele>
        <time>2026-08-09T12:34:09.000Z</time>
      </trkpt>
      <trkpt lat="45.88622" lon="1.40233">
        <ele>238.7</ele>
        <time>2026-08-09T12:34:11.000Z</time>
      </trkpt>
      <trkpt lat="45.88624" lon="1.40216">
        <ele>239.1</ele>
        <time>2026-08-09T12:34:14.000Z</time>
      </trkpt>
      <trkpt lat="45.88625" lon="1.40211">
        <ele>239.2</ele>
        <time>2026-08-09T12:34:15.000Z</time>
      </trkpt>
      <trkpt lat="45.88627" lon="1.40197">
        <ele>239.6</ele>
        <time>2026-08-09T12:34:18.000Z</time>
      </trkpt>
      <trkpt lat="45.88627" lon="1.40189">
        <ele>239.9</ele>
        <time>2026-08-09T12:34:20.000Z</time>
      </trkpt>
      <trkpt lat="45.88629" lon="1.40164">
        <ele>240.9</ele>
        <time>2026-08-09T12:34:26.000Z</time>
      </trkpt>
      <trkpt lat="45.88632" lon="1.40142">
        <ele>241.2</ele>
        <time>2026-08-09T12:34:32.000Z</time>
      </trkpt>
      <trkpt lat="45.88633" lon="1.40119">
        <ele>241.2</ele>
        <time>2026-08-09T12:34:38.000Z</time>
      </trkpt>
      <trkpt lat="45.88636" lon="1.40088">
        <ele>241.6</ele>
        <time>2026-08-09T12:34:46.000Z</time>
      </trkpt>
      <trkpt lat="45.88637" lon="1.4008">
        <ele>241.9</ele>
        <time>2026-08-09T12:34:48.000Z</time>
      </trkpt>
      <trkpt lat="45.88641" lon="1.40042">
        <ele>243.4</ele>
        <time>2026-08-09T12:34:58.000Z</time>
      </trkpt>
      <trkpt lat="45.88642" lon="1.40034">
        <ele>243.5</ele>
        <time>2026-08-09T12:35:00.000Z</time>
      </trkpt>
      <trkpt lat="45.88644" lon="1.40001">
        <ele>243.9</ele>
        <time>2026-08-09T12:35:09.000Z</time>
      </trkpt>
      <trkpt lat="45.88645" lon="1.39992">
        <ele>244.4</ele>
        <time>2026-08-09T12:35:12.000Z</time>
      </trkpt>
      <trkpt lat="45.88646" lon="1.39988">
        <ele>244.5</ele>
        <time>2026-08-09T12:35:13.000Z</time>
      </trkpt>
      <trkpt lat="45.88646" lon="1.39984">
        <ele>244.6</ele>
        <time>2026-08-09T12:35:14.000Z</time>
      </trkpt>
      <trkpt lat="45.88648" lon="1.39962">
        <ele>245.6</ele>
        <time>2026-08-09T12:35:21.000Z</time>
      </trkpt>
      <trkpt lat="45.88649" lon="1.39953">
        <ele>245.8</ele>
        <time>2026-08-09T12:35:24.000Z</time>
      </trkpt>
      <trkpt lat="45.88649" lon="1.39947">
        <ele>246</ele>
        <time>2026-08-09T12:35:26.000Z</time>
      </trkpt>
      <trkpt lat="45.8865" lon="1.39935">
        <ele>246</ele>
        <time>2026-08-09T12:35:30.000Z</time>
      </trkpt>
      <trkpt lat="45.8865" lon="1.39929">
        <ele>246</ele>
        <time>2026-08-09T12:35:32.000Z</time>
      </trkpt>
      <trkpt lat="45.88646" lon="1.39921">
        <ele>245.6</ele>
        <time>2026-08-09T12:35:35.000Z</time>
      </trkpt>
      <trkpt lat="45.88641" lon="1.39918">
        <ele>245.2</ele>
        <time>2026-08-09T12:35:37.000Z</time>
      </trkpt>
      <trkpt lat="45.88634" lon="1.39918">
        <ele>244.8</ele>
        <time>2026-08-09T12:35:39.000Z</time>
      </trkpt>
      <trkpt lat="45.88606" lon="1.39917">
        <ele>243.6</ele>
        <time>2026-08-09T12:35:45.000Z</time>
      </trkpt>
      <trkpt lat="45.88571" lon="1.39916">
        <ele>241.5</ele>
        <time>2026-08-09T12:35:51.000Z</time>
      </trkpt>
      <trkpt lat="45.88558" lon="1.39915">
        <ele>240.9</ele>
        <time>2026-08-09T12:35:53.000Z</time>
      </trkpt>
      <trkpt lat="45.88537" lon="1.39914">
        <ele>238.9</ele>
        <time>2026-08-09T12:35:56.000Z</time>
      </trkpt>
      <trkpt lat="45.88523" lon="1.39913">
        <ele>237.8</ele>
        <time>2026-08-09T12:35:58.000Z</time>
      </trkpt>
      <trkpt lat="45.88483" lon="1.3991">
        <ele>234.7</ele>
        <time>2026-08-09T12:36:04.000Z</time>
      </trkpt>
      <trkpt lat="45.88449" lon="1.39907">
        <ele>235.1</ele>
        <time>2026-08-09T12:36:10.000Z</time>
      </trkpt>
      <trkpt lat="45.88433" lon="1.39907">
        <ele>238.7</ele>
        <time>2026-08-09T12:36:13.000Z</time>
      </trkpt>
      <trkpt lat="45.88426" lon="1.39912">
        <ele>240.4</ele>
        <time>2026-08-09T12:36:15.000Z</time>
      </trkpt>
      <trkpt lat="45.8842" lon="1.39924">
        <ele>241.4</ele>
        <time>2026-08-09T12:36:19.000Z</time>
      </trkpt>
      <trkpt lat="45.88415" lon="1.39934">
        <ele>242.3</ele>
        <time>2026-08-09T12:36:25.000Z</time>
      </trkpt>
      <trkpt lat="45.88413" lon="1.39943">
        <ele>243</ele>
        <time>2026-08-09T12:36:30.000Z</time>
      </trkpt>
      <trkpt lat="45.88412" lon="1.39945">
        <ele>243.2</ele>
        <time>2026-08-09T12:36:31.000Z</time>
      </trkpt>
      <trkpt lat="45.8841" lon="1.39948">
        <ele>244.2</ele>
        <time>2026-08-09T12:36:33.000Z</time>
      </trkpt>
      <trkpt lat="45.88409" lon="1.39957">
        <ele>244.2</ele>
        <time>2026-08-09T12:36:37.000Z</time>
      </trkpt>
      <trkpt lat="45.88409" lon="1.39961">
        <ele>243.7</ele>
        <time>2026-08-09T12:36:39.000Z</time>
      </trkpt>
      <trkpt lat="45.88409" lon="1.39966">
        <ele>243.3</ele>
        <time>2026-08-09T12:36:41.000Z</time>
      </trkpt>
      <trkpt lat="45.88408" lon="1.39967">
        <ele>243.5</ele>
        <time>2026-08-09T12:36:42.000Z</time>
      </trkpt>
      <trkpt lat="45.88407" lon="1.39969">
        <ele>243.9</ele>
        <time>2026-08-09T12:36:43.000Z</time>
      </trkpt>
      <trkpt lat="45.88404" lon="1.39978">
        <ele>245.6</ele>
        <time>2026-08-09T12:36:48.000Z</time>
      </trkpt>
      <trkpt lat="45.88405" lon="1.39983">
        <ele>245.3</ele>
        <time>2026-08-09T12:36:50.000Z</time>
      </trkpt>
      <trkpt lat="45.88404" lon="1.39996">
        <ele>245.4</ele>
        <time>2026-08-09T12:36:56.000Z</time>
      </trkpt>
      <trkpt lat="45.88404" lon="1.40002">
        <ele>245.1</ele>
        <time>2026-08-09T12:36:59.000Z</time>
      </trkpt>
      <trkpt lat="45.88402" lon="1.40012">
        <ele>246</ele>
        <time>2026-08-09T12:37:03.000Z</time>
      </trkpt>
      <trkpt lat="45.88401" lon="1.40018">
        <ele>245.8</ele>
        <time>2026-08-09T12:37:06.000Z</time>
      </trkpt>
      <trkpt lat="45.88401" lon="1.40025">
        <ele>245.1</ele>
        <time>2026-08-09T12:37:09.000Z</time>
      </trkpt>
      <trkpt lat="45.88401" lon="1.4003">
        <ele>245.4</ele>
        <time>2026-08-09T12:37:11.000Z</time>
      </trkpt>
      <trkpt lat="45.88401" lon="1.40041">
        <ele>246.4</ele>
        <time>2026-08-09T12:37:16.000Z</time>
      </trkpt>
      <trkpt lat="45.88401" lon="1.40043">
        <ele>246.8</ele>
        <time>2026-08-09T12:37:17.000Z</time>
      </trkpt>
      <trkpt lat="45.884" lon="1.40062">
        <ele>248.7</ele>
        <time>2026-08-09T12:37:26.000Z</time>
      </trkpt>
      <trkpt lat="45.884" lon="1.40064">
        <ele>248.6</ele>
        <time>2026-08-09T12:37:27.000Z</time>
      </trkpt>
      <trkpt lat="45.88399" lon="1.40066">
        <ele>248.7</ele>
        <time>2026-08-09T12:37:28.000Z</time>
      </trkpt>
      <trkpt lat="45.88397" lon="1.40071">
        <ele>249.1</ele>
        <time>2026-08-09T12:37:31.000Z</time>
      </trkpt>
      <trkpt lat="45.88396" lon="1.40077">
        <ele>249.2</ele>
        <time>2026-08-09T12:37:34.000Z</time>
      </trkpt>
      <trkpt lat="45.88395" lon="1.40081">
        <ele>248.9</ele>
        <time>2026-08-09T12:37:36.000Z</time>
      </trkpt>
      <trkpt lat="45.88393" lon="1.40087">
        <ele>249.5</ele>
        <time>2026-08-09T12:37:39.000Z</time>
      </trkpt>
      <trkpt lat="45.88392" lon="1.40091">
        <ele>250.2</ele>
        <time>2026-08-09T12:37:41.000Z</time>
      </trkpt>
      <trkpt lat="45.88389" lon="1.40105">
        <ele>251.3</ele>
        <time>2026-08-09T12:37:48.000Z</time>
      </trkpt>
      <trkpt lat="45.88388" lon="1.40107">
        <ele>251.4</ele>
        <time>2026-08-09T12:37:49.000Z</time>
      </trkpt>
      <trkpt lat="45.88383" lon="1.40117">
        <ele>251.4</ele>
        <time>2026-08-09T12:37:54.000Z</time>
      </trkpt>
      <trkpt lat="45.88382" lon="1.40119">
        <ele>251.3</ele>
        <time>2026-08-09T12:37:55.000Z</time>
      </trkpt>
      <trkpt lat="45.8838" lon="1.40124">
        <ele>250.9</ele>
        <time>2026-08-09T12:37:58.000Z</time>
      </trkpt>
      <trkpt lat="45.88376" lon="1.40128">
        <ele>251</ele>
        <time>2026-08-09T12:38:02.000Z</time>
      </trkpt>
      <trkpt lat="45.88372" lon="1.4013">
        <ele>251.2</ele>
        <time>2026-08-09T12:38:05.000Z</time>
      </trkpt>
      <trkpt lat="45.88372" lon="1.40131">
        <ele>251.1</ele>
        <time>2026-08-09T12:38:06.000Z</time>
      </trkpt>
      <trkpt lat="45.88372" lon="1.40131">
        <ele>251</ele>
        <time>2026-08-09T12:38:08.000Z</time>
      </trkpt>
      <trkpt lat="45.88372" lon="1.40131">
        <ele>251</ele>
        <time>2026-08-09T12:38:09.000Z</time>
      </trkpt>
      <trkpt lat="45.88367" lon="1.40133">
        <ele>251.3</ele>
        <time>2026-08-09T12:38:27.000Z</time>
      </trkpt>
      <trkpt lat="45.88365" lon="1.40133">
        <ele>251.6</ele>
        <time>2026-08-09T12:38:30.000Z</time>
      </trkpt>
      <trkpt lat="45.88365" lon="1.40133">
        <ele>251.6</ele>
        <time>2026-08-09T12:38:34.000Z</time>
      </trkpt>
      <trkpt lat="45.88356" lon="1.40126">
        <ele>253.8</ele>
        <time>2026-08-09T12:49:36.000Z</time>
      </trkpt>
      <trkpt lat="45.88353" lon="1.40125">
        <ele>254.3</ele>
        <time>2026-08-09T12:49:38.000Z</time>
      </trkpt>
      <trkpt lat="45.88351" lon="1.40126">
        <ele>254.3</ele>
        <time>2026-08-09T12:49:40.000Z</time>
      </trkpt>
      <trkpt lat="45.88348" lon="1.40125">
        <ele>254.7</ele>
        <time>2026-08-09T12:49:42.000Z</time>
      </trkpt>
      <trkpt lat="45.88347" lon="1.40124">
        <ele>255</ele>
        <time>2026-08-09T12:49:43.000Z</time>
      </trkpt>
      <trkpt lat="45.88347" lon="1.40123">
        <ele>255.2</ele>
        <time>2026-08-09T12:49:45.000Z</time>
      </trkpt>
      <trkpt lat="45.88345" lon="1.40125">
        <ele>255</ele>
        <time>2026-08-09T12:49:47.000Z</time>
      </trkpt>
      <trkpt lat="45.88343" lon="1.40126">
        <ele>255</ele>
        <time>2026-08-09T12:49:48.000Z</time>
      </trkpt>
      <trkpt lat="45.88343" lon="1.40125">
        <ele>255.1</ele>
        <time>2026-08-09T12:49:50.000Z</time>
      </trkpt>
      <trkpt lat="45.88342" lon="1.40125">
        <ele>255.2</ele>
        <time>2026-08-09T12:49:52.000Z</time>
      </trkpt>
      <trkpt lat="45.88337" lon="1.40127">
        <ele>255.3</ele>
        <time>2026-08-09T12:49:55.000Z</time>
      </trkpt>
      <trkpt lat="45.88333" lon="1.40126">
        <ele>255.8</ele>
        <time>2026-08-09T12:49:57.000Z</time>
      </trkpt>
      <trkpt lat="45.8833" lon="1.40124">
        <ele>256.3</ele>
        <time>2026-08-09T12:50:00.000Z</time>
      </trkpt>
      <trkpt lat="45.88329" lon="1.40125">
        <ele>256.2</ele>
        <time>2026-08-09T12:50:01.000Z</time>
      </trkpt>
      <trkpt lat="45.88326" lon="1.40126">
        <ele>256.2</ele>
        <time>2026-08-09T12:50:03.000Z</time>
      </trkpt>
      <trkpt lat="45.88323" lon="1.40125">
        <ele>256.6</ele>
        <time>2026-08-09T12:50:05.000Z</time>
      </trkpt>
      <trkpt lat="45.88321" lon="1.40124">
        <ele>256.8</ele>
        <time>2026-08-09T12:50:06.000Z</time>
      </trkpt>
      <trkpt lat="45.88317" lon="1.40124">
        <ele>257</ele>
        <time>2026-08-09T12:50:09.000Z</time>
      </trkpt>
      <trkpt lat="45.88316" lon="1.40123">
        <ele>257.2</ele>
        <time>2026-08-09T12:50:10.000Z</time>
      </trkpt>
      <trkpt lat="45.88315" lon="1.40122">
        <ele>257.4</ele>
        <time>2026-08-09T12:50:11.000Z</time>
      </trkpt>
      <trkpt lat="45.8831" lon="1.40118">
        <ele>258.2</ele>
        <time>2026-08-09T12:50:16.000Z</time>
      </trkpt>
      <trkpt lat="45.88306" lon="1.40117">
        <ele>258.3</ele>
        <time>2026-08-09T12:50:19.000Z</time>
      </trkpt>
      <trkpt lat="45.88304" lon="1.40116">
        <ele>258.7</ele>
        <time>2026-08-09T12:50:21.000Z</time>
      </trkpt>
      <trkpt lat="45.88303" lon="1.40115">
        <ele>258.8</ele>
        <time>2026-08-09T12:50:22.000Z</time>
      </trkpt>
      <trkpt lat="45.88301" lon="1.40116">
        <ele>259</ele>
        <time>2026-08-09T12:50:24.000Z</time>
      </trkpt>
      <trkpt lat="45.88299" lon="1.40116">
        <ele>259.2</ele>
        <time>2026-08-09T12:50:26.000Z</time>
      </trkpt>
      <trkpt lat="45.88298" lon="1.40115">
        <ele>259.4</ele>
        <time>2026-08-09T12:50:27.000Z</time>
      </trkpt>
      <trkpt lat="45.88294" lon="1.40114">
        <ele>259.8</ele>
        <time>2026-08-09T12:50:29.000Z</time>
      </trkpt>
      <trkpt lat="45.88293" lon="1.40113">
        <ele>259.9</ele>
        <time>2026-08-09T12:50:31.000Z</time>
      </trkpt>
      <trkpt lat="45.88291" lon="1.40112">
        <ele>260.1</ele>
        <time>2026-08-09T12:50:33.000Z</time>
      </trkpt>
      <trkpt lat="45.8829" lon="1.40111">
        <ele>260.3</ele>
        <time>2026-08-09T12:50:34.000Z</time>
      </trkpt>
      <trkpt lat="45.88288" lon="1.40109">
        <ele>261</ele>
        <time>2026-08-09T12:50:37.000Z</time>
      </trkpt>
      <trkpt lat="45.88287" lon="1.40109">
        <ele>261</ele>
        <time>2026-08-09T12:50:39.000Z</time>
      </trkpt>
      <trkpt lat="45.88284" lon="1.40109">
        <ele>261.4</ele>
        <time>2026-08-09T12:50:42.000Z</time>
      </trkpt>
      <trkpt lat="45.88282" lon="1.40107">
        <ele>261.9</ele>
        <time>2026-08-09T12:50:43.000Z</time>
      </trkpt>
      <trkpt lat="45.88278" lon="1.40106">
        <ele>262.6</ele>
        <time>2026-08-09T12:50:46.000Z</time>
      </trkpt>
      <trkpt lat="45.88277" lon="1.40105">
        <ele>262.7</ele>
        <time>2026-08-09T12:50:47.000Z</time>
      </trkpt>
      <trkpt lat="45.88276" lon="1.40105">
        <ele>262.8</ele>
        <time>2026-08-09T12:50:48.000Z</time>
      </trkpt>
      <trkpt lat="45.88273" lon="1.40106">
        <ele>262.8</ele>
        <time>2026-08-09T12:50:50.000Z</time>
      </trkpt>
      <trkpt lat="45.88271" lon="1.40107">
        <ele>262.4</ele>
        <time>2026-08-09T12:50:52.000Z</time>
      </trkpt>
      <trkpt lat="45.88269" lon="1.40107">
        <ele>262.7</ele>
        <time>2026-08-09T12:50:53.000Z</time>
      </trkpt>
      <trkpt lat="45.88267" lon="1.40102">
        <ele>263.9</ele>
        <time>2026-08-09T12:50:56.000Z</time>
      </trkpt>
      <trkpt lat="45.88265" lon="1.40102">
        <ele>264</ele>
        <time>2026-08-09T12:50:57.000Z</time>
      </trkpt>
      <trkpt lat="45.88261" lon="1.40101">
        <ele>264.2</ele>
        <time>2026-08-09T12:51:00.000Z</time>
      </trkpt>
      <trkpt lat="45.88261" lon="1.40101">
        <ele>264.2</ele>
        <time>2026-08-09T12:51:01.000Z</time>
      </trkpt>
      <trkpt lat="45.88256" lon="1.40095">
        <ele>265.4</ele>
        <time>2026-08-09T12:51:06.000Z</time>
      </trkpt>
      <trkpt lat="45.88255" lon="1.40095">
        <ele>265.3</ele>
        <time>2026-08-09T12:51:07.000Z</time>
      </trkpt>
      <trkpt lat="45.88253" lon="1.40095">
        <ele>265.3</ele>
        <time>2026-08-09T12:51:09.000Z</time>
      </trkpt>
      <trkpt lat="45.88251" lon="1.40092">
        <ele>265.7</ele>
        <time>2026-08-09T12:51:11.000Z</time>
      </trkpt>
      <trkpt lat="45.8825" lon="1.40092">
        <ele>265.8</ele>
        <time>2026-08-09T12:51:12.000Z</time>
      </trkpt>
      <trkpt lat="45.88246" lon="1.40095">
        <ele>265.7</ele>
        <time>2026-08-09T12:51:15.000Z</time>
      </trkpt>
      <trkpt lat="45.88246" lon="1.40093">
        <ele>266</ele>
        <time>2026-08-09T12:51:16.000Z</time>
      </trkpt>
      <trkpt lat="45.88244" lon="1.40091">
        <ele>266.4</ele>
        <time>2026-08-09T12:51:18.000Z</time>
      </trkpt>
      <trkpt lat="45.88242" lon="1.40092">
        <ele>266.4</ele>
        <time>2026-08-09T12:51:20.000Z</time>
      </trkpt>
      <trkpt lat="45.88239" lon="1.40093">
        <ele>266.6</ele>
        <time>2026-08-09T12:51:23.000Z</time>
      </trkpt>
      <trkpt lat="45.88239" lon="1.40089">
        <ele>266.9</ele>
        <time>2026-08-09T12:51:24.000Z</time>
      </trkpt>
      <trkpt lat="45.88237" lon="1.40085">
        <ele>267.3</ele>
        <time>2026-08-09T12:51:26.000Z</time>
      </trkpt>
      <trkpt lat="45.88235" lon="1.40085">
        <ele>267.4</ele>
        <time>2026-08-09T12:51:28.000Z</time>
      </trkpt>
      <trkpt lat="45.88234" lon="1.40086">
        <ele>267.4</ele>
        <time>2026-08-09T12:51:29.000Z</time>
      </trkpt>
      <trkpt lat="45.88233" lon="1.40087">
        <ele>267.4</ele>
        <time>2026-08-09T12:51:30.000Z</time>
      </trkpt>
      <trkpt lat="45.88232" lon="1.40087">
        <ele>267.5</ele>
        <time>2026-08-09T12:51:32.000Z</time>
      </trkpt>
      <trkpt lat="45.88231" lon="1.40086">
        <ele>267.6</ele>
        <time>2026-08-09T12:51:33.000Z</time>
      </trkpt>
      <trkpt lat="45.8823" lon="1.40085">
        <ele>267.7</ele>
        <time>2026-08-09T12:51:34.000Z</time>
      </trkpt>
      <trkpt lat="45.88227" lon="1.40086">
        <ele>267.8</ele>
        <time>2026-08-09T12:51:37.000Z</time>
      </trkpt>
      <trkpt lat="45.88226" lon="1.40084">
        <ele>267.8</ele>
        <time>2026-08-09T12:51:38.000Z</time>
      </trkpt>
      <trkpt lat="45.88225" lon="1.40081">
        <ele>268.3</ele>
        <time>2026-08-09T12:51:40.000Z</time>
      </trkpt>
      <trkpt lat="45.88224" lon="1.4008">
        <ele>268.5</ele>
        <time>2026-08-09T12:51:41.000Z</time>
      </trkpt>
      <trkpt lat="45.88223" lon="1.40079">
        <ele>268.6</ele>
        <time>2026-08-09T12:51:42.000Z</time>
      </trkpt>
      <trkpt lat="45.88221" lon="1.40079">
        <ele>268.6</ele>
        <time>2026-08-09T12:51:43.000Z</time>
      </trkpt>
      <trkpt lat="45.88218" lon="1.40082">
        <ele>268.2</ele>
        <time>2026-08-09T12:51:46.000Z</time>
      </trkpt>
      <trkpt lat="45.88217" lon="1.40082">
        <ele>268.2</ele>
        <time>2026-08-09T12:51:47.000Z</time>
      </trkpt>
      <trkpt lat="45.88216" lon="1.4008">
        <ele>268.5</ele>
        <time>2026-08-09T12:51:48.000Z</time>
      </trkpt>
      <trkpt lat="45.88215" lon="1.40078">
        <ele>268.9</ele>
        <time>2026-08-09T12:51:50.000Z</time>
      </trkpt>
      <trkpt lat="45.88213" lon="1.40077">
        <ele>269.1</ele>
        <time>2026-08-09T12:51:52.000Z</time>
      </trkpt>
      <trkpt lat="45.88212" lon="1.40076">
        <ele>269.2</ele>
        <time>2026-08-09T12:51:53.000Z</time>
      </trkpt>
      <trkpt lat="45.88211" lon="1.40075">
        <ele>269.4</ele>
        <time>2026-08-09T12:51:54.000Z</time>
      </trkpt>
      <trkpt lat="45.88211" lon="1.40075">
        <ele>269.5</ele>
        <time>2026-08-09T12:51:55.000Z</time>
      </trkpt>
      <trkpt lat="45.8821" lon="1.40073">
        <ele>269.8</ele>
        <time>2026-08-09T12:51:56.000Z</time>
      </trkpt>
      <trkpt lat="45.8821" lon="1.40072">
        <ele>270.1</ele>
        <time>2026-08-09T12:51:57.000Z</time>
      </trkpt>
      <trkpt lat="45.88209" lon="1.4007">
        <ele>270.5</ele>
        <time>2026-08-09T12:51:59.000Z</time>
      </trkpt>
      <trkpt lat="45.88206" lon="1.40071">
        <ele>270.2</ele>
        <time>2026-08-09T12:52:01.000Z</time>
      </trkpt>
      <trkpt lat="45.88204" lon="1.40072">
        <ele>270.2</ele>
        <time>2026-08-09T12:52:02.000Z</time>
      </trkpt>
      <trkpt lat="45.88203" lon="1.4007">
        <ele>270.6</ele>
        <time>2026-08-09T12:52:04.000Z</time>
      </trkpt>
      <trkpt lat="45.88202" lon="1.40068">
        <ele>270.9</ele>
        <time>2026-08-09T12:52:05.000Z</time>
      </trkpt>
      <trkpt lat="45.88201" lon="1.40066">
        <ele>271.5</ele>
        <time>2026-08-09T12:52:07.000Z</time>
      </trkpt>
      <trkpt lat="45.88199" lon="1.40067">
        <ele>271.4</ele>
        <time>2026-08-09T12:52:09.000Z</time>
      </trkpt>
      <trkpt lat="45.88197" lon="1.40067">
        <ele>271.4</ele>
        <time>2026-08-09T12:52:10.000Z</time>
      </trkpt>
      <trkpt lat="45.88197" lon="1.40066">
        <ele>271.7</ele>
        <time>2026-08-09T12:52:11.000Z</time>
      </trkpt>
      <trkpt lat="45.88195" lon="1.40063">
        <ele>272.5</ele>
        <time>2026-08-09T12:52:13.000Z</time>
      </trkpt>
      <trkpt lat="45.88194" lon="1.40062">
        <ele>272.7</ele>
        <time>2026-08-09T12:52:14.000Z</time>
      </trkpt>
      <trkpt lat="45.88192" lon="1.40061">
        <ele>273</ele>
        <time>2026-08-09T12:52:16.000Z</time>
      </trkpt>
      <trkpt lat="45.88192" lon="1.4006">
        <ele>273.1</ele>
        <time>2026-08-09T12:52:17.000Z</time>
      </trkpt>
      <trkpt lat="45.88191" lon="1.40059">
        <ele>273.2</ele>
        <time>2026-08-09T12:52:18.000Z</time>
      </trkpt>
      <trkpt lat="45.88187" lon="1.40054">
        <ele>274</ele>
        <time>2026-08-09T12:52:22.000Z</time>
      </trkpt>
      <trkpt lat="45.88186" lon="1.40053">
        <ele>274.1</ele>
        <time>2026-08-09T12:52:23.000Z</time>
      </trkpt>
      <trkpt lat="45.88175" lon="1.40041">
        <ele>275.1</ele>
        <time>2026-08-09T12:52:31.000Z</time>
      </trkpt>
      <trkpt lat="45.88173" lon="1.40038">
        <ele>275.2</ele>
        <time>2026-08-09T12:52:33.000Z</time>
      </trkpt>
      <trkpt lat="45.88169" lon="1.4003">
        <ele>275.9</ele>
        <time>2026-08-09T12:52:38.000Z</time>
      </trkpt>
      <trkpt lat="45.88167" lon="1.4003">
        <ele>275.8</ele>
        <time>2026-08-09T12:52:40.000Z</time>
      </trkpt>
      <trkpt lat="45.88165" lon="1.40029">
        <ele>276.1</ele>
        <time>2026-08-09T12:52:42.000Z</time>
      </trkpt>
      <trkpt lat="45.88164" lon="1.40025">
        <ele>276.8</ele>
        <time>2026-08-09T12:52:44.000Z</time>
      </trkpt>
      <trkpt lat="45.88163" lon="1.40023">
        <ele>277.1</ele>
        <time>2026-08-09T12:52:45.000Z</time>
      </trkpt>
      <trkpt lat="45.88162" lon="1.40022">
        <ele>277.4</ele>
        <time>2026-08-09T12:52:46.000Z</time>
      </trkpt>
      <trkpt lat="45.8816" lon="1.40022">
        <ele>277.6</ele>
        <time>2026-08-09T12:52:48.000Z</time>
      </trkpt>
      <trkpt lat="45.88159" lon="1.40022">
        <ele>277.7</ele>
        <time>2026-08-09T12:52:49.000Z</time>
      </trkpt>
      <trkpt lat="45.88157" lon="1.40015">
        <ele>278.7</ele>
        <time>2026-08-09T12:52:53.000Z</time>
      </trkpt>
      <trkpt lat="45.88154" lon="1.40016">
        <ele>278.7</ele>
        <time>2026-08-09T12:52:56.000Z</time>
      </trkpt>
      <trkpt lat="45.88153" lon="1.40015">
        <ele>278.9</ele>
        <time>2026-08-09T12:52:57.000Z</time>
      </trkpt>
      <trkpt lat="45.88152" lon="1.40009">
        <ele>279.5</ele>
        <time>2026-08-09T12:53:00.000Z</time>
      </trkpt>
      <trkpt lat="45.88152" lon="1.40008">
        <ele>279.7</ele>
        <time>2026-08-09T12:53:01.000Z</time>
      </trkpt>
      <trkpt lat="45.8815" lon="1.40007">
        <ele>279.7</ele>
        <time>2026-08-09T12:53:02.000Z</time>
      </trkpt>
      <trkpt lat="45.88149" lon="1.40008">
        <ele>279.7</ele>
        <time>2026-08-09T12:53:03.000Z</time>
      </trkpt>
      <trkpt lat="45.88149" lon="1.40007">
        <ele>279.8</ele>
        <time>2026-08-09T12:53:04.000Z</time>
      </trkpt>
      <trkpt lat="45.88148" lon="1.40006">
        <ele>279.8</ele>
        <time>2026-08-09T12:53:05.000Z</time>
      </trkpt>
      <trkpt lat="45.88148" lon="1.39998">
        <ele>280.5</ele>
        <time>2026-08-09T12:53:09.000Z</time>
      </trkpt>
      <trkpt lat="45.88148" lon="1.39996">
        <ele>280.7</ele>
        <time>2026-08-09T12:53:10.000Z</time>
      </trkpt>
      <trkpt lat="45.88147" lon="1.39995">
        <ele>280.7</ele>
        <time>2026-08-09T12:53:11.000Z</time>
      </trkpt>
      <trkpt lat="45.88145" lon="1.39994">
        <ele>280.7</ele>
        <time>2026-08-09T12:53:13.000Z</time>
      </trkpt>
      <trkpt lat="45.88144" lon="1.39993">
        <ele>280.8</ele>
        <time>2026-08-09T12:53:14.000Z</time>
      </trkpt>
      <trkpt lat="45.88144" lon="1.39991">
        <ele>280.9</ele>
        <time>2026-08-09T12:53:15.000Z</time>
      </trkpt>
      <trkpt lat="45.88145" lon="1.39988">
        <ele>281.2</ele>
        <time>2026-08-09T12:53:17.000Z</time>
      </trkpt>
      <trkpt lat="45.88145" lon="1.39986">
        <ele>281.3</ele>
        <time>2026-08-09T12:53:18.000Z</time>
      </trkpt>
      <trkpt lat="45.88141" lon="1.39982">
        <ele>281.4</ele>
        <time>2026-08-09T12:53:22.000Z</time>
      </trkpt>
      <trkpt lat="45.88141" lon="1.39981">
        <ele>281.5</ele>
        <time>2026-08-09T12:53:23.000Z</time>
      </trkpt>
      <trkpt lat="45.88141" lon="1.39979">
        <ele>281.6</ele>
        <time>2026-08-09T12:53:24.000Z</time>
      </trkpt>
      <trkpt lat="45.88141" lon="1.39977">
        <ele>281.8</ele>
        <time>2026-08-09T12:53:26.000Z</time>
      </trkpt>
      <trkpt lat="45.88139" lon="1.39972">
        <ele>282.1</ele>
        <time>2026-08-09T12:53:31.000Z</time>
      </trkpt>
      <trkpt lat="45.8814" lon="1.39969">
        <ele>282.3</ele>
        <time>2026-08-09T12:53:33.000Z</time>
      </trkpt>
      <trkpt lat="45.8814" lon="1.39966">
        <ele>282.7</ele>
        <time>2026-08-09T12:53:35.000Z</time>
      </trkpt>
      <trkpt lat="45.88139" lon="1.39965">
        <ele>282.8</ele>
        <time>2026-08-09T12:53:36.000Z</time>
      </trkpt>
      <trkpt lat="45.88137" lon="1.39963">
        <ele>283.2</ele>
        <time>2026-08-09T12:53:39.000Z</time>
      </trkpt>
      <trkpt lat="45.88136" lon="1.39961">
        <ele>283.4</ele>
        <time>2026-08-09T12:53:40.000Z</time>
      </trkpt>
      <trkpt lat="45.88136" lon="1.3996">
        <ele>283.5</ele>
        <time>2026-08-09T12:53:41.000Z</time>
      </trkpt>
      <trkpt lat="45.88136" lon="1.39956">
        <ele>283.8</ele>
        <time>2026-08-09T12:53:43.000Z</time>
      </trkpt>
      <trkpt lat="45.88134" lon="1.39954">
        <ele>284.2</ele>
        <time>2026-08-09T12:53:45.000Z</time>
      </trkpt>
      <trkpt lat="45.88133" lon="1.3995">
        <ele>284.5</ele>
        <time>2026-08-09T12:53:47.000Z</time>
      </trkpt>
      <trkpt lat="45.8813" lon="1.39947">
        <ele>284.8</ele>
        <time>2026-08-09T12:53:49.000Z</time>
      </trkpt>
      <trkpt lat="45.8813" lon="1.39945">
        <ele>285</ele>
        <time>2026-08-09T12:53:50.000Z</time>
      </trkpt>
      <trkpt lat="45.88129" lon="1.39942">
        <ele>285.3</ele>
        <time>2026-08-09T12:53:52.000Z</time>
      </trkpt>
      <trkpt lat="45.88126" lon="1.39941">
        <ele>285.4</ele>
        <time>2026-08-09T12:53:54.000Z</time>
      </trkpt>
      <trkpt lat="45.88123" lon="1.39937">
        <ele>285.9</ele>
        <time>2026-08-09T12:53:57.000Z</time>
      </trkpt>
      <trkpt lat="45.88121" lon="1.39935">
        <ele>286.1</ele>
        <time>2026-08-09T12:53:59.000Z</time>
      </trkpt>
      <trkpt lat="45.8812" lon="1.39934">
        <ele>286.3</ele>
        <time>2026-08-09T12:54:00.000Z</time>
      </trkpt>
      <trkpt lat="45.88118" lon="1.39931">
        <ele>286.5</ele>
        <time>2026-08-09T12:54:02.000Z</time>
      </trkpt>
      <trkpt lat="45.8811" lon="1.39922">
        <ele>287.4</ele>
        <time>2026-08-09T12:54:09.000Z</time>
      </trkpt>
      <trkpt lat="45.88109" lon="1.39922">
        <ele>287.6</ele>
        <time>2026-08-09T12:54:10.000Z</time>
      </trkpt>
      <trkpt lat="45.88104" lon="1.39919">
        <ele>288</ele>
        <time>2026-08-09T12:54:13.000Z</time>
      </trkpt>
      <trkpt lat="45.88103" lon="1.39919">
        <ele>288.1</ele>
        <time>2026-08-09T12:54:14.000Z</time>
      </trkpt>
      <trkpt lat="45.88101" lon="1.39917">
        <ele>288.4</ele>
        <time>2026-08-09T12:54:16.000Z</time>
      </trkpt>
      <trkpt lat="45.88097" lon="1.39912">
        <ele>289.2</ele>
        <time>2026-08-09T12:54:20.000Z</time>
      </trkpt>
      <trkpt lat="45.88089" lon="1.39907">
        <ele>290.2</ele>
        <time>2026-08-09T12:54:27.000Z</time>
      </trkpt>
      <trkpt lat="45.88089" lon="1.39906">
        <ele>290.4</ele>
        <time>2026-08-09T12:54:28.000Z</time>
      </trkpt>
      <trkpt lat="45.88088" lon="1.39905">
        <ele>290.5</ele>
        <time>2026-08-09T12:54:29.000Z</time>
      </trkpt>
      <trkpt lat="45.88085" lon="1.39905">
        <ele>290.6</ele>
        <time>2026-08-09T12:54:32.000Z</time>
      </trkpt>
      <trkpt lat="45.88083" lon="1.39903">
        <ele>291</ele>
        <time>2026-08-09T12:54:34.000Z</time>
      </trkpt>
      <trkpt lat="45.88082" lon="1.39902">
        <ele>291.2</ele>
        <time>2026-08-09T12:54:35.000Z</time>
      </trkpt>
      <trkpt lat="45.88081" lon="1.399">
        <ele>291.5</ele>
        <time>2026-08-09T12:54:37.000Z</time>
      </trkpt>
      <trkpt lat="45.88076" lon="1.39898">
        <ele>292.1</ele>
        <time>2026-08-09T12:54:41.000Z</time>
      </trkpt>
      <trkpt lat="45.88074" lon="1.39896">
        <ele>292.4</ele>
        <time>2026-08-09T12:54:43.000Z</time>
      </trkpt>
      <trkpt lat="45.88067" lon="1.39893">
        <ele>293.2</ele>
        <time>2026-08-09T12:54:48.000Z</time>
      </trkpt>
      <trkpt lat="45.88064" lon="1.3989">
        <ele>293.6</ele>
        <time>2026-08-09T12:54:51.000Z</time>
      </trkpt>
      <trkpt lat="45.88062" lon="1.39889">
        <ele>293.7</ele>
        <time>2026-08-09T12:54:52.000Z</time>
      </trkpt>
      <trkpt lat="45.88057" lon="1.39887">
        <ele>294.1</ele>
        <time>2026-08-09T12:54:56.000Z</time>
      </trkpt>
      <trkpt lat="45.88054" lon="1.39885">
        <ele>294.5</ele>
        <time>2026-08-09T12:54:59.000Z</time>
      </trkpt>
      <trkpt lat="45.88044" lon="1.39882">
        <ele>295.3</ele>
        <time>2026-08-09T12:55:06.000Z</time>
      </trkpt>
      <trkpt lat="45.88043" lon="1.39882">
        <ele>295.5</ele>
        <time>2026-08-09T12:55:07.000Z</time>
      </trkpt>
      <trkpt lat="45.88033" lon="1.39879">
        <ele>296.1</ele>
        <time>2026-08-09T12:55:14.000Z</time>
      </trkpt>
      <trkpt lat="45.88033" lon="1.39877">
        <ele>296.2</ele>
        <time>2026-08-09T12:55:15.000Z</time>
      </trkpt>
      <trkpt lat="45.88032" lon="1.39877">
        <ele>296.3</ele>
        <time>2026-08-09T12:55:16.000Z</time>
      </trkpt>
      <trkpt lat="45.88029" lon="1.39876">
        <ele>296.4</ele>
        <time>2026-08-09T12:55:19.000Z</time>
      </trkpt>
      <trkpt lat="45.88028" lon="1.39875">
        <ele>296.5</ele>
        <time>2026-08-09T12:55:20.000Z</time>
      </trkpt>
      <trkpt lat="45.88021" lon="1.39873">
        <ele>297.1</ele>
        <time>2026-08-09T12:55:25.000Z</time>
      </trkpt>
      <trkpt lat="45.8802" lon="1.39872">
        <ele>297.2</ele>
        <time>2026-08-09T12:55:26.000Z</time>
      </trkpt>
      <trkpt lat="45.8802" lon="1.39871">
        <ele>297.3</ele>
        <time>2026-08-09T12:55:27.000Z</time>
      </trkpt>
      <trkpt lat="45.88019" lon="1.3987">
        <ele>297.4</ele>
        <time>2026-08-09T12:55:28.000Z</time>
      </trkpt>
      <trkpt lat="45.88015" lon="1.39869">
        <ele>297.8</ele>
        <time>2026-08-09T12:55:31.000Z</time>
      </trkpt>
      <trkpt lat="45.88014" lon="1.39868">
        <ele>297.9</ele>
        <time>2026-08-09T12:55:32.000Z</time>
      </trkpt>
      <trkpt lat="45.88012" lon="1.39867">
        <ele>298</ele>
        <time>2026-08-09T12:55:33.000Z</time>
      </trkpt>
      <trkpt lat="45.88009" lon="1.39867">
        <ele>298.3</ele>
        <time>2026-08-09T12:55:35.000Z</time>
      </trkpt>
      <trkpt lat="45.88006" lon="1.39866">
        <ele>298.5</ele>
        <time>2026-08-09T12:55:38.000Z</time>
      </trkpt>
      <trkpt lat="45.88" lon="1.39867">
        <ele>299</ele>
        <time>2026-08-09T12:55:42.000Z</time>
      </trkpt>
      <trkpt lat="45.87999" lon="1.39864">
        <ele>299.1</ele>
        <time>2026-08-09T12:55:44.000Z</time>
      </trkpt>
      <trkpt lat="45.87998" lon="1.39863">
        <ele>299.2</ele>
        <time>2026-08-09T12:55:45.000Z</time>
      </trkpt>
      <trkpt lat="45.87992" lon="1.3986">
        <ele>299.9</ele>
        <time>2026-08-09T12:55:49.000Z</time>
      </trkpt>
      <trkpt lat="45.87983" lon="1.39855">
        <ele>301</ele>
        <time>2026-08-09T12:55:56.000Z</time>
      </trkpt>
      <trkpt lat="45.87982" lon="1.39854">
        <ele>301.1</ele>
        <time>2026-08-09T12:55:57.000Z</time>
      </trkpt>
      <trkpt lat="45.87979" lon="1.39851">
        <ele>301.4</ele>
        <time>2026-08-09T12:56:00.000Z</time>
      </trkpt>
      <trkpt lat="45.87977" lon="1.3985">
        <ele>301.6</ele>
        <time>2026-08-09T12:56:02.000Z</time>
      </trkpt>
      <trkpt lat="45.87976" lon="1.39849">
        <ele>301.8</ele>
        <time>2026-08-09T12:56:03.000Z</time>
      </trkpt>
      <trkpt lat="45.87972" lon="1.39845">
        <ele>302</ele>
        <time>2026-08-09T12:56:06.000Z</time>
      </trkpt>
      <trkpt lat="45.87971" lon="1.39843">
        <ele>302.1</ele>
        <time>2026-08-09T12:56:07.000Z</time>
      </trkpt>
      <trkpt lat="45.87966" lon="1.39837">
        <ele>302.5</ele>
        <time>2026-08-09T12:56:12.000Z</time>
      </trkpt>
      <trkpt lat="45.87965" lon="1.39835">
        <ele>302.5</ele>
        <time>2026-08-09T12:56:13.000Z</time>
      </trkpt>
      <trkpt lat="45.87954" lon="1.3982">
        <ele>303.3</ele>
        <time>2026-08-09T12:56:22.000Z</time>
      </trkpt>
      <trkpt lat="45.8794" lon="1.39809">
        <ele>304.2</ele>
        <time>2026-08-09T12:56:31.000Z</time>
      </trkpt>
      <trkpt lat="45.87939" lon="1.39809">
        <ele>304.2</ele>
        <time>2026-08-09T12:56:32.000Z</time>
      </trkpt>
      <trkpt lat="45.87932" lon="1.39806">
        <ele>304.4</ele>
        <time>2026-08-09T12:56:36.000Z</time>
      </trkpt>
      <trkpt lat="45.87929" lon="1.39805">
        <ele>304.5</ele>
        <time>2026-08-09T12:56:38.000Z</time>
      </trkpt>
      <trkpt lat="45.87923" lon="1.39804">
        <ele>304.6</ele>
        <time>2026-08-09T12:56:42.000Z</time>
      </trkpt>
      <trkpt lat="45.87908" lon="1.39801">
        <ele>305.3</ele>
        <time>2026-08-09T12:56:51.000Z</time>
      </trkpt>
      <trkpt lat="45.87906" lon="1.39801">
        <ele>305.5</ele>
        <time>2026-08-09T12:56:53.000Z</time>
      </trkpt>
      <trkpt lat="45.87892" lon="1.39798">
        <ele>306.2</ele>
        <time>2026-08-09T12:57:01.000Z</time>
      </trkpt>
      <trkpt lat="45.87888" lon="1.39797">
        <ele>306.5</ele>
        <time>2026-08-09T12:57:04.000Z</time>
      </trkpt>
      <trkpt lat="45.87881" lon="1.39797">
        <ele>306.7</ele>
        <time>2026-08-09T12:57:09.000Z</time>
      </trkpt>
      <trkpt lat="45.8787" lon="1.39796">
        <ele>307.2</ele>
        <time>2026-08-09T12:57:16.000Z</time>
      </trkpt>
      <trkpt lat="45.87861" lon="1.39792">
        <ele>307.5</ele>
        <time>2026-08-09T12:57:21.000Z</time>
      </trkpt>
      <trkpt lat="45.87852" lon="1.39791">
        <ele>308.3</ele>
        <time>2026-08-09T12:57:26.000Z</time>
      </trkpt>
      <trkpt lat="45.87838" lon="1.39786">
        <ele>309.2</ele>
        <time>2026-08-09T12:57:34.000Z</time>
      </trkpt>
      <trkpt lat="45.87836" lon="1.39785">
        <ele>309.3</ele>
        <time>2026-08-09T12:57:35.000Z</time>
      </trkpt>
      <trkpt lat="45.8782" lon="1.39777">
        <ele>309.9</ele>
        <time>2026-08-09T12:57:44.000Z</time>
      </trkpt>
      <trkpt lat="45.87813" lon="1.39773">
        <ele>310.2</ele>
        <time>2026-08-09T12:57:48.000Z</time>
      </trkpt>
      <trkpt lat="45.87808" lon="1.39771">
        <ele>310.6</ele>
        <time>2026-08-09T12:57:51.000Z</time>
      </trkpt>
      <trkpt lat="45.87794" lon="1.39763">
        <ele>311.3</ele>
        <time>2026-08-09T12:58:00.000Z</time>
      </trkpt>
      <trkpt lat="45.87792" lon="1.39762">
        <ele>311.4</ele>
        <time>2026-08-09T12:58:01.000Z</time>
      </trkpt>
      <trkpt lat="45.87784" lon="1.39758">
        <ele>311.9</ele>
        <time>2026-08-09T12:58:06.000Z</time>
      </trkpt>
      <trkpt lat="45.87775" lon="1.39753">
        <ele>312.4</ele>
        <time>2026-08-09T12:58:11.000Z</time>
      </trkpt>
      <trkpt lat="45.87757" lon="1.39744">
        <ele>314.1</ele>
        <time>2026-08-09T12:58:21.000Z</time>
      </trkpt>
      <trkpt lat="45.87755" lon="1.39743">
        <ele>314.2</ele>
        <time>2026-08-09T12:58:22.000Z</time>
      </trkpt>
      <trkpt lat="45.87742" lon="1.39736">
        <ele>315.3</ele>
        <time>2026-08-09T12:58:30.000Z</time>
      </trkpt>
      <trkpt lat="45.87737" lon="1.39732">
        <ele>315.5</ele>
        <time>2026-08-09T12:58:33.000Z</time>
      </trkpt>
      <trkpt lat="45.87732" lon="1.3973">
        <ele>315.8</ele>
        <time>2026-08-09T12:58:36.000Z</time>
      </trkpt>
      <trkpt lat="45.87728" lon="1.39729">
        <ele>316</ele>
        <time>2026-08-09T12:58:38.000Z</time>
      </trkpt>
      <trkpt lat="45.8772" lon="1.39726">
        <ele>316.4</ele>
        <time>2026-08-09T12:58:43.000Z</time>
      </trkpt>
      <trkpt lat="45.87716" lon="1.39725">
        <ele>316.4</ele>
        <time>2026-08-09T12:58:45.000Z</time>
      </trkpt>
      <trkpt lat="45.87702" lon="1.39722">
        <ele>316.7</ele>
        <time>2026-08-09T12:58:52.000Z</time>
      </trkpt>
      <trkpt lat="45.87698" lon="1.39721">
        <ele>316.8</ele>
        <time>2026-08-09T12:58:54.000Z</time>
      </trkpt>
      <trkpt lat="45.87684" lon="1.39721">
        <ele>317.3</ele>
        <time>2026-08-09T12:59:02.000Z</time>
      </trkpt>
      <trkpt lat="45.87667" lon="1.39726">
        <ele>318.6</ele>
        <time>2026-08-09T12:59:10.000Z</time>
      </trkpt>
      <trkpt lat="45.87665" lon="1.39728">
        <ele>318.8</ele>
        <time>2026-08-09T12:59:11.000Z</time>
      </trkpt>
      <trkpt lat="45.87661" lon="1.3973">
        <ele>319.1</ele>
        <time>2026-08-09T12:59:13.000Z</time>
      </trkpt>
      <trkpt lat="45.87651" lon="1.39735">
        <ele>319.6</ele>
        <time>2026-08-09T12:59:18.000Z</time>
      </trkpt>
      <trkpt lat="45.87642" lon="1.39741">
        <ele>320.1</ele>
        <time>2026-08-09T12:59:23.000Z</time>
      </trkpt>
      <trkpt lat="45.87632" lon="1.39747">
        <ele>320.6</ele>
        <time>2026-08-09T12:59:28.000Z</time>
      </trkpt>
      <trkpt lat="45.87619" lon="1.39753">
        <ele>321.2</ele>
        <time>2026-08-09T12:59:35.000Z</time>
      </trkpt>
      <trkpt lat="45.87615" lon="1.39756">
        <ele>321.4</ele>
        <time>2026-08-09T12:59:37.000Z</time>
      </trkpt>
      <trkpt lat="45.8761" lon="1.3976">
        <ele>321.7</ele>
        <time>2026-08-09T12:59:41.000Z</time>
      </trkpt>
      <trkpt lat="45.87606" lon="1.39761">
        <ele>321.8</ele>
        <time>2026-08-09T12:59:43.000Z</time>
      </trkpt>
      <trkpt lat="45.876" lon="1.39763">
        <ele>321.9</ele>
        <time>2026-08-09T12:59:46.000Z</time>
      </trkpt>
      <trkpt lat="45.87599" lon="1.39764">
        <ele>322</ele>
        <time>2026-08-09T12:59:47.000Z</time>
      </trkpt>
      <trkpt lat="45.87589" lon="1.3977">
        <ele>322.4</ele>
        <time>2026-08-09T12:59:53.000Z</time>
      </trkpt>
      <trkpt lat="45.87569" lon="1.39784">
        <ele>323.1</ele>
        <time>2026-08-09T13:00:04.000Z</time>
      </trkpt>
      <trkpt lat="45.87566" lon="1.39787">
        <ele>323.1</ele>
        <time>2026-08-09T13:00:06.000Z</time>
      </trkpt>
      <trkpt lat="45.87552" lon="1.39802">
        <ele>323.4</ele>
        <time>2026-08-09T13:00:14.000Z</time>
      </trkpt>
      <trkpt lat="45.8754" lon="1.39824">
        <ele>324.1</ele>
        <time>2026-08-09T13:00:22.000Z</time>
      </trkpt>
      <trkpt lat="45.87535" lon="1.39837">
        <ele>324.2</ele>
        <time>2026-08-09T13:00:26.000Z</time>
      </trkpt>
      <trkpt lat="45.87534" lon="1.3984">
        <ele>324.1</ele>
        <time>2026-08-09T13:00:27.000Z</time>
      </trkpt>
      <trkpt lat="45.87531" lon="1.39851">
        <ele>324.1</ele>
        <time>2026-08-09T13:00:30.000Z</time>
      </trkpt>
      <trkpt lat="45.87519" lon="1.39884">
        <ele>324.2</ele>
        <time>2026-08-09T13:00:40.000Z</time>
      </trkpt>
      <trkpt lat="45.87507" lon="1.39901">
        <ele>325.2</ele>
        <time>2026-08-09T13:00:47.000Z</time>
      </trkpt>
      <trkpt lat="45.87501" lon="1.39907">
        <ele>325.6</ele>
        <time>2026-08-09T13:00:51.000Z</time>
      </trkpt>
      <trkpt lat="45.87493" lon="1.39911">
        <ele>326</ele>
        <time>2026-08-09T13:00:55.000Z</time>
      </trkpt>
      <trkpt lat="45.87482" lon="1.39917">
        <ele>326.7</ele>
        <time>2026-08-09T13:01:01.000Z</time>
      </trkpt>
      <trkpt lat="45.8747" lon="1.39922">
        <ele>327.2</ele>
        <time>2026-08-09T13:01:07.000Z</time>
      </trkpt>
      <trkpt lat="45.87464" lon="1.39925">
        <ele>327.5</ele>
        <time>2026-08-09T13:01:11.000Z</time>
      </trkpt>
      <trkpt lat="45.87454" lon="1.39928">
        <ele>327.9</ele>
        <time>2026-08-09T13:01:16.000Z</time>
      </trkpt>
      <trkpt lat="45.87448" lon="1.39928">
        <ele>328.1</ele>
        <time>2026-08-09T13:01:19.000Z</time>
      </trkpt>
      <trkpt lat="45.87442" lon="1.39929">
        <ele>328.4</ele>
        <time>2026-08-09T13:01:22.000Z</time>
      </trkpt>
      <trkpt lat="45.87436" lon="1.39929">
        <ele>328.7</ele>
        <time>2026-08-09T13:01:25.000Z</time>
      </trkpt>
      <trkpt lat="45.87424" lon="1.39928">
        <ele>329.3</ele>
        <time>2026-08-09T13:01:31.000Z</time>
      </trkpt>
      <trkpt lat="45.87422" lon="1.39928">
        <ele>329.5</ele>
        <time>2026-08-09T13:01:32.000Z</time>
      </trkpt>
      <trkpt lat="45.87406" lon="1.39935">
        <ele>329.9</ele>
        <time>2026-08-09T13:01:40.000Z</time>
      </trkpt>
      <trkpt lat="45.87397" lon="1.39944">
        <ele>330.9</ele>
        <time>2026-08-09T13:01:45.000Z</time>
      </trkpt>
      <trkpt lat="45.8739" lon="1.39953">
        <ele>331.9</ele>
        <time>2026-08-09T13:01:50.000Z</time>
      </trkpt>
      <trkpt lat="45.87389" lon="1.39955">
        <ele>332.1</ele>
        <time>2026-08-09T13:01:51.000Z</time>
      </trkpt>
      <trkpt lat="45.87382" lon="1.39966">
        <ele>332.3</ele>
        <time>2026-08-09T13:01:56.000Z</time>
      </trkpt>
      <trkpt lat="45.87375" lon="1.39977">
        <ele>332.5</ele>
        <time>2026-08-09T13:02:01.000Z</time>
      </trkpt>
      <trkpt lat="45.87369" lon="1.39991">
        <ele>333</ele>
        <time>2026-08-09T13:02:06.000Z</time>
      </trkpt>
      <trkpt lat="45.87366" lon="1.4">
        <ele>333.6</ele>
        <time>2026-08-09T13:02:09.000Z</time>
      </trkpt>
      <trkpt lat="45.87366" lon="1.40003">
        <ele>333.7</ele>
        <time>2026-08-09T13:02:10.000Z</time>
      </trkpt>
      <trkpt lat="45.8736" lon="1.40024">
        <ele>334.6</ele>
        <time>2026-08-09T13:02:18.000Z</time>
      </trkpt>
      <trkpt lat="45.87359" lon="1.40026">
        <ele>334.7</ele>
        <time>2026-08-09T13:02:19.000Z</time>
      </trkpt>
      <trkpt lat="45.87353" lon="1.40041">
        <ele>335.3</ele>
        <time>2026-08-09T13:02:25.000Z</time>
      </trkpt>
      <trkpt lat="45.87346" lon="1.40063">
        <ele>336.3</ele>
        <time>2026-08-09T13:02:33.000Z</time>
      </trkpt>
      <trkpt lat="45.87345" lon="1.40068">
        <ele>336.5</ele>
        <time>2026-08-09T13:02:35.000Z</time>
      </trkpt>
      <trkpt lat="45.8734" lon="1.40082">
        <ele>337.1</ele>
        <time>2026-08-09T13:02:41.000Z</time>
      </trkpt>
      <trkpt lat="45.87336" lon="1.40093">
        <ele>337.8</ele>
        <time>2026-08-09T13:02:46.000Z</time>
      </trkpt>
      <trkpt lat="45.87335" lon="1.40097">
        <ele>338</ele>
        <time>2026-08-09T13:02:48.000Z</time>
      </trkpt>
      <trkpt lat="45.87329" lon="1.40111">
        <ele>339</ele>
        <time>2026-08-09T13:02:54.000Z</time>
      </trkpt>
      <trkpt lat="45.87328" lon="1.40113">
        <ele>339.1</ele>
        <time>2026-08-09T13:02:55.000Z</time>
      </trkpt>
      <trkpt lat="45.87323" lon="1.40121">
        <ele>339.7</ele>
        <time>2026-08-09T13:02:59.000Z</time>
      </trkpt>
      <trkpt lat="45.87318" lon="1.40127">
        <ele>340.2</ele>
        <time>2026-08-09T13:03:03.000Z</time>
      </trkpt>
      <trkpt lat="45.87308" lon="1.40135">
        <ele>340.7</ele>
        <time>2026-08-09T13:03:09.000Z</time>
      </trkpt>
      <trkpt lat="45.87303" lon="1.40138">
        <ele>340.8</ele>
        <time>2026-08-09T13:03:12.000Z</time>
      </trkpt>
      <trkpt lat="45.87295" lon="1.40144">
        <ele>341.1</ele>
        <time>2026-08-09T13:03:17.000Z</time>
      </trkpt>
      <trkpt lat="45.87288" lon="1.40149">
        <ele>341.4</ele>
        <time>2026-08-09T13:03:22.000Z</time>
      </trkpt>
      <trkpt lat="45.8728" lon="1.40153">
        <ele>341.7</ele>
        <time>2026-08-09T13:03:26.000Z</time>
      </trkpt>
      <trkpt lat="45.87275" lon="1.40156">
        <ele>341.8</ele>
        <time>2026-08-09T13:03:29.000Z</time>
      </trkpt>
      <trkpt lat="45.87264" lon="1.40163">
        <ele>342.5</ele>
        <time>2026-08-09T13:03:35.000Z</time>
      </trkpt>
      <trkpt lat="45.87258" lon="1.40167">
        <ele>343.1</ele>
        <time>2026-08-09T13:03:39.000Z</time>
      </trkpt>
      <trkpt lat="45.87251" lon="1.40172">
        <ele>343.5</ele>
        <time>2026-08-09T13:03:43.000Z</time>
      </trkpt>
      <trkpt lat="45.87242" lon="1.40175">
        <ele>343.9</ele>
        <time>2026-08-09T13:03:48.000Z</time>
      </trkpt>
      <trkpt lat="45.87237" lon="1.40178">
        <ele>344.2</ele>
        <time>2026-08-09T13:03:51.000Z</time>
      </trkpt>
      <trkpt lat="45.87234" lon="1.4018">
        <ele>344.4</ele>
        <time>2026-08-09T13:03:53.000Z</time>
      </trkpt>
      <trkpt lat="45.87222" lon="1.40185">
        <ele>345</ele>
        <time>2026-08-09T13:04:00.000Z</time>
      </trkpt>
      <trkpt lat="45.87212" lon="1.40192">
        <ele>346.1</ele>
        <time>2026-08-09T13:04:06.000Z</time>
      </trkpt>
      <trkpt lat="45.87206" lon="1.40199">
        <ele>346.9</ele>
        <time>2026-08-09T13:04:10.000Z</time>
      </trkpt>
      <trkpt lat="45.87203" lon="1.40202">
        <ele>347.2</ele>
        <time>2026-08-09T13:04:12.000Z</time>
      </trkpt>
      <trkpt lat="45.87194" lon="1.40209">
        <ele>348.1</ele>
        <time>2026-08-09T13:04:18.000Z</time>
      </trkpt>
      <trkpt lat="45.87189" lon="1.40215">
        <ele>348.5</ele>
        <time>2026-08-09T13:04:21.000Z</time>
      </trkpt>
      <trkpt lat="45.87183" lon="1.40222">
        <ele>349</ele>
        <time>2026-08-09T13:04:26.000Z</time>
      </trkpt>
      <trkpt lat="45.87181" lon="1.40226">
        <ele>349.2</ele>
        <time>2026-08-09T13:04:29.000Z</time>
      </trkpt>
      <trkpt lat="45.87181" lon="1.40226">
        <ele>349.2</ele>
        <time>2026-08-09T13:04:31.000Z</time>
      </trkpt>
      <trkpt lat="45.87173" lon="1.40236">
        <ele>350.3</ele>
        <time>2026-08-09T13:05:11.000Z</time>
      </trkpt>
      <trkpt lat="45.8717" lon="1.40241">
        <ele>350.8</ele>
        <time>2026-08-09T13:05:14.000Z</time>
      </trkpt>
      <trkpt lat="45.87168" lon="1.40242">
        <ele>351</ele>
        <time>2026-08-09T13:05:15.000Z</time>
      </trkpt>
      <trkpt lat="45.87164" lon="1.40246">
        <ele>351.7</ele>
        <time>2026-08-09T13:05:19.000Z</time>
      </trkpt>
      <trkpt lat="45.87163" lon="1.40248">
        <ele>351.8</ele>
        <time>2026-08-09T13:05:20.000Z</time>
      </trkpt>
      <trkpt lat="45.87162" lon="1.40249">
        <ele>352</ele>
        <time>2026-08-09T13:05:21.000Z</time>
      </trkpt>
      <trkpt lat="45.87156" lon="1.40257">
        <ele>352.9</ele>
        <time>2026-08-09T13:05:26.000Z</time>
      </trkpt>
      <trkpt lat="45.87153" lon="1.40262">
        <ele>353.4</ele>
        <time>2026-08-09T13:05:30.000Z</time>
      </trkpt>
      <trkpt lat="45.87151" lon="1.40265">
        <ele>353.7</ele>
        <time>2026-08-09T13:05:32.000Z</time>
      </trkpt>
      <trkpt lat="45.87149" lon="1.40266">
        <ele>353.8</ele>
        <time>2026-08-09T13:05:33.000Z</time>
      </trkpt>
      <trkpt lat="45.87146" lon="1.4027">
        <ele>354.2</ele>
        <time>2026-08-09T13:05:35.000Z</time>
      </trkpt>
      <trkpt lat="45.8714" lon="1.40277">
        <ele>354.9</ele>
        <time>2026-08-09T13:05:39.000Z</time>
      </trkpt>
      <trkpt lat="45.87133" lon="1.40291">
        <ele>355.8</ele>
        <time>2026-08-09T13:05:46.000Z</time>
      </trkpt>
      <trkpt lat="45.87131" lon="1.40296">
        <ele>356.1</ele>
        <time>2026-08-09T13:05:48.000Z</time>
      </trkpt>
      <trkpt lat="45.87128" lon="1.40308">
        <ele>356.8</ele>
        <time>2026-08-09T13:05:54.000Z</time>
      </trkpt>
      <trkpt lat="45.87127" lon="1.40312">
        <ele>357</ele>
        <time>2026-08-09T13:05:56.000Z</time>
      </trkpt>
      <trkpt lat="45.87124" lon="1.40321">
        <ele>357.6</ele>
        <time>2026-08-09T13:06:00.000Z</time>
      </trkpt>
      <trkpt lat="45.87123" lon="1.40325">
        <ele>357.9</ele>
        <time>2026-08-09T13:06:02.000Z</time>
      </trkpt>
      <trkpt lat="45.87119" lon="1.40341">
        <ele>359.1</ele>
        <time>2026-08-09T13:06:08.000Z</time>
      </trkpt>
      <trkpt lat="45.87118" lon="1.40344">
        <ele>359.2</ele>
        <time>2026-08-09T13:06:09.000Z</time>
      </trkpt>
      <trkpt lat="45.87111" lon="1.40356">
        <ele>359.8</ele>
        <time>2026-08-09T13:06:15.000Z</time>
      </trkpt>
      <trkpt lat="45.87109" lon="1.40359">
        <ele>360</ele>
        <time>2026-08-09T13:06:17.000Z</time>
      </trkpt>
      <trkpt lat="45.87101" lon="1.40364">
        <ele>360.4</ele>
        <time>2026-08-09T13:06:22.000Z</time>
      </trkpt>
      <trkpt lat="45.87086" lon="1.40357">
        <ele>360.7</ele>
        <time>2026-08-09T13:06:29.000Z</time>
      </trkpt>
      <trkpt lat="45.87084" lon="1.40355">
        <ele>360.8</ele>
        <time>2026-08-09T13:06:30.000Z</time>
      </trkpt>
      <trkpt lat="45.87064" lon="1.40337">
        <ele>360.7</ele>
        <time>2026-08-09T13:06:38.000Z</time>
      </trkpt>
      <trkpt lat="45.87037" lon="1.40314">
        <ele>361.4</ele>
        <time>2026-08-09T13:06:49.000Z</time>
      </trkpt>
      <trkpt lat="45.87017" lon="1.40298">
        <ele>362.1</ele>
        <time>2026-08-09T13:06:57.000Z</time>
      </trkpt>
      <trkpt lat="45.87" lon="1.40287">
        <ele>362.4</ele>
        <time>2026-08-09T13:07:04.000Z</time>
      </trkpt>
      <trkpt lat="45.86982" lon="1.4027">
        <ele>363.3</ele>
        <time>2026-08-09T13:07:12.000Z</time>
      </trkpt>
      <trkpt lat="45.86967" lon="1.40254">
        <ele>364.2</ele>
        <time>2026-08-09T13:07:19.000Z</time>
      </trkpt>
      <trkpt lat="45.86963" lon="1.4025">
        <ele>364.3</ele>
        <time>2026-08-09T13:07:21.000Z</time>
      </trkpt>
      <trkpt lat="45.86946" lon="1.40229">
        <ele>364.2</ele>
        <time>2026-08-09T13:07:29.000Z</time>
      </trkpt>
      <trkpt lat="45.8693" lon="1.40213">
        <ele>364.3</ele>
        <time>2026-08-09T13:07:35.000Z</time>
      </trkpt>
      <trkpt lat="45.86908" lon="1.40185">
        <ele>364.3</ele>
        <time>2026-08-09T13:07:44.000Z</time>
      </trkpt>
      <trkpt lat="45.8689" lon="1.40161">
        <ele>364.8</ele>
        <time>2026-08-09T13:07:51.000Z</time>
      </trkpt>
      <trkpt lat="45.86867" lon="1.4013">
        <ele>364.4</ele>
        <time>2026-08-09T13:08:00.000Z</time>
      </trkpt>
      <trkpt lat="45.86844" lon="1.40098">
        <ele>364</ele>
        <time>2026-08-09T13:08:09.000Z</time>
      </trkpt>
      <trkpt lat="45.86818" lon="1.40067">
        <ele>363.4</ele>
        <time>2026-08-09T13:08:17.000Z</time>
      </trkpt>
      <trkpt lat="45.86792" lon="1.40039">
        <ele>361.7</ele>
        <time>2026-08-09T13:08:23.000Z</time>
      </trkpt>
      <trkpt lat="45.86767" lon="1.40005">
        <ele>360.1</ele>
        <time>2026-08-09T13:08:28.000Z</time>
      </trkpt>
      <trkpt lat="45.86743" lon="1.39968">
        <ele>359</ele>
        <time>2026-08-09T13:08:33.000Z</time>
      </trkpt>
      <trkpt lat="45.86733" lon="1.39953">
        <ele>358.7</ele>
        <time>2026-08-09T13:08:35.000Z</time>
      </trkpt>
      <trkpt lat="45.8671" lon="1.39919">
        <ele>358.5</ele>
        <time>2026-08-09T13:08:40.000Z</time>
      </trkpt>
      <trkpt lat="45.86698" lon="1.39899">
        <ele>358.2</ele>
        <time>2026-08-09T13:08:43.000Z</time>
      </trkpt>
      <trkpt lat="45.86675" lon="1.39867">
        <ele>358.7</ele>
        <time>2026-08-09T13:08:49.000Z</time>
      </trkpt>
      <trkpt lat="45.86654" lon="1.39836">
        <ele>359.4</ele>
        <time>2026-08-09T13:08:56.000Z</time>
      </trkpt>
      <trkpt lat="45.86635" lon="1.39807">
        <ele>360</ele>
        <time>2026-08-09T13:09:03.000Z</time>
      </trkpt>
      <trkpt lat="45.8663" lon="1.39799">
        <ele>360</ele>
        <time>2026-08-09T13:09:05.000Z</time>
      </trkpt>
      <trkpt lat="45.86611" lon="1.39767">
        <ele>360</ele>
        <time>2026-08-09T13:09:12.000Z</time>
      </trkpt>
      <trkpt lat="45.86595" lon="1.39732">
        <ele>359.4</ele>
        <time>2026-08-09T13:09:19.000Z</time>
      </trkpt>
      <trkpt lat="45.86587" lon="1.3971">
        <ele>359.1</ele>
        <time>2026-08-09T13:09:23.000Z</time>
      </trkpt>
      <trkpt lat="45.86583" lon="1.39699">
        <ele>359</ele>
        <time>2026-08-09T13:09:25.000Z</time>
      </trkpt>
      <trkpt lat="45.86571" lon="1.39672">
        <ele>359</ele>
        <time>2026-08-09T13:09:30.000Z</time>
      </trkpt>
      <trkpt lat="45.86564" lon="1.39656">
        <ele>358.5</ele>
        <time>2026-08-09T13:09:33.000Z</time>
      </trkpt>
      <trkpt lat="45.8654" lon="1.39601">
        <ele>357.5</ele>
        <time>2026-08-09T13:09:42.000Z</time>
      </trkpt>
      <trkpt lat="45.86537" lon="1.39594">
        <ele>357.3</ele>
        <time>2026-08-09T13:09:43.000Z</time>
      </trkpt>
      <trkpt lat="45.86513" lon="1.39537">
        <ele>356.5</ele>
        <time>2026-08-09T13:09:51.000Z</time>
      </trkpt>
      <trkpt lat="45.86507" lon="1.39523">
        <ele>356.2</ele>
        <time>2026-08-09T13:09:53.000Z</time>
      </trkpt>
      <trkpt lat="45.86486" lon="1.39473">
        <ele>354.5</ele>
        <time>2026-08-09T13:10:00.000Z</time>
      </trkpt>
      <trkpt lat="45.86465" lon="1.39416">
        <ele>352.5</ele>
        <time>2026-08-09T13:10:07.000Z</time>
      </trkpt>
      <trkpt lat="45.86462" lon="1.39406">
        <ele>352.1</ele>
        <time>2026-08-09T13:10:08.000Z</time>
      </trkpt>
      <trkpt lat="45.86452" lon="1.39379">
        <ele>350.7</ele>
        <time>2026-08-09T13:10:11.000Z</time>
      </trkpt>
      <trkpt lat="45.86444" lon="1.39355">
        <ele>350</ele>
        <time>2026-08-09T13:10:14.000Z</time>
      </trkpt>
      <trkpt lat="45.86441" lon="1.39341">
        <ele>349.7</ele>
        <time>2026-08-09T13:10:17.000Z</time>
      </trkpt>
      <trkpt lat="45.8644" lon="1.39338">
        <ele>349.7</ele>
        <time>2026-08-09T13:10:18.000Z</time>
      </trkpt>
      <trkpt lat="45.86439" lon="1.3933">
        <ele>349.5</ele>
        <time>2026-08-09T13:10:21.000Z</time>
      </trkpt>
      <trkpt lat="45.86439" lon="1.3933">
        <ele>349.5</ele>
        <time>2026-08-09T13:10:23.000Z</time>
      </trkpt>
      <trkpt lat="45.86436" lon="1.39325">
        <ele>349.1</ele>
        <time>2026-08-09T13:10:48.000Z</time>
      </trkpt>
      <trkpt lat="45.86433" lon="1.39318">
        <ele>348.6</ele>
        <time>2026-08-09T13:10:50.000Z</time>
      </trkpt>
      <trkpt lat="45.86424" lon="1.3929">
        <ele>347</ele>
        <time>2026-08-09T13:10:55.000Z</time>
      </trkpt>
      <trkpt lat="45.86414" lon="1.39261">
        <ele>345.2</ele>
        <time>2026-08-09T13:10:59.000Z</time>
      </trkpt>
      <trkpt lat="45.86409" lon="1.39243">
        <ele>344.1</ele>
        <time>2026-08-09T13:11:01.000Z</time>
      </trkpt>
      <trkpt lat="45.86402" lon="1.39223">
        <ele>343</ele>
        <time>2026-08-09T13:11:03.000Z</time>
      </trkpt>
      <trkpt lat="45.86392" lon="1.39189">
        <ele>340.4</ele>
        <time>2026-08-09T13:11:06.000Z</time>
      </trkpt>
      <trkpt lat="45.86388" lon="1.39177">
        <ele>339.9</ele>
        <time>2026-08-09T13:11:07.000Z</time>
      </trkpt>
      <trkpt lat="45.86385" lon="1.39167">
        <ele>339.3</ele>
        <time>2026-08-09T13:11:08.000Z</time>
      </trkpt>
      <trkpt lat="45.86377" lon="1.39145">
        <ele>338.2</ele>
        <time>2026-08-09T13:11:10.000Z</time>
      </trkpt>
      <trkpt lat="45.86368" lon="1.39124">
        <ele>337.5</ele>
        <time>2026-08-09T13:11:12.000Z</time>
      </trkpt>
      <trkpt lat="45.86351" lon="1.39099">
        <ele>336.6</ele>
        <time>2026-08-09T13:11:15.000Z</time>
      </trkpt>
      <trkpt lat="45.86339" lon="1.39082">
        <ele>335.8</ele>
        <time>2026-08-09T13:11:17.000Z</time>
      </trkpt>
      <trkpt lat="45.86326" lon="1.39065">
        <ele>334.6</ele>
        <time>2026-08-09T13:11:19.000Z</time>
      </trkpt>
      <trkpt lat="45.86301" lon="1.39034">
        <ele>332.4</ele>
        <time>2026-08-09T13:11:23.000Z</time>
      </trkpt>
      <trkpt lat="45.86285" lon="1.3901">
        <ele>331.5</ele>
        <time>2026-08-09T13:11:26.000Z</time>
      </trkpt>
      <trkpt lat="45.86274" lon="1.38995">
        <ele>330.7</ele>
        <time>2026-08-09T13:11:28.000Z</time>
      </trkpt>
      <trkpt lat="45.86264" lon="1.38981">
        <ele>330.2</ele>
        <time>2026-08-09T13:11:30.000Z</time>
      </trkpt>
      <trkpt lat="45.8626" lon="1.38973">
        <ele>330.3</ele>
        <time>2026-08-09T13:11:31.000Z</time>
      </trkpt>
      <trkpt lat="45.86251" lon="1.38958">
        <ele>330.6</ele>
        <time>2026-08-09T13:11:33.000Z</time>
      </trkpt>
      <trkpt lat="45.86245" lon="1.38941">
        <ele>330.7</ele>
        <time>2026-08-09T13:11:35.000Z</time>
      </trkpt>
      <trkpt lat="45.86242" lon="1.38916">
        <ele>330.4</ele>
        <time>2026-08-09T13:11:38.000Z</time>
      </trkpt>
      <trkpt lat="45.86241" lon="1.38908">
        <ele>330.1</ele>
        <time>2026-08-09T13:11:39.000Z</time>
      </trkpt>
      <trkpt lat="45.86238" lon="1.38873">
        <ele>329.3</ele>
        <time>2026-08-09T13:11:44.000Z</time>
      </trkpt>
      <trkpt lat="45.86237" lon="1.38866">
        <ele>329.1</ele>
        <time>2026-08-09T13:11:45.000Z</time>
      </trkpt>
      <trkpt lat="45.86236" lon="1.38852">
        <ele>328.7</ele>
        <time>2026-08-09T13:11:47.000Z</time>
      </trkpt>
      <trkpt lat="45.86237" lon="1.38837">
        <ele>328.2</ele>
        <time>2026-08-09T13:11:49.000Z</time>
      </trkpt>
      <trkpt lat="45.86237" lon="1.3883">
        <ele>328</ele>
        <time>2026-08-09T13:11:50.000Z</time>
      </trkpt>
      <trkpt lat="45.86232" lon="1.38816">
        <ele>327.3</ele>
        <time>2026-08-09T13:11:52.000Z</time>
      </trkpt>
      <trkpt lat="45.86228" lon="1.38811">
        <ele>326.8</ele>
        <time>2026-08-09T13:11:53.000Z</time>
      </trkpt>
      <trkpt lat="45.86223" lon="1.38805">
        <ele>326.1</ele>
        <time>2026-08-09T13:11:54.000Z</time>
      </trkpt>
      <trkpt lat="45.86213" lon="1.38794">
        <ele>325.9</ele>
        <time>2026-08-09T13:11:56.000Z</time>
      </trkpt>
      <trkpt lat="45.86203" lon="1.38783">
        <ele>325.6</ele>
        <time>2026-08-09T13:11:58.000Z</time>
      </trkpt>
      <trkpt lat="45.86194" lon="1.38771">
        <ele>325</ele>
        <time>2026-08-09T13:12:00.000Z</time>
      </trkpt>
      <trkpt lat="45.86191" lon="1.38765">
        <ele>324.7</ele>
        <time>2026-08-09T13:12:01.000Z</time>
      </trkpt>
      <trkpt lat="45.86189" lon="1.38757">
        <ele>324.5</ele>
        <time>2026-08-09T13:12:02.000Z</time>
      </trkpt>
      <trkpt lat="45.86187" lon="1.38749">
        <ele>324.5</ele>
        <time>2026-08-09T13:12:03.000Z</time>
      </trkpt>
      <trkpt lat="45.86184" lon="1.38722">
        <ele>324.6</ele>
        <time>2026-08-09T13:12:07.000Z</time>
      </trkpt>
      <trkpt lat="45.86181" lon="1.38675">
        <ele>324.5</ele>
        <time>2026-08-09T13:12:15.000Z</time>
      </trkpt>
      <trkpt lat="45.86181" lon="1.38667">
        <ele>324.5</ele>
        <time>2026-08-09T13:12:18.000Z</time>
      </trkpt>
      <trkpt lat="45.86181" lon="1.38667">
        <ele>324.5</ele>
        <time>2026-08-09T13:12:19.000Z</time>
      </trkpt>
      <trkpt lat="45.8618" lon="1.38675">
        <ele>324.5</ele>
        <time>2026-08-09T13:12:22.000Z</time>
      </trkpt>
      <trkpt lat="45.86181" lon="1.3868">
        <ele>324.5</ele>
        <time>2026-08-09T13:12:24.000Z</time>
      </trkpt>
      <trkpt lat="45.86183" lon="1.38684">
        <ele>324.6</ele>
        <time>2026-08-09T13:12:26.000Z</time>
      </trkpt>
      <trkpt lat="45.86187" lon="1.38685">
        <ele>324.7</ele>
        <time>2026-08-09T13:12:29.000Z</time>
      </trkpt>
      <trkpt lat="45.86191" lon="1.3868">
        <ele>324.9</ele>
        <time>2026-08-09T13:12:34.000Z</time>
      </trkpt>
      <trkpt lat="45.86193" lon="1.38679">
        <ele>324.9</ele>
        <time>2026-08-09T13:12:35.000Z</time>
      </trkpt>
      <trkpt lat="45.86195" lon="1.3868">
        <ele>325</ele>
        <time>2026-08-09T13:12:37.000Z</time>
      </trkpt>
      <trkpt lat="45.86196" lon="1.3868">
        <ele>325.1</ele>
        <time>2026-08-09T13:12:38.000Z</time>
      </trkpt>
      <trkpt lat="45.86197" lon="1.3868">
        <ele>325.2</ele>
        <time>2026-08-09T13:12:39.000Z</time>
      </trkpt>
      <trkpt lat="45.86205" lon="1.3868">
        <ele>325.7</ele>
        <time>2026-08-09T13:12:44.000Z</time>
      </trkpt>
      <trkpt lat="45.86206" lon="1.38679">
        <ele>325.8</ele>
        <time>2026-08-09T13:12:45.000Z</time>
      </trkpt>
      <trkpt lat="45.86208" lon="1.38678">
        <ele>326</ele>
        <time>2026-08-09T13:12:47.000Z</time>
      </trkpt>
      <trkpt lat="45.8621" lon="1.38677">
        <ele>326.1</ele>
        <time>2026-08-09T13:12:48.000Z</time>
      </trkpt>
      <trkpt lat="45.86211" lon="1.38676">
        <ele>326.2</ele>
        <time>2026-08-09T13:12:49.000Z</time>
      </trkpt>
      <trkpt lat="45.86218" lon="1.38672">
        <ele>326.7</ele>
        <time>2026-08-09T13:12:53.000Z</time>
      </trkpt>
      <trkpt lat="45.86222" lon="1.38668">
        <ele>327</ele>
        <time>2026-08-09T13:12:56.000Z</time>
      </trkpt>
      <trkpt lat="45.86226" lon="1.38668">
        <ele>327.3</ele>
        <time>2026-08-09T13:12:58.000Z</time>
      </trkpt>
      <trkpt lat="45.86239" lon="1.38657">
        <ele>327.8</ele>
        <time>2026-08-09T13:13:05.000Z</time>
      </trkpt>
      <trkpt lat="45.86241" lon="1.38654">
        <ele>327.7</ele>
        <time>2026-08-09T13:13:06.000Z</time>
      </trkpt>
      <trkpt lat="45.8625" lon="1.38644">
        <ele>327.4</ele>
        <time>2026-08-09T13:13:10.000Z</time>
      </trkpt>
      <trkpt lat="45.86265" lon="1.38623">
        <ele>326.7</ele>
        <time>2026-08-09T13:13:16.000Z</time>
      </trkpt>
      <trkpt lat="45.86273" lon="1.3861">
        <ele>325.9</ele>
        <time>2026-08-09T13:13:19.000Z</time>
      </trkpt>
      <trkpt lat="45.86284" lon="1.38597">
        <ele>325.5</ele>
        <time>2026-08-09T13:13:22.000Z</time>
      </trkpt>
      <trkpt lat="45.86308" lon="1.38561">
        <ele>323.5</ele>
        <time>2026-08-09T13:13:29.000Z</time>
      </trkpt>
      <trkpt lat="45.86312" lon="1.38557">
        <ele>323.3</ele>
        <time>2026-08-09T13:13:30.000Z</time>
      </trkpt>
      <trkpt lat="45.8632" lon="1.38548">
        <ele>323.1</ele>
        <time>2026-08-09T13:13:33.000Z</time>
      </trkpt>
      <trkpt lat="45.86322" lon="1.38544">
        <ele>322.9</ele>
        <time>2026-08-09T13:13:34.000Z</time>
      </trkpt>
      <trkpt lat="45.86338" lon="1.38519">
        <ele>321.8</ele>
        <time>2026-08-09T13:13:39.000Z</time>
      </trkpt>
      <trkpt lat="45.86362" lon="1.38486">
        <ele>320.5</ele>
        <time>2026-08-09T13:13:45.000Z</time>
      </trkpt>
      <trkpt lat="45.86371" lon="1.38473">
        <ele>320.4</ele>
        <time>2026-08-09T13:13:47.000Z</time>
      </trkpt>
      <trkpt lat="45.86396" lon="1.38438">
        <ele>319</ele>
        <time>2026-08-09T13:13:52.000Z</time>
      </trkpt>
      <trkpt lat="45.86423" lon="1.38396">
        <ele>318.5</ele>
        <time>2026-08-09T13:13:58.000Z</time>
      </trkpt>
      <trkpt lat="45.86437" lon="1.38379">
        <ele>318.2</ele>
        <time>2026-08-09T13:14:01.000Z</time>
      </trkpt>
      <trkpt lat="45.86446" lon="1.38369">
        <ele>318.3</ele>
        <time>2026-08-09T13:14:03.000Z</time>
      </trkpt>
      <trkpt lat="45.86453" lon="1.38358">
        <ele>318.3</ele>
        <time>2026-08-09T13:14:05.000Z</time>
      </trkpt>
      <trkpt lat="45.86458" lon="1.38346">
        <ele>318.8</ele>
        <time>2026-08-09T13:14:07.000Z</time>
      </trkpt>
      <trkpt lat="45.86471" lon="1.38327">
        <ele>319.7</ele>
        <time>2026-08-09T13:14:12.000Z</time>
      </trkpt>
      <trkpt lat="45.86481" lon="1.38313">
        <ele>319.6</ele>
        <time>2026-08-09T13:14:18.000Z</time>
      </trkpt>
      <trkpt lat="45.86489" lon="1.38299">
        <ele>319.6</ele>
        <time>2026-08-09T13:14:24.000Z</time>
      </trkpt>
      <trkpt lat="45.86496" lon="1.38289">
        <ele>319.8</ele>
        <time>2026-08-09T13:14:29.000Z</time>
      </trkpt>
      <trkpt lat="45.86497" lon="1.38284">
        <ele>319.9</ele>
        <time>2026-08-09T13:14:31.000Z</time>
      </trkpt>
      <trkpt lat="45.865" lon="1.3828">
        <ele>320</ele>
        <time>2026-08-09T13:14:33.000Z</time>
      </trkpt>
      <trkpt lat="45.86504" lon="1.38273">
        <ele>319.8</ele>
        <time>2026-08-09T13:14:36.000Z</time>
      </trkpt>
      <trkpt lat="45.86505" lon="1.38267">
        <ele>319.6</ele>
        <time>2026-08-09T13:14:38.000Z</time>
      </trkpt>
      <trkpt lat="45.86507" lon="1.38261">
        <ele>319.4</ele>
        <time>2026-08-09T13:14:40.000Z</time>
      </trkpt>
      <trkpt lat="45.86512" lon="1.38251">
        <ele>319</ele>
        <time>2026-08-09T13:14:43.000Z</time>
      </trkpt>
      <trkpt lat="45.86519" lon="1.38231">
        <ele>318.6</ele>
        <time>2026-08-09T13:14:48.000Z</time>
      </trkpt>
      <trkpt lat="45.86521" lon="1.38218">
        <ele>318.1</ele>
        <time>2026-08-09T13:14:51.000Z</time>
      </trkpt>
      <trkpt lat="45.86524" lon="1.38207">
        <ele>317.6</ele>
        <time>2026-08-09T13:14:53.000Z</time>
      </trkpt>
      <trkpt lat="45.86527" lon="1.38197">
        <ele>317.1</ele>
        <time>2026-08-09T13:14:55.000Z</time>
      </trkpt>
      <trkpt lat="45.86534" lon="1.38178">
        <ele>316.2</ele>
        <time>2026-08-09T13:14:59.000Z</time>
      </trkpt>
      <trkpt lat="45.86537" lon="1.38169">
        <ele>315.8</ele>
        <time>2026-08-09T13:15:01.000Z</time>
      </trkpt>
      <trkpt lat="45.86543" lon="1.38147">
        <ele>315.5</ele>
        <time>2026-08-09T13:15:05.000Z</time>
      </trkpt>
      <trkpt lat="45.86549" lon="1.38127">
        <ele>314.8</ele>
        <time>2026-08-09T13:15:08.000Z</time>
      </trkpt>
      <trkpt lat="45.86558" lon="1.38098">
        <ele>313.4</ele>
        <time>2026-08-09T13:15:12.000Z</time>
      </trkpt>
      <trkpt lat="45.86565" lon="1.38077">
        <ele>312.6</ele>
        <time>2026-08-09T13:15:15.000Z</time>
      </trkpt>
      <trkpt lat="45.86577" lon="1.38042">
        <ele>311.3</ele>
        <time>2026-08-09T13:15:20.000Z</time>
      </trkpt>
      <trkpt lat="45.86579" lon="1.38036">
        <ele>311.2</ele>
        <time>2026-08-09T13:15:21.000Z</time>
      </trkpt>
      <trkpt lat="45.86582" lon="1.38026">
        <ele>311</ele>
        <time>2026-08-09T13:15:22.000Z</time>
      </trkpt>
      <trkpt lat="45.86591" lon="1.38002">
        <ele>309.8</ele>
        <time>2026-08-09T13:15:25.000Z</time>
      </trkpt>
      <trkpt lat="45.86595" lon="1.37986">
        <ele>309.3</ele>
        <time>2026-08-09T13:15:27.000Z</time>
      </trkpt>
      <trkpt lat="45.86601" lon="1.37951">
        <ele>308.5</ele>
        <time>2026-08-09T13:15:31.000Z</time>
      </trkpt>
      <trkpt lat="45.86604" lon="1.37934">
        <ele>307.9</ele>
        <time>2026-08-09T13:15:33.000Z</time>
      </trkpt>
      <trkpt lat="45.86607" lon="1.37916">
        <ele>307.2</ele>
        <time>2026-08-09T13:15:35.000Z</time>
      </trkpt>
      <trkpt lat="45.86612" lon="1.37878">
        <ele>305.6</ele>
        <time>2026-08-09T13:15:39.000Z</time>
      </trkpt>
      <trkpt lat="45.86615" lon="1.37859">
        <ele>304.9</ele>
        <time>2026-08-09T13:15:41.000Z</time>
      </trkpt>
      <trkpt lat="45.8662" lon="1.37829">
        <ele>303.9</ele>
        <time>2026-08-09T13:15:44.000Z</time>
      </trkpt>
      <trkpt lat="45.86626" lon="1.37786">
        <ele>302.7</ele>
        <time>2026-08-09T13:15:48.000Z</time>
      </trkpt>
      <trkpt lat="45.86627" lon="1.37775">
        <ele>302.5</ele>
        <time>2026-08-09T13:15:49.000Z</time>
      </trkpt>
      <trkpt lat="45.8663" lon="1.37743">
        <ele>301.9</ele>
        <time>2026-08-09T13:15:52.000Z</time>
      </trkpt>
      <trkpt lat="45.86635" lon="1.37706">
        <ele>302.7</ele>
        <time>2026-08-09T13:15:56.000Z</time>
      </trkpt>
      <trkpt lat="45.86636" lon="1.37698">
        <ele>302.8</ele>
        <time>2026-08-09T13:15:57.000Z</time>
      </trkpt>
      <trkpt lat="45.86641" lon="1.37663">
        <ele>303.1</ele>
        <time>2026-08-09T13:16:02.000Z</time>
      </trkpt>
      <trkpt lat="45.86648" lon="1.37631">
        <ele>303.4</ele>
        <time>2026-08-09T13:16:07.000Z</time>
      </trkpt>
      <trkpt lat="45.86652" lon="1.37619">
        <ele>303.8</ele>
        <time>2026-08-09T13:16:09.000Z</time>
      </trkpt>
      <trkpt lat="45.86669" lon="1.37575">
        <ele>304.1</ele>
        <time>2026-08-09T13:16:17.000Z</time>
      </trkpt>
      <trkpt lat="45.86689" lon="1.37527">
        <ele>305.5</ele>
        <time>2026-08-09T13:16:27.000Z</time>
      </trkpt>
      <trkpt lat="45.867" lon="1.37499">
        <ele>305.4</ele>
        <time>2026-08-09T13:16:33.000Z</time>
      </trkpt>
      <trkpt lat="45.86722" lon="1.37445">
        <ele>305.9</ele>
        <time>2026-08-09T13:16:44.000Z</time>
      </trkpt>
      <trkpt lat="45.86731" lon="1.37421">
        <ele>305.2</ele>
        <time>2026-08-09T13:16:49.000Z</time>
      </trkpt>
      <trkpt lat="45.86736" lon="1.37412">
        <ele>304.9</ele>
        <time>2026-08-09T13:16:51.000Z</time>
      </trkpt>
      <trkpt lat="45.86757" lon="1.37358">
        <ele>304.9</ele>
        <time>2026-08-09T13:17:02.000Z</time>
      </trkpt>
      <trkpt lat="45.86774" lon="1.37321">
        <ele>304.8</ele>
        <time>2026-08-09T13:17:10.000Z</time>
      </trkpt>
      <trkpt lat="45.8679" lon="1.37283">
        <ele>305.4</ele>
        <time>2026-08-09T13:17:18.000Z</time>
      </trkpt>
      <trkpt lat="45.86809" lon="1.37241">
        <ele>306.3</ele>
        <time>2026-08-09T13:17:28.000Z</time>
      </trkpt>
      <trkpt lat="45.86815" lon="1.37223">
        <ele>306.6</ele>
        <time>2026-08-09T13:17:32.000Z</time>
      </trkpt>
      <trkpt lat="45.86824" lon="1.37203">
        <ele>306.8</ele>
        <time>2026-08-09T13:17:37.000Z</time>
      </trkpt>
      <trkpt lat="45.86839" lon="1.37169">
        <ele>306.8</ele>
        <time>2026-08-09T13:17:45.000Z</time>
      </trkpt>
      <trkpt lat="45.86856" lon="1.37121">
        <ele>307.1</ele>
        <time>2026-08-09T13:17:55.000Z</time>
      </trkpt>
      <trkpt lat="45.86857" lon="1.37077">
        <ele>306.1</ele>
        <time>2026-08-09T13:18:03.000Z</time>
      </trkpt>
      <trkpt lat="45.86849" lon="1.37046">
        <ele>306.3</ele>
        <time>2026-08-09T13:18:09.000Z</time>
      </trkpt>
      <trkpt lat="45.8684" lon="1.37011">
        <ele>306</ele>
        <time>2026-08-09T13:18:15.000Z</time>
      </trkpt>
      <trkpt lat="45.86839" lon="1.37005">
        <ele>306</ele>
        <time>2026-08-09T13:18:16.000Z</time>
      </trkpt>
      <trkpt lat="45.8683" lon="1.36976">
        <ele>305.1</ele>
        <time>2026-08-09T13:18:21.000Z</time>
      </trkpt>
      <trkpt lat="45.86816" lon="1.36919">
        <ele>304.4</ele>
        <time>2026-08-09T13:18:30.000Z</time>
      </trkpt>
      <trkpt lat="45.86814" lon="1.36912">
        <ele>304.1</ele>
        <time>2026-08-09T13:18:31.000Z</time>
      </trkpt>
      <trkpt lat="45.86805" lon="1.36875">
        <ele>302.9</ele>
        <time>2026-08-09T13:18:36.000Z</time>
      </trkpt>
      <trkpt lat="45.86793" lon="1.36832">
        <ele>300.7</ele>
        <time>2026-08-09T13:18:41.000Z</time>
      </trkpt>
      <trkpt lat="45.86791" lon="1.36824">
        <ele>300.6</ele>
        <time>2026-08-09T13:18:42.000Z</time>
      </trkpt>
      <trkpt lat="45.86784" lon="1.36801">
        <ele>300.5</ele>
        <time>2026-08-09T13:18:45.000Z</time>
      </trkpt>
      <trkpt lat="45.86778" lon="1.3678">
        <ele>300</ele>
        <time>2026-08-09T13:18:48.000Z</time>
      </trkpt>
      <trkpt lat="45.86775" lon="1.36772">
        <ele>299.7</ele>
        <time>2026-08-09T13:18:49.000Z</time>
      </trkpt>
      <trkpt lat="45.86771" lon="1.36759">
        <ele>299.4</ele>
        <time>2026-08-09T13:18:51.000Z</time>
      </trkpt>
      <trkpt lat="45.86766" lon="1.36744">
        <ele>299.4</ele>
        <time>2026-08-09T13:18:53.000Z</time>
      </trkpt>
      <trkpt lat="45.86755" lon="1.36704">
        <ele>299.2</ele>
        <time>2026-08-09T13:18:59.000Z</time>
      </trkpt>
      <trkpt lat="45.86746" lon="1.36662">
        <ele>298.6</ele>
        <time>2026-08-09T13:19:05.000Z</time>
      </trkpt>
      <trkpt lat="45.86742" lon="1.36647">
        <ele>298.1</ele>
        <time>2026-08-09T13:19:07.000Z</time>
      </trkpt>
      <trkpt lat="45.86733" lon="1.36612">
        <ele>298</ele>
        <time>2026-08-09T13:19:12.000Z</time>
      </trkpt>
      <trkpt lat="45.8673" lon="1.36599">
        <ele>297.7</ele>
        <time>2026-08-09T13:19:14.000Z</time>
      </trkpt>
      <trkpt lat="45.86717" lon="1.36548">
        <ele>296.7</ele>
        <time>2026-08-09T13:19:21.000Z</time>
      </trkpt>
      <trkpt lat="45.8671" lon="1.36527">
        <ele>296</ele>
        <time>2026-08-09T13:19:24.000Z</time>
      </trkpt>
      <trkpt lat="45.867" lon="1.36486">
        <ele>294.5</ele>
        <time>2026-08-09T13:19:29.000Z</time>
      </trkpt>
      <trkpt lat="45.86698" lon="1.36479">
        <ele>294.3</ele>
        <time>2026-08-09T13:19:30.000Z</time>
      </trkpt>
      <trkpt lat="45.86687" lon="1.36437">
        <ele>292.7</ele>
        <time>2026-08-09T13:19:35.000Z</time>
      </trkpt>
      <trkpt lat="45.86681" lon="1.36412">
        <ele>292</ele>
        <time>2026-08-09T13:19:38.000Z</time>
      </trkpt>
      <trkpt lat="45.86674" lon="1.36386">
        <ele>291.9</ele>
        <time>2026-08-09T13:19:41.000Z</time>
      </trkpt>
      <trkpt lat="45.86663" lon="1.36354">
        <ele>291</ele>
        <time>2026-08-09T13:19:45.000Z</time>
      </trkpt>
      <trkpt lat="45.86661" lon="1.36345">
        <ele>291</ele>
        <time>2026-08-09T13:19:46.000Z</time>
      </trkpt>
      <trkpt lat="45.86643" lon="1.36309">
        <ele>290.4</ele>
        <time>2026-08-09T13:19:51.000Z</time>
      </trkpt>
      <trkpt lat="45.8662" lon="1.36277">
        <ele>289.3</ele>
        <time>2026-08-09T13:19:56.000Z</time>
      </trkpt>
      <trkpt lat="45.86612" lon="1.36265">
        <ele>288.6</ele>
        <time>2026-08-09T13:19:58.000Z</time>
      </trkpt>
      <trkpt lat="45.86599" lon="1.36243">
        <ele>287.5</ele>
        <time>2026-08-09T13:20:01.000Z</time>
      </trkpt>
      <trkpt lat="45.86583" lon="1.36211">
        <ele>285</ele>
        <time>2026-08-09T13:20:05.000Z</time>
      </trkpt>
      <trkpt lat="45.86579" lon="1.36203">
        <ele>284.3</ele>
        <time>2026-08-09T13:20:06.000Z</time>
      </trkpt>
      <trkpt lat="45.86572" lon="1.36187">
        <ele>283.4</ele>
        <time>2026-08-09T13:20:08.000Z</time>
      </trkpt>
      <trkpt lat="45.86566" lon="1.3617">
        <ele>283</ele>
        <time>2026-08-09T13:20:10.000Z</time>
      </trkpt>
      <trkpt lat="45.8656" lon="1.36152">
        <ele>282.6</ele>
        <time>2026-08-09T13:20:12.000Z</time>
      </trkpt>
      <trkpt lat="45.86558" lon="1.36143">
        <ele>282.4</ele>
        <time>2026-08-09T13:20:13.000Z</time>
      </trkpt>
      <trkpt lat="45.8655" lon="1.36106">
        <ele>279.9</ele>
        <time>2026-08-09T13:20:17.000Z</time>
      </trkpt>
      <trkpt lat="45.86549" lon="1.36097">
        <ele>279.9</ele>
        <time>2026-08-09T13:20:18.000Z</time>
      </trkpt>
      <trkpt lat="45.86547" lon="1.36077">
        <ele>279.5</ele>
        <time>2026-08-09T13:20:20.000Z</time>
      </trkpt>
      <trkpt lat="45.86544" lon="1.36038">
        <ele>277.6</ele>
        <time>2026-08-09T13:20:24.000Z</time>
      </trkpt>
      <trkpt lat="45.86543" lon="1.36016">
        <ele>277.1</ele>
        <time>2026-08-09T13:20:26.000Z</time>
      </trkpt>
      <trkpt lat="45.86542" lon="1.36006">
        <ele>276.7</ele>
        <time>2026-08-09T13:20:27.000Z</time>
      </trkpt>
      <trkpt lat="45.86537" lon="1.35976">
        <ele>274.8</ele>
        <time>2026-08-09T13:20:30.000Z</time>
      </trkpt>
      <trkpt lat="45.86534" lon="1.35966">
        <ele>274.1</ele>
        <time>2026-08-09T13:20:31.000Z</time>
      </trkpt>
      <trkpt lat="45.8653" lon="1.35957">
        <ele>273.4</ele>
        <time>2026-08-09T13:20:32.000Z</time>
      </trkpt>
      <trkpt lat="45.86525" lon="1.35947">
        <ele>272.6</ele>
        <time>2026-08-09T13:20:33.000Z</time>
      </trkpt>
      <trkpt lat="45.8652" lon="1.35938">
        <ele>272</ele>
        <time>2026-08-09T13:20:34.000Z</time>
      </trkpt>
      <trkpt lat="45.86507" lon="1.35922">
        <ele>271.2</ele>
        <time>2026-08-09T13:20:36.000Z</time>
      </trkpt>
      <trkpt lat="45.86485" lon="1.359">
        <ele>269.5</ele>
        <time>2026-08-09T13:20:39.000Z</time>
      </trkpt>
      <trkpt lat="45.86465" lon="1.3588">
        <ele>268.8</ele>
        <time>2026-08-09T13:20:42.000Z</time>
      </trkpt>
      <trkpt lat="45.86458" lon="1.35874">
        <ele>268.8</ele>
        <time>2026-08-09T13:20:43.000Z</time>
      </trkpt>
      <trkpt lat="45.8644" lon="1.35855">
        <ele>268.6</ele>
        <time>2026-08-09T13:20:46.000Z</time>
      </trkpt>
      <trkpt lat="45.86434" lon="1.35848">
        <ele>268.1</ele>
        <time>2026-08-09T13:20:47.000Z</time>
      </trkpt>
      <trkpt lat="45.86417" lon="1.35825">
        <ele>267</ele>
        <time>2026-08-09T13:20:50.000Z</time>
      </trkpt>
      <trkpt lat="45.86408" lon="1.35806">
        <ele>267.3</ele>
        <time>2026-08-09T13:20:52.000Z</time>
      </trkpt>
      <trkpt lat="45.86398" lon="1.35774">
        <ele>266.4</ele>
        <time>2026-08-09T13:20:55.000Z</time>
      </trkpt>
      <trkpt lat="45.86391" lon="1.35741">
        <ele>264.7</ele>
        <time>2026-08-09T13:20:58.000Z</time>
      </trkpt>
      <trkpt lat="45.86389" lon="1.3573">
        <ele>264.3</ele>
        <time>2026-08-09T13:20:59.000Z</time>
      </trkpt>
      <trkpt lat="45.86385" lon="1.35695">
        <ele>263.2</ele>
        <time>2026-08-09T13:21:02.000Z</time>
      </trkpt>
      <trkpt lat="45.86384" lon="1.35683">
        <ele>262.6</ele>
        <time>2026-08-09T13:21:03.000Z</time>
      </trkpt>
      <trkpt lat="45.8638" lon="1.35648">
        <ele>259.8</ele>
        <time>2026-08-09T13:21:06.000Z</time>
      </trkpt>
      <trkpt lat="45.86374" lon="1.35614">
        <ele>257.5</ele>
        <time>2026-08-09T13:21:09.000Z</time>
      </trkpt>
      <trkpt lat="45.8637" lon="1.35603">
        <ele>257</ele>
        <time>2026-08-09T13:21:10.000Z</time>
      </trkpt>
      <trkpt lat="45.86364" lon="1.35578">
        <ele>256.8</ele>
        <time>2026-08-09T13:21:12.000Z</time>
      </trkpt>
      <trkpt lat="45.86361" lon="1.35566">
        <ele>257</ele>
        <time>2026-08-09T13:21:13.000Z</time>
      </trkpt>
      <trkpt lat="45.86359" lon="1.35554">
        <ele>257.5</ele>
        <time>2026-08-09T13:21:14.000Z</time>
      </trkpt>
      <trkpt lat="45.86356" lon="1.35543">
        <ele>257.4</ele>
        <time>2026-08-09T13:21:15.000Z</time>
      </trkpt>
      <trkpt lat="45.86354" lon="1.35532">
        <ele>257.4</ele>
        <time>2026-08-09T13:21:16.000Z</time>
      </trkpt>
      <trkpt lat="45.86347" lon="1.355">
        <ele>258.5</ele>
        <time>2026-08-09T13:21:19.000Z</time>
      </trkpt>
      <trkpt lat="45.86345" lon="1.3548">
        <ele>257.8</ele>
        <time>2026-08-09T13:21:21.000Z</time>
      </trkpt>
      <trkpt lat="45.86344" lon="1.35471">
        <ele>257.4</ele>
        <time>2026-08-09T13:21:22.000Z</time>
      </trkpt>
      <trkpt lat="45.86341" lon="1.35445">
        <ele>256.2</ele>
        <time>2026-08-09T13:21:25.000Z</time>
      </trkpt>
      <trkpt lat="45.86342" lon="1.35437">
        <ele>256.3</ele>
        <time>2026-08-09T13:21:26.000Z</time>
      </trkpt>
      <trkpt lat="45.86344" lon="1.3542">
        <ele>256.3</ele>
        <time>2026-08-09T13:21:28.000Z</time>
      </trkpt>
      <trkpt lat="45.86346" lon="1.35412">
        <ele>256.7</ele>
        <time>2026-08-09T13:21:29.000Z</time>
      </trkpt>
      <trkpt lat="45.86351" lon="1.35397">
        <ele>257.4</ele>
        <time>2026-08-09T13:21:31.000Z</time>
      </trkpt>
      <trkpt lat="45.86358" lon="1.35384">
        <ele>257.1</ele>
        <time>2026-08-09T13:21:33.000Z</time>
      </trkpt>
      <trkpt lat="45.86373" lon="1.35363">
        <ele>256.6</ele>
        <time>2026-08-09T13:21:37.000Z</time>
      </trkpt>
      <trkpt lat="45.86376" lon="1.3536">
        <ele>256.6</ele>
        <time>2026-08-09T13:21:38.000Z</time>
      </trkpt>
      <trkpt lat="45.86391" lon="1.35346">
        <ele>256.9</ele>
        <time>2026-08-09T13:21:42.000Z</time>
      </trkpt>
      <trkpt lat="45.86395" lon="1.35342">
        <ele>257</ele>
        <time>2026-08-09T13:21:43.000Z</time>
      </trkpt>
      <trkpt lat="45.86398" lon="1.35337">
        <ele>257.2</ele>
        <time>2026-08-09T13:21:44.000Z</time>
      </trkpt>
      <trkpt lat="45.86405" lon="1.35322">
        <ele>257.6</ele>
        <time>2026-08-09T13:21:47.000Z</time>
      </trkpt>
      <trkpt lat="45.86407" lon="1.35316">
        <ele>257.7</ele>
        <time>2026-08-09T13:21:48.000Z</time>
      </trkpt>
      <trkpt lat="45.86408" lon="1.3531">
        <ele>258</ele>
        <time>2026-08-09T13:21:49.000Z</time>
      </trkpt>
      <trkpt lat="45.86409" lon="1.35287">
        <ele>257.3</ele>
        <time>2026-08-09T13:21:53.000Z</time>
      </trkpt>
      <trkpt lat="45.86406" lon="1.3526">
        <ele>257.3</ele>
        <time>2026-08-09T13:21:58.000Z</time>
      </trkpt>
      <trkpt lat="45.86399" lon="1.35226">
        <ele>258.2</ele>
        <time>2026-08-09T13:22:05.000Z</time>
      </trkpt>
      <trkpt lat="45.86397" lon="1.35217">
        <ele>258.3</ele>
        <time>2026-08-09T13:22:07.000Z</time>
      </trkpt>
      <trkpt lat="45.86393" lon="1.35193">
        <ele>257.7</ele>
        <time>2026-08-09T13:22:13.000Z</time>
      </trkpt>
      <trkpt lat="45.86387" lon="1.35174">
        <ele>258.4</ele>
        <time>2026-08-09T13:22:18.000Z</time>
      </trkpt>
      <trkpt lat="45.86382" lon="1.35158">
        <ele>258.8</ele>
        <time>2026-08-09T13:22:22.000Z</time>
      </trkpt>
      <trkpt lat="45.86375" lon="1.35133">
        <ele>258.8</ele>
        <time>2026-08-09T13:22:29.000Z</time>
      </trkpt>
      <trkpt lat="45.86369" lon="1.35113">
        <ele>259.5</ele>
        <time>2026-08-09T13:22:36.000Z</time>
      </trkpt>
      <trkpt lat="45.86367" lon="1.35098">
        <ele>259.8</ele>
        <time>2026-08-09T13:22:42.000Z</time>
      </trkpt>
      <trkpt lat="45.86365" lon="1.35087">
        <ele>260</ele>
        <time>2026-08-09T13:22:47.000Z</time>
      </trkpt>
      <trkpt lat="45.86365" lon="1.35083">
        <ele>260.2</ele>
        <time>2026-08-09T13:22:49.000Z</time>
      </trkpt>
      <trkpt lat="45.86363" lon="1.35077">
        <ele>260.5</ele>
        <time>2026-08-09T13:22:52.000Z</time>
      </trkpt>
      <trkpt lat="45.86362" lon="1.35073">
        <ele>260.7</ele>
        <time>2026-08-09T13:22:54.000Z</time>
      </trkpt>
      <trkpt lat="45.86362" lon="1.3507">
        <ele>261</ele>
        <time>2026-08-09T13:22:56.000Z</time>
      </trkpt>
      <trkpt lat="45.86362" lon="1.35063">
        <ele>261.5</ele>
        <time>2026-08-09T13:22:59.000Z</time>
      </trkpt>
      <trkpt lat="45.86361" lon="1.35059">
        <ele>261.8</ele>
        <time>2026-08-09T13:23:01.000Z</time>
      </trkpt>
      <trkpt lat="45.86361" lon="1.35049">
        <ele>262.2</ele>
        <time>2026-08-09T13:23:06.000Z</time>
      </trkpt>
      <trkpt lat="45.86361" lon="1.35044">
        <ele>262.4</ele>
        <time>2026-08-09T13:23:08.000Z</time>
      </trkpt>
      <trkpt lat="45.8636" lon="1.35036">
        <ele>262.7</ele>
        <time>2026-08-09T13:23:12.000Z</time>
      </trkpt>
      <trkpt lat="45.86361" lon="1.35032">
        <ele>262.8</ele>
        <time>2026-08-09T13:23:14.000Z</time>
      </trkpt>
      <trkpt lat="45.86358" lon="1.35013">
        <ele>263.4</ele>
        <time>2026-08-09T13:23:22.000Z</time>
      </trkpt>
      <trkpt lat="45.86355" lon="1.34992">
        <ele>263.8</ele>
        <time>2026-08-09T13:23:30.000Z</time>
      </trkpt>
      <trkpt lat="45.86352" lon="1.34983">
        <ele>263.9</ele>
        <time>2026-08-09T13:23:34.000Z</time>
      </trkpt>
      <trkpt lat="45.86351" lon="1.34975">
        <ele>264</ele>
        <time>2026-08-09T13:23:38.000Z</time>
      </trkpt>
      <trkpt lat="45.86351" lon="1.34964">
        <ele>264.5</ele>
        <time>2026-08-09T13:23:43.000Z</time>
      </trkpt>
      <trkpt lat="45.8635" lon="1.34956">
        <ele>264.9</ele>
        <time>2026-08-09T13:23:46.000Z</time>
      </trkpt>
      <trkpt lat="45.86349" lon="1.34952">
        <ele>265.2</ele>
        <time>2026-08-09T13:23:48.000Z</time>
      </trkpt>
      <trkpt lat="45.86349" lon="1.34947">
        <ele>265.4</ele>
        <time>2026-08-09T13:23:50.000Z</time>
      </trkpt>
      <trkpt lat="45.86348" lon="1.3494">
        <ele>265.7</ele>
        <time>2026-08-09T13:23:53.000Z</time>
      </trkpt>
      <trkpt lat="45.86346" lon="1.34928">
        <ele>266.1</ele>
        <time>2026-08-09T13:23:58.000Z</time>
      </trkpt>
      <trkpt lat="45.86346" lon="1.34919">
        <ele>266.4</ele>
        <time>2026-08-09T13:24:02.000Z</time>
      </trkpt>
      <trkpt lat="45.86346" lon="1.34915">
        <ele>266.6</ele>
        <time>2026-08-09T13:24:04.000Z</time>
      </trkpt>
      <trkpt lat="45.86346" lon="1.34913">
        <ele>266.8</ele>
        <time>2026-08-09T13:24:05.000Z</time>
      </trkpt>
      <trkpt lat="45.86344" lon="1.34889">
        <ele>268.7</ele>
        <time>2026-08-09T13:24:14.000Z</time>
      </trkpt>
      <trkpt lat="45.86342" lon="1.3487">
        <ele>269.1</ele>
        <time>2026-08-09T13:24:22.000Z</time>
      </trkpt>
      <trkpt lat="45.86342" lon="1.34868">
        <ele>269.1</ele>
        <time>2026-08-09T13:24:23.000Z</time>
      </trkpt>
      <trkpt lat="45.8634" lon="1.34853">
        <ele>269.5</ele>
        <time>2026-08-09T13:24:30.000Z</time>
      </trkpt>
      <trkpt lat="45.8634" lon="1.34848">
        <ele>269.6</ele>
        <time>2026-08-09T13:24:32.000Z</time>
      </trkpt>
      <trkpt lat="45.86338" lon="1.34833">
        <ele>270</ele>
        <time>2026-08-09T13:24:38.000Z</time>
      </trkpt>
      <trkpt lat="45.86337" lon="1.34826">
        <ele>270.3</ele>
        <time>2026-08-09T13:24:41.000Z</time>
      </trkpt>
      <trkpt lat="45.86337" lon="1.34822">
        <ele>270.4</ele>
        <time>2026-08-09T13:24:43.000Z</time>
      </trkpt>
      <trkpt lat="45.86335" lon="1.34804">
        <ele>271.1</ele>
        <time>2026-08-09T13:24:50.000Z</time>
      </trkpt>
      <trkpt lat="45.86332" lon="1.34789">
        <ele>271.6</ele>
        <time>2026-08-09T13:24:57.000Z</time>
      </trkpt>
      <trkpt lat="45.86331" lon="1.34773">
        <ele>272.3</ele>
        <time>2026-08-09T13:25:04.000Z</time>
      </trkpt>
      <trkpt lat="45.86329" lon="1.34762">
        <ele>273</ele>
        <time>2026-08-09T13:25:09.000Z</time>
      </trkpt>
      <trkpt lat="45.86329" lon="1.3476">
        <ele>273.2</ele>
        <time>2026-08-09T13:25:10.000Z</time>
      </trkpt>
      <trkpt lat="45.86327" lon="1.34747">
        <ele>273.9</ele>
        <time>2026-08-09T13:25:16.000Z</time>
      </trkpt>
      <trkpt lat="45.86327" lon="1.34745">
        <ele>273.9</ele>
        <time>2026-08-09T13:25:17.000Z</time>
      </trkpt>
      <trkpt lat="45.86326" lon="1.34744">
        <ele>274</ele>
        <time>2026-08-09T13:25:18.000Z</time>
      </trkpt>
      <trkpt lat="45.86323" lon="1.34733">
        <ele>274.3</ele>
        <time>2026-08-09T13:25:24.000Z</time>
      </trkpt>
      <trkpt lat="45.86322" lon="1.34721">
        <ele>274.7</ele>
        <time>2026-08-09T13:25:30.000Z</time>
      </trkpt>
      <trkpt lat="45.86321" lon="1.34718">
        <ele>274.8</ele>
        <time>2026-08-09T13:25:31.000Z</time>
      </trkpt>
      <trkpt lat="45.8632" lon="1.34707">
        <ele>275.3</ele>
        <time>2026-08-09T13:25:36.000Z</time>
      </trkpt>
      <trkpt lat="45.8632" lon="1.34703">
        <ele>275.6</ele>
        <time>2026-08-09T13:25:38.000Z</time>
      </trkpt>
      <trkpt lat="45.86319" lon="1.34695">
        <ele>276</ele>
        <time>2026-08-09T13:25:41.000Z</time>
      </trkpt>
      <trkpt lat="45.86319" lon="1.34689">
        <ele>276.2</ele>
        <time>2026-08-09T13:25:43.000Z</time>
      </trkpt>
      <trkpt lat="45.86319" lon="1.34684">
        <ele>276.4</ele>
        <time>2026-08-09T13:25:45.000Z</time>
      </trkpt>
      <trkpt lat="45.86319" lon="1.34667">
        <ele>277</ele>
        <time>2026-08-09T13:25:51.000Z</time>
      </trkpt>
      <trkpt lat="45.86318" lon="1.34663">
        <ele>277.1</ele>
        <time>2026-08-09T13:25:53.000Z</time>
      </trkpt>
      <trkpt lat="45.86316" lon="1.3465">
        <ele>277.6</ele>
        <time>2026-08-09T13:25:58.000Z</time>
      </trkpt>
      <trkpt lat="45.86315" lon="1.34643">
        <ele>277.9</ele>
        <time>2026-08-09T13:26:01.000Z</time>
      </trkpt>
      <trkpt lat="45.86315" lon="1.34641">
        <ele>277.9</ele>
        <time>2026-08-09T13:26:02.000Z</time>
      </trkpt>
      <trkpt lat="45.86314" lon="1.34623">
        <ele>279.2</ele>
        <time>2026-08-09T13:26:09.000Z</time>
      </trkpt>
      <trkpt lat="45.86311" lon="1.34614">
        <ele>279.8</ele>
        <time>2026-08-09T13:26:13.000Z</time>
      </trkpt>
      <trkpt lat="45.8631" lon="1.34608">
        <ele>280.3</ele>
        <time>2026-08-09T13:26:16.000Z</time>
      </trkpt>
      <trkpt lat="45.8631" lon="1.34599">
        <ele>280.9</ele>
        <time>2026-08-09T13:26:20.000Z</time>
      </trkpt>
      <trkpt lat="45.86309" lon="1.34597">
        <ele>281</ele>
        <time>2026-08-09T13:26:21.000Z</time>
      </trkpt>
      <trkpt lat="45.86309" lon="1.34594">
        <ele>281.3</ele>
        <time>2026-08-09T13:26:23.000Z</time>
      </trkpt>
      <trkpt lat="45.86305" lon="1.34582">
        <ele>282</ele>
        <time>2026-08-09T13:26:29.000Z</time>
      </trkpt>
      <trkpt lat="45.86303" lon="1.34578">
        <ele>282.2</ele>
        <time>2026-08-09T13:26:31.000Z</time>
      </trkpt>
      <trkpt lat="45.86301" lon="1.3457">
        <ele>282.7</ele>
        <time>2026-08-09T13:26:35.000Z</time>
      </trkpt>
      <trkpt lat="45.86301" lon="1.34567">
        <ele>282.8</ele>
        <time>2026-08-09T13:26:36.000Z</time>
      </trkpt>
      <trkpt lat="45.86297" lon="1.34557">
        <ele>283.3</ele>
        <time>2026-08-09T13:26:41.000Z</time>
      </trkpt>
      <trkpt lat="45.86297" lon="1.34553">
        <ele>283.5</ele>
        <time>2026-08-09T13:26:43.000Z</time>
      </trkpt>
      <trkpt lat="45.86294" lon="1.3454">
        <ele>284.2</ele>
        <time>2026-08-09T13:26:49.000Z</time>
      </trkpt>
      <trkpt lat="45.86292" lon="1.34537">
        <ele>284.4</ele>
        <time>2026-08-09T13:26:51.000Z</time>
      </trkpt>
      <trkpt lat="45.86292" lon="1.34535">
        <ele>284.5</ele>
        <time>2026-08-09T13:26:52.000Z</time>
      </trkpt>
      <trkpt lat="45.86291" lon="1.34533">
        <ele>284.6</ele>
        <time>2026-08-09T13:26:53.000Z</time>
      </trkpt>
      <trkpt lat="45.8629" lon="1.34527">
        <ele>284.9</ele>
        <time>2026-08-09T13:26:56.000Z</time>
      </trkpt>
      <trkpt lat="45.86289" lon="1.34525">
        <ele>285</ele>
        <time>2026-08-09T13:26:57.000Z</time>
      </trkpt>
      <trkpt lat="45.86286" lon="1.34515">
        <ele>285.5</ele>
        <time>2026-08-09T13:27:01.000Z</time>
      </trkpt>
      <trkpt lat="45.86284" lon="1.34506">
        <ele>286</ele>
        <time>2026-08-09T13:27:05.000Z</time>
      </trkpt>
      <trkpt lat="45.86279" lon="1.3449">
        <ele>287.1</ele>
        <time>2026-08-09T13:27:11.000Z</time>
      </trkpt>
      <trkpt lat="45.86278" lon="1.34488">
        <ele>287.3</ele>
        <time>2026-08-09T13:27:12.000Z</time>
      </trkpt>
      <trkpt lat="45.86275" lon="1.34474">
        <ele>288.4</ele>
        <time>2026-08-09T13:27:17.000Z</time>
      </trkpt>
      <trkpt lat="45.86274" lon="1.34473">
        <ele>288.5</ele>
        <time>2026-08-09T13:27:18.000Z</time>
      </trkpt>
      <trkpt lat="45.86272" lon="1.34469">
        <ele>288.6</ele>
        <time>2026-08-09T13:27:20.000Z</time>
      </trkpt>
      <trkpt lat="45.86265" lon="1.34451">
        <ele>289.2</ele>
        <time>2026-08-09T13:27:27.000Z</time>
      </trkpt>
      <trkpt lat="45.86262" lon="1.3444">
        <ele>289.7</ele>
        <time>2026-08-09T13:27:32.000Z</time>
      </trkpt>
      <trkpt lat="45.86261" lon="1.34437">
        <ele>289.8</ele>
        <time>2026-08-09T13:27:34.000Z</time>
      </trkpt>
      <trkpt lat="45.86257" lon="1.34423">
        <ele>290.5</ele>
        <time>2026-08-09T13:27:40.000Z</time>
      </trkpt>
      <trkpt lat="45.86255" lon="1.34418">
        <ele>290.7</ele>
        <time>2026-08-09T13:27:42.000Z</time>
      </trkpt>
      <trkpt lat="45.86255" lon="1.34415">
        <ele>290.9</ele>
        <time>2026-08-09T13:27:43.000Z</time>
      </trkpt>
      <trkpt lat="45.86253" lon="1.34409">
        <ele>291.2</ele>
        <time>2026-08-09T13:27:46.000Z</time>
      </trkpt>
      <trkpt lat="45.86249" lon="1.34404">
        <ele>291.4</ele>
        <time>2026-08-09T13:27:49.000Z</time>
      </trkpt>
      <trkpt lat="45.86247" lon="1.34395">
        <ele>292.1</ele>
        <time>2026-08-09T13:27:53.000Z</time>
      </trkpt>
      <trkpt lat="45.86246" lon="1.34394">
        <ele>292.2</ele>
        <time>2026-08-09T13:27:54.000Z</time>
      </trkpt>
      <trkpt lat="45.86241" lon="1.34385">
        <ele>292.8</ele>
        <time>2026-08-09T13:27:59.000Z</time>
      </trkpt>
      <trkpt lat="45.86238" lon="1.34379">
        <ele>293.2</ele>
        <time>2026-08-09T13:28:03.000Z</time>
      </trkpt>
      <trkpt lat="45.86234" lon="1.34374">
        <ele>293.5</ele>
        <time>2026-08-09T13:28:06.000Z</time>
      </trkpt>
      <trkpt lat="45.86233" lon="1.34372">
        <ele>293.6</ele>
        <time>2026-08-09T13:28:07.000Z</time>
      </trkpt>
      <trkpt lat="45.8623" lon="1.34368">
        <ele>293.8</ele>
        <time>2026-08-09T13:28:10.000Z</time>
      </trkpt>
      <trkpt lat="45.86222" lon="1.34357">
        <ele>294.4</ele>
        <time>2026-08-09T13:28:17.000Z</time>
      </trkpt>
      <trkpt lat="45.8622" lon="1.34356">
        <ele>294.6</ele>
        <time>2026-08-09T13:28:18.000Z</time>
      </trkpt>
      <trkpt lat="45.86213" lon="1.34347">
        <ele>295.4</ele>
        <time>2026-08-09T13:28:23.000Z</time>
      </trkpt>
      <trkpt lat="45.86211" lon="1.34342">
        <ele>295.8</ele>
        <time>2026-08-09T13:28:25.000Z</time>
      </trkpt>
      <trkpt lat="45.86209" lon="1.34335">
        <ele>296.3</ele>
        <time>2026-08-09T13:28:28.000Z</time>
      </trkpt>
      <trkpt lat="45.86204" lon="1.34328">
        <ele>296.7</ele>
        <time>2026-08-09T13:28:31.000Z</time>
      </trkpt>
      <trkpt lat="45.86202" lon="1.34321">
        <ele>297.2</ele>
        <time>2026-08-09T13:28:34.000Z</time>
      </trkpt>
      <trkpt lat="45.86197" lon="1.34304">
        <ele>298.2</ele>
        <time>2026-08-09T13:28:41.000Z</time>
      </trkpt>
      <trkpt lat="45.86196" lon="1.34297">
        <ele>298.3</ele>
        <time>2026-08-09T13:28:43.000Z</time>
      </trkpt>
      <trkpt lat="45.86198" lon="1.3428">
        <ele>299</ele>
        <time>2026-08-09T13:28:49.000Z</time>
      </trkpt>
      <trkpt lat="45.86197" lon="1.34278">
        <ele>299.1</ele>
        <time>2026-08-09T13:28:50.000Z</time>
      </trkpt>
      <trkpt lat="45.86196" lon="1.34277">
        <ele>299.1</ele>
        <time>2026-08-09T13:28:51.000Z</time>
      </trkpt>
      <trkpt lat="45.86196" lon="1.34269">
        <ele>299.3</ele>
        <time>2026-08-09T13:28:54.000Z</time>
      </trkpt>
      <trkpt lat="45.86196" lon="1.34259">
        <ele>299.7</ele>
        <time>2026-08-09T13:28:59.000Z</time>
      </trkpt>
      <trkpt lat="45.86197" lon="1.34253">
        <ele>299.9</ele>
        <time>2026-08-09T13:29:02.000Z</time>
      </trkpt>
      <trkpt lat="45.86198" lon="1.34238">
        <ele>300.7</ele>
        <time>2026-08-09T13:29:08.000Z</time>
      </trkpt>
      <trkpt lat="45.86199" lon="1.34236">
        <ele>300.8</ele>
        <time>2026-08-09T13:29:09.000Z</time>
      </trkpt>
      <trkpt lat="45.86199" lon="1.34234">
        <ele>300.9</ele>
        <time>2026-08-09T13:29:10.000Z</time>
      </trkpt>
      <trkpt lat="45.862" lon="1.34218">
        <ele>301.6</ele>
        <time>2026-08-09T13:29:17.000Z</time>
      </trkpt>
      <trkpt lat="45.86201" lon="1.34214">
        <ele>301.7</ele>
        <time>2026-08-09T13:29:19.000Z</time>
      </trkpt>
      <trkpt lat="45.86204" lon="1.34186">
        <ele>302.1</ele>
        <time>2026-08-09T13:29:28.000Z</time>
      </trkpt>
      <trkpt lat="45.86204" lon="1.3418">
        <ele>302.1</ele>
        <time>2026-08-09T13:29:30.000Z</time>
      </trkpt>
      <trkpt lat="45.86205" lon="1.34164">
        <ele>301.9</ele>
        <time>2026-08-09T13:29:35.000Z</time>
      </trkpt>
      <trkpt lat="45.86209" lon="1.34141">
        <ele>301.3</ele>
        <time>2026-08-09T13:29:41.000Z</time>
      </trkpt>
      <trkpt lat="45.86209" lon="1.34136">
        <ele>301.4</ele>
        <time>2026-08-09T13:29:42.000Z</time>
      </trkpt>
      <trkpt lat="45.86208" lon="1.34124">
        <ele>301.6</ele>
        <time>2026-08-09T13:29:45.000Z</time>
      </trkpt>
      <trkpt lat="45.86206" lon="1.34108">
        <ele>302.3</ele>
        <time>2026-08-09T13:29:49.000Z</time>
      </trkpt>
      <trkpt lat="45.86202" lon="1.34092">
        <ele>303</ele>
        <time>2026-08-09T13:29:54.000Z</time>
      </trkpt>
      <trkpt lat="45.86192" lon="1.34066">
        <ele>303.6</ele>
        <time>2026-08-09T13:30:02.000Z</time>
      </trkpt>
      <trkpt lat="45.86181" lon="1.34046">
        <ele>303.3</ele>
        <time>2026-08-09T13:30:09.000Z</time>
      </trkpt>
      <trkpt lat="45.8617" lon="1.34032">
        <ele>303.9</ele>
        <time>2026-08-09T13:30:15.000Z</time>
      </trkpt>
      <trkpt lat="45.86147" lon="1.3401">
        <ele>304.9</ele>
        <time>2026-08-09T13:30:25.000Z</time>
      </trkpt>
      <trkpt lat="45.8614" lon="1.34002">
        <ele>305</ele>
        <time>2026-08-09T13:30:28.000Z</time>
      </trkpt>
      <trkpt lat="45.8613" lon="1.33993">
        <ele>304.7</ele>
        <time>2026-08-09T13:30:32.000Z</time>
      </trkpt>
      <trkpt lat="45.86108" lon="1.33974">
        <ele>305.2</ele>
        <time>2026-08-09T13:30:40.000Z</time>
      </trkpt>
      <trkpt lat="45.86078" lon="1.33954">
        <ele>305</ele>
        <time>2026-08-09T13:30:50.000Z</time>
      </trkpt>
      <trkpt lat="45.86048" lon="1.33936">
        <ele>304.5</ele>
        <time>2026-08-09T13:30:59.000Z</time>
      </trkpt>
      <trkpt lat="45.86028" lon="1.33918">
        <ele>303.2</ele>
        <time>2026-08-09T13:31:05.000Z</time>
      </trkpt>
      <trkpt lat="45.86017" lon="1.33905">
        <ele>303.5</ele>
        <time>2026-08-09T13:31:08.000Z</time>
      </trkpt>
      <trkpt lat="45.86012" lon="1.33892">
        <ele>303.7</ele>
        <time>2026-08-09T13:31:10.000Z</time>
      </trkpt>
      <trkpt lat="45.8601" lon="1.33885">
        <ele>303.6</ele>
        <time>2026-08-09T13:31:11.000Z</time>
      </trkpt>
      <trkpt lat="45.86008" lon="1.33878">
        <ele>303.4</ele>
        <time>2026-08-09T13:31:12.000Z</time>
      </trkpt>
      <trkpt lat="45.86005" lon="1.33864">
        <ele>302.6</ele>
        <time>2026-08-09T13:31:14.000Z</time>
      </trkpt>
      <trkpt lat="45.86002" lon="1.33844">
        <ele>302.1</ele>
        <time>2026-08-09T13:31:17.000Z</time>
      </trkpt>
      <trkpt lat="45.85993" lon="1.33794">
        <ele>301.7</ele>
        <time>2026-08-09T13:31:24.000Z</time>
      </trkpt>
      <trkpt lat="45.85992" lon="1.33787">
        <ele>301.4</ele>
        <time>2026-08-09T13:31:25.000Z</time>
      </trkpt>
      <trkpt lat="45.85987" lon="1.33756">
        <ele>300.2</ele>
        <time>2026-08-09T13:31:29.000Z</time>
      </trkpt>
      <trkpt lat="45.85984" lon="1.33741">
        <ele>300</ele>
        <time>2026-08-09T13:31:31.000Z</time>
      </trkpt>
      <trkpt lat="45.8598" lon="1.33726">
        <ele>299.8</ele>
        <time>2026-08-09T13:31:33.000Z</time>
      </trkpt>
      <trkpt lat="45.85968" lon="1.33693">
        <ele>299.3</ele>
        <time>2026-08-09T13:31:38.000Z</time>
      </trkpt>
      <trkpt lat="45.85951" lon="1.33659">
        <ele>299.1</ele>
        <time>2026-08-09T13:31:44.000Z</time>
      </trkpt>
      <trkpt lat="45.85947" lon="1.33652">
        <ele>299.3</ele>
        <time>2026-08-09T13:31:45.000Z</time>
      </trkpt>
      <trkpt lat="45.8594" lon="1.33643">
        <ele>299.7</ele>
        <time>2026-08-09T13:31:47.000Z</time>
      </trkpt>
      <trkpt lat="45.85929" lon="1.33628">
        <ele>299.8</ele>
        <time>2026-08-09T13:31:50.000Z</time>
      </trkpt>
      <trkpt lat="45.85923" lon="1.33619">
        <ele>299.9</ele>
        <time>2026-08-09T13:31:52.000Z</time>
      </trkpt>
      <trkpt lat="45.85918" lon="1.33614">
        <ele>300.1</ele>
        <time>2026-08-09T13:31:53.000Z</time>
      </trkpt>
      <trkpt lat="45.85905" lon="1.33603">
        <ele>299.3</ele>
        <time>2026-08-09T13:31:56.000Z</time>
      </trkpt>
      <trkpt lat="45.859" lon="1.33601">
        <ele>299.1</ele>
        <time>2026-08-09T13:31:57.000Z</time>
      </trkpt>
      <trkpt lat="45.85881" lon="1.33593">
        <ele>298.6</ele>
        <time>2026-08-09T13:32:01.000Z</time>
      </trkpt>
      <trkpt lat="45.85866" lon="1.33591">
        <ele>298.3</ele>
        <time>2026-08-09T13:32:04.000Z</time>
      </trkpt>
      <trkpt lat="45.85861" lon="1.3359">
        <ele>298.2</ele>
        <time>2026-08-09T13:32:05.000Z</time>
      </trkpt>
      <trkpt lat="45.85834" lon="1.33586">
        <ele>296.3</ele>
        <time>2026-08-09T13:32:09.000Z</time>
      </trkpt>
      <trkpt lat="45.85828" lon="1.33586">
        <ele>296</ele>
        <time>2026-08-09T13:32:10.000Z</time>
      </trkpt>
      <trkpt lat="45.85805" lon="1.33583">
        <ele>295</ele>
        <time>2026-08-09T13:32:13.000Z</time>
      </trkpt>
      <trkpt lat="45.85799" lon="1.33582">
        <ele>294.5</ele>
        <time>2026-08-09T13:32:14.000Z</time>
      </trkpt>
      <trkpt lat="45.85782" lon="1.3358">
        <ele>293.2</ele>
        <time>2026-08-09T13:32:16.000Z</time>
      </trkpt>
      <trkpt lat="45.85775" lon="1.33579">
        <ele>292.7</ele>
        <time>2026-08-09T13:32:17.000Z</time>
      </trkpt>
      <trkpt lat="45.85745" lon="1.33576">
        <ele>291.8</ele>
        <time>2026-08-09T13:32:21.000Z</time>
      </trkpt>
      <trkpt lat="45.85722" lon="1.33572">
        <ele>291.8</ele>
        <time>2026-08-09T13:32:24.000Z</time>
      </trkpt>
      <trkpt lat="45.85715" lon="1.33571">
        <ele>291.9</ele>
        <time>2026-08-09T13:32:25.000Z</time>
      </trkpt>
      <trkpt lat="45.85681" lon="1.33567">
        <ele>292.4</ele>
        <time>2026-08-09T13:32:30.000Z</time>
      </trkpt>
      <trkpt lat="45.85674" lon="1.33566">
        <ele>292.4</ele>
        <time>2026-08-09T13:32:31.000Z</time>
      </trkpt>
      <trkpt lat="45.85649" lon="1.33562">
        <ele>291.3</ele>
        <time>2026-08-09T13:32:35.000Z</time>
      </trkpt>
      <trkpt lat="45.85636" lon="1.3356">
        <ele>290.5</ele>
        <time>2026-08-09T13:32:37.000Z</time>
      </trkpt>
      <trkpt lat="45.85626" lon="1.33558">
        <ele>290.2</ele>
        <time>2026-08-09T13:32:39.000Z</time>
      </trkpt>
      <trkpt lat="45.85608" lon="1.33547">
        <ele>289.7</ele>
        <time>2026-08-09T13:32:42.000Z</time>
      </trkpt>
      <trkpt lat="45.8559" lon="1.33525">
        <ele>290.7</ele>
        <time>2026-08-09T13:32:47.000Z</time>
      </trkpt>
      <trkpt lat="45.85577" lon="1.33503">
        <ele>293.1</ele>
        <time>2026-08-09T13:32:53.000Z</time>
      </trkpt>
      <trkpt lat="45.85568" lon="1.33486">
        <ele>294.3</ele>
        <time>2026-08-09T13:32:59.000Z</time>
      </trkpt>
      <trkpt lat="45.85561" lon="1.33471">
        <ele>295.1</ele>
        <time>2026-08-09T13:33:04.000Z</time>
      </trkpt>
      <trkpt lat="45.85556" lon="1.33457">
        <ele>295.5</ele>
        <time>2026-08-09T13:33:08.000Z</time>
      </trkpt>
      <trkpt lat="45.85551" lon="1.33441">
        <ele>296.5</ele>
        <time>2026-08-09T13:33:13.000Z</time>
      </trkpt>
      <trkpt lat="45.85546" lon="1.33428">
        <ele>297</ele>
        <time>2026-08-09T13:33:17.000Z</time>
      </trkpt>
      <trkpt lat="45.85539" lon="1.33406">
        <ele>297.4</ele>
        <time>2026-08-09T13:33:24.000Z</time>
      </trkpt>
      <trkpt lat="45.85537" lon="1.33398">
        <ele>297.4</ele>
        <time>2026-08-09T13:33:27.000Z</time>
      </trkpt>
      <trkpt lat="45.85534" lon="1.3338">
        <ele>297.3</ele>
        <time>2026-08-09T13:33:33.000Z</time>
      </trkpt>
      <trkpt lat="45.85534" lon="1.33378">
        <ele>297.4</ele>
        <time>2026-08-09T13:33:34.000Z</time>
      </trkpt>
      <trkpt lat="45.85528" lon="1.33357">
        <ele>298</ele>
        <time>2026-08-09T13:33:41.000Z</time>
      </trkpt>
      <trkpt lat="45.85527" lon="1.33351">
        <ele>298.3</ele>
        <time>2026-08-09T13:33:43.000Z</time>
      </trkpt>
      <trkpt lat="45.85524" lon="1.33341">
        <ele>298.8</ele>
        <time>2026-08-09T13:33:46.000Z</time>
      </trkpt>
      <trkpt lat="45.85523" lon="1.33332">
        <ele>299.1</ele>
        <time>2026-08-09T13:33:49.000Z</time>
      </trkpt>
      <trkpt lat="45.8552" lon="1.33319">
        <ele>299.5</ele>
        <time>2026-08-09T13:33:53.000Z</time>
      </trkpt>
      <trkpt lat="45.85517" lon="1.33308">
        <ele>299.7</ele>
        <time>2026-08-09T13:33:57.000Z</time>
      </trkpt>
      <trkpt lat="45.85511" lon="1.33281">
        <ele>301.1</ele>
        <time>2026-08-09T13:34:05.000Z</time>
      </trkpt>
      <trkpt lat="45.85511" lon="1.33279">
        <ele>301.2</ele>
        <time>2026-08-09T13:34:06.000Z</time>
      </trkpt>
      <trkpt lat="45.85507" lon="1.3326">
        <ele>301</ele>
        <time>2026-08-09T13:34:12.000Z</time>
      </trkpt>
      <trkpt lat="45.85505" lon="1.33237">
        <ele>301.3</ele>
        <time>2026-08-09T13:34:19.000Z</time>
      </trkpt>
      <trkpt lat="45.85501" lon="1.33213">
        <ele>302.3</ele>
        <time>2026-08-09T13:34:27.000Z</time>
      </trkpt>
      <trkpt lat="45.85498" lon="1.332">
        <ele>303</ele>
        <time>2026-08-09T13:34:31.000Z</time>
      </trkpt>
      <trkpt lat="45.85497" lon="1.33194">
        <ele>303.2</ele>
        <time>2026-08-09T13:34:33.000Z</time>
      </trkpt>
      <trkpt lat="45.85493" lon="1.33174">
        <ele>304.1</ele>
        <time>2026-08-09T13:34:40.000Z</time>
      </trkpt>
      <trkpt lat="45.85487" lon="1.33154">
        <ele>303.8</ele>
        <time>2026-08-09T13:34:46.000Z</time>
      </trkpt>
      <trkpt lat="45.85482" lon="1.33141">
        <ele>303.4</ele>
        <time>2026-08-09T13:34:50.000Z</time>
      </trkpt>
      <trkpt lat="45.85469" lon="1.3311">
        <ele>303.1</ele>
        <time>2026-08-09T13:34:58.000Z</time>
      </trkpt>
      <trkpt lat="45.85454" lon="1.33082">
        <ele>301.8</ele>
        <time>2026-08-09T13:35:05.000Z</time>
      </trkpt>
      <trkpt lat="45.85437" lon="1.33066">
        <ele>300.8</ele>
        <time>2026-08-09T13:35:10.000Z</time>
      </trkpt>
      <trkpt lat="45.85433" lon="1.33063">
        <ele>300.6</ele>
        <time>2026-08-09T13:35:11.000Z</time>
      </trkpt>
      <trkpt lat="45.85408" lon="1.33054">
        <ele>299.7</ele>
        <time>2026-08-09T13:35:16.000Z</time>
      </trkpt>
      <trkpt lat="45.85386" lon="1.33053">
        <ele>299.4</ele>
        <time>2026-08-09T13:35:20.000Z</time>
      </trkpt>
      <trkpt lat="45.85382" lon="1.33054">
        <ele>299.2</ele>
        <time>2026-08-09T13:35:21.000Z</time>
      </trkpt>
      <trkpt lat="45.85376" lon="1.33056">
        <ele>299</ele>
        <time>2026-08-09T13:35:22.000Z</time>
      </trkpt>
      <trkpt lat="45.85348" lon="1.33071">
        <ele>298</ele>
        <time>2026-08-09T13:35:27.000Z</time>
      </trkpt>
      <trkpt lat="45.85341" lon="1.33077">
        <ele>297.9</ele>
        <time>2026-08-09T13:35:28.000Z</time>
      </trkpt>
      <trkpt lat="45.85314" lon="1.33096">
        <ele>297.7</ele>
        <time>2026-08-09T13:35:32.000Z</time>
      </trkpt>
      <trkpt lat="45.85309" lon="1.33098">
        <ele>297.7</ele>
        <time>2026-08-09T13:35:33.000Z</time>
      </trkpt>
      <trkpt lat="45.85302" lon="1.331">
        <ele>297.7</ele>
        <time>2026-08-09T13:35:34.000Z</time>
      </trkpt>
      <trkpt lat="45.85286" lon="1.33101">
        <ele>297.5</ele>
        <time>2026-08-09T13:35:37.000Z</time>
      </trkpt>
      <trkpt lat="45.85269" lon="1.33097">
        <ele>298</ele>
        <time>2026-08-09T13:35:41.000Z</time>
      </trkpt>
      <trkpt lat="45.85256" lon="1.33086">
        <ele>299.2</ele>
        <time>2026-08-09T13:35:46.000Z</time>
      </trkpt>
      <trkpt lat="45.85247" lon="1.33073">
        <ele>300.9</ele>
        <time>2026-08-09T13:35:51.000Z</time>
      </trkpt>
      <trkpt lat="45.85246" lon="1.3307">
        <ele>301.1</ele>
        <time>2026-08-09T13:35:52.000Z</time>
      </trkpt>
      <trkpt lat="45.85236" lon="1.3305">
        <ele>302.3</ele>
        <time>2026-08-09T13:35:59.000Z</time>
      </trkpt>
      <trkpt lat="45.85232" lon="1.33043">
        <ele>302.4</ele>
        <time>2026-08-09T13:36:02.000Z</time>
      </trkpt>
      <trkpt lat="45.85228" lon="1.33037">
        <ele>302.3</ele>
        <time>2026-08-09T13:36:05.000Z</time>
      </trkpt>
      <trkpt lat="45.85215" lon="1.33026">
        <ele>302.7</ele>
        <time>2026-08-09T13:36:11.000Z</time>
      </trkpt>
      <trkpt lat="45.85206" lon="1.3302">
        <ele>303.4</ele>
        <time>2026-08-09T13:36:15.000Z</time>
      </trkpt>
      <trkpt lat="45.85205" lon="1.33019">
        <ele>303.5</ele>
        <time>2026-08-09T13:36:16.000Z</time>
      </trkpt>
      <trkpt lat="45.8519" lon="1.3301">
        <ele>304.1</ele>
        <time>2026-08-09T13:36:23.000Z</time>
      </trkpt>
      <trkpt lat="45.85173" lon="1.33005">
        <ele>304.6</ele>
        <time>2026-08-09T13:36:30.000Z</time>
      </trkpt>
      <trkpt lat="45.85166" lon="1.33004">
        <ele>304.7</ele>
        <time>2026-08-09T13:36:33.000Z</time>
      </trkpt>
      <trkpt lat="45.85162" lon="1.33002">
        <ele>304.9</ele>
        <time>2026-08-09T13:36:35.000Z</time>
      </trkpt>
      <trkpt lat="45.8515" lon="1.32993">
        <ele>305.2</ele>
        <time>2026-08-09T13:36:41.000Z</time>
      </trkpt>
      <trkpt lat="45.85139" lon="1.32975">
        <ele>305.2</ele>
        <time>2026-08-09T13:36:48.000Z</time>
      </trkpt>
      <trkpt lat="45.85137" lon="1.32972">
        <ele>305.3</ele>
        <time>2026-08-09T13:36:49.000Z</time>
      </trkpt>
      <trkpt lat="45.85129" lon="1.32951">
        <ele>305.8</ele>
        <time>2026-08-09T13:36:55.000Z</time>
      </trkpt>
      <trkpt lat="45.85125" lon="1.32937">
        <ele>307.1</ele>
        <time>2026-08-09T13:37:00.000Z</time>
      </trkpt>
      <trkpt lat="45.85125" lon="1.32928">
        <ele>308</ele>
        <time>2026-08-09T13:37:03.000Z</time>
      </trkpt>
      <trkpt lat="45.85124" lon="1.32905">
        <ele>309.1</ele>
        <time>2026-08-09T13:37:10.000Z</time>
      </trkpt>
      <trkpt lat="45.85123" lon="1.32885">
        <ele>309.3</ele>
        <time>2026-08-09T13:37:17.000Z</time>
      </trkpt>
      <trkpt lat="45.85124" lon="1.32872">
        <ele>309.7</ele>
        <time>2026-08-09T13:37:22.000Z</time>
      </trkpt>
      <trkpt lat="45.85125" lon="1.32867">
        <ele>309.8</ele>
        <time>2026-08-09T13:37:24.000Z</time>
      </trkpt>
      <trkpt lat="45.85123" lon="1.32837">
        <ele>311.2</ele>
        <time>2026-08-09T13:37:34.000Z</time>
      </trkpt>
      <trkpt lat="45.85122" lon="1.32817">
        <ele>311.4</ele>
        <time>2026-08-09T13:37:40.000Z</time>
      </trkpt>
      <trkpt lat="45.85119" lon="1.32807">
        <ele>311.6</ele>
        <time>2026-08-09T13:37:43.000Z</time>
      </trkpt>
      <trkpt lat="45.85118" lon="1.32799">
        <ele>311.5</ele>
        <time>2026-08-09T13:37:46.000Z</time>
      </trkpt>
      <trkpt lat="45.85106" lon="1.32773">
        <ele>310.8</ele>
        <time>2026-08-09T13:37:53.000Z</time>
      </trkpt>
      <trkpt lat="45.85089" lon="1.32757">
        <ele>309.7</ele>
        <time>2026-08-09T13:37:58.000Z</time>
      </trkpt>
      <trkpt lat="45.85061" lon="1.32732">
        <ele>307.6</ele>
        <time>2026-08-09T13:38:04.000Z</time>
      </trkpt>
      <trkpt lat="45.85057" lon="1.32727">
        <ele>307.3</ele>
        <time>2026-08-09T13:38:05.000Z</time>
      </trkpt>
      <trkpt lat="45.8505" lon="1.32713">
        <ele>306.6</ele>
        <time>2026-08-09T13:38:07.000Z</time>
      </trkpt>
      <trkpt lat="45.85047" lon="1.32706">
        <ele>306.1</ele>
        <time>2026-08-09T13:38:08.000Z</time>
      </trkpt>
      <trkpt lat="45.85044" lon="1.32696">
        <ele>305.5</ele>
        <time>2026-08-09T13:38:09.000Z</time>
      </trkpt>
      <trkpt lat="45.85042" lon="1.32687">
        <ele>305.1</ele>
        <time>2026-08-09T13:38:10.000Z</time>
      </trkpt>
      <trkpt lat="45.85036" lon="1.32661">
        <ele>304.4</ele>
        <time>2026-08-09T13:38:13.000Z</time>
      </trkpt>
      <trkpt lat="45.85034" lon="1.32653">
        <ele>304.6</ele>
        <time>2026-08-09T13:38:14.000Z</time>
      </trkpt>
      <trkpt lat="45.85021" lon="1.32601">
        <ele>305.6</ele>
        <time>2026-08-09T13:38:21.000Z</time>
      </trkpt>
      <trkpt lat="45.85011" lon="1.3256">
        <ele>306.8</ele>
        <time>2026-08-09T13:38:28.000Z</time>
      </trkpt>
      <trkpt lat="45.84999" lon="1.32503">
        <ele>305.1</ele>
        <time>2026-08-09T13:38:37.000Z</time>
      </trkpt>
      <trkpt lat="45.84991" lon="1.3247">
        <ele>304.5</ele>
        <time>2026-08-09T13:38:42.000Z</time>
      </trkpt>
      <trkpt lat="45.84983" lon="1.32439">
        <ele>302.9</ele>
        <time>2026-08-09T13:38:46.000Z</time>
      </trkpt>
      <trkpt lat="45.8498" lon="1.32426">
        <ele>302.5</ele>
        <time>2026-08-09T13:38:48.000Z</time>
      </trkpt>
      <trkpt lat="45.84978" lon="1.32417">
        <ele>302.2</ele>
        <time>2026-08-09T13:38:49.000Z</time>
      </trkpt>
      <trkpt lat="45.84972" lon="1.32392">
        <ele>300.2</ele>
        <time>2026-08-09T13:38:52.000Z</time>
      </trkpt>
      <trkpt lat="45.8497" lon="1.32383">
        <ele>299.7</ele>
        <time>2026-08-09T13:38:53.000Z</time>
      </trkpt>
      <trkpt lat="45.84964" lon="1.32351">
        <ele>298</ele>
        <time>2026-08-09T13:38:57.000Z</time>
      </trkpt>
      <trkpt lat="45.84962" lon="1.32341">
        <ele>297.2</ele>
        <time>2026-08-09T13:38:58.000Z</time>
      </trkpt>
      <trkpt lat="45.84958" lon="1.32326">
        <ele>296.2</ele>
        <time>2026-08-09T13:39:00.000Z</time>
      </trkpt>
      <trkpt lat="45.84957" lon="1.32317">
        <ele>295.9</ele>
        <time>2026-08-09T13:39:01.000Z</time>
      </trkpt>
      <trkpt lat="45.84956" lon="1.323">
        <ele>295.7</ele>
        <time>2026-08-09T13:39:03.000Z</time>
      </trkpt>
      <trkpt lat="45.84958" lon="1.32282">
        <ele>295.9</ele>
        <time>2026-08-09T13:39:05.000Z</time>
      </trkpt>
      <trkpt lat="45.84963" lon="1.32267">
        <ele>295.7</ele>
        <time>2026-08-09T13:39:07.000Z</time>
      </trkpt>
      <trkpt lat="45.84965" lon="1.32261">
        <ele>295.5</ele>
        <time>2026-08-09T13:39:08.000Z</time>
      </trkpt>
      <trkpt lat="45.84964" lon="1.32248">
        <ele>295.2</ele>
        <time>2026-08-09T13:39:10.000Z</time>
      </trkpt>
      <trkpt lat="45.84954" lon="1.32228">
        <ele>295.9</ele>
        <time>2026-08-09T13:39:14.000Z</time>
      </trkpt>
      <trkpt lat="45.84951" lon="1.32223">
        <ele>296.2</ele>
        <time>2026-08-09T13:39:15.000Z</time>
      </trkpt>
      <trkpt lat="45.84934" lon="1.32192">
        <ele>297.5</ele>
        <time>2026-08-09T13:39:23.000Z</time>
      </trkpt>
      <trkpt lat="45.84925" lon="1.32169">
        <ele>298.6</ele>
        <time>2026-08-09T13:39:29.000Z</time>
      </trkpt>
      <trkpt lat="45.84923" lon="1.32165">
        <ele>298.8</ele>
        <time>2026-08-09T13:39:30.000Z</time>
      </trkpt>
      <trkpt lat="45.84917" lon="1.32145">
        <ele>299.7</ele>
        <time>2026-08-09T13:39:35.000Z</time>
      </trkpt>
      <trkpt lat="45.84913" lon="1.32126">
        <ele>300.7</ele>
        <time>2026-08-09T13:39:40.000Z</time>
      </trkpt>
      <trkpt lat="45.8491" lon="1.32114">
        <ele>301.4</ele>
        <time>2026-08-09T13:39:43.000Z</time>
      </trkpt>
      <trkpt lat="45.84905" lon="1.32094">
        <ele>301.5</ele>
        <time>2026-08-09T13:39:48.000Z</time>
      </trkpt>
      <trkpt lat="45.84901" lon="1.32076">
        <ele>301.3</ele>
        <time>2026-08-09T13:39:52.000Z</time>
      </trkpt>
      <trkpt lat="45.84895" lon="1.32053">
        <ele>300.6</ele>
        <time>2026-08-09T13:39:57.000Z</time>
      </trkpt>
      <trkpt lat="45.84885" lon="1.32009">
        <ele>301</ele>
        <time>2026-08-09T13:40:06.000Z</time>
      </trkpt>
      <trkpt lat="45.84869" lon="1.3197">
        <ele>300.3</ele>
        <time>2026-08-09T13:40:14.000Z</time>
      </trkpt>
      <trkpt lat="45.8485" lon="1.31942">
        <ele>300.6</ele>
        <time>2026-08-09T13:40:21.000Z</time>
      </trkpt>
      <trkpt lat="45.8482" lon="1.31914">
        <ele>300.3</ele>
        <time>2026-08-09T13:40:29.000Z</time>
      </trkpt>
      <trkpt lat="45.84799" lon="1.31897">
        <ele>299.9</ele>
        <time>2026-08-09T13:40:34.000Z</time>
      </trkpt>
      <trkpt lat="45.8479" lon="1.31887">
        <ele>299.5</ele>
        <time>2026-08-09T13:40:36.000Z</time>
      </trkpt>
      <trkpt lat="45.84772" lon="1.31863">
        <ele>298.4</ele>
        <time>2026-08-09T13:40:40.000Z</time>
      </trkpt>
      <trkpt lat="45.84767" lon="1.31856">
        <ele>298</ele>
        <time>2026-08-09T13:40:41.000Z</time>
      </trkpt>
      <trkpt lat="45.84746" lon="1.31828">
        <ele>296.9</ele>
        <time>2026-08-09T13:40:46.000Z</time>
      </trkpt>
      <trkpt lat="45.84735" lon="1.31817">
        <ele>296.6</ele>
        <time>2026-08-09T13:40:48.000Z</time>
      </trkpt>
      <trkpt lat="45.84711" lon="1.31793">
        <ele>295.7</ele>
        <time>2026-08-09T13:40:52.000Z</time>
      </trkpt>
      <trkpt lat="45.847" lon="1.31782">
        <ele>295.2</ele>
        <time>2026-08-09T13:40:54.000Z</time>
      </trkpt>
      <trkpt lat="45.84666" lon="1.31753">
        <ele>293.6</ele>
        <time>2026-08-09T13:40:59.000Z</time>
      </trkpt>
      <trkpt lat="45.84653" lon="1.31743">
        <ele>293.1</ele>
        <time>2026-08-09T13:41:01.000Z</time>
      </trkpt>
      <trkpt lat="45.84639" lon="1.31732">
        <ele>292.4</ele>
        <time>2026-08-09T13:41:03.000Z</time>
      </trkpt>
      <trkpt lat="45.84614" lon="1.31708">
        <ele>292.2</ele>
        <time>2026-08-09T13:41:07.000Z</time>
      </trkpt>
      <trkpt lat="45.84608" lon="1.31702">
        <ele>292.1</ele>
        <time>2026-08-09T13:41:08.000Z</time>
      </trkpt>
      <trkpt lat="45.84585" lon="1.31685">
        <ele>291.8</ele>
        <time>2026-08-09T13:41:12.000Z</time>
      </trkpt>
      <trkpt lat="45.84567" lon="1.31678">
        <ele>292</ele>
        <time>2026-08-09T13:41:15.000Z</time>
      </trkpt>
      <trkpt lat="45.84562" lon="1.31677">
        <ele>292.1</ele>
        <time>2026-08-09T13:41:16.000Z</time>
      </trkpt>
      <trkpt lat="45.84557" lon="1.31676">
        <ele>292.3</ele>
        <time>2026-08-09T13:41:17.000Z</time>
      </trkpt>
      <trkpt lat="45.84551" lon="1.31676">
        <ele>292.3</ele>
        <time>2026-08-09T13:41:18.000Z</time>
      </trkpt>
      <trkpt lat="45.84536" lon="1.31677">
        <ele>292.5</ele>
        <time>2026-08-09T13:41:21.000Z</time>
      </trkpt>
      <trkpt lat="45.84504" lon="1.31679">
        <ele>293.3</ele>
        <time>2026-08-09T13:41:28.000Z</time>
      </trkpt>
      <trkpt lat="45.8448" lon="1.31683">
        <ele>293.8</ele>
        <time>2026-08-09T13:41:34.000Z</time>
      </trkpt>
      <trkpt lat="45.84465" lon="1.31684">
        <ele>294.3</ele>
        <time>2026-08-09T13:41:38.000Z</time>
      </trkpt>
      <trkpt lat="45.84451" lon="1.31685">
        <ele>295</ele>
        <time>2026-08-09T13:41:42.000Z</time>
      </trkpt>
      <trkpt lat="45.84438" lon="1.31686">
        <ele>295.7</ele>
        <time>2026-08-09T13:41:46.000Z</time>
      </trkpt>
      <trkpt lat="45.84434" lon="1.31686">
        <ele>295.9</ele>
        <time>2026-08-09T13:41:47.000Z</time>
      </trkpt>
      <trkpt lat="45.84421" lon="1.31688">
        <ele>296.5</ele>
        <time>2026-08-09T13:41:51.000Z</time>
      </trkpt>
      <trkpt lat="45.84413" lon="1.31689">
        <ele>296.8</ele>
        <time>2026-08-09T13:41:54.000Z</time>
      </trkpt>
      <trkpt lat="45.84406" lon="1.31691">
        <ele>296.9</ele>
        <time>2026-08-09T13:41:56.000Z</time>
      </trkpt>
      <trkpt lat="45.84383" lon="1.31695">
        <ele>296.6</ele>
        <time>2026-08-09T13:42:02.000Z</time>
      </trkpt>
      <trkpt lat="45.84358" lon="1.31696">
        <ele>295</ele>
        <time>2026-08-09T13:42:07.000Z</time>
      </trkpt>
      <trkpt lat="45.84346" lon="1.31697">
        <ele>294.5</ele>
        <time>2026-08-09T13:42:09.000Z</time>
      </trkpt>
      <trkpt lat="45.84326" lon="1.31699">
        <ele>293.7</ele>
        <time>2026-08-09T13:42:12.000Z</time>
      </trkpt>
      <trkpt lat="45.84305" lon="1.31702">
        <ele>293</ele>
        <time>2026-08-09T13:42:15.000Z</time>
      </trkpt>
      <trkpt lat="45.84285" lon="1.31703">
        <ele>292.2</ele>
        <time>2026-08-09T13:42:18.000Z</time>
      </trkpt>
      <trkpt lat="45.84278" lon="1.31702">
        <ele>292</ele>
        <time>2026-08-09T13:42:19.000Z</time>
      </trkpt>
      <trkpt lat="45.84264" lon="1.31697">
        <ele>291.5</ele>
        <time>2026-08-09T13:42:21.000Z</time>
      </trkpt>
      <trkpt lat="45.84258" lon="1.31692">
        <ele>291.2</ele>
        <time>2026-08-09T13:42:22.000Z</time>
      </trkpt>
      <trkpt lat="45.84245" lon="1.31681">
        <ele>291</ele>
        <time>2026-08-09T13:42:24.000Z</time>
      </trkpt>
      <trkpt lat="45.84227" lon="1.31663">
        <ele>290.9</ele>
        <time>2026-08-09T13:42:27.000Z</time>
      </trkpt>
      <trkpt lat="45.84192" lon="1.31629">
        <ele>289.7</ele>
        <time>2026-08-09T13:42:33.000Z</time>
      </trkpt>
      <trkpt lat="45.84169" lon="1.31609">
        <ele>289</ele>
        <time>2026-08-09T13:42:37.000Z</time>
      </trkpt>
      <trkpt lat="45.84164" lon="1.31603">
        <ele>289.1</ele>
        <time>2026-08-09T13:42:38.000Z</time>
      </trkpt>
      <trkpt lat="45.84161" lon="1.31597">
        <ele>289.2</ele>
        <time>2026-08-09T13:42:39.000Z</time>
      </trkpt>
      <trkpt lat="45.8415" lon="1.31575">
        <ele>289.6</ele>
        <time>2026-08-09T13:42:42.000Z</time>
      </trkpt>
      <trkpt lat="45.84148" lon="1.31567">
        <ele>289.7</ele>
        <time>2026-08-09T13:42:43.000Z</time>
      </trkpt>
      <trkpt lat="45.84145" lon="1.31548">
        <ele>290.2</ele>
        <time>2026-08-09T13:42:46.000Z</time>
      </trkpt>
      <trkpt lat="45.84145" lon="1.31539">
        <ele>290.7</ele>
        <time>2026-08-09T13:42:48.000Z</time>
      </trkpt>
      <trkpt lat="45.84145" lon="1.31531">
        <ele>291.1</ele>
        <time>2026-08-09T13:42:50.000Z</time>
      </trkpt>
      <trkpt lat="45.84143" lon="1.31526">
        <ele>291.2</ele>
        <time>2026-08-09T13:42:52.000Z</time>
      </trkpt>
      <trkpt lat="45.84145" lon="1.31515">
        <ele>291.6</ele>
        <time>2026-08-09T13:42:56.000Z</time>
      </trkpt>
      <trkpt lat="45.84145" lon="1.31507">
        <ele>291.8</ele>
        <time>2026-08-09T13:42:59.000Z</time>
      </trkpt>
      <trkpt lat="45.84143" lon="1.31492">
        <ele>292.5</ele>
        <time>2026-08-09T13:43:05.000Z</time>
      </trkpt>
      <trkpt lat="45.84142" lon="1.31479">
        <ele>293.3</ele>
        <time>2026-08-09T13:43:10.000Z</time>
      </trkpt>
      <trkpt lat="45.84142" lon="1.31473">
        <ele>293.7</ele>
        <time>2026-08-09T13:43:12.000Z</time>
      </trkpt>
      <trkpt lat="45.84141" lon="1.31467">
        <ele>294.1</ele>
        <time>2026-08-09T13:43:14.000Z</time>
      </trkpt>
      <trkpt lat="45.84141" lon="1.31459">
        <ele>294.5</ele>
        <time>2026-08-09T13:43:17.000Z</time>
      </trkpt>
      <trkpt lat="45.84141" lon="1.31446">
        <ele>295</ele>
        <time>2026-08-09T13:43:22.000Z</time>
      </trkpt>
      <trkpt lat="45.8414" lon="1.31435">
        <ele>295.4</ele>
        <time>2026-08-09T13:43:26.000Z</time>
      </trkpt>
      <trkpt lat="45.8414" lon="1.3142">
        <ele>296</ele>
        <time>2026-08-09T13:43:31.000Z</time>
      </trkpt>
      <trkpt lat="45.8414" lon="1.31406">
        <ele>296.5</ele>
        <time>2026-08-09T13:43:36.000Z</time>
      </trkpt>
      <trkpt lat="45.84141" lon="1.31394">
        <ele>296.9</ele>
        <time>2026-08-09T13:43:40.000Z</time>
      </trkpt>
      <trkpt lat="45.84141" lon="1.31388">
        <ele>297.1</ele>
        <time>2026-08-09T13:43:42.000Z</time>
      </trkpt>
      <trkpt lat="45.84141" lon="1.31385">
        <ele>297.2</ele>
        <time>2026-08-09T13:43:43.000Z</time>
      </trkpt>
      <trkpt lat="45.84141" lon="1.31365">
        <ele>297.9</ele>
        <time>2026-08-09T13:43:49.000Z</time>
      </trkpt>
      <trkpt lat="45.84141" lon="1.31358">
        <ele>298.1</ele>
        <time>2026-08-09T13:43:51.000Z</time>
      </trkpt>
      <trkpt lat="45.84141" lon="1.31349">
        <ele>298.4</ele>
        <time>2026-08-09T13:43:56.000Z</time>
      </trkpt>
      <trkpt lat="45.84141" lon="1.31341">
        <ele>298.7</ele>
        <time>2026-08-09T13:44:26.000Z</time>
      </trkpt>
      <trkpt lat="45.84141" lon="1.31334">
        <ele>298.9</ele>
        <time>2026-08-09T13:44:28.000Z</time>
      </trkpt>
      <trkpt lat="45.84141" lon="1.31302">
        <ele>298.9</ele>
        <time>2026-08-09T13:44:36.000Z</time>
      </trkpt>
      <trkpt lat="45.84143" lon="1.31275">
        <ele>298.8</ele>
        <time>2026-08-09T13:44:43.000Z</time>
      </trkpt>
      <trkpt lat="45.84145" lon="1.31249">
        <ele>298.8</ele>
        <time>2026-08-09T13:44:49.000Z</time>
      </trkpt>
      <trkpt lat="45.84134" lon="1.31235">
        <ele>299.1</ele>
        <time>2026-08-09T13:44:53.000Z</time>
      </trkpt>
      <trkpt lat="45.84126" lon="1.31229">
        <ele>299.1</ele>
        <time>2026-08-09T13:44:55.000Z</time>
      </trkpt>
      <trkpt lat="45.84109" lon="1.31208">
        <ele>299</ele>
        <time>2026-08-09T13:45:01.000Z</time>
      </trkpt>
      <trkpt lat="45.84082" lon="1.31171">
        <ele>299</ele>
        <time>2026-08-09T13:45:10.000Z</time>
      </trkpt>
      <trkpt lat="45.84058" lon="1.3113">
        <ele>298.6</ele>
        <time>2026-08-09T13:45:19.000Z</time>
      </trkpt>
      <trkpt lat="45.84037" lon="1.31091">
        <ele>298.7</ele>
        <time>2026-08-09T13:45:28.000Z</time>
      </trkpt>
      <trkpt lat="45.84032" lon="1.31082">
        <ele>298.9</ele>
        <time>2026-08-09T13:45:30.000Z</time>
      </trkpt>
      <trkpt lat="45.84014" lon="1.31061">
        <ele>299.6</ele>
        <time>2026-08-09T13:45:36.000Z</time>
      </trkpt>
      <trkpt lat="45.83992" lon="1.31052">
        <ele>300.5</ele>
        <time>2026-08-09T13:45:43.000Z</time>
      </trkpt>
      <trkpt lat="45.83989" lon="1.31051">
        <ele>300.6</ele>
        <time>2026-08-09T13:45:44.000Z</time>
      </trkpt>
      <trkpt lat="45.83972" lon="1.31045">
        <ele>301</ele>
        <time>2026-08-09T13:45:49.000Z</time>
      </trkpt>
      <trkpt lat="45.83965" lon="1.3104">
        <ele>301.1</ele>
        <time>2026-08-09T13:45:51.000Z</time>
      </trkpt>
      <trkpt lat="45.83957" lon="1.3103">
        <ele>301</ele>
        <time>2026-08-09T13:45:54.000Z</time>
      </trkpt>
      <trkpt lat="45.83937" lon="1.30999">
        <ele>299.7</ele>
        <time>2026-08-09T13:46:00.000Z</time>
      </trkpt>
      <trkpt lat="45.83935" lon="1.30984">
        <ele>299.1</ele>
        <time>2026-08-09T13:46:03.000Z</time>
      </trkpt>
      <trkpt lat="45.83936" lon="1.30978">
        <ele>298.9</ele>
        <time>2026-08-09T13:46:04.000Z</time>
      </trkpt>
      <trkpt lat="45.83944" lon="1.30955">
        <ele>297.1</ele>
        <time>2026-08-09T13:46:08.000Z</time>
      </trkpt>
      <trkpt lat="45.83951" lon="1.30939">
        <ele>295.6</ele>
        <time>2026-08-09T13:46:11.000Z</time>
      </trkpt>
      <trkpt lat="45.83953" lon="1.30933">
        <ele>295.2</ele>
        <time>2026-08-09T13:46:12.000Z</time>
      </trkpt>
      <trkpt lat="45.83957" lon="1.30922">
        <ele>294.4</ele>
        <time>2026-08-09T13:46:14.000Z</time>
      </trkpt>
      <trkpt lat="45.83968" lon="1.309">
        <ele>293</ele>
        <time>2026-08-09T13:46:18.000Z</time>
      </trkpt>
      <trkpt lat="45.83974" lon="1.30888">
        <ele>291.7</ele>
        <time>2026-08-09T13:46:20.000Z</time>
      </trkpt>
      <trkpt lat="45.83979" lon="1.30875">
        <ele>289.5</ele>
        <time>2026-08-09T13:46:22.000Z</time>
      </trkpt>
      <trkpt lat="45.83985" lon="1.30861">
        <ele>287.5</ele>
        <time>2026-08-09T13:46:24.000Z</time>
      </trkpt>
      <trkpt lat="45.83991" lon="1.30847">
        <ele>286.8</ele>
        <time>2026-08-09T13:46:26.000Z</time>
      </trkpt>
      <trkpt lat="45.83994" lon="1.3084">
        <ele>286.5</ele>
        <time>2026-08-09T13:46:27.000Z</time>
      </trkpt>
      <trkpt lat="45.83997" lon="1.30833">
        <ele>286.1</ele>
        <time>2026-08-09T13:46:28.000Z</time>
      </trkpt>
      <trkpt lat="45.83999" lon="1.30825">
        <ele>285.5</ele>
        <time>2026-08-09T13:46:29.000Z</time>
      </trkpt>
      <trkpt lat="45.84002" lon="1.30808">
        <ele>284.2</ele>
        <time>2026-08-09T13:46:31.000Z</time>
      </trkpt>
      <trkpt lat="45.84003" lon="1.30798">
        <ele>283.7</ele>
        <time>2026-08-09T13:46:32.000Z</time>
      </trkpt>
      <trkpt lat="45.84005" lon="1.30776">
        <ele>282.9</ele>
        <time>2026-08-09T13:46:34.000Z</time>
      </trkpt>
      <trkpt lat="45.84006" lon="1.30765">
        <ele>282.6</ele>
        <time>2026-08-09T13:46:35.000Z</time>
      </trkpt>
      <trkpt lat="45.84007" lon="1.30754">
        <ele>282.1</ele>
        <time>2026-08-09T13:46:36.000Z</time>
      </trkpt>
      <trkpt lat="45.84009" lon="1.30719">
        <ele>280.9</ele>
        <time>2026-08-09T13:46:39.000Z</time>
      </trkpt>
      <trkpt lat="45.8401" lon="1.30695">
        <ele>280</ele>
        <time>2026-08-09T13:46:41.000Z</time>
      </trkpt>
      <trkpt lat="45.84012" lon="1.30671">
        <ele>279.2</ele>
        <time>2026-08-09T13:46:43.000Z</time>
      </trkpt>
      <trkpt lat="45.84014" lon="1.30638">
        <ele>277.5</ele>
        <time>2026-08-09T13:46:46.000Z</time>
      </trkpt>
      <trkpt lat="45.84017" lon="1.30604">
        <ele>276.8</ele>
        <time>2026-08-09T13:46:49.000Z</time>
      </trkpt>
      <trkpt lat="45.84017" lon="1.30593">
        <ele>276.3</ele>
        <time>2026-08-09T13:46:50.000Z</time>
      </trkpt>
      <trkpt lat="45.84019" lon="1.30558">
        <ele>275.7</ele>
        <time>2026-08-09T13:46:53.000Z</time>
      </trkpt>
      <trkpt lat="45.84021" lon="1.30527">
        <ele>275.7</ele>
        <time>2026-08-09T13:46:56.000Z</time>
      </trkpt>
      <trkpt lat="45.84021" lon="1.30516">
        <ele>275.8</ele>
        <time>2026-08-09T13:46:57.000Z</time>
      </trkpt>
      <trkpt lat="45.84022" lon="1.30463">
        <ele>275.8</ele>
        <time>2026-08-09T13:47:03.000Z</time>
      </trkpt>
      <trkpt lat="45.84022" lon="1.30448">
        <ele>275.8</ele>
        <time>2026-08-09T13:47:05.000Z</time>
      </trkpt>
      <trkpt lat="45.84018" lon="1.30427">
        <ele>276.3</ele>
        <time>2026-08-09T13:47:08.000Z</time>
      </trkpt>
      <trkpt lat="45.84016" lon="1.3042">
        <ele>276.4</ele>
        <time>2026-08-09T13:47:09.000Z</time>
      </trkpt>
      <trkpt lat="45.84013" lon="1.30413">
        <ele>276.4</ele>
        <time>2026-08-09T13:47:10.000Z</time>
      </trkpt>
      <trkpt lat="45.84006" lon="1.30394">
        <ele>275.5</ele>
        <time>2026-08-09T13:47:13.000Z</time>
      </trkpt>
      <trkpt lat="45.84003" lon="1.30387">
        <ele>275.3</ele>
        <time>2026-08-09T13:47:14.000Z</time>
      </trkpt>
      <trkpt lat="45.83993" lon="1.3036">
        <ele>275.5</ele>
        <time>2026-08-09T13:47:18.000Z</time>
      </trkpt>
      <trkpt lat="45.83978" lon="1.3032">
        <ele>273.3</ele>
        <time>2026-08-09T13:47:23.000Z</time>
      </trkpt>
      <trkpt lat="45.83972" lon="1.30302">
        <ele>272</ele>
        <time>2026-08-09T13:47:25.000Z</time>
      </trkpt>
      <trkpt lat="45.83964" lon="1.30276">
        <ele>271.7</ele>
        <time>2026-08-09T13:47:28.000Z</time>
      </trkpt>
      <trkpt lat="45.83952" lon="1.30239">
        <ele>270.1</ele>
        <time>2026-08-09T13:47:32.000Z</time>
      </trkpt>
      <trkpt lat="45.83948" lon="1.30229">
        <ele>269.5</ele>
        <time>2026-08-09T13:47:33.000Z</time>
      </trkpt>
      <trkpt lat="45.83938" lon="1.30201">
        <ele>268.8</ele>
        <time>2026-08-09T13:47:36.000Z</time>
      </trkpt>
      <trkpt lat="45.83927" lon="1.30173">
        <ele>267.9</ele>
        <time>2026-08-09T13:47:39.000Z</time>
      </trkpt>
      <trkpt lat="45.83924" lon="1.30162">
        <ele>267.5</ele>
        <time>2026-08-09T13:47:40.000Z</time>
      </trkpt>
      <trkpt lat="45.83907" lon="1.30108">
        <ele>265.9</ele>
        <time>2026-08-09T13:47:45.000Z</time>
      </trkpt>
      <trkpt lat="45.83904" lon="1.30097">
        <ele>265.7</ele>
        <time>2026-08-09T13:47:46.000Z</time>
      </trkpt>
      <trkpt lat="45.83889" lon="1.30059">
        <ele>266</ele>
        <time>2026-08-09T13:47:50.000Z</time>
      </trkpt>
      <trkpt lat="45.83883" lon="1.30043">
        <ele>266.3</ele>
        <time>2026-08-09T13:47:52.000Z</time>
      </trkpt>
      <trkpt lat="45.83868" lon="1.29998">
        <ele>265.7</ele>
        <time>2026-08-09T13:47:58.000Z</time>
      </trkpt>
      <trkpt lat="45.83853" lon="1.29948">
        <ele>266</ele>
        <time>2026-08-09T13:48:05.000Z</time>
      </trkpt>
      <trkpt lat="45.83851" lon="1.29941">
        <ele>266</ele>
        <time>2026-08-09T13:48:06.000Z</time>
      </trkpt>
      <trkpt lat="45.83837" lon="1.29886">
        <ele>267</ele>
        <time>2026-08-09T13:48:14.000Z</time>
      </trkpt>
      <trkpt lat="45.83829" lon="1.29855">
        <ele>268.5</ele>
        <time>2026-08-09T13:48:20.000Z</time>
      </trkpt>
      <trkpt lat="45.83823" lon="1.29833">
        <ele>269.4</ele>
        <time>2026-08-09T13:48:26.000Z</time>
      </trkpt>
      <trkpt lat="45.83822" lon="1.29826">
        <ele>269.6</ele>
        <time>2026-08-09T13:48:28.000Z</time>
      </trkpt>
      <trkpt lat="45.83818" lon="1.29813">
        <ele>269.9</ele>
        <time>2026-08-09T13:48:32.000Z</time>
      </trkpt>
      <trkpt lat="45.83814" lon="1.29796">
        <ele>270.3</ele>
        <time>2026-08-09T13:48:37.000Z</time>
      </trkpt>
      <trkpt lat="45.8381" lon="1.29783">
        <ele>270.8</ele>
        <time>2026-08-09T13:48:41.000Z</time>
      </trkpt>
      <trkpt lat="45.83804" lon="1.29762">
        <ele>271.6</ele>
        <time>2026-08-09T13:48:48.000Z</time>
      </trkpt>
      <trkpt lat="45.83803" lon="1.29756">
        <ele>271.9</ele>
        <time>2026-08-09T13:48:50.000Z</time>
      </trkpt>
      <trkpt lat="45.83798" lon="1.29742">
        <ele>272.6</ele>
        <time>2026-08-09T13:48:55.000Z</time>
      </trkpt>
      <trkpt lat="45.83793" lon="1.29716">
        <ele>273.6</ele>
        <time>2026-08-09T13:49:03.000Z</time>
      </trkpt>
      <trkpt lat="45.83787" lon="1.29695">
        <ele>274</ele>
        <time>2026-08-09T13:49:10.000Z</time>
      </trkpt>
      <trkpt lat="45.83786" lon="1.29691">
        <ele>274.1</ele>
        <time>2026-08-09T13:49:11.000Z</time>
      </trkpt>
      <trkpt lat="45.83778" lon="1.29668">
        <ele>274.9</ele>
        <time>2026-08-09T13:49:19.000Z</time>
      </trkpt>
      <trkpt lat="45.83776" lon="1.2966">
        <ele>275.1</ele>
        <time>2026-08-09T13:49:22.000Z</time>
      </trkpt>
      <trkpt lat="45.83773" lon="1.29646">
        <ele>275.3</ele>
        <time>2026-08-09T13:49:26.000Z</time>
      </trkpt>
      <trkpt lat="45.83765" lon="1.29612">
        <ele>276</ele>
        <time>2026-08-09T13:49:33.000Z</time>
      </trkpt>
      <trkpt lat="45.83759" lon="1.29593">
        <ele>274.9</ele>
        <time>2026-08-09T13:49:36.000Z</time>
      </trkpt>
      <trkpt lat="45.83753" lon="1.29571">
        <ele>273.3</ele>
        <time>2026-08-09T13:49:39.000Z</time>
      </trkpt>
      <trkpt lat="45.83737" lon="1.29519">
        <ele>271.1</ele>
        <time>2026-08-09T13:49:45.000Z</time>
      </trkpt>
      <trkpt lat="45.83725" lon="1.29479">
        <ele>269.1</ele>
        <time>2026-08-09T13:49:49.000Z</time>
      </trkpt>
      <trkpt lat="45.83723" lon="1.29469">
        <ele>268.8</ele>
        <time>2026-08-09T13:49:50.000Z</time>
      </trkpt>
      <trkpt lat="45.83722" lon="1.29458">
        <ele>268.5</ele>
        <time>2026-08-09T13:49:51.000Z</time>
      </trkpt>
      <trkpt lat="45.8372" lon="1.29447">
        <ele>268.2</ele>
        <time>2026-08-09T13:49:52.000Z</time>
      </trkpt>
      <trkpt lat="45.83713" lon="1.29429">
        <ele>268.3</ele>
        <time>2026-08-09T13:49:54.000Z</time>
      </trkpt>
      <trkpt lat="45.8371" lon="1.2942">
        <ele>268.4</ele>
        <time>2026-08-09T13:49:55.000Z</time>
      </trkpt>
      <trkpt lat="45.83706" lon="1.29403">
        <ele>268.6</ele>
        <time>2026-08-09T13:49:57.000Z</time>
      </trkpt>
      <trkpt lat="45.83705" lon="1.29394">
        <ele>268.6</ele>
        <time>2026-08-09T13:49:58.000Z</time>
      </trkpt>
      <trkpt lat="45.83704" lon="1.29377">
        <ele>268.5</ele>
        <time>2026-08-09T13:50:00.000Z</time>
      </trkpt>
      <trkpt lat="45.83702" lon="1.29347">
        <ele>268.1</ele>
        <time>2026-08-09T13:50:04.000Z</time>
      </trkpt>
      <trkpt lat="45.83699" lon="1.293">
        <ele>268.4</ele>
        <time>2026-08-09T13:50:11.000Z</time>
      </trkpt>
      <trkpt lat="45.83693" lon="1.29267">
        <ele>268.8</ele>
        <time>2026-08-09T13:50:16.000Z</time>
      </trkpt>
      <trkpt lat="45.83692" lon="1.29261">
        <ele>268.7</ele>
        <time>2026-08-09T13:50:17.000Z</time>
      </trkpt>
      <trkpt lat="45.83669" lon="1.29196">
        <ele>268.7</ele>
        <time>2026-08-09T13:50:28.000Z</time>
      </trkpt>
      <trkpt lat="45.83652" lon="1.29149">
        <ele>268.2</ele>
        <time>2026-08-09T13:50:35.000Z</time>
      </trkpt>
      <trkpt lat="45.83646" lon="1.29135">
        <ele>267.7</ele>
        <time>2026-08-09T13:50:37.000Z</time>
      </trkpt>
      <trkpt lat="45.83636" lon="1.29103">
        <ele>268.7</ele>
        <time>2026-08-09T13:50:42.000Z</time>
      </trkpt>
      <trkpt lat="45.83627" lon="1.29077">
        <ele>270.6</ele>
        <time>2026-08-09T13:50:47.000Z</time>
      </trkpt>
      <trkpt lat="45.83625" lon="1.29072">
        <ele>270.6</ele>
        <time>2026-08-09T13:50:48.000Z</time>
      </trkpt>
      <trkpt lat="45.83617" lon="1.29044">
        <ele>270.1</ele>
        <time>2026-08-09T13:50:54.000Z</time>
      </trkpt>
      <trkpt lat="45.8361" lon="1.29011">
        <ele>271.4</ele>
        <time>2026-08-09T13:51:01.000Z</time>
      </trkpt>
      <trkpt lat="45.83605" lon="1.28993">
        <ele>272.4</ele>
        <time>2026-08-09T13:51:05.000Z</time>
      </trkpt>
      <trkpt lat="45.83603" lon="1.28984">
        <ele>272.6</ele>
        <time>2026-08-09T13:51:07.000Z</time>
      </trkpt>
      <trkpt lat="45.83591" lon="1.28944">
        <ele>270.8</ele>
        <time>2026-08-09T13:51:15.000Z</time>
      </trkpt>
      <trkpt lat="45.83583" lon="1.28923">
        <ele>270.1</ele>
        <time>2026-08-09T13:51:19.000Z</time>
      </trkpt>
      <trkpt lat="45.83579" lon="1.2891">
        <ele>270.3</ele>
        <time>2026-08-09T13:51:21.000Z</time>
      </trkpt>
      <trkpt lat="45.83576" lon="1.28904">
        <ele>270.2</ele>
        <time>2026-08-09T13:51:22.000Z</time>
      </trkpt>
      <trkpt lat="45.83563" lon="1.28879">
        <ele>268.1</ele>
        <time>2026-08-09T13:51:26.000Z</time>
      </trkpt>
      <trkpt lat="45.83538" lon="1.28835">
        <ele>265.2</ele>
        <time>2026-08-09T13:51:32.000Z</time>
      </trkpt>
      <trkpt lat="45.83533" lon="1.28827">
        <ele>264.5</ele>
        <time>2026-08-09T13:51:33.000Z</time>
      </trkpt>
      <trkpt lat="45.83518" lon="1.288">
        <ele>262.8</ele>
        <time>2026-08-09T13:51:36.000Z</time>
      </trkpt>
      <trkpt lat="45.83508" lon="1.28781">
        <ele>261.7</ele>
        <time>2026-08-09T13:51:38.000Z</time>
      </trkpt>
      <trkpt lat="45.83497" lon="1.28762">
        <ele>261.1</ele>
        <time>2026-08-09T13:51:40.000Z</time>
      </trkpt>
      <trkpt lat="45.83487" lon="1.28743">
        <ele>260.5</ele>
        <time>2026-08-09T13:51:42.000Z</time>
      </trkpt>
      <trkpt lat="45.8347" lon="1.28715">
        <ele>259.8</ele>
        <time>2026-08-09T13:51:45.000Z</time>
      </trkpt>
      <trkpt lat="45.83456" lon="1.28685">
        <ele>258.9</ele>
        <time>2026-08-09T13:51:48.000Z</time>
      </trkpt>
      <trkpt lat="45.83441" lon="1.28655">
        <ele>257.9</ele>
        <time>2026-08-09T13:51:51.000Z</time>
      </trkpt>
      <trkpt lat="45.83409" lon="1.28599">
        <ele>255.9</ele>
        <time>2026-08-09T13:51:57.000Z</time>
      </trkpt>
      <trkpt lat="45.83397" lon="1.28582">
        <ele>255</ele>
        <time>2026-08-09T13:51:59.000Z</time>
      </trkpt>
      <trkpt lat="45.83391" lon="1.28573">
        <ele>255</ele>
        <time>2026-08-09T13:52:00.000Z</time>
      </trkpt>
      <trkpt lat="45.83378" lon="1.2856">
        <ele>255.1</ele>
        <time>2026-08-09T13:52:02.000Z</time>
      </trkpt>
      <trkpt lat="45.83371" lon="1.28554">
        <ele>255</ele>
        <time>2026-08-09T13:52:03.000Z</time>
      </trkpt>
      <trkpt lat="45.83353" lon="1.28537">
        <ele>255.9</ele>
        <time>2026-08-09T13:52:06.000Z</time>
      </trkpt>
      <trkpt lat="45.83343" lon="1.28524">
        <ele>256</ele>
        <time>2026-08-09T13:52:08.000Z</time>
      </trkpt>
      <trkpt lat="45.83335" lon="1.28511">
        <ele>256</ele>
        <time>2026-08-09T13:52:10.000Z</time>
      </trkpt>
      <trkpt lat="45.83326" lon="1.2849">
        <ele>256.8</ele>
        <time>2026-08-09T13:52:13.000Z</time>
      </trkpt>
      <trkpt lat="45.83322" lon="1.28476">
        <ele>257.2</ele>
        <time>2026-08-09T13:52:15.000Z</time>
      </trkpt>
      <trkpt lat="45.8332" lon="1.28461">
        <ele>256.7</ele>
        <time>2026-08-09T13:52:17.000Z</time>
      </trkpt>
      <trkpt lat="45.83319" lon="1.28454">
        <ele>256.3</ele>
        <time>2026-08-09T13:52:18.000Z</time>
      </trkpt>
      <trkpt lat="45.83315" lon="1.2842">
        <ele>251</ele>
        <time>2026-08-09T13:52:23.000Z</time>
      </trkpt>
      <trkpt lat="45.83314" lon="1.28413">
        <ele>250.5</ele>
        <time>2026-08-09T13:52:24.000Z</time>
      </trkpt>
      <trkpt lat="45.83307" lon="1.28355">
        <ele>256</ele>
        <time>2026-08-09T13:52:33.000Z</time>
      </trkpt>
      <trkpt lat="45.83303" lon="1.28342">
        <ele>256</ele>
        <time>2026-08-09T13:52:35.000Z</time>
      </trkpt>
      <trkpt lat="45.83298" lon="1.28331">
        <ele>256.1</ele>
        <time>2026-08-09T13:52:37.000Z</time>
      </trkpt>
      <trkpt lat="45.83295" lon="1.28325">
        <ele>255.8</ele>
        <time>2026-08-09T13:52:38.000Z</time>
      </trkpt>
      <trkpt lat="45.83275" lon="1.28299">
        <ele>254.8</ele>
        <time>2026-08-09T13:52:43.000Z</time>
      </trkpt>
      <trkpt lat="45.83247" lon="1.28263">
        <ele>253.5</ele>
        <time>2026-08-09T13:52:49.000Z</time>
      </trkpt>
      <trkpt lat="45.83237" lon="1.28251">
        <ele>253.1</ele>
        <time>2026-08-09T13:52:51.000Z</time>
      </trkpt>
      <trkpt lat="45.83223" lon="1.28233">
        <ele>252.3</ele>
        <time>2026-08-09T13:52:54.000Z</time>
      </trkpt>
      <trkpt lat="45.83205" lon="1.28208">
        <ele>251.8</ele>
        <time>2026-08-09T13:52:58.000Z</time>
      </trkpt>
      <trkpt lat="45.832" lon="1.28203">
        <ele>251.8</ele>
        <time>2026-08-09T13:52:59.000Z</time>
      </trkpt>
      <trkpt lat="45.8317" lon="1.28163">
        <ele>251.5</ele>
        <time>2026-08-09T13:53:06.000Z</time>
      </trkpt>
      <trkpt lat="45.83166" lon="1.28158">
        <ele>251.7</ele>
        <time>2026-08-09T13:53:07.000Z</time>
      </trkpt>
      <trkpt lat="45.83136" lon="1.28119">
        <ele>251.5</ele>
        <time>2026-08-09T13:53:15.000Z</time>
      </trkpt>
      <trkpt lat="45.8311" lon="1.28082">
        <ele>251</ele>
        <time>2026-08-09T13:53:22.000Z</time>
      </trkpt>
      <trkpt lat="45.83098" lon="1.28065">
        <ele>250.5</ele>
        <time>2026-08-09T13:53:25.000Z</time>
      </trkpt>
      <trkpt lat="45.83095" lon="1.2806">
        <ele>250.2</ele>
        <time>2026-08-09T13:53:26.000Z</time>
      </trkpt>
      <trkpt lat="45.83092" lon="1.28056">
        <ele>250</ele>
        <time>2026-08-09T13:53:27.000Z</time>
      </trkpt>
      <trkpt lat="45.83086" lon="1.28044">
        <ele>249.6</ele>
        <time>2026-08-09T13:53:31.000Z</time>
      </trkpt>
      <trkpt lat="45.83081" lon="1.28041">
        <ele>249.6</ele>
        <time>2026-08-09T13:53:34.000Z</time>
      </trkpt>
      <trkpt lat="45.8308" lon="1.28039">
        <ele>249.6</ele>
        <time>2026-08-09T13:53:35.000Z</time>
      </trkpt>
      <trkpt lat="45.83078" lon="1.28036">
        <ele>249.6</ele>
        <time>2026-08-09T13:53:36.000Z</time>
      </trkpt>
      <trkpt lat="45.83068" lon="1.28017">
        <ele>249.5</ele>
        <time>2026-08-09T13:53:41.000Z</time>
      </trkpt>
      <trkpt lat="45.83062" lon="1.28008">
        <ele>248.9</ele>
        <time>2026-08-09T13:53:43.000Z</time>
      </trkpt>
      <trkpt lat="45.8305" lon="1.27987">
        <ele>247.8</ele>
        <time>2026-08-09T13:53:47.000Z</time>
      </trkpt>
      <trkpt lat="45.83038" lon="1.27969">
        <ele>247.4</ele>
        <time>2026-08-09T13:53:50.000Z</time>
      </trkpt>
      <trkpt lat="45.83025" lon="1.2795">
        <ele>245.8</ele>
        <time>2026-08-09T13:53:53.000Z</time>
      </trkpt>
      <trkpt lat="45.8302" lon="1.27943">
        <ele>245.4</ele>
        <time>2026-08-09T13:53:54.000Z</time>
      </trkpt>
      <trkpt lat="45.82999" lon="1.27915">
        <ele>242.9</ele>
        <time>2026-08-09T13:53:58.000Z</time>
      </trkpt>
      <trkpt lat="45.82988" lon="1.27901">
        <ele>242.2</ele>
        <time>2026-08-09T13:54:00.000Z</time>
      </trkpt>
      <trkpt lat="45.82977" lon="1.27887">
        <ele>241.6</ele>
        <time>2026-08-09T13:54:02.000Z</time>
      </trkpt>
      <trkpt lat="45.82952" lon="1.27854">
        <ele>242.4</ele>
        <time>2026-08-09T13:54:07.000Z</time>
      </trkpt>
      <trkpt lat="45.82944" lon="1.27837">
        <ele>243.1</ele>
        <time>2026-08-09T13:54:10.000Z</time>
      </trkpt>
      <trkpt lat="45.8294" lon="1.27826">
        <ele>243.1</ele>
        <time>2026-08-09T13:54:12.000Z</time>
      </trkpt>
      <trkpt lat="45.82932" lon="1.27807">
        <ele>243.3</ele>
        <time>2026-08-09T13:54:17.000Z</time>
      </trkpt>
      <trkpt lat="45.82937" lon="1.27779">
        <ele>243.5</ele>
        <time>2026-08-09T13:54:23.000Z</time>
      </trkpt>
      <trkpt lat="45.82947" lon="1.27751">
        <ele>242.9</ele>
        <time>2026-08-09T13:54:28.000Z</time>
      </trkpt>
      <trkpt lat="45.82953" lon="1.27733">
        <ele>242.7</ele>
        <time>2026-08-09T13:54:31.000Z</time>
      </trkpt>
      <trkpt lat="45.82958" lon="1.27714">
        <ele>243</ele>
        <time>2026-08-09T13:54:34.000Z</time>
      </trkpt>
      <trkpt lat="45.82961" lon="1.27702">
        <ele>243.3</ele>
        <time>2026-08-09T13:54:36.000Z</time>
      </trkpt>
      <trkpt lat="45.82975" lon="1.27656">
        <ele>241.7</ele>
        <time>2026-08-09T13:54:43.000Z</time>
      </trkpt>
      <trkpt lat="45.82977" lon="1.27641">
        <ele>241.5</ele>
        <time>2026-08-09T13:54:45.000Z</time>
      </trkpt>
      <trkpt lat="45.82975" lon="1.27621">
        <ele>241.1</ele>
        <time>2026-08-09T13:54:48.000Z</time>
      </trkpt>
      <trkpt lat="45.82973" lon="1.276">
        <ele>240.9</ele>
        <time>2026-08-09T13:54:51.000Z</time>
      </trkpt>
      <trkpt lat="45.82968" lon="1.2758">
        <ele>241.3</ele>
        <time>2026-08-09T13:54:54.000Z</time>
      </trkpt>
      <trkpt lat="45.82959" lon="1.27539">
        <ele>239.6</ele>
        <time>2026-08-09T13:55:00.000Z</time>
      </trkpt>
      <trkpt lat="45.8295" lon="1.27505">
        <ele>238.6</ele>
        <time>2026-08-09T13:55:05.000Z</time>
      </trkpt>
      <trkpt lat="45.82947" lon="1.2749">
        <ele>238.5</ele>
        <time>2026-08-09T13:55:07.000Z</time>
      </trkpt>
      <trkpt lat="45.82938" lon="1.27448">
        <ele>239.4</ele>
        <time>2026-08-09T13:55:13.000Z</time>
      </trkpt>
      <trkpt lat="45.8293" lon="1.27418">
        <ele>239</ele>
        <time>2026-08-09T13:55:18.000Z</time>
      </trkpt>
      <trkpt lat="45.82928" lon="1.27412">
        <ele>238.7</ele>
        <time>2026-08-09T13:55:19.000Z</time>
      </trkpt>
      <trkpt lat="45.82923" lon="1.27396">
        <ele>237.3</ele>
        <time>2026-08-09T13:55:23.000Z</time>
      </trkpt>
      <trkpt lat="45.8292" lon="1.27378">
        <ele>235.7</ele>
        <time>2026-08-09T13:55:27.000Z</time>
      </trkpt>
      <trkpt lat="45.82919" lon="1.27373">
        <ele>235.2</ele>
        <time>2026-08-09T13:55:28.000Z</time>
      </trkpt>
      <trkpt lat="45.82916" lon="1.27353">
        <ele>234</ele>
        <time>2026-08-09T13:55:33.000Z</time>
      </trkpt>
      <trkpt lat="45.82906" lon="1.27323">
        <ele>235</ele>
        <time>2026-08-09T13:55:39.000Z</time>
      </trkpt>
      <trkpt lat="45.82904" lon="1.27317">
        <ele>235</ele>
        <time>2026-08-09T13:55:40.000Z</time>
      </trkpt>
      <trkpt lat="45.82895" lon="1.27283">
        <ele>231.7</ele>
        <time>2026-08-09T13:55:45.000Z</time>
      </trkpt>
      <trkpt lat="45.82891" lon="1.27269">
        <ele>230.4</ele>
        <time>2026-08-09T13:55:47.000Z</time>
      </trkpt>
      <trkpt lat="45.82886" lon="1.27257">
        <ele>230</ele>
        <time>2026-08-09T13:55:49.000Z</time>
      </trkpt>
      <trkpt lat="45.82884" lon="1.27251">
        <ele>229.8</ele>
        <time>2026-08-09T13:55:50.000Z</time>
      </trkpt>
      <trkpt lat="45.82874" lon="1.27225">
        <ele>227.9</ele>
        <time>2026-08-09T13:55:54.000Z</time>
      </trkpt>
      <trkpt lat="45.82871" lon="1.27218">
        <ele>227.3</ele>
        <time>2026-08-09T13:55:55.000Z</time>
      </trkpt>
      <trkpt lat="45.82865" lon="1.27204">
        <ele>226.6</ele>
        <time>2026-08-09T13:55:57.000Z</time>
      </trkpt>
      <trkpt lat="45.82861" lon="1.27198">
        <ele>226.2</ele>
        <time>2026-08-09T13:55:58.000Z</time>
      </trkpt>
      <trkpt lat="45.82852" lon="1.27188">
        <ele>226.1</ele>
        <time>2026-08-09T13:56:00.000Z</time>
      </trkpt>
      <trkpt lat="45.82842" lon="1.27183">
        <ele>226.3</ele>
        <time>2026-08-09T13:56:02.000Z</time>
      </trkpt>
      <trkpt lat="45.82837" lon="1.27179">
        <ele>226.1</ele>
        <time>2026-08-09T13:56:04.000Z</time>
      </trkpt>
      <trkpt lat="45.82836" lon="1.27178">
        <ele>226.1</ele>
        <time>2026-08-09T13:56:07.000Z</time>
      </trkpt>
      <trkpt lat="45.82836" lon="1.27178">
        <ele>226.1</ele>
        <time>2026-08-09T13:56:08.000Z</time>
      </trkpt>
      <trkpt lat="45.82844" lon="1.27182">
        <ele>226</ele>
        <time>2026-08-09T13:59:51.000Z</time>
      </trkpt>
      <trkpt lat="45.82847" lon="1.2718">
        <ele>225.7</ele>
        <time>2026-08-09T13:59:53.000Z</time>
      </trkpt>
      <trkpt lat="45.8285" lon="1.27179">
        <ele>225.5</ele>
        <time>2026-08-09T13:59:55.000Z</time>
      </trkpt>
      <trkpt lat="45.82851" lon="1.27178">
        <ele>225.4</ele>
        <time>2026-08-09T13:59:56.000Z</time>
      </trkpt>
      <trkpt lat="45.82852" lon="1.27177">
        <ele>225.2</ele>
        <time>2026-08-09T13:59:57.000Z</time>
      </trkpt>
      <trkpt lat="45.82853" lon="1.27176">
        <ele>225</ele>
        <time>2026-08-09T13:59:58.000Z</time>
      </trkpt>
      <trkpt lat="45.82855" lon="1.27171">
        <ele>224.6</ele>
        <time>2026-08-09T14:00:01.000Z</time>
      </trkpt>
      <trkpt lat="45.82857" lon="1.27163">
        <ele>224</ele>
        <time>2026-08-09T14:00:04.000Z</time>
      </trkpt>
      <trkpt lat="45.82861" lon="1.27156">
        <ele>223.6</ele>
        <time>2026-08-09T14:00:07.000Z</time>
      </trkpt>
      <trkpt lat="45.82866" lon="1.27147">
        <ele>222.6</ele>
        <time>2026-08-09T14:00:11.000Z</time>
      </trkpt>
      <trkpt lat="45.82867" lon="1.27141">
        <ele>222.2</ele>
        <time>2026-08-09T14:00:14.000Z</time>
      </trkpt>
      <trkpt lat="45.82869" lon="1.27138">
        <ele>221.9</ele>
        <time>2026-08-09T14:00:16.000Z</time>
      </trkpt>
      <trkpt lat="45.82871" lon="1.27136">
        <ele>221.3</ele>
        <time>2026-08-09T14:00:18.000Z</time>
      </trkpt>
      <trkpt lat="45.82873" lon="1.27134">
        <ele>220.9</ele>
        <time>2026-08-09T14:00:20.000Z</time>
      </trkpt>
      <trkpt lat="45.82874" lon="1.27132">
        <ele>220.7</ele>
        <time>2026-08-09T14:00:22.000Z</time>
      </trkpt>
      <trkpt lat="45.82874" lon="1.27131">
        <ele>220.6</ele>
        <time>2026-08-09T14:00:23.000Z</time>
      </trkpt>
      <trkpt lat="45.82881" lon="1.27119">
        <ele>219</ele>
        <time>2026-08-09T14:00:32.000Z</time>
      </trkpt>
      <trkpt lat="45.82882" lon="1.27116">
        <ele>218.7</ele>
        <time>2026-08-09T14:00:34.000Z</time>
      </trkpt>
      <trkpt lat="45.82884" lon="1.27113">
        <ele>218.5</ele>
        <time>2026-08-09T14:00:36.000Z</time>
      </trkpt>
      <trkpt lat="45.82885" lon="1.27111">
        <ele>218.3</ele>
        <time>2026-08-09T14:00:38.000Z</time>
      </trkpt>
      <trkpt lat="45.8289" lon="1.27101">
        <ele>218</ele>
        <time>2026-08-09T14:00:45.000Z</time>
      </trkpt>
      <trkpt lat="45.82896" lon="1.27087">
        <ele>218</ele>
        <time>2026-08-09T14:00:53.000Z</time>
      </trkpt>
      <trkpt lat="45.82903" lon="1.27074">
        <ele>218</ele>
        <time>2026-08-09T14:01:01.000Z</time>
      </trkpt>
      <trkpt lat="45.82909" lon="1.27063">
        <ele>218</ele>
        <time>2026-08-09T14:01:08.000Z</time>
      </trkpt>
      <trkpt lat="45.8291" lon="1.27057">
        <ele>218</ele>
        <time>2026-08-09T14:01:11.000Z</time>
      </trkpt>
      <trkpt lat="45.82915" lon="1.27048">
        <ele>218</ele>
        <time>2026-08-09T14:01:16.000Z</time>
      </trkpt>
      <trkpt lat="45.8292" lon="1.27038">
        <ele>218.3</ele>
        <time>2026-08-09T14:01:21.000Z</time>
      </trkpt>
      <trkpt lat="45.82926" lon="1.27027">
        <ele>219</ele>
        <time>2026-08-09T14:01:27.000Z</time>
      </trkpt>
      <trkpt lat="45.82933" lon="1.27013">
        <ele>220.7</ele>
        <time>2026-08-09T14:01:35.000Z</time>
      </trkpt>
      <trkpt lat="45.8294" lon="1.27">
        <ele>221.9</ele>
        <time>2026-08-09T14:01:43.000Z</time>
      </trkpt>
      <trkpt lat="45.82941" lon="1.26997">
        <ele>222</ele>
        <time>2026-08-09T14:01:45.000Z</time>
      </trkpt>
      <trkpt lat="45.82942" lon="1.26994">
        <ele>222.1</ele>
        <time>2026-08-09T14:01:48.000Z</time>
      </trkpt>
      <trkpt lat="45.82942" lon="1.26993">
        <ele>222.2</ele>
        <time>2026-08-09T14:01:50.000Z</time>
      </trkpt>
      <trkpt lat="45.82942" lon="1.26993">
        <ele>222.2</ele>
        <time>2026-08-09T14:01:51.000Z</time>
      </trkpt>
      <trkpt lat="45.82954" lon="1.26972">
        <ele>224</ele>
        <time>2026-08-09T14:03:17.000Z</time>
      </trkpt>
      <trkpt lat="45.82955" lon="1.26969">
        <ele>224.7</ele>
        <time>2026-08-09T14:03:20.000Z</time>
      </trkpt>
      <trkpt lat="45.8296" lon="1.2696">
        <ele>226.1</ele>
        <time>2026-08-09T14:03:28.000Z</time>
      </trkpt>
      <trkpt lat="45.8296" lon="1.26959">
        <ele>226.3</ele>
        <time>2026-08-09T14:03:29.000Z</time>
      </trkpt>
      <trkpt lat="45.82963" lon="1.26952">
        <ele>227.2</ele>
        <time>2026-08-09T14:03:34.000Z</time>
      </trkpt>
      <trkpt lat="45.82964" lon="1.26949">
        <ele>227.5</ele>
        <time>2026-08-09T14:03:36.000Z</time>
      </trkpt>
      <trkpt lat="45.82965" lon="1.26946">
        <ele>227.8</ele>
        <time>2026-08-09T14:03:38.000Z</time>
      </trkpt>
      <trkpt lat="45.82967" lon="1.2694">
        <ele>228.5</ele>
        <time>2026-08-09T14:03:43.000Z</time>
      </trkpt>
      <trkpt lat="45.82968" lon="1.26937">
        <ele>228.8</ele>
        <time>2026-08-09T14:03:47.000Z</time>
      </trkpt>
      <trkpt lat="45.82969" lon="1.26934">
        <ele>229.2</ele>
        <time>2026-08-09T14:03:51.000Z</time>
      </trkpt>
      <trkpt lat="45.82973" lon="1.26928">
        <ele>229.8</ele>
        <time>2026-08-09T14:03:56.000Z</time>
      </trkpt>
      <trkpt lat="45.82974" lon="1.26926">
        <ele>230.2</ele>
        <time>2026-08-09T14:03:58.000Z</time>
      </trkpt>
      <trkpt lat="45.82976" lon="1.26922">
        <ele>230.9</ele>
        <time>2026-08-09T14:04:02.000Z</time>
      </trkpt>
      <trkpt lat="45.82978" lon="1.26918">
        <ele>231.5</ele>
        <time>2026-08-09T14:04:07.000Z</time>
      </trkpt>
      <trkpt lat="45.82978" lon="1.26915">
        <ele>231.8</ele>
        <time>2026-08-09T14:04:10.000Z</time>
      </trkpt>
      <trkpt lat="45.82978" lon="1.2691">
        <ele>232.8</ele>
        <time>2026-08-09T14:04:16.000Z</time>
      </trkpt>
      <trkpt lat="45.82978" lon="1.26908">
        <ele>232.9</ele>
        <time>2026-08-09T14:04:17.000Z</time>
      </trkpt>
      <trkpt lat="45.82974" lon="1.269">
        <ele>234.1</ele>
        <time>2026-08-09T14:04:26.000Z</time>
      </trkpt>
      <trkpt lat="45.82973" lon="1.26899">
        <ele>234.2</ele>
        <time>2026-08-09T14:04:27.000Z</time>
      </trkpt>
      <trkpt lat="45.82974" lon="1.26888">
        <ele>236.1</ele>
        <time>2026-08-09T14:04:34.000Z</time>
      </trkpt>
      <trkpt lat="45.82974" lon="1.26887">
        <ele>236.2</ele>
        <time>2026-08-09T14:04:35.000Z</time>
      </trkpt>
      <trkpt lat="45.82976" lon="1.26881">
        <ele>236.7</ele>
        <time>2026-08-09T14:04:41.000Z</time>
      </trkpt>
      <trkpt lat="45.82977" lon="1.2688">
        <ele>236.8</ele>
        <time>2026-08-09T14:04:42.000Z</time>
      </trkpt>
      <trkpt lat="45.8298" lon="1.26871">
        <ele>237.4</ele>
        <time>2026-08-09T14:04:49.000Z</time>
      </trkpt>
      <trkpt lat="45.82983" lon="1.26864">
        <ele>237.8</ele>
        <time>2026-08-09T14:04:55.000Z</time>
      </trkpt>
      <trkpt lat="45.82985" lon="1.26859">
        <ele>238.2</ele>
        <time>2026-08-09T14:04:59.000Z</time>
      </trkpt>
      <trkpt lat="45.82987" lon="1.26856">
        <ele>238.5</ele>
        <time>2026-08-09T14:05:02.000Z</time>
      </trkpt>
      <trkpt lat="45.82991" lon="1.26848">
        <ele>239.3</ele>
        <time>2026-08-09T14:05:09.000Z</time>
      </trkpt>
      <trkpt lat="45.82991" lon="1.26846">
        <ele>239.4</ele>
        <time>2026-08-09T14:05:10.000Z</time>
      </trkpt>
      <trkpt lat="45.82992" lon="1.26845">
        <ele>239.6</ele>
        <time>2026-08-09T14:05:12.000Z</time>
      </trkpt>
      <trkpt lat="45.82992" lon="1.26844">
        <ele>239.7</ele>
        <time>2026-08-09T14:05:15.000Z</time>
      </trkpt>
      <trkpt lat="45.83023" lon="1.26824">
        <ele>241.6</ele>
        <time>2026-08-09T14:06:40.000Z</time>
      </trkpt>
      <trkpt lat="45.83025" lon="1.26819">
        <ele>242</ele>
        <time>2026-08-09T14:06:43.000Z</time>
      </trkpt>
      <trkpt lat="45.83026" lon="1.26817">
        <ele>242.2</ele>
        <time>2026-08-09T14:06:44.000Z</time>
      </trkpt>
      <trkpt lat="45.83027" lon="1.26814">
        <ele>242.4</ele>
        <time>2026-08-09T14:06:46.000Z</time>
      </trkpt>
      <trkpt lat="45.83029" lon="1.26808">
        <ele>242.9</ele>
        <time>2026-08-09T14:06:49.000Z</time>
      </trkpt>
      <trkpt lat="45.83034" lon="1.26797">
        <ele>244</ele>
        <time>2026-08-09T14:06:56.000Z</time>
      </trkpt>
      <trkpt lat="45.83037" lon="1.2679">
        <ele>244.8</ele>
        <time>2026-08-09T14:07:00.000Z</time>
      </trkpt>
      <trkpt lat="45.83037" lon="1.26786">
        <ele>245.1</ele>
        <time>2026-08-09T14:07:02.000Z</time>
      </trkpt>
      <trkpt lat="45.8304" lon="1.26776">
        <ele>246</ele>
        <time>2026-08-09T14:07:08.000Z</time>
      </trkpt>
      <trkpt lat="45.83041" lon="1.26774">
        <ele>246.1</ele>
        <time>2026-08-09T14:07:09.000Z</time>
      </trkpt>
      <trkpt lat="45.83045" lon="1.26763">
        <ele>246.9</ele>
        <time>2026-08-09T14:07:16.000Z</time>
      </trkpt>
      <trkpt lat="45.83048" lon="1.26756">
        <ele>247.1</ele>
        <time>2026-08-09T14:07:20.000Z</time>
      </trkpt>
      <trkpt lat="45.83052" lon="1.26749">
        <ele>247.2</ele>
        <time>2026-08-09T14:07:24.000Z</time>
      </trkpt>
      <trkpt lat="45.83052" lon="1.2674">
        <ele>247.6</ele>
        <time>2026-08-09T14:07:28.000Z</time>
      </trkpt>
      <trkpt lat="45.83054" lon="1.26735">
        <ele>247.7</ele>
        <time>2026-08-09T14:07:31.000Z</time>
      </trkpt>
      <trkpt lat="45.83056" lon="1.2673">
        <ele>247.7</ele>
        <time>2026-08-09T14:07:34.000Z</time>
      </trkpt>
      <trkpt lat="45.83057" lon="1.26726">
        <ele>247.9</ele>
        <time>2026-08-09T14:07:36.000Z</time>
      </trkpt>
      <trkpt lat="45.83057" lon="1.26724">
        <ele>248</ele>
        <time>2026-08-09T14:07:37.000Z</time>
      </trkpt>
      <trkpt lat="45.83058" lon="1.26723">
        <ele>248.1</ele>
        <time>2026-08-09T14:07:38.000Z</time>
      </trkpt>
      <trkpt lat="45.83059" lon="1.26721">
        <ele>248.4</ele>
        <time>2026-08-09T14:07:40.000Z</time>
      </trkpt>
      <trkpt lat="45.83061" lon="1.26719">
        <ele>248.9</ele>
        <time>2026-08-09T14:07:42.000Z</time>
      </trkpt>
      <trkpt lat="45.83064" lon="1.26713">
        <ele>250.1</ele>
        <time>2026-08-09T14:07:45.000Z</time>
      </trkpt>
      <trkpt lat="45.83066" lon="1.26711">
        <ele>250.6</ele>
        <time>2026-08-09T14:07:47.000Z</time>
      </trkpt>
      <trkpt lat="45.83067" lon="1.2671">
        <ele>250.9</ele>
        <time>2026-08-09T14:07:48.000Z</time>
      </trkpt>
      <trkpt lat="45.83072" lon="1.26699">
        <ele>252.9</ele>
        <time>2026-08-09T14:07:54.000Z</time>
      </trkpt>
      <trkpt lat="45.83073" lon="1.26698">
        <ele>253.1</ele>
        <time>2026-08-09T14:07:55.000Z</time>
      </trkpt>
      <trkpt lat="45.83073" lon="1.26696">
        <ele>253.4</ele>
        <time>2026-08-09T14:07:56.000Z</time>
      </trkpt>
      <trkpt lat="45.83076" lon="1.26689">
        <ele>253.8</ele>
        <time>2026-08-09T14:07:59.000Z</time>
      </trkpt>
      <trkpt lat="45.83077" lon="1.26685">
        <ele>253.9</ele>
        <time>2026-08-09T14:08:01.000Z</time>
      </trkpt>
      <trkpt lat="45.83078" lon="1.26683">
        <ele>253.9</ele>
        <time>2026-08-09T14:08:02.000Z</time>
      </trkpt>
      <trkpt lat="45.83079" lon="1.26675">
        <ele>253.8</ele>
        <time>2026-08-09T14:08:06.000Z</time>
      </trkpt>
      <trkpt lat="45.8308" lon="1.26671">
        <ele>253.6</ele>
        <time>2026-08-09T14:08:08.000Z</time>
      </trkpt>
      <trkpt lat="45.83081" lon="1.26662">
        <ele>253.6</ele>
        <time>2026-08-09T14:08:13.000Z</time>
      </trkpt>
      <trkpt lat="45.83082" lon="1.26657">
        <ele>253.6</ele>
        <time>2026-08-09T14:08:15.000Z</time>
      </trkpt>
      <trkpt lat="45.83083" lon="1.26655">
        <ele>253.5</ele>
        <time>2026-08-09T14:08:16.000Z</time>
      </trkpt>
      <trkpt lat="45.83081" lon="1.2664">
        <ele>254.2</ele>
        <time>2026-08-09T14:08:22.000Z</time>
      </trkpt>
      <trkpt lat="45.83081" lon="1.26632">
        <ele>254.8</ele>
        <time>2026-08-09T14:08:25.000Z</time>
      </trkpt>
      <trkpt lat="45.83081" lon="1.26623">
        <ele>255.4</ele>
        <time>2026-08-09T14:08:29.000Z</time>
      </trkpt>
      <trkpt lat="45.83081" lon="1.26619">
        <ele>255.7</ele>
        <time>2026-08-09T14:08:31.000Z</time>
      </trkpt>
      <trkpt lat="45.8308" lon="1.26612">
        <ele>256.2</ele>
        <time>2026-08-09T14:08:34.000Z</time>
      </trkpt>
      <trkpt lat="45.8308" lon="1.2661">
        <ele>256.3</ele>
        <time>2026-08-09T14:08:35.000Z</time>
      </trkpt>
      <trkpt lat="45.83078" lon="1.26602">
        <ele>256.3</ele>
        <time>2026-08-09T14:08:39.000Z</time>
      </trkpt>
      <trkpt lat="45.83078" lon="1.26599">
        <ele>256.3</ele>
        <time>2026-08-09T14:08:41.000Z</time>
      </trkpt>
      <trkpt lat="45.8308" lon="1.2659">
        <ele>256.2</ele>
        <time>2026-08-09T14:08:45.000Z</time>
      </trkpt>
      <trkpt lat="45.83079" lon="1.26586">
        <ele>256.2</ele>
        <time>2026-08-09T14:08:47.000Z</time>
      </trkpt>
      <trkpt lat="45.83078" lon="1.2657">
        <ele>256.7</ele>
        <time>2026-08-09T14:08:55.000Z</time>
      </trkpt>
      <trkpt lat="45.83078" lon="1.26568">
        <ele>256.8</ele>
        <time>2026-08-09T14:08:56.000Z</time>
      </trkpt>
      <trkpt lat="45.83078" lon="1.26564">
        <ele>256.9</ele>
        <time>2026-08-09T14:08:58.000Z</time>
      </trkpt>
      <trkpt lat="45.83078" lon="1.2656">
        <ele>257</ele>
        <time>2026-08-09T14:09:00.000Z</time>
      </trkpt>
      <trkpt lat="45.8308" lon="1.26549">
        <ele>257.1</ele>
        <time>2026-08-09T14:09:07.000Z</time>
      </trkpt>
      <trkpt lat="45.83089" lon="1.2654">
        <ele>256.6</ele>
        <time>2026-08-09T14:09:14.000Z</time>
      </trkpt>
      <trkpt lat="45.83096" lon="1.26533">
        <ele>256.7</ele>
        <time>2026-08-09T14:09:19.000Z</time>
      </trkpt>
      <trkpt lat="45.831" lon="1.26528">
        <ele>257</ele>
        <time>2026-08-09T14:09:22.000Z</time>
      </trkpt>
      <trkpt lat="45.8311" lon="1.26515">
        <ele>257</ele>
        <time>2026-08-09T14:09:29.000Z</time>
      </trkpt>
      <trkpt lat="45.83122" lon="1.26506">
        <ele>257.2</ele>
        <time>2026-08-09T14:09:36.000Z</time>
      </trkpt>
      <trkpt lat="45.83137" lon="1.2649">
        <ele>258</ele>
        <time>2026-08-09T14:09:44.000Z</time>
      </trkpt>
      <trkpt lat="45.83152" lon="1.26477">
        <ele>258</ele>
        <time>2026-08-09T14:09:52.000Z</time>
      </trkpt>
      <trkpt lat="45.83154" lon="1.26475">
        <ele>258</ele>
        <time>2026-08-09T14:09:53.000Z</time>
      </trkpt>
      <trkpt lat="45.83155" lon="1.26474">
        <ele>258</ele>
        <time>2026-08-09T14:09:56.000Z</time>
      </trkpt>
      <trkpt lat="45.83163" lon="1.26468">
        <ele>258</ele>
        <time>2026-08-09T14:10:28.000Z</time>
      </trkpt>
      <trkpt lat="45.83168" lon="1.26467">
        <ele>258</ele>
        <time>2026-08-09T14:10:31.000Z</time>
      </trkpt>
      <trkpt lat="45.8317" lon="1.26464">
        <ele>258</ele>
        <time>2026-08-09T14:10:34.000Z</time>
      </trkpt>
      <trkpt lat="45.83172" lon="1.2646">
        <ele>258</ele>
        <time>2026-08-09T14:10:36.000Z</time>
      </trkpt>
      <trkpt lat="45.83174" lon="1.26454">
        <ele>258</ele>
        <time>2026-08-09T14:10:38.000Z</time>
      </trkpt>
      <trkpt lat="45.83178" lon="1.26442">
        <ele>258</ele>
        <time>2026-08-09T14:10:42.000Z</time>
      </trkpt>
      <trkpt lat="45.83189" lon="1.26416">
        <ele>258.8</ele>
        <time>2026-08-09T14:10:52.000Z</time>
      </trkpt>
      <trkpt lat="45.83194" lon="1.26405">
        <ele>259</ele>
        <time>2026-08-09T14:10:57.000Z</time>
      </trkpt>
      <trkpt lat="45.83195" lon="1.26401">
        <ele>259</ele>
        <time>2026-08-09T14:10:59.000Z</time>
      </trkpt>
      <trkpt lat="45.83202" lon="1.26392">
        <ele>259</ele>
        <time>2026-08-09T14:11:07.000Z</time>
      </trkpt>
      <trkpt lat="45.83204" lon="1.26393">
        <ele>259</ele>
        <time>2026-08-09T14:11:10.000Z</time>
      </trkpt>
      <trkpt lat="45.83207" lon="1.26393">
        <ele>259</ele>
        <time>2026-08-09T14:11:13.000Z</time>
      </trkpt>
      <trkpt lat="45.83218" lon="1.26389">
        <ele>259</ele>
        <time>2026-08-09T14:11:18.000Z</time>
      </trkpt>
      <trkpt lat="45.83229" lon="1.26378">
        <ele>259.5</ele>
        <time>2026-08-09T14:11:23.000Z</time>
      </trkpt>
      <trkpt lat="45.83254" lon="1.26361">
        <ele>260</ele>
        <time>2026-08-09T14:11:32.000Z</time>
      </trkpt>
      <trkpt lat="45.83279" lon="1.26348">
        <ele>260</ele>
        <time>2026-08-09T14:11:40.000Z</time>
      </trkpt>
      <trkpt lat="45.83298" lon="1.26336">
        <ele>260</ele>
        <time>2026-08-09T14:11:46.000Z</time>
      </trkpt>
      <trkpt lat="45.83325" lon="1.26318">
        <ele>260</ele>
        <time>2026-08-09T14:11:54.000Z</time>
      </trkpt>
      <trkpt lat="45.83355" lon="1.26307">
        <ele>260</ele>
        <time>2026-08-09T14:12:02.000Z</time>
      </trkpt>
      <trkpt lat="45.83372" lon="1.26297">
        <ele>260.3</ele>
        <time>2026-08-09T14:12:07.000Z</time>
      </trkpt>
      <trkpt lat="45.8338" lon="1.26294">
        <ele>260.4</ele>
        <time>2026-08-09T14:12:09.000Z</time>
      </trkpt>
      <trkpt lat="45.83397" lon="1.26283">
        <ele>260.8</ele>
        <time>2026-08-09T14:12:14.000Z</time>
      </trkpt>
      <trkpt lat="45.83416" lon="1.26276">
        <ele>261</ele>
        <time>2026-08-09T14:12:19.000Z</time>
      </trkpt>
      <trkpt lat="45.83428" lon="1.26266">
        <ele>261</ele>
        <time>2026-08-09T14:12:23.000Z</time>
      </trkpt>
      <trkpt lat="45.83451" lon="1.26251">
        <ele>261.2</ele>
        <time>2026-08-09T14:12:30.000Z</time>
      </trkpt>
      <trkpt lat="45.83477" lon="1.26235">
        <ele>262.1</ele>
        <time>2026-08-09T14:12:38.000Z</time>
      </trkpt>
      <trkpt lat="45.83492" lon="1.26226">
        <ele>262.6</ele>
        <time>2026-08-09T14:12:43.000Z</time>
      </trkpt>
      <trkpt lat="45.83498" lon="1.26223">
        <ele>262.9</ele>
        <time>2026-08-09T14:12:45.000Z</time>
      </trkpt>
      <trkpt lat="45.83516" lon="1.26212">
        <ele>263.6</ele>
        <time>2026-08-09T14:12:51.000Z</time>
      </trkpt>
      <trkpt lat="45.83525" lon="1.26206">
        <ele>263.9</ele>
        <time>2026-08-09T14:12:54.000Z</time>
      </trkpt>
      <trkpt lat="45.83534" lon="1.26202">
        <ele>264.2</ele>
        <time>2026-08-09T14:12:57.000Z</time>
      </trkpt>
      <trkpt lat="45.83548" lon="1.26196">
        <ele>264.7</ele>
        <time>2026-08-09T14:13:02.000Z</time>
      </trkpt>
      <trkpt lat="45.83552" lon="1.26199">
        <ele>264.7</ele>
        <time>2026-08-09T14:13:04.000Z</time>
      </trkpt>
      <trkpt lat="45.83554" lon="1.26202">
        <ele>264.7</ele>
        <time>2026-08-09T14:13:05.000Z</time>
      </trkpt>
      <trkpt lat="45.83555" lon="1.26205">
        <ele>264.6</ele>
        <time>2026-08-09T14:13:06.000Z</time>
      </trkpt>
      <trkpt lat="45.83563" lon="1.26228">
        <ele>263.9</ele>
        <time>2026-08-09T14:13:12.000Z</time>
      </trkpt>
      <trkpt lat="45.83575" lon="1.26263">
        <ele>263.4</ele>
        <time>2026-08-09T14:13:20.000Z</time>
      </trkpt>
      <trkpt lat="45.83584" lon="1.26276">
        <ele>263.1</ele>
        <time>2026-08-09T14:13:25.000Z</time>
      </trkpt>
      <trkpt lat="45.83595" lon="1.26269">
        <ele>263.6</ele>
        <time>2026-08-09T14:13:29.000Z</time>
      </trkpt>
      <trkpt lat="45.83603" lon="1.26263">
        <ele>263.9</ele>
        <time>2026-08-09T14:13:32.000Z</time>
      </trkpt>
      <trkpt lat="45.83616" lon="1.26254">
        <ele>264.3</ele>
        <time>2026-08-09T14:13:37.000Z</time>
      </trkpt>
      <trkpt lat="45.83636" lon="1.26243">
        <ele>265.9</ele>
        <time>2026-08-09T14:13:46.000Z</time>
      </trkpt>
      <trkpt lat="45.83656" lon="1.26233">
        <ele>266.2</ele>
        <time>2026-08-09T14:13:53.000Z</time>
      </trkpt>
      <trkpt lat="45.8366" lon="1.26227">
        <ele>266.1</ele>
        <time>2026-08-09T14:13:55.000Z</time>
      </trkpt>
      <trkpt lat="45.83672" lon="1.26222">
        <ele>266.2</ele>
        <time>2026-08-09T14:14:00.000Z</time>
      </trkpt>
      <trkpt lat="45.83691" lon="1.26211">
        <ele>267.3</ele>
        <time>2026-08-09T14:14:08.000Z</time>
      </trkpt>
      <trkpt lat="45.83702" lon="1.26202">
        <ele>267.9</ele>
        <time>2026-08-09T14:14:14.000Z</time>
      </trkpt>
      <trkpt lat="45.83717" lon="1.2619">
        <ele>268.4</ele>
        <time>2026-08-09T14:14:21.000Z</time>
      </trkpt>
      <trkpt lat="45.83719" lon="1.26189">
        <ele>268.4</ele>
        <time>2026-08-09T14:14:22.000Z</time>
      </trkpt>
      <trkpt lat="45.83738" lon="1.26185">
        <ele>268.9</ele>
        <time>2026-08-09T14:14:29.000Z</time>
      </trkpt>
      <trkpt lat="45.83742" lon="1.26184">
        <ele>268.9</ele>
        <time>2026-08-09T14:14:31.000Z</time>
      </trkpt>
      <trkpt lat="45.83744" lon="1.26181">
        <ele>269</ele>
        <time>2026-08-09T14:14:33.000Z</time>
      </trkpt>
      <trkpt lat="45.83744" lon="1.26179">
        <ele>269</ele>
        <time>2026-08-09T14:14:34.000Z</time>
      </trkpt>
      <trkpt lat="45.83743" lon="1.26176">
        <ele>269.1</ele>
        <time>2026-08-09T14:14:36.000Z</time>
      </trkpt>
      <trkpt lat="45.83746" lon="1.26174">
        <ele>269.1</ele>
        <time>2026-08-09T14:14:39.000Z</time>
      </trkpt>
      <trkpt lat="45.83748" lon="1.26175">
        <ele>269</ele>
        <time>2026-08-09T14:14:44.000Z</time>
      </trkpt>
      <trkpt lat="45.82901" lon="1.26801">
        <ele>247.8</ele>
        <time>2026-08-10T08:21:26.000Z</time>
      </trkpt>
      <trkpt lat="45.82904" lon="1.2679">
        <ele>248.2</ele>
        <time>2026-08-10T08:21:34.000Z</time>
      </trkpt>
      <trkpt lat="45.82905" lon="1.26787">
        <ele>248.4</ele>
        <time>2026-08-10T08:21:36.000Z</time>
      </trkpt>
      <trkpt lat="45.82905" lon="1.26786">
        <ele>248.4</ele>
        <time>2026-08-10T08:21:37.000Z</time>
      </trkpt>
      <trkpt lat="45.82906" lon="1.26783">
        <ele>248.5</ele>
        <time>2026-08-10T08:21:39.000Z</time>
      </trkpt>
      <trkpt lat="45.82905" lon="1.26782">
        <ele>248.6</ele>
        <time>2026-08-10T08:21:40.000Z</time>
      </trkpt>
      <trkpt lat="45.82903" lon="1.26781">
        <ele>248.9</ele>
        <time>2026-08-10T08:21:43.000Z</time>
      </trkpt>
      <trkpt lat="45.82903" lon="1.2678">
        <ele>248.9</ele>
        <time>2026-08-10T08:21:46.000Z</time>
      </trkpt>
      <trkpt lat="45.82907" lon="1.26777">
        <ele>248.8</ele>
        <time>2026-08-10T08:21:59.000Z</time>
      </trkpt>
      <trkpt lat="45.82909" lon="1.26776">
        <ele>248.8</ele>
        <time>2026-08-10T08:22:00.000Z</time>
      </trkpt>
      <trkpt lat="45.82912" lon="1.26768">
        <ele>249.3</ele>
        <time>2026-08-10T08:22:05.000Z</time>
      </trkpt>
      <trkpt lat="45.82914" lon="1.26763">
        <ele>249.5</ele>
        <time>2026-08-10T08:22:08.000Z</time>
      </trkpt>
      <trkpt lat="45.82915" lon="1.26758">
        <ele>249.6</ele>
        <time>2026-08-10T08:22:11.000Z</time>
      </trkpt>
      <trkpt lat="45.82916" lon="1.26756">
        <ele>249.7</ele>
        <time>2026-08-10T08:22:12.000Z</time>
      </trkpt>
      <trkpt lat="45.82917" lon="1.26755">
        <ele>249.6</ele>
        <time>2026-08-10T08:22:13.000Z</time>
      </trkpt>
      <trkpt lat="45.82918" lon="1.26752">
        <ele>249.8</ele>
        <time>2026-08-10T08:22:15.000Z</time>
      </trkpt>
      <trkpt lat="45.82919" lon="1.2675">
        <ele>249.8</ele>
        <time>2026-08-10T08:22:16.000Z</time>
      </trkpt>
      <trkpt lat="45.82924" lon="1.26743">
        <ele>250.1</ele>
        <time>2026-08-10T08:22:21.000Z</time>
      </trkpt>
      <trkpt lat="45.82926" lon="1.26741">
        <ele>250.1</ele>
        <time>2026-08-10T08:22:22.000Z</time>
      </trkpt>
      <trkpt lat="45.82927" lon="1.26739">
        <ele>250.2</ele>
        <time>2026-08-10T08:22:24.000Z</time>
      </trkpt>
      <trkpt lat="45.8293" lon="1.26733">
        <ele>250.6</ele>
        <time>2026-08-10T08:22:27.000Z</time>
      </trkpt>
      <trkpt lat="45.82931" lon="1.26724">
        <ele>251.4</ele>
        <time>2026-08-10T08:22:32.000Z</time>
      </trkpt>
      <trkpt lat="45.82931" lon="1.26722">
        <ele>251.5</ele>
        <time>2026-08-10T08:22:33.000Z</time>
      </trkpt>
      <trkpt lat="45.82932" lon="1.26718">
        <ele>251.8</ele>
        <time>2026-08-10T08:22:35.000Z</time>
      </trkpt>
      <trkpt lat="45.82927" lon="1.26707">
        <ele>253</ele>
        <time>2026-08-10T08:22:40.000Z</time>
      </trkpt>
      <trkpt lat="45.82926" lon="1.26702">
        <ele>253.6</ele>
        <time>2026-08-10T08:22:42.000Z</time>
      </trkpt>
      <trkpt lat="45.82924" lon="1.26698">
        <ele>254.1</ele>
        <time>2026-08-10T08:22:44.000Z</time>
      </trkpt>
      <trkpt lat="45.82923" lon="1.26696">
        <ele>254.4</ele>
        <time>2026-08-10T08:22:45.000Z</time>
      </trkpt>
      <trkpt lat="45.82923" lon="1.26694">
        <ele>254.6</ele>
        <time>2026-08-10T08:22:46.000Z</time>
      </trkpt>
      <trkpt lat="45.82923" lon="1.26689">
        <ele>254.7</ele>
        <time>2026-08-10T08:22:48.000Z</time>
      </trkpt>
      <trkpt lat="45.82923" lon="1.26687">
        <ele>254.8</ele>
        <time>2026-08-10T08:22:49.000Z</time>
      </trkpt>
      <trkpt lat="45.82923" lon="1.26685">
        <ele>254.9</ele>
        <time>2026-08-10T08:22:50.000Z</time>
      </trkpt>
      <trkpt lat="45.82922" lon="1.26684">
        <ele>255</ele>
        <time>2026-08-10T08:22:51.000Z</time>
      </trkpt>
      <trkpt lat="45.82923" lon="1.26682">
        <ele>255</ele>
        <time>2026-08-10T08:22:52.000Z</time>
      </trkpt>
      <trkpt lat="45.82925" lon="1.2668">
        <ele>254.9</ele>
        <time>2026-08-10T08:22:53.000Z</time>
      </trkpt>
      <trkpt lat="45.82929" lon="1.26678">
        <ele>254.7</ele>
        <time>2026-08-10T08:22:55.000Z</time>
      </trkpt>
      <trkpt lat="45.82934" lon="1.2667">
        <ele>254.6</ele>
        <time>2026-08-10T08:23:00.000Z</time>
      </trkpt>
      <trkpt lat="45.82935" lon="1.26668">
        <ele>254.6</ele>
        <time>2026-08-10T08:23:01.000Z</time>
      </trkpt>
      <trkpt lat="45.82939" lon="1.26663">
        <ele>254.8</ele>
        <time>2026-08-10T08:23:05.000Z</time>
      </trkpt>
      <trkpt lat="45.82941" lon="1.26659">
        <ele>255</ele>
        <time>2026-08-10T08:23:07.000Z</time>
      </trkpt>
      <trkpt lat="45.82943" lon="1.26655">
        <ele>255.3</ele>
        <time>2026-08-10T08:23:10.000Z</time>
      </trkpt>
      <trkpt lat="45.82944" lon="1.26655">
        <ele>255.3</ele>
        <time>2026-08-10T08:23:12.000Z</time>
      </trkpt>
      <trkpt lat="45.82944" lon="1.26655">
        <ele>255.3</ele>
        <time>2026-08-10T08:23:13.000Z</time>
      </trkpt>
      <trkpt lat="45.82945" lon="1.26649">
        <ele>256</ele>
        <time>2026-08-10T08:23:25.000Z</time>
      </trkpt>
      <trkpt lat="45.82942" lon="1.26644">
        <ele>256.5</ele>
        <time>2026-08-10T08:23:28.000Z</time>
      </trkpt>
      <trkpt lat="45.82939" lon="1.26638">
        <ele>257</ele>
        <time>2026-08-10T08:23:32.000Z</time>
      </trkpt>
      <trkpt lat="45.82937" lon="1.26635">
        <ele>257.1</ele>
        <time>2026-08-10T08:23:34.000Z</time>
      </trkpt>
      <trkpt lat="45.82925" lon="1.26627">
        <ele>257.4</ele>
        <time>2026-08-10T08:23:40.000Z</time>
      </trkpt>
      <trkpt lat="45.82912" lon="1.26617">
        <ele>257.7</ele>
        <time>2026-08-10T08:23:47.000Z</time>
      </trkpt>
      <trkpt lat="45.82903" lon="1.26609">
        <ele>257.5</ele>
        <time>2026-08-10T08:23:53.000Z</time>
      </trkpt>
      <trkpt lat="45.829" lon="1.26606">
        <ele>257.5</ele>
        <time>2026-08-10T08:23:55.000Z</time>
      </trkpt>
      <trkpt lat="45.82884" lon="1.26596">
        <ele>257.4</ele>
        <time>2026-08-10T08:24:01.000Z</time>
      </trkpt>
      <trkpt lat="45.82882" lon="1.26594">
        <ele>257.3</ele>
        <time>2026-08-10T08:24:02.000Z</time>
      </trkpt>
      <trkpt lat="45.82874" lon="1.26581">
        <ele>257</ele>
        <time>2026-08-10T08:24:06.000Z</time>
      </trkpt>
      <trkpt lat="45.82863" lon="1.26565">
        <ele>256.1</ele>
        <time>2026-08-10T08:24:11.000Z</time>
      </trkpt>
      <trkpt lat="45.8286" lon="1.26564">
        <ele>256</ele>
        <time>2026-08-10T08:24:12.000Z</time>
      </trkpt>
      <trkpt lat="45.82853" lon="1.26561">
        <ele>255.8</ele>
        <time>2026-08-10T08:24:14.000Z</time>
      </trkpt>
      <trkpt lat="45.82847" lon="1.26555">
        <ele>255.5</ele>
        <time>2026-08-10T08:24:17.000Z</time>
      </trkpt>
      <trkpt lat="45.82844" lon="1.26551">
        <ele>255.3</ele>
        <time>2026-08-10T08:24:19.000Z</time>
      </trkpt>
      <trkpt lat="45.82841" lon="1.26544">
        <ele>255.1</ele>
        <time>2026-08-10T08:24:22.000Z</time>
      </trkpt>
      <trkpt lat="45.82839" lon="1.26542">
        <ele>254.9</ele>
        <time>2026-08-10T08:24:23.000Z</time>
      </trkpt>
      <trkpt lat="45.82832" lon="1.26528">
        <ele>254</ele>
        <time>2026-08-10T08:24:29.000Z</time>
      </trkpt>
      <trkpt lat="45.82831" lon="1.26527">
        <ele>253.9</ele>
        <time>2026-08-10T08:24:30.000Z</time>
      </trkpt>
      <trkpt lat="45.82828" lon="1.26526">
        <ele>253.7</ele>
        <time>2026-08-10T08:24:32.000Z</time>
      </trkpt>
      <trkpt lat="45.82825" lon="1.26521">
        <ele>253.4</ele>
        <time>2026-08-10T08:24:34.000Z</time>
      </trkpt>
      <trkpt lat="45.82821" lon="1.26507">
        <ele>252.8</ele>
        <time>2026-08-10T08:24:38.000Z</time>
      </trkpt>
      <trkpt lat="45.82821" lon="1.26499">
        <ele>252.5</ele>
        <time>2026-08-10T08:24:40.000Z</time>
      </trkpt>
      <trkpt lat="45.82814" lon="1.26476">
        <ele>251.7</ele>
        <time>2026-08-10T08:24:46.000Z</time>
      </trkpt>
      <trkpt lat="45.82809" lon="1.26463">
        <ele>251.3</ele>
        <time>2026-08-10T08:24:50.000Z</time>
      </trkpt>
      <trkpt lat="45.82808" lon="1.2646">
        <ele>251.2</ele>
        <time>2026-08-10T08:24:52.000Z</time>
      </trkpt>
      <trkpt lat="45.82804" lon="1.26456">
        <ele>250.9</ele>
        <time>2026-08-10T08:24:56.000Z</time>
      </trkpt>
      <trkpt lat="45.82804" lon="1.26456">
        <ele>250.9</ele>
        <time>2026-08-10T08:24:57.000Z</time>
      </trkpt>
      <trkpt lat="45.82802" lon="1.26446">
        <ele>250.7</ele>
        <time>2026-08-10T08:25:11.000Z</time>
      </trkpt>
      <trkpt lat="45.828" lon="1.2644">
        <ele>250.5</ele>
        <time>2026-08-10T08:25:13.000Z</time>
      </trkpt>
      <trkpt lat="45.82792" lon="1.26427">
        <ele>250</ele>
        <time>2026-08-10T08:25:17.000Z</time>
      </trkpt>
      <trkpt lat="45.82786" lon="1.26414">
        <ele>250.1</ele>
        <time>2026-08-10T08:25:21.000Z</time>
      </trkpt>
      <trkpt lat="45.8278" lon="1.26394">
        <ele>250.8</ele>
        <time>2026-08-10T08:25:27.000Z</time>
      </trkpt>
      <trkpt lat="45.82765" lon="1.26372">
        <ele>251.1</ele>
        <time>2026-08-10T08:25:34.000Z</time>
      </trkpt>
      <trkpt lat="45.82758" lon="1.26361">
        <ele>251.7</ele>
        <time>2026-08-10T08:25:40.000Z</time>
      </trkpt>
      <trkpt lat="45.82755" lon="1.26355">
        <ele>251.9</ele>
        <time>2026-08-10T08:25:44.000Z</time>
      </trkpt>
      <trkpt lat="45.82753" lon="1.26346">
        <ele>252</ele>
        <time>2026-08-10T08:25:50.000Z</time>
      </trkpt>
      <trkpt lat="45.82752" lon="1.26337">
        <ele>252</ele>
        <time>2026-08-10T08:25:53.000Z</time>
      </trkpt>
      <trkpt lat="45.82748" lon="1.26333">
        <ele>252.1</ele>
        <time>2026-08-10T08:25:55.000Z</time>
      </trkpt>
      <trkpt lat="45.82742" lon="1.26321">
        <ele>252.9</ele>
        <time>2026-08-10T08:26:01.000Z</time>
      </trkpt>
      <trkpt lat="45.82737" lon="1.26314">
        <ele>253.5</ele>
        <time>2026-08-10T08:26:04.000Z</time>
      </trkpt>
      <trkpt lat="45.82735" lon="1.26311">
        <ele>253.8</ele>
        <time>2026-08-10T08:26:06.000Z</time>
      </trkpt>
      <trkpt lat="45.8273" lon="1.26298">
        <ele>254.8</ele>
        <time>2026-08-10T08:26:12.000Z</time>
      </trkpt>
      <trkpt lat="45.82729" lon="1.26296">
        <ele>255</ele>
        <time>2026-08-10T08:26:13.000Z</time>
      </trkpt>
      <trkpt lat="45.82723" lon="1.26281">
        <ele>255.8</ele>
        <time>2026-08-10T08:26:20.000Z</time>
      </trkpt>
      <trkpt lat="45.82719" lon="1.26272">
        <ele>256.5</ele>
        <time>2026-08-10T08:26:25.000Z</time>
      </trkpt>
      <trkpt lat="45.82719" lon="1.2627">
        <ele>256.7</ele>
        <time>2026-08-10T08:26:26.000Z</time>
      </trkpt>
      <trkpt lat="45.82716" lon="1.26266">
        <ele>257.1</ele>
        <time>2026-08-10T08:26:28.000Z</time>
      </trkpt>
      <trkpt lat="45.82709" lon="1.26253">
        <ele>258.3</ele>
        <time>2026-08-10T08:26:34.000Z</time>
      </trkpt>
      <trkpt lat="45.82706" lon="1.26245">
        <ele>258.7</ele>
        <time>2026-08-10T08:26:37.000Z</time>
      </trkpt>
      <trkpt lat="45.82704" lon="1.26234">
        <ele>259</ele>
        <time>2026-08-10T08:26:41.000Z</time>
      </trkpt>
      <trkpt lat="45.82705" lon="1.26232">
        <ele>259.1</ele>
        <time>2026-08-10T08:26:42.000Z</time>
      </trkpt>
      <trkpt lat="45.82705" lon="1.26229">
        <ele>259.2</ele>
        <time>2026-08-10T08:26:43.000Z</time>
      </trkpt>
      <trkpt lat="45.82705" lon="1.26224">
        <ele>259.3</ele>
        <time>2026-08-10T08:26:45.000Z</time>
      </trkpt>
      <trkpt lat="45.82704" lon="1.26215">
        <ele>259.8</ele>
        <time>2026-08-10T08:26:48.000Z</time>
      </trkpt>
      <trkpt lat="45.8271" lon="1.26204">
        <ele>260.5</ele>
        <time>2026-08-10T08:26:54.000Z</time>
      </trkpt>
      <trkpt lat="45.82711" lon="1.26177">
        <ele>262.2</ele>
        <time>2026-08-10T08:27:03.000Z</time>
      </trkpt>
      <trkpt lat="45.82711" lon="1.26174">
        <ele>262.3</ele>
        <time>2026-08-10T08:27:04.000Z</time>
      </trkpt>
      <trkpt lat="45.82714" lon="1.26154">
        <ele>263.1</ele>
        <time>2026-08-10T08:27:11.000Z</time>
      </trkpt>
      <trkpt lat="45.82715" lon="1.26149">
        <ele>263.2</ele>
        <time>2026-08-10T08:27:13.000Z</time>
      </trkpt>
      <trkpt lat="45.82716" lon="1.26144">
        <ele>263.2</ele>
        <time>2026-08-10T08:27:15.000Z</time>
      </trkpt>
      <trkpt lat="45.82716" lon="1.26139">
        <ele>263.4</ele>
        <time>2026-08-10T08:27:17.000Z</time>
      </trkpt>
      <trkpt lat="45.82717" lon="1.26131">
        <ele>263.6</ele>
        <time>2026-08-10T08:27:20.000Z</time>
      </trkpt>
      <trkpt lat="45.82717" lon="1.26127">
        <ele>263.7</ele>
        <time>2026-08-10T08:27:22.000Z</time>
      </trkpt>
      <trkpt lat="45.82717" lon="1.26126">
        <ele>263.8</ele>
        <time>2026-08-10T08:27:23.000Z</time>
      </trkpt>
      <trkpt lat="45.82717" lon="1.26121">
        <ele>263.9</ele>
        <time>2026-08-10T08:27:26.000Z</time>
      </trkpt>
      <trkpt lat="45.82717" lon="1.26116">
        <ele>264</ele>
        <time>2026-08-10T08:27:28.000Z</time>
      </trkpt>
      <trkpt lat="45.82719" lon="1.26101">
        <ele>264.5</ele>
        <time>2026-08-10T08:27:34.000Z</time>
      </trkpt>
      <trkpt lat="45.82719" lon="1.261">
        <ele>264.5</ele>
        <time>2026-08-10T08:27:35.000Z</time>
      </trkpt>
      <trkpt lat="45.82721" lon="1.26095">
        <ele>264.7</ele>
        <time>2026-08-10T08:27:38.000Z</time>
      </trkpt>
      <trkpt lat="45.82721" lon="1.2609">
        <ele>264.8</ele>
        <time>2026-08-10T08:27:40.000Z</time>
      </trkpt>
      <trkpt lat="45.82724" lon="1.26075">
        <ele>265.4</ele>
        <time>2026-08-10T08:27:45.000Z</time>
      </trkpt>
      <trkpt lat="45.82727" lon="1.26067">
        <ele>265.8</ele>
        <time>2026-08-10T08:27:49.000Z</time>
      </trkpt>
      <trkpt lat="45.82729" lon="1.26064">
        <ele>266</ele>
        <time>2026-08-10T08:27:51.000Z</time>
      </trkpt>
      <trkpt lat="45.8273" lon="1.26062">
        <ele>266</ele>
        <time>2026-08-10T08:27:52.000Z</time>
      </trkpt>
      <trkpt lat="45.8273" lon="1.26061">
        <ele>266.1</ele>
        <time>2026-08-10T08:27:53.000Z</time>
      </trkpt>
      <trkpt lat="45.82732" lon="1.26059">
        <ele>266.2</ele>
        <time>2026-08-10T08:27:55.000Z</time>
      </trkpt>
      <trkpt lat="45.82735" lon="1.2606">
        <ele>266.3</ele>
        <time>2026-08-10T08:28:00.000Z</time>
      </trkpt>
      <trkpt lat="45.82742" lon="1.26061">
        <ele>266.5</ele>
        <time>2026-08-10T08:28:07.000Z</time>
      </trkpt>
      <trkpt lat="45.82747" lon="1.26066">
        <ele>266.5</ele>
        <time>2026-08-10T08:28:10.000Z</time>
      </trkpt>
      <trkpt lat="45.82758" lon="1.26074">
        <ele>266.7</ele>
        <time>2026-08-10T08:28:16.000Z</time>
      </trkpt>
      <trkpt lat="45.8276" lon="1.26074">
        <ele>266.8</ele>
        <time>2026-08-10T08:28:21.000Z</time>
      </trkpt>
      <trkpt lat="45.82766" lon="1.26076">
        <ele>266.9</ele>
        <time>2026-08-10T08:28:29.000Z</time>
      </trkpt>
      <trkpt lat="45.82763" lon="1.26072">
        <ele>267.2</ele>
        <time>2026-08-10T08:28:31.000Z</time>
      </trkpt>
      <trkpt lat="45.8275" lon="1.26055">
        <ele>267.1</ele>
        <time>2026-08-10T08:28:37.000Z</time>
      </trkpt>
      <trkpt lat="45.82739" lon="1.26031">
        <ele>268</ele>
        <time>2026-08-10T08:28:45.000Z</time>
      </trkpt>
      <trkpt lat="45.82737" lon="1.26006">
        <ele>270.1</ele>
        <time>2026-08-10T08:28:52.000Z</time>
      </trkpt>
      <trkpt lat="45.8274" lon="1.25986">
        <ele>270.3</ele>
        <time>2026-08-10T08:28:58.000Z</time>
      </trkpt>
      <trkpt lat="45.82741" lon="1.25983">
        <ele>270.1</ele>
        <time>2026-08-10T08:28:59.000Z</time>
      </trkpt>
      <trkpt lat="45.82745" lon="1.25971">
        <ele>269.7</ele>
        <time>2026-08-10T08:29:03.000Z</time>
      </trkpt>
      <trkpt lat="45.82753" lon="1.25946">
        <ele>270.4</ele>
        <time>2026-08-10T08:29:11.000Z</time>
      </trkpt>
      <trkpt lat="45.82754" lon="1.25943">
        <ele>270.5</ele>
        <time>2026-08-10T08:29:12.000Z</time>
      </trkpt>
      <trkpt lat="45.82757" lon="1.25932">
        <ele>271</ele>
        <time>2026-08-10T08:29:16.000Z</time>
      </trkpt>
      <trkpt lat="45.82757" lon="1.25929">
        <ele>271</ele>
        <time>2026-08-10T08:29:17.000Z</time>
      </trkpt>
      <trkpt lat="45.82761" lon="1.25917">
        <ele>271.4</ele>
        <time>2026-08-10T08:29:21.000Z</time>
      </trkpt>
      <trkpt lat="45.82762" lon="1.2591">
        <ele>271.8</ele>
        <time>2026-08-10T08:29:23.000Z</time>
      </trkpt>
      <trkpt lat="45.82771" lon="1.25885">
        <ele>273.8</ele>
        <time>2026-08-10T08:29:31.000Z</time>
      </trkpt>
      <trkpt lat="45.82772" lon="1.25879">
        <ele>273.9</ele>
        <time>2026-08-10T08:29:33.000Z</time>
      </trkpt>
      <trkpt lat="45.82779" lon="1.25859">
        <ele>274.2</ele>
        <time>2026-08-10T08:29:40.000Z</time>
      </trkpt>
      <trkpt lat="45.82783" lon="1.25849">
        <ele>274.3</ele>
        <time>2026-08-10T08:29:44.000Z</time>
      </trkpt>
      <trkpt lat="45.82784" lon="1.25843">
        <ele>274.3</ele>
        <time>2026-08-10T08:29:47.000Z</time>
      </trkpt>
      <trkpt lat="45.82785" lon="1.25842">
        <ele>274.2</ele>
        <time>2026-08-10T08:29:50.000Z</time>
      </trkpt>
      <trkpt lat="45.82785" lon="1.25839">
        <ele>274.1</ele>
        <time>2026-08-10T08:30:23.000Z</time>
      </trkpt>
      <trkpt lat="45.82785" lon="1.25835">
        <ele>273.9</ele>
        <time>2026-08-10T08:30:24.000Z</time>
      </trkpt>
      <trkpt lat="45.82782" lon="1.2581">
        <ele>274.1</ele>
        <time>2026-08-10T08:30:31.000Z</time>
      </trkpt>
      <trkpt lat="45.82784" lon="1.25805">
        <ele>274.5</ele>
        <time>2026-08-10T08:30:33.000Z</time>
      </trkpt>
      <trkpt lat="45.82786" lon="1.25801">
        <ele>274.8</ele>
        <time>2026-08-10T08:30:35.000Z</time>
      </trkpt>
      <trkpt lat="45.82789" lon="1.25787">
        <ele>275.4</ele>
        <time>2026-08-10T08:30:40.000Z</time>
      </trkpt>
      <trkpt lat="45.82789" lon="1.25785">
        <ele>275.6</ele>
        <time>2026-08-10T08:30:41.000Z</time>
      </trkpt>
      <trkpt lat="45.82793" lon="1.25764">
        <ele>276.8</ele>
        <time>2026-08-10T08:30:48.000Z</time>
      </trkpt>
      <trkpt lat="45.82793" lon="1.25762">
        <ele>277</ele>
        <time>2026-08-10T08:30:49.000Z</time>
      </trkpt>
      <trkpt lat="45.82796" lon="1.25746">
        <ele>278</ele>
        <time>2026-08-10T08:30:55.000Z</time>
      </trkpt>
      <trkpt lat="45.82798" lon="1.25741">
        <ele>278.1</ele>
        <time>2026-08-10T08:30:57.000Z</time>
      </trkpt>
      <trkpt lat="45.82801" lon="1.25731">
        <ele>278.2</ele>
        <time>2026-08-10T08:31:01.000Z</time>
      </trkpt>
      <trkpt lat="45.82804" lon="1.25719">
        <ele>278.1</ele>
        <time>2026-08-10T08:31:06.000Z</time>
      </trkpt>
      <trkpt lat="45.82805" lon="1.25717">
        <ele>278.2</ele>
        <time>2026-08-10T08:31:07.000Z</time>
      </trkpt>
      <trkpt lat="45.82814" lon="1.25702">
        <ele>279.4</ele>
        <time>2026-08-10T08:31:14.000Z</time>
      </trkpt>
      <trkpt lat="45.82814" lon="1.25699">
        <ele>279.5</ele>
        <time>2026-08-10T08:31:15.000Z</time>
      </trkpt>
      <trkpt lat="45.82817" lon="1.2569">
        <ele>280</ele>
        <time>2026-08-10T08:31:19.000Z</time>
      </trkpt>
      <trkpt lat="45.82822" lon="1.25681">
        <ele>280.7</ele>
        <time>2026-08-10T08:31:23.000Z</time>
      </trkpt>
      <trkpt lat="45.82827" lon="1.25673">
        <ele>281.3</ele>
        <time>2026-08-10T08:31:27.000Z</time>
      </trkpt>
      <trkpt lat="45.82829" lon="1.25668">
        <ele>281.6</ele>
        <time>2026-08-10T08:31:29.000Z</time>
      </trkpt>
      <trkpt lat="45.82836" lon="1.25655">
        <ele>282.6</ele>
        <time>2026-08-10T08:31:35.000Z</time>
      </trkpt>
      <trkpt lat="45.82839" lon="1.25648">
        <ele>283</ele>
        <time>2026-08-10T08:31:38.000Z</time>
      </trkpt>
      <trkpt lat="45.82845" lon="1.2564">
        <ele>283.4</ele>
        <time>2026-08-10T08:31:43.000Z</time>
      </trkpt>
      <trkpt lat="45.82852" lon="1.25631">
        <ele>284</ele>
        <time>2026-08-10T08:31:48.000Z</time>
      </trkpt>
      <trkpt lat="45.82853" lon="1.2563">
        <ele>284.1</ele>
        <time>2026-08-10T08:31:49.000Z</time>
      </trkpt>
      <trkpt lat="45.82858" lon="1.25625">
        <ele>284.5</ele>
        <time>2026-08-10T08:31:53.000Z</time>
      </trkpt>
      <trkpt lat="45.82864" lon="1.25622">
        <ele>284.9</ele>
        <time>2026-08-10T08:31:56.000Z</time>
      </trkpt>
      <trkpt lat="45.82869" lon="1.25616">
        <ele>285.4</ele>
        <time>2026-08-10T08:31:57.000Z</time>
      </trkpt>
      <trkpt lat="45.82872" lon="1.25605">
        <ele>285.9</ele>
        <time>2026-08-10T08:32:01.000Z</time>
      </trkpt>
      <trkpt lat="45.82872" lon="1.25605">
        <ele>285.9</ele>
        <time>2026-08-10T08:32:02.000Z</time>
      </trkpt>
      <trkpt lat="45.82875" lon="1.25591">
        <ele>286.4</ele>
        <time>2026-08-10T08:32:07.000Z</time>
      </trkpt>
      <trkpt lat="45.82878" lon="1.25584">
        <ele>286.6</ele>
        <time>2026-08-10T08:32:09.000Z</time>
      </trkpt>
      <trkpt lat="45.82889" lon="1.25577">
        <ele>287.8</ele>
        <time>2026-08-10T08:32:15.000Z</time>
      </trkpt>
      <trkpt lat="45.82891" lon="1.25572">
        <ele>288.3</ele>
        <time>2026-08-10T08:32:17.000Z</time>
      </trkpt>
      <trkpt lat="45.82894" lon="1.25566">
        <ele>288.9</ele>
        <time>2026-08-10T08:32:21.000Z</time>
      </trkpt>
      <trkpt lat="45.82902" lon="1.25555">
        <ele>289.5</ele>
        <time>2026-08-10T08:32:27.000Z</time>
      </trkpt>
      <trkpt lat="45.82905" lon="1.25552">
        <ele>289.7</ele>
        <time>2026-08-10T08:32:29.000Z</time>
      </trkpt>
      <trkpt lat="45.82913" lon="1.25545">
        <ele>289.9</ele>
        <time>2026-08-10T08:32:33.000Z</time>
      </trkpt>
      <trkpt lat="45.8292" lon="1.25537">
        <ele>290.6</ele>
        <time>2026-08-10T08:32:38.000Z</time>
      </trkpt>
      <trkpt lat="45.82923" lon="1.25533">
        <ele>290.9</ele>
        <time>2026-08-10T08:32:40.000Z</time>
      </trkpt>
      <trkpt lat="45.82924" lon="1.25532">
        <ele>291.1</ele>
        <time>2026-08-10T08:32:41.000Z</time>
      </trkpt>
      <trkpt lat="45.82931" lon="1.2552">
        <ele>292.2</ele>
        <time>2026-08-10T08:32:46.000Z</time>
      </trkpt>
      <trkpt lat="45.82937" lon="1.25512">
        <ele>292.8</ele>
        <time>2026-08-10T08:32:50.000Z</time>
      </trkpt>
      <trkpt lat="45.82939" lon="1.25513">
        <ele>292.6</ele>
        <time>2026-08-10T08:32:51.000Z</time>
      </trkpt>
      <trkpt lat="45.82951" lon="1.25499">
        <ele>293.1</ele>
        <time>2026-08-10T08:32:57.000Z</time>
      </trkpt>
      <trkpt lat="45.82952" lon="1.25497">
        <ele>293.4</ele>
        <time>2026-08-10T08:32:58.000Z</time>
      </trkpt>
      <trkpt lat="45.82963" lon="1.25502">
        <ele>293</ele>
        <time>2026-08-10T08:33:03.000Z</time>
      </trkpt>
      <trkpt lat="45.82976" lon="1.25503">
        <ele>293.1</ele>
        <time>2026-08-10T08:33:10.000Z</time>
      </trkpt>
      <trkpt lat="45.82977" lon="1.25503">
        <ele>293.2</ele>
        <time>2026-08-10T08:33:11.000Z</time>
      </trkpt>
      <trkpt lat="45.82984" lon="1.25504">
        <ele>293.4</ele>
        <time>2026-08-10T08:33:15.000Z</time>
      </trkpt>
      <trkpt lat="45.82987" lon="1.25507">
        <ele>293.4</ele>
        <time>2026-08-10T08:33:17.000Z</time>
      </trkpt>
      <trkpt lat="45.82989" lon="1.25508">
        <ele>293.4</ele>
        <time>2026-08-10T08:33:21.000Z</time>
      </trkpt>
      <trkpt lat="45.82995" lon="1.25512">
        <ele>293.5</ele>
        <time>2026-08-10T08:33:33.000Z</time>
      </trkpt>
      <trkpt lat="45.82997" lon="1.25514">
        <ele>293.4</ele>
        <time>2026-08-10T08:33:34.000Z</time>
      </trkpt>
      <trkpt lat="45.83005" lon="1.2552">
        <ele>293.2</ele>
        <time>2026-08-10T08:33:37.000Z</time>
      </trkpt>
      <trkpt lat="45.83028" lon="1.25534">
        <ele>292.5</ele>
        <time>2026-08-10T08:33:44.000Z</time>
      </trkpt>
      <trkpt lat="45.83042" lon="1.25523">
        <ele>292.5</ele>
        <time>2026-08-10T08:33:48.000Z</time>
      </trkpt>
      <trkpt lat="45.8305" lon="1.25504">
        <ele>292.2</ele>
        <time>2026-08-10T08:33:52.000Z</time>
      </trkpt>
      <trkpt lat="45.83053" lon="1.25493">
        <ele>292.6</ele>
        <time>2026-08-10T08:33:56.000Z</time>
      </trkpt>
      <trkpt lat="45.83053" lon="1.25493">
        <ele>292.6</ele>
        <time>2026-08-10T08:33:58.000Z</time>
      </trkpt>
      <trkpt lat="45.83055" lon="1.2549">
        <ele>292.7</ele>
        <time>2026-08-10T08:34:12.000Z</time>
      </trkpt>
      <trkpt lat="45.83057" lon="1.25487">
        <ele>292.8</ele>
        <time>2026-08-10T08:34:13.000Z</time>
      </trkpt>
      <trkpt lat="45.83068" lon="1.25467">
        <ele>293.3</ele>
        <time>2026-08-10T08:34:18.000Z</time>
      </trkpt>
      <trkpt lat="45.83089" lon="1.25452">
        <ele>292.5</ele>
        <time>2026-08-10T08:34:26.000Z</time>
      </trkpt>
      <trkpt lat="45.83092" lon="1.25449">
        <ele>292.4</ele>
        <time>2026-08-10T08:34:30.000Z</time>
      </trkpt>
      <trkpt lat="45.831" lon="1.25449">
        <ele>292.2</ele>
        <time>2026-08-10T08:34:34.000Z</time>
      </trkpt>
      <trkpt lat="45.83102" lon="1.25448">
        <ele>292.1</ele>
        <time>2026-08-10T08:34:36.000Z</time>
      </trkpt>
      <trkpt lat="45.83113" lon="1.25434">
        <ele>292.3</ele>
        <time>2026-08-10T08:34:41.000Z</time>
      </trkpt>
      <trkpt lat="45.83121" lon="1.2542">
        <ele>292.5</ele>
        <time>2026-08-10T08:34:45.000Z</time>
      </trkpt>
      <trkpt lat="45.83124" lon="1.25417">
        <ele>292.5</ele>
        <time>2026-08-10T08:34:46.000Z</time>
      </trkpt>
      <trkpt lat="45.83142" lon="1.25392">
        <ele>292.6</ele>
        <time>2026-08-10T08:34:53.000Z</time>
      </trkpt>
      <trkpt lat="45.83159" lon="1.25366">
        <ele>293</ele>
        <time>2026-08-10T08:35:01.000Z</time>
      </trkpt>
      <trkpt lat="45.83171" lon="1.25346">
        <ele>293.5</ele>
        <time>2026-08-10T08:35:06.000Z</time>
      </trkpt>
      <trkpt lat="45.83184" lon="1.25323">
        <ele>294.1</ele>
        <time>2026-08-10T08:35:12.000Z</time>
      </trkpt>
      <trkpt lat="45.83194" lon="1.25304">
        <ele>294.1</ele>
        <time>2026-08-10T08:35:17.000Z</time>
      </trkpt>
      <trkpt lat="45.83206" lon="1.2528">
        <ele>294.9</ele>
        <time>2026-08-10T08:35:23.000Z</time>
      </trkpt>
      <trkpt lat="45.83215" lon="1.25272">
        <ele>295.1</ele>
        <time>2026-08-10T08:35:26.000Z</time>
      </trkpt>
      <trkpt lat="45.83221" lon="1.2526">
        <ele>295</ele>
        <time>2026-08-10T08:35:29.000Z</time>
      </trkpt>
      <trkpt lat="45.83234" lon="1.25242">
        <ele>295.3</ele>
        <time>2026-08-10T08:35:35.000Z</time>
      </trkpt>
      <trkpt lat="45.83246" lon="1.25224">
        <ele>295.9</ele>
        <time>2026-08-10T08:35:41.000Z</time>
      </trkpt>
      <trkpt lat="45.83248" lon="1.25221">
        <ele>296</ele>
        <time>2026-08-10T08:35:42.000Z</time>
      </trkpt>
      <trkpt lat="45.83259" lon="1.25204">
        <ele>295.9</ele>
        <time>2026-08-10T08:35:49.000Z</time>
      </trkpt>
      <trkpt lat="45.83265" lon="1.25193">
        <ele>296</ele>
        <time>2026-08-10T08:35:55.000Z</time>
      </trkpt>
      <trkpt lat="45.83277" lon="1.25173">
        <ele>296</ele>
        <time>2026-08-10T08:36:01.000Z</time>
      </trkpt>
      <trkpt lat="45.83277" lon="1.25173">
        <ele>296</ele>
        <time>2026-08-10T08:36:02.000Z</time>
      </trkpt>
      <trkpt lat="45.83292" lon="1.25148">
        <ele>297.1</ele>
        <time>2026-08-10T08:36:09.000Z</time>
      </trkpt>
      <trkpt lat="45.83306" lon="1.25118">
        <ele>298</ele>
        <time>2026-08-10T08:36:17.000Z</time>
      </trkpt>
      <trkpt lat="45.83317" lon="1.25106">
        <ele>297.7</ele>
        <time>2026-08-10T08:36:22.000Z</time>
      </trkpt>
      <trkpt lat="45.83319" lon="1.25102">
        <ele>297.8</ele>
        <time>2026-08-10T08:36:23.000Z</time>
      </trkpt>
      <trkpt lat="45.83334" lon="1.2508">
        <ele>299</ele>
        <time>2026-08-10T08:36:29.000Z</time>
      </trkpt>
      <trkpt lat="45.8334" lon="1.25072">
        <ele>298.8</ele>
        <time>2026-08-10T08:36:32.000Z</time>
      </trkpt>
      <trkpt lat="45.83347" lon="1.2506">
        <ele>299.3</ele>
        <time>2026-08-10T08:36:36.000Z</time>
      </trkpt>
      <trkpt lat="45.83359" lon="1.25037">
        <ele>300</ele>
        <time>2026-08-10T08:36:44.000Z</time>
      </trkpt>
      <trkpt lat="45.83362" lon="1.25032">
        <ele>300</ele>
        <time>2026-08-10T08:36:46.000Z</time>
      </trkpt>
      <trkpt lat="45.83368" lon="1.25017">
        <ele>300.5</ele>
        <time>2026-08-10T08:36:51.000Z</time>
      </trkpt>
      <trkpt lat="45.83374" lon="1.25004">
        <ele>301.2</ele>
        <time>2026-08-10T08:36:57.000Z</time>
      </trkpt>
      <trkpt lat="45.83375" lon="1.25">
        <ele>301.5</ele>
        <time>2026-08-10T08:36:59.000Z</time>
      </trkpt>
      <trkpt lat="45.8338" lon="1.24994">
        <ele>301.8</ele>
        <time>2026-08-10T08:37:02.000Z</time>
      </trkpt>
      <trkpt lat="45.83388" lon="1.24981">
        <ele>302</ele>
        <time>2026-08-10T08:37:08.000Z</time>
      </trkpt>
      <trkpt lat="45.83397" lon="1.24967">
        <ele>302.5</ele>
        <time>2026-08-10T08:37:13.000Z</time>
      </trkpt>
      <trkpt lat="45.83399" lon="1.24965">
        <ele>302.6</ele>
        <time>2026-08-10T08:37:14.000Z</time>
      </trkpt>
      <trkpt lat="45.83407" lon="1.24949">
        <ele>303.5</ele>
        <time>2026-08-10T08:37:20.000Z</time>
      </trkpt>
      <trkpt lat="45.83414" lon="1.24935">
        <ele>303.9</ele>
        <time>2026-08-10T08:37:25.000Z</time>
      </trkpt>
      <trkpt lat="45.83415" lon="1.24933">
        <ele>304</ele>
        <time>2026-08-10T08:37:26.000Z</time>
      </trkpt>
      <trkpt lat="45.83424" lon="1.24916">
        <ele>304.3</ele>
        <time>2026-08-10T08:37:33.000Z</time>
      </trkpt>
      <trkpt lat="45.8343" lon="1.24909">
        <ele>304.9</ele>
        <time>2026-08-10T08:37:36.000Z</time>
      </trkpt>
      <trkpt lat="45.83434" lon="1.24905">
        <ele>305.2</ele>
        <time>2026-08-10T08:37:38.000Z</time>
      </trkpt>
      <trkpt lat="45.8344" lon="1.24903">
        <ele>305.4</ele>
        <time>2026-08-10T08:37:40.000Z</time>
      </trkpt>
      <trkpt lat="45.83444" lon="1.24903">
        <ele>305.5</ele>
        <time>2026-08-10T08:37:42.000Z</time>
      </trkpt>
      <trkpt lat="45.83445" lon="1.24902">
        <ele>305.5</ele>
        <time>2026-08-10T08:37:43.000Z</time>
      </trkpt>
      <trkpt lat="45.83451" lon="1.24893">
        <ele>306.1</ele>
        <time>2026-08-10T08:37:47.000Z</time>
      </trkpt>
      <trkpt lat="45.83456" lon="1.24885">
        <ele>306.5</ele>
        <time>2026-08-10T08:37:50.000Z</time>
      </trkpt>
      <trkpt lat="45.83456" lon="1.24879">
        <ele>306.8</ele>
        <time>2026-08-10T08:37:52.000Z</time>
      </trkpt>
      <trkpt lat="45.83452" lon="1.24871">
        <ele>306.9</ele>
        <time>2026-08-10T08:37:55.000Z</time>
      </trkpt>
      <trkpt lat="45.83447" lon="1.24867">
        <ele>306.9</ele>
        <time>2026-08-10T08:37:57.000Z</time>
      </trkpt>
      <trkpt lat="45.83441" lon="1.24855">
        <ele>307.3</ele>
        <time>2026-08-10T08:38:01.000Z</time>
      </trkpt>
      <trkpt lat="45.83435" lon="1.24846">
        <ele>307.5</ele>
        <time>2026-08-10T08:38:07.000Z</time>
      </trkpt>
      <trkpt lat="45.83429" lon="1.2483">
        <ele>307.5</ele>
        <time>2026-08-10T08:38:13.000Z</time>
      </trkpt>
      <trkpt lat="45.83423" lon="1.24811">
        <ele>307.2</ele>
        <time>2026-08-10T08:38:19.000Z</time>
      </trkpt>
      <trkpt lat="45.83416" lon="1.24794">
        <ele>307.4</ele>
        <time>2026-08-10T08:38:24.000Z</time>
      </trkpt>
      <trkpt lat="45.83403" lon="1.24766">
        <ele>307.6</ele>
        <time>2026-08-10T08:38:31.000Z</time>
      </trkpt>
      <trkpt lat="45.83394" lon="1.24742">
        <ele>306.3</ele>
        <time>2026-08-10T08:38:38.000Z</time>
      </trkpt>
      <trkpt lat="45.83398" lon="1.2472">
        <ele>306</ele>
        <time>2026-08-10T08:38:44.000Z</time>
      </trkpt>
      <trkpt lat="45.83409" lon="1.24695">
        <ele>305.3</ele>
        <time>2026-08-10T08:38:50.000Z</time>
      </trkpt>
      <trkpt lat="45.83423" lon="1.24664">
        <ele>303.9</ele>
        <time>2026-08-10T08:38:56.000Z</time>
      </trkpt>
      <trkpt lat="45.83432" lon="1.24641">
        <ele>303.1</ele>
        <time>2026-08-10T08:39:00.000Z</time>
      </trkpt>
      <trkpt lat="45.83437" lon="1.2463">
        <ele>302.7</ele>
        <time>2026-08-10T08:39:02.000Z</time>
      </trkpt>
      <trkpt lat="45.83448" lon="1.24612">
        <ele>302</ele>
        <time>2026-08-10T08:39:05.000Z</time>
      </trkpt>
      <trkpt lat="45.8345" lon="1.24607">
        <ele>301.9</ele>
        <time>2026-08-10T08:39:06.000Z</time>
      </trkpt>
      <trkpt lat="45.83454" lon="1.24602">
        <ele>301.7</ele>
        <time>2026-08-10T08:39:07.000Z</time>
      </trkpt>
      <trkpt lat="45.83464" lon="1.24585">
        <ele>301.1</ele>
        <time>2026-08-10T08:39:10.000Z</time>
      </trkpt>
      <trkpt lat="45.83467" lon="1.2458">
        <ele>300.8</ele>
        <time>2026-08-10T08:39:11.000Z</time>
      </trkpt>
      <trkpt lat="45.83473" lon="1.24568">
        <ele>299.9</ele>
        <time>2026-08-10T08:39:13.000Z</time>
      </trkpt>
      <trkpt lat="45.83482" lon="1.2455">
        <ele>299.2</ele>
        <time>2026-08-10T08:39:16.000Z</time>
      </trkpt>
      <trkpt lat="45.83504" lon="1.24513">
        <ele>298.7</ele>
        <time>2026-08-10T08:39:22.000Z</time>
      </trkpt>
      <trkpt lat="45.83529" lon="1.24469">
        <ele>298</ele>
        <time>2026-08-10T08:39:29.000Z</time>
      </trkpt>
      <trkpt lat="45.83533" lon="1.24463">
        <ele>297.9</ele>
        <time>2026-08-10T08:39:30.000Z</time>
      </trkpt>
      <trkpt lat="45.83547" lon="1.24439">
        <ele>296.9</ele>
        <time>2026-08-10T08:39:34.000Z</time>
      </trkpt>
      <trkpt lat="45.83554" lon="1.24428">
        <ele>297</ele>
        <time>2026-08-10T08:39:36.000Z</time>
      </trkpt>
      <trkpt lat="45.83559" lon="1.24417">
        <ele>297.1</ele>
        <time>2026-08-10T08:39:38.000Z</time>
      </trkpt>
      <trkpt lat="45.83575" lon="1.24389">
        <ele>296</ele>
        <time>2026-08-10T08:39:44.000Z</time>
      </trkpt>
      <trkpt lat="45.83582" lon="1.24378">
        <ele>296</ele>
        <time>2026-08-10T08:39:46.000Z</time>
      </trkpt>
      <trkpt lat="45.83592" lon="1.24361">
        <ele>295.7</ele>
        <time>2026-08-10T08:39:49.000Z</time>
      </trkpt>
      <trkpt lat="45.83595" lon="1.24355">
        <ele>295.5</ele>
        <time>2026-08-10T08:39:50.000Z</time>
      </trkpt>
      <trkpt lat="45.83605" lon="1.2434">
        <ele>295.1</ele>
        <time>2026-08-10T08:39:53.000Z</time>
      </trkpt>
      <trkpt lat="45.83618" lon="1.24318">
        <ele>295</ele>
        <time>2026-08-10T08:39:57.000Z</time>
      </trkpt>
      <trkpt lat="45.83627" lon="1.24302">
        <ele>294.9</ele>
        <time>2026-08-10T08:40:00.000Z</time>
      </trkpt>
      <trkpt lat="45.83638" lon="1.24283">
        <ele>295</ele>
        <time>2026-08-10T08:40:04.000Z</time>
      </trkpt>
      <trkpt lat="45.83656" lon="1.24253">
        <ele>294.7</ele>
        <time>2026-08-10T08:40:10.000Z</time>
      </trkpt>
      <trkpt lat="45.83659" lon="1.24248">
        <ele>294.7</ele>
        <time>2026-08-10T08:40:12.000Z</time>
      </trkpt>
      <trkpt lat="45.83673" lon="1.24212">
        <ele>295.4</ele>
        <time>2026-08-10T08:40:17.000Z</time>
      </trkpt>
      <trkpt lat="45.83677" lon="1.242">
        <ele>295.5</ele>
        <time>2026-08-10T08:40:19.000Z</time>
      </trkpt>
      <trkpt lat="45.83679" lon="1.24194">
        <ele>295.4</ele>
        <time>2026-08-10T08:40:20.000Z</time>
      </trkpt>
      <trkpt lat="45.83685" lon="1.24176">
        <ele>295</ele>
        <time>2026-08-10T08:40:23.000Z</time>
      </trkpt>
      <trkpt lat="45.83693" lon="1.24156">
        <ele>294.9</ele>
        <time>2026-08-10T08:40:26.000Z</time>
      </trkpt>
      <trkpt lat="45.83706" lon="1.24118">
        <ele>295.1</ele>
        <time>2026-08-10T08:40:32.000Z</time>
      </trkpt>
      <trkpt lat="45.83711" lon="1.24106">
        <ele>294.9</ele>
        <time>2026-08-10T08:40:34.000Z</time>
      </trkpt>
      <trkpt lat="45.83722" lon="1.24081">
        <ele>295</ele>
        <time>2026-08-10T08:40:38.000Z</time>
      </trkpt>
      <trkpt lat="45.83728" lon="1.24071">
        <ele>295.3</ele>
        <time>2026-08-10T08:40:40.000Z</time>
      </trkpt>
      <trkpt lat="45.83734" lon="1.24064">
        <ele>295.6</ele>
        <time>2026-08-10T08:40:42.000Z</time>
      </trkpt>
      <trkpt lat="45.83738" lon="1.24058">
        <ele>295.6</ele>
        <time>2026-08-10T08:40:43.000Z</time>
      </trkpt>
      <trkpt lat="45.8374" lon="1.24055">
        <ele>295.6</ele>
        <time>2026-08-10T08:40:44.000Z</time>
      </trkpt>
      <trkpt lat="45.83754" lon="1.24029">
        <ele>295.7</ele>
        <time>2026-08-10T08:40:49.000Z</time>
      </trkpt>
      <trkpt lat="45.83774" lon="1.23991">
        <ele>295.8</ele>
        <time>2026-08-10T08:40:56.000Z</time>
      </trkpt>
      <trkpt lat="45.83783" lon="1.23972">
        <ele>296.2</ele>
        <time>2026-08-10T08:41:00.000Z</time>
      </trkpt>
      <trkpt lat="45.83793" lon="1.23952">
        <ele>296.5</ele>
        <time>2026-08-10T08:41:04.000Z</time>
      </trkpt>
      <trkpt lat="45.83809" lon="1.23923">
        <ele>297.9</ele>
        <time>2026-08-10T08:41:11.000Z</time>
      </trkpt>
      <trkpt lat="45.83815" lon="1.23912">
        <ele>298.4</ele>
        <time>2026-08-10T08:41:15.000Z</time>
      </trkpt>
      <trkpt lat="45.83827" lon="1.23893">
        <ele>298.8</ele>
        <time>2026-08-10T08:41:19.000Z</time>
      </trkpt>
      <trkpt lat="45.83843" lon="1.23863">
        <ele>299.7</ele>
        <time>2026-08-10T08:41:27.000Z</time>
      </trkpt>
      <trkpt lat="45.83845" lon="1.23858">
        <ele>299.8</ele>
        <time>2026-08-10T08:41:28.000Z</time>
      </trkpt>
      <trkpt lat="45.83865" lon="1.23824">
        <ele>300.2</ele>
        <time>2026-08-10T08:41:37.000Z</time>
      </trkpt>
      <trkpt lat="45.83869" lon="1.23816">
        <ele>300.4</ele>
        <time>2026-08-10T08:41:39.000Z</time>
      </trkpt>
      <trkpt lat="45.83877" lon="1.23799">
        <ele>300.6</ele>
        <time>2026-08-10T08:41:43.000Z</time>
      </trkpt>
      <trkpt lat="45.83894" lon="1.23763">
        <ele>301.1</ele>
        <time>2026-08-10T08:41:52.000Z</time>
      </trkpt>
      <trkpt lat="45.83908" lon="1.23736">
        <ele>300.5</ele>
        <time>2026-08-10T08:41:59.000Z</time>
      </trkpt>
      <trkpt lat="45.83923" lon="1.23709">
        <ele>299.9</ele>
        <time>2026-08-10T08:42:06.000Z</time>
      </trkpt>
      <trkpt lat="45.83935" lon="1.23688">
        <ele>299.3</ele>
        <time>2026-08-10T08:42:11.000Z</time>
      </trkpt>
      <trkpt lat="45.83953" lon="1.23657">
        <ele>298.2</ele>
        <time>2026-08-10T08:42:17.000Z</time>
      </trkpt>
      <trkpt lat="45.83956" lon="1.23653">
        <ele>297.9</ele>
        <time>2026-08-10T08:42:18.000Z</time>
      </trkpt>
      <trkpt lat="45.83966" lon="1.23638">
        <ele>297.2</ele>
        <time>2026-08-10T08:42:21.000Z</time>
      </trkpt>
      <trkpt lat="45.83971" lon="1.2363">
        <ele>297</ele>
        <time>2026-08-10T08:42:23.000Z</time>
      </trkpt>
      <trkpt lat="45.83975" lon="1.23617">
        <ele>297.1</ele>
        <time>2026-08-10T08:42:26.000Z</time>
      </trkpt>
      <trkpt lat="45.83975" lon="1.23611">
        <ele>297.2</ele>
        <time>2026-08-10T08:42:27.000Z</time>
      </trkpt>
      <trkpt lat="45.83971" lon="1.23588">
        <ele>297</ele>
        <time>2026-08-10T08:42:31.000Z</time>
      </trkpt>
      <trkpt lat="45.83972" lon="1.2358">
        <ele>296.8</ele>
        <time>2026-08-10T08:42:32.000Z</time>
      </trkpt>
      <trkpt lat="45.83973" lon="1.23567">
        <ele>296</ele>
        <time>2026-08-10T08:42:34.000Z</time>
      </trkpt>
      <trkpt lat="45.83975" lon="1.23539">
        <ele>295</ele>
        <time>2026-08-10T08:42:38.000Z</time>
      </trkpt>
      <trkpt lat="45.83976" lon="1.23531">
        <ele>294.7</ele>
        <time>2026-08-10T08:42:39.000Z</time>
      </trkpt>
      <trkpt lat="45.83977" lon="1.23511">
        <ele>293.9</ele>
        <time>2026-08-10T08:42:43.000Z</time>
      </trkpt>
      <trkpt lat="45.83979" lon="1.23498">
        <ele>293.4</ele>
        <time>2026-08-10T08:42:46.000Z</time>
      </trkpt>
      <trkpt lat="45.83979" lon="1.23488">
        <ele>293.4</ele>
        <time>2026-08-10T08:42:48.000Z</time>
      </trkpt>
      <trkpt lat="45.83982" lon="1.2346">
        <ele>292.9</ele>
        <time>2026-08-10T08:42:53.000Z</time>
      </trkpt>
      <trkpt lat="45.83984" lon="1.23447">
        <ele>292.5</ele>
        <time>2026-08-10T08:42:55.000Z</time>
      </trkpt>
      <trkpt lat="45.83984" lon="1.23416">
        <ele>292.3</ele>
        <time>2026-08-10T08:43:00.000Z</time>
      </trkpt>
      <trkpt lat="45.83981" lon="1.23365">
        <ele>291.1</ele>
        <time>2026-08-10T08:43:05.000Z</time>
      </trkpt>
      <trkpt lat="45.83981" lon="1.23357">
        <ele>290.9</ele>
        <time>2026-08-10T08:43:06.000Z</time>
      </trkpt>
      <trkpt lat="45.83979" lon="1.23316">
        <ele>291</ele>
        <time>2026-08-10T08:43:11.000Z</time>
      </trkpt>
      <trkpt lat="45.83978" lon="1.23298">
        <ele>291.2</ele>
        <time>2026-08-10T08:43:13.000Z</time>
      </trkpt>
      <trkpt lat="45.83977" lon="1.23288">
        <ele>291.4</ele>
        <time>2026-08-10T08:43:14.000Z</time>
      </trkpt>
      <trkpt lat="45.83978" lon="1.23255">
        <ele>291.8</ele>
        <time>2026-08-10T08:43:18.000Z</time>
      </trkpt>
      <trkpt lat="45.83982" lon="1.23205">
        <ele>291.5</ele>
        <time>2026-08-10T08:43:24.000Z</time>
      </trkpt>
      <trkpt lat="45.83987" lon="1.23176">
        <ele>290.2</ele>
        <time>2026-08-10T08:43:28.000Z</time>
      </trkpt>
      <trkpt lat="45.83989" lon="1.23168">
        <ele>289.7</ele>
        <time>2026-08-10T08:43:30.000Z</time>
      </trkpt>
      <trkpt lat="45.84006" lon="1.23125">
        <ele>290.6</ele>
        <time>2026-08-10T08:43:36.000Z</time>
      </trkpt>
      <trkpt lat="45.8402" lon="1.23099">
        <ele>290.3</ele>
        <time>2026-08-10T08:43:42.000Z</time>
      </trkpt>
      <trkpt lat="45.84038" lon="1.23076">
        <ele>290.4</ele>
        <time>2026-08-10T08:43:49.000Z</time>
      </trkpt>
      <trkpt lat="45.84059" lon="1.23066">
        <ele>291.2</ele>
        <time>2026-08-10T08:43:56.000Z</time>
      </trkpt>
      <trkpt lat="45.84074" lon="1.23062">
        <ele>291.8</ele>
        <time>2026-08-10T08:44:01.000Z</time>
      </trkpt>
      <trkpt lat="45.84083" lon="1.23057">
        <ele>292</ele>
        <time>2026-08-10T08:44:05.000Z</time>
      </trkpt>
      <trkpt lat="45.8409" lon="1.23056">
        <ele>292</ele>
        <time>2026-08-10T08:44:07.000Z</time>
      </trkpt>
      <trkpt lat="45.84112" lon="1.23051">
        <ele>292</ele>
        <time>2026-08-10T08:44:14.000Z</time>
      </trkpt>
      <trkpt lat="45.84118" lon="1.23049">
        <ele>292.3</ele>
        <time>2026-08-10T08:44:16.000Z</time>
      </trkpt>
      <trkpt lat="45.84124" lon="1.23048">
        <ele>292.5</ele>
        <time>2026-08-10T08:44:18.000Z</time>
      </trkpt>
      <trkpt lat="45.84125" lon="1.23045">
        <ele>292.5</ele>
        <time>2026-08-10T08:44:19.000Z</time>
      </trkpt>
      <trkpt lat="45.84127" lon="1.23021">
        <ele>292.3</ele>
        <time>2026-08-10T08:44:24.000Z</time>
      </trkpt>
      <trkpt lat="45.84126" lon="1.23004">
        <ele>291.7</ele>
        <time>2026-08-10T08:44:26.000Z</time>
      </trkpt>
      <trkpt lat="45.84126" lon="1.22988">
        <ele>291.5</ele>
        <time>2026-08-10T08:44:28.000Z</time>
      </trkpt>
      <trkpt lat="45.84126" lon="1.22983">
        <ele>291.5</ele>
        <time>2026-08-10T08:44:29.000Z</time>
      </trkpt>
      <trkpt lat="45.84126" lon="1.22974">
        <ele>291.5</ele>
        <time>2026-08-10T08:44:30.000Z</time>
      </trkpt>
      <trkpt lat="45.84121" lon="1.22945">
        <ele>290.7</ele>
        <time>2026-08-10T08:44:34.000Z</time>
      </trkpt>
      <trkpt lat="45.84118" lon="1.22928">
        <ele>290</ele>
        <time>2026-08-10T08:44:36.000Z</time>
      </trkpt>
      <trkpt lat="45.84111" lon="1.22914">
        <ele>289</ele>
        <time>2026-08-10T08:44:38.000Z</time>
      </trkpt>
      <trkpt lat="45.84109" lon="1.22906">
        <ele>288.9</ele>
        <time>2026-08-10T08:44:39.000Z</time>
      </trkpt>
      <trkpt lat="45.84103" lon="1.22895">
        <ele>288.5</ele>
        <time>2026-08-10T08:44:41.000Z</time>
      </trkpt>
      <trkpt lat="45.8409" lon="1.22875">
        <ele>287.4</ele>
        <time>2026-08-10T08:44:44.000Z</time>
      </trkpt>
      <trkpt lat="45.8408" lon="1.22867">
        <ele>286.8</ele>
        <time>2026-08-10T08:44:46.000Z</time>
      </trkpt>
      <trkpt lat="45.8407" lon="1.22862">
        <ele>286</ele>
        <time>2026-08-10T08:44:48.000Z</time>
      </trkpt>
      <trkpt lat="45.84063" lon="1.2286">
        <ele>285.6</ele>
        <time>2026-08-10T08:44:49.000Z</time>
      </trkpt>
      <trkpt lat="45.84041" lon="1.22859">
        <ele>284.5</ele>
        <time>2026-08-10T08:44:53.000Z</time>
      </trkpt>
      <trkpt lat="45.84037" lon="1.22859">
        <ele>284.3</ele>
        <time>2026-08-10T08:44:54.000Z</time>
      </trkpt>
      <trkpt lat="45.84028" lon="1.22853">
        <ele>283.7</ele>
        <time>2026-08-10T08:44:56.000Z</time>
      </trkpt>
      <trkpt lat="45.84028" lon="1.22842">
        <ele>283.3</ele>
        <time>2026-08-10T08:44:58.000Z</time>
      </trkpt>
      <trkpt lat="45.8403" lon="1.22835">
        <ele>283.3</ele>
        <time>2026-08-10T08:44:59.000Z</time>
      </trkpt>
      <trkpt lat="45.84033" lon="1.22823">
        <ele>283.5</ele>
        <time>2026-08-10T08:45:01.000Z</time>
      </trkpt>
      <trkpt lat="45.84037" lon="1.2281">
        <ele>283.5</ele>
        <time>2026-08-10T08:45:03.000Z</time>
      </trkpt>
      <trkpt lat="45.84039" lon="1.22796">
        <ele>283.1</ele>
        <time>2026-08-10T08:45:05.000Z</time>
      </trkpt>
      <trkpt lat="45.84044" lon="1.22775">
        <ele>282.5</ele>
        <time>2026-08-10T08:45:08.000Z</time>
      </trkpt>
      <trkpt lat="45.84047" lon="1.22752">
        <ele>281.8</ele>
        <time>2026-08-10T08:45:11.000Z</time>
      </trkpt>
      <trkpt lat="45.8405" lon="1.22728">
        <ele>281</ele>
        <time>2026-08-10T08:45:14.000Z</time>
      </trkpt>
      <trkpt lat="45.84051" lon="1.22714">
        <ele>280.3</ele>
        <time>2026-08-10T08:45:16.000Z</time>
      </trkpt>
      <trkpt lat="45.84051" lon="1.22704">
        <ele>279.7</ele>
        <time>2026-08-10T08:45:17.000Z</time>
      </trkpt>
      <trkpt lat="45.8405" lon="1.22683">
        <ele>278.3</ele>
        <time>2026-08-10T08:45:20.000Z</time>
      </trkpt>
      <trkpt lat="45.84048" lon="1.22668">
        <ele>277.3</ele>
        <time>2026-08-10T08:45:22.000Z</time>
      </trkpt>
      <trkpt lat="45.84047" lon="1.22661">
        <ele>276.6</ele>
        <time>2026-08-10T08:45:23.000Z</time>
      </trkpt>
      <trkpt lat="45.84043" lon="1.22646">
        <ele>274.8</ele>
        <time>2026-08-10T08:45:25.000Z</time>
      </trkpt>
      <trkpt lat="45.84039" lon="1.22635">
        <ele>273.6</ele>
        <time>2026-08-10T08:45:26.000Z</time>
      </trkpt>
      <trkpt lat="45.84031" lon="1.22617">
        <ele>272.2</ele>
        <time>2026-08-10T08:45:28.000Z</time>
      </trkpt>
      <trkpt lat="45.84027" lon="1.2261">
        <ele>272</ele>
        <time>2026-08-10T08:45:29.000Z</time>
      </trkpt>
      <trkpt lat="45.84021" lon="1.22603">
        <ele>271.4</ele>
        <time>2026-08-10T08:45:30.000Z</time>
      </trkpt>
      <trkpt lat="45.84014" lon="1.22595">
        <ele>271</ele>
        <time>2026-08-10T08:45:31.000Z</time>
      </trkpt>
      <trkpt lat="45.84002" lon="1.22585">
        <ele>270.9</ele>
        <time>2026-08-10T08:45:33.000Z</time>
      </trkpt>
      <trkpt lat="45.83994" lon="1.22579">
        <ele>270.5</ele>
        <time>2026-08-10T08:45:34.000Z</time>
      </trkpt>
      <trkpt lat="45.83988" lon="1.22576">
        <ele>270.2</ele>
        <time>2026-08-10T08:45:35.000Z</time>
      </trkpt>
      <trkpt lat="45.83978" lon="1.22571">
        <ele>269.9</ele>
        <time>2026-08-10T08:45:37.000Z</time>
      </trkpt>
      <trkpt lat="45.83975" lon="1.22566">
        <ele>269.6</ele>
        <time>2026-08-10T08:45:38.000Z</time>
      </trkpt>
      <trkpt lat="45.83974" lon="1.22559">
        <ele>269.1</ele>
        <time>2026-08-10T08:45:39.000Z</time>
      </trkpt>
      <trkpt lat="45.83971" lon="1.22543">
        <ele>267.2</ele>
        <time>2026-08-10T08:45:41.000Z</time>
      </trkpt>
      <trkpt lat="45.83969" lon="1.22536">
        <ele>266.3</ele>
        <time>2026-08-10T08:45:42.000Z</time>
      </trkpt>
      <trkpt lat="45.83964" lon="1.22519">
        <ele>264.2</ele>
        <time>2026-08-10T08:45:44.000Z</time>
      </trkpt>
      <trkpt lat="45.83953" lon="1.22497">
        <ele>262.3</ele>
        <time>2026-08-10T08:45:47.000Z</time>
      </trkpt>
      <trkpt lat="45.83943" lon="1.22481">
        <ele>261.4</ele>
        <time>2026-08-10T08:45:49.000Z</time>
      </trkpt>
      <trkpt lat="45.83935" lon="1.22472">
        <ele>261</ele>
        <time>2026-08-10T08:45:50.000Z</time>
      </trkpt>
      <trkpt lat="45.8392" lon="1.2246">
        <ele>261.6</ele>
        <time>2026-08-10T08:45:52.000Z</time>
      </trkpt>
      <trkpt lat="45.83914" lon="1.22455">
        <ele>261.6</ele>
        <time>2026-08-10T08:45:53.000Z</time>
      </trkpt>
      <trkpt lat="45.83895" lon="1.22446">
        <ele>260.2</ele>
        <time>2026-08-10T08:45:55.000Z</time>
      </trkpt>
      <trkpt lat="45.83886" lon="1.22444">
        <ele>259.7</ele>
        <time>2026-08-10T08:45:56.000Z</time>
      </trkpt>
      <trkpt lat="45.83879" lon="1.22443">
        <ele>259.2</ele>
        <time>2026-08-10T08:45:57.000Z</time>
      </trkpt>
      <trkpt lat="45.8386" lon="1.22442">
        <ele>257.8</ele>
        <time>2026-08-10T08:45:59.000Z</time>
      </trkpt>
      <trkpt lat="45.83844" lon="1.22441">
        <ele>256.5</ele>
        <time>2026-08-10T08:46:01.000Z</time>
      </trkpt>
      <trkpt lat="45.8383" lon="1.2244">
        <ele>255.6</ele>
        <time>2026-08-10T08:46:03.000Z</time>
      </trkpt>
      <trkpt lat="45.83822" lon="1.22439">
        <ele>255.3</ele>
        <time>2026-08-10T08:46:04.000Z</time>
      </trkpt>
      <trkpt lat="45.83816" lon="1.22439">
        <ele>255.1</ele>
        <time>2026-08-10T08:46:05.000Z</time>
      </trkpt>
      <trkpt lat="45.83805" lon="1.22438">
        <ele>254.8</ele>
        <time>2026-08-10T08:46:07.000Z</time>
      </trkpt>
      <trkpt lat="45.8379" lon="1.22434">
        <ele>254.6</ele>
        <time>2026-08-10T08:46:09.000Z</time>
      </trkpt>
      <trkpt lat="45.83785" lon="1.22431">
        <ele>254.5</ele>
        <time>2026-08-10T08:46:10.000Z</time>
      </trkpt>
      <trkpt lat="45.83772" lon="1.22423">
        <ele>254.5</ele>
        <time>2026-08-10T08:46:12.000Z</time>
      </trkpt>
      <trkpt lat="45.83767" lon="1.22418">
        <ele>254.5</ele>
        <time>2026-08-10T08:46:13.000Z</time>
      </trkpt>
      <trkpt lat="45.83756" lon="1.22406">
        <ele>254.4</ele>
        <time>2026-08-10T08:46:15.000Z</time>
      </trkpt>
      <trkpt lat="45.83752" lon="1.224">
        <ele>254.3</ele>
        <time>2026-08-10T08:46:16.000Z</time>
      </trkpt>
      <trkpt lat="45.83736" lon="1.22371">
        <ele>253.5</ele>
        <time>2026-08-10T08:46:20.000Z</time>
      </trkpt>
      <trkpt lat="45.83705" lon="1.22302">
        <ele>252.6</ele>
        <time>2026-08-10T08:46:29.000Z</time>
      </trkpt>
      <trkpt lat="45.83702" lon="1.22294">
        <ele>252.7</ele>
        <time>2026-08-10T08:46:30.000Z</time>
      </trkpt>
      <trkpt lat="45.83695" lon="1.22279">
        <ele>253</ele>
        <time>2026-08-10T08:46:32.000Z</time>
      </trkpt>
      <trkpt lat="45.83689" lon="1.22264">
        <ele>252.8</ele>
        <time>2026-08-10T08:46:34.000Z</time>
      </trkpt>
      <trkpt lat="45.83685" lon="1.22256">
        <ele>252.6</ele>
        <time>2026-08-10T08:46:35.000Z</time>
      </trkpt>
      <trkpt lat="45.8366" lon="1.22213">
        <ele>252.3</ele>
        <time>2026-08-10T08:46:41.000Z</time>
      </trkpt>
      <trkpt lat="45.83643" lon="1.22187">
        <ele>252</ele>
        <time>2026-08-10T08:46:45.000Z</time>
      </trkpt>
      <trkpt lat="45.83634" lon="1.22176">
        <ele>252.2</ele>
        <time>2026-08-10T08:46:47.000Z</time>
      </trkpt>
      <trkpt lat="45.83629" lon="1.22171">
        <ele>252.2</ele>
        <time>2026-08-10T08:46:48.000Z</time>
      </trkpt>
      <trkpt lat="45.8361" lon="1.2215">
        <ele>251.5</ele>
        <time>2026-08-10T08:46:52.000Z</time>
      </trkpt>
      <trkpt lat="45.83594" lon="1.22133">
        <ele>251.5</ele>
        <time>2026-08-10T08:46:56.000Z</time>
      </trkpt>
      <trkpt lat="45.83591" lon="1.2213">
        <ele>251.5</ele>
        <time>2026-08-10T08:46:57.000Z</time>
      </trkpt>
      <trkpt lat="45.83584" lon="1.22119">
        <ele>251.3</ele>
        <time>2026-08-10T08:47:00.000Z</time>
      </trkpt>
      <trkpt lat="45.83584" lon="1.22098">
        <ele>250.5</ele>
        <time>2026-08-10T08:47:04.000Z</time>
      </trkpt>
      <trkpt lat="45.8359" lon="1.22076">
        <ele>249.9</ele>
        <time>2026-08-10T08:47:08.000Z</time>
      </trkpt>
      <trkpt lat="45.83593" lon="1.22064">
        <ele>249.8</ele>
        <time>2026-08-10T08:47:10.000Z</time>
      </trkpt>
      <trkpt lat="45.83602" lon="1.2203">
        <ele>248.4</ele>
        <time>2026-08-10T08:47:15.000Z</time>
      </trkpt>
      <trkpt lat="45.8362" lon="1.21969">
        <ele>250.3</ele>
        <time>2026-08-10T08:47:24.000Z</time>
      </trkpt>
      <trkpt lat="45.83632" lon="1.21922">
        <ele>251</ele>
        <time>2026-08-10T08:47:32.000Z</time>
      </trkpt>
      <trkpt lat="45.83634" lon="1.21917">
        <ele>251</ele>
        <time>2026-08-10T08:47:33.000Z</time>
      </trkpt>
      <trkpt lat="45.83642" lon="1.21893">
        <ele>252.1</ele>
        <time>2026-08-10T08:47:38.000Z</time>
      </trkpt>
      <trkpt lat="45.83651" lon="1.21869">
        <ele>252.9</ele>
        <time>2026-08-10T08:47:44.000Z</time>
      </trkpt>
      <trkpt lat="45.83656" lon="1.21859">
        <ele>253.2</ele>
        <time>2026-08-10T08:47:47.000Z</time>
      </trkpt>
      <trkpt lat="45.83664" lon="1.21846">
        <ele>253.8</ele>
        <time>2026-08-10T08:47:51.000Z</time>
      </trkpt>
      <trkpt lat="45.83676" lon="1.21827">
        <ele>254.6</ele>
        <time>2026-08-10T08:47:57.000Z</time>
      </trkpt>
      <trkpt lat="45.83684" lon="1.21813">
        <ele>254.8</ele>
        <time>2026-08-10T08:48:01.000Z</time>
      </trkpt>
      <trkpt lat="45.8369" lon="1.21794">
        <ele>254.9</ele>
        <time>2026-08-10T08:48:06.000Z</time>
      </trkpt>
      <trkpt lat="45.83691" lon="1.21777">
        <ele>254.9</ele>
        <time>2026-08-10T08:48:10.000Z</time>
      </trkpt>
      <trkpt lat="45.83689" lon="1.21773">
        <ele>254.8</ele>
        <time>2026-08-10T08:48:11.000Z</time>
      </trkpt>
      <trkpt lat="45.83675" lon="1.21751">
        <ele>254.3</ele>
        <time>2026-08-10T08:48:16.000Z</time>
      </trkpt>
      <trkpt lat="45.83673" lon="1.21747">
        <ele>254.1</ele>
        <time>2026-08-10T08:48:17.000Z</time>
      </trkpt>
      <trkpt lat="45.83669" lon="1.21733">
        <ele>253.9</ele>
        <time>2026-08-10T08:48:19.000Z</time>
      </trkpt>
      <trkpt lat="45.83669" lon="1.21726">
        <ele>253.9</ele>
        <time>2026-08-10T08:48:20.000Z</time>
      </trkpt>
      <trkpt lat="45.8367" lon="1.21714">
        <ele>253.8</ele>
        <time>2026-08-10T08:48:22.000Z</time>
      </trkpt>
      <trkpt lat="45.83668" lon="1.21698">
        <ele>253.9</ele>
        <time>2026-08-10T08:48:25.000Z</time>
      </trkpt>
      <trkpt lat="45.83657" lon="1.21681">
        <ele>254</ele>
        <time>2026-08-10T08:48:30.000Z</time>
      </trkpt>
      <trkpt lat="45.83639" lon="1.21679">
        <ele>254</ele>
        <time>2026-08-10T08:48:35.000Z</time>
      </trkpt>
      <trkpt lat="45.83619" lon="1.21673">
        <ele>253.4</ele>
        <time>2026-08-10T08:48:40.000Z</time>
      </trkpt>
      <trkpt lat="45.83615" lon="1.2167">
        <ele>253.2</ele>
        <time>2026-08-10T08:48:41.000Z</time>
      </trkpt>
      <trkpt lat="45.83605" lon="1.2166">
        <ele>253.6</ele>
        <time>2026-08-10T08:48:44.000Z</time>
      </trkpt>
      <trkpt lat="45.83599" lon="1.21654">
        <ele>253.8</ele>
        <time>2026-08-10T08:48:46.000Z</time>
      </trkpt>
      <trkpt lat="45.83571" lon="1.21624">
        <ele>254.4</ele>
        <time>2026-08-10T08:48:54.000Z</time>
      </trkpt>
      <trkpt lat="45.8356" lon="1.21613">
        <ele>253.6</ele>
        <time>2026-08-10T08:48:57.000Z</time>
      </trkpt>
      <trkpt lat="45.8354" lon="1.21597">
        <ele>254.5</ele>
        <time>2026-08-10T08:49:02.000Z</time>
      </trkpt>
      <trkpt lat="45.83531" lon="1.21591">
        <ele>254.2</ele>
        <time>2026-08-10T08:49:04.000Z</time>
      </trkpt>
      <trkpt lat="45.83513" lon="1.21584">
        <ele>254.1</ele>
        <time>2026-08-10T08:49:08.000Z</time>
      </trkpt>
      <trkpt lat="45.83492" lon="1.21575">
        <ele>255</ele>
        <time>2026-08-10T08:49:14.000Z</time>
      </trkpt>
      <trkpt lat="45.83488" lon="1.21575">
        <ele>255</ele>
        <time>2026-08-10T08:49:15.000Z</time>
      </trkpt>
      <trkpt lat="45.8347" lon="1.2157">
        <ele>254.9</ele>
        <time>2026-08-10T08:49:17.000Z</time>
      </trkpt>
      <trkpt lat="45.83461" lon="1.21566">
        <ele>254.7</ele>
        <time>2026-08-10T08:49:19.000Z</time>
      </trkpt>
      <trkpt lat="45.83454" lon="1.21559">
        <ele>254.6</ele>
        <time>2026-08-10T08:49:21.000Z</time>
      </trkpt>
      <trkpt lat="45.83452" lon="1.21555">
        <ele>254.6</ele>
        <time>2026-08-10T08:49:22.000Z</time>
      </trkpt>
      <trkpt lat="45.83441" lon="1.21537">
        <ele>255.9</ele>
        <time>2026-08-10T08:49:26.000Z</time>
      </trkpt>
      <trkpt lat="45.83433" lon="1.21532">
        <ele>255.9</ele>
        <time>2026-08-10T08:49:28.000Z</time>
      </trkpt>
      <trkpt lat="45.8342" lon="1.21529">
        <ele>255.2</ele>
        <time>2026-08-10T08:49:32.000Z</time>
      </trkpt>
      <trkpt lat="45.83416" lon="1.21528">
        <ele>255</ele>
        <time>2026-08-10T08:49:33.000Z</time>
      </trkpt>
      <trkpt lat="45.83408" lon="1.21526">
        <ele>255.5</ele>
        <time>2026-08-10T08:49:35.000Z</time>
      </trkpt>
      <trkpt lat="45.834" lon="1.21519">
        <ele>256.2</ele>
        <time>2026-08-10T08:49:38.000Z</time>
      </trkpt>
      <trkpt lat="45.8339" lon="1.21508">
        <ele>256.8</ele>
        <time>2026-08-10T08:49:43.000Z</time>
      </trkpt>
      <trkpt lat="45.83388" lon="1.21504">
        <ele>256.9</ele>
        <time>2026-08-10T08:49:45.000Z</time>
      </trkpt>
      <trkpt lat="45.83383" lon="1.21494">
        <ele>257.6</ele>
        <time>2026-08-10T08:49:49.000Z</time>
      </trkpt>
      <trkpt lat="45.83381" lon="1.2149">
        <ele>258</ele>
        <time>2026-08-10T08:49:51.000Z</time>
      </trkpt>
      <trkpt lat="45.8338" lon="1.21489">
        <ele>258.2</ele>
        <time>2026-08-10T08:49:52.000Z</time>
      </trkpt>
      <trkpt lat="45.83378" lon="1.21482">
        <ele>258.9</ele>
        <time>2026-08-10T08:49:55.000Z</time>
      </trkpt>
      <trkpt lat="45.83376" lon="1.21472">
        <ele>260</ele>
        <time>2026-08-10T08:49:59.000Z</time>
      </trkpt>
      <trkpt lat="45.83373" lon="1.21458">
        <ele>261.3</ele>
        <time>2026-08-10T08:50:04.000Z</time>
      </trkpt>
      <trkpt lat="45.83373" lon="1.21456">
        <ele>261.5</ele>
        <time>2026-08-10T08:50:05.000Z</time>
      </trkpt>
      <trkpt lat="45.83371" lon="1.21445">
        <ele>262.6</ele>
        <time>2026-08-10T08:50:09.000Z</time>
      </trkpt>
      <trkpt lat="45.8337" lon="1.21439">
        <ele>263.1</ele>
        <time>2026-08-10T08:50:11.000Z</time>
      </trkpt>
      <trkpt lat="45.83369" lon="1.21431">
        <ele>263.7</ele>
        <time>2026-08-10T08:50:14.000Z</time>
      </trkpt>
      <trkpt lat="45.83369" lon="1.21428">
        <ele>263.9</ele>
        <time>2026-08-10T08:50:15.000Z</time>
      </trkpt>
      <trkpt lat="45.83368" lon="1.2142">
        <ele>264.5</ele>
        <time>2026-08-10T08:50:18.000Z</time>
      </trkpt>
      <trkpt lat="45.83367" lon="1.21404">
        <ele>265.4</ele>
        <time>2026-08-10T08:50:24.000Z</time>
      </trkpt>
      <trkpt lat="45.83367" lon="1.2139">
        <ele>266</ele>
        <time>2026-08-10T08:50:29.000Z</time>
      </trkpt>
      <trkpt lat="45.83366" lon="1.21384">
        <ele>266.3</ele>
        <time>2026-08-10T08:50:31.000Z</time>
      </trkpt>
      <trkpt lat="45.83365" lon="1.21367">
        <ele>267.5</ele>
        <time>2026-08-10T08:50:37.000Z</time>
      </trkpt>
      <trkpt lat="45.83364" lon="1.21358">
        <ele>268</ele>
        <time>2026-08-10T08:50:40.000Z</time>
      </trkpt>
      <trkpt lat="45.83364" lon="1.21351">
        <ele>268.3</ele>
        <time>2026-08-10T08:50:43.000Z</time>
      </trkpt>
      <trkpt lat="45.83362" lon="1.21335">
        <ele>269</ele>
        <time>2026-08-10T08:50:49.000Z</time>
      </trkpt>
      <trkpt lat="45.83361" lon="1.21327">
        <ele>269.2</ele>
        <time>2026-08-10T08:50:52.000Z</time>
      </trkpt>
      <trkpt lat="45.8336" lon="1.21315">
        <ele>269.7</ele>
        <time>2026-08-10T08:50:56.000Z</time>
      </trkpt>
      <trkpt lat="45.83359" lon="1.21305">
        <ele>270</ele>
        <time>2026-08-10T08:51:00.000Z</time>
      </trkpt>
      <trkpt lat="45.83356" lon="1.21284">
        <ele>270.9</ele>
        <time>2026-08-10T08:51:08.000Z</time>
      </trkpt>
      <trkpt lat="45.83356" lon="1.21282">
        <ele>271</ele>
        <time>2026-08-10T08:51:09.000Z</time>
      </trkpt>
      <trkpt lat="45.83354" lon="1.21262">
        <ele>272.4</ele>
        <time>2026-08-10T08:51:17.000Z</time>
      </trkpt>
      <trkpt lat="45.83354" lon="1.21259">
        <ele>272.6</ele>
        <time>2026-08-10T08:51:18.000Z</time>
      </trkpt>
      <trkpt lat="45.83351" lon="1.21239">
        <ele>274</ele>
        <time>2026-08-10T08:51:27.000Z</time>
      </trkpt>
      <trkpt lat="45.83351" lon="1.21237">
        <ele>274.1</ele>
        <time>2026-08-10T08:51:28.000Z</time>
      </trkpt>
      <trkpt lat="45.83348" lon="1.2122">
        <ele>275.1</ele>
        <time>2026-08-10T08:51:35.000Z</time>
      </trkpt>
      <trkpt lat="45.83348" lon="1.21216">
        <ele>275.3</ele>
        <time>2026-08-10T08:51:37.000Z</time>
      </trkpt>
      <trkpt lat="45.83347" lon="1.21202">
        <ele>276.1</ele>
        <time>2026-08-10T08:51:44.000Z</time>
      </trkpt>
      <trkpt lat="45.83347" lon="1.21201">
        <ele>276.1</ele>
        <time>2026-08-10T08:51:47.000Z</time>
      </trkpt>
      <trkpt lat="45.83345" lon="1.21195">
        <ele>276.4</ele>
        <time>2026-08-10T08:51:56.000Z</time>
      </trkpt>
      <trkpt lat="45.83344" lon="1.21186">
        <ele>276.9</ele>
        <time>2026-08-10T08:52:01.000Z</time>
      </trkpt>
      <trkpt lat="45.83343" lon="1.21183">
        <ele>277</ele>
        <time>2026-08-10T08:52:03.000Z</time>
      </trkpt>
      <trkpt lat="45.83343" lon="1.21182">
        <ele>277.1</ele>
        <time>2026-08-10T08:52:04.000Z</time>
      </trkpt>
      <trkpt lat="45.83339" lon="1.21171">
        <ele>277.7</ele>
        <time>2026-08-10T08:52:10.000Z</time>
      </trkpt>
      <trkpt lat="45.83338" lon="1.21169">
        <ele>277.9</ele>
        <time>2026-08-10T08:52:11.000Z</time>
      </trkpt>
      <trkpt lat="45.83337" lon="1.21154">
        <ele>278.5</ele>
        <time>2026-08-10T08:52:18.000Z</time>
      </trkpt>
      <trkpt lat="45.83337" lon="1.21153">
        <ele>278.6</ele>
        <time>2026-08-10T08:52:21.000Z</time>
      </trkpt>
      <trkpt lat="45.83337" lon="1.21151">
        <ele>278.6</ele>
        <time>2026-08-10T08:52:24.000Z</time>
      </trkpt>
      <trkpt lat="45.83337" lon="1.21151">
        <ele>278.6</ele>
        <time>2026-08-10T08:52:26.000Z</time>
      </trkpt>
      <trkpt lat="45.83338" lon="1.21135">
        <ele>279.3</ele>
        <time>2026-08-10T08:56:27.000Z</time>
      </trkpt>
      <trkpt lat="45.83338" lon="1.21133">
        <ele>279.4</ele>
        <time>2026-08-10T08:56:28.000Z</time>
      </trkpt>
      <trkpt lat="45.83336" lon="1.21111">
        <ele>280.1</ele>
        <time>2026-08-10T08:56:36.000Z</time>
      </trkpt>
      <trkpt lat="45.83335" lon="1.21102">
        <ele>280.4</ele>
        <time>2026-08-10T08:56:39.000Z</time>
      </trkpt>
      <trkpt lat="45.83331" lon="1.21082">
        <ele>281</ele>
        <time>2026-08-10T08:56:46.000Z</time>
      </trkpt>
      <trkpt lat="45.83326" lon="1.21062">
        <ele>281.5</ele>
        <time>2026-08-10T08:56:53.000Z</time>
      </trkpt>
      <trkpt lat="45.83325" lon="1.21059">
        <ele>281.6</ele>
        <time>2026-08-10T08:56:54.000Z</time>
      </trkpt>
      <trkpt lat="45.8332" lon="1.2104">
        <ele>282.1</ele>
        <time>2026-08-10T08:57:01.000Z</time>
      </trkpt>
      <trkpt lat="45.83317" lon="1.21034">
        <ele>282.2</ele>
        <time>2026-08-10T08:57:04.000Z</time>
      </trkpt>
      <trkpt lat="45.83314" lon="1.21028">
        <ele>282.3</ele>
        <time>2026-08-10T08:57:07.000Z</time>
      </trkpt>
      <trkpt lat="45.83311" lon="1.21022">
        <ele>282.7</ele>
        <time>2026-08-10T08:57:11.000Z</time>
      </trkpt>
      <trkpt lat="45.83311" lon="1.21021">
        <ele>282.7</ele>
        <time>2026-08-10T08:57:12.000Z</time>
      </trkpt>
      <trkpt lat="45.8331" lon="1.2102">
        <ele>282.8</ele>
        <time>2026-08-10T08:57:13.000Z</time>
      </trkpt>
      <trkpt lat="45.83309" lon="1.21016">
        <ele>283</ele>
        <time>2026-08-10T08:57:16.000Z</time>
      </trkpt>
      <trkpt lat="45.83308" lon="1.21014">
        <ele>283.1</ele>
        <time>2026-08-10T08:57:18.000Z</time>
      </trkpt>
      <trkpt lat="45.83304" lon="1.21006">
        <ele>283.5</ele>
        <time>2026-08-10T08:57:22.000Z</time>
      </trkpt>
      <trkpt lat="45.833" lon="1.21">
        <ele>283.8</ele>
        <time>2026-08-10T08:57:26.000Z</time>
      </trkpt>
      <trkpt lat="45.83299" lon="1.20997">
        <ele>283.9</ele>
        <time>2026-08-10T08:57:28.000Z</time>
      </trkpt>
      <trkpt lat="45.83288" lon="1.20982">
        <ele>284.2</ele>
        <time>2026-08-10T08:57:36.000Z</time>
      </trkpt>
      <trkpt lat="45.83275" lon="1.20962">
        <ele>284.3</ele>
        <time>2026-08-10T08:57:45.000Z</time>
      </trkpt>
      <trkpt lat="45.83273" lon="1.2096">
        <ele>284.3</ele>
        <time>2026-08-10T08:57:46.000Z</time>
      </trkpt>
      <trkpt lat="45.83261" lon="1.20945">
        <ele>285</ele>
        <time>2026-08-10T08:57:53.000Z</time>
      </trkpt>
      <trkpt lat="45.83246" lon="1.20923">
        <ele>285.6</ele>
        <time>2026-08-10T08:58:01.000Z</time>
      </trkpt>
      <trkpt lat="45.83244" lon="1.20919">
        <ele>285.7</ele>
        <time>2026-08-10T08:58:02.000Z</time>
      </trkpt>
      <trkpt lat="45.83232" lon="1.209">
        <ele>285.4</ele>
        <time>2026-08-10T08:58:07.000Z</time>
      </trkpt>
      <trkpt lat="45.83219" lon="1.20877">
        <ele>285.2</ele>
        <time>2026-08-10T08:58:13.000Z</time>
      </trkpt>
      <trkpt lat="45.832" lon="1.20847">
        <ele>284.3</ele>
        <time>2026-08-10T08:58:20.000Z</time>
      </trkpt>
      <trkpt lat="45.83186" lon="1.20823">
        <ele>283.4</ele>
        <time>2026-08-10T08:58:24.000Z</time>
      </trkpt>
      <trkpt lat="45.8318" lon="1.20809">
        <ele>283</ele>
        <time>2026-08-10T08:58:26.000Z</time>
      </trkpt>
      <trkpt lat="45.83164" lon="1.20765">
        <ele>281.8</ele>
        <time>2026-08-10T08:58:31.000Z</time>
      </trkpt>
      <trkpt lat="45.83162" lon="1.20755">
        <ele>281.6</ele>
        <time>2026-08-10T08:58:32.000Z</time>
      </trkpt>
      <trkpt lat="45.83145" lon="1.20706">
        <ele>279.3</ele>
        <time>2026-08-10T08:58:37.000Z</time>
      </trkpt>
      <trkpt lat="45.83141" lon="1.20696">
        <ele>279.1</ele>
        <time>2026-08-10T08:58:38.000Z</time>
      </trkpt>
      <trkpt lat="45.83128" lon="1.20653">
        <ele>277.2</ele>
        <time>2026-08-10T08:58:42.000Z</time>
      </trkpt>
      <trkpt lat="45.83121" lon="1.20631">
        <ele>276.6</ele>
        <time>2026-08-10T08:58:44.000Z</time>
      </trkpt>
      <trkpt lat="45.83114" lon="1.20609">
        <ele>276</ele>
        <time>2026-08-10T08:58:46.000Z</time>
      </trkpt>
      <trkpt lat="45.831" lon="1.20564">
        <ele>274.2</ele>
        <time>2026-08-10T08:58:50.000Z</time>
      </trkpt>
      <trkpt lat="45.83096" lon="1.20552">
        <ele>273.9</ele>
        <time>2026-08-10T08:58:51.000Z</time>
      </trkpt>
      <trkpt lat="45.83088" lon="1.20515">
        <ele>272.9</ele>
        <time>2026-08-10T08:58:54.000Z</time>
      </trkpt>
      <trkpt lat="45.83078" lon="1.20477">
        <ele>271.5</ele>
        <time>2026-08-10T08:58:57.000Z</time>
      </trkpt>
      <trkpt lat="45.83075" lon="1.20467">
        <ele>270.9</ele>
        <time>2026-08-10T08:58:58.000Z</time>
      </trkpt>
      <trkpt lat="45.83064" lon="1.2044">
        <ele>268.8</ele>
        <time>2026-08-10T08:59:00.000Z</time>
      </trkpt>
      <trkpt lat="45.83051" lon="1.20403">
        <ele>266</ele>
        <time>2026-08-10T08:59:03.000Z</time>
      </trkpt>
      <trkpt lat="45.83048" lon="1.20389">
        <ele>265.2</ele>
        <time>2026-08-10T08:59:04.000Z</time>
      </trkpt>
      <trkpt lat="45.83045" lon="1.20376">
        <ele>265.4</ele>
        <time>2026-08-10T08:59:05.000Z</time>
      </trkpt>
      <trkpt lat="45.83044" lon="1.20363">
        <ele>265.9</ele>
        <time>2026-08-10T08:59:06.000Z</time>
      </trkpt>
      <trkpt lat="45.83044" lon="1.2035">
        <ele>266.3</ele>
        <time>2026-08-10T08:59:07.000Z</time>
      </trkpt>
      <trkpt lat="45.83045" lon="1.20338">
        <ele>266.6</ele>
        <time>2026-08-10T08:59:08.000Z</time>
      </trkpt>
      <trkpt lat="45.8305" lon="1.20306">
        <ele>268.3</ele>
        <time>2026-08-10T08:59:11.000Z</time>
      </trkpt>
      <trkpt lat="45.83051" lon="1.20289">
        <ele>269</ele>
        <time>2026-08-10T08:59:13.000Z</time>
      </trkpt>
      <trkpt lat="45.83048" lon="1.20275">
        <ele>269.8</ele>
        <time>2026-08-10T08:59:15.000Z</time>
      </trkpt>
      <trkpt lat="45.83037" lon="1.20252">
        <ele>270.7</ele>
        <time>2026-08-10T08:59:20.000Z</time>
      </trkpt>
      <trkpt lat="45.83035" lon="1.20249">
        <ele>270.8</ele>
        <time>2026-08-10T08:59:21.000Z</time>
      </trkpt>
      <trkpt lat="45.83023" lon="1.20239">
        <ele>271.7</ele>
        <time>2026-08-10T08:59:25.000Z</time>
      </trkpt>
      <trkpt lat="45.83006" lon="1.20231">
        <ele>272.7</ele>
        <time>2026-08-10T08:59:31.000Z</time>
      </trkpt>
      <trkpt lat="45.83004" lon="1.20231">
        <ele>272.8</ele>
        <time>2026-08-10T08:59:32.000Z</time>
      </trkpt>
      <trkpt lat="45.82997" lon="1.20223">
        <ele>273.1</ele>
        <time>2026-08-10T08:59:37.000Z</time>
      </trkpt>
      <trkpt lat="45.82986" lon="1.20208">
        <ele>274.3</ele>
        <time>2026-08-10T08:59:45.000Z</time>
      </trkpt>
      <trkpt lat="45.82979" lon="1.20197">
        <ele>274.9</ele>
        <time>2026-08-10T08:59:50.000Z</time>
      </trkpt>
      <trkpt lat="45.82978" lon="1.20195">
        <ele>275</ele>
        <time>2026-08-10T08:59:51.000Z</time>
      </trkpt>
      <trkpt lat="45.82969" lon="1.20175">
        <ele>275.1</ele>
        <time>2026-08-10T08:59:58.000Z</time>
      </trkpt>
      <trkpt lat="45.82966" lon="1.20166">
        <ele>275.3</ele>
        <time>2026-08-10T09:00:01.000Z</time>
      </trkpt>
      <trkpt lat="45.82958" lon="1.20146">
        <ele>276.6</ele>
        <time>2026-08-10T09:00:08.000Z</time>
      </trkpt>
      <trkpt lat="45.82957" lon="1.20143">
        <ele>276.8</ele>
        <time>2026-08-10T09:00:09.000Z</time>
      </trkpt>
      <trkpt lat="45.82952" lon="1.20125">
        <ele>277.5</ele>
        <time>2026-08-10T09:00:15.000Z</time>
      </trkpt>
      <trkpt lat="45.82952" lon="1.20118">
        <ele>277.7</ele>
        <time>2026-08-10T09:00:17.000Z</time>
      </trkpt>
      <trkpt lat="45.82951" lon="1.20115">
        <ele>277.9</ele>
        <time>2026-08-10T09:00:18.000Z</time>
      </trkpt>
      <trkpt lat="45.82949" lon="1.20103">
        <ele>278</ele>
        <time>2026-08-10T09:00:22.000Z</time>
      </trkpt>
      <trkpt lat="45.82949" lon="1.201">
        <ele>278</ele>
        <time>2026-08-10T09:00:23.000Z</time>
      </trkpt>
      <trkpt lat="45.82947" lon="1.20079">
        <ele>278.2</ele>
        <time>2026-08-10T09:00:30.000Z</time>
      </trkpt>
      <trkpt lat="45.82946" lon="1.20053">
        <ele>279.1</ele>
        <time>2026-08-10T09:00:38.000Z</time>
      </trkpt>
      <trkpt lat="45.82946" lon="1.20049">
        <ele>279.2</ele>
        <time>2026-08-10T09:00:39.000Z</time>
      </trkpt>
      <trkpt lat="45.82945" lon="1.2003">
        <ele>279.9</ele>
        <time>2026-08-10T09:00:45.000Z</time>
      </trkpt>
      <trkpt lat="45.82945" lon="1.20021">
        <ele>280.2</ele>
        <time>2026-08-10T09:00:48.000Z</time>
      </trkpt>
      <trkpt lat="45.82942" lon="1.19993">
        <ele>281.1</ele>
        <time>2026-08-10T09:00:56.000Z</time>
      </trkpt>
      <trkpt lat="45.82939" lon="1.19966">
        <ele>282.1</ele>
        <time>2026-08-10T09:01:04.000Z</time>
      </trkpt>
      <trkpt lat="45.82938" lon="1.1996">
        <ele>282.3</ele>
        <time>2026-08-10T09:01:06.000Z</time>
      </trkpt>
      <trkpt lat="45.82937" lon="1.1994">
        <ele>283.1</ele>
        <time>2026-08-10T09:01:13.000Z</time>
      </trkpt>
      <trkpt lat="45.82937" lon="1.19938">
        <ele>283.3</ele>
        <time>2026-08-10T09:01:14.000Z</time>
      </trkpt>
      <trkpt lat="45.82935" lon="1.19923">
        <ele>283.8</ele>
        <time>2026-08-10T09:01:19.000Z</time>
      </trkpt>
      <trkpt lat="45.82935" lon="1.19912">
        <ele>284.3</ele>
        <time>2026-08-10T09:01:23.000Z</time>
      </trkpt>
      <trkpt lat="45.82933" lon="1.19895">
        <ele>285.2</ele>
        <time>2026-08-10T09:01:29.000Z</time>
      </trkpt>
      <trkpt lat="45.82932" lon="1.19888">
        <ele>285.6</ele>
        <time>2026-08-10T09:01:32.000Z</time>
      </trkpt>
      <trkpt lat="45.82933" lon="1.19877">
        <ele>286.3</ele>
        <time>2026-08-10T09:01:36.000Z</time>
      </trkpt>
      <trkpt lat="45.82933" lon="1.1987">
        <ele>286.6</ele>
        <time>2026-08-10T09:01:40.000Z</time>
      </trkpt>
      <trkpt lat="45.82933" lon="1.19867">
        <ele>286.8</ele>
        <time>2026-08-10T09:01:42.000Z</time>
      </trkpt>
      <trkpt lat="45.82931" lon="1.19843">
        <ele>288</ele>
        <time>2026-08-10T09:01:51.000Z</time>
      </trkpt>
      <trkpt lat="45.82925" lon="1.19813">
        <ele>289.3</ele>
        <time>2026-08-10T09:02:02.000Z</time>
      </trkpt>
      <trkpt lat="45.82923" lon="1.19799">
        <ele>290</ele>
        <time>2026-08-10T09:02:07.000Z</time>
      </trkpt>
      <trkpt lat="45.82921" lon="1.19789">
        <ele>290.6</ele>
        <time>2026-08-10T09:02:11.000Z</time>
      </trkpt>
      <trkpt lat="45.82919" lon="1.19779">
        <ele>291.2</ele>
        <time>2026-08-10T09:02:15.000Z</time>
      </trkpt>
      <trkpt lat="45.82918" lon="1.19768">
        <ele>291.8</ele>
        <time>2026-08-10T09:02:19.000Z</time>
      </trkpt>
      <trkpt lat="45.82916" lon="1.19758">
        <ele>292.4</ele>
        <time>2026-08-10T09:02:23.000Z</time>
      </trkpt>
      <trkpt lat="45.82913" lon="1.19749">
        <ele>293</ele>
        <time>2026-08-10T09:02:27.000Z</time>
      </trkpt>
      <trkpt lat="45.82911" lon="1.19735">
        <ele>293.9</ele>
        <time>2026-08-10T09:02:33.000Z</time>
      </trkpt>
      <trkpt lat="45.8291" lon="1.19733">
        <ele>294</ele>
        <time>2026-08-10T09:02:34.000Z</time>
      </trkpt>
      <trkpt lat="45.82909" lon="1.19715">
        <ele>294.8</ele>
        <time>2026-08-10T09:02:43.000Z</time>
      </trkpt>
      <trkpt lat="45.82908" lon="1.19713">
        <ele>294.8</ele>
        <time>2026-08-10T09:02:44.000Z</time>
      </trkpt>
      <trkpt lat="45.82908" lon="1.19709">
        <ele>294.8</ele>
        <time>2026-08-10T09:02:49.000Z</time>
      </trkpt>
      <trkpt lat="45.82907" lon="1.19707">
        <ele>294.8</ele>
        <time>2026-08-10T09:02:50.000Z</time>
      </trkpt>
      <trkpt lat="45.82903" lon="1.19694">
        <ele>295</ele>
        <time>2026-08-10T09:02:56.000Z</time>
      </trkpt>
      <trkpt lat="45.82898" lon="1.19671">
        <ele>295.3</ele>
        <time>2026-08-10T09:03:04.000Z</time>
      </trkpt>
      <trkpt lat="45.82894" lon="1.19648">
        <ele>295.9</ele>
        <time>2026-08-10T09:03:10.000Z</time>
      </trkpt>
      <trkpt lat="45.82888" lon="1.19616">
        <ele>296</ele>
        <time>2026-08-10T09:03:18.000Z</time>
      </trkpt>
      <trkpt lat="45.82888" lon="1.19612">
        <ele>296</ele>
        <time>2026-08-10T09:03:19.000Z</time>
      </trkpt>
      <trkpt lat="45.82883" lon="1.19596">
        <ele>295.9</ele>
        <time>2026-08-10T09:03:23.000Z</time>
      </trkpt>
      <trkpt lat="45.82877" lon="1.19586">
        <ele>296</ele>
        <time>2026-08-10T09:03:26.000Z</time>
      </trkpt>
      <trkpt lat="45.82872" lon="1.19583">
        <ele>296</ele>
        <time>2026-08-10T09:03:28.000Z</time>
      </trkpt>
      <trkpt lat="45.82859" lon="1.19571">
        <ele>295.9</ele>
        <time>2026-08-10T09:03:35.000Z</time>
      </trkpt>
      <trkpt lat="45.82849" lon="1.19565">
        <ele>295.5</ele>
        <time>2026-08-10T09:03:40.000Z</time>
      </trkpt>
      <trkpt lat="45.82836" lon="1.19556">
        <ele>295.1</ele>
        <time>2026-08-10T09:03:46.000Z</time>
      </trkpt>
      <trkpt lat="45.82828" lon="1.19543">
        <ele>294</ele>
        <time>2026-08-10T09:03:51.000Z</time>
      </trkpt>
      <trkpt lat="45.82816" lon="1.19518">
        <ele>292.6</ele>
        <time>2026-08-10T09:03:59.000Z</time>
      </trkpt>
      <trkpt lat="45.82805" lon="1.19504">
        <ele>291.9</ele>
        <time>2026-08-10T09:04:04.000Z</time>
      </trkpt>
      <trkpt lat="45.82802" lon="1.19501">
        <ele>291.8</ele>
        <time>2026-08-10T09:04:05.000Z</time>
      </trkpt>
      <trkpt lat="45.82798" lon="1.19495">
        <ele>291.5</ele>
        <time>2026-08-10T09:04:07.000Z</time>
      </trkpt>
      <trkpt lat="45.82787" lon="1.1948">
        <ele>291.1</ele>
        <time>2026-08-10T09:04:12.000Z</time>
      </trkpt>
      <trkpt lat="45.82776" lon="1.19465">
        <ele>290.6</ele>
        <time>2026-08-10T09:04:16.000Z</time>
      </trkpt>
      <trkpt lat="45.82774" lon="1.19462">
        <ele>290.3</ele>
        <time>2026-08-10T09:04:17.000Z</time>
      </trkpt>
      <trkpt lat="45.82763" lon="1.19448">
        <ele>289.9</ele>
        <time>2026-08-10T09:04:22.000Z</time>
      </trkpt>
      <trkpt lat="45.82761" lon="1.19446">
        <ele>290</ele>
        <time>2026-08-10T09:04:23.000Z</time>
      </trkpt>
      <trkpt lat="45.82739" lon="1.19418">
        <ele>289.6</ele>
        <time>2026-08-10T09:04:31.000Z</time>
      </trkpt>
      <trkpt lat="45.82725" lon="1.19394">
        <ele>289</ele>
        <time>2026-08-10T09:04:37.000Z</time>
      </trkpt>
      <trkpt lat="45.82722" lon="1.1938">
        <ele>288.7</ele>
        <time>2026-08-10T09:04:40.000Z</time>
      </trkpt>
      <trkpt lat="45.82721" lon="1.19372">
        <ele>288.4</ele>
        <time>2026-08-10T09:04:42.000Z</time>
      </trkpt>
      <trkpt lat="45.82722" lon="1.19367">
        <ele>288.2</ele>
        <time>2026-08-10T09:04:43.000Z</time>
      </trkpt>
      <trkpt lat="45.82727" lon="1.1934">
        <ele>286.9</ele>
        <time>2026-08-10T09:04:48.000Z</time>
      </trkpt>
      <trkpt lat="45.82729" lon="1.19322">
        <ele>286.4</ele>
        <time>2026-08-10T09:04:51.000Z</time>
      </trkpt>
      <trkpt lat="45.82734" lon="1.19291">
        <ele>285.1</ele>
        <time>2026-08-10T09:04:56.000Z</time>
      </trkpt>
      <trkpt lat="45.82736" lon="1.19287">
        <ele>284.8</ele>
        <time>2026-08-10T09:04:57.000Z</time>
      </trkpt>
      <trkpt lat="45.82737" lon="1.19279">
        <ele>284.5</ele>
        <time>2026-08-10T09:04:58.000Z</time>
      </trkpt>
      <trkpt lat="45.82737" lon="1.19268">
        <ele>283.8</ele>
        <time>2026-08-10T09:05:00.000Z</time>
      </trkpt>
      <trkpt lat="45.82736" lon="1.19259">
        <ele>283.2</ele>
        <time>2026-08-10T09:05:01.000Z</time>
      </trkpt>
      <trkpt lat="45.82733" lon="1.19246">
        <ele>282.2</ele>
        <time>2026-08-10T09:05:03.000Z</time>
      </trkpt>
      <trkpt lat="45.8273" lon="1.19238">
        <ele>281.4</ele>
        <time>2026-08-10T09:05:04.000Z</time>
      </trkpt>
      <trkpt lat="45.82726" lon="1.19231">
        <ele>280.7</ele>
        <time>2026-08-10T09:05:05.000Z</time>
      </trkpt>
      <trkpt lat="45.82717" lon="1.19218">
        <ele>279.4</ele>
        <time>2026-08-10T09:05:07.000Z</time>
      </trkpt>
      <trkpt lat="45.82702" lon="1.192">
        <ele>276.2</ele>
        <time>2026-08-10T09:05:10.000Z</time>
      </trkpt>
      <trkpt lat="45.82684" lon="1.19183">
        <ele>272.3</ele>
        <time>2026-08-10T09:05:13.000Z</time>
      </trkpt>
      <trkpt lat="45.8267" lon="1.19167">
        <ele>269.1</ele>
        <time>2026-08-10T09:05:15.000Z</time>
      </trkpt>
      <trkpt lat="45.82662" lon="1.19158">
        <ele>268.4</ele>
        <time>2026-08-10T09:05:16.000Z</time>
      </trkpt>
      <trkpt lat="45.82647" lon="1.19139">
        <ele>267.3</ele>
        <time>2026-08-10T09:05:18.000Z</time>
      </trkpt>
      <trkpt lat="45.82639" lon="1.1913">
        <ele>267.4</ele>
        <time>2026-08-10T09:05:19.000Z</time>
      </trkpt>
      <trkpt lat="45.82632" lon="1.19121">
        <ele>267.6</ele>
        <time>2026-08-10T09:05:20.000Z</time>
      </trkpt>
      <trkpt lat="45.82624" lon="1.19112">
        <ele>267.9</ele>
        <time>2026-08-10T09:05:21.000Z</time>
      </trkpt>
      <trkpt lat="45.82612" lon="1.19099">
        <ele>268.9</ele>
        <time>2026-08-10T09:05:23.000Z</time>
      </trkpt>
      <trkpt lat="45.82608" lon="1.19094">
        <ele>269.5</ele>
        <time>2026-08-10T09:05:24.000Z</time>
      </trkpt>
      <trkpt lat="45.82598" lon="1.19083">
        <ele>271</ele>
        <time>2026-08-10T09:05:28.000Z</time>
      </trkpt>
      <trkpt lat="45.8259" lon="1.19074">
        <ele>271.8</ele>
        <time>2026-08-10T09:05:33.000Z</time>
      </trkpt>
      <trkpt lat="45.82589" lon="1.19072">
        <ele>272</ele>
        <time>2026-08-10T09:05:34.000Z</time>
      </trkpt>
      <trkpt lat="45.82583" lon="1.19066">
        <ele>272.6</ele>
        <time>2026-08-10T09:05:38.000Z</time>
      </trkpt>
      <trkpt lat="45.82579" lon="1.19062">
        <ele>273.6</ele>
        <time>2026-08-10T09:05:41.000Z</time>
      </trkpt>
      <trkpt lat="45.82575" lon="1.19059">
        <ele>274.5</ele>
        <time>2026-08-10T09:05:44.000Z</time>
      </trkpt>
      <trkpt lat="45.82572" lon="1.19054">
        <ele>275.1</ele>
        <time>2026-08-10T09:05:47.000Z</time>
      </trkpt>
      <trkpt lat="45.82569" lon="1.19051">
        <ele>275.7</ele>
        <time>2026-08-10T09:05:50.000Z</time>
      </trkpt>
      <trkpt lat="45.82563" lon="1.19044">
        <ele>276.9</ele>
        <time>2026-08-10T09:05:55.000Z</time>
      </trkpt>
      <trkpt lat="45.82561" lon="1.19042">
        <ele>277.1</ele>
        <time>2026-08-10T09:05:56.000Z</time>
      </trkpt>
      <trkpt lat="45.8256" lon="1.1904">
        <ele>277.4</ele>
        <time>2026-08-10T09:05:57.000Z</time>
      </trkpt>
      <trkpt lat="45.82552" lon="1.19036">
        <ele>278.7</ele>
        <time>2026-08-10T09:06:01.000Z</time>
      </trkpt>
      <trkpt lat="45.8255" lon="1.19031">
        <ele>279.3</ele>
        <time>2026-08-10T09:06:04.000Z</time>
      </trkpt>
      <trkpt lat="45.82548" lon="1.1903">
        <ele>279.6</ele>
        <time>2026-08-10T09:06:05.000Z</time>
      </trkpt>
      <trkpt lat="45.82547" lon="1.1903">
        <ele>279.9</ele>
        <time>2026-08-10T09:06:06.000Z</time>
      </trkpt>
      <trkpt lat="45.82546" lon="1.19029">
        <ele>280.1</ele>
        <time>2026-08-10T09:06:07.000Z</time>
      </trkpt>
      <trkpt lat="45.82543" lon="1.19024">
        <ele>280.7</ele>
        <time>2026-08-10T09:06:10.000Z</time>
      </trkpt>
      <trkpt lat="45.82538" lon="1.19021">
        <ele>281.6</ele>
        <time>2026-08-10T09:06:13.000Z</time>
      </trkpt>
      <trkpt lat="45.82538" lon="1.1902">
        <ele>281.7</ele>
        <time>2026-08-10T09:06:14.000Z</time>
      </trkpt>
      <trkpt lat="45.82536" lon="1.19017">
        <ele>281.9</ele>
        <time>2026-08-10T09:06:16.000Z</time>
      </trkpt>
      <trkpt lat="45.82534" lon="1.19016">
        <ele>282.3</ele>
        <time>2026-08-10T09:06:18.000Z</time>
      </trkpt>
      <trkpt lat="45.82533" lon="1.19016">
        <ele>282.5</ele>
        <time>2026-08-10T09:06:19.000Z</time>
      </trkpt>
      <trkpt lat="45.82531" lon="1.19012">
        <ele>282.7</ele>
        <time>2026-08-10T09:06:22.000Z</time>
      </trkpt>
      <trkpt lat="45.82528" lon="1.19009">
        <ele>283.4</ele>
        <time>2026-08-10T09:06:25.000Z</time>
      </trkpt>
      <trkpt lat="45.82527" lon="1.19008">
        <ele>283.4</ele>
        <time>2026-08-10T09:06:26.000Z</time>
      </trkpt>
      <trkpt lat="45.82526" lon="1.19007">
        <ele>283.5</ele>
        <time>2026-08-10T09:06:27.000Z</time>
      </trkpt>
      <trkpt lat="45.82525" lon="1.19006">
        <ele>283.7</ele>
        <time>2026-08-10T09:06:28.000Z</time>
      </trkpt>
      <trkpt lat="45.82523" lon="1.19006">
        <ele>284.1</ele>
        <time>2026-08-10T09:06:30.000Z</time>
      </trkpt>
      <trkpt lat="45.8252" lon="1.19">
        <ele>284.4</ele>
        <time>2026-08-10T09:06:33.000Z</time>
      </trkpt>
      <trkpt lat="45.82519" lon="1.18999">
        <ele>284.6</ele>
        <time>2026-08-10T09:06:34.000Z</time>
      </trkpt>
      <trkpt lat="45.82516" lon="1.18999">
        <ele>285.2</ele>
        <time>2026-08-10T09:06:36.000Z</time>
      </trkpt>
      <trkpt lat="45.82513" lon="1.18996">
        <ele>285.5</ele>
        <time>2026-08-10T09:06:39.000Z</time>
      </trkpt>
      <trkpt lat="45.8251" lon="1.18994">
        <ele>286</ele>
        <time>2026-08-10T09:06:42.000Z</time>
      </trkpt>
      <trkpt lat="45.82509" lon="1.18993">
        <ele>286.2</ele>
        <time>2026-08-10T09:06:43.000Z</time>
      </trkpt>
      <trkpt lat="45.82508" lon="1.18992">
        <ele>286.3</ele>
        <time>2026-08-10T09:06:44.000Z</time>
      </trkpt>
      <trkpt lat="45.82506" lon="1.1899">
        <ele>286.5</ele>
        <time>2026-08-10T09:06:45.000Z</time>
      </trkpt>
      <trkpt lat="45.825" lon="1.18983">
        <ele>287.3</ele>
        <time>2026-08-10T09:06:50.000Z</time>
      </trkpt>
      <trkpt lat="45.82499" lon="1.18982">
        <ele>287.5</ele>
        <time>2026-08-10T09:06:51.000Z</time>
      </trkpt>
      <trkpt lat="45.8249" lon="1.18974">
        <ele>289.3</ele>
        <time>2026-08-10T09:06:58.000Z</time>
      </trkpt>
      <trkpt lat="45.82482" lon="1.18965">
        <ele>290.9</ele>
        <time>2026-08-10T09:07:06.000Z</time>
      </trkpt>
      <trkpt lat="45.82475" lon="1.18957">
        <ele>292.5</ele>
        <time>2026-08-10T09:07:12.000Z</time>
      </trkpt>
      <trkpt lat="45.82467" lon="1.1895">
        <ele>293.7</ele>
        <time>2026-08-10T09:07:16.000Z</time>
      </trkpt>
      <trkpt lat="45.82466" lon="1.18949">
        <ele>294</ele>
        <time>2026-08-10T09:07:17.000Z</time>
      </trkpt>
      <trkpt lat="45.82457" lon="1.18939">
        <ele>295.3</ele>
        <time>2026-08-10T09:07:23.000Z</time>
      </trkpt>
      <trkpt lat="45.82456" lon="1.18938">
        <ele>295.5</ele>
        <time>2026-08-10T09:07:24.000Z</time>
      </trkpt>
      <trkpt lat="45.8245" lon="1.18931">
        <ele>296.3</ele>
        <time>2026-08-10T09:07:28.000Z</time>
      </trkpt>
      <trkpt lat="45.82446" lon="1.18927">
        <ele>296.8</ele>
        <time>2026-08-10T09:07:31.000Z</time>
      </trkpt>
      <trkpt lat="45.82441" lon="1.18921">
        <ele>297.3</ele>
        <time>2026-08-10T09:07:36.000Z</time>
      </trkpt>
      <trkpt lat="45.82439" lon="1.1892">
        <ele>297.4</ele>
        <time>2026-08-10T09:07:37.000Z</time>
      </trkpt>
      <trkpt lat="45.82439" lon="1.1892">
        <ele>297.4</ele>
        <time>2026-08-10T09:07:40.000Z</time>
      </trkpt>
      <trkpt lat="45.82434" lon="1.18915">
        <ele>297.8</ele>
        <time>2026-08-10T09:08:06.000Z</time>
      </trkpt>
      <trkpt lat="45.82424" lon="1.18907">
        <ele>298.4</ele>
        <time>2026-08-10T09:08:13.000Z</time>
      </trkpt>
      <trkpt lat="45.82421" lon="1.18904">
        <ele>298.7</ele>
        <time>2026-08-10T09:08:15.000Z</time>
      </trkpt>
      <trkpt lat="45.82413" lon="1.18895">
        <ele>299.1</ele>
        <time>2026-08-10T09:08:20.000Z</time>
      </trkpt>
      <trkpt lat="45.82405" lon="1.18888">
        <ele>299.5</ele>
        <time>2026-08-10T09:08:26.000Z</time>
      </trkpt>
      <trkpt lat="45.82403" lon="1.18887">
        <ele>299.6</ele>
        <time>2026-08-10T09:08:27.000Z</time>
      </trkpt>
      <trkpt lat="45.8239" lon="1.18876">
        <ele>300.4</ele>
        <time>2026-08-10T09:08:34.000Z</time>
      </trkpt>
      <trkpt lat="45.82386" lon="1.18873">
        <ele>300.7</ele>
        <time>2026-08-10T09:08:36.000Z</time>
      </trkpt>
      <trkpt lat="45.82367" lon="1.18864">
        <ele>301.7</ele>
        <time>2026-08-10T09:08:44.000Z</time>
      </trkpt>
      <trkpt lat="45.82362" lon="1.18862">
        <ele>302</ele>
        <time>2026-08-10T09:08:46.000Z</time>
      </trkpt>
      <trkpt lat="45.82331" lon="1.18848">
        <ele>302</ele>
        <time>2026-08-10T09:08:56.000Z</time>
      </trkpt>
      <trkpt lat="45.82315" lon="1.18841">
        <ele>301.8</ele>
        <time>2026-08-10T09:09:00.000Z</time>
      </trkpt>
      <trkpt lat="45.82308" lon="1.18839">
        <ele>301.8</ele>
        <time>2026-08-10T09:09:02.000Z</time>
      </trkpt>
      <trkpt lat="45.82269" lon="1.18824">
        <ele>302.3</ele>
        <time>2026-08-10T09:09:11.000Z</time>
      </trkpt>
      <trkpt lat="45.82246" lon="1.18815">
        <ele>304.2</ele>
        <time>2026-08-10T09:09:18.000Z</time>
      </trkpt>
      <trkpt lat="45.82244" lon="1.18814">
        <ele>304.5</ele>
        <time>2026-08-10T09:09:19.000Z</time>
      </trkpt>
      <trkpt lat="45.82233" lon="1.1881">
        <ele>305.7</ele>
        <time>2026-08-10T09:09:24.000Z</time>
      </trkpt>
      <trkpt lat="45.82231" lon="1.18809">
        <ele>306</ele>
        <time>2026-08-10T09:09:25.000Z</time>
      </trkpt>
      <trkpt lat="45.82223" lon="1.18807">
        <ele>306.8</ele>
        <time>2026-08-10T09:09:29.000Z</time>
      </trkpt>
      <trkpt lat="45.82217" lon="1.18806">
        <ele>307</ele>
        <time>2026-08-10T09:09:32.000Z</time>
      </trkpt>
      <trkpt lat="45.82215" lon="1.18806">
        <ele>306.9</ele>
        <time>2026-08-10T09:09:33.000Z</time>
      </trkpt>
      <trkpt lat="45.82214" lon="1.18807">
        <ele>306.8</ele>
        <time>2026-08-10T09:09:34.000Z</time>
      </trkpt>
      <trkpt lat="45.82214" lon="1.18809">
        <ele>306.6</ele>
        <time>2026-08-10T09:09:35.000Z</time>
      </trkpt>
      <trkpt lat="45.82213" lon="1.18811">
        <ele>306.4</ele>
        <time>2026-08-10T09:09:36.000Z</time>
      </trkpt>
      <trkpt lat="45.82212" lon="1.18812">
        <ele>306.3</ele>
        <time>2026-08-10T09:09:40.000Z</time>
      </trkpt>
      <trkpt lat="45.82208" lon="1.18807">
        <ele>306.9</ele>
        <time>2026-08-10T09:10:52.000Z</time>
      </trkpt>
      <trkpt lat="45.82205" lon="1.18802">
        <ele>307.2</ele>
        <time>2026-08-10T09:10:54.000Z</time>
      </trkpt>
      <trkpt lat="45.82201" lon="1.188">
        <ele>307.4</ele>
        <time>2026-08-10T09:10:57.000Z</time>
      </trkpt>
      <trkpt lat="45.82192" lon="1.18798">
        <ele>307.6</ele>
        <time>2026-08-10T09:11:02.000Z</time>
      </trkpt>
      <trkpt lat="45.8219" lon="1.18798">
        <ele>307.7</ele>
        <time>2026-08-10T09:11:03.000Z</time>
      </trkpt>
      <trkpt lat="45.82178" lon="1.18797">
        <ele>308.2</ele>
        <time>2026-08-10T09:11:09.000Z</time>
      </trkpt>
      <trkpt lat="45.82171" lon="1.18796">
        <ele>308.6</ele>
        <time>2026-08-10T09:11:12.000Z</time>
      </trkpt>
      <trkpt lat="45.82165" lon="1.18796">
        <ele>308.7</ele>
        <time>2026-08-10T09:11:15.000Z</time>
      </trkpt>
      <trkpt lat="45.82151" lon="1.18793">
        <ele>308.6</ele>
        <time>2026-08-10T09:11:22.000Z</time>
      </trkpt>
      <trkpt lat="45.82142" lon="1.1879">
        <ele>308.8</ele>
        <time>2026-08-10T09:11:27.000Z</time>
      </trkpt>
      <trkpt lat="45.82139" lon="1.18789">
        <ele>308.8</ele>
        <time>2026-08-10T09:11:29.000Z</time>
      </trkpt>
      <trkpt lat="45.82128" lon="1.18785">
        <ele>308</ele>
        <time>2026-08-10T09:11:34.000Z</time>
      </trkpt>
      <trkpt lat="45.82123" lon="1.18782">
        <ele>307.8</ele>
        <time>2026-08-10T09:11:36.000Z</time>
      </trkpt>
      <trkpt lat="45.82111" lon="1.18776">
        <ele>307.2</ele>
        <time>2026-08-10T09:11:40.000Z</time>
      </trkpt>
      <trkpt lat="45.82097" lon="1.18771">
        <ele>306.2</ele>
        <time>2026-08-10T09:11:45.000Z</time>
      </trkpt>
      <trkpt lat="45.82093" lon="1.18769">
        <ele>306</ele>
        <time>2026-08-10T09:11:46.000Z</time>
      </trkpt>
      <trkpt lat="45.8208" lon="1.18766">
        <ele>305.1</ele>
        <time>2026-08-10T09:11:49.000Z</time>
      </trkpt>
      <trkpt lat="45.82071" lon="1.18766">
        <ele>304.4</ele>
        <time>2026-08-10T09:11:51.000Z</time>
      </trkpt>
      <trkpt lat="45.82067" lon="1.18766">
        <ele>304.1</ele>
        <time>2026-08-10T09:11:52.000Z</time>
      </trkpt>
      <trkpt lat="45.82046" lon="1.1877">
        <ele>302.5</ele>
        <time>2026-08-10T09:11:56.000Z</time>
      </trkpt>
      <trkpt lat="45.82036" lon="1.18773">
        <ele>301.8</ele>
        <time>2026-08-10T09:11:58.000Z</time>
      </trkpt>
      <trkpt lat="45.82026" lon="1.18777">
        <ele>301.1</ele>
        <time>2026-08-10T09:12:00.000Z</time>
      </trkpt>
      <trkpt lat="45.82018" lon="1.1878">
        <ele>300.5</ele>
        <time>2026-08-10T09:12:02.000Z</time>
      </trkpt>
      <trkpt lat="45.82012" lon="1.18781">
        <ele>300.2</ele>
        <time>2026-08-10T09:12:03.000Z</time>
      </trkpt>
      <trkpt lat="45.82007" lon="1.18782">
        <ele>299.9</ele>
        <time>2026-08-10T09:12:04.000Z</time>
      </trkpt>
      <trkpt lat="45.81997" lon="1.18785">
        <ele>299.3</ele>
        <time>2026-08-10T09:12:06.000Z</time>
      </trkpt>
      <trkpt lat="45.81992" lon="1.18786">
        <ele>298.8</ele>
        <time>2026-08-10T09:12:07.000Z</time>
      </trkpt>
      <trkpt lat="45.81983" lon="1.18789">
        <ele>298</ele>
        <time>2026-08-10T09:12:09.000Z</time>
      </trkpt>
      <trkpt lat="45.81975" lon="1.18791">
        <ele>297.3</ele>
        <time>2026-08-10T09:12:10.000Z</time>
      </trkpt>
      <trkpt lat="45.81963" lon="1.18793">
        <ele>296.1</ele>
        <time>2026-08-10T09:12:12.000Z</time>
      </trkpt>
      <trkpt lat="45.81957" lon="1.18793">
        <ele>295.6</ele>
        <time>2026-08-10T09:12:13.000Z</time>
      </trkpt>
      <trkpt lat="45.81952" lon="1.18792">
        <ele>295.2</ele>
        <time>2026-08-10T09:12:14.000Z</time>
      </trkpt>
      <trkpt lat="45.81947" lon="1.1879">
        <ele>294.8</ele>
        <time>2026-08-10T09:12:15.000Z</time>
      </trkpt>
      <trkpt lat="45.81938" lon="1.18785">
        <ele>294</ele>
        <time>2026-08-10T09:12:17.000Z</time>
      </trkpt>
      <trkpt lat="45.81934" lon="1.18783">
        <ele>293.6</ele>
        <time>2026-08-10T09:12:18.000Z</time>
      </trkpt>
      <trkpt lat="45.81922" lon="1.18773">
        <ele>292.8</ele>
        <time>2026-08-10T09:12:21.000Z</time>
      </trkpt>
      <trkpt lat="45.81915" lon="1.18767">
        <ele>292.3</ele>
        <time>2026-08-10T09:12:23.000Z</time>
      </trkpt>
      <trkpt lat="45.81912" lon="1.18764">
        <ele>292.3</ele>
        <time>2026-08-10T09:12:24.000Z</time>
      </trkpt>
      <trkpt lat="45.81903" lon="1.18754">
        <ele>292.4</ele>
        <time>2026-08-10T09:12:27.000Z</time>
      </trkpt>
      <trkpt lat="45.81901" lon="1.18751">
        <ele>292.4</ele>
        <time>2026-08-10T09:12:28.000Z</time>
      </trkpt>
      <trkpt lat="45.81894" lon="1.18731">
        <ele>292.3</ele>
        <time>2026-08-10T09:12:33.000Z</time>
      </trkpt>
      <trkpt lat="45.81892" lon="1.18726">
        <ele>292.2</ele>
        <time>2026-08-10T09:12:34.000Z</time>
      </trkpt>
      <trkpt lat="45.8188" lon="1.1869">
        <ele>292.7</ele>
        <time>2026-08-10T09:12:41.000Z</time>
      </trkpt>
      <trkpt lat="45.81869" lon="1.18653">
        <ele>293.8</ele>
        <time>2026-08-10T09:12:48.000Z</time>
      </trkpt>
      <trkpt lat="45.81848" lon="1.18591">
        <ele>294.3</ele>
        <time>2026-08-10T09:12:59.000Z</time>
      </trkpt>
      <trkpt lat="45.81834" lon="1.18538">
        <ele>294</ele>
        <time>2026-08-10T09:13:07.000Z</time>
      </trkpt>
      <trkpt lat="45.81831" lon="1.18525">
        <ele>294</ele>
        <time>2026-08-10T09:13:09.000Z</time>
      </trkpt>
      <trkpt lat="45.81817" lon="1.18449">
        <ele>294.3</ele>
        <time>2026-08-10T09:13:20.000Z</time>
      </trkpt>
      <trkpt lat="45.81803" lon="1.18383">
        <ele>293.7</ele>
        <time>2026-08-10T09:13:30.000Z</time>
      </trkpt>
      <trkpt lat="45.81802" lon="1.18378">
        <ele>293.5</ele>
        <time>2026-08-10T09:13:31.000Z</time>
      </trkpt>
      <trkpt lat="45.8179" lon="1.18326">
        <ele>293.7</ele>
        <time>2026-08-10T09:13:39.000Z</time>
      </trkpt>
      <trkpt lat="45.81778" lon="1.18279">
        <ele>295</ele>
        <time>2026-08-10T09:13:47.000Z</time>
      </trkpt>
      <trkpt lat="45.81764" lon="1.18222">
        <ele>296</ele>
        <time>2026-08-10T09:13:57.000Z</time>
      </trkpt>
      <trkpt lat="45.81751" lon="1.18168">
        <ele>297</ele>
        <time>2026-08-10T09:14:07.000Z</time>
      </trkpt>
      <trkpt lat="45.8174" lon="1.18125">
        <ele>297.8</ele>
        <time>2026-08-10T09:14:15.000Z</time>
      </trkpt>
      <trkpt lat="45.8173" lon="1.18084">
        <ele>298.1</ele>
        <time>2026-08-10T09:14:23.000Z</time>
      </trkpt>
      <trkpt lat="45.81721" lon="1.18049">
        <ele>298</ele>
        <time>2026-08-10T09:14:30.000Z</time>
      </trkpt>
      <trkpt lat="45.81717" lon="1.18029">
        <ele>298</ele>
        <time>2026-08-10T09:14:34.000Z</time>
      </trkpt>
      <trkpt lat="45.81712" lon="1.18">
        <ele>298.6</ele>
        <time>2026-08-10T09:14:39.000Z</time>
      </trkpt>
      <trkpt lat="45.81703" lon="1.17951">
        <ele>298.1</ele>
        <time>2026-08-10T09:14:47.000Z</time>
      </trkpt>
      <trkpt lat="45.81693" lon="1.17903">
        <ele>297.4</ele>
        <time>2026-08-10T09:14:55.000Z</time>
      </trkpt>
      <trkpt lat="45.81682" lon="1.17848">
        <ele>297</ele>
        <time>2026-08-10T09:15:04.000Z</time>
      </trkpt>
      <trkpt lat="45.81676" lon="1.17817">
        <ele>298.1</ele>
        <time>2026-08-10T09:15:09.000Z</time>
      </trkpt>
      <trkpt lat="45.81673" lon="1.17799">
        <ele>298.5</ele>
        <time>2026-08-10T09:15:12.000Z</time>
      </trkpt>
      <trkpt lat="45.81668" lon="1.17775">
        <ele>298.3</ele>
        <time>2026-08-10T09:15:16.000Z</time>
      </trkpt>
      <trkpt lat="45.81658" lon="1.17716">
        <ele>298.8</ele>
        <time>2026-08-10T09:15:25.000Z</time>
      </trkpt>
      <trkpt lat="45.81647" lon="1.17661">
        <ele>298.7</ele>
        <time>2026-08-10T09:15:34.000Z</time>
      </trkpt>
      <trkpt lat="45.81636" lon="1.17604">
        <ele>299.2</ele>
        <time>2026-08-10T09:15:43.000Z</time>
      </trkpt>
      <trkpt lat="45.81631" lon="1.17572">
        <ele>299.9</ele>
        <time>2026-08-10T09:15:49.000Z</time>
      </trkpt>
      <trkpt lat="45.81627" lon="1.17547">
        <ele>300.3</ele>
        <time>2026-08-10T09:15:55.000Z</time>
      </trkpt>
      <trkpt lat="45.81626" lon="1.17543">
        <ele>300.5</ele>
        <time>2026-08-10T09:15:56.000Z</time>
      </trkpt>
      <trkpt lat="45.81626" lon="1.17539">
        <ele>300.7</ele>
        <time>2026-08-10T09:15:57.000Z</time>
      </trkpt>
      <trkpt lat="45.81622" lon="1.17519">
        <ele>301.9</ele>
        <time>2026-08-10T09:16:03.000Z</time>
      </trkpt>
      <trkpt lat="45.81622" lon="1.17516">
        <ele>302.1</ele>
        <time>2026-08-10T09:16:04.000Z</time>
      </trkpt>
      <trkpt lat="45.81616" lon="1.17492">
        <ele>303.5</ele>
        <time>2026-08-10T09:16:12.000Z</time>
      </trkpt>
      <trkpt lat="45.81613" lon="1.17476">
        <ele>304.7</ele>
        <time>2026-08-10T09:16:18.000Z</time>
      </trkpt>
      <trkpt lat="45.8161" lon="1.1747">
        <ele>304.9</ele>
        <time>2026-08-10T09:16:20.000Z</time>
      </trkpt>
      <trkpt lat="45.81609" lon="1.17468">
        <ele>304.8</ele>
        <time>2026-08-10T09:16:21.000Z</time>
      </trkpt>
      <trkpt lat="45.81603" lon="1.17462">
        <ele>304.4</ele>
        <time>2026-08-10T09:16:24.000Z</time>
      </trkpt>
      <trkpt lat="45.81598" lon="1.17446">
        <ele>304.9</ele>
        <time>2026-08-10T09:16:30.000Z</time>
      </trkpt>
      <trkpt lat="45.81597" lon="1.17443">
        <ele>305.1</ele>
        <time>2026-08-10T09:16:31.000Z</time>
      </trkpt>
      <trkpt lat="45.81595" lon="1.17435">
        <ele>305.7</ele>
        <time>2026-08-10T09:16:35.000Z</time>
      </trkpt>
      <trkpt lat="45.81594" lon="1.17435">
        <ele>305.7</ele>
        <time>2026-08-10T09:16:36.000Z</time>
      </trkpt>
      <trkpt lat="45.81593" lon="1.17435">
        <ele>305.7</ele>
        <time>2026-08-10T09:16:37.000Z</time>
      </trkpt>
      <trkpt lat="45.81593" lon="1.17435">
        <ele>305.7</ele>
        <time>2026-08-10T09:16:41.000Z</time>
      </trkpt>
      <trkpt lat="45.81593" lon="1.17435">
        <ele>305.7</ele>
        <time>2026-08-10T09:16:42.000Z</time>
      </trkpt>
      <trkpt lat="45.81599" lon="1.17429">
        <ele>306.1</ele>
        <time>2026-08-10T09:31:56.000Z</time>
      </trkpt>
      <trkpt lat="45.81601" lon="1.17424">
        <ele>306.5</ele>
        <time>2026-08-10T09:31:58.000Z</time>
      </trkpt>
      <trkpt lat="45.81601" lon="1.17418">
        <ele>306.9</ele>
        <time>2026-08-10T09:32:04.000Z</time>
      </trkpt>
      <trkpt lat="45.816" lon="1.17412">
        <ele>307.3</ele>
        <time>2026-08-10T09:32:21.000Z</time>
      </trkpt>
      <trkpt lat="45.81596" lon="1.17388">
        <ele>308.5</ele>
        <time>2026-08-10T09:32:28.000Z</time>
      </trkpt>
      <trkpt lat="45.8159" lon="1.17359">
        <ele>310.1</ele>
        <time>2026-08-10T09:32:37.000Z</time>
      </trkpt>
      <trkpt lat="45.81588" lon="1.17346">
        <ele>310.5</ele>
        <time>2026-08-10T09:32:41.000Z</time>
      </trkpt>
      <trkpt lat="45.81586" lon="1.17341">
        <ele>310.7</ele>
        <time>2026-08-10T09:32:43.000Z</time>
      </trkpt>
      <trkpt lat="45.81583" lon="1.17328">
        <ele>311.2</ele>
        <time>2026-08-10T09:32:47.000Z</time>
      </trkpt>
      <trkpt lat="45.81582" lon="1.17319">
        <ele>311.5</ele>
        <time>2026-08-10T09:32:50.000Z</time>
      </trkpt>
      <trkpt lat="45.81581" lon="1.17311">
        <ele>311.8</ele>
        <time>2026-08-10T09:32:52.000Z</time>
      </trkpt>
      <trkpt lat="45.81577" lon="1.17292">
        <ele>312.5</ele>
        <time>2026-08-10T09:32:58.000Z</time>
      </trkpt>
      <trkpt lat="45.81575" lon="1.17282">
        <ele>312.8</ele>
        <time>2026-08-10T09:33:01.000Z</time>
      </trkpt>
      <trkpt lat="45.81573" lon="1.17273">
        <ele>313.3</ele>
        <time>2026-08-10T09:33:04.000Z</time>
      </trkpt>
      <trkpt lat="45.81568" lon="1.17247">
        <ele>314.6</ele>
        <time>2026-08-10T09:33:12.000Z</time>
      </trkpt>
      <trkpt lat="45.81566" lon="1.17241">
        <ele>314.8</ele>
        <time>2026-08-10T09:33:14.000Z</time>
      </trkpt>
      <trkpt lat="45.81561" lon="1.17222">
        <ele>315.4</ele>
        <time>2026-08-10T09:33:19.000Z</time>
      </trkpt>
      <trkpt lat="45.81558" lon="1.17207">
        <ele>315.7</ele>
        <time>2026-08-10T09:33:23.000Z</time>
      </trkpt>
      <trkpt lat="45.81547" lon="1.17183">
        <ele>316.4</ele>
        <time>2026-08-10T09:33:30.000Z</time>
      </trkpt>
      <trkpt lat="45.81546" lon="1.1718">
        <ele>316.5</ele>
        <time>2026-08-10T09:33:31.000Z</time>
      </trkpt>
      <trkpt lat="45.81539" lon="1.17162">
        <ele>316.8</ele>
        <time>2026-08-10T09:33:36.000Z</time>
      </trkpt>
      <trkpt lat="45.81534" lon="1.1715">
        <ele>316.4</ele>
        <time>2026-08-10T09:33:39.000Z</time>
      </trkpt>
      <trkpt lat="45.81522" lon="1.17127">
        <ele>315.8</ele>
        <time>2026-08-10T09:33:45.000Z</time>
      </trkpt>
      <trkpt lat="45.81512" lon="1.1711">
        <ele>315.5</ele>
        <time>2026-08-10T09:33:50.000Z</time>
      </trkpt>
      <trkpt lat="45.81507" lon="1.17103">
        <ele>315.6</ele>
        <time>2026-08-10T09:33:52.000Z</time>
      </trkpt>
      <trkpt lat="45.81502" lon="1.17097">
        <ele>315.6</ele>
        <time>2026-08-10T09:33:54.000Z</time>
      </trkpt>
      <trkpt lat="45.81489" lon="1.17079">
        <ele>316.2</ele>
        <time>2026-08-10T09:34:00.000Z</time>
      </trkpt>
      <trkpt lat="45.81478" lon="1.17062">
        <ele>316.8</ele>
        <time>2026-08-10T09:34:05.000Z</time>
      </trkpt>
      <trkpt lat="45.81465" lon="1.17045">
        <ele>317.5</ele>
        <time>2026-08-10T09:34:11.000Z</time>
      </trkpt>
      <trkpt lat="45.81463" lon="1.17042">
        <ele>317.7</ele>
        <time>2026-08-10T09:34:12.000Z</time>
      </trkpt>
      <trkpt lat="45.81449" lon="1.17027">
        <ele>318.9</ele>
        <time>2026-08-10T09:34:18.000Z</time>
      </trkpt>
      <trkpt lat="45.81436" lon="1.17011">
        <ele>320.6</ele>
        <time>2026-08-10T09:34:24.000Z</time>
      </trkpt>
      <trkpt lat="45.81433" lon="1.17007">
        <ele>320.9</ele>
        <time>2026-08-10T09:34:25.000Z</time>
      </trkpt>
      <trkpt lat="45.81419" lon="1.16991">
        <ele>322.6</ele>
        <time>2026-08-10T09:34:31.000Z</time>
      </trkpt>
      <trkpt lat="45.81417" lon="1.16988">
        <ele>322.8</ele>
        <time>2026-08-10T09:34:32.000Z</time>
      </trkpt>
      <trkpt lat="45.81401" lon="1.1697">
        <ele>324.2</ele>
        <time>2026-08-10T09:34:38.000Z</time>
      </trkpt>
      <trkpt lat="45.81396" lon="1.16963">
        <ele>324.7</ele>
        <time>2026-08-10T09:34:40.000Z</time>
      </trkpt>
      <trkpt lat="45.81386" lon="1.16952">
        <ele>325.3</ele>
        <time>2026-08-10T09:34:44.000Z</time>
      </trkpt>
      <trkpt lat="45.81368" lon="1.16927">
        <ele>326</ele>
        <time>2026-08-10T09:34:51.000Z</time>
      </trkpt>
      <trkpt lat="45.81365" lon="1.16924">
        <ele>326</ele>
        <time>2026-08-10T09:34:52.000Z</time>
      </trkpt>
      <trkpt lat="45.81347" lon="1.16891">
        <ele>325.9</ele>
        <time>2026-08-10T09:35:00.000Z</time>
      </trkpt>
      <trkpt lat="45.81332" lon="1.16859">
        <ele>325.8</ele>
        <time>2026-08-10T09:35:08.000Z</time>
      </trkpt>
      <trkpt lat="45.81328" lon="1.16853">
        <ele>325.5</ele>
        <time>2026-08-10T09:35:09.000Z</time>
      </trkpt>
      <trkpt lat="45.81308" lon="1.16819">
        <ele>324.2</ele>
        <time>2026-08-10T09:35:17.000Z</time>
      </trkpt>
      <trkpt lat="45.81285" lon="1.16782">
        <ele>322.5</ele>
        <time>2026-08-10T09:35:24.000Z</time>
      </trkpt>
      <trkpt lat="45.81278" lon="1.16771">
        <ele>322</ele>
        <time>2026-08-10T09:35:26.000Z</time>
      </trkpt>
      <trkpt lat="45.81272" lon="1.16761">
        <ele>321.6</ele>
        <time>2026-08-10T09:35:28.000Z</time>
      </trkpt>
      <trkpt lat="45.81264" lon="1.16748">
        <ele>321.1</ele>
        <time>2026-08-10T09:35:30.000Z</time>
      </trkpt>
      <trkpt lat="45.81241" lon="1.16709">
        <ele>319.4</ele>
        <time>2026-08-10T09:35:35.000Z</time>
      </trkpt>
      <trkpt lat="45.81236" lon="1.16701">
        <ele>319</ele>
        <time>2026-08-10T09:35:36.000Z</time>
      </trkpt>
      <trkpt lat="45.81215" lon="1.16665">
        <ele>317.7</ele>
        <time>2026-08-10T09:35:40.000Z</time>
      </trkpt>
      <trkpt lat="45.81203" lon="1.16646">
        <ele>316.6</ele>
        <time>2026-08-10T09:35:42.000Z</time>
      </trkpt>
      <trkpt lat="45.81191" lon="1.16628">
        <ele>315.5</ele>
        <time>2026-08-10T09:35:44.000Z</time>
      </trkpt>
      <trkpt lat="45.81173" lon="1.166">
        <ele>313.9</ele>
        <time>2026-08-10T09:35:47.000Z</time>
      </trkpt>
      <trkpt lat="45.81158" lon="1.1658">
        <ele>312.6</ele>
        <time>2026-08-10T09:35:49.000Z</time>
      </trkpt>
      <trkpt lat="45.81152" lon="1.16572">
        <ele>312.3</ele>
        <time>2026-08-10T09:35:50.000Z</time>
      </trkpt>
      <trkpt lat="45.81122" lon="1.16535">
        <ele>309.8</ele>
        <time>2026-08-10T09:35:54.000Z</time>
      </trkpt>
      <trkpt lat="45.81114" lon="1.16525">
        <ele>309.3</ele>
        <time>2026-08-10T09:35:55.000Z</time>
      </trkpt>
      <trkpt lat="45.81099" lon="1.16506">
        <ele>308.7</ele>
        <time>2026-08-10T09:35:57.000Z</time>
      </trkpt>
      <trkpt lat="45.81085" lon="1.16487">
        <ele>307.1</ele>
        <time>2026-08-10T09:35:59.000Z</time>
      </trkpt>
      <trkpt lat="45.81062" lon="1.1646">
        <ele>305.5</ele>
        <time>2026-08-10T09:36:02.000Z</time>
      </trkpt>
      <trkpt lat="45.81046" lon="1.1644">
        <ele>304.3</ele>
        <time>2026-08-10T09:36:04.000Z</time>
      </trkpt>
      <trkpt lat="45.81031" lon="1.16421">
        <ele>303.2</ele>
        <time>2026-08-10T09:36:06.000Z</time>
      </trkpt>
      <trkpt lat="45.81017" lon="1.16404">
        <ele>301.6</ele>
        <time>2026-08-10T09:36:08.000Z</time>
      </trkpt>
      <trkpt lat="45.81" lon="1.16383">
        <ele>299.7</ele>
        <time>2026-08-10T09:36:10.000Z</time>
      </trkpt>
      <trkpt lat="45.80983" lon="1.16362">
        <ele>298.4</ele>
        <time>2026-08-10T09:36:12.000Z</time>
      </trkpt>
      <trkpt lat="45.80975" lon="1.16352">
        <ele>297.8</ele>
        <time>2026-08-10T09:36:13.000Z</time>
      </trkpt>
      <trkpt lat="45.80967" lon="1.16342">
        <ele>296.7</ele>
        <time>2026-08-10T09:36:14.000Z</time>
      </trkpt>
      <trkpt lat="45.80951" lon="1.16321">
        <ele>295.8</ele>
        <time>2026-08-10T09:36:16.000Z</time>
      </trkpt>
      <trkpt lat="45.80934" lon="1.16299">
        <ele>294.3</ele>
        <time>2026-08-10T09:36:18.000Z</time>
      </trkpt>
      <trkpt lat="45.8092" lon="1.1628">
        <ele>293.9</ele>
        <time>2026-08-10T09:36:20.000Z</time>
      </trkpt>
      <trkpt lat="45.8091" lon="1.16267">
        <ele>293.2</ele>
        <time>2026-08-10T09:36:21.000Z</time>
      </trkpt>
      <trkpt lat="45.80903" lon="1.16255">
        <ele>292.9</ele>
        <time>2026-08-10T09:36:22.000Z</time>
      </trkpt>
      <trkpt lat="45.80889" lon="1.16232">
        <ele>293</ele>
        <time>2026-08-10T09:36:24.000Z</time>
      </trkpt>
      <trkpt lat="45.80883" lon="1.1622">
        <ele>292.9</ele>
        <time>2026-08-10T09:36:25.000Z</time>
      </trkpt>
      <trkpt lat="45.80879" lon="1.16209">
        <ele>293</ele>
        <time>2026-08-10T09:36:26.000Z</time>
      </trkpt>
      <trkpt lat="45.80874" lon="1.16194">
        <ele>292.9</ele>
        <time>2026-08-10T09:36:27.000Z</time>
      </trkpt>
      <trkpt lat="45.80864" lon="1.16154">
        <ele>291.8</ele>
        <time>2026-08-10T09:36:30.000Z</time>
      </trkpt>
      <trkpt lat="45.80861" lon="1.16141">
        <ele>291</ele>
        <time>2026-08-10T09:36:31.000Z</time>
      </trkpt>
      <trkpt lat="45.80848" lon="1.1609">
        <ele>290.2</ele>
        <time>2026-08-10T09:36:35.000Z</time>
      </trkpt>
      <trkpt lat="45.80835" lon="1.16038">
        <ele>288.4</ele>
        <time>2026-08-10T09:36:39.000Z</time>
      </trkpt>
      <trkpt lat="45.80829" lon="1.16013">
        <ele>287.1</ele>
        <time>2026-08-10T09:36:41.000Z</time>
      </trkpt>
      <trkpt lat="45.80817" lon="1.15974">
        <ele>284.5</ele>
        <time>2026-08-10T09:36:44.000Z</time>
      </trkpt>
      <trkpt lat="45.80812" lon="1.15962">
        <ele>284.5</ele>
        <time>2026-08-10T09:36:45.000Z</time>
      </trkpt>
      <trkpt lat="45.80802" lon="1.15938">
        <ele>284.5</ele>
        <time>2026-08-10T09:36:47.000Z</time>
      </trkpt>
      <trkpt lat="45.8079" lon="1.15918">
        <ele>283.3</ele>
        <time>2026-08-10T09:36:49.000Z</time>
      </trkpt>
      <trkpt lat="45.80779" lon="1.15901">
        <ele>282.7</ele>
        <time>2026-08-10T09:36:51.000Z</time>
      </trkpt>
      <trkpt lat="45.80763" lon="1.15882">
        <ele>281.2</ele>
        <time>2026-08-10T09:36:53.000Z</time>
      </trkpt>
      <trkpt lat="45.80741" lon="1.15855">
        <ele>279.2</ele>
        <time>2026-08-10T09:36:56.000Z</time>
      </trkpt>
      <trkpt lat="45.80725" lon="1.15838">
        <ele>277.4</ele>
        <time>2026-08-10T09:36:58.000Z</time>
      </trkpt>
      <trkpt lat="45.80717" lon="1.15829">
        <ele>276.7</ele>
        <time>2026-08-10T09:36:59.000Z</time>
      </trkpt>
      <trkpt lat="45.80699" lon="1.1581">
        <ele>274.8</ele>
        <time>2026-08-10T09:37:01.000Z</time>
      </trkpt>
      <trkpt lat="45.80682" lon="1.15791">
        <ele>273.3</ele>
        <time>2026-08-10T09:37:03.000Z</time>
      </trkpt>
      <trkpt lat="45.80664" lon="1.15773">
        <ele>271.3</ele>
        <time>2026-08-10T09:37:05.000Z</time>
      </trkpt>
      <trkpt lat="45.80646" lon="1.15754">
        <ele>270.1</ele>
        <time>2026-08-10T09:37:07.000Z</time>
      </trkpt>
      <trkpt lat="45.80637" lon="1.15745">
        <ele>269.2</ele>
        <time>2026-08-10T09:37:08.000Z</time>
      </trkpt>
      <trkpt lat="45.8062" lon="1.15726">
        <ele>267.6</ele>
        <time>2026-08-10T09:37:10.000Z</time>
      </trkpt>
      <trkpt lat="45.80605" lon="1.15707">
        <ele>266.5</ele>
        <time>2026-08-10T09:37:12.000Z</time>
      </trkpt>
      <trkpt lat="45.80592" lon="1.15685">
        <ele>264.9</ele>
        <time>2026-08-10T09:37:14.000Z</time>
      </trkpt>
      <trkpt lat="45.80585" lon="1.15674">
        <ele>263</ele>
        <time>2026-08-10T09:37:15.000Z</time>
      </trkpt>
      <trkpt lat="45.80573" lon="1.1565">
        <ele>261.2</ele>
        <time>2026-08-10T09:37:17.000Z</time>
      </trkpt>
      <trkpt lat="45.80561" lon="1.15625">
        <ele>259.3</ele>
        <time>2026-08-10T09:37:19.000Z</time>
      </trkpt>
      <trkpt lat="45.8055" lon="1.156">
        <ele>257.3</ele>
        <time>2026-08-10T09:37:21.000Z</time>
      </trkpt>
      <trkpt lat="45.80545" lon="1.15591">
        <ele>256.3</ele>
        <time>2026-08-10T09:37:22.000Z</time>
      </trkpt>
      <trkpt lat="45.80532" lon="1.15565">
        <ele>253.9</ele>
        <time>2026-08-10T09:37:24.000Z</time>
      </trkpt>
      <trkpt lat="45.80526" lon="1.15553">
        <ele>252.9</ele>
        <time>2026-08-10T09:37:25.000Z</time>
      </trkpt>
      <trkpt lat="45.80521" lon="1.15543">
        <ele>252.2</ele>
        <time>2026-08-10T09:37:26.000Z</time>
      </trkpt>
      <trkpt lat="45.80509" lon="1.15522">
        <ele>250.4</ele>
        <time>2026-08-10T09:37:28.000Z</time>
      </trkpt>
      <trkpt lat="45.80497" lon="1.15501">
        <ele>248.7</ele>
        <time>2026-08-10T09:37:30.000Z</time>
      </trkpt>
      <trkpt lat="45.80491" lon="1.1549">
        <ele>247.3</ele>
        <time>2026-08-10T09:37:31.000Z</time>
      </trkpt>
      <trkpt lat="45.80481" lon="1.15469">
        <ele>245.8</ele>
        <time>2026-08-10T09:37:33.000Z</time>
      </trkpt>
      <trkpt lat="45.80469" lon="1.1544">
        <ele>243.7</ele>
        <time>2026-08-10T09:37:35.000Z</time>
      </trkpt>
      <trkpt lat="45.80462" lon="1.15427">
        <ele>241.5</ele>
        <time>2026-08-10T09:37:36.000Z</time>
      </trkpt>
      <trkpt lat="45.80448" lon="1.154">
        <ele>239.7</ele>
        <time>2026-08-10T09:37:38.000Z</time>
      </trkpt>
      <trkpt lat="45.80434" lon="1.15372">
        <ele>236</ele>
        <time>2026-08-10T09:37:40.000Z</time>
      </trkpt>
      <trkpt lat="45.8042" lon="1.15347">
        <ele>235.7</ele>
        <time>2026-08-10T09:37:42.000Z</time>
      </trkpt>
      <trkpt lat="45.8041" lon="1.15331">
        <ele>234.6</ele>
        <time>2026-08-10T09:37:43.000Z</time>
      </trkpt>
      <trkpt lat="45.80394" lon="1.15306">
        <ele>235.2</ele>
        <time>2026-08-10T09:37:45.000Z</time>
      </trkpt>
      <trkpt lat="45.80377" lon="1.15281">
        <ele>233.4</ele>
        <time>2026-08-10T09:37:47.000Z</time>
      </trkpt>
      <trkpt lat="45.80369" lon="1.1527">
        <ele>234.1</ele>
        <time>2026-08-10T09:37:48.000Z</time>
      </trkpt>
      <trkpt lat="45.80362" lon="1.15259">
        <ele>235.3</ele>
        <time>2026-08-10T09:37:49.000Z</time>
      </trkpt>
      <trkpt lat="45.80348" lon="1.15239">
        <ele>235.9</ele>
        <time>2026-08-10T09:37:51.000Z</time>
      </trkpt>
      <trkpt lat="45.80341" lon="1.1523">
        <ele>236.3</ele>
        <time>2026-08-10T09:37:52.000Z</time>
      </trkpt>
      <trkpt lat="45.8033" lon="1.15214">
        <ele>237.4</ele>
        <time>2026-08-10T09:37:54.000Z</time>
      </trkpt>
      <trkpt lat="45.8032" lon="1.152">
        <ele>238.3</ele>
        <time>2026-08-10T09:37:56.000Z</time>
      </trkpt>
      <trkpt lat="45.803" lon="1.15171">
        <ele>239.6</ele>
        <time>2026-08-10T09:38:01.000Z</time>
      </trkpt>
      <trkpt lat="45.8029" lon="1.15158">
        <ele>241</ele>
        <time>2026-08-10T09:38:04.000Z</time>
      </trkpt>
      <trkpt lat="45.80281" lon="1.15147">
        <ele>241.3</ele>
        <time>2026-08-10T09:38:07.000Z</time>
      </trkpt>
      <trkpt lat="45.80278" lon="1.15143">
        <ele>241.2</ele>
        <time>2026-08-10T09:38:08.000Z</time>
      </trkpt>
      <trkpt lat="45.80265" lon="1.15127">
        <ele>241.7</ele>
        <time>2026-08-10T09:38:13.000Z</time>
      </trkpt>
      <trkpt lat="45.80258" lon="1.15118">
        <ele>241.7</ele>
        <time>2026-08-10T09:38:16.000Z</time>
      </trkpt>
      <trkpt lat="45.80253" lon="1.15112">
        <ele>241.4</ele>
        <time>2026-08-10T09:38:18.000Z</time>
      </trkpt>
      <trkpt lat="45.80231" lon="1.15085">
        <ele>242.5</ele>
        <time>2026-08-10T09:38:27.000Z</time>
      </trkpt>
      <trkpt lat="45.80206" lon="1.15055">
        <ele>242.2</ele>
        <time>2026-08-10T09:38:36.000Z</time>
      </trkpt>
      <trkpt lat="45.80179" lon="1.15024">
        <ele>241</ele>
        <time>2026-08-10T09:38:44.000Z</time>
      </trkpt>
      <trkpt lat="45.8015" lon="1.14995">
        <ele>239.9</ele>
        <time>2026-08-10T09:38:51.000Z</time>
      </trkpt>
      <trkpt lat="45.80115" lon="1.14975">
        <ele>239</ele>
        <time>2026-08-10T09:38:57.000Z</time>
      </trkpt>
      <trkpt lat="45.80081" lon="1.14953">
        <ele>238.6</ele>
        <time>2026-08-10T09:39:03.000Z</time>
      </trkpt>
      <trkpt lat="45.80065" lon="1.14942">
        <ele>238.5</ele>
        <time>2026-08-10T09:39:06.000Z</time>
      </trkpt>
      <trkpt lat="45.80059" lon="1.14939">
        <ele>238.5</ele>
        <time>2026-08-10T09:39:07.000Z</time>
      </trkpt>
      <trkpt lat="45.80035" lon="1.14924">
        <ele>239.5</ele>
        <time>2026-08-10T09:39:12.000Z</time>
      </trkpt>
      <trkpt lat="45.80011" lon="1.14909">
        <ele>239.2</ele>
        <time>2026-08-10T09:39:17.000Z</time>
      </trkpt>
      <trkpt lat="45.80001" lon="1.14905">
        <ele>238.9</ele>
        <time>2026-08-10T09:39:19.000Z</time>
      </trkpt>
      <trkpt lat="45.79966" lon="1.14885">
        <ele>237.8</ele>
        <time>2026-08-10T09:39:26.000Z</time>
      </trkpt>
      <trkpt lat="45.79923" lon="1.14859">
        <ele>236.4</ele>
        <time>2026-08-10T09:39:34.000Z</time>
      </trkpt>
      <trkpt lat="45.79907" lon="1.14848">
        <ele>236.7</ele>
        <time>2026-08-10T09:39:37.000Z</time>
      </trkpt>
      <trkpt lat="45.79901" lon="1.14844">
        <ele>236.6</ele>
        <time>2026-08-10T09:39:38.000Z</time>
      </trkpt>
      <trkpt lat="45.79874" lon="1.14826">
        <ele>235.3</ele>
        <time>2026-08-10T09:39:43.000Z</time>
      </trkpt>
      <trkpt lat="45.7986" lon="1.14817">
        <ele>235.1</ele>
        <time>2026-08-10T09:39:46.000Z</time>
      </trkpt>
      <trkpt lat="45.79855" lon="1.14814">
        <ele>234.8</ele>
        <time>2026-08-10T09:39:47.000Z</time>
      </trkpt>
      <trkpt lat="45.79851" lon="1.14811">
        <ele>234.6</ele>
        <time>2026-08-10T09:39:48.000Z</time>
      </trkpt>
      <trkpt lat="45.79827" lon="1.14796">
        <ele>232.8</ele>
        <time>2026-08-10T09:39:53.000Z</time>
      </trkpt>
      <trkpt lat="45.79821" lon="1.14793">
        <ele>232.4</ele>
        <time>2026-08-10T09:39:54.000Z</time>
      </trkpt>
      <trkpt lat="45.79803" lon="1.14783">
        <ele>230.8</ele>
        <time>2026-08-10T09:39:57.000Z</time>
      </trkpt>
      <trkpt lat="45.79778" lon="1.14769">
        <ele>228.7</ele>
        <time>2026-08-10T09:40:01.000Z</time>
      </trkpt>
      <trkpt lat="45.79767" lon="1.1476">
        <ele>227.2</ele>
        <time>2026-08-10T09:40:03.000Z</time>
      </trkpt>
      <trkpt lat="45.79762" lon="1.14754">
        <ele>226.4</ele>
        <time>2026-08-10T09:40:04.000Z</time>
      </trkpt>
      <trkpt lat="45.79758" lon="1.14746">
        <ele>225.5</ele>
        <time>2026-08-10T09:40:05.000Z</time>
      </trkpt>
      <trkpt lat="45.79755" lon="1.14724">
        <ele>223</ele>
        <time>2026-08-10T09:40:07.000Z</time>
      </trkpt>
      <trkpt lat="45.79755" lon="1.14712">
        <ele>222.4</ele>
        <time>2026-08-10T09:40:08.000Z</time>
      </trkpt>
      <trkpt lat="45.79756" lon="1.14701">
        <ele>222</ele>
        <time>2026-08-10T09:40:09.000Z</time>
      </trkpt>
      <trkpt lat="45.79756" lon="1.14677">
        <ele>220.8</ele>
        <time>2026-08-10T09:40:11.000Z</time>
      </trkpt>
      <trkpt lat="45.79757" lon="1.14654">
        <ele>219.5</ele>
        <time>2026-08-10T09:40:13.000Z</time>
      </trkpt>
      <trkpt lat="45.79757" lon="1.14644">
        <ele>218.8</ele>
        <time>2026-08-10T09:40:14.000Z</time>
      </trkpt>
      <trkpt lat="45.79758" lon="1.14635">
        <ele>218.4</ele>
        <time>2026-08-10T09:40:15.000Z</time>
      </trkpt>
      <trkpt lat="45.79759" lon="1.14621">
        <ele>218</ele>
        <time>2026-08-10T09:40:17.000Z</time>
      </trkpt>
      <trkpt lat="45.7976" lon="1.14614">
        <ele>217.8</ele>
        <time>2026-08-10T09:40:18.000Z</time>
      </trkpt>
      <trkpt lat="45.79761" lon="1.14606">
        <ele>217.7</ele>
        <time>2026-08-10T09:40:19.000Z</time>
      </trkpt>
      <trkpt lat="45.79763" lon="1.1459">
        <ele>217.6</ele>
        <time>2026-08-10T09:40:21.000Z</time>
      </trkpt>
      <trkpt lat="45.79765" lon="1.14573">
        <ele>217.2</ele>
        <time>2026-08-10T09:40:23.000Z</time>
      </trkpt>
      <trkpt lat="45.79767" lon="1.14557">
        <ele>216.4</ele>
        <time>2026-08-10T09:40:25.000Z</time>
      </trkpt>
      <trkpt lat="45.79769" lon="1.14546">
        <ele>215.4</ele>
        <time>2026-08-10T09:40:26.000Z</time>
      </trkpt>
      <trkpt lat="45.79771" lon="1.14537">
        <ele>214.7</ele>
        <time>2026-08-10T09:40:27.000Z</time>
      </trkpt>
      <trkpt lat="45.79775" lon="1.14521">
        <ele>213.3</ele>
        <time>2026-08-10T09:40:29.000Z</time>
      </trkpt>
      <trkpt lat="45.79778" lon="1.14494">
        <ele>211.8</ele>
        <time>2026-08-10T09:40:32.000Z</time>
      </trkpt>
      <trkpt lat="45.79779" lon="1.14485">
        <ele>211.7</ele>
        <time>2026-08-10T09:40:33.000Z</time>
      </trkpt>
      <trkpt lat="45.79781" lon="1.14466">
        <ele>211.1</ele>
        <time>2026-08-10T09:40:35.000Z</time>
      </trkpt>
      <trkpt lat="45.79783" lon="1.14452">
        <ele>210.2</ele>
        <time>2026-08-10T09:40:37.000Z</time>
      </trkpt>
      <trkpt lat="45.79785" lon="1.14445">
        <ele>210</ele>
        <time>2026-08-10T09:40:38.000Z</time>
      </trkpt>
      <trkpt lat="45.79788" lon="1.14422">
        <ele>208.4</ele>
        <time>2026-08-10T09:40:41.000Z</time>
      </trkpt>
      <trkpt lat="45.79789" lon="1.1441">
        <ele>207.4</ele>
        <time>2026-08-10T09:40:43.000Z</time>
      </trkpt>
      <trkpt lat="45.79789" lon="1.14406">
        <ele>207.1</ele>
        <time>2026-08-10T09:40:44.000Z</time>
      </trkpt>
      <trkpt lat="45.7979" lon="1.14398">
        <ele>206.6</ele>
        <time>2026-08-10T09:40:47.000Z</time>
      </trkpt>
      <trkpt lat="45.79789" lon="1.14393">
        <ele>206.2</ele>
        <time>2026-08-10T09:40:49.000Z</time>
      </trkpt>
      <trkpt lat="45.7979" lon="1.14393">
        <ele>206.2</ele>
        <time>2026-08-10T09:40:51.000Z</time>
      </trkpt>
      <trkpt lat="45.7979" lon="1.14393">
        <ele>206.2</ele>
        <time>2026-08-10T09:40:52.000Z</time>
      </trkpt>
      <trkpt lat="45.7979" lon="1.14384">
        <ele>205.6</ele>
        <time>2026-08-10T09:41:12.000Z</time>
      </trkpt>
      <trkpt lat="45.79788" lon="1.14373">
        <ele>204.9</ele>
        <time>2026-08-10T09:41:14.000Z</time>
      </trkpt>
      <trkpt lat="45.79783" lon="1.14354">
        <ele>204.2</ele>
        <time>2026-08-10T09:41:17.000Z</time>
      </trkpt>
      <trkpt lat="45.79778" lon="1.14343">
        <ele>203.7</ele>
        <time>2026-08-10T09:41:19.000Z</time>
      </trkpt>
      <trkpt lat="45.79759" lon="1.14315">
        <ele>199.6</ele>
        <time>2026-08-10T09:41:25.000Z</time>
      </trkpt>
      <trkpt lat="45.79755" lon="1.1431">
        <ele>199.3</ele>
        <time>2026-08-10T09:41:26.000Z</time>
      </trkpt>
      <trkpt lat="45.79719" lon="1.14266">
        <ele>199.1</ele>
        <time>2026-08-10T09:41:36.000Z</time>
      </trkpt>
      <trkpt lat="45.79682" lon="1.14221">
        <ele>202.3</ele>
        <time>2026-08-10T09:41:45.000Z</time>
      </trkpt>
      <trkpt lat="45.79674" lon="1.1421">
        <ele>202.6</ele>
        <time>2026-08-10T09:41:47.000Z</time>
      </trkpt>
      <trkpt lat="45.79668" lon="1.14198">
        <ele>202.2</ele>
        <time>2026-08-10T09:41:49.000Z</time>
      </trkpt>
      <trkpt lat="45.79667" lon="1.14193">
        <ele>202.1</ele>
        <time>2026-08-10T09:41:50.000Z</time>
      </trkpt>
      <trkpt lat="45.79666" lon="1.14182">
        <ele>202.9</ele>
        <time>2026-08-10T09:41:53.000Z</time>
      </trkpt>
      <trkpt lat="45.79668" lon="1.14175">
        <ele>203.3</ele>
        <time>2026-08-10T09:41:58.000Z</time>
      </trkpt>
      <trkpt lat="45.79668" lon="1.14175">
        <ele>203.3</ele>
        <time>2026-08-10T09:42:00.000Z</time>
      </trkpt>
      <trkpt lat="45.79673" lon="1.14175">
        <ele>203.1</ele>
        <time>2026-08-10T09:42:10.000Z</time>
      </trkpt>
      <trkpt lat="45.79675" lon="1.14177">
        <ele>202.8</ele>
        <time>2026-08-10T09:42:11.000Z</time>
      </trkpt>
      <trkpt lat="45.79682" lon="1.14186">
        <ele>201.9</ele>
        <time>2026-08-10T09:42:15.000Z</time>
      </trkpt>
      <trkpt lat="45.79687" lon="1.14191">
        <ele>201.4</ele>
        <time>2026-08-10T09:42:17.000Z</time>
      </trkpt>
      <trkpt lat="45.79696" lon="1.14196">
        <ele>201</ele>
        <time>2026-08-10T09:42:20.000Z</time>
      </trkpt>
      <trkpt lat="45.79703" lon="1.14202">
        <ele>200.8</ele>
        <time>2026-08-10T09:42:22.000Z</time>
      </trkpt>
      <trkpt lat="45.79714" lon="1.14208">
        <ele>200.3</ele>
        <time>2026-08-10T09:42:28.000Z</time>
      </trkpt>
      <trkpt lat="45.79714" lon="1.14208">
        <ele>200.3</ele>
        <time>2026-08-10T09:42:30.000Z</time>
      </trkpt>
      <trkpt lat="45.7972" lon="1.14204">
        <ele>200.4</ele>
        <time>2026-08-10T09:43:14.000Z</time>
      </trkpt>
      <trkpt lat="45.79721" lon="1.14203">
        <ele>200.4</ele>
        <time>2026-08-10T09:43:15.000Z</time>
      </trkpt>
      <trkpt lat="45.79732" lon="1.14195">
        <ele>200.6</ele>
        <time>2026-08-10T09:43:23.000Z</time>
      </trkpt>
      <trkpt lat="45.79738" lon="1.14188">
        <ele>200.7</ele>
        <time>2026-08-10T09:43:29.000Z</time>
      </trkpt>
      <trkpt lat="45.79747" lon="1.14178">
        <ele>200.7</ele>
        <time>2026-08-10T09:43:35.000Z</time>
      </trkpt>
      <trkpt lat="45.79761" lon="1.1416">
        <ele>200.8</ele>
        <time>2026-08-10T09:43:43.000Z</time>
      </trkpt>
      <trkpt lat="45.79771" lon="1.14149">
        <ele>200.9</ele>
        <time>2026-08-10T09:43:48.000Z</time>
      </trkpt>
      <trkpt lat="45.79773" lon="1.14146">
        <ele>200.9</ele>
        <time>2026-08-10T09:43:49.000Z</time>
      </trkpt>
      <trkpt lat="45.7979" lon="1.14119">
        <ele>200.9</ele>
        <time>2026-08-10T09:43:58.000Z</time>
      </trkpt>
      <trkpt lat="45.79805" lon="1.14098">
        <ele>200.5</ele>
        <time>2026-08-10T09:44:05.000Z</time>
      </trkpt>
      <trkpt lat="45.79823" lon="1.14072">
        <ele>200.4</ele>
        <time>2026-08-10T09:44:14.000Z</time>
      </trkpt>
      <trkpt lat="45.79837" lon="1.14052">
        <ele>200.8</ele>
        <time>2026-08-10T09:44:20.000Z</time>
      </trkpt>
      <trkpt lat="45.79855" lon="1.14021">
        <ele>200.5</ele>
        <time>2026-08-10T09:44:28.000Z</time>
      </trkpt>
      <trkpt lat="45.79868" lon="1.13994">
        <ele>200.6</ele>
        <time>2026-08-10T09:44:35.000Z</time>
      </trkpt>
      <trkpt lat="45.79881" lon="1.13966">
        <ele>201.1</ele>
        <time>2026-08-10T09:44:42.000Z</time>
      </trkpt>
      <trkpt lat="45.79885" lon="1.13938">
        <ele>201.2</ele>
        <time>2026-08-10T09:44:48.000Z</time>
      </trkpt>
      <trkpt lat="45.79878" lon="1.13926">
        <ele>201.7</ele>
        <time>2026-08-10T09:44:52.000Z</time>
      </trkpt>
      <trkpt lat="45.79868" lon="1.13923">
        <ele>202.3</ele>
        <time>2026-08-10T09:44:58.000Z</time>
      </trkpt>
      <trkpt lat="45.79858" lon="1.13921">
        <ele>202.8</ele>
        <time>2026-08-10T09:45:04.000Z</time>
      </trkpt>
      <trkpt lat="45.79856" lon="1.13921">
        <ele>202.9</ele>
        <time>2026-08-10T09:45:05.000Z</time>
      </trkpt>
      <trkpt lat="45.79855" lon="1.1392">
        <ele>202.9</ele>
        <time>2026-08-10T09:45:06.000Z</time>
      </trkpt>
      <trkpt lat="45.79853" lon="1.13916">
        <ele>203</ele>
        <time>2026-08-10T09:45:08.000Z</time>
      </trkpt>
      <trkpt lat="45.79848" lon="1.13918">
        <ele>203</ele>
        <time>2026-08-10T09:45:11.000Z</time>
      </trkpt>
      <trkpt lat="45.79847" lon="1.13917">
        <ele>203</ele>
        <time>2026-08-10T09:45:12.000Z</time>
      </trkpt>
      <trkpt lat="45.79846" lon="1.13915">
        <ele>203</ele>
        <time>2026-08-10T09:45:13.000Z</time>
      </trkpt>
      <trkpt lat="45.79845" lon="1.13913">
        <ele>203</ele>
        <time>2026-08-10T09:45:14.000Z</time>
      </trkpt>
      <trkpt lat="45.79843" lon="1.13912">
        <ele>202.9</ele>
        <time>2026-08-10T09:45:16.000Z</time>
      </trkpt>
      <trkpt lat="45.7984" lon="1.13913">
        <ele>203</ele>
        <time>2026-08-10T09:45:18.000Z</time>
      </trkpt>
      <trkpt lat="45.79838" lon="1.1391">
        <ele>203</ele>
        <time>2026-08-10T09:45:20.000Z</time>
      </trkpt>
      <trkpt lat="45.79835" lon="1.13907">
        <ele>203</ele>
        <time>2026-08-10T09:45:22.000Z</time>
      </trkpt>
      <trkpt lat="45.79833" lon="1.13908">
        <ele>203</ele>
        <time>2026-08-10T09:45:24.000Z</time>
      </trkpt>
      <trkpt lat="45.79832" lon="1.13908">
        <ele>203.2</ele>
        <time>2026-08-10T09:45:25.000Z</time>
      </trkpt>
      <trkpt lat="45.79829" lon="1.13906">
        <ele>203.6</ele>
        <time>2026-08-10T09:45:27.000Z</time>
      </trkpt>
      <trkpt lat="45.79829" lon="1.13904">
        <ele>203.8</ele>
        <time>2026-08-10T09:45:28.000Z</time>
      </trkpt>
      <trkpt lat="45.79827" lon="1.13903">
        <ele>204.1</ele>
        <time>2026-08-10T09:45:29.000Z</time>
      </trkpt>
      <trkpt lat="45.79821" lon="1.13901">
        <ele>205.4</ele>
        <time>2026-08-10T09:45:33.000Z</time>
      </trkpt>
      <trkpt lat="45.79819" lon="1.139">
        <ele>205.8</ele>
        <time>2026-08-10T09:45:34.000Z</time>
      </trkpt>
      <trkpt lat="45.79811" lon="1.13896">
        <ele>207.9</ele>
        <time>2026-08-10T09:45:39.000Z</time>
      </trkpt>
      <trkpt lat="45.7981" lon="1.13893">
        <ele>208.4</ele>
        <time>2026-08-10T09:45:40.000Z</time>
      </trkpt>
      <trkpt lat="45.79812" lon="1.13884">
        <ele>208.7</ele>
        <time>2026-08-10T09:45:43.000Z</time>
      </trkpt>
      <trkpt lat="45.79814" lon="1.13874">
        <ele>208.8</ele>
        <time>2026-08-10T09:45:46.000Z</time>
      </trkpt>
      <trkpt lat="45.79817" lon="1.13862">
        <ele>208.6</ele>
        <time>2026-08-10T09:45:50.000Z</time>
      </trkpt>
      <trkpt lat="45.79819" lon="1.13856">
        <ele>208.6</ele>
        <time>2026-08-10T09:45:52.000Z</time>
      </trkpt>
      <trkpt lat="45.79827" lon="1.13832">
        <ele>208.6</ele>
        <time>2026-08-10T09:45:59.000Z</time>
      </trkpt>
      <trkpt lat="45.79837" lon="1.13811">
        <ele>208.9</ele>
        <time>2026-08-10T09:46:05.000Z</time>
      </trkpt>
      <trkpt lat="45.7984" lon="1.13805">
        <ele>208.9</ele>
        <time>2026-08-10T09:46:07.000Z</time>
      </trkpt>
      <trkpt lat="45.79847" lon="1.13786">
        <ele>209.7</ele>
        <time>2026-08-10T09:46:12.000Z</time>
      </trkpt>
      <trkpt lat="45.79856" lon="1.13766">
        <ele>209.6</ele>
        <time>2026-08-10T09:46:18.000Z</time>
      </trkpt>
      <trkpt lat="45.79866" lon="1.13739">
        <ele>209.6</ele>
        <time>2026-08-10T09:46:25.000Z</time>
      </trkpt>
      <trkpt lat="45.79872" lon="1.13716">
        <ele>208.9</ele>
        <time>2026-08-10T09:46:30.000Z</time>
      </trkpt>
      <trkpt lat="45.79878" lon="1.13686">
        <ele>208.7</ele>
        <time>2026-08-10T09:46:36.000Z</time>
      </trkpt>
      <trkpt lat="45.79886" lon="1.13652">
        <ele>208.9</ele>
        <time>2026-08-10T09:46:42.000Z</time>
      </trkpt>
      <trkpt lat="45.79894" lon="1.13603">
        <ele>208.2</ele>
        <time>2026-08-10T09:46:50.000Z</time>
      </trkpt>
      <trkpt lat="45.79901" lon="1.13557">
        <ele>207.4</ele>
        <time>2026-08-10T09:46:57.000Z</time>
      </trkpt>
      <trkpt lat="45.79902" lon="1.13507">
        <ele>206.2</ele>
        <time>2026-08-10T09:47:05.000Z</time>
      </trkpt>
      <trkpt lat="45.79896" lon="1.13464">
        <ele>207.1</ele>
        <time>2026-08-10T09:47:12.000Z</time>
      </trkpt>
      <trkpt lat="45.79895" lon="1.13457">
        <ele>207.3</ele>
        <time>2026-08-10T09:47:13.000Z</time>
      </trkpt>
      <trkpt lat="45.79892" lon="1.13433">
        <ele>207.5</ele>
        <time>2026-08-10T09:47:17.000Z</time>
      </trkpt>
      <trkpt lat="45.79891" lon="1.13427">
        <ele>207.2</ele>
        <time>2026-08-10T09:47:18.000Z</time>
      </trkpt>
      <trkpt lat="45.79883" lon="1.13386">
        <ele>206.4</ele>
        <time>2026-08-10T09:47:25.000Z</time>
      </trkpt>
      <trkpt lat="45.79882" lon="1.13375">
        <ele>206.6</ele>
        <time>2026-08-10T09:47:27.000Z</time>
      </trkpt>
      <trkpt lat="45.7988" lon="1.13362">
        <ele>207</ele>
        <time>2026-08-10T09:47:29.000Z</time>
      </trkpt>
      <trkpt lat="45.79878" lon="1.1335">
        <ele>207.1</ele>
        <time>2026-08-10T09:47:31.000Z</time>
      </trkpt>
      <trkpt lat="45.79875" lon="1.13326">
        <ele>206.8</ele>
        <time>2026-08-10T09:47:35.000Z</time>
      </trkpt>
      <trkpt lat="45.79874" lon="1.13321">
        <ele>206.6</ele>
        <time>2026-08-10T09:47:36.000Z</time>
      </trkpt>
      <trkpt lat="45.79868" lon="1.13299">
        <ele>206.3</ele>
        <time>2026-08-10T09:47:40.000Z</time>
      </trkpt>
      <trkpt lat="45.79867" lon="1.13283">
        <ele>207</ele>
        <time>2026-08-10T09:47:43.000Z</time>
      </trkpt>
      <trkpt lat="45.7986" lon="1.13244">
        <ele>206</ele>
        <time>2026-08-10T09:47:50.000Z</time>
      </trkpt>
      <trkpt lat="45.79853" lon="1.13202">
        <ele>206.8</ele>
        <time>2026-08-10T09:47:57.000Z</time>
      </trkpt>
      <trkpt lat="45.79853" lon="1.13196">
        <ele>206.8</ele>
        <time>2026-08-10T09:47:58.000Z</time>
      </trkpt>
      <trkpt lat="45.79852" lon="1.13189">
        <ele>206.9</ele>
        <time>2026-08-10T09:47:59.000Z</time>
      </trkpt>
      <trkpt lat="45.79847" lon="1.13155">
        <ele>206.2</ele>
        <time>2026-08-10T09:48:04.000Z</time>
      </trkpt>
      <trkpt lat="45.79842" lon="1.13129">
        <ele>205.1</ele>
        <time>2026-08-10T09:48:08.000Z</time>
      </trkpt>
      <trkpt lat="45.79838" lon="1.13086">
        <ele>204.7</ele>
        <time>2026-08-10T09:48:14.000Z</time>
      </trkpt>
      <trkpt lat="45.79837" lon="1.13056">
        <ele>204.4</ele>
        <time>2026-08-10T09:48:18.000Z</time>
      </trkpt>
      <trkpt lat="45.79839" lon="1.13026">
        <ele>203.5</ele>
        <time>2026-08-10T09:48:22.000Z</time>
      </trkpt>
      <trkpt lat="45.79847" lon="1.12969">
        <ele>204.9</ele>
        <time>2026-08-10T09:48:30.000Z</time>
      </trkpt>
      <trkpt lat="45.79851" lon="1.12938">
        <ele>202.7</ele>
        <time>2026-08-10T09:48:35.000Z</time>
      </trkpt>
      <trkpt lat="45.79852" lon="1.12934">
        <ele>202.5</ele>
        <time>2026-08-10T09:48:36.000Z</time>
      </trkpt>
      <trkpt lat="45.79865" lon="1.12914">
        <ele>201</ele>
        <time>2026-08-10T09:48:41.000Z</time>
      </trkpt>
      <trkpt lat="45.79877" lon="1.12893">
        <ele>201</ele>
        <time>2026-08-10T09:48:45.000Z</time>
      </trkpt>
      <trkpt lat="45.7988" lon="1.12887">
        <ele>201</ele>
        <time>2026-08-10T09:48:46.000Z</time>
      </trkpt>
      <trkpt lat="45.79883" lon="1.12881">
        <ele>201</ele>
        <time>2026-08-10T09:48:47.000Z</time>
      </trkpt>
      <trkpt lat="45.79891" lon="1.12855">
        <ele>200.5</ele>
        <time>2026-08-10T09:48:51.000Z</time>
      </trkpt>
      <trkpt lat="45.79904" lon="1.12799">
        <ele>200</ele>
        <time>2026-08-10T09:48:59.000Z</time>
      </trkpt>
      <trkpt lat="45.79914" lon="1.12751">
        <ele>200.2</ele>
        <time>2026-08-10T09:49:06.000Z</time>
      </trkpt>
      <trkpt lat="45.79915" lon="1.12745">
        <ele>200.1</ele>
        <time>2026-08-10T09:49:07.000Z</time>
      </trkpt>
      <trkpt lat="45.79929" lon="1.1269">
        <ele>199.7</ele>
        <time>2026-08-10T09:49:16.000Z</time>
      </trkpt>
      <trkpt lat="45.79942" lon="1.1263">
        <ele>199.5</ele>
        <time>2026-08-10T09:49:25.000Z</time>
      </trkpt>
      <trkpt lat="45.79956" lon="1.12578">
        <ele>199</ele>
        <time>2026-08-10T09:49:33.000Z</time>
      </trkpt>
      <trkpt lat="45.7997" lon="1.12537">
        <ele>199.1</ele>
        <time>2026-08-10T09:49:40.000Z</time>
      </trkpt>
      <trkpt lat="45.79987" lon="1.12495">
        <ele>199.5</ele>
        <time>2026-08-10T09:49:48.000Z</time>
      </trkpt>
      <trkpt lat="45.79995" lon="1.12477">
        <ele>199.2</ele>
        <time>2026-08-10T09:49:52.000Z</time>
      </trkpt>
      <trkpt lat="45.80005" lon="1.12453">
        <ele>199.8</ele>
        <time>2026-08-10T09:49:57.000Z</time>
      </trkpt>
      <trkpt lat="45.8002" lon="1.1241">
        <ele>200.5</ele>
        <time>2026-08-10T09:50:06.000Z</time>
      </trkpt>
      <trkpt lat="45.80026" lon="1.12376">
        <ele>201.1</ele>
        <time>2026-08-10T09:50:14.000Z</time>
      </trkpt>
      <trkpt lat="45.80026" lon="1.12376">
        <ele>201.1</ele>
        <time>2026-08-10T09:50:16.000Z</time>
      </trkpt>
      <trkpt lat="45.80027" lon="1.12387">
        <ele>201</ele>
        <time>2026-08-10T09:50:27.000Z</time>
      </trkpt>
      <trkpt lat="45.80028" lon="1.12387">
        <ele>201</ele>
        <time>2026-08-10T09:50:28.000Z</time>
      </trkpt>
      <trkpt lat="45.80029" lon="1.12383">
        <ele>200.9</ele>
        <time>2026-08-10T09:50:33.000Z</time>
      </trkpt>
      <trkpt lat="45.80031" lon="1.12382">
        <ele>200.7</ele>
        <time>2026-08-10T09:50:37.000Z</time>
      </trkpt>
      <trkpt lat="45.80032" lon="1.12383">
        <ele>200.6</ele>
        <time>2026-08-10T09:50:38.000Z</time>
      </trkpt>
      <trkpt lat="45.80036" lon="1.1238">
        <ele>200.4</ele>
        <time>2026-08-10T09:50:42.000Z</time>
      </trkpt>
      <trkpt lat="45.8005" lon="1.12365">
        <ele>200.7</ele>
        <time>2026-08-10T09:50:51.000Z</time>
      </trkpt>
      <trkpt lat="45.80064" lon="1.12347">
        <ele>200.2</ele>
        <time>2026-08-10T09:50:59.000Z</time>
      </trkpt>
      <trkpt lat="45.80077" lon="1.12327">
        <ele>200.5</ele>
        <time>2026-08-10T09:51:07.000Z</time>
      </trkpt>
      <trkpt lat="45.801" lon="1.12303">
        <ele>199.8</ele>
        <time>2026-08-10T09:51:17.000Z</time>
      </trkpt>
      <trkpt lat="45.80125" lon="1.12281">
        <ele>199.3</ele>
        <time>2026-08-10T09:51:27.000Z</time>
      </trkpt>
      <trkpt lat="45.80144" lon="1.12252">
        <ele>199.6</ele>
        <time>2026-08-10T09:51:36.000Z</time>
      </trkpt>
      <trkpt lat="45.80153" lon="1.12231">
        <ele>200</ele>
        <time>2026-08-10T09:51:42.000Z</time>
      </trkpt>
      <trkpt lat="45.80169" lon="1.12201">
        <ele>200.7</ele>
        <time>2026-08-10T09:51:51.000Z</time>
      </trkpt>
      <trkpt lat="45.80189" lon="1.12184">
        <ele>201.1</ele>
        <time>2026-08-10T09:51:59.000Z</time>
      </trkpt>
      <trkpt lat="45.80209" lon="1.12176">
        <ele>201.1</ele>
        <time>2026-08-10T09:52:06.000Z</time>
      </trkpt>
      <trkpt lat="45.80234" lon="1.12173">
        <ele>200.9</ele>
        <time>2026-08-10T09:52:14.000Z</time>
      </trkpt>
      <trkpt lat="45.80265" lon="1.12175">
        <ele>199.6</ele>
        <time>2026-08-10T09:52:22.000Z</time>
      </trkpt>
      <trkpt lat="45.80306" lon="1.12166">
        <ele>199.2</ele>
        <time>2026-08-10T09:52:31.000Z</time>
      </trkpt>
      <trkpt lat="45.80317" lon="1.12159">
        <ele>199.6</ele>
        <time>2026-08-10T09:52:34.000Z</time>
      </trkpt>
      <trkpt lat="45.80325" lon="1.1215">
        <ele>200.1</ele>
        <time>2026-08-10T09:52:36.000Z</time>
      </trkpt>
      <trkpt lat="45.8034" lon="1.12127">
        <ele>200.8</ele>
        <time>2026-08-10T09:52:41.000Z</time>
      </trkpt>
      <trkpt lat="45.80345" lon="1.12122">
        <ele>200.9</ele>
        <time>2026-08-10T09:52:43.000Z</time>
      </trkpt>
      <trkpt lat="45.80357" lon="1.12108">
        <ele>200.8</ele>
        <time>2026-08-10T09:52:48.000Z</time>
      </trkpt>
      <trkpt lat="45.80371" lon="1.12092">
        <ele>201.4</ele>
        <time>2026-08-10T09:52:54.000Z</time>
      </trkpt>
      <trkpt lat="45.8039" lon="1.12076">
        <ele>200.5</ele>
        <time>2026-08-10T09:53:01.000Z</time>
      </trkpt>
      <trkpt lat="45.80401" lon="1.12068">
        <ele>200.6</ele>
        <time>2026-08-10T09:53:04.000Z</time>
      </trkpt>
      <trkpt lat="45.80413" lon="1.12059">
        <ele>200.2</ele>
        <time>2026-08-10T09:53:07.000Z</time>
      </trkpt>
      <trkpt lat="45.80441" lon="1.12044">
        <ele>200.1</ele>
        <time>2026-08-10T09:53:14.000Z</time>
      </trkpt>
      <trkpt lat="45.80467" lon="1.12039">
        <ele>199.7</ele>
        <time>2026-08-10T09:53:20.000Z</time>
      </trkpt>
      <trkpt lat="45.8047" lon="1.12038">
        <ele>199.6</ele>
        <time>2026-08-10T09:53:21.000Z</time>
      </trkpt>
      <trkpt lat="45.80478" lon="1.12033">
        <ele>199.6</ele>
        <time>2026-08-10T09:53:23.000Z</time>
      </trkpt>
      <trkpt lat="45.8048" lon="1.12029">
        <ele>199.6</ele>
        <time>2026-08-10T09:53:24.000Z</time>
      </trkpt>
      <trkpt lat="45.80506" lon="1.11987">
        <ele>199.3</ele>
        <time>2026-08-10T09:53:33.000Z</time>
      </trkpt>
      <trkpt lat="45.8051" lon="1.11983">
        <ele>199.2</ele>
        <time>2026-08-10T09:53:34.000Z</time>
      </trkpt>
      <trkpt lat="45.80521" lon="1.11975">
        <ele>199.1</ele>
        <time>2026-08-10T09:53:37.000Z</time>
      </trkpt>
      <trkpt lat="45.8053" lon="1.11972">
        <ele>198.9</ele>
        <time>2026-08-10T09:53:39.000Z</time>
      </trkpt>
      <trkpt lat="45.80534" lon="1.11969">
        <ele>198.9</ele>
        <time>2026-08-10T09:53:40.000Z</time>
      </trkpt>
      <trkpt lat="45.8054" lon="1.11963">
        <ele>198.9</ele>
        <time>2026-08-10T09:53:42.000Z</time>
      </trkpt>
      <trkpt lat="45.80544" lon="1.11957">
        <ele>198.9</ele>
        <time>2026-08-10T09:53:43.000Z</time>
      </trkpt>
      <trkpt lat="45.80549" lon="1.11949">
        <ele>199.1</ele>
        <time>2026-08-10T09:53:45.000Z</time>
      </trkpt>
      <trkpt lat="45.8056" lon="1.11929">
        <ele>199.4</ele>
        <time>2026-08-10T09:53:49.000Z</time>
      </trkpt>
      <trkpt lat="45.80564" lon="1.11923">
        <ele>199.5</ele>
        <time>2026-08-10T09:53:50.000Z</time>
      </trkpt>
      <trkpt lat="45.80571" lon="1.11916">
        <ele>199.6</ele>
        <time>2026-08-10T09:53:52.000Z</time>
      </trkpt>
      <trkpt lat="45.80578" lon="1.1191">
        <ele>199.8</ele>
        <time>2026-08-10T09:53:54.000Z</time>
      </trkpt>
      <trkpt lat="45.80586" lon="1.11905">
        <ele>199.7</ele>
        <time>2026-08-10T09:53:56.000Z</time>
      </trkpt>
      <trkpt lat="45.80603" lon="1.119">
        <ele>199.1</ele>
        <time>2026-08-10T09:54:00.000Z</time>
      </trkpt>
      <trkpt lat="45.80626" lon="1.11888">
        <ele>198.5</ele>
        <time>2026-08-10T09:54:06.000Z</time>
      </trkpt>
      <trkpt lat="45.80633" lon="1.11884">
        <ele>198.5</ele>
        <time>2026-08-10T09:54:08.000Z</time>
      </trkpt>
      <trkpt lat="45.8064" lon="1.11873">
        <ele>198.5</ele>
        <time>2026-08-10T09:54:11.000Z</time>
      </trkpt>
      <trkpt lat="45.80641" lon="1.11868">
        <ele>198.7</ele>
        <time>2026-08-10T09:54:12.000Z</time>
      </trkpt>
      <trkpt lat="45.80637" lon="1.11847">
        <ele>199.7</ele>
        <time>2026-08-10T09:54:16.000Z</time>
      </trkpt>
      <trkpt lat="45.80634" lon="1.11842">
        <ele>200.3</ele>
        <time>2026-08-10T09:54:17.000Z</time>
      </trkpt>
      <trkpt lat="45.80628" lon="1.1184">
        <ele>201.1</ele>
        <time>2026-08-10T09:54:19.000Z</time>
      </trkpt>
      <trkpt lat="45.8062" lon="1.1184">
        <ele>202.1</ele>
        <time>2026-08-10T09:54:23.000Z</time>
      </trkpt>
      <trkpt lat="45.80619" lon="1.11841">
        <ele>202.2</ele>
        <time>2026-08-10T09:54:25.000Z</time>
      </trkpt>
      <trkpt lat="45.80618" lon="1.1184">
        <ele>202.5</ele>
        <time>2026-08-10T09:54:27.000Z</time>
      </trkpt>
      <trkpt lat="45.80618" lon="1.11836">
        <ele>202.7</ele>
        <time>2026-08-10T09:54:29.000Z</time>
      </trkpt>
      <trkpt lat="45.80621" lon="1.11834">
        <ele>202.5</ele>
        <time>2026-08-10T09:54:31.000Z</time>
      </trkpt>
      <trkpt lat="45.80631" lon="1.11824">
        <ele>201.9</ele>
        <time>2026-08-10T09:54:35.000Z</time>
      </trkpt>
      <trkpt lat="45.8065" lon="1.11802">
        <ele>200.3</ele>
        <time>2026-08-10T09:54:42.000Z</time>
      </trkpt>
      <trkpt lat="45.80678" lon="1.11773">
        <ele>201.4</ele>
        <time>2026-08-10T09:54:51.000Z</time>
      </trkpt>
      <trkpt lat="45.80705" lon="1.11743">
        <ele>202.9</ele>
        <time>2026-08-10T09:55:00.000Z</time>
      </trkpt>
      <trkpt lat="45.80712" lon="1.11733">
        <ele>203.3</ele>
        <time>2026-08-10T09:55:03.000Z</time>
      </trkpt>
      <trkpt lat="45.80746" lon="1.11703">
        <ele>203.6</ele>
        <time>2026-08-10T09:55:12.000Z</time>
      </trkpt>
      <trkpt lat="45.80764" lon="1.11688">
        <ele>204.8</ele>
        <time>2026-08-10T09:55:17.000Z</time>
      </trkpt>
      <trkpt lat="45.80775" lon="1.11679">
        <ele>204.9</ele>
        <time>2026-08-10T09:55:20.000Z</time>
      </trkpt>
      <trkpt lat="45.80809" lon="1.11641">
        <ele>204.8</ele>
        <time>2026-08-10T09:55:30.000Z</time>
      </trkpt>
      <trkpt lat="45.80827" lon="1.11622">
        <ele>205.1</ele>
        <time>2026-08-10T09:55:35.000Z</time>
      </trkpt>
      <trkpt lat="45.80839" lon="1.11611">
        <ele>204.6</ele>
        <time>2026-08-10T09:55:38.000Z</time>
      </trkpt>
      <trkpt lat="45.80877" lon="1.11584">
        <ele>202.9</ele>
        <time>2026-08-10T09:55:46.000Z</time>
      </trkpt>
      <trkpt lat="45.80883" lon="1.1158">
        <ele>202.7</ele>
        <time>2026-08-10T09:55:47.000Z</time>
      </trkpt>
      <trkpt lat="45.80916" lon="1.11562">
        <ele>202.6</ele>
        <time>2026-08-10T09:55:53.000Z</time>
      </trkpt>
      <trkpt lat="45.80926" lon="1.11557">
        <ele>202.6</ele>
        <time>2026-08-10T09:55:55.000Z</time>
      </trkpt>
      <trkpt lat="45.80932" lon="1.11553">
        <ele>202.7</ele>
        <time>2026-08-10T09:55:56.000Z</time>
      </trkpt>
      <trkpt lat="45.80952" lon="1.11544">
        <ele>202.7</ele>
        <time>2026-08-10T09:56:00.000Z</time>
      </trkpt>
      <trkpt lat="45.81" lon="1.11513">
        <ele>203.1</ele>
        <time>2026-08-10T09:56:10.000Z</time>
      </trkpt>
      <trkpt lat="45.8104" lon="1.11482">
        <ele>201.8</ele>
        <time>2026-08-10T09:56:18.000Z</time>
      </trkpt>
      <trkpt lat="45.81052" lon="1.11473">
        <ele>200.5</ele>
        <time>2026-08-10T09:56:20.000Z</time>
      </trkpt>
      <trkpt lat="45.81088" lon="1.1145">
        <ele>198.9</ele>
        <time>2026-08-10T09:56:26.000Z</time>
      </trkpt>
      <trkpt lat="45.81099" lon="1.11446">
        <ele>199.5</ele>
        <time>2026-08-10T09:56:28.000Z</time>
      </trkpt>
      <trkpt lat="45.81117" lon="1.11437">
        <ele>201.2</ele>
        <time>2026-08-10T09:56:32.000Z</time>
      </trkpt>
      <trkpt lat="45.81129" lon="1.11432">
        <ele>202.6</ele>
        <time>2026-08-10T09:56:37.000Z</time>
      </trkpt>
      <trkpt lat="45.8114" lon="1.11429">
        <ele>203.8</ele>
        <time>2026-08-10T09:56:43.000Z</time>
      </trkpt>
      <trkpt lat="45.81142" lon="1.11428">
        <ele>203.9</ele>
        <time>2026-08-10T09:56:44.000Z</time>
      </trkpt>
      <trkpt lat="45.81158" lon="1.11425">
        <ele>205.2</ele>
        <time>2026-08-10T09:56:53.000Z</time>
      </trkpt>
      <trkpt lat="45.81169" lon="1.11423">
        <ele>206.2</ele>
        <time>2026-08-10T09:57:01.000Z</time>
      </trkpt>
      <trkpt lat="45.81172" lon="1.11423">
        <ele>206.3</ele>
        <time>2026-08-10T09:57:03.000Z</time>
      </trkpt>
      <trkpt lat="45.81178" lon="1.11424">
        <ele>206.5</ele>
        <time>2026-08-10T09:57:08.000Z</time>
      </trkpt>
      <trkpt lat="45.8118" lon="1.11424">
        <ele>206.6</ele>
        <time>2026-08-10T09:57:09.000Z</time>
      </trkpt>
      <trkpt lat="45.81186" lon="1.11423">
        <ele>207</ele>
        <time>2026-08-10T09:57:14.000Z</time>
      </trkpt>
      <trkpt lat="45.8119" lon="1.11423">
        <ele>207.2</ele>
        <time>2026-08-10T09:57:16.000Z</time>
      </trkpt>
      <trkpt lat="45.812" lon="1.11423">
        <ele>208</ele>
        <time>2026-08-10T09:57:24.000Z</time>
      </trkpt>
      <trkpt lat="45.81201" lon="1.11423">
        <ele>208</ele>
        <time>2026-08-10T09:57:25.000Z</time>
      </trkpt>
      <trkpt lat="45.81212" lon="1.11422">
        <ele>209.3</ele>
        <time>2026-08-10T09:57:33.000Z</time>
      </trkpt>
      <trkpt lat="45.81213" lon="1.11421">
        <ele>209.5</ele>
        <time>2026-08-10T09:57:34.000Z</time>
      </trkpt>
      <trkpt lat="45.8122" lon="1.1142">
        <ele>210.6</ele>
        <time>2026-08-10T09:57:39.000Z</time>
      </trkpt>
      <trkpt lat="45.81222" lon="1.1142">
        <ele>210.8</ele>
        <time>2026-08-10T09:57:40.000Z</time>
      </trkpt>
      <trkpt lat="45.81235" lon="1.1142">
        <ele>212.3</ele>
        <time>2026-08-10T09:57:48.000Z</time>
      </trkpt>
      <trkpt lat="45.81237" lon="1.11421">
        <ele>212.2</ele>
        <time>2026-08-10T09:57:50.000Z</time>
      </trkpt>
      <trkpt lat="45.81246" lon="1.11421">
        <ele>213.1</ele>
        <time>2026-08-10T09:57:56.000Z</time>
      </trkpt>
      <trkpt lat="45.81248" lon="1.11421">
        <ele>213.2</ele>
        <time>2026-08-10T09:57:57.000Z</time>
      </trkpt>
      <trkpt lat="45.81254" lon="1.11422">
        <ele>213.9</ele>
        <time>2026-08-10T09:58:02.000Z</time>
      </trkpt>
      <trkpt lat="45.81257" lon="1.11423">
        <ele>213.9</ele>
        <time>2026-08-10T09:58:04.000Z</time>
      </trkpt>
      <trkpt lat="45.81264" lon="1.11424">
        <ele>214.4</ele>
        <time>2026-08-10T09:58:09.000Z</time>
      </trkpt>
      <trkpt lat="45.81267" lon="1.11426">
        <ele>214.3</ele>
        <time>2026-08-10T09:58:11.000Z</time>
      </trkpt>
      <trkpt lat="45.8127" lon="1.11427">
        <ele>214.4</ele>
        <time>2026-08-10T09:58:12.000Z</time>
      </trkpt>
      <trkpt lat="45.81284" lon="1.11434">
        <ele>215.2</ele>
        <time>2026-08-10T09:58:20.000Z</time>
      </trkpt>
      <trkpt lat="45.81301" lon="1.11441">
        <ele>216.6</ele>
        <time>2026-08-10T09:58:28.000Z</time>
      </trkpt>
      <trkpt lat="45.81303" lon="1.11443">
        <ele>216.8</ele>
        <time>2026-08-10T09:58:29.000Z</time>
      </trkpt>
      <trkpt lat="45.81323" lon="1.11452">
        <ele>216.6</ele>
        <time>2026-08-10T09:58:37.000Z</time>
      </trkpt>
      <trkpt lat="45.81344" lon="1.11463">
        <ele>217.6</ele>
        <time>2026-08-10T09:58:47.000Z</time>
      </trkpt>
      <trkpt lat="45.8136" lon="1.11472">
        <ele>218</ele>
        <time>2026-08-10T09:58:53.000Z</time>
      </trkpt>
      <trkpt lat="45.81369" lon="1.11477">
        <ele>218.1</ele>
        <time>2026-08-10T09:58:56.000Z</time>
      </trkpt>
      <trkpt lat="45.81385" lon="1.11485">
        <ele>218.7</ele>
        <time>2026-08-10T09:59:01.000Z</time>
      </trkpt>
      <trkpt lat="45.81413" lon="1.11501">
        <ele>217.9</ele>
        <time>2026-08-10T09:59:09.000Z</time>
      </trkpt>
      <trkpt lat="45.81425" lon="1.11507">
        <ele>217.7</ele>
        <time>2026-08-10T09:59:12.000Z</time>
      </trkpt>
      <trkpt lat="45.81438" lon="1.11513">
        <ele>218.1</ele>
        <time>2026-08-10T09:59:15.000Z</time>
      </trkpt>
      <trkpt lat="45.81465" lon="1.11528">
        <ele>219.5</ele>
        <time>2026-08-10T09:59:22.000Z</time>
      </trkpt>
      <trkpt lat="45.81479" lon="1.11537">
        <ele>220.3</ele>
        <time>2026-08-10T09:59:27.000Z</time>
      </trkpt>
      <trkpt lat="45.81481" lon="1.11538">
        <ele>220.5</ele>
        <time>2026-08-10T09:59:28.000Z</time>
      </trkpt>
      <trkpt lat="45.81492" lon="1.11545">
        <ele>221</ele>
        <time>2026-08-10T09:59:32.000Z</time>
      </trkpt>
      <trkpt lat="45.81503" lon="1.11552">
        <ele>221.5</ele>
        <time>2026-08-10T09:59:36.000Z</time>
      </trkpt>
      <trkpt lat="45.81525" lon="1.11563">
        <ele>222</ele>
        <time>2026-08-10T09:59:44.000Z</time>
      </trkpt>
      <trkpt lat="45.8153" lon="1.11566">
        <ele>221.9</ele>
        <time>2026-08-10T09:59:46.000Z</time>
      </trkpt>
      <trkpt lat="45.81541" lon="1.11568">
        <ele>221.6</ele>
        <time>2026-08-10T09:59:50.000Z</time>
      </trkpt>
      <trkpt lat="45.81553" lon="1.11567">
        <ele>221.8</ele>
        <time>2026-08-10T09:59:54.000Z</time>
      </trkpt>
      <trkpt lat="45.81573" lon="1.11562">
        <ele>222.3</ele>
        <time>2026-08-10T10:00:01.000Z</time>
      </trkpt>
      <trkpt lat="45.81595" lon="1.11546">
        <ele>222.9</ele>
        <time>2026-08-10T10:00:08.000Z</time>
      </trkpt>
      <trkpt lat="45.81598" lon="1.11543">
        <ele>222.9</ele>
        <time>2026-08-10T10:00:09.000Z</time>
      </trkpt>
      <trkpt lat="45.81601" lon="1.1154">
        <ele>222.9</ele>
        <time>2026-08-10T10:00:10.000Z</time>
      </trkpt>
      <trkpt lat="45.81608" lon="1.1153">
        <ele>223</ele>
        <time>2026-08-10T10:00:13.000Z</time>
      </trkpt>
      <trkpt lat="45.81619" lon="1.11501">
        <ele>223.1</ele>
        <time>2026-08-10T10:00:19.000Z</time>
      </trkpt>
      <trkpt lat="45.81619" lon="1.11477">
        <ele>224.2</ele>
        <time>2026-08-10T10:00:24.000Z</time>
      </trkpt>
      <trkpt lat="45.8162" lon="1.11432">
        <ele>222.6</ele>
        <time>2026-08-10T10:00:31.000Z</time>
      </trkpt>
      <trkpt lat="45.81623" lon="1.11418">
        <ele>221.5</ele>
        <time>2026-08-10T10:00:33.000Z</time>
      </trkpt>
      <trkpt lat="45.81627" lon="1.11405">
        <ele>221.3</ele>
        <time>2026-08-10T10:00:35.000Z</time>
      </trkpt>
      <trkpt lat="45.81632" lon="1.11396">
        <ele>221.5</ele>
        <time>2026-08-10T10:00:36.000Z</time>
      </trkpt>
      <trkpt lat="45.81637" lon="1.1139">
        <ele>221.9</ele>
        <time>2026-08-10T10:00:37.000Z</time>
      </trkpt>
      <trkpt lat="45.81646" lon="1.11381">
        <ele>221.9</ele>
        <time>2026-08-10T10:00:39.000Z</time>
      </trkpt>
      <trkpt lat="45.81652" lon="1.11376">
        <ele>222</ele>
        <time>2026-08-10T10:00:40.000Z</time>
      </trkpt>
      <trkpt lat="45.81669" lon="1.11368">
        <ele>222.5</ele>
        <time>2026-08-10T10:00:43.000Z</time>
      </trkpt>
      <trkpt lat="45.8168" lon="1.11366">
        <ele>222.7</ele>
        <time>2026-08-10T10:00:45.000Z</time>
      </trkpt>
      <trkpt lat="45.8171" lon="1.11365">
        <ele>223.4</ele>
        <time>2026-08-10T10:00:51.000Z</time>
      </trkpt>
      <trkpt lat="45.81745" lon="1.11363">
        <ele>223.9</ele>
        <time>2026-08-10T10:00:59.000Z</time>
      </trkpt>
      <trkpt lat="45.81778" lon="1.11361">
        <ele>224</ele>
        <time>2026-08-10T10:01:07.000Z</time>
      </trkpt>
      <trkpt lat="45.81782" lon="1.11361">
        <ele>224</ele>
        <time>2026-08-10T10:01:08.000Z</time>
      </trkpt>
      <trkpt lat="45.81795" lon="1.1136">
        <ele>224.1</ele>
        <time>2026-08-10T10:01:11.000Z</time>
      </trkpt>
      <trkpt lat="45.81821" lon="1.11356">
        <ele>224.2</ele>
        <time>2026-08-10T10:01:17.000Z</time>
      </trkpt>
      <trkpt lat="45.81855" lon="1.11342">
        <ele>223.7</ele>
        <time>2026-08-10T10:01:25.000Z</time>
      </trkpt>
      <trkpt lat="45.81877" lon="1.11328">
        <ele>223.3</ele>
        <time>2026-08-10T10:01:30.000Z</time>
      </trkpt>
      <trkpt lat="45.8189" lon="1.11322">
        <ele>222.8</ele>
        <time>2026-08-10T10:01:33.000Z</time>
      </trkpt>
      <trkpt lat="45.81898" lon="1.11317">
        <ele>222.9</ele>
        <time>2026-08-10T10:01:35.000Z</time>
      </trkpt>
      <trkpt lat="45.81906" lon="1.11311">
        <ele>223</ele>
        <time>2026-08-10T10:01:37.000Z</time>
      </trkpt>
      <trkpt lat="45.81913" lon="1.11307">
        <ele>223</ele>
        <time>2026-08-10T10:01:39.000Z</time>
      </trkpt>
      <trkpt lat="45.81945" lon="1.11288">
        <ele>222.3</ele>
        <time>2026-08-10T10:01:47.000Z</time>
      </trkpt>
      <trkpt lat="45.81978" lon="1.11267">
        <ele>222.5</ele>
        <time>2026-08-10T10:01:56.000Z</time>
      </trkpt>
      <trkpt lat="45.81997" lon="1.11255">
        <ele>223.6</ele>
        <time>2026-08-10T10:02:02.000Z</time>
      </trkpt>
      <trkpt lat="45.82028" lon="1.11236">
        <ele>224.5</ele>
        <time>2026-08-10T10:02:12.000Z</time>
      </trkpt>
      <trkpt lat="45.82049" lon="1.11224">
        <ele>224.9</ele>
        <time>2026-08-10T10:02:19.000Z</time>
      </trkpt>
      <trkpt lat="45.82058" lon="1.11218">
        <ele>225.3</ele>
        <time>2026-08-10T10:02:22.000Z</time>
      </trkpt>
      <trkpt lat="45.82083" lon="1.11202">
        <ele>226.2</ele>
        <time>2026-08-10T10:02:30.000Z</time>
      </trkpt>
      <trkpt lat="45.82112" lon="1.11185">
        <ele>226.6</ele>
        <time>2026-08-10T10:02:39.000Z</time>
      </trkpt>
      <trkpt lat="45.82132" lon="1.11172">
        <ele>226.7</ele>
        <time>2026-08-10T10:02:46.000Z</time>
      </trkpt>
      <trkpt lat="45.82147" lon="1.11163">
        <ele>226.7</ele>
        <time>2026-08-10T10:02:51.000Z</time>
      </trkpt>
      <trkpt lat="45.8215" lon="1.11162">
        <ele>226.6</ele>
        <time>2026-08-10T10:02:52.000Z</time>
      </trkpt>
      <trkpt lat="45.82165" lon="1.11153">
        <ele>226.5</ele>
        <time>2026-08-10T10:02:58.000Z</time>
      </trkpt>
      <trkpt lat="45.82183" lon="1.11142">
        <ele>226.4</ele>
        <time>2026-08-10T10:03:04.000Z</time>
      </trkpt>
      <trkpt lat="45.82193" lon="1.11135">
        <ele>226.6</ele>
        <time>2026-08-10T10:03:07.000Z</time>
      </trkpt>
      <trkpt lat="45.82222" lon="1.11116">
        <ele>228.1</ele>
        <time>2026-08-10T10:03:16.000Z</time>
      </trkpt>
      <trkpt lat="45.82234" lon="1.11108">
        <ele>228.4</ele>
        <time>2026-08-10T10:03:20.000Z</time>
      </trkpt>
      <trkpt lat="45.82252" lon="1.11099">
        <ele>228.6</ele>
        <time>2026-08-10T10:03:26.000Z</time>
      </trkpt>
      <trkpt lat="45.82265" lon="1.11091">
        <ele>229.9</ele>
        <time>2026-08-10T10:03:30.000Z</time>
      </trkpt>
      <trkpt lat="45.82278" lon="1.11085">
        <ele>230.7</ele>
        <time>2026-08-10T10:03:34.000Z</time>
      </trkpt>
      <trkpt lat="45.82288" lon="1.1108">
        <ele>231.3</ele>
        <time>2026-08-10T10:03:37.000Z</time>
      </trkpt>
      <trkpt lat="45.82297" lon="1.11076">
        <ele>231.8</ele>
        <time>2026-08-10T10:03:40.000Z</time>
      </trkpt>
      <trkpt lat="45.82314" lon="1.11069">
        <ele>232.4</ele>
        <time>2026-08-10T10:03:46.000Z</time>
      </trkpt>
      <trkpt lat="45.8232" lon="1.11067">
        <ele>232.6</ele>
        <time>2026-08-10T10:03:48.000Z</time>
      </trkpt>
      <trkpt lat="45.82343" lon="1.11058">
        <ele>233.6</ele>
        <time>2026-08-10T10:03:56.000Z</time>
      </trkpt>
      <trkpt lat="45.82368" lon="1.11049">
        <ele>234.2</ele>
        <time>2026-08-10T10:04:05.000Z</time>
      </trkpt>
      <trkpt lat="45.82396" lon="1.11036">
        <ele>232.9</ele>
        <time>2026-08-10T10:04:13.000Z</time>
      </trkpt>
      <trkpt lat="45.82416" lon="1.11031">
        <ele>231.6</ele>
        <time>2026-08-10T10:04:17.000Z</time>
      </trkpt>
      <trkpt lat="45.82427" lon="1.11031">
        <ele>231.6</ele>
        <time>2026-08-10T10:04:19.000Z</time>
      </trkpt>
      <trkpt lat="45.82457" lon="1.11041">
        <ele>230.7</ele>
        <time>2026-08-10T10:04:24.000Z</time>
      </trkpt>
      <trkpt lat="45.82474" lon="1.11053">
        <ele>230.3</ele>
        <time>2026-08-10T10:04:27.000Z</time>
      </trkpt>
      <trkpt lat="45.82493" lon="1.11067">
        <ele>228.9</ele>
        <time>2026-08-10T10:04:30.000Z</time>
      </trkpt>
      <trkpt lat="45.82524" lon="1.1109">
        <ele>227.2</ele>
        <time>2026-08-10T10:04:35.000Z</time>
      </trkpt>
      <trkpt lat="45.82536" lon="1.11099">
        <ele>227.7</ele>
        <time>2026-08-10T10:04:37.000Z</time>
      </trkpt>
      <trkpt lat="45.82561" lon="1.11119">
        <ele>229.9</ele>
        <time>2026-08-10T10:04:42.000Z</time>
      </trkpt>
      <trkpt lat="45.82589" lon="1.11139">
        <ele>230.5</ele>
        <time>2026-08-10T10:04:48.000Z</time>
      </trkpt>
      <trkpt lat="45.82603" lon="1.1115">
        <ele>231.4</ele>
        <time>2026-08-10T10:04:52.000Z</time>
      </trkpt>
      <trkpt lat="45.82613" lon="1.11159">
        <ele>231.7</ele>
        <time>2026-08-10T10:04:55.000Z</time>
      </trkpt>
      <trkpt lat="45.82642" lon="1.11181">
        <ele>232.2</ele>
        <time>2026-08-10T10:05:04.000Z</time>
      </trkpt>
      <trkpt lat="45.82668" lon="1.11199">
        <ele>232.7</ele>
        <time>2026-08-10T10:05:12.000Z</time>
      </trkpt>
      <trkpt lat="45.82671" lon="1.11201">
        <ele>232.7</ele>
        <time>2026-08-10T10:05:13.000Z</time>
      </trkpt>
      <trkpt lat="45.82696" lon="1.11211">
        <ele>232.9</ele>
        <time>2026-08-10T10:05:19.000Z</time>
      </trkpt>
      <trkpt lat="45.82716" lon="1.11215">
        <ele>233.4</ele>
        <time>2026-08-10T10:05:24.000Z</time>
      </trkpt>
      <trkpt lat="45.82723" lon="1.11218">
        <ele>233.5</ele>
        <time>2026-08-10T10:05:26.000Z</time>
      </trkpt>
      <trkpt lat="45.82734" lon="1.11221">
        <ele>233.6</ele>
        <time>2026-08-10T10:05:29.000Z</time>
      </trkpt>
      <trkpt lat="45.82756" lon="1.11225">
        <ele>234.3</ele>
        <time>2026-08-10T10:05:35.000Z</time>
      </trkpt>
      <trkpt lat="45.82781" lon="1.11232">
        <ele>235.7</ele>
        <time>2026-08-10T10:05:42.000Z</time>
      </trkpt>
      <trkpt lat="45.82784" lon="1.11233">
        <ele>235.7</ele>
        <time>2026-08-10T10:05:43.000Z</time>
      </trkpt>
      <trkpt lat="45.82806" lon="1.11238">
        <ele>235.9</ele>
        <time>2026-08-10T10:05:49.000Z</time>
      </trkpt>
      <trkpt lat="45.82814" lon="1.1124">
        <ele>236</ele>
        <time>2026-08-10T10:05:51.000Z</time>
      </trkpt>
      <trkpt lat="45.82821" lon="1.11242">
        <ele>236.1</ele>
        <time>2026-08-10T10:05:53.000Z</time>
      </trkpt>
      <trkpt lat="45.82853" lon="1.11251">
        <ele>236.6</ele>
        <time>2026-08-10T10:06:02.000Z</time>
      </trkpt>
      <trkpt lat="45.82885" lon="1.11259">
        <ele>237.2</ele>
        <time>2026-08-10T10:06:11.000Z</time>
      </trkpt>
      <trkpt lat="45.82892" lon="1.11261">
        <ele>237.2</ele>
        <time>2026-08-10T10:06:13.000Z</time>
      </trkpt>
      <trkpt lat="45.82916" lon="1.11264">
        <ele>237</ele>
        <time>2026-08-10T10:06:19.000Z</time>
      </trkpt>
      <trkpt lat="45.82929" lon="1.11264">
        <ele>236.6</ele>
        <time>2026-08-10T10:06:22.000Z</time>
      </trkpt>
      <trkpt lat="45.82947" lon="1.11257">
        <ele>236.2</ele>
        <time>2026-08-10T10:06:26.000Z</time>
      </trkpt>
      <trkpt lat="45.82957" lon="1.11252">
        <ele>235.6</ele>
        <time>2026-08-10T10:06:28.000Z</time>
      </trkpt>
      <trkpt lat="45.82987" lon="1.11231">
        <ele>234.8</ele>
        <time>2026-08-10T10:06:34.000Z</time>
      </trkpt>
      <trkpt lat="45.83038" lon="1.11198">
        <ele>233.6</ele>
        <time>2026-08-10T10:06:43.000Z</time>
      </trkpt>
      <trkpt lat="45.83059" lon="1.11181">
        <ele>233.4</ele>
        <time>2026-08-10T10:06:47.000Z</time>
      </trkpt>
      <trkpt lat="45.83068" lon="1.11169">
        <ele>233.6</ele>
        <time>2026-08-10T10:06:49.000Z</time>
      </trkpt>
      <trkpt lat="45.83071" lon="1.11161">
        <ele>233.4</ele>
        <time>2026-08-10T10:06:50.000Z</time>
      </trkpt>
      <trkpt lat="45.83073" lon="1.11152">
        <ele>233.2</ele>
        <time>2026-08-10T10:06:51.000Z</time>
      </trkpt>
      <trkpt lat="45.83074" lon="1.11143">
        <ele>233.2</ele>
        <time>2026-08-10T10:06:52.000Z</time>
      </trkpt>
      <trkpt lat="45.83074" lon="1.11134">
        <ele>233.2</ele>
        <time>2026-08-10T10:06:53.000Z</time>
      </trkpt>
      <trkpt lat="45.83072" lon="1.11107">
        <ele>233.1</ele>
        <time>2026-08-10T10:06:56.000Z</time>
      </trkpt>
      <trkpt lat="45.83065" lon="1.11055">
        <ele>232.3</ele>
        <time>2026-08-10T10:07:02.000Z</time>
      </trkpt>
      <trkpt lat="45.83064" lon="1.11045">
        <ele>232.2</ele>
        <time>2026-08-10T10:07:03.000Z</time>
      </trkpt>
      <trkpt lat="45.83056" lon="1.10991">
        <ele>231.7</ele>
        <time>2026-08-10T10:07:10.000Z</time>
      </trkpt>
      <trkpt lat="45.83055" lon="1.10984">
        <ele>231.5</ele>
        <time>2026-08-10T10:07:11.000Z</time>
      </trkpt>
      <trkpt lat="45.83053" lon="1.1096">
        <ele>231.4</ele>
        <time>2026-08-10T10:07:14.000Z</time>
      </trkpt>
      <trkpt lat="45.83053" lon="1.10943">
        <ele>231.5</ele>
        <time>2026-08-10T10:07:16.000Z</time>
      </trkpt>
      <trkpt lat="45.83058" lon="1.1091">
        <ele>231</ele>
        <time>2026-08-10T10:07:20.000Z</time>
      </trkpt>
      <trkpt lat="45.83062" lon="1.10892">
        <ele>231</ele>
        <time>2026-08-10T10:07:22.000Z</time>
      </trkpt>
      <trkpt lat="45.83068" lon="1.10865">
        <ele>229.9</ele>
        <time>2026-08-10T10:07:25.000Z</time>
      </trkpt>
      <trkpt lat="45.83074" lon="1.10826">
        <ele>228.2</ele>
        <time>2026-08-10T10:07:29.000Z</time>
      </trkpt>
      <trkpt lat="45.83075" lon="1.10814">
        <ele>227.8</ele>
        <time>2026-08-10T10:07:30.000Z</time>
      </trkpt>
      <trkpt lat="45.83075" lon="1.10783">
        <ele>227</ele>
        <time>2026-08-10T10:07:33.000Z</time>
      </trkpt>
      <trkpt lat="45.83074" lon="1.10762">
        <ele>226.3</ele>
        <time>2026-08-10T10:07:35.000Z</time>
      </trkpt>
      <trkpt lat="45.83073" lon="1.10751">
        <ele>225.8</ele>
        <time>2026-08-10T10:07:36.000Z</time>
      </trkpt>
      <trkpt lat="45.83071" lon="1.10721">
        <ele>223.8</ele>
        <time>2026-08-10T10:07:39.000Z</time>
      </trkpt>
      <trkpt lat="45.83069" lon="1.10675">
        <ele>222.6</ele>
        <time>2026-08-10T10:07:43.000Z</time>
      </trkpt>
      <trkpt lat="45.83068" lon="1.10664">
        <ele>222.5</ele>
        <time>2026-08-10T10:07:44.000Z</time>
      </trkpt>
      <trkpt lat="45.83066" lon="1.1064">
        <ele>221.5</ele>
        <time>2026-08-10T10:07:46.000Z</time>
      </trkpt>
      <trkpt lat="45.83064" lon="1.10579">
        <ele>219.7</ele>
        <time>2026-08-10T10:07:51.000Z</time>
      </trkpt>
      <trkpt lat="45.83064" lon="1.10555">
        <ele>218.4</ele>
        <time>2026-08-10T10:07:53.000Z</time>
      </trkpt>
      <trkpt lat="45.83068" lon="1.10534">
        <ele>217</ele>
        <time>2026-08-10T10:07:55.000Z</time>
      </trkpt>
      <trkpt lat="45.83072" lon="1.1052">
        <ele>216.6</ele>
        <time>2026-08-10T10:07:56.000Z</time>
      </trkpt>
      <trkpt lat="45.83079" lon="1.10501">
        <ele>217.2</ele>
        <time>2026-08-10T10:07:58.000Z</time>
      </trkpt>
      <trkpt lat="45.83085" lon="1.1049">
        <ele>217.2</ele>
        <time>2026-08-10T10:07:59.000Z</time>
      </trkpt>
      <trkpt lat="45.831" lon="1.10468">
        <ele>217.7</ele>
        <time>2026-08-10T10:08:02.000Z</time>
      </trkpt>
      <trkpt lat="45.8311" lon="1.10453">
        <ele>217.8</ele>
        <time>2026-08-10T10:08:04.000Z</time>
      </trkpt>
      <trkpt lat="45.83131" lon="1.10409">
        <ele>218.7</ele>
        <time>2026-08-10T10:08:09.000Z</time>
      </trkpt>
      <trkpt lat="45.83138" lon="1.10378">
        <ele>217.4</ele>
        <time>2026-08-10T10:08:12.000Z</time>
      </trkpt>
      <trkpt lat="45.83143" lon="1.10345">
        <ele>215.6</ele>
        <time>2026-08-10T10:08:15.000Z</time>
      </trkpt>
      <trkpt lat="45.83147" lon="1.10322">
        <ele>214</ele>
        <time>2026-08-10T10:08:17.000Z</time>
      </trkpt>
      <trkpt lat="45.83159" lon="1.10267">
        <ele>212</ele>
        <time>2026-08-10T10:08:22.000Z</time>
      </trkpt>
      <trkpt lat="45.83168" lon="1.10244">
        <ele>213.4</ele>
        <time>2026-08-10T10:08:24.000Z</time>
      </trkpt>
      <trkpt lat="45.83182" lon="1.10217">
        <ele>215</ele>
        <time>2026-08-10T10:08:27.000Z</time>
      </trkpt>
      <trkpt lat="45.83187" lon="1.10209">
        <ele>214.5</ele>
        <time>2026-08-10T10:08:28.000Z</time>
      </trkpt>
      <trkpt lat="45.83217" lon="1.1016">
        <ele>212.1</ele>
        <time>2026-08-10T10:08:34.000Z</time>
      </trkpt>
      <trkpt lat="45.83223" lon="1.10149">
        <ele>211.3</ele>
        <time>2026-08-10T10:08:35.000Z</time>
      </trkpt>
      <trkpt lat="45.83249" lon="1.10105">
        <ele>209.3</ele>
        <time>2026-08-10T10:08:40.000Z</time>
      </trkpt>
      <trkpt lat="45.83262" lon="1.10086">
        <ele>208.1</ele>
        <time>2026-08-10T10:08:42.000Z</time>
      </trkpt>
      <trkpt lat="45.83268" lon="1.10079">
        <ele>207.8</ele>
        <time>2026-08-10T10:08:43.000Z</time>
      </trkpt>
      <trkpt lat="45.83275" lon="1.10071">
        <ele>207.3</ele>
        <time>2026-08-10T10:08:44.000Z</time>
      </trkpt>
      <trkpt lat="45.8329" lon="1.1006">
        <ele>206.2</ele>
        <time>2026-08-10T10:08:46.000Z</time>
      </trkpt>
      <trkpt lat="45.833" lon="1.10055">
        <ele>205.6</ele>
        <time>2026-08-10T10:08:47.000Z</time>
      </trkpt>
      <trkpt lat="45.83325" lon="1.10049">
        <ele>204.5</ele>
        <time>2026-08-10T10:08:50.000Z</time>
      </trkpt>
      <trkpt lat="45.83359" lon="1.10043">
        <ele>203.1</ele>
        <time>2026-08-10T10:08:54.000Z</time>
      </trkpt>
      <trkpt lat="45.83376" lon="1.10036">
        <ele>202.4</ele>
        <time>2026-08-10T10:08:56.000Z</time>
      </trkpt>
      <trkpt lat="45.83384" lon="1.10031">
        <ele>202.1</ele>
        <time>2026-08-10T10:08:57.000Z</time>
      </trkpt>
      <trkpt lat="45.83413" lon="1.10011">
        <ele>200.8</ele>
        <time>2026-08-10T10:09:01.000Z</time>
      </trkpt>
      <trkpt lat="45.8343" lon="1.09997">
        <ele>201</ele>
        <time>2026-08-10T10:09:03.000Z</time>
      </trkpt>
      <trkpt lat="45.83435" lon="1.09991">
        <ele>201</ele>
        <time>2026-08-10T10:09:04.000Z</time>
      </trkpt>
      <trkpt lat="45.83484" lon="1.09948">
        <ele>201.8</ele>
        <time>2026-08-10T10:09:11.000Z</time>
      </trkpt>
      <trkpt lat="45.83517" lon="1.0992">
        <ele>202.7</ele>
        <time>2026-08-10T10:09:17.000Z</time>
      </trkpt>
      <trkpt lat="45.83546" lon="1.09895">
        <ele>203.7</ele>
        <time>2026-08-10T10:09:23.000Z</time>
      </trkpt>
      <trkpt lat="45.83567" lon="1.09878">
        <ele>203.7</ele>
        <time>2026-08-10T10:09:28.000Z</time>
      </trkpt>
      <trkpt lat="45.83577" lon="1.0987">
        <ele>203.7</ele>
        <time>2026-08-10T10:09:30.000Z</time>
      </trkpt>
      <trkpt lat="45.83608" lon="1.09855">
        <ele>202.1</ele>
        <time>2026-08-10T10:09:36.000Z</time>
      </trkpt>
      <trkpt lat="45.83613" lon="1.09855">
        <ele>201.9</ele>
        <time>2026-08-10T10:09:37.000Z</time>
      </trkpt>
      <trkpt lat="45.83635" lon="1.09851">
        <ele>202.4</ele>
        <time>2026-08-10T10:09:42.000Z</time>
      </trkpt>
      <trkpt lat="45.83662" lon="1.09847">
        <ele>203</ele>
        <time>2026-08-10T10:09:48.000Z</time>
      </trkpt>
      <trkpt lat="45.83666" lon="1.09847">
        <ele>203</ele>
        <time>2026-08-10T10:09:49.000Z</time>
      </trkpt>
      <trkpt lat="45.83698" lon="1.09836">
        <ele>203.5</ele>
        <time>2026-08-10T10:09:55.000Z</time>
      </trkpt>
      <trkpt lat="45.83727" lon="1.09826">
        <ele>204</ele>
        <time>2026-08-10T10:10:00.000Z</time>
      </trkpt>
      <trkpt lat="45.83737" lon="1.09821">
        <ele>203.7</ele>
        <time>2026-08-10T10:10:02.000Z</time>
      </trkpt>
      <trkpt lat="45.83757" lon="1.09805">
        <ele>203.6</ele>
        <time>2026-08-10T10:10:05.000Z</time>
      </trkpt>
      <trkpt lat="45.83786" lon="1.09788">
        <ele>203</ele>
        <time>2026-08-10T10:10:10.000Z</time>
      </trkpt>
      <trkpt lat="45.83815" lon="1.09756">
        <ele>202.4</ele>
        <time>2026-08-10T10:10:15.000Z</time>
      </trkpt>
      <trkpt lat="45.83839" lon="1.09733">
        <ele>201.3</ele>
        <time>2026-08-10T10:10:19.000Z</time>
      </trkpt>
      <trkpt lat="45.83855" lon="1.09715">
        <ele>199.4</ele>
        <time>2026-08-10T10:10:21.000Z</time>
      </trkpt>
      <trkpt lat="45.83871" lon="1.09701">
        <ele>197.4</ele>
        <time>2026-08-10T10:10:23.000Z</time>
      </trkpt>
      <trkpt lat="45.83879" lon="1.09695">
        <ele>197.6</ele>
        <time>2026-08-10T10:10:24.000Z</time>
      </trkpt>
      <trkpt lat="45.83886" lon="1.09692">
        <ele>196.8</ele>
        <time>2026-08-10T10:10:25.000Z</time>
      </trkpt>
      <trkpt lat="45.83902" lon="1.09693">
        <ele>196.8</ele>
        <time>2026-08-10T10:10:27.000Z</time>
      </trkpt>
      <trkpt lat="45.83918" lon="1.09695">
        <ele>197</ele>
        <time>2026-08-10T10:10:29.000Z</time>
      </trkpt>
      <trkpt lat="45.83927" lon="1.09697">
        <ele>197.4</ele>
        <time>2026-08-10T10:10:30.000Z</time>
      </trkpt>
      <trkpt lat="45.83933" lon="1.09701">
        <ele>197.6</ele>
        <time>2026-08-10T10:10:31.000Z</time>
      </trkpt>
      <trkpt lat="45.83937" lon="1.09705">
        <ele>197.8</ele>
        <time>2026-08-10T10:10:32.000Z</time>
      </trkpt>
      <trkpt lat="45.83969" lon="1.09733">
        <ele>197.3</ele>
        <time>2026-08-10T10:10:38.000Z</time>
      </trkpt>
      <trkpt lat="45.84009" lon="1.09764">
        <ele>195</ele>
        <time>2026-08-10T10:10:45.000Z</time>
      </trkpt>
      <trkpt lat="45.84015" lon="1.09768">
        <ele>195</ele>
        <time>2026-08-10T10:10:46.000Z</time>
      </trkpt>
      <trkpt lat="45.8403" lon="1.09769">
        <ele>195.5</ele>
        <time>2026-08-10T10:10:48.000Z</time>
      </trkpt>
      <trkpt lat="45.84046" lon="1.09763">
        <ele>193</ele>
        <time>2026-08-10T10:10:50.000Z</time>
      </trkpt>
      <trkpt lat="45.84052" lon="1.09759">
        <ele>192.7</ele>
        <time>2026-08-10T10:10:51.000Z</time>
      </trkpt>
      <trkpt lat="45.84074" lon="1.09745">
        <ele>191.8</ele>
        <time>2026-08-10T10:10:54.000Z</time>
      </trkpt>
      <trkpt lat="45.84082" lon="1.0974">
        <ele>191.4</ele>
        <time>2026-08-10T10:10:55.000Z</time>
      </trkpt>
      <trkpt lat="45.84098" lon="1.09732">
        <ele>190.9</ele>
        <time>2026-08-10T10:10:57.000Z</time>
      </trkpt>
      <trkpt lat="45.84123" lon="1.09719">
        <ele>189.3</ele>
        <time>2026-08-10T10:11:00.000Z</time>
      </trkpt>
      <trkpt lat="45.84129" lon="1.09715">
        <ele>189.4</ele>
        <time>2026-08-10T10:11:01.000Z</time>
      </trkpt>
      <trkpt lat="45.84145" lon="1.097">
        <ele>189.6</ele>
        <time>2026-08-10T10:11:03.000Z</time>
      </trkpt>
      <trkpt lat="45.84171" lon="1.09677">
        <ele>190.3</ele>
        <time>2026-08-10T10:11:07.000Z</time>
      </trkpt>
      <trkpt lat="45.842" lon="1.09654">
        <ele>191.8</ele>
        <time>2026-08-10T10:11:12.000Z</time>
      </trkpt>
      <trkpt lat="45.8424" lon="1.09624">
        <ele>193.5</ele>
        <time>2026-08-10T10:11:20.000Z</time>
      </trkpt>
      <trkpt lat="45.84249" lon="1.09617">
        <ele>194.1</ele>
        <time>2026-08-10T10:11:22.000Z</time>
      </trkpt>
      <trkpt lat="45.84265" lon="1.09603">
        <ele>194.4</ele>
        <time>2026-08-10T10:11:26.000Z</time>
      </trkpt>
      <trkpt lat="45.84268" lon="1.09599">
        <ele>194.6</ele>
        <time>2026-08-10T10:11:27.000Z</time>
      </trkpt>
      <trkpt lat="45.84278" lon="1.09587">
        <ele>195.2</ele>
        <time>2026-08-10T10:11:31.000Z</time>
      </trkpt>
      <trkpt lat="45.84286" lon="1.09573">
        <ele>195.9</ele>
        <time>2026-08-10T10:11:36.000Z</time>
      </trkpt>
      <trkpt lat="45.84293" lon="1.09556">
        <ele>196.8</ele>
        <time>2026-08-10T10:11:41.000Z</time>
      </trkpt>
      <trkpt lat="45.84299" lon="1.09537">
        <ele>196.9</ele>
        <time>2026-08-10T10:11:46.000Z</time>
      </trkpt>
      <trkpt lat="45.843" lon="1.09533">
        <ele>197.1</ele>
        <time>2026-08-10T10:11:47.000Z</time>
      </trkpt>
      <trkpt lat="45.84308" lon="1.0951">
        <ele>197.7</ele>
        <time>2026-08-10T10:11:54.000Z</time>
      </trkpt>
      <trkpt lat="45.84309" lon="1.09508">
        <ele>197.9</ele>
        <time>2026-08-10T10:11:55.000Z</time>
      </trkpt>
      <trkpt lat="45.8432" lon="1.09498">
        <ele>198.1</ele>
        <time>2026-08-10T10:12:00.000Z</time>
      </trkpt>
      <trkpt lat="45.84332" lon="1.09492">
        <ele>198</ele>
        <time>2026-08-10T10:12:04.000Z</time>
      </trkpt>
      <trkpt lat="45.84337" lon="1.09491">
        <ele>198.2</ele>
        <time>2026-08-10T10:12:06.000Z</time>
      </trkpt>
      <trkpt lat="45.84341" lon="1.09492">
        <ele>198.4</ele>
        <time>2026-08-10T10:12:08.000Z</time>
      </trkpt>
      <trkpt lat="45.84347" lon="1.09494">
        <ele>198.6</ele>
        <time>2026-08-10T10:12:10.000Z</time>
      </trkpt>
      <trkpt lat="45.84368" lon="1.09496">
        <ele>199.8</ele>
        <time>2026-08-10T10:12:16.000Z</time>
      </trkpt>
      <trkpt lat="45.84394" lon="1.09499">
        <ele>201.3</ele>
        <time>2026-08-10T10:12:25.000Z</time>
      </trkpt>
      <trkpt lat="45.84417" lon="1.09491">
        <ele>203.3</ele>
        <time>2026-08-10T10:12:31.000Z</time>
      </trkpt>
      <trkpt lat="45.84436" lon="1.09481">
        <ele>201.9</ele>
        <time>2026-08-10T10:12:38.000Z</time>
      </trkpt>
      <trkpt lat="45.84441" lon="1.09478">
        <ele>202.3</ele>
        <time>2026-08-10T10:12:40.000Z</time>
      </trkpt>
      <trkpt lat="45.84457" lon="1.0946">
        <ele>202.7</ele>
        <time>2026-08-10T10:12:47.000Z</time>
      </trkpt>
      <trkpt lat="45.84472" lon="1.09441">
        <ele>204.5</ele>
        <time>2026-08-10T10:12:53.000Z</time>
      </trkpt>
      <trkpt lat="45.8448" lon="1.09432">
        <ele>203.5</ele>
        <time>2026-08-10T10:12:56.000Z</time>
      </trkpt>
      <trkpt lat="45.845" lon="1.09407">
        <ele>203.1</ele>
        <time>2026-08-10T10:13:02.000Z</time>
      </trkpt>
      <trkpt lat="45.84516" lon="1.09388">
        <ele>201.7</ele>
        <time>2026-08-10T10:13:06.000Z</time>
      </trkpt>
      <trkpt lat="45.84526" lon="1.0938">
        <ele>200.7</ele>
        <time>2026-08-10T10:13:08.000Z</time>
      </trkpt>
      <trkpt lat="45.84533" lon="1.09376">
        <ele>200.8</ele>
        <time>2026-08-10T10:13:09.000Z</time>
      </trkpt>
      <trkpt lat="45.84548" lon="1.0937">
        <ele>201.6</ele>
        <time>2026-08-10T10:13:12.000Z</time>
      </trkpt>
      <trkpt lat="45.84553" lon="1.09369">
        <ele>201.7</ele>
        <time>2026-08-10T10:13:13.000Z</time>
      </trkpt>
      <trkpt lat="45.84578" lon="1.0936">
        <ele>204</ele>
        <time>2026-08-10T10:13:18.000Z</time>
      </trkpt>
      <trkpt lat="45.84581" lon="1.09358">
        <ele>204.5</ele>
        <time>2026-08-10T10:13:19.000Z</time>
      </trkpt>
      <trkpt lat="45.84594" lon="1.0935">
        <ele>204.1</ele>
        <time>2026-08-10T10:13:22.000Z</time>
      </trkpt>
      <trkpt lat="45.84603" lon="1.09342">
        <ele>204.3</ele>
        <time>2026-08-10T10:13:25.000Z</time>
      </trkpt>
      <trkpt lat="45.84621" lon="1.09324">
        <ele>204.4</ele>
        <time>2026-08-10T10:13:30.000Z</time>
      </trkpt>
      <trkpt lat="45.84642" lon="1.09312">
        <ele>202.9</ele>
        <time>2026-08-10T10:13:35.000Z</time>
      </trkpt>
      <trkpt lat="45.84648" lon="1.09309">
        <ele>203.1</ele>
        <time>2026-08-10T10:13:36.000Z</time>
      </trkpt>
      <trkpt lat="45.84668" lon="1.09303">
        <ele>203.1</ele>
        <time>2026-08-10T10:13:40.000Z</time>
      </trkpt>
      <trkpt lat="45.84707" lon="1.09288">
        <ele>202.4</ele>
        <time>2026-08-10T10:13:47.000Z</time>
      </trkpt>
      <trkpt lat="45.84749" lon="1.09261">
        <ele>201</ele>
        <time>2026-08-10T10:13:54.000Z</time>
      </trkpt>
      <trkpt lat="45.84753" lon="1.09258">
        <ele>200.8</ele>
        <time>2026-08-10T10:13:55.000Z</time>
      </trkpt>
      <trkpt lat="45.84785" lon="1.0924">
        <ele>200.1</ele>
        <time>2026-08-10T10:14:00.000Z</time>
      </trkpt>
      <trkpt lat="45.84823" lon="1.0922">
        <ele>199.3</ele>
        <time>2026-08-10T10:14:06.000Z</time>
      </trkpt>
      <trkpt lat="45.8483" lon="1.09216">
        <ele>198.8</ele>
        <time>2026-08-10T10:14:07.000Z</time>
      </trkpt>
      <trkpt lat="45.84867" lon="1.09198">
        <ele>197.4</ele>
        <time>2026-08-10T10:14:12.000Z</time>
      </trkpt>
      <trkpt lat="45.84882" lon="1.09191">
        <ele>197</ele>
        <time>2026-08-10T10:14:14.000Z</time>
      </trkpt>
      <trkpt lat="45.84905" lon="1.0918">
        <ele>196</ele>
        <time>2026-08-10T10:14:17.000Z</time>
      </trkpt>
      <trkpt lat="45.84926" lon="1.0917">
        <ele>194.7</ele>
        <time>2026-08-10T10:14:20.000Z</time>
      </trkpt>
      <trkpt lat="45.84963" lon="1.09153">
        <ele>192.1</ele>
        <time>2026-08-10T10:14:25.000Z</time>
      </trkpt>
      <trkpt lat="45.84971" lon="1.09151">
        <ele>191.1</ele>
        <time>2026-08-10T10:14:26.000Z</time>
      </trkpt>
      <trkpt lat="45.84989" lon="1.09144">
        <ele>191.2</ele>
        <time>2026-08-10T10:14:28.000Z</time>
      </trkpt>
      <trkpt lat="45.85024" lon="1.09133">
        <ele>189.2</ele>
        <time>2026-08-10T10:14:32.000Z</time>
      </trkpt>
      <trkpt lat="45.85032" lon="1.09131">
        <ele>188.4</ele>
        <time>2026-08-10T10:14:33.000Z</time>
      </trkpt>
      <trkpt lat="45.85049" lon="1.09127">
        <ele>189.1</ele>
        <time>2026-08-10T10:14:35.000Z</time>
      </trkpt>
      <trkpt lat="45.8507" lon="1.0912">
        <ele>190</ele>
        <time>2026-08-10T10:14:38.000Z</time>
      </trkpt>
      <trkpt lat="45.85086" lon="1.09106">
        <ele>191.2</ele>
        <time>2026-08-10T10:14:41.000Z</time>
      </trkpt>
      <trkpt lat="45.85091" lon="1.09101">
        <ele>191.4</ele>
        <time>2026-08-10T10:14:42.000Z</time>
      </trkpt>
      <trkpt lat="45.85108" lon="1.09074">
        <ele>194</ele>
        <time>2026-08-10T10:14:47.000Z</time>
      </trkpt>
      <trkpt lat="45.8511" lon="1.09069">
        <ele>194.7</ele>
        <time>2026-08-10T10:14:48.000Z</time>
      </trkpt>
      <trkpt lat="45.85113" lon="1.09064">
        <ele>195.4</ele>
        <time>2026-08-10T10:14:49.000Z</time>
      </trkpt>
      <trkpt lat="45.85123" lon="1.09045">
        <ele>197.1</ele>
        <time>2026-08-10T10:14:53.000Z</time>
      </trkpt>
      <trkpt lat="45.85125" lon="1.09041">
        <ele>197.4</ele>
        <time>2026-08-10T10:14:54.000Z</time>
      </trkpt>
      <trkpt lat="45.85134" lon="1.09025">
        <ele>198.4</ele>
        <time>2026-08-10T10:14:58.000Z</time>
      </trkpt>
      <trkpt lat="45.85142" lon="1.09012">
        <ele>199</ele>
        <time>2026-08-10T10:15:01.000Z</time>
      </trkpt>
      <trkpt lat="45.85152" lon="1.08997">
        <ele>199.8</ele>
        <time>2026-08-10T10:15:05.000Z</time>
      </trkpt>
      <trkpt lat="45.85169" lon="1.08969">
        <ele>200.9</ele>
        <time>2026-08-10T10:15:12.000Z</time>
      </trkpt>
      <trkpt lat="45.85184" lon="1.08953">
        <ele>200.7</ele>
        <time>2026-08-10T10:15:17.000Z</time>
      </trkpt>
      <trkpt lat="45.85193" lon="1.08945">
        <ele>201</ele>
        <time>2026-08-10T10:15:20.000Z</time>
      </trkpt>
      <trkpt lat="45.85205" lon="1.08937">
        <ele>201.8</ele>
        <time>2026-08-10T10:15:24.000Z</time>
      </trkpt>
      <trkpt lat="45.85216" lon="1.08932">
        <ele>202.6</ele>
        <time>2026-08-10T10:15:28.000Z</time>
      </trkpt>
      <trkpt lat="45.85228" lon="1.08927">
        <ele>203.2</ele>
        <time>2026-08-10T10:15:32.000Z</time>
      </trkpt>
      <trkpt lat="45.85239" lon="1.08921">
        <ele>203.6</ele>
        <time>2026-08-10T10:15:36.000Z</time>
      </trkpt>
      <trkpt lat="45.85251" lon="1.08917">
        <ele>203.9</ele>
        <time>2026-08-10T10:15:40.000Z</time>
      </trkpt>
      <trkpt lat="45.85258" lon="1.08914">
        <ele>204.1</ele>
        <time>2026-08-10T10:15:42.000Z</time>
      </trkpt>
      <trkpt lat="45.8526" lon="1.08914">
        <ele>204.1</ele>
        <time>2026-08-10T10:15:43.000Z</time>
      </trkpt>
      <trkpt lat="45.85281" lon="1.08907">
        <ele>204.7</ele>
        <time>2026-08-10T10:15:51.000Z</time>
      </trkpt>
      <trkpt lat="45.85302" lon="1.08903">
        <ele>205.8</ele>
        <time>2026-08-10T10:15:59.000Z</time>
      </trkpt>
      <trkpt lat="45.85324" lon="1.08902">
        <ele>207.4</ele>
        <time>2026-08-10T10:16:08.000Z</time>
      </trkpt>
      <trkpt lat="45.85334" lon="1.08902">
        <ele>208.3</ele>
        <time>2026-08-10T10:16:12.000Z</time>
      </trkpt>
      <trkpt lat="45.85344" lon="1.08903">
        <ele>208.6</ele>
        <time>2026-08-10T10:16:16.000Z</time>
      </trkpt>
      <trkpt lat="45.85351" lon="1.08902">
        <ele>209.3</ele>
        <time>2026-08-10T10:16:20.000Z</time>
      </trkpt>
      <trkpt lat="45.85357" lon="1.08901">
        <ele>209.9</ele>
        <time>2026-08-10T10:16:22.000Z</time>
      </trkpt>
      <trkpt lat="45.85375" lon="1.089">
        <ele>209.8</ele>
        <time>2026-08-10T10:16:29.000Z</time>
      </trkpt>
      <trkpt lat="45.85379" lon="1.089">
        <ele>209.9</ele>
        <time>2026-08-10T10:16:30.000Z</time>
      </trkpt>
      <trkpt lat="45.85393" lon="1.08898">
        <ele>210</ele>
        <time>2026-08-10T10:16:35.000Z</time>
      </trkpt>
      <trkpt lat="45.8541" lon="1.08899">
        <ele>209.9</ele>
        <time>2026-08-10T10:16:42.000Z</time>
      </trkpt>
      <trkpt lat="45.85415" lon="1.08901">
        <ele>209.5</ele>
        <time>2026-08-10T10:16:44.000Z</time>
      </trkpt>
      <trkpt lat="45.85426" lon="1.089">
        <ele>211.6</ele>
        <time>2026-08-10T10:16:48.000Z</time>
      </trkpt>
      <trkpt lat="45.85431" lon="1.08902">
        <ele>211.9</ele>
        <time>2026-08-10T10:16:50.000Z</time>
      </trkpt>
      <trkpt lat="45.85447" lon="1.08906">
        <ele>214.1</ele>
        <time>2026-08-10T10:16:56.000Z</time>
      </trkpt>
      <trkpt lat="45.85466" lon="1.08917">
        <ele>213.8</ele>
        <time>2026-08-10T10:17:03.000Z</time>
      </trkpt>
      <trkpt lat="45.85475" lon="1.0892">
        <ele>213.7</ele>
        <time>2026-08-10T10:17:07.000Z</time>
      </trkpt>
      <trkpt lat="45.85482" lon="1.08925">
        <ele>212.3</ele>
        <time>2026-08-10T10:17:10.000Z</time>
      </trkpt>
      <trkpt lat="45.85493" lon="1.08927">
        <ele>212</ele>
        <time>2026-08-10T10:17:15.000Z</time>
      </trkpt>
      <trkpt lat="45.85502" lon="1.08927">
        <ele>212.2</ele>
        <time>2026-08-10T10:17:18.000Z</time>
      </trkpt>
      <trkpt lat="45.85518" lon="1.08921">
        <ele>214.2</ele>
        <time>2026-08-10T10:17:25.000Z</time>
      </trkpt>
      <trkpt lat="45.85524" lon="1.08917">
        <ele>216.2</ele>
        <time>2026-08-10T10:17:27.000Z</time>
      </trkpt>
      <trkpt lat="45.8554" lon="1.08905">
        <ele>217.3</ele>
        <time>2026-08-10T10:17:33.000Z</time>
      </trkpt>
      <trkpt lat="45.85542" lon="1.08903">
        <ele>217.5</ele>
        <time>2026-08-10T10:17:34.000Z</time>
      </trkpt>
      <trkpt lat="45.85545" lon="1.08902">
        <ele>217.3</ele>
        <time>2026-08-10T10:17:35.000Z</time>
      </trkpt>
      <trkpt lat="45.85559" lon="1.08895">
        <ele>217.8</ele>
        <time>2026-08-10T10:17:42.000Z</time>
      </trkpt>
      <trkpt lat="45.85565" lon="1.08891">
        <ele>219.1</ele>
        <time>2026-08-10T10:17:44.000Z</time>
      </trkpt>
      <trkpt lat="45.85578" lon="1.08882">
        <ele>221.4</ele>
        <time>2026-08-10T10:17:49.000Z</time>
      </trkpt>
      <trkpt lat="45.85586" lon="1.08879">
        <ele>221.1</ele>
        <time>2026-08-10T10:17:51.000Z</time>
      </trkpt>
      <trkpt lat="45.85597" lon="1.08871">
        <ele>220.2</ele>
        <time>2026-08-10T10:17:56.000Z</time>
      </trkpt>
      <trkpt lat="45.85603" lon="1.08866">
        <ele>220.7</ele>
        <time>2026-08-10T10:17:59.000Z</time>
      </trkpt>
      <trkpt lat="45.85618" lon="1.08854">
        <ele>221.2</ele>
        <time>2026-08-10T10:18:06.000Z</time>
      </trkpt>
      <trkpt lat="45.85624" lon="1.08849">
        <ele>221.1</ele>
        <time>2026-08-10T10:18:09.000Z</time>
      </trkpt>
      <trkpt lat="45.85634" lon="1.08838">
        <ele>222.3</ele>
        <time>2026-08-10T10:18:14.000Z</time>
      </trkpt>
      <trkpt lat="45.85646" lon="1.08815">
        <ele>221.9</ele>
        <time>2026-08-10T10:18:22.000Z</time>
      </trkpt>
      <trkpt lat="45.85648" lon="1.08811">
        <ele>221.8</ele>
        <time>2026-08-10T10:18:23.000Z</time>
      </trkpt>
      <trkpt lat="45.85658" lon="1.08782">
        <ele>222</ele>
        <time>2026-08-10T10:18:31.000Z</time>
      </trkpt>
      <trkpt lat="45.85662" lon="1.08771">
        <ele>222.7</ele>
        <time>2026-08-10T10:18:34.000Z</time>
      </trkpt>
      <trkpt lat="45.85669" lon="1.0875">
        <ele>224.7</ele>
        <time>2026-08-10T10:18:40.000Z</time>
      </trkpt>
      <trkpt lat="45.85673" lon="1.08736">
        <ele>225.2</ele>
        <time>2026-08-10T10:18:44.000Z</time>
      </trkpt>
      <trkpt lat="45.85681" lon="1.08713">
        <ele>226.1</ele>
        <time>2026-08-10T10:18:50.000Z</time>
      </trkpt>
      <trkpt lat="45.85689" lon="1.08681">
        <ele>226.3</ele>
        <time>2026-08-10T10:18:57.000Z</time>
      </trkpt>
      <trkpt lat="45.85695" lon="1.08649">
        <ele>225.5</ele>
        <time>2026-08-10T10:19:03.000Z</time>
      </trkpt>
      <trkpt lat="45.85704" lon="1.08598">
        <ele>225.8</ele>
        <time>2026-08-10T10:19:11.000Z</time>
      </trkpt>
      <trkpt lat="45.85709" lon="1.08568">
        <ele>227.8</ele>
        <time>2026-08-10T10:19:16.000Z</time>
      </trkpt>
      <trkpt lat="45.85709" lon="1.08564">
        <ele>228.1</ele>
        <time>2026-08-10T10:19:17.000Z</time>
      </trkpt>
      <trkpt lat="45.8571" lon="1.08553">
        <ele>228.8</ele>
        <time>2026-08-10T10:19:19.000Z</time>
      </trkpt>
      <trkpt lat="45.85714" lon="1.0852">
        <ele>229.3</ele>
        <time>2026-08-10T10:19:26.000Z</time>
      </trkpt>
      <trkpt lat="45.85717" lon="1.08506">
        <ele>229</ele>
        <time>2026-08-10T10:19:29.000Z</time>
      </trkpt>
      <trkpt lat="45.85719" lon="1.08491">
        <ele>228.6</ele>
        <time>2026-08-10T10:19:32.000Z</time>
      </trkpt>
      <trkpt lat="45.85726" lon="1.08463">
        <ele>227.5</ele>
        <time>2026-08-10T10:19:38.000Z</time>
      </trkpt>
      <trkpt lat="45.85735" lon="1.08427">
        <ele>226</ele>
        <time>2026-08-10T10:19:43.000Z</time>
      </trkpt>
      <trkpt lat="45.8574" lon="1.08398">
        <ele>225.1</ele>
        <time>2026-08-10T10:19:47.000Z</time>
      </trkpt>
      <trkpt lat="45.8574" lon="1.08382">
        <ele>224.9</ele>
        <time>2026-08-10T10:19:49.000Z</time>
      </trkpt>
      <trkpt lat="45.85735" lon="1.08363">
        <ele>224.7</ele>
        <time>2026-08-10T10:19:51.000Z</time>
      </trkpt>
      <trkpt lat="45.85733" lon="1.08347">
        <ele>224.6</ele>
        <time>2026-08-10T10:19:53.000Z</time>
      </trkpt>
      <trkpt lat="45.85732" lon="1.08337">
        <ele>224.7</ele>
        <time>2026-08-10T10:19:54.000Z</time>
      </trkpt>
      <trkpt lat="45.85728" lon="1.08322">
        <ele>224.8</ele>
        <time>2026-08-10T10:19:56.000Z</time>
      </trkpt>
      <trkpt lat="45.85719" lon="1.08298">
        <ele>225.1</ele>
        <time>2026-08-10T10:19:59.000Z</time>
      </trkpt>
      <trkpt lat="45.85716" lon="1.08289">
        <ele>225.1</ele>
        <time>2026-08-10T10:20:00.000Z</time>
      </trkpt>
      <trkpt lat="45.85708" lon="1.08258">
        <ele>224.1</ele>
        <time>2026-08-10T10:20:04.000Z</time>
      </trkpt>
      <trkpt lat="45.85696" lon="1.08221">
        <ele>224.5</ele>
        <time>2026-08-10T10:20:09.000Z</time>
      </trkpt>
      <trkpt lat="45.85685" lon="1.08191">
        <ele>223.5</ele>
        <time>2026-08-10T10:20:13.000Z</time>
      </trkpt>
      <trkpt lat="45.85681" lon="1.0818">
        <ele>222.5</ele>
        <time>2026-08-10T10:20:15.000Z</time>
      </trkpt>
      <trkpt lat="45.85654" lon="1.08142">
        <ele>221.2</ele>
        <time>2026-08-10T10:20:21.000Z</time>
      </trkpt>
      <trkpt lat="45.8562" lon="1.08097">
        <ele>222.3</ele>
        <time>2026-08-10T10:20:27.000Z</time>
      </trkpt>
      <trkpt lat="45.85616" lon="1.08087">
        <ele>221.7</ele>
        <time>2026-08-10T10:20:28.000Z</time>
      </trkpt>
      <trkpt lat="45.85613" lon="1.08075">
        <ele>221</ele>
        <time>2026-08-10T10:20:29.000Z</time>
      </trkpt>
      <trkpt lat="45.85612" lon="1.08066">
        <ele>220.6</ele>
        <time>2026-08-10T10:20:30.000Z</time>
      </trkpt>
      <trkpt lat="45.85609" lon="1.0804">
        <ele>219.7</ele>
        <time>2026-08-10T10:20:32.000Z</time>
      </trkpt>
      <trkpt lat="45.85608" lon="1.08031">
        <ele>219.6</ele>
        <time>2026-08-10T10:20:33.000Z</time>
      </trkpt>
      <trkpt lat="45.85608" lon="1.08017">
        <ele>219.8</ele>
        <time>2026-08-10T10:20:34.000Z</time>
      </trkpt>
      <trkpt lat="45.85608" lon="1.07985">
        <ele>221.4</ele>
        <time>2026-08-10T10:20:37.000Z</time>
      </trkpt>
      <trkpt lat="45.85608" lon="1.07976">
        <ele>222</ele>
        <time>2026-08-10T10:20:38.000Z</time>
      </trkpt>
      <trkpt lat="45.85611" lon="1.07951">
        <ele>222.8</ele>
        <time>2026-08-10T10:20:41.000Z</time>
      </trkpt>
      <trkpt lat="45.85621" lon="1.07909">
        <ele>225.1</ele>
        <time>2026-08-10T10:20:46.000Z</time>
      </trkpt>
      <trkpt lat="45.85622" lon="1.07902">
        <ele>225.5</ele>
        <time>2026-08-10T10:20:47.000Z</time>
      </trkpt>
      <trkpt lat="45.8563" lon="1.07878">
        <ele>225.6</ele>
        <time>2026-08-10T10:20:51.000Z</time>
      </trkpt>
      <trkpt lat="45.85632" lon="1.07872">
        <ele>225.5</ele>
        <time>2026-08-10T10:20:52.000Z</time>
      </trkpt>
      <trkpt lat="45.85643" lon="1.0785">
        <ele>225.7</ele>
        <time>2026-08-10T10:20:56.000Z</time>
      </trkpt>
      <trkpt lat="45.85649" lon="1.07842">
        <ele>226.1</ele>
        <time>2026-08-10T10:20:58.000Z</time>
      </trkpt>
      <trkpt lat="45.85653" lon="1.07837">
        <ele>226.3</ele>
        <time>2026-08-10T10:20:59.000Z</time>
      </trkpt>
      <trkpt lat="45.85668" lon="1.07821">
        <ele>226.9</ele>
        <time>2026-08-10T10:21:04.000Z</time>
      </trkpt>
      <trkpt lat="45.85674" lon="1.07817">
        <ele>227.1</ele>
        <time>2026-08-10T10:21:06.000Z</time>
      </trkpt>
      <trkpt lat="45.85692" lon="1.0781">
        <ele>227.6</ele>
        <time>2026-08-10T10:21:12.000Z</time>
      </trkpt>
      <trkpt lat="45.85696" lon="1.07809">
        <ele>227.6</ele>
        <time>2026-08-10T10:21:13.000Z</time>
      </trkpt>
      <trkpt lat="45.8572" lon="1.07802">
        <ele>228</ele>
        <time>2026-08-10T10:21:21.000Z</time>
      </trkpt>
      <trkpt lat="45.85722" lon="1.078">
        <ele>228</ele>
        <time>2026-08-10T10:21:22.000Z</time>
      </trkpt>
      <trkpt lat="45.85723" lon="1.07794">
        <ele>228</ele>
        <time>2026-08-10T10:21:24.000Z</time>
      </trkpt>
      <trkpt lat="45.85721" lon="1.0779">
        <ele>228</ele>
        <time>2026-08-10T10:21:25.000Z</time>
      </trkpt>
      <trkpt lat="45.85716" lon="1.07785">
        <ele>228</ele>
        <time>2026-08-10T10:21:27.000Z</time>
      </trkpt>
      <trkpt lat="45.85706" lon="1.07771">
        <ele>228.4</ele>
        <time>2026-08-10T10:21:32.000Z</time>
      </trkpt>
      <trkpt lat="45.85706" lon="1.07768">
        <ele>228.5</ele>
        <time>2026-08-10T10:21:35.000Z</time>
      </trkpt>
      <trkpt lat="45.8572" lon="1.07778">
        <ele>228</ele>
        <time>2026-08-10T10:21:55.000Z</time>
      </trkpt>
      <trkpt lat="45.85722" lon="1.07784">
        <ele>228</ele>
        <time>2026-08-10T10:21:57.000Z</time>
      </trkpt>
      <trkpt lat="45.85725" lon="1.07798">
        <ele>228</ele>
        <time>2026-08-10T10:22:02.000Z</time>
      </trkpt>
      <trkpt lat="45.85726" lon="1.078">
        <ele>228</ele>
        <time>2026-08-10T10:22:03.000Z</time>
      </trkpt>
      <trkpt lat="45.85739" lon="1.07797">
        <ele>228.2</ele>
        <time>2026-08-10T10:22:09.000Z</time>
      </trkpt>
      <trkpt lat="45.85761" lon="1.07783">
        <ele>228.9</ele>
        <time>2026-08-10T10:22:18.000Z</time>
      </trkpt>
      <trkpt lat="45.85769" lon="1.07775">
        <ele>229.1</ele>
        <time>2026-08-10T10:22:22.000Z</time>
      </trkpt>
      <trkpt lat="45.85771" lon="1.07772">
        <ele>229.2</ele>
        <time>2026-08-10T10:22:23.000Z</time>
      </trkpt>
      <trkpt lat="45.8578" lon="1.07766">
        <ele>229.4</ele>
        <time>2026-08-10T10:22:28.000Z</time>
      </trkpt>
      <trkpt lat="45.85783" lon="1.0777">
        <ele>229.3</ele>
        <time>2026-08-10T10:22:31.000Z</time>
      </trkpt>
      <trkpt lat="45.85803" lon="1.07778">
        <ele>229</ele>
        <time>2026-08-10T10:22:39.000Z</time>
      </trkpt>
      <trkpt lat="45.85817" lon="1.07782">
        <ele>229</ele>
        <time>2026-08-10T10:22:44.000Z</time>
      </trkpt>
      <trkpt lat="45.85833" lon="1.07782">
        <ele>229</ele>
        <time>2026-08-10T10:22:50.000Z</time>
      </trkpt>
      <trkpt lat="45.85847" lon="1.07786">
        <ele>228.5</ele>
        <time>2026-08-10T10:22:54.000Z</time>
      </trkpt>
      <trkpt lat="45.85849" lon="1.07783">
        <ele>228.4</ele>
        <time>2026-08-10T10:22:55.000Z</time>
      </trkpt>
      <trkpt lat="45.85853" lon="1.07766">
        <ele>228.4</ele>
        <time>2026-08-10T10:22:59.000Z</time>
      </trkpt>
      <trkpt lat="45.85856" lon="1.07763">
        <ele>228.3</ele>
        <time>2026-08-10T10:23:00.000Z</time>
      </trkpt>
      <trkpt lat="45.85864" lon="1.07757">
        <ele>228</ele>
        <time>2026-08-10T10:23:04.000Z</time>
      </trkpt>
      <trkpt lat="45.85864" lon="1.07757">
        <ele>228</ele>
        <time>2026-08-10T10:23:05.000Z</time>
      </trkpt>
      <trkpt lat="45.85867" lon="1.07746">
        <ele>228</ele>
        <time>2026-08-10T10:23:16.000Z</time>
      </trkpt>
      <trkpt lat="45.8587" lon="1.07738">
        <ele>228</ele>
        <time>2026-08-10T10:23:18.000Z</time>
      </trkpt>
      <trkpt lat="45.85872" lon="1.07716">
        <ele>227.8</ele>
        <time>2026-08-10T10:23:23.000Z</time>
      </trkpt>
      <trkpt lat="45.85871" lon="1.07701">
        <ele>227.5</ele>
        <time>2026-08-10T10:23:28.000Z</time>
      </trkpt>
      <trkpt lat="45.85868" lon="1.07686">
        <ele>227.4</ele>
        <time>2026-08-10T10:23:33.000Z</time>
      </trkpt>
      <trkpt lat="45.85869" lon="1.07685">
        <ele>227.3</ele>
        <time>2026-08-10T10:23:34.000Z</time>
      </trkpt>
      <trkpt lat="45.85872" lon="1.07687">
        <ele>227.1</ele>
        <time>2026-08-10T10:23:36.000Z</time>
      </trkpt>
      <trkpt lat="45.85872" lon="1.07689">
        <ele>227.1</ele>
        <time>2026-08-10T10:23:37.000Z</time>
      </trkpt>
      <trkpt lat="45.85872" lon="1.07693">
        <ele>227.2</ele>
        <time>2026-08-10T10:23:38.000Z</time>
      </trkpt>
      <trkpt lat="45.85872" lon="1.07707">
        <ele>227.5</ele>
        <time>2026-08-10T10:23:42.000Z</time>
      </trkpt>
      <trkpt lat="45.85872" lon="1.07719">
        <ele>227.9</ele>
        <time>2026-08-10T10:23:45.000Z</time>
      </trkpt>
      <trkpt lat="45.85867" lon="1.07739">
        <ele>228</ele>
        <time>2026-08-10T10:23:50.000Z</time>
      </trkpt>
      <trkpt lat="45.85854" lon="1.07764">
        <ele>228.4</ele>
        <time>2026-08-10T10:23:58.000Z</time>
      </trkpt>
      <trkpt lat="45.8585" lon="1.078">
        <ele>228.4</ele>
        <time>2026-08-10T10:24:07.000Z</time>
      </trkpt>
      <trkpt lat="45.85854" lon="1.07814">
        <ele>228</ele>
        <time>2026-08-10T10:24:11.000Z</time>
      </trkpt>
      <trkpt lat="45.85854" lon="1.07817">
        <ele>228</ele>
        <time>2026-08-10T10:24:12.000Z</time>
      </trkpt>
      <trkpt lat="45.85851" lon="1.0782">
        <ele>228</ele>
        <time>2026-08-10T10:24:14.000Z</time>
      </trkpt>
      <trkpt lat="45.85851" lon="1.07819">
        <ele>228.1</ele>
        <time>2026-08-10T10:24:15.000Z</time>
      </trkpt>
      <trkpt lat="45.85853" lon="1.07818">
        <ele>228</ele>
        <time>2026-08-10T10:24:18.000Z</time>
      </trkpt>
      <trkpt lat="45.85854" lon="1.07818">
        <ele>227.9</ele>
        <time>2026-08-10T10:24:19.000Z</time>
      </trkpt>
      <trkpt lat="45.85862" lon="1.07819">
        <ele>227.5</ele>
        <time>2026-08-10T10:24:24.000Z</time>
      </trkpt>
      <trkpt lat="45.85865" lon="1.07818">
        <ele>227.6</ele>
        <time>2026-08-10T10:24:26.000Z</time>
      </trkpt>
      <trkpt lat="45.85867" lon="1.07813">
        <ele>227.7</ele>
        <time>2026-08-10T10:24:28.000Z</time>
      </trkpt>
      <trkpt lat="45.85869" lon="1.0781">
        <ele>227.8</ele>
        <time>2026-08-10T10:24:29.000Z</time>
      </trkpt>
      <trkpt lat="45.85873" lon="1.07794">
        <ele>228</ele>
        <time>2026-08-10T10:24:35.000Z</time>
      </trkpt>
      <trkpt lat="45.85874" lon="1.07793">
        <ele>228</ele>
        <time>2026-08-10T10:24:36.000Z</time>
      </trkpt>
      <trkpt lat="45.85875" lon="1.07792">
        <ele>228</ele>
        <time>2026-08-10T10:24:39.000Z</time>
      </trkpt>
      <trkpt lat="45.85871" lon="1.07801">
        <ele>228</ele>
        <time>2026-08-10T10:26:20.000Z</time>
      </trkpt>
      <trkpt lat="45.85869" lon="1.07806">
        <ele>228</ele>
        <time>2026-08-10T10:26:23.000Z</time>
      </trkpt>
      <trkpt lat="45.85865" lon="1.07818">
        <ele>227.6</ele>
        <time>2026-08-10T10:26:31.000Z</time>
      </trkpt>
      <trkpt lat="45.85867" lon="1.0782">
        <ele>227.5</ele>
        <time>2026-08-10T10:26:33.000Z</time>
      </trkpt>
      <trkpt lat="45.85869" lon="1.0782">
        <ele>227.5</ele>
        <time>2026-08-10T10:26:35.000Z</time>
      </trkpt>
      <trkpt lat="45.85869" lon="1.0782">
        <ele>227.5</ele>
        <time>2026-08-10T10:26:38.000Z</time>
      </trkpt>
      <trkpt lat="45.85867" lon="1.07825">
        <ele>227.3</ele>
        <time>2026-08-10T10:33:29.000Z</time>
      </trkpt>
      <trkpt lat="45.85866" lon="1.07823">
        <ele>227.4</ele>
        <time>2026-08-10T10:33:30.000Z</time>
      </trkpt>
      <trkpt lat="45.85857" lon="1.07814">
        <ele>227.9</ele>
        <time>2026-08-10T10:33:36.000Z</time>
      </trkpt>
      <trkpt lat="45.85856" lon="1.07813">
        <ele>228</ele>
        <time>2026-08-10T10:33:37.000Z</time>
      </trkpt>
      <trkpt lat="45.8585" lon="1.07806">
        <ele>228.4</ele>
        <time>2026-08-10T10:33:41.000Z</time>
      </trkpt>
      <trkpt lat="45.85843" lon="1.07785">
        <ele>228.6</ele>
        <time>2026-08-10T10:33:48.000Z</time>
      </trkpt>
      <trkpt lat="45.85836" lon="1.07783">
        <ele>228.9</ele>
        <time>2026-08-10T10:33:52.000Z</time>
      </trkpt>
      <trkpt lat="45.85836" lon="1.07783">
        <ele>228.9</ele>
        <time>2026-08-10T10:33:53.000Z</time>
      </trkpt>
      <trkpt lat="45.85828" lon="1.07782">
        <ele>229</ele>
        <time>2026-08-10T10:34:13.000Z</time>
      </trkpt>
      <trkpt lat="45.85823" lon="1.07781">
        <ele>229</ele>
        <time>2026-08-10T10:34:15.000Z</time>
      </trkpt>
      <trkpt lat="45.8581" lon="1.07774">
        <ele>229.1</ele>
        <time>2026-08-10T10:34:20.000Z</time>
      </trkpt>
      <trkpt lat="45.858" lon="1.0777">
        <ele>229.3</ele>
        <time>2026-08-10T10:34:25.000Z</time>
      </trkpt>
      <trkpt lat="45.85786" lon="1.07765">
        <ele>229.5</ele>
        <time>2026-08-10T10:34:30.000Z</time>
      </trkpt>
      <trkpt lat="45.85784" lon="1.0776">
        <ele>229.7</ele>
        <time>2026-08-10T10:34:32.000Z</time>
      </trkpt>
      <trkpt lat="45.85783" lon="1.07753">
        <ele>229.9</ele>
        <time>2026-08-10T10:34:34.000Z</time>
      </trkpt>
      <trkpt lat="45.85775" lon="1.07723">
        <ele>230.1</ele>
        <time>2026-08-10T10:34:42.000Z</time>
      </trkpt>
      <trkpt lat="45.85768" lon="1.07702">
        <ele>231.1</ele>
        <time>2026-08-10T10:34:48.000Z</time>
      </trkpt>
      <trkpt lat="45.85767" lon="1.07698">
        <ele>231.3</ele>
        <time>2026-08-10T10:34:49.000Z</time>
      </trkpt>
      <trkpt lat="45.85757" lon="1.0767">
        <ele>231.8</ele>
        <time>2026-08-10T10:34:57.000Z</time>
      </trkpt>
      <trkpt lat="45.85754" lon="1.07662">
        <ele>231.9</ele>
        <time>2026-08-10T10:34:59.000Z</time>
      </trkpt>
      <trkpt lat="45.85749" lon="1.07644">
        <ele>232.1</ele>
        <time>2026-08-10T10:35:04.000Z</time>
      </trkpt>
      <trkpt lat="45.85738" lon="1.07614">
        <ele>233.3</ele>
        <time>2026-08-10T10:35:13.000Z</time>
      </trkpt>
      <trkpt lat="45.85727" lon="1.07588">
        <ele>234</ele>
        <time>2026-08-10T10:35:21.000Z</time>
      </trkpt>
      <trkpt lat="45.85722" lon="1.07573">
        <ele>234.4</ele>
        <time>2026-08-10T10:35:25.000Z</time>
      </trkpt>
      <trkpt lat="45.85718" lon="1.0756">
        <ele>235.3</ele>
        <time>2026-08-10T10:35:29.000Z</time>
      </trkpt>
      <trkpt lat="45.85713" lon="1.07546">
        <ele>236.3</ele>
        <time>2026-08-10T10:35:34.000Z</time>
      </trkpt>
      <trkpt lat="45.85708" lon="1.07536">
        <ele>236.5</ele>
        <time>2026-08-10T10:35:37.000Z</time>
      </trkpt>
      <trkpt lat="45.85698" lon="1.07512">
        <ele>236.6</ele>
        <time>2026-08-10T10:35:45.000Z</time>
      </trkpt>
      <trkpt lat="45.85684" lon="1.07483">
        <ele>237.4</ele>
        <time>2026-08-10T10:35:55.000Z</time>
      </trkpt>
      <trkpt lat="45.85673" lon="1.07454">
        <ele>237.8</ele>
        <time>2026-08-10T10:36:04.000Z</time>
      </trkpt>
      <trkpt lat="45.85672" lon="1.07447">
        <ele>237.8</ele>
        <time>2026-08-10T10:36:06.000Z</time>
      </trkpt>
      <trkpt lat="45.85672" lon="1.07418">
        <ele>238.6</ele>
        <time>2026-08-10T10:36:14.000Z</time>
      </trkpt>
      <trkpt lat="45.85673" lon="1.07414">
        <ele>238.6</ele>
        <time>2026-08-10T10:36:15.000Z</time>
      </trkpt>
      <trkpt lat="45.85679" lon="1.07375">
        <ele>238.4</ele>
        <time>2026-08-10T10:36:24.000Z</time>
      </trkpt>
      <trkpt lat="45.8568" lon="1.0737">
        <ele>238.4</ele>
        <time>2026-08-10T10:36:25.000Z</time>
      </trkpt>
      <trkpt lat="45.85686" lon="1.0734">
        <ele>238.9</ele>
        <time>2026-08-10T10:36:31.000Z</time>
      </trkpt>
      <trkpt lat="45.85697" lon="1.07288">
        <ele>238.3</ele>
        <time>2026-08-10T10:36:40.000Z</time>
      </trkpt>
      <trkpt lat="45.85707" lon="1.07242">
        <ele>239.6</ele>
        <time>2026-08-10T10:36:47.000Z</time>
      </trkpt>
      <trkpt lat="45.85716" lon="1.07199">
        <ele>240.5</ele>
        <time>2026-08-10T10:36:53.000Z</time>
      </trkpt>
      <trkpt lat="45.85717" lon="1.07187">
        <ele>239.9</ele>
        <time>2026-08-10T10:36:55.000Z</time>
      </trkpt>
      <trkpt lat="45.85727" lon="1.07125">
        <ele>236.7</ele>
        <time>2026-08-10T10:37:03.000Z</time>
      </trkpt>
      <trkpt lat="45.8574" lon="1.07067">
        <ele>233.8</ele>
        <time>2026-08-10T10:37:09.000Z</time>
      </trkpt>
      <trkpt lat="45.85751" lon="1.07006">
        <ele>233.6</ele>
        <time>2026-08-10T10:37:15.000Z</time>
      </trkpt>
      <trkpt lat="45.85755" lon="1.06987">
        <ele>233.3</ele>
        <time>2026-08-10T10:37:17.000Z</time>
      </trkpt>
      <trkpt lat="45.85761" lon="1.06948">
        <ele>232.3</ele>
        <time>2026-08-10T10:37:21.000Z</time>
      </trkpt>
      <trkpt lat="45.85762" lon="1.06937">
        <ele>232.2</ele>
        <time>2026-08-10T10:37:22.000Z</time>
      </trkpt>
      <trkpt lat="45.85767" lon="1.0688">
        <ele>231.8</ele>
        <time>2026-08-10T10:37:27.000Z</time>
      </trkpt>
      <trkpt lat="45.85771" lon="1.06832">
        <ele>231.9</ele>
        <time>2026-08-10T10:37:31.000Z</time>
      </trkpt>
      <trkpt lat="45.85773" lon="1.06809">
        <ele>229.5</ele>
        <time>2026-08-10T10:37:33.000Z</time>
      </trkpt>
      <trkpt lat="45.85777" lon="1.06783">
        <ele>228.9</ele>
        <time>2026-08-10T10:37:35.000Z</time>
      </trkpt>
      <trkpt lat="45.85779" lon="1.06773">
        <ele>228.9</ele>
        <time>2026-08-10T10:37:36.000Z</time>
      </trkpt>
      <trkpt lat="45.85785" lon="1.06743">
        <ele>228.4</ele>
        <time>2026-08-10T10:37:39.000Z</time>
      </trkpt>
      <trkpt lat="45.8579" lon="1.06719">
        <ele>230</ele>
        <time>2026-08-10T10:37:42.000Z</time>
      </trkpt>
      <trkpt lat="45.85793" lon="1.06707">
        <ele>231.4</ele>
        <time>2026-08-10T10:37:44.000Z</time>
      </trkpt>
      <trkpt lat="45.85803" lon="1.06682">
        <ele>233.5</ele>
        <time>2026-08-10T10:37:49.000Z</time>
      </trkpt>
      <trkpt lat="45.85808" lon="1.06669">
        <ele>233.6</ele>
        <time>2026-08-10T10:37:52.000Z</time>
      </trkpt>
      <trkpt lat="45.85813" lon="1.0666">
        <ele>233.8</ele>
        <time>2026-08-10T10:37:55.000Z</time>
      </trkpt>
      <trkpt lat="45.85822" lon="1.06647">
        <ele>234.2</ele>
        <time>2026-08-10T10:37:59.000Z</time>
      </trkpt>
      <trkpt lat="45.85823" lon="1.06644">
        <ele>234.1</ele>
        <time>2026-08-10T10:38:00.000Z</time>
      </trkpt>
      <trkpt lat="45.85834" lon="1.06633">
        <ele>233.4</ele>
        <time>2026-08-10T10:38:05.000Z</time>
      </trkpt>
      <trkpt lat="45.85839" lon="1.06628">
        <ele>233.9</ele>
        <time>2026-08-10T10:38:07.000Z</time>
      </trkpt>
      <trkpt lat="45.85855" lon="1.06617">
        <ele>236.2</ele>
        <time>2026-08-10T10:38:14.000Z</time>
      </trkpt>
      <trkpt lat="45.8586" lon="1.06615">
        <ele>237.1</ele>
        <time>2026-08-10T10:38:16.000Z</time>
      </trkpt>
      <trkpt lat="45.85874" lon="1.0661">
        <ele>239</ele>
        <time>2026-08-10T10:38:22.000Z</time>
      </trkpt>
      <trkpt lat="45.85876" lon="1.06608">
        <ele>239.3</ele>
        <time>2026-08-10T10:38:23.000Z</time>
      </trkpt>
      <trkpt lat="45.85896" lon="1.06602">
        <ele>241.1</ele>
        <time>2026-08-10T10:38:31.000Z</time>
      </trkpt>
      <trkpt lat="45.85897" lon="1.06601">
        <ele>241.2</ele>
        <time>2026-08-10T10:38:32.000Z</time>
      </trkpt>
      <trkpt lat="45.85909" lon="1.06599">
        <ele>242.1</ele>
        <time>2026-08-10T10:38:37.000Z</time>
      </trkpt>
      <trkpt lat="45.85912" lon="1.06599">
        <ele>242.2</ele>
        <time>2026-08-10T10:38:38.000Z</time>
      </trkpt>
      <trkpt lat="45.85916" lon="1.06598">
        <ele>242.5</ele>
        <time>2026-08-10T10:38:40.000Z</time>
      </trkpt>
      <trkpt lat="45.8593" lon="1.0659">
        <ele>242.6</ele>
        <time>2026-08-10T10:38:46.000Z</time>
      </trkpt>
      <trkpt lat="45.85934" lon="1.06586">
        <ele>242.7</ele>
        <time>2026-08-10T10:38:48.000Z</time>
      </trkpt>
      <trkpt lat="45.85941" lon="1.06578">
        <ele>243.1</ele>
        <time>2026-08-10T10:38:53.000Z</time>
      </trkpt>
      <trkpt lat="45.85947" lon="1.06567">
        <ele>243.6</ele>
        <time>2026-08-10T10:38:58.000Z</time>
      </trkpt>
      <trkpt lat="45.8595" lon="1.06558">
        <ele>243.9</ele>
        <time>2026-08-10T10:39:01.000Z</time>
      </trkpt>
      <trkpt lat="45.85951" lon="1.06555">
        <ele>244</ele>
        <time>2026-08-10T10:39:02.000Z</time>
      </trkpt>
      <trkpt lat="45.85956" lon="1.06542">
        <ele>244.8</ele>
        <time>2026-08-10T10:39:07.000Z</time>
      </trkpt>
      <trkpt lat="45.8596" lon="1.06531">
        <ele>245.3</ele>
        <time>2026-08-10T10:39:10.000Z</time>
      </trkpt>
      <trkpt lat="45.85961" lon="1.06522">
        <ele>245.6</ele>
        <time>2026-08-10T10:39:13.000Z</time>
      </trkpt>
      <trkpt lat="45.85967" lon="1.06497">
        <ele>245.8</ele>
        <time>2026-08-10T10:39:20.000Z</time>
      </trkpt>
      <trkpt lat="45.85969" lon="1.06488">
        <ele>246.2</ele>
        <time>2026-08-10T10:39:22.000Z</time>
      </trkpt>
      <trkpt lat="45.85973" lon="1.06468">
        <ele>247.1</ele>
        <time>2026-08-10T10:39:28.000Z</time>
      </trkpt>
      <trkpt lat="45.85976" lon="1.06455">
        <ele>247.1</ele>
        <time>2026-08-10T10:39:32.000Z</time>
      </trkpt>
      <trkpt lat="45.8598" lon="1.06439">
        <ele>247.3</ele>
        <time>2026-08-10T10:39:37.000Z</time>
      </trkpt>
      <trkpt lat="45.8598" lon="1.06431">
        <ele>247.3</ele>
        <time>2026-08-10T10:39:39.000Z</time>
      </trkpt>
      <trkpt lat="45.85985" lon="1.06401">
        <ele>248.2</ele>
        <time>2026-08-10T10:39:46.000Z</time>
      </trkpt>
      <trkpt lat="45.85991" lon="1.06373">
        <ele>249.2</ele>
        <time>2026-08-10T10:39:52.000Z</time>
      </trkpt>
      <trkpt lat="45.85999" lon="1.06334">
        <ele>250</ele>
        <time>2026-08-10T10:40:00.000Z</time>
      </trkpt>
      <trkpt lat="45.86005" lon="1.06316">
        <ele>249.4</ele>
        <time>2026-08-10T10:40:04.000Z</time>
      </trkpt>
      <trkpt lat="45.8601" lon="1.06301">
        <ele>249.5</ele>
        <time>2026-08-10T10:40:07.000Z</time>
      </trkpt>
      <trkpt lat="45.86018" lon="1.06282">
        <ele>250.5</ele>
        <time>2026-08-10T10:40:11.000Z</time>
      </trkpt>
      <trkpt lat="45.86028" lon="1.06263">
        <ele>250.5</ele>
        <time>2026-08-10T10:40:15.000Z</time>
      </trkpt>
      <trkpt lat="45.86058" lon="1.06213">
        <ele>248.8</ele>
        <time>2026-08-10T10:40:26.000Z</time>
      </trkpt>
      <trkpt lat="45.86087" lon="1.06162">
        <ele>247.8</ele>
        <time>2026-08-10T10:40:37.000Z</time>
      </trkpt>
      <trkpt lat="45.86107" lon="1.06131">
        <ele>246.3</ele>
        <time>2026-08-10T10:40:44.000Z</time>
      </trkpt>
      <trkpt lat="45.86112" lon="1.06123">
        <ele>247.2</ele>
        <time>2026-08-10T10:40:46.000Z</time>
      </trkpt>
      <trkpt lat="45.86135" lon="1.06084">
        <ele>249</ele>
        <time>2026-08-10T10:40:54.000Z</time>
      </trkpt>
      <trkpt lat="45.86158" lon="1.06046">
        <ele>250.2</ele>
        <time>2026-08-10T10:41:02.000Z</time>
      </trkpt>
      <trkpt lat="45.86181" lon="1.06007">
        <ele>251</ele>
        <time>2026-08-10T10:41:11.000Z</time>
      </trkpt>
      <trkpt lat="45.86197" lon="1.05982">
        <ele>251.4</ele>
        <time>2026-08-10T10:41:17.000Z</time>
      </trkpt>
      <trkpt lat="45.86204" lon="1.05969">
        <ele>252.5</ele>
        <time>2026-08-10T10:41:20.000Z</time>
      </trkpt>
      <trkpt lat="45.86224" lon="1.05927">
        <ele>251.6</ele>
        <time>2026-08-10T10:41:29.000Z</time>
      </trkpt>
      <trkpt lat="45.86236" lon="1.05891">
        <ele>253</ele>
        <time>2026-08-10T10:41:35.000Z</time>
      </trkpt>
      <trkpt lat="45.86239" lon="1.05884">
        <ele>252.9</ele>
        <time>2026-08-10T10:41:36.000Z</time>
      </trkpt>
      <trkpt lat="45.86248" lon="1.05855">
        <ele>250.6</ele>
        <time>2026-08-10T10:41:40.000Z</time>
      </trkpt>
      <trkpt lat="45.8625" lon="1.05847">
        <ele>250</ele>
        <time>2026-08-10T10:41:41.000Z</time>
      </trkpt>
      <trkpt lat="45.8626" lon="1.05817">
        <ele>248.8</ele>
        <time>2026-08-10T10:41:44.000Z</time>
      </trkpt>
      <trkpt lat="45.86265" lon="1.05796">
        <ele>248.2</ele>
        <time>2026-08-10T10:41:46.000Z</time>
      </trkpt>
      <trkpt lat="45.8627" lon="1.05772">
        <ele>247.2</ele>
        <time>2026-08-10T10:41:48.000Z</time>
      </trkpt>
      <trkpt lat="45.86276" lon="1.05753">
        <ele>245.3</ele>
        <time>2026-08-10T10:41:50.000Z</time>
      </trkpt>
      <trkpt lat="45.8628" lon="1.0574">
        <ele>243.9</ele>
        <time>2026-08-10T10:41:51.000Z</time>
      </trkpt>
      <trkpt lat="45.86285" lon="1.05729">
        <ele>241.8</ele>
        <time>2026-08-10T10:41:52.000Z</time>
      </trkpt>
      <trkpt lat="45.86296" lon="1.05714">
        <ele>239</ele>
        <time>2026-08-10T10:41:54.000Z</time>
      </trkpt>
      <trkpt lat="45.86304" lon="1.05707">
        <ele>239.3</ele>
        <time>2026-08-10T10:41:55.000Z</time>
      </trkpt>
      <trkpt lat="45.86312" lon="1.05702">
        <ele>240.8</ele>
        <time>2026-08-10T10:41:56.000Z</time>
      </trkpt>
      <trkpt lat="45.86321" lon="1.057">
        <ele>241.7</ele>
        <time>2026-08-10T10:41:57.000Z</time>
      </trkpt>
      <trkpt lat="45.86335" lon="1.05701">
        <ele>242.4</ele>
        <time>2026-08-10T10:41:59.000Z</time>
      </trkpt>
      <trkpt lat="45.8635" lon="1.05706">
        <ele>243.3</ele>
        <time>2026-08-10T10:42:01.000Z</time>
      </trkpt>
      <trkpt lat="45.86357" lon="1.0571">
        <ele>243.8</ele>
        <time>2026-08-10T10:42:02.000Z</time>
      </trkpt>
      <trkpt lat="45.86386" lon="1.05729">
        <ele>245</ele>
        <time>2026-08-10T10:42:07.000Z</time>
      </trkpt>
      <trkpt lat="45.86396" lon="1.05736">
        <ele>245.4</ele>
        <time>2026-08-10T10:42:09.000Z</time>
      </trkpt>
      <trkpt lat="45.86405" lon="1.05743">
        <ele>245.7</ele>
        <time>2026-08-10T10:42:11.000Z</time>
      </trkpt>
      <trkpt lat="45.86408" lon="1.05745">
        <ele>245.7</ele>
        <time>2026-08-10T10:42:12.000Z</time>
      </trkpt>
      <trkpt lat="45.8641" lon="1.05747">
        <ele>245.7</ele>
        <time>2026-08-10T10:42:13.000Z</time>
      </trkpt>
      <trkpt lat="45.86413" lon="1.05748">
        <ele>245.8</ele>
        <time>2026-08-10T10:42:14.000Z</time>
      </trkpt>
      <trkpt lat="45.86416" lon="1.0575">
        <ele>246</ele>
        <time>2026-08-10T10:42:15.000Z</time>
      </trkpt>
      <trkpt lat="45.86428" lon="1.05755">
        <ele>245.9</ele>
        <time>2026-08-10T10:42:19.000Z</time>
      </trkpt>
      <trkpt lat="45.86438" lon="1.05762">
        <ele>245.8</ele>
        <time>2026-08-10T10:42:22.000Z</time>
      </trkpt>
      <trkpt lat="45.86458" lon="1.05771">
        <ele>247.7</ele>
        <time>2026-08-10T10:42:27.000Z</time>
      </trkpt>
      <trkpt lat="45.86463" lon="1.05773">
        <ele>248.2</ele>
        <time>2026-08-10T10:42:28.000Z</time>
      </trkpt>
      <trkpt lat="45.86477" lon="1.05779">
        <ele>249</ele>
        <time>2026-08-10T10:42:33.000Z</time>
      </trkpt>
      <trkpt lat="45.86484" lon="1.05782">
        <ele>248.2</ele>
        <time>2026-08-10T10:42:36.000Z</time>
      </trkpt>
      <trkpt lat="45.86491" lon="1.05782">
        <ele>248.3</ele>
        <time>2026-08-10T10:42:38.000Z</time>
      </trkpt>
      <trkpt lat="45.865" lon="1.05782">
        <ele>248.6</ele>
        <time>2026-08-10T10:42:43.000Z</time>
      </trkpt>
      <trkpt lat="45.86502" lon="1.05781">
        <ele>248.8</ele>
        <time>2026-08-10T10:42:44.000Z</time>
      </trkpt>
      <trkpt lat="45.86515" lon="1.05778">
        <ele>249.8</ele>
        <time>2026-08-10T10:42:50.000Z</time>
      </trkpt>
      <trkpt lat="45.86533" lon="1.05771">
        <ele>251.5</ele>
        <time>2026-08-10T10:42:55.000Z</time>
      </trkpt>
      <trkpt lat="45.86552" lon="1.05761">
        <ele>252.9</ele>
        <time>2026-08-10T10:43:01.000Z</time>
      </trkpt>
      <trkpt lat="45.8656" lon="1.05756">
        <ele>253.1</ele>
        <time>2026-08-10T10:43:04.000Z</time>
      </trkpt>
      <trkpt lat="45.86568" lon="1.0575">
        <ele>253.2</ele>
        <time>2026-08-10T10:43:07.000Z</time>
      </trkpt>
      <trkpt lat="45.86576" lon="1.05741">
        <ele>253.3</ele>
        <time>2026-08-10T10:43:11.000Z</time>
      </trkpt>
      <trkpt lat="45.86582" lon="1.05733">
        <ele>253.6</ele>
        <time>2026-08-10T10:43:14.000Z</time>
      </trkpt>
      <trkpt lat="45.86596" lon="1.05711">
        <ele>253</ele>
        <time>2026-08-10T10:43:21.000Z</time>
      </trkpt>
      <trkpt lat="45.86597" lon="1.05708">
        <ele>253.1</ele>
        <time>2026-08-10T10:43:22.000Z</time>
      </trkpt>
      <trkpt lat="45.866" lon="1.05701">
        <ele>253.4</ele>
        <time>2026-08-10T10:43:25.000Z</time>
      </trkpt>
      <trkpt lat="45.86607" lon="1.05687">
        <ele>254.3</ele>
        <time>2026-08-10T10:43:30.000Z</time>
      </trkpt>
      <trkpt lat="45.8662" lon="1.05662">
        <ele>254.9</ele>
        <time>2026-08-10T10:43:37.000Z</time>
      </trkpt>
      <trkpt lat="45.86625" lon="1.05649">
        <ele>255.7</ele>
        <time>2026-08-10T10:43:41.000Z</time>
      </trkpt>
      <trkpt lat="45.86627" lon="1.05645">
        <ele>256</ele>
        <time>2026-08-10T10:43:42.000Z</time>
      </trkpt>
      <trkpt lat="45.86641" lon="1.0562">
        <ele>256.8</ele>
        <time>2026-08-10T10:43:50.000Z</time>
      </trkpt>
      <trkpt lat="45.86643" lon="1.05616">
        <ele>257</ele>
        <time>2026-08-10T10:43:51.000Z</time>
      </trkpt>
      <trkpt lat="45.86658" lon="1.0559">
        <ele>256.4</ele>
        <time>2026-08-10T10:43:58.000Z</time>
      </trkpt>
      <trkpt lat="45.86669" lon="1.05563">
        <ele>257.4</ele>
        <time>2026-08-10T10:44:04.000Z</time>
      </trkpt>
      <trkpt lat="45.8668" lon="1.05538">
        <ele>257</ele>
        <time>2026-08-10T10:44:10.000Z</time>
      </trkpt>
      <trkpt lat="45.86689" lon="1.05512">
        <ele>257.1</ele>
        <time>2026-08-10T10:44:16.000Z</time>
      </trkpt>
      <trkpt lat="45.86697" lon="1.05486">
        <ele>258</ele>
        <time>2026-08-10T10:44:22.000Z</time>
      </trkpt>
      <trkpt lat="45.86708" lon="1.05456">
        <ele>258.2</ele>
        <time>2026-08-10T10:44:28.000Z</time>
      </trkpt>
      <trkpt lat="45.8672" lon="1.05426">
        <ele>258.4</ele>
        <time>2026-08-10T10:44:34.000Z</time>
      </trkpt>
      <trkpt lat="45.86738" lon="1.05391">
        <ele>257.4</ele>
        <time>2026-08-10T10:44:42.000Z</time>
      </trkpt>
      <trkpt lat="45.86739" lon="1.05387">
        <ele>257.5</ele>
        <time>2026-08-10T10:44:43.000Z</time>
      </trkpt>
      <trkpt lat="45.86748" lon="1.05362">
        <ele>258.4</ele>
        <time>2026-08-10T10:44:48.000Z</time>
      </trkpt>
      <trkpt lat="45.86758" lon="1.05335">
        <ele>258.4</ele>
        <time>2026-08-10T10:44:54.000Z</time>
      </trkpt>
      <trkpt lat="45.86774" lon="1.05297">
        <ele>258.3</ele>
        <time>2026-08-10T10:45:02.000Z</time>
      </trkpt>
      <trkpt lat="45.8678" lon="1.05257">
        <ele>258.4</ele>
        <time>2026-08-10T10:45:09.000Z</time>
      </trkpt>
      <trkpt lat="45.86782" lon="1.05222">
        <ele>259.8</ele>
        <time>2026-08-10T10:45:15.000Z</time>
      </trkpt>
      <trkpt lat="45.86787" lon="1.05194">
        <ele>258.6</ele>
        <time>2026-08-10T10:45:19.000Z</time>
      </trkpt>
      <trkpt lat="45.86798" lon="1.05152">
        <ele>257.4</ele>
        <time>2026-08-10T10:45:25.000Z</time>
      </trkpt>
      <trkpt lat="45.86802" lon="1.05141">
        <ele>257.5</ele>
        <time>2026-08-10T10:45:27.000Z</time>
      </trkpt>
      <trkpt lat="45.86807" lon="1.05126">
        <ele>257.6</ele>
        <time>2026-08-10T10:45:30.000Z</time>
      </trkpt>
      <trkpt lat="45.86825" lon="1.0509">
        <ele>256.5</ele>
        <time>2026-08-10T10:45:37.000Z</time>
      </trkpt>
      <trkpt lat="45.86854" lon="1.05041">
        <ele>258.2</ele>
        <time>2026-08-10T10:45:46.000Z</time>
      </trkpt>
      <trkpt lat="45.86873" lon="1.0501">
        <ele>258.7</ele>
        <time>2026-08-10T10:45:52.000Z</time>
      </trkpt>
      <trkpt lat="45.86879" lon="1.04999">
        <ele>258.7</ele>
        <time>2026-08-10T10:45:54.000Z</time>
      </trkpt>
      <trkpt lat="45.86892" lon="1.04983">
        <ele>258.2</ele>
        <time>2026-08-10T10:45:57.000Z</time>
      </trkpt>
      <trkpt lat="45.86904" lon="1.04967">
        <ele>256.6</ele>
        <time>2026-08-10T10:46:00.000Z</time>
      </trkpt>
      <trkpt lat="45.86913" lon="1.04957">
        <ele>256.2</ele>
        <time>2026-08-10T10:46:02.000Z</time>
      </trkpt>
      <trkpt lat="45.86922" lon="1.04948">
        <ele>256.1</ele>
        <time>2026-08-10T10:46:04.000Z</time>
      </trkpt>
      <trkpt lat="45.86929" lon="1.04944">
        <ele>256.2</ele>
        <time>2026-08-10T10:46:05.000Z</time>
      </trkpt>
      <trkpt lat="45.86935" lon="1.04941">
        <ele>256.1</ele>
        <time>2026-08-10T10:46:06.000Z</time>
      </trkpt>
      <trkpt lat="45.86948" lon="1.04938">
        <ele>256.3</ele>
        <time>2026-08-10T10:46:08.000Z</time>
      </trkpt>
      <trkpt lat="45.86954" lon="1.04938">
        <ele>256.4</ele>
        <time>2026-08-10T10:46:09.000Z</time>
      </trkpt>
      <trkpt lat="45.86985" lon="1.04943">
        <ele>255.7</ele>
        <time>2026-08-10T10:46:14.000Z</time>
      </trkpt>
      <trkpt lat="45.8699" lon="1.04944">
        <ele>255.5</ele>
        <time>2026-08-10T10:46:15.000Z</time>
      </trkpt>
      <trkpt lat="45.87022" lon="1.04945">
        <ele>254.2</ele>
        <time>2026-08-10T10:46:20.000Z</time>
      </trkpt>
      <trkpt lat="45.87037" lon="1.04942">
        <ele>253.5</ele>
        <time>2026-08-10T10:46:22.000Z</time>
      </trkpt>
      <trkpt lat="45.87059" lon="1.04933">
        <ele>252.3</ele>
        <time>2026-08-10T10:46:25.000Z</time>
      </trkpt>
      <trkpt lat="45.87073" lon="1.04926">
        <ele>252.1</ele>
        <time>2026-08-10T10:46:27.000Z</time>
      </trkpt>
      <trkpt lat="45.87099" lon="1.04907">
        <ele>250.5</ele>
        <time>2026-08-10T10:46:31.000Z</time>
      </trkpt>
      <trkpt lat="45.87106" lon="1.04901">
        <ele>250</ele>
        <time>2026-08-10T10:46:32.000Z</time>
      </trkpt>
      <trkpt lat="45.87112" lon="1.04895">
        <ele>249.7</ele>
        <time>2026-08-10T10:46:33.000Z</time>
      </trkpt>
      <trkpt lat="45.87123" lon="1.04879">
        <ele>248.7</ele>
        <time>2026-08-10T10:46:35.000Z</time>
      </trkpt>
      <trkpt lat="45.87129" lon="1.04871">
        <ele>248.5</ele>
        <time>2026-08-10T10:46:36.000Z</time>
      </trkpt>
      <trkpt lat="45.87144" lon="1.04843">
        <ele>248.1</ele>
        <time>2026-08-10T10:46:39.000Z</time>
      </trkpt>
      <trkpt lat="45.87152" lon="1.04824">
        <ele>247.8</ele>
        <time>2026-08-10T10:46:41.000Z</time>
      </trkpt>
      <trkpt lat="45.87164" lon="1.04793">
        <ele>246.9</ele>
        <time>2026-08-10T10:46:44.000Z</time>
      </trkpt>
      <trkpt lat="45.87184" lon="1.04741">
        <ele>245.4</ele>
        <time>2026-08-10T10:46:49.000Z</time>
      </trkpt>
      <trkpt lat="45.87189" lon="1.04731">
        <ele>245.3</ele>
        <time>2026-08-10T10:46:50.000Z</time>
      </trkpt>
      <trkpt lat="45.87203" lon="1.04702">
        <ele>243.7</ele>
        <time>2026-08-10T10:46:53.000Z</time>
      </trkpt>
      <trkpt lat="45.87208" lon="1.04693">
        <ele>243.3</ele>
        <time>2026-08-10T10:46:54.000Z</time>
      </trkpt>
      <trkpt lat="45.87217" lon="1.04674">
        <ele>243.2</ele>
        <time>2026-08-10T10:46:56.000Z</time>
      </trkpt>
      <trkpt lat="45.87222" lon="1.04665">
        <ele>243.1</ele>
        <time>2026-08-10T10:46:57.000Z</time>
      </trkpt>
      <trkpt lat="45.87236" lon="1.04637">
        <ele>242.1</ele>
        <time>2026-08-10T10:47:00.000Z</time>
      </trkpt>
      <trkpt lat="45.87254" lon="1.04599">
        <ele>240.1</ele>
        <time>2026-08-10T10:47:04.000Z</time>
      </trkpt>
      <trkpt lat="45.87269" lon="1.04569">
        <ele>237.8</ele>
        <time>2026-08-10T10:47:07.000Z</time>
      </trkpt>
      <trkpt lat="45.87284" lon="1.04544">
        <ele>237.6</ele>
        <time>2026-08-10T10:47:10.000Z</time>
      </trkpt>
      <trkpt lat="45.87289" lon="1.04535">
        <ele>237.3</ele>
        <time>2026-08-10T10:47:11.000Z</time>
      </trkpt>
      <trkpt lat="45.87306" lon="1.04511">
        <ele>237.4</ele>
        <time>2026-08-10T10:47:14.000Z</time>
      </trkpt>
      <trkpt lat="45.87321" lon="1.0449">
        <ele>236.6</ele>
        <time>2026-08-10T10:47:17.000Z</time>
      </trkpt>
      <trkpt lat="45.87332" lon="1.04474">
        <ele>236.1</ele>
        <time>2026-08-10T10:47:19.000Z</time>
      </trkpt>
      <trkpt lat="45.87349" lon="1.04452">
        <ele>235.3</ele>
        <time>2026-08-10T10:47:22.000Z</time>
      </trkpt>
      <trkpt lat="45.87354" lon="1.04446">
        <ele>234.8</ele>
        <time>2026-08-10T10:47:23.000Z</time>
      </trkpt>
      <trkpt lat="45.87377" lon="1.04414">
        <ele>232.5</ele>
        <time>2026-08-10T10:47:27.000Z</time>
      </trkpt>
      <trkpt lat="45.87387" lon="1.04398">
        <ele>232.4</ele>
        <time>2026-08-10T10:47:29.000Z</time>
      </trkpt>
      <trkpt lat="45.87399" lon="1.04381">
        <ele>231.5</ele>
        <time>2026-08-10T10:47:31.000Z</time>
      </trkpt>
      <trkpt lat="45.87418" lon="1.04353">
        <ele>229.7</ele>
        <time>2026-08-10T10:47:34.000Z</time>
      </trkpt>
      <trkpt lat="45.87435" lon="1.04328">
        <ele>228.9</ele>
        <time>2026-08-10T10:47:37.000Z</time>
      </trkpt>
      <trkpt lat="45.8744" lon="1.04321">
        <ele>228.9</ele>
        <time>2026-08-10T10:47:38.000Z</time>
      </trkpt>
      <trkpt lat="45.87457" lon="1.04299">
        <ele>229</ele>
        <time>2026-08-10T10:47:41.000Z</time>
      </trkpt>
      <trkpt lat="45.87463" lon="1.04294">
        <ele>228.6</ele>
        <time>2026-08-10T10:47:42.000Z</time>
      </trkpt>
      <trkpt lat="45.87471" lon="1.04287">
        <ele>228.2</ele>
        <time>2026-08-10T10:47:43.000Z</time>
      </trkpt>
      <trkpt lat="45.87486" lon="1.04273">
        <ele>227</ele>
        <time>2026-08-10T10:47:45.000Z</time>
      </trkpt>
      <trkpt lat="45.87509" lon="1.04246">
        <ele>225</ele>
        <time>2026-08-10T10:47:48.000Z</time>
      </trkpt>
      <trkpt lat="45.87516" lon="1.04236">
        <ele>224.3</ele>
        <time>2026-08-10T10:47:49.000Z</time>
      </trkpt>
      <trkpt lat="45.87533" lon="1.04211">
        <ele>222.8</ele>
        <time>2026-08-10T10:47:52.000Z</time>
      </trkpt>
      <trkpt lat="45.87539" lon="1.04201">
        <ele>222.1</ele>
        <time>2026-08-10T10:47:53.000Z</time>
      </trkpt>
      <trkpt lat="45.87556" lon="1.04172">
        <ele>221.7</ele>
        <time>2026-08-10T10:47:56.000Z</time>
      </trkpt>
      <trkpt lat="45.87576" lon="1.04142">
        <ele>219.9</ele>
        <time>2026-08-10T10:47:59.000Z</time>
      </trkpt>
      <trkpt lat="45.87589" lon="1.04111">
        <ele>218.8</ele>
        <time>2026-08-10T10:48:02.000Z</time>
      </trkpt>
      <trkpt lat="45.87594" lon="1.041">
        <ele>218.3</ele>
        <time>2026-08-10T10:48:03.000Z</time>
      </trkpt>
      <trkpt lat="45.876" lon="1.04078">
        <ele>218.4</ele>
        <time>2026-08-10T10:48:05.000Z</time>
      </trkpt>
      <trkpt lat="45.87601" lon="1.04067">
        <ele>218.4</ele>
        <time>2026-08-10T10:48:06.000Z</time>
      </trkpt>
      <trkpt lat="45.876" lon="1.04056">
        <ele>218.8</ele>
        <time>2026-08-10T10:48:07.000Z</time>
      </trkpt>
      <trkpt lat="45.87599" lon="1.04032">
        <ele>218.7</ele>
        <time>2026-08-10T10:48:09.000Z</time>
      </trkpt>
      <trkpt lat="45.87598" lon="1.04021">
        <ele>218.4</ele>
        <time>2026-08-10T10:48:10.000Z</time>
      </trkpt>
      <trkpt lat="45.87596" lon="1.0401">
        <ele>217.9</ele>
        <time>2026-08-10T10:48:11.000Z</time>
      </trkpt>
      <trkpt lat="45.87588" lon="1.03989">
        <ele>217.2</ele>
        <time>2026-08-10T10:48:13.000Z</time>
      </trkpt>
      <trkpt lat="45.87577" lon="1.03972">
        <ele>216.7</ele>
        <time>2026-08-10T10:48:15.000Z</time>
      </trkpt>
      <trkpt lat="45.87571" lon="1.03967">
        <ele>216.7</ele>
        <time>2026-08-10T10:48:16.000Z</time>
      </trkpt>
      <trkpt lat="45.87555" lon="1.03951">
        <ele>216</ele>
        <time>2026-08-10T10:48:18.000Z</time>
      </trkpt>
      <trkpt lat="45.87543" lon="1.03932">
        <ele>212.7</ele>
        <time>2026-08-10T10:48:20.000Z</time>
      </trkpt>
      <trkpt lat="45.8754" lon="1.03907">
        <ele>210.9</ele>
        <time>2026-08-10T10:48:22.000Z</time>
      </trkpt>
      <trkpt lat="45.87546" lon="1.03883">
        <ele>212.6</ele>
        <time>2026-08-10T10:48:24.000Z</time>
      </trkpt>
      <trkpt lat="45.8755" lon="1.03873">
        <ele>213</ele>
        <time>2026-08-10T10:48:25.000Z</time>
      </trkpt>
      <trkpt lat="45.87561" lon="1.03849">
        <ele>212.3</ele>
        <time>2026-08-10T10:48:27.000Z</time>
      </trkpt>
      <trkpt lat="45.87581" lon="1.03806">
        <ele>209.7</ele>
        <time>2026-08-10T10:48:31.000Z</time>
      </trkpt>
      <trkpt lat="45.87589" lon="1.03784">
        <ele>209.1</ele>
        <time>2026-08-10T10:48:33.000Z</time>
      </trkpt>
      <trkpt lat="45.87603" lon="1.03754">
        <ele>209.3</ele>
        <time>2026-08-10T10:48:36.000Z</time>
      </trkpt>
      <trkpt lat="45.8762" lon="1.03716">
        <ele>208.2</ele>
        <time>2026-08-10T10:48:40.000Z</time>
      </trkpt>
      <trkpt lat="45.87628" lon="1.03696">
        <ele>207.8</ele>
        <time>2026-08-10T10:48:42.000Z</time>
      </trkpt>
      <trkpt lat="45.87644" lon="1.03655">
        <ele>206.3</ele>
        <time>2026-08-10T10:48:46.000Z</time>
      </trkpt>
      <trkpt lat="45.87647" lon="1.03645">
        <ele>205.5</ele>
        <time>2026-08-10T10:48:47.000Z</time>
      </trkpt>
      <trkpt lat="45.87651" lon="1.03624">
        <ele>205</ele>
        <time>2026-08-10T10:48:49.000Z</time>
      </trkpt>
      <trkpt lat="45.87652" lon="1.03601">
        <ele>204.9</ele>
        <time>2026-08-10T10:48:51.000Z</time>
      </trkpt>
      <trkpt lat="45.87652" lon="1.0359">
        <ele>204.6</ele>
        <time>2026-08-10T10:48:52.000Z</time>
      </trkpt>
      <trkpt lat="45.87651" lon="1.03531">
        <ele>202.8</ele>
        <time>2026-08-10T10:48:57.000Z</time>
      </trkpt>
      <trkpt lat="45.8765" lon="1.03467">
        <ele>201.7</ele>
        <time>2026-08-10T10:49:03.000Z</time>
      </trkpt>
      <trkpt lat="45.87646" lon="1.03402">
        <ele>200.1</ele>
        <time>2026-08-10T10:49:09.000Z</time>
      </trkpt>
      <trkpt lat="45.87644" lon="1.03374">
        <ele>198.9</ele>
        <time>2026-08-10T10:49:11.000Z</time>
      </trkpt>
      <trkpt lat="45.87643" lon="1.03361">
        <ele>198.4</ele>
        <time>2026-08-10T10:49:12.000Z</time>
      </trkpt>
      <trkpt lat="45.87638" lon="1.03323">
        <ele>199.1</ele>
        <time>2026-08-10T10:49:15.000Z</time>
      </trkpt>
      <trkpt lat="45.87637" lon="1.0331">
        <ele>199.2</ele>
        <time>2026-08-10T10:49:16.000Z</time>
      </trkpt>
      <trkpt lat="45.87632" lon="1.03271">
        <ele>197</ele>
        <time>2026-08-10T10:49:19.000Z</time>
      </trkpt>
      <trkpt lat="45.87628" lon="1.03245">
        <ele>195.5</ele>
        <time>2026-08-10T10:49:21.000Z</time>
      </trkpt>
      <trkpt lat="45.87624" lon="1.03232">
        <ele>195.1</ele>
        <time>2026-08-10T10:49:22.000Z</time>
      </trkpt>
      <trkpt lat="45.8762" lon="1.03221">
        <ele>194.6</ele>
        <time>2026-08-10T10:49:23.000Z</time>
      </trkpt>
      <trkpt lat="45.8761" lon="1.03203">
        <ele>193.6</ele>
        <time>2026-08-10T10:49:25.000Z</time>
      </trkpt>
      <trkpt lat="45.87603" lon="1.03195">
        <ele>193.1</ele>
        <time>2026-08-10T10:49:26.000Z</time>
      </trkpt>
      <trkpt lat="45.87589" lon="1.03181">
        <ele>192</ele>
        <time>2026-08-10T10:49:28.000Z</time>
      </trkpt>
      <trkpt lat="45.87583" lon="1.03172">
        <ele>191.3</ele>
        <time>2026-08-10T10:49:29.000Z</time>
      </trkpt>
      <trkpt lat="45.87576" lon="1.0315">
        <ele>188.1</ele>
        <time>2026-08-10T10:49:31.000Z</time>
      </trkpt>
      <trkpt lat="45.87575" lon="1.03134">
        <ele>186.5</ele>
        <time>2026-08-10T10:49:32.000Z</time>
      </trkpt>
      <trkpt lat="45.87577" lon="1.03121">
        <ele>187.1</ele>
        <time>2026-08-10T10:49:33.000Z</time>
      </trkpt>
      <trkpt lat="45.87581" lon="1.03108">
        <ele>188</ele>
        <time>2026-08-10T10:49:34.000Z</time>
      </trkpt>
      <trkpt lat="45.87587" lon="1.03097">
        <ele>188.6</ele>
        <time>2026-08-10T10:49:35.000Z</time>
      </trkpt>
      <trkpt lat="45.87593" lon="1.03087">
        <ele>188.9</ele>
        <time>2026-08-10T10:49:36.000Z</time>
      </trkpt>
      <trkpt lat="45.87608" lon="1.03065">
        <ele>189.9</ele>
        <time>2026-08-10T10:49:39.000Z</time>
      </trkpt>
      <trkpt lat="45.87613" lon="1.03058">
        <ele>189.8</ele>
        <time>2026-08-10T10:49:40.000Z</time>
      </trkpt>
      <trkpt lat="45.8762" lon="1.03045">
        <ele>190.2</ele>
        <time>2026-08-10T10:49:42.000Z</time>
      </trkpt>
      <trkpt lat="45.87625" lon="1.03033">
        <ele>190.7</ele>
        <time>2026-08-10T10:49:44.000Z</time>
      </trkpt>
      <trkpt lat="45.87627" lon="1.03026">
        <ele>191.1</ele>
        <time>2026-08-10T10:49:45.000Z</time>
      </trkpt>
      <trkpt lat="45.87634" lon="1.03001">
        <ele>192</ele>
        <time>2026-08-10T10:49:49.000Z</time>
      </trkpt>
      <trkpt lat="45.87634" lon="1.02988">
        <ele>191.6</ele>
        <time>2026-08-10T10:49:51.000Z</time>
      </trkpt>
      <trkpt lat="45.87634" lon="1.02981">
        <ele>191.4</ele>
        <time>2026-08-10T10:49:52.000Z</time>
      </trkpt>
      <trkpt lat="45.87634" lon="1.02974">
        <ele>191.2</ele>
        <time>2026-08-10T10:49:53.000Z</time>
      </trkpt>
      <trkpt lat="45.87632" lon="1.02961">
        <ele>191</ele>
        <time>2026-08-10T10:49:55.000Z</time>
      </trkpt>
      <trkpt lat="45.87616" lon="1.02912">
        <ele>191.4</ele>
        <time>2026-08-10T10:50:03.000Z</time>
      </trkpt>
      <trkpt lat="45.87613" lon="1.02907">
        <ele>191.4</ele>
        <time>2026-08-10T10:50:04.000Z</time>
      </trkpt>
      <trkpt lat="45.87603" lon="1.02879">
        <ele>191.6</ele>
        <time>2026-08-10T10:50:09.000Z</time>
      </trkpt>
      <trkpt lat="45.87601" lon="1.02873">
        <ele>191.5</ele>
        <time>2026-08-10T10:50:10.000Z</time>
      </trkpt>
      <trkpt lat="45.87597" lon="1.02849">
        <ele>191.3</ele>
        <time>2026-08-10T10:50:14.000Z</time>
      </trkpt>
      <trkpt lat="45.8759" lon="1.02803">
        <ele>190.6</ele>
        <time>2026-08-10T10:50:21.000Z</time>
      </trkpt>
      <trkpt lat="45.87589" lon="1.02793">
        <ele>190.4</ele>
        <time>2026-08-10T10:50:23.000Z</time>
      </trkpt>
      <trkpt lat="45.87588" lon="1.02781">
        <ele>190.1</ele>
        <time>2026-08-10T10:50:25.000Z</time>
      </trkpt>
      <trkpt lat="45.87583" lon="1.02745">
        <ele>190.9</ele>
        <time>2026-08-10T10:50:30.000Z</time>
      </trkpt>
      <trkpt lat="45.8758" lon="1.02737">
        <ele>191.3</ele>
        <time>2026-08-10T10:50:31.000Z</time>
      </trkpt>
      <trkpt lat="45.87579" lon="1.02706">
        <ele>190.2</ele>
        <time>2026-08-10T10:50:36.000Z</time>
      </trkpt>
      <trkpt lat="45.87571" lon="1.02653">
        <ele>190.1</ele>
        <time>2026-08-10T10:50:44.000Z</time>
      </trkpt>
      <trkpt lat="45.87566" lon="1.02619">
        <ele>189.6</ele>
        <time>2026-08-10T10:50:49.000Z</time>
      </trkpt>
      <trkpt lat="45.87564" lon="1.0261">
        <ele>189.4</ele>
        <time>2026-08-10T10:50:50.000Z</time>
      </trkpt>
      <trkpt lat="45.87553" lon="1.02574">
        <ele>188.7</ele>
        <time>2026-08-10T10:50:56.000Z</time>
      </trkpt>
      <trkpt lat="45.87551" lon="1.0256">
        <ele>189.7</ele>
        <time>2026-08-10T10:50:58.000Z</time>
      </trkpt>
      <trkpt lat="45.87547" lon="1.02541">
        <ele>190.1</ele>
        <time>2026-08-10T10:51:01.000Z</time>
      </trkpt>
      <trkpt lat="45.87544" lon="1.02534">
        <ele>190.3</ele>
        <time>2026-08-10T10:51:02.000Z</time>
      </trkpt>
      <trkpt lat="45.87539" lon="1.02517">
        <ele>190.6</ele>
        <time>2026-08-10T10:51:05.000Z</time>
      </trkpt>
      <trkpt lat="45.87538" lon="1.02511">
        <ele>190.8</ele>
        <time>2026-08-10T10:51:06.000Z</time>
      </trkpt>
      <trkpt lat="45.87536" lon="1.02498">
        <ele>190.7</ele>
        <time>2026-08-10T10:51:08.000Z</time>
      </trkpt>
      <trkpt lat="45.87535" lon="1.02491">
        <ele>190.7</ele>
        <time>2026-08-10T10:51:09.000Z</time>
      </trkpt>
      <trkpt lat="45.87531" lon="1.02466">
        <ele>190</ele>
        <time>2026-08-10T10:51:12.000Z</time>
      </trkpt>
      <trkpt lat="45.87516" lon="1.02411">
        <ele>190.3</ele>
        <time>2026-08-10T10:51:20.000Z</time>
      </trkpt>
      <trkpt lat="45.87513" lon="1.02397">
        <ele>190.5</ele>
        <time>2026-08-10T10:51:22.000Z</time>
      </trkpt>
      <trkpt lat="45.87511" lon="1.02387">
        <ele>190.7</ele>
        <time>2026-08-10T10:51:24.000Z</time>
      </trkpt>
      <trkpt lat="45.87505" lon="1.02354">
        <ele>191.1</ele>
        <time>2026-08-10T10:51:30.000Z</time>
      </trkpt>
      <trkpt lat="45.87498" lon="1.02321">
        <ele>192.1</ele>
        <time>2026-08-10T10:51:35.000Z</time>
      </trkpt>
      <trkpt lat="45.87483" lon="1.0228">
        <ele>191.3</ele>
        <time>2026-08-10T10:51:41.000Z</time>
      </trkpt>
      <trkpt lat="45.87469" lon="1.0224">
        <ele>190.1</ele>
        <time>2026-08-10T10:51:46.000Z</time>
      </trkpt>
      <trkpt lat="45.87462" lon="1.02208">
        <ele>190.4</ele>
        <time>2026-08-10T10:51:50.000Z</time>
      </trkpt>
      <trkpt lat="45.87461" lon="1.02202">
        <ele>190.4</ele>
        <time>2026-08-10T10:51:51.000Z</time>
      </trkpt>
      <trkpt lat="45.87461" lon="1.02193">
        <ele>190.4</ele>
        <time>2026-08-10T10:51:52.000Z</time>
      </trkpt>
      <trkpt lat="45.87461" lon="1.0216">
        <ele>188.6</ele>
        <time>2026-08-10T10:51:56.000Z</time>
      </trkpt>
      <trkpt lat="45.87461" lon="1.02146">
        <ele>187.8</ele>
        <time>2026-08-10T10:51:58.000Z</time>
      </trkpt>
      <trkpt lat="45.87457" lon="1.02139">
        <ele>188.3</ele>
        <time>2026-08-10T10:51:59.000Z</time>
      </trkpt>
      <trkpt lat="45.87454" lon="1.02122">
        <ele>188.6</ele>
        <time>2026-08-10T10:52:01.000Z</time>
      </trkpt>
      <trkpt lat="45.87454" lon="1.02108">
        <ele>188.2</ele>
        <time>2026-08-10T10:52:03.000Z</time>
      </trkpt>
      <trkpt lat="45.87455" lon="1.02083">
        <ele>187.4</ele>
        <time>2026-08-10T10:52:06.000Z</time>
      </trkpt>
      <trkpt lat="45.87455" lon="1.02048">
        <ele>187.4</ele>
        <time>2026-08-10T10:52:10.000Z</time>
      </trkpt>
      <trkpt lat="45.87455" lon="1.0203">
        <ele>187.2</ele>
        <time>2026-08-10T10:52:12.000Z</time>
      </trkpt>
      <trkpt lat="45.87455" lon="1.02013">
        <ele>187.1</ele>
        <time>2026-08-10T10:52:14.000Z</time>
      </trkpt>
      <trkpt lat="45.87454" lon="1.01994">
        <ele>187.1</ele>
        <time>2026-08-10T10:52:16.000Z</time>
      </trkpt>
      <trkpt lat="45.87451" lon="1.01919">
        <ele>187</ele>
        <time>2026-08-10T10:52:24.000Z</time>
      </trkpt>
      <trkpt lat="45.87458" lon="1.0187">
        <ele>186.3</ele>
        <time>2026-08-10T10:52:30.000Z</time>
      </trkpt>
      <trkpt lat="45.87459" lon="1.01862">
        <ele>186.4</ele>
        <time>2026-08-10T10:52:31.000Z</time>
      </trkpt>
      <trkpt lat="45.87467" lon="1.01818">
        <ele>186.9</ele>
        <time>2026-08-10T10:52:37.000Z</time>
      </trkpt>
      <trkpt lat="45.87473" lon="1.01779">
        <ele>186.8</ele>
        <time>2026-08-10T10:52:43.000Z</time>
      </trkpt>
      <trkpt lat="45.87474" lon="1.01764">
        <ele>186.7</ele>
        <time>2026-08-10T10:52:45.000Z</time>
      </trkpt>
      <trkpt lat="45.87474" lon="1.01734">
        <ele>186.8</ele>
        <time>2026-08-10T10:52:49.000Z</time>
      </trkpt>
      <trkpt lat="45.87467" lon="1.01684">
        <ele>185.9</ele>
        <time>2026-08-10T10:52:56.000Z</time>
      </trkpt>
      <trkpt lat="45.87466" lon="1.01677">
        <ele>185.8</ele>
        <time>2026-08-10T10:52:57.000Z</time>
      </trkpt>
      <trkpt lat="45.87457" lon="1.01636">
        <ele>185.6</ele>
        <time>2026-08-10T10:53:03.000Z</time>
      </trkpt>
      <trkpt lat="45.87456" lon="1.01622">
        <ele>185.3</ele>
        <time>2026-08-10T10:53:05.000Z</time>
      </trkpt>
      <trkpt lat="45.87444" lon="1.01574">
        <ele>185.7</ele>
        <time>2026-08-10T10:53:12.000Z</time>
      </trkpt>
      <trkpt lat="45.87441" lon="1.01558">
        <ele>185.5</ele>
        <time>2026-08-10T10:53:14.000Z</time>
      </trkpt>
      <trkpt lat="45.87434" lon="1.01512">
        <ele>184.9</ele>
        <time>2026-08-10T10:53:20.000Z</time>
      </trkpt>
      <trkpt lat="45.87433" lon="1.01504">
        <ele>185.1</ele>
        <time>2026-08-10T10:53:21.000Z</time>
      </trkpt>
      <trkpt lat="45.87424" lon="1.01428">
        <ele>186</ele>
        <time>2026-08-10T10:53:31.000Z</time>
      </trkpt>
      <trkpt lat="45.8742" lon="1.01377">
        <ele>185.1</ele>
        <time>2026-08-10T10:53:38.000Z</time>
      </trkpt>
      <trkpt lat="45.87414" lon="1.01328">
        <ele>185.1</ele>
        <time>2026-08-10T10:53:45.000Z</time>
      </trkpt>
      <trkpt lat="45.87412" lon="1.01307">
        <ele>184.7</ele>
        <time>2026-08-10T10:53:48.000Z</time>
      </trkpt>
      <trkpt lat="45.8741" lon="1.01282">
        <ele>184.9</ele>
        <time>2026-08-10T10:53:52.000Z</time>
      </trkpt>
      <trkpt lat="45.87408" lon="1.01263">
        <ele>185.3</ele>
        <time>2026-08-10T10:53:56.000Z</time>
      </trkpt>
      <trkpt lat="45.87404" lon="1.01227">
        <ele>184.9</ele>
        <time>2026-08-10T10:54:02.000Z</time>
      </trkpt>
      <trkpt lat="45.87405" lon="1.01197">
        <ele>184.4</ele>
        <time>2026-08-10T10:54:06.000Z</time>
      </trkpt>
      <trkpt lat="45.87407" lon="1.01182">
        <ele>183.5</ele>
        <time>2026-08-10T10:54:08.000Z</time>
      </trkpt>
      <trkpt lat="45.87408" lon="1.01174">
        <ele>182.8</ele>
        <time>2026-08-10T10:54:09.000Z</time>
      </trkpt>
      <trkpt lat="45.87411" lon="1.01166">
        <ele>182</ele>
        <time>2026-08-10T10:54:10.000Z</time>
      </trkpt>
      <trkpt lat="45.87418" lon="1.0115">
        <ele>182.1</ele>
        <time>2026-08-10T10:54:12.000Z</time>
      </trkpt>
      <trkpt lat="45.87423" lon="1.01142">
        <ele>182.1</ele>
        <time>2026-08-10T10:54:13.000Z</time>
      </trkpt>
      <trkpt lat="45.87436" lon="1.01124">
        <ele>181.7</ele>
        <time>2026-08-10T10:54:16.000Z</time>
      </trkpt>
      <trkpt lat="45.8744" lon="1.01117">
        <ele>181.4</ele>
        <time>2026-08-10T10:54:17.000Z</time>
      </trkpt>
      <trkpt lat="45.87444" lon="1.01109">
        <ele>181</ele>
        <time>2026-08-10T10:54:18.000Z</time>
      </trkpt>
      <trkpt lat="45.87448" lon="1.01092">
        <ele>180</ele>
        <time>2026-08-10T10:54:20.000Z</time>
      </trkpt>
      <trkpt lat="45.87449" lon="1.01083">
        <ele>179.5</ele>
        <time>2026-08-10T10:54:21.000Z</time>
      </trkpt>
      <trkpt lat="45.87449" lon="1.01072">
        <ele>179.5</ele>
        <time>2026-08-10T10:54:22.000Z</time>
      </trkpt>
      <trkpt lat="45.87449" lon="1.01062">
        <ele>179.5</ele>
        <time>2026-08-10T10:54:23.000Z</time>
      </trkpt>
      <trkpt lat="45.87448" lon="1.01052">
        <ele>179.5</ele>
        <time>2026-08-10T10:54:24.000Z</time>
      </trkpt>
      <trkpt lat="45.87447" lon="1.01031">
        <ele>178.9</ele>
        <time>2026-08-10T10:54:26.000Z</time>
      </trkpt>
      <trkpt lat="45.87444" lon="1.0098">
        <ele>179.8</ele>
        <time>2026-08-10T10:54:31.000Z</time>
      </trkpt>
      <trkpt lat="45.87438" lon="1.00946">
        <ele>181.3</ele>
        <time>2026-08-10T10:54:35.000Z</time>
      </trkpt>
      <trkpt lat="45.87435" lon="1.00918">
        <ele>181</ele>
        <time>2026-08-10T10:54:40.000Z</time>
      </trkpt>
      <trkpt lat="45.87434" lon="1.00905">
        <ele>181.8</ele>
        <time>2026-08-10T10:54:43.000Z</time>
      </trkpt>
      <trkpt lat="45.87432" lon="1.00892">
        <ele>182.6</ele>
        <time>2026-08-10T10:54:46.000Z</time>
      </trkpt>
      <trkpt lat="45.87431" lon="1.00885">
        <ele>182.8</ele>
        <time>2026-08-10T10:54:48.000Z</time>
      </trkpt>
      <trkpt lat="45.87428" lon="1.0086">
        <ele>183.2</ele>
        <time>2026-08-10T10:54:55.000Z</time>
      </trkpt>
      <trkpt lat="45.87428" lon="1.00856">
        <ele>183.1</ele>
        <time>2026-08-10T10:54:56.000Z</time>
      </trkpt>
      <trkpt lat="45.87427" lon="1.00835">
        <ele>183.1</ele>
        <time>2026-08-10T10:55:03.000Z</time>
      </trkpt>
      <trkpt lat="45.87427" lon="1.00828">
        <ele>183.3</ele>
        <time>2026-08-10T10:55:05.000Z</time>
      </trkpt>
      <trkpt lat="45.87426" lon="1.00815">
        <ele>183.9</ele>
        <time>2026-08-10T10:55:10.000Z</time>
      </trkpt>
      <trkpt lat="45.87425" lon="1.00807">
        <ele>184.1</ele>
        <time>2026-08-10T10:55:13.000Z</time>
      </trkpt>
      <trkpt lat="45.87424" lon="1.00798">
        <ele>184.9</ele>
        <time>2026-08-10T10:55:17.000Z</time>
      </trkpt>
      <trkpt lat="45.87423" lon="1.0079">
        <ele>185.7</ele>
        <time>2026-08-10T10:55:20.000Z</time>
      </trkpt>
      <trkpt lat="45.87421" lon="1.00772">
        <ele>187</ele>
        <time>2026-08-10T10:55:26.000Z</time>
      </trkpt>
      <trkpt lat="45.87421" lon="1.00757">
        <ele>187.6</ele>
        <time>2026-08-10T10:55:31.000Z</time>
      </trkpt>
      <trkpt lat="45.87421" lon="1.00754">
        <ele>187.6</ele>
        <time>2026-08-10T10:55:32.000Z</time>
      </trkpt>
      <trkpt lat="45.8742" lon="1.0073">
        <ele>188.4</ele>
        <time>2026-08-10T10:55:40.000Z</time>
      </trkpt>
      <trkpt lat="45.87421" lon="1.00727">
        <ele>188.2</ele>
        <time>2026-08-10T10:55:41.000Z</time>
      </trkpt>
      <trkpt lat="45.87421" lon="1.00716">
        <ele>188.6</ele>
        <time>2026-08-10T10:55:46.000Z</time>
      </trkpt>
      <trkpt lat="45.87421" lon="1.00711">
        <ele>188.7</ele>
        <time>2026-08-10T10:55:48.000Z</time>
      </trkpt>
      <trkpt lat="45.87419" lon="1.00702">
        <ele>189.6</ele>
        <time>2026-08-10T10:55:52.000Z</time>
      </trkpt>
      <trkpt lat="45.87418" lon="1.007">
        <ele>190.2</ele>
        <time>2026-08-10T10:55:53.000Z</time>
      </trkpt>
      <trkpt lat="45.87418" lon="1.00694">
        <ele>190.4</ele>
        <time>2026-08-10T10:55:55.000Z</time>
      </trkpt>
      <trkpt lat="45.87418" lon="1.00686">
        <ele>190.7</ele>
        <time>2026-08-10T10:55:58.000Z</time>
      </trkpt>
      <trkpt lat="45.87418" lon="1.00682">
        <ele>190.9</ele>
        <time>2026-08-10T10:55:59.000Z</time>
      </trkpt>
      <trkpt lat="45.87417" lon="1.00674">
        <ele>191.4</ele>
        <time>2026-08-10T10:56:02.000Z</time>
      </trkpt>
      <trkpt lat="45.87419" lon="1.00667">
        <ele>190.8</ele>
        <time>2026-08-10T10:56:05.000Z</time>
      </trkpt>
      <trkpt lat="45.87418" lon="1.00656">
        <ele>190.8</ele>
        <time>2026-08-10T10:56:09.000Z</time>
      </trkpt>
      <trkpt lat="45.87416" lon="1.00652">
        <ele>191.7</ele>
        <time>2026-08-10T10:56:11.000Z</time>
      </trkpt>
      <trkpt lat="45.87415" lon="1.00641">
        <ele>191.8</ele>
        <time>2026-08-10T10:56:16.000Z</time>
      </trkpt>
      <trkpt lat="45.87414" lon="1.00631">
        <ele>192</ele>
        <time>2026-08-10T10:56:21.000Z</time>
      </trkpt>
      <trkpt lat="45.87414" lon="1.00625">
        <ele>192.2</ele>
        <time>2026-08-10T10:56:24.000Z</time>
      </trkpt>
      <trkpt lat="45.87412" lon="1.0062">
        <ele>192.8</ele>
        <time>2026-08-10T10:56:27.000Z</time>
      </trkpt>
      <trkpt lat="45.87412" lon="1.00618">
        <ele>192.8</ele>
        <time>2026-08-10T10:56:28.000Z</time>
      </trkpt>
      <trkpt lat="45.87411" lon="1.00612">
        <ele>193.2</ele>
        <time>2026-08-10T10:56:31.000Z</time>
      </trkpt>
      <trkpt lat="45.87408" lon="1.00601">
        <ele>193.9</ele>
        <time>2026-08-10T10:56:36.000Z</time>
      </trkpt>
      <trkpt lat="45.87401" lon="1.00583">
        <ele>195.7</ele>
        <time>2026-08-10T10:56:45.000Z</time>
      </trkpt>
      <trkpt lat="45.87396" lon="1.00566">
        <ele>197.6</ele>
        <time>2026-08-10T10:56:53.000Z</time>
      </trkpt>
      <trkpt lat="45.87395" lon="1.0056">
        <ele>198.2</ele>
        <time>2026-08-10T10:56:57.000Z</time>
      </trkpt>
      <trkpt lat="45.87394" lon="1.00555">
        <ele>198.6</ele>
        <time>2026-08-10T10:56:59.000Z</time>
      </trkpt>
      <trkpt lat="45.87393" lon="1.00546">
        <ele>199.4</ele>
        <time>2026-08-10T10:57:03.000Z</time>
      </trkpt>
      <trkpt lat="45.87393" lon="1.00543">
        <ele>199.5</ele>
        <time>2026-08-10T10:57:05.000Z</time>
      </trkpt>
      <trkpt lat="45.87394" lon="1.00541">
        <ele>199.5</ele>
        <time>2026-08-10T10:57:06.000Z</time>
      </trkpt>
      <trkpt lat="45.87396" lon="1.00533">
        <ele>199.6</ele>
        <time>2026-08-10T10:57:10.000Z</time>
      </trkpt>
      <trkpt lat="45.87397" lon="1.0053">
        <ele>199.7</ele>
        <time>2026-08-10T10:57:12.000Z</time>
      </trkpt>
      <trkpt lat="45.87402" lon="1.00521">
        <ele>200.1</ele>
        <time>2026-08-10T10:57:17.000Z</time>
      </trkpt>
      <trkpt lat="45.87403" lon="1.00518">
        <ele>200.4</ele>
        <time>2026-08-10T10:57:19.000Z</time>
      </trkpt>
      <trkpt lat="45.87404" lon="1.00514">
        <ele>200.8</ele>
        <time>2026-08-10T10:57:21.000Z</time>
      </trkpt>
      <trkpt lat="45.87405" lon="1.0051">
        <ele>201.3</ele>
        <time>2026-08-10T10:57:23.000Z</time>
      </trkpt>
      <trkpt lat="45.87406" lon="1.00508">
        <ele>201.4</ele>
        <time>2026-08-10T10:57:24.000Z</time>
      </trkpt>
      <trkpt lat="45.87412" lon="1.005">
        <ele>201.7</ele>
        <time>2026-08-10T10:57:29.000Z</time>
      </trkpt>
      <trkpt lat="45.87413" lon="1.00498">
        <ele>201.8</ele>
        <time>2026-08-10T10:57:30.000Z</time>
      </trkpt>
      <trkpt lat="45.87418" lon="1.00485">
        <ele>202.3</ele>
        <time>2026-08-10T10:57:36.000Z</time>
      </trkpt>
      <trkpt lat="45.87419" lon="1.00483">
        <ele>202.1</ele>
        <time>2026-08-10T10:57:37.000Z</time>
      </trkpt>
      <trkpt lat="45.87422" lon="1.00477">
        <ele>202.1</ele>
        <time>2026-08-10T10:57:41.000Z</time>
      </trkpt>
      <trkpt lat="45.87423" lon="1.00474">
        <ele>202.2</ele>
        <time>2026-08-10T10:57:43.000Z</time>
      </trkpt>
      <trkpt lat="45.87424" lon="1.00473">
        <ele>202</ele>
        <time>2026-08-10T10:57:44.000Z</time>
      </trkpt>
      <trkpt lat="45.87432" lon="1.00457">
        <ele>202.1</ele>
        <time>2026-08-10T10:57:52.000Z</time>
      </trkpt>
      <trkpt lat="45.87433" lon="1.00455">
        <ele>202.2</ele>
        <time>2026-08-10T10:57:53.000Z</time>
      </trkpt>
      <trkpt lat="45.87443" lon="1.00429">
        <ele>203.4</ele>
        <time>2026-08-10T10:58:02.000Z</time>
      </trkpt>
      <trkpt lat="45.8745" lon="1.00411">
        <ele>203.2</ele>
        <time>2026-08-10T10:58:07.000Z</time>
      </trkpt>
      <trkpt lat="45.87452" lon="1.00403">
        <ele>203.1</ele>
        <time>2026-08-10T10:58:09.000Z</time>
      </trkpt>
      <trkpt lat="45.8746" lon="1.0038">
        <ele>202</ele>
        <time>2026-08-10T10:58:13.000Z</time>
      </trkpt>
      <trkpt lat="45.87471" lon="1.00346">
        <ele>203.4</ele>
        <time>2026-08-10T10:58:19.000Z</time>
      </trkpt>
      <trkpt lat="45.87474" lon="1.00335">
        <ele>203.9</ele>
        <time>2026-08-10T10:58:21.000Z</time>
      </trkpt>
      <trkpt lat="45.87478" lon="1.00313">
        <ele>202.6</ele>
        <time>2026-08-10T10:58:24.000Z</time>
      </trkpt>
      <trkpt lat="45.87479" lon="1.00304">
        <ele>202.4</ele>
        <time>2026-08-10T10:58:25.000Z</time>
      </trkpt>
      <trkpt lat="45.8748" lon="1.00288">
        <ele>202</ele>
        <time>2026-08-10T10:58:27.000Z</time>
      </trkpt>
      <trkpt lat="45.87476" lon="1.00264">
        <ele>203.3</ele>
        <time>2026-08-10T10:58:30.000Z</time>
      </trkpt>
      <trkpt lat="45.87473" lon="1.00251">
        <ele>203.8</ele>
        <time>2026-08-10T10:58:32.000Z</time>
      </trkpt>
      <trkpt lat="45.87471" lon="1.00228">
        <ele>203.6</ele>
        <time>2026-08-10T10:58:35.000Z</time>
      </trkpt>
      <trkpt lat="45.8747" lon="1.00188">
        <ele>203.8</ele>
        <time>2026-08-10T10:58:40.000Z</time>
      </trkpt>
      <trkpt lat="45.87471" lon="1.00184">
        <ele>204</ele>
        <time>2026-08-10T10:58:41.000Z</time>
      </trkpt>
      <trkpt lat="45.87471" lon="1.00178">
        <ele>204.2</ele>
        <time>2026-08-10T10:58:42.000Z</time>
      </trkpt>
      <trkpt lat="45.87476" lon="1.00163">
        <ele>204.8</ele>
        <time>2026-08-10T10:58:45.000Z</time>
      </trkpt>
      <trkpt lat="45.87484" lon="1.00137">
        <ele>207.2</ele>
        <time>2026-08-10T10:58:52.000Z</time>
      </trkpt>
      <trkpt lat="45.87486" lon="1.00131">
        <ele>207.9</ele>
        <time>2026-08-10T10:58:54.000Z</time>
      </trkpt>
      <trkpt lat="45.87489" lon="1.0012">
        <ele>208.9</ele>
        <time>2026-08-10T10:58:58.000Z</time>
      </trkpt>
      <trkpt lat="45.87492" lon="1.00111">
        <ele>209.6</ele>
        <time>2026-08-10T10:59:01.000Z</time>
      </trkpt>
      <trkpt lat="45.87494" lon="1.00103">
        <ele>209.8</ele>
        <time>2026-08-10T10:59:04.000Z</time>
      </trkpt>
      <trkpt lat="45.87495" lon="1.001">
        <ele>209.9</ele>
        <time>2026-08-10T10:59:05.000Z</time>
      </trkpt>
      <trkpt lat="45.875" lon="1.00081">
        <ele>210.2</ele>
        <time>2026-08-10T10:59:11.000Z</time>
      </trkpt>
      <trkpt lat="45.87505" lon="1.00052">
        <ele>210.6</ele>
        <time>2026-08-10T10:59:19.000Z</time>
      </trkpt>
      <trkpt lat="45.87504" lon="1.00045">
        <ele>210.6</ele>
        <time>2026-08-10T10:59:21.000Z</time>
      </trkpt>
      <trkpt lat="45.87503" lon="1.00035">
        <ele>210.7</ele>
        <time>2026-08-10T10:59:24.000Z</time>
      </trkpt>
      <trkpt lat="45.87503" lon="1.00032">
        <ele>210.7</ele>
        <time>2026-08-10T10:59:25.000Z</time>
      </trkpt>
      <trkpt lat="45.87496" lon="1.00009">
        <ele>210.8</ele>
        <time>2026-08-10T10:59:32.000Z</time>
      </trkpt>
      <trkpt lat="45.87486" lon="0.9998">
        <ele>211.7</ele>
        <time>2026-08-10T10:59:42.000Z</time>
      </trkpt>
      <trkpt lat="45.87479" lon="0.99959">
        <ele>212.9</ele>
        <time>2026-08-10T10:59:50.000Z</time>
      </trkpt>
      <trkpt lat="45.87476" lon="0.99946">
        <ele>213.5</ele>
        <time>2026-08-10T10:59:55.000Z</time>
      </trkpt>
      <trkpt lat="45.87475" lon="0.99938">
        <ele>214.1</ele>
        <time>2026-08-10T10:59:58.000Z</time>
      </trkpt>
      <trkpt lat="45.87475" lon="0.99919">
        <ele>215.4</ele>
        <time>2026-08-10T11:00:05.000Z</time>
      </trkpt>
      <trkpt lat="45.87475" lon="0.99914">
        <ele>215.7</ele>
        <time>2026-08-10T11:00:07.000Z</time>
      </trkpt>
      <trkpt lat="45.87476" lon="0.99894">
        <ele>216.2</ele>
        <time>2026-08-10T11:00:14.000Z</time>
      </trkpt>
      <trkpt lat="45.87477" lon="0.99891">
        <ele>216.2</ele>
        <time>2026-08-10T11:00:15.000Z</time>
      </trkpt>
      <trkpt lat="45.8748" lon="0.99875">
        <ele>216.8</ele>
        <time>2026-08-10T11:00:21.000Z</time>
      </trkpt>
      <trkpt lat="45.87482" lon="0.99864">
        <ele>217.3</ele>
        <time>2026-08-10T11:00:25.000Z</time>
      </trkpt>
      <trkpt lat="45.87485" lon="0.99854">
        <ele>217.7</ele>
        <time>2026-08-10T11:00:29.000Z</time>
      </trkpt>
      <trkpt lat="45.87488" lon="0.99842">
        <ele>218.2</ele>
        <time>2026-08-10T11:00:34.000Z</time>
      </trkpt>
      <trkpt lat="45.87488" lon="0.99839">
        <ele>218.3</ele>
        <time>2026-08-10T11:00:35.000Z</time>
      </trkpt>
      <trkpt lat="45.87493" lon="0.99813">
        <ele>219.5</ele>
        <time>2026-08-10T11:00:44.000Z</time>
      </trkpt>
      <trkpt lat="45.87494" lon="0.99809">
        <ele>219.7</ele>
        <time>2026-08-10T11:00:46.000Z</time>
      </trkpt>
      <trkpt lat="45.87496" lon="0.99795">
        <ele>220</ele>
        <time>2026-08-10T11:00:50.000Z</time>
      </trkpt>
      <trkpt lat="45.87498" lon="0.99772">
        <ele>220.5</ele>
        <time>2026-08-10T11:00:57.000Z</time>
      </trkpt>
      <trkpt lat="45.87498" lon="0.99769">
        <ele>220.6</ele>
        <time>2026-08-10T11:00:58.000Z</time>
      </trkpt>
      <trkpt lat="45.87498" lon="0.99737">
        <ele>221.2</ele>
        <time>2026-08-10T11:01:06.000Z</time>
      </trkpt>
      <trkpt lat="45.87499" lon="0.9971">
        <ele>221.2</ele>
        <time>2026-08-10T11:01:13.000Z</time>
      </trkpt>
      <trkpt lat="45.87499" lon="0.99692">
        <ele>221.2</ele>
        <time>2026-08-10T11:01:17.000Z</time>
      </trkpt>
      <trkpt lat="45.87499" lon="0.99687">
        <ele>221.4</ele>
        <time>2026-08-10T11:01:18.000Z</time>
      </trkpt>
      <trkpt lat="45.87498" lon="0.99679">
        <ele>221.7</ele>
        <time>2026-08-10T11:01:20.000Z</time>
      </trkpt>
      <trkpt lat="45.87489" lon="0.99638">
        <ele>222.8</ele>
        <time>2026-08-10T11:01:30.000Z</time>
      </trkpt>
      <trkpt lat="45.87487" lon="0.99635">
        <ele>222.9</ele>
        <time>2026-08-10T11:01:31.000Z</time>
      </trkpt>
      <trkpt lat="45.87471" lon="0.99614">
        <ele>223.1</ele>
        <time>2026-08-10T11:01:38.000Z</time>
      </trkpt>
      <trkpt lat="45.87452" lon="0.99601">
        <ele>222</ele>
        <time>2026-08-10T11:01:44.000Z</time>
      </trkpt>
      <trkpt lat="45.87448" lon="0.99599">
        <ele>221.7</ele>
        <time>2026-08-10T11:01:45.000Z</time>
      </trkpt>
      <trkpt lat="45.87426" lon="0.99592">
        <ele>220.9</ele>
        <time>2026-08-10T11:01:50.000Z</time>
      </trkpt>
      <trkpt lat="45.87393" lon="0.99582">
        <ele>219.9</ele>
        <time>2026-08-10T11:01:56.000Z</time>
      </trkpt>
      <trkpt lat="45.87376" lon="0.99578">
        <ele>219.4</ele>
        <time>2026-08-10T11:01:59.000Z</time>
      </trkpt>
      <trkpt lat="45.87351" lon="0.99571">
        <ele>218.6</ele>
        <time>2026-08-10T11:02:03.000Z</time>
      </trkpt>
      <trkpt lat="45.87307" lon="0.99556">
        <ele>218</ele>
        <time>2026-08-10T11:02:10.000Z</time>
      </trkpt>
      <trkpt lat="45.87296" lon="0.9955">
        <ele>217.8</ele>
        <time>2026-08-10T11:02:12.000Z</time>
      </trkpt>
      <trkpt lat="45.87285" lon="0.9954">
        <ele>217.2</ele>
        <time>2026-08-10T11:02:14.000Z</time>
      </trkpt>
      <trkpt lat="45.87279" lon="0.99533">
        <ele>216.7</ele>
        <time>2026-08-10T11:02:15.000Z</time>
      </trkpt>
      <trkpt lat="45.87266" lon="0.99512">
        <ele>215.2</ele>
        <time>2026-08-10T11:02:18.000Z</time>
      </trkpt>
      <trkpt lat="45.87262" lon="0.99502">
        <ele>214.8</ele>
        <time>2026-08-10T11:02:19.000Z</time>
      </trkpt>
      <trkpt lat="45.87258" lon="0.99482">
        <ele>215.7</ele>
        <time>2026-08-10T11:02:21.000Z</time>
      </trkpt>
      <trkpt lat="45.87256" lon="0.99472">
        <ele>216.1</ele>
        <time>2026-08-10T11:02:22.000Z</time>
      </trkpt>
      <trkpt lat="45.87254" lon="0.99462">
        <ele>217</ele>
        <time>2026-08-10T11:02:23.000Z</time>
      </trkpt>
      <trkpt lat="45.87254" lon="0.99441">
        <ele>218.3</ele>
        <time>2026-08-10T11:02:25.000Z</time>
      </trkpt>
      <trkpt lat="45.87259" lon="0.99421">
        <ele>217.4</ele>
        <time>2026-08-10T11:02:27.000Z</time>
      </trkpt>
      <trkpt lat="45.87261" lon="0.99412">
        <ele>216.9</ele>
        <time>2026-08-10T11:02:28.000Z</time>
      </trkpt>
      <trkpt lat="45.87269" lon="0.99395">
        <ele>215.9</ele>
        <time>2026-08-10T11:02:30.000Z</time>
      </trkpt>
      <trkpt lat="45.87273" lon="0.99389">
        <ele>215.5</ele>
        <time>2026-08-10T11:02:31.000Z</time>
      </trkpt>
      <trkpt lat="45.87279" lon="0.99381">
        <ele>215.4</ele>
        <time>2026-08-10T11:02:32.000Z</time>
      </trkpt>
      <trkpt lat="45.87298" lon="0.99363">
        <ele>216.1</ele>
        <time>2026-08-10T11:02:35.000Z</time>
      </trkpt>
      <trkpt lat="45.87308" lon="0.99355">
        <ele>216.6</ele>
        <time>2026-08-10T11:02:37.000Z</time>
      </trkpt>
      <trkpt lat="45.87319" lon="0.99349">
        <ele>216.6</ele>
        <time>2026-08-10T11:02:39.000Z</time>
      </trkpt>
      <trkpt lat="45.87366" lon="0.99321">
        <ele>215.3</ele>
        <time>2026-08-10T11:02:47.000Z</time>
      </trkpt>
      <trkpt lat="45.87408" lon="0.99294">
        <ele>215.5</ele>
        <time>2026-08-10T11:02:55.000Z</time>
      </trkpt>
      <trkpt lat="45.87423" lon="0.99278">
        <ele>216</ele>
        <time>2026-08-10T11:02:59.000Z</time>
      </trkpt>
      <trkpt lat="45.87427" lon="0.99273">
        <ele>216</ele>
        <time>2026-08-10T11:03:00.000Z</time>
      </trkpt>
      <trkpt lat="45.87462" lon="0.99225">
        <ele>216.8</ele>
        <time>2026-08-10T11:03:09.000Z</time>
      </trkpt>
      <trkpt lat="45.87465" lon="0.9922">
        <ele>216.9</ele>
        <time>2026-08-10T11:03:10.000Z</time>
      </trkpt>
      <trkpt lat="45.87475" lon="0.99195">
        <ele>216.2</ele>
        <time>2026-08-10T11:03:14.000Z</time>
      </trkpt>
      <trkpt lat="45.87479" lon="0.99182">
        <ele>215.2</ele>
        <time>2026-08-10T11:03:16.000Z</time>
      </trkpt>
      <trkpt lat="45.87481" lon="0.99168">
        <ele>214.7</ele>
        <time>2026-08-10T11:03:18.000Z</time>
      </trkpt>
      <trkpt lat="45.87482" lon="0.99162">
        <ele>214.6</ele>
        <time>2026-08-10T11:03:19.000Z</time>
      </trkpt>
      <trkpt lat="45.87484" lon="0.99142">
        <ele>214.7</ele>
        <time>2026-08-10T11:03:22.000Z</time>
      </trkpt>
      <trkpt lat="45.87484" lon="0.99114">
        <ele>214.9</ele>
        <time>2026-08-10T11:03:26.000Z</time>
      </trkpt>
      <trkpt lat="45.87484" lon="0.99065">
        <ele>216.2</ele>
        <time>2026-08-10T11:03:33.000Z</time>
      </trkpt>
      <trkpt lat="45.87484" lon="0.99036">
        <ele>218.3</ele>
        <time>2026-08-10T11:03:38.000Z</time>
      </trkpt>
      <trkpt lat="45.87487" lon="0.99022">
        <ele>218.7</ele>
        <time>2026-08-10T11:03:41.000Z</time>
      </trkpt>
      <trkpt lat="45.87492" lon="0.99006">
        <ele>218.5</ele>
        <time>2026-08-10T11:03:44.000Z</time>
      </trkpt>
      <trkpt lat="45.87497" lon="0.9899">
        <ele>218.4</ele>
        <time>2026-08-10T11:03:47.000Z</time>
      </trkpt>
      <trkpt lat="45.87508" lon="0.98961">
        <ele>218.3</ele>
        <time>2026-08-10T11:03:53.000Z</time>
      </trkpt>
      <trkpt lat="45.87519" lon="0.98926">
        <ele>218.8</ele>
        <time>2026-08-10T11:04:00.000Z</time>
      </trkpt>
      <trkpt lat="45.87522" lon="0.98916">
        <ele>218.9</ele>
        <time>2026-08-10T11:04:03.000Z</time>
      </trkpt>
      <trkpt lat="45.87527" lon="0.9889">
        <ele>219</ele>
        <time>2026-08-10T11:04:09.000Z</time>
      </trkpt>
      <trkpt lat="45.87524" lon="0.9886">
        <ele>219.1</ele>
        <time>2026-08-10T11:04:14.000Z</time>
      </trkpt>
      <trkpt lat="45.87521" lon="0.98839">
        <ele>218.8</ele>
        <time>2026-08-10T11:04:17.000Z</time>
      </trkpt>
      <trkpt lat="45.87521" lon="0.98825">
        <ele>218.5</ele>
        <time>2026-08-10T11:04:19.000Z</time>
      </trkpt>
      <trkpt lat="45.87525" lon="0.9879">
        <ele>217.4</ele>
        <time>2026-08-10T11:04:23.000Z</time>
      </trkpt>
      <trkpt lat="45.87528" lon="0.98773">
        <ele>217.2</ele>
        <time>2026-08-10T11:04:25.000Z</time>
      </trkpt>
      <trkpt lat="45.87543" lon="0.98703">
        <ele>217.6</ele>
        <time>2026-08-10T11:04:34.000Z</time>
      </trkpt>
      <trkpt lat="45.87548" lon="0.98646">
        <ele>216.8</ele>
        <time>2026-08-10T11:04:41.000Z</time>
      </trkpt>
      <trkpt lat="45.87548" lon="0.98632">
        <ele>217</ele>
        <time>2026-08-10T11:04:43.000Z</time>
      </trkpt>
      <trkpt lat="45.87544" lon="0.98594">
        <ele>217.6</ele>
        <time>2026-08-10T11:04:48.000Z</time>
      </trkpt>
      <trkpt lat="45.87543" lon="0.98579">
        <ele>217.4</ele>
        <time>2026-08-10T11:04:50.000Z</time>
      </trkpt>
      <trkpt lat="45.87541" lon="0.98559">
        <ele>217.1</ele>
        <time>2026-08-10T11:04:53.000Z</time>
      </trkpt>
      <trkpt lat="45.87534" lon="0.9851">
        <ele>216.8</ele>
        <time>2026-08-10T11:05:00.000Z</time>
      </trkpt>
      <trkpt lat="45.87528" lon="0.98464">
        <ele>215.7</ele>
        <time>2026-08-10T11:05:05.000Z</time>
      </trkpt>
      <trkpt lat="45.87521" lon="0.98418">
        <ele>214</ele>
        <time>2026-08-10T11:05:10.000Z</time>
      </trkpt>
      <trkpt lat="45.87518" lon="0.98408">
        <ele>213.4</ele>
        <time>2026-08-10T11:05:11.000Z</time>
      </trkpt>
      <trkpt lat="45.87514" lon="0.98398">
        <ele>212.7</ele>
        <time>2026-08-10T11:05:12.000Z</time>
      </trkpt>
      <trkpt lat="45.8751" lon="0.98389">
        <ele>212</ele>
        <time>2026-08-10T11:05:13.000Z</time>
      </trkpt>
      <trkpt lat="45.87499" lon="0.98373">
        <ele>212</ele>
        <time>2026-08-10T11:05:15.000Z</time>
      </trkpt>
      <trkpt lat="45.87492" lon="0.98368">
        <ele>211.8</ele>
        <time>2026-08-10T11:05:16.000Z</time>
      </trkpt>
      <trkpt lat="45.87477" lon="0.98359">
        <ele>211.1</ele>
        <time>2026-08-10T11:05:18.000Z</time>
      </trkpt>
      <trkpt lat="45.8747" lon="0.98356">
        <ele>210.7</ele>
        <time>2026-08-10T11:05:19.000Z</time>
      </trkpt>
      <trkpt lat="45.87446" lon="0.98352">
        <ele>209.7</ele>
        <time>2026-08-10T11:05:22.000Z</time>
      </trkpt>
      <trkpt lat="45.8742" lon="0.98347">
        <ele>207.7</ele>
        <time>2026-08-10T11:05:25.000Z</time>
      </trkpt>
      <trkpt lat="45.87403" lon="0.98344">
        <ele>206.4</ele>
        <time>2026-08-10T11:05:27.000Z</time>
      </trkpt>
      <trkpt lat="45.87395" lon="0.98341">
        <ele>205.7</ele>
        <time>2026-08-10T11:05:28.000Z</time>
      </trkpt>
      <trkpt lat="45.87387" lon="0.98338">
        <ele>205</ele>
        <time>2026-08-10T11:05:29.000Z</time>
      </trkpt>
      <trkpt lat="45.87379" lon="0.98332">
        <ele>204</ele>
        <time>2026-08-10T11:05:30.000Z</time>
      </trkpt>
      <trkpt lat="45.87356" lon="0.98314">
        <ele>201.5</ele>
        <time>2026-08-10T11:05:33.000Z</time>
      </trkpt>
      <trkpt lat="45.87349" lon="0.98308">
        <ele>200.7</ele>
        <time>2026-08-10T11:05:34.000Z</time>
      </trkpt>
      <trkpt lat="45.87334" lon="0.98295">
        <ele>199.4</ele>
        <time>2026-08-10T11:05:36.000Z</time>
      </trkpt>
      <trkpt lat="45.87319" lon="0.9828">
        <ele>197.9</ele>
        <time>2026-08-10T11:05:38.000Z</time>
      </trkpt>
      <trkpt lat="45.87315" lon="0.98274">
        <ele>197.5</ele>
        <time>2026-08-10T11:05:39.000Z</time>
      </trkpt>
      <trkpt lat="45.8731" lon="0.98265">
        <ele>197.1</ele>
        <time>2026-08-10T11:05:40.000Z</time>
      </trkpt>
      <trkpt lat="45.87304" lon="0.98245">
        <ele>196.1</ele>
        <time>2026-08-10T11:05:42.000Z</time>
      </trkpt>
      <trkpt lat="45.87303" lon="0.98219">
        <ele>194.7</ele>
        <time>2026-08-10T11:05:44.000Z</time>
      </trkpt>
      <trkpt lat="45.87303" lon="0.98209">
        <ele>194.2</ele>
        <time>2026-08-10T11:05:45.000Z</time>
      </trkpt>
      <trkpt lat="45.87304" lon="0.98196">
        <ele>193.5</ele>
        <time>2026-08-10T11:05:46.000Z</time>
      </trkpt>
      <trkpt lat="45.87304" lon="0.9818">
        <ele>192.8</ele>
        <time>2026-08-10T11:05:47.000Z</time>
      </trkpt>
      <trkpt lat="45.873" lon="0.98157">
        <ele>191.1</ele>
        <time>2026-08-10T11:05:49.000Z</time>
      </trkpt>
      <trkpt lat="45.87297" lon="0.98134">
        <ele>189.2</ele>
        <time>2026-08-10T11:05:51.000Z</time>
      </trkpt>
      <trkpt lat="45.87298" lon="0.98123">
        <ele>188.2</ele>
        <time>2026-08-10T11:05:52.000Z</time>
      </trkpt>
      <trkpt lat="45.87301" lon="0.98111">
        <ele>187.7</ele>
        <time>2026-08-10T11:05:53.000Z</time>
      </trkpt>
      <trkpt lat="45.87305" lon="0.98102">
        <ele>187.3</ele>
        <time>2026-08-10T11:05:54.000Z</time>
      </trkpt>
      <trkpt lat="45.8731" lon="0.98095">
        <ele>186.7</ele>
        <time>2026-08-10T11:05:55.000Z</time>
      </trkpt>
      <trkpt lat="45.87317" lon="0.98085">
        <ele>186</ele>
        <time>2026-08-10T11:05:56.000Z</time>
      </trkpt>
      <trkpt lat="45.87334" lon="0.98064">
        <ele>184.6</ele>
        <time>2026-08-10T11:05:59.000Z</time>
      </trkpt>
      <trkpt lat="45.87343" lon="0.98053">
        <ele>183.8</ele>
        <time>2026-08-10T11:06:00.000Z</time>
      </trkpt>
      <trkpt lat="45.87355" lon="0.98037">
        <ele>182.5</ele>
        <time>2026-08-10T11:06:02.000Z</time>
      </trkpt>
      <trkpt lat="45.87366" lon="0.98021">
        <ele>182.4</ele>
        <time>2026-08-10T11:06:04.000Z</time>
      </trkpt>
      <trkpt lat="45.8737" lon="0.98014">
        <ele>182.6</ele>
        <time>2026-08-10T11:06:05.000Z</time>
      </trkpt>
      <trkpt lat="45.87375" lon="0.98005">
        <ele>182.7</ele>
        <time>2026-08-10T11:06:06.000Z</time>
      </trkpt>
      <trkpt lat="45.87379" lon="0.97995">
        <ele>182</ele>
        <time>2026-08-10T11:06:07.000Z</time>
      </trkpt>
      <trkpt lat="45.87379" lon="0.97983">
        <ele>179.7</ele>
        <time>2026-08-10T11:06:08.000Z</time>
      </trkpt>
      <trkpt lat="45.87377" lon="0.9797">
        <ele>177.3</ele>
        <time>2026-08-10T11:06:09.000Z</time>
      </trkpt>
      <trkpt lat="45.87373" lon="0.97958">
        <ele>177.2</ele>
        <time>2026-08-10T11:06:10.000Z</time>
      </trkpt>
      <trkpt lat="45.87368" lon="0.97947">
        <ele>178</ele>
        <time>2026-08-10T11:06:11.000Z</time>
      </trkpt>
      <trkpt lat="45.87366" lon="0.97937">
        <ele>178.8</ele>
        <time>2026-08-10T11:06:12.000Z</time>
      </trkpt>
      <trkpt lat="45.87367" lon="0.97924">
        <ele>179.3</ele>
        <time>2026-08-10T11:06:13.000Z</time>
      </trkpt>
      <trkpt lat="45.87369" lon="0.97914">
        <ele>179.1</ele>
        <time>2026-08-10T11:06:14.000Z</time>
      </trkpt>
      <trkpt lat="45.87372" lon="0.97905">
        <ele>178.8</ele>
        <time>2026-08-10T11:06:15.000Z</time>
      </trkpt>
      <trkpt lat="45.87377" lon="0.97887">
        <ele>178.6</ele>
        <time>2026-08-10T11:06:17.000Z</time>
      </trkpt>
      <trkpt lat="45.87383" lon="0.97868">
        <ele>177.7</ele>
        <time>2026-08-10T11:06:19.000Z</time>
      </trkpt>
      <trkpt lat="45.87386" lon="0.97847">
        <ele>177.5</ele>
        <time>2026-08-10T11:06:21.000Z</time>
      </trkpt>
      <trkpt lat="45.87387" lon="0.97837">
        <ele>177.6</ele>
        <time>2026-08-10T11:06:22.000Z</time>
      </trkpt>
      <trkpt lat="45.87389" lon="0.97818">
        <ele>177</ele>
        <time>2026-08-10T11:06:24.000Z</time>
      </trkpt>
      <trkpt lat="45.87388" lon="0.97799">
        <ele>177.3</ele>
        <time>2026-08-10T11:06:26.000Z</time>
      </trkpt>
      <trkpt lat="45.87386" lon="0.9779">
        <ele>178</ele>
        <time>2026-08-10T11:06:27.000Z</time>
      </trkpt>
      <trkpt lat="45.8738" lon="0.97773">
        <ele>179.4</ele>
        <time>2026-08-10T11:06:29.000Z</time>
      </trkpt>
      <trkpt lat="45.87369" lon="0.97748">
        <ele>176.3</ele>
        <time>2026-08-10T11:06:32.000Z</time>
      </trkpt>
      <trkpt lat="45.87366" lon="0.9774">
        <ele>176</ele>
        <time>2026-08-10T11:06:33.000Z</time>
      </trkpt>
      <trkpt lat="45.87357" lon="0.97729">
        <ele>176</ele>
        <time>2026-08-10T11:06:35.000Z</time>
      </trkpt>
      <trkpt lat="45.87347" lon="0.97721">
        <ele>176.5</ele>
        <time>2026-08-10T11:06:37.000Z</time>
      </trkpt>
      <trkpt lat="45.87325" lon="0.97704">
        <ele>178.1</ele>
        <time>2026-08-10T11:06:42.000Z</time>
      </trkpt>
      <trkpt lat="45.87316" lon="0.97695">
        <ele>177.5</ele>
        <time>2026-08-10T11:06:44.000Z</time>
      </trkpt>
      <trkpt lat="45.87312" lon="0.97689">
        <ele>177.5</ele>
        <time>2026-08-10T11:06:45.000Z</time>
      </trkpt>
      <trkpt lat="45.87301" lon="0.97667">
        <ele>177.3</ele>
        <time>2026-08-10T11:06:48.000Z</time>
      </trkpt>
      <trkpt lat="45.87298" lon="0.97661">
        <ele>177.3</ele>
        <time>2026-08-10T11:06:49.000Z</time>
      </trkpt>
      <trkpt lat="45.87294" lon="0.97651">
        <ele>176.9</ele>
        <time>2026-08-10T11:06:50.000Z</time>
      </trkpt>
      <trkpt lat="45.87287" lon="0.97639">
        <ele>176</ele>
        <time>2026-08-10T11:06:52.000Z</time>
      </trkpt>
      <trkpt lat="45.87283" lon="0.97633">
        <ele>176.1</ele>
        <time>2026-08-10T11:06:53.000Z</time>
      </trkpt>
      <trkpt lat="45.87278" lon="0.97628">
        <ele>176.2</ele>
        <time>2026-08-10T11:06:54.000Z</time>
      </trkpt>
      <trkpt lat="45.87259" lon="0.97609">
        <ele>176.2</ele>
        <time>2026-08-10T11:06:58.000Z</time>
      </trkpt>
      <trkpt lat="45.87254" lon="0.97605">
        <ele>176.3</ele>
        <time>2026-08-10T11:06:59.000Z</time>
      </trkpt>
      <trkpt lat="45.8723" lon="0.97581">
        <ele>177</ele>
        <time>2026-08-10T11:07:05.000Z</time>
      </trkpt>
      <trkpt lat="45.87213" lon="0.97568">
        <ele>178.1</ele>
        <time>2026-08-10T11:07:10.000Z</time>
      </trkpt>
      <trkpt lat="45.8721" lon="0.97567">
        <ele>178.4</ele>
        <time>2026-08-10T11:07:11.000Z</time>
      </trkpt>
      <trkpt lat="45.87209" lon="0.97566">
        <ele>178.6</ele>
        <time>2026-08-10T11:07:12.000Z</time>
      </trkpt>
      <trkpt lat="45.87208" lon="0.97564">
        <ele>178.4</ele>
        <time>2026-08-10T11:07:13.000Z</time>
      </trkpt>
      <trkpt lat="45.87213" lon="0.97566">
        <ele>177.9</ele>
        <time>2026-08-10T11:07:16.000Z</time>
      </trkpt>
      <trkpt lat="45.87227" lon="0.97582">
        <ele>177.3</ele>
        <time>2026-08-10T11:07:21.000Z</time>
      </trkpt>
      <trkpt lat="45.87237" lon="0.97595">
        <ele>178.4</ele>
        <time>2026-08-10T11:07:25.000Z</time>
      </trkpt>
      <trkpt lat="45.87238" lon="0.97595">
        <ele>178.2</ele>
        <time>2026-08-10T11:07:26.000Z</time>
      </trkpt>
      <trkpt lat="45.87239" lon="0.97592">
        <ele>177.5</ele>
        <time>2026-08-10T11:07:28.000Z</time>
      </trkpt>
      <trkpt lat="45.87239" lon="0.97591">
        <ele>177.4</ele>
        <time>2026-08-10T11:07:29.000Z</time>
      </trkpt>
      <trkpt lat="45.87238" lon="0.9759">
        <ele>177.4</ele>
        <time>2026-08-10T11:07:33.000Z</time>
      </trkpt>
      <trkpt lat="45.87234" lon="0.97586">
        <ele>177.3</ele>
        <time>2026-08-10T11:08:03.000Z</time>
      </trkpt>
      <trkpt lat="45.87233" lon="0.97585">
        <ele>177.2</ele>
        <time>2026-08-10T11:08:05.000Z</time>
      </trkpt>
      <trkpt lat="45.87227" lon="0.9758">
        <ele>177.2</ele>
        <time>2026-08-10T11:09:02.000Z</time>
      </trkpt>
      <trkpt lat="45.87223" lon="0.97576">
        <ele>177.1</ele>
        <time>2026-08-10T11:09:04.000Z</time>
      </trkpt>
      <trkpt lat="45.87208" lon="0.9756">
        <ele>177.8</ele>
        <time>2026-08-10T11:09:11.000Z</time>
      </trkpt>
      <trkpt lat="45.87184" lon="0.97538">
        <ele>179.3</ele>
        <time>2026-08-10T11:09:21.000Z</time>
      </trkpt>
      <trkpt lat="45.87174" lon="0.97526">
        <ele>180.3</ele>
        <time>2026-08-10T11:09:26.000Z</time>
      </trkpt>
      <trkpt lat="45.87167" lon="0.97518">
        <ele>180.7</ele>
        <time>2026-08-10T11:09:30.000Z</time>
      </trkpt>
      <trkpt lat="45.87165" lon="0.97517">
        <ele>180.8</ele>
        <time>2026-08-10T11:09:31.000Z</time>
      </trkpt>
      <trkpt lat="45.87153" lon="0.97507">
        <ele>181.2</ele>
        <time>2026-08-10T11:09:36.000Z</time>
      </trkpt>
      <trkpt lat="45.87144" lon="0.975">
        <ele>181.2</ele>
        <time>2026-08-10T11:09:40.000Z</time>
      </trkpt>
      <trkpt lat="45.8713" lon="0.97489">
        <ele>183.1</ele>
        <time>2026-08-10T11:09:46.000Z</time>
      </trkpt>
      <trkpt lat="45.87128" lon="0.97488">
        <ele>183.2</ele>
        <time>2026-08-10T11:09:47.000Z</time>
      </trkpt>
      <trkpt lat="45.87112" lon="0.97475">
        <ele>183.6</ele>
        <time>2026-08-10T11:09:54.000Z</time>
      </trkpt>
      <trkpt lat="45.87107" lon="0.97472">
        <ele>183.5</ele>
        <time>2026-08-10T11:09:56.000Z</time>
      </trkpt>
      <trkpt lat="45.87088" lon="0.97456">
        <ele>184</ele>
        <time>2026-08-10T11:10:04.000Z</time>
      </trkpt>
      <trkpt lat="45.87069" lon="0.97433">
        <ele>184.6</ele>
        <time>2026-08-10T11:10:13.000Z</time>
      </trkpt>
      <trkpt lat="45.87066" lon="0.97425">
        <ele>184.5</ele>
        <time>2026-08-10T11:10:15.000Z</time>
      </trkpt>
      <trkpt lat="45.87059" lon="0.97396">
        <ele>183.9</ele>
        <time>2026-08-10T11:10:21.000Z</time>
      </trkpt>
      <trkpt lat="45.87049" lon="0.97365">
        <ele>183.3</ele>
        <time>2026-08-10T11:10:27.000Z</time>
      </trkpt>
      <trkpt lat="45.87041" lon="0.97344">
        <ele>182.9</ele>
        <time>2026-08-10T11:10:31.000Z</time>
      </trkpt>
      <trkpt lat="45.87031" lon="0.97323">
        <ele>182.9</ele>
        <time>2026-08-10T11:10:35.000Z</time>
      </trkpt>
      <trkpt lat="45.87021" lon="0.97302">
        <ele>183.3</ele>
        <time>2026-08-10T11:10:39.000Z</time>
      </trkpt>
      <trkpt lat="45.87018" lon="0.97294">
        <ele>183.6</ele>
        <time>2026-08-10T11:10:41.000Z</time>
      </trkpt>
      <trkpt lat="45.87009" lon="0.97273">
        <ele>183.4</ele>
        <time>2026-08-10T11:10:46.000Z</time>
      </trkpt>
      <trkpt lat="45.86998" lon="0.9725">
        <ele>184.3</ele>
        <time>2026-08-10T11:10:51.000Z</time>
      </trkpt>
      <trkpt lat="45.86995" lon="0.97246">
        <ele>184.2</ele>
        <time>2026-08-10T11:10:52.000Z</time>
      </trkpt>
      <trkpt lat="45.86988" lon="0.97217">
        <ele>184.4</ele>
        <time>2026-08-10T11:10:57.000Z</time>
      </trkpt>
      <trkpt lat="45.8699" lon="0.97186">
        <ele>185</ele>
        <time>2026-08-10T11:11:02.000Z</time>
      </trkpt>
      <trkpt lat="45.86994" lon="0.97154">
        <ele>183.9</ele>
        <time>2026-08-10T11:11:06.000Z</time>
      </trkpt>
      <trkpt lat="45.87005" lon="0.97092">
        <ele>180.1</ele>
        <time>2026-08-10T11:11:12.000Z</time>
      </trkpt>
      <trkpt lat="45.87009" lon="0.97069">
        <ele>179</ele>
        <time>2026-08-10T11:11:14.000Z</time>
      </trkpt>
      <trkpt lat="45.8702" lon="0.97035">
        <ele>176.9</ele>
        <time>2026-08-10T11:11:17.000Z</time>
      </trkpt>
      <trkpt lat="45.8703" lon="0.96999">
        <ele>174.1</ele>
        <time>2026-08-10T11:11:20.000Z</time>
      </trkpt>
      <trkpt lat="45.8704" lon="0.96966">
        <ele>176.7</ele>
        <time>2026-08-10T11:11:23.000Z</time>
      </trkpt>
      <trkpt lat="45.87043" lon="0.96957">
        <ele>177.3</ele>
        <time>2026-08-10T11:11:24.000Z</time>
      </trkpt>
      <trkpt lat="45.87055" lon="0.96917">
        <ele>178.2</ele>
        <time>2026-08-10T11:11:29.000Z</time>
      </trkpt>
      <trkpt lat="45.87067" lon="0.96866">
        <ele>179.7</ele>
        <time>2026-08-10T11:11:36.000Z</time>
      </trkpt>
      <trkpt lat="45.87069" lon="0.96833">
        <ele>180.1</ele>
        <time>2026-08-10T11:11:41.000Z</time>
      </trkpt>
      <trkpt lat="45.87068" lon="0.96801">
        <ele>180.5</ele>
        <time>2026-08-10T11:11:46.000Z</time>
      </trkpt>
      <trkpt lat="45.87068" lon="0.96789">
        <ele>180.9</ele>
        <time>2026-08-10T11:11:48.000Z</time>
      </trkpt>
      <trkpt lat="45.87069" lon="0.96783">
        <ele>181.1</ele>
        <time>2026-08-10T11:11:49.000Z</time>
      </trkpt>
      <trkpt lat="45.87067" lon="0.96754">
        <ele>182.9</ele>
        <time>2026-08-10T11:11:55.000Z</time>
      </trkpt>
      <trkpt lat="45.87066" lon="0.96708">
        <ele>183.7</ele>
        <time>2026-08-10T11:12:04.000Z</time>
      </trkpt>
      <trkpt lat="45.87065" lon="0.96693">
        <ele>183.7</ele>
        <time>2026-08-10T11:12:07.000Z</time>
      </trkpt>
      <trkpt lat="45.87061" lon="0.96669">
        <ele>183.5</ele>
        <time>2026-08-10T11:12:12.000Z</time>
      </trkpt>
      <trkpt lat="45.87058" lon="0.96649">
        <ele>184.2</ele>
        <time>2026-08-10T11:12:17.000Z</time>
      </trkpt>
      <trkpt lat="45.87047" lon="0.96616">
        <ele>184.5</ele>
        <time>2026-08-10T11:12:24.000Z</time>
      </trkpt>
      <trkpt lat="45.87037" lon="0.96589">
        <ele>185.4</ele>
        <time>2026-08-10T11:12:30.000Z</time>
      </trkpt>
      <trkpt lat="45.87032" lon="0.96563">
        <ele>186.2</ele>
        <time>2026-08-10T11:12:36.000Z</time>
      </trkpt>
      <trkpt lat="45.87031" lon="0.96557">
        <ele>186.4</ele>
        <time>2026-08-10T11:12:38.000Z</time>
      </trkpt>
      <trkpt lat="45.8703" lon="0.96539">
        <ele>186.6</ele>
        <time>2026-08-10T11:12:43.000Z</time>
      </trkpt>
      <trkpt lat="45.87029" lon="0.96523">
        <ele>187</ele>
        <time>2026-08-10T11:12:47.000Z</time>
      </trkpt>
      <trkpt lat="45.8703" lon="0.96504">
        <ele>187.5</ele>
        <time>2026-08-10T11:12:53.000Z</time>
      </trkpt>
      <trkpt lat="45.87031" lon="0.96489">
        <ele>187.8</ele>
        <time>2026-08-10T11:12:57.000Z</time>
      </trkpt>
      <trkpt lat="45.87032" lon="0.96482">
        <ele>187.9</ele>
        <time>2026-08-10T11:12:59.000Z</time>
      </trkpt>
      <trkpt lat="45.87033" lon="0.96455">
        <ele>188.6</ele>
        <time>2026-08-10T11:13:06.000Z</time>
      </trkpt>
      <trkpt lat="45.87035" lon="0.9643">
        <ele>188.7</ele>
        <time>2026-08-10T11:13:12.000Z</time>
      </trkpt>
      <trkpt lat="45.87036" lon="0.96418">
        <ele>188.5</ele>
        <time>2026-08-10T11:13:15.000Z</time>
      </trkpt>
      <trkpt lat="45.87038" lon="0.96397">
        <ele>188.5</ele>
        <time>2026-08-10T11:13:20.000Z</time>
      </trkpt>
      <trkpt lat="45.87042" lon="0.96373">
        <ele>188.3</ele>
        <time>2026-08-10T11:13:25.000Z</time>
      </trkpt>
      <trkpt lat="45.87045" lon="0.96338">
        <ele>188.2</ele>
        <time>2026-08-10T11:13:31.000Z</time>
      </trkpt>
      <trkpt lat="45.87047" lon="0.9631">
        <ele>188.8</ele>
        <time>2026-08-10T11:13:36.000Z</time>
      </trkpt>
      <trkpt lat="45.87048" lon="0.96292">
        <ele>188.4</ele>
        <time>2026-08-10T11:13:39.000Z</time>
      </trkpt>
      <trkpt lat="45.87049" lon="0.96285">
        <ele>188.1</ele>
        <time>2026-08-10T11:13:40.000Z</time>
      </trkpt>
      <trkpt lat="45.87051" lon="0.96267">
        <ele>187.3</ele>
        <time>2026-08-10T11:13:43.000Z</time>
      </trkpt>
      <trkpt lat="45.87054" lon="0.96241">
        <ele>186.5</ele>
        <time>2026-08-10T11:13:47.000Z</time>
      </trkpt>
      <trkpt lat="45.87055" lon="0.96235">
        <ele>186.6</ele>
        <time>2026-08-10T11:13:48.000Z</time>
      </trkpt>
      <trkpt lat="45.87064" lon="0.96196">
        <ele>186.4</ele>
        <time>2026-08-10T11:13:54.000Z</time>
      </trkpt>
      <trkpt lat="45.87068" lon="0.96177">
        <ele>186.4</ele>
        <time>2026-08-10T11:13:57.000Z</time>
      </trkpt>
      <trkpt lat="45.87075" lon="0.96151">
        <ele>184.9</ele>
        <time>2026-08-10T11:14:01.000Z</time>
      </trkpt>
      <trkpt lat="45.87085" lon="0.9611">
        <ele>181.7</ele>
        <time>2026-08-10T11:14:06.000Z</time>
      </trkpt>
      <trkpt lat="45.87088" lon="0.96089">
        <ele>181.1</ele>
        <time>2026-08-10T11:14:08.000Z</time>
      </trkpt>
      <trkpt lat="45.8709" lon="0.96078">
        <ele>180.7</ele>
        <time>2026-08-10T11:14:09.000Z</time>
      </trkpt>
      <trkpt lat="45.8709" lon="0.96056">
        <ele>179.8</ele>
        <time>2026-08-10T11:14:11.000Z</time>
      </trkpt>
      <trkpt lat="45.87088" lon="0.96045">
        <ele>179.1</ele>
        <time>2026-08-10T11:14:12.000Z</time>
      </trkpt>
      <trkpt lat="45.87081" lon="0.96015">
        <ele>177.9</ele>
        <time>2026-08-10T11:14:15.000Z</time>
      </trkpt>
      <trkpt lat="45.87079" lon="0.96004">
        <ele>177.7</ele>
        <time>2026-08-10T11:14:16.000Z</time>
      </trkpt>
      <trkpt lat="45.87078" lon="0.95994">
        <ele>177.1</ele>
        <time>2026-08-10T11:14:17.000Z</time>
      </trkpt>
      <trkpt lat="45.87081" lon="0.95974">
        <ele>175.2</ele>
        <time>2026-08-10T11:14:19.000Z</time>
      </trkpt>
      <trkpt lat="45.87089" lon="0.95956">
        <ele>176.3</ele>
        <time>2026-08-10T11:14:21.000Z</time>
      </trkpt>
      <trkpt lat="45.871" lon="0.9593">
        <ele>178.4</ele>
        <time>2026-08-10T11:14:24.000Z</time>
      </trkpt>
      <trkpt lat="45.87113" lon="0.95899">
        <ele>179.8</ele>
        <time>2026-08-10T11:14:29.000Z</time>
      </trkpt>
      <trkpt lat="45.87119" lon="0.95885">
        <ele>180.4</ele>
        <time>2026-08-10T11:14:32.000Z</time>
      </trkpt>
      <trkpt lat="45.87122" lon="0.95878">
        <ele>180.8</ele>
        <time>2026-08-10T11:14:34.000Z</time>
      </trkpt>
      <trkpt lat="45.87124" lon="0.95874">
        <ele>180.8</ele>
        <time>2026-08-10T11:14:35.000Z</time>
      </trkpt>
      <trkpt lat="45.87129" lon="0.95861">
        <ele>181.1</ele>
        <time>2026-08-10T11:14:39.000Z</time>
      </trkpt>
      <trkpt lat="45.8713" lon="0.95858">
        <ele>181.1</ele>
        <time>2026-08-10T11:14:40.000Z</time>
      </trkpt>
      <trkpt lat="45.87135" lon="0.9584">
        <ele>181.4</ele>
        <time>2026-08-10T11:14:46.000Z</time>
      </trkpt>
      <trkpt lat="45.87137" lon="0.95829">
        <ele>181.8</ele>
        <time>2026-08-10T11:14:50.000Z</time>
      </trkpt>
      <trkpt lat="45.87139" lon="0.95809">
        <ele>183.4</ele>
        <time>2026-08-10T11:14:56.000Z</time>
      </trkpt>
      <trkpt lat="45.87141" lon="0.95792">
        <ele>183.9</ele>
        <time>2026-08-10T11:15:02.000Z</time>
      </trkpt>
      <trkpt lat="45.87141" lon="0.9579">
        <ele>183.8</ele>
        <time>2026-08-10T11:15:03.000Z</time>
      </trkpt>
      <trkpt lat="45.87143" lon="0.95768">
        <ele>183.9</ele>
        <time>2026-08-10T11:15:11.000Z</time>
      </trkpt>
      <trkpt lat="45.87144" lon="0.95766">
        <ele>183.8</ele>
        <time>2026-08-10T11:15:12.000Z</time>
      </trkpt>
      <trkpt lat="45.87144" lon="0.9575">
        <ele>184.4</ele>
        <time>2026-08-10T11:15:19.000Z</time>
      </trkpt>
      <trkpt lat="45.87144" lon="0.95741">
        <ele>184.8</ele>
        <time>2026-08-10T11:15:23.000Z</time>
      </trkpt>
      <trkpt lat="45.87144" lon="0.95733">
        <ele>185</ele>
        <time>2026-08-10T11:15:26.000Z</time>
      </trkpt>
      <trkpt lat="45.87144" lon="0.95727">
        <ele>185.1</ele>
        <time>2026-08-10T11:15:28.000Z</time>
      </trkpt>
      <trkpt lat="45.87144" lon="0.9571">
        <ele>186</ele>
        <time>2026-08-10T11:15:33.000Z</time>
      </trkpt>
      <trkpt lat="45.87145" lon="0.95692">
        <ele>186.8</ele>
        <time>2026-08-10T11:15:39.000Z</time>
      </trkpt>
      <trkpt lat="45.87151" lon="0.95675">
        <ele>187</ele>
        <time>2026-08-10T11:15:45.000Z</time>
      </trkpt>
      <trkpt lat="45.87152" lon="0.95673">
        <ele>187</ele>
        <time>2026-08-10T11:15:46.000Z</time>
      </trkpt>
      <trkpt lat="45.87157" lon="0.95664">
        <ele>187.3</ele>
        <time>2026-08-10T11:15:52.000Z</time>
      </trkpt>
      <trkpt lat="45.8716" lon="0.95658">
        <ele>188.1</ele>
        <time>2026-08-10T11:15:55.000Z</time>
      </trkpt>
      <trkpt lat="45.87162" lon="0.95655">
        <ele>188.3</ele>
        <time>2026-08-10T11:15:57.000Z</time>
      </trkpt>
      <trkpt lat="45.87172" lon="0.95643">
        <ele>188.1</ele>
        <time>2026-08-10T11:16:04.000Z</time>
      </trkpt>
      <trkpt lat="45.87174" lon="0.95642">
        <ele>188</ele>
        <time>2026-08-10T11:16:05.000Z</time>
      </trkpt>
      <trkpt lat="45.87182" lon="0.95629">
        <ele>187.8</ele>
        <time>2026-08-10T11:16:12.000Z</time>
      </trkpt>
      <trkpt lat="45.87186" lon="0.95619">
        <ele>189.2</ele>
        <time>2026-08-10T11:16:16.000Z</time>
      </trkpt>
      <trkpt lat="45.87188" lon="0.95615">
        <ele>189.9</ele>
        <time>2026-08-10T11:16:18.000Z</time>
      </trkpt>
      <trkpt lat="45.87188" lon="0.95611">
        <ele>190.9</ele>
        <time>2026-08-10T11:16:19.000Z</time>
      </trkpt>
      <trkpt lat="45.87189" lon="0.95597">
        <ele>191.9</ele>
        <time>2026-08-10T11:16:24.000Z</time>
      </trkpt>
      <trkpt lat="45.8719" lon="0.95585">
        <ele>192.7</ele>
        <time>2026-08-10T11:16:28.000Z</time>
      </trkpt>
      <trkpt lat="45.87191" lon="0.95579">
        <ele>192.4</ele>
        <time>2026-08-10T11:16:30.000Z</time>
      </trkpt>
      <trkpt lat="45.8719" lon="0.95577">
        <ele>192.4</ele>
        <time>2026-08-10T11:16:31.000Z</time>
      </trkpt>
      <trkpt lat="45.87187" lon="0.95568">
        <ele>192.5</ele>
        <time>2026-08-10T11:16:34.000Z</time>
      </trkpt>
      <trkpt lat="45.87184" lon="0.9556">
        <ele>192.8</ele>
        <time>2026-08-10T11:16:37.000Z</time>
      </trkpt>
      <trkpt lat="45.87183" lon="0.95554">
        <ele>192.8</ele>
        <time>2026-08-10T11:16:39.000Z</time>
      </trkpt>
      <trkpt lat="45.8718" lon="0.9554">
        <ele>193</ele>
        <time>2026-08-10T11:16:43.000Z</time>
      </trkpt>
      <trkpt lat="45.87177" lon="0.95512">
        <ele>194.1</ele>
        <time>2026-08-10T11:16:50.000Z</time>
      </trkpt>
      <trkpt lat="45.87176" lon="0.9549">
        <ele>195.1</ele>
        <time>2026-08-10T11:16:55.000Z</time>
      </trkpt>
      <trkpt lat="45.87176" lon="0.95476">
        <ele>195.8</ele>
        <time>2026-08-10T11:16:58.000Z</time>
      </trkpt>
      <trkpt lat="45.87177" lon="0.95449">
        <ele>196.9</ele>
        <time>2026-08-10T11:17:05.000Z</time>
      </trkpt>
      <trkpt lat="45.8718" lon="0.95433">
        <ele>198.7</ele>
        <time>2026-08-10T11:17:11.000Z</time>
      </trkpt>
      <trkpt lat="45.87185" lon="0.95415">
        <ele>200.7</ele>
        <time>2026-08-10T11:17:18.000Z</time>
      </trkpt>
      <trkpt lat="45.87186" lon="0.95412">
        <ele>200.7</ele>
        <time>2026-08-10T11:17:19.000Z</time>
      </trkpt>
      <trkpt lat="45.87191" lon="0.95399">
        <ele>200.5</ele>
        <time>2026-08-10T11:17:24.000Z</time>
      </trkpt>
      <trkpt lat="45.87193" lon="0.95396">
        <ele>200.3</ele>
        <time>2026-08-10T11:17:25.000Z</time>
      </trkpt>
      <trkpt lat="45.87204" lon="0.95375">
        <ele>201.2</ele>
        <time>2026-08-10T11:17:33.000Z</time>
      </trkpt>
      <trkpt lat="45.87207" lon="0.9537">
        <ele>201.3</ele>
        <time>2026-08-10T11:17:35.000Z</time>
      </trkpt>
      <trkpt lat="45.87216" lon="0.9535">
        <ele>201.3</ele>
        <time>2026-08-10T11:17:42.000Z</time>
      </trkpt>
      <trkpt lat="45.87224" lon="0.95333">
        <ele>200.9</ele>
        <time>2026-08-10T11:17:48.000Z</time>
      </trkpt>
      <trkpt lat="45.87234" lon="0.95313">
        <ele>201.7</ele>
        <time>2026-08-10T11:17:55.000Z</time>
      </trkpt>
      <trkpt lat="45.87237" lon="0.95306">
        <ele>201.9</ele>
        <time>2026-08-10T11:17:57.000Z</time>
      </trkpt>
      <trkpt lat="45.87248" lon="0.95287">
        <ele>201.9</ele>
        <time>2026-08-10T11:18:03.000Z</time>
      </trkpt>
      <trkpt lat="45.87259" lon="0.95269">
        <ele>202.1</ele>
        <time>2026-08-10T11:18:09.000Z</time>
      </trkpt>
      <trkpt lat="45.87263" lon="0.95264">
        <ele>202.3</ele>
        <time>2026-08-10T11:18:11.000Z</time>
      </trkpt>
      <trkpt lat="45.87282" lon="0.9525">
        <ele>202.9</ele>
        <time>2026-08-10T11:18:19.000Z</time>
      </trkpt>
      <trkpt lat="45.87287" lon="0.95248">
        <ele>202.9</ele>
        <time>2026-08-10T11:18:21.000Z</time>
      </trkpt>
      <trkpt lat="45.8731" lon="0.95241">
        <ele>202.9</ele>
        <time>2026-08-10T11:18:29.000Z</time>
      </trkpt>
      <trkpt lat="45.87337" lon="0.95235">
        <ele>203</ele>
        <time>2026-08-10T11:18:37.000Z</time>
      </trkpt>
      <trkpt lat="45.87359" lon="0.95225">
        <ele>203.7</ele>
        <time>2026-08-10T11:18:43.000Z</time>
      </trkpt>
      <trkpt lat="45.87363" lon="0.95223">
        <ele>203.8</ele>
        <time>2026-08-10T11:18:44.000Z</time>
      </trkpt>
      <trkpt lat="45.87377" lon="0.95204">
        <ele>203.6</ele>
        <time>2026-08-10T11:18:49.000Z</time>
      </trkpt>
      <trkpt lat="45.87393" lon="0.95179">
        <ele>204</ele>
        <time>2026-08-10T11:18:55.000Z</time>
      </trkpt>
      <trkpt lat="45.8742" lon="0.95165">
        <ele>204.1</ele>
        <time>2026-08-10T11:19:02.000Z</time>
      </trkpt>
      <trkpt lat="45.87458" lon="0.95155">
        <ele>203.8</ele>
        <time>2026-08-10T11:19:12.000Z</time>
      </trkpt>
      <trkpt lat="45.87477" lon="0.95143">
        <ele>203.9</ele>
        <time>2026-08-10T11:19:17.000Z</time>
      </trkpt>
      <trkpt lat="45.87485" lon="0.95139">
        <ele>203.6</ele>
        <time>2026-08-10T11:19:19.000Z</time>
      </trkpt>
      <trkpt lat="45.87506" lon="0.95126">
        <ele>203.2</ele>
        <time>2026-08-10T11:19:25.000Z</time>
      </trkpt>
      <trkpt lat="45.87518" lon="0.95113">
        <ele>204.2</ele>
        <time>2026-08-10T11:19:30.000Z</time>
      </trkpt>
      <trkpt lat="45.8754" lon="0.95084">
        <ele>204.5</ele>
        <time>2026-08-10T11:19:39.000Z</time>
      </trkpt>
      <trkpt lat="45.87548" lon="0.95074">
        <ele>205</ele>
        <time>2026-08-10T11:19:42.000Z</time>
      </trkpt>
      <trkpt lat="45.87555" lon="0.95063">
        <ele>205.5</ele>
        <time>2026-08-10T11:19:45.000Z</time>
      </trkpt>
      <trkpt lat="45.87569" lon="0.95042">
        <ele>205.8</ele>
        <time>2026-08-10T11:19:53.000Z</time>
      </trkpt>
      <trkpt lat="45.87578" lon="0.95029">
        <ele>206.1</ele>
        <time>2026-08-10T11:19:58.000Z</time>
      </trkpt>
      <trkpt lat="45.87583" lon="0.95022">
        <ele>206.4</ele>
        <time>2026-08-10T11:20:01.000Z</time>
      </trkpt>
      <trkpt lat="45.87597" lon="0.94999">
        <ele>206.6</ele>
        <time>2026-08-10T11:20:08.000Z</time>
      </trkpt>
      <trkpt lat="45.87606" lon="0.94982">
        <ele>205.7</ele>
        <time>2026-08-10T11:20:12.000Z</time>
      </trkpt>
      <trkpt lat="45.87611" lon="0.94971">
        <ele>205</ele>
        <time>2026-08-10T11:20:14.000Z</time>
      </trkpt>
      <trkpt lat="45.87631" lon="0.9493">
        <ele>203.2</ele>
        <time>2026-08-10T11:20:20.000Z</time>
      </trkpt>
      <trkpt lat="45.87642" lon="0.94906">
        <ele>202</ele>
        <time>2026-08-10T11:20:23.000Z</time>
      </trkpt>
      <trkpt lat="45.87646" lon="0.94897">
        <ele>201.7</ele>
        <time>2026-08-10T11:20:24.000Z</time>
      </trkpt>
      <trkpt lat="45.87664" lon="0.94858">
        <ele>200.4</ele>
        <time>2026-08-10T11:20:28.000Z</time>
      </trkpt>
      <trkpt lat="45.87671" lon="0.94838">
        <ele>200.2</ele>
        <time>2026-08-10T11:20:30.000Z</time>
      </trkpt>
      <trkpt lat="45.87678" lon="0.94817">
        <ele>199.7</ele>
        <time>2026-08-10T11:20:32.000Z</time>
      </trkpt>
      <trkpt lat="45.87691" lon="0.94776">
        <ele>198.5</ele>
        <time>2026-08-10T11:20:36.000Z</time>
      </trkpt>
      <trkpt lat="45.87697" lon="0.94755">
        <ele>198.4</ele>
        <time>2026-08-10T11:20:38.000Z</time>
      </trkpt>
      <trkpt lat="45.87704" lon="0.94735">
        <ele>197.6</ele>
        <time>2026-08-10T11:20:40.000Z</time>
      </trkpt>
      <trkpt lat="45.87716" lon="0.94694">
        <ele>197</ele>
        <time>2026-08-10T11:20:44.000Z</time>
      </trkpt>
      <trkpt lat="45.87718" lon="0.94683">
        <ele>196.9</ele>
        <time>2026-08-10T11:20:45.000Z</time>
      </trkpt>
      <trkpt lat="45.87736" lon="0.94624">
        <ele>195</ele>
        <time>2026-08-10T11:20:51.000Z</time>
      </trkpt>
      <trkpt lat="45.87738" lon="0.94614">
        <ele>194.7</ele>
        <time>2026-08-10T11:20:52.000Z</time>
      </trkpt>
      <trkpt lat="45.87749" lon="0.9457">
        <ele>192.6</ele>
        <time>2026-08-10T11:20:56.000Z</time>
      </trkpt>
      <trkpt lat="45.87758" lon="0.94537">
        <ele>191</ele>
        <time>2026-08-10T11:20:59.000Z</time>
      </trkpt>
      <trkpt lat="45.87765" lon="0.94502">
        <ele>189</ele>
        <time>2026-08-10T11:21:02.000Z</time>
      </trkpt>
      <trkpt lat="45.87766" lon="0.9449">
        <ele>188.4</ele>
        <time>2026-08-10T11:21:03.000Z</time>
      </trkpt>
      <trkpt lat="45.87768" lon="0.94466">
        <ele>187.5</ele>
        <time>2026-08-10T11:21:05.000Z</time>
      </trkpt>
      <trkpt lat="45.8777" lon="0.94433">
        <ele>187.9</ele>
        <time>2026-08-10T11:21:08.000Z</time>
      </trkpt>
      <trkpt lat="45.8777" lon="0.94423">
        <ele>187.9</ele>
        <time>2026-08-10T11:21:09.000Z</time>
      </trkpt>
      <trkpt lat="45.87769" lon="0.94403">
        <ele>188.1</ele>
        <time>2026-08-10T11:21:11.000Z</time>
      </trkpt>
      <trkpt lat="45.87765" lon="0.94353">
        <ele>188.1</ele>
        <time>2026-08-10T11:21:16.000Z</time>
      </trkpt>
      <trkpt lat="45.87763" lon="0.94334">
        <ele>187.7</ele>
        <time>2026-08-10T11:21:18.000Z</time>
      </trkpt>
      <trkpt lat="45.87757" lon="0.94277">
        <ele>186.5</ele>
        <time>2026-08-10T11:21:24.000Z</time>
      </trkpt>
      <trkpt lat="45.87756" lon="0.94268">
        <ele>186.6</ele>
        <time>2026-08-10T11:21:25.000Z</time>
      </trkpt>
      <trkpt lat="45.87752" lon="0.9425">
        <ele>186.8</ele>
        <time>2026-08-10T11:21:27.000Z</time>
      </trkpt>
      <trkpt lat="45.87747" lon="0.94232">
        <ele>185.9</ele>
        <time>2026-08-10T11:21:29.000Z</time>
      </trkpt>
      <trkpt lat="45.87737" lon="0.94204">
        <ele>184.5</ele>
        <time>2026-08-10T11:21:32.000Z</time>
      </trkpt>
      <trkpt lat="45.87731" lon="0.94183">
        <ele>184.7</ele>
        <time>2026-08-10T11:21:34.000Z</time>
      </trkpt>
      <trkpt lat="45.87727" lon="0.94148">
        <ele>186.5</ele>
        <time>2026-08-10T11:21:38.000Z</time>
      </trkpt>
      <trkpt lat="45.87726" lon="0.94118">
        <ele>187.7</ele>
        <time>2026-08-10T11:21:43.000Z</time>
      </trkpt>
      <trkpt lat="45.87725" lon="0.94101">
        <ele>188.3</ele>
        <time>2026-08-10T11:21:48.000Z</time>
      </trkpt>
      <trkpt lat="45.87725" lon="0.94095">
        <ele>188.5</ele>
        <time>2026-08-10T11:21:50.000Z</time>
      </trkpt>
      <trkpt lat="45.87727" lon="0.94087">
        <ele>188.7</ele>
        <time>2026-08-10T11:21:53.000Z</time>
      </trkpt>
      <trkpt lat="45.87731" lon="0.9407">
        <ele>188.2</ele>
        <time>2026-08-10T11:21:58.000Z</time>
      </trkpt>
      <trkpt lat="45.8773" lon="0.94062">
        <ele>187.9</ele>
        <time>2026-08-10T11:22:00.000Z</time>
      </trkpt>
      <trkpt lat="45.87727" lon="0.94059">
        <ele>187.9</ele>
        <time>2026-08-10T11:22:02.000Z</time>
      </trkpt>
      <trkpt lat="45.8772" lon="0.94061">
        <ele>188.4</ele>
        <time>2026-08-10T11:22:07.000Z</time>
      </trkpt>
      <trkpt lat="45.87716" lon="0.94064">
        <ele>188.8</ele>
        <time>2026-08-10T11:22:11.000Z</time>
      </trkpt>
      <trkpt lat="45.87714" lon="0.94067">
        <ele>189</ele>
        <time>2026-08-10T11:22:13.000Z</time>
      </trkpt>
      <trkpt lat="45.87714" lon="0.94068">
        <ele>189</ele>
        <time>2026-08-10T11:22:14.000Z</time>
      </trkpt>
      <trkpt lat="45.87714" lon="0.94069">
        <ele>189.1</ele>
        <time>2026-08-10T11:22:17.000Z</time>
      </trkpt>
      <trkpt lat="45.87722" lon="0.94083">
        <ele>189</ele>
        <time>2026-08-10T12:48:57.000Z</time>
      </trkpt>
      <trkpt lat="45.87721" lon="0.94085">
        <ele>189</ele>
        <time>2026-08-10T12:48:59.000Z</time>
      </trkpt>
      <trkpt lat="45.87719" lon="0.94086">
        <ele>189</ele>
        <time>2026-08-10T12:49:00.000Z</time>
      </trkpt>
      <trkpt lat="45.8771" lon="0.94091">
        <ele>189.3</ele>
        <time>2026-08-10T12:49:09.000Z</time>
      </trkpt>
      <trkpt lat="45.87697" lon="0.94098">
        <ele>189.9</ele>
        <time>2026-08-10T12:49:20.000Z</time>
      </trkpt>
      <trkpt lat="45.87689" lon="0.94108">
        <ele>190.3</ele>
        <time>2026-08-10T12:49:28.000Z</time>
      </trkpt>
      <trkpt lat="45.8768" lon="0.94117">
        <ele>190.4</ele>
        <time>2026-08-10T12:49:37.000Z</time>
      </trkpt>
      <trkpt lat="45.87679" lon="0.94121">
        <ele>190.4</ele>
        <time>2026-08-10T12:49:40.000Z</time>
      </trkpt>
      <trkpt lat="45.87679" lon="0.94127">
        <ele>190.3</ele>
        <time>2026-08-10T12:49:43.000Z</time>
      </trkpt>
      <trkpt lat="45.87682" lon="0.94133">
        <ele>190</ele>
        <time>2026-08-10T12:49:47.000Z</time>
      </trkpt>
      <trkpt lat="45.87682" lon="0.94134">
        <ele>190</ele>
        <time>2026-08-10T12:49:48.000Z</time>
      </trkpt>
      <trkpt lat="45.87683" lon="0.94133">
        <ele>189.9</ele>
        <time>2026-08-10T12:49:49.000Z</time>
      </trkpt>
      <trkpt lat="45.87686" lon="0.94132">
        <ele>189.8</ele>
        <time>2026-08-10T12:49:52.000Z</time>
      </trkpt>
      <trkpt lat="45.87686" lon="0.94132">
        <ele>189.8</ele>
        <time>2026-08-10T12:49:55.000Z</time>
      </trkpt>
      <trkpt lat="45.87674" lon="0.94123">
        <ele>190.6</ele>
        <time>2026-08-10T12:55:36.000Z</time>
      </trkpt>
      <trkpt lat="45.8767" lon="0.94114">
        <ele>190.9</ele>
        <time>2026-08-10T12:55:41.000Z</time>
      </trkpt>
      <trkpt lat="45.87669" lon="0.94114">
        <ele>190.9</ele>
        <time>2026-08-10T12:55:42.000Z</time>
      </trkpt>
      <trkpt lat="45.87666" lon="0.94115">
        <ele>191</ele>
        <time>2026-08-10T12:55:45.000Z</time>
      </trkpt>
      <trkpt lat="45.87661" lon="0.94112">
        <ele>191.4</ele>
        <time>2026-08-10T12:55:49.000Z</time>
      </trkpt>
      <trkpt lat="45.87657" lon="0.9411">
        <ele>191.7</ele>
        <time>2026-08-10T12:55:51.000Z</time>
      </trkpt>
      <trkpt lat="45.87649" lon="0.94114">
        <ele>192.3</ele>
        <time>2026-08-10T12:55:56.000Z</time>
      </trkpt>
      <trkpt lat="45.87637" lon="0.94121">
        <ele>193.6</ele>
        <time>2026-08-10T12:56:04.000Z</time>
      </trkpt>
      <trkpt lat="45.87629" lon="0.94129">
        <ele>194.5</ele>
        <time>2026-08-10T12:56:10.000Z</time>
      </trkpt>
      <trkpt lat="45.87626" lon="0.94132">
        <ele>194.8</ele>
        <time>2026-08-10T12:56:12.000Z</time>
      </trkpt>
      <trkpt lat="45.87625" lon="0.94133">
        <ele>194.9</ele>
        <time>2026-08-10T12:56:13.000Z</time>
      </trkpt>
      <trkpt lat="45.87619" lon="0.94139">
        <ele>195.4</ele>
        <time>2026-08-10T12:56:18.000Z</time>
      </trkpt>
      <trkpt lat="45.87613" lon="0.94144">
        <ele>195.9</ele>
        <time>2026-08-10T12:56:23.000Z</time>
      </trkpt>
      <trkpt lat="45.87612" lon="0.94146">
        <ele>196</ele>
        <time>2026-08-10T12:56:24.000Z</time>
      </trkpt>
      <trkpt lat="45.87609" lon="0.94148">
        <ele>196.1</ele>
        <time>2026-08-10T12:56:26.000Z</time>
      </trkpt>
      <trkpt lat="45.87599" lon="0.94161">
        <ele>196.4</ele>
        <time>2026-08-10T12:56:34.000Z</time>
      </trkpt>
      <trkpt lat="45.87597" lon="0.94163">
        <ele>196.5</ele>
        <time>2026-08-10T12:56:35.000Z</time>
      </trkpt>
      <trkpt lat="45.87588" lon="0.94173">
        <ele>197</ele>
        <time>2026-08-10T12:56:41.000Z</time>
      </trkpt>
      <trkpt lat="45.87583" lon="0.94178">
        <ele>197.4</ele>
        <time>2026-08-10T12:56:44.000Z</time>
      </trkpt>
      <trkpt lat="45.87578" lon="0.94185">
        <ele>197.7</ele>
        <time>2026-08-10T12:56:48.000Z</time>
      </trkpt>
      <trkpt lat="45.87576" lon="0.94188">
        <ele>197.8</ele>
        <time>2026-08-10T12:56:50.000Z</time>
      </trkpt>
      <trkpt lat="45.87574" lon="0.9419">
        <ele>197.9</ele>
        <time>2026-08-10T12:56:51.000Z</time>
      </trkpt>
      <trkpt lat="45.87567" lon="0.94195">
        <ele>198</ele>
        <time>2026-08-10T12:56:55.000Z</time>
      </trkpt>
      <trkpt lat="45.87565" lon="0.94197">
        <ele>198</ele>
        <time>2026-08-10T12:56:56.000Z</time>
      </trkpt>
      <trkpt lat="45.8756" lon="0.94201">
        <ele>198.1</ele>
        <time>2026-08-10T12:56:59.000Z</time>
      </trkpt>
      <trkpt lat="45.87553" lon="0.94209">
        <ele>198.7</ele>
        <time>2026-08-10T12:57:03.000Z</time>
      </trkpt>
      <trkpt lat="45.87537" lon="0.94224">
        <ele>199.6</ele>
        <time>2026-08-10T12:57:11.000Z</time>
      </trkpt>
      <trkpt lat="45.87523" lon="0.9424">
        <ele>200.2</ele>
        <time>2026-08-10T12:57:19.000Z</time>
      </trkpt>
      <trkpt lat="45.87517" lon="0.94247">
        <ele>200.4</ele>
        <time>2026-08-10T12:57:23.000Z</time>
      </trkpt>
      <trkpt lat="45.87511" lon="0.94253">
        <ele>200.6</ele>
        <time>2026-08-10T12:57:26.000Z</time>
      </trkpt>
      <trkpt lat="45.87497" lon="0.94262">
        <ele>201.3</ele>
        <time>2026-08-10T12:57:33.000Z</time>
      </trkpt>
      <trkpt lat="45.87495" lon="0.94264">
        <ele>201.5</ele>
        <time>2026-08-10T12:57:34.000Z</time>
      </trkpt>
      <trkpt lat="45.87477" lon="0.94269">
        <ele>203.2</ele>
        <time>2026-08-10T12:57:42.000Z</time>
      </trkpt>
      <trkpt lat="45.87472" lon="0.94269">
        <ele>203.6</ele>
        <time>2026-08-10T12:57:44.000Z</time>
      </trkpt>
      <trkpt lat="45.87455" lon="0.94268">
        <ele>204.7</ele>
        <time>2026-08-10T12:57:52.000Z</time>
      </trkpt>
      <trkpt lat="45.87453" lon="0.94268">
        <ele>204.9</ele>
        <time>2026-08-10T12:57:53.000Z</time>
      </trkpt>
      <trkpt lat="45.87439" lon="0.94263">
        <ele>205.6</ele>
        <time>2026-08-10T12:58:00.000Z</time>
      </trkpt>
      <trkpt lat="45.87437" lon="0.94262">
        <ele>205.7</ele>
        <time>2026-08-10T12:58:01.000Z</time>
      </trkpt>
      <trkpt lat="45.87426" lon="0.94259">
        <ele>205.9</ele>
        <time>2026-08-10T12:58:07.000Z</time>
      </trkpt>
      <trkpt lat="45.87423" lon="0.94258">
        <ele>205.9</ele>
        <time>2026-08-10T12:58:09.000Z</time>
      </trkpt>
      <trkpt lat="45.87418" lon="0.94256">
        <ele>206</ele>
        <time>2026-08-10T12:58:12.000Z</time>
      </trkpt>
      <trkpt lat="45.87416" lon="0.94256">
        <ele>206.1</ele>
        <time>2026-08-10T12:58:13.000Z</time>
      </trkpt>
      <trkpt lat="45.87402" lon="0.94254">
        <ele>207.1</ele>
        <time>2026-08-10T12:58:21.000Z</time>
      </trkpt>
      <trkpt lat="45.87387" lon="0.94261">
        <ele>208.1</ele>
        <time>2026-08-10T12:58:29.000Z</time>
      </trkpt>
      <trkpt lat="45.87385" lon="0.94261">
        <ele>208.3</ele>
        <time>2026-08-10T12:58:30.000Z</time>
      </trkpt>
      <trkpt lat="45.87383" lon="0.94261">
        <ele>208.5</ele>
        <time>2026-08-10T12:58:31.000Z</time>
      </trkpt>
      <trkpt lat="45.87378" lon="0.94262">
        <ele>209</ele>
        <time>2026-08-10T12:58:34.000Z</time>
      </trkpt>
      <trkpt lat="45.87375" lon="0.94264">
        <ele>209.2</ele>
        <time>2026-08-10T12:58:36.000Z</time>
      </trkpt>
      <trkpt lat="45.87369" lon="0.9427">
        <ele>209.6</ele>
        <time>2026-08-10T12:58:40.000Z</time>
      </trkpt>
      <trkpt lat="45.87366" lon="0.94272">
        <ele>209.9</ele>
        <time>2026-08-10T12:58:42.000Z</time>
      </trkpt>
      <trkpt lat="45.87354" lon="0.94279">
        <ele>210.7</ele>
        <time>2026-08-10T12:58:48.000Z</time>
      </trkpt>
      <trkpt lat="45.87347" lon="0.94287">
        <ele>211.5</ele>
        <time>2026-08-10T12:58:53.000Z</time>
      </trkpt>
      <trkpt lat="45.87346" lon="0.94289">
        <ele>211.7</ele>
        <time>2026-08-10T12:58:54.000Z</time>
      </trkpt>
      <trkpt lat="45.87338" lon="0.94299">
        <ele>212.5</ele>
        <time>2026-08-10T12:59:00.000Z</time>
      </trkpt>
      <trkpt lat="45.87329" lon="0.94309">
        <ele>213.5</ele>
        <time>2026-08-10T12:59:07.000Z</time>
      </trkpt>
      <trkpt lat="45.87327" lon="0.9431">
        <ele>213.6</ele>
        <time>2026-08-10T12:59:08.000Z</time>
      </trkpt>
      <trkpt lat="45.87323" lon="0.94314">
        <ele>214</ele>
        <time>2026-08-10T12:59:11.000Z</time>
      </trkpt>
      <trkpt lat="45.8732" lon="0.94317">
        <ele>214.2</ele>
        <time>2026-08-10T12:59:13.000Z</time>
      </trkpt>
      <trkpt lat="45.87318" lon="0.9432">
        <ele>214.4</ele>
        <time>2026-08-10T12:59:15.000Z</time>
      </trkpt>
      <trkpt lat="45.87315" lon="0.94322">
        <ele>214.6</ele>
        <time>2026-08-10T12:59:17.000Z</time>
      </trkpt>
      <trkpt lat="45.87312" lon="0.94326">
        <ele>214.7</ele>
        <time>2026-08-10T12:59:20.000Z</time>
      </trkpt>
      <trkpt lat="45.87307" lon="0.94331">
        <ele>215</ele>
        <time>2026-08-10T12:59:25.000Z</time>
      </trkpt>
      <trkpt lat="45.87306" lon="0.94331">
        <ele>215.1</ele>
        <time>2026-08-10T12:59:26.000Z</time>
      </trkpt>
      <trkpt lat="45.87303" lon="0.94334">
        <ele>215.3</ele>
        <time>2026-08-10T12:59:28.000Z</time>
      </trkpt>
      <trkpt lat="45.87297" lon="0.9434">
        <ele>215.7</ele>
        <time>2026-08-10T12:59:32.000Z</time>
      </trkpt>
      <trkpt lat="45.87288" lon="0.94349">
        <ele>216.3</ele>
        <time>2026-08-10T12:59:38.000Z</time>
      </trkpt>
      <trkpt lat="45.87287" lon="0.94351">
        <ele>216.4</ele>
        <time>2026-08-10T12:59:39.000Z</time>
      </trkpt>
      <trkpt lat="45.87277" lon="0.94361">
        <ele>217.1</ele>
        <time>2026-08-10T12:59:45.000Z</time>
      </trkpt>
      <trkpt lat="45.8727" lon="0.94369">
        <ele>217.6</ele>
        <time>2026-08-10T12:59:50.000Z</time>
      </trkpt>
      <trkpt lat="45.87265" lon="0.94374">
        <ele>217.9</ele>
        <time>2026-08-10T12:59:53.000Z</time>
      </trkpt>
      <trkpt lat="45.87256" lon="0.94384">
        <ele>218.5</ele>
        <time>2026-08-10T12:59:59.000Z</time>
      </trkpt>
      <trkpt lat="45.87253" lon="0.94387">
        <ele>218.7</ele>
        <time>2026-08-10T13:00:01.000Z</time>
      </trkpt>
      <trkpt lat="45.87245" lon="0.94397">
        <ele>219</ele>
        <time>2026-08-10T13:00:06.000Z</time>
      </trkpt>
      <trkpt lat="45.87238" lon="0.94404">
        <ele>219.3</ele>
        <time>2026-08-10T13:00:10.000Z</time>
      </trkpt>
      <trkpt lat="45.87237" lon="0.94406">
        <ele>219.3</ele>
        <time>2026-08-10T13:00:11.000Z</time>
      </trkpt>
      <trkpt lat="45.87226" lon="0.94417">
        <ele>220.3</ele>
        <time>2026-08-10T13:00:18.000Z</time>
      </trkpt>
      <trkpt lat="45.87222" lon="0.94421">
        <ele>220.6</ele>
        <time>2026-08-10T13:00:20.000Z</time>
      </trkpt>
      <trkpt lat="45.87209" lon="0.94433">
        <ele>221.9</ele>
        <time>2026-08-10T13:00:28.000Z</time>
      </trkpt>
      <trkpt lat="45.87198" lon="0.94445">
        <ele>222.5</ele>
        <time>2026-08-10T13:00:36.000Z</time>
      </trkpt>
      <trkpt lat="45.87196" lon="0.94446">
        <ele>222.7</ele>
        <time>2026-08-10T13:00:37.000Z</time>
      </trkpt>
      <trkpt lat="45.87188" lon="0.94455">
        <ele>223.1</ele>
        <time>2026-08-10T13:00:43.000Z</time>
      </trkpt>
      <trkpt lat="45.87187" lon="0.94457">
        <ele>223.2</ele>
        <time>2026-08-10T13:00:44.000Z</time>
      </trkpt>
      <trkpt lat="45.87184" lon="0.9446">
        <ele>223.4</ele>
        <time>2026-08-10T13:00:46.000Z</time>
      </trkpt>
      <trkpt lat="45.87167" lon="0.94477">
        <ele>224.6</ele>
        <time>2026-08-10T13:00:55.000Z</time>
      </trkpt>
      <trkpt lat="45.87165" lon="0.94479">
        <ele>224.7</ele>
        <time>2026-08-10T13:00:56.000Z</time>
      </trkpt>
      <trkpt lat="45.87156" lon="0.94491">
        <ele>224.9</ele>
        <time>2026-08-10T13:01:03.000Z</time>
      </trkpt>
      <trkpt lat="45.87135" lon="0.94508">
        <ele>225.8</ele>
        <time>2026-08-10T13:01:13.000Z</time>
      </trkpt>
      <trkpt lat="45.87121" lon="0.94524">
        <ele>226.2</ele>
        <time>2026-08-10T13:01:21.000Z</time>
      </trkpt>
      <trkpt lat="45.87119" lon="0.94526">
        <ele>226.3</ele>
        <time>2026-08-10T13:01:22.000Z</time>
      </trkpt>
      <trkpt lat="45.87097" lon="0.9455">
        <ele>227.4</ele>
        <time>2026-08-10T13:01:35.000Z</time>
      </trkpt>
      <trkpt lat="45.87083" lon="0.94565">
        <ele>227.4</ele>
        <time>2026-08-10T13:01:42.000Z</time>
      </trkpt>
      <trkpt lat="45.87064" lon="0.94583">
        <ele>227.4</ele>
        <time>2026-08-10T13:01:50.000Z</time>
      </trkpt>
      <trkpt lat="45.87044" lon="0.94607">
        <ele>226.3</ele>
        <time>2026-08-10T13:01:56.000Z</time>
      </trkpt>
      <trkpt lat="45.87029" lon="0.94641">
        <ele>225.7</ele>
        <time>2026-08-10T13:02:01.000Z</time>
      </trkpt>
      <trkpt lat="45.8701" lon="0.94692">
        <ele>225.9</ele>
        <time>2026-08-10T13:02:08.000Z</time>
      </trkpt>
      <trkpt lat="45.86997" lon="0.94724">
        <ele>227.3</ele>
        <time>2026-08-10T13:02:14.000Z</time>
      </trkpt>
      <trkpt lat="45.86986" lon="0.94746">
        <ele>228.5</ele>
        <time>2026-08-10T13:02:20.000Z</time>
      </trkpt>
      <trkpt lat="45.86975" lon="0.94756">
        <ele>229.5</ele>
        <time>2026-08-10T13:02:26.000Z</time>
      </trkpt>
      <trkpt lat="45.86968" lon="0.9476">
        <ele>230</ele>
        <time>2026-08-10T13:02:30.000Z</time>
      </trkpt>
      <trkpt lat="45.86965" lon="0.94761">
        <ele>230.2</ele>
        <time>2026-08-10T13:02:32.000Z</time>
      </trkpt>
      <trkpt lat="45.8696" lon="0.94764">
        <ele>230.6</ele>
        <time>2026-08-10T13:02:35.000Z</time>
      </trkpt>
      <trkpt lat="45.86956" lon="0.94763">
        <ele>230.9</ele>
        <time>2026-08-10T13:02:37.000Z</time>
      </trkpt>
      <trkpt lat="45.86953" lon="0.94763">
        <ele>231.3</ele>
        <time>2026-08-10T13:02:39.000Z</time>
      </trkpt>
      <trkpt lat="45.8694" lon="0.94761">
        <ele>232.3</ele>
        <time>2026-08-10T13:02:46.000Z</time>
      </trkpt>
      <trkpt lat="45.86938" lon="0.9476">
        <ele>232.4</ele>
        <time>2026-08-10T13:02:47.000Z</time>
      </trkpt>
      <trkpt lat="45.86928" lon="0.94757">
        <ele>233</ele>
        <time>2026-08-10T13:02:53.000Z</time>
      </trkpt>
      <trkpt lat="45.86916" lon="0.94747">
        <ele>234</ele>
        <time>2026-08-10T13:03:00.000Z</time>
      </trkpt>
      <trkpt lat="45.86914" lon="0.94744">
        <ele>234.1</ele>
        <time>2026-08-10T13:03:02.000Z</time>
      </trkpt>
      <trkpt lat="45.86907" lon="0.94732">
        <ele>234.5</ele>
        <time>2026-08-10T13:03:08.000Z</time>
      </trkpt>
      <trkpt lat="45.86904" lon="0.94727">
        <ele>234.8</ele>
        <time>2026-08-10T13:03:11.000Z</time>
      </trkpt>
      <trkpt lat="45.86897" lon="0.94714">
        <ele>235.8</ele>
        <time>2026-08-10T13:03:18.000Z</time>
      </trkpt>
      <trkpt lat="45.86894" lon="0.94707">
        <ele>236.2</ele>
        <time>2026-08-10T13:03:21.000Z</time>
      </trkpt>
      <trkpt lat="45.86889" lon="0.94695">
        <ele>237</ele>
        <time>2026-08-10T13:03:27.000Z</time>
      </trkpt>
      <trkpt lat="45.86887" lon="0.94689">
        <ele>237.4</ele>
        <time>2026-08-10T13:03:30.000Z</time>
      </trkpt>
      <trkpt lat="45.86881" lon="0.94675">
        <ele>238.3</ele>
        <time>2026-08-10T13:03:37.000Z</time>
      </trkpt>
      <trkpt lat="45.86879" lon="0.94671">
        <ele>238.6</ele>
        <time>2026-08-10T13:03:39.000Z</time>
      </trkpt>
      <trkpt lat="45.86872" lon="0.94656">
        <ele>239.7</ele>
        <time>2026-08-10T13:03:47.000Z</time>
      </trkpt>
      <trkpt lat="45.8687" lon="0.94652">
        <ele>239.9</ele>
        <time>2026-08-10T13:03:49.000Z</time>
      </trkpt>
      <trkpt lat="45.86865" lon="0.94641">
        <ele>240.7</ele>
        <time>2026-08-10T13:03:55.000Z</time>
      </trkpt>
      <trkpt lat="45.86864" lon="0.94638">
        <ele>240.9</ele>
        <time>2026-08-10T13:03:56.000Z</time>
      </trkpt>
      <trkpt lat="45.8686" lon="0.94625">
        <ele>242.2</ele>
        <time>2026-08-10T13:04:02.000Z</time>
      </trkpt>
      <trkpt lat="45.86858" lon="0.9462">
        <ele>242.8</ele>
        <time>2026-08-10T13:04:04.000Z</time>
      </trkpt>
      <trkpt lat="45.86852" lon="0.94609">
        <ele>244.2</ele>
        <time>2026-08-10T13:04:10.000Z</time>
      </trkpt>
      <trkpt lat="45.86851" lon="0.94607">
        <ele>244.4</ele>
        <time>2026-08-10T13:04:11.000Z</time>
      </trkpt>
      <trkpt lat="45.86845" lon="0.94594">
        <ele>245.6</ele>
        <time>2026-08-10T13:04:17.000Z</time>
      </trkpt>
      <trkpt lat="45.86841" lon="0.94585">
        <ele>246.3</ele>
        <time>2026-08-10T13:04:21.000Z</time>
      </trkpt>
      <trkpt lat="45.8684" lon="0.94583">
        <ele>246.5</ele>
        <time>2026-08-10T13:04:22.000Z</time>
      </trkpt>
      <trkpt lat="45.86838" lon="0.94579">
        <ele>246.8</ele>
        <time>2026-08-10T13:04:24.000Z</time>
      </trkpt>
      <trkpt lat="45.86832" lon="0.94568">
        <ele>247.7</ele>
        <time>2026-08-10T13:04:30.000Z</time>
      </trkpt>
      <trkpt lat="45.86826" lon="0.94558">
        <ele>248.5</ele>
        <time>2026-08-10T13:04:35.000Z</time>
      </trkpt>
      <trkpt lat="45.8682" lon="0.94548">
        <ele>249.1</ele>
        <time>2026-08-10T13:04:40.000Z</time>
      </trkpt>
      <trkpt lat="45.86816" lon="0.94541">
        <ele>249.4</ele>
        <time>2026-08-10T13:04:43.000Z</time>
      </trkpt>
      <trkpt lat="45.86813" lon="0.94535">
        <ele>249.7</ele>
        <time>2026-08-10T13:04:46.000Z</time>
      </trkpt>
      <trkpt lat="45.86808" lon="0.94527">
        <ele>249.9</ele>
        <time>2026-08-10T13:04:50.000Z</time>
      </trkpt>
      <trkpt lat="45.86805" lon="0.94524">
        <ele>250.2</ele>
        <time>2026-08-10T13:04:52.000Z</time>
      </trkpt>
      <trkpt lat="45.86798" lon="0.94514">
        <ele>251.1</ele>
        <time>2026-08-10T13:04:57.000Z</time>
      </trkpt>
      <trkpt lat="45.86796" lon="0.94511">
        <ele>251.4</ele>
        <time>2026-08-10T13:04:59.000Z</time>
      </trkpt>
      <trkpt lat="45.86789" lon="0.94502">
        <ele>252.1</ele>
        <time>2026-08-10T13:05:04.000Z</time>
      </trkpt>
      <trkpt lat="45.86788" lon="0.94501">
        <ele>252.2</ele>
        <time>2026-08-10T13:05:05.000Z</time>
      </trkpt>
      <trkpt lat="45.86787" lon="0.94499">
        <ele>252.4</ele>
        <time>2026-08-10T13:05:06.000Z</time>
      </trkpt>
      <trkpt lat="45.8678" lon="0.94487">
        <ele>253.3</ele>
        <time>2026-08-10T13:05:12.000Z</time>
      </trkpt>
      <trkpt lat="45.86779" lon="0.94485">
        <ele>253.4</ele>
        <time>2026-08-10T13:05:13.000Z</time>
      </trkpt>
      <trkpt lat="45.86773" lon="0.94472">
        <ele>254.2</ele>
        <time>2026-08-10T13:05:19.000Z</time>
      </trkpt>
      <trkpt lat="45.86769" lon="0.94464">
        <ele>254.6</ele>
        <time>2026-08-10T13:05:23.000Z</time>
      </trkpt>
      <trkpt lat="45.86765" lon="0.94458">
        <ele>255</ele>
        <time>2026-08-10T13:05:26.000Z</time>
      </trkpt>
      <trkpt lat="45.8676" lon="0.94448">
        <ele>255.5</ele>
        <time>2026-08-10T13:05:31.000Z</time>
      </trkpt>
      <trkpt lat="45.86757" lon="0.94444">
        <ele>255.8</ele>
        <time>2026-08-10T13:05:33.000Z</time>
      </trkpt>
      <trkpt lat="45.86755" lon="0.94441">
        <ele>255.8</ele>
        <time>2026-08-10T13:05:35.000Z</time>
      </trkpt>
      <trkpt lat="45.8675" lon="0.94431">
        <ele>256</ele>
        <time>2026-08-10T13:05:40.000Z</time>
      </trkpt>
      <trkpt lat="45.86745" lon="0.94423">
        <ele>256.3</ele>
        <time>2026-08-10T13:05:44.000Z</time>
      </trkpt>
      <trkpt lat="45.86736" lon="0.94409">
        <ele>257.2</ele>
        <time>2026-08-10T13:05:51.000Z</time>
      </trkpt>
      <trkpt lat="45.86733" lon="0.94402">
        <ele>257.4</ele>
        <time>2026-08-10T13:05:54.000Z</time>
      </trkpt>
      <trkpt lat="45.86725" lon="0.94388">
        <ele>257.9</ele>
        <time>2026-08-10T13:06:01.000Z</time>
      </trkpt>
      <trkpt lat="45.86722" lon="0.94381">
        <ele>258.3</ele>
        <time>2026-08-10T13:06:04.000Z</time>
      </trkpt>
      <trkpt lat="45.86713" lon="0.94368">
        <ele>258.7</ele>
        <time>2026-08-10T13:06:11.000Z</time>
      </trkpt>
      <trkpt lat="45.86712" lon="0.94366">
        <ele>258.8</ele>
        <time>2026-08-10T13:06:12.000Z</time>
      </trkpt>
      <trkpt lat="45.86696" lon="0.94343">
        <ele>259.7</ele>
        <time>2026-08-10T13:06:23.000Z</time>
      </trkpt>
      <trkpt lat="45.86691" lon="0.94334">
        <ele>260</ele>
        <time>2026-08-10T13:06:27.000Z</time>
      </trkpt>
      <trkpt lat="45.86685" lon="0.94323">
        <ele>260.4</ele>
        <time>2026-08-10T13:06:33.000Z</time>
      </trkpt>
      <trkpt lat="45.86681" lon="0.94316">
        <ele>260.6</ele>
        <time>2026-08-10T13:06:36.000Z</time>
      </trkpt>
      <trkpt lat="45.86675" lon="0.94305">
        <ele>261</ele>
        <time>2026-08-10T13:06:41.000Z</time>
      </trkpt>
      <trkpt lat="45.86668" lon="0.94292">
        <ele>261.5</ele>
        <time>2026-08-10T13:06:47.000Z</time>
      </trkpt>
      <trkpt lat="45.86657" lon="0.94277">
        <ele>262</ele>
        <time>2026-08-10T13:06:55.000Z</time>
      </trkpt>
      <trkpt lat="45.86656" lon="0.94276">
        <ele>262.1</ele>
        <time>2026-08-10T13:06:56.000Z</time>
      </trkpt>
      <trkpt lat="45.86655" lon="0.94274">
        <ele>262.1</ele>
        <time>2026-08-10T13:06:57.000Z</time>
      </trkpt>
      <trkpt lat="45.86654" lon="0.94271">
        <ele>262.2</ele>
        <time>2026-08-10T13:06:58.000Z</time>
      </trkpt>
      <trkpt lat="45.86651" lon="0.94267">
        <ele>262.4</ele>
        <time>2026-08-10T13:07:00.000Z</time>
      </trkpt>
      <trkpt lat="45.8664" lon="0.94252">
        <ele>262.9</ele>
        <time>2026-08-10T13:07:08.000Z</time>
      </trkpt>
      <trkpt lat="45.86637" lon="0.94249">
        <ele>263.1</ele>
        <time>2026-08-10T13:07:10.000Z</time>
      </trkpt>
      <trkpt lat="45.86633" lon="0.94246">
        <ele>263.3</ele>
        <time>2026-08-10T13:07:12.000Z</time>
      </trkpt>
      <trkpt lat="45.86618" lon="0.94239">
        <ele>264.2</ele>
        <time>2026-08-10T13:07:20.000Z</time>
      </trkpt>
      <trkpt lat="45.86604" lon="0.94234">
        <ele>264.9</ele>
        <time>2026-08-10T13:07:27.000Z</time>
      </trkpt>
      <trkpt lat="45.86599" lon="0.94232">
        <ele>265.1</ele>
        <time>2026-08-10T13:07:29.000Z</time>
      </trkpt>
      <trkpt lat="45.86579" lon="0.94226">
        <ele>265.9</ele>
        <time>2026-08-10T13:07:39.000Z</time>
      </trkpt>
      <trkpt lat="45.86559" lon="0.94219">
        <ele>266.2</ele>
        <time>2026-08-10T13:07:48.000Z</time>
      </trkpt>
      <trkpt lat="45.86556" lon="0.94219">
        <ele>266.3</ele>
        <time>2026-08-10T13:07:49.000Z</time>
      </trkpt>
      <trkpt lat="45.86541" lon="0.94213">
        <ele>267.2</ele>
        <time>2026-08-10T13:07:57.000Z</time>
      </trkpt>
      <trkpt lat="45.86535" lon="0.94211">
        <ele>267.5</ele>
        <time>2026-08-10T13:08:00.000Z</time>
      </trkpt>
      <trkpt lat="45.86524" lon="0.94207">
        <ele>268.2</ele>
        <time>2026-08-10T13:08:06.000Z</time>
      </trkpt>
      <trkpt lat="45.86511" lon="0.94204">
        <ele>268.7</ele>
        <time>2026-08-10T13:08:13.000Z</time>
      </trkpt>
      <trkpt lat="45.86506" lon="0.94203">
        <ele>268.9</ele>
        <time>2026-08-10T13:08:15.000Z</time>
      </trkpt>
      <trkpt lat="45.86501" lon="0.94201">
        <ele>269</ele>
        <time>2026-08-10T13:08:18.000Z</time>
      </trkpt>
      <trkpt lat="45.86492" lon="0.94199">
        <ele>269.5</ele>
        <time>2026-08-10T13:08:23.000Z</time>
      </trkpt>
      <trkpt lat="45.86491" lon="0.94199">
        <ele>269.5</ele>
        <time>2026-08-10T13:08:24.000Z</time>
      </trkpt>
      <trkpt lat="45.86477" lon="0.94195">
        <ele>270.7</ele>
        <time>2026-08-10T13:08:32.000Z</time>
      </trkpt>
      <trkpt lat="45.86475" lon="0.94194">
        <ele>270.8</ele>
        <time>2026-08-10T13:08:33.000Z</time>
      </trkpt>
      <trkpt lat="45.86469" lon="0.94193">
        <ele>271.2</ele>
        <time>2026-08-10T13:08:37.000Z</time>
      </trkpt>
      <trkpt lat="45.86462" lon="0.94193">
        <ele>271.5</ele>
        <time>2026-08-10T13:08:42.000Z</time>
      </trkpt>
      <trkpt lat="45.86454" lon="0.94192">
        <ele>271.8</ele>
        <time>2026-08-10T13:08:46.000Z</time>
      </trkpt>
      <trkpt lat="45.86444" lon="0.94193">
        <ele>272.1</ele>
        <time>2026-08-10T13:08:52.000Z</time>
      </trkpt>
      <trkpt lat="45.86441" lon="0.94193">
        <ele>272.5</ele>
        <time>2026-08-10T13:08:54.000Z</time>
      </trkpt>
      <trkpt lat="45.86436" lon="0.94193">
        <ele>273</ele>
        <time>2026-08-10T13:08:57.000Z</time>
      </trkpt>
      <trkpt lat="45.8643" lon="0.94195">
        <ele>273.5</ele>
        <time>2026-08-10T13:09:01.000Z</time>
      </trkpt>
      <trkpt lat="45.86422" lon="0.94198">
        <ele>274.1</ele>
        <time>2026-08-10T13:09:07.000Z</time>
      </trkpt>
      <trkpt lat="45.86421" lon="0.94198">
        <ele>274.1</ele>
        <time>2026-08-10T13:09:08.000Z</time>
      </trkpt>
      <trkpt lat="45.86409" lon="0.94204">
        <ele>274.8</ele>
        <time>2026-08-10T13:09:16.000Z</time>
      </trkpt>
      <trkpt lat="45.86403" lon="0.94208">
        <ele>275</ele>
        <time>2026-08-10T13:09:20.000Z</time>
      </trkpt>
      <trkpt lat="45.86397" lon="0.94213">
        <ele>275.2</ele>
        <time>2026-08-10T13:09:24.000Z</time>
      </trkpt>
      <trkpt lat="45.86376" lon="0.94225">
        <ele>276.2</ele>
        <time>2026-08-10T13:09:32.000Z</time>
      </trkpt>
      <trkpt lat="45.86374" lon="0.94225">
        <ele>276.4</ele>
        <time>2026-08-10T13:09:33.000Z</time>
      </trkpt>
      <trkpt lat="45.86364" lon="0.94235">
        <ele>276.7</ele>
        <time>2026-08-10T13:09:39.000Z</time>
      </trkpt>
      <trkpt lat="45.8636" lon="0.94238">
        <ele>277.1</ele>
        <time>2026-08-10T13:09:41.000Z</time>
      </trkpt>
      <trkpt lat="45.86357" lon="0.94239">
        <ele>277.3</ele>
        <time>2026-08-10T13:09:43.000Z</time>
      </trkpt>
      <trkpt lat="45.86353" lon="0.9424">
        <ele>277.7</ele>
        <time>2026-08-10T13:09:44.000Z</time>
      </trkpt>
      <trkpt lat="45.86338" lon="0.94251">
        <ele>278.4</ele>
        <time>2026-08-10T13:09:50.000Z</time>
      </trkpt>
      <trkpt lat="45.86336" lon="0.94254">
        <ele>278.4</ele>
        <time>2026-08-10T13:09:51.000Z</time>
      </trkpt>
      <trkpt lat="45.86319" lon="0.94264">
        <ele>279.3</ele>
        <time>2026-08-10T13:09:59.000Z</time>
      </trkpt>
      <trkpt lat="45.86303" lon="0.94273">
        <ele>279.5</ele>
        <time>2026-08-10T13:10:05.000Z</time>
      </trkpt>
      <trkpt lat="45.86284" lon="0.94282">
        <ele>278.8</ele>
        <time>2026-08-10T13:10:11.000Z</time>
      </trkpt>
      <trkpt lat="45.8627" lon="0.94288">
        <ele>278.8</ele>
        <time>2026-08-10T13:10:15.000Z</time>
      </trkpt>
      <trkpt lat="45.86259" lon="0.94291">
        <ele>278.9</ele>
        <time>2026-08-10T13:10:18.000Z</time>
      </trkpt>
      <trkpt lat="45.86232" lon="0.94302">
        <ele>278.9</ele>
        <time>2026-08-10T13:10:26.000Z</time>
      </trkpt>
      <trkpt lat="45.8621" lon="0.94311">
        <ele>278.5</ele>
        <time>2026-08-10T13:10:32.000Z</time>
      </trkpt>
      <trkpt lat="45.86183" lon="0.94313">
        <ele>278.8</ele>
        <time>2026-08-10T13:10:38.000Z</time>
      </trkpt>
      <trkpt lat="45.86179" lon="0.94314">
        <ele>278.8</ele>
        <time>2026-08-10T13:10:39.000Z</time>
      </trkpt>
      <trkpt lat="45.86161" lon="0.94315">
        <ele>278.8</ele>
        <time>2026-08-10T13:10:43.000Z</time>
      </trkpt>
      <trkpt lat="45.8612" lon="0.94305">
        <ele>279</ele>
        <time>2026-08-10T13:10:51.000Z</time>
      </trkpt>
      <trkpt lat="45.86108" lon="0.94297">
        <ele>279.2</ele>
        <time>2026-08-10T13:10:54.000Z</time>
      </trkpt>
      <trkpt lat="45.861" lon="0.94292">
        <ele>279.1</ele>
        <time>2026-08-10T13:10:56.000Z</time>
      </trkpt>
      <trkpt lat="45.86067" lon="0.94275">
        <ele>278.6</ele>
        <time>2026-08-10T13:11:03.000Z</time>
      </trkpt>
      <trkpt lat="45.86021" lon="0.94249">
        <ele>277.8</ele>
        <time>2026-08-10T13:11:13.000Z</time>
      </trkpt>
      <trkpt lat="45.8598" lon="0.94224">
        <ele>278</ele>
        <time>2026-08-10T13:11:22.000Z</time>
      </trkpt>
      <trkpt lat="45.85976" lon="0.94221">
        <ele>278.1</ele>
        <time>2026-08-10T13:11:23.000Z</time>
      </trkpt>
      <trkpt lat="45.85971" lon="0.94219">
        <ele>278.2</ele>
        <time>2026-08-10T13:11:24.000Z</time>
      </trkpt>
      <trkpt lat="45.85955" lon="0.94209">
        <ele>279.1</ele>
        <time>2026-08-10T13:11:28.000Z</time>
      </trkpt>
      <trkpt lat="45.85923" lon="0.94198">
        <ele>279.8</ele>
        <time>2026-08-10T13:11:36.000Z</time>
      </trkpt>
      <trkpt lat="45.85884" lon="0.94195">
        <ele>280</ele>
        <time>2026-08-10T13:11:46.000Z</time>
      </trkpt>
      <trkpt lat="45.85852" lon="0.942">
        <ele>280.2</ele>
        <time>2026-08-10T13:11:54.000Z</time>
      </trkpt>
      <trkpt lat="45.8584" lon="0.94202">
        <ele>280.5</ele>
        <time>2026-08-10T13:11:57.000Z</time>
      </trkpt>
      <trkpt lat="45.85819" lon="0.94207">
        <ele>281.1</ele>
        <time>2026-08-10T13:12:03.000Z</time>
      </trkpt>
      <trkpt lat="45.85809" lon="0.94209">
        <ele>281.4</ele>
        <time>2026-08-10T13:12:06.000Z</time>
      </trkpt>
      <trkpt lat="45.85791" lon="0.94211">
        <ele>282</ele>
        <time>2026-08-10T13:12:12.000Z</time>
      </trkpt>
      <trkpt lat="45.85785" lon="0.94211">
        <ele>282.1</ele>
        <time>2026-08-10T13:12:14.000Z</time>
      </trkpt>
      <trkpt lat="45.85767" lon="0.94211">
        <ele>283.1</ele>
        <time>2026-08-10T13:12:20.000Z</time>
      </trkpt>
      <trkpt lat="45.85757" lon="0.9421">
        <ele>283.6</ele>
        <time>2026-08-10T13:12:23.000Z</time>
      </trkpt>
      <trkpt lat="45.85733" lon="0.94209">
        <ele>284.9</ele>
        <time>2026-08-10T13:12:31.000Z</time>
      </trkpt>
      <trkpt lat="45.85725" lon="0.94209">
        <ele>285.3</ele>
        <time>2026-08-10T13:12:34.000Z</time>
      </trkpt>
      <trkpt lat="45.85713" lon="0.94208">
        <ele>285.8</ele>
        <time>2026-08-10T13:12:39.000Z</time>
      </trkpt>
      <trkpt lat="45.85709" lon="0.94208">
        <ele>286</ele>
        <time>2026-08-10T13:12:41.000Z</time>
      </trkpt>
      <trkpt lat="45.85688" lon="0.94205">
        <ele>286.5</ele>
        <time>2026-08-10T13:12:49.000Z</time>
      </trkpt>
      <trkpt lat="45.85685" lon="0.94205">
        <ele>286.5</ele>
        <time>2026-08-10T13:12:50.000Z</time>
      </trkpt>
      <trkpt lat="45.85679" lon="0.94204">
        <ele>286.6</ele>
        <time>2026-08-10T13:12:52.000Z</time>
      </trkpt>
      <trkpt lat="45.85667" lon="0.94204">
        <ele>286.7</ele>
        <time>2026-08-10T13:12:56.000Z</time>
      </trkpt>
      <trkpt lat="45.8566" lon="0.94202">
        <ele>286.7</ele>
        <time>2026-08-10T13:12:58.000Z</time>
      </trkpt>
      <trkpt lat="45.8565" lon="0.94203">
        <ele>287</ele>
        <time>2026-08-10T13:13:01.000Z</time>
      </trkpt>
      <trkpt lat="45.85631" lon="0.94202">
        <ele>287.5</ele>
        <time>2026-08-10T13:13:07.000Z</time>
      </trkpt>
      <trkpt lat="45.85607" lon="0.942">
        <ele>288</ele>
        <time>2026-08-10T13:13:15.000Z</time>
      </trkpt>
      <trkpt lat="45.85575" lon="0.94203">
        <ele>288.2</ele>
        <time>2026-08-10T13:13:24.000Z</time>
      </trkpt>
      <trkpt lat="45.85565" lon="0.94205">
        <ele>288.1</ele>
        <time>2026-08-10T13:13:27.000Z</time>
      </trkpt>
      <trkpt lat="45.85558" lon="0.94207">
        <ele>288</ele>
        <time>2026-08-10T13:13:29.000Z</time>
      </trkpt>
      <trkpt lat="45.85534" lon="0.94211">
        <ele>287.7</ele>
        <time>2026-08-10T13:13:35.000Z</time>
      </trkpt>
      <trkpt lat="45.85512" lon="0.94214">
        <ele>287.7</ele>
        <time>2026-08-10T13:13:41.000Z</time>
      </trkpt>
      <trkpt lat="45.85487" lon="0.94217">
        <ele>287.8</ele>
        <time>2026-08-10T13:13:49.000Z</time>
      </trkpt>
      <trkpt lat="45.85467" lon="0.94206">
        <ele>287.4</ele>
        <time>2026-08-10T13:13:55.000Z</time>
      </trkpt>
      <trkpt lat="45.85454" lon="0.94178">
        <ele>286.8</ele>
        <time>2026-08-10T13:14:01.000Z</time>
      </trkpt>
      <trkpt lat="45.85442" lon="0.94142">
        <ele>286.2</ele>
        <time>2026-08-10T13:14:07.000Z</time>
      </trkpt>
      <trkpt lat="45.85437" lon="0.94123">
        <ele>285.9</ele>
        <time>2026-08-10T13:14:10.000Z</time>
      </trkpt>
      <trkpt lat="45.85429" lon="0.941">
        <ele>286.3</ele>
        <time>2026-08-10T13:14:14.000Z</time>
      </trkpt>
      <trkpt lat="45.85421" lon="0.94086">
        <ele>286.8</ele>
        <time>2026-08-10T13:14:17.000Z</time>
      </trkpt>
      <trkpt lat="45.85407" lon="0.94071">
        <ele>287.8</ele>
        <time>2026-08-10T13:14:22.000Z</time>
      </trkpt>
      <trkpt lat="45.85391" lon="0.94056">
        <ele>288.9</ele>
        <time>2026-08-10T13:14:29.000Z</time>
      </trkpt>
      <trkpt lat="45.8538" lon="0.94042">
        <ele>289.2</ele>
        <time>2026-08-10T13:14:35.000Z</time>
      </trkpt>
      <trkpt lat="45.85376" lon="0.94032">
        <ele>289.4</ele>
        <time>2026-08-10T13:14:38.000Z</time>
      </trkpt>
      <trkpt lat="45.8537" lon="0.94019">
        <ele>289.8</ele>
        <time>2026-08-10T13:14:42.000Z</time>
      </trkpt>
      <trkpt lat="45.8536" lon="0.93996">
        <ele>290.2</ele>
        <time>2026-08-10T13:14:49.000Z</time>
      </trkpt>
      <trkpt lat="45.85348" lon="0.93971">
        <ele>291</ele>
        <time>2026-08-10T13:14:56.000Z</time>
      </trkpt>
      <trkpt lat="45.85344" lon="0.93964">
        <ele>291</ele>
        <time>2026-08-10T13:14:58.000Z</time>
      </trkpt>
      <trkpt lat="45.85331" lon="0.93933">
        <ele>290.6</ele>
        <time>2026-08-10T13:15:04.000Z</time>
      </trkpt>
      <trkpt lat="45.85311" lon="0.93889">
        <ele>290.8</ele>
        <time>2026-08-10T13:15:12.000Z</time>
      </trkpt>
      <trkpt lat="45.85309" lon="0.93883">
        <ele>290.9</ele>
        <time>2026-08-10T13:15:13.000Z</time>
      </trkpt>
      <trkpt lat="45.8529" lon="0.93842">
        <ele>290.7</ele>
        <time>2026-08-10T13:15:21.000Z</time>
      </trkpt>
      <trkpt lat="45.85276" lon="0.93812">
        <ele>291.1</ele>
        <time>2026-08-10T13:15:27.000Z</time>
      </trkpt>
      <trkpt lat="45.85265" lon="0.93786">
        <ele>291.5</ele>
        <time>2026-08-10T13:15:32.000Z</time>
      </trkpt>
      <trkpt lat="45.85263" lon="0.93782">
        <ele>291.5</ele>
        <time>2026-08-10T13:15:33.000Z</time>
      </trkpt>
      <trkpt lat="45.8525" lon="0.93751">
        <ele>292</ele>
        <time>2026-08-10T13:15:39.000Z</time>
      </trkpt>
      <trkpt lat="45.85222" lon="0.93689">
        <ele>292</ele>
        <time>2026-08-10T13:15:51.000Z</time>
      </trkpt>
      <trkpt lat="45.85217" lon="0.93678">
        <ele>292.2</ele>
        <time>2026-08-10T13:15:53.000Z</time>
      </trkpt>
      <trkpt lat="45.85213" lon="0.9367">
        <ele>292.3</ele>
        <time>2026-08-10T13:15:55.000Z</time>
      </trkpt>
      <trkpt lat="45.85209" lon="0.93659">
        <ele>292.3</ele>
        <time>2026-08-10T13:15:57.000Z</time>
      </trkpt>
      <trkpt lat="45.85184" lon="0.93603">
        <ele>292.6</ele>
        <time>2026-08-10T13:16:08.000Z</time>
      </trkpt>
      <trkpt lat="45.85175" lon="0.93582">
        <ele>292.7</ele>
        <time>2026-08-10T13:16:12.000Z</time>
      </trkpt>
      <trkpt lat="45.85165" lon="0.93562">
        <ele>292.3</ele>
        <time>2026-08-10T13:16:16.000Z</time>
      </trkpt>
      <trkpt lat="45.85158" lon="0.93546">
        <ele>292.3</ele>
        <time>2026-08-10T13:16:19.000Z</time>
      </trkpt>
      <trkpt lat="45.85144" lon="0.93518">
        <ele>292.5</ele>
        <time>2026-08-10T13:16:24.000Z</time>
      </trkpt>
      <trkpt lat="45.85141" lon="0.93512">
        <ele>292.4</ele>
        <time>2026-08-10T13:16:25.000Z</time>
      </trkpt>
      <trkpt lat="45.85123" lon="0.93483">
        <ele>291.7</ele>
        <time>2026-08-10T13:16:30.000Z</time>
      </trkpt>
      <trkpt lat="45.85093" lon="0.93435">
        <ele>290.2</ele>
        <time>2026-08-10T13:16:38.000Z</time>
      </trkpt>
      <trkpt lat="45.85072" lon="0.93403">
        <ele>289.5</ele>
        <time>2026-08-10T13:16:43.000Z</time>
      </trkpt>
      <trkpt lat="45.85062" lon="0.93386">
        <ele>288.9</ele>
        <time>2026-08-10T13:16:46.000Z</time>
      </trkpt>
      <trkpt lat="45.85047" lon="0.93364">
        <ele>288.1</ele>
        <time>2026-08-10T13:16:51.000Z</time>
      </trkpt>
      <trkpt lat="45.85045" lon="0.9336">
        <ele>288</ele>
        <time>2026-08-10T13:16:52.000Z</time>
      </trkpt>
      <trkpt lat="45.85034" lon="0.93353">
        <ele>287.8</ele>
        <time>2026-08-10T13:16:55.000Z</time>
      </trkpt>
      <trkpt lat="45.85027" lon="0.93345">
        <ele>287.4</ele>
        <time>2026-08-10T13:16:57.000Z</time>
      </trkpt>
      <trkpt lat="45.85023" lon="0.93342">
        <ele>287.4</ele>
        <time>2026-08-10T13:16:58.000Z</time>
      </trkpt>
      <trkpt lat="45.85018" lon="0.9334">
        <ele>287.5</ele>
        <time>2026-08-10T13:16:59.000Z</time>
      </trkpt>
      <trkpt lat="45.85014" lon="0.93337">
        <ele>287.6</ele>
        <time>2026-08-10T13:17:00.000Z</time>
      </trkpt>
      <trkpt lat="45.85007" lon="0.9333">
        <ele>287.6</ele>
        <time>2026-08-10T13:17:02.000Z</time>
      </trkpt>
      <trkpt lat="45.84975" lon="0.93304">
        <ele>287.8</ele>
        <time>2026-08-10T13:17:10.000Z</time>
      </trkpt>
      <trkpt lat="45.84934" lon="0.93274">
        <ele>286.8</ele>
        <time>2026-08-10T13:17:19.000Z</time>
      </trkpt>
      <trkpt lat="45.84892" lon="0.93239">
        <ele>285.6</ele>
        <time>2026-08-10T13:17:28.000Z</time>
      </trkpt>
      <trkpt lat="45.84858" lon="0.93214">
        <ele>285.7</ele>
        <time>2026-08-10T13:17:35.000Z</time>
      </trkpt>
      <trkpt lat="45.84829" lon="0.93189">
        <ele>284.7</ele>
        <time>2026-08-10T13:17:41.000Z</time>
      </trkpt>
      <trkpt lat="45.84824" lon="0.93185">
        <ele>284.4</ele>
        <time>2026-08-10T13:17:42.000Z</time>
      </trkpt>
      <trkpt lat="45.84807" lon="0.93174">
        <ele>284</ele>
        <time>2026-08-10T13:17:45.000Z</time>
      </trkpt>
      <trkpt lat="45.84795" lon="0.93172">
        <ele>283.7</ele>
        <time>2026-08-10T13:17:47.000Z</time>
      </trkpt>
      <trkpt lat="45.84778" lon="0.93175">
        <ele>283.3</ele>
        <time>2026-08-10T13:17:50.000Z</time>
      </trkpt>
      <trkpt lat="45.8476" lon="0.93179">
        <ele>283.2</ele>
        <time>2026-08-10T13:17:53.000Z</time>
      </trkpt>
      <trkpt lat="45.84724" lon="0.93184">
        <ele>282.7</ele>
        <time>2026-08-10T13:17:59.000Z</time>
      </trkpt>
      <trkpt lat="45.84691" lon="0.93183">
        <ele>283.6</ele>
        <time>2026-08-10T13:18:05.000Z</time>
      </trkpt>
      <trkpt lat="45.84668" lon="0.93183">
        <ele>284</ele>
        <time>2026-08-10T13:18:10.000Z</time>
      </trkpt>
      <trkpt lat="45.84638" lon="0.93184">
        <ele>284.6</ele>
        <time>2026-08-10T13:18:17.000Z</time>
      </trkpt>
      <trkpt lat="45.84634" lon="0.93184">
        <ele>284.7</ele>
        <time>2026-08-10T13:18:18.000Z</time>
      </trkpt>
      <trkpt lat="45.84606" lon="0.93184">
        <ele>285</ele>
        <time>2026-08-10T13:18:25.000Z</time>
      </trkpt>
      <trkpt lat="45.8457" lon="0.93184">
        <ele>284.8</ele>
        <time>2026-08-10T13:18:34.000Z</time>
      </trkpt>
      <trkpt lat="45.84538" lon="0.93182">
        <ele>283.9</ele>
        <time>2026-08-10T13:18:41.000Z</time>
      </trkpt>
      <trkpt lat="45.84518" lon="0.93175">
        <ele>283</ele>
        <time>2026-08-10T13:18:45.000Z</time>
      </trkpt>
      <trkpt lat="45.84507" lon="0.9317">
        <ele>282.4</ele>
        <time>2026-08-10T13:18:47.000Z</time>
      </trkpt>
      <trkpt lat="45.84502" lon="0.93167">
        <ele>282.1</ele>
        <time>2026-08-10T13:18:48.000Z</time>
      </trkpt>
      <trkpt lat="45.84484" lon="0.93155">
        <ele>281.9</ele>
        <time>2026-08-10T13:18:51.000Z</time>
      </trkpt>
      <trkpt lat="45.84478" lon="0.93151">
        <ele>281.7</ele>
        <time>2026-08-10T13:18:52.000Z</time>
      </trkpt>
      <trkpt lat="45.84467" lon="0.93142">
        <ele>281.1</ele>
        <time>2026-08-10T13:18:54.000Z</time>
      </trkpt>
      <trkpt lat="45.84444" lon="0.93123">
        <ele>280.4</ele>
        <time>2026-08-10T13:18:58.000Z</time>
      </trkpt>
      <trkpt lat="45.84438" lon="0.93118">
        <ele>280</ele>
        <time>2026-08-10T13:18:59.000Z</time>
      </trkpt>
      <trkpt lat="45.84402" lon="0.93085">
        <ele>277.5</ele>
        <time>2026-08-10T13:19:05.000Z</time>
      </trkpt>
      <trkpt lat="45.84383" lon="0.93068">
        <ele>276.6</ele>
        <time>2026-08-10T13:19:08.000Z</time>
      </trkpt>
      <trkpt lat="45.84356" lon="0.93043">
        <ele>274.8</ele>
        <time>2026-08-10T13:19:12.000Z</time>
      </trkpt>
      <trkpt lat="45.84335" lon="0.93024">
        <ele>274</ele>
        <time>2026-08-10T13:19:15.000Z</time>
      </trkpt>
      <trkpt lat="45.84327" lon="0.93018">
        <ele>273.6</ele>
        <time>2026-08-10T13:19:16.000Z</time>
      </trkpt>
      <trkpt lat="45.84306" lon="0.92998">
        <ele>272.1</ele>
        <time>2026-08-10T13:19:19.000Z</time>
      </trkpt>
      <trkpt lat="45.84285" lon="0.92978">
        <ele>271.3</ele>
        <time>2026-08-10T13:19:22.000Z</time>
      </trkpt>
      <trkpt lat="45.84271" lon="0.92965">
        <ele>270.8</ele>
        <time>2026-08-10T13:19:24.000Z</time>
      </trkpt>
      <trkpt lat="45.84265" lon="0.92959">
        <ele>270.5</ele>
        <time>2026-08-10T13:19:25.000Z</time>
      </trkpt>
      <trkpt lat="45.84238" lon="0.92935">
        <ele>269.6</ele>
        <time>2026-08-10T13:19:29.000Z</time>
      </trkpt>
      <trkpt lat="45.84219" lon="0.92918">
        <ele>268.9</ele>
        <time>2026-08-10T13:19:32.000Z</time>
      </trkpt>
      <trkpt lat="45.84204" lon="0.92909">
        <ele>268.4</ele>
        <time>2026-08-10T13:19:34.000Z</time>
      </trkpt>
      <trkpt lat="45.84173" lon="0.92894">
        <ele>266.6</ele>
        <time>2026-08-10T13:19:38.000Z</time>
      </trkpt>
      <trkpt lat="45.84132" lon="0.92874">
        <ele>264.6</ele>
        <time>2026-08-10T13:19:43.000Z</time>
      </trkpt>
      <trkpt lat="45.84114" lon="0.92866">
        <ele>263.3</ele>
        <time>2026-08-10T13:19:45.000Z</time>
      </trkpt>
      <trkpt lat="45.84105" lon="0.92861">
        <ele>262.8</ele>
        <time>2026-08-10T13:19:46.000Z</time>
      </trkpt>
      <trkpt lat="45.84077" lon="0.92849">
        <ele>262.1</ele>
        <time>2026-08-10T13:19:49.000Z</time>
      </trkpt>
      <trkpt lat="45.8405" lon="0.92836">
        <ele>260.8</ele>
        <time>2026-08-10T13:19:52.000Z</time>
      </trkpt>
      <trkpt lat="45.84041" lon="0.92831">
        <ele>260.5</ele>
        <time>2026-08-10T13:19:53.000Z</time>
      </trkpt>
      <trkpt lat="45.84023" lon="0.92822">
        <ele>259.6</ele>
        <time>2026-08-10T13:19:55.000Z</time>
      </trkpt>
      <trkpt lat="45.83995" lon="0.92809">
        <ele>257.7</ele>
        <time>2026-08-10T13:19:58.000Z</time>
      </trkpt>
      <trkpt lat="45.83977" lon="0.928">
        <ele>256.5</ele>
        <time>2026-08-10T13:20:00.000Z</time>
      </trkpt>
      <trkpt lat="45.83967" lon="0.92795">
        <ele>255.9</ele>
        <time>2026-08-10T13:20:01.000Z</time>
      </trkpt>
      <trkpt lat="45.83947" lon="0.92786">
        <ele>254.3</ele>
        <time>2026-08-10T13:20:03.000Z</time>
      </trkpt>
      <trkpt lat="45.83927" lon="0.92777">
        <ele>253.4</ele>
        <time>2026-08-10T13:20:05.000Z</time>
      </trkpt>
      <trkpt lat="45.83897" lon="0.92762">
        <ele>252.6</ele>
        <time>2026-08-10T13:20:08.000Z</time>
      </trkpt>
      <trkpt lat="45.83887" lon="0.92758">
        <ele>252.3</ele>
        <time>2026-08-10T13:20:09.000Z</time>
      </trkpt>
      <trkpt lat="45.83868" lon="0.92748">
        <ele>252</ele>
        <time>2026-08-10T13:20:11.000Z</time>
      </trkpt>
      <trkpt lat="45.8383" lon="0.92729">
        <ele>251</ele>
        <time>2026-08-10T13:20:15.000Z</time>
      </trkpt>
      <trkpt lat="45.83822" lon="0.92725">
        <ele>251</ele>
        <time>2026-08-10T13:20:16.000Z</time>
      </trkpt>
      <trkpt lat="45.83792" lon="0.92704">
        <ele>250.8</ele>
        <time>2026-08-10T13:20:20.000Z</time>
      </trkpt>
      <trkpt lat="45.83757" lon="0.92668">
        <ele>251</ele>
        <time>2026-08-10T13:20:26.000Z</time>
      </trkpt>
      <trkpt lat="45.83732" lon="0.92642">
        <ele>250.9</ele>
        <time>2026-08-10T13:20:31.000Z</time>
      </trkpt>
      <trkpt lat="45.83718" lon="0.92628">
        <ele>250.8</ele>
        <time>2026-08-10T13:20:34.000Z</time>
      </trkpt>
      <trkpt lat="45.83684" lon="0.92597">
        <ele>250.1</ele>
        <time>2026-08-10T13:20:41.000Z</time>
      </trkpt>
      <trkpt lat="45.83648" lon="0.92561">
        <ele>248.5</ele>
        <time>2026-08-10T13:20:48.000Z</time>
      </trkpt>
      <trkpt lat="45.83619" lon="0.92523">
        <ele>247.3</ele>
        <time>2026-08-10T13:20:54.000Z</time>
      </trkpt>
      <trkpt lat="45.83614" lon="0.92516">
        <ele>247.1</ele>
        <time>2026-08-10T13:20:55.000Z</time>
      </trkpt>
      <trkpt lat="45.83597" lon="0.92488">
        <ele>246.5</ele>
        <time>2026-08-10T13:20:59.000Z</time>
      </trkpt>
      <trkpt lat="45.83586" lon="0.92477">
        <ele>246.1</ele>
        <time>2026-08-10T13:21:01.000Z</time>
      </trkpt>
      <trkpt lat="45.83572" lon="0.92471">
        <ele>245.2</ele>
        <time>2026-08-10T13:21:03.000Z</time>
      </trkpt>
      <trkpt lat="45.83564" lon="0.9247">
        <ele>244.6</ele>
        <time>2026-08-10T13:21:04.000Z</time>
      </trkpt>
      <trkpt lat="45.83557" lon="0.92469">
        <ele>243.9</ele>
        <time>2026-08-10T13:21:05.000Z</time>
      </trkpt>
      <trkpt lat="45.83525" lon="0.92464">
        <ele>242.5</ele>
        <time>2026-08-10T13:21:09.000Z</time>
      </trkpt>
      <trkpt lat="45.8351" lon="0.92462">
        <ele>241.6</ele>
        <time>2026-08-10T13:21:11.000Z</time>
      </trkpt>
      <trkpt lat="45.83494" lon="0.92459">
        <ele>240.4</ele>
        <time>2026-08-10T13:21:13.000Z</time>
      </trkpt>
      <trkpt lat="45.83471" lon="0.9245">
        <ele>237.8</ele>
        <time>2026-08-10T13:21:16.000Z</time>
      </trkpt>
      <trkpt lat="45.83463" lon="0.92447">
        <ele>236.7</ele>
        <time>2026-08-10T13:21:17.000Z</time>
      </trkpt>
      <trkpt lat="45.83455" lon="0.92446">
        <ele>235.5</ele>
        <time>2026-08-10T13:21:18.000Z</time>
      </trkpt>
      <trkpt lat="45.83448" lon="0.92446">
        <ele>234.5</ele>
        <time>2026-08-10T13:21:19.000Z</time>
      </trkpt>
      <trkpt lat="45.83442" lon="0.92449">
        <ele>233.5</ele>
        <time>2026-08-10T13:21:20.000Z</time>
      </trkpt>
      <trkpt lat="45.83436" lon="0.92452">
        <ele>232.5</ele>
        <time>2026-08-10T13:21:21.000Z</time>
      </trkpt>
      <trkpt lat="45.83431" lon="0.92457">
        <ele>231.6</ele>
        <time>2026-08-10T13:21:22.000Z</time>
      </trkpt>
      <trkpt lat="45.83426" lon="0.92463">
        <ele>230.8</ele>
        <time>2026-08-10T13:21:23.000Z</time>
      </trkpt>
      <trkpt lat="45.83423" lon="0.92469">
        <ele>230.2</ele>
        <time>2026-08-10T13:21:24.000Z</time>
      </trkpt>
      <trkpt lat="45.8342" lon="0.92477">
        <ele>229.8</ele>
        <time>2026-08-10T13:21:25.000Z</time>
      </trkpt>
      <trkpt lat="45.83418" lon="0.92487">
        <ele>229.7</ele>
        <time>2026-08-10T13:21:26.000Z</time>
      </trkpt>
      <trkpt lat="45.83416" lon="0.92497">
        <ele>229.8</ele>
        <time>2026-08-10T13:21:27.000Z</time>
      </trkpt>
      <trkpt lat="45.83415" lon="0.92519">
        <ele>229.1</ele>
        <time>2026-08-10T13:21:29.000Z</time>
      </trkpt>
      <trkpt lat="45.83415" lon="0.9253">
        <ele>228.7</ele>
        <time>2026-08-10T13:21:30.000Z</time>
      </trkpt>
      <trkpt lat="45.83414" lon="0.92553">
        <ele>227.8</ele>
        <time>2026-08-10T13:21:32.000Z</time>
      </trkpt>
      <trkpt lat="45.83412" lon="0.9259">
        <ele>226.8</ele>
        <time>2026-08-10T13:21:35.000Z</time>
      </trkpt>
      <trkpt lat="45.8341" lon="0.92602">
        <ele>226.7</ele>
        <time>2026-08-10T13:21:36.000Z</time>
      </trkpt>
      <trkpt lat="45.83402" lon="0.92621">
        <ele>226.7</ele>
        <time>2026-08-10T13:21:38.000Z</time>
      </trkpt>
      <trkpt lat="45.83395" lon="0.92625">
        <ele>226.9</ele>
        <time>2026-08-10T13:21:39.000Z</time>
      </trkpt>
      <trkpt lat="45.83388" lon="0.92624">
        <ele>227</ele>
        <time>2026-08-10T13:21:40.000Z</time>
      </trkpt>
      <trkpt lat="45.83376" lon="0.92615">
        <ele>226.7</ele>
        <time>2026-08-10T13:21:42.000Z</time>
      </trkpt>
      <trkpt lat="45.83337" lon="0.92568">
        <ele>225.9</ele>
        <time>2026-08-10T13:21:49.000Z</time>
      </trkpt>
      <trkpt lat="45.8332" lon="0.92546">
        <ele>227.1</ele>
        <time>2026-08-10T13:21:53.000Z</time>
      </trkpt>
      <trkpt lat="45.83317" lon="0.92542">
        <ele>227.5</ele>
        <time>2026-08-10T13:21:54.000Z</time>
      </trkpt>
      <trkpt lat="45.83307" lon="0.92529">
        <ele>228.8</ele>
        <time>2026-08-10T13:21:58.000Z</time>
      </trkpt>
      <trkpt lat="45.83297" lon="0.92517">
        <ele>230</ele>
        <time>2026-08-10T13:22:04.000Z</time>
      </trkpt>
      <trkpt lat="45.83296" lon="0.92515">
        <ele>230.2</ele>
        <time>2026-08-10T13:22:05.000Z</time>
      </trkpt>
      <trkpt lat="45.83286" lon="0.92504">
        <ele>231.2</ele>
        <time>2026-08-10T13:22:11.000Z</time>
      </trkpt>
      <trkpt lat="45.8328" lon="0.92497">
        <ele>232</ele>
        <time>2026-08-10T13:22:16.000Z</time>
      </trkpt>
      <trkpt lat="45.83275" lon="0.92492">
        <ele>232.5</ele>
        <time>2026-08-10T13:22:19.000Z</time>
      </trkpt>
      <trkpt lat="45.83269" lon="0.92488">
        <ele>233</ele>
        <time>2026-08-10T13:22:22.000Z</time>
      </trkpt>
      <trkpt lat="45.83261" lon="0.92482">
        <ele>233.9</ele>
        <time>2026-08-10T13:22:27.000Z</time>
      </trkpt>
      <trkpt lat="45.83259" lon="0.92481">
        <ele>234.1</ele>
        <time>2026-08-10T13:22:28.000Z</time>
      </trkpt>
      <trkpt lat="45.83246" lon="0.92473">
        <ele>235.1</ele>
        <time>2026-08-10T13:22:35.000Z</time>
      </trkpt>
      <trkpt lat="45.83232" lon="0.92464">
        <ele>235.7</ele>
        <time>2026-08-10T13:22:43.000Z</time>
      </trkpt>
      <trkpt lat="45.83215" lon="0.92455">
        <ele>236.3</ele>
        <time>2026-08-10T13:22:52.000Z</time>
      </trkpt>
      <trkpt lat="45.83198" lon="0.92447">
        <ele>236.9</ele>
        <time>2026-08-10T13:23:00.000Z</time>
      </trkpt>
      <trkpt lat="45.83193" lon="0.92444">
        <ele>237</ele>
        <time>2026-08-10T13:23:02.000Z</time>
      </trkpt>
      <trkpt lat="45.83181" lon="0.92437">
        <ele>237.2</ele>
        <time>2026-08-10T13:23:07.000Z</time>
      </trkpt>
      <trkpt lat="45.83162" lon="0.92428">
        <ele>237.5</ele>
        <time>2026-08-10T13:23:14.000Z</time>
      </trkpt>
      <trkpt lat="45.83146" lon="0.9242">
        <ele>237.8</ele>
        <time>2026-08-10T13:23:20.000Z</time>
      </trkpt>
      <trkpt lat="45.83132" lon="0.92412">
        <ele>238.3</ele>
        <time>2026-08-10T13:23:26.000Z</time>
      </trkpt>
      <trkpt lat="45.83114" lon="0.92403">
        <ele>238.9</ele>
        <time>2026-08-10T13:23:33.000Z</time>
      </trkpt>
      <trkpt lat="45.83109" lon="0.92401">
        <ele>239.1</ele>
        <time>2026-08-10T13:23:35.000Z</time>
      </trkpt>
      <trkpt lat="45.83088" lon="0.92388">
        <ele>239.9</ele>
        <time>2026-08-10T13:23:44.000Z</time>
      </trkpt>
      <trkpt lat="45.83085" lon="0.92387">
        <ele>240</ele>
        <time>2026-08-10T13:23:45.000Z</time>
      </trkpt>
      <trkpt lat="45.83076" lon="0.92382">
        <ele>240.5</ele>
        <time>2026-08-10T13:23:49.000Z</time>
      </trkpt>
      <trkpt lat="45.83061" lon="0.92376">
        <ele>241.3</ele>
        <time>2026-08-10T13:23:55.000Z</time>
      </trkpt>
      <trkpt lat="45.83059" lon="0.92374">
        <ele>241.4</ele>
        <time>2026-08-10T13:23:56.000Z</time>
      </trkpt>
      <trkpt lat="45.8304" lon="0.92365">
        <ele>242.9</ele>
        <time>2026-08-10T13:24:05.000Z</time>
      </trkpt>
      <trkpt lat="45.83025" lon="0.92357">
        <ele>244.1</ele>
        <time>2026-08-10T13:24:13.000Z</time>
      </trkpt>
      <trkpt lat="45.83018" lon="0.92353">
        <ele>244.4</ele>
        <time>2026-08-10T13:24:17.000Z</time>
      </trkpt>
      <trkpt lat="45.83014" lon="0.92351">
        <ele>244.5</ele>
        <time>2026-08-10T13:24:19.000Z</time>
      </trkpt>
      <trkpt lat="45.82999" lon="0.92346">
        <ele>245.1</ele>
        <time>2026-08-10T13:24:27.000Z</time>
      </trkpt>
      <trkpt lat="45.82997" lon="0.92346">
        <ele>245.2</ele>
        <time>2026-08-10T13:24:28.000Z</time>
      </trkpt>
      <trkpt lat="45.82983" lon="0.92345">
        <ele>245.8</ele>
        <time>2026-08-10T13:24:34.000Z</time>
      </trkpt>
      <trkpt lat="45.82978" lon="0.92345">
        <ele>245.9</ele>
        <time>2026-08-10T13:24:36.000Z</time>
      </trkpt>
      <trkpt lat="45.82963" lon="0.92349">
        <ele>246.5</ele>
        <time>2026-08-10T13:24:43.000Z</time>
      </trkpt>
      <trkpt lat="45.82961" lon="0.9235">
        <ele>246.6</ele>
        <time>2026-08-10T13:24:44.000Z</time>
      </trkpt>
      <trkpt lat="45.82948" lon="0.92354">
        <ele>247.3</ele>
        <time>2026-08-10T13:24:50.000Z</time>
      </trkpt>
      <trkpt lat="45.8294" lon="0.92356">
        <ele>247.5</ele>
        <time>2026-08-10T13:24:54.000Z</time>
      </trkpt>
      <trkpt lat="45.82932" lon="0.92359">
        <ele>247.6</ele>
        <time>2026-08-10T13:24:58.000Z</time>
      </trkpt>
      <trkpt lat="45.82913" lon="0.92366">
        <ele>248</ele>
        <time>2026-08-10T13:25:06.000Z</time>
      </trkpt>
      <trkpt lat="45.82893" lon="0.92371">
        <ele>248.5</ele>
        <time>2026-08-10T13:25:15.000Z</time>
      </trkpt>
      <trkpt lat="45.82886" lon="0.92374">
        <ele>248.6</ele>
        <time>2026-08-10T13:25:18.000Z</time>
      </trkpt>
      <trkpt lat="45.82867" lon="0.92382">
        <ele>248.8</ele>
        <time>2026-08-10T13:25:26.000Z</time>
      </trkpt>
      <trkpt lat="45.82844" lon="0.92386">
        <ele>249.6</ele>
        <time>2026-08-10T13:25:34.000Z</time>
      </trkpt>
      <trkpt lat="45.82821" lon="0.92377">
        <ele>249.3</ele>
        <time>2026-08-10T13:25:41.000Z</time>
      </trkpt>
      <trkpt lat="45.82802" lon="0.92353">
        <ele>248.9</ele>
        <time>2026-08-10T13:25:48.000Z</time>
      </trkpt>
      <trkpt lat="45.82784" lon="0.92325">
        <ele>248.2</ele>
        <time>2026-08-10T13:25:55.000Z</time>
      </trkpt>
      <trkpt lat="45.82762" lon="0.92291">
        <ele>248</ele>
        <time>2026-08-10T13:26:03.000Z</time>
      </trkpt>
      <trkpt lat="45.82747" lon="0.92267">
        <ele>248.3</ele>
        <time>2026-08-10T13:26:09.000Z</time>
      </trkpt>
      <trkpt lat="45.82742" lon="0.92259">
        <ele>248.4</ele>
        <time>2026-08-10T13:26:11.000Z</time>
      </trkpt>
      <trkpt lat="45.82724" lon="0.92232">
        <ele>248.1</ele>
        <time>2026-08-10T13:26:18.000Z</time>
      </trkpt>
      <trkpt lat="45.82697" lon="0.92189">
        <ele>247.4</ele>
        <time>2026-08-10T13:26:28.000Z</time>
      </trkpt>
      <trkpt lat="45.82681" lon="0.92176">
        <ele>247.2</ele>
        <time>2026-08-10T13:26:33.000Z</time>
      </trkpt>
      <trkpt lat="45.82671" lon="0.92176">
        <ele>246.8</ele>
        <time>2026-08-10T13:26:35.000Z</time>
      </trkpt>
      <trkpt lat="45.82662" lon="0.9218">
        <ele>246.3</ele>
        <time>2026-08-10T13:26:37.000Z</time>
      </trkpt>
      <trkpt lat="45.82657" lon="0.92183">
        <ele>246.1</ele>
        <time>2026-08-10T13:26:38.000Z</time>
      </trkpt>
      <trkpt lat="45.82647" lon="0.9219">
        <ele>245.5</ele>
        <time>2026-08-10T13:26:40.000Z</time>
      </trkpt>
      <trkpt lat="45.82638" lon="0.922">
        <ele>244.8</ele>
        <time>2026-08-10T13:26:42.000Z</time>
      </trkpt>
      <trkpt lat="45.82634" lon="0.92206">
        <ele>244.5</ele>
        <time>2026-08-10T13:26:43.000Z</time>
      </trkpt>
      <trkpt lat="45.82612" lon="0.92242">
        <ele>243.3</ele>
        <time>2026-08-10T13:26:48.000Z</time>
      </trkpt>
      <trkpt lat="45.82599" lon="0.92264">
        <ele>242.6</ele>
        <time>2026-08-10T13:26:51.000Z</time>
      </trkpt>
      <trkpt lat="45.82582" lon="0.92292">
        <ele>242.5</ele>
        <time>2026-08-10T13:26:55.000Z</time>
      </trkpt>
      <trkpt lat="45.82578" lon="0.923">
        <ele>242.6</ele>
        <time>2026-08-10T13:26:56.000Z</time>
      </trkpt>
      <trkpt lat="45.82565" lon="0.9232">
        <ele>243.2</ele>
        <time>2026-08-10T13:26:59.000Z</time>
      </trkpt>
      <trkpt lat="45.82555" lon="0.92329">
        <ele>243.7</ele>
        <time>2026-08-10T13:27:01.000Z</time>
      </trkpt>
      <trkpt lat="45.82544" lon="0.92333">
        <ele>243.6</ele>
        <time>2026-08-10T13:27:03.000Z</time>
      </trkpt>
      <trkpt lat="45.82532" lon="0.92332">
        <ele>243.1</ele>
        <time>2026-08-10T13:27:05.000Z</time>
      </trkpt>
      <trkpt lat="45.82522" lon="0.92326">
        <ele>243.2</ele>
        <time>2026-08-10T13:27:07.000Z</time>
      </trkpt>
      <trkpt lat="45.82514" lon="0.92317">
        <ele>243.5</ele>
        <time>2026-08-10T13:27:09.000Z</time>
      </trkpt>
      <trkpt lat="45.82479" lon="0.9227">
        <ele>242.9</ele>
        <time>2026-08-10T13:27:18.000Z</time>
      </trkpt>
      <trkpt lat="45.82475" lon="0.92265">
        <ele>243</ele>
        <time>2026-08-10T13:27:19.000Z</time>
      </trkpt>
      <trkpt lat="45.82447" lon="0.92225">
        <ele>242</ele>
        <time>2026-08-10T13:27:26.000Z</time>
      </trkpt>
      <trkpt lat="45.82418" lon="0.9219">
        <ele>239.5</ele>
        <time>2026-08-10T13:27:32.000Z</time>
      </trkpt>
      <trkpt lat="45.82412" lon="0.92185">
        <ele>238.8</ele>
        <time>2026-08-10T13:27:33.000Z</time>
      </trkpt>
      <trkpt lat="45.82404" lon="0.92181">
        <ele>238.3</ele>
        <time>2026-08-10T13:27:34.000Z</time>
      </trkpt>
      <trkpt lat="45.82388" lon="0.92176">
        <ele>237.6</ele>
        <time>2026-08-10T13:27:36.000Z</time>
      </trkpt>
      <trkpt lat="45.82371" lon="0.92176">
        <ele>235.9</ele>
        <time>2026-08-10T13:27:38.000Z</time>
      </trkpt>
      <trkpt lat="45.82352" lon="0.92178">
        <ele>234.4</ele>
        <time>2026-08-10T13:27:40.000Z</time>
      </trkpt>
      <trkpt lat="45.82323" lon="0.92181">
        <ele>232.6</ele>
        <time>2026-08-10T13:27:43.000Z</time>
      </trkpt>
      <trkpt lat="45.82303" lon="0.92182">
        <ele>232.2</ele>
        <time>2026-08-10T13:27:45.000Z</time>
      </trkpt>
      <trkpt lat="45.82284" lon="0.92184">
        <ele>233.3</ele>
        <time>2026-08-10T13:27:47.000Z</time>
      </trkpt>
      <trkpt lat="45.8226" lon="0.92185">
        <ele>234.3</ele>
        <time>2026-08-10T13:27:50.000Z</time>
      </trkpt>
      <trkpt lat="45.82245" lon="0.92186">
        <ele>234.7</ele>
        <time>2026-08-10T13:27:52.000Z</time>
      </trkpt>
      <trkpt lat="45.82199" lon="0.92187">
        <ele>233.9</ele>
        <time>2026-08-10T13:27:59.000Z</time>
      </trkpt>
      <trkpt lat="45.82166" lon="0.92183">
        <ele>233.1</ele>
        <time>2026-08-10T13:28:04.000Z</time>
      </trkpt>
      <trkpt lat="45.82151" lon="0.92181">
        <ele>231.8</ele>
        <time>2026-08-10T13:28:06.000Z</time>
      </trkpt>
      <trkpt lat="45.82135" lon="0.92178">
        <ele>230.6</ele>
        <time>2026-08-10T13:28:08.000Z</time>
      </trkpt>
      <trkpt lat="45.82102" lon="0.92172">
        <ele>228.9</ele>
        <time>2026-08-10T13:28:12.000Z</time>
      </trkpt>
      <trkpt lat="45.82094" lon="0.9217">
        <ele>228.5</ele>
        <time>2026-08-10T13:28:13.000Z</time>
      </trkpt>
      <trkpt lat="45.82061" lon="0.92162">
        <ele>227</ele>
        <time>2026-08-10T13:28:17.000Z</time>
      </trkpt>
      <trkpt lat="45.82044" lon="0.92156">
        <ele>226.2</ele>
        <time>2026-08-10T13:28:19.000Z</time>
      </trkpt>
      <trkpt lat="45.82036" lon="0.92153">
        <ele>225.8</ele>
        <time>2026-08-10T13:28:20.000Z</time>
      </trkpt>
      <trkpt lat="45.82003" lon="0.9214">
        <ele>224.1</ele>
        <time>2026-08-10T13:28:24.000Z</time>
      </trkpt>
      <trkpt lat="45.81971" lon="0.92126">
        <ele>222.5</ele>
        <time>2026-08-10T13:28:28.000Z</time>
      </trkpt>
      <trkpt lat="45.81963" lon="0.92122">
        <ele>222.1</ele>
        <time>2026-08-10T13:28:29.000Z</time>
      </trkpt>
      <trkpt lat="45.8194" lon="0.92114">
        <ele>220.8</ele>
        <time>2026-08-10T13:28:32.000Z</time>
      </trkpt>
      <trkpt lat="45.81918" lon="0.92109">
        <ele>219.1</ele>
        <time>2026-08-10T13:28:35.000Z</time>
      </trkpt>
      <trkpt lat="45.81903" lon="0.92108">
        <ele>218</ele>
        <time>2026-08-10T13:28:37.000Z</time>
      </trkpt>
      <trkpt lat="45.8188" lon="0.92107">
        <ele>216.3</ele>
        <time>2026-08-10T13:28:40.000Z</time>
      </trkpt>
      <trkpt lat="45.81872" lon="0.92107">
        <ele>215.7</ele>
        <time>2026-08-10T13:28:41.000Z</time>
      </trkpt>
      <trkpt lat="45.81837" lon="0.92107">
        <ele>211.4</ele>
        <time>2026-08-10T13:28:45.000Z</time>
      </trkpt>
      <trkpt lat="45.81828" lon="0.92105">
        <ele>210.9</ele>
        <time>2026-08-10T13:28:46.000Z</time>
      </trkpt>
      <trkpt lat="45.81818" lon="0.92102">
        <ele>211</ele>
        <time>2026-08-10T13:28:47.000Z</time>
      </trkpt>
      <trkpt lat="45.81809" lon="0.92097">
        <ele>210.9</ele>
        <time>2026-08-10T13:28:48.000Z</time>
      </trkpt>
      <trkpt lat="45.81801" lon="0.92091">
        <ele>211.1</ele>
        <time>2026-08-10T13:28:49.000Z</time>
      </trkpt>
      <trkpt lat="45.81794" lon="0.92083">
        <ele>211.2</ele>
        <time>2026-08-10T13:28:50.000Z</time>
      </trkpt>
      <trkpt lat="45.81788" lon="0.92074">
        <ele>211</ele>
        <time>2026-08-10T13:28:51.000Z</time>
      </trkpt>
      <trkpt lat="45.81782" lon="0.92066">
        <ele>210.8</ele>
        <time>2026-08-10T13:28:52.000Z</time>
      </trkpt>
      <trkpt lat="45.8177" lon="0.92052">
        <ele>210.2</ele>
        <time>2026-08-10T13:28:54.000Z</time>
      </trkpt>
      <trkpt lat="45.81763" lon="0.92047">
        <ele>210</ele>
        <time>2026-08-10T13:28:55.000Z</time>
      </trkpt>
      <trkpt lat="45.81757" lon="0.92044">
        <ele>209.9</ele>
        <time>2026-08-10T13:28:56.000Z</time>
      </trkpt>
      <trkpt lat="45.81744" lon="0.92041">
        <ele>209.8</ele>
        <time>2026-08-10T13:28:58.000Z</time>
      </trkpt>
      <trkpt lat="45.81731" lon="0.92041">
        <ele>209.9</ele>
        <time>2026-08-10T13:29:00.000Z</time>
      </trkpt>
      <trkpt lat="45.81719" lon="0.92044">
        <ele>210.2</ele>
        <time>2026-08-10T13:29:02.000Z</time>
      </trkpt>
      <trkpt lat="45.81708" lon="0.92047">
        <ele>210.1</ele>
        <time>2026-08-10T13:29:04.000Z</time>
      </trkpt>
      <trkpt lat="45.81699" lon="0.92044">
        <ele>209.4</ele>
        <time>2026-08-10T13:29:06.000Z</time>
      </trkpt>
      <trkpt lat="45.81693" lon="0.92032">
        <ele>208.2</ele>
        <time>2026-08-10T13:29:08.000Z</time>
      </trkpt>
      <trkpt lat="45.81691" lon="0.92024">
        <ele>207.5</ele>
        <time>2026-08-10T13:29:09.000Z</time>
      </trkpt>
      <trkpt lat="45.81688" lon="0.92008">
        <ele>205.8</ele>
        <time>2026-08-10T13:29:11.000Z</time>
      </trkpt>
      <trkpt lat="45.81682" lon="0.91994">
        <ele>204.9</ele>
        <time>2026-08-10T13:29:13.000Z</time>
      </trkpt>
      <trkpt lat="45.81679" lon="0.91989">
        <ele>204.8</ele>
        <time>2026-08-10T13:29:14.000Z</time>
      </trkpt>
      <trkpt lat="45.8165" lon="0.9193">
        <ele>208.3</ele>
        <time>2026-08-10T13:29:24.000Z</time>
      </trkpt>
      <trkpt lat="45.8164" lon="0.91897">
        <ele>210.6</ele>
        <time>2026-08-10T13:29:29.000Z</time>
      </trkpt>
      <trkpt lat="45.81639" lon="0.91891">
        <ele>210.9</ele>
        <time>2026-08-10T13:29:30.000Z</time>
      </trkpt>
      <trkpt lat="45.81638" lon="0.91865">
        <ele>212</ele>
        <time>2026-08-10T13:29:35.000Z</time>
      </trkpt>
      <trkpt lat="45.81642" lon="0.91839">
        <ele>212.5</ele>
        <time>2026-08-10T13:29:41.000Z</time>
      </trkpt>
      <trkpt lat="45.8165" lon="0.91816">
        <ele>213.1</ele>
        <time>2026-08-10T13:29:47.000Z</time>
      </trkpt>
      <trkpt lat="45.81661" lon="0.91795">
        <ele>213.4</ele>
        <time>2026-08-10T13:29:53.000Z</time>
      </trkpt>
      <trkpt lat="45.81666" lon="0.91789">
        <ele>213.3</ele>
        <time>2026-08-10T13:29:55.000Z</time>
      </trkpt>
      <trkpt lat="45.81677" lon="0.91777">
        <ele>213</ele>
        <time>2026-08-10T13:30:00.000Z</time>
      </trkpt>
      <trkpt lat="45.81682" lon="0.91772">
        <ele>212.8</ele>
        <time>2026-08-10T13:30:02.000Z</time>
      </trkpt>
      <trkpt lat="45.81693" lon="0.9176">
        <ele>212.5</ele>
        <time>2026-08-10T13:30:07.000Z</time>
      </trkpt>
      <trkpt lat="45.81699" lon="0.91754">
        <ele>212.4</ele>
        <time>2026-08-10T13:30:10.000Z</time>
      </trkpt>
      <trkpt lat="45.81711" lon="0.91739">
        <ele>212.7</ele>
        <time>2026-08-10T13:30:16.000Z</time>
      </trkpt>
      <trkpt lat="45.81724" lon="0.91727">
        <ele>212.5</ele>
        <time>2026-08-10T13:30:22.000Z</time>
      </trkpt>
      <trkpt lat="45.81729" lon="0.91722">
        <ele>212.6</ele>
        <time>2026-08-10T13:30:24.000Z</time>
      </trkpt>
      <trkpt lat="45.81746" lon="0.91705">
        <ele>213.2</ele>
        <time>2026-08-10T13:30:32.000Z</time>
      </trkpt>
      <trkpt lat="45.81753" lon="0.91698">
        <ele>213.4</ele>
        <time>2026-08-10T13:30:35.000Z</time>
      </trkpt>
      <trkpt lat="45.81761" lon="0.9169">
        <ele>213.8</ele>
        <time>2026-08-10T13:30:39.000Z</time>
      </trkpt>
      <trkpt lat="45.81767" lon="0.91681">
        <ele>214.4</ele>
        <time>2026-08-10T13:30:43.000Z</time>
      </trkpt>
      <trkpt lat="45.81778" lon="0.91671">
        <ele>214.5</ele>
        <time>2026-08-10T13:30:49.000Z</time>
      </trkpt>
      <trkpt lat="45.81781" lon="0.91667">
        <ele>214.6</ele>
        <time>2026-08-10T13:30:51.000Z</time>
      </trkpt>
      <trkpt lat="45.81793" lon="0.91654">
        <ele>215.3</ele>
        <time>2026-08-10T13:30:58.000Z</time>
      </trkpt>
      <trkpt lat="45.81805" lon="0.91643">
        <ele>216.3</ele>
        <time>2026-08-10T13:31:04.000Z</time>
      </trkpt>
      <trkpt lat="45.81813" lon="0.91635">
        <ele>217.2</ele>
        <time>2026-08-10T13:31:09.000Z</time>
      </trkpt>
      <trkpt lat="45.81818" lon="0.91629">
        <ele>217.9</ele>
        <time>2026-08-10T13:31:12.000Z</time>
      </trkpt>
      <trkpt lat="45.81826" lon="0.9162">
        <ele>218.9</ele>
        <time>2026-08-10T13:31:17.000Z</time>
      </trkpt>
      <trkpt lat="45.8183" lon="0.91616">
        <ele>219.4</ele>
        <time>2026-08-10T13:31:19.000Z</time>
      </trkpt>
      <trkpt lat="45.81835" lon="0.91608">
        <ele>220.3</ele>
        <time>2026-08-10T13:31:25.000Z</time>
      </trkpt>
      <trkpt lat="45.81841" lon="0.91604">
        <ele>220.2</ele>
        <time>2026-08-10T13:31:29.000Z</time>
      </trkpt>
      <trkpt lat="45.81842" lon="0.91603">
        <ele>220.2</ele>
        <time>2026-08-10T13:31:30.000Z</time>
      </trkpt>
      <trkpt lat="45.81845" lon="0.916">
        <ele>220.4</ele>
        <time>2026-08-10T13:31:33.000Z</time>
      </trkpt>
      <trkpt lat="45.81849" lon="0.91594">
        <ele>220.9</ele>
        <time>2026-08-10T13:31:36.000Z</time>
      </trkpt>
      <trkpt lat="45.81857" lon="0.91585">
        <ele>221.3</ele>
        <time>2026-08-10T13:31:41.000Z</time>
      </trkpt>
      <trkpt lat="45.81859" lon="0.9158">
        <ele>221.5</ele>
        <time>2026-08-10T13:31:43.000Z</time>
      </trkpt>
      <trkpt lat="45.81866" lon="0.91568">
        <ele>222.1</ele>
        <time>2026-08-10T13:31:49.000Z</time>
      </trkpt>
      <trkpt lat="45.81875" lon="0.91551">
        <ele>223</ele>
        <time>2026-08-10T13:31:56.000Z</time>
      </trkpt>
      <trkpt lat="45.81879" lon="0.9154">
        <ele>223.7</ele>
        <time>2026-08-10T13:32:00.000Z</time>
      </trkpt>
      <trkpt lat="45.81888" lon="0.9152">
        <ele>225.2</ele>
        <time>2026-08-10T13:32:08.000Z</time>
      </trkpt>
      <trkpt lat="45.81889" lon="0.91517">
        <ele>225.5</ele>
        <time>2026-08-10T13:32:09.000Z</time>
      </trkpt>
      <trkpt lat="45.81897" lon="0.91501">
        <ele>227.3</ele>
        <time>2026-08-10T13:32:16.000Z</time>
      </trkpt>
      <trkpt lat="45.81899" lon="0.91497">
        <ele>227.6</ele>
        <time>2026-08-10T13:32:18.000Z</time>
      </trkpt>
      <trkpt lat="45.81909" lon="0.91479">
        <ele>228.9</ele>
        <time>2026-08-10T13:32:25.000Z</time>
      </trkpt>
      <trkpt lat="45.81912" lon="0.91473">
        <ele>229.2</ele>
        <time>2026-08-10T13:32:27.000Z</time>
      </trkpt>
      <trkpt lat="45.8192" lon="0.91454">
        <ele>230.7</ele>
        <time>2026-08-10T13:32:34.000Z</time>
      </trkpt>
      <trkpt lat="45.81923" lon="0.91449">
        <ele>231.2</ele>
        <time>2026-08-10T13:32:36.000Z</time>
      </trkpt>
      <trkpt lat="45.81935" lon="0.91422">
        <ele>233.1</ele>
        <time>2026-08-10T13:32:46.000Z</time>
      </trkpt>
      <trkpt lat="45.81936" lon="0.91419">
        <ele>233.3</ele>
        <time>2026-08-10T13:32:47.000Z</time>
      </trkpt>
      <trkpt lat="45.81943" lon="0.91402">
        <ele>234.2</ele>
        <time>2026-08-10T13:32:54.000Z</time>
      </trkpt>
      <trkpt lat="45.81945" lon="0.91397">
        <ele>234.4</ele>
        <time>2026-08-10T13:32:56.000Z</time>
      </trkpt>
      <trkpt lat="45.81951" lon="0.91386">
        <ele>234.7</ele>
        <time>2026-08-10T13:33:01.000Z</time>
      </trkpt>
      <trkpt lat="45.81953" lon="0.91381">
        <ele>234.9</ele>
        <time>2026-08-10T13:33:03.000Z</time>
      </trkpt>
      <trkpt lat="45.8196" lon="0.9137">
        <ele>235.3</ele>
        <time>2026-08-10T13:33:08.000Z</time>
      </trkpt>
      <trkpt lat="45.81963" lon="0.91362">
        <ele>235.7</ele>
        <time>2026-08-10T13:33:12.000Z</time>
      </trkpt>
      <trkpt lat="45.81967" lon="0.91352">
        <ele>236.1</ele>
        <time>2026-08-10T13:33:16.000Z</time>
      </trkpt>
      <trkpt lat="45.8197" lon="0.91344">
        <ele>236.4</ele>
        <time>2026-08-10T13:33:19.000Z</time>
      </trkpt>
      <trkpt lat="45.81975" lon="0.91332">
        <ele>236.7</ele>
        <time>2026-08-10T13:33:23.000Z</time>
      </trkpt>
      <trkpt lat="45.81982" lon="0.91321">
        <ele>236.4</ele>
        <time>2026-08-10T13:33:27.000Z</time>
      </trkpt>
      <trkpt lat="45.81984" lon="0.91316">
        <ele>236.3</ele>
        <time>2026-08-10T13:33:29.000Z</time>
      </trkpt>
      <trkpt lat="45.81985" lon="0.91314">
        <ele>236.4</ele>
        <time>2026-08-10T13:33:30.000Z</time>
      </trkpt>
      <trkpt lat="45.81987" lon="0.91309">
        <ele>236.3</ele>
        <time>2026-08-10T13:33:32.000Z</time>
      </trkpt>
      <trkpt lat="45.81995" lon="0.9128">
        <ele>236.6</ele>
        <time>2026-08-10T13:33:40.000Z</time>
      </trkpt>
      <trkpt lat="45.81996" lon="0.91273">
        <ele>236.7</ele>
        <time>2026-08-10T13:33:42.000Z</time>
      </trkpt>
      <trkpt lat="45.81998" lon="0.91256">
        <ele>237.1</ele>
        <time>2026-08-10T13:33:46.000Z</time>
      </trkpt>
      <trkpt lat="45.82001" lon="0.91223">
        <ele>237.9</ele>
        <time>2026-08-10T13:33:54.000Z</time>
      </trkpt>
      <trkpt lat="45.81999" lon="0.91193">
        <ele>239.1</ele>
        <time>2026-08-10T13:34:01.000Z</time>
      </trkpt>
      <trkpt lat="45.82001" lon="0.91165">
        <ele>239</ele>
        <time>2026-08-10T13:34:06.000Z</time>
      </trkpt>
      <trkpt lat="45.82002" lon="0.91141">
        <ele>239.7</ele>
        <time>2026-08-10T13:34:11.000Z</time>
      </trkpt>
      <trkpt lat="45.82005" lon="0.91099">
        <ele>239.5</ele>
        <time>2026-08-10T13:34:18.000Z</time>
      </trkpt>
      <trkpt lat="45.82005" lon="0.91064">
        <ele>240.4</ele>
        <time>2026-08-10T13:34:23.000Z</time>
      </trkpt>
      <trkpt lat="45.82008" lon="0.91035">
        <ele>241.9</ele>
        <time>2026-08-10T13:34:29.000Z</time>
      </trkpt>
      <trkpt lat="45.82007" lon="0.9101">
        <ele>243.1</ele>
        <time>2026-08-10T13:34:36.000Z</time>
      </trkpt>
      <trkpt lat="45.82009" lon="0.90985">
        <ele>243.7</ele>
        <time>2026-08-10T13:34:44.000Z</time>
      </trkpt>
      <trkpt lat="45.8201" lon="0.90967">
        <ele>244</ele>
        <time>2026-08-10T13:34:50.000Z</time>
      </trkpt>
      <trkpt lat="45.8201" lon="0.90963">
        <ele>244</ele>
        <time>2026-08-10T13:34:51.000Z</time>
      </trkpt>
      <trkpt lat="45.82011" lon="0.90944">
        <ele>244.2</ele>
        <time>2026-08-10T13:34:57.000Z</time>
      </trkpt>
      <trkpt lat="45.82012" lon="0.90922">
        <ele>244.5</ele>
        <time>2026-08-10T13:35:03.000Z</time>
      </trkpt>
      <trkpt lat="45.82012" lon="0.90919">
        <ele>244.5</ele>
        <time>2026-08-10T13:35:04.000Z</time>
      </trkpt>
      <trkpt lat="45.82013" lon="0.90887">
        <ele>245.1</ele>
        <time>2026-08-10T13:35:13.000Z</time>
      </trkpt>
      <trkpt lat="45.82014" lon="0.9087">
        <ele>245.7</ele>
        <time>2026-08-10T13:35:18.000Z</time>
      </trkpt>
      <trkpt lat="45.82015" lon="0.90856">
        <ele>246.2</ele>
        <time>2026-08-10T13:35:22.000Z</time>
      </trkpt>
      <trkpt lat="45.82017" lon="0.90832">
        <ele>247.4</ele>
        <time>2026-08-10T13:35:29.000Z</time>
      </trkpt>
      <trkpt lat="45.82017" lon="0.90828">
        <ele>247.5</ele>
        <time>2026-08-10T13:35:30.000Z</time>
      </trkpt>
      <trkpt lat="45.82018" lon="0.90803">
        <ele>247.8</ele>
        <time>2026-08-10T13:35:37.000Z</time>
      </trkpt>
      <trkpt lat="45.82018" lon="0.90784">
        <ele>248.5</ele>
        <time>2026-08-10T13:35:42.000Z</time>
      </trkpt>
      <trkpt lat="45.82021" lon="0.90738">
        <ele>248.6</ele>
        <time>2026-08-10T13:35:53.000Z</time>
      </trkpt>
      <trkpt lat="45.82021" lon="0.90719">
        <ele>248.8</ele>
        <time>2026-08-10T13:35:57.000Z</time>
      </trkpt>
      <trkpt lat="45.82022" lon="0.90699">
        <ele>249.2</ele>
        <time>2026-08-10T13:36:01.000Z</time>
      </trkpt>
      <trkpt lat="45.82023" lon="0.90695">
        <ele>249.3</ele>
        <time>2026-08-10T13:36:02.000Z</time>
      </trkpt>
      <trkpt lat="45.82024" lon="0.90665">
        <ele>249.3</ele>
        <time>2026-08-10T13:36:08.000Z</time>
      </trkpt>
      <trkpt lat="45.82026" lon="0.90618">
        <ele>250</ele>
        <time>2026-08-10T13:36:17.000Z</time>
      </trkpt>
      <trkpt lat="45.82027" lon="0.90608">
        <ele>250</ele>
        <time>2026-08-10T13:36:19.000Z</time>
      </trkpt>
      <trkpt lat="45.82029" lon="0.90567">
        <ele>249.9</ele>
        <time>2026-08-10T13:36:27.000Z</time>
      </trkpt>
      <trkpt lat="45.82031" lon="0.90532">
        <ele>250.6</ele>
        <time>2026-08-10T13:36:34.000Z</time>
      </trkpt>
      <trkpt lat="45.82032" lon="0.90516">
        <ele>250.8</ele>
        <time>2026-08-10T13:36:37.000Z</time>
      </trkpt>
      <trkpt lat="45.82033" lon="0.90484">
        <ele>250.8</ele>
        <time>2026-08-10T13:36:43.000Z</time>
      </trkpt>
      <trkpt lat="45.82034" lon="0.9045">
        <ele>250.8</ele>
        <time>2026-08-10T13:36:49.000Z</time>
      </trkpt>
      <trkpt lat="45.82035" lon="0.90428">
        <ele>250.7</ele>
        <time>2026-08-10T13:36:53.000Z</time>
      </trkpt>
      <trkpt lat="45.82037" lon="0.90387">
        <ele>250.2</ele>
        <time>2026-08-10T13:37:00.000Z</time>
      </trkpt>
      <trkpt lat="45.82037" lon="0.90326">
        <ele>248.7</ele>
        <time>2026-08-10T13:37:10.000Z</time>
      </trkpt>
      <trkpt lat="45.82035" lon="0.90305">
        <ele>248.2</ele>
        <time>2026-08-10T13:37:13.000Z</time>
      </trkpt>
      <trkpt lat="45.82032" lon="0.9029">
        <ele>247.9</ele>
        <time>2026-08-10T13:37:15.000Z</time>
      </trkpt>
      <trkpt lat="45.82017" lon="0.90247">
        <ele>248.5</ele>
        <time>2026-08-10T13:37:21.000Z</time>
      </trkpt>
      <trkpt lat="45.82013" lon="0.9024">
        <ele>248.7</ele>
        <time>2026-08-10T13:37:22.000Z</time>
      </trkpt>
      <trkpt lat="45.81997" lon="0.90208">
        <ele>249.5</ele>
        <time>2026-08-10T13:37:27.000Z</time>
      </trkpt>
      <trkpt lat="45.8197" lon="0.90163">
        <ele>249.4</ele>
        <time>2026-08-10T13:37:34.000Z</time>
      </trkpt>
      <trkpt lat="45.8196" lon="0.90145">
        <ele>251.4</ele>
        <time>2026-08-10T13:37:37.000Z</time>
      </trkpt>
      <trkpt lat="45.81943" lon="0.90114">
        <ele>254.1</ele>
        <time>2026-08-10T13:37:43.000Z</time>
      </trkpt>
      <trkpt lat="45.81929" lon="0.90099">
        <ele>256.3</ele>
        <time>2026-08-10T13:37:48.000Z</time>
      </trkpt>
      <trkpt lat="45.81924" lon="0.90094">
        <ele>256.7</ele>
        <time>2026-08-10T13:37:50.000Z</time>
      </trkpt>
      <trkpt lat="45.81918" lon="0.90087">
        <ele>257</ele>
        <time>2026-08-10T13:37:53.000Z</time>
      </trkpt>
      <trkpt lat="45.81908" lon="0.90079">
        <ele>257.5</ele>
        <time>2026-08-10T13:37:58.000Z</time>
      </trkpt>
      <trkpt lat="45.81905" lon="0.90075">
        <ele>257.6</ele>
        <time>2026-08-10T13:38:00.000Z</time>
      </trkpt>
      <trkpt lat="45.81897" lon="0.90068">
        <ele>257.7</ele>
        <time>2026-08-10T13:38:04.000Z</time>
      </trkpt>
      <trkpt lat="45.81886" lon="0.90062">
        <ele>257.2</ele>
        <time>2026-08-10T13:38:10.000Z</time>
      </trkpt>
      <trkpt lat="45.81873" lon="0.90052">
        <ele>256.6</ele>
        <time>2026-08-10T13:38:17.000Z</time>
      </trkpt>
      <trkpt lat="45.81867" lon="0.90048">
        <ele>256.3</ele>
        <time>2026-08-10T13:38:21.000Z</time>
      </trkpt>
      <trkpt lat="45.81862" lon="0.90046">
        <ele>256.1</ele>
        <time>2026-08-10T13:38:24.000Z</time>
      </trkpt>
      <trkpt lat="45.81853" lon="0.90036">
        <ele>256.3</ele>
        <time>2026-08-10T13:38:30.000Z</time>
      </trkpt>
      <trkpt lat="45.81844" lon="0.90022">
        <ele>256.3</ele>
        <time>2026-08-10T13:38:37.000Z</time>
      </trkpt>
      <trkpt lat="45.81841" lon="0.90015">
        <ele>256.6</ele>
        <time>2026-08-10T13:38:40.000Z</time>
      </trkpt>
      <trkpt lat="45.81838" lon="0.90006">
        <ele>256.9</ele>
        <time>2026-08-10T13:38:44.000Z</time>
      </trkpt>
      <trkpt lat="45.81832" lon="0.89988">
        <ele>257.9</ele>
        <time>2026-08-10T13:38:51.000Z</time>
      </trkpt>
      <trkpt lat="45.81831" lon="0.89983">
        <ele>258.3</ele>
        <time>2026-08-10T13:38:53.000Z</time>
      </trkpt>
      <trkpt lat="45.8183" lon="0.89969">
        <ele>259.1</ele>
        <time>2026-08-10T13:38:59.000Z</time>
      </trkpt>
      <trkpt lat="45.81831" lon="0.89952">
        <ele>259.7</ele>
        <time>2026-08-10T13:39:07.000Z</time>
      </trkpt>
      <trkpt lat="45.81831" lon="0.89948">
        <ele>259.8</ele>
        <time>2026-08-10T13:39:09.000Z</time>
      </trkpt>
      <trkpt lat="45.8183" lon="0.89932">
        <ele>260.3</ele>
        <time>2026-08-10T13:39:15.000Z</time>
      </trkpt>
      <trkpt lat="45.8183" lon="0.89927">
        <ele>260.5</ele>
        <time>2026-08-10T13:39:17.000Z</time>
      </trkpt>
      <trkpt lat="45.8183" lon="0.89919">
        <ele>260.8</ele>
        <time>2026-08-10T13:39:20.000Z</time>
      </trkpt>
      <trkpt lat="45.81832" lon="0.89896">
        <ele>261.7</ele>
        <time>2026-08-10T13:39:28.000Z</time>
      </trkpt>
      <trkpt lat="45.81832" lon="0.89891">
        <ele>261.9</ele>
        <time>2026-08-10T13:39:30.000Z</time>
      </trkpt>
      <trkpt lat="45.8183" lon="0.89878">
        <ele>262.8</ele>
        <time>2026-08-10T13:39:34.000Z</time>
      </trkpt>
      <trkpt lat="45.81833" lon="0.8987">
        <ele>263.3</ele>
        <time>2026-08-10T13:39:37.000Z</time>
      </trkpt>
      <trkpt lat="45.81833" lon="0.89864">
        <ele>263.8</ele>
        <time>2026-08-10T13:39:40.000Z</time>
      </trkpt>
      <trkpt lat="45.81835" lon="0.89845">
        <ele>264.1</ele>
        <time>2026-08-10T13:39:47.000Z</time>
      </trkpt>
      <trkpt lat="45.81835" lon="0.89843">
        <ele>264.2</ele>
        <time>2026-08-10T13:39:48.000Z</time>
      </trkpt>
      <trkpt lat="45.81835" lon="0.89839">
        <ele>264.2</ele>
        <time>2026-08-10T13:39:50.000Z</time>
      </trkpt>
      <trkpt lat="45.81834" lon="0.89831">
        <ele>264.3</ele>
        <time>2026-08-10T13:39:55.000Z</time>
      </trkpt>
      <trkpt lat="45.81834" lon="0.89814">
        <ele>265.5</ele>
        <time>2026-08-10T13:40:02.000Z</time>
      </trkpt>
      <trkpt lat="45.81833" lon="0.8981">
        <ele>265.7</ele>
        <time>2026-08-10T13:40:04.000Z</time>
      </trkpt>
      <trkpt lat="45.81831" lon="0.89795">
        <ele>266.7</ele>
        <time>2026-08-10T13:40:10.000Z</time>
      </trkpt>
      <trkpt lat="45.81831" lon="0.89794">
        <ele>266.8</ele>
        <time>2026-08-10T13:40:11.000Z</time>
      </trkpt>
      <trkpt lat="45.81828" lon="0.89783">
        <ele>267.4</ele>
        <time>2026-08-10T13:40:16.000Z</time>
      </trkpt>
      <trkpt lat="45.81827" lon="0.89777">
        <ele>267.8</ele>
        <time>2026-08-10T13:40:18.000Z</time>
      </trkpt>
      <trkpt lat="45.81823" lon="0.89761">
        <ele>268.2</ele>
        <time>2026-08-10T13:40:24.000Z</time>
      </trkpt>
      <trkpt lat="45.8182" lon="0.89749">
        <ele>268.6</ele>
        <time>2026-08-10T13:40:30.000Z</time>
      </trkpt>
      <trkpt lat="45.81819" lon="0.89744">
        <ele>268.7</ele>
        <time>2026-08-10T13:40:33.000Z</time>
      </trkpt>
      <trkpt lat="45.81819" lon="0.89733">
        <ele>269.1</ele>
        <time>2026-08-10T13:40:38.000Z</time>
      </trkpt>
      <trkpt lat="45.8182" lon="0.89726">
        <ele>269.4</ele>
        <time>2026-08-10T13:40:41.000Z</time>
      </trkpt>
      <trkpt lat="45.81819" lon="0.89714">
        <ele>269.8</ele>
        <time>2026-08-10T13:40:47.000Z</time>
      </trkpt>
      <trkpt lat="45.81818" lon="0.89709">
        <ele>269.9</ele>
        <time>2026-08-10T13:40:49.000Z</time>
      </trkpt>
      <trkpt lat="45.81818" lon="0.897">
        <ele>270.2</ele>
        <time>2026-08-10T13:40:53.000Z</time>
      </trkpt>
      <trkpt lat="45.81817" lon="0.89694">
        <ele>270.4</ele>
        <time>2026-08-10T13:40:56.000Z</time>
      </trkpt>
      <trkpt lat="45.81817" lon="0.89691">
        <ele>270.5</ele>
        <time>2026-08-10T13:40:57.000Z</time>
      </trkpt>
      <trkpt lat="45.81817" lon="0.89688">
        <ele>270.5</ele>
        <time>2026-08-10T13:40:58.000Z</time>
      </trkpt>
      <trkpt lat="45.81819" lon="0.89682">
        <ele>270.7</ele>
        <time>2026-08-10T13:41:01.000Z</time>
      </trkpt>
      <trkpt lat="45.8182" lon="0.89671">
        <ele>271</ele>
        <time>2026-08-10T13:41:06.000Z</time>
      </trkpt>
      <trkpt lat="45.81823" lon="0.89667">
        <ele>271.3</ele>
        <time>2026-08-10T13:41:08.000Z</time>
      </trkpt>
      <trkpt lat="45.81825" lon="0.89662">
        <ele>271.6</ele>
        <time>2026-08-10T13:41:10.000Z</time>
      </trkpt>
      <trkpt lat="45.81828" lon="0.89653">
        <ele>272.2</ele>
        <time>2026-08-10T13:41:14.000Z</time>
      </trkpt>
      <trkpt lat="45.81833" lon="0.89645">
        <ele>272.7</ele>
        <time>2026-08-10T13:41:18.000Z</time>
      </trkpt>
      <trkpt lat="45.81835" lon="0.89641">
        <ele>273</ele>
        <time>2026-08-10T13:41:20.000Z</time>
      </trkpt>
      <trkpt lat="45.81844" lon="0.89628">
        <ele>273.8</ele>
        <time>2026-08-10T13:41:27.000Z</time>
      </trkpt>
      <trkpt lat="45.81846" lon="0.89626">
        <ele>273.9</ele>
        <time>2026-08-10T13:41:28.000Z</time>
      </trkpt>
      <trkpt lat="45.81855" lon="0.89613">
        <ele>274.7</ele>
        <time>2026-08-10T13:41:35.000Z</time>
      </trkpt>
      <trkpt lat="45.8186" lon="0.89609">
        <ele>275</ele>
        <time>2026-08-10T13:41:38.000Z</time>
      </trkpt>
      <trkpt lat="45.81865" lon="0.89599">
        <ele>275.6</ele>
        <time>2026-08-10T13:41:44.000Z</time>
      </trkpt>
      <trkpt lat="45.81873" lon="0.89587">
        <ele>276.3</ele>
        <time>2026-08-10T13:41:51.000Z</time>
      </trkpt>
      <trkpt lat="45.81875" lon="0.89583">
        <ele>276.5</ele>
        <time>2026-08-10T13:41:53.000Z</time>
      </trkpt>
      <trkpt lat="45.81883" lon="0.89563">
        <ele>277.7</ele>
        <time>2026-08-10T13:42:03.000Z</time>
      </trkpt>
      <trkpt lat="45.81884" lon="0.8956">
        <ele>277.8</ele>
        <time>2026-08-10T13:42:05.000Z</time>
      </trkpt>
      <trkpt lat="45.81887" lon="0.89544">
        <ele>278.4</ele>
        <time>2026-08-10T13:42:12.000Z</time>
      </trkpt>
      <trkpt lat="45.81888" lon="0.89542">
        <ele>278.5</ele>
        <time>2026-08-10T13:42:13.000Z</time>
      </trkpt>
      <trkpt lat="45.81891" lon="0.89531">
        <ele>278.9</ele>
        <time>2026-08-10T13:42:18.000Z</time>
      </trkpt>
      <trkpt lat="45.81892" lon="0.89525">
        <ele>279.1</ele>
        <time>2026-08-10T13:42:21.000Z</time>
      </trkpt>
      <trkpt lat="45.81893" lon="0.89521">
        <ele>279.3</ele>
        <time>2026-08-10T13:42:23.000Z</time>
      </trkpt>
      <trkpt lat="45.81893" lon="0.89517">
        <ele>279.4</ele>
        <time>2026-08-10T13:42:25.000Z</time>
      </trkpt>
      <trkpt lat="45.81894" lon="0.89514">
        <ele>279.5</ele>
        <time>2026-08-10T13:42:27.000Z</time>
      </trkpt>
      <trkpt lat="45.81895" lon="0.89504">
        <ele>279.9</ele>
        <time>2026-08-10T13:42:31.000Z</time>
      </trkpt>
      <trkpt lat="45.81895" lon="0.89489">
        <ele>280.8</ele>
        <time>2026-08-10T13:42:37.000Z</time>
      </trkpt>
      <trkpt lat="45.81895" lon="0.89486">
        <ele>281</ele>
        <time>2026-08-10T13:42:38.000Z</time>
      </trkpt>
      <trkpt lat="45.81896" lon="0.89473">
        <ele>282</ele>
        <time>2026-08-10T13:42:43.000Z</time>
      </trkpt>
      <trkpt lat="45.81896" lon="0.89467">
        <ele>282.3</ele>
        <time>2026-08-10T13:42:45.000Z</time>
      </trkpt>
      <trkpt lat="45.81895" lon="0.89454">
        <ele>283.2</ele>
        <time>2026-08-10T13:42:50.000Z</time>
      </trkpt>
      <trkpt lat="45.81899" lon="0.89434">
        <ele>284</ele>
        <time>2026-08-10T13:42:58.000Z</time>
      </trkpt>
      <trkpt lat="45.819" lon="0.89409">
        <ele>284.9</ele>
        <time>2026-08-10T13:43:08.000Z</time>
      </trkpt>
      <trkpt lat="45.81901" lon="0.89405">
        <ele>285</ele>
        <time>2026-08-10T13:43:10.000Z</time>
      </trkpt>
      <trkpt lat="45.81901" lon="0.89396">
        <ele>285.3</ele>
        <time>2026-08-10T13:43:14.000Z</time>
      </trkpt>
      <trkpt lat="45.81903" lon="0.89387">
        <ele>285.6</ele>
        <time>2026-08-10T13:43:19.000Z</time>
      </trkpt>
      <trkpt lat="45.81904" lon="0.89376">
        <ele>285.9</ele>
        <time>2026-08-10T13:43:23.000Z</time>
      </trkpt>
      <trkpt lat="45.81904" lon="0.89354">
        <ele>286.6</ele>
        <time>2026-08-10T13:43:31.000Z</time>
      </trkpt>
      <trkpt lat="45.81905" lon="0.89351">
        <ele>286.6</ele>
        <time>2026-08-10T13:43:32.000Z</time>
      </trkpt>
      <trkpt lat="45.81906" lon="0.89341">
        <ele>286.7</ele>
        <time>2026-08-10T13:43:36.000Z</time>
      </trkpt>
      <trkpt lat="45.81906" lon="0.89338">
        <ele>286.7</ele>
        <time>2026-08-10T13:43:37.000Z</time>
      </trkpt>
      <trkpt lat="45.81906" lon="0.89313">
        <ele>287.2</ele>
        <time>2026-08-10T13:43:46.000Z</time>
      </trkpt>
      <trkpt lat="45.81908" lon="0.89303">
        <ele>287.3</ele>
        <time>2026-08-10T13:43:49.000Z</time>
      </trkpt>
      <trkpt lat="45.81908" lon="0.8929">
        <ele>287.3</ele>
        <time>2026-08-10T13:43:53.000Z</time>
      </trkpt>
      <trkpt lat="45.81907" lon="0.89287">
        <ele>287.3</ele>
        <time>2026-08-10T13:43:54.000Z</time>
      </trkpt>
      <trkpt lat="45.81908" lon="0.89285">
        <ele>287.3</ele>
        <time>2026-08-10T13:43:55.000Z</time>
      </trkpt>
      <trkpt lat="45.8191" lon="0.89265">
        <ele>287.3</ele>
        <time>2026-08-10T13:44:02.000Z</time>
      </trkpt>
      <trkpt lat="45.81914" lon="0.8923">
        <ele>287.8</ele>
        <time>2026-08-10T13:44:10.000Z</time>
      </trkpt>
      <trkpt lat="45.81917" lon="0.89197">
        <ele>288</ele>
        <time>2026-08-10T13:44:17.000Z</time>
      </trkpt>
      <trkpt lat="45.81918" lon="0.89192">
        <ele>287.9</ele>
        <time>2026-08-10T13:44:18.000Z</time>
      </trkpt>
      <trkpt lat="45.81922" lon="0.89142">
        <ele>287.8</ele>
        <time>2026-08-10T13:44:28.000Z</time>
      </trkpt>
      <trkpt lat="45.81925" lon="0.89102">
        <ele>287.7</ele>
        <time>2026-08-10T13:44:36.000Z</time>
      </trkpt>
      <trkpt lat="45.8193" lon="0.89058">
        <ele>287.5</ele>
        <time>2026-08-10T13:44:45.000Z</time>
      </trkpt>
      <trkpt lat="45.81935" lon="0.89033">
        <ele>287.1</ele>
        <time>2026-08-10T13:44:50.000Z</time>
      </trkpt>
      <trkpt lat="45.81936" lon="0.89002">
        <ele>286.3</ele>
        <time>2026-08-10T13:44:55.000Z</time>
      </trkpt>
      <trkpt lat="45.81939" lon="0.88959">
        <ele>285.1</ele>
        <time>2026-08-10T13:45:00.000Z</time>
      </trkpt>
      <trkpt lat="45.81942" lon="0.88915">
        <ele>283.9</ele>
        <time>2026-08-10T13:45:04.000Z</time>
      </trkpt>
      <trkpt lat="45.81944" lon="0.88902">
        <ele>283.5</ele>
        <time>2026-08-10T13:45:05.000Z</time>
      </trkpt>
      <trkpt lat="45.81947" lon="0.88876">
        <ele>282.5</ele>
        <time>2026-08-10T13:45:07.000Z</time>
      </trkpt>
      <trkpt lat="45.81951" lon="0.88816">
        <ele>279.9</ele>
        <time>2026-08-10T13:45:11.000Z</time>
      </trkpt>
      <trkpt lat="45.81955" lon="0.88774">
        <ele>278.3</ele>
        <time>2026-08-10T13:45:14.000Z</time>
      </trkpt>
      <trkpt lat="45.81955" lon="0.8876">
        <ele>278.1</ele>
        <time>2026-08-10T13:45:15.000Z</time>
      </trkpt>
      <trkpt lat="45.81956" lon="0.8875">
        <ele>278</ele>
        <time>2026-08-10T13:45:16.000Z</time>
      </trkpt>
      <trkpt lat="45.81957" lon="0.88718">
        <ele>276.9</ele>
        <time>2026-08-10T13:45:18.000Z</time>
      </trkpt>
      <trkpt lat="45.8196" lon="0.88674">
        <ele>275.7</ele>
        <time>2026-08-10T13:45:21.000Z</time>
      </trkpt>
      <trkpt lat="45.81962" lon="0.88645">
        <ele>275.4</ele>
        <time>2026-08-10T13:45:23.000Z</time>
      </trkpt>
      <trkpt lat="45.81966" lon="0.88592">
        <ele>274.2</ele>
        <time>2026-08-10T13:45:27.000Z</time>
      </trkpt>
      <trkpt lat="45.81969" lon="0.88564">
        <ele>273.4</ele>
        <time>2026-08-10T13:45:29.000Z</time>
      </trkpt>
      <trkpt lat="45.81973" lon="0.88535">
        <ele>271.5</ele>
        <time>2026-08-10T13:45:31.000Z</time>
      </trkpt>
      <trkpt lat="45.81979" lon="0.88471">
        <ele>268.7</ele>
        <time>2026-08-10T13:45:35.000Z</time>
      </trkpt>
      <trkpt lat="45.8198" lon="0.88456">
        <ele>268</ele>
        <time>2026-08-10T13:45:36.000Z</time>
      </trkpt>
      <trkpt lat="45.81982" lon="0.88425">
        <ele>266.6</ele>
        <time>2026-08-10T13:45:38.000Z</time>
      </trkpt>
      <trkpt lat="45.81987" lon="0.8836">
        <ele>264.5</ele>
        <time>2026-08-10T13:45:42.000Z</time>
      </trkpt>
      <trkpt lat="45.8199" lon="0.88318">
        <ele>264.4</ele>
        <time>2026-08-10T13:45:45.000Z</time>
      </trkpt>
      <trkpt lat="45.81993" lon="0.88277">
        <ele>264.6</ele>
        <time>2026-08-10T13:45:48.000Z</time>
      </trkpt>
      <trkpt lat="45.81993" lon="0.88264">
        <ele>264.9</ele>
        <time>2026-08-10T13:45:49.000Z</time>
      </trkpt>
      <trkpt lat="45.81995" lon="0.88241">
        <ele>265.5</ele>
        <time>2026-08-10T13:45:51.000Z</time>
      </trkpt>
      <trkpt lat="45.81995" lon="0.88231">
        <ele>265.9</ele>
        <time>2026-08-10T13:45:52.000Z</time>
      </trkpt>
      <trkpt lat="45.81996" lon="0.88222">
        <ele>266.2</ele>
        <time>2026-08-10T13:45:53.000Z</time>
      </trkpt>
      <trkpt lat="45.81998" lon="0.88198">
        <ele>266.9</ele>
        <time>2026-08-10T13:45:56.000Z</time>
      </trkpt>
      <trkpt lat="45.81999" lon="0.88184">
        <ele>267</ele>
        <time>2026-08-10T13:45:58.000Z</time>
      </trkpt>
      <trkpt lat="45.82002" lon="0.88151">
        <ele>267.5</ele>
        <time>2026-08-10T13:46:04.000Z</time>
      </trkpt>
      <trkpt lat="45.82004" lon="0.88128">
        <ele>268.3</ele>
        <time>2026-08-10T13:46:08.000Z</time>
      </trkpt>
      <trkpt lat="45.82006" lon="0.88102">
        <ele>268.8</ele>
        <time>2026-08-10T13:46:13.000Z</time>
      </trkpt>
      <trkpt lat="45.82011" lon="0.88046">
        <ele>268.6</ele>
        <time>2026-08-10T13:46:23.000Z</time>
      </trkpt>
      <trkpt lat="45.82014" lon="0.88002">
        <ele>268.5</ele>
        <time>2026-08-10T13:46:30.000Z</time>
      </trkpt>
      <trkpt lat="45.82015" lon="0.87996">
        <ele>268.5</ele>
        <time>2026-08-10T13:46:31.000Z</time>
      </trkpt>
      <trkpt lat="45.82019" lon="0.8794">
        <ele>268.3</ele>
        <time>2026-08-10T13:46:39.000Z</time>
      </trkpt>
      <trkpt lat="45.82024" lon="0.87866">
        <ele>268.1</ele>
        <time>2026-08-10T13:46:49.000Z</time>
      </trkpt>
      <trkpt lat="45.82029" lon="0.87814">
        <ele>266.9</ele>
        <time>2026-08-10T13:46:55.000Z</time>
      </trkpt>
      <trkpt lat="45.8203" lon="0.87796">
        <ele>266.5</ele>
        <time>2026-08-10T13:46:57.000Z</time>
      </trkpt>
      <trkpt lat="45.82035" lon="0.87722">
        <ele>265.8</ele>
        <time>2026-08-10T13:47:05.000Z</time>
      </trkpt>
      <trkpt lat="45.8204" lon="0.87652">
        <ele>267.3</ele>
        <time>2026-08-10T13:47:13.000Z</time>
      </trkpt>
      <trkpt lat="45.82044" lon="0.87604">
        <ele>268.1</ele>
        <time>2026-08-10T13:47:20.000Z</time>
      </trkpt>
      <trkpt lat="45.82045" lon="0.87581">
        <ele>268.5</ele>
        <time>2026-08-10T13:47:24.000Z</time>
      </trkpt>
      <trkpt lat="45.82045" lon="0.8757">
        <ele>268.9</ele>
        <time>2026-08-10T13:47:26.000Z</time>
      </trkpt>
      <trkpt lat="45.82047" lon="0.87537">
        <ele>269.8</ele>
        <time>2026-08-10T13:47:33.000Z</time>
      </trkpt>
      <trkpt lat="45.82048" lon="0.87532">
        <ele>269.9</ele>
        <time>2026-08-10T13:47:34.000Z</time>
      </trkpt>
      <trkpt lat="45.82051" lon="0.87503">
        <ele>270.2</ele>
        <time>2026-08-10T13:47:41.000Z</time>
      </trkpt>
      <trkpt lat="45.82053" lon="0.87482">
        <ele>270.7</ele>
        <time>2026-08-10T13:47:47.000Z</time>
      </trkpt>
      <trkpt lat="45.82053" lon="0.87475">
        <ele>270.9</ele>
        <time>2026-08-10T13:47:49.000Z</time>
      </trkpt>
      <trkpt lat="45.82054" lon="0.87451">
        <ele>271.8</ele>
        <time>2026-08-10T13:47:56.000Z</time>
      </trkpt>
      <trkpt lat="45.82056" lon="0.87432">
        <ele>272</ele>
        <time>2026-08-10T13:48:02.000Z</time>
      </trkpt>
      <trkpt lat="45.82058" lon="0.87409">
        <ele>272</ele>
        <time>2026-08-10T13:48:07.000Z</time>
      </trkpt>
      <trkpt lat="45.82059" lon="0.874">
        <ele>272</ele>
        <time>2026-08-10T13:48:09.000Z</time>
      </trkpt>
      <trkpt lat="45.82061" lon="0.87376">
        <ele>272.4</ele>
        <time>2026-08-10T13:48:15.000Z</time>
      </trkpt>
      <trkpt lat="45.82064" lon="0.87333">
        <ele>272.7</ele>
        <time>2026-08-10T13:48:23.000Z</time>
      </trkpt>
      <trkpt lat="45.82068" lon="0.87286">
        <ele>271.8</ele>
        <time>2026-08-10T13:48:30.000Z</time>
      </trkpt>
      <trkpt lat="45.82073" lon="0.87228">
        <ele>270.9</ele>
        <time>2026-08-10T13:48:37.000Z</time>
      </trkpt>
      <trkpt lat="45.82079" lon="0.87145">
        <ele>271.8</ele>
        <time>2026-08-10T13:48:47.000Z</time>
      </trkpt>
      <trkpt lat="45.82081" lon="0.87111">
        <ele>273</ele>
        <time>2026-08-10T13:48:52.000Z</time>
      </trkpt>
      <trkpt lat="45.82084" lon="0.8708">
        <ele>274.1</ele>
        <time>2026-08-10T13:48:58.000Z</time>
      </trkpt>
      <trkpt lat="45.82084" lon="0.87074">
        <ele>274.3</ele>
        <time>2026-08-10T13:48:59.000Z</time>
      </trkpt>
      <trkpt lat="45.82086" lon="0.87043">
        <ele>275.9</ele>
        <time>2026-08-10T13:49:06.000Z</time>
      </trkpt>
      <trkpt lat="45.82087" lon="0.87023">
        <ele>277.2</ele>
        <time>2026-08-10T13:49:11.000Z</time>
      </trkpt>
      <trkpt lat="45.82088" lon="0.87012">
        <ele>277.6</ele>
        <time>2026-08-10T13:49:14.000Z</time>
      </trkpt>
      <trkpt lat="45.8209" lon="0.86998">
        <ele>278.1</ele>
        <time>2026-08-10T13:49:19.000Z</time>
      </trkpt>
      <trkpt lat="45.8209" lon="0.86995">
        <ele>278.2</ele>
        <time>2026-08-10T13:49:20.000Z</time>
      </trkpt>
      <trkpt lat="45.82091" lon="0.86973">
        <ele>279</ele>
        <time>2026-08-10T13:49:28.000Z</time>
      </trkpt>
      <trkpt lat="45.82091" lon="0.86962">
        <ele>279.4</ele>
        <time>2026-08-10T13:49:32.000Z</time>
      </trkpt>
      <trkpt lat="45.82091" lon="0.86956">
        <ele>279.6</ele>
        <time>2026-08-10T13:49:34.000Z</time>
      </trkpt>
      <trkpt lat="45.8209" lon="0.86955">
        <ele>279.6</ele>
        <time>2026-08-10T13:49:35.000Z</time>
      </trkpt>
      <trkpt lat="45.8209" lon="0.86951">
        <ele>279.8</ele>
        <time>2026-08-10T13:49:38.000Z</time>
      </trkpt>
      <trkpt lat="45.82088" lon="0.86945">
        <ele>280</ele>
        <time>2026-08-10T13:49:41.000Z</time>
      </trkpt>
      <trkpt lat="45.82088" lon="0.86943">
        <ele>280</ele>
        <time>2026-08-10T13:49:44.000Z</time>
      </trkpt>
      <trkpt lat="45.82088" lon="0.86943">
        <ele>280.1</ele>
        <time>2026-08-10T13:49:45.000Z</time>
      </trkpt>
      <trkpt lat="45.82089" lon="0.86942">
        <ele>280.1</ele>
        <time>2026-08-10T13:49:46.000Z</time>
      </trkpt>
      <trkpt lat="45.82089" lon="0.86942">
        <ele>280.1</ele>
        <time>2026-08-10T13:49:47.000Z</time>
      </trkpt>
      <trkpt lat="45.82089" lon="0.86939">
        <ele>280.2</ele>
        <time>2026-08-10T13:49:52.000Z</time>
      </trkpt>
      <trkpt lat="45.82092" lon="0.86931">
        <ele>280.3</ele>
        <time>2026-08-10T14:06:41.000Z</time>
      </trkpt>
      <trkpt lat="45.82095" lon="0.86908">
        <ele>280.6</ele>
        <time>2026-08-10T14:06:49.000Z</time>
      </trkpt>
      <trkpt lat="45.82097" lon="0.8687">
        <ele>280.5</ele>
        <time>2026-08-10T14:06:58.000Z</time>
      </trkpt>
      <trkpt lat="45.82098" lon="0.8684">
        <ele>280.9</ele>
        <time>2026-08-10T14:07:05.000Z</time>
      </trkpt>
      <trkpt lat="45.82101" lon="0.8681">
        <ele>281</ele>
        <time>2026-08-10T14:07:12.000Z</time>
      </trkpt>
      <trkpt lat="45.82105" lon="0.86778">
        <ele>281.2</ele>
        <time>2026-08-10T14:07:20.000Z</time>
      </trkpt>
      <trkpt lat="45.82108" lon="0.86737">
        <ele>281.5</ele>
        <time>2026-08-10T14:07:30.000Z</time>
      </trkpt>
      <trkpt lat="45.82112" lon="0.86701">
        <ele>282</ele>
        <time>2026-08-10T14:07:39.000Z</time>
      </trkpt>
      <trkpt lat="45.82113" lon="0.86674">
        <ele>282.7</ele>
        <time>2026-08-10T14:07:46.000Z</time>
      </trkpt>
      <trkpt lat="45.82114" lon="0.86666">
        <ele>283</ele>
        <time>2026-08-10T14:07:48.000Z</time>
      </trkpt>
      <trkpt lat="45.82114" lon="0.86662">
        <ele>283.2</ele>
        <time>2026-08-10T14:07:49.000Z</time>
      </trkpt>
      <trkpt lat="45.82116" lon="0.86629">
        <ele>284.3</ele>
        <time>2026-08-10T14:07:58.000Z</time>
      </trkpt>
      <trkpt lat="45.82116" lon="0.86623">
        <ele>284.6</ele>
        <time>2026-08-10T14:08:00.000Z</time>
      </trkpt>
      <trkpt lat="45.82116" lon="0.86607">
        <ele>285</ele>
        <time>2026-08-10T14:08:05.000Z</time>
      </trkpt>
      <trkpt lat="45.82118" lon="0.86587">
        <ele>285.2</ele>
        <time>2026-08-10T14:08:10.000Z</time>
      </trkpt>
      <trkpt lat="45.82119" lon="0.86574">
        <ele>285.5</ele>
        <time>2026-08-10T14:08:14.000Z</time>
      </trkpt>
      <trkpt lat="45.82121" lon="0.86549">
        <ele>286.1</ele>
        <time>2026-08-10T14:08:21.000Z</time>
      </trkpt>
      <trkpt lat="45.82121" lon="0.86542">
        <ele>286.2</ele>
        <time>2026-08-10T14:08:23.000Z</time>
      </trkpt>
      <trkpt lat="45.82121" lon="0.86538">
        <ele>286.2</ele>
        <time>2026-08-10T14:08:24.000Z</time>
      </trkpt>
      <trkpt lat="45.82123" lon="0.86501">
        <ele>286</ele>
        <time>2026-08-10T14:08:33.000Z</time>
      </trkpt>
      <trkpt lat="45.82126" lon="0.86458">
        <ele>285.5</ele>
        <time>2026-08-10T14:08:42.000Z</time>
      </trkpt>
      <trkpt lat="45.82129" lon="0.86413">
        <ele>285.3</ele>
        <time>2026-08-10T14:08:51.000Z</time>
      </trkpt>
      <trkpt lat="45.82133" lon="0.86362">
        <ele>285.8</ele>
        <time>2026-08-10T14:09:01.000Z</time>
      </trkpt>
      <trkpt lat="45.82137" lon="0.86326">
        <ele>285.9</ele>
        <time>2026-08-10T14:09:09.000Z</time>
      </trkpt>
      <trkpt lat="45.82138" lon="0.86309">
        <ele>286</ele>
        <time>2026-08-10T14:09:13.000Z</time>
      </trkpt>
      <trkpt lat="45.82138" lon="0.86297">
        <ele>286.3</ele>
        <time>2026-08-10T14:09:16.000Z</time>
      </trkpt>
      <trkpt lat="45.82141" lon="0.86265">
        <ele>287</ele>
        <time>2026-08-10T14:09:24.000Z</time>
      </trkpt>
      <trkpt lat="45.82142" lon="0.86248">
        <ele>287.2</ele>
        <time>2026-08-10T14:09:29.000Z</time>
      </trkpt>
      <trkpt lat="45.82143" lon="0.86235">
        <ele>287.7</ele>
        <time>2026-08-10T14:09:33.000Z</time>
      </trkpt>
      <trkpt lat="45.82146" lon="0.86206">
        <ele>288.4</ele>
        <time>2026-08-10T14:09:41.000Z</time>
      </trkpt>
      <trkpt lat="45.82148" lon="0.86188">
        <ele>288.8</ele>
        <time>2026-08-10T14:09:46.000Z</time>
      </trkpt>
      <trkpt lat="45.82151" lon="0.86151">
        <ele>290</ele>
        <time>2026-08-10T14:09:57.000Z</time>
      </trkpt>
      <trkpt lat="45.82152" lon="0.86137">
        <ele>290.5</ele>
        <time>2026-08-10T14:10:02.000Z</time>
      </trkpt>
      <trkpt lat="45.82152" lon="0.86128">
        <ele>290.7</ele>
        <time>2026-08-10T14:10:05.000Z</time>
      </trkpt>
      <trkpt lat="45.82153" lon="0.86112">
        <ele>291</ele>
        <time>2026-08-10T14:10:10.000Z</time>
      </trkpt>
      <trkpt lat="45.82153" lon="0.86109">
        <ele>291</ele>
        <time>2026-08-10T14:10:11.000Z</time>
      </trkpt>
      <trkpt lat="45.82156" lon="0.86082">
        <ele>291</ele>
        <time>2026-08-10T14:10:20.000Z</time>
      </trkpt>
      <trkpt lat="45.82157" lon="0.8606">
        <ele>291</ele>
        <time>2026-08-10T14:10:27.000Z</time>
      </trkpt>
      <trkpt lat="45.82157" lon="0.86053">
        <ele>291</ele>
        <time>2026-08-10T14:10:29.000Z</time>
      </trkpt>
      <trkpt lat="45.8216" lon="0.86019">
        <ele>291</ele>
        <time>2026-08-10T14:10:38.000Z</time>
      </trkpt>
      <trkpt lat="45.82162" lon="0.85984">
        <ele>290.5</ele>
        <time>2026-08-10T14:10:45.000Z</time>
      </trkpt>
      <trkpt lat="45.82166" lon="0.85939">
        <ele>289.8</ele>
        <time>2026-08-10T14:10:52.000Z</time>
      </trkpt>
      <trkpt lat="45.82169" lon="0.85886">
        <ele>288.8</ele>
        <time>2026-08-10T14:10:59.000Z</time>
      </trkpt>
      <trkpt lat="45.8217" lon="0.85821">
        <ele>286.5</ele>
        <time>2026-08-10T14:11:06.000Z</time>
      </trkpt>
      <trkpt lat="45.82169" lon="0.85792">
        <ele>286</ele>
        <time>2026-08-10T14:11:09.000Z</time>
      </trkpt>
      <trkpt lat="45.82166" lon="0.85754">
        <ele>285.2</ele>
        <time>2026-08-10T14:11:13.000Z</time>
      </trkpt>
      <trkpt lat="45.82166" lon="0.85745">
        <ele>285</ele>
        <time>2026-08-10T14:11:14.000Z</time>
      </trkpt>
      <trkpt lat="45.82159" lon="0.85681">
        <ele>284.1</ele>
        <time>2026-08-10T14:11:21.000Z</time>
      </trkpt>
      <trkpt lat="45.82158" lon="0.85672">
        <ele>284.1</ele>
        <time>2026-08-10T14:11:22.000Z</time>
      </trkpt>
      <trkpt lat="45.82148" lon="0.85612">
        <ele>282.4</ele>
        <time>2026-08-10T14:11:28.000Z</time>
      </trkpt>
      <trkpt lat="45.82146" lon="0.85602">
        <ele>281.9</ele>
        <time>2026-08-10T14:11:29.000Z</time>
      </trkpt>
      <trkpt lat="45.82137" lon="0.8556">
        <ele>281.1</ele>
        <time>2026-08-10T14:11:33.000Z</time>
      </trkpt>
      <trkpt lat="45.82126" lon="0.85516">
        <ele>279.8</ele>
        <time>2026-08-10T14:11:37.000Z</time>
      </trkpt>
      <trkpt lat="45.82115" lon="0.85468">
        <ele>278</ele>
        <time>2026-08-10T14:11:41.000Z</time>
      </trkpt>
      <trkpt lat="45.82109" lon="0.85443">
        <ele>278</ele>
        <time>2026-08-10T14:11:43.000Z</time>
      </trkpt>
      <trkpt lat="45.82103" lon="0.85419">
        <ele>277.3</ele>
        <time>2026-08-10T14:11:45.000Z</time>
      </trkpt>
      <trkpt lat="45.82092" lon="0.85371">
        <ele>276.3</ele>
        <time>2026-08-10T14:11:49.000Z</time>
      </trkpt>
      <trkpt lat="45.82086" lon="0.85347">
        <ele>275.5</ele>
        <time>2026-08-10T14:11:51.000Z</time>
      </trkpt>
      <trkpt lat="45.82072" lon="0.8529">
        <ele>273.9</ele>
        <time>2026-08-10T14:11:56.000Z</time>
      </trkpt>
      <trkpt lat="45.82066" lon="0.85267">
        <ele>273.2</ele>
        <time>2026-08-10T14:11:58.000Z</time>
      </trkpt>
      <trkpt lat="45.82058" lon="0.85234">
        <ele>272.3</ele>
        <time>2026-08-10T14:12:01.000Z</time>
      </trkpt>
      <trkpt lat="45.8205" lon="0.852">
        <ele>271.6</ele>
        <time>2026-08-10T14:12:04.000Z</time>
      </trkpt>
      <trkpt lat="45.82038" lon="0.85154">
        <ele>270.9</ele>
        <time>2026-08-10T14:12:08.000Z</time>
      </trkpt>
      <trkpt lat="45.82033" lon="0.8513">
        <ele>270</ele>
        <time>2026-08-10T14:12:10.000Z</time>
      </trkpt>
      <trkpt lat="45.82029" lon="0.85107">
        <ele>269.8</ele>
        <time>2026-08-10T14:12:12.000Z</time>
      </trkpt>
      <trkpt lat="45.82029" lon="0.85071">
        <ele>268.6</ele>
        <time>2026-08-10T14:12:15.000Z</time>
      </trkpt>
      <trkpt lat="45.8203" lon="0.8506">
        <ele>268.3</ele>
        <time>2026-08-10T14:12:16.000Z</time>
      </trkpt>
      <trkpt lat="45.82036" lon="0.85025">
        <ele>268.2</ele>
        <time>2026-08-10T14:12:19.000Z</time>
      </trkpt>
      <trkpt lat="45.82038" lon="0.85013">
        <ele>267.9</ele>
        <time>2026-08-10T14:12:20.000Z</time>
      </trkpt>
      <trkpt lat="45.82053" lon="0.84945">
        <ele>266.1</ele>
        <time>2026-08-10T14:12:26.000Z</time>
      </trkpt>
      <trkpt lat="45.82057" lon="0.84924">
        <ele>266</ele>
        <time>2026-08-10T14:12:28.000Z</time>
      </trkpt>
      <trkpt lat="45.82072" lon="0.8485">
        <ele>264.8</ele>
        <time>2026-08-10T14:12:35.000Z</time>
      </trkpt>
      <trkpt lat="45.82074" lon="0.8484">
        <ele>264.7</ele>
        <time>2026-08-10T14:12:36.000Z</time>
      </trkpt>
      <trkpt lat="45.82082" lon="0.84811">
        <ele>264.9</ele>
        <time>2026-08-10T14:12:39.000Z</time>
      </trkpt>
      <trkpt lat="45.82088" lon="0.84782">
        <ele>264.8</ele>
        <time>2026-08-10T14:12:42.000Z</time>
      </trkpt>
      <trkpt lat="45.82099" lon="0.84734">
        <ele>264</ele>
        <time>2026-08-10T14:12:47.000Z</time>
      </trkpt>
      <trkpt lat="45.82108" lon="0.84688">
        <ele>264</ele>
        <time>2026-08-10T14:12:52.000Z</time>
      </trkpt>
      <trkpt lat="45.8211" lon="0.8468">
        <ele>264</ele>
        <time>2026-08-10T14:12:53.000Z</time>
      </trkpt>
      <trkpt lat="45.82115" lon="0.84663">
        <ele>264</ele>
        <time>2026-08-10T14:12:55.000Z</time>
      </trkpt>
      <trkpt lat="45.82134" lon="0.84607">
        <ele>264</ele>
        <time>2026-08-10T14:13:02.000Z</time>
      </trkpt>
      <trkpt lat="45.82142" lon="0.84585">
        <ele>264</ele>
        <time>2026-08-10T14:13:05.000Z</time>
      </trkpt>
      <trkpt lat="45.82146" lon="0.8457">
        <ele>264</ele>
        <time>2026-08-10T14:13:07.000Z</time>
      </trkpt>
      <trkpt lat="45.82157" lon="0.8452">
        <ele>264</ele>
        <time>2026-08-10T14:13:14.000Z</time>
      </trkpt>
      <trkpt lat="45.82166" lon="0.84476">
        <ele>264</ele>
        <time>2026-08-10T14:13:21.000Z</time>
      </trkpt>
      <trkpt lat="45.82166" lon="0.84471">
        <ele>264</ele>
        <time>2026-08-10T14:13:22.000Z</time>
      </trkpt>
      <trkpt lat="45.82167" lon="0.8446">
        <ele>264</ele>
        <time>2026-08-10T14:13:24.000Z</time>
      </trkpt>
      <trkpt lat="45.82165" lon="0.84448">
        <ele>264</ele>
        <time>2026-08-10T14:13:26.000Z</time>
      </trkpt>
      <trkpt lat="45.82152" lon="0.84394">
        <ele>263.6</ele>
        <time>2026-08-10T14:13:35.000Z</time>
      </trkpt>
      <trkpt lat="45.82137" lon="0.84351">
        <ele>261.9</ele>
        <time>2026-08-10T14:13:41.000Z</time>
      </trkpt>
      <trkpt lat="45.82134" lon="0.84344">
        <ele>261.7</ele>
        <time>2026-08-10T14:13:42.000Z</time>
      </trkpt>
      <trkpt lat="45.8212" lon="0.84307">
        <ele>260.3</ele>
        <time>2026-08-10T14:13:48.000Z</time>
      </trkpt>
      <trkpt lat="45.82104" lon="0.84261">
        <ele>258.3</ele>
        <time>2026-08-10T14:13:55.000Z</time>
      </trkpt>
      <trkpt lat="45.82101" lon="0.84254">
        <ele>258.1</ele>
        <time>2026-08-10T14:13:56.000Z</time>
      </trkpt>
      <trkpt lat="45.82085" lon="0.84213">
        <ele>256.7</ele>
        <time>2026-08-10T14:14:01.000Z</time>
      </trkpt>
      <trkpt lat="45.82071" lon="0.84175">
        <ele>255.6</ele>
        <time>2026-08-10T14:14:05.000Z</time>
      </trkpt>
      <trkpt lat="45.82064" lon="0.84154">
        <ele>254.4</ele>
        <time>2026-08-10T14:14:07.000Z</time>
      </trkpt>
      <trkpt lat="45.82051" lon="0.84121">
        <ele>252</ele>
        <time>2026-08-10T14:14:10.000Z</time>
      </trkpt>
      <trkpt lat="45.82037" lon="0.84087">
        <ele>249.8</ele>
        <time>2026-08-10T14:14:13.000Z</time>
      </trkpt>
      <trkpt lat="45.82024" lon="0.8405">
        <ele>247.9</ele>
        <time>2026-08-10T14:14:16.000Z</time>
      </trkpt>
      <trkpt lat="45.82014" lon="0.84026">
        <ele>246.9</ele>
        <time>2026-08-10T14:14:18.000Z</time>
      </trkpt>
      <trkpt lat="45.82009" lon="0.84013">
        <ele>246</ele>
        <time>2026-08-10T14:14:19.000Z</time>
      </trkpt>
      <trkpt lat="45.82005" lon="0.84">
        <ele>245.2</ele>
        <time>2026-08-10T14:14:20.000Z</time>
      </trkpt>
      <trkpt lat="45.81991" lon="0.83962">
        <ele>242.6</ele>
        <time>2026-08-10T14:14:23.000Z</time>
      </trkpt>
      <trkpt lat="45.81983" lon="0.83936">
        <ele>241.5</ele>
        <time>2026-08-10T14:14:25.000Z</time>
      </trkpt>
      <trkpt lat="45.81976" lon="0.83909">
        <ele>240.1</ele>
        <time>2026-08-10T14:14:27.000Z</time>
      </trkpt>
      <trkpt lat="45.8197" lon="0.83881">
        <ele>239.7</ele>
        <time>2026-08-10T14:14:29.000Z</time>
      </trkpt>
      <trkpt lat="45.81968" lon="0.83866">
        <ele>239.3</ele>
        <time>2026-08-10T14:14:30.000Z</time>
      </trkpt>
      <trkpt lat="45.81965" lon="0.83837">
        <ele>238.6</ele>
        <time>2026-08-10T14:14:32.000Z</time>
      </trkpt>
      <trkpt lat="45.81963" lon="0.83809">
        <ele>238.1</ele>
        <time>2026-08-10T14:14:34.000Z</time>
      </trkpt>
      <trkpt lat="45.81963" lon="0.83795">
        <ele>237.7</ele>
        <time>2026-08-10T14:14:35.000Z</time>
      </trkpt>
      <trkpt lat="45.81963" lon="0.83781">
        <ele>237.1</ele>
        <time>2026-08-10T14:14:36.000Z</time>
      </trkpt>
      <trkpt lat="45.81963" lon="0.83767">
        <ele>236.5</ele>
        <time>2026-08-10T14:14:37.000Z</time>
      </trkpt>
      <trkpt lat="45.81964" lon="0.83753">
        <ele>235.7</ele>
        <time>2026-08-10T14:14:38.000Z</time>
      </trkpt>
      <trkpt lat="45.81968" lon="0.83724">
        <ele>235</ele>
        <time>2026-08-10T14:14:40.000Z</time>
      </trkpt>
      <trkpt lat="45.81974" lon="0.83682">
        <ele>233.2</ele>
        <time>2026-08-10T14:14:43.000Z</time>
      </trkpt>
      <trkpt lat="45.81979" lon="0.83645">
        <ele>231.5</ele>
        <time>2026-08-10T14:14:46.000Z</time>
      </trkpt>
      <trkpt lat="45.81983" lon="0.83621">
        <ele>230.1</ele>
        <time>2026-08-10T14:14:48.000Z</time>
      </trkpt>
      <trkpt lat="45.81984" lon="0.83609">
        <ele>229.2</ele>
        <time>2026-08-10T14:14:49.000Z</time>
      </trkpt>
      <trkpt lat="45.81985" lon="0.83596">
        <ele>228.1</ele>
        <time>2026-08-10T14:14:50.000Z</time>
      </trkpt>
      <trkpt lat="45.81985" lon="0.83584">
        <ele>227</ele>
        <time>2026-08-10T14:14:51.000Z</time>
      </trkpt>
      <trkpt lat="45.81984" lon="0.83571">
        <ele>226.6</ele>
        <time>2026-08-10T14:14:52.000Z</time>
      </trkpt>
      <trkpt lat="45.81982" lon="0.83559">
        <ele>226.1</ele>
        <time>2026-08-10T14:14:53.000Z</time>
      </trkpt>
      <trkpt lat="45.81975" lon="0.83533">
        <ele>225.2</ele>
        <time>2026-08-10T14:14:55.000Z</time>
      </trkpt>
      <trkpt lat="45.81958" lon="0.835">
        <ele>223.5</ele>
        <time>2026-08-10T14:14:58.000Z</time>
      </trkpt>
      <trkpt lat="45.81951" lon="0.8349">
        <ele>223</ele>
        <time>2026-08-10T14:14:59.000Z</time>
      </trkpt>
      <trkpt lat="45.81927" lon="0.83465">
        <ele>221.9</ele>
        <time>2026-08-10T14:15:02.000Z</time>
      </trkpt>
      <trkpt lat="45.81902" lon="0.83442">
        <ele>221.2</ele>
        <time>2026-08-10T14:15:05.000Z</time>
      </trkpt>
      <trkpt lat="45.81878" lon="0.83418">
        <ele>221.3</ele>
        <time>2026-08-10T14:15:08.000Z</time>
      </trkpt>
      <trkpt lat="45.81856" lon="0.83393">
        <ele>219.5</ele>
        <time>2026-08-10T14:15:11.000Z</time>
      </trkpt>
      <trkpt lat="45.8185" lon="0.83384">
        <ele>218.7</ele>
        <time>2026-08-10T14:15:12.000Z</time>
      </trkpt>
      <trkpt lat="45.81838" lon="0.83365">
        <ele>218.3</ele>
        <time>2026-08-10T14:15:14.000Z</time>
      </trkpt>
      <trkpt lat="45.8182" lon="0.83336">
        <ele>217.3</ele>
        <time>2026-08-10T14:15:17.000Z</time>
      </trkpt>
      <trkpt lat="45.81804" lon="0.83309">
        <ele>216</ele>
        <time>2026-08-10T14:15:20.000Z</time>
      </trkpt>
      <trkpt lat="45.81794" lon="0.83292">
        <ele>215.8</ele>
        <time>2026-08-10T14:15:22.000Z</time>
      </trkpt>
      <trkpt lat="45.81783" lon="0.83266">
        <ele>215.6</ele>
        <time>2026-08-10T14:15:25.000Z</time>
      </trkpt>
      <trkpt lat="45.81778" lon="0.83246">
        <ele>214.8</ele>
        <time>2026-08-10T14:15:27.000Z</time>
      </trkpt>
      <trkpt lat="45.81777" lon="0.83235">
        <ele>214.1</ele>
        <time>2026-08-10T14:15:28.000Z</time>
      </trkpt>
      <trkpt lat="45.81777" lon="0.83224">
        <ele>213.7</ele>
        <time>2026-08-10T14:15:29.000Z</time>
      </trkpt>
      <trkpt lat="45.8178" lon="0.832">
        <ele>212.9</ele>
        <time>2026-08-10T14:15:31.000Z</time>
      </trkpt>
      <trkpt lat="45.81785" lon="0.83176">
        <ele>211.2</ele>
        <time>2026-08-10T14:15:33.000Z</time>
      </trkpt>
      <trkpt lat="45.81789" lon="0.83164">
        <ele>210.8</ele>
        <time>2026-08-10T14:15:34.000Z</time>
      </trkpt>
      <trkpt lat="45.81804" lon="0.8313">
        <ele>210.4</ele>
        <time>2026-08-10T14:15:37.000Z</time>
      </trkpt>
      <trkpt lat="45.81809" lon="0.83118">
        <ele>209.4</ele>
        <time>2026-08-10T14:15:38.000Z</time>
      </trkpt>
      <trkpt lat="45.8182" lon="0.83096">
        <ele>208</ele>
        <time>2026-08-10T14:15:40.000Z</time>
      </trkpt>
      <trkpt lat="45.81836" lon="0.83063">
        <ele>207</ele>
        <time>2026-08-10T14:15:43.000Z</time>
      </trkpt>
      <trkpt lat="45.81839" lon="0.83051">
        <ele>205.8</ele>
        <time>2026-08-10T14:15:44.000Z</time>
      </trkpt>
      <trkpt lat="45.81848" lon="0.83015">
        <ele>203.5</ele>
        <time>2026-08-10T14:15:47.000Z</time>
      </trkpt>
      <trkpt lat="45.81853" lon="0.82992">
        <ele>203.1</ele>
        <time>2026-08-10T14:15:49.000Z</time>
      </trkpt>
      <trkpt lat="45.81856" lon="0.82982">
        <ele>202.8</ele>
        <time>2026-08-10T14:15:50.000Z</time>
      </trkpt>
      <trkpt lat="45.81863" lon="0.82951">
        <ele>202.6</ele>
        <time>2026-08-10T14:15:53.000Z</time>
      </trkpt>
      <trkpt lat="45.81869" lon="0.82923">
        <ele>202.1</ele>
        <time>2026-08-10T14:15:56.000Z</time>
      </trkpt>
      <trkpt lat="45.81876" lon="0.82896">
        <ele>201.3</ele>
        <time>2026-08-10T14:15:59.000Z</time>
      </trkpt>
      <trkpt lat="45.81882" lon="0.8287">
        <ele>199.8</ele>
        <time>2026-08-10T14:16:02.000Z</time>
      </trkpt>
      <trkpt lat="45.81885" lon="0.82863">
        <ele>199.5</ele>
        <time>2026-08-10T14:16:03.000Z</time>
      </trkpt>
      <trkpt lat="45.81891" lon="0.82844">
        <ele>199</ele>
        <time>2026-08-10T14:16:06.000Z</time>
      </trkpt>
      <trkpt lat="45.81898" lon="0.82825">
        <ele>197.9</ele>
        <time>2026-08-10T14:16:09.000Z</time>
      </trkpt>
      <trkpt lat="45.81905" lon="0.82811">
        <ele>197</ele>
        <time>2026-08-10T14:16:11.000Z</time>
      </trkpt>
      <trkpt lat="45.81909" lon="0.82804">
        <ele>196.8</ele>
        <time>2026-08-10T14:16:12.000Z</time>
      </trkpt>
      <trkpt lat="45.81929" lon="0.82765">
        <ele>195.3</ele>
        <time>2026-08-10T14:16:17.000Z</time>
      </trkpt>
      <trkpt lat="45.81944" lon="0.82736">
        <ele>195</ele>
        <time>2026-08-10T14:16:21.000Z</time>
      </trkpt>
      <trkpt lat="45.81958" lon="0.82709">
        <ele>195.2</ele>
        <time>2026-08-10T14:16:25.000Z</time>
      </trkpt>
      <trkpt lat="45.81967" lon="0.82692">
        <ele>196.4</ele>
        <time>2026-08-10T14:16:28.000Z</time>
      </trkpt>
      <trkpt lat="45.81975" lon="0.82678">
        <ele>197.2</ele>
        <time>2026-08-10T14:16:31.000Z</time>
      </trkpt>
      <trkpt lat="45.81984" lon="0.82662">
        <ele>198.1</ele>
        <time>2026-08-10T14:16:36.000Z</time>
      </trkpt>
      <trkpt lat="45.81988" lon="0.8265">
        <ele>198.4</ele>
        <time>2026-08-10T14:16:41.000Z</time>
      </trkpt>
      <trkpt lat="45.81989" lon="0.82645">
        <ele>198.5</ele>
        <time>2026-08-10T14:16:43.000Z</time>
      </trkpt>
      <trkpt lat="45.81992" lon="0.8264">
        <ele>198.8</ele>
        <time>2026-08-10T14:16:46.000Z</time>
      </trkpt>
      <trkpt lat="45.81999" lon="0.82631">
        <ele>199.9</ele>
        <time>2026-08-10T14:16:52.000Z</time>
      </trkpt>
      <trkpt lat="45.82005" lon="0.82623">
        <ele>200.6</ele>
        <time>2026-08-10T14:16:58.000Z</time>
      </trkpt>
      <trkpt lat="45.82009" lon="0.82618">
        <ele>200.9</ele>
        <time>2026-08-10T14:17:01.000Z</time>
      </trkpt>
      <trkpt lat="45.82015" lon="0.82606">
        <ele>201.6</ele>
        <time>2026-08-10T14:17:07.000Z</time>
      </trkpt>
      <trkpt lat="45.82017" lon="0.82602">
        <ele>201.8</ele>
        <time>2026-08-10T14:17:09.000Z</time>
      </trkpt>
      <trkpt lat="45.82022" lon="0.82592">
        <ele>202.4</ele>
        <time>2026-08-10T14:17:16.000Z</time>
      </trkpt>
      <trkpt lat="45.82022" lon="0.82592">
        <ele>202.4</ele>
        <time>2026-08-10T14:17:18.000Z</time>
      </trkpt>
      <trkpt lat="45.82021" lon="0.82578">
        <ele>202.4</ele>
        <time>2026-08-10T14:17:37.000Z</time>
      </trkpt>
      <trkpt lat="45.82019" lon="0.82575">
        <ele>202.3</ele>
        <time>2026-08-10T14:17:39.000Z</time>
      </trkpt>
      <trkpt lat="45.82017" lon="0.82573">
        <ele>202.2</ele>
        <time>2026-08-10T14:17:40.000Z</time>
      </trkpt>
      <trkpt lat="45.8201" lon="0.82569">
        <ele>201.5</ele>
        <time>2026-08-10T14:17:43.000Z</time>
      </trkpt>
      <trkpt lat="45.81991" lon="0.82558">
        <ele>199.6</ele>
        <time>2026-08-10T14:17:48.000Z</time>
      </trkpt>
      <trkpt lat="45.81979" lon="0.82545">
        <ele>199.2</ele>
        <time>2026-08-10T14:17:51.000Z</time>
      </trkpt>
      <trkpt lat="45.81969" lon="0.82535">
        <ele>198.6</ele>
        <time>2026-08-10T14:17:53.000Z</time>
      </trkpt>
      <trkpt lat="45.81958" lon="0.82524">
        <ele>197.5</ele>
        <time>2026-08-10T14:17:55.000Z</time>
      </trkpt>
      <trkpt lat="45.81948" lon="0.82511">
        <ele>196.7</ele>
        <time>2026-08-10T14:17:57.000Z</time>
      </trkpt>
      <trkpt lat="45.81942" lon="0.82504">
        <ele>196.2</ele>
        <time>2026-08-10T14:17:58.000Z</time>
      </trkpt>
      <trkpt lat="45.81919" lon="0.82477">
        <ele>195.1</ele>
        <time>2026-08-10T14:18:02.000Z</time>
      </trkpt>
      <trkpt lat="45.81914" lon="0.8247">
        <ele>194.6</ele>
        <time>2026-08-10T14:18:03.000Z</time>
      </trkpt>
      <trkpt lat="45.8191" lon="0.82462">
        <ele>194.2</ele>
        <time>2026-08-10T14:18:04.000Z</time>
      </trkpt>
      <trkpt lat="45.81909" lon="0.82455">
        <ele>194.1</ele>
        <time>2026-08-10T14:18:05.000Z</time>
      </trkpt>
      <trkpt lat="45.8191" lon="0.82449">
        <ele>194</ele>
        <time>2026-08-10T14:18:06.000Z</time>
      </trkpt>
      <trkpt lat="45.81912" lon="0.82442">
        <ele>194</ele>
        <time>2026-08-10T14:18:07.000Z</time>
      </trkpt>
      <trkpt lat="45.81914" lon="0.82437">
        <ele>194</ele>
        <time>2026-08-10T14:18:08.000Z</time>
      </trkpt>
      <trkpt lat="45.8192" lon="0.82421">
        <ele>195</ele>
        <time>2026-08-10T14:18:11.000Z</time>
      </trkpt>
      <trkpt lat="45.81922" lon="0.82411">
        <ele>195.3</ele>
        <time>2026-08-10T14:18:13.000Z</time>
      </trkpt>
      <trkpt lat="45.81929" lon="0.8239">
        <ele>195.8</ele>
        <time>2026-08-10T14:18:18.000Z</time>
      </trkpt>
      <trkpt lat="45.8193" lon="0.82387">
        <ele>195.8</ele>
        <time>2026-08-10T14:18:19.000Z</time>
      </trkpt>
      <trkpt lat="45.81935" lon="0.82363">
        <ele>194.2</ele>
        <time>2026-08-10T14:18:25.000Z</time>
      </trkpt>
      <trkpt lat="45.81945" lon="0.82342">
        <ele>193.7</ele>
        <time>2026-08-10T14:18:32.000Z</time>
      </trkpt>
      <trkpt lat="45.81952" lon="0.82325">
        <ele>194.1</ele>
        <time>2026-08-10T14:18:38.000Z</time>
      </trkpt>
      <trkpt lat="45.81953" lon="0.82322">
        <ele>194.1</ele>
        <time>2026-08-10T14:18:39.000Z</time>
      </trkpt>
      <trkpt lat="45.81962" lon="0.82298">
        <ele>193.5</ele>
        <time>2026-08-10T14:18:45.000Z</time>
      </trkpt>
      <trkpt lat="45.81966" lon="0.82284">
        <ele>192.8</ele>
        <time>2026-08-10T14:18:48.000Z</time>
      </trkpt>
      <trkpt lat="45.81969" lon="0.82269">
        <ele>192.3</ele>
        <time>2026-08-10T14:18:51.000Z</time>
      </trkpt>
      <trkpt lat="45.81976" lon="0.82241">
        <ele>192.6</ele>
        <time>2026-08-10T14:18:57.000Z</time>
      </trkpt>
      <trkpt lat="45.8198" lon="0.82228">
        <ele>192.7</ele>
        <time>2026-08-10T14:19:00.000Z</time>
      </trkpt>
      <trkpt lat="45.81982" lon="0.82219">
        <ele>192.6</ele>
        <time>2026-08-10T14:19:03.000Z</time>
      </trkpt>
      <trkpt lat="45.81992" lon="0.82193">
        <ele>192.3</ele>
        <time>2026-08-10T14:19:11.000Z</time>
      </trkpt>
      <trkpt lat="45.81993" lon="0.82187">
        <ele>192.1</ele>
        <time>2026-08-10T14:19:15.000Z</time>
      </trkpt>
      <trkpt lat="45.81997" lon="0.82178">
        <ele>191.7</ele>
        <time>2026-08-10T14:23:32.000Z</time>
      </trkpt>
      <trkpt lat="45.82001" lon="0.8217">
        <ele>191.4</ele>
        <time>2026-08-10T14:23:35.000Z</time>
      </trkpt>
      <trkpt lat="45.82008" lon="0.82153">
        <ele>192</ele>
        <time>2026-08-10T14:23:42.000Z</time>
      </trkpt>
      <trkpt lat="45.82018" lon="0.82128">
        <ele>191.7</ele>
        <time>2026-08-10T14:23:50.000Z</time>
      </trkpt>
      <trkpt lat="45.8203" lon="0.82096">
        <ele>191.3</ele>
        <time>2026-08-10T14:23:59.000Z</time>
      </trkpt>
      <trkpt lat="45.82033" lon="0.82072">
        <ele>191.1</ele>
        <time>2026-08-10T14:24:05.000Z</time>
      </trkpt>
      <trkpt lat="45.82029" lon="0.82042">
        <ele>190.2</ele>
        <time>2026-08-10T14:24:12.000Z</time>
      </trkpt>
      <trkpt lat="45.8202" lon="0.82005">
        <ele>190</ele>
        <time>2026-08-10T14:24:20.000Z</time>
      </trkpt>
      <trkpt lat="45.82013" lon="0.8197">
        <ele>190.1</ele>
        <time>2026-08-10T14:24:28.000Z</time>
      </trkpt>
      <trkpt lat="45.82005" lon="0.81944">
        <ele>190.4</ele>
        <time>2026-08-10T14:24:35.000Z</time>
      </trkpt>
      <trkpt lat="45.82006" lon="0.81942">
        <ele>190.6</ele>
        <time>2026-08-10T14:24:38.000Z</time>
      </trkpt>
      <trkpt lat="45.82002" lon="0.81932">
        <ele>190.8</ele>
        <time>2026-08-10T14:25:11.000Z</time>
      </trkpt>
      <trkpt lat="45.81996" lon="0.81917">
        <ele>190.9</ele>
        <time>2026-08-10T14:25:17.000Z</time>
      </trkpt>
      <trkpt lat="45.81988" lon="0.81896">
        <ele>191.7</ele>
        <time>2026-08-10T14:25:25.000Z</time>
      </trkpt>
      <trkpt lat="45.81987" lon="0.81894">
        <ele>191.8</ele>
        <time>2026-08-10T14:25:26.000Z</time>
      </trkpt>
      <trkpt lat="45.8198" lon="0.81882">
        <ele>192</ele>
        <time>2026-08-10T14:25:31.000Z</time>
      </trkpt>
      <trkpt lat="45.81973" lon="0.81869">
        <ele>191.9</ele>
        <time>2026-08-10T14:25:36.000Z</time>
      </trkpt>
      <trkpt lat="45.81973" lon="0.81863">
        <ele>192.1</ele>
        <time>2026-08-10T14:25:38.000Z</time>
      </trkpt>
      <trkpt lat="45.81966" lon="0.81846">
        <ele>192.4</ele>
        <time>2026-08-10T14:25:45.000Z</time>
      </trkpt>
      <trkpt lat="45.8196" lon="0.81834">
        <ele>192.3</ele>
        <time>2026-08-10T14:25:50.000Z</time>
      </trkpt>
      <trkpt lat="45.81958" lon="0.81827">
        <ele>192.2</ele>
        <time>2026-08-10T14:25:52.000Z</time>
      </trkpt>
      <trkpt lat="45.81957" lon="0.81824">
        <ele>192.2</ele>
        <time>2026-08-10T14:25:53.000Z</time>
      </trkpt>
      <trkpt lat="45.81958" lon="0.8181">
        <ele>192.8</ele>
        <time>2026-08-10T14:25:56.000Z</time>
      </trkpt>
      <trkpt lat="45.81967" lon="0.81778">
        <ele>194.1</ele>
        <time>2026-08-10T14:26:02.000Z</time>
      </trkpt>
      <trkpt lat="45.8198" lon="0.81755">
        <ele>193.6</ele>
        <time>2026-08-10T14:26:07.000Z</time>
      </trkpt>
      <trkpt lat="45.81987" lon="0.81746">
        <ele>193.1</ele>
        <time>2026-08-10T14:26:09.000Z</time>
      </trkpt>
      <trkpt lat="45.81991" lon="0.81742">
        <ele>192.7</ele>
        <time>2026-08-10T14:26:10.000Z</time>
      </trkpt>
      <trkpt lat="45.82003" lon="0.81731">
        <ele>191.9</ele>
        <time>2026-08-10T14:26:13.000Z</time>
      </trkpt>
      <trkpt lat="45.82017" lon="0.81723">
        <ele>190.8</ele>
        <time>2026-08-10T14:26:16.000Z</time>
      </trkpt>
      <trkpt lat="45.8202" lon="0.81721">
        <ele>190.6</ele>
        <time>2026-08-10T14:26:17.000Z</time>
      </trkpt>
      <trkpt lat="45.82038" lon="0.81713">
        <ele>192.1</ele>
        <time>2026-08-10T14:26:22.000Z</time>
      </trkpt>
      <trkpt lat="45.82054" lon="0.81708">
        <ele>193.7</ele>
        <time>2026-08-10T14:26:28.000Z</time>
      </trkpt>
      <trkpt lat="45.8206" lon="0.81708">
        <ele>194.4</ele>
        <time>2026-08-10T14:26:34.000Z</time>
      </trkpt>
      <trkpt lat="45.82061" lon="0.81707">
        <ele>194.4</ele>
        <time>2026-08-10T14:26:36.000Z</time>
      </trkpt>
      <trkpt lat="45.82066" lon="0.81708">
        <ele>195</ele>
        <time>2026-08-10T14:26:40.000Z</time>
      </trkpt>
      <trkpt lat="45.82066" lon="0.81708">
        <ele>195</ele>
        <time>2026-08-10T14:26:41.000Z</time>
      </trkpt>
      <trkpt lat="45.82068" lon="0.81705">
        <ele>194.6</ele>
        <time>2026-08-10T14:26:44.000Z</time>
      </trkpt>
      <trkpt lat="45.82068" lon="0.81705">
        <ele>194.5</ele>
        <time>2026-08-10T14:26:46.000Z</time>
      </trkpt>
      <trkpt lat="45.8207" lon="0.81705">
        <ele>194.7</ele>
        <time>2026-08-10T14:26:49.000Z</time>
      </trkpt>
      <trkpt lat="45.82072" lon="0.81705">
        <ele>194.9</ele>
        <time>2026-08-10T14:26:51.000Z</time>
      </trkpt>
      <trkpt lat="45.82072" lon="0.81705">
        <ele>194.9</ele>
        <time>2026-08-10T14:26:53.000Z</time>
      </trkpt>
      <trkpt lat="45.82076" lon="0.81659">
        <ele>189.8</ele>
        <time>2026-08-10T14:27:42.000Z</time>
      </trkpt>
      <trkpt lat="45.82077" lon="0.81654">
        <ele>189.9</ele>
        <time>2026-08-10T14:27:43.000Z</time>
      </trkpt>
      <trkpt lat="45.82085" lon="0.81639">
        <ele>190</ele>
        <time>2026-08-10T14:27:47.000Z</time>
      </trkpt>
      <trkpt lat="45.82098" lon="0.81634">
        <ele>190.3</ele>
        <time>2026-08-10T14:27:51.000Z</time>
      </trkpt>
      <trkpt lat="45.82103" lon="0.81632">
        <ele>190.3</ele>
        <time>2026-08-10T14:27:53.000Z</time>
      </trkpt>
      <trkpt lat="45.82117" lon="0.81626">
        <ele>190.4</ele>
        <time>2026-08-10T14:27:59.000Z</time>
      </trkpt>
      <trkpt lat="45.82127" lon="0.81623">
        <ele>190.2</ele>
        <time>2026-08-10T14:28:05.000Z</time>
      </trkpt>
      <trkpt lat="45.82133" lon="0.81623">
        <ele>189.7</ele>
        <time>2026-08-10T14:28:10.000Z</time>
      </trkpt>
      <trkpt lat="45.82133" lon="0.81623">
        <ele>189.7</ele>
        <time>2026-08-10T14:28:11.000Z</time>
      </trkpt>
      <trkpt lat="45.82153" lon="0.8161">
        <ele>189.7</ele>
        <time>2026-08-10T14:29:40.000Z</time>
      </trkpt>
      <trkpt lat="45.82159" lon="0.81606">
        <ele>189.9</ele>
        <time>2026-08-10T14:29:43.000Z</time>
      </trkpt>
      <trkpt lat="45.8217" lon="0.816">
        <ele>189.8</ele>
        <time>2026-08-10T14:29:49.000Z</time>
      </trkpt>
      <trkpt lat="45.82182" lon="0.81591">
        <ele>190.1</ele>
        <time>2026-08-10T14:29:55.000Z</time>
      </trkpt>
      <trkpt lat="45.82184" lon="0.81589">
        <ele>190.2</ele>
        <time>2026-08-10T14:29:56.000Z</time>
      </trkpt>
      <trkpt lat="45.82196" lon="0.81579">
        <ele>191</ele>
        <time>2026-08-10T14:30:03.000Z</time>
      </trkpt>
      <trkpt lat="45.82203" lon="0.81572">
        <ele>192</ele>
        <time>2026-08-10T14:30:07.000Z</time>
      </trkpt>
      <trkpt lat="45.82207" lon="0.81571">
        <ele>191.9</ele>
        <time>2026-08-10T14:30:09.000Z</time>
      </trkpt>
      <trkpt lat="45.82216" lon="0.81564">
        <ele>192.3</ele>
        <time>2026-08-10T14:30:14.000Z</time>
      </trkpt>
      <trkpt lat="45.82221" lon="0.81559">
        <ele>192.5</ele>
        <time>2026-08-10T14:30:17.000Z</time>
      </trkpt>
      <trkpt lat="45.82231" lon="0.81551">
        <ele>192.9</ele>
        <time>2026-08-10T14:30:24.000Z</time>
      </trkpt>
      <trkpt lat="45.82232" lon="0.81549">
        <ele>193.1</ele>
        <time>2026-08-10T14:30:25.000Z</time>
      </trkpt>
      <trkpt lat="45.82234" lon="0.81547">
        <ele>193.4</ele>
        <time>2026-08-10T14:30:26.000Z</time>
      </trkpt>
      <trkpt lat="45.82242" lon="0.81541">
        <ele>193.2</ele>
        <time>2026-08-10T14:30:31.000Z</time>
      </trkpt>
      <trkpt lat="45.82251" lon="0.81526">
        <ele>194</ele>
        <time>2026-08-10T14:30:38.000Z</time>
      </trkpt>
      <trkpt lat="45.82259" lon="0.81513">
        <ele>194.3</ele>
        <time>2026-08-10T14:30:44.000Z</time>
      </trkpt>
      <trkpt lat="45.82263" lon="0.81503">
        <ele>194.7</ele>
        <time>2026-08-10T14:30:47.000Z</time>
      </trkpt>
      <trkpt lat="45.82268" lon="0.81491">
        <ele>194.8</ele>
        <time>2026-08-10T14:30:51.000Z</time>
      </trkpt>
      <trkpt lat="45.82281" lon="0.81459">
        <ele>194.5</ele>
        <time>2026-08-10T14:30:58.000Z</time>
      </trkpt>
      <trkpt lat="45.82288" lon="0.81425">
        <ele>194.7</ele>
        <time>2026-08-10T14:31:04.000Z</time>
      </trkpt>
      <trkpt lat="45.82289" lon="0.814">
        <ele>194.9</ele>
        <time>2026-08-10T14:31:08.000Z</time>
      </trkpt>
      <trkpt lat="45.8229" lon="0.81389">
        <ele>194.8</ele>
        <time>2026-08-10T14:31:10.000Z</time>
      </trkpt>
      <trkpt lat="45.82291" lon="0.81382">
        <ele>194.5</ele>
        <time>2026-08-10T14:31:11.000Z</time>
      </trkpt>
      <trkpt lat="45.82291" lon="0.81374">
        <ele>194.4</ele>
        <time>2026-08-10T14:31:13.000Z</time>
      </trkpt>
      <trkpt lat="45.8229" lon="0.81373">
        <ele>194.4</ele>
        <time>2026-08-10T14:31:14.000Z</time>
      </trkpt>
      <trkpt lat="45.8229" lon="0.81372">
        <ele>194.5</ele>
        <time>2026-08-10T14:31:16.000Z</time>
      </trkpt>
      <trkpt lat="45.8229" lon="0.81366">
        <ele>194.4</ele>
        <time>2026-08-10T14:31:43.000Z</time>
      </trkpt>
      <trkpt lat="45.8229" lon="0.81363">
        <ele>194.3</ele>
        <time>2026-08-10T14:31:44.000Z</time>
      </trkpt>
      <trkpt lat="45.82291" lon="0.81348">
        <ele>193.9</ele>
        <time>2026-08-10T14:31:48.000Z</time>
      </trkpt>
      <trkpt lat="45.82293" lon="0.81326">
        <ele>193.1</ele>
        <time>2026-08-10T14:31:52.000Z</time>
      </trkpt>
      <trkpt lat="45.82296" lon="0.81275">
        <ele>191.1</ele>
        <time>2026-08-10T14:31:59.000Z</time>
      </trkpt>
      <trkpt lat="45.82298" lon="0.81244">
        <ele>191.1</ele>
        <time>2026-08-10T14:32:03.000Z</time>
      </trkpt>
      <trkpt lat="45.82301" lon="0.81209">
        <ele>190.6</ele>
        <time>2026-08-10T14:32:07.000Z</time>
      </trkpt>
      <trkpt lat="45.82307" lon="0.81155">
        <ele>191.2</ele>
        <time>2026-08-10T14:32:13.000Z</time>
      </trkpt>
      <trkpt lat="45.82309" lon="0.81147">
        <ele>191.1</ele>
        <time>2026-08-10T14:32:14.000Z</time>
      </trkpt>
      <trkpt lat="45.82322" lon="0.81108">
        <ele>189.2</ele>
        <time>2026-08-10T14:32:19.000Z</time>
      </trkpt>
      <trkpt lat="45.82325" lon="0.811">
        <ele>189</ele>
        <time>2026-08-10T14:32:20.000Z</time>
      </trkpt>
      <trkpt lat="45.82343" lon="0.81055">
        <ele>188</ele>
        <time>2026-08-10T14:32:26.000Z</time>
      </trkpt>
      <trkpt lat="45.82364" lon="0.81004">
        <ele>189.3</ele>
        <time>2026-08-10T14:32:34.000Z</time>
      </trkpt>
      <trkpt lat="45.82377" lon="0.80975">
        <ele>189.1</ele>
        <time>2026-08-10T14:32:40.000Z</time>
      </trkpt>
      <trkpt lat="45.82381" lon="0.80965">
        <ele>189.3</ele>
        <time>2026-08-10T14:32:42.000Z</time>
      </trkpt>
      <trkpt lat="45.8239" lon="0.80942">
        <ele>190</ele>
        <time>2026-08-10T14:32:47.000Z</time>
      </trkpt>
      <trkpt lat="45.82405" lon="0.80907">
        <ele>189.8</ele>
        <time>2026-08-10T14:32:55.000Z</time>
      </trkpt>
      <trkpt lat="45.82408" lon="0.80899">
        <ele>190.2</ele>
        <time>2026-08-10T14:32:57.000Z</time>
      </trkpt>
      <trkpt lat="45.82416" lon="0.80875">
        <ele>190.6</ele>
        <time>2026-08-10T14:33:03.000Z</time>
      </trkpt>
      <trkpt lat="45.82421" lon="0.80863">
        <ele>190.3</ele>
        <time>2026-08-10T14:33:06.000Z</time>
      </trkpt>
      <trkpt lat="45.8243" lon="0.80834">
        <ele>190.5</ele>
        <time>2026-08-10T14:33:14.000Z</time>
      </trkpt>
      <trkpt lat="45.8244" lon="0.80803">
        <ele>191.4</ele>
        <time>2026-08-10T14:33:23.000Z</time>
      </trkpt>
      <trkpt lat="45.8244" lon="0.80801">
        <ele>191.6</ele>
        <time>2026-08-10T14:33:24.000Z</time>
      </trkpt>
      <trkpt lat="45.82441" lon="0.80789">
        <ele>193.1</ele>
        <time>2026-08-10T14:33:28.000Z</time>
      </trkpt>
      <trkpt lat="45.8244" lon="0.80777">
        <ele>194.9</ele>
        <time>2026-08-10T14:33:33.000Z</time>
      </trkpt>
      <trkpt lat="45.8244" lon="0.80775">
        <ele>195.3</ele>
        <time>2026-08-10T14:33:34.000Z</time>
      </trkpt>
      <trkpt lat="45.82438" lon="0.80766">
        <ele>197.1</ele>
        <time>2026-08-10T14:33:39.000Z</time>
      </trkpt>
      <trkpt lat="45.82438" lon="0.80763">
        <ele>197.6</ele>
        <time>2026-08-10T14:33:40.000Z</time>
      </trkpt>
      <trkpt lat="45.82438" lon="0.80761">
        <ele>197.9</ele>
        <time>2026-08-10T14:33:41.000Z</time>
      </trkpt>
      <trkpt lat="45.82437" lon="0.80757">
        <ele>198.7</ele>
        <time>2026-08-10T14:33:43.000Z</time>
      </trkpt>
      <trkpt lat="45.82436" lon="0.80756">
        <ele>199.1</ele>
        <time>2026-08-10T14:33:44.000Z</time>
      </trkpt>
      <trkpt lat="45.82434" lon="0.80752">
        <ele>199.8</ele>
        <time>2026-08-10T14:33:46.000Z</time>
      </trkpt>
      <trkpt lat="45.82434" lon="0.80747">
        <ele>200.5</ele>
        <time>2026-08-10T14:33:49.000Z</time>
      </trkpt>
      <trkpt lat="45.82433" lon="0.80745">
        <ele>200.9</ele>
        <time>2026-08-10T14:33:50.000Z</time>
      </trkpt>
      <trkpt lat="45.82429" lon="0.80733">
        <ele>202.4</ele>
        <time>2026-08-10T14:33:57.000Z</time>
      </trkpt>
      <trkpt lat="45.82429" lon="0.8073">
        <ele>202.7</ele>
        <time>2026-08-10T14:33:59.000Z</time>
      </trkpt>
      <trkpt lat="45.82429" lon="0.80724">
        <ele>203.4</ele>
        <time>2026-08-10T14:34:02.000Z</time>
      </trkpt>
      <trkpt lat="45.82429" lon="0.8072">
        <ele>203.8</ele>
        <time>2026-08-10T14:34:04.000Z</time>
      </trkpt>
      <trkpt lat="45.82427" lon="0.80717">
        <ele>204.1</ele>
        <time>2026-08-10T14:34:07.000Z</time>
      </trkpt>
      <trkpt lat="45.82426" lon="0.80716">
        <ele>204.2</ele>
        <time>2026-08-10T14:34:08.000Z</time>
      </trkpt>
      <trkpt lat="45.82426" lon="0.80709">
        <ele>204.8</ele>
        <time>2026-08-10T14:34:12.000Z</time>
      </trkpt>
      <trkpt lat="45.82424" lon="0.80706">
        <ele>205.1</ele>
        <time>2026-08-10T14:34:14.000Z</time>
      </trkpt>
      <trkpt lat="45.82424" lon="0.80705">
        <ele>205.2</ele>
        <time>2026-08-10T14:34:15.000Z</time>
      </trkpt>
      <trkpt lat="45.82424" lon="0.80703">
        <ele>205.3</ele>
        <time>2026-08-10T14:34:16.000Z</time>
      </trkpt>
      <trkpt lat="45.82425" lon="0.80692">
        <ele>206.1</ele>
        <time>2026-08-10T14:34:21.000Z</time>
      </trkpt>
      <trkpt lat="45.82425" lon="0.8069">
        <ele>206.2</ele>
        <time>2026-08-10T14:34:22.000Z</time>
      </trkpt>
      <trkpt lat="45.82426" lon="0.80688">
        <ele>206.3</ele>
        <time>2026-08-10T14:34:23.000Z</time>
      </trkpt>
      <trkpt lat="45.82427" lon="0.80681">
        <ele>206.6</ele>
        <time>2026-08-10T14:34:26.000Z</time>
      </trkpt>
      <trkpt lat="45.82428" lon="0.80671">
        <ele>207.2</ele>
        <time>2026-08-10T14:34:33.000Z</time>
      </trkpt>
      <trkpt lat="45.82429" lon="0.8067">
        <ele>207.3</ele>
        <time>2026-08-10T14:34:34.000Z</time>
      </trkpt>
      <trkpt lat="45.8243" lon="0.80669">
        <ele>207.4</ele>
        <time>2026-08-10T14:34:35.000Z</time>
      </trkpt>
      <trkpt lat="45.8243" lon="0.80664">
        <ele>207.6</ele>
        <time>2026-08-10T14:34:38.000Z</time>
      </trkpt>
      <trkpt lat="45.82432" lon="0.80661">
        <ele>207.7</ele>
        <time>2026-08-10T14:34:40.000Z</time>
      </trkpt>
      <trkpt lat="45.82434" lon="0.80656">
        <ele>208</ele>
        <time>2026-08-10T14:34:44.000Z</time>
      </trkpt>
      <trkpt lat="45.82434" lon="0.80654">
        <ele>208.1</ele>
        <time>2026-08-10T14:34:45.000Z</time>
      </trkpt>
      <trkpt lat="45.82434" lon="0.80653">
        <ele>208.1</ele>
        <time>2026-08-10T14:34:46.000Z</time>
      </trkpt>
      <trkpt lat="45.82435" lon="0.80651">
        <ele>208.2</ele>
        <time>2026-08-10T14:34:49.000Z</time>
      </trkpt>
      <trkpt lat="45.82436" lon="0.80649">
        <ele>208.3</ele>
        <time>2026-08-10T14:34:51.000Z</time>
      </trkpt>
      <trkpt lat="45.82438" lon="0.80647">
        <ele>208.5</ele>
        <time>2026-08-10T14:34:54.000Z</time>
      </trkpt>
      <trkpt lat="45.82441" lon="0.80644">
        <ele>208.7</ele>
        <time>2026-08-10T14:34:57.000Z</time>
      </trkpt>
      <trkpt lat="45.82442" lon="0.80641">
        <ele>208.8</ele>
        <time>2026-08-10T14:34:59.000Z</time>
      </trkpt>
      <trkpt lat="45.82442" lon="0.80638">
        <ele>208.9</ele>
        <time>2026-08-10T14:35:01.000Z</time>
      </trkpt>
      <trkpt lat="45.82443" lon="0.80637">
        <ele>209</ele>
        <time>2026-08-10T14:35:02.000Z</time>
      </trkpt>
      <trkpt lat="45.82445" lon="0.80637">
        <ele>209.1</ele>
        <time>2026-08-10T14:35:04.000Z</time>
      </trkpt>
      <trkpt lat="45.82446" lon="0.80633">
        <ele>209.3</ele>
        <time>2026-08-10T14:35:06.000Z</time>
      </trkpt>
      <trkpt lat="45.82448" lon="0.8063">
        <ele>209.5</ele>
        <time>2026-08-10T14:35:09.000Z</time>
      </trkpt>
      <trkpt lat="45.82451" lon="0.8063">
        <ele>209.6</ele>
        <time>2026-08-10T14:35:11.000Z</time>
      </trkpt>
      <trkpt lat="45.82451" lon="0.80627">
        <ele>209.8</ele>
        <time>2026-08-10T14:35:14.000Z</time>
      </trkpt>
      <trkpt lat="45.82451" lon="0.80626">
        <ele>209.8</ele>
        <time>2026-08-10T14:35:15.000Z</time>
      </trkpt>
      <trkpt lat="45.82454" lon="0.80625">
        <ele>210</ele>
        <time>2026-08-10T14:35:18.000Z</time>
      </trkpt>
      <trkpt lat="45.82455" lon="0.80624">
        <ele>210.1</ele>
        <time>2026-08-10T14:35:19.000Z</time>
      </trkpt>
      <trkpt lat="45.82455" lon="0.80622">
        <ele>210.2</ele>
        <time>2026-08-10T14:35:20.000Z</time>
      </trkpt>
      <trkpt lat="45.82455" lon="0.80621">
        <ele>210.3</ele>
        <time>2026-08-10T14:35:21.000Z</time>
      </trkpt>
      <trkpt lat="45.82457" lon="0.80618">
        <ele>210.5</ele>
        <time>2026-08-10T14:35:24.000Z</time>
      </trkpt>
      <trkpt lat="45.82459" lon="0.80614">
        <ele>210.9</ele>
        <time>2026-08-10T14:35:28.000Z</time>
      </trkpt>
      <trkpt lat="45.82461" lon="0.80612">
        <ele>211.2</ele>
        <time>2026-08-10T14:35:32.000Z</time>
      </trkpt>
      <trkpt lat="45.82463" lon="0.80608">
        <ele>211.5</ele>
        <time>2026-08-10T14:35:37.000Z</time>
      </trkpt>
      <trkpt lat="45.82463" lon="0.80607">
        <ele>211.6</ele>
        <time>2026-08-10T14:35:38.000Z</time>
      </trkpt>
      <trkpt lat="45.82466" lon="0.80604">
        <ele>211.9</ele>
        <time>2026-08-10T14:35:42.000Z</time>
      </trkpt>
      <trkpt lat="45.82467" lon="0.80602">
        <ele>212</ele>
        <time>2026-08-10T14:35:43.000Z</time>
      </trkpt>
      <trkpt lat="45.82467" lon="0.80601">
        <ele>212.1</ele>
        <time>2026-08-10T14:35:44.000Z</time>
      </trkpt>
      <trkpt lat="45.82467" lon="0.80597">
        <ele>212.2</ele>
        <time>2026-08-10T14:35:46.000Z</time>
      </trkpt>
      <trkpt lat="45.82471" lon="0.80592">
        <ele>212.6</ele>
        <time>2026-08-10T14:35:50.000Z</time>
      </trkpt>
      <trkpt lat="45.82472" lon="0.80591">
        <ele>212.7</ele>
        <time>2026-08-10T14:35:51.000Z</time>
      </trkpt>
      <trkpt lat="45.82472" lon="0.80588">
        <ele>212.8</ele>
        <time>2026-08-10T14:35:53.000Z</time>
      </trkpt>
      <trkpt lat="45.82472" lon="0.80586">
        <ele>212.9</ele>
        <time>2026-08-10T14:35:54.000Z</time>
      </trkpt>
      <trkpt lat="45.82472" lon="0.80584">
        <ele>213</ele>
        <time>2026-08-10T14:35:55.000Z</time>
      </trkpt>
      <trkpt lat="45.82474" lon="0.8058">
        <ele>213.1</ele>
        <time>2026-08-10T14:35:58.000Z</time>
      </trkpt>
      <trkpt lat="45.82474" lon="0.80576">
        <ele>213.3</ele>
        <time>2026-08-10T14:36:01.000Z</time>
      </trkpt>
      <trkpt lat="45.82474" lon="0.80573">
        <ele>213.4</ele>
        <time>2026-08-10T14:36:03.000Z</time>
      </trkpt>
      <trkpt lat="45.82474" lon="0.80572">
        <ele>213.4</ele>
        <time>2026-08-10T14:36:04.000Z</time>
      </trkpt>
      <trkpt lat="45.82477" lon="0.80567">
        <ele>213.6</ele>
        <time>2026-08-10T14:36:08.000Z</time>
      </trkpt>
      <trkpt lat="45.8248" lon="0.80558">
        <ele>213.9</ele>
        <time>2026-08-10T14:36:15.000Z</time>
      </trkpt>
      <trkpt lat="45.82482" lon="0.80555">
        <ele>214.1</ele>
        <time>2026-08-10T14:36:17.000Z</time>
      </trkpt>
      <trkpt lat="45.82485" lon="0.80548">
        <ele>214.7</ele>
        <time>2026-08-10T14:36:22.000Z</time>
      </trkpt>
      <trkpt lat="45.82486" lon="0.80547">
        <ele>214.8</ele>
        <time>2026-08-10T14:36:23.000Z</time>
      </trkpt>
      <trkpt lat="45.82488" lon="0.80545">
        <ele>214.9</ele>
        <time>2026-08-10T14:36:25.000Z</time>
      </trkpt>
      <trkpt lat="45.8249" lon="0.80541">
        <ele>215.2</ele>
        <time>2026-08-10T14:36:28.000Z</time>
      </trkpt>
      <trkpt lat="45.82496" lon="0.80532">
        <ele>215.8</ele>
        <time>2026-08-10T14:36:36.000Z</time>
      </trkpt>
      <trkpt lat="45.82497" lon="0.8053">
        <ele>215.9</ele>
        <time>2026-08-10T14:36:38.000Z</time>
      </trkpt>
      <trkpt lat="45.82503" lon="0.80521">
        <ele>216.4</ele>
        <time>2026-08-10T14:36:45.000Z</time>
      </trkpt>
      <trkpt lat="45.82504" lon="0.80519">
        <ele>216.5</ele>
        <time>2026-08-10T14:36:47.000Z</time>
      </trkpt>
      <trkpt lat="45.82505" lon="0.80517">
        <ele>216.6</ele>
        <time>2026-08-10T14:36:49.000Z</time>
      </trkpt>
      <trkpt lat="45.82505" lon="0.80514">
        <ele>216.8</ele>
        <time>2026-08-10T14:36:51.000Z</time>
      </trkpt>
      <trkpt lat="45.82506" lon="0.80512">
        <ele>216.9</ele>
        <time>2026-08-10T14:36:52.000Z</time>
      </trkpt>
      <trkpt lat="45.82509" lon="0.80511">
        <ele>216.9</ele>
        <time>2026-08-10T14:36:55.000Z</time>
      </trkpt>
      <trkpt lat="45.82509" lon="0.80509">
        <ele>217</ele>
        <time>2026-08-10T14:36:56.000Z</time>
      </trkpt>
      <trkpt lat="45.8251" lon="0.80506">
        <ele>217.2</ele>
        <time>2026-08-10T14:36:58.000Z</time>
      </trkpt>
      <trkpt lat="45.82514" lon="0.805">
        <ele>217.5</ele>
        <time>2026-08-10T14:37:03.000Z</time>
      </trkpt>
      <trkpt lat="45.82514" lon="0.80499">
        <ele>217.6</ele>
        <time>2026-08-10T14:37:04.000Z</time>
      </trkpt>
      <trkpt lat="45.82517" lon="0.80492">
        <ele>218</ele>
        <time>2026-08-10T14:37:09.000Z</time>
      </trkpt>
      <trkpt lat="45.82518" lon="0.80487">
        <ele>218.3</ele>
        <time>2026-08-10T14:37:12.000Z</time>
      </trkpt>
      <trkpt lat="45.82522" lon="0.8048">
        <ele>218.7</ele>
        <time>2026-08-10T14:37:17.000Z</time>
      </trkpt>
      <trkpt lat="45.82524" lon="0.80475">
        <ele>219</ele>
        <time>2026-08-10T14:37:20.000Z</time>
      </trkpt>
      <trkpt lat="45.82528" lon="0.80462">
        <ele>219.7</ele>
        <time>2026-08-10T14:37:28.000Z</time>
      </trkpt>
      <trkpt lat="45.82528" lon="0.80461">
        <ele>219.8</ele>
        <time>2026-08-10T14:37:29.000Z</time>
      </trkpt>
      <trkpt lat="45.8253" lon="0.80458">
        <ele>219.9</ele>
        <time>2026-08-10T14:37:31.000Z</time>
      </trkpt>
      <trkpt lat="45.82531" lon="0.80454">
        <ele>220.2</ele>
        <time>2026-08-10T14:37:34.000Z</time>
      </trkpt>
      <trkpt lat="45.82535" lon="0.8044">
        <ele>221.1</ele>
        <time>2026-08-10T14:37:43.000Z</time>
      </trkpt>
      <trkpt lat="45.82537" lon="0.80438">
        <ele>221.1</ele>
        <time>2026-08-10T14:37:45.000Z</time>
      </trkpt>
      <trkpt lat="45.82537" lon="0.80434">
        <ele>221.4</ele>
        <time>2026-08-10T14:37:48.000Z</time>
      </trkpt>
      <trkpt lat="45.82537" lon="0.80432">
        <ele>221.5</ele>
        <time>2026-08-10T14:37:49.000Z</time>
      </trkpt>
      <trkpt lat="45.8254" lon="0.80427">
        <ele>221.9</ele>
        <time>2026-08-10T14:37:53.000Z</time>
      </trkpt>
      <trkpt lat="45.82539" lon="0.80422">
        <ele>222.2</ele>
        <time>2026-08-10T14:37:56.000Z</time>
      </trkpt>
      <trkpt lat="45.8254" lon="0.80417">
        <ele>222.5</ele>
        <time>2026-08-10T14:37:59.000Z</time>
      </trkpt>
      <trkpt lat="45.82541" lon="0.80416">
        <ele>222.6</ele>
        <time>2026-08-10T14:38:00.000Z</time>
      </trkpt>
      <trkpt lat="45.82541" lon="0.80412">
        <ele>222.8</ele>
        <time>2026-08-10T14:38:02.000Z</time>
      </trkpt>
      <trkpt lat="45.82541" lon="0.80399">
        <ele>223.8</ele>
        <time>2026-08-10T14:38:10.000Z</time>
      </trkpt>
      <trkpt lat="45.82541" lon="0.80397">
        <ele>223.9</ele>
        <time>2026-08-10T14:38:11.000Z</time>
      </trkpt>
      <trkpt lat="45.8254" lon="0.80394">
        <ele>224.2</ele>
        <time>2026-08-10T14:38:13.000Z</time>
      </trkpt>
      <trkpt lat="45.82541" lon="0.80391">
        <ele>224.4</ele>
        <time>2026-08-10T14:38:15.000Z</time>
      </trkpt>
      <trkpt lat="45.82541" lon="0.80388">
        <ele>224.6</ele>
        <time>2026-08-10T14:38:17.000Z</time>
      </trkpt>
      <trkpt lat="45.8254" lon="0.80387">
        <ele>224.7</ele>
        <time>2026-08-10T14:38:18.000Z</time>
      </trkpt>
      <trkpt lat="45.82539" lon="0.80383">
        <ele>224.9</ele>
        <time>2026-08-10T14:38:20.000Z</time>
      </trkpt>
      <trkpt lat="45.82538" lon="0.8038">
        <ele>225.1</ele>
        <time>2026-08-10T14:38:22.000Z</time>
      </trkpt>
      <trkpt lat="45.82539" lon="0.80379">
        <ele>225.1</ele>
        <time>2026-08-10T14:38:23.000Z</time>
      </trkpt>
      <trkpt lat="45.82538" lon="0.80377">
        <ele>225.2</ele>
        <time>2026-08-10T14:38:24.000Z</time>
      </trkpt>
      <trkpt lat="45.82538" lon="0.80374">
        <ele>225.4</ele>
        <time>2026-08-10T14:38:27.000Z</time>
      </trkpt>
      <trkpt lat="45.82535" lon="0.8037">
        <ele>225.6</ele>
        <time>2026-08-10T14:38:30.000Z</time>
      </trkpt>
      <trkpt lat="45.82534" lon="0.80369">
        <ele>225.7</ele>
        <time>2026-08-10T14:38:31.000Z</time>
      </trkpt>
      <trkpt lat="45.82531" lon="0.80364">
        <ele>225.9</ele>
        <time>2026-08-10T14:38:35.000Z</time>
      </trkpt>
      <trkpt lat="45.82529" lon="0.80362">
        <ele>226</ele>
        <time>2026-08-10T14:38:37.000Z</time>
      </trkpt>
      <trkpt lat="45.82527" lon="0.8036">
        <ele>226.1</ele>
        <time>2026-08-10T14:38:39.000Z</time>
      </trkpt>
      <trkpt lat="45.82524" lon="0.80357">
        <ele>226.3</ele>
        <time>2026-08-10T14:38:42.000Z</time>
      </trkpt>
      <trkpt lat="45.82518" lon="0.80348">
        <ele>226.8</ele>
        <time>2026-08-10T14:38:48.000Z</time>
      </trkpt>
      <trkpt lat="45.82516" lon="0.80346">
        <ele>227</ele>
        <time>2026-08-10T14:38:50.000Z</time>
      </trkpt>
      <trkpt lat="45.8251" lon="0.80338">
        <ele>227.5</ele>
        <time>2026-08-10T14:38:56.000Z</time>
      </trkpt>
      <trkpt lat="45.82508" lon="0.80337">
        <ele>227.6</ele>
        <time>2026-08-10T14:38:58.000Z</time>
      </trkpt>
      <trkpt lat="45.82505" lon="0.80335">
        <ele>227.7</ele>
        <time>2026-08-10T14:39:01.000Z</time>
      </trkpt>
      <trkpt lat="45.82504" lon="0.80333">
        <ele>227.9</ele>
        <time>2026-08-10T14:39:03.000Z</time>
      </trkpt>
      <trkpt lat="45.82502" lon="0.80329">
        <ele>228.1</ele>
        <time>2026-08-10T14:39:06.000Z</time>
      </trkpt>
      <trkpt lat="45.82501" lon="0.80328">
        <ele>228.2</ele>
        <time>2026-08-10T14:39:07.000Z</time>
      </trkpt>
      <trkpt lat="45.82499" lon="0.80325">
        <ele>228.3</ele>
        <time>2026-08-10T14:39:13.000Z</time>
      </trkpt>
      <trkpt lat="45.82494" lon="0.8032">
        <ele>228.7</ele>
        <time>2026-08-10T14:41:09.000Z</time>
      </trkpt>
      <trkpt lat="45.82492" lon="0.80317">
        <ele>228.9</ele>
        <time>2026-08-10T14:41:11.000Z</time>
      </trkpt>
      <trkpt lat="45.82482" lon="0.80306">
        <ele>229.6</ele>
        <time>2026-08-10T14:41:18.000Z</time>
      </trkpt>
      <trkpt lat="45.82474" lon="0.80297">
        <ele>230.5</ele>
        <time>2026-08-10T14:41:24.000Z</time>
      </trkpt>
      <trkpt lat="45.82468" lon="0.80289">
        <ele>231.3</ele>
        <time>2026-08-10T14:41:30.000Z</time>
      </trkpt>
      <trkpt lat="45.82463" lon="0.80284">
        <ele>231.9</ele>
        <time>2026-08-10T14:41:35.000Z</time>
      </trkpt>
      <trkpt lat="45.82462" lon="0.80283">
        <ele>232</ele>
        <time>2026-08-10T14:41:36.000Z</time>
      </trkpt>
      <trkpt lat="45.82452" lon="0.80272">
        <ele>232.9</ele>
        <time>2026-08-10T14:41:45.000Z</time>
      </trkpt>
      <trkpt lat="45.82451" lon="0.80269">
        <ele>233.1</ele>
        <time>2026-08-10T14:41:47.000Z</time>
      </trkpt>
      <trkpt lat="45.82446" lon="0.80265">
        <ele>233.4</ele>
        <time>2026-08-10T14:41:51.000Z</time>
      </trkpt>
      <trkpt lat="45.82445" lon="0.80264">
        <ele>233.5</ele>
        <time>2026-08-10T14:41:52.000Z</time>
      </trkpt>
      <trkpt lat="45.82436" lon="0.80255">
        <ele>234.1</ele>
        <time>2026-08-10T14:41:59.000Z</time>
      </trkpt>
      <trkpt lat="45.82427" lon="0.80245">
        <ele>235</ele>
        <time>2026-08-10T14:42:07.000Z</time>
      </trkpt>
      <trkpt lat="45.82421" lon="0.80242">
        <ele>235.4</ele>
        <time>2026-08-10T14:42:11.000Z</time>
      </trkpt>
      <trkpt lat="45.82417" lon="0.80238">
        <ele>235.8</ele>
        <time>2026-08-10T14:42:14.000Z</time>
      </trkpt>
      <trkpt lat="45.82405" lon="0.80229">
        <ele>236.6</ele>
        <time>2026-08-10T14:42:22.000Z</time>
      </trkpt>
      <trkpt lat="45.82402" lon="0.80227">
        <ele>236.7</ele>
        <time>2026-08-10T14:42:24.000Z</time>
      </trkpt>
      <trkpt lat="45.82393" lon="0.80223">
        <ele>237</ele>
        <time>2026-08-10T14:42:30.000Z</time>
      </trkpt>
      <trkpt lat="45.82384" lon="0.80215">
        <ele>237.9</ele>
        <time>2026-08-10T14:42:38.000Z</time>
      </trkpt>
      <trkpt lat="45.82381" lon="0.80213">
        <ele>238.2</ele>
        <time>2026-08-10T14:42:41.000Z</time>
      </trkpt>
      <trkpt lat="45.82377" lon="0.80211">
        <ele>238.5</ele>
        <time>2026-08-10T14:42:44.000Z</time>
      </trkpt>
      <trkpt lat="45.8237" lon="0.80208">
        <ele>238.9</ele>
        <time>2026-08-10T14:42:49.000Z</time>
      </trkpt>
      <trkpt lat="45.82367" lon="0.80203">
        <ele>239.3</ele>
        <time>2026-08-10T14:42:53.000Z</time>
      </trkpt>
      <trkpt lat="45.82367" lon="0.80203">
        <ele>239.3</ele>
        <time>2026-08-10T14:42:55.000Z</time>
      </trkpt>
      <trkpt lat="45.82367" lon="0.80203">
        <ele>239.3</ele>
        <time>2026-08-10T14:42:56.000Z</time>
      </trkpt>
      <trkpt lat="45.82361" lon="0.80201">
        <ele>239.5</ele>
        <time>2026-08-10T14:43:13.000Z</time>
      </trkpt>
      <trkpt lat="45.82356" lon="0.80198">
        <ele>239.8</ele>
        <time>2026-08-10T14:43:15.000Z</time>
      </trkpt>
      <trkpt lat="45.82345" lon="0.80191">
        <ele>240.4</ele>
        <time>2026-08-10T14:43:21.000Z</time>
      </trkpt>
      <trkpt lat="45.82339" lon="0.80187">
        <ele>240.8</ele>
        <time>2026-08-10T14:43:24.000Z</time>
      </trkpt>
      <trkpt lat="45.82334" lon="0.80186">
        <ele>240.9</ele>
        <time>2026-08-10T14:43:27.000Z</time>
      </trkpt>
      <trkpt lat="45.82324" lon="0.80182">
        <ele>241.7</ele>
        <time>2026-08-10T14:43:33.000Z</time>
      </trkpt>
      <trkpt lat="45.82314" lon="0.80176">
        <ele>242.5</ele>
        <time>2026-08-10T14:43:40.000Z</time>
      </trkpt>
      <trkpt lat="45.82311" lon="0.80175">
        <ele>242.6</ele>
        <time>2026-08-10T14:43:42.000Z</time>
      </trkpt>
      <trkpt lat="45.82295" lon="0.80167">
        <ele>243.3</ele>
        <time>2026-08-10T14:43:51.000Z</time>
      </trkpt>
      <trkpt lat="45.82289" lon="0.80166">
        <ele>243.7</ele>
        <time>2026-08-10T14:43:54.000Z</time>
      </trkpt>
      <trkpt lat="45.82275" lon="0.80161">
        <ele>244.8</ele>
        <time>2026-08-10T14:44:02.000Z</time>
      </trkpt>
      <trkpt lat="45.82268" lon="0.80159">
        <ele>245.3</ele>
        <time>2026-08-10T14:44:06.000Z</time>
      </trkpt>
      <trkpt lat="45.8226" lon="0.80156">
        <ele>245.9</ele>
        <time>2026-08-10T14:44:11.000Z</time>
      </trkpt>
      <trkpt lat="45.82251" lon="0.80154">
        <ele>246.4</ele>
        <time>2026-08-10T14:44:16.000Z</time>
      </trkpt>
      <trkpt lat="45.82246" lon="0.80152">
        <ele>246.8</ele>
        <time>2026-08-10T14:44:19.000Z</time>
      </trkpt>
      <trkpt lat="45.82236" lon="0.80149">
        <ele>247.3</ele>
        <time>2026-08-10T14:44:25.000Z</time>
      </trkpt>
      <trkpt lat="45.8223" lon="0.80146">
        <ele>247.7</ele>
        <time>2026-08-10T14:44:29.000Z</time>
      </trkpt>
      <trkpt lat="45.82218" lon="0.8014">
        <ele>248.1</ele>
        <time>2026-08-10T14:44:36.000Z</time>
      </trkpt>
      <trkpt lat="45.82215" lon="0.80137">
        <ele>248.3</ele>
        <time>2026-08-10T14:44:38.000Z</time>
      </trkpt>
      <trkpt lat="45.822" lon="0.80128">
        <ele>248.9</ele>
        <time>2026-08-10T14:44:47.000Z</time>
      </trkpt>
      <trkpt lat="45.82185" lon="0.80117">
        <ele>249.7</ele>
        <time>2026-08-10T14:44:56.000Z</time>
      </trkpt>
      <trkpt lat="45.82179" lon="0.80113">
        <ele>250.1</ele>
        <time>2026-08-10T14:45:00.000Z</time>
      </trkpt>
      <trkpt lat="45.8216" lon="0.80099">
        <ele>251</ele>
        <time>2026-08-10T14:45:11.000Z</time>
      </trkpt>
      <trkpt lat="45.82153" lon="0.80093">
        <ele>251</ele>
        <time>2026-08-10T14:45:15.000Z</time>
      </trkpt>
      <trkpt lat="45.82146" lon="0.80087">
        <ele>251</ele>
        <time>2026-08-10T14:45:19.000Z</time>
      </trkpt>
      <trkpt lat="45.82128" lon="0.80069">
        <ele>250.8</ele>
        <time>2026-08-10T14:45:28.000Z</time>
      </trkpt>
      <trkpt lat="45.82107" lon="0.80051">
        <ele>250</ele>
        <time>2026-08-10T14:45:35.000Z</time>
      </trkpt>
      <trkpt lat="45.82081" lon="0.80026">
        <ele>248.9</ele>
        <time>2026-08-10T14:45:42.000Z</time>
      </trkpt>
      <trkpt lat="45.82052" lon="0.79999">
        <ele>247.8</ele>
        <time>2026-08-10T14:45:48.000Z</time>
      </trkpt>
      <trkpt lat="45.82018" lon="0.79965">
        <ele>245.3</ele>
        <time>2026-08-10T14:45:54.000Z</time>
      </trkpt>
      <trkpt lat="45.81994" lon="0.79928">
        <ele>244.9</ele>
        <time>2026-08-10T14:45:59.000Z</time>
      </trkpt>
      <trkpt lat="45.81978" lon="0.79896">
        <ele>246.4</ele>
        <time>2026-08-10T14:46:04.000Z</time>
      </trkpt>
      <trkpt lat="45.81966" lon="0.79868">
        <ele>247.5</ele>
        <time>2026-08-10T14:46:10.000Z</time>
      </trkpt>
      <trkpt lat="45.81952" lon="0.79839">
        <ele>247.7</ele>
        <time>2026-08-10T14:46:18.000Z</time>
      </trkpt>
      <trkpt lat="45.81938" lon="0.79809">
        <ele>247.6</ele>
        <time>2026-08-10T14:46:27.000Z</time>
      </trkpt>
      <trkpt lat="45.81928" lon="0.79775">
        <ele>247.2</ele>
        <time>2026-08-10T14:46:35.000Z</time>
      </trkpt>
      <trkpt lat="45.81926" lon="0.79743">
        <ele>247.3</ele>
        <time>2026-08-10T14:46:41.000Z</time>
      </trkpt>
      <trkpt lat="45.81923" lon="0.79693">
        <ele>246.3</ele>
        <time>2026-08-10T14:46:49.000Z</time>
      </trkpt>
      <trkpt lat="45.81922" lon="0.79661">
        <ele>246</ele>
        <time>2026-08-10T14:46:54.000Z</time>
      </trkpt>
      <trkpt lat="45.8192" lon="0.79635">
        <ele>245.6</ele>
        <time>2026-08-10T14:46:58.000Z</time>
      </trkpt>
      <trkpt lat="45.8192" lon="0.79598">
        <ele>245.8</ele>
        <time>2026-08-10T14:47:04.000Z</time>
      </trkpt>
      <trkpt lat="45.81919" lon="0.79569">
        <ele>246.3</ele>
        <time>2026-08-10T14:47:09.000Z</time>
      </trkpt>
      <trkpt lat="45.8192" lon="0.79526">
        <ele>246.6</ele>
        <time>2026-08-10T14:47:17.000Z</time>
      </trkpt>
      <trkpt lat="45.81923" lon="0.79479">
        <ele>246.5</ele>
        <time>2026-08-10T14:47:26.000Z</time>
      </trkpt>
      <trkpt lat="45.81928" lon="0.79429">
        <ele>245.6</ele>
        <time>2026-08-10T14:47:35.000Z</time>
      </trkpt>
      <trkpt lat="45.81933" lon="0.79379">
        <ele>245.6</ele>
        <time>2026-08-10T14:47:43.000Z</time>
      </trkpt>
      <trkpt lat="45.81935" lon="0.79361">
        <ele>245.7</ele>
        <time>2026-08-10T14:47:46.000Z</time>
      </trkpt>
      <trkpt lat="45.81938" lon="0.79319">
        <ele>245.5</ele>
        <time>2026-08-10T14:47:53.000Z</time>
      </trkpt>
      <trkpt lat="45.81937" lon="0.79277">
        <ele>246.5</ele>
        <time>2026-08-10T14:48:01.000Z</time>
      </trkpt>
      <trkpt lat="45.81941" lon="0.79241">
        <ele>246.6</ele>
        <time>2026-08-10T14:48:09.000Z</time>
      </trkpt>
      <trkpt lat="45.8195" lon="0.79215">
        <ele>246.8</ele>
        <time>2026-08-10T14:48:16.000Z</time>
      </trkpt>
      <trkpt lat="45.81961" lon="0.7919">
        <ele>247</ele>
        <time>2026-08-10T14:48:22.000Z</time>
      </trkpt>
      <trkpt lat="45.81973" lon="0.79145">
        <ele>247.7</ele>
        <time>2026-08-10T14:48:32.000Z</time>
      </trkpt>
      <trkpt lat="45.81982" lon="0.79113">
        <ele>247.9</ele>
        <time>2026-08-10T14:48:39.000Z</time>
      </trkpt>
      <trkpt lat="45.81994" lon="0.79073">
        <ele>247.8</ele>
        <time>2026-08-10T14:48:48.000Z</time>
      </trkpt>
      <trkpt lat="45.82" lon="0.79053">
        <ele>248</ele>
        <time>2026-08-10T14:48:52.000Z</time>
      </trkpt>
      <trkpt lat="45.82005" lon="0.79033">
        <ele>247.6</ele>
        <time>2026-08-10T14:48:56.000Z</time>
      </trkpt>
      <trkpt lat="45.82009" lon="0.79007">
        <ele>248.1</ele>
        <time>2026-08-10T14:49:02.000Z</time>
      </trkpt>
      <trkpt lat="45.8201" lon="0.78999">
        <ele>248.3</ele>
        <time>2026-08-10T14:49:04.000Z</time>
      </trkpt>
      <trkpt lat="45.82011" lon="0.78978">
        <ele>248.5</ele>
        <time>2026-08-10T14:49:08.000Z</time>
      </trkpt>
      <trkpt lat="45.82011" lon="0.78945">
        <ele>249.2</ele>
        <time>2026-08-10T14:49:15.000Z</time>
      </trkpt>
      <trkpt lat="45.82012" lon="0.78923">
        <ele>249.5</ele>
        <time>2026-08-10T14:49:20.000Z</time>
      </trkpt>
      <trkpt lat="45.82011" lon="0.78914">
        <ele>249.7</ele>
        <time>2026-08-10T14:49:22.000Z</time>
      </trkpt>
      <trkpt lat="45.82009" lon="0.78866">
        <ele>250.4</ele>
        <time>2026-08-10T14:49:33.000Z</time>
      </trkpt>
      <trkpt lat="45.82011" lon="0.78839">
        <ele>250.2</ele>
        <time>2026-08-10T14:49:39.000Z</time>
      </trkpt>
      <trkpt lat="45.82011" lon="0.78829">
        <ele>250.3</ele>
        <time>2026-08-10T14:49:41.000Z</time>
      </trkpt>
      <trkpt lat="45.82014" lon="0.78793">
        <ele>250.5</ele>
        <time>2026-08-10T14:49:48.000Z</time>
      </trkpt>
      <trkpt lat="45.8202" lon="0.78737">
        <ele>250.6</ele>
        <time>2026-08-10T14:49:58.000Z</time>
      </trkpt>
      <trkpt lat="45.82024" lon="0.78674">
        <ele>250.2</ele>
        <time>2026-08-10T14:50:09.000Z</time>
      </trkpt>
      <trkpt lat="45.82026" lon="0.78622">
        <ele>249.1</ele>
        <time>2026-08-10T14:50:17.000Z</time>
      </trkpt>
      <trkpt lat="45.82026" lon="0.78601">
        <ele>248.7</ele>
        <time>2026-08-10T14:50:20.000Z</time>
      </trkpt>
      <trkpt lat="45.82025" lon="0.78557">
        <ele>247.2</ele>
        <time>2026-08-10T14:50:26.000Z</time>
      </trkpt>
      <trkpt lat="45.82025" lon="0.78498">
        <ele>246.2</ele>
        <time>2026-08-10T14:50:33.000Z</time>
      </trkpt>
      <trkpt lat="45.82025" lon="0.78481">
        <ele>246.2</ele>
        <time>2026-08-10T14:50:35.000Z</time>
      </trkpt>
      <trkpt lat="45.82024" lon="0.78414">
        <ele>246.1</ele>
        <time>2026-08-10T14:50:43.000Z</time>
      </trkpt>
      <trkpt lat="45.82024" lon="0.7839">
        <ele>246.1</ele>
        <time>2026-08-10T14:50:46.000Z</time>
      </trkpt>
      <trkpt lat="45.82024" lon="0.7836">
        <ele>246.1</ele>
        <time>2026-08-10T14:50:50.000Z</time>
      </trkpt>
      <trkpt lat="45.82023" lon="0.78316">
        <ele>245.2</ele>
        <time>2026-08-10T14:50:56.000Z</time>
      </trkpt>
      <trkpt lat="45.82024" lon="0.78309">
        <ele>245.2</ele>
        <time>2026-08-10T14:50:57.000Z</time>
      </trkpt>
      <trkpt lat="45.82026" lon="0.78279">
        <ele>244.1</ele>
        <time>2026-08-10T14:51:01.000Z</time>
      </trkpt>
      <trkpt lat="45.82032" lon="0.78248">
        <ele>242.9</ele>
        <time>2026-08-10T14:51:05.000Z</time>
      </trkpt>
      <trkpt lat="45.82033" lon="0.78241">
        <ele>242.8</ele>
        <time>2026-08-10T14:51:06.000Z</time>
      </trkpt>
      <trkpt lat="45.82044" lon="0.78197">
        <ele>241.9</ele>
        <time>2026-08-10T14:51:12.000Z</time>
      </trkpt>
      <trkpt lat="45.8205" lon="0.78167">
        <ele>241.2</ele>
        <time>2026-08-10T14:51:16.000Z</time>
      </trkpt>
      <trkpt lat="45.82052" lon="0.7816">
        <ele>240.9</ele>
        <time>2026-08-10T14:51:17.000Z</time>
      </trkpt>
      <trkpt lat="45.82054" lon="0.78152">
        <ele>240.6</ele>
        <time>2026-08-10T14:51:18.000Z</time>
      </trkpt>
      <trkpt lat="45.82061" lon="0.78123">
        <ele>239.4</ele>
        <time>2026-08-10T14:51:22.000Z</time>
      </trkpt>
      <trkpt lat="45.82065" lon="0.78107">
        <ele>239</ele>
        <time>2026-08-10T14:51:24.000Z</time>
      </trkpt>
      <trkpt lat="45.82072" lon="0.78075">
        <ele>238.7</ele>
        <time>2026-08-10T14:51:28.000Z</time>
      </trkpt>
      <trkpt lat="45.82074" lon="0.78068">
        <ele>238.4</ele>
        <time>2026-08-10T14:51:29.000Z</time>
      </trkpt>
      <trkpt lat="45.8208" lon="0.78044">
        <ele>237.6</ele>
        <time>2026-08-10T14:51:32.000Z</time>
      </trkpt>
      <trkpt lat="45.82086" lon="0.78019">
        <ele>236.8</ele>
        <time>2026-08-10T14:51:35.000Z</time>
      </trkpt>
      <trkpt lat="45.82087" lon="0.78003">
        <ele>236.3</ele>
        <time>2026-08-10T14:51:37.000Z</time>
      </trkpt>
      <trkpt lat="45.82087" lon="0.77988">
        <ele>236.1</ele>
        <time>2026-08-10T14:51:39.000Z</time>
      </trkpt>
      <trkpt lat="45.82086" lon="0.7798">
        <ele>236.1</ele>
        <time>2026-08-10T14:51:40.000Z</time>
      </trkpt>
      <trkpt lat="45.82084" lon="0.77972">
        <ele>236</ele>
        <time>2026-08-10T14:51:41.000Z</time>
      </trkpt>
      <trkpt lat="45.82078" lon="0.77955">
        <ele>235.5</ele>
        <time>2026-08-10T14:51:43.000Z</time>
      </trkpt>
      <trkpt lat="45.82073" lon="0.77946">
        <ele>234.9</ele>
        <time>2026-08-10T14:51:44.000Z</time>
      </trkpt>
      <trkpt lat="45.82062" lon="0.77931">
        <ele>233.3</ele>
        <time>2026-08-10T14:51:46.000Z</time>
      </trkpt>
      <trkpt lat="45.82049" lon="0.77916">
        <ele>231.3</ele>
        <time>2026-08-10T14:51:48.000Z</time>
      </trkpt>
      <trkpt lat="45.82036" lon="0.77904">
        <ele>229.6</ele>
        <time>2026-08-10T14:51:50.000Z</time>
      </trkpt>
      <trkpt lat="45.82018" lon="0.77883">
        <ele>227.1</ele>
        <time>2026-08-10T14:51:53.000Z</time>
      </trkpt>
      <trkpt lat="45.82011" lon="0.77877">
        <ele>226.4</ele>
        <time>2026-08-10T14:51:54.000Z</time>
      </trkpt>
      <trkpt lat="45.81993" lon="0.77859">
        <ele>224.1</ele>
        <time>2026-08-10T14:51:57.000Z</time>
      </trkpt>
      <trkpt lat="45.8198" lon="0.77847">
        <ele>223.3</ele>
        <time>2026-08-10T14:51:59.000Z</time>
      </trkpt>
      <trkpt lat="45.81964" lon="0.77827">
        <ele>221</ele>
        <time>2026-08-10T14:52:02.000Z</time>
      </trkpt>
      <trkpt lat="45.8195" lon="0.77803">
        <ele>219.5</ele>
        <time>2026-08-10T14:52:05.000Z</time>
      </trkpt>
      <trkpt lat="45.81944" lon="0.77784">
        <ele>218.5</ele>
        <time>2026-08-10T14:52:07.000Z</time>
      </trkpt>
      <trkpt lat="45.81942" lon="0.77774">
        <ele>218.3</ele>
        <time>2026-08-10T14:52:08.000Z</time>
      </trkpt>
      <trkpt lat="45.8194" lon="0.77764">
        <ele>217.8</ele>
        <time>2026-08-10T14:52:09.000Z</time>
      </trkpt>
      <trkpt lat="45.8194" lon="0.77753">
        <ele>217.7</ele>
        <time>2026-08-10T14:52:10.000Z</time>
      </trkpt>
      <trkpt lat="45.81941" lon="0.77742">
        <ele>217.1</ele>
        <time>2026-08-10T14:52:11.000Z</time>
      </trkpt>
      <trkpt lat="45.81942" lon="0.77731">
        <ele>216.4</ele>
        <time>2026-08-10T14:52:12.000Z</time>
      </trkpt>
      <trkpt lat="45.81945" lon="0.77721">
        <ele>216</ele>
        <time>2026-08-10T14:52:13.000Z</time>
      </trkpt>
      <trkpt lat="45.81949" lon="0.77711">
        <ele>215.4</ele>
        <time>2026-08-10T14:52:14.000Z</time>
      </trkpt>
      <trkpt lat="45.81953" lon="0.77702">
        <ele>215</ele>
        <time>2026-08-10T14:52:15.000Z</time>
      </trkpt>
      <trkpt lat="45.81964" lon="0.77685">
        <ele>214.1</ele>
        <time>2026-08-10T14:52:17.000Z</time>
      </trkpt>
      <trkpt lat="45.81977" lon="0.7767">
        <ele>213</ele>
        <time>2026-08-10T14:52:19.000Z</time>
      </trkpt>
      <trkpt lat="45.82002" lon="0.77641">
        <ele>211.3</ele>
        <time>2026-08-10T14:52:23.000Z</time>
      </trkpt>
      <trkpt lat="45.82008" lon="0.77633">
        <ele>210.9</ele>
        <time>2026-08-10T14:52:24.000Z</time>
      </trkpt>
      <trkpt lat="45.82013" lon="0.77624">
        <ele>210.5</ele>
        <time>2026-08-10T14:52:25.000Z</time>
      </trkpt>
      <trkpt lat="45.82017" lon="0.77614">
        <ele>210</ele>
        <time>2026-08-10T14:52:26.000Z</time>
      </trkpt>
      <trkpt lat="45.8202" lon="0.77603">
        <ele>209.4</ele>
        <time>2026-08-10T14:52:27.000Z</time>
      </trkpt>
      <trkpt lat="45.82022" lon="0.7758">
        <ele>208</ele>
        <time>2026-08-10T14:52:29.000Z</time>
      </trkpt>
      <trkpt lat="45.82025" lon="0.77558">
        <ele>206.6</ele>
        <time>2026-08-10T14:52:31.000Z</time>
      </trkpt>
      <trkpt lat="45.8203" lon="0.77538">
        <ele>204.7</ele>
        <time>2026-08-10T14:52:33.000Z</time>
      </trkpt>
      <trkpt lat="45.82033" lon="0.77528">
        <ele>203.8</ele>
        <time>2026-08-10T14:52:34.000Z</time>
      </trkpt>
      <trkpt lat="45.82036" lon="0.77519">
        <ele>203.1</ele>
        <time>2026-08-10T14:52:35.000Z</time>
      </trkpt>
      <trkpt lat="45.82048" lon="0.77492">
        <ele>201.6</ele>
        <time>2026-08-10T14:52:38.000Z</time>
      </trkpt>
      <trkpt lat="45.82058" lon="0.77473">
        <ele>200.5</ele>
        <time>2026-08-10T14:52:40.000Z</time>
      </trkpt>
      <trkpt lat="45.82063" lon="0.77464">
        <ele>199.9</ele>
        <time>2026-08-10T14:52:41.000Z</time>
      </trkpt>
      <trkpt lat="45.82073" lon="0.77446">
        <ele>198.7</ele>
        <time>2026-08-10T14:52:43.000Z</time>
      </trkpt>
      <trkpt lat="45.82082" lon="0.77428">
        <ele>197.5</ele>
        <time>2026-08-10T14:52:45.000Z</time>
      </trkpt>
      <trkpt lat="45.82096" lon="0.77402">
        <ele>196.5</ele>
        <time>2026-08-10T14:52:48.000Z</time>
      </trkpt>
      <trkpt lat="45.82104" lon="0.77383">
        <ele>195.6</ele>
        <time>2026-08-10T14:52:50.000Z</time>
      </trkpt>
      <trkpt lat="45.82107" lon="0.77373">
        <ele>194.9</ele>
        <time>2026-08-10T14:52:51.000Z</time>
      </trkpt>
      <trkpt lat="45.82112" lon="0.77351">
        <ele>193.3</ele>
        <time>2026-08-10T14:52:53.000Z</time>
      </trkpt>
      <trkpt lat="45.82113" lon="0.77339">
        <ele>192.6</ele>
        <time>2026-08-10T14:52:54.000Z</time>
      </trkpt>
      <trkpt lat="45.82113" lon="0.77327">
        <ele>191.9</ele>
        <time>2026-08-10T14:52:55.000Z</time>
      </trkpt>
      <trkpt lat="45.82112" lon="0.77315">
        <ele>191.4</ele>
        <time>2026-08-10T14:52:56.000Z</time>
      </trkpt>
      <trkpt lat="45.82113" lon="0.77288">
        <ele>192.2</ele>
        <time>2026-08-10T14:52:58.000Z</time>
      </trkpt>
      <trkpt lat="45.82114" lon="0.77276">
        <ele>192.9</ele>
        <time>2026-08-10T14:52:59.000Z</time>
      </trkpt>
      <trkpt lat="45.82119" lon="0.77243">
        <ele>193.5</ele>
        <time>2026-08-10T14:53:02.000Z</time>
      </trkpt>
      <trkpt lat="45.82127" lon="0.77198">
        <ele>195.6</ele>
        <time>2026-08-10T14:53:07.000Z</time>
      </trkpt>
      <trkpt lat="45.8213" lon="0.77176">
        <ele>196.3</ele>
        <time>2026-08-10T14:53:10.000Z</time>
      </trkpt>
      <trkpt lat="45.8213" lon="0.77163">
        <ele>196.8</ele>
        <time>2026-08-10T14:53:12.000Z</time>
      </trkpt>
      <trkpt lat="45.8213" lon="0.77121">
        <ele>198.6</ele>
        <time>2026-08-10T14:53:18.000Z</time>
      </trkpt>
      <trkpt lat="45.82131" lon="0.77115">
        <ele>198.8</ele>
        <time>2026-08-10T14:53:19.000Z</time>
      </trkpt>
      <trkpt lat="45.82131" lon="0.77078">
        <ele>199</ele>
        <time>2026-08-10T14:53:25.000Z</time>
      </trkpt>
      <trkpt lat="45.82132" lon="0.77073">
        <ele>199</ele>
        <time>2026-08-10T14:53:26.000Z</time>
      </trkpt>
      <trkpt lat="45.82133" lon="0.77069">
        <ele>199</ele>
        <time>2026-08-10T14:53:27.000Z</time>
      </trkpt>
      <trkpt lat="45.82137" lon="0.77051">
        <ele>199.3</ele>
        <time>2026-08-10T14:53:31.000Z</time>
      </trkpt>
      <trkpt lat="45.82147" lon="0.77024">
        <ele>199.7</ele>
        <time>2026-08-10T14:53:38.000Z</time>
      </trkpt>
      <trkpt lat="45.82159" lon="0.77005">
        <ele>199.9</ele>
        <time>2026-08-10T14:53:44.000Z</time>
      </trkpt>
      <trkpt lat="45.82168" lon="0.7699">
        <ele>200.4</ele>
        <time>2026-08-10T14:53:50.000Z</time>
      </trkpt>
      <trkpt lat="45.82171" lon="0.76985">
        <ele>200.5</ele>
        <time>2026-08-10T14:53:52.000Z</time>
      </trkpt>
      <trkpt lat="45.82179" lon="0.7697">
        <ele>201.1</ele>
        <time>2026-08-10T14:53:59.000Z</time>
      </trkpt>
      <trkpt lat="45.8218" lon="0.76968">
        <ele>201.1</ele>
        <time>2026-08-10T14:54:00.000Z</time>
      </trkpt>
      <trkpt lat="45.82181" lon="0.76966">
        <ele>201.2</ele>
        <time>2026-08-10T14:54:01.000Z</time>
      </trkpt>
      <trkpt lat="45.82183" lon="0.76961">
        <ele>201.5</ele>
        <time>2026-08-10T14:54:04.000Z</time>
      </trkpt>
      <trkpt lat="45.82186" lon="0.76954">
        <ele>202</ele>
        <time>2026-08-10T14:54:08.000Z</time>
      </trkpt>
      <trkpt lat="45.8219" lon="0.76946">
        <ele>202.6</ele>
        <time>2026-08-10T14:54:12.000Z</time>
      </trkpt>
      <trkpt lat="45.82194" lon="0.76931">
        <ele>203.5</ele>
        <time>2026-08-10T14:54:18.000Z</time>
      </trkpt>
      <trkpt lat="45.82199" lon="0.76922">
        <ele>203.7</ele>
        <time>2026-08-10T14:54:23.000Z</time>
      </trkpt>
      <trkpt lat="45.82202" lon="0.76909">
        <ele>204.1</ele>
        <time>2026-08-10T14:54:28.000Z</time>
      </trkpt>
      <trkpt lat="45.82203" lon="0.76908">
        <ele>204.1</ele>
        <time>2026-08-10T14:54:29.000Z</time>
      </trkpt>
      <trkpt lat="45.82208" lon="0.76895">
        <ele>204.6</ele>
        <time>2026-08-10T14:54:35.000Z</time>
      </trkpt>
      <trkpt lat="45.82213" lon="0.76884">
        <ele>205.3</ele>
        <time>2026-08-10T14:54:41.000Z</time>
      </trkpt>
      <trkpt lat="45.82214" lon="0.76883">
        <ele>205.4</ele>
        <time>2026-08-10T14:54:42.000Z</time>
      </trkpt>
      <trkpt lat="45.82218" lon="0.76876">
        <ele>205.9</ele>
        <time>2026-08-10T14:54:46.000Z</time>
      </trkpt>
      <trkpt lat="45.82224" lon="0.76866">
        <ele>206.6</ele>
        <time>2026-08-10T14:54:52.000Z</time>
      </trkpt>
      <trkpt lat="45.82224" lon="0.76864">
        <ele>206.7</ele>
        <time>2026-08-10T14:54:53.000Z</time>
      </trkpt>
      <trkpt lat="45.82227" lon="0.76855">
        <ele>207.3</ele>
        <time>2026-08-10T14:54:58.000Z</time>
      </trkpt>
      <trkpt lat="45.82228" lon="0.76849">
        <ele>207.7</ele>
        <time>2026-08-10T14:55:01.000Z</time>
      </trkpt>
      <trkpt lat="45.82232" lon="0.76844">
        <ele>207.9</ele>
        <time>2026-08-10T14:55:04.000Z</time>
      </trkpt>
      <trkpt lat="45.82234" lon="0.76834">
        <ele>208.5</ele>
        <time>2026-08-10T14:55:08.000Z</time>
      </trkpt>
      <trkpt lat="45.82237" lon="0.76821">
        <ele>208.9</ele>
        <time>2026-08-10T14:55:14.000Z</time>
      </trkpt>
      <trkpt lat="45.82238" lon="0.76805">
        <ele>209.4</ele>
        <time>2026-08-10T14:55:21.000Z</time>
      </trkpt>
      <trkpt lat="45.82237" lon="0.76787">
        <ele>210.1</ele>
        <time>2026-08-10T14:55:28.000Z</time>
      </trkpt>
      <trkpt lat="45.82236" lon="0.76785">
        <ele>210.2</ele>
        <time>2026-08-10T14:55:29.000Z</time>
      </trkpt>
      <trkpt lat="45.8223" lon="0.76767">
        <ele>211.1</ele>
        <time>2026-08-10T14:55:36.000Z</time>
      </trkpt>
      <trkpt lat="45.8223" lon="0.76766">
        <ele>211.2</ele>
        <time>2026-08-10T14:55:37.000Z</time>
      </trkpt>
      <trkpt lat="45.82221" lon="0.76754">
        <ele>211.9</ele>
        <time>2026-08-10T14:55:44.000Z</time>
      </trkpt>
      <trkpt lat="45.8222" lon="0.76752">
        <ele>212.1</ele>
        <time>2026-08-10T14:55:45.000Z</time>
      </trkpt>
      <trkpt lat="45.82207" lon="0.76739">
        <ele>213.5</ele>
        <time>2026-08-10T14:55:55.000Z</time>
      </trkpt>
      <trkpt lat="45.82204" lon="0.76736">
        <ele>213.6</ele>
        <time>2026-08-10T14:55:57.000Z</time>
      </trkpt>
      <trkpt lat="45.82197" lon="0.76728">
        <ele>214</ele>
        <time>2026-08-10T14:56:04.000Z</time>
      </trkpt>
      <trkpt lat="45.82198" lon="0.76731">
        <ele>213.9</ele>
        <time>2026-08-10T14:56:08.000Z</time>
      </trkpt>
      <trkpt lat="45.82199" lon="0.76733">
        <ele>213.9</ele>
        <time>2026-08-10T14:56:09.000Z</time>
      </trkpt>
      <trkpt lat="45.82202" lon="0.76738">
        <ele>213.7</ele>
        <time>2026-08-10T14:56:11.000Z</time>
      </trkpt>
      <trkpt lat="45.82206" lon="0.76742">
        <ele>213.4</ele>
        <time>2026-08-10T14:56:13.000Z</time>
      </trkpt>
      <trkpt lat="45.82207" lon="0.76741">
        <ele>213.4</ele>
        <time>2026-08-10T14:56:14.000Z</time>
      </trkpt>
      <trkpt lat="45.82208" lon="0.7674">
        <ele>213.4</ele>
        <time>2026-08-10T14:56:17.000Z</time>
      </trkpt>
      <trkpt lat="45.82208" lon="0.7674">
        <ele>213.4</ele>
        <time>2026-08-10T14:56:18.000Z</time>
      </trkpt>
      <trkpt lat="45.82202" lon="0.76734">
        <ele>213.8</ele>
        <time>2026-08-10T14:57:03.000Z</time>
      </trkpt>
      <trkpt lat="45.82199" lon="0.76732">
        <ele>213.9</ele>
        <time>2026-08-10T14:57:05.000Z</time>
      </trkpt>
      <trkpt lat="45.82195" lon="0.76729">
        <ele>214</ele>
        <time>2026-08-10T14:57:08.000Z</time>
      </trkpt>
      <trkpt lat="45.82192" lon="0.76723">
        <ele>214.2</ele>
        <time>2026-08-10T14:57:11.000Z</time>
      </trkpt>
      <trkpt lat="45.82188" lon="0.76715">
        <ele>214.9</ele>
        <time>2026-08-10T14:57:15.000Z</time>
      </trkpt>
      <trkpt lat="45.82182" lon="0.76704">
        <ele>215.9</ele>
        <time>2026-08-10T14:57:20.000Z</time>
      </trkpt>
      <trkpt lat="45.82179" lon="0.76699">
        <ele>216.3</ele>
        <time>2026-08-10T14:57:24.000Z</time>
      </trkpt>
      <trkpt lat="45.82171" lon="0.76683">
        <ele>216.9</ele>
        <time>2026-08-10T14:57:31.000Z</time>
      </trkpt>
      <trkpt lat="45.8217" lon="0.76679">
        <ele>216.9</ele>
        <time>2026-08-10T14:57:33.000Z</time>
      </trkpt>
      <trkpt lat="45.82169" lon="0.76676">
        <ele>217</ele>
        <time>2026-08-10T14:57:34.000Z</time>
      </trkpt>
      <trkpt lat="45.82165" lon="0.7666">
        <ele>217.4</ele>
        <time>2026-08-10T14:57:41.000Z</time>
      </trkpt>
      <trkpt lat="45.82164" lon="0.76657">
        <ele>217.5</ele>
        <time>2026-08-10T14:57:42.000Z</time>
      </trkpt>
      <trkpt lat="45.82161" lon="0.76645">
        <ele>218.1</ele>
        <time>2026-08-10T14:57:48.000Z</time>
      </trkpt>
      <trkpt lat="45.82161" lon="0.76645">
        <ele>218.1</ele>
        <time>2026-08-10T14:57:50.000Z</time>
      </trkpt>
      <trkpt lat="45.82165" lon="0.76637">
        <ele>218.1</ele>
        <time>2026-08-10T15:02:49.000Z</time>
      </trkpt>
      <trkpt lat="45.82163" lon="0.76629">
        <ele>218.5</ele>
        <time>2026-08-10T15:02:52.000Z</time>
      </trkpt>
      <trkpt lat="45.82163" lon="0.76611">
        <ele>219.1</ele>
        <time>2026-08-10T15:03:00.000Z</time>
      </trkpt>
      <trkpt lat="45.82162" lon="0.76607">
        <ele>219.3</ele>
        <time>2026-08-10T15:03:04.000Z</time>
      </trkpt>
      <trkpt lat="45.8216" lon="0.76596">
        <ele>219.8</ele>
        <time>2026-08-10T15:03:20.000Z</time>
      </trkpt>
      <trkpt lat="45.82161" lon="0.76573">
        <ele>220.6</ele>
        <time>2026-08-10T15:03:27.000Z</time>
      </trkpt>
      <trkpt lat="45.8216" lon="0.76547">
        <ele>221.3</ele>
        <time>2026-08-10T15:03:35.000Z</time>
      </trkpt>
      <trkpt lat="45.82159" lon="0.76534">
        <ele>221.3</ele>
        <time>2026-08-10T15:03:39.000Z</time>
      </trkpt>
      <trkpt lat="45.82158" lon="0.76515">
        <ele>221.5</ele>
        <time>2026-08-10T15:03:45.000Z</time>
      </trkpt>
      <trkpt lat="45.82156" lon="0.76483">
        <ele>221.2</ele>
        <time>2026-08-10T15:03:53.000Z</time>
      </trkpt>
      <trkpt lat="45.82155" lon="0.76456">
        <ele>220.6</ele>
        <time>2026-08-10T15:03:58.000Z</time>
      </trkpt>
      <trkpt lat="45.82154" lon="0.76417">
        <ele>219.5</ele>
        <time>2026-08-10T15:04:04.000Z</time>
      </trkpt>
      <trkpt lat="45.82153" lon="0.76368">
        <ele>218.2</ele>
        <time>2026-08-10T15:04:10.000Z</time>
      </trkpt>
      <trkpt lat="45.82153" lon="0.7636">
        <ele>217.9</ele>
        <time>2026-08-10T15:04:11.000Z</time>
      </trkpt>
      <trkpt lat="45.82152" lon="0.76324">
        <ele>216.2</ele>
        <time>2026-08-10T15:04:15.000Z</time>
      </trkpt>
      <trkpt lat="45.82152" lon="0.76295">
        <ele>215.3</ele>
        <time>2026-08-10T15:04:18.000Z</time>
      </trkpt>
      <trkpt lat="45.82151" lon="0.76264">
        <ele>214.4</ele>
        <time>2026-08-10T15:04:21.000Z</time>
      </trkpt>
      <trkpt lat="45.82151" lon="0.76232">
        <ele>212.9</ele>
        <time>2026-08-10T15:04:24.000Z</time>
      </trkpt>
      <trkpt lat="45.82151" lon="0.76221">
        <ele>212.6</ele>
        <time>2026-08-10T15:04:25.000Z</time>
      </trkpt>
      <trkpt lat="45.82152" lon="0.76191">
        <ele>211.9</ele>
        <time>2026-08-10T15:04:28.000Z</time>
      </trkpt>
      <trkpt lat="45.82156" lon="0.76161">
        <ele>211.4</ele>
        <time>2026-08-10T15:04:31.000Z</time>
      </trkpt>
      <trkpt lat="45.82171" lon="0.76105">
        <ele>209.8</ele>
        <time>2026-08-10T15:04:37.000Z</time>
      </trkpt>
      <trkpt lat="45.82193" lon="0.76049">
        <ele>207.8</ele>
        <time>2026-08-10T15:04:43.000Z</time>
      </trkpt>
      <trkpt lat="45.82198" lon="0.76041">
        <ele>207.3</ele>
        <time>2026-08-10T15:04:44.000Z</time>
      </trkpt>
      <trkpt lat="45.82217" lon="0.76003">
        <ele>205.3</ele>
        <time>2026-08-10T15:04:48.000Z</time>
      </trkpt>
      <trkpt lat="45.82232" lon="0.75976">
        <ele>204.1</ele>
        <time>2026-08-10T15:04:51.000Z</time>
      </trkpt>
      <trkpt lat="45.82238" lon="0.75967">
        <ele>203.8</ele>
        <time>2026-08-10T15:04:52.000Z</time>
      </trkpt>
      <trkpt lat="45.82254" lon="0.75939">
        <ele>201.9</ele>
        <time>2026-08-10T15:04:55.000Z</time>
      </trkpt>
      <trkpt lat="45.82275" lon="0.75899">
        <ele>200.5</ele>
        <time>2026-08-10T15:04:59.000Z</time>
      </trkpt>
      <trkpt lat="45.82292" lon="0.7587">
        <ele>199.3</ele>
        <time>2026-08-10T15:05:02.000Z</time>
      </trkpt>
      <trkpt lat="45.82299" lon="0.75861">
        <ele>199</ele>
        <time>2026-08-10T15:05:03.000Z</time>
      </trkpt>
      <trkpt lat="45.82306" lon="0.75854">
        <ele>198.7</ele>
        <time>2026-08-10T15:05:04.000Z</time>
      </trkpt>
      <trkpt lat="45.8232" lon="0.7584">
        <ele>198.3</ele>
        <time>2026-08-10T15:05:06.000Z</time>
      </trkpt>
      <trkpt lat="45.82332" lon="0.75826">
        <ele>198</ele>
        <time>2026-08-10T15:05:08.000Z</time>
      </trkpt>
      <trkpt lat="45.82337" lon="0.75818">
        <ele>198.3</ele>
        <time>2026-08-10T15:05:09.000Z</time>
      </trkpt>
      <trkpt lat="45.82341" lon="0.75808">
        <ele>198.5</ele>
        <time>2026-08-10T15:05:10.000Z</time>
      </trkpt>
      <trkpt lat="45.82344" lon="0.75788">
        <ele>198.1</ele>
        <time>2026-08-10T15:05:12.000Z</time>
      </trkpt>
      <trkpt lat="45.82344" lon="0.75746">
        <ele>196.7</ele>
        <time>2026-08-10T15:05:16.000Z</time>
      </trkpt>
      <trkpt lat="45.82343" lon="0.75735">
        <ele>196.5</ele>
        <time>2026-08-10T15:05:17.000Z</time>
      </trkpt>
      <trkpt lat="45.8234" lon="0.75694">
        <ele>196.5</ele>
        <time>2026-08-10T15:05:21.000Z</time>
      </trkpt>
      <trkpt lat="45.82338" lon="0.75664">
        <ele>196.5</ele>
        <time>2026-08-10T15:05:24.000Z</time>
      </trkpt>
      <trkpt lat="45.82333" lon="0.75624">
        <ele>195.4</ele>
        <time>2026-08-10T15:05:28.000Z</time>
      </trkpt>
      <trkpt lat="45.82329" lon="0.75594">
        <ele>194.3</ele>
        <time>2026-08-10T15:05:31.000Z</time>
      </trkpt>
      <trkpt lat="45.82321" lon="0.75553">
        <ele>191.5</ele>
        <time>2026-08-10T15:05:35.000Z</time>
      </trkpt>
      <trkpt lat="45.82319" lon="0.75533">
        <ele>189.8</ele>
        <time>2026-08-10T15:05:37.000Z</time>
      </trkpt>
      <trkpt lat="45.8232" lon="0.75524">
        <ele>189.1</ele>
        <time>2026-08-10T15:05:38.000Z</time>
      </trkpt>
      <trkpt lat="45.82321" lon="0.75513">
        <ele>188.3</ele>
        <time>2026-08-10T15:05:39.000Z</time>
      </trkpt>
      <trkpt lat="45.82327" lon="0.75496">
        <ele>187</ele>
        <time>2026-08-10T15:05:41.000Z</time>
      </trkpt>
      <trkpt lat="45.82331" lon="0.75489">
        <ele>186.2</ele>
        <time>2026-08-10T15:05:42.000Z</time>
      </trkpt>
      <trkpt lat="45.82336" lon="0.75482">
        <ele>185.7</ele>
        <time>2026-08-10T15:05:43.000Z</time>
      </trkpt>
      <trkpt lat="45.82343" lon="0.75477">
        <ele>185.7</ele>
        <time>2026-08-10T15:05:44.000Z</time>
      </trkpt>
      <trkpt lat="45.8235" lon="0.75473">
        <ele>185.8</ele>
        <time>2026-08-10T15:05:45.000Z</time>
      </trkpt>
      <trkpt lat="45.8238" lon="0.75459">
        <ele>188.3</ele>
        <time>2026-08-10T15:05:49.000Z</time>
      </trkpt>
      <trkpt lat="45.82387" lon="0.75455">
        <ele>188.6</ele>
        <time>2026-08-10T15:05:50.000Z</time>
      </trkpt>
      <trkpt lat="45.82394" lon="0.7545">
        <ele>187.9</ele>
        <time>2026-08-10T15:05:51.000Z</time>
      </trkpt>
      <trkpt lat="45.82401" lon="0.75445">
        <ele>187.1</ele>
        <time>2026-08-10T15:05:52.000Z</time>
      </trkpt>
      <trkpt lat="45.82408" lon="0.7544">
        <ele>186.5</ele>
        <time>2026-08-10T15:05:53.000Z</time>
      </trkpt>
      <trkpt lat="45.82414" lon="0.75433">
        <ele>185.8</ele>
        <time>2026-08-10T15:05:54.000Z</time>
      </trkpt>
      <trkpt lat="45.8242" lon="0.75425">
        <ele>184.9</ele>
        <time>2026-08-10T15:05:55.000Z</time>
      </trkpt>
      <trkpt lat="45.82425" lon="0.75417">
        <ele>184</ele>
        <time>2026-08-10T15:05:56.000Z</time>
      </trkpt>
      <trkpt lat="45.82439" lon="0.75394">
        <ele>184</ele>
        <time>2026-08-10T15:05:59.000Z</time>
      </trkpt>
      <trkpt lat="45.82444" lon="0.75386">
        <ele>184</ele>
        <time>2026-08-10T15:06:00.000Z</time>
      </trkpt>
      <trkpt lat="45.82465" lon="0.75352">
        <ele>185</ele>
        <time>2026-08-10T15:06:05.000Z</time>
      </trkpt>
      <trkpt lat="45.82482" lon="0.75334">
        <ele>186.7</ele>
        <time>2026-08-10T15:06:10.000Z</time>
      </trkpt>
      <trkpt lat="45.82491" lon="0.75326">
        <ele>187.6</ele>
        <time>2026-08-10T15:06:14.000Z</time>
      </trkpt>
      <trkpt lat="45.82499" lon="0.75324">
        <ele>188.3</ele>
        <time>2026-08-10T15:06:18.000Z</time>
      </trkpt>
      <trkpt lat="45.82503" lon="0.75322">
        <ele>188.6</ele>
        <time>2026-08-10T15:06:20.000Z</time>
      </trkpt>
      <trkpt lat="45.82515" lon="0.75316">
        <ele>189.7</ele>
        <time>2026-08-10T15:06:27.000Z</time>
      </trkpt>
      <trkpt lat="45.82516" lon="0.75316">
        <ele>189.8</ele>
        <time>2026-08-10T15:06:28.000Z</time>
      </trkpt>
      <trkpt lat="45.82528" lon="0.75311">
        <ele>190.8</ele>
        <time>2026-08-10T15:06:36.000Z</time>
      </trkpt>
      <trkpt lat="45.82533" lon="0.75308">
        <ele>191.1</ele>
        <time>2026-08-10T15:06:39.000Z</time>
      </trkpt>
      <trkpt lat="45.82538" lon="0.75303">
        <ele>191.5</ele>
        <time>2026-08-10T15:06:43.000Z</time>
      </trkpt>
      <trkpt lat="45.8255" lon="0.75294">
        <ele>192.2</ele>
        <time>2026-08-10T15:06:51.000Z</time>
      </trkpt>
      <trkpt lat="45.82561" lon="0.75283">
        <ele>193</ele>
        <time>2026-08-10T15:06:59.000Z</time>
      </trkpt>
      <trkpt lat="45.82563" lon="0.7528">
        <ele>193.2</ele>
        <time>2026-08-10T15:07:01.000Z</time>
      </trkpt>
      <trkpt lat="45.82568" lon="0.75267">
        <ele>194.1</ele>
        <time>2026-08-10T15:07:07.000Z</time>
      </trkpt>
      <trkpt lat="45.82569" lon="0.75265">
        <ele>194.2</ele>
        <time>2026-08-10T15:07:08.000Z</time>
      </trkpt>
      <trkpt lat="45.82574" lon="0.75258">
        <ele>194.6</ele>
        <time>2026-08-10T15:07:12.000Z</time>
      </trkpt>
      <trkpt lat="45.82575" lon="0.75248">
        <ele>195.1</ele>
        <time>2026-08-10T15:07:16.000Z</time>
      </trkpt>
      <trkpt lat="45.82579" lon="0.7524">
        <ele>195.7</ele>
        <time>2026-08-10T15:07:21.000Z</time>
      </trkpt>
      <trkpt lat="45.8258" lon="0.75235">
        <ele>196</ele>
        <time>2026-08-10T15:07:23.000Z</time>
      </trkpt>
      <trkpt lat="45.82581" lon="0.75229">
        <ele>196.5</ele>
        <time>2026-08-10T15:07:26.000Z</time>
      </trkpt>
      <trkpt lat="45.82582" lon="0.7522">
        <ele>197</ele>
        <time>2026-08-10T15:07:30.000Z</time>
      </trkpt>
      <trkpt lat="45.82583" lon="0.75202">
        <ele>197.7</ele>
        <time>2026-08-10T15:07:37.000Z</time>
      </trkpt>
      <trkpt lat="45.82583" lon="0.752">
        <ele>197.8</ele>
        <time>2026-08-10T15:07:38.000Z</time>
      </trkpt>
      <trkpt lat="45.82585" lon="0.75187">
        <ele>198.3</ele>
        <time>2026-08-10T15:07:44.000Z</time>
      </trkpt>
      <trkpt lat="45.82586" lon="0.7518">
        <ele>198.6</ele>
        <time>2026-08-10T15:07:47.000Z</time>
      </trkpt>
      <trkpt lat="45.82586" lon="0.75173">
        <ele>198.9</ele>
        <time>2026-08-10T15:07:50.000Z</time>
      </trkpt>
      <trkpt lat="45.82586" lon="0.75164">
        <ele>199.2</ele>
        <time>2026-08-10T15:07:54.000Z</time>
      </trkpt>
      <trkpt lat="45.82587" lon="0.75158">
        <ele>199.4</ele>
        <time>2026-08-10T15:07:57.000Z</time>
      </trkpt>
      <trkpt lat="45.82587" lon="0.75148">
        <ele>199.8</ele>
        <time>2026-08-10T15:08:02.000Z</time>
      </trkpt>
      <trkpt lat="45.82587" lon="0.75146">
        <ele>199.9</ele>
        <time>2026-08-10T15:08:03.000Z</time>
      </trkpt>
      <trkpt lat="45.82587" lon="0.75138">
        <ele>200.2</ele>
        <time>2026-08-10T15:08:07.000Z</time>
      </trkpt>
      <trkpt lat="45.82587" lon="0.75133">
        <ele>200.4</ele>
        <time>2026-08-10T15:08:10.000Z</time>
      </trkpt>
      <trkpt lat="45.82587" lon="0.75126">
        <ele>200.6</ele>
        <time>2026-08-10T15:08:13.000Z</time>
      </trkpt>
      <trkpt lat="45.82588" lon="0.75112">
        <ele>201.1</ele>
        <time>2026-08-10T15:08:19.000Z</time>
      </trkpt>
      <trkpt lat="45.8259" lon="0.75097">
        <ele>201.8</ele>
        <time>2026-08-10T15:08:26.000Z</time>
      </trkpt>
      <trkpt lat="45.8259" lon="0.7509">
        <ele>202</ele>
        <time>2026-08-10T15:08:29.000Z</time>
      </trkpt>
      <trkpt lat="45.8259" lon="0.75076">
        <ele>202.5</ele>
        <time>2026-08-10T15:08:35.000Z</time>
      </trkpt>
      <trkpt lat="45.82591" lon="0.75065">
        <ele>202.9</ele>
        <time>2026-08-10T15:08:40.000Z</time>
      </trkpt>
      <trkpt lat="45.82591" lon="0.75065">
        <ele>202.9</ele>
        <time>2026-08-10T15:08:42.000Z</time>
      </trkpt>
      <trkpt lat="45.8259" lon="0.75049">
        <ele>203.7</ele>
        <time>2026-08-10T15:12:52.000Z</time>
      </trkpt>
      <trkpt lat="45.82588" lon="0.75043">
        <ele>204</ele>
        <time>2026-08-10T15:12:55.000Z</time>
      </trkpt>
      <trkpt lat="45.82588" lon="0.75035">
        <ele>204.5</ele>
        <time>2026-08-10T15:12:59.000Z</time>
      </trkpt>
      <trkpt lat="45.82587" lon="0.75031">
        <ele>204.8</ele>
        <time>2026-08-10T15:13:01.000Z</time>
      </trkpt>
      <trkpt lat="45.82581" lon="0.75011">
        <ele>205.9</ele>
        <time>2026-08-10T15:13:09.000Z</time>
      </trkpt>
      <trkpt lat="45.82576" lon="0.74997">
        <ele>206.5</ele>
        <time>2026-08-10T15:13:16.000Z</time>
      </trkpt>
      <trkpt lat="45.82575" lon="0.74995">
        <ele>206.5</ele>
        <time>2026-08-10T15:13:17.000Z</time>
      </trkpt>
      <trkpt lat="45.8257" lon="0.74984">
        <ele>206.6</ele>
        <time>2026-08-10T15:13:24.000Z</time>
      </trkpt>
      <trkpt lat="45.8257" lon="0.74982">
        <ele>206.7</ele>
        <time>2026-08-10T15:13:25.000Z</time>
      </trkpt>
      <trkpt lat="45.82568" lon="0.74971">
        <ele>207.1</ele>
        <time>2026-08-10T15:13:31.000Z</time>
      </trkpt>
      <trkpt lat="45.82568" lon="0.74967">
        <ele>207.4</ele>
        <time>2026-08-10T15:13:33.000Z</time>
      </trkpt>
      <trkpt lat="45.82568" lon="0.74958">
        <ele>208</ele>
        <time>2026-08-10T15:13:38.000Z</time>
      </trkpt>
      <trkpt lat="45.82568" lon="0.74956">
        <ele>208.2</ele>
        <time>2026-08-10T15:13:39.000Z</time>
      </trkpt>
      <trkpt lat="45.82569" lon="0.74953">
        <ele>208.4</ele>
        <time>2026-08-10T15:13:40.000Z</time>
      </trkpt>
      <trkpt lat="45.82568" lon="0.74948">
        <ele>208.8</ele>
        <time>2026-08-10T15:13:43.000Z</time>
      </trkpt>
      <trkpt lat="45.82569" lon="0.74946">
        <ele>208.9</ele>
        <time>2026-08-10T15:13:44.000Z</time>
      </trkpt>
      <trkpt lat="45.82572" lon="0.74935">
        <ele>209.7</ele>
        <time>2026-08-10T15:13:50.000Z</time>
      </trkpt>
      <trkpt lat="45.82574" lon="0.74932">
        <ele>209.9</ele>
        <time>2026-08-10T15:13:52.000Z</time>
      </trkpt>
      <trkpt lat="45.82579" lon="0.74922">
        <ele>210.6</ele>
        <time>2026-08-10T15:13:58.000Z</time>
      </trkpt>
      <trkpt lat="45.8258" lon="0.74919">
        <ele>210.9</ele>
        <time>2026-08-10T15:14:00.000Z</time>
      </trkpt>
      <trkpt lat="45.82587" lon="0.74906">
        <ele>212.1</ele>
        <time>2026-08-10T15:14:08.000Z</time>
      </trkpt>
      <trkpt lat="45.82596" lon="0.74894">
        <ele>213.4</ele>
        <time>2026-08-10T15:14:16.000Z</time>
      </trkpt>
      <trkpt lat="45.82601" lon="0.7489">
        <ele>213.9</ele>
        <time>2026-08-10T15:14:20.000Z</time>
      </trkpt>
      <trkpt lat="45.82604" lon="0.74887">
        <ele>214.1</ele>
        <time>2026-08-10T15:14:23.000Z</time>
      </trkpt>
      <trkpt lat="45.82611" lon="0.74878">
        <ele>214.8</ele>
        <time>2026-08-10T15:14:30.000Z</time>
      </trkpt>
      <trkpt lat="45.82614" lon="0.74875">
        <ele>215</ele>
        <time>2026-08-10T15:14:32.000Z</time>
      </trkpt>
      <trkpt lat="45.82616" lon="0.74872">
        <ele>215.1</ele>
        <time>2026-08-10T15:14:34.000Z</time>
      </trkpt>
      <trkpt lat="45.82621" lon="0.74867">
        <ele>215.5</ele>
        <time>2026-08-10T15:14:39.000Z</time>
      </trkpt>
      <trkpt lat="45.82622" lon="0.74865">
        <ele>215.7</ele>
        <time>2026-08-10T15:14:41.000Z</time>
      </trkpt>
      <trkpt lat="45.82628" lon="0.74856">
        <ele>216.4</ele>
        <time>2026-08-10T15:14:47.000Z</time>
      </trkpt>
      <trkpt lat="45.82631" lon="0.74853">
        <ele>216.6</ele>
        <time>2026-08-10T15:14:49.000Z</time>
      </trkpt>
      <trkpt lat="45.82638" lon="0.74844">
        <ele>217.2</ele>
        <time>2026-08-10T15:14:55.000Z</time>
      </trkpt>
      <trkpt lat="45.82641" lon="0.7484">
        <ele>217.5</ele>
        <time>2026-08-10T15:14:58.000Z</time>
      </trkpt>
      <trkpt lat="45.82644" lon="0.74836">
        <ele>217.8</ele>
        <time>2026-08-10T15:15:02.000Z</time>
      </trkpt>
      <trkpt lat="45.82648" lon="0.74832">
        <ele>218.1</ele>
        <time>2026-08-10T15:15:05.000Z</time>
      </trkpt>
      <trkpt lat="45.82652" lon="0.74824">
        <ele>218.7</ele>
        <time>2026-08-10T15:15:10.000Z</time>
      </trkpt>
      <trkpt lat="45.82655" lon="0.74817">
        <ele>219.1</ele>
        <time>2026-08-10T15:15:14.000Z</time>
      </trkpt>
      <trkpt lat="45.82656" lon="0.74812">
        <ele>219.5</ele>
        <time>2026-08-10T15:15:17.000Z</time>
      </trkpt>
      <trkpt lat="45.82657" lon="0.74811">
        <ele>219.6</ele>
        <time>2026-08-10T15:15:18.000Z</time>
      </trkpt>
      <trkpt lat="45.82658" lon="0.74808">
        <ele>219.9</ele>
        <time>2026-08-10T15:15:20.000Z</time>
      </trkpt>
      <trkpt lat="45.82659" lon="0.74805">
        <ele>220</ele>
        <time>2026-08-10T15:15:21.000Z</time>
      </trkpt>
      <trkpt lat="45.8266" lon="0.74802">
        <ele>220.4</ele>
        <time>2026-08-10T15:15:23.000Z</time>
      </trkpt>
      <trkpt lat="45.82661" lon="0.74789">
        <ele>221.7</ele>
        <time>2026-08-10T15:15:30.000Z</time>
      </trkpt>
      <trkpt lat="45.82661" lon="0.74769">
        <ele>223.4</ele>
        <time>2026-08-10T15:15:40.000Z</time>
      </trkpt>
      <trkpt lat="45.8266" lon="0.74763">
        <ele>223.8</ele>
        <time>2026-08-10T15:15:43.000Z</time>
      </trkpt>
      <trkpt lat="45.82659" lon="0.74758">
        <ele>224.2</ele>
        <time>2026-08-10T15:15:47.000Z</time>
      </trkpt>
      <trkpt lat="45.82656" lon="0.74749">
        <ele>224.7</ele>
        <time>2026-08-10T15:15:51.000Z</time>
      </trkpt>
      <trkpt lat="45.82651" lon="0.74733">
        <ele>225.7</ele>
        <time>2026-08-10T15:16:00.000Z</time>
      </trkpt>
      <trkpt lat="45.8265" lon="0.74731">
        <ele>225.8</ele>
        <time>2026-08-10T15:16:01.000Z</time>
      </trkpt>
      <trkpt lat="45.82642" lon="0.74718">
        <ele>226.3</ele>
        <time>2026-08-10T15:16:10.000Z</time>
      </trkpt>
      <trkpt lat="45.82641" lon="0.74716">
        <ele>226.3</ele>
        <time>2026-08-10T15:16:11.000Z</time>
      </trkpt>
      <trkpt lat="45.82631" lon="0.747">
        <ele>226.5</ele>
        <time>2026-08-10T15:16:21.000Z</time>
      </trkpt>
      <trkpt lat="45.82625" lon="0.74685">
        <ele>227.3</ele>
        <time>2026-08-10T15:16:29.000Z</time>
      </trkpt>
      <trkpt lat="45.82624" lon="0.74668">
        <ele>228.8</ele>
        <time>2026-08-10T15:16:36.000Z</time>
      </trkpt>
      <trkpt lat="45.82624" lon="0.74666">
        <ele>228.9</ele>
        <time>2026-08-10T15:16:37.000Z</time>
      </trkpt>
      <trkpt lat="45.82622" lon="0.74653">
        <ele>229.8</ele>
        <time>2026-08-10T15:16:44.000Z</time>
      </trkpt>
      <trkpt lat="45.82624" lon="0.74643">
        <ele>230.6</ele>
        <time>2026-08-10T15:16:49.000Z</time>
      </trkpt>
      <trkpt lat="45.82625" lon="0.7464">
        <ele>231</ele>
        <time>2026-08-10T15:16:51.000Z</time>
      </trkpt>
      <trkpt lat="45.82627" lon="0.74625">
        <ele>230.9</ele>
        <time>2026-08-10T15:16:58.000Z</time>
      </trkpt>
      <trkpt lat="45.82627" lon="0.74623">
        <ele>230.8</ele>
        <time>2026-08-10T15:16:59.000Z</time>
      </trkpt>
      <trkpt lat="45.82629" lon="0.7461">
        <ele>230.7</ele>
        <time>2026-08-10T15:17:06.000Z</time>
      </trkpt>
      <trkpt lat="45.82629" lon="0.74608">
        <ele>230.8</ele>
        <time>2026-08-10T15:17:07.000Z</time>
      </trkpt>
      <trkpt lat="45.82629" lon="0.74606">
        <ele>230.8</ele>
        <time>2026-08-10T15:17:08.000Z</time>
      </trkpt>
      <trkpt lat="45.82632" lon="0.74597">
        <ele>231.2</ele>
        <time>2026-08-10T15:17:12.000Z</time>
      </trkpt>
      <trkpt lat="45.82635" lon="0.7458">
        <ele>232.1</ele>
        <time>2026-08-10T15:17:19.000Z</time>
      </trkpt>
      <trkpt lat="45.82636" lon="0.74576">
        <ele>232.4</ele>
        <time>2026-08-10T15:17:21.000Z</time>
      </trkpt>
      <trkpt lat="45.82637" lon="0.74559">
        <ele>233.6</ele>
        <time>2026-08-10T15:17:29.000Z</time>
      </trkpt>
      <trkpt lat="45.82637" lon="0.74558">
        <ele>233.7</ele>
        <time>2026-08-10T15:17:30.000Z</time>
      </trkpt>
      <trkpt lat="45.82638" lon="0.74554">
        <ele>234</ele>
        <time>2026-08-10T15:17:32.000Z</time>
      </trkpt>
      <trkpt lat="45.82639" lon="0.74549">
        <ele>234.2</ele>
        <time>2026-08-10T15:17:35.000Z</time>
      </trkpt>
      <trkpt lat="45.82639" lon="0.74548">
        <ele>234.3</ele>
        <time>2026-08-10T15:17:36.000Z</time>
      </trkpt>
      <trkpt lat="45.8264" lon="0.74545">
        <ele>234.5</ele>
        <time>2026-08-10T15:17:38.000Z</time>
      </trkpt>
      <trkpt lat="45.82641" lon="0.74543">
        <ele>234.6</ele>
        <time>2026-08-10T15:17:39.000Z</time>
      </trkpt>
      <trkpt lat="45.82642" lon="0.74534">
        <ele>235</ele>
        <time>2026-08-10T15:17:44.000Z</time>
      </trkpt>
      <trkpt lat="45.82642" lon="0.74531">
        <ele>235.1</ele>
        <time>2026-08-10T15:17:45.000Z</time>
      </trkpt>
      <trkpt lat="45.82645" lon="0.74511">
        <ele>235.5</ele>
        <time>2026-08-10T15:17:54.000Z</time>
      </trkpt>
      <trkpt lat="45.82646" lon="0.74509">
        <ele>235.5</ele>
        <time>2026-08-10T15:17:55.000Z</time>
      </trkpt>
      <trkpt lat="45.82646" lon="0.74503">
        <ele>235.5</ele>
        <time>2026-08-10T15:17:58.000Z</time>
      </trkpt>
      <trkpt lat="45.82647" lon="0.74499">
        <ele>235.7</ele>
        <time>2026-08-10T15:18:01.000Z</time>
      </trkpt>
      <trkpt lat="45.82647" lon="0.74497">
        <ele>235.7</ele>
        <time>2026-08-10T15:18:02.000Z</time>
      </trkpt>
      <trkpt lat="45.82647" lon="0.74491">
        <ele>235.9</ele>
        <time>2026-08-10T15:18:05.000Z</time>
      </trkpt>
      <trkpt lat="45.8265" lon="0.74482">
        <ele>236.4</ele>
        <time>2026-08-10T15:18:09.000Z</time>
      </trkpt>
      <trkpt lat="45.8265" lon="0.7448">
        <ele>236.5</ele>
        <time>2026-08-10T15:18:10.000Z</time>
      </trkpt>
      <trkpt lat="45.82651" lon="0.74479">
        <ele>236.6</ele>
        <time>2026-08-10T15:18:11.000Z</time>
      </trkpt>
      <trkpt lat="45.82651" lon="0.74476">
        <ele>236.7</ele>
        <time>2026-08-10T15:18:13.000Z</time>
      </trkpt>
      <trkpt lat="45.82651" lon="0.74458">
        <ele>237.4</ele>
        <time>2026-08-10T15:18:21.000Z</time>
      </trkpt>
      <trkpt lat="45.82652" lon="0.74448">
        <ele>237.8</ele>
        <time>2026-08-10T15:18:26.000Z</time>
      </trkpt>
      <trkpt lat="45.82652" lon="0.74444">
        <ele>238</ele>
        <time>2026-08-10T15:18:28.000Z</time>
      </trkpt>
      <trkpt lat="45.82652" lon="0.74442">
        <ele>238</ele>
        <time>2026-08-10T15:18:29.000Z</time>
      </trkpt>
      <trkpt lat="45.82653" lon="0.74434">
        <ele>238.4</ele>
        <time>2026-08-10T15:18:33.000Z</time>
      </trkpt>
      <trkpt lat="45.82653" lon="0.74431">
        <ele>238.5</ele>
        <time>2026-08-10T15:18:34.000Z</time>
      </trkpt>
      <trkpt lat="45.82651" lon="0.74424">
        <ele>238.6</ele>
        <time>2026-08-10T15:18:37.000Z</time>
      </trkpt>
      <trkpt lat="45.82651" lon="0.7442">
        <ele>238.7</ele>
        <time>2026-08-10T15:18:39.000Z</time>
      </trkpt>
      <trkpt lat="45.82649" lon="0.74415">
        <ele>238.8</ele>
        <time>2026-08-10T15:18:41.000Z</time>
      </trkpt>
      <trkpt lat="45.82646" lon="0.74403">
        <ele>239</ele>
        <time>2026-08-10T15:18:46.000Z</time>
      </trkpt>
      <trkpt lat="45.82638" lon="0.74383">
        <ele>239.2</ele>
        <time>2026-08-10T15:18:54.000Z</time>
      </trkpt>
      <trkpt lat="45.82629" lon="0.74367">
        <ele>239.3</ele>
        <time>2026-08-10T15:19:00.000Z</time>
      </trkpt>
      <trkpt lat="45.82625" lon="0.74362">
        <ele>239.4</ele>
        <time>2026-08-10T15:19:02.000Z</time>
      </trkpt>
      <trkpt lat="45.82615" lon="0.74348">
        <ele>239.6</ele>
        <time>2026-08-10T15:19:08.000Z</time>
      </trkpt>
      <trkpt lat="45.82614" lon="0.74351">
        <ele>239.4</ele>
        <time>2026-08-10T15:19:10.000Z</time>
      </trkpt>
      <trkpt lat="45.82615" lon="0.74353">
        <ele>239.4</ele>
        <time>2026-08-10T15:19:11.000Z</time>
      </trkpt>
      <trkpt lat="45.82617" lon="0.74358">
        <ele>239.3</ele>
        <time>2026-08-10T15:19:14.000Z</time>
      </trkpt>
      <trkpt lat="45.82615" lon="0.7436">
        <ele>239.2</ele>
        <time>2026-08-10T15:19:16.000Z</time>
      </trkpt>
      <trkpt lat="45.82615" lon="0.7436">
        <ele>239.2</ele>
        <time>2026-08-10T15:19:18.000Z</time>
      </trkpt>
      <trkpt lat="45.82612" lon="0.74346">
        <ele>239.6</ele>
        <time>2026-08-10T15:20:12.000Z</time>
      </trkpt>
      <trkpt lat="45.82601" lon="0.74331">
        <ele>240.1</ele>
        <time>2026-08-10T15:20:19.000Z</time>
      </trkpt>
      <trkpt lat="45.82587" lon="0.74309">
        <ele>241</ele>
        <time>2026-08-10T15:20:28.000Z</time>
      </trkpt>
      <trkpt lat="45.8258" lon="0.743">
        <ele>241.1</ele>
        <time>2026-08-10T15:20:32.000Z</time>
      </trkpt>
      <trkpt lat="45.82571" lon="0.74287">
        <ele>241.2</ele>
        <time>2026-08-10T15:20:37.000Z</time>
      </trkpt>
      <trkpt lat="45.82563" lon="0.74277">
        <ele>241.3</ele>
        <time>2026-08-10T15:20:42.000Z</time>
      </trkpt>
      <trkpt lat="45.8256" lon="0.74273">
        <ele>241.3</ele>
        <time>2026-08-10T15:20:44.000Z</time>
      </trkpt>
      <trkpt lat="45.82556" lon="0.74265">
        <ele>241.5</ele>
        <time>2026-08-10T15:20:48.000Z</time>
      </trkpt>
      <trkpt lat="45.82544" lon="0.74244">
        <ele>241.3</ele>
        <time>2026-08-10T15:20:58.000Z</time>
      </trkpt>
      <trkpt lat="45.82539" lon="0.74231">
        <ele>241.2</ele>
        <time>2026-08-10T15:21:03.000Z</time>
      </trkpt>
      <trkpt lat="45.82538" lon="0.7423">
        <ele>241.2</ele>
        <time>2026-08-10T15:21:04.000Z</time>
      </trkpt>
      <trkpt lat="45.82537" lon="0.74229">
        <ele>241.2</ele>
        <time>2026-08-10T15:21:05.000Z</time>
      </trkpt>
      <trkpt lat="45.82537" lon="0.74225">
        <ele>241.3</ele>
        <time>2026-08-10T15:21:09.000Z</time>
      </trkpt>
      <trkpt lat="45.82537" lon="0.74224">
        <ele>241.3</ele>
        <time>2026-08-10T15:21:10.000Z</time>
      </trkpt>
      <trkpt lat="45.82539" lon="0.7422">
        <ele>241.4</ele>
        <time>2026-08-10T15:21:12.000Z</time>
      </trkpt>
      <trkpt lat="45.82541" lon="0.7421">
        <ele>241.5</ele>
        <time>2026-08-10T15:21:16.000Z</time>
      </trkpt>
      <trkpt lat="45.82544" lon="0.7419">
        <ele>241.6</ele>
        <time>2026-08-10T15:21:22.000Z</time>
      </trkpt>
      <trkpt lat="45.82547" lon="0.74163">
        <ele>241.7</ele>
        <time>2026-08-10T15:21:29.000Z</time>
      </trkpt>
      <trkpt lat="45.82551" lon="0.74133">
        <ele>241.5</ele>
        <time>2026-08-10T15:21:36.000Z</time>
      </trkpt>
      <trkpt lat="45.82554" lon="0.74112">
        <ele>240.9</ele>
        <time>2026-08-10T15:21:40.000Z</time>
      </trkpt>
      <trkpt lat="45.82566" lon="0.74078">
        <ele>240.6</ele>
        <time>2026-08-10T15:21:46.000Z</time>
      </trkpt>
      <trkpt lat="45.82577" lon="0.74049">
        <ele>241.1</ele>
        <time>2026-08-10T15:21:53.000Z</time>
      </trkpt>
      <trkpt lat="45.82587" lon="0.7403">
        <ele>241.4</ele>
        <time>2026-08-10T15:21:59.000Z</time>
      </trkpt>
      <trkpt lat="45.82601" lon="0.73999">
        <ele>243.3</ele>
        <time>2026-08-10T15:22:07.000Z</time>
      </trkpt>
      <trkpt lat="45.82608" lon="0.73981">
        <ele>244.5</ele>
        <time>2026-08-10T15:22:13.000Z</time>
      </trkpt>
      <trkpt lat="45.8261" lon="0.73977">
        <ele>244.8</ele>
        <time>2026-08-10T15:22:15.000Z</time>
      </trkpt>
      <trkpt lat="45.82612" lon="0.73968">
        <ele>245.4</ele>
        <time>2026-08-10T15:22:18.000Z</time>
      </trkpt>
      <trkpt lat="45.82612" lon="0.73958">
        <ele>246</ele>
        <time>2026-08-10T15:22:21.000Z</time>
      </trkpt>
      <trkpt lat="45.82612" lon="0.73955">
        <ele>246.3</ele>
        <time>2026-08-10T15:22:22.000Z</time>
      </trkpt>
      <trkpt lat="45.82613" lon="0.73937">
        <ele>247.4</ele>
        <time>2026-08-10T15:22:28.000Z</time>
      </trkpt>
      <trkpt lat="45.82613" lon="0.73929">
        <ele>247.6</ele>
        <time>2026-08-10T15:22:31.000Z</time>
      </trkpt>
      <trkpt lat="45.82615" lon="0.73918">
        <ele>248.1</ele>
        <time>2026-08-10T15:22:35.000Z</time>
      </trkpt>
      <trkpt lat="45.82617" lon="0.73904">
        <ele>248.3</ele>
        <time>2026-08-10T15:22:41.000Z</time>
      </trkpt>
      <trkpt lat="45.82616" lon="0.73896">
        <ele>248.3</ele>
        <time>2026-08-10T15:22:44.000Z</time>
      </trkpt>
      <trkpt lat="45.82618" lon="0.73882">
        <ele>248.8</ele>
        <time>2026-08-10T15:22:50.000Z</time>
      </trkpt>
      <trkpt lat="45.82618" lon="0.73879">
        <ele>248.9</ele>
        <time>2026-08-10T15:22:51.000Z</time>
      </trkpt>
      <trkpt lat="45.82622" lon="0.73862">
        <ele>249.7</ele>
        <time>2026-08-10T15:22:58.000Z</time>
      </trkpt>
      <trkpt lat="45.82623" lon="0.7386">
        <ele>249.8</ele>
        <time>2026-08-10T15:22:59.000Z</time>
      </trkpt>
      <trkpt lat="45.82629" lon="0.7385">
        <ele>249.9</ele>
        <time>2026-08-10T15:23:05.000Z</time>
      </trkpt>
      <trkpt lat="45.8263" lon="0.73849">
        <ele>249.9</ele>
        <time>2026-08-10T15:23:06.000Z</time>
      </trkpt>
      <trkpt lat="45.82633" lon="0.73841">
        <ele>249.8</ele>
        <time>2026-08-10T15:23:10.000Z</time>
      </trkpt>
      <trkpt lat="45.82634" lon="0.73839">
        <ele>249.8</ele>
        <time>2026-08-10T15:23:11.000Z</time>
      </trkpt>
      <trkpt lat="45.82644" lon="0.73822">
        <ele>249.9</ele>
        <time>2026-08-10T15:23:19.000Z</time>
      </trkpt>
      <trkpt lat="45.82646" lon="0.73815">
        <ele>249.8</ele>
        <time>2026-08-10T15:23:22.000Z</time>
      </trkpt>
      <trkpt lat="45.82648" lon="0.73812">
        <ele>249.9</ele>
        <time>2026-08-10T15:23:24.000Z</time>
      </trkpt>
      <trkpt lat="45.82649" lon="0.73811">
        <ele>249.9</ele>
        <time>2026-08-10T15:23:25.000Z</time>
      </trkpt>
      <trkpt lat="45.82652" lon="0.73806">
        <ele>250</ele>
        <time>2026-08-10T15:23:29.000Z</time>
      </trkpt>
      <trkpt lat="45.82656" lon="0.73803">
        <ele>250.1</ele>
        <time>2026-08-10T15:23:34.000Z</time>
      </trkpt>
      <trkpt lat="45.82659" lon="0.73795">
        <ele>250.2</ele>
        <time>2026-08-10T15:24:31.000Z</time>
      </trkpt>
      <trkpt lat="45.82667" lon="0.73781">
        <ele>251</ele>
        <time>2026-08-10T15:24:36.000Z</time>
      </trkpt>
      <trkpt lat="45.82675" lon="0.73765">
        <ele>250.2</ele>
        <time>2026-08-10T15:24:41.000Z</time>
      </trkpt>
      <trkpt lat="45.82688" lon="0.73739">
        <ele>250.1</ele>
        <time>2026-08-10T15:24:48.000Z</time>
      </trkpt>
      <trkpt lat="45.82695" lon="0.73718">
        <ele>251.1</ele>
        <time>2026-08-10T15:24:53.000Z</time>
      </trkpt>
      <trkpt lat="45.82698" lon="0.7371">
        <ele>251.4</ele>
        <time>2026-08-10T15:24:55.000Z</time>
      </trkpt>
      <trkpt lat="45.82705" lon="0.73691">
        <ele>252.4</ele>
        <time>2026-08-10T15:25:00.000Z</time>
      </trkpt>
      <trkpt lat="45.82709" lon="0.73665">
        <ele>253.1</ele>
        <time>2026-08-10T15:25:06.000Z</time>
      </trkpt>
      <trkpt lat="45.82709" lon="0.73642">
        <ele>253.5</ele>
        <time>2026-08-10T15:25:11.000Z</time>
      </trkpt>
      <trkpt lat="45.82708" lon="0.73628">
        <ele>253.7</ele>
        <time>2026-08-10T15:25:14.000Z</time>
      </trkpt>
      <trkpt lat="45.82707" lon="0.736">
        <ele>254.3</ele>
        <time>2026-08-10T15:25:21.000Z</time>
      </trkpt>
      <trkpt lat="45.82706" lon="0.73592">
        <ele>254.5</ele>
        <time>2026-08-10T15:25:23.000Z</time>
      </trkpt>
      <trkpt lat="45.82706" lon="0.73568">
        <ele>255.1</ele>
        <time>2026-08-10T15:25:29.000Z</time>
      </trkpt>
      <trkpt lat="45.82705" lon="0.73556">
        <ele>255.1</ele>
        <time>2026-08-10T15:25:32.000Z</time>
      </trkpt>
      <trkpt lat="45.82703" lon="0.73543">
        <ele>255.5</ele>
        <time>2026-08-10T15:25:36.000Z</time>
      </trkpt>
      <trkpt lat="45.82699" lon="0.73529">
        <ele>255.6</ele>
        <time>2026-08-10T15:25:40.000Z</time>
      </trkpt>
      <trkpt lat="45.82697" lon="0.73524">
        <ele>255.6</ele>
        <time>2026-08-10T15:25:42.000Z</time>
      </trkpt>
      <trkpt lat="45.82686" lon="0.73497">
        <ele>256.8</ele>
        <time>2026-08-10T15:25:50.000Z</time>
      </trkpt>
      <trkpt lat="45.82683" lon="0.73491">
        <ele>256.9</ele>
        <time>2026-08-10T15:25:52.000Z</time>
      </trkpt>
      <trkpt lat="45.82672" lon="0.73467">
        <ele>257.4</ele>
        <time>2026-08-10T15:26:00.000Z</time>
      </trkpt>
      <trkpt lat="45.82668" lon="0.73457">
        <ele>257.6</ele>
        <time>2026-08-10T15:26:04.000Z</time>
      </trkpt>
      <trkpt lat="45.82664" lon="0.73448">
        <ele>258</ele>
        <time>2026-08-10T15:26:08.000Z</time>
      </trkpt>
      <trkpt lat="45.82655" lon="0.7343">
        <ele>258.7</ele>
        <time>2026-08-10T15:26:15.000Z</time>
      </trkpt>
      <trkpt lat="45.82652" lon="0.73424">
        <ele>258.9</ele>
        <time>2026-08-10T15:26:17.000Z</time>
      </trkpt>
      <trkpt lat="45.82645" lon="0.73412">
        <ele>259.2</ele>
        <time>2026-08-10T15:26:23.000Z</time>
      </trkpt>
      <trkpt lat="45.82641" lon="0.73402">
        <ele>259.5</ele>
        <time>2026-08-10T15:26:28.000Z</time>
      </trkpt>
      <trkpt lat="45.82639" lon="0.73396">
        <ele>259.8</ele>
        <time>2026-08-10T15:26:31.000Z</time>
      </trkpt>
      <trkpt lat="45.82636" lon="0.73387">
        <ele>260.4</ele>
        <time>2026-08-10T15:26:35.000Z</time>
      </trkpt>
      <trkpt lat="45.82633" lon="0.73383">
        <ele>260.8</ele>
        <time>2026-08-10T15:26:37.000Z</time>
      </trkpt>
      <trkpt lat="45.82632" lon="0.73381">
        <ele>261</ele>
        <time>2026-08-10T15:26:38.000Z</time>
      </trkpt>
      <trkpt lat="45.82622" lon="0.73365">
        <ele>262.4</ele>
        <time>2026-08-10T15:26:45.000Z</time>
      </trkpt>
      <trkpt lat="45.82619" lon="0.73359">
        <ele>262.8</ele>
        <time>2026-08-10T15:26:48.000Z</time>
      </trkpt>
      <trkpt lat="45.82616" lon="0.73353">
        <ele>263.1</ele>
        <time>2026-08-10T15:26:52.000Z</time>
      </trkpt>
      <trkpt lat="45.8261" lon="0.73342">
        <ele>263.8</ele>
        <time>2026-08-10T15:26:57.000Z</time>
      </trkpt>
      <trkpt lat="45.82606" lon="0.73334">
        <ele>264.3</ele>
        <time>2026-08-10T15:27:01.000Z</time>
      </trkpt>
      <trkpt lat="45.82601" lon="0.73326">
        <ele>265.2</ele>
        <time>2026-08-10T15:27:05.000Z</time>
      </trkpt>
      <trkpt lat="45.82594" lon="0.73314">
        <ele>266</ele>
        <time>2026-08-10T15:27:11.000Z</time>
      </trkpt>
      <trkpt lat="45.82593" lon="0.73312">
        <ele>266.1</ele>
        <time>2026-08-10T15:27:12.000Z</time>
      </trkpt>
      <trkpt lat="45.82589" lon="0.73306">
        <ele>266.2</ele>
        <time>2026-08-10T15:27:15.000Z</time>
      </trkpt>
      <trkpt lat="45.82588" lon="0.73305">
        <ele>266.2</ele>
        <time>2026-08-10T15:27:16.000Z</time>
      </trkpt>
      <trkpt lat="45.82579" lon="0.73288">
        <ele>266.8</ele>
        <time>2026-08-10T15:27:24.000Z</time>
      </trkpt>
      <trkpt lat="45.82577" lon="0.73284">
        <ele>267</ele>
        <time>2026-08-10T15:27:26.000Z</time>
      </trkpt>
      <trkpt lat="45.82568" lon="0.73269">
        <ele>267.7</ele>
        <time>2026-08-10T15:27:34.000Z</time>
      </trkpt>
      <trkpt lat="45.82561" lon="0.73258">
        <ele>267.9</ele>
        <time>2026-08-10T15:27:40.000Z</time>
      </trkpt>
      <trkpt lat="45.82553" lon="0.73241">
        <ele>268.4</ele>
        <time>2026-08-10T15:27:48.000Z</time>
      </trkpt>
      <trkpt lat="45.82547" lon="0.73232">
        <ele>268.8</ele>
        <time>2026-08-10T15:27:53.000Z</time>
      </trkpt>
      <trkpt lat="45.82539" lon="0.73219">
        <ele>269.1</ele>
        <time>2026-08-10T15:27:59.000Z</time>
      </trkpt>
      <trkpt lat="45.8253" lon="0.73204">
        <ele>269.7</ele>
        <time>2026-08-10T15:28:05.000Z</time>
      </trkpt>
      <trkpt lat="45.82521" lon="0.73189">
        <ele>270</ele>
        <time>2026-08-10T15:28:11.000Z</time>
      </trkpt>
      <trkpt lat="45.82515" lon="0.73177">
        <ele>270</ele>
        <time>2026-08-10T15:28:16.000Z</time>
      </trkpt>
      <trkpt lat="45.82513" lon="0.73174">
        <ele>270</ele>
        <time>2026-08-10T15:28:20.000Z</time>
      </trkpt>
      <trkpt lat="45.82506" lon="0.73165">
        <ele>270</ele>
        <time>2026-08-10T15:29:06.000Z</time>
      </trkpt>
      <trkpt lat="45.82499" lon="0.73155">
        <ele>270</ele>
        <time>2026-08-10T15:29:11.000Z</time>
      </trkpt>
      <trkpt lat="45.82486" lon="0.73135">
        <ele>269.9</ele>
        <time>2026-08-10T15:29:17.000Z</time>
      </trkpt>
      <trkpt lat="45.82471" lon="0.7311">
        <ele>269</ele>
        <time>2026-08-10T15:29:23.000Z</time>
      </trkpt>
      <trkpt lat="45.8245" lon="0.73077">
        <ele>268.2</ele>
        <time>2026-08-10T15:29:30.000Z</time>
      </trkpt>
      <trkpt lat="45.82414" lon="0.73021">
        <ele>267</ele>
        <time>2026-08-10T15:29:41.000Z</time>
      </trkpt>
      <trkpt lat="45.82381" lon="0.72971">
        <ele>266.4</ele>
        <time>2026-08-10T15:29:50.000Z</time>
      </trkpt>
      <trkpt lat="45.82361" lon="0.72945">
        <ele>266</ele>
        <time>2026-08-10T15:29:55.000Z</time>
      </trkpt>
      <trkpt lat="45.82356" lon="0.7294">
        <ele>265.7</ele>
        <time>2026-08-10T15:29:56.000Z</time>
      </trkpt>
      <trkpt lat="45.82347" lon="0.72929">
        <ele>265.5</ele>
        <time>2026-08-10T15:29:58.000Z</time>
      </trkpt>
      <trkpt lat="45.82302" lon="0.72878">
        <ele>265.3</ele>
        <time>2026-08-10T15:30:09.000Z</time>
      </trkpt>
      <trkpt lat="45.82298" lon="0.72873">
        <ele>265.3</ele>
        <time>2026-08-10T15:30:10.000Z</time>
      </trkpt>
      <trkpt lat="45.82254" lon="0.72821">
        <ele>265.1</ele>
        <time>2026-08-10T15:30:21.000Z</time>
      </trkpt>
      <trkpt lat="45.82221" lon="0.72784">
        <ele>265.8</ele>
        <time>2026-08-10T15:30:30.000Z</time>
      </trkpt>
      <trkpt lat="45.82198" lon="0.72756">
        <ele>266.7</ele>
        <time>2026-08-10T15:30:38.000Z</time>
      </trkpt>
      <trkpt lat="45.82173" lon="0.72728">
        <ele>267</ele>
        <time>2026-08-10T15:30:47.000Z</time>
      </trkpt>
      <trkpt lat="45.8215" lon="0.72702">
        <ele>268.4</ele>
        <time>2026-08-10T15:30:56.000Z</time>
      </trkpt>
      <trkpt lat="45.8214" lon="0.72689">
        <ele>269</ele>
        <time>2026-08-10T15:31:00.000Z</time>
      </trkpt>
      <trkpt lat="45.82135" lon="0.72683">
        <ele>269</ele>
        <time>2026-08-10T15:31:02.000Z</time>
      </trkpt>
      <trkpt lat="45.82106" lon="0.72651">
        <ele>269</ele>
        <time>2026-08-10T15:31:12.000Z</time>
      </trkpt>
      <trkpt lat="45.8208" lon="0.72633">
        <ele>269.1</ele>
        <time>2026-08-10T15:31:20.000Z</time>
      </trkpt>
      <trkpt lat="45.82048" lon="0.72608">
        <ele>269.2</ele>
        <time>2026-08-10T15:31:29.000Z</time>
      </trkpt>
      <trkpt lat="45.8204" lon="0.72602">
        <ele>269.4</ele>
        <time>2026-08-10T15:31:31.000Z</time>
      </trkpt>
      <trkpt lat="45.82013" lon="0.72576">
        <ele>269.5</ele>
        <time>2026-08-10T15:31:39.000Z</time>
      </trkpt>
      <trkpt lat="45.82004" lon="0.72565">
        <ele>269.8</ele>
        <time>2026-08-10T15:31:42.000Z</time>
      </trkpt>
      <trkpt lat="45.81995" lon="0.72554">
        <ele>270</ele>
        <time>2026-08-10T15:31:45.000Z</time>
      </trkpt>
      <trkpt lat="45.81965" lon="0.72515">
        <ele>269.7</ele>
        <time>2026-08-10T15:31:55.000Z</time>
      </trkpt>
      <trkpt lat="45.81948" lon="0.72491">
        <ele>269.6</ele>
        <time>2026-08-10T15:32:01.000Z</time>
      </trkpt>
      <trkpt lat="45.81945" lon="0.72487">
        <ele>269.5</ele>
        <time>2026-08-10T15:32:02.000Z</time>
      </trkpt>
      <trkpt lat="45.81914" lon="0.72444">
        <ele>270.1</ele>
        <time>2026-08-10T15:32:12.000Z</time>
      </trkpt>
      <trkpt lat="45.81887" lon="0.72407">
        <ele>270.1</ele>
        <time>2026-08-10T15:32:20.000Z</time>
      </trkpt>
      <trkpt lat="45.81847" lon="0.72351">
        <ele>270.3</ele>
        <time>2026-08-10T15:32:32.000Z</time>
      </trkpt>
      <trkpt lat="45.81843" lon="0.72346">
        <ele>270.3</ele>
        <time>2026-08-10T15:32:33.000Z</time>
      </trkpt>
      <trkpt lat="45.8181" lon="0.723">
        <ele>270</ele>
        <time>2026-08-10T15:32:42.000Z</time>
      </trkpt>
      <trkpt lat="45.8178" lon="0.72258">
        <ele>269.1</ele>
        <time>2026-08-10T15:32:49.000Z</time>
      </trkpt>
      <trkpt lat="45.81742" lon="0.72205">
        <ele>267.6</ele>
        <time>2026-08-10T15:32:57.000Z</time>
      </trkpt>
      <trkpt lat="45.81737" lon="0.72198">
        <ele>267.5</ele>
        <time>2026-08-10T15:32:58.000Z</time>
      </trkpt>
      <trkpt lat="45.81702" lon="0.7215">
        <ele>266.1</ele>
        <time>2026-08-10T15:33:05.000Z</time>
      </trkpt>
      <trkpt lat="45.81692" lon="0.72137">
        <ele>265.9</ele>
        <time>2026-08-10T15:33:07.000Z</time>
      </trkpt>
      <trkpt lat="45.81673" lon="0.7211">
        <ele>265.5</ele>
        <time>2026-08-10T15:33:11.000Z</time>
      </trkpt>
      <trkpt lat="45.81645" lon="0.7207">
        <ele>264.9</ele>
        <time>2026-08-10T15:33:17.000Z</time>
      </trkpt>
      <trkpt lat="45.81636" lon="0.72056">
        <ele>264.9</ele>
        <time>2026-08-10T15:33:19.000Z</time>
      </trkpt>
      <trkpt lat="45.81627" lon="0.72041">
        <ele>264.9</ele>
        <time>2026-08-10T15:33:21.000Z</time>
      </trkpt>
      <trkpt lat="45.81614" lon="0.72008">
        <ele>264.2</ele>
        <time>2026-08-10T15:33:25.000Z</time>
      </trkpt>
      <trkpt lat="45.81599" lon="0.71945">
        <ele>262.2</ele>
        <time>2026-08-10T15:33:32.000Z</time>
      </trkpt>
      <trkpt lat="45.81589" lon="0.71901">
        <ele>261.8</ele>
        <time>2026-08-10T15:33:37.000Z</time>
      </trkpt>
      <trkpt lat="45.81583" lon="0.71884">
        <ele>262.1</ele>
        <time>2026-08-10T15:33:39.000Z</time>
      </trkpt>
      <trkpt lat="45.81567" lon="0.71856">
        <ele>262.1</ele>
        <time>2026-08-10T15:33:43.000Z</time>
      </trkpt>
      <trkpt lat="45.81563" lon="0.7185">
        <ele>262.2</ele>
        <time>2026-08-10T15:33:44.000Z</time>
      </trkpt>
      <trkpt lat="45.81539" lon="0.71817">
        <ele>262.8</ele>
        <time>2026-08-10T15:33:50.000Z</time>
      </trkpt>
      <trkpt lat="45.81517" lon="0.71783">
        <ele>263.8</ele>
        <time>2026-08-10T15:33:57.000Z</time>
      </trkpt>
      <trkpt lat="45.81501" lon="0.71756">
        <ele>264</ele>
        <time>2026-08-10T15:34:03.000Z</time>
      </trkpt>
      <trkpt lat="45.81496" lon="0.71748">
        <ele>264</ele>
        <time>2026-08-10T15:34:05.000Z</time>
      </trkpt>
      <trkpt lat="45.81481" lon="0.71721">
        <ele>264.7</ele>
        <time>2026-08-10T15:34:11.000Z</time>
      </trkpt>
      <trkpt lat="45.81475" lon="0.71706">
        <ele>264.7</ele>
        <time>2026-08-10T15:34:14.000Z</time>
      </trkpt>
      <trkpt lat="45.8147" lon="0.71696">
        <ele>264.8</ele>
        <time>2026-08-10T15:34:16.000Z</time>
      </trkpt>
      <trkpt lat="45.81453" lon="0.71656">
        <ele>264</ele>
        <time>2026-08-10T15:34:23.000Z</time>
      </trkpt>
      <trkpt lat="45.81437" lon="0.71614">
        <ele>262.4</ele>
        <time>2026-08-10T15:34:29.000Z</time>
      </trkpt>
      <trkpt lat="45.81412" lon="0.71551">
        <ele>263</ele>
        <time>2026-08-10T15:34:38.000Z</time>
      </trkpt>
      <trkpt lat="45.81393" lon="0.7152">
        <ele>263.4</ele>
        <time>2026-08-10T15:34:44.000Z</time>
      </trkpt>
      <trkpt lat="45.8139" lon="0.71517">
        <ele>263.4</ele>
        <time>2026-08-10T15:34:45.000Z</time>
      </trkpt>
      <trkpt lat="45.81367" lon="0.7149">
        <ele>264.4</ele>
        <time>2026-08-10T15:34:52.000Z</time>
      </trkpt>
      <trkpt lat="45.81356" lon="0.71476">
        <ele>264.7</ele>
        <time>2026-08-10T15:34:56.000Z</time>
      </trkpt>
      <trkpt lat="45.8134" lon="0.71456">
        <ele>264.4</ele>
        <time>2026-08-10T15:35:01.000Z</time>
      </trkpt>
      <trkpt lat="45.81319" lon="0.71423">
        <ele>264</ele>
        <time>2026-08-10T15:35:07.000Z</time>
      </trkpt>
      <trkpt lat="45.81315" lon="0.71416">
        <ele>263.7</ele>
        <time>2026-08-10T15:35:08.000Z</time>
      </trkpt>
      <trkpt lat="45.81302" lon="0.71386">
        <ele>261.8</ele>
        <time>2026-08-10T15:35:12.000Z</time>
      </trkpt>
      <trkpt lat="45.81298" lon="0.71377">
        <ele>261.2</ele>
        <time>2026-08-10T15:35:13.000Z</time>
      </trkpt>
      <trkpt lat="45.81284" lon="0.71339">
        <ele>258.7</ele>
        <time>2026-08-10T15:35:17.000Z</time>
      </trkpt>
      <trkpt lat="45.81281" lon="0.71329">
        <ele>257.9</ele>
        <time>2026-08-10T15:35:18.000Z</time>
      </trkpt>
      <trkpt lat="45.81265" lon="0.71287">
        <ele>254.7</ele>
        <time>2026-08-10T15:35:22.000Z</time>
      </trkpt>
      <trkpt lat="45.81253" lon="0.71255">
        <ele>254.1</ele>
        <time>2026-08-10T15:35:25.000Z</time>
      </trkpt>
      <trkpt lat="45.81241" lon="0.71225">
        <ele>254.9</ele>
        <time>2026-08-10T15:35:28.000Z</time>
      </trkpt>
      <trkpt lat="45.8122" lon="0.7117">
        <ele>256</ele>
        <time>2026-08-10T15:35:34.000Z</time>
      </trkpt>
      <trkpt lat="45.81217" lon="0.71162">
        <ele>256.2</ele>
        <time>2026-08-10T15:35:35.000Z</time>
      </trkpt>
      <trkpt lat="45.81205" lon="0.71133">
        <ele>257.2</ele>
        <time>2026-08-10T15:35:39.000Z</time>
      </trkpt>
      <trkpt lat="45.812" lon="0.71119">
        <ele>257.7</ele>
        <time>2026-08-10T15:35:41.000Z</time>
      </trkpt>
      <trkpt lat="45.8119" lon="0.71093">
        <ele>257.8</ele>
        <time>2026-08-10T15:35:45.000Z</time>
      </trkpt>
      <trkpt lat="45.8117" lon="0.71043">
        <ele>258.1</ele>
        <time>2026-08-10T15:35:53.000Z</time>
      </trkpt>
      <trkpt lat="45.81163" lon="0.71023">
        <ele>257.7</ele>
        <time>2026-08-10T15:35:56.000Z</time>
      </trkpt>
      <trkpt lat="45.81144" lon="0.70974">
        <ele>257.9</ele>
        <time>2026-08-10T15:36:03.000Z</time>
      </trkpt>
      <trkpt lat="45.81125" lon="0.70935">
        <ele>256.8</ele>
        <time>2026-08-10T15:36:09.000Z</time>
      </trkpt>
      <trkpt lat="45.81117" lon="0.70924">
        <ele>256.4</ele>
        <time>2026-08-10T15:36:11.000Z</time>
      </trkpt>
      <trkpt lat="45.81089" lon="0.70897">
        <ele>256.2</ele>
        <time>2026-08-10T15:36:17.000Z</time>
      </trkpt>
      <trkpt lat="45.81079" lon="0.70889">
        <ele>256</ele>
        <time>2026-08-10T15:36:19.000Z</time>
      </trkpt>
      <trkpt lat="45.81043" lon="0.70865">
        <ele>256</ele>
        <time>2026-08-10T15:36:26.000Z</time>
      </trkpt>
      <trkpt lat="45.80999" lon="0.70834">
        <ele>256</ele>
        <time>2026-08-10T15:36:35.000Z</time>
      </trkpt>
      <trkpt lat="45.80994" lon="0.70831">
        <ele>255.8</ele>
        <time>2026-08-10T15:36:36.000Z</time>
      </trkpt>
      <trkpt lat="45.80948" lon="0.70796">
        <ele>254.1</ele>
        <time>2026-08-10T15:36:44.000Z</time>
      </trkpt>
      <trkpt lat="45.80943" lon="0.70792">
        <ele>253.9</ele>
        <time>2026-08-10T15:36:45.000Z</time>
      </trkpt>
      <trkpt lat="45.80902" lon="0.70762">
        <ele>252</ele>
        <time>2026-08-10T15:36:51.000Z</time>
      </trkpt>
      <trkpt lat="45.80874" lon="0.7074">
        <ele>250.4</ele>
        <time>2026-08-10T15:36:55.000Z</time>
      </trkpt>
      <trkpt lat="45.80842" lon="0.70716">
        <ele>248.5</ele>
        <time>2026-08-10T15:36:59.000Z</time>
      </trkpt>
      <trkpt lat="45.8082" lon="0.70702">
        <ele>247.3</ele>
        <time>2026-08-10T15:37:02.000Z</time>
      </trkpt>
      <trkpt lat="45.80793" lon="0.70689">
        <ele>245.5</ele>
        <time>2026-08-10T15:37:05.000Z</time>
      </trkpt>
      <trkpt lat="45.80776" lon="0.70683">
        <ele>244.9</ele>
        <time>2026-08-10T15:37:07.000Z</time>
      </trkpt>
      <trkpt lat="45.8075" lon="0.70672">
        <ele>243.2</ele>
        <time>2026-08-10T15:37:10.000Z</time>
      </trkpt>
      <trkpt lat="45.80723" lon="0.70661">
        <ele>241.8</ele>
        <time>2026-08-10T15:37:13.000Z</time>
      </trkpt>
      <trkpt lat="45.80715" lon="0.70657">
        <ele>241.4</ele>
        <time>2026-08-10T15:37:14.000Z</time>
      </trkpt>
      <trkpt lat="45.8069" lon="0.70646">
        <ele>240.1</ele>
        <time>2026-08-10T15:37:17.000Z</time>
      </trkpt>
      <trkpt lat="45.80669" lon="0.70638">
        <ele>239</ele>
        <time>2026-08-10T15:37:19.000Z</time>
      </trkpt>
      <trkpt lat="45.8066" lon="0.70634">
        <ele>238.8</ele>
        <time>2026-08-10T15:37:20.000Z</time>
      </trkpt>
      <trkpt lat="45.80635" lon="0.70623">
        <ele>237.8</ele>
        <time>2026-08-10T15:37:23.000Z</time>
      </trkpt>
      <trkpt lat="45.80606" lon="0.70612">
        <ele>237</ele>
        <time>2026-08-10T15:37:26.000Z</time>
      </trkpt>
      <trkpt lat="45.80574" lon="0.70599">
        <ele>236.6</ele>
        <time>2026-08-10T15:37:30.000Z</time>
      </trkpt>
      <trkpt lat="45.80531" lon="0.70582">
        <ele>235.1</ele>
        <time>2026-08-10T15:37:35.000Z</time>
      </trkpt>
      <trkpt lat="45.80491" lon="0.70574">
        <ele>234.3</ele>
        <time>2026-08-10T15:37:40.000Z</time>
      </trkpt>
      <trkpt lat="45.80452" lon="0.70578">
        <ele>233.1</ele>
        <time>2026-08-10T15:37:45.000Z</time>
      </trkpt>
      <trkpt lat="45.80445" lon="0.7058">
        <ele>232.9</ele>
        <time>2026-08-10T15:37:46.000Z</time>
      </trkpt>
      <trkpt lat="45.80414" lon="0.7059">
        <ele>231.8</ele>
        <time>2026-08-10T15:37:50.000Z</time>
      </trkpt>
      <trkpt lat="45.80402" lon="0.70596">
        <ele>231</ele>
        <time>2026-08-10T15:37:52.000Z</time>
      </trkpt>
      <trkpt lat="45.80393" lon="0.70601">
        <ele>230.3</ele>
        <time>2026-08-10T15:37:54.000Z</time>
      </trkpt>
      <trkpt lat="45.80388" lon="0.70605">
        <ele>230</ele>
        <time>2026-08-10T15:37:55.000Z</time>
      </trkpt>
      <trkpt lat="45.80384" lon="0.70612">
        <ele>229.8</ele>
        <time>2026-08-10T15:37:56.000Z</time>
      </trkpt>
      <trkpt lat="45.80382" lon="0.70618">
        <ele>229.7</ele>
        <time>2026-08-10T15:37:57.000Z</time>
      </trkpt>
      <trkpt lat="45.80382" lon="0.70627">
        <ele>229.6</ele>
        <time>2026-08-10T15:37:58.000Z</time>
      </trkpt>
      <trkpt lat="45.80383" lon="0.70634">
        <ele>229.6</ele>
        <time>2026-08-10T15:37:59.000Z</time>
      </trkpt>
      <trkpt lat="45.80383" lon="0.7064">
        <ele>229.6</ele>
        <time>2026-08-10T15:38:00.000Z</time>
      </trkpt>
      <trkpt lat="45.80382" lon="0.70657">
        <ele>230.2</ele>
        <time>2026-08-10T15:38:03.000Z</time>
      </trkpt>
      <trkpt lat="45.80383" lon="0.70663">
        <ele>230.4</ele>
        <time>2026-08-10T15:38:04.000Z</time>
      </trkpt>
      <trkpt lat="45.80386" lon="0.70678">
        <ele>230.4</ele>
        <time>2026-08-10T15:38:08.000Z</time>
      </trkpt>
      <trkpt lat="45.80389" lon="0.70686">
        <ele>230.3</ele>
        <time>2026-08-10T15:38:14.000Z</time>
      </trkpt>
      <trkpt lat="45.80389" lon="0.70686">
        <ele>230.3</ele>
        <time>2026-08-10T15:38:15.000Z</time>
      </trkpt>
      <trkpt lat="45.80437" lon="0.70743">
        <ele>231.4</ele>
        <time>2026-08-11T08:50:25.000Z</time>
      </trkpt>
      <trkpt lat="45.80421" lon="0.70728">
        <ele>231.3</ele>
        <time>2026-08-11T08:50:32.000Z</time>
      </trkpt>
      <trkpt lat="45.80417" lon="0.70707">
        <ele>231.6</ele>
        <time>2026-08-11T08:50:39.000Z</time>
      </trkpt>
      <trkpt lat="45.80412" lon="0.70693">
        <ele>231.7</ele>
        <time>2026-08-11T08:50:45.000Z</time>
      </trkpt>
      <trkpt lat="45.80408" lon="0.70684">
        <ele>231.8</ele>
        <time>2026-08-11T08:50:50.000Z</time>
      </trkpt>
      <trkpt lat="45.80407" lon="0.70684">
        <ele>231.6</ele>
        <time>2026-08-11T08:50:51.000Z</time>
      </trkpt>
      <trkpt lat="45.80397" lon="0.70687">
        <ele>230.9</ele>
        <time>2026-08-11T08:50:56.000Z</time>
      </trkpt>
      <trkpt lat="45.80392" lon="0.70686">
        <ele>230.5</ele>
        <time>2026-08-11T08:51:01.000Z</time>
      </trkpt>
      <trkpt lat="45.80392" lon="0.70687">
        <ele>230.5</ele>
        <time>2026-08-11T08:51:03.000Z</time>
      </trkpt>
      <trkpt lat="45.80393" lon="0.70686">
        <ele>230.6</ele>
        <time>2026-08-11T08:57:25.000Z</time>
      </trkpt>
      <trkpt lat="45.8039" lon="0.70678">
        <ele>230.7</ele>
        <time>2026-08-11T08:57:28.000Z</time>
      </trkpt>
      <trkpt lat="45.80389" lon="0.70674">
        <ele>230.7</ele>
        <time>2026-08-11T08:57:29.000Z</time>
      </trkpt>
      <trkpt lat="45.80386" lon="0.70661">
        <ele>230.5</ele>
        <time>2026-08-11T08:57:33.000Z</time>
      </trkpt>
      <trkpt lat="45.80385" lon="0.70657">
        <ele>230.4</ele>
        <time>2026-08-11T08:57:34.000Z</time>
      </trkpt>
      <trkpt lat="45.80388" lon="0.70644">
        <ele>230.1</ele>
        <time>2026-08-11T08:57:42.000Z</time>
      </trkpt>
      <trkpt lat="45.80387" lon="0.70627">
        <ele>229.9</ele>
        <time>2026-08-11T08:57:47.000Z</time>
      </trkpt>
      <trkpt lat="45.8038" lon="0.70612">
        <ele>229.7</ele>
        <time>2026-08-11T08:57:51.000Z</time>
      </trkpt>
      <trkpt lat="45.80365" lon="0.70617">
        <ele>228.9</ele>
        <time>2026-08-11T08:57:55.000Z</time>
      </trkpt>
      <trkpt lat="45.80342" lon="0.70628">
        <ele>227.8</ele>
        <time>2026-08-11T08:58:00.000Z</time>
      </trkpt>
      <trkpt lat="45.80337" lon="0.7063">
        <ele>227.8</ele>
        <time>2026-08-11T08:58:01.000Z</time>
      </trkpt>
      <trkpt lat="45.80306" lon="0.70641">
        <ele>225.1</ele>
        <time>2026-08-11T08:58:07.000Z</time>
      </trkpt>
      <trkpt lat="45.80297" lon="0.70646">
        <ele>225.5</ele>
        <time>2026-08-11T08:58:09.000Z</time>
      </trkpt>
      <trkpt lat="45.80293" lon="0.70647">
        <ele>225.8</ele>
        <time>2026-08-11T08:58:10.000Z</time>
      </trkpt>
      <trkpt lat="45.80276" lon="0.70655">
        <ele>226.4</ele>
        <time>2026-08-11T08:58:14.000Z</time>
      </trkpt>
      <trkpt lat="45.80245" lon="0.70668">
        <ele>225.9</ele>
        <time>2026-08-11T08:58:22.000Z</time>
      </trkpt>
      <trkpt lat="45.80241" lon="0.70669">
        <ele>225.3</ele>
        <time>2026-08-11T08:58:23.000Z</time>
      </trkpt>
      <trkpt lat="45.80229" lon="0.70674">
        <ele>223</ele>
        <time>2026-08-11T08:58:28.000Z</time>
      </trkpt>
      <trkpt lat="45.80226" lon="0.70674">
        <ele>222.6</ele>
        <time>2026-08-11T08:58:32.000Z</time>
      </trkpt>
      <trkpt lat="45.80223" lon="0.70676">
        <ele>222.2</ele>
        <time>2026-08-11T08:59:44.000Z</time>
      </trkpt>
      <trkpt lat="45.80218" lon="0.70678">
        <ele>222.7</ele>
        <time>2026-08-11T08:59:47.000Z</time>
      </trkpt>
      <trkpt lat="45.80202" lon="0.70686">
        <ele>224.9</ele>
        <time>2026-08-11T08:59:53.000Z</time>
      </trkpt>
      <trkpt lat="45.80181" lon="0.70695">
        <ele>226.4</ele>
        <time>2026-08-11T09:00:00.000Z</time>
      </trkpt>
      <trkpt lat="45.80151" lon="0.70707">
        <ele>226.2</ele>
        <time>2026-08-11T09:00:09.000Z</time>
      </trkpt>
      <trkpt lat="45.80115" lon="0.70723">
        <ele>226.8</ele>
        <time>2026-08-11T09:00:20.000Z</time>
      </trkpt>
      <trkpt lat="45.8009" lon="0.70733">
        <ele>227.2</ele>
        <time>2026-08-11T09:00:28.000Z</time>
      </trkpt>
      <trkpt lat="45.80073" lon="0.70741">
        <ele>228.2</ele>
        <time>2026-08-11T09:00:35.000Z</time>
      </trkpt>
      <trkpt lat="45.80056" lon="0.70748">
        <ele>229</ele>
        <time>2026-08-11T09:00:42.000Z</time>
      </trkpt>
      <trkpt lat="45.80054" lon="0.70748">
        <ele>229.1</ele>
        <time>2026-08-11T09:00:43.000Z</time>
      </trkpt>
      <trkpt lat="45.80042" lon="0.70753">
        <ele>230</ele>
        <time>2026-08-11T09:00:49.000Z</time>
      </trkpt>
      <trkpt lat="45.80036" lon="0.70756">
        <ele>230.4</ele>
        <time>2026-08-11T09:00:52.000Z</time>
      </trkpt>
      <trkpt lat="45.80025" lon="0.70761">
        <ele>231.2</ele>
        <time>2026-08-11T09:00:58.000Z</time>
      </trkpt>
      <trkpt lat="45.80021" lon="0.70762">
        <ele>231.5</ele>
        <time>2026-08-11T09:01:00.000Z</time>
      </trkpt>
      <trkpt lat="45.80011" lon="0.70767">
        <ele>232.2</ele>
        <time>2026-08-11T09:01:05.000Z</time>
      </trkpt>
      <trkpt lat="45.8" lon="0.70776">
        <ele>233</ele>
        <time>2026-08-11T09:01:12.000Z</time>
      </trkpt>
      <trkpt lat="45.79998" lon="0.70778">
        <ele>233.1</ele>
        <time>2026-08-11T09:01:13.000Z</time>
      </trkpt>
      <trkpt lat="45.79984" lon="0.7079">
        <ele>233.4</ele>
        <time>2026-08-11T09:01:21.000Z</time>
      </trkpt>
      <trkpt lat="45.79974" lon="0.708">
        <ele>233.9</ele>
        <time>2026-08-11T09:01:26.000Z</time>
      </trkpt>
      <trkpt lat="45.7997" lon="0.70805">
        <ele>234.1</ele>
        <time>2026-08-11T09:01:28.000Z</time>
      </trkpt>
      <trkpt lat="45.79955" lon="0.70821">
        <ele>234.4</ele>
        <time>2026-08-11T09:01:36.000Z</time>
      </trkpt>
      <trkpt lat="45.79948" lon="0.70827">
        <ele>234.8</ele>
        <time>2026-08-11T09:01:39.000Z</time>
      </trkpt>
      <trkpt lat="45.79938" lon="0.70839">
        <ele>235</ele>
        <time>2026-08-11T09:01:44.000Z</time>
      </trkpt>
      <trkpt lat="45.79917" lon="0.70861">
        <ele>235</ele>
        <time>2026-08-11T09:01:54.000Z</time>
      </trkpt>
      <trkpt lat="45.79898" lon="0.70881">
        <ele>235.9</ele>
        <time>2026-08-11T09:02:03.000Z</time>
      </trkpt>
      <trkpt lat="45.79881" lon="0.7089">
        <ele>236.2</ele>
        <time>2026-08-11T09:02:09.000Z</time>
      </trkpt>
      <trkpt lat="45.79879" lon="0.7089">
        <ele>236.3</ele>
        <time>2026-08-11T09:02:10.000Z</time>
      </trkpt>
      <trkpt lat="45.79851" lon="0.70888">
        <ele>237</ele>
        <time>2026-08-11T09:02:20.000Z</time>
      </trkpt>
      <trkpt lat="45.79831" lon="0.7088">
        <ele>237.3</ele>
        <time>2026-08-11T09:02:28.000Z</time>
      </trkpt>
      <trkpt lat="45.79829" lon="0.70879">
        <ele>237.3</ele>
        <time>2026-08-11T09:02:29.000Z</time>
      </trkpt>
      <trkpt lat="45.79804" lon="0.70869">
        <ele>237.5</ele>
        <time>2026-08-11T09:02:38.000Z</time>
      </trkpt>
      <trkpt lat="45.79775" lon="0.70858">
        <ele>239.1</ele>
        <time>2026-08-11T09:02:49.000Z</time>
      </trkpt>
      <trkpt lat="45.79772" lon="0.70857">
        <ele>239.2</ele>
        <time>2026-08-11T09:02:50.000Z</time>
      </trkpt>
      <trkpt lat="45.79749" lon="0.70845">
        <ele>240.1</ele>
        <time>2026-08-11T09:02:59.000Z</time>
      </trkpt>
      <trkpt lat="45.79739" lon="0.70839">
        <ele>240.3</ele>
        <time>2026-08-11T09:03:03.000Z</time>
      </trkpt>
      <trkpt lat="45.79728" lon="0.70828">
        <ele>240.3</ele>
        <time>2026-08-11T09:03:08.000Z</time>
      </trkpt>
      <trkpt lat="45.7971" lon="0.70805">
        <ele>240.6</ele>
        <time>2026-08-11T09:03:17.000Z</time>
      </trkpt>
      <trkpt lat="45.79707" lon="0.70802">
        <ele>240.6</ele>
        <time>2026-08-11T09:03:18.000Z</time>
      </trkpt>
      <trkpt lat="45.79695" lon="0.70788">
        <ele>240.7</ele>
        <time>2026-08-11T09:03:24.000Z</time>
      </trkpt>
      <trkpt lat="45.79675" lon="0.7076">
        <ele>241.6</ele>
        <time>2026-08-11T09:03:33.000Z</time>
      </trkpt>
      <trkpt lat="45.79664" lon="0.70739">
        <ele>241.9</ele>
        <time>2026-08-11T09:03:39.000Z</time>
      </trkpt>
      <trkpt lat="45.7966" lon="0.70729">
        <ele>241.9</ele>
        <time>2026-08-11T09:03:42.000Z</time>
      </trkpt>
      <trkpt lat="45.79652" lon="0.70701">
        <ele>242.4</ele>
        <time>2026-08-11T09:03:50.000Z</time>
      </trkpt>
      <trkpt lat="45.7965" lon="0.70695">
        <ele>242.6</ele>
        <time>2026-08-11T09:03:52.000Z</time>
      </trkpt>
      <trkpt lat="45.79638" lon="0.7066">
        <ele>243</ele>
        <time>2026-08-11T09:04:00.000Z</time>
      </trkpt>
      <trkpt lat="45.79629" lon="0.70634">
        <ele>243.2</ele>
        <time>2026-08-11T09:04:07.000Z</time>
      </trkpt>
      <trkpt lat="45.79627" lon="0.70626">
        <ele>243.5</ele>
        <time>2026-08-11T09:04:09.000Z</time>
      </trkpt>
      <trkpt lat="45.79621" lon="0.70607">
        <ele>244</ele>
        <time>2026-08-11T09:04:14.000Z</time>
      </trkpt>
      <trkpt lat="45.79613" lon="0.70582">
        <ele>244</ele>
        <time>2026-08-11T09:04:21.000Z</time>
      </trkpt>
      <trkpt lat="45.79603" lon="0.70557">
        <ele>244.3</ele>
        <time>2026-08-11T09:04:26.000Z</time>
      </trkpt>
      <trkpt lat="45.79595" lon="0.70539">
        <ele>244.2</ele>
        <time>2026-08-11T09:04:29.000Z</time>
      </trkpt>
      <trkpt lat="45.79592" lon="0.70533">
        <ele>244.1</ele>
        <time>2026-08-11T09:04:30.000Z</time>
      </trkpt>
      <trkpt lat="45.79587" lon="0.70521">
        <ele>244</ele>
        <time>2026-08-11T09:04:32.000Z</time>
      </trkpt>
      <trkpt lat="45.79577" lon="0.7048">
        <ele>244</ele>
        <time>2026-08-11T09:04:40.000Z</time>
      </trkpt>
      <trkpt lat="45.79564" lon="0.70443">
        <ele>243.4</ele>
        <time>2026-08-11T09:04:48.000Z</time>
      </trkpt>
      <trkpt lat="45.79551" lon="0.70404">
        <ele>244.6</ele>
        <time>2026-08-11T09:04:56.000Z</time>
      </trkpt>
      <trkpt lat="45.79548" lon="0.70394">
        <ele>244.4</ele>
        <time>2026-08-11T09:04:58.000Z</time>
      </trkpt>
      <trkpt lat="45.79533" lon="0.70355">
        <ele>244.8</ele>
        <time>2026-08-11T09:05:06.000Z</time>
      </trkpt>
      <trkpt lat="45.79517" lon="0.70314">
        <ele>245.7</ele>
        <time>2026-08-11T09:05:15.000Z</time>
      </trkpt>
      <trkpt lat="45.79506" lon="0.70288">
        <ele>246</ele>
        <time>2026-08-11T09:05:23.000Z</time>
      </trkpt>
      <trkpt lat="45.79499" lon="0.70277">
        <ele>246.1</ele>
        <time>2026-08-11T09:05:27.000Z</time>
      </trkpt>
      <trkpt lat="45.79495" lon="0.70266">
        <ele>246.4</ele>
        <time>2026-08-11T09:05:30.000Z</time>
      </trkpt>
      <trkpt lat="45.79491" lon="0.70257">
        <ele>246.9</ele>
        <time>2026-08-11T09:05:33.000Z</time>
      </trkpt>
      <trkpt lat="45.79485" lon="0.70243">
        <ele>247.8</ele>
        <time>2026-08-11T09:05:37.000Z</time>
      </trkpt>
      <trkpt lat="45.79481" lon="0.70233">
        <ele>248.3</ele>
        <time>2026-08-11T09:05:40.000Z</time>
      </trkpt>
      <trkpt lat="45.7947" lon="0.7021">
        <ele>249.6</ele>
        <time>2026-08-11T09:05:46.000Z</time>
      </trkpt>
      <trkpt lat="45.79464" lon="0.70198">
        <ele>250.4</ele>
        <time>2026-08-11T09:05:50.000Z</time>
      </trkpt>
      <trkpt lat="45.79461" lon="0.70184">
        <ele>250.8</ele>
        <time>2026-08-11T09:05:54.000Z</time>
      </trkpt>
      <trkpt lat="45.79458" lon="0.70175">
        <ele>251</ele>
        <time>2026-08-11T09:05:57.000Z</time>
      </trkpt>
      <trkpt lat="45.79454" lon="0.70164">
        <ele>251.4</ele>
        <time>2026-08-11T09:06:01.000Z</time>
      </trkpt>
      <trkpt lat="45.79449" lon="0.70155">
        <ele>252.1</ele>
        <time>2026-08-11T09:06:05.000Z</time>
      </trkpt>
      <trkpt lat="45.79442" lon="0.70139">
        <ele>253.2</ele>
        <time>2026-08-11T09:06:11.000Z</time>
      </trkpt>
      <trkpt lat="45.79439" lon="0.70135">
        <ele>253.5</ele>
        <time>2026-08-11T09:06:13.000Z</time>
      </trkpt>
      <trkpt lat="45.79431" lon="0.70123">
        <ele>254.3</ele>
        <time>2026-08-11T09:06:19.000Z</time>
      </trkpt>
      <trkpt lat="45.7943" lon="0.70121">
        <ele>254.4</ele>
        <time>2026-08-11T09:06:20.000Z</time>
      </trkpt>
      <trkpt lat="45.79417" lon="0.70108">
        <ele>255.1</ele>
        <time>2026-08-11T09:06:27.000Z</time>
      </trkpt>
      <trkpt lat="45.79402" lon="0.70097">
        <ele>255.8</ele>
        <time>2026-08-11T09:06:34.000Z</time>
      </trkpt>
      <trkpt lat="45.79395" lon="0.70091">
        <ele>255.9</ele>
        <time>2026-08-11T09:06:37.000Z</time>
      </trkpt>
      <trkpt lat="45.7939" lon="0.70086">
        <ele>256</ele>
        <time>2026-08-11T09:06:39.000Z</time>
      </trkpt>
      <trkpt lat="45.79369" lon="0.7007">
        <ele>256.1</ele>
        <time>2026-08-11T09:06:46.000Z</time>
      </trkpt>
      <trkpt lat="45.79345" lon="0.70053">
        <ele>255.5</ele>
        <time>2026-08-11T09:06:53.000Z</time>
      </trkpt>
      <trkpt lat="45.7931" lon="0.70029">
        <ele>255.1</ele>
        <time>2026-08-11T09:07:02.000Z</time>
      </trkpt>
      <trkpt lat="45.79276" lon="0.70004">
        <ele>253.9</ele>
        <time>2026-08-11T09:07:10.000Z</time>
      </trkpt>
      <trkpt lat="45.79232" lon="0.69983">
        <ele>253</ele>
        <time>2026-08-11T09:07:19.000Z</time>
      </trkpt>
      <trkpt lat="45.79227" lon="0.69981">
        <ele>252.9</ele>
        <time>2026-08-11T09:07:20.000Z</time>
      </trkpt>
      <trkpt lat="45.79217" lon="0.69978">
        <ele>252.8</ele>
        <time>2026-08-11T09:07:22.000Z</time>
      </trkpt>
      <trkpt lat="45.79183" lon="0.69968">
        <ele>253.2</ele>
        <time>2026-08-11T09:07:29.000Z</time>
      </trkpt>
      <trkpt lat="45.79152" lon="0.69959">
        <ele>253.2</ele>
        <time>2026-08-11T09:07:36.000Z</time>
      </trkpt>
      <trkpt lat="45.79117" lon="0.69948">
        <ele>253</ele>
        <time>2026-08-11T09:07:44.000Z</time>
      </trkpt>
      <trkpt lat="45.7907" lon="0.69936">
        <ele>252.8</ele>
        <time>2026-08-11T09:07:54.000Z</time>
      </trkpt>
      <trkpt lat="45.79021" lon="0.69922">
        <ele>253.1</ele>
        <time>2026-08-11T09:08:04.000Z</time>
      </trkpt>
      <trkpt lat="45.78997" lon="0.69917">
        <ele>254</ele>
        <time>2026-08-11T09:08:10.000Z</time>
      </trkpt>
      <trkpt lat="45.78961" lon="0.69915">
        <ele>253.7</ele>
        <time>2026-08-11T09:08:19.000Z</time>
      </trkpt>
      <trkpt lat="45.7893" lon="0.69917">
        <ele>252.5</ele>
        <time>2026-08-11T09:08:25.000Z</time>
      </trkpt>
      <trkpt lat="45.78883" lon="0.69921">
        <ele>251.1</ele>
        <time>2026-08-11T09:08:33.000Z</time>
      </trkpt>
      <trkpt lat="45.7884" lon="0.69922">
        <ele>252.6</ele>
        <time>2026-08-11T09:08:41.000Z</time>
      </trkpt>
      <trkpt lat="45.78837" lon="0.69922">
        <ele>252.7</ele>
        <time>2026-08-11T09:08:42.000Z</time>
      </trkpt>
      <trkpt lat="45.78828" lon="0.69922">
        <ele>253</ele>
        <time>2026-08-11T09:08:45.000Z</time>
      </trkpt>
      <trkpt lat="45.78804" lon="0.69922">
        <ele>253.8</ele>
        <time>2026-08-11T09:08:52.000Z</time>
      </trkpt>
      <trkpt lat="45.78782" lon="0.6992">
        <ele>253.9</ele>
        <time>2026-08-11T09:08:57.000Z</time>
      </trkpt>
      <trkpt lat="45.78747" lon="0.69913">
        <ele>253.1</ele>
        <time>2026-08-11T09:09:05.000Z</time>
      </trkpt>
      <trkpt lat="45.78739" lon="0.69911">
        <ele>253.2</ele>
        <time>2026-08-11T09:09:07.000Z</time>
      </trkpt>
      <trkpt lat="45.78718" lon="0.69907">
        <ele>253.3</ele>
        <time>2026-08-11T09:09:12.000Z</time>
      </trkpt>
      <trkpt lat="45.78683" lon="0.69894">
        <ele>253.7</ele>
        <time>2026-08-11T09:09:21.000Z</time>
      </trkpt>
      <trkpt lat="45.78656" lon="0.69875">
        <ele>254.7</ele>
        <time>2026-08-11T09:09:29.000Z</time>
      </trkpt>
      <trkpt lat="45.78643" lon="0.6986">
        <ele>255.1</ele>
        <time>2026-08-11T09:09:34.000Z</time>
      </trkpt>
      <trkpt lat="45.78637" lon="0.69855">
        <ele>255.5</ele>
        <time>2026-08-11T09:09:36.000Z</time>
      </trkpt>
      <trkpt lat="45.78631" lon="0.69847">
        <ele>256.1</ele>
        <time>2026-08-11T09:09:39.000Z</time>
      </trkpt>
      <trkpt lat="45.78618" lon="0.69834">
        <ele>257</ele>
        <time>2026-08-11T09:09:45.000Z</time>
      </trkpt>
      <trkpt lat="45.78615" lon="0.69832">
        <ele>257.1</ele>
        <time>2026-08-11T09:09:46.000Z</time>
      </trkpt>
      <trkpt lat="45.786" lon="0.69816">
        <ele>257.2</ele>
        <time>2026-08-11T09:09:53.000Z</time>
      </trkpt>
      <trkpt lat="45.78598" lon="0.69814">
        <ele>257.2</ele>
        <time>2026-08-11T09:09:54.000Z</time>
      </trkpt>
      <trkpt lat="45.78572" lon="0.69796">
        <ele>257.6</ele>
        <time>2026-08-11T09:10:04.000Z</time>
      </trkpt>
      <trkpt lat="45.78543" lon="0.6978">
        <ele>257.9</ele>
        <time>2026-08-11T09:10:14.000Z</time>
      </trkpt>
      <trkpt lat="45.78511" lon="0.69764">
        <ele>258.5</ele>
        <time>2026-08-11T09:10:25.000Z</time>
      </trkpt>
      <trkpt lat="45.78489" lon="0.69752">
        <ele>259.3</ele>
        <time>2026-08-11T09:10:33.000Z</time>
      </trkpt>
      <trkpt lat="45.78478" lon="0.69746">
        <ele>260.1</ele>
        <time>2026-08-11T09:10:37.000Z</time>
      </trkpt>
      <trkpt lat="45.78454" lon="0.69731">
        <ele>260.9</ele>
        <time>2026-08-11T09:10:46.000Z</time>
      </trkpt>
      <trkpt lat="45.78435" lon="0.69713">
        <ele>261.8</ele>
        <time>2026-08-11T09:10:54.000Z</time>
      </trkpt>
      <trkpt lat="45.78432" lon="0.69711">
        <ele>261.9</ele>
        <time>2026-08-11T09:10:55.000Z</time>
      </trkpt>
      <trkpt lat="45.78414" lon="0.69689">
        <ele>262.1</ele>
        <time>2026-08-11T09:11:03.000Z</time>
      </trkpt>
      <trkpt lat="45.78409" lon="0.69684">
        <ele>262.2</ele>
        <time>2026-08-11T09:11:05.000Z</time>
      </trkpt>
      <trkpt lat="45.78395" lon="0.69668">
        <ele>262.9</ele>
        <time>2026-08-11T09:11:10.000Z</time>
      </trkpt>
      <trkpt lat="45.78371" lon="0.69639">
        <ele>263.4</ele>
        <time>2026-08-11T09:11:20.000Z</time>
      </trkpt>
      <trkpt lat="45.78351" lon="0.69615">
        <ele>263.8</ele>
        <time>2026-08-11T09:11:28.000Z</time>
      </trkpt>
      <trkpt lat="45.78331" lon="0.69592">
        <ele>264.7</ele>
        <time>2026-08-11T09:11:36.000Z</time>
      </trkpt>
      <trkpt lat="45.78326" lon="0.69586">
        <ele>264.9</ele>
        <time>2026-08-11T09:11:38.000Z</time>
      </trkpt>
      <trkpt lat="45.78312" lon="0.6957">
        <ele>265.6</ele>
        <time>2026-08-11T09:11:44.000Z</time>
      </trkpt>
      <trkpt lat="45.78306" lon="0.69562">
        <ele>265.8</ele>
        <time>2026-08-11T09:11:47.000Z</time>
      </trkpt>
      <trkpt lat="45.78289" lon="0.69544">
        <ele>266.6</ele>
        <time>2026-08-11T09:11:54.000Z</time>
      </trkpt>
      <trkpt lat="45.78279" lon="0.69536">
        <ele>266.8</ele>
        <time>2026-08-11T09:11:58.000Z</time>
      </trkpt>
      <trkpt lat="45.78264" lon="0.69524">
        <ele>267.2</ele>
        <time>2026-08-11T09:12:04.000Z</time>
      </trkpt>
      <trkpt lat="45.78254" lon="0.69517">
        <ele>267.5</ele>
        <time>2026-08-11T09:12:08.000Z</time>
      </trkpt>
      <trkpt lat="45.78249" lon="0.69514">
        <ele>267.5</ele>
        <time>2026-08-11T09:12:10.000Z</time>
      </trkpt>
      <trkpt lat="45.7822" lon="0.69497">
        <ele>267.8</ele>
        <time>2026-08-11T09:12:20.000Z</time>
      </trkpt>
      <trkpt lat="45.78199" lon="0.69484">
        <ele>266.8</ele>
        <time>2026-08-11T09:12:26.000Z</time>
      </trkpt>
      <trkpt lat="45.78175" lon="0.69464">
        <ele>268</ele>
        <time>2026-08-11T09:12:34.000Z</time>
      </trkpt>
      <trkpt lat="45.78167" lon="0.69456">
        <ele>268.6</ele>
        <time>2026-08-11T09:12:39.000Z</time>
      </trkpt>
      <trkpt lat="45.78164" lon="0.69445">
        <ele>269.1</ele>
        <time>2026-08-11T09:12:43.000Z</time>
      </trkpt>
      <trkpt lat="45.78164" lon="0.69439">
        <ele>269.3</ele>
        <time>2026-08-11T09:12:45.000Z</time>
      </trkpt>
      <trkpt lat="45.78162" lon="0.6942">
        <ele>270</ele>
        <time>2026-08-11T09:12:51.000Z</time>
      </trkpt>
      <trkpt lat="45.78162" lon="0.69417">
        <ele>270.2</ele>
        <time>2026-08-11T09:12:52.000Z</time>
      </trkpt>
      <trkpt lat="45.78157" lon="0.69388">
        <ele>270.7</ele>
        <time>2026-08-11T09:13:00.000Z</time>
      </trkpt>
      <trkpt lat="45.78156" lon="0.69384">
        <ele>270.9</ele>
        <time>2026-08-11T09:13:01.000Z</time>
      </trkpt>
      <trkpt lat="45.78152" lon="0.6936">
        <ele>271.6</ele>
        <time>2026-08-11T09:13:07.000Z</time>
      </trkpt>
      <trkpt lat="45.78151" lon="0.69356">
        <ele>271.8</ele>
        <time>2026-08-11T09:13:08.000Z</time>
      </trkpt>
      <trkpt lat="45.78148" lon="0.69327">
        <ele>272.7</ele>
        <time>2026-08-11T09:13:15.000Z</time>
      </trkpt>
      <trkpt lat="45.78148" lon="0.69323">
        <ele>272.8</ele>
        <time>2026-08-11T09:13:16.000Z</time>
      </trkpt>
      <trkpt lat="45.78144" lon="0.69293">
        <ele>273.5</ele>
        <time>2026-08-11T09:13:24.000Z</time>
      </trkpt>
      <trkpt lat="45.78143" lon="0.6929">
        <ele>273.6</ele>
        <time>2026-08-11T09:13:25.000Z</time>
      </trkpt>
      <trkpt lat="45.7814" lon="0.69266">
        <ele>274.4</ele>
        <time>2026-08-11T09:13:31.000Z</time>
      </trkpt>
      <trkpt lat="45.78138" lon="0.69247">
        <ele>275</ele>
        <time>2026-08-11T09:13:36.000Z</time>
      </trkpt>
      <trkpt lat="45.78136" lon="0.69232">
        <ele>275.1</ele>
        <time>2026-08-11T09:13:40.000Z</time>
      </trkpt>
      <trkpt lat="45.78133" lon="0.69213">
        <ele>275.5</ele>
        <time>2026-08-11T09:13:45.000Z</time>
      </trkpt>
      <trkpt lat="45.78129" lon="0.69194">
        <ele>276</ele>
        <time>2026-08-11T09:13:50.000Z</time>
      </trkpt>
      <trkpt lat="45.78123" lon="0.69156">
        <ele>275.8</ele>
        <time>2026-08-11T09:13:58.000Z</time>
      </trkpt>
      <trkpt lat="45.78117" lon="0.69114">
        <ele>274.9</ele>
        <time>2026-08-11T09:14:05.000Z</time>
      </trkpt>
      <trkpt lat="45.78113" lon="0.69075">
        <ele>274.6</ele>
        <time>2026-08-11T09:14:10.000Z</time>
      </trkpt>
      <trkpt lat="45.78104" lon="0.69017">
        <ele>272.9</ele>
        <time>2026-08-11T09:14:16.000Z</time>
      </trkpt>
      <trkpt lat="45.78097" lon="0.68966">
        <ele>271.9</ele>
        <time>2026-08-11T09:14:21.000Z</time>
      </trkpt>
      <trkpt lat="45.7809" lon="0.68913">
        <ele>270.7</ele>
        <time>2026-08-11T09:14:26.000Z</time>
      </trkpt>
      <trkpt lat="45.78085" lon="0.68881">
        <ele>269.7</ele>
        <time>2026-08-11T09:14:29.000Z</time>
      </trkpt>
      <trkpt lat="45.78079" lon="0.68837">
        <ele>269.1</ele>
        <time>2026-08-11T09:14:33.000Z</time>
      </trkpt>
      <trkpt lat="45.78078" lon="0.68826">
        <ele>268.9</ele>
        <time>2026-08-11T09:14:34.000Z</time>
      </trkpt>
      <trkpt lat="45.7807" lon="0.68769">
        <ele>267.5</ele>
        <time>2026-08-11T09:14:39.000Z</time>
      </trkpt>
      <trkpt lat="45.78063" lon="0.68722">
        <ele>266.7</ele>
        <time>2026-08-11T09:14:43.000Z</time>
      </trkpt>
      <trkpt lat="45.78061" lon="0.68711">
        <ele>266.4</ele>
        <time>2026-08-11T09:14:44.000Z</time>
      </trkpt>
      <trkpt lat="45.78052" lon="0.68644">
        <ele>266.1</ele>
        <time>2026-08-11T09:14:50.000Z</time>
      </trkpt>
      <trkpt lat="45.78048" lon="0.68613">
        <ele>266.5</ele>
        <time>2026-08-11T09:14:53.000Z</time>
      </trkpt>
      <trkpt lat="45.78042" lon="0.68576">
        <ele>266.5</ele>
        <time>2026-08-11T09:14:57.000Z</time>
      </trkpt>
      <trkpt lat="45.78035" lon="0.68526">
        <ele>266.8</ele>
        <time>2026-08-11T09:15:03.000Z</time>
      </trkpt>
      <trkpt lat="45.78026" lon="0.68461">
        <ele>268.1</ele>
        <time>2026-08-11T09:15:11.000Z</time>
      </trkpt>
      <trkpt lat="45.78022" lon="0.68431">
        <ele>268.2</ele>
        <time>2026-08-11T09:15:15.000Z</time>
      </trkpt>
      <trkpt lat="45.78018" lon="0.68403">
        <ele>268.5</ele>
        <time>2026-08-11T09:15:19.000Z</time>
      </trkpt>
      <trkpt lat="45.78016" lon="0.68383">
        <ele>268.9</ele>
        <time>2026-08-11T09:15:22.000Z</time>
      </trkpt>
      <trkpt lat="45.78013" lon="0.68363">
        <ele>269.1</ele>
        <time>2026-08-11T09:15:25.000Z</time>
      </trkpt>
      <trkpt lat="45.78006" lon="0.68316">
        <ele>270.3</ele>
        <time>2026-08-11T09:15:33.000Z</time>
      </trkpt>
      <trkpt lat="45.78004" lon="0.68304">
        <ele>270.7</ele>
        <time>2026-08-11T09:15:35.000Z</time>
      </trkpt>
      <trkpt lat="45.77998" lon="0.68272">
        <ele>271.1</ele>
        <time>2026-08-11T09:15:40.000Z</time>
      </trkpt>
      <trkpt lat="45.77993" lon="0.6824">
        <ele>271.5</ele>
        <time>2026-08-11T09:15:45.000Z</time>
      </trkpt>
      <trkpt lat="45.77991" lon="0.68228">
        <ele>271.7</ele>
        <time>2026-08-11T09:15:47.000Z</time>
      </trkpt>
      <trkpt lat="45.77984" lon="0.68179">
        <ele>272.6</ele>
        <time>2026-08-11T09:15:55.000Z</time>
      </trkpt>
      <trkpt lat="45.77984" lon="0.68173">
        <ele>272.6</ele>
        <time>2026-08-11T09:15:56.000Z</time>
      </trkpt>
      <trkpt lat="45.77981" lon="0.68156">
        <ele>272.7</ele>
        <time>2026-08-11T09:15:59.000Z</time>
      </trkpt>
      <trkpt lat="45.77978" lon="0.68145">
        <ele>272.8</ele>
        <time>2026-08-11T09:16:01.000Z</time>
      </trkpt>
      <trkpt lat="45.77974" lon="0.68114">
        <ele>272.9</ele>
        <time>2026-08-11T09:16:06.000Z</time>
      </trkpt>
      <trkpt lat="45.77973" lon="0.68102">
        <ele>273.3</ele>
        <time>2026-08-11T09:16:08.000Z</time>
      </trkpt>
      <trkpt lat="45.77967" lon="0.68049">
        <ele>273.4</ele>
        <time>2026-08-11T09:16:16.000Z</time>
      </trkpt>
      <trkpt lat="45.77967" lon="0.68042">
        <ele>273.4</ele>
        <time>2026-08-11T09:16:17.000Z</time>
      </trkpt>
      <trkpt lat="45.77966" lon="0.67992">
        <ele>273.6</ele>
        <time>2026-08-11T09:16:24.000Z</time>
      </trkpt>
      <trkpt lat="45.77967" lon="0.67978">
        <ele>273.9</ele>
        <time>2026-08-11T09:16:26.000Z</time>
      </trkpt>
      <trkpt lat="45.77971" lon="0.67948">
        <ele>274</ele>
        <time>2026-08-11T09:16:30.000Z</time>
      </trkpt>
      <trkpt lat="45.77983" lon="0.67893">
        <ele>273.5</ele>
        <time>2026-08-11T09:16:37.000Z</time>
      </trkpt>
      <trkpt lat="45.78006" lon="0.6782">
        <ele>272.6</ele>
        <time>2026-08-11T09:16:46.000Z</time>
      </trkpt>
      <trkpt lat="45.78008" lon="0.67811">
        <ele>272.4</ele>
        <time>2026-08-11T09:16:47.000Z</time>
      </trkpt>
      <trkpt lat="45.78032" lon="0.67736">
        <ele>271.7</ele>
        <time>2026-08-11T09:16:56.000Z</time>
      </trkpt>
      <trkpt lat="45.7805" lon="0.67677">
        <ele>271.8</ele>
        <time>2026-08-11T09:17:03.000Z</time>
      </trkpt>
      <trkpt lat="45.78056" lon="0.67661">
        <ele>272</ele>
        <time>2026-08-11T09:17:05.000Z</time>
      </trkpt>
      <trkpt lat="45.7807" lon="0.67611">
        <ele>272</ele>
        <time>2026-08-11T09:17:11.000Z</time>
      </trkpt>
      <trkpt lat="45.78071" lon="0.67602">
        <ele>272</ele>
        <time>2026-08-11T09:17:12.000Z</time>
      </trkpt>
      <trkpt lat="45.78093" lon="0.67538">
        <ele>271.7</ele>
        <time>2026-08-11T09:17:20.000Z</time>
      </trkpt>
      <trkpt lat="45.78111" lon="0.67481">
        <ele>271.3</ele>
        <time>2026-08-11T09:17:27.000Z</time>
      </trkpt>
      <trkpt lat="45.78114" lon="0.67473">
        <ele>271</ele>
        <time>2026-08-11T09:17:28.000Z</time>
      </trkpt>
      <trkpt lat="45.78129" lon="0.67424">
        <ele>270.5</ele>
        <time>2026-08-11T09:17:34.000Z</time>
      </trkpt>
      <trkpt lat="45.78149" lon="0.67356">
        <ele>269.3</ele>
        <time>2026-08-11T09:17:41.000Z</time>
      </trkpt>
      <trkpt lat="45.7816" lon="0.67316">
        <ele>268.8</ele>
        <time>2026-08-11T09:17:45.000Z</time>
      </trkpt>
      <trkpt lat="45.78168" lon="0.67273">
        <ele>268.1</ele>
        <time>2026-08-11T09:17:49.000Z</time>
      </trkpt>
      <trkpt lat="45.78169" lon="0.67262">
        <ele>268.1</ele>
        <time>2026-08-11T09:17:50.000Z</time>
      </trkpt>
      <trkpt lat="45.78171" lon="0.6724">
        <ele>267.8</ele>
        <time>2026-08-11T09:17:52.000Z</time>
      </trkpt>
      <trkpt lat="45.78171" lon="0.67206">
        <ele>267.2</ele>
        <time>2026-08-11T09:17:55.000Z</time>
      </trkpt>
      <trkpt lat="45.78169" lon="0.67173">
        <ele>267</ele>
        <time>2026-08-11T09:17:58.000Z</time>
      </trkpt>
      <trkpt lat="45.78162" lon="0.67128">
        <ele>265.8</ele>
        <time>2026-08-11T09:18:02.000Z</time>
      </trkpt>
      <trkpt lat="45.78156" lon="0.67081">
        <ele>264.6</ele>
        <time>2026-08-11T09:18:06.000Z</time>
      </trkpt>
      <trkpt lat="45.78147" lon="0.67014">
        <ele>264.4</ele>
        <time>2026-08-11T09:18:12.000Z</time>
      </trkpt>
      <trkpt lat="45.7814" lon="0.66965">
        <ele>265.3</ele>
        <time>2026-08-11T09:18:17.000Z</time>
      </trkpt>
      <trkpt lat="45.78128" lon="0.66925">
        <ele>266.3</ele>
        <time>2026-08-11T09:18:22.000Z</time>
      </trkpt>
      <trkpt lat="45.78109" lon="0.66884">
        <ele>265.9</ele>
        <time>2026-08-11T09:18:28.000Z</time>
      </trkpt>
      <trkpt lat="45.78081" lon="0.66827">
        <ele>264.7</ele>
        <time>2026-08-11T09:18:36.000Z</time>
      </trkpt>
      <trkpt lat="45.78055" lon="0.66776">
        <ele>262</ele>
        <time>2026-08-11T09:18:42.000Z</time>
      </trkpt>
      <trkpt lat="45.78035" lon="0.66738">
        <ele>260.8</ele>
        <time>2026-08-11T09:18:46.000Z</time>
      </trkpt>
      <trkpt lat="45.78019" lon="0.66706">
        <ele>259.2</ele>
        <time>2026-08-11T09:18:49.000Z</time>
      </trkpt>
      <trkpt lat="45.77997" lon="0.66664">
        <ele>256.9</ele>
        <time>2026-08-11T09:18:53.000Z</time>
      </trkpt>
      <trkpt lat="45.77986" lon="0.66643">
        <ele>256.1</ele>
        <time>2026-08-11T09:18:55.000Z</time>
      </trkpt>
      <trkpt lat="45.77974" lon="0.66621">
        <ele>254.8</ele>
        <time>2026-08-11T09:18:57.000Z</time>
      </trkpt>
      <trkpt lat="45.77963" lon="0.66599">
        <ele>253.6</ele>
        <time>2026-08-11T09:18:59.000Z</time>
      </trkpt>
      <trkpt lat="45.77951" lon="0.66578">
        <ele>252.8</ele>
        <time>2026-08-11T09:19:01.000Z</time>
      </trkpt>
      <trkpt lat="45.77945" lon="0.66567">
        <ele>252.4</ele>
        <time>2026-08-11T09:19:02.000Z</time>
      </trkpt>
      <trkpt lat="45.77934" lon="0.66543">
        <ele>250.9</ele>
        <time>2026-08-11T09:19:04.000Z</time>
      </trkpt>
      <trkpt lat="45.77916" lon="0.66508">
        <ele>248.6</ele>
        <time>2026-08-11T09:19:07.000Z</time>
      </trkpt>
      <trkpt lat="45.77911" lon="0.66496">
        <ele>247.8</ele>
        <time>2026-08-11T09:19:08.000Z</time>
      </trkpt>
      <trkpt lat="45.77905" lon="0.66485">
        <ele>247.1</ele>
        <time>2026-08-11T09:19:09.000Z</time>
      </trkpt>
      <trkpt lat="45.77888" lon="0.66449">
        <ele>245.4</ele>
        <time>2026-08-11T09:19:12.000Z</time>
      </trkpt>
      <trkpt lat="45.7787" lon="0.66413">
        <ele>244.1</ele>
        <time>2026-08-11T09:19:15.000Z</time>
      </trkpt>
      <trkpt lat="45.77858" lon="0.66388">
        <ele>243</ele>
        <time>2026-08-11T09:19:17.000Z</time>
      </trkpt>
      <trkpt lat="45.77847" lon="0.66362">
        <ele>241</ele>
        <time>2026-08-11T09:19:19.000Z</time>
      </trkpt>
      <trkpt lat="45.77842" lon="0.66347">
        <ele>240</ele>
        <time>2026-08-11T09:19:20.000Z</time>
      </trkpt>
      <trkpt lat="45.77839" lon="0.66333">
        <ele>239</ele>
        <time>2026-08-11T09:19:21.000Z</time>
      </trkpt>
      <trkpt lat="45.77836" lon="0.66318">
        <ele>238.4</ele>
        <time>2026-08-11T09:19:22.000Z</time>
      </trkpt>
      <trkpt lat="45.77831" lon="0.66286">
        <ele>236.6</ele>
        <time>2026-08-11T09:19:24.000Z</time>
      </trkpt>
      <trkpt lat="45.77829" lon="0.6627">
        <ele>235.7</ele>
        <time>2026-08-11T09:19:25.000Z</time>
      </trkpt>
      <trkpt lat="45.77829" lon="0.66253">
        <ele>235</ele>
        <time>2026-08-11T09:19:26.000Z</time>
      </trkpt>
      <trkpt lat="45.77834" lon="0.66221">
        <ele>232.9</ele>
        <time>2026-08-11T09:19:28.000Z</time>
      </trkpt>
      <trkpt lat="45.77839" lon="0.66206">
        <ele>231.8</ele>
        <time>2026-08-11T09:19:29.000Z</time>
      </trkpt>
      <trkpt lat="45.7785" lon="0.66177">
        <ele>230.1</ele>
        <time>2026-08-11T09:19:31.000Z</time>
      </trkpt>
      <trkpt lat="45.77866" lon="0.66151">
        <ele>228.2</ele>
        <time>2026-08-11T09:19:33.000Z</time>
      </trkpt>
      <trkpt lat="45.77874" lon="0.66139">
        <ele>227</ele>
        <time>2026-08-11T09:19:34.000Z</time>
      </trkpt>
      <trkpt lat="45.77883" lon="0.66127">
        <ele>226.2</ele>
        <time>2026-08-11T09:19:35.000Z</time>
      </trkpt>
      <trkpt lat="45.77891" lon="0.66115">
        <ele>225.2</ele>
        <time>2026-08-11T09:19:36.000Z</time>
      </trkpt>
      <trkpt lat="45.77909" lon="0.6609">
        <ele>223.3</ele>
        <time>2026-08-11T09:19:38.000Z</time>
      </trkpt>
      <trkpt lat="45.77928" lon="0.66064">
        <ele>221.8</ele>
        <time>2026-08-11T09:19:40.000Z</time>
      </trkpt>
      <trkpt lat="45.77946" lon="0.66039">
        <ele>221.4</ele>
        <time>2026-08-11T09:19:42.000Z</time>
      </trkpt>
      <trkpt lat="45.77954" lon="0.66028">
        <ele>221</ele>
        <time>2026-08-11T09:19:43.000Z</time>
      </trkpt>
      <trkpt lat="45.77971" lon="0.66006">
        <ele>221</ele>
        <time>2026-08-11T09:19:45.000Z</time>
      </trkpt>
      <trkpt lat="45.77993" lon="0.65977">
        <ele>223.4</ele>
        <time>2026-08-11T09:19:48.000Z</time>
      </trkpt>
      <trkpt lat="45.77999" lon="0.65968">
        <ele>224.3</ele>
        <time>2026-08-11T09:19:49.000Z</time>
      </trkpt>
      <trkpt lat="45.78009" lon="0.65951">
        <ele>225</ele>
        <time>2026-08-11T09:19:51.000Z</time>
      </trkpt>
      <trkpt lat="45.78013" lon="0.65942">
        <ele>225.2</ele>
        <time>2026-08-11T09:19:52.000Z</time>
      </trkpt>
      <trkpt lat="45.78016" lon="0.65934">
        <ele>225.6</ele>
        <time>2026-08-11T09:19:53.000Z</time>
      </trkpt>
      <trkpt lat="45.78022" lon="0.65911">
        <ele>226.8</ele>
        <time>2026-08-11T09:19:56.000Z</time>
      </trkpt>
      <trkpt lat="45.78023" lon="0.65904">
        <ele>227.2</ele>
        <time>2026-08-11T09:19:57.000Z</time>
      </trkpt>
      <trkpt lat="45.78026" lon="0.6588">
        <ele>228.5</ele>
        <time>2026-08-11T09:20:01.000Z</time>
      </trkpt>
      <trkpt lat="45.78026" lon="0.65875">
        <ele>228.7</ele>
        <time>2026-08-11T09:20:02.000Z</time>
      </trkpt>
      <trkpt lat="45.78027" lon="0.65856">
        <ele>229.3</ele>
        <time>2026-08-11T09:20:06.000Z</time>
      </trkpt>
      <trkpt lat="45.78027" lon="0.6585">
        <ele>229.5</ele>
        <time>2026-08-11T09:20:08.000Z</time>
      </trkpt>
      <trkpt lat="45.78026" lon="0.65844">
        <ele>229.8</ele>
        <time>2026-08-11T09:20:10.000Z</time>
      </trkpt>
      <trkpt lat="45.78027" lon="0.65836">
        <ele>230</ele>
        <time>2026-08-11T09:20:12.000Z</time>
      </trkpt>
      <trkpt lat="45.78027" lon="0.65832">
        <ele>230.2</ele>
        <time>2026-08-11T09:20:13.000Z</time>
      </trkpt>
      <trkpt lat="45.78028" lon="0.65808">
        <ele>230.9</ele>
        <time>2026-08-11T09:20:19.000Z</time>
      </trkpt>
      <trkpt lat="45.78028" lon="0.65797">
        <ele>231.3</ele>
        <time>2026-08-11T09:20:22.000Z</time>
      </trkpt>
      <trkpt lat="45.78028" lon="0.6578">
        <ele>231.9</ele>
        <time>2026-08-11T09:20:27.000Z</time>
      </trkpt>
      <trkpt lat="45.78029" lon="0.65773">
        <ele>232.1</ele>
        <time>2026-08-11T09:20:29.000Z</time>
      </trkpt>
      <trkpt lat="45.78029" lon="0.6577">
        <ele>232.3</ele>
        <time>2026-08-11T09:20:30.000Z</time>
      </trkpt>
      <trkpt lat="45.78029" lon="0.65762">
        <ele>232.5</ele>
        <time>2026-08-11T09:20:32.000Z</time>
      </trkpt>
      <trkpt lat="45.78031" lon="0.65738">
        <ele>233.8</ele>
        <time>2026-08-11T09:20:39.000Z</time>
      </trkpt>
      <trkpt lat="45.78029" lon="0.65725">
        <ele>234.7</ele>
        <time>2026-08-11T09:20:43.000Z</time>
      </trkpt>
      <trkpt lat="45.78029" lon="0.65711">
        <ele>235.3</ele>
        <time>2026-08-11T09:20:48.000Z</time>
      </trkpt>
      <trkpt lat="45.7803" lon="0.65706">
        <ele>235.5</ele>
        <time>2026-08-11T09:20:50.000Z</time>
      </trkpt>
      <trkpt lat="45.7803" lon="0.65687">
        <ele>236.2</ele>
        <time>2026-08-11T09:20:56.000Z</time>
      </trkpt>
      <trkpt lat="45.7803" lon="0.6568">
        <ele>236.4</ele>
        <time>2026-08-11T09:20:58.000Z</time>
      </trkpt>
      <trkpt lat="45.7803" lon="0.6566">
        <ele>237.2</ele>
        <time>2026-08-11T09:21:04.000Z</time>
      </trkpt>
      <trkpt lat="45.78026" lon="0.6564">
        <ele>238</ele>
        <time>2026-08-11T09:21:10.000Z</time>
      </trkpt>
      <trkpt lat="45.78024" lon="0.65633">
        <ele>238.3</ele>
        <time>2026-08-11T09:21:12.000Z</time>
      </trkpt>
      <trkpt lat="45.78017" lon="0.65617">
        <ele>239.2</ele>
        <time>2026-08-11T09:21:18.000Z</time>
      </trkpt>
      <trkpt lat="45.7801" lon="0.65609">
        <ele>239.8</ele>
        <time>2026-08-11T09:21:22.000Z</time>
      </trkpt>
      <trkpt lat="45.78002" lon="0.65601">
        <ele>240.6</ele>
        <time>2026-08-11T09:21:26.000Z</time>
      </trkpt>
      <trkpt lat="45.77993" lon="0.65593">
        <ele>241.4</ele>
        <time>2026-08-11T09:21:31.000Z</time>
      </trkpt>
      <trkpt lat="45.77984" lon="0.65584">
        <ele>242</ele>
        <time>2026-08-11T09:21:37.000Z</time>
      </trkpt>
      <trkpt lat="45.77982" lon="0.65583">
        <ele>242</ele>
        <time>2026-08-11T09:21:38.000Z</time>
      </trkpt>
      <trkpt lat="45.77974" lon="0.65573">
        <ele>242</ele>
        <time>2026-08-11T09:21:43.000Z</time>
      </trkpt>
      <trkpt lat="45.77973" lon="0.65572">
        <ele>242</ele>
        <time>2026-08-11T09:21:44.000Z</time>
      </trkpt>
      <trkpt lat="45.77966" lon="0.65566">
        <ele>241.8</ele>
        <time>2026-08-11T09:21:48.000Z</time>
      </trkpt>
      <trkpt lat="45.77957" lon="0.65558">
        <ele>241.9</ele>
        <time>2026-08-11T09:21:53.000Z</time>
      </trkpt>
      <trkpt lat="45.77948" lon="0.65549">
        <ele>242.3</ele>
        <time>2026-08-11T09:21:59.000Z</time>
      </trkpt>
      <trkpt lat="45.77946" lon="0.65548">
        <ele>242.3</ele>
        <time>2026-08-11T09:22:00.000Z</time>
      </trkpt>
      <trkpt lat="45.77945" lon="0.65546">
        <ele>242.3</ele>
        <time>2026-08-11T09:22:01.000Z</time>
      </trkpt>
      <trkpt lat="45.77935" lon="0.65535">
        <ele>242.4</ele>
        <time>2026-08-11T09:22:08.000Z</time>
      </trkpt>
      <trkpt lat="45.77934" lon="0.65532">
        <ele>242.5</ele>
        <time>2026-08-11T09:22:09.000Z</time>
      </trkpt>
      <trkpt lat="45.77929" lon="0.6552">
        <ele>243</ele>
        <time>2026-08-11T09:22:13.000Z</time>
      </trkpt>
      <trkpt lat="45.77929" lon="0.65517">
        <ele>243.2</ele>
        <time>2026-08-11T09:22:14.000Z</time>
      </trkpt>
      <trkpt lat="45.77927" lon="0.65495">
        <ele>244.7</ele>
        <time>2026-08-11T09:22:22.000Z</time>
      </trkpt>
      <trkpt lat="45.77927" lon="0.65485">
        <ele>245.2</ele>
        <time>2026-08-11T09:22:25.000Z</time>
      </trkpt>
      <trkpt lat="45.7793" lon="0.65471">
        <ele>246.1</ele>
        <time>2026-08-11T09:22:30.000Z</time>
      </trkpt>
      <trkpt lat="45.77931" lon="0.65468">
        <ele>246.1</ele>
        <time>2026-08-11T09:22:31.000Z</time>
      </trkpt>
      <trkpt lat="45.77934" lon="0.65462">
        <ele>246.4</ele>
        <time>2026-08-11T09:22:34.000Z</time>
      </trkpt>
      <trkpt lat="45.77936" lon="0.6546">
        <ele>246.5</ele>
        <time>2026-08-11T09:22:37.000Z</time>
      </trkpt>
      <trkpt lat="45.77938" lon="0.65459">
        <ele>246.5</ele>
        <time>2026-08-11T09:22:42.000Z</time>
      </trkpt>
      <trkpt lat="45.77936" lon="0.65456">
        <ele>246.6</ele>
        <time>2026-08-11T09:23:32.000Z</time>
      </trkpt>
      <trkpt lat="45.77922" lon="0.65457">
        <ele>246.6</ele>
        <time>2026-08-11T09:23:38.000Z</time>
      </trkpt>
      <trkpt lat="45.77905" lon="0.65457">
        <ele>246.8</ele>
        <time>2026-08-11T09:23:45.000Z</time>
      </trkpt>
      <trkpt lat="45.77887" lon="0.65458">
        <ele>247.1</ele>
        <time>2026-08-11T09:23:51.000Z</time>
      </trkpt>
      <trkpt lat="45.77884" lon="0.65458">
        <ele>247.3</ele>
        <time>2026-08-11T09:23:52.000Z</time>
      </trkpt>
      <trkpt lat="45.77869" lon="0.65456">
        <ele>248.2</ele>
        <time>2026-08-11T09:23:58.000Z</time>
      </trkpt>
      <trkpt lat="45.77861" lon="0.65456">
        <ele>248.6</ele>
        <time>2026-08-11T09:24:01.000Z</time>
      </trkpt>
      <trkpt lat="45.77859" lon="0.65457">
        <ele>248.6</ele>
        <time>2026-08-11T09:24:02.000Z</time>
      </trkpt>
      <trkpt lat="45.77848" lon="0.65461">
        <ele>248.9</ele>
        <time>2026-08-11T09:24:06.000Z</time>
      </trkpt>
      <trkpt lat="45.77833" lon="0.65472">
        <ele>249</ele>
        <time>2026-08-11T09:24:13.000Z</time>
      </trkpt>
      <trkpt lat="45.77823" lon="0.65478">
        <ele>249.2</ele>
        <time>2026-08-11T09:24:18.000Z</time>
      </trkpt>
      <trkpt lat="45.7782" lon="0.6548">
        <ele>249.2</ele>
        <time>2026-08-11T09:24:20.000Z</time>
      </trkpt>
      <trkpt lat="45.77802" lon="0.6548">
        <ele>249.7</ele>
        <time>2026-08-11T09:24:28.000Z</time>
      </trkpt>
      <trkpt lat="45.77796" lon="0.65479">
        <ele>249.8</ele>
        <time>2026-08-11T09:24:30.000Z</time>
      </trkpt>
      <trkpt lat="45.77785" lon="0.65477">
        <ele>249.8</ele>
        <time>2026-08-11T09:24:33.000Z</time>
      </trkpt>
      <trkpt lat="45.77761" lon="0.65474">
        <ele>248.8</ele>
        <time>2026-08-11T09:24:39.000Z</time>
      </trkpt>
      <trkpt lat="45.77757" lon="0.65474">
        <ele>248.5</ele>
        <time>2026-08-11T09:24:43.000Z</time>
      </trkpt>
      <trkpt lat="45.77757" lon="0.65474">
        <ele>248.5</ele>
        <time>2026-08-11T09:24:44.000Z</time>
      </trkpt>
      <trkpt lat="45.77751" lon="0.65476">
        <ele>248.1</ele>
        <time>2026-08-11T09:26:36.000Z</time>
      </trkpt>
      <trkpt lat="45.77746" lon="0.65477">
        <ele>248</ele>
        <time>2026-08-11T09:26:39.000Z</time>
      </trkpt>
      <trkpt lat="45.77739" lon="0.65476">
        <ele>247.9</ele>
        <time>2026-08-11T09:26:41.000Z</time>
      </trkpt>
      <trkpt lat="45.77732" lon="0.65477">
        <ele>247.9</ele>
        <time>2026-08-11T09:26:43.000Z</time>
      </trkpt>
      <trkpt lat="45.77705" lon="0.65485">
        <ele>246.9</ele>
        <time>2026-08-11T09:26:49.000Z</time>
      </trkpt>
      <trkpt lat="45.7769" lon="0.65489">
        <ele>246.2</ele>
        <time>2026-08-11T09:26:52.000Z</time>
      </trkpt>
      <trkpt lat="45.7768" lon="0.65492">
        <ele>245.7</ele>
        <time>2026-08-11T09:26:54.000Z</time>
      </trkpt>
      <trkpt lat="45.77674" lon="0.65494">
        <ele>245.5</ele>
        <time>2026-08-11T09:26:55.000Z</time>
      </trkpt>
      <trkpt lat="45.77658" lon="0.65501">
        <ele>244.7</ele>
        <time>2026-08-11T09:26:58.000Z</time>
      </trkpt>
      <trkpt lat="45.77633" lon="0.6551">
        <ele>243.4</ele>
        <time>2026-08-11T09:27:02.000Z</time>
      </trkpt>
      <trkpt lat="45.77626" lon="0.65512">
        <ele>243.1</ele>
        <time>2026-08-11T09:27:03.000Z</time>
      </trkpt>
      <trkpt lat="45.77592" lon="0.65525">
        <ele>241.4</ele>
        <time>2026-08-11T09:27:08.000Z</time>
      </trkpt>
      <trkpt lat="45.77563" lon="0.65536">
        <ele>240.3</ele>
        <time>2026-08-11T09:27:12.000Z</time>
      </trkpt>
      <trkpt lat="45.77532" lon="0.65547">
        <ele>238.3</ele>
        <time>2026-08-11T09:27:16.000Z</time>
      </trkpt>
      <trkpt lat="45.77506" lon="0.65559">
        <ele>237.1</ele>
        <time>2026-08-11T09:27:20.000Z</time>
      </trkpt>
      <trkpt lat="45.77487" lon="0.65567">
        <ele>235.9</ele>
        <time>2026-08-11T09:27:23.000Z</time>
      </trkpt>
      <trkpt lat="45.77481" lon="0.65568">
        <ele>235.5</ele>
        <time>2026-08-11T09:27:24.000Z</time>
      </trkpt>
      <trkpt lat="45.77469" lon="0.65565">
        <ele>234.6</ele>
        <time>2026-08-11T09:27:26.000Z</time>
      </trkpt>
      <trkpt lat="45.77463" lon="0.65554">
        <ele>233.6</ele>
        <time>2026-08-11T09:27:28.000Z</time>
      </trkpt>
      <trkpt lat="45.77463" lon="0.65545">
        <ele>233.1</ele>
        <time>2026-08-11T09:27:29.000Z</time>
      </trkpt>
      <trkpt lat="45.77464" lon="0.65527">
        <ele>232.5</ele>
        <time>2026-08-11T09:27:31.000Z</time>
      </trkpt>
      <trkpt lat="45.77466" lon="0.65517">
        <ele>232</ele>
        <time>2026-08-11T09:27:32.000Z</time>
      </trkpt>
      <trkpt lat="45.7747" lon="0.65497">
        <ele>231.2</ele>
        <time>2026-08-11T09:27:34.000Z</time>
      </trkpt>
      <trkpt lat="45.77472" lon="0.65486">
        <ele>231</ele>
        <time>2026-08-11T09:27:35.000Z</time>
      </trkpt>
      <trkpt lat="45.77477" lon="0.65456">
        <ele>230</ele>
        <time>2026-08-11T09:27:38.000Z</time>
      </trkpt>
      <trkpt lat="45.77473" lon="0.65435">
        <ele>229.1</ele>
        <time>2026-08-11T09:27:40.000Z</time>
      </trkpt>
      <trkpt lat="45.77462" lon="0.65419">
        <ele>228.2</ele>
        <time>2026-08-11T09:27:42.000Z</time>
      </trkpt>
      <trkpt lat="45.77455" lon="0.65413">
        <ele>227.9</ele>
        <time>2026-08-11T09:27:43.000Z</time>
      </trkpt>
      <trkpt lat="45.77447" lon="0.65408">
        <ele>227.5</ele>
        <time>2026-08-11T09:27:44.000Z</time>
      </trkpt>
      <trkpt lat="45.77439" lon="0.65405">
        <ele>227.2</ele>
        <time>2026-08-11T09:27:45.000Z</time>
      </trkpt>
      <trkpt lat="45.77422" lon="0.65401">
        <ele>226.8</ele>
        <time>2026-08-11T09:27:47.000Z</time>
      </trkpt>
      <trkpt lat="45.77383" lon="0.65391">
        <ele>228.4</ele>
        <time>2026-08-11T09:27:53.000Z</time>
      </trkpt>
      <trkpt lat="45.77362" lon="0.65389">
        <ele>229.9</ele>
        <time>2026-08-11T09:27:58.000Z</time>
      </trkpt>
      <trkpt lat="45.77353" lon="0.65387">
        <ele>230.4</ele>
        <time>2026-08-11T09:28:01.000Z</time>
      </trkpt>
      <trkpt lat="45.77347" lon="0.65384">
        <ele>230.8</ele>
        <time>2026-08-11T09:28:03.000Z</time>
      </trkpt>
      <trkpt lat="45.77336" lon="0.65382">
        <ele>231.4</ele>
        <time>2026-08-11T09:28:08.000Z</time>
      </trkpt>
      <trkpt lat="45.77334" lon="0.65382">
        <ele>231.5</ele>
        <time>2026-08-11T09:28:09.000Z</time>
      </trkpt>
      <trkpt lat="45.77327" lon="0.65379">
        <ele>232.1</ele>
        <time>2026-08-11T09:28:13.000Z</time>
      </trkpt>
      <trkpt lat="45.77311" lon="0.65375">
        <ele>233.2</ele>
        <time>2026-08-11T09:28:21.000Z</time>
      </trkpt>
      <trkpt lat="45.7731" lon="0.65374">
        <ele>233.3</ele>
        <time>2026-08-11T09:28:22.000Z</time>
      </trkpt>
      <trkpt lat="45.77297" lon="0.6537">
        <ele>234.1</ele>
        <time>2026-08-11T09:28:29.000Z</time>
      </trkpt>
      <trkpt lat="45.77295" lon="0.65369">
        <ele>234.2</ele>
        <time>2026-08-11T09:28:30.000Z</time>
      </trkpt>
      <trkpt lat="45.77285" lon="0.65366">
        <ele>234.7</ele>
        <time>2026-08-11T09:28:36.000Z</time>
      </trkpt>
      <trkpt lat="45.77277" lon="0.65365">
        <ele>235.1</ele>
        <time>2026-08-11T09:28:41.000Z</time>
      </trkpt>
      <trkpt lat="45.77275" lon="0.65365">
        <ele>235.2</ele>
        <time>2026-08-11T09:28:42.000Z</time>
      </trkpt>
      <trkpt lat="45.77263" lon="0.65362">
        <ele>236</ele>
        <time>2026-08-11T09:28:49.000Z</time>
      </trkpt>
      <trkpt lat="45.7725" lon="0.65359">
        <ele>237.2</ele>
        <time>2026-08-11T09:28:57.000Z</time>
      </trkpt>
      <trkpt lat="45.77248" lon="0.65358">
        <ele>237.3</ele>
        <time>2026-08-11T09:28:58.000Z</time>
      </trkpt>
      <trkpt lat="45.77245" lon="0.65356">
        <ele>237.5</ele>
        <time>2026-08-11T09:29:00.000Z</time>
      </trkpt>
      <trkpt lat="45.77241" lon="0.65355">
        <ele>237.7</ele>
        <time>2026-08-11T09:29:02.000Z</time>
      </trkpt>
      <trkpt lat="45.77229" lon="0.65353">
        <ele>238.1</ele>
        <time>2026-08-11T09:29:09.000Z</time>
      </trkpt>
      <trkpt lat="45.77227" lon="0.65353">
        <ele>238.2</ele>
        <time>2026-08-11T09:29:10.000Z</time>
      </trkpt>
      <trkpt lat="45.77217" lon="0.6535">
        <ele>238.6</ele>
        <time>2026-08-11T09:29:16.000Z</time>
      </trkpt>
      <trkpt lat="45.77215" lon="0.65349">
        <ele>238.7</ele>
        <time>2026-08-11T09:29:17.000Z</time>
      </trkpt>
      <trkpt lat="45.7721" lon="0.65348">
        <ele>238.9</ele>
        <time>2026-08-11T09:29:20.000Z</time>
      </trkpt>
      <trkpt lat="45.77201" lon="0.65346">
        <ele>239.3</ele>
        <time>2026-08-11T09:29:25.000Z</time>
      </trkpt>
      <trkpt lat="45.77193" lon="0.65344">
        <ele>239.8</ele>
        <time>2026-08-11T09:29:30.000Z</time>
      </trkpt>
      <trkpt lat="45.77189" lon="0.65344">
        <ele>240</ele>
        <time>2026-08-11T09:29:32.000Z</time>
      </trkpt>
      <trkpt lat="45.77177" lon="0.6534">
        <ele>241</ele>
        <time>2026-08-11T09:29:39.000Z</time>
      </trkpt>
      <trkpt lat="45.77165" lon="0.65337">
        <ele>242</ele>
        <time>2026-08-11T09:29:46.000Z</time>
      </trkpt>
      <trkpt lat="45.77158" lon="0.65334">
        <ele>242.6</ele>
        <time>2026-08-11T09:29:50.000Z</time>
      </trkpt>
      <trkpt lat="45.77152" lon="0.65332">
        <ele>243.1</ele>
        <time>2026-08-11T09:29:54.000Z</time>
      </trkpt>
      <trkpt lat="45.7715" lon="0.65332">
        <ele>243.3</ele>
        <time>2026-08-11T09:29:55.000Z</time>
      </trkpt>
      <trkpt lat="45.77144" lon="0.65331">
        <ele>243.7</ele>
        <time>2026-08-11T09:29:59.000Z</time>
      </trkpt>
      <trkpt lat="45.77139" lon="0.65331">
        <ele>244.1</ele>
        <time>2026-08-11T09:30:02.000Z</time>
      </trkpt>
      <trkpt lat="45.77132" lon="0.65331">
        <ele>244.6</ele>
        <time>2026-08-11T09:30:06.000Z</time>
      </trkpt>
      <trkpt lat="45.77128" lon="0.65331">
        <ele>244.9</ele>
        <time>2026-08-11T09:30:09.000Z</time>
      </trkpt>
      <trkpt lat="45.7712" lon="0.65333">
        <ele>245.4</ele>
        <time>2026-08-11T09:30:13.000Z</time>
      </trkpt>
      <trkpt lat="45.77114" lon="0.65336">
        <ele>245.8</ele>
        <time>2026-08-11T09:30:16.000Z</time>
      </trkpt>
      <trkpt lat="45.77105" lon="0.65339">
        <ele>246.4</ele>
        <time>2026-08-11T09:30:21.000Z</time>
      </trkpt>
      <trkpt lat="45.77096" lon="0.65346">
        <ele>247.1</ele>
        <time>2026-08-11T09:30:27.000Z</time>
      </trkpt>
      <trkpt lat="45.77091" lon="0.65349">
        <ele>247.4</ele>
        <time>2026-08-11T09:30:30.000Z</time>
      </trkpt>
      <trkpt lat="45.77086" lon="0.65356">
        <ele>247.8</ele>
        <time>2026-08-11T09:30:34.000Z</time>
      </trkpt>
      <trkpt lat="45.77075" lon="0.65368">
        <ele>248.6</ele>
        <time>2026-08-11T09:30:42.000Z</time>
      </trkpt>
      <trkpt lat="45.77067" lon="0.65376">
        <ele>249.2</ele>
        <time>2026-08-11T09:30:48.000Z</time>
      </trkpt>
      <trkpt lat="45.77065" lon="0.65379">
        <ele>249.3</ele>
        <time>2026-08-11T09:30:50.000Z</time>
      </trkpt>
      <trkpt lat="45.77052" lon="0.65392">
        <ele>250.4</ele>
        <time>2026-08-11T09:31:00.000Z</time>
      </trkpt>
      <trkpt lat="45.77048" lon="0.65397">
        <ele>250.9</ele>
        <time>2026-08-11T09:31:04.000Z</time>
      </trkpt>
      <trkpt lat="45.77043" lon="0.654">
        <ele>251.3</ele>
        <time>2026-08-11T09:31:07.000Z</time>
      </trkpt>
      <trkpt lat="45.77033" lon="0.6541">
        <ele>252.4</ele>
        <time>2026-08-11T09:31:15.000Z</time>
      </trkpt>
      <trkpt lat="45.7703" lon="0.65414">
        <ele>252.7</ele>
        <time>2026-08-11T09:31:17.000Z</time>
      </trkpt>
      <trkpt lat="45.77023" lon="0.65421">
        <ele>253.3</ele>
        <time>2026-08-11T09:31:23.000Z</time>
      </trkpt>
      <trkpt lat="45.77016" lon="0.6543">
        <ele>253.8</ele>
        <time>2026-08-11T09:31:29.000Z</time>
      </trkpt>
      <trkpt lat="45.77012" lon="0.65433">
        <ele>254.1</ele>
        <time>2026-08-11T09:31:32.000Z</time>
      </trkpt>
      <trkpt lat="45.77005" lon="0.65443">
        <ele>254.6</ele>
        <time>2026-08-11T09:31:38.000Z</time>
      </trkpt>
      <trkpt lat="45.77003" lon="0.65445">
        <ele>254.8</ele>
        <time>2026-08-11T09:31:40.000Z</time>
      </trkpt>
      <trkpt lat="45.76998" lon="0.65451">
        <ele>255.2</ele>
        <time>2026-08-11T09:31:45.000Z</time>
      </trkpt>
      <trkpt lat="45.76991" lon="0.65458">
        <ele>255.6</ele>
        <time>2026-08-11T09:31:51.000Z</time>
      </trkpt>
      <trkpt lat="45.7699" lon="0.65459">
        <ele>255.7</ele>
        <time>2026-08-11T09:31:52.000Z</time>
      </trkpt>
      <trkpt lat="45.76982" lon="0.65466">
        <ele>256.3</ele>
        <time>2026-08-11T09:31:58.000Z</time>
      </trkpt>
      <trkpt lat="45.76981" lon="0.65467">
        <ele>256.4</ele>
        <time>2026-08-11T09:31:59.000Z</time>
      </trkpt>
      <trkpt lat="45.76976" lon="0.6547">
        <ele>256.7</ele>
        <time>2026-08-11T09:32:02.000Z</time>
      </trkpt>
      <trkpt lat="45.76975" lon="0.65472">
        <ele>256.8</ele>
        <time>2026-08-11T09:32:03.000Z</time>
      </trkpt>
      <trkpt lat="45.7697" lon="0.65479">
        <ele>256.9</ele>
        <time>2026-08-11T09:32:07.000Z</time>
      </trkpt>
      <trkpt lat="45.76969" lon="0.6548">
        <ele>257</ele>
        <time>2026-08-11T09:32:08.000Z</time>
      </trkpt>
      <trkpt lat="45.76966" lon="0.65485">
        <ele>257</ele>
        <time>2026-08-11T09:32:11.000Z</time>
      </trkpt>
      <trkpt lat="45.76963" lon="0.65492">
        <ele>257</ele>
        <time>2026-08-11T09:32:14.000Z</time>
      </trkpt>
      <trkpt lat="45.76961" lon="0.65496">
        <ele>257</ele>
        <time>2026-08-11T09:32:16.000Z</time>
      </trkpt>
      <trkpt lat="45.7696" lon="0.65498">
        <ele>257</ele>
        <time>2026-08-11T09:32:18.000Z</time>
      </trkpt>
      <trkpt lat="45.76959" lon="0.65499">
        <ele>257</ele>
        <time>2026-08-11T09:32:19.000Z</time>
      </trkpt>
      <trkpt lat="45.76955" lon="0.65503">
        <ele>257.2</ele>
        <time>2026-08-11T09:32:22.000Z</time>
      </trkpt>
      <trkpt lat="45.7695" lon="0.65509">
        <ele>257.6</ele>
        <time>2026-08-11T09:32:27.000Z</time>
      </trkpt>
      <trkpt lat="45.76949" lon="0.6551">
        <ele>257.7</ele>
        <time>2026-08-11T09:32:28.000Z</time>
      </trkpt>
      <trkpt lat="45.76944" lon="0.65514">
        <ele>258</ele>
        <time>2026-08-11T09:32:32.000Z</time>
      </trkpt>
      <trkpt lat="45.76943" lon="0.65515">
        <ele>258.1</ele>
        <time>2026-08-11T09:32:33.000Z</time>
      </trkpt>
      <trkpt lat="45.76933" lon="0.65527">
        <ele>258.8</ele>
        <time>2026-08-11T09:32:40.000Z</time>
      </trkpt>
      <trkpt lat="45.76932" lon="0.65528">
        <ele>258.9</ele>
        <time>2026-08-11T09:32:41.000Z</time>
      </trkpt>
      <trkpt lat="45.76924" lon="0.65534">
        <ele>259.5</ele>
        <time>2026-08-11T09:32:48.000Z</time>
      </trkpt>
      <trkpt lat="45.76917" lon="0.6554">
        <ele>260</ele>
        <time>2026-08-11T09:32:53.000Z</time>
      </trkpt>
      <trkpt lat="45.76914" lon="0.6554">
        <ele>260.2</ele>
        <time>2026-08-11T09:32:55.000Z</time>
      </trkpt>
      <trkpt lat="45.76901" lon="0.65539">
        <ele>260.9</ele>
        <time>2026-08-11T09:33:02.000Z</time>
      </trkpt>
      <trkpt lat="45.76896" lon="0.6554">
        <ele>261.2</ele>
        <time>2026-08-11T09:33:05.000Z</time>
      </trkpt>
      <trkpt lat="45.76886" lon="0.65539">
        <ele>261.7</ele>
        <time>2026-08-11T09:33:11.000Z</time>
      </trkpt>
      <trkpt lat="45.76879" lon="0.6554">
        <ele>261.9</ele>
        <time>2026-08-11T09:33:15.000Z</time>
      </trkpt>
      <trkpt lat="45.7687" lon="0.6554">
        <ele>262.3</ele>
        <time>2026-08-11T09:33:21.000Z</time>
      </trkpt>
      <trkpt lat="45.76854" lon="0.6554">
        <ele>262.8</ele>
        <time>2026-08-11T09:33:30.000Z</time>
      </trkpt>
      <trkpt lat="45.76851" lon="0.6554">
        <ele>262.9</ele>
        <time>2026-08-11T09:33:32.000Z</time>
      </trkpt>
      <trkpt lat="45.76834" lon="0.6554">
        <ele>263.5</ele>
        <time>2026-08-11T09:33:42.000Z</time>
      </trkpt>
      <trkpt lat="45.76818" lon="0.65539">
        <ele>263.8</ele>
        <time>2026-08-11T09:33:52.000Z</time>
      </trkpt>
      <trkpt lat="45.76808" lon="0.6554">
        <ele>264</ele>
        <time>2026-08-11T09:33:59.000Z</time>
      </trkpt>
      <trkpt lat="45.76795" lon="0.65539">
        <ele>264.2</ele>
        <time>2026-08-11T09:34:06.000Z</time>
      </trkpt>
      <trkpt lat="45.76772" lon="0.65541">
        <ele>264.7</ele>
        <time>2026-08-11T09:34:15.000Z</time>
      </trkpt>
      <trkpt lat="45.76755" lon="0.65536">
        <ele>265.5</ele>
        <time>2026-08-11T09:34:20.000Z</time>
      </trkpt>
      <trkpt lat="45.7673" lon="0.65536">
        <ele>265.7</ele>
        <time>2026-08-11T09:34:26.000Z</time>
      </trkpt>
      <trkpt lat="45.76703" lon="0.65536">
        <ele>266.4</ele>
        <time>2026-08-11T09:34:33.000Z</time>
      </trkpt>
      <trkpt lat="45.76682" lon="0.65536">
        <ele>266.7</ele>
        <time>2026-08-11T09:34:40.000Z</time>
      </trkpt>
      <trkpt lat="45.76679" lon="0.65536">
        <ele>266.7</ele>
        <time>2026-08-11T09:34:41.000Z</time>
      </trkpt>
      <trkpt lat="45.76669" lon="0.65535">
        <ele>266.7</ele>
        <time>2026-08-11T09:34:45.000Z</time>
      </trkpt>
      <trkpt lat="45.76667" lon="0.65535">
        <ele>266.7</ele>
        <time>2026-08-11T09:34:46.000Z</time>
      </trkpt>
      <trkpt lat="45.76658" lon="0.65535">
        <ele>267.1</ele>
        <time>2026-08-11T09:34:50.000Z</time>
      </trkpt>
      <trkpt lat="45.76655" lon="0.65535">
        <ele>267.1</ele>
        <time>2026-08-11T09:34:51.000Z</time>
      </trkpt>
      <trkpt lat="45.76633" lon="0.65529">
        <ele>268.2</ele>
        <time>2026-08-11T09:35:00.000Z</time>
      </trkpt>
      <trkpt lat="45.76621" lon="0.65523">
        <ele>268.7</ele>
        <time>2026-08-11T09:35:05.000Z</time>
      </trkpt>
      <trkpt lat="45.76614" lon="0.65519">
        <ele>268.9</ele>
        <time>2026-08-11T09:35:08.000Z</time>
      </trkpt>
      <trkpt lat="45.76602" lon="0.65507">
        <ele>269</ele>
        <time>2026-08-11T09:35:14.000Z</time>
      </trkpt>
      <trkpt lat="45.76599" lon="0.65504">
        <ele>269</ele>
        <time>2026-08-11T09:35:15.000Z</time>
      </trkpt>
      <trkpt lat="45.7658" lon="0.65484">
        <ele>269</ele>
        <time>2026-08-11T09:35:21.000Z</time>
      </trkpt>
      <trkpt lat="45.76559" lon="0.65459">
        <ele>269.1</ele>
        <time>2026-08-11T09:35:28.000Z</time>
      </trkpt>
      <trkpt lat="45.76538" lon="0.65436">
        <ele>268.4</ele>
        <time>2026-08-11T09:35:34.000Z</time>
      </trkpt>
      <trkpt lat="45.76534" lon="0.65432">
        <ele>268.2</ele>
        <time>2026-08-11T09:35:35.000Z</time>
      </trkpt>
      <trkpt lat="45.76508" lon="0.65401">
        <ele>267.2</ele>
        <time>2026-08-11T09:35:42.000Z</time>
      </trkpt>
      <trkpt lat="45.76478" lon="0.6537">
        <ele>266.8</ele>
        <time>2026-08-11T09:35:50.000Z</time>
      </trkpt>
      <trkpt lat="45.76474" lon="0.65367">
        <ele>266.3</ele>
        <time>2026-08-11T09:35:51.000Z</time>
      </trkpt>
      <trkpt lat="45.76469" lon="0.65365">
        <ele>266</ele>
        <time>2026-08-11T09:35:52.000Z</time>
      </trkpt>
      <trkpt lat="45.7644" lon="0.65356">
        <ele>265</ele>
        <time>2026-08-11T09:35:57.000Z</time>
      </trkpt>
      <trkpt lat="45.76434" lon="0.65354">
        <ele>264.6</ele>
        <time>2026-08-11T09:35:58.000Z</time>
      </trkpt>
      <trkpt lat="45.76403" lon="0.65346">
        <ele>262.6</ele>
        <time>2026-08-11T09:36:02.000Z</time>
      </trkpt>
      <trkpt lat="45.76363" lon="0.65334">
        <ele>261.9</ele>
        <time>2026-08-11T09:36:07.000Z</time>
      </trkpt>
      <trkpt lat="45.76348" lon="0.6533">
        <ele>261.3</ele>
        <time>2026-08-11T09:36:09.000Z</time>
      </trkpt>
      <trkpt lat="45.76296" lon="0.65314">
        <ele>262</ele>
        <time>2026-08-11T09:36:16.000Z</time>
      </trkpt>
      <trkpt lat="45.7629" lon="0.65311">
        <ele>262.4</ele>
        <time>2026-08-11T09:36:17.000Z</time>
      </trkpt>
      <trkpt lat="45.76256" lon="0.65298">
        <ele>264.1</ele>
        <time>2026-08-11T09:36:23.000Z</time>
      </trkpt>
      <trkpt lat="45.7623" lon="0.65287">
        <ele>265.4</ele>
        <time>2026-08-11T09:36:29.000Z</time>
      </trkpt>
      <trkpt lat="45.76213" lon="0.65281">
        <ele>266.5</ele>
        <time>2026-08-11T09:36:35.000Z</time>
      </trkpt>
      <trkpt lat="45.76197" lon="0.65275">
        <ele>267.8</ele>
        <time>2026-08-11T09:36:42.000Z</time>
      </trkpt>
      <trkpt lat="45.7618" lon="0.65269">
        <ele>268.7</ele>
        <time>2026-08-11T09:36:50.000Z</time>
      </trkpt>
      <trkpt lat="45.76175" lon="0.65268">
        <ele>268.9</ele>
        <time>2026-08-11T09:36:52.000Z</time>
      </trkpt>
      <trkpt lat="45.76162" lon="0.65263">
        <ele>269.9</ele>
        <time>2026-08-11T09:36:59.000Z</time>
      </trkpt>
      <trkpt lat="45.76155" lon="0.65259">
        <ele>270.5</ele>
        <time>2026-08-11T09:37:03.000Z</time>
      </trkpt>
      <trkpt lat="45.76151" lon="0.65258">
        <ele>270.8</ele>
        <time>2026-08-11T09:37:05.000Z</time>
      </trkpt>
      <trkpt lat="45.76141" lon="0.65252">
        <ele>271.8</ele>
        <time>2026-08-11T09:37:11.000Z</time>
      </trkpt>
      <trkpt lat="45.76138" lon="0.65251">
        <ele>272</ele>
        <time>2026-08-11T09:37:13.000Z</time>
      </trkpt>
      <trkpt lat="45.76126" lon="0.65247">
        <ele>272.6</ele>
        <time>2026-08-11T09:37:20.000Z</time>
      </trkpt>
      <trkpt lat="45.76119" lon="0.65245">
        <ele>272.9</ele>
        <time>2026-08-11T09:37:24.000Z</time>
      </trkpt>
      <trkpt lat="45.76108" lon="0.65241">
        <ele>273.4</ele>
        <time>2026-08-11T09:37:31.000Z</time>
      </trkpt>
      <trkpt lat="45.76105" lon="0.6524">
        <ele>273.6</ele>
        <time>2026-08-11T09:37:33.000Z</time>
      </trkpt>
      <trkpt lat="45.76089" lon="0.65234">
        <ele>274.4</ele>
        <time>2026-08-11T09:37:43.000Z</time>
      </trkpt>
      <trkpt lat="45.76085" lon="0.65232">
        <ele>274.6</ele>
        <time>2026-08-11T09:37:45.000Z</time>
      </trkpt>
      <trkpt lat="45.76072" lon="0.65227">
        <ele>274.8</ele>
        <time>2026-08-11T09:37:52.000Z</time>
      </trkpt>
      <trkpt lat="45.76058" lon="0.65222">
        <ele>275</ele>
        <time>2026-08-11T09:37:59.000Z</time>
      </trkpt>
      <trkpt lat="45.76056" lon="0.65221">
        <ele>275</ele>
        <time>2026-08-11T09:38:00.000Z</time>
      </trkpt>
      <trkpt lat="45.76035" lon="0.65212">
        <ele>275.4</ele>
        <time>2026-08-11T09:38:09.000Z</time>
      </trkpt>
      <trkpt lat="45.76033" lon="0.65211">
        <ele>275.4</ele>
        <time>2026-08-11T09:38:10.000Z</time>
      </trkpt>
      <trkpt lat="45.76002" lon="0.65199">
        <ele>274.9</ele>
        <time>2026-08-11T09:38:19.000Z</time>
      </trkpt>
      <trkpt lat="45.75982" lon="0.65188">
        <ele>275.2</ele>
        <time>2026-08-11T09:38:25.000Z</time>
      </trkpt>
      <trkpt lat="45.75954" lon="0.65164">
        <ele>275.3</ele>
        <time>2026-08-11T09:38:34.000Z</time>
      </trkpt>
      <trkpt lat="45.75929" lon="0.65134">
        <ele>274.6</ele>
        <time>2026-08-11T09:38:42.000Z</time>
      </trkpt>
      <trkpt lat="45.75905" lon="0.65103">
        <ele>274.2</ele>
        <time>2026-08-11T09:38:49.000Z</time>
      </trkpt>
      <trkpt lat="45.75901" lon="0.65098">
        <ele>273.9</ele>
        <time>2026-08-11T09:38:50.000Z</time>
      </trkpt>
      <trkpt lat="45.75874" lon="0.65063">
        <ele>272.8</ele>
        <time>2026-08-11T09:38:57.000Z</time>
      </trkpt>
      <trkpt lat="45.75842" lon="0.6502">
        <ele>271.5</ele>
        <time>2026-08-11T09:39:05.000Z</time>
      </trkpt>
      <trkpt lat="45.75834" lon="0.6501">
        <ele>271.7</ele>
        <time>2026-08-11T09:39:07.000Z</time>
      </trkpt>
      <trkpt lat="45.75807" lon="0.64979">
        <ele>272.7</ele>
        <time>2026-08-11T09:39:14.000Z</time>
      </trkpt>
      <trkpt lat="45.75782" lon="0.64964">
        <ele>273.6</ele>
        <time>2026-08-11T09:39:21.000Z</time>
      </trkpt>
      <trkpt lat="45.75751" lon="0.64957">
        <ele>274.5</ele>
        <time>2026-08-11T09:39:29.000Z</time>
      </trkpt>
      <trkpt lat="45.7573" lon="0.64952">
        <ele>274.7</ele>
        <time>2026-08-11T09:39:35.000Z</time>
      </trkpt>
      <trkpt lat="45.75715" lon="0.6495">
        <ele>274.6</ele>
        <time>2026-08-11T09:39:39.000Z</time>
      </trkpt>
      <trkpt lat="45.75692" lon="0.64947">
        <ele>274</ele>
        <time>2026-08-11T09:39:45.000Z</time>
      </trkpt>
      <trkpt lat="45.75653" lon="0.6494">
        <ele>274.1</ele>
        <time>2026-08-11T09:39:54.000Z</time>
      </trkpt>
      <trkpt lat="45.75619" lon="0.64932">
        <ele>274.3</ele>
        <time>2026-08-11T09:40:02.000Z</time>
      </trkpt>
      <trkpt lat="45.75592" lon="0.64926">
        <ele>274.9</ele>
        <time>2026-08-11T09:40:09.000Z</time>
      </trkpt>
      <trkpt lat="45.75581" lon="0.64924">
        <ele>275.1</ele>
        <time>2026-08-11T09:40:12.000Z</time>
      </trkpt>
      <trkpt lat="45.75572" lon="0.64922">
        <ele>275.4</ele>
        <time>2026-08-11T09:40:15.000Z</time>
      </trkpt>
      <trkpt lat="45.75548" lon="0.64918">
        <ele>276.3</ele>
        <time>2026-08-11T09:40:22.000Z</time>
      </trkpt>
      <trkpt lat="45.75545" lon="0.64916">
        <ele>276.4</ele>
        <time>2026-08-11T09:40:23.000Z</time>
      </trkpt>
      <trkpt lat="45.75525" lon="0.64912">
        <ele>277</ele>
        <time>2026-08-11T09:40:29.000Z</time>
      </trkpt>
      <trkpt lat="45.75514" lon="0.64911">
        <ele>277</ele>
        <time>2026-08-11T09:40:33.000Z</time>
      </trkpt>
      <trkpt lat="45.75504" lon="0.6491">
        <ele>277</ele>
        <time>2026-08-11T09:40:36.000Z</time>
      </trkpt>
      <trkpt lat="45.75481" lon="0.64905">
        <ele>277.7</ele>
        <time>2026-08-11T09:40:43.000Z</time>
      </trkpt>
      <trkpt lat="45.7546" lon="0.64901">
        <ele>278.5</ele>
        <time>2026-08-11T09:40:51.000Z</time>
      </trkpt>
      <trkpt lat="45.75441" lon="0.64896">
        <ele>279</ele>
        <time>2026-08-11T09:40:57.000Z</time>
      </trkpt>
      <trkpt lat="45.75433" lon="0.64894">
        <ele>279</ele>
        <time>2026-08-11T09:40:59.000Z</time>
      </trkpt>
      <trkpt lat="45.75406" lon="0.64889">
        <ele>279.4</ele>
        <time>2026-08-11T09:41:08.000Z</time>
      </trkpt>
      <trkpt lat="45.75392" lon="0.64886">
        <ele>280</ele>
        <time>2026-08-11T09:41:13.000Z</time>
      </trkpt>
      <trkpt lat="45.75384" lon="0.64885">
        <ele>280.1</ele>
        <time>2026-08-11T09:41:16.000Z</time>
      </trkpt>
      <trkpt lat="45.75369" lon="0.6488">
        <ele>280.3</ele>
        <time>2026-08-11T09:41:21.000Z</time>
      </trkpt>
      <trkpt lat="45.75363" lon="0.6488">
        <ele>280.3</ele>
        <time>2026-08-11T09:41:23.000Z</time>
      </trkpt>
      <trkpt lat="45.75341" lon="0.64878">
        <ele>281.1</ele>
        <time>2026-08-11T09:41:29.000Z</time>
      </trkpt>
      <trkpt lat="45.75333" lon="0.64876">
        <ele>281.5</ele>
        <time>2026-08-11T09:41:31.000Z</time>
      </trkpt>
      <trkpt lat="45.75307" lon="0.6487">
        <ele>281.7</ele>
        <time>2026-08-11T09:41:38.000Z</time>
      </trkpt>
      <trkpt lat="45.75277" lon="0.64867">
        <ele>281.8</ele>
        <time>2026-08-11T09:41:45.000Z</time>
      </trkpt>
      <trkpt lat="45.75254" lon="0.64864">
        <ele>282</ele>
        <time>2026-08-11T09:41:51.000Z</time>
      </trkpt>
      <trkpt lat="45.7525" lon="0.64863">
        <ele>282</ele>
        <time>2026-08-11T09:41:52.000Z</time>
      </trkpt>
      <trkpt lat="45.75246" lon="0.64862">
        <ele>281.9</ele>
        <time>2026-08-11T09:41:53.000Z</time>
      </trkpt>
      <trkpt lat="45.75217" lon="0.64855">
        <ele>281</ele>
        <time>2026-08-11T09:42:00.000Z</time>
      </trkpt>
      <trkpt lat="45.75192" lon="0.6485">
        <ele>280.5</ele>
        <time>2026-08-11T09:42:05.000Z</time>
      </trkpt>
      <trkpt lat="45.75161" lon="0.64845">
        <ele>279.9</ele>
        <time>2026-08-11T09:42:10.000Z</time>
      </trkpt>
      <trkpt lat="45.75143" lon="0.64841">
        <ele>279.4</ele>
        <time>2026-08-11T09:42:13.000Z</time>
      </trkpt>
      <trkpt lat="45.75137" lon="0.6484">
        <ele>279.2</ele>
        <time>2026-08-11T09:42:14.000Z</time>
      </trkpt>
      <trkpt lat="45.75108" lon="0.64835">
        <ele>278.9</ele>
        <time>2026-08-11T09:42:19.000Z</time>
      </trkpt>
      <trkpt lat="45.75082" lon="0.64829">
        <ele>278</ele>
        <time>2026-08-11T09:42:24.000Z</time>
      </trkpt>
      <trkpt lat="45.7505" lon="0.64823">
        <ele>278.6</ele>
        <time>2026-08-11T09:42:30.000Z</time>
      </trkpt>
      <trkpt lat="45.75045" lon="0.64822">
        <ele>278.6</ele>
        <time>2026-08-11T09:42:31.000Z</time>
      </trkpt>
      <trkpt lat="45.75029" lon="0.64819">
        <ele>278.5</ele>
        <time>2026-08-11T09:42:34.000Z</time>
      </trkpt>
      <trkpt lat="45.74994" lon="0.64811">
        <ele>278.3</ele>
        <time>2026-08-11T09:42:41.000Z</time>
      </trkpt>
      <trkpt lat="45.74984" lon="0.6481">
        <ele>278.2</ele>
        <time>2026-08-11T09:42:43.000Z</time>
      </trkpt>
      <trkpt lat="45.74976" lon="0.64806">
        <ele>278.1</ele>
        <time>2026-08-11T09:42:45.000Z</time>
      </trkpt>
      <trkpt lat="45.74946" lon="0.64799">
        <ele>278.9</ele>
        <time>2026-08-11T09:42:53.000Z</time>
      </trkpt>
      <trkpt lat="45.7492" lon="0.64794">
        <ele>279</ele>
        <time>2026-08-11T09:43:00.000Z</time>
      </trkpt>
      <trkpt lat="45.74883" lon="0.64784">
        <ele>278</ele>
        <time>2026-08-11T09:43:09.000Z</time>
      </trkpt>
      <trkpt lat="45.74878" lon="0.64777">
        <ele>278</ele>
        <time>2026-08-11T09:43:11.000Z</time>
      </trkpt>
      <trkpt lat="45.74877" lon="0.64772">
        <ele>277.9</ele>
        <time>2026-08-11T09:43:12.000Z</time>
      </trkpt>
      <trkpt lat="45.74877" lon="0.64737">
        <ele>277.3</ele>
        <time>2026-08-11T09:43:18.000Z</time>
      </trkpt>
      <trkpt lat="45.74875" lon="0.64732">
        <ele>277.2</ele>
        <time>2026-08-11T09:43:19.000Z</time>
      </trkpt>
      <trkpt lat="45.74868" lon="0.64724">
        <ele>277</ele>
        <time>2026-08-11T09:43:21.000Z</time>
      </trkpt>
      <trkpt lat="45.74864" lon="0.6472">
        <ele>277</ele>
        <time>2026-08-11T09:43:22.000Z</time>
      </trkpt>
      <trkpt lat="45.74852" lon="0.64709">
        <ele>277.2</ele>
        <time>2026-08-11T09:43:25.000Z</time>
      </trkpt>
      <trkpt lat="45.74844" lon="0.64702">
        <ele>277.2</ele>
        <time>2026-08-11T09:43:27.000Z</time>
      </trkpt>
      <trkpt lat="45.74811" lon="0.64673">
        <ele>276.4</ele>
        <time>2026-08-11T09:43:35.000Z</time>
      </trkpt>
      <trkpt lat="45.74773" lon="0.64641">
        <ele>276</ele>
        <time>2026-08-11T09:43:43.000Z</time>
      </trkpt>
      <trkpt lat="45.74764" lon="0.64632">
        <ele>276</ele>
        <time>2026-08-11T09:43:45.000Z</time>
      </trkpt>
      <trkpt lat="45.74723" lon="0.64595">
        <ele>276</ele>
        <time>2026-08-11T09:43:54.000Z</time>
      </trkpt>
      <trkpt lat="45.74691" lon="0.64574">
        <ele>275.9</ele>
        <time>2026-08-11T09:44:01.000Z</time>
      </trkpt>
      <trkpt lat="45.74686" lon="0.64572">
        <ele>275.8</ele>
        <time>2026-08-11T09:44:02.000Z</time>
      </trkpt>
      <trkpt lat="45.74665" lon="0.64566">
        <ele>275.6</ele>
        <time>2026-08-11T09:44:06.000Z</time>
      </trkpt>
      <trkpt lat="45.74648" lon="0.64565">
        <ele>275.6</ele>
        <time>2026-08-11T09:44:09.000Z</time>
      </trkpt>
      <trkpt lat="45.74643" lon="0.64566">
        <ele>275.6</ele>
        <time>2026-08-11T09:44:10.000Z</time>
      </trkpt>
      <trkpt lat="45.74612" lon="0.64571">
        <ele>275.9</ele>
        <time>2026-08-11T09:44:16.000Z</time>
      </trkpt>
      <trkpt lat="45.74583" lon="0.6457">
        <ele>276.5</ele>
        <time>2026-08-11T09:44:22.000Z</time>
      </trkpt>
      <trkpt lat="45.74556" lon="0.64566">
        <ele>276.6</ele>
        <time>2026-08-11T09:44:28.000Z</time>
      </trkpt>
      <trkpt lat="45.74524" lon="0.64561">
        <ele>276</ele>
        <time>2026-08-11T09:44:35.000Z</time>
      </trkpt>
      <trkpt lat="45.74484" lon="0.64555">
        <ele>275.4</ele>
        <time>2026-08-11T09:44:43.000Z</time>
      </trkpt>
      <trkpt lat="45.74443" lon="0.64549">
        <ele>274.2</ele>
        <time>2026-08-11T09:44:51.000Z</time>
      </trkpt>
      <trkpt lat="45.74438" lon="0.64548">
        <ele>274.2</ele>
        <time>2026-08-11T09:44:52.000Z</time>
      </trkpt>
      <trkpt lat="45.74397" lon="0.64543">
        <ele>273.6</ele>
        <time>2026-08-11T09:45:00.000Z</time>
      </trkpt>
      <trkpt lat="45.7435" lon="0.64534">
        <ele>273</ele>
        <time>2026-08-11T09:45:09.000Z</time>
      </trkpt>
      <trkpt lat="45.74313" lon="0.64525">
        <ele>272.9</ele>
        <time>2026-08-11T09:45:16.000Z</time>
      </trkpt>
      <trkpt lat="45.74263" lon="0.64512">
        <ele>272.6</ele>
        <time>2026-08-11T09:45:26.000Z</time>
      </trkpt>
      <trkpt lat="45.7424" lon="0.64506">
        <ele>272.9</ele>
        <time>2026-08-11T09:45:31.000Z</time>
      </trkpt>
      <trkpt lat="45.74219" lon="0.645">
        <ele>273</ele>
        <time>2026-08-11T09:45:36.000Z</time>
      </trkpt>
      <trkpt lat="45.74199" lon="0.64494">
        <ele>273</ele>
        <time>2026-08-11T09:45:41.000Z</time>
      </trkpt>
      <trkpt lat="45.74187" lon="0.64491">
        <ele>273.1</ele>
        <time>2026-08-11T09:45:44.000Z</time>
      </trkpt>
      <trkpt lat="45.74154" lon="0.64487">
        <ele>273.5</ele>
        <time>2026-08-11T09:45:52.000Z</time>
      </trkpt>
      <trkpt lat="45.74132" lon="0.64484">
        <ele>273.6</ele>
        <time>2026-08-11T09:45:57.000Z</time>
      </trkpt>
      <trkpt lat="45.74123" lon="0.64483">
        <ele>273.6</ele>
        <time>2026-08-11T09:45:59.000Z</time>
      </trkpt>
      <trkpt lat="45.74115" lon="0.64482">
        <ele>273.6</ele>
        <time>2026-08-11T09:46:01.000Z</time>
      </trkpt>
      <trkpt lat="45.74094" lon="0.64481">
        <ele>273.3</ele>
        <time>2026-08-11T09:46:06.000Z</time>
      </trkpt>
      <trkpt lat="45.74056" lon="0.64486">
        <ele>273</ele>
        <time>2026-08-11T09:46:15.000Z</time>
      </trkpt>
      <trkpt lat="45.74026" lon="0.64491">
        <ele>272.7</ele>
        <time>2026-08-11T09:46:22.000Z</time>
      </trkpt>
      <trkpt lat="45.74" lon="0.64495">
        <ele>272.8</ele>
        <time>2026-08-11T09:46:28.000Z</time>
      </trkpt>
      <trkpt lat="45.73955" lon="0.64498">
        <ele>271.9</ele>
        <time>2026-08-11T09:46:38.000Z</time>
      </trkpt>
      <trkpt lat="45.73917" lon="0.6449">
        <ele>271.6</ele>
        <time>2026-08-11T09:46:46.000Z</time>
      </trkpt>
      <trkpt lat="45.73882" lon="0.64469">
        <ele>270.9</ele>
        <time>2026-08-11T09:46:54.000Z</time>
      </trkpt>
      <trkpt lat="45.73849" lon="0.64437">
        <ele>270.8</ele>
        <time>2026-08-11T09:47:02.000Z</time>
      </trkpt>
      <trkpt lat="45.73817" lon="0.64407">
        <ele>270.9</ele>
        <time>2026-08-11T09:47:10.000Z</time>
      </trkpt>
      <trkpt lat="45.73779" lon="0.64376">
        <ele>270</ele>
        <time>2026-08-11T09:47:19.000Z</time>
      </trkpt>
      <trkpt lat="45.73744" lon="0.64354">
        <ele>269.6</ele>
        <time>2026-08-11T09:47:27.000Z</time>
      </trkpt>
      <trkpt lat="45.73711" lon="0.64331">
        <ele>270</ele>
        <time>2026-08-11T09:47:35.000Z</time>
      </trkpt>
      <trkpt lat="45.73689" lon="0.64317">
        <ele>270</ele>
        <time>2026-08-11T09:47:40.000Z</time>
      </trkpt>
      <trkpt lat="45.73677" lon="0.64309">
        <ele>270</ele>
        <time>2026-08-11T09:47:43.000Z</time>
      </trkpt>
      <trkpt lat="45.73647" lon="0.64289">
        <ele>270</ele>
        <time>2026-08-11T09:47:50.000Z</time>
      </trkpt>
      <trkpt lat="45.73611" lon="0.64264">
        <ele>269.5</ele>
        <time>2026-08-11T09:47:58.000Z</time>
      </trkpt>
      <trkpt lat="45.73573" lon="0.64239">
        <ele>269.6</ele>
        <time>2026-08-11T09:48:07.000Z</time>
      </trkpt>
      <trkpt lat="45.73533" lon="0.64212">
        <ele>269.1</ele>
        <time>2026-08-11T09:48:16.000Z</time>
      </trkpt>
      <trkpt lat="45.73515" lon="0.642">
        <ele>268.7</ele>
        <time>2026-08-11T09:48:20.000Z</time>
      </trkpt>
      <trkpt lat="45.73497" lon="0.64188">
        <ele>268.6</ele>
        <time>2026-08-11T09:48:24.000Z</time>
      </trkpt>
      <trkpt lat="45.73462" lon="0.64178">
        <ele>268.4</ele>
        <time>2026-08-11T09:48:31.000Z</time>
      </trkpt>
      <trkpt lat="45.73437" lon="0.64177">
        <ele>268.4</ele>
        <time>2026-08-11T09:48:36.000Z</time>
      </trkpt>
      <trkpt lat="45.73426" lon="0.64177">
        <ele>268.5</ele>
        <time>2026-08-11T09:48:38.000Z</time>
      </trkpt>
      <trkpt lat="45.73372" lon="0.64176">
        <ele>267.8</ele>
        <time>2026-08-11T09:48:48.000Z</time>
      </trkpt>
      <trkpt lat="45.73321" lon="0.64175">
        <ele>266.9</ele>
        <time>2026-08-11T09:48:57.000Z</time>
      </trkpt>
      <trkpt lat="45.73293" lon="0.64175">
        <ele>266.7</ele>
        <time>2026-08-11T09:49:02.000Z</time>
      </trkpt>
      <trkpt lat="45.7326" lon="0.64173">
        <ele>266.3</ele>
        <time>2026-08-11T09:49:08.000Z</time>
      </trkpt>
      <trkpt lat="45.73243" lon="0.64173">
        <ele>265.9</ele>
        <time>2026-08-11T09:49:11.000Z</time>
      </trkpt>
      <trkpt lat="45.73204" lon="0.64173">
        <ele>265.3</ele>
        <time>2026-08-11T09:49:18.000Z</time>
      </trkpt>
      <trkpt lat="45.73188" lon="0.64172">
        <ele>264.8</ele>
        <time>2026-08-11T09:49:21.000Z</time>
      </trkpt>
      <trkpt lat="45.73155" lon="0.64171">
        <ele>263.6</ele>
        <time>2026-08-11T09:49:27.000Z</time>
      </trkpt>
      <trkpt lat="45.73136" lon="0.64168">
        <ele>262.9</ele>
        <time>2026-08-11T09:49:30.000Z</time>
      </trkpt>
      <trkpt lat="45.73116" lon="0.64165">
        <ele>262.1</ele>
        <time>2026-08-11T09:49:33.000Z</time>
      </trkpt>
      <trkpt lat="45.73096" lon="0.64159">
        <ele>261.2</ele>
        <time>2026-08-11T09:49:36.000Z</time>
      </trkpt>
      <trkpt lat="45.73076" lon="0.64151">
        <ele>260.1</ele>
        <time>2026-08-11T09:49:39.000Z</time>
      </trkpt>
      <trkpt lat="45.73068" lon="0.64148">
        <ele>259.8</ele>
        <time>2026-08-11T09:49:40.000Z</time>
      </trkpt>
      <trkpt lat="45.73039" lon="0.64136">
        <ele>258.1</ele>
        <time>2026-08-11T09:49:44.000Z</time>
      </trkpt>
      <trkpt lat="45.73032" lon="0.64133">
        <ele>257.7</ele>
        <time>2026-08-11T09:49:45.000Z</time>
      </trkpt>
      <trkpt lat="45.73008" lon="0.64124">
        <ele>257.7</ele>
        <time>2026-08-11T09:49:48.000Z</time>
      </trkpt>
      <trkpt lat="45.72978" lon="0.64112">
        <ele>258</ele>
        <time>2026-08-11T09:49:52.000Z</time>
      </trkpt>
      <trkpt lat="45.72964" lon="0.64106">
        <ele>258.4</ele>
        <time>2026-08-11T09:49:54.000Z</time>
      </trkpt>
      <trkpt lat="45.72946" lon="0.64099">
        <ele>259.1</ele>
        <time>2026-08-11T09:49:57.000Z</time>
      </trkpt>
      <trkpt lat="45.72915" lon="0.64088">
        <ele>260.3</ele>
        <time>2026-08-11T09:50:03.000Z</time>
      </trkpt>
      <trkpt lat="45.72911" lon="0.64086">
        <ele>260.5</ele>
        <time>2026-08-11T09:50:04.000Z</time>
      </trkpt>
      <trkpt lat="45.72894" lon="0.6408">
        <ele>261.6</ele>
        <time>2026-08-11T09:50:08.000Z</time>
      </trkpt>
      <trkpt lat="45.7289" lon="0.64078">
        <ele>261.9</ele>
        <time>2026-08-11T09:50:09.000Z</time>
      </trkpt>
      <trkpt lat="45.72883" lon="0.64074">
        <ele>262</ele>
        <time>2026-08-11T09:50:11.000Z</time>
      </trkpt>
      <trkpt lat="45.72867" lon="0.64062">
        <ele>262</ele>
        <time>2026-08-11T09:50:16.000Z</time>
      </trkpt>
      <trkpt lat="45.72849" lon="0.64039">
        <ele>260.8</ele>
        <time>2026-08-11T09:50:22.000Z</time>
      </trkpt>
      <trkpt lat="45.72847" lon="0.64033">
        <ele>260.6</ele>
        <time>2026-08-11T09:50:23.000Z</time>
      </trkpt>
      <trkpt lat="45.72836" lon="0.63999">
        <ele>259.2</ele>
        <time>2026-08-11T09:50:28.000Z</time>
      </trkpt>
      <trkpt lat="45.72832" lon="0.63975">
        <ele>258.9</ele>
        <time>2026-08-11T09:50:31.000Z</time>
      </trkpt>
      <trkpt lat="45.72829" lon="0.63948">
        <ele>258.7</ele>
        <time>2026-08-11T09:50:34.000Z</time>
      </trkpt>
      <trkpt lat="45.72825" lon="0.63911">
        <ele>256.7</ele>
        <time>2026-08-11T09:50:38.000Z</time>
      </trkpt>
      <trkpt lat="45.72819" lon="0.63872">
        <ele>254.9</ele>
        <time>2026-08-11T09:50:42.000Z</time>
      </trkpt>
      <trkpt lat="45.72818" lon="0.63862">
        <ele>254.5</ele>
        <time>2026-08-11T09:50:43.000Z</time>
      </trkpt>
      <trkpt lat="45.72812" lon="0.63819">
        <ele>253.2</ele>
        <time>2026-08-11T09:50:47.000Z</time>
      </trkpt>
      <trkpt lat="45.72807" lon="0.63776">
        <ele>252.1</ele>
        <time>2026-08-11T09:50:51.000Z</time>
      </trkpt>
      <trkpt lat="45.72806" lon="0.63766">
        <ele>252</ele>
        <time>2026-08-11T09:50:52.000Z</time>
      </trkpt>
      <trkpt lat="45.72801" lon="0.63734">
        <ele>250.6</ele>
        <time>2026-08-11T09:50:55.000Z</time>
      </trkpt>
      <trkpt lat="45.72795" lon="0.63688">
        <ele>248.2</ele>
        <time>2026-08-11T09:50:59.000Z</time>
      </trkpt>
      <trkpt lat="45.72793" lon="0.63676">
        <ele>248.1</ele>
        <time>2026-08-11T09:51:00.000Z</time>
      </trkpt>
      <trkpt lat="45.72789" lon="0.63642">
        <ele>246.9</ele>
        <time>2026-08-11T09:51:03.000Z</time>
      </trkpt>
      <trkpt lat="45.72787" lon="0.63621">
        <ele>246.2</ele>
        <time>2026-08-11T09:51:05.000Z</time>
      </trkpt>
      <trkpt lat="45.72785" lon="0.6361">
        <ele>245.8</ele>
        <time>2026-08-11T09:51:06.000Z</time>
      </trkpt>
      <trkpt lat="45.72777" lon="0.63591">
        <ele>245.7</ele>
        <time>2026-08-11T09:51:08.000Z</time>
      </trkpt>
      <trkpt lat="45.72771" lon="0.63583">
        <ele>245.3</ele>
        <time>2026-08-11T09:51:09.000Z</time>
      </trkpt>
      <trkpt lat="45.72765" lon="0.63576">
        <ele>244.9</ele>
        <time>2026-08-11T09:51:10.000Z</time>
      </trkpt>
      <trkpt lat="45.72757" lon="0.63572">
        <ele>244.2</ele>
        <time>2026-08-11T09:51:11.000Z</time>
      </trkpt>
      <trkpt lat="45.72748" lon="0.63569">
        <ele>243.4</ele>
        <time>2026-08-11T09:51:12.000Z</time>
      </trkpt>
      <trkpt lat="45.7274" lon="0.63567">
        <ele>242.9</ele>
        <time>2026-08-11T09:51:13.000Z</time>
      </trkpt>
      <trkpt lat="45.72722" lon="0.63563">
        <ele>241.7</ele>
        <time>2026-08-11T09:51:15.000Z</time>
      </trkpt>
      <trkpt lat="45.72704" lon="0.63559">
        <ele>240.5</ele>
        <time>2026-08-11T09:51:17.000Z</time>
      </trkpt>
      <trkpt lat="45.72695" lon="0.63557">
        <ele>239.9</ele>
        <time>2026-08-11T09:51:18.000Z</time>
      </trkpt>
      <trkpt lat="45.72685" lon="0.63554">
        <ele>239.5</ele>
        <time>2026-08-11T09:51:19.000Z</time>
      </trkpt>
      <trkpt lat="45.72657" lon="0.63546">
        <ele>238.1</ele>
        <time>2026-08-11T09:51:22.000Z</time>
      </trkpt>
      <trkpt lat="45.72647" lon="0.63544">
        <ele>237.4</ele>
        <time>2026-08-11T09:51:23.000Z</time>
      </trkpt>
      <trkpt lat="45.72628" lon="0.63541">
        <ele>236.3</ele>
        <time>2026-08-11T09:51:25.000Z</time>
      </trkpt>
      <trkpt lat="45.72611" lon="0.63539">
        <ele>235.4</ele>
        <time>2026-08-11T09:51:27.000Z</time>
      </trkpt>
      <trkpt lat="45.72602" lon="0.63539">
        <ele>234.9</ele>
        <time>2026-08-11T09:51:28.000Z</time>
      </trkpt>
      <trkpt lat="45.72573" lon="0.63542">
        <ele>233.2</ele>
        <time>2026-08-11T09:51:31.000Z</time>
      </trkpt>
      <trkpt lat="45.72553" lon="0.63547">
        <ele>232.1</ele>
        <time>2026-08-11T09:51:33.000Z</time>
      </trkpt>
      <trkpt lat="45.72543" lon="0.63549">
        <ele>231.4</ele>
        <time>2026-08-11T09:51:34.000Z</time>
      </trkpt>
      <trkpt lat="45.72515" lon="0.63555">
        <ele>229.6</ele>
        <time>2026-08-11T09:51:37.000Z</time>
      </trkpt>
      <trkpt lat="45.72498" lon="0.63558">
        <ele>228.5</ele>
        <time>2026-08-11T09:51:39.000Z</time>
      </trkpt>
      <trkpt lat="45.72491" lon="0.63559">
        <ele>228.1</ele>
        <time>2026-08-11T09:51:40.000Z</time>
      </trkpt>
      <trkpt lat="45.72475" lon="0.63563">
        <ele>227.5</ele>
        <time>2026-08-11T09:51:42.000Z</time>
      </trkpt>
      <trkpt lat="45.72466" lon="0.63562">
        <ele>227.2</ele>
        <time>2026-08-11T09:51:43.000Z</time>
      </trkpt>
      <trkpt lat="45.7245" lon="0.63554">
        <ele>226.5</ele>
        <time>2026-08-11T09:51:45.000Z</time>
      </trkpt>
      <trkpt lat="45.72443" lon="0.63548">
        <ele>226.1</ele>
        <time>2026-08-11T09:51:46.000Z</time>
      </trkpt>
      <trkpt lat="45.72435" lon="0.63541">
        <ele>225.7</ele>
        <time>2026-08-11T09:51:47.000Z</time>
      </trkpt>
      <trkpt lat="45.72422" lon="0.63525">
        <ele>224.6</ele>
        <time>2026-08-11T09:51:49.000Z</time>
      </trkpt>
      <trkpt lat="45.72411" lon="0.63508">
        <ele>223.5</ele>
        <time>2026-08-11T09:51:51.000Z</time>
      </trkpt>
      <trkpt lat="45.72405" lon="0.63499">
        <ele>223.2</ele>
        <time>2026-08-11T09:51:52.000Z</time>
      </trkpt>
      <trkpt lat="45.724" lon="0.63477">
        <ele>221.5</ele>
        <time>2026-08-11T09:51:54.000Z</time>
      </trkpt>
      <trkpt lat="45.72399" lon="0.63465">
        <ele>220.8</ele>
        <time>2026-08-11T09:51:55.000Z</time>
      </trkpt>
      <trkpt lat="45.724" lon="0.63428">
        <ele>219.2</ele>
        <time>2026-08-11T09:51:58.000Z</time>
      </trkpt>
      <trkpt lat="45.72402" lon="0.63389">
        <ele>216.9</ele>
        <time>2026-08-11T09:52:01.000Z</time>
      </trkpt>
      <trkpt lat="45.72403" lon="0.63363">
        <ele>215.6</ele>
        <time>2026-08-11T09:52:03.000Z</time>
      </trkpt>
      <trkpt lat="45.72403" lon="0.6335">
        <ele>215.1</ele>
        <time>2026-08-11T09:52:04.000Z</time>
      </trkpt>
      <trkpt lat="45.72402" lon="0.63324">
        <ele>214.4</ele>
        <time>2026-08-11T09:52:06.000Z</time>
      </trkpt>
      <trkpt lat="45.72398" lon="0.63299">
        <ele>214.4</ele>
        <time>2026-08-11T09:52:08.000Z</time>
      </trkpt>
      <trkpt lat="45.72394" lon="0.63278">
        <ele>215.4</ele>
        <time>2026-08-11T09:52:10.000Z</time>
      </trkpt>
      <trkpt lat="45.7239" lon="0.63258">
        <ele>215.8</ele>
        <time>2026-08-11T09:52:12.000Z</time>
      </trkpt>
      <trkpt lat="45.72387" lon="0.63249">
        <ele>215.9</ele>
        <time>2026-08-11T09:52:13.000Z</time>
      </trkpt>
      <trkpt lat="45.72384" lon="0.63241">
        <ele>216.1</ele>
        <time>2026-08-11T09:52:14.000Z</time>
      </trkpt>
      <trkpt lat="45.72372" lon="0.63223">
        <ele>216.1</ele>
        <time>2026-08-11T09:52:17.000Z</time>
      </trkpt>
      <trkpt lat="45.72352" lon="0.63215">
        <ele>214.6</ele>
        <time>2026-08-11T09:52:20.000Z</time>
      </trkpt>
      <trkpt lat="45.72345" lon="0.63213">
        <ele>214.1</ele>
        <time>2026-08-11T09:52:21.000Z</time>
      </trkpt>
      <trkpt lat="45.72337" lon="0.63211">
        <ele>213.7</ele>
        <time>2026-08-11T09:52:22.000Z</time>
      </trkpt>
      <trkpt lat="45.72324" lon="0.63201">
        <ele>212.8</ele>
        <time>2026-08-11T09:52:24.000Z</time>
      </trkpt>
      <trkpt lat="45.72315" lon="0.63187">
        <ele>212.2</ele>
        <time>2026-08-11T09:52:26.000Z</time>
      </trkpt>
      <trkpt lat="45.72311" lon="0.63178">
        <ele>212.1</ele>
        <time>2026-08-11T09:52:27.000Z</time>
      </trkpt>
      <trkpt lat="45.72308" lon="0.63169">
        <ele>212.1</ele>
        <time>2026-08-11T09:52:28.000Z</time>
      </trkpt>
      <trkpt lat="45.72306" lon="0.63159">
        <ele>211.8</ele>
        <time>2026-08-11T09:52:29.000Z</time>
      </trkpt>
      <trkpt lat="45.72303" lon="0.6314">
        <ele>210.7</ele>
        <time>2026-08-11T09:52:31.000Z</time>
      </trkpt>
      <trkpt lat="45.72305" lon="0.63121">
        <ele>210.3</ele>
        <time>2026-08-11T09:52:33.000Z</time>
      </trkpt>
      <trkpt lat="45.72308" lon="0.63112">
        <ele>210.1</ele>
        <time>2026-08-11T09:52:34.000Z</time>
      </trkpt>
      <trkpt lat="45.72312" lon="0.63103">
        <ele>209.5</ele>
        <time>2026-08-11T09:52:35.000Z</time>
      </trkpt>
      <trkpt lat="45.72324" lon="0.63089">
        <ele>208</ele>
        <time>2026-08-11T09:52:37.000Z</time>
      </trkpt>
      <trkpt lat="45.72347" lon="0.63076">
        <ele>206.8</ele>
        <time>2026-08-11T09:52:40.000Z</time>
      </trkpt>
      <trkpt lat="45.72354" lon="0.63072">
        <ele>206.6</ele>
        <time>2026-08-11T09:52:41.000Z</time>
      </trkpt>
      <trkpt lat="45.72377" lon="0.63061">
        <ele>205.1</ele>
        <time>2026-08-11T09:52:44.000Z</time>
      </trkpt>
      <trkpt lat="45.72402" lon="0.63052">
        <ele>203.6</ele>
        <time>2026-08-11T09:52:47.000Z</time>
      </trkpt>
      <trkpt lat="45.7241" lon="0.63051">
        <ele>203.3</ele>
        <time>2026-08-11T09:52:48.000Z</time>
      </trkpt>
      <trkpt lat="45.72419" lon="0.6305">
        <ele>203</ele>
        <time>2026-08-11T09:52:49.000Z</time>
      </trkpt>
      <trkpt lat="45.72444" lon="0.63054">
        <ele>200.7</ele>
        <time>2026-08-11T09:52:52.000Z</time>
      </trkpt>
      <trkpt lat="45.72469" lon="0.63058">
        <ele>200.6</ele>
        <time>2026-08-11T09:52:55.000Z</time>
      </trkpt>
      <trkpt lat="45.72486" lon="0.63056">
        <ele>200.1</ele>
        <time>2026-08-11T09:52:57.000Z</time>
      </trkpt>
      <trkpt lat="45.72503" lon="0.6305">
        <ele>199</ele>
        <time>2026-08-11T09:52:59.000Z</time>
      </trkpt>
      <trkpt lat="45.72528" lon="0.6304">
        <ele>197.4</ele>
        <time>2026-08-11T09:53:02.000Z</time>
      </trkpt>
      <trkpt lat="45.72537" lon="0.63036">
        <ele>196.7</ele>
        <time>2026-08-11T09:53:03.000Z</time>
      </trkpt>
      <trkpt lat="45.72553" lon="0.63027">
        <ele>196.6</ele>
        <time>2026-08-11T09:53:05.000Z</time>
      </trkpt>
      <trkpt lat="45.72566" lon="0.63011">
        <ele>196.4</ele>
        <time>2026-08-11T09:53:07.000Z</time>
      </trkpt>
      <trkpt lat="45.72573" lon="0.6299">
        <ele>194.7</ele>
        <time>2026-08-11T09:53:09.000Z</time>
      </trkpt>
      <trkpt lat="45.72571" lon="0.62966">
        <ele>192.6</ele>
        <time>2026-08-11T09:53:11.000Z</time>
      </trkpt>
      <trkpt lat="45.72568" lon="0.62954">
        <ele>191.7</ele>
        <time>2026-08-11T09:53:12.000Z</time>
      </trkpt>
      <trkpt lat="45.72565" lon="0.62943">
        <ele>191.3</ele>
        <time>2026-08-11T09:53:13.000Z</time>
      </trkpt>
      <trkpt lat="45.72555" lon="0.62901">
        <ele>192.9</ele>
        <time>2026-08-11T09:53:17.000Z</time>
      </trkpt>
      <trkpt lat="45.72553" lon="0.62891">
        <ele>193</ele>
        <time>2026-08-11T09:53:18.000Z</time>
      </trkpt>
      <trkpt lat="45.72553" lon="0.62882">
        <ele>194</ele>
        <time>2026-08-11T09:53:19.000Z</time>
      </trkpt>
      <trkpt lat="45.72557" lon="0.62865">
        <ele>195.4</ele>
        <time>2026-08-11T09:53:21.000Z</time>
      </trkpt>
      <trkpt lat="45.72562" lon="0.62855">
        <ele>196.4</ele>
        <time>2026-08-11T09:53:23.000Z</time>
      </trkpt>
      <trkpt lat="45.72567" lon="0.6285">
        <ele>196.8</ele>
        <time>2026-08-11T09:53:25.000Z</time>
      </trkpt>
      <trkpt lat="45.7257" lon="0.62846">
        <ele>197.1</ele>
        <time>2026-08-11T09:53:28.000Z</time>
      </trkpt>
      <trkpt lat="45.72574" lon="0.62844">
        <ele>197.1</ele>
        <time>2026-08-11T09:53:30.000Z</time>
      </trkpt>
      <trkpt lat="45.72579" lon="0.62839">
        <ele>197.3</ele>
        <time>2026-08-11T09:53:33.000Z</time>
      </trkpt>
      <trkpt lat="45.72586" lon="0.62833">
        <ele>197.7</ele>
        <time>2026-08-11T09:53:37.000Z</time>
      </trkpt>
      <trkpt lat="45.72591" lon="0.62828">
        <ele>198.1</ele>
        <time>2026-08-11T09:53:40.000Z</time>
      </trkpt>
      <trkpt lat="45.72603" lon="0.62817">
        <ele>198.3</ele>
        <time>2026-08-11T09:53:47.000Z</time>
      </trkpt>
      <trkpt lat="45.72609" lon="0.6281">
        <ele>198.7</ele>
        <time>2026-08-11T09:53:50.000Z</time>
      </trkpt>
      <trkpt lat="45.72616" lon="0.62803">
        <ele>198.8</ele>
        <time>2026-08-11T09:53:54.000Z</time>
      </trkpt>
      <trkpt lat="45.72622" lon="0.62796">
        <ele>199.6</ele>
        <time>2026-08-11T09:53:57.000Z</time>
      </trkpt>
      <trkpt lat="45.72629" lon="0.62789">
        <ele>200.2</ele>
        <time>2026-08-11T09:54:02.000Z</time>
      </trkpt>
      <trkpt lat="45.72632" lon="0.62787">
        <ele>200.3</ele>
        <time>2026-08-11T09:54:04.000Z</time>
      </trkpt>
      <trkpt lat="45.72643" lon="0.62781">
        <ele>200.4</ele>
        <time>2026-08-11T09:54:11.000Z</time>
      </trkpt>
      <trkpt lat="45.72647" lon="0.62779">
        <ele>200.3</ele>
        <time>2026-08-11T09:54:13.000Z</time>
      </trkpt>
      <trkpt lat="45.72654" lon="0.62774">
        <ele>200.7</ele>
        <time>2026-08-11T09:54:18.000Z</time>
      </trkpt>
      <trkpt lat="45.72664" lon="0.62768">
        <ele>200.7</ele>
        <time>2026-08-11T09:54:25.000Z</time>
      </trkpt>
      <trkpt lat="45.72666" lon="0.62766">
        <ele>200.8</ele>
        <time>2026-08-11T09:54:26.000Z</time>
      </trkpt>
      <trkpt lat="45.72681" lon="0.62755">
        <ele>202</ele>
        <time>2026-08-11T09:54:35.000Z</time>
      </trkpt>
      <trkpt lat="45.72694" lon="0.62744">
        <ele>202.9</ele>
        <time>2026-08-11T09:54:43.000Z</time>
      </trkpt>
      <trkpt lat="45.72699" lon="0.62739">
        <ele>203.3</ele>
        <time>2026-08-11T09:54:46.000Z</time>
      </trkpt>
      <trkpt lat="45.72707" lon="0.62729">
        <ele>204.3</ele>
        <time>2026-08-11T09:54:52.000Z</time>
      </trkpt>
      <trkpt lat="45.7271" lon="0.62726">
        <ele>204.6</ele>
        <time>2026-08-11T09:54:54.000Z</time>
      </trkpt>
      <trkpt lat="45.72719" lon="0.62713">
        <ele>205.9</ele>
        <time>2026-08-11T09:55:01.000Z</time>
      </trkpt>
      <trkpt lat="45.72722" lon="0.62709">
        <ele>206.5</ele>
        <time>2026-08-11T09:55:03.000Z</time>
      </trkpt>
      <trkpt lat="45.7273" lon="0.62696">
        <ele>207.1</ele>
        <time>2026-08-11T09:55:08.000Z</time>
      </trkpt>
      <trkpt lat="45.72737" lon="0.62683">
        <ele>206.9</ele>
        <time>2026-08-11T09:55:14.000Z</time>
      </trkpt>
      <trkpt lat="45.72738" lon="0.62678">
        <ele>207.3</ele>
        <time>2026-08-11T09:55:17.000Z</time>
      </trkpt>
      <trkpt lat="45.7274" lon="0.62661">
        <ele>208.3</ele>
        <time>2026-08-11T09:55:25.000Z</time>
      </trkpt>
      <trkpt lat="45.72741" lon="0.62655">
        <ele>208.2</ele>
        <time>2026-08-11T09:55:28.000Z</time>
      </trkpt>
      <trkpt lat="45.72742" lon="0.62637">
        <ele>208.3</ele>
        <time>2026-08-11T09:55:35.000Z</time>
      </trkpt>
      <trkpt lat="45.72742" lon="0.62625">
        <ele>208.9</ele>
        <time>2026-08-11T09:55:39.000Z</time>
      </trkpt>
      <trkpt lat="45.72742" lon="0.62619">
        <ele>209.1</ele>
        <time>2026-08-11T09:55:42.000Z</time>
      </trkpt>
      <trkpt lat="45.72745" lon="0.62608">
        <ele>209.3</ele>
        <time>2026-08-11T09:55:46.000Z</time>
      </trkpt>
      <trkpt lat="45.72748" lon="0.62599">
        <ele>210.1</ele>
        <time>2026-08-11T09:55:49.000Z</time>
      </trkpt>
      <trkpt lat="45.72754" lon="0.62584">
        <ele>211</ele>
        <time>2026-08-11T09:55:55.000Z</time>
      </trkpt>
      <trkpt lat="45.72758" lon="0.62576">
        <ele>211.4</ele>
        <time>2026-08-11T09:55:59.000Z</time>
      </trkpt>
      <trkpt lat="45.72769" lon="0.62559">
        <ele>212.1</ele>
        <time>2026-08-11T09:56:06.000Z</time>
      </trkpt>
      <trkpt lat="45.7278" lon="0.62538">
        <ele>212.8</ele>
        <time>2026-08-11T09:56:15.000Z</time>
      </trkpt>
      <trkpt lat="45.72782" lon="0.62536">
        <ele>212.8</ele>
        <time>2026-08-11T09:56:16.000Z</time>
      </trkpt>
      <trkpt lat="45.7279" lon="0.62514">
        <ele>212.8</ele>
        <time>2026-08-11T09:56:24.000Z</time>
      </trkpt>
      <trkpt lat="45.72793" lon="0.62489">
        <ele>214.7</ele>
        <time>2026-08-11T09:56:32.000Z</time>
      </trkpt>
      <trkpt lat="45.72793" lon="0.62486">
        <ele>214.8</ele>
        <time>2026-08-11T09:56:33.000Z</time>
      </trkpt>
      <trkpt lat="45.72794" lon="0.62483">
        <ele>214.9</ele>
        <time>2026-08-11T09:56:34.000Z</time>
      </trkpt>
      <trkpt lat="45.72791" lon="0.62459">
        <ele>215.9</ele>
        <time>2026-08-11T09:56:42.000Z</time>
      </trkpt>
      <trkpt lat="45.72787" lon="0.62454">
        <ele>216.7</ele>
        <time>2026-08-11T09:56:45.000Z</time>
      </trkpt>
      <trkpt lat="45.72786" lon="0.62451">
        <ele>216.9</ele>
        <time>2026-08-11T09:56:46.000Z</time>
      </trkpt>
      <trkpt lat="45.72783" lon="0.62448">
        <ele>217.5</ele>
        <time>2026-08-11T09:56:48.000Z</time>
      </trkpt>
      <trkpt lat="45.72776" lon="0.62436">
        <ele>218.3</ele>
        <time>2026-08-11T09:56:54.000Z</time>
      </trkpt>
      <trkpt lat="45.72772" lon="0.62433">
        <ele>218.6</ele>
        <time>2026-08-11T09:56:56.000Z</time>
      </trkpt>
      <trkpt lat="45.72764" lon="0.62425">
        <ele>219.5</ele>
        <time>2026-08-11T09:57:01.000Z</time>
      </trkpt>
      <trkpt lat="45.72761" lon="0.62422">
        <ele>219.9</ele>
        <time>2026-08-11T09:57:03.000Z</time>
      </trkpt>
      <trkpt lat="45.7276" lon="0.62421">
        <ele>220.1</ele>
        <time>2026-08-11T09:57:04.000Z</time>
      </trkpt>
      <trkpt lat="45.72754" lon="0.62417">
        <ele>220.9</ele>
        <time>2026-08-11T09:57:08.000Z</time>
      </trkpt>
      <trkpt lat="45.72752" lon="0.62416">
        <ele>221.3</ele>
        <time>2026-08-11T09:57:09.000Z</time>
      </trkpt>
      <trkpt lat="45.72743" lon="0.62413">
        <ele>221.8</ele>
        <time>2026-08-11T09:57:15.000Z</time>
      </trkpt>
      <trkpt lat="45.72738" lon="0.6241">
        <ele>221.7</ele>
        <time>2026-08-11T09:57:18.000Z</time>
      </trkpt>
      <trkpt lat="45.7273" lon="0.62408">
        <ele>221.9</ele>
        <time>2026-08-11T09:57:22.000Z</time>
      </trkpt>
      <trkpt lat="45.7272" lon="0.62405">
        <ele>222.6</ele>
        <time>2026-08-11T09:57:28.000Z</time>
      </trkpt>
      <trkpt lat="45.72716" lon="0.62403">
        <ele>223</ele>
        <time>2026-08-11T09:57:30.000Z</time>
      </trkpt>
      <trkpt lat="45.72703" lon="0.62392">
        <ele>224.1</ele>
        <time>2026-08-11T09:57:38.000Z</time>
      </trkpt>
      <trkpt lat="45.72698" lon="0.62384">
        <ele>224.2</ele>
        <time>2026-08-11T09:57:43.000Z</time>
      </trkpt>
      <trkpt lat="45.72698" lon="0.62382">
        <ele>224.1</ele>
        <time>2026-08-11T09:57:44.000Z</time>
      </trkpt>
      <trkpt lat="45.72697" lon="0.62364">
        <ele>223.8</ele>
        <time>2026-08-11T09:57:50.000Z</time>
      </trkpt>
      <trkpt lat="45.72701" lon="0.62347">
        <ele>224.1</ele>
        <time>2026-08-11T09:57:56.000Z</time>
      </trkpt>
      <trkpt lat="45.72708" lon="0.62327">
        <ele>225</ele>
        <time>2026-08-11T09:58:04.000Z</time>
      </trkpt>
      <trkpt lat="45.72709" lon="0.62319">
        <ele>225.5</ele>
        <time>2026-08-11T09:58:08.000Z</time>
      </trkpt>
      <trkpt lat="45.72709" lon="0.62317">
        <ele>225.7</ele>
        <time>2026-08-11T09:58:09.000Z</time>
      </trkpt>
      <trkpt lat="45.72711" lon="0.62305">
        <ele>226.8</ele>
        <time>2026-08-11T09:58:16.000Z</time>
      </trkpt>
      <trkpt lat="45.72711" lon="0.62301">
        <ele>227</ele>
        <time>2026-08-11T09:58:19.000Z</time>
      </trkpt>
      <trkpt lat="45.7271" lon="0.62298">
        <ele>227.1</ele>
        <time>2026-08-11T09:58:21.000Z</time>
      </trkpt>
      <trkpt lat="45.72711" lon="0.62293">
        <ele>227.3</ele>
        <time>2026-08-11T09:58:23.000Z</time>
      </trkpt>
      <trkpt lat="45.7271" lon="0.62278">
        <ele>228</ele>
        <time>2026-08-11T09:58:30.000Z</time>
      </trkpt>
      <trkpt lat="45.72708" lon="0.62273">
        <ele>228</ele>
        <time>2026-08-11T09:58:32.000Z</time>
      </trkpt>
      <trkpt lat="45.72706" lon="0.62269">
        <ele>228.1</ele>
        <time>2026-08-11T09:58:34.000Z</time>
      </trkpt>
      <trkpt lat="45.72704" lon="0.62267">
        <ele>228.2</ele>
        <time>2026-08-11T09:58:35.000Z</time>
      </trkpt>
      <trkpt lat="45.72695" lon="0.62257">
        <ele>229.4</ele>
        <time>2026-08-11T09:58:42.000Z</time>
      </trkpt>
      <trkpt lat="45.72691" lon="0.62254">
        <ele>229.7</ele>
        <time>2026-08-11T09:58:44.000Z</time>
      </trkpt>
      <trkpt lat="45.72682" lon="0.62246">
        <ele>230.6</ele>
        <time>2026-08-11T09:58:51.000Z</time>
      </trkpt>
      <trkpt lat="45.72679" lon="0.62244">
        <ele>230.8</ele>
        <time>2026-08-11T09:58:53.000Z</time>
      </trkpt>
      <trkpt lat="45.72667" lon="0.62238">
        <ele>232.6</ele>
        <time>2026-08-11T09:59:02.000Z</time>
      </trkpt>
      <trkpt lat="45.72666" lon="0.62238">
        <ele>232.7</ele>
        <time>2026-08-11T09:59:03.000Z</time>
      </trkpt>
      <trkpt lat="45.72659" lon="0.62234">
        <ele>233.2</ele>
        <time>2026-08-11T09:59:09.000Z</time>
      </trkpt>
      <trkpt lat="45.72654" lon="0.62232">
        <ele>233.5</ele>
        <time>2026-08-11T09:59:13.000Z</time>
      </trkpt>
      <trkpt lat="45.72647" lon="0.62231">
        <ele>233.6</ele>
        <time>2026-08-11T09:59:18.000Z</time>
      </trkpt>
      <trkpt lat="45.72634" lon="0.62231">
        <ele>233.7</ele>
        <time>2026-08-11T09:59:23.000Z</time>
      </trkpt>
      <trkpt lat="45.72629" lon="0.6223">
        <ele>234.1</ele>
        <time>2026-08-11T09:59:26.000Z</time>
      </trkpt>
      <trkpt lat="45.72627" lon="0.62229">
        <ele>234.3</ele>
        <time>2026-08-11T09:59:27.000Z</time>
      </trkpt>
      <trkpt lat="45.72619" lon="0.62229">
        <ele>234.6</ele>
        <time>2026-08-11T09:59:32.000Z</time>
      </trkpt>
      <trkpt lat="45.72615" lon="0.62229">
        <ele>234.8</ele>
        <time>2026-08-11T09:59:35.000Z</time>
      </trkpt>
      <trkpt lat="45.72599" lon="0.62233">
        <ele>236.3</ele>
        <time>2026-08-11T09:59:44.000Z</time>
      </trkpt>
      <trkpt lat="45.72597" lon="0.62234">
        <ele>236.6</ele>
        <time>2026-08-11T09:59:45.000Z</time>
      </trkpt>
      <trkpt lat="45.72588" lon="0.62237">
        <ele>237.6</ele>
        <time>2026-08-11T09:59:50.000Z</time>
      </trkpt>
      <trkpt lat="45.72586" lon="0.62239">
        <ele>237.7</ele>
        <time>2026-08-11T09:59:51.000Z</time>
      </trkpt>
      <trkpt lat="45.7258" lon="0.62249">
        <ele>237.8</ele>
        <time>2026-08-11T09:59:56.000Z</time>
      </trkpt>
      <trkpt lat="45.72574" lon="0.62256">
        <ele>238.6</ele>
        <time>2026-08-11T10:00:00.000Z</time>
      </trkpt>
      <trkpt lat="45.72563" lon="0.62264">
        <ele>240.1</ele>
        <time>2026-08-11T10:00:08.000Z</time>
      </trkpt>
      <trkpt lat="45.72552" lon="0.62266">
        <ele>240.9</ele>
        <time>2026-08-11T10:00:15.000Z</time>
      </trkpt>
      <trkpt lat="45.72548" lon="0.62266">
        <ele>241</ele>
        <time>2026-08-11T10:00:17.000Z</time>
      </trkpt>
      <trkpt lat="45.72534" lon="0.62262">
        <ele>241.5</ele>
        <time>2026-08-11T10:00:24.000Z</time>
      </trkpt>
      <trkpt lat="45.72526" lon="0.62256">
        <ele>241.8</ele>
        <time>2026-08-11T10:00:30.000Z</time>
      </trkpt>
      <trkpt lat="45.72523" lon="0.62252">
        <ele>242.1</ele>
        <time>2026-08-11T10:00:32.000Z</time>
      </trkpt>
      <trkpt lat="45.7252" lon="0.62246">
        <ele>242.6</ele>
        <time>2026-08-11T10:00:35.000Z</time>
      </trkpt>
      <trkpt lat="45.72514" lon="0.62236">
        <ele>243.2</ele>
        <time>2026-08-11T10:00:40.000Z</time>
      </trkpt>
      <trkpt lat="45.72508" lon="0.62223">
        <ele>244</ele>
        <time>2026-08-11T10:00:46.000Z</time>
      </trkpt>
      <trkpt lat="45.72505" lon="0.62216">
        <ele>244.3</ele>
        <time>2026-08-11T10:00:49.000Z</time>
      </trkpt>
      <trkpt lat="45.725" lon="0.62206">
        <ele>244.5</ele>
        <time>2026-08-11T10:00:53.000Z</time>
      </trkpt>
      <trkpt lat="45.72495" lon="0.62194">
        <ele>244.5</ele>
        <time>2026-08-11T10:00:58.000Z</time>
      </trkpt>
      <trkpt lat="45.72494" lon="0.62191">
        <ele>244.5</ele>
        <time>2026-08-11T10:00:59.000Z</time>
      </trkpt>
      <trkpt lat="45.7249" lon="0.62179">
        <ele>244.6</ele>
        <time>2026-08-11T10:01:04.000Z</time>
      </trkpt>
      <trkpt lat="45.72487" lon="0.62174">
        <ele>244.6</ele>
        <time>2026-08-11T10:01:06.000Z</time>
      </trkpt>
      <trkpt lat="45.72484" lon="0.62162">
        <ele>244.8</ele>
        <time>2026-08-11T10:01:11.000Z</time>
      </trkpt>
      <trkpt lat="45.72475" lon="0.62139">
        <ele>244.2</ele>
        <time>2026-08-11T10:01:18.000Z</time>
      </trkpt>
      <trkpt lat="45.72464" lon="0.62114">
        <ele>244.9</ele>
        <time>2026-08-11T10:01:24.000Z</time>
      </trkpt>
      <trkpt lat="45.72462" lon="0.6211">
        <ele>244.9</ele>
        <time>2026-08-11T10:01:28.000Z</time>
      </trkpt>
      <trkpt lat="45.72462" lon="0.6211">
        <ele>244.9</ele>
        <time>2026-08-11T10:01:29.000Z</time>
      </trkpt>
      <trkpt lat="45.72459" lon="0.62105">
        <ele>244.4</ele>
        <time>2026-08-11T10:04:04.000Z</time>
      </trkpt>
      <trkpt lat="45.72456" lon="0.621">
        <ele>243.9</ele>
        <time>2026-08-11T10:04:06.000Z</time>
      </trkpt>
      <trkpt lat="45.72444" lon="0.62077">
        <ele>242.2</ele>
        <time>2026-08-11T10:04:12.000Z</time>
      </trkpt>
      <trkpt lat="45.72439" lon="0.62067">
        <ele>242.1</ele>
        <time>2026-08-11T10:04:14.000Z</time>
      </trkpt>
      <trkpt lat="45.72425" lon="0.62048">
        <ele>240.8</ele>
        <time>2026-08-11T10:04:18.000Z</time>
      </trkpt>
      <trkpt lat="45.72422" lon="0.62042">
        <ele>240.5</ele>
        <time>2026-08-11T10:04:19.000Z</time>
      </trkpt>
      <trkpt lat="45.72417" lon="0.62027">
        <ele>240</ele>
        <time>2026-08-11T10:04:21.000Z</time>
      </trkpt>
      <trkpt lat="45.72415" lon="0.6202">
        <ele>240.2</ele>
        <time>2026-08-11T10:04:22.000Z</time>
      </trkpt>
      <trkpt lat="45.72413" lon="0.62003">
        <ele>240.5</ele>
        <time>2026-08-11T10:04:24.000Z</time>
      </trkpt>
      <trkpt lat="45.72411" lon="0.61978">
        <ele>239.6</ele>
        <time>2026-08-11T10:04:27.000Z</time>
      </trkpt>
      <trkpt lat="45.72412" lon="0.6197">
        <ele>239.5</ele>
        <time>2026-08-11T10:04:28.000Z</time>
      </trkpt>
      <trkpt lat="45.72412" lon="0.61946">
        <ele>239.7</ele>
        <time>2026-08-11T10:04:31.000Z</time>
      </trkpt>
      <trkpt lat="45.72413" lon="0.61939">
        <ele>239.5</ele>
        <time>2026-08-11T10:04:32.000Z</time>
      </trkpt>
      <trkpt lat="45.72413" lon="0.61932">
        <ele>239.2</ele>
        <time>2026-08-11T10:04:33.000Z</time>
      </trkpt>
      <trkpt lat="45.72413" lon="0.61915">
        <ele>238.7</ele>
        <time>2026-08-11T10:04:36.000Z</time>
      </trkpt>
      <trkpt lat="45.72414" lon="0.61903">
        <ele>238.7</ele>
        <time>2026-08-11T10:04:40.000Z</time>
      </trkpt>
      <trkpt lat="45.72416" lon="0.61883">
        <ele>238.7</ele>
        <time>2026-08-11T10:04:44.000Z</time>
      </trkpt>
      <trkpt lat="45.72418" lon="0.61855">
        <ele>237.6</ele>
        <time>2026-08-11T10:04:48.000Z</time>
      </trkpt>
      <trkpt lat="45.72422" lon="0.61809">
        <ele>235.1</ele>
        <time>2026-08-11T10:04:53.000Z</time>
      </trkpt>
      <trkpt lat="45.72422" lon="0.61799">
        <ele>234.7</ele>
        <time>2026-08-11T10:04:54.000Z</time>
      </trkpt>
      <trkpt lat="45.72417" lon="0.61781">
        <ele>233.2</ele>
        <time>2026-08-11T10:04:56.000Z</time>
      </trkpt>
      <trkpt lat="45.72407" lon="0.61764">
        <ele>232</ele>
        <time>2026-08-11T10:04:58.000Z</time>
      </trkpt>
      <trkpt lat="45.724" lon="0.61756">
        <ele>231.1</ele>
        <time>2026-08-11T10:04:59.000Z</time>
      </trkpt>
      <trkpt lat="45.72392" lon="0.61747">
        <ele>230.1</ele>
        <time>2026-08-11T10:05:00.000Z</time>
      </trkpt>
      <trkpt lat="45.72378" lon="0.61728">
        <ele>228.6</ele>
        <time>2026-08-11T10:05:02.000Z</time>
      </trkpt>
      <trkpt lat="45.72364" lon="0.61709">
        <ele>226.7</ele>
        <time>2026-08-11T10:05:04.000Z</time>
      </trkpt>
      <trkpt lat="45.72349" lon="0.6169">
        <ele>225.8</ele>
        <time>2026-08-11T10:05:06.000Z</time>
      </trkpt>
      <trkpt lat="45.72334" lon="0.61671">
        <ele>224.4</ele>
        <time>2026-08-11T10:05:08.000Z</time>
      </trkpt>
      <trkpt lat="45.7232" lon="0.61652">
        <ele>223.2</ele>
        <time>2026-08-11T10:05:10.000Z</time>
      </trkpt>
      <trkpt lat="45.72312" lon="0.61643">
        <ele>222.5</ele>
        <time>2026-08-11T10:05:11.000Z</time>
      </trkpt>
      <trkpt lat="45.72305" lon="0.61633">
        <ele>221.8</ele>
        <time>2026-08-11T10:05:12.000Z</time>
      </trkpt>
      <trkpt lat="45.72289" lon="0.61613">
        <ele>221.1</ele>
        <time>2026-08-11T10:05:14.000Z</time>
      </trkpt>
      <trkpt lat="45.72274" lon="0.61594">
        <ele>219.7</ele>
        <time>2026-08-11T10:05:16.000Z</time>
      </trkpt>
      <trkpt lat="45.72253" lon="0.61565">
        <ele>218.9</ele>
        <time>2026-08-11T10:05:19.000Z</time>
      </trkpt>
      <trkpt lat="45.72246" lon="0.61555">
        <ele>219</ele>
        <time>2026-08-11T10:05:20.000Z</time>
      </trkpt>
      <trkpt lat="45.72239" lon="0.61546">
        <ele>218.6</ele>
        <time>2026-08-11T10:05:21.000Z</time>
      </trkpt>
      <trkpt lat="45.72219" lon="0.6152">
        <ele>217.7</ele>
        <time>2026-08-11T10:05:24.000Z</time>
      </trkpt>
      <trkpt lat="45.72205" lon="0.61506">
        <ele>216.2</ele>
        <time>2026-08-11T10:05:26.000Z</time>
      </trkpt>
      <trkpt lat="45.72197" lon="0.61499">
        <ele>215.2</ele>
        <time>2026-08-11T10:05:27.000Z</time>
      </trkpt>
      <trkpt lat="45.72188" lon="0.61494">
        <ele>214.5</ele>
        <time>2026-08-11T10:05:28.000Z</time>
      </trkpt>
      <trkpt lat="45.72169" lon="0.61486">
        <ele>212.7</ele>
        <time>2026-08-11T10:05:30.000Z</time>
      </trkpt>
      <trkpt lat="45.72159" lon="0.61483">
        <ele>211.4</ele>
        <time>2026-08-11T10:05:31.000Z</time>
      </trkpt>
      <trkpt lat="45.7214" lon="0.61476">
        <ele>209</ele>
        <time>2026-08-11T10:05:33.000Z</time>
      </trkpt>
      <trkpt lat="45.7211" lon="0.61461">
        <ele>207.5</ele>
        <time>2026-08-11T10:05:36.000Z</time>
      </trkpt>
      <trkpt lat="45.72093" lon="0.61444">
        <ele>207</ele>
        <time>2026-08-11T10:05:38.000Z</time>
      </trkpt>
      <trkpt lat="45.72087" lon="0.61436">
        <ele>207</ele>
        <time>2026-08-11T10:05:39.000Z</time>
      </trkpt>
      <trkpt lat="45.72081" lon="0.61427">
        <ele>206.9</ele>
        <time>2026-08-11T10:05:40.000Z</time>
      </trkpt>
      <trkpt lat="45.72073" lon="0.61406">
        <ele>206.9</ele>
        <time>2026-08-11T10:05:42.000Z</time>
      </trkpt>
      <trkpt lat="45.7207" lon="0.61395">
        <ele>207.3</ele>
        <time>2026-08-11T10:05:43.000Z</time>
      </trkpt>
      <trkpt lat="45.72068" lon="0.61384">
        <ele>207.6</ele>
        <time>2026-08-11T10:05:44.000Z</time>
      </trkpt>
      <trkpt lat="45.72064" lon="0.61362">
        <ele>207.7</ele>
        <time>2026-08-11T10:05:46.000Z</time>
      </trkpt>
      <trkpt lat="45.72059" lon="0.61322">
        <ele>209.4</ele>
        <time>2026-08-11T10:05:51.000Z</time>
      </trkpt>
      <trkpt lat="45.72056" lon="0.61303">
        <ele>210.2</ele>
        <time>2026-08-11T10:05:55.000Z</time>
      </trkpt>
      <trkpt lat="45.72055" lon="0.6129">
        <ele>211.1</ele>
        <time>2026-08-11T10:06:00.000Z</time>
      </trkpt>
      <trkpt lat="45.72054" lon="0.61284">
        <ele>211.6</ele>
        <time>2026-08-11T10:06:04.000Z</time>
      </trkpt>
      <trkpt lat="45.72053" lon="0.61282">
        <ele>211.7</ele>
        <time>2026-08-11T10:06:05.000Z</time>
      </trkpt>
      <trkpt lat="45.72053" lon="0.61278">
        <ele>212</ele>
        <time>2026-08-11T10:06:07.000Z</time>
      </trkpt>
      <trkpt lat="45.72053" lon="0.61274">
        <ele>212.1</ele>
        <time>2026-08-11T10:06:09.000Z</time>
      </trkpt>
      <trkpt lat="45.72051" lon="0.61262">
        <ele>212.6</ele>
        <time>2026-08-11T10:06:15.000Z</time>
      </trkpt>
      <trkpt lat="45.72047" lon="0.61241">
        <ele>213.9</ele>
        <time>2026-08-11T10:06:23.000Z</time>
      </trkpt>
      <trkpt lat="45.72046" lon="0.61239">
        <ele>214.1</ele>
        <time>2026-08-11T10:06:24.000Z</time>
      </trkpt>
      <trkpt lat="45.72043" lon="0.61229">
        <ele>214.9</ele>
        <time>2026-08-11T10:06:28.000Z</time>
      </trkpt>
      <trkpt lat="45.72043" lon="0.61215">
        <ele>216.2</ele>
        <time>2026-08-11T10:06:35.000Z</time>
      </trkpt>
      <trkpt lat="45.72041" lon="0.61201">
        <ele>217.3</ele>
        <time>2026-08-11T10:06:42.000Z</time>
      </trkpt>
      <trkpt lat="45.7204" lon="0.612">
        <ele>217.4</ele>
        <time>2026-08-11T10:06:43.000Z</time>
      </trkpt>
      <trkpt lat="45.7204" lon="0.61198">
        <ele>217.6</ele>
        <time>2026-08-11T10:06:44.000Z</time>
      </trkpt>
      <trkpt lat="45.72038" lon="0.61189">
        <ele>218.1</ele>
        <time>2026-08-11T10:06:48.000Z</time>
      </trkpt>
      <trkpt lat="45.72035" lon="0.61171">
        <ele>219.1</ele>
        <time>2026-08-11T10:06:55.000Z</time>
      </trkpt>
      <trkpt lat="45.72034" lon="0.61169">
        <ele>219.2</ele>
        <time>2026-08-11T10:06:56.000Z</time>
      </trkpt>
      <trkpt lat="45.72032" lon="0.61157">
        <ele>219.6</ele>
        <time>2026-08-11T10:07:02.000Z</time>
      </trkpt>
      <trkpt lat="45.72031" lon="0.61147">
        <ele>219.9</ele>
        <time>2026-08-11T10:07:07.000Z</time>
      </trkpt>
      <trkpt lat="45.72029" lon="0.61141">
        <ele>220</ele>
        <time>2026-08-11T10:07:10.000Z</time>
      </trkpt>
      <trkpt lat="45.72028" lon="0.61126">
        <ele>221</ele>
        <time>2026-08-11T10:07:17.000Z</time>
      </trkpt>
      <trkpt lat="45.72028" lon="0.61124">
        <ele>221.1</ele>
        <time>2026-08-11T10:07:18.000Z</time>
      </trkpt>
      <trkpt lat="45.72025" lon="0.61117">
        <ele>221.6</ele>
        <time>2026-08-11T10:07:22.000Z</time>
      </trkpt>
      <trkpt lat="45.72026" lon="0.61114">
        <ele>221.8</ele>
        <time>2026-08-11T10:07:23.000Z</time>
      </trkpt>
      <trkpt lat="45.72026" lon="0.6111">
        <ele>222.1</ele>
        <time>2026-08-11T10:07:25.000Z</time>
      </trkpt>
      <trkpt lat="45.72026" lon="0.61107">
        <ele>222.3</ele>
        <time>2026-08-11T10:07:26.000Z</time>
      </trkpt>
      <trkpt lat="45.72025" lon="0.61104">
        <ele>222.5</ele>
        <time>2026-08-11T10:07:28.000Z</time>
      </trkpt>
      <trkpt lat="45.72025" lon="0.61102">
        <ele>222.6</ele>
        <time>2026-08-11T10:07:29.000Z</time>
      </trkpt>
      <trkpt lat="45.72024" lon="0.61096">
        <ele>223</ele>
        <time>2026-08-11T10:07:31.000Z</time>
      </trkpt>
      <trkpt lat="45.72023" lon="0.61092">
        <ele>223.3</ele>
        <time>2026-08-11T10:07:33.000Z</time>
      </trkpt>
      <trkpt lat="45.72022" lon="0.61088">
        <ele>223.5</ele>
        <time>2026-08-11T10:07:35.000Z</time>
      </trkpt>
      <trkpt lat="45.7202" lon="0.61076">
        <ele>224</ele>
        <time>2026-08-11T10:07:39.000Z</time>
      </trkpt>
      <trkpt lat="45.7202" lon="0.61071">
        <ele>224.2</ele>
        <time>2026-08-11T10:07:42.000Z</time>
      </trkpt>
      <trkpt lat="45.72014" lon="0.61048">
        <ele>224.8</ele>
        <time>2026-08-11T10:07:50.000Z</time>
      </trkpt>
      <trkpt lat="45.72013" lon="0.61043">
        <ele>224.9</ele>
        <time>2026-08-11T10:07:52.000Z</time>
      </trkpt>
      <trkpt lat="45.72008" lon="0.61028">
        <ele>225.3</ele>
        <time>2026-08-11T10:07:59.000Z</time>
      </trkpt>
      <trkpt lat="45.72005" lon="0.61021">
        <ele>225.7</ele>
        <time>2026-08-11T10:08:02.000Z</time>
      </trkpt>
      <trkpt lat="45.72003" lon="0.61013">
        <ele>226.1</ele>
        <time>2026-08-11T10:08:05.000Z</time>
      </trkpt>
      <trkpt lat="45.72" lon="0.61007">
        <ele>226.4</ele>
        <time>2026-08-11T10:08:08.000Z</time>
      </trkpt>
      <trkpt lat="45.71992" lon="0.60994">
        <ele>227.1</ele>
        <time>2026-08-11T10:08:15.000Z</time>
      </trkpt>
      <trkpt lat="45.71981" lon="0.60977">
        <ele>228</ele>
        <time>2026-08-11T10:08:26.000Z</time>
      </trkpt>
      <trkpt lat="45.7198" lon="0.60975">
        <ele>228.1</ele>
        <time>2026-08-11T10:08:27.000Z</time>
      </trkpt>
      <trkpt lat="45.71971" lon="0.60963">
        <ele>229</ele>
        <time>2026-08-11T10:08:35.000Z</time>
      </trkpt>
      <trkpt lat="45.71971" lon="0.60961">
        <ele>229.2</ele>
        <time>2026-08-11T10:08:36.000Z</time>
      </trkpt>
      <trkpt lat="45.71963" lon="0.60951">
        <ele>230</ele>
        <time>2026-08-11T10:08:43.000Z</time>
      </trkpt>
      <trkpt lat="45.71956" lon="0.6094">
        <ele>230.8</ele>
        <time>2026-08-11T10:08:49.000Z</time>
      </trkpt>
      <trkpt lat="45.71954" lon="0.60936">
        <ele>230.9</ele>
        <time>2026-08-11T10:08:51.000Z</time>
      </trkpt>
      <trkpt lat="45.71944" lon="0.60924">
        <ele>231.4</ele>
        <time>2026-08-11T10:08:58.000Z</time>
      </trkpt>
      <trkpt lat="45.71934" lon="0.60912">
        <ele>231.8</ele>
        <time>2026-08-11T10:09:05.000Z</time>
      </trkpt>
      <trkpt lat="45.71927" lon="0.60904">
        <ele>231.8</ele>
        <time>2026-08-11T10:09:09.000Z</time>
      </trkpt>
      <trkpt lat="45.71913" lon="0.60889">
        <ele>231.8</ele>
        <time>2026-08-11T10:09:17.000Z</time>
      </trkpt>
      <trkpt lat="45.71898" lon="0.60867">
        <ele>231.7</ele>
        <time>2026-08-11T10:09:25.000Z</time>
      </trkpt>
      <trkpt lat="45.71881" lon="0.60848">
        <ele>231.8</ele>
        <time>2026-08-11T10:09:33.000Z</time>
      </trkpt>
      <trkpt lat="45.71879" lon="0.60845">
        <ele>231.8</ele>
        <time>2026-08-11T10:09:34.000Z</time>
      </trkpt>
      <trkpt lat="45.71865" lon="0.60826">
        <ele>233</ele>
        <time>2026-08-11T10:09:42.000Z</time>
      </trkpt>
      <trkpt lat="45.71852" lon="0.60812">
        <ele>233.8</ele>
        <time>2026-08-11T10:09:49.000Z</time>
      </trkpt>
      <trkpt lat="45.71847" lon="0.60807">
        <ele>234</ele>
        <time>2026-08-11T10:09:51.000Z</time>
      </trkpt>
      <trkpt lat="45.71834" lon="0.60791">
        <ele>234</ele>
        <time>2026-08-11T10:09:57.000Z</time>
      </trkpt>
      <trkpt lat="45.71824" lon="0.60775">
        <ele>234.7</ele>
        <time>2026-08-11T10:10:03.000Z</time>
      </trkpt>
      <trkpt lat="45.71821" lon="0.60772">
        <ele>235</ele>
        <time>2026-08-11T10:10:05.000Z</time>
      </trkpt>
      <trkpt lat="45.71815" lon="0.60764">
        <ele>235.5</ele>
        <time>2026-08-11T10:10:08.000Z</time>
      </trkpt>
      <trkpt lat="45.71809" lon="0.60757">
        <ele>235.8</ele>
        <time>2026-08-11T10:10:11.000Z</time>
      </trkpt>
      <trkpt lat="45.718" lon="0.60747">
        <ele>236.2</ele>
        <time>2026-08-11T10:10:17.000Z</time>
      </trkpt>
      <trkpt lat="45.71791" lon="0.60738">
        <ele>236.5</ele>
        <time>2026-08-11T10:10:22.000Z</time>
      </trkpt>
      <trkpt lat="45.7179" lon="0.60735">
        <ele>236.6</ele>
        <time>2026-08-11T10:10:23.000Z</time>
      </trkpt>
      <trkpt lat="45.71779" lon="0.60724">
        <ele>236.9</ele>
        <time>2026-08-11T10:10:29.000Z</time>
      </trkpt>
      <trkpt lat="45.71775" lon="0.60717">
        <ele>237.4</ele>
        <time>2026-08-11T10:10:32.000Z</time>
      </trkpt>
      <trkpt lat="45.71769" lon="0.60708">
        <ele>238</ele>
        <time>2026-08-11T10:10:37.000Z</time>
      </trkpt>
      <trkpt lat="45.71761" lon="0.60696">
        <ele>238.6</ele>
        <time>2026-08-11T10:10:44.000Z</time>
      </trkpt>
      <trkpt lat="45.7176" lon="0.60694">
        <ele>238.6</ele>
        <time>2026-08-11T10:10:45.000Z</time>
      </trkpt>
      <trkpt lat="45.71753" lon="0.60687">
        <ele>239.4</ele>
        <time>2026-08-11T10:10:52.000Z</time>
      </trkpt>
      <trkpt lat="45.71742" lon="0.60677">
        <ele>240.4</ele>
        <time>2026-08-11T10:10:59.000Z</time>
      </trkpt>
      <trkpt lat="45.71741" lon="0.60675">
        <ele>240.5</ele>
        <time>2026-08-11T10:11:00.000Z</time>
      </trkpt>
      <trkpt lat="45.71733" lon="0.60665">
        <ele>241</ele>
        <time>2026-08-11T10:11:07.000Z</time>
      </trkpt>
      <trkpt lat="45.71723" lon="0.60651">
        <ele>241.6</ele>
        <time>2026-08-11T10:11:16.000Z</time>
      </trkpt>
      <trkpt lat="45.71713" lon="0.6064">
        <ele>242</ele>
        <time>2026-08-11T10:11:23.000Z</time>
      </trkpt>
      <trkpt lat="45.71711" lon="0.60639">
        <ele>242</ele>
        <time>2026-08-11T10:11:24.000Z</time>
      </trkpt>
      <trkpt lat="45.717" lon="0.60624">
        <ele>242.1</ele>
        <time>2026-08-11T10:11:32.000Z</time>
      </trkpt>
      <trkpt lat="45.71689" lon="0.60612">
        <ele>242.2</ele>
        <time>2026-08-11T10:11:38.000Z</time>
      </trkpt>
      <trkpt lat="45.71686" lon="0.60607">
        <ele>242.2</ele>
        <time>2026-08-11T10:11:40.000Z</time>
      </trkpt>
      <trkpt lat="45.71685" lon="0.60604">
        <ele>242.3</ele>
        <time>2026-08-11T10:11:44.000Z</time>
      </trkpt>
      <trkpt lat="45.71681" lon="0.60599">
        <ele>242.3</ele>
        <time>2026-08-11T10:13:57.000Z</time>
      </trkpt>
      <trkpt lat="45.71679" lon="0.60593">
        <ele>242.2</ele>
        <time>2026-08-11T10:13:59.000Z</time>
      </trkpt>
      <trkpt lat="45.71664" lon="0.60569">
        <ele>241</ele>
        <time>2026-08-11T10:14:05.000Z</time>
      </trkpt>
      <trkpt lat="45.71644" lon="0.60536">
        <ele>239.4</ele>
        <time>2026-08-11T10:14:11.000Z</time>
      </trkpt>
      <trkpt lat="45.71632" lon="0.60517">
        <ele>238.9</ele>
        <time>2026-08-11T10:14:14.000Z</time>
      </trkpt>
      <trkpt lat="45.71621" lon="0.60497">
        <ele>238.4</ele>
        <time>2026-08-11T10:14:17.000Z</time>
      </trkpt>
      <trkpt lat="45.71598" lon="0.60461">
        <ele>237.7</ele>
        <time>2026-08-11T10:14:23.000Z</time>
      </trkpt>
      <trkpt lat="45.71584" lon="0.60438">
        <ele>238</ele>
        <time>2026-08-11T10:14:27.000Z</time>
      </trkpt>
      <trkpt lat="45.71562" lon="0.60401">
        <ele>237.5</ele>
        <time>2026-08-11T10:14:34.000Z</time>
      </trkpt>
      <trkpt lat="45.71528" lon="0.60347">
        <ele>237</ele>
        <time>2026-08-11T10:14:44.000Z</time>
      </trkpt>
      <trkpt lat="45.71524" lon="0.60342">
        <ele>237.2</ele>
        <time>2026-08-11T10:14:45.000Z</time>
      </trkpt>
      <trkpt lat="45.71485" lon="0.603">
        <ele>237</ele>
        <time>2026-08-11T10:14:54.000Z</time>
      </trkpt>
      <trkpt lat="45.71451" lon="0.6027">
        <ele>233.3</ele>
        <time>2026-08-11T10:14:59.000Z</time>
      </trkpt>
      <trkpt lat="45.71426" lon="0.6025">
        <ele>230.3</ele>
        <time>2026-08-11T10:15:02.000Z</time>
      </trkpt>
      <trkpt lat="45.71417" lon="0.60243">
        <ele>230</ele>
        <time>2026-08-11T10:15:03.000Z</time>
      </trkpt>
      <trkpt lat="45.71399" lon="0.60229">
        <ele>230.4</ele>
        <time>2026-08-11T10:15:05.000Z</time>
      </trkpt>
      <trkpt lat="45.71383" lon="0.60217">
        <ele>233.5</ele>
        <time>2026-08-11T10:15:07.000Z</time>
      </trkpt>
      <trkpt lat="45.7137" lon="0.60206">
        <ele>235.2</ele>
        <time>2026-08-11T10:15:09.000Z</time>
      </trkpt>
      <trkpt lat="45.71351" lon="0.60192">
        <ele>236.3</ele>
        <time>2026-08-11T10:15:13.000Z</time>
      </trkpt>
      <trkpt lat="45.71341" lon="0.60184">
        <ele>237.2</ele>
        <time>2026-08-11T10:15:17.000Z</time>
      </trkpt>
      <trkpt lat="45.71335" lon="0.60181">
        <ele>237.5</ele>
        <time>2026-08-11T10:15:20.000Z</time>
      </trkpt>
      <trkpt lat="45.71329" lon="0.60176">
        <ele>238.2</ele>
        <time>2026-08-11T10:15:24.000Z</time>
      </trkpt>
      <trkpt lat="45.71326" lon="0.60175">
        <ele>238.5</ele>
        <time>2026-08-11T10:15:26.000Z</time>
      </trkpt>
      <trkpt lat="45.71319" lon="0.60168">
        <ele>239.4</ele>
        <time>2026-08-11T10:15:32.000Z</time>
      </trkpt>
      <trkpt lat="45.71315" lon="0.60165">
        <ele>239.8</ele>
        <time>2026-08-11T10:15:35.000Z</time>
      </trkpt>
      <trkpt lat="45.71308" lon="0.60159">
        <ele>240.8</ele>
        <time>2026-08-11T10:15:40.000Z</time>
      </trkpt>
      <trkpt lat="45.71299" lon="0.60152">
        <ele>241.9</ele>
        <time>2026-08-11T10:15:47.000Z</time>
      </trkpt>
      <trkpt lat="45.71298" lon="0.60151">
        <ele>242</ele>
        <time>2026-08-11T10:15:48.000Z</time>
      </trkpt>
      <trkpt lat="45.71294" lon="0.60148">
        <ele>242.5</ele>
        <time>2026-08-11T10:15:53.000Z</time>
      </trkpt>
      <trkpt lat="45.71291" lon="0.60145">
        <ele>242.7</ele>
        <time>2026-08-11T10:15:55.000Z</time>
      </trkpt>
      <trkpt lat="45.71286" lon="0.60141">
        <ele>242.9</ele>
        <time>2026-08-11T10:15:59.000Z</time>
      </trkpt>
      <trkpt lat="45.71282" lon="0.60137">
        <ele>243.2</ele>
        <time>2026-08-11T10:16:02.000Z</time>
      </trkpt>
      <trkpt lat="45.71281" lon="0.60137">
        <ele>243.3</ele>
        <time>2026-08-11T10:16:03.000Z</time>
      </trkpt>
      <trkpt lat="45.71277" lon="0.60135">
        <ele>243.5</ele>
        <time>2026-08-11T10:16:05.000Z</time>
      </trkpt>
      <trkpt lat="45.71276" lon="0.60135">
        <ele>243.7</ele>
        <time>2026-08-11T10:16:06.000Z</time>
      </trkpt>
      <trkpt lat="45.71271" lon="0.60131">
        <ele>244.4</ele>
        <time>2026-08-11T10:16:09.000Z</time>
      </trkpt>
      <trkpt lat="45.71267" lon="0.60128">
        <ele>244.8</ele>
        <time>2026-08-11T10:16:11.000Z</time>
      </trkpt>
      <trkpt lat="45.71259" lon="0.6012">
        <ele>245.7</ele>
        <time>2026-08-11T10:16:16.000Z</time>
      </trkpt>
      <trkpt lat="45.71252" lon="0.60114">
        <ele>245.9</ele>
        <time>2026-08-11T10:16:21.000Z</time>
      </trkpt>
      <trkpt lat="45.71241" lon="0.60105">
        <ele>246.8</ele>
        <time>2026-08-11T10:16:29.000Z</time>
      </trkpt>
      <trkpt lat="45.7124" lon="0.60104">
        <ele>246.9</ele>
        <time>2026-08-11T10:16:30.000Z</time>
      </trkpt>
      <trkpt lat="45.71228" lon="0.60094">
        <ele>247.7</ele>
        <time>2026-08-11T10:16:38.000Z</time>
      </trkpt>
      <trkpt lat="45.71223" lon="0.6009">
        <ele>247.8</ele>
        <time>2026-08-11T10:16:41.000Z</time>
      </trkpt>
      <trkpt lat="45.71208" lon="0.60075">
        <ele>248.4</ele>
        <time>2026-08-11T10:16:50.000Z</time>
      </trkpt>
      <trkpt lat="45.71206" lon="0.60072">
        <ele>248.6</ele>
        <time>2026-08-11T10:16:52.000Z</time>
      </trkpt>
      <trkpt lat="45.71198" lon="0.60061">
        <ele>248.9</ele>
        <time>2026-08-11T10:16:58.000Z</time>
      </trkpt>
      <trkpt lat="45.71194" lon="0.60052">
        <ele>249.1</ele>
        <time>2026-08-11T10:17:04.000Z</time>
      </trkpt>
      <trkpt lat="45.71194" lon="0.60051">
        <ele>249.1</ele>
        <time>2026-08-11T10:17:07.000Z</time>
      </trkpt>
      <trkpt lat="45.71191" lon="0.60047">
        <ele>249.2</ele>
        <time>2026-08-11T10:17:15.000Z</time>
      </trkpt>
      <trkpt lat="45.7119" lon="0.60045">
        <ele>249.2</ele>
        <time>2026-08-11T10:17:16.000Z</time>
      </trkpt>
      <trkpt lat="45.71184" lon="0.60035">
        <ele>249.4</ele>
        <time>2026-08-11T10:17:20.000Z</time>
      </trkpt>
      <trkpt lat="45.71181" lon="0.60029">
        <ele>249.5</ele>
        <time>2026-08-11T10:17:22.000Z</time>
      </trkpt>
      <trkpt lat="45.71172" lon="0.60012">
        <ele>249.9</ele>
        <time>2026-08-11T10:17:28.000Z</time>
      </trkpt>
      <trkpt lat="45.71159" lon="0.59979">
        <ele>250.4</ele>
        <time>2026-08-11T10:17:38.000Z</time>
      </trkpt>
      <trkpt lat="45.71156" lon="0.59974">
        <ele>250.5</ele>
        <time>2026-08-11T10:17:40.000Z</time>
      </trkpt>
      <trkpt lat="45.71154" lon="0.59966">
        <ele>251</ele>
        <time>2026-08-11T10:17:43.000Z</time>
      </trkpt>
      <trkpt lat="45.71148" lon="0.59952">
        <ele>251.8</ele>
        <time>2026-08-11T10:17:49.000Z</time>
      </trkpt>
      <trkpt lat="45.71147" lon="0.5995">
        <ele>251.9</ele>
        <time>2026-08-11T10:17:50.000Z</time>
      </trkpt>
      <trkpt lat="45.71146" lon="0.59948">
        <ele>252</ele>
        <time>2026-08-11T10:17:51.000Z</time>
      </trkpt>
      <trkpt lat="45.7114" lon="0.59934">
        <ele>252.8</ele>
        <time>2026-08-11T10:17:58.000Z</time>
      </trkpt>
      <trkpt lat="45.71137" lon="0.59928">
        <ele>253.2</ele>
        <time>2026-08-11T10:18:01.000Z</time>
      </trkpt>
      <trkpt lat="45.71137" lon="0.59924">
        <ele>253.5</ele>
        <time>2026-08-11T10:18:03.000Z</time>
      </trkpt>
      <trkpt lat="45.71133" lon="0.59917">
        <ele>253.9</ele>
        <time>2026-08-11T10:18:08.000Z</time>
      </trkpt>
      <trkpt lat="45.71133" lon="0.59916">
        <ele>254.1</ele>
        <time>2026-08-11T10:18:09.000Z</time>
      </trkpt>
      <trkpt lat="45.71131" lon="0.59909">
        <ele>254.8</ele>
        <time>2026-08-11T10:18:13.000Z</time>
      </trkpt>
      <trkpt lat="45.7113" lon="0.59905">
        <ele>255.1</ele>
        <time>2026-08-11T10:18:15.000Z</time>
      </trkpt>
      <trkpt lat="45.7113" lon="0.59904">
        <ele>255.3</ele>
        <time>2026-08-11T10:18:16.000Z</time>
      </trkpt>
      <trkpt lat="45.71127" lon="0.59895">
        <ele>256</ele>
        <time>2026-08-11T10:18:21.000Z</time>
      </trkpt>
      <trkpt lat="45.71126" lon="0.59892">
        <ele>256.3</ele>
        <time>2026-08-11T10:18:23.000Z</time>
      </trkpt>
      <trkpt lat="45.71123" lon="0.59883">
        <ele>256.6</ele>
        <time>2026-08-11T10:18:28.000Z</time>
      </trkpt>
      <trkpt lat="45.71122" lon="0.59878">
        <ele>256.8</ele>
        <time>2026-08-11T10:18:30.000Z</time>
      </trkpt>
      <trkpt lat="45.71118" lon="0.59871">
        <ele>256.9</ele>
        <time>2026-08-11T10:18:34.000Z</time>
      </trkpt>
      <trkpt lat="45.71117" lon="0.59868">
        <ele>257</ele>
        <time>2026-08-11T10:18:36.000Z</time>
      </trkpt>
      <trkpt lat="45.71111" lon="0.59854">
        <ele>257.3</ele>
        <time>2026-08-11T10:18:43.000Z</time>
      </trkpt>
      <trkpt lat="45.71109" lon="0.5985">
        <ele>257.4</ele>
        <time>2026-08-11T10:18:45.000Z</time>
      </trkpt>
      <trkpt lat="45.71102" lon="0.59834">
        <ele>257.7</ele>
        <time>2026-08-11T10:18:52.000Z</time>
      </trkpt>
      <trkpt lat="45.71093" lon="0.59814">
        <ele>256.9</ele>
        <time>2026-08-11T10:18:58.000Z</time>
      </trkpt>
      <trkpt lat="45.71079" lon="0.59791">
        <ele>255.9</ele>
        <time>2026-08-11T10:19:03.000Z</time>
      </trkpt>
      <trkpt lat="45.71065" lon="0.59779">
        <ele>255.9</ele>
        <time>2026-08-11T10:19:07.000Z</time>
      </trkpt>
      <trkpt lat="45.71061" lon="0.59778">
        <ele>256</ele>
        <time>2026-08-11T10:19:08.000Z</time>
      </trkpt>
      <trkpt lat="45.71052" lon="0.59778">
        <ele>256.2</ele>
        <time>2026-08-11T10:19:11.000Z</time>
      </trkpt>
      <trkpt lat="45.71046" lon="0.59777">
        <ele>256.4</ele>
        <time>2026-08-11T10:19:13.000Z</time>
      </trkpt>
      <trkpt lat="45.71035" lon="0.59779">
        <ele>256.6</ele>
        <time>2026-08-11T10:19:17.000Z</time>
      </trkpt>
      <trkpt lat="45.71025" lon="0.5978">
        <ele>256.6</ele>
        <time>2026-08-11T10:19:21.000Z</time>
      </trkpt>
      <trkpt lat="45.71012" lon="0.5978">
        <ele>257.2</ele>
        <time>2026-08-11T10:19:27.000Z</time>
      </trkpt>
      <trkpt lat="45.71003" lon="0.59779">
        <ele>257.7</ele>
        <time>2026-08-11T10:19:31.000Z</time>
      </trkpt>
      <trkpt lat="45.70998" lon="0.59778">
        <ele>258</ele>
        <time>2026-08-11T10:19:33.000Z</time>
      </trkpt>
      <trkpt lat="45.70996" lon="0.59777">
        <ele>258.1</ele>
        <time>2026-08-11T10:19:34.000Z</time>
      </trkpt>
      <trkpt lat="45.70985" lon="0.59776">
        <ele>258.3</ele>
        <time>2026-08-11T10:19:39.000Z</time>
      </trkpt>
      <trkpt lat="45.70972" lon="0.59775">
        <ele>258.4</ele>
        <time>2026-08-11T10:19:44.000Z</time>
      </trkpt>
      <trkpt lat="45.7096" lon="0.59771">
        <ele>259.2</ele>
        <time>2026-08-11T10:19:48.000Z</time>
      </trkpt>
      <trkpt lat="45.70948" lon="0.59767">
        <ele>259.7</ele>
        <time>2026-08-11T10:19:51.000Z</time>
      </trkpt>
      <trkpt lat="45.70932" lon="0.59761">
        <ele>259</ele>
        <time>2026-08-11T10:19:56.000Z</time>
      </trkpt>
      <trkpt lat="45.70908" lon="0.59751">
        <ele>258.9</ele>
        <time>2026-08-11T10:20:03.000Z</time>
      </trkpt>
      <trkpt lat="45.7089" lon="0.59744">
        <ele>259.7</ele>
        <time>2026-08-11T10:20:08.000Z</time>
      </trkpt>
      <trkpt lat="45.70874" lon="0.59736">
        <ele>259.7</ele>
        <time>2026-08-11T10:20:13.000Z</time>
      </trkpt>
      <trkpt lat="45.70841" lon="0.59713">
        <ele>258.8</ele>
        <time>2026-08-11T10:20:21.000Z</time>
      </trkpt>
      <trkpt lat="45.70816" lon="0.59687">
        <ele>258.7</ele>
        <time>2026-08-11T10:20:28.000Z</time>
      </trkpt>
      <trkpt lat="45.70805" lon="0.59672">
        <ele>259.2</ele>
        <time>2026-08-11T10:20:32.000Z</time>
      </trkpt>
      <trkpt lat="45.70799" lon="0.59665">
        <ele>259.3</ele>
        <time>2026-08-11T10:20:34.000Z</time>
      </trkpt>
      <trkpt lat="45.70783" lon="0.5964">
        <ele>260.6</ele>
        <time>2026-08-11T10:20:41.000Z</time>
      </trkpt>
      <trkpt lat="45.70769" lon="0.59615">
        <ele>261</ele>
        <time>2026-08-11T10:20:48.000Z</time>
      </trkpt>
      <trkpt lat="45.70767" lon="0.59612">
        <ele>261.2</ele>
        <time>2026-08-11T10:20:49.000Z</time>
      </trkpt>
      <trkpt lat="45.70754" lon="0.59591">
        <ele>262.4</ele>
        <time>2026-08-11T10:20:56.000Z</time>
      </trkpt>
      <trkpt lat="45.70744" lon="0.59578">
        <ele>262.9</ele>
        <time>2026-08-11T10:21:01.000Z</time>
      </trkpt>
      <trkpt lat="45.7074" lon="0.59573">
        <ele>263</ele>
        <time>2026-08-11T10:21:03.000Z</time>
      </trkpt>
      <trkpt lat="45.70728" lon="0.59559">
        <ele>263.2</ele>
        <time>2026-08-11T10:21:09.000Z</time>
      </trkpt>
      <trkpt lat="45.70722" lon="0.59551">
        <ele>263.3</ele>
        <time>2026-08-11T10:21:12.000Z</time>
      </trkpt>
      <trkpt lat="45.70715" lon="0.59541">
        <ele>264.1</ele>
        <time>2026-08-11T10:21:16.000Z</time>
      </trkpt>
      <trkpt lat="45.70706" lon="0.5953">
        <ele>264.8</ele>
        <time>2026-08-11T10:21:21.000Z</time>
      </trkpt>
      <trkpt lat="45.70703" lon="0.59526">
        <ele>265.1</ele>
        <time>2026-08-11T10:21:23.000Z</time>
      </trkpt>
      <trkpt lat="45.707" lon="0.59522">
        <ele>265.3</ele>
        <time>2026-08-11T10:21:25.000Z</time>
      </trkpt>
      <trkpt lat="45.70691" lon="0.59511">
        <ele>265.7</ele>
        <time>2026-08-11T10:21:31.000Z</time>
      </trkpt>
      <trkpt lat="45.70687" lon="0.59508">
        <ele>266</ele>
        <time>2026-08-11T10:21:33.000Z</time>
      </trkpt>
      <trkpt lat="45.70677" lon="0.59498">
        <ele>266.7</ele>
        <time>2026-08-11T10:21:39.000Z</time>
      </trkpt>
      <trkpt lat="45.70671" lon="0.59492">
        <ele>267.2</ele>
        <time>2026-08-11T10:21:43.000Z</time>
      </trkpt>
      <trkpt lat="45.70665" lon="0.59484">
        <ele>267.7</ele>
        <time>2026-08-11T10:21:47.000Z</time>
      </trkpt>
      <trkpt lat="45.70655" lon="0.5947">
        <ele>268.5</ele>
        <time>2026-08-11T10:21:54.000Z</time>
      </trkpt>
      <trkpt lat="45.70654" lon="0.59469">
        <ele>268.6</ele>
        <time>2026-08-11T10:21:55.000Z</time>
      </trkpt>
      <trkpt lat="45.70645" lon="0.59458">
        <ele>269.3</ele>
        <time>2026-08-11T10:22:01.000Z</time>
      </trkpt>
      <trkpt lat="45.7064" lon="0.59455">
        <ele>269.6</ele>
        <time>2026-08-11T10:22:04.000Z</time>
      </trkpt>
      <trkpt lat="45.70625" lon="0.59443">
        <ele>269.5</ele>
        <time>2026-08-11T10:22:12.000Z</time>
      </trkpt>
      <trkpt lat="45.70611" lon="0.59435">
        <ele>269</ele>
        <time>2026-08-11T10:22:19.000Z</time>
      </trkpt>
      <trkpt lat="45.70599" lon="0.59426">
        <ele>268.7</ele>
        <time>2026-08-11T10:22:24.000Z</time>
      </trkpt>
      <trkpt lat="45.70582" lon="0.59414">
        <ele>267.8</ele>
        <time>2026-08-11T10:22:29.000Z</time>
      </trkpt>
      <trkpt lat="45.70564" lon="0.59399">
        <ele>266.4</ele>
        <time>2026-08-11T10:22:34.000Z</time>
      </trkpt>
      <trkpt lat="45.70561" lon="0.59396">
        <ele>266.3</ele>
        <time>2026-08-11T10:22:35.000Z</time>
      </trkpt>
      <trkpt lat="45.70558" lon="0.59394">
        <ele>266.1</ele>
        <time>2026-08-11T10:22:36.000Z</time>
      </trkpt>
      <trkpt lat="45.70533" lon="0.5937">
        <ele>264.5</ele>
        <time>2026-08-11T10:22:42.000Z</time>
      </trkpt>
      <trkpt lat="45.70506" lon="0.59342">
        <ele>262.4</ele>
        <time>2026-08-11T10:22:47.000Z</time>
      </trkpt>
      <trkpt lat="45.70501" lon="0.59336">
        <ele>262.1</ele>
        <time>2026-08-11T10:22:48.000Z</time>
      </trkpt>
      <trkpt lat="45.70482" lon="0.59318">
        <ele>260.9</ele>
        <time>2026-08-11T10:22:51.000Z</time>
      </trkpt>
      <trkpt lat="45.70455" lon="0.59292">
        <ele>259.3</ele>
        <time>2026-08-11T10:22:55.000Z</time>
      </trkpt>
      <trkpt lat="45.70437" lon="0.59268">
        <ele>258.4</ele>
        <time>2026-08-11T10:22:58.000Z</time>
      </trkpt>
      <trkpt lat="45.70421" lon="0.59242">
        <ele>257.6</ele>
        <time>2026-08-11T10:23:01.000Z</time>
      </trkpt>
      <trkpt lat="45.70401" lon="0.59208">
        <ele>256.3</ele>
        <time>2026-08-11T10:23:05.000Z</time>
      </trkpt>
      <trkpt lat="45.70381" lon="0.59175">
        <ele>255.3</ele>
        <time>2026-08-11T10:23:09.000Z</time>
      </trkpt>
      <trkpt lat="45.70371" lon="0.59158">
        <ele>254.6</ele>
        <time>2026-08-11T10:23:11.000Z</time>
      </trkpt>
      <trkpt lat="45.70351" lon="0.59124">
        <ele>253.6</ele>
        <time>2026-08-11T10:23:15.000Z</time>
      </trkpt>
      <trkpt lat="45.70335" lon="0.59097">
        <ele>253</ele>
        <time>2026-08-11T10:23:18.000Z</time>
      </trkpt>
      <trkpt lat="45.70318" lon="0.59071">
        <ele>251.9</ele>
        <time>2026-08-11T10:23:21.000Z</time>
      </trkpt>
      <trkpt lat="45.70312" lon="0.59062">
        <ele>251.5</ele>
        <time>2026-08-11T10:23:22.000Z</time>
      </trkpt>
      <trkpt lat="45.70286" lon="0.59019">
        <ele>251.2</ele>
        <time>2026-08-11T10:23:27.000Z</time>
      </trkpt>
      <trkpt lat="45.70271" lon="0.58994">
        <ele>250.5</ele>
        <time>2026-08-11T10:23:30.000Z</time>
      </trkpt>
      <trkpt lat="45.70234" lon="0.58942">
        <ele>249.9</ele>
        <time>2026-08-11T10:23:37.000Z</time>
      </trkpt>
      <trkpt lat="45.70228" lon="0.58936">
        <ele>249.7</ele>
        <time>2026-08-11T10:23:38.000Z</time>
      </trkpt>
      <trkpt lat="45.70205" lon="0.58915">
        <ele>249.4</ele>
        <time>2026-08-11T10:23:42.000Z</time>
      </trkpt>
      <trkpt lat="45.70188" lon="0.589">
        <ele>248.8</ele>
        <time>2026-08-11T10:23:45.000Z</time>
      </trkpt>
      <trkpt lat="45.70183" lon="0.58896">
        <ele>248.8</ele>
        <time>2026-08-11T10:23:46.000Z</time>
      </trkpt>
      <trkpt lat="45.70152" lon="0.58877">
        <ele>249.2</ele>
        <time>2026-08-11T10:23:52.000Z</time>
      </trkpt>
      <trkpt lat="45.70147" lon="0.58874">
        <ele>249.2</ele>
        <time>2026-08-11T10:23:53.000Z</time>
      </trkpt>
      <trkpt lat="45.70125" lon="0.58861">
        <ele>250</ele>
        <time>2026-08-11T10:23:58.000Z</time>
      </trkpt>
      <trkpt lat="45.70117" lon="0.58857">
        <ele>250.4</ele>
        <time>2026-08-11T10:24:00.000Z</time>
      </trkpt>
      <trkpt lat="45.70109" lon="0.58853">
        <ele>250.9</ele>
        <time>2026-08-11T10:24:02.000Z</time>
      </trkpt>
      <trkpt lat="45.70105" lon="0.58851">
        <ele>251.1</ele>
        <time>2026-08-11T10:24:03.000Z</time>
      </trkpt>
      <trkpt lat="45.70084" lon="0.58842">
        <ele>251.7</ele>
        <time>2026-08-11T10:24:09.000Z</time>
      </trkpt>
      <trkpt lat="45.70065" lon="0.58831">
        <ele>252.1</ele>
        <time>2026-08-11T10:24:15.000Z</time>
      </trkpt>
      <trkpt lat="45.70048" lon="0.58822">
        <ele>252.2</ele>
        <time>2026-08-11T10:24:21.000Z</time>
      </trkpt>
      <trkpt lat="45.70025" lon="0.58813">
        <ele>251.2</ele>
        <time>2026-08-11T10:24:26.000Z</time>
      </trkpt>
      <trkpt lat="45.69986" lon="0.58789">
        <ele>249.2</ele>
        <time>2026-08-11T10:24:33.000Z</time>
      </trkpt>
      <trkpt lat="45.69973" lon="0.58781">
        <ele>248.2</ele>
        <time>2026-08-11T10:24:35.000Z</time>
      </trkpt>
      <trkpt lat="45.69947" lon="0.5877">
        <ele>245.6</ele>
        <time>2026-08-11T10:24:38.000Z</time>
      </trkpt>
      <trkpt lat="45.69938" lon="0.58765">
        <ele>245.1</ele>
        <time>2026-08-11T10:24:39.000Z</time>
      </trkpt>
      <trkpt lat="45.69912" lon="0.58753">
        <ele>243.6</ele>
        <time>2026-08-11T10:24:42.000Z</time>
      </trkpt>
      <trkpt lat="45.69895" lon="0.58744">
        <ele>242.4</ele>
        <time>2026-08-11T10:24:44.000Z</time>
      </trkpt>
      <trkpt lat="45.69887" lon="0.58739">
        <ele>241.9</ele>
        <time>2026-08-11T10:24:45.000Z</time>
      </trkpt>
      <trkpt lat="45.69863" lon="0.58726">
        <ele>240.4</ele>
        <time>2026-08-11T10:24:48.000Z</time>
      </trkpt>
      <trkpt lat="45.69844" lon="0.58718">
        <ele>239.7</ele>
        <time>2026-08-11T10:24:50.000Z</time>
      </trkpt>
      <trkpt lat="45.69835" lon="0.58715">
        <ele>239.2</ele>
        <time>2026-08-11T10:24:51.000Z</time>
      </trkpt>
      <trkpt lat="45.69809" lon="0.58703">
        <ele>239.1</ele>
        <time>2026-08-11T10:24:54.000Z</time>
      </trkpt>
      <trkpt lat="45.69787" lon="0.58689">
        <ele>238.6</ele>
        <time>2026-08-11T10:24:57.000Z</time>
      </trkpt>
      <trkpt lat="45.69779" lon="0.58685">
        <ele>238.6</ele>
        <time>2026-08-11T10:24:58.000Z</time>
      </trkpt>
      <trkpt lat="45.69766" lon="0.58676">
        <ele>238.7</ele>
        <time>2026-08-11T10:25:00.000Z</time>
      </trkpt>
      <trkpt lat="45.69754" lon="0.58665">
        <ele>238.7</ele>
        <time>2026-08-11T10:25:02.000Z</time>
      </trkpt>
      <trkpt lat="45.69716" lon="0.58623">
        <ele>238.9</ele>
        <time>2026-08-11T10:25:09.000Z</time>
      </trkpt>
      <trkpt lat="45.69711" lon="0.58617">
        <ele>239.1</ele>
        <time>2026-08-11T10:25:10.000Z</time>
      </trkpt>
      <trkpt lat="45.69684" lon="0.58585">
        <ele>238.9</ele>
        <time>2026-08-11T10:25:16.000Z</time>
      </trkpt>
      <trkpt lat="45.6966" lon="0.58558">
        <ele>238.6</ele>
        <time>2026-08-11T10:25:22.000Z</time>
      </trkpt>
      <trkpt lat="45.69656" lon="0.58554">
        <ele>238.7</ele>
        <time>2026-08-11T10:25:23.000Z</time>
      </trkpt>
      <trkpt lat="45.69641" lon="0.58535">
        <ele>239.2</ele>
        <time>2026-08-11T10:25:27.000Z</time>
      </trkpt>
      <trkpt lat="45.69625" lon="0.58517">
        <ele>238.2</ele>
        <time>2026-08-11T10:25:31.000Z</time>
      </trkpt>
      <trkpt lat="45.69586" lon="0.58472">
        <ele>237.9</ele>
        <time>2026-08-11T10:25:41.000Z</time>
      </trkpt>
      <trkpt lat="45.69583" lon="0.58467">
        <ele>238</ele>
        <time>2026-08-11T10:25:42.000Z</time>
      </trkpt>
      <trkpt lat="45.69554" lon="0.58433">
        <ele>236.9</ele>
        <time>2026-08-11T10:25:49.000Z</time>
      </trkpt>
      <trkpt lat="45.6955" lon="0.58427">
        <ele>236.8</ele>
        <time>2026-08-11T10:25:50.000Z</time>
      </trkpt>
      <trkpt lat="45.69523" lon="0.5839">
        <ele>236.6</ele>
        <time>2026-08-11T10:25:57.000Z</time>
      </trkpt>
      <trkpt lat="45.6951" lon="0.58373">
        <ele>235.9</ele>
        <time>2026-08-11T10:26:00.000Z</time>
      </trkpt>
      <trkpt lat="45.69492" lon="0.58348">
        <ele>235.2</ele>
        <time>2026-08-11T10:26:05.000Z</time>
      </trkpt>
      <trkpt lat="45.69485" lon="0.58339">
        <ele>235</ele>
        <time>2026-08-11T10:26:07.000Z</time>
      </trkpt>
      <trkpt lat="45.69467" lon="0.58315">
        <ele>235.5</ele>
        <time>2026-08-11T10:26:12.000Z</time>
      </trkpt>
      <trkpt lat="45.6946" lon="0.58306">
        <ele>235.5</ele>
        <time>2026-08-11T10:26:14.000Z</time>
      </trkpt>
      <trkpt lat="45.69454" lon="0.58296">
        <ele>235.4</ele>
        <time>2026-08-11T10:26:16.000Z</time>
      </trkpt>
      <trkpt lat="45.69447" lon="0.58287">
        <ele>235.6</ele>
        <time>2026-08-11T10:26:18.000Z</time>
      </trkpt>
      <trkpt lat="45.6944" lon="0.58278">
        <ele>235.7</ele>
        <time>2026-08-11T10:26:20.000Z</time>
      </trkpt>
      <trkpt lat="45.69426" lon="0.58259">
        <ele>235.1</ele>
        <time>2026-08-11T10:26:24.000Z</time>
      </trkpt>
      <trkpt lat="45.69422" lon="0.58254">
        <ele>235.1</ele>
        <time>2026-08-11T10:26:25.000Z</time>
      </trkpt>
      <trkpt lat="45.69392" lon="0.58212">
        <ele>234.5</ele>
        <time>2026-08-11T10:26:33.000Z</time>
      </trkpt>
      <trkpt lat="45.69372" lon="0.58186">
        <ele>234.1</ele>
        <time>2026-08-11T10:26:38.000Z</time>
      </trkpt>
      <trkpt lat="45.69369" lon="0.58179">
        <ele>234.1</ele>
        <time>2026-08-11T10:26:39.000Z</time>
      </trkpt>
      <trkpt lat="45.69366" lon="0.58173">
        <ele>234.1</ele>
        <time>2026-08-11T10:26:40.000Z</time>
      </trkpt>
      <trkpt lat="45.69344" lon="0.58118">
        <ele>234.4</ele>
        <time>2026-08-11T10:26:49.000Z</time>
      </trkpt>
      <trkpt lat="45.69325" lon="0.58069">
        <ele>235.4</ele>
        <time>2026-08-11T10:26:58.000Z</time>
      </trkpt>
      <trkpt lat="45.69312" lon="0.58032">
        <ele>236.9</ele>
        <time>2026-08-11T10:27:05.000Z</time>
      </trkpt>
      <trkpt lat="45.69308" lon="0.58022">
        <ele>237.3</ele>
        <time>2026-08-11T10:27:07.000Z</time>
      </trkpt>
      <trkpt lat="45.69294" lon="0.5799">
        <ele>237.9</ele>
        <time>2026-08-11T10:27:14.000Z</time>
      </trkpt>
      <trkpt lat="45.69287" lon="0.57971">
        <ele>238.3</ele>
        <time>2026-08-11T10:27:18.000Z</time>
      </trkpt>
      <trkpt lat="45.69278" lon="0.57947">
        <ele>238.9</ele>
        <time>2026-08-11T10:27:23.000Z</time>
      </trkpt>
      <trkpt lat="45.69266" lon="0.57915">
        <ele>239.6</ele>
        <time>2026-08-11T10:27:29.000Z</time>
      </trkpt>
      <trkpt lat="45.6926" lon="0.57901">
        <ele>239.7</ele>
        <time>2026-08-11T10:27:32.000Z</time>
      </trkpt>
      <trkpt lat="45.69247" lon="0.57869">
        <ele>240</ele>
        <time>2026-08-11T10:27:39.000Z</time>
      </trkpt>
      <trkpt lat="45.69239" lon="0.5785">
        <ele>240</ele>
        <time>2026-08-11T10:27:43.000Z</time>
      </trkpt>
      <trkpt lat="45.69234" lon="0.57842">
        <ele>240</ele>
        <time>2026-08-11T10:27:45.000Z</time>
      </trkpt>
      <trkpt lat="45.69228" lon="0.57829">
        <ele>240</ele>
        <time>2026-08-11T10:27:48.000Z</time>
      </trkpt>
      <trkpt lat="45.69201" lon="0.57787">
        <ele>240.1</ele>
        <time>2026-08-11T10:27:57.000Z</time>
      </trkpt>
      <trkpt lat="45.69171" lon="0.57743">
        <ele>239.7</ele>
        <time>2026-08-11T10:28:05.000Z</time>
      </trkpt>
      <trkpt lat="45.69133" lon="0.57687">
        <ele>239.1</ele>
        <time>2026-08-11T10:28:14.000Z</time>
      </trkpt>
      <trkpt lat="45.69102" lon="0.57641">
        <ele>236.9</ele>
        <time>2026-08-11T10:28:21.000Z</time>
      </trkpt>
      <trkpt lat="45.69084" lon="0.57615">
        <ele>238</ele>
        <time>2026-08-11T10:28:25.000Z</time>
      </trkpt>
      <trkpt lat="45.69045" lon="0.57557">
        <ele>238.4</ele>
        <time>2026-08-11T10:28:34.000Z</time>
      </trkpt>
      <trkpt lat="45.69038" lon="0.57545">
        <ele>238.6</ele>
        <time>2026-08-11T10:28:36.000Z</time>
      </trkpt>
      <trkpt lat="45.69015" lon="0.57503">
        <ele>239.9</ele>
        <time>2026-08-11T10:28:43.000Z</time>
      </trkpt>
      <trkpt lat="45.69" lon="0.5747">
        <ele>239.9</ele>
        <time>2026-08-11T10:28:49.000Z</time>
      </trkpt>
      <trkpt lat="45.68982" lon="0.57424">
        <ele>240.5</ele>
        <time>2026-08-11T10:28:58.000Z</time>
      </trkpt>
      <trkpt lat="45.68975" lon="0.57404">
        <ele>241.3</ele>
        <time>2026-08-11T10:29:02.000Z</time>
      </trkpt>
      <trkpt lat="45.68973" lon="0.57398">
        <ele>241.6</ele>
        <time>2026-08-11T10:29:03.000Z</time>
      </trkpt>
      <trkpt lat="45.68966" lon="0.57382">
        <ele>242.6</ele>
        <time>2026-08-11T10:29:06.000Z</time>
      </trkpt>
      <trkpt lat="45.6895" lon="0.57341">
        <ele>242.4</ele>
        <time>2026-08-11T10:29:14.000Z</time>
      </trkpt>
      <trkpt lat="45.68932" lon="0.57297">
        <ele>242.6</ele>
        <time>2026-08-11T10:29:21.000Z</time>
      </trkpt>
      <trkpt lat="45.68912" lon="0.57252">
        <ele>238.9</ele>
        <time>2026-08-11T10:29:26.000Z</time>
      </trkpt>
      <trkpt lat="45.68891" lon="0.57196">
        <ele>236.3</ele>
        <time>2026-08-11T10:29:31.000Z</time>
      </trkpt>
      <trkpt lat="45.68878" lon="0.57161">
        <ele>235.9</ele>
        <time>2026-08-11T10:29:34.000Z</time>
      </trkpt>
      <trkpt lat="45.68864" lon="0.57123">
        <ele>232.6</ele>
        <time>2026-08-11T10:29:37.000Z</time>
      </trkpt>
      <trkpt lat="45.68849" lon="0.57084">
        <ele>230.1</ele>
        <time>2026-08-11T10:29:40.000Z</time>
      </trkpt>
      <trkpt lat="45.68834" lon="0.57044">
        <ele>228.6</ele>
        <time>2026-08-11T10:29:43.000Z</time>
      </trkpt>
      <trkpt lat="45.68824" lon="0.57017">
        <ele>227.5</ele>
        <time>2026-08-11T10:29:45.000Z</time>
      </trkpt>
      <trkpt lat="45.68819" lon="0.57004">
        <ele>227.2</ele>
        <time>2026-08-11T10:29:46.000Z</time>
      </trkpt>
      <trkpt lat="45.68809" lon="0.56978">
        <ele>226.9</ele>
        <time>2026-08-11T10:29:48.000Z</time>
      </trkpt>
      <trkpt lat="45.688" lon="0.56953">
        <ele>226.7</ele>
        <time>2026-08-11T10:29:50.000Z</time>
      </trkpt>
      <trkpt lat="45.68795" lon="0.5694">
        <ele>226.7</ele>
        <time>2026-08-11T10:29:51.000Z</time>
      </trkpt>
      <trkpt lat="45.68786" lon="0.56916">
        <ele>226.7</ele>
        <time>2026-08-11T10:29:53.000Z</time>
      </trkpt>
      <trkpt lat="45.68773" lon="0.56883">
        <ele>227.5</ele>
        <time>2026-08-11T10:29:56.000Z</time>
      </trkpt>
      <trkpt lat="45.68768" lon="0.56872">
        <ele>227.7</ele>
        <time>2026-08-11T10:29:57.000Z</time>
      </trkpt>
      <trkpt lat="45.68742" lon="0.56818">
        <ele>224.4</ele>
        <time>2026-08-11T10:30:02.000Z</time>
      </trkpt>
      <trkpt lat="45.68737" lon="0.56807">
        <ele>224.1</ele>
        <time>2026-08-11T10:30:03.000Z</time>
      </trkpt>
      <trkpt lat="45.68707" lon="0.56753">
        <ele>220.6</ele>
        <time>2026-08-11T10:30:08.000Z</time>
      </trkpt>
      <trkpt lat="45.68695" lon="0.5673">
        <ele>219.3</ele>
        <time>2026-08-11T10:30:10.000Z</time>
      </trkpt>
      <trkpt lat="45.68678" lon="0.56696">
        <ele>216.5</ele>
        <time>2026-08-11T10:30:13.000Z</time>
      </trkpt>
      <trkpt lat="45.68666" lon="0.56673">
        <ele>214.4</ele>
        <time>2026-08-11T10:30:15.000Z</time>
      </trkpt>
      <trkpt lat="45.68654" lon="0.5665">
        <ele>212.6</ele>
        <time>2026-08-11T10:30:17.000Z</time>
      </trkpt>
      <trkpt lat="45.68643" lon="0.56627">
        <ele>213.5</ele>
        <time>2026-08-11T10:30:19.000Z</time>
      </trkpt>
      <trkpt lat="45.68629" lon="0.56596">
        <ele>214.6</ele>
        <time>2026-08-11T10:30:22.000Z</time>
      </trkpt>
      <trkpt lat="45.68622" lon="0.56578">
        <ele>215.9</ele>
        <time>2026-08-11T10:30:24.000Z</time>
      </trkpt>
      <trkpt lat="45.68613" lon="0.56551">
        <ele>218.1</ele>
        <time>2026-08-11T10:30:28.000Z</time>
      </trkpt>
      <trkpt lat="45.68606" lon="0.56527">
        <ele>219.2</ele>
        <time>2026-08-11T10:30:33.000Z</time>
      </trkpt>
      <trkpt lat="45.686" lon="0.56507">
        <ele>220.1</ele>
        <time>2026-08-11T10:30:39.000Z</time>
      </trkpt>
      <trkpt lat="45.68598" lon="0.56495">
        <ele>220.8</ele>
        <time>2026-08-11T10:30:43.000Z</time>
      </trkpt>
      <trkpt lat="45.68594" lon="0.56484">
        <ele>221.7</ele>
        <time>2026-08-11T10:30:47.000Z</time>
      </trkpt>
      <trkpt lat="45.68592" lon="0.56479">
        <ele>222.2</ele>
        <time>2026-08-11T10:30:49.000Z</time>
      </trkpt>
      <trkpt lat="45.68589" lon="0.56471">
        <ele>222.9</ele>
        <time>2026-08-11T10:30:53.000Z</time>
      </trkpt>
      <trkpt lat="45.68587" lon="0.56463">
        <ele>223.2</ele>
        <time>2026-08-11T10:30:56.000Z</time>
      </trkpt>
      <trkpt lat="45.68583" lon="0.5645">
        <ele>223.8</ele>
        <time>2026-08-11T10:31:01.000Z</time>
      </trkpt>
      <trkpt lat="45.68581" lon="0.56441">
        <ele>224.2</ele>
        <time>2026-08-11T10:31:05.000Z</time>
      </trkpt>
      <trkpt lat="45.68577" lon="0.56429">
        <ele>225.1</ele>
        <time>2026-08-11T10:31:10.000Z</time>
      </trkpt>
      <trkpt lat="45.68574" lon="0.5642">
        <ele>225.7</ele>
        <time>2026-08-11T10:31:14.000Z</time>
      </trkpt>
      <trkpt lat="45.68572" lon="0.56413">
        <ele>226.2</ele>
        <time>2026-08-11T10:31:18.000Z</time>
      </trkpt>
      <trkpt lat="45.68569" lon="0.56402">
        <ele>226.8</ele>
        <time>2026-08-11T10:31:22.000Z</time>
      </trkpt>
      <trkpt lat="45.68564" lon="0.56392">
        <ele>227.2</ele>
        <time>2026-08-11T10:31:26.000Z</time>
      </trkpt>
      <trkpt lat="45.68564" lon="0.5639">
        <ele>227.3</ele>
        <time>2026-08-11T10:31:27.000Z</time>
      </trkpt>
      <trkpt lat="45.68563" lon="0.56385">
        <ele>227.5</ele>
        <time>2026-08-11T10:31:29.000Z</time>
      </trkpt>
      <trkpt lat="45.68562" lon="0.5638">
        <ele>227.6</ele>
        <time>2026-08-11T10:31:31.000Z</time>
      </trkpt>
      <trkpt lat="45.68561" lon="0.56378">
        <ele>227.6</ele>
        <time>2026-08-11T10:31:32.000Z</time>
      </trkpt>
      <trkpt lat="45.6856" lon="0.56374">
        <ele>227.8</ele>
        <time>2026-08-11T10:31:34.000Z</time>
      </trkpt>
      <trkpt lat="45.68556" lon="0.56369">
        <ele>227.7</ele>
        <time>2026-08-11T10:31:36.000Z</time>
      </trkpt>
      <trkpt lat="45.68554" lon="0.56367">
        <ele>227.9</ele>
        <time>2026-08-11T10:31:37.000Z</time>
      </trkpt>
      <trkpt lat="45.68553" lon="0.56358">
        <ele>228.4</ele>
        <time>2026-08-11T10:31:39.000Z</time>
      </trkpt>
      <trkpt lat="45.6855" lon="0.56345">
        <ele>229.7</ele>
        <time>2026-08-11T10:31:42.000Z</time>
      </trkpt>
      <trkpt lat="45.68548" lon="0.5634">
        <ele>230.1</ele>
        <time>2026-08-11T10:31:44.000Z</time>
      </trkpt>
      <trkpt lat="45.68545" lon="0.56334">
        <ele>230.5</ele>
        <time>2026-08-11T10:31:49.000Z</time>
      </trkpt>
      <trkpt lat="45.68542" lon="0.56334">
        <ele>230.5</ele>
        <time>2026-08-11T10:31:55.000Z</time>
      </trkpt>
      <trkpt lat="45.68542" lon="0.56334">
        <ele>230.5</ele>
        <time>2026-08-11T10:31:57.000Z</time>
      </trkpt>
      <trkpt lat="45.68536" lon="0.56315">
        <ele>231</ele>
        <time>2026-08-11T11:39:33.000Z</time>
      </trkpt>
      <trkpt lat="45.68536" lon="0.56312">
        <ele>231</ele>
        <time>2026-08-11T11:39:34.000Z</time>
      </trkpt>
      <trkpt lat="45.68535" lon="0.5631">
        <ele>231.1</ele>
        <time>2026-08-11T11:39:35.000Z</time>
      </trkpt>
      <trkpt lat="45.68529" lon="0.563">
        <ele>231.3</ele>
        <time>2026-08-11T11:39:39.000Z</time>
      </trkpt>
      <trkpt lat="45.68516" lon="0.56279">
        <ele>232.4</ele>
        <time>2026-08-11T11:39:47.000Z</time>
      </trkpt>
      <trkpt lat="45.68506" lon="0.56259">
        <ele>232.4</ele>
        <time>2026-08-11T11:39:54.000Z</time>
      </trkpt>
      <trkpt lat="45.68489" lon="0.56233">
        <ele>232.4</ele>
        <time>2026-08-11T11:40:03.000Z</time>
      </trkpt>
      <trkpt lat="45.68483" lon="0.56223">
        <ele>232.6</ele>
        <time>2026-08-11T11:40:06.000Z</time>
      </trkpt>
      <trkpt lat="45.68475" lon="0.5621">
        <ele>232.4</ele>
        <time>2026-08-11T11:40:10.000Z</time>
      </trkpt>
      <trkpt lat="45.68474" lon="0.56206">
        <ele>232.4</ele>
        <time>2026-08-11T11:40:11.000Z</time>
      </trkpt>
      <trkpt lat="45.68461" lon="0.5619">
        <ele>232.2</ele>
        <time>2026-08-11T11:40:16.000Z</time>
      </trkpt>
      <trkpt lat="45.68446" lon="0.56164">
        <ele>232.6</ele>
        <time>2026-08-11T11:40:23.000Z</time>
      </trkpt>
      <trkpt lat="45.68437" lon="0.56151">
        <ele>232.4</ele>
        <time>2026-08-11T11:40:27.000Z</time>
      </trkpt>
      <trkpt lat="45.6843" lon="0.56142">
        <ele>232.7</ele>
        <time>2026-08-11T11:40:30.000Z</time>
      </trkpt>
      <trkpt lat="45.68426" lon="0.56136">
        <ele>232.9</ele>
        <time>2026-08-11T11:40:32.000Z</time>
      </trkpt>
      <trkpt lat="45.68419" lon="0.56124">
        <ele>233.2</ele>
        <time>2026-08-11T11:40:36.000Z</time>
      </trkpt>
      <trkpt lat="45.68405" lon="0.56101">
        <ele>233.5</ele>
        <time>2026-08-11T11:40:43.000Z</time>
      </trkpt>
      <trkpt lat="45.68398" lon="0.5609">
        <ele>233.6</ele>
        <time>2026-08-11T11:40:46.000Z</time>
      </trkpt>
      <trkpt lat="45.68385" lon="0.56065">
        <ele>234.3</ele>
        <time>2026-08-11T11:40:52.000Z</time>
      </trkpt>
      <trkpt lat="45.68371" lon="0.56037">
        <ele>234.2</ele>
        <time>2026-08-11T11:40:59.000Z</time>
      </trkpt>
      <trkpt lat="45.68359" lon="0.56015">
        <ele>233.7</ele>
        <time>2026-08-11T11:41:04.000Z</time>
      </trkpt>
      <trkpt lat="45.68356" lon="0.5601">
        <ele>233.7</ele>
        <time>2026-08-11T11:41:05.000Z</time>
      </trkpt>
      <trkpt lat="45.68353" lon="0.56004">
        <ele>233.7</ele>
        <time>2026-08-11T11:41:06.000Z</time>
      </trkpt>
      <trkpt lat="45.68336" lon="0.5597">
        <ele>233</ele>
        <time>2026-08-11T11:41:12.000Z</time>
      </trkpt>
      <trkpt lat="45.68332" lon="0.55958">
        <ele>233.1</ele>
        <time>2026-08-11T11:41:14.000Z</time>
      </trkpt>
      <trkpt lat="45.68323" lon="0.55932">
        <ele>232.9</ele>
        <time>2026-08-11T11:41:17.000Z</time>
      </trkpt>
      <trkpt lat="45.68321" lon="0.55925">
        <ele>232.7</ele>
        <time>2026-08-11T11:41:18.000Z</time>
      </trkpt>
      <trkpt lat="45.68312" lon="0.55897">
        <ele>232.8</ele>
        <time>2026-08-11T11:41:22.000Z</time>
      </trkpt>
      <trkpt lat="45.68309" lon="0.55889">
        <ele>232.9</ele>
        <time>2026-08-11T11:41:23.000Z</time>
      </trkpt>
      <trkpt lat="45.68309" lon="0.55883">
        <ele>232.9</ele>
        <time>2026-08-11T11:41:24.000Z</time>
      </trkpt>
      <trkpt lat="45.68297" lon="0.55846">
        <ele>232.8</ele>
        <time>2026-08-11T11:41:30.000Z</time>
      </trkpt>
      <trkpt lat="45.68295" lon="0.55839">
        <ele>232.6</ele>
        <time>2026-08-11T11:41:31.000Z</time>
      </trkpt>
      <trkpt lat="45.68287" lon="0.55804">
        <ele>232.3</ele>
        <time>2026-08-11T11:41:38.000Z</time>
      </trkpt>
      <trkpt lat="45.68276" lon="0.55771">
        <ele>233.4</ele>
        <time>2026-08-11T11:41:45.000Z</time>
      </trkpt>
      <trkpt lat="45.68272" lon="0.55757">
        <ele>234</ele>
        <time>2026-08-11T11:41:48.000Z</time>
      </trkpt>
      <trkpt lat="45.68269" lon="0.55747">
        <ele>234.3</ele>
        <time>2026-08-11T11:41:50.000Z</time>
      </trkpt>
      <trkpt lat="45.6826" lon="0.55711">
        <ele>234.6</ele>
        <time>2026-08-11T11:41:57.000Z</time>
      </trkpt>
      <trkpt lat="45.68249" lon="0.55672">
        <ele>235</ele>
        <time>2026-08-11T11:42:04.000Z</time>
      </trkpt>
      <trkpt lat="45.68241" lon="0.55643">
        <ele>234.4</ele>
        <time>2026-08-11T11:42:10.000Z</time>
      </trkpt>
      <trkpt lat="45.68235" lon="0.55616">
        <ele>234.5</ele>
        <time>2026-08-11T11:42:15.000Z</time>
      </trkpt>
      <trkpt lat="45.68232" lon="0.55605">
        <ele>234.7</ele>
        <time>2026-08-11T11:42:17.000Z</time>
      </trkpt>
      <trkpt lat="45.68222" lon="0.55567">
        <ele>234.4</ele>
        <time>2026-08-11T11:42:23.000Z</time>
      </trkpt>
      <trkpt lat="45.68209" lon="0.55521">
        <ele>233.4</ele>
        <time>2026-08-11T11:42:29.000Z</time>
      </trkpt>
      <trkpt lat="45.68195" lon="0.55468">
        <ele>232</ele>
        <time>2026-08-11T11:42:35.000Z</time>
      </trkpt>
      <trkpt lat="45.68185" lon="0.55431">
        <ele>231.3</ele>
        <time>2026-08-11T11:42:39.000Z</time>
      </trkpt>
      <trkpt lat="45.68178" lon="0.55403">
        <ele>230.7</ele>
        <time>2026-08-11T11:42:42.000Z</time>
      </trkpt>
      <trkpt lat="45.68174" lon="0.55393">
        <ele>230.4</ele>
        <time>2026-08-11T11:42:43.000Z</time>
      </trkpt>
      <trkpt lat="45.68169" lon="0.55372">
        <ele>229.4</ele>
        <time>2026-08-11T11:42:45.000Z</time>
      </trkpt>
      <trkpt lat="45.68157" lon="0.55332">
        <ele>228.9</ele>
        <time>2026-08-11T11:42:49.000Z</time>
      </trkpt>
      <trkpt lat="45.68148" lon="0.553">
        <ele>227.9</ele>
        <time>2026-08-11T11:42:52.000Z</time>
      </trkpt>
      <trkpt lat="45.68136" lon="0.55244">
        <ele>226</ele>
        <time>2026-08-11T11:42:57.000Z</time>
      </trkpt>
      <trkpt lat="45.68129" lon="0.55195">
        <ele>224.7</ele>
        <time>2026-08-11T11:43:01.000Z</time>
      </trkpt>
      <trkpt lat="45.68124" lon="0.55148">
        <ele>223.3</ele>
        <time>2026-08-11T11:43:05.000Z</time>
      </trkpt>
      <trkpt lat="45.68123" lon="0.55137">
        <ele>223</ele>
        <time>2026-08-11T11:43:06.000Z</time>
      </trkpt>
      <trkpt lat="45.68121" lon="0.55113">
        <ele>223</ele>
        <time>2026-08-11T11:43:09.000Z</time>
      </trkpt>
      <trkpt lat="45.6812" lon="0.55106">
        <ele>222.9</ele>
        <time>2026-08-11T11:43:10.000Z</time>
      </trkpt>
      <trkpt lat="45.68121" lon="0.55097">
        <ele>222.8</ele>
        <time>2026-08-11T11:43:12.000Z</time>
      </trkpt>
      <trkpt lat="45.68118" lon="0.55088">
        <ele>222.8</ele>
        <time>2026-08-11T11:43:14.000Z</time>
      </trkpt>
      <trkpt lat="45.68116" lon="0.55085">
        <ele>222.9</ele>
        <time>2026-08-11T11:43:15.000Z</time>
      </trkpt>
      <trkpt lat="45.6811" lon="0.55073">
        <ele>222.6</ele>
        <time>2026-08-11T11:43:19.000Z</time>
      </trkpt>
      <trkpt lat="45.68109" lon="0.55071">
        <ele>222.5</ele>
        <time>2026-08-11T11:43:23.000Z</time>
      </trkpt>
      <trkpt lat="45.68112" lon="0.55065">
        <ele>222.3</ele>
        <time>2026-08-11T11:45:16.000Z</time>
      </trkpt>
      <trkpt lat="45.68113" lon="0.55056">
        <ele>222</ele>
        <time>2026-08-11T11:45:19.000Z</time>
      </trkpt>
      <trkpt lat="45.68111" lon="0.5503">
        <ele>221.1</ele>
        <time>2026-08-11T11:45:24.000Z</time>
      </trkpt>
      <trkpt lat="45.6811" lon="0.55018">
        <ele>220.6</ele>
        <time>2026-08-11T11:45:26.000Z</time>
      </trkpt>
      <trkpt lat="45.68108" lon="0.54989">
        <ele>220</ele>
        <time>2026-08-11T11:45:30.000Z</time>
      </trkpt>
      <trkpt lat="45.68102" lon="0.54939">
        <ele>218.9</ele>
        <time>2026-08-11T11:45:36.000Z</time>
      </trkpt>
      <trkpt lat="45.68101" lon="0.5493">
        <ele>218.8</ele>
        <time>2026-08-11T11:45:37.000Z</time>
      </trkpt>
      <trkpt lat="45.68094" lon="0.54865">
        <ele>218</ele>
        <time>2026-08-11T11:45:44.000Z</time>
      </trkpt>
      <trkpt lat="45.68091" lon="0.54836">
        <ele>217.3</ele>
        <time>2026-08-11T11:45:47.000Z</time>
      </trkpt>
      <trkpt lat="45.68084" lon="0.54776">
        <ele>217</ele>
        <time>2026-08-11T11:45:53.000Z</time>
      </trkpt>
      <trkpt lat="45.68083" lon="0.54766">
        <ele>216.5</ele>
        <time>2026-08-11T11:45:54.000Z</time>
      </trkpt>
      <trkpt lat="45.68073" lon="0.54682">
        <ele>215.7</ele>
        <time>2026-08-11T11:46:02.000Z</time>
      </trkpt>
      <trkpt lat="45.68072" lon="0.54671">
        <ele>215.5</ele>
        <time>2026-08-11T11:46:03.000Z</time>
      </trkpt>
      <trkpt lat="45.68067" lon="0.54604">
        <ele>213.5</ele>
        <time>2026-08-11T11:46:09.000Z</time>
      </trkpt>
      <trkpt lat="45.68066" lon="0.54593">
        <ele>213.3</ele>
        <time>2026-08-11T11:46:10.000Z</time>
      </trkpt>
      <trkpt lat="45.68068" lon="0.54508">
        <ele>211.4</ele>
        <time>2026-08-11T11:46:18.000Z</time>
      </trkpt>
      <trkpt lat="45.68068" lon="0.54499">
        <ele>211.2</ele>
        <time>2026-08-11T11:46:19.000Z</time>
      </trkpt>
      <trkpt lat="45.6807" lon="0.54445">
        <ele>211.5</ele>
        <time>2026-08-11T11:46:25.000Z</time>
      </trkpt>
      <trkpt lat="45.6807" lon="0.54429">
        <ele>211.4</ele>
        <time>2026-08-11T11:46:27.000Z</time>
      </trkpt>
      <trkpt lat="45.68072" lon="0.54383">
        <ele>212.1</ele>
        <time>2026-08-11T11:46:33.000Z</time>
      </trkpt>
      <trkpt lat="45.68073" lon="0.54362">
        <ele>212.5</ele>
        <time>2026-08-11T11:46:36.000Z</time>
      </trkpt>
      <trkpt lat="45.68073" lon="0.54341">
        <ele>212.5</ele>
        <time>2026-08-11T11:46:39.000Z</time>
      </trkpt>
      <trkpt lat="45.68073" lon="0.54313">
        <ele>211.8</ele>
        <time>2026-08-11T11:46:43.000Z</time>
      </trkpt>
      <trkpt lat="45.68071" lon="0.54299">
        <ele>211.6</ele>
        <time>2026-08-11T11:46:45.000Z</time>
      </trkpt>
      <trkpt lat="45.68067" lon="0.54255">
        <ele>210.3</ele>
        <time>2026-08-11T11:46:50.000Z</time>
      </trkpt>
      <trkpt lat="45.68061" lon="0.54203">
        <ele>208.4</ele>
        <time>2026-08-11T11:46:55.000Z</time>
      </trkpt>
      <trkpt lat="45.68058" lon="0.5418">
        <ele>208</ele>
        <time>2026-08-11T11:46:57.000Z</time>
      </trkpt>
      <trkpt lat="45.68056" lon="0.54157">
        <ele>207.7</ele>
        <time>2026-08-11T11:46:59.000Z</time>
      </trkpt>
      <trkpt lat="45.68051" lon="0.54121">
        <ele>206.5</ele>
        <time>2026-08-11T11:47:02.000Z</time>
      </trkpt>
      <trkpt lat="45.68047" lon="0.54087">
        <ele>205.9</ele>
        <time>2026-08-11T11:47:05.000Z</time>
      </trkpt>
      <trkpt lat="45.68045" lon="0.54066">
        <ele>206.3</ele>
        <time>2026-08-11T11:47:07.000Z</time>
      </trkpt>
      <trkpt lat="45.68039" lon="0.54016">
        <ele>206.5</ele>
        <time>2026-08-11T11:47:12.000Z</time>
      </trkpt>
      <trkpt lat="45.68036" lon="0.53982">
        <ele>206.8</ele>
        <time>2026-08-11T11:47:16.000Z</time>
      </trkpt>
      <trkpt lat="45.68031" lon="0.53942">
        <ele>206.4</ele>
        <time>2026-08-11T11:47:21.000Z</time>
      </trkpt>
      <trkpt lat="45.68029" lon="0.53933">
        <ele>206.3</ele>
        <time>2026-08-11T11:47:22.000Z</time>
      </trkpt>
      <trkpt lat="45.68027" lon="0.53916">
        <ele>206</ele>
        <time>2026-08-11T11:47:24.000Z</time>
      </trkpt>
      <trkpt lat="45.68024" lon="0.53889">
        <ele>205.6</ele>
        <time>2026-08-11T11:47:27.000Z</time>
      </trkpt>
      <trkpt lat="45.68014" lon="0.53834">
        <ele>204.4</ele>
        <time>2026-08-11T11:47:33.000Z</time>
      </trkpt>
      <trkpt lat="45.68003" lon="0.53799">
        <ele>204.1</ele>
        <time>2026-08-11T11:47:37.000Z</time>
      </trkpt>
      <trkpt lat="45.67993" lon="0.53773">
        <ele>203.2</ele>
        <time>2026-08-11T11:47:40.000Z</time>
      </trkpt>
      <trkpt lat="45.67978" lon="0.53739">
        <ele>201.9</ele>
        <time>2026-08-11T11:47:44.000Z</time>
      </trkpt>
      <trkpt lat="45.67967" lon="0.53716">
        <ele>201</ele>
        <time>2026-08-11T11:47:47.000Z</time>
      </trkpt>
      <trkpt lat="45.67955" lon="0.5369">
        <ele>200.1</ele>
        <time>2026-08-11T11:47:50.000Z</time>
      </trkpt>
      <trkpt lat="45.67934" lon="0.53647">
        <ele>198</ele>
        <time>2026-08-11T11:47:55.000Z</time>
      </trkpt>
      <trkpt lat="45.67907" lon="0.53608">
        <ele>197.1</ele>
        <time>2026-08-11T11:48:00.000Z</time>
      </trkpt>
      <trkpt lat="45.67901" lon="0.53602">
        <ele>196.9</ele>
        <time>2026-08-11T11:48:01.000Z</time>
      </trkpt>
      <trkpt lat="45.6788" lon="0.53586">
        <ele>196.5</ele>
        <time>2026-08-11T11:48:04.000Z</time>
      </trkpt>
      <trkpt lat="45.67866" lon="0.53578">
        <ele>196.1</ele>
        <time>2026-08-11T11:48:06.000Z</time>
      </trkpt>
      <trkpt lat="45.67853" lon="0.53572">
        <ele>195.4</ele>
        <time>2026-08-11T11:48:08.000Z</time>
      </trkpt>
      <trkpt lat="45.67831" lon="0.53564">
        <ele>195</ele>
        <time>2026-08-11T11:48:11.000Z</time>
      </trkpt>
      <trkpt lat="45.67817" lon="0.5356">
        <ele>195.1</ele>
        <time>2026-08-11T11:48:13.000Z</time>
      </trkpt>
      <trkpt lat="45.6779" lon="0.53551">
        <ele>194.7</ele>
        <time>2026-08-11T11:48:17.000Z</time>
      </trkpt>
      <trkpt lat="45.67756" lon="0.53539">
        <ele>192.8</ele>
        <time>2026-08-11T11:48:22.000Z</time>
      </trkpt>
      <trkpt lat="45.67742" lon="0.53534">
        <ele>192.8</ele>
        <time>2026-08-11T11:48:24.000Z</time>
      </trkpt>
      <trkpt lat="45.67688" lon="0.53512">
        <ele>192.8</ele>
        <time>2026-08-11T11:48:32.000Z</time>
      </trkpt>
      <trkpt lat="45.67652" lon="0.53486">
        <ele>192.3</ele>
        <time>2026-08-11T11:48:38.000Z</time>
      </trkpt>
      <trkpt lat="45.67641" lon="0.53475">
        <ele>192</ele>
        <time>2026-08-11T11:48:40.000Z</time>
      </trkpt>
      <trkpt lat="45.67627" lon="0.53453">
        <ele>192.3</ele>
        <time>2026-08-11T11:48:43.000Z</time>
      </trkpt>
      <trkpt lat="45.67622" lon="0.53445">
        <ele>192.5</ele>
        <time>2026-08-11T11:48:44.000Z</time>
      </trkpt>
      <trkpt lat="45.67613" lon="0.53425">
        <ele>191</ele>
        <time>2026-08-11T11:48:46.000Z</time>
      </trkpt>
      <trkpt lat="45.67602" lon="0.53393">
        <ele>190.1</ele>
        <time>2026-08-11T11:48:49.000Z</time>
      </trkpt>
      <trkpt lat="45.67599" lon="0.53382">
        <ele>189.6</ele>
        <time>2026-08-11T11:48:50.000Z</time>
      </trkpt>
      <trkpt lat="45.67584" lon="0.53335">
        <ele>186.1</ele>
        <time>2026-08-11T11:48:54.000Z</time>
      </trkpt>
      <trkpt lat="45.67576" lon="0.53312">
        <ele>186.1</ele>
        <time>2026-08-11T11:48:56.000Z</time>
      </trkpt>
      <trkpt lat="45.67559" lon="0.53261">
        <ele>183.2</ele>
        <time>2026-08-11T11:49:00.000Z</time>
      </trkpt>
      <trkpt lat="45.67551" lon="0.53234">
        <ele>182.5</ele>
        <time>2026-08-11T11:49:02.000Z</time>
      </trkpt>
      <trkpt lat="45.6754" lon="0.53194">
        <ele>180.5</ele>
        <time>2026-08-11T11:49:05.000Z</time>
      </trkpt>
      <trkpt lat="45.67532" lon="0.53168">
        <ele>179.1</ele>
        <time>2026-08-11T11:49:07.000Z</time>
      </trkpt>
      <trkpt lat="45.67528" lon="0.53155">
        <ele>178.6</ele>
        <time>2026-08-11T11:49:08.000Z</time>
      </trkpt>
      <trkpt lat="45.67518" lon="0.53128">
        <ele>178.1</ele>
        <time>2026-08-11T11:49:10.000Z</time>
      </trkpt>
      <trkpt lat="45.67509" lon="0.531">
        <ele>176.7</ele>
        <time>2026-08-11T11:49:12.000Z</time>
      </trkpt>
      <trkpt lat="45.67496" lon="0.53056">
        <ele>174.4</ele>
        <time>2026-08-11T11:49:15.000Z</time>
      </trkpt>
      <trkpt lat="45.67485" lon="0.53029">
        <ele>173.6</ele>
        <time>2026-08-11T11:49:17.000Z</time>
      </trkpt>
      <trkpt lat="45.67479" lon="0.53016">
        <ele>172.6</ele>
        <time>2026-08-11T11:49:18.000Z</time>
      </trkpt>
      <trkpt lat="45.67462" lon="0.52979">
        <ele>170.7</ele>
        <time>2026-08-11T11:49:21.000Z</time>
      </trkpt>
      <trkpt lat="45.6745" lon="0.52953">
        <ele>168.7</ele>
        <time>2026-08-11T11:49:23.000Z</time>
      </trkpt>
      <trkpt lat="45.67444" lon="0.5294">
        <ele>167.9</ele>
        <time>2026-08-11T11:49:24.000Z</time>
      </trkpt>
      <trkpt lat="45.67437" lon="0.52927">
        <ele>167.9</ele>
        <time>2026-08-11T11:49:25.000Z</time>
      </trkpt>
      <trkpt lat="45.67431" lon="0.52915">
        <ele>167.8</ele>
        <time>2026-08-11T11:49:26.000Z</time>
      </trkpt>
      <trkpt lat="45.67419" lon="0.5289">
        <ele>167</ele>
        <time>2026-08-11T11:49:28.000Z</time>
      </trkpt>
      <trkpt lat="45.67401" lon="0.52853">
        <ele>166.1</ele>
        <time>2026-08-11T11:49:31.000Z</time>
      </trkpt>
      <trkpt lat="45.67379" lon="0.52804">
        <ele>165</ele>
        <time>2026-08-11T11:49:35.000Z</time>
      </trkpt>
      <trkpt lat="45.67365" lon="0.5277">
        <ele>163.7</ele>
        <time>2026-08-11T11:49:38.000Z</time>
      </trkpt>
      <trkpt lat="45.67357" lon="0.52747">
        <ele>163.1</ele>
        <time>2026-08-11T11:49:40.000Z</time>
      </trkpt>
      <trkpt lat="45.67354" lon="0.52735">
        <ele>163.1</ele>
        <time>2026-08-11T11:49:41.000Z</time>
      </trkpt>
      <trkpt lat="45.67348" lon="0.52712">
        <ele>162.6</ele>
        <time>2026-08-11T11:49:43.000Z</time>
      </trkpt>
      <trkpt lat="45.67339" lon="0.52677">
        <ele>160.9</ele>
        <time>2026-08-11T11:49:46.000Z</time>
      </trkpt>
      <trkpt lat="45.67335" lon="0.52666">
        <ele>160.1</ele>
        <time>2026-08-11T11:49:47.000Z</time>
      </trkpt>
      <trkpt lat="45.67327" lon="0.52633">
        <ele>159.5</ele>
        <time>2026-08-11T11:49:50.000Z</time>
      </trkpt>
      <trkpt lat="45.67315" lon="0.5259">
        <ele>158.1</ele>
        <time>2026-08-11T11:49:54.000Z</time>
      </trkpt>
      <trkpt lat="45.67312" lon="0.5258">
        <ele>157.9</ele>
        <time>2026-08-11T11:49:55.000Z</time>
      </trkpt>
      <trkpt lat="45.67295" lon="0.52531">
        <ele>156.6</ele>
        <time>2026-08-11T11:50:00.000Z</time>
      </trkpt>
      <trkpt lat="45.6729" lon="0.52522">
        <ele>156.5</ele>
        <time>2026-08-11T11:50:01.000Z</time>
      </trkpt>
      <trkpt lat="45.67277" lon="0.52496">
        <ele>155.9</ele>
        <time>2026-08-11T11:50:04.000Z</time>
      </trkpt>
      <trkpt lat="45.67259" lon="0.52462">
        <ele>155.3</ele>
        <time>2026-08-11T11:50:08.000Z</time>
      </trkpt>
      <trkpt lat="45.67251" lon="0.52445">
        <ele>155</ele>
        <time>2026-08-11T11:50:10.000Z</time>
      </trkpt>
      <trkpt lat="45.6724" lon="0.52418">
        <ele>155</ele>
        <time>2026-08-11T11:50:13.000Z</time>
      </trkpt>
      <trkpt lat="45.67224" lon="0.52371">
        <ele>153.4</ele>
        <time>2026-08-11T11:50:18.000Z</time>
      </trkpt>
      <trkpt lat="45.67221" lon="0.52362">
        <ele>153</ele>
        <time>2026-08-11T11:50:19.000Z</time>
      </trkpt>
      <trkpt lat="45.67211" lon="0.52335">
        <ele>152.6</ele>
        <time>2026-08-11T11:50:22.000Z</time>
      </trkpt>
      <trkpt lat="45.67197" lon="0.52297">
        <ele>151.1</ele>
        <time>2026-08-11T11:50:26.000Z</time>
      </trkpt>
      <trkpt lat="45.6719" lon="0.52277">
        <ele>151</ele>
        <time>2026-08-11T11:50:28.000Z</time>
      </trkpt>
      <trkpt lat="45.67178" lon="0.52239">
        <ele>149.7</ele>
        <time>2026-08-11T11:50:32.000Z</time>
      </trkpt>
      <trkpt lat="45.67171" lon="0.52219">
        <ele>148</ele>
        <time>2026-08-11T11:50:34.000Z</time>
      </trkpt>
      <trkpt lat="45.6716" lon="0.52189">
        <ele>147.3</ele>
        <time>2026-08-11T11:50:37.000Z</time>
      </trkpt>
      <trkpt lat="45.67146" lon="0.52146">
        <ele>145.4</ele>
        <time>2026-08-11T11:50:41.000Z</time>
      </trkpt>
      <trkpt lat="45.67135" lon="0.52113">
        <ele>144.2</ele>
        <time>2026-08-11T11:50:44.000Z</time>
      </trkpt>
      <trkpt lat="45.67123" lon="0.52079">
        <ele>142.8</ele>
        <time>2026-08-11T11:50:47.000Z</time>
      </trkpt>
      <trkpt lat="45.67115" lon="0.52056">
        <ele>141.6</ele>
        <time>2026-08-11T11:50:49.000Z</time>
      </trkpt>
      <trkpt lat="45.67098" lon="0.52008">
        <ele>140.6</ele>
        <time>2026-08-11T11:50:53.000Z</time>
      </trkpt>
      <trkpt lat="45.67087" lon="0.51972">
        <ele>138.5</ele>
        <time>2026-08-11T11:50:56.000Z</time>
      </trkpt>
      <trkpt lat="45.67082" lon="0.51931">
        <ele>137.3</ele>
        <time>2026-08-11T11:50:59.000Z</time>
      </trkpt>
      <trkpt lat="45.67078" lon="0.51903">
        <ele>136.2</ele>
        <time>2026-08-11T11:51:01.000Z</time>
      </trkpt>
      <trkpt lat="45.67072" lon="0.51858">
        <ele>134</ele>
        <time>2026-08-11T11:51:04.000Z</time>
      </trkpt>
      <trkpt lat="45.67069" lon="0.51829">
        <ele>132.2</ele>
        <time>2026-08-11T11:51:06.000Z</time>
      </trkpt>
      <trkpt lat="45.67067" lon="0.51815">
        <ele>131</ele>
        <time>2026-08-11T11:51:07.000Z</time>
      </trkpt>
      <trkpt lat="45.67065" lon="0.51799">
        <ele>130.1</ele>
        <time>2026-08-11T11:51:08.000Z</time>
      </trkpt>
      <trkpt lat="45.67061" lon="0.51769">
        <ele>129</ele>
        <time>2026-08-11T11:51:10.000Z</time>
      </trkpt>
      <trkpt lat="45.67056" lon="0.51724">
        <ele>126.1</ele>
        <time>2026-08-11T11:51:13.000Z</time>
      </trkpt>
      <trkpt lat="45.67053" lon="0.51695">
        <ele>124.8</ele>
        <time>2026-08-11T11:51:15.000Z</time>
      </trkpt>
      <trkpt lat="45.67049" lon="0.51666">
        <ele>121.7</ele>
        <time>2026-08-11T11:51:17.000Z</time>
      </trkpt>
      <trkpt lat="45.67045" lon="0.51637">
        <ele>119.9</ele>
        <time>2026-08-11T11:51:19.000Z</time>
      </trkpt>
      <trkpt lat="45.67041" lon="0.51609">
        <ele>118.5</ele>
        <time>2026-08-11T11:51:21.000Z</time>
      </trkpt>
      <trkpt lat="45.67037" lon="0.51579">
        <ele>118.3</ele>
        <time>2026-08-11T11:51:23.000Z</time>
      </trkpt>
      <trkpt lat="45.67031" lon="0.5155">
        <ele>118.5</ele>
        <time>2026-08-11T11:51:25.000Z</time>
      </trkpt>
      <trkpt lat="45.67027" lon="0.51535">
        <ele>118.3</ele>
        <time>2026-08-11T11:51:26.000Z</time>
      </trkpt>
      <trkpt lat="45.67023" lon="0.51521">
        <ele>117.8</ele>
        <time>2026-08-11T11:51:27.000Z</time>
      </trkpt>
      <trkpt lat="45.67017" lon="0.51507">
        <ele>117.5</ele>
        <time>2026-08-11T11:51:28.000Z</time>
      </trkpt>
      <trkpt lat="45.67012" lon="0.51494">
        <ele>117.2</ele>
        <time>2026-08-11T11:51:29.000Z</time>
      </trkpt>
      <trkpt lat="45.67005" lon="0.51482">
        <ele>116.6</ele>
        <time>2026-08-11T11:51:30.000Z</time>
      </trkpt>
      <trkpt lat="45.66999" lon="0.5147">
        <ele>115.9</ele>
        <time>2026-08-11T11:51:31.000Z</time>
      </trkpt>
      <trkpt lat="45.66986" lon="0.51446">
        <ele>115.1</ele>
        <time>2026-08-11T11:51:33.000Z</time>
      </trkpt>
      <trkpt lat="45.66973" lon="0.51421">
        <ele>114.3</ele>
        <time>2026-08-11T11:51:35.000Z</time>
      </trkpt>
      <trkpt lat="45.66962" lon="0.51397">
        <ele>113.7</ele>
        <time>2026-08-11T11:51:37.000Z</time>
      </trkpt>
      <trkpt lat="45.66958" lon="0.51385">
        <ele>113.6</ele>
        <time>2026-08-11T11:51:38.000Z</time>
      </trkpt>
      <trkpt lat="45.66953" lon="0.51361">
        <ele>114.4</ele>
        <time>2026-08-11T11:51:40.000Z</time>
      </trkpt>
      <trkpt lat="45.66951" lon="0.5135">
        <ele>114.7</ele>
        <time>2026-08-11T11:51:41.000Z</time>
      </trkpt>
      <trkpt lat="45.66951" lon="0.51309">
        <ele>114.6</ele>
        <time>2026-08-11T11:51:45.000Z</time>
      </trkpt>
      <trkpt lat="45.66957" lon="0.51272">
        <ele>112.6</ele>
        <time>2026-08-11T11:51:50.000Z</time>
      </trkpt>
      <trkpt lat="45.66962" lon="0.51241">
        <ele>114.8</ele>
        <time>2026-08-11T11:51:55.000Z</time>
      </trkpt>
      <trkpt lat="45.66963" lon="0.51235">
        <ele>115.8</ele>
        <time>2026-08-11T11:51:56.000Z</time>
      </trkpt>
      <trkpt lat="45.6696" lon="0.51219">
        <ele>118.5</ele>
        <time>2026-08-11T11:52:00.000Z</time>
      </trkpt>
      <trkpt lat="45.66956" lon="0.51211">
        <ele>120</ele>
        <time>2026-08-11T11:52:03.000Z</time>
      </trkpt>
      <trkpt lat="45.66953" lon="0.51206">
        <ele>120.4</ele>
        <time>2026-08-11T11:52:05.000Z</time>
      </trkpt>
      <trkpt lat="45.66943" lon="0.51192">
        <ele>120.5</ele>
        <time>2026-08-11T11:52:11.000Z</time>
      </trkpt>
      <trkpt lat="45.6694" lon="0.5119">
        <ele>121</ele>
        <time>2026-08-11T11:52:12.000Z</time>
      </trkpt>
      <trkpt lat="45.66932" lon="0.5118">
        <ele>122.4</ele>
        <time>2026-08-11T11:52:17.000Z</time>
      </trkpt>
      <trkpt lat="45.66925" lon="0.51173">
        <ele>122.6</ele>
        <time>2026-08-11T11:52:21.000Z</time>
      </trkpt>
      <trkpt lat="45.66922" lon="0.5117">
        <ele>122.7</ele>
        <time>2026-08-11T11:52:23.000Z</time>
      </trkpt>
      <trkpt lat="45.66914" lon="0.5116">
        <ele>122.8</ele>
        <time>2026-08-11T11:52:30.000Z</time>
      </trkpt>
      <trkpt lat="45.6691" lon="0.51157">
        <ele>122.9</ele>
        <time>2026-08-11T11:52:33.000Z</time>
      </trkpt>
      <trkpt lat="45.66907" lon="0.51152">
        <ele>123.4</ele>
        <time>2026-08-11T11:52:37.000Z</time>
      </trkpt>
      <trkpt lat="45.66904" lon="0.5115">
        <ele>123.4</ele>
        <time>2026-08-11T11:52:39.000Z</time>
      </trkpt>
      <trkpt lat="45.66903" lon="0.51147">
        <ele>123.6</ele>
        <time>2026-08-11T11:52:41.000Z</time>
      </trkpt>
      <trkpt lat="45.66901" lon="0.51144">
        <ele>123.9</ele>
        <time>2026-08-11T11:52:44.000Z</time>
      </trkpt>
      <trkpt lat="45.669" lon="0.51142">
        <ele>124</ele>
        <time>2026-08-11T11:52:45.000Z</time>
      </trkpt>
      <trkpt lat="45.66895" lon="0.51135">
        <ele>124.3</ele>
        <time>2026-08-11T11:52:50.000Z</time>
      </trkpt>
      <trkpt lat="45.66893" lon="0.51134">
        <ele>124.3</ele>
        <time>2026-08-11T11:52:51.000Z</time>
      </trkpt>
      <trkpt lat="45.66887" lon="0.51126">
        <ele>124.7</ele>
        <time>2026-08-11T11:52:57.000Z</time>
      </trkpt>
      <trkpt lat="45.66879" lon="0.51118">
        <ele>125</ele>
        <time>2026-08-11T11:53:03.000Z</time>
      </trkpt>
      <trkpt lat="45.66877" lon="0.51116">
        <ele>125.1</ele>
        <time>2026-08-11T11:53:05.000Z</time>
      </trkpt>
      <trkpt lat="45.66876" lon="0.51114">
        <ele>125.2</ele>
        <time>2026-08-11T11:53:06.000Z</time>
      </trkpt>
      <trkpt lat="45.66872" lon="0.51108">
        <ele>125.5</ele>
        <time>2026-08-11T11:53:10.000Z</time>
      </trkpt>
      <trkpt lat="45.6687" lon="0.51106">
        <ele>125.5</ele>
        <time>2026-08-11T11:53:12.000Z</time>
      </trkpt>
      <trkpt lat="45.66869" lon="0.51104">
        <ele>125.7</ele>
        <time>2026-08-11T11:53:13.000Z</time>
      </trkpt>
      <trkpt lat="45.66863" lon="0.51094">
        <ele>126.1</ele>
        <time>2026-08-11T11:53:20.000Z</time>
      </trkpt>
      <trkpt lat="45.66858" lon="0.51085">
        <ele>126.3</ele>
        <time>2026-08-11T11:53:26.000Z</time>
      </trkpt>
      <trkpt lat="45.66856" lon="0.51081">
        <ele>126.6</ele>
        <time>2026-08-11T11:53:28.000Z</time>
      </trkpt>
      <trkpt lat="45.66848" lon="0.51072">
        <ele>127.2</ele>
        <time>2026-08-11T11:53:36.000Z</time>
      </trkpt>
      <trkpt lat="45.66844" lon="0.51066">
        <ele>127.6</ele>
        <time>2026-08-11T11:53:40.000Z</time>
      </trkpt>
      <trkpt lat="45.66841" lon="0.51061">
        <ele>128.1</ele>
        <time>2026-08-11T11:53:44.000Z</time>
      </trkpt>
      <trkpt lat="45.66833" lon="0.51053">
        <ele>128.5</ele>
        <time>2026-08-11T11:53:51.000Z</time>
      </trkpt>
      <trkpt lat="45.66831" lon="0.5105">
        <ele>128.7</ele>
        <time>2026-08-11T11:53:53.000Z</time>
      </trkpt>
      <trkpt lat="45.66826" lon="0.51041">
        <ele>129.5</ele>
        <time>2026-08-11T11:53:59.000Z</time>
      </trkpt>
      <trkpt lat="45.66822" lon="0.51037">
        <ele>129.8</ele>
        <time>2026-08-11T11:54:02.000Z</time>
      </trkpt>
      <trkpt lat="45.66815" lon="0.51027">
        <ele>130.4</ele>
        <time>2026-08-11T11:54:08.000Z</time>
      </trkpt>
      <trkpt lat="45.66811" lon="0.51018">
        <ele>130.4</ele>
        <time>2026-08-11T11:54:13.000Z</time>
      </trkpt>
      <trkpt lat="45.66809" lon="0.51014">
        <ele>130.5</ele>
        <time>2026-08-11T11:54:15.000Z</time>
      </trkpt>
      <trkpt lat="45.66807" lon="0.51009">
        <ele>130.5</ele>
        <time>2026-08-11T11:54:18.000Z</time>
      </trkpt>
      <trkpt lat="45.66806" lon="0.51006">
        <ele>130.6</ele>
        <time>2026-08-11T11:54:20.000Z</time>
      </trkpt>
      <trkpt lat="45.66803" lon="0.50999">
        <ele>130.9</ele>
        <time>2026-08-11T11:54:24.000Z</time>
      </trkpt>
      <trkpt lat="45.66799" lon="0.5099">
        <ele>131.6</ele>
        <time>2026-08-11T11:54:29.000Z</time>
      </trkpt>
      <trkpt lat="45.66798" lon="0.50979">
        <ele>133</ele>
        <time>2026-08-11T11:54:34.000Z</time>
      </trkpt>
      <trkpt lat="45.66798" lon="0.50976">
        <ele>133.4</ele>
        <time>2026-08-11T11:54:36.000Z</time>
      </trkpt>
      <trkpt lat="45.66797" lon="0.50967">
        <ele>133.9</ele>
        <time>2026-08-11T11:54:40.000Z</time>
      </trkpt>
      <trkpt lat="45.66797" lon="0.5096">
        <ele>134</ele>
        <time>2026-08-11T11:54:44.000Z</time>
      </trkpt>
      <trkpt lat="45.66797" lon="0.50958">
        <ele>134</ele>
        <time>2026-08-11T11:54:45.000Z</time>
      </trkpt>
      <trkpt lat="45.66798" lon="0.5094">
        <ele>134.8</ele>
        <time>2026-08-11T11:54:53.000Z</time>
      </trkpt>
      <trkpt lat="45.66799" lon="0.50935">
        <ele>135.2</ele>
        <time>2026-08-11T11:54:55.000Z</time>
      </trkpt>
      <trkpt lat="45.668" lon="0.5092">
        <ele>136.4</ele>
        <time>2026-08-11T11:55:03.000Z</time>
      </trkpt>
      <trkpt lat="45.668" lon="0.50909">
        <ele>137.3</ele>
        <time>2026-08-11T11:55:08.000Z</time>
      </trkpt>
      <trkpt lat="45.66801" lon="0.50899">
        <ele>138.2</ele>
        <time>2026-08-11T11:55:13.000Z</time>
      </trkpt>
      <trkpt lat="45.668" lon="0.50892">
        <ele>138.9</ele>
        <time>2026-08-11T11:55:17.000Z</time>
      </trkpt>
      <trkpt lat="45.66801" lon="0.5088">
        <ele>139.8</ele>
        <time>2026-08-11T11:55:24.000Z</time>
      </trkpt>
      <trkpt lat="45.66801" lon="0.50878">
        <ele>139.9</ele>
        <time>2026-08-11T11:55:25.000Z</time>
      </trkpt>
      <trkpt lat="45.66801" lon="0.50877">
        <ele>140.1</ele>
        <time>2026-08-11T11:55:26.000Z</time>
      </trkpt>
      <trkpt lat="45.668" lon="0.50875">
        <ele>140.3</ele>
        <time>2026-08-11T11:55:27.000Z</time>
      </trkpt>
      <trkpt lat="45.668" lon="0.50873">
        <ele>140.4</ele>
        <time>2026-08-11T11:55:28.000Z</time>
      </trkpt>
      <trkpt lat="45.66801" lon="0.50871">
        <ele>140.4</ele>
        <time>2026-08-11T11:55:29.000Z</time>
      </trkpt>
      <trkpt lat="45.66802" lon="0.5086">
        <ele>141</ele>
        <time>2026-08-11T11:55:35.000Z</time>
      </trkpt>
      <trkpt lat="45.66802" lon="0.50858">
        <ele>141.1</ele>
        <time>2026-08-11T11:55:36.000Z</time>
      </trkpt>
      <trkpt lat="45.66803" lon="0.50848">
        <ele>141.2</ele>
        <time>2026-08-11T11:55:41.000Z</time>
      </trkpt>
      <trkpt lat="45.66803" lon="0.50847">
        <ele>141.3</ele>
        <time>2026-08-11T11:55:42.000Z</time>
      </trkpt>
      <trkpt lat="45.66804" lon="0.50835">
        <ele>141.3</ele>
        <time>2026-08-11T11:55:48.000Z</time>
      </trkpt>
      <trkpt lat="45.66805" lon="0.5082">
        <ele>141.7</ele>
        <time>2026-08-11T11:55:55.000Z</time>
      </trkpt>
      <trkpt lat="45.66805" lon="0.50818">
        <ele>141.7</ele>
        <time>2026-08-11T11:55:56.000Z</time>
      </trkpt>
      <trkpt lat="45.66806" lon="0.50797">
        <ele>142.4</ele>
        <time>2026-08-11T11:56:05.000Z</time>
      </trkpt>
      <trkpt lat="45.66807" lon="0.50787">
        <ele>142.8</ele>
        <time>2026-08-11T11:56:09.000Z</time>
      </trkpt>
      <trkpt lat="45.66808" lon="0.50784">
        <ele>142.9</ele>
        <time>2026-08-11T11:56:10.000Z</time>
      </trkpt>
      <trkpt lat="45.6681" lon="0.50776">
        <ele>143.4</ele>
        <time>2026-08-11T11:56:14.000Z</time>
      </trkpt>
      <trkpt lat="45.66813" lon="0.50754">
        <ele>144.8</ele>
        <time>2026-08-11T11:56:22.000Z</time>
      </trkpt>
      <trkpt lat="45.66813" lon="0.50747">
        <ele>145</ele>
        <time>2026-08-11T11:56:24.000Z</time>
      </trkpt>
      <trkpt lat="45.66816" lon="0.50727">
        <ele>144.7</ele>
        <time>2026-08-11T11:56:30.000Z</time>
      </trkpt>
      <trkpt lat="45.66819" lon="0.50712">
        <ele>144.3</ele>
        <time>2026-08-11T11:56:34.000Z</time>
      </trkpt>
      <trkpt lat="45.66822" lon="0.50696">
        <ele>143.9</ele>
        <time>2026-08-11T11:56:37.000Z</time>
      </trkpt>
      <trkpt lat="45.66829" lon="0.50654">
        <ele>141.7</ele>
        <time>2026-08-11T11:56:43.000Z</time>
      </trkpt>
      <trkpt lat="45.66837" lon="0.50599">
        <ele>139.4</ele>
        <time>2026-08-11T11:56:49.000Z</time>
      </trkpt>
      <trkpt lat="45.66846" lon="0.50549">
        <ele>138.6</ele>
        <time>2026-08-11T11:56:54.000Z</time>
      </trkpt>
      <trkpt lat="45.66846" lon="0.50539">
        <ele>138.5</ele>
        <time>2026-08-11T11:56:55.000Z</time>
      </trkpt>
      <trkpt lat="45.6685" lon="0.50486">
        <ele>138.9</ele>
        <time>2026-08-11T11:57:01.000Z</time>
      </trkpt>
      <trkpt lat="45.6685" lon="0.5046">
        <ele>140.3</ele>
        <time>2026-08-11T11:57:05.000Z</time>
      </trkpt>
      <trkpt lat="45.6685" lon="0.50455">
        <ele>140.7</ele>
        <time>2026-08-11T11:57:06.000Z</time>
      </trkpt>
      <trkpt lat="45.66851" lon="0.50431">
        <ele>142.2</ele>
        <time>2026-08-11T11:57:12.000Z</time>
      </trkpt>
      <trkpt lat="45.66851" lon="0.50419">
        <ele>142.9</ele>
        <time>2026-08-11T11:57:16.000Z</time>
      </trkpt>
      <trkpt lat="45.66851" lon="0.50407">
        <ele>143.2</ele>
        <time>2026-08-11T11:57:20.000Z</time>
      </trkpt>
      <trkpt lat="45.6685" lon="0.50397">
        <ele>143.4</ele>
        <time>2026-08-11T11:57:23.000Z</time>
      </trkpt>
      <trkpt lat="45.66849" lon="0.50374">
        <ele>143.8</ele>
        <time>2026-08-11T11:57:30.000Z</time>
      </trkpt>
      <trkpt lat="45.66849" lon="0.50371">
        <ele>143.9</ele>
        <time>2026-08-11T11:57:31.000Z</time>
      </trkpt>
      <trkpt lat="45.66851" lon="0.50351">
        <ele>144</ele>
        <time>2026-08-11T11:57:38.000Z</time>
      </trkpt>
      <trkpt lat="45.66851" lon="0.50321">
        <ele>143.8</ele>
        <time>2026-08-11T11:57:46.000Z</time>
      </trkpt>
      <trkpt lat="45.66849" lon="0.50306">
        <ele>143.6</ele>
        <time>2026-08-11T11:57:50.000Z</time>
      </trkpt>
      <trkpt lat="45.66849" lon="0.50303">
        <ele>143.5</ele>
        <time>2026-08-11T11:57:52.000Z</time>
      </trkpt>
      <trkpt lat="45.66847" lon="0.50287">
        <ele>143.2</ele>
        <time>2026-08-11T11:57:57.000Z</time>
      </trkpt>
      <trkpt lat="45.66846" lon="0.50259">
        <ele>143</ele>
        <time>2026-08-11T11:58:02.000Z</time>
      </trkpt>
      <trkpt lat="45.66846" lon="0.50234">
        <ele>142.4</ele>
        <time>2026-08-11T11:58:06.000Z</time>
      </trkpt>
      <trkpt lat="45.66846" lon="0.50228">
        <ele>142.2</ele>
        <time>2026-08-11T11:58:07.000Z</time>
      </trkpt>
      <trkpt lat="45.66845" lon="0.50199">
        <ele>141.1</ele>
        <time>2026-08-11T11:58:11.000Z</time>
      </trkpt>
      <trkpt lat="45.66844" lon="0.50181">
        <ele>140.5</ele>
        <time>2026-08-11T11:58:13.000Z</time>
      </trkpt>
      <trkpt lat="45.66844" lon="0.50145">
        <ele>138.9</ele>
        <time>2026-08-11T11:58:17.000Z</time>
      </trkpt>
      <trkpt lat="45.66843" lon="0.50128">
        <ele>138.2</ele>
        <time>2026-08-11T11:58:19.000Z</time>
      </trkpt>
      <trkpt lat="45.66843" lon="0.50113">
        <ele>137.7</ele>
        <time>2026-08-11T11:58:21.000Z</time>
      </trkpt>
      <trkpt lat="45.66843" lon="0.50106">
        <ele>137.5</ele>
        <time>2026-08-11T11:58:22.000Z</time>
      </trkpt>
      <trkpt lat="45.66842" lon="0.50097">
        <ele>137.1</ele>
        <time>2026-08-11T11:58:24.000Z</time>
      </trkpt>
      <trkpt lat="45.66841" lon="0.5009">
        <ele>137</ele>
        <time>2026-08-11T11:58:26.000Z</time>
      </trkpt>
      <trkpt lat="45.66837" lon="0.50088">
        <ele>137</ele>
        <time>2026-08-11T11:58:28.000Z</time>
      </trkpt>
      <trkpt lat="45.66833" lon="0.5009">
        <ele>137.2</ele>
        <time>2026-08-11T11:58:30.000Z</time>
      </trkpt>
      <trkpt lat="45.66831" lon="0.50095">
        <ele>137.4</ele>
        <time>2026-08-11T11:58:32.000Z</time>
      </trkpt>
      <trkpt lat="45.6683" lon="0.50097">
        <ele>137.5</ele>
        <time>2026-08-11T11:58:33.000Z</time>
      </trkpt>
      <trkpt lat="45.66829" lon="0.501">
        <ele>137.6</ele>
        <time>2026-08-11T11:58:37.000Z</time>
      </trkpt>
      <trkpt lat="45.66827" lon="0.50099">
        <ele>137.6</ele>
        <time>2026-08-11T11:58:40.000Z</time>
      </trkpt>
      <trkpt lat="45.66827" lon="0.50099">
        <ele>137.6</ele>
        <time>2026-08-11T11:58:42.000Z</time>
      </trkpt>
      <trkpt lat="45.66826" lon="0.50099">
        <ele>137.6</ele>
        <time>2026-08-11T11:58:45.000Z</time>
      </trkpt>
      <trkpt lat="45.66829" lon="0.501">
        <ele>137.6</ele>
        <time>2026-08-11T12:28:16.000Z</time>
      </trkpt>
      <trkpt lat="45.66831" lon="0.501">
        <ele>137.6</ele>
        <time>2026-08-11T12:28:17.000Z</time>
      </trkpt>
      <trkpt lat="45.66838" lon="0.50097">
        <ele>137.3</ele>
        <time>2026-08-11T12:28:21.000Z</time>
      </trkpt>
      <trkpt lat="45.66838" lon="0.50095">
        <ele>137.2</ele>
        <time>2026-08-11T12:28:22.000Z</time>
      </trkpt>
      <trkpt lat="45.66842" lon="0.50074">
        <ele>136.5</ele>
        <time>2026-08-11T12:28:28.000Z</time>
      </trkpt>
      <trkpt lat="45.66842" lon="0.5007">
        <ele>136.4</ele>
        <time>2026-08-11T12:28:30.000Z</time>
      </trkpt>
      <trkpt lat="45.66841" lon="0.50067">
        <ele>136.3</ele>
        <time>2026-08-11T12:28:32.000Z</time>
      </trkpt>
      <trkpt lat="45.66841" lon="0.50065">
        <ele>136.2</ele>
        <time>2026-08-11T12:28:33.000Z</time>
      </trkpt>
      <trkpt lat="45.66841" lon="0.5006">
        <ele>136.1</ele>
        <time>2026-08-11T12:28:37.000Z</time>
      </trkpt>
      <trkpt lat="45.66841" lon="0.5006">
        <ele>136.1</ele>
        <time>2026-08-11T12:28:38.000Z</time>
      </trkpt>
      <trkpt lat="45.66841" lon="0.50052">
        <ele>136</ele>
        <time>2026-08-11T12:28:45.000Z</time>
      </trkpt>
      <trkpt lat="45.66841" lon="0.50044">
        <ele>135.9</ele>
        <time>2026-08-11T12:28:48.000Z</time>
      </trkpt>
      <trkpt lat="45.6684" lon="0.50043">
        <ele>135.9</ele>
        <time>2026-08-11T12:28:49.000Z</time>
      </trkpt>
      <trkpt lat="45.66839" lon="0.50039">
        <ele>135.9</ele>
        <time>2026-08-11T12:28:51.000Z</time>
      </trkpt>
      <trkpt lat="45.66838" lon="0.50039">
        <ele>135.9</ele>
        <time>2026-08-11T12:28:52.000Z</time>
      </trkpt>
      <trkpt lat="45.66841" lon="0.50044">
        <ele>135.9</ele>
        <time>2026-08-11T12:28:56.000Z</time>
      </trkpt>
      <trkpt lat="45.66842" lon="0.5005">
        <ele>135.9</ele>
        <time>2026-08-11T12:28:59.000Z</time>
      </trkpt>
      <trkpt lat="45.66841" lon="0.50052">
        <ele>136</ele>
        <time>2026-08-11T12:29:02.000Z</time>
      </trkpt>
      <trkpt lat="45.66839" lon="0.50052">
        <ele>136</ele>
        <time>2026-08-11T12:29:04.000Z</time>
      </trkpt>
      <trkpt lat="45.66835" lon="0.50053">
        <ele>136</ele>
        <time>2026-08-11T12:29:08.000Z</time>
      </trkpt>
      <trkpt lat="45.66834" lon="0.50053">
        <ele>136</ele>
        <time>2026-08-11T12:29:10.000Z</time>
      </trkpt>
      <trkpt lat="45.66834" lon="0.50053">
        <ele>136</ele>
        <time>2026-08-11T12:29:13.000Z</time>
      </trkpt>
      <trkpt lat="45.66838" lon="0.50056">
        <ele>136</ele>
        <time>2026-08-11T12:32:37.000Z</time>
      </trkpt>
      <trkpt lat="45.66838" lon="0.50053">
        <ele>136</ele>
        <time>2026-08-11T12:32:38.000Z</time>
      </trkpt>
      <trkpt lat="45.66838" lon="0.50034">
        <ele>135.9</ele>
        <time>2026-08-11T12:32:43.000Z</time>
      </trkpt>
      <trkpt lat="45.66839" lon="0.50001">
        <ele>136.7</ele>
        <time>2026-08-11T12:32:50.000Z</time>
      </trkpt>
      <trkpt lat="45.66841" lon="0.49981">
        <ele>136.9</ele>
        <time>2026-08-11T12:32:55.000Z</time>
      </trkpt>
      <trkpt lat="45.6684" lon="0.49964">
        <ele>137.2</ele>
        <time>2026-08-11T12:32:59.000Z</time>
      </trkpt>
      <trkpt lat="45.66839" lon="0.49942">
        <ele>137.8</ele>
        <time>2026-08-11T12:33:06.000Z</time>
      </trkpt>
      <trkpt lat="45.66838" lon="0.49928">
        <ele>137.9</ele>
        <time>2026-08-11T12:33:12.000Z</time>
      </trkpt>
      <trkpt lat="45.66837" lon="0.49907">
        <ele>138</ele>
        <time>2026-08-11T12:33:19.000Z</time>
      </trkpt>
      <trkpt lat="45.66837" lon="0.49905">
        <ele>137.9</ele>
        <time>2026-08-11T12:33:20.000Z</time>
      </trkpt>
      <trkpt lat="45.66836" lon="0.4989">
        <ele>137.9</ele>
        <time>2026-08-11T12:33:25.000Z</time>
      </trkpt>
      <trkpt lat="45.66835" lon="0.49882">
        <ele>138.2</ele>
        <time>2026-08-11T12:33:27.000Z</time>
      </trkpt>
      <trkpt lat="45.66831" lon="0.49849">
        <ele>139</ele>
        <time>2026-08-11T12:33:35.000Z</time>
      </trkpt>
      <trkpt lat="45.66829" lon="0.49841">
        <ele>138.9</ele>
        <time>2026-08-11T12:33:37.000Z</time>
      </trkpt>
      <trkpt lat="45.66826" lon="0.49828">
        <ele>138.6</ele>
        <time>2026-08-11T12:33:41.000Z</time>
      </trkpt>
      <trkpt lat="45.66822" lon="0.49816">
        <ele>138.2</ele>
        <time>2026-08-11T12:33:47.000Z</time>
      </trkpt>
      <trkpt lat="45.6682" lon="0.49806">
        <ele>138</ele>
        <time>2026-08-11T12:33:53.000Z</time>
      </trkpt>
      <trkpt lat="45.66811" lon="0.4979">
        <ele>137.6</ele>
        <time>2026-08-11T12:33:59.000Z</time>
      </trkpt>
      <trkpt lat="45.66806" lon="0.49791">
        <ele>137.5</ele>
        <time>2026-08-11T12:34:01.000Z</time>
      </trkpt>
      <trkpt lat="45.668" lon="0.49794">
        <ele>137.5</ele>
        <time>2026-08-11T12:34:03.000Z</time>
      </trkpt>
      <trkpt lat="45.66779" lon="0.49807">
        <ele>137</ele>
        <time>2026-08-11T12:34:10.000Z</time>
      </trkpt>
      <trkpt lat="45.6676" lon="0.49817">
        <ele>136</ele>
        <time>2026-08-11T12:34:15.000Z</time>
      </trkpt>
      <trkpt lat="45.66751" lon="0.49821">
        <ele>135.6</ele>
        <time>2026-08-11T12:34:17.000Z</time>
      </trkpt>
      <trkpt lat="45.66746" lon="0.49823">
        <ele>135.5</ele>
        <time>2026-08-11T12:34:18.000Z</time>
      </trkpt>
      <trkpt lat="45.66737" lon="0.49828">
        <ele>135.6</ele>
        <time>2026-08-11T12:34:20.000Z</time>
      </trkpt>
      <trkpt lat="45.66729" lon="0.49833">
        <ele>135.9</ele>
        <time>2026-08-11T12:34:22.000Z</time>
      </trkpt>
      <trkpt lat="45.66719" lon="0.49837">
        <ele>136.4</ele>
        <time>2026-08-11T12:34:25.000Z</time>
      </trkpt>
      <trkpt lat="45.66702" lon="0.49845">
        <ele>137.3</ele>
        <time>2026-08-11T12:34:31.000Z</time>
      </trkpt>
      <trkpt lat="45.66688" lon="0.49854">
        <ele>138</ele>
        <time>2026-08-11T12:34:37.000Z</time>
      </trkpt>
      <trkpt lat="45.66685" lon="0.49859">
        <ele>138.3</ele>
        <time>2026-08-11T12:34:40.000Z</time>
      </trkpt>
      <trkpt lat="45.66683" lon="0.49861">
        <ele>138.4</ele>
        <time>2026-08-11T12:34:42.000Z</time>
      </trkpt>
      <trkpt lat="45.66674" lon="0.49874">
        <ele>139.3</ele>
        <time>2026-08-11T12:34:48.000Z</time>
      </trkpt>
      <trkpt lat="45.66666" lon="0.49884">
        <ele>139.9</ele>
        <time>2026-08-11T12:34:53.000Z</time>
      </trkpt>
      <trkpt lat="45.66661" lon="0.49893">
        <ele>140.3</ele>
        <time>2026-08-11T12:34:57.000Z</time>
      </trkpt>
      <trkpt lat="45.66653" lon="0.49905">
        <ele>140.8</ele>
        <time>2026-08-11T12:35:03.000Z</time>
      </trkpt>
      <trkpt lat="45.6665" lon="0.4991">
        <ele>140.9</ele>
        <time>2026-08-11T12:35:06.000Z</time>
      </trkpt>
      <trkpt lat="45.66648" lon="0.49913">
        <ele>141</ele>
        <time>2026-08-11T12:35:08.000Z</time>
      </trkpt>
      <trkpt lat="45.6664" lon="0.49922">
        <ele>141.2</ele>
        <time>2026-08-11T12:35:12.000Z</time>
      </trkpt>
      <trkpt lat="45.66634" lon="0.49933">
        <ele>141.8</ele>
        <time>2026-08-11T12:35:17.000Z</time>
      </trkpt>
      <trkpt lat="45.66632" lon="0.49933">
        <ele>141.9</ele>
        <time>2026-08-11T12:35:18.000Z</time>
      </trkpt>
      <trkpt lat="45.66631" lon="0.49933">
        <ele>142</ele>
        <time>2026-08-11T12:35:19.000Z</time>
      </trkpt>
      <trkpt lat="45.66625" lon="0.49936">
        <ele>142.4</ele>
        <time>2026-08-11T12:35:22.000Z</time>
      </trkpt>
      <trkpt lat="45.66623" lon="0.49937">
        <ele>142.5</ele>
        <time>2026-08-11T12:35:23.000Z</time>
      </trkpt>
      <trkpt lat="45.66609" lon="0.49948">
        <ele>143.2</ele>
        <time>2026-08-11T12:35:31.000Z</time>
      </trkpt>
      <trkpt lat="45.66606" lon="0.49953">
        <ele>143.4</ele>
        <time>2026-08-11T12:35:33.000Z</time>
      </trkpt>
      <trkpt lat="45.666" lon="0.49965">
        <ele>143.8</ele>
        <time>2026-08-11T12:35:38.000Z</time>
      </trkpt>
      <trkpt lat="45.66594" lon="0.49977">
        <ele>144.3</ele>
        <time>2026-08-11T12:35:43.000Z</time>
      </trkpt>
      <trkpt lat="45.6659" lon="0.49984">
        <ele>144.6</ele>
        <time>2026-08-11T12:35:46.000Z</time>
      </trkpt>
      <trkpt lat="45.66582" lon="0.5">
        <ele>145</ele>
        <time>2026-08-11T12:35:53.000Z</time>
      </trkpt>
      <trkpt lat="45.66572" lon="0.50007">
        <ele>145.1</ele>
        <time>2026-08-11T12:35:59.000Z</time>
      </trkpt>
      <trkpt lat="45.66569" lon="0.50007">
        <ele>145.1</ele>
        <time>2026-08-11T12:36:01.000Z</time>
      </trkpt>
      <trkpt lat="45.66568" lon="0.50007">
        <ele>145.1</ele>
        <time>2026-08-11T12:36:02.000Z</time>
      </trkpt>
      <trkpt lat="45.66568" lon="0.50006">
        <ele>145.1</ele>
        <time>2026-08-11T12:36:03.000Z</time>
      </trkpt>
      <trkpt lat="45.66568" lon="0.50003">
        <ele>145.1</ele>
        <time>2026-08-11T12:36:05.000Z</time>
      </trkpt>
      <trkpt lat="45.66568" lon="0.50002">
        <ele>145</ele>
        <time>2026-08-11T12:36:10.000Z</time>
      </trkpt>
      <trkpt lat="45.66576" lon="0.50004">
        <ele>145</ele>
        <time>2026-08-11T12:37:32.000Z</time>
      </trkpt>
      <trkpt lat="45.6658" lon="0.50003">
        <ele>145</ele>
        <time>2026-08-11T12:37:34.000Z</time>
      </trkpt>
      <trkpt lat="45.66583" lon="0.49995">
        <ele>145</ele>
        <time>2026-08-11T12:37:38.000Z</time>
      </trkpt>
      <trkpt lat="45.66585" lon="0.49991">
        <ele>144.9</ele>
        <time>2026-08-11T12:37:41.000Z</time>
      </trkpt>
      <trkpt lat="45.66585" lon="0.49989">
        <ele>144.9</ele>
        <time>2026-08-11T12:37:43.000Z</time>
      </trkpt>
      <trkpt lat="45.66582" lon="0.49988">
        <ele>145</ele>
        <time>2026-08-11T12:37:47.000Z</time>
      </trkpt>
      <trkpt lat="45.66582" lon="0.49987">
        <ele>145</ele>
        <time>2026-08-11T12:37:48.000Z</time>
      </trkpt>
      <trkpt lat="45.66582" lon="0.49985">
        <ele>145</ele>
        <time>2026-08-11T12:37:52.000Z</time>
      </trkpt>
      <trkpt lat="45.66586" lon="0.49989">
        <ele>144.9</ele>
        <time>2026-08-11T12:41:47.000Z</time>
      </trkpt>
      <trkpt lat="45.6658" lon="0.5">
        <ele>145</ele>
        <time>2026-08-11T12:41:52.000Z</time>
      </trkpt>
      <trkpt lat="45.66575" lon="0.50011">
        <ele>145.1</ele>
        <time>2026-08-11T12:41:57.000Z</time>
      </trkpt>
      <trkpt lat="45.66572" lon="0.50019">
        <ele>145.3</ele>
        <time>2026-08-11T12:42:00.000Z</time>
      </trkpt>
      <trkpt lat="45.66561" lon="0.50036">
        <ele>145.8</ele>
        <time>2026-08-11T12:42:07.000Z</time>
      </trkpt>
      <trkpt lat="45.66547" lon="0.50058">
        <ele>146</ele>
        <time>2026-08-11T12:42:16.000Z</time>
      </trkpt>
      <trkpt lat="45.66539" lon="0.5007">
        <ele>146.3</ele>
        <time>2026-08-11T12:42:22.000Z</time>
      </trkpt>
      <trkpt lat="45.66537" lon="0.50075">
        <ele>146.5</ele>
        <time>2026-08-11T12:42:27.000Z</time>
      </trkpt>
      <trkpt lat="45.66536" lon="0.50076">
        <ele>146.5</ele>
        <time>2026-08-11T12:42:28.000Z</time>
      </trkpt>
      <trkpt lat="45.66528" lon="0.50089">
        <ele>147</ele>
        <time>2026-08-11T12:42:35.000Z</time>
      </trkpt>
      <trkpt lat="45.66525" lon="0.50093">
        <ele>147</ele>
        <time>2026-08-11T12:42:38.000Z</time>
      </trkpt>
      <trkpt lat="45.66521" lon="0.50095">
        <ele>147.1</ele>
        <time>2026-08-11T12:42:42.000Z</time>
      </trkpt>
      <trkpt lat="45.66521" lon="0.50096">
        <ele>147.1</ele>
        <time>2026-08-11T12:42:43.000Z</time>
      </trkpt>
      <trkpt lat="45.6652" lon="0.50099">
        <ele>147.2</ele>
        <time>2026-08-11T12:42:45.000Z</time>
      </trkpt>
      <trkpt lat="45.66518" lon="0.50099">
        <ele>147.2</ele>
        <time>2026-08-11T12:42:47.000Z</time>
      </trkpt>
      <trkpt lat="45.66513" lon="0.50097">
        <ele>147.3</ele>
        <time>2026-08-11T12:42:52.000Z</time>
      </trkpt>
      <trkpt lat="45.66511" lon="0.50095">
        <ele>147.2</ele>
        <time>2026-08-11T12:42:53.000Z</time>
      </trkpt>
      <trkpt lat="45.66512" lon="0.50075">
        <ele>146.7</ele>
        <time>2026-08-11T12:42:58.000Z</time>
      </trkpt>
      <trkpt lat="45.66514" lon="0.50038">
        <ele>145.7</ele>
        <time>2026-08-11T12:43:04.000Z</time>
      </trkpt>
      <trkpt lat="45.66516" lon="0.49997">
        <ele>145</ele>
        <time>2026-08-11T12:43:11.000Z</time>
      </trkpt>
      <trkpt lat="45.66514" lon="0.49991">
        <ele>145</ele>
        <time>2026-08-11T12:43:13.000Z</time>
      </trkpt>
      <trkpt lat="45.66512" lon="0.49988">
        <ele>145</ele>
        <time>2026-08-11T12:43:15.000Z</time>
      </trkpt>
      <trkpt lat="45.66511" lon="0.49987">
        <ele>145</ele>
        <time>2026-08-11T12:43:17.000Z</time>
      </trkpt>
      <trkpt lat="45.66508" lon="0.49987">
        <ele>145</ele>
        <time>2026-08-11T12:43:21.000Z</time>
      </trkpt>
      <trkpt lat="45.66508" lon="0.49988">
        <ele>145</ele>
        <time>2026-08-11T12:43:22.000Z</time>
      </trkpt>
      <trkpt lat="45.66512" lon="0.49989">
        <ele>145</ele>
        <time>2026-08-11T12:43:25.000Z</time>
      </trkpt>
      <trkpt lat="45.6652" lon="0.49975">
        <ele>145</ele>
        <time>2026-08-11T12:43:31.000Z</time>
      </trkpt>
      <trkpt lat="45.66523" lon="0.49961">
        <ele>145</ele>
        <time>2026-08-11T12:43:34.000Z</time>
      </trkpt>
      <trkpt lat="45.66522" lon="0.49949">
        <ele>145</ele>
        <time>2026-08-11T12:43:36.000Z</time>
      </trkpt>
      <trkpt lat="45.66516" lon="0.49912">
        <ele>143.5</ele>
        <time>2026-08-11T12:43:42.000Z</time>
      </trkpt>
      <trkpt lat="45.66515" lon="0.49907">
        <ele>143.4</ele>
        <time>2026-08-11T12:43:43.000Z</time>
      </trkpt>
      <trkpt lat="45.66509" lon="0.4988">
        <ele>142.3</ele>
        <time>2026-08-11T12:43:49.000Z</time>
      </trkpt>
      <trkpt lat="45.66508" lon="0.49878">
        <ele>142</ele>
        <time>2026-08-11T12:43:50.000Z</time>
      </trkpt>
      <trkpt lat="45.665" lon="0.49872">
        <ele>141.4</ele>
        <time>2026-08-11T12:43:54.000Z</time>
      </trkpt>
      <trkpt lat="45.66492" lon="0.49873">
        <ele>141.3</ele>
        <time>2026-08-11T12:43:57.000Z</time>
      </trkpt>
      <trkpt lat="45.66488" lon="0.49875">
        <ele>141.3</ele>
        <time>2026-08-11T12:43:58.000Z</time>
      </trkpt>
      <trkpt lat="45.6646" lon="0.49886">
        <ele>140.9</ele>
        <time>2026-08-11T12:44:05.000Z</time>
      </trkpt>
      <trkpt lat="45.66439" lon="0.49895">
        <ele>140.2</ele>
        <time>2026-08-11T12:44:10.000Z</time>
      </trkpt>
      <trkpt lat="45.66426" lon="0.499">
        <ele>140.4</ele>
        <time>2026-08-11T12:44:13.000Z</time>
      </trkpt>
      <trkpt lat="45.66378" lon="0.49919">
        <ele>140.9</ele>
        <time>2026-08-11T12:44:24.000Z</time>
      </trkpt>
      <trkpt lat="45.66345" lon="0.49934">
        <ele>141</ele>
        <time>2026-08-11T12:44:33.000Z</time>
      </trkpt>
      <trkpt lat="45.66327" lon="0.4994">
        <ele>142.4</ele>
        <time>2026-08-11T12:44:39.000Z</time>
      </trkpt>
      <trkpt lat="45.66314" lon="0.49944">
        <ele>143.4</ele>
        <time>2026-08-11T12:44:44.000Z</time>
      </trkpt>
      <trkpt lat="45.66308" lon="0.49946">
        <ele>143.8</ele>
        <time>2026-08-11T12:44:47.000Z</time>
      </trkpt>
      <trkpt lat="45.66286" lon="0.49949">
        <ele>144.8</ele>
        <time>2026-08-11T12:44:57.000Z</time>
      </trkpt>
      <trkpt lat="45.66266" lon="0.49951">
        <ele>146.1</ele>
        <time>2026-08-11T12:45:07.000Z</time>
      </trkpt>
      <trkpt lat="45.66265" lon="0.49951">
        <ele>146.2</ele>
        <time>2026-08-11T12:45:08.000Z</time>
      </trkpt>
      <trkpt lat="45.66261" lon="0.49951">
        <ele>146.5</ele>
        <time>2026-08-11T12:45:10.000Z</time>
      </trkpt>
      <trkpt lat="45.66251" lon="0.49951">
        <ele>147.2</ele>
        <time>2026-08-11T12:45:15.000Z</time>
      </trkpt>
      <trkpt lat="45.66244" lon="0.49952">
        <ele>147.5</ele>
        <time>2026-08-11T12:45:18.000Z</time>
      </trkpt>
      <trkpt lat="45.6623" lon="0.49953">
        <ele>148</ele>
        <time>2026-08-11T12:45:25.000Z</time>
      </trkpt>
      <trkpt lat="45.66218" lon="0.49953">
        <ele>148.5</ele>
        <time>2026-08-11T12:45:31.000Z</time>
      </trkpt>
      <trkpt lat="45.66213" lon="0.49953">
        <ele>148.7</ele>
        <time>2026-08-11T12:45:34.000Z</time>
      </trkpt>
      <trkpt lat="45.66199" lon="0.49955">
        <ele>149.5</ele>
        <time>2026-08-11T12:45:41.000Z</time>
      </trkpt>
      <trkpt lat="45.66189" lon="0.49954">
        <ele>149.8</ele>
        <time>2026-08-11T12:45:46.000Z</time>
      </trkpt>
      <trkpt lat="45.66186" lon="0.49955">
        <ele>149.9</ele>
        <time>2026-08-11T12:45:48.000Z</time>
      </trkpt>
      <trkpt lat="45.66171" lon="0.49956">
        <ele>150.3</ele>
        <time>2026-08-11T12:45:56.000Z</time>
      </trkpt>
      <trkpt lat="45.66164" lon="0.49957">
        <ele>150.5</ele>
        <time>2026-08-11T12:45:59.000Z</time>
      </trkpt>
      <trkpt lat="45.66139" lon="0.49959">
        <ele>151.5</ele>
        <time>2026-08-11T12:46:11.000Z</time>
      </trkpt>
      <trkpt lat="45.66138" lon="0.4996">
        <ele>151.6</ele>
        <time>2026-08-11T12:46:12.000Z</time>
      </trkpt>
      <trkpt lat="45.66119" lon="0.4996">
        <ele>152.3</ele>
        <time>2026-08-11T12:46:21.000Z</time>
      </trkpt>
      <trkpt lat="45.66115" lon="0.4996">
        <ele>152.4</ele>
        <time>2026-08-11T12:46:23.000Z</time>
      </trkpt>
      <trkpt lat="45.66113" lon="0.4996">
        <ele>152.5</ele>
        <time>2026-08-11T12:46:24.000Z</time>
      </trkpt>
      <trkpt lat="45.66097" lon="0.49962">
        <ele>153.3</ele>
        <time>2026-08-11T12:46:32.000Z</time>
      </trkpt>
      <trkpt lat="45.66091" lon="0.49961">
        <ele>153.6</ele>
        <time>2026-08-11T12:46:35.000Z</time>
      </trkpt>
      <trkpt lat="45.66079" lon="0.49963">
        <ele>154.3</ele>
        <time>2026-08-11T12:46:41.000Z</time>
      </trkpt>
      <trkpt lat="45.66068" lon="0.49964">
        <ele>155.1</ele>
        <time>2026-08-11T12:46:46.000Z</time>
      </trkpt>
      <trkpt lat="45.66058" lon="0.49965">
        <ele>155.9</ele>
        <time>2026-08-11T12:46:51.000Z</time>
      </trkpt>
      <trkpt lat="45.66049" lon="0.49965">
        <ele>156.4</ele>
        <time>2026-08-11T12:46:55.000Z</time>
      </trkpt>
      <trkpt lat="45.6604" lon="0.49965">
        <ele>156.8</ele>
        <time>2026-08-11T12:46:59.000Z</time>
      </trkpt>
      <trkpt lat="45.66033" lon="0.49965">
        <ele>157.2</ele>
        <time>2026-08-11T12:47:02.000Z</time>
      </trkpt>
      <trkpt lat="45.66022" lon="0.49966">
        <ele>157.8</ele>
        <time>2026-08-11T12:47:07.000Z</time>
      </trkpt>
      <trkpt lat="45.66011" lon="0.49967">
        <ele>158.5</ele>
        <time>2026-08-11T12:47:12.000Z</time>
      </trkpt>
      <trkpt lat="45.66008" lon="0.49967">
        <ele>158.7</ele>
        <time>2026-08-11T12:47:13.000Z</time>
      </trkpt>
      <trkpt lat="45.6599" lon="0.49968">
        <ele>159.6</ele>
        <time>2026-08-11T12:47:21.000Z</time>
      </trkpt>
      <trkpt lat="45.65988" lon="0.49968">
        <ele>159.7</ele>
        <time>2026-08-11T12:47:22.000Z</time>
      </trkpt>
      <trkpt lat="45.65971" lon="0.49969">
        <ele>160.5</ele>
        <time>2026-08-11T12:47:30.000Z</time>
      </trkpt>
      <trkpt lat="45.65957" lon="0.4997">
        <ele>160.8</ele>
        <time>2026-08-11T12:47:36.000Z</time>
      </trkpt>
      <trkpt lat="45.6595" lon="0.4997">
        <ele>161</ele>
        <time>2026-08-11T12:47:39.000Z</time>
      </trkpt>
      <trkpt lat="45.65947" lon="0.4997">
        <ele>161.1</ele>
        <time>2026-08-11T12:47:40.000Z</time>
      </trkpt>
      <trkpt lat="45.65933" lon="0.49971">
        <ele>161.1</ele>
        <time>2026-08-11T12:47:46.000Z</time>
      </trkpt>
      <trkpt lat="45.65928" lon="0.49971">
        <ele>161.1</ele>
        <time>2026-08-11T12:47:48.000Z</time>
      </trkpt>
      <trkpt lat="45.65903" lon="0.49973">
        <ele>161</ele>
        <time>2026-08-11T12:47:57.000Z</time>
      </trkpt>
      <trkpt lat="45.6589" lon="0.49973">
        <ele>161</ele>
        <time>2026-08-11T12:48:01.000Z</time>
      </trkpt>
      <trkpt lat="45.6587" lon="0.49973">
        <ele>161</ele>
        <time>2026-08-11T12:48:06.000Z</time>
      </trkpt>
      <trkpt lat="45.65832" lon="0.49968">
        <ele>160.9</ele>
        <time>2026-08-11T12:48:15.000Z</time>
      </trkpt>
      <trkpt lat="45.65778" lon="0.4996">
        <ele>159.5</ele>
        <time>2026-08-11T12:48:26.000Z</time>
      </trkpt>
      <trkpt lat="45.65726" lon="0.49951">
        <ele>158.3</ele>
        <time>2026-08-11T12:48:36.000Z</time>
      </trkpt>
      <trkpt lat="45.6567" lon="0.49942">
        <ele>158.9</ele>
        <time>2026-08-11T12:48:47.000Z</time>
      </trkpt>
      <trkpt lat="45.65655" lon="0.49941">
        <ele>158.9</ele>
        <time>2026-08-11T12:48:50.000Z</time>
      </trkpt>
      <trkpt lat="45.65628" lon="0.49941">
        <ele>159.1</ele>
        <time>2026-08-11T12:48:56.000Z</time>
      </trkpt>
      <trkpt lat="45.65593" lon="0.49951">
        <ele>160.5</ele>
        <time>2026-08-11T12:49:05.000Z</time>
      </trkpt>
      <trkpt lat="45.65554" lon="0.49967">
        <ele>161.4</ele>
        <time>2026-08-11T12:49:16.000Z</time>
      </trkpt>
      <trkpt lat="45.65526" lon="0.49978">
        <ele>161.3</ele>
        <time>2026-08-11T12:49:25.000Z</time>
      </trkpt>
      <trkpt lat="45.65523" lon="0.49979">
        <ele>161.2</ele>
        <time>2026-08-11T12:49:26.000Z</time>
      </trkpt>
      <trkpt lat="45.65488" lon="0.49993">
        <ele>161.5</ele>
        <time>2026-08-11T12:49:37.000Z</time>
      </trkpt>
      <trkpt lat="45.65464" lon="0.50001">
        <ele>162.4</ele>
        <time>2026-08-11T12:49:45.000Z</time>
      </trkpt>
      <trkpt lat="45.6546" lon="0.50004">
        <ele>162.8</ele>
        <time>2026-08-11T12:49:47.000Z</time>
      </trkpt>
      <trkpt lat="45.65452" lon="0.50006">
        <ele>163.2</ele>
        <time>2026-08-11T12:49:50.000Z</time>
      </trkpt>
      <trkpt lat="45.6544" lon="0.5001">
        <ele>164</ele>
        <time>2026-08-11T12:49:55.000Z</time>
      </trkpt>
      <trkpt lat="45.65436" lon="0.50012">
        <ele>164.3</ele>
        <time>2026-08-11T12:49:57.000Z</time>
      </trkpt>
      <trkpt lat="45.65431" lon="0.50013">
        <ele>164.7</ele>
        <time>2026-08-11T12:50:00.000Z</time>
      </trkpt>
      <trkpt lat="45.65423" lon="0.50016">
        <ele>165.4</ele>
        <time>2026-08-11T12:50:04.000Z</time>
      </trkpt>
      <trkpt lat="45.65417" lon="0.50017">
        <ele>165.9</ele>
        <time>2026-08-11T12:50:07.000Z</time>
      </trkpt>
      <trkpt lat="45.6541" lon="0.50017">
        <ele>166.2</ele>
        <time>2026-08-11T12:50:10.000Z</time>
      </trkpt>
      <trkpt lat="45.65389" lon="0.50018">
        <ele>167.3</ele>
        <time>2026-08-11T12:50:18.000Z</time>
      </trkpt>
      <trkpt lat="45.65364" lon="0.5002">
        <ele>167.7</ele>
        <time>2026-08-11T12:50:27.000Z</time>
      </trkpt>
      <trkpt lat="45.65339" lon="0.50027">
        <ele>168</ele>
        <time>2026-08-11T12:50:35.000Z</time>
      </trkpt>
      <trkpt lat="45.65311" lon="0.50035">
        <ele>167.3</ele>
        <time>2026-08-11T12:50:43.000Z</time>
      </trkpt>
      <trkpt lat="45.65284" lon="0.50042">
        <ele>166.2</ele>
        <time>2026-08-11T12:50:49.000Z</time>
      </trkpt>
      <trkpt lat="45.65249" lon="0.50048">
        <ele>164.7</ele>
        <time>2026-08-11T12:50:55.000Z</time>
      </trkpt>
      <trkpt lat="45.65208" lon="0.5005">
        <ele>163.3</ele>
        <time>2026-08-11T12:51:01.000Z</time>
      </trkpt>
      <trkpt lat="45.65194" lon="0.50048">
        <ele>162.7</ele>
        <time>2026-08-11T12:51:03.000Z</time>
      </trkpt>
      <trkpt lat="45.6515" lon="0.5004">
        <ele>160.5</ele>
        <time>2026-08-11T12:51:09.000Z</time>
      </trkpt>
      <trkpt lat="45.6511" lon="0.50032">
        <ele>159</ele>
        <time>2026-08-11T12:51:14.000Z</time>
      </trkpt>
      <trkpt lat="45.65078" lon="0.50025">
        <ele>157.8</ele>
        <time>2026-08-11T12:51:18.000Z</time>
      </trkpt>
      <trkpt lat="45.6507" lon="0.50023">
        <ele>157.5</ele>
        <time>2026-08-11T12:51:19.000Z</time>
      </trkpt>
      <trkpt lat="45.65038" lon="0.50017">
        <ele>156.1</ele>
        <time>2026-08-11T12:51:23.000Z</time>
      </trkpt>
      <trkpt lat="45.65006" lon="0.50011">
        <ele>155.1</ele>
        <time>2026-08-11T12:51:27.000Z</time>
      </trkpt>
      <trkpt lat="45.64998" lon="0.50009">
        <ele>155</ele>
        <time>2026-08-11T12:51:28.000Z</time>
      </trkpt>
      <trkpt lat="45.64967" lon="0.50003">
        <ele>155.9</ele>
        <time>2026-08-11T12:51:32.000Z</time>
      </trkpt>
      <trkpt lat="45.64955" lon="0.50001">
        <ele>156.6</ele>
        <time>2026-08-11T12:51:34.000Z</time>
      </trkpt>
      <trkpt lat="45.6493" lon="0.49994">
        <ele>157.3</ele>
        <time>2026-08-11T12:51:39.000Z</time>
      </trkpt>
      <trkpt lat="45.64913" lon="0.49991">
        <ele>157.8</ele>
        <time>2026-08-11T12:51:43.000Z</time>
      </trkpt>
      <trkpt lat="45.64905" lon="0.49988">
        <ele>158.1</ele>
        <time>2026-08-11T12:51:45.000Z</time>
      </trkpt>
      <trkpt lat="45.64893" lon="0.49982">
        <ele>158.6</ele>
        <time>2026-08-11T12:51:48.000Z</time>
      </trkpt>
      <trkpt lat="45.64879" lon="0.49971">
        <ele>158.7</ele>
        <time>2026-08-11T12:51:52.000Z</time>
      </trkpt>
      <trkpt lat="45.64872" lon="0.49964">
        <ele>158.7</ele>
        <time>2026-08-11T12:51:54.000Z</time>
      </trkpt>
      <trkpt lat="45.64859" lon="0.49945">
        <ele>158.8</ele>
        <time>2026-08-11T12:51:59.000Z</time>
      </trkpt>
      <trkpt lat="45.64841" lon="0.4991">
        <ele>158.1</ele>
        <time>2026-08-11T12:52:06.000Z</time>
      </trkpt>
      <trkpt lat="45.64832" lon="0.49893">
        <ele>157.6</ele>
        <time>2026-08-11T12:52:09.000Z</time>
      </trkpt>
      <trkpt lat="45.64822" lon="0.49874">
        <ele>156.5</ele>
        <time>2026-08-11T12:52:12.000Z</time>
      </trkpt>
      <trkpt lat="45.64797" lon="0.49827">
        <ele>154.4</ele>
        <time>2026-08-11T12:52:18.000Z</time>
      </trkpt>
      <trkpt lat="45.64778" lon="0.49791">
        <ele>155.1</ele>
        <time>2026-08-11T12:52:23.000Z</time>
      </trkpt>
      <trkpt lat="45.64772" lon="0.49777">
        <ele>155.2</ele>
        <time>2026-08-11T12:52:25.000Z</time>
      </trkpt>
      <trkpt lat="45.6476" lon="0.49745">
        <ele>154.1</ele>
        <time>2026-08-11T12:52:29.000Z</time>
      </trkpt>
      <trkpt lat="45.64756" lon="0.49726">
        <ele>152.4</ele>
        <time>2026-08-11T12:52:31.000Z</time>
      </trkpt>
      <trkpt lat="45.64748" lon="0.49696">
        <ele>152.6</ele>
        <time>2026-08-11T12:52:34.000Z</time>
      </trkpt>
      <trkpt lat="45.64741" lon="0.49665">
        <ele>150</ele>
        <time>2026-08-11T12:52:37.000Z</time>
      </trkpt>
      <trkpt lat="45.64734" lon="0.49634">
        <ele>147.7</ele>
        <time>2026-08-11T12:52:40.000Z</time>
      </trkpt>
      <trkpt lat="45.64728" lon="0.4959">
        <ele>147.3</ele>
        <time>2026-08-11T12:52:44.000Z</time>
      </trkpt>
      <trkpt lat="45.64728" lon="0.49578">
        <ele>146.5</ele>
        <time>2026-08-11T12:52:45.000Z</time>
      </trkpt>
      <trkpt lat="45.64728" lon="0.49565">
        <ele>145.5</ele>
        <time>2026-08-11T12:52:46.000Z</time>
      </trkpt>
      <trkpt lat="45.6473" lon="0.49541">
        <ele>143.5</ele>
        <time>2026-08-11T12:52:48.000Z</time>
      </trkpt>
      <trkpt lat="45.64731" lon="0.49529">
        <ele>142.4</ele>
        <time>2026-08-11T12:52:49.000Z</time>
      </trkpt>
      <trkpt lat="45.64736" lon="0.49479">
        <ele>141.6</ele>
        <time>2026-08-11T12:52:53.000Z</time>
      </trkpt>
      <trkpt lat="45.64739" lon="0.4944">
        <ele>142</ele>
        <time>2026-08-11T12:52:56.000Z</time>
      </trkpt>
      <trkpt lat="45.64738" lon="0.49403">
        <ele>141.6</ele>
        <time>2026-08-11T12:52:59.000Z</time>
      </trkpt>
      <trkpt lat="45.64735" lon="0.4938">
        <ele>142.1</ele>
        <time>2026-08-11T12:53:01.000Z</time>
      </trkpt>
      <trkpt lat="45.64734" lon="0.4937">
        <ele>142.5</ele>
        <time>2026-08-11T12:53:02.000Z</time>
      </trkpt>
      <trkpt lat="45.6473" lon="0.49352">
        <ele>142.3</ele>
        <time>2026-08-11T12:53:04.000Z</time>
      </trkpt>
      <trkpt lat="45.64725" lon="0.49336">
        <ele>141.1</ele>
        <time>2026-08-11T12:53:06.000Z</time>
      </trkpt>
      <trkpt lat="45.6472" lon="0.49321">
        <ele>141</ele>
        <time>2026-08-11T12:53:08.000Z</time>
      </trkpt>
      <trkpt lat="45.64709" lon="0.49294">
        <ele>140.3</ele>
        <time>2026-08-11T12:53:11.000Z</time>
      </trkpt>
      <trkpt lat="45.64705" lon="0.49285">
        <ele>139.7</ele>
        <time>2026-08-11T12:53:12.000Z</time>
      </trkpt>
      <trkpt lat="45.64683" lon="0.49234">
        <ele>136.4</ele>
        <time>2026-08-11T12:53:17.000Z</time>
      </trkpt>
      <trkpt lat="45.64678" lon="0.49224">
        <ele>136.2</ele>
        <time>2026-08-11T12:53:18.000Z</time>
      </trkpt>
      <trkpt lat="45.64661" lon="0.49185">
        <ele>136.8</ele>
        <time>2026-08-11T12:53:22.000Z</time>
      </trkpt>
      <trkpt lat="45.64649" lon="0.49157">
        <ele>136.2</ele>
        <time>2026-08-11T12:53:25.000Z</time>
      </trkpt>
      <trkpt lat="45.64625" lon="0.49106">
        <ele>136.3</ele>
        <time>2026-08-11T12:53:31.000Z</time>
      </trkpt>
      <trkpt lat="45.64619" lon="0.49093">
        <ele>137.7</ele>
        <time>2026-08-11T12:53:33.000Z</time>
      </trkpt>
      <trkpt lat="45.64614" lon="0.49082">
        <ele>138.8</ele>
        <time>2026-08-11T12:53:35.000Z</time>
      </trkpt>
      <trkpt lat="45.64605" lon="0.4906">
        <ele>140</ele>
        <time>2026-08-11T12:53:40.000Z</time>
      </trkpt>
      <trkpt lat="45.64598" lon="0.49045">
        <ele>140.7</ele>
        <time>2026-08-11T12:53:45.000Z</time>
      </trkpt>
      <trkpt lat="45.64593" lon="0.49033">
        <ele>140.9</ele>
        <time>2026-08-11T12:53:49.000Z</time>
      </trkpt>
      <trkpt lat="45.6459" lon="0.49028">
        <ele>141</ele>
        <time>2026-08-11T12:53:51.000Z</time>
      </trkpt>
      <trkpt lat="45.64579" lon="0.49003">
        <ele>141.9</ele>
        <time>2026-08-11T12:54:00.000Z</time>
      </trkpt>
      <trkpt lat="45.64575" lon="0.48993">
        <ele>142.1</ele>
        <time>2026-08-11T12:54:04.000Z</time>
      </trkpt>
      <trkpt lat="45.64568" lon="0.4898">
        <ele>142.4</ele>
        <time>2026-08-11T12:54:09.000Z</time>
      </trkpt>
      <trkpt lat="45.64563" lon="0.4897">
        <ele>142.8</ele>
        <time>2026-08-11T12:54:12.000Z</time>
      </trkpt>
      <trkpt lat="45.64555" lon="0.48953">
        <ele>143.7</ele>
        <time>2026-08-11T12:54:17.000Z</time>
      </trkpt>
      <trkpt lat="45.64548" lon="0.48935">
        <ele>144.1</ele>
        <time>2026-08-11T12:54:23.000Z</time>
      </trkpt>
      <trkpt lat="45.64545" lon="0.48928">
        <ele>144.2</ele>
        <time>2026-08-11T12:54:25.000Z</time>
      </trkpt>
      <trkpt lat="45.64539" lon="0.48914">
        <ele>144.7</ele>
        <time>2026-08-11T12:54:30.000Z</time>
      </trkpt>
      <trkpt lat="45.64538" lon="0.48912">
        <ele>144.8</ele>
        <time>2026-08-11T12:54:31.000Z</time>
      </trkpt>
      <trkpt lat="45.64528" lon="0.48891">
        <ele>146.9</ele>
        <time>2026-08-11T12:54:39.000Z</time>
      </trkpt>
      <trkpt lat="45.64526" lon="0.48888">
        <ele>147</ele>
        <time>2026-08-11T12:54:40.000Z</time>
      </trkpt>
      <trkpt lat="45.64516" lon="0.48866">
        <ele>147.4</ele>
        <time>2026-08-11T12:54:48.000Z</time>
      </trkpt>
      <trkpt lat="45.64514" lon="0.48863">
        <ele>147.5</ele>
        <time>2026-08-11T12:54:49.000Z</time>
      </trkpt>
      <trkpt lat="45.64505" lon="0.48841">
        <ele>149.2</ele>
        <time>2026-08-11T12:54:57.000Z</time>
      </trkpt>
      <trkpt lat="45.64502" lon="0.48835">
        <ele>149.7</ele>
        <time>2026-08-11T12:54:59.000Z</time>
      </trkpt>
      <trkpt lat="45.64494" lon="0.48818">
        <ele>150.7</ele>
        <time>2026-08-11T12:55:06.000Z</time>
      </trkpt>
      <trkpt lat="45.64492" lon="0.48813">
        <ele>150.9</ele>
        <time>2026-08-11T12:55:08.000Z</time>
      </trkpt>
      <trkpt lat="45.64485" lon="0.48797">
        <ele>151.8</ele>
        <time>2026-08-11T12:55:15.000Z</time>
      </trkpt>
      <trkpt lat="45.64484" lon="0.48792">
        <ele>152</ele>
        <time>2026-08-11T12:55:17.000Z</time>
      </trkpt>
      <trkpt lat="45.64483" lon="0.48789">
        <ele>152.1</ele>
        <time>2026-08-11T12:55:18.000Z</time>
      </trkpt>
      <trkpt lat="45.6448" lon="0.48784">
        <ele>152.2</ele>
        <time>2026-08-11T12:55:20.000Z</time>
      </trkpt>
      <trkpt lat="45.6447" lon="0.48762">
        <ele>153.2</ele>
        <time>2026-08-11T12:55:28.000Z</time>
      </trkpt>
      <trkpt lat="45.64463" lon="0.48746">
        <ele>154.4</ele>
        <time>2026-08-11T12:55:34.000Z</time>
      </trkpt>
      <trkpt lat="45.64461" lon="0.4874">
        <ele>154.6</ele>
        <time>2026-08-11T12:55:36.000Z</time>
      </trkpt>
      <trkpt lat="45.64452" lon="0.48721">
        <ele>155</ele>
        <time>2026-08-11T12:55:43.000Z</time>
      </trkpt>
      <trkpt lat="45.64447" lon="0.4871">
        <ele>155.4</ele>
        <time>2026-08-11T12:55:47.000Z</time>
      </trkpt>
      <trkpt lat="45.64438" lon="0.48691">
        <ele>156.5</ele>
        <time>2026-08-11T12:55:54.000Z</time>
      </trkpt>
      <trkpt lat="45.64436" lon="0.48687">
        <ele>156.7</ele>
        <time>2026-08-11T12:55:56.000Z</time>
      </trkpt>
      <trkpt lat="45.64433" lon="0.48679">
        <ele>156.9</ele>
        <time>2026-08-11T12:55:59.000Z</time>
      </trkpt>
      <trkpt lat="45.64431" lon="0.48674">
        <ele>157</ele>
        <time>2026-08-11T12:56:01.000Z</time>
      </trkpt>
      <trkpt lat="45.64428" lon="0.48669">
        <ele>157</ele>
        <time>2026-08-11T12:56:03.000Z</time>
      </trkpt>
      <trkpt lat="45.64419" lon="0.4865">
        <ele>157</ele>
        <time>2026-08-11T12:56:10.000Z</time>
      </trkpt>
      <trkpt lat="45.64418" lon="0.48647">
        <ele>157</ele>
        <time>2026-08-11T12:56:11.000Z</time>
      </trkpt>
      <trkpt lat="45.64405" lon="0.48623">
        <ele>156.4</ele>
        <time>2026-08-11T12:56:18.000Z</time>
      </trkpt>
      <trkpt lat="45.64395" lon="0.48597">
        <ele>155.9</ele>
        <time>2026-08-11T12:56:24.000Z</time>
      </trkpt>
      <trkpt lat="45.64392" lon="0.48593">
        <ele>155.9</ele>
        <time>2026-08-11T12:56:25.000Z</time>
      </trkpt>
      <trkpt lat="45.64373" lon="0.48554">
        <ele>154.3</ele>
        <time>2026-08-11T12:56:33.000Z</time>
      </trkpt>
      <trkpt lat="45.64362" lon="0.48529">
        <ele>157.8</ele>
        <time>2026-08-11T12:56:39.000Z</time>
      </trkpt>
      <trkpt lat="45.64353" lon="0.48507">
        <ele>158</ele>
        <time>2026-08-11T12:56:46.000Z</time>
      </trkpt>
      <trkpt lat="45.64349" lon="0.485">
        <ele>158.3</ele>
        <time>2026-08-11T12:56:49.000Z</time>
      </trkpt>
      <trkpt lat="45.64345" lon="0.48492">
        <ele>158.9</ele>
        <time>2026-08-11T12:56:53.000Z</time>
      </trkpt>
      <trkpt lat="45.64343" lon="0.48489">
        <ele>159</ele>
        <time>2026-08-11T12:56:54.000Z</time>
      </trkpt>
      <trkpt lat="45.64333" lon="0.48468">
        <ele>160.8</ele>
        <time>2026-08-11T12:57:03.000Z</time>
      </trkpt>
      <trkpt lat="45.64331" lon="0.48466">
        <ele>160.8</ele>
        <time>2026-08-11T12:57:04.000Z</time>
      </trkpt>
      <trkpt lat="45.64316" lon="0.48451">
        <ele>161.4</ele>
        <time>2026-08-11T12:57:12.000Z</time>
      </trkpt>
      <trkpt lat="45.64308" lon="0.48445">
        <ele>161.8</ele>
        <time>2026-08-11T12:57:16.000Z</time>
      </trkpt>
      <trkpt lat="45.64296" lon="0.48439">
        <ele>162.6</ele>
        <time>2026-08-11T12:57:21.000Z</time>
      </trkpt>
      <trkpt lat="45.64287" lon="0.48436">
        <ele>163.4</ele>
        <time>2026-08-11T12:57:25.000Z</time>
      </trkpt>
      <trkpt lat="45.64279" lon="0.48434">
        <ele>164.1</ele>
        <time>2026-08-11T12:57:29.000Z</time>
      </trkpt>
      <trkpt lat="45.64272" lon="0.48433">
        <ele>164.5</ele>
        <time>2026-08-11T12:57:33.000Z</time>
      </trkpt>
      <trkpt lat="45.64263" lon="0.48433">
        <ele>164.9</ele>
        <time>2026-08-11T12:57:38.000Z</time>
      </trkpt>
      <trkpt lat="45.64249" lon="0.48433">
        <ele>165.7</ele>
        <time>2026-08-11T12:57:45.000Z</time>
      </trkpt>
      <trkpt lat="45.64243" lon="0.48433">
        <ele>166</ele>
        <time>2026-08-11T12:57:48.000Z</time>
      </trkpt>
      <trkpt lat="45.64238" lon="0.48433">
        <ele>166.2</ele>
        <time>2026-08-11T12:57:50.000Z</time>
      </trkpt>
      <trkpt lat="45.64227" lon="0.48434">
        <ele>166.8</ele>
        <time>2026-08-11T12:57:56.000Z</time>
      </trkpt>
      <trkpt lat="45.64214" lon="0.48434">
        <ele>167.2</ele>
        <time>2026-08-11T12:58:02.000Z</time>
      </trkpt>
      <trkpt lat="45.64208" lon="0.48435">
        <ele>167.4</ele>
        <time>2026-08-11T12:58:05.000Z</time>
      </trkpt>
      <trkpt lat="45.64195" lon="0.48437">
        <ele>167.7</ele>
        <time>2026-08-11T12:58:12.000Z</time>
      </trkpt>
      <trkpt lat="45.6419" lon="0.48437">
        <ele>168</ele>
        <time>2026-08-11T12:58:15.000Z</time>
      </trkpt>
      <trkpt lat="45.6417" lon="0.4844">
        <ele>169.5</ele>
        <time>2026-08-11T12:58:25.000Z</time>
      </trkpt>
      <trkpt lat="45.64152" lon="0.48441">
        <ele>170.3</ele>
        <time>2026-08-11T12:58:34.000Z</time>
      </trkpt>
      <trkpt lat="45.64148" lon="0.48442">
        <ele>170.5</ele>
        <time>2026-08-11T12:58:36.000Z</time>
      </trkpt>
      <trkpt lat="45.64135" lon="0.48443">
        <ele>171</ele>
        <time>2026-08-11T12:58:42.000Z</time>
      </trkpt>
      <trkpt lat="45.64127" lon="0.48444">
        <ele>171.4</ele>
        <time>2026-08-11T12:58:46.000Z</time>
      </trkpt>
      <trkpt lat="45.64108" lon="0.48446">
        <ele>172.3</ele>
        <time>2026-08-11T12:58:54.000Z</time>
      </trkpt>
      <trkpt lat="45.64085" lon="0.48449">
        <ele>173.3</ele>
        <time>2026-08-11T12:59:04.000Z</time>
      </trkpt>
      <trkpt lat="45.64083" lon="0.48449">
        <ele>173.4</ele>
        <time>2026-08-11T12:59:05.000Z</time>
      </trkpt>
      <trkpt lat="45.6406" lon="0.48452">
        <ele>174.4</ele>
        <time>2026-08-11T12:59:15.000Z</time>
      </trkpt>
      <trkpt lat="45.64043" lon="0.48453">
        <ele>174.8</ele>
        <time>2026-08-11T12:59:23.000Z</time>
      </trkpt>
      <trkpt lat="45.64021" lon="0.48455">
        <ele>175.2</ele>
        <time>2026-08-11T12:59:33.000Z</time>
      </trkpt>
      <trkpt lat="45.64014" lon="0.48455">
        <ele>175.2</ele>
        <time>2026-08-11T12:59:36.000Z</time>
      </trkpt>
      <trkpt lat="45.64002" lon="0.48457">
        <ele>175.3</ele>
        <time>2026-08-11T12:59:42.000Z</time>
      </trkpt>
      <trkpt lat="45.63982" lon="0.48458">
        <ele>175.8</ele>
        <time>2026-08-11T12:59:51.000Z</time>
      </trkpt>
      <trkpt lat="45.63967" lon="0.48459">
        <ele>176.3</ele>
        <time>2026-08-11T12:59:58.000Z</time>
      </trkpt>
      <trkpt lat="45.63955" lon="0.48459">
        <ele>176.7</ele>
        <time>2026-08-11T13:00:03.000Z</time>
      </trkpt>
      <trkpt lat="45.63932" lon="0.48457">
        <ele>177.3</ele>
        <time>2026-08-11T13:00:13.000Z</time>
      </trkpt>
      <trkpt lat="45.63919" lon="0.48454">
        <ele>177.6</ele>
        <time>2026-08-11T13:00:19.000Z</time>
      </trkpt>
      <trkpt lat="45.63907" lon="0.48451">
        <ele>178.1</ele>
        <time>2026-08-11T13:00:24.000Z</time>
      </trkpt>
      <trkpt lat="45.63904" lon="0.48449">
        <ele>178.2</ele>
        <time>2026-08-11T13:00:25.000Z</time>
      </trkpt>
      <trkpt lat="45.63893" lon="0.48444">
        <ele>178.6</ele>
        <time>2026-08-11T13:00:29.000Z</time>
      </trkpt>
      <trkpt lat="45.6388" lon="0.48436">
        <ele>178.5</ele>
        <time>2026-08-11T13:00:34.000Z</time>
      </trkpt>
      <trkpt lat="45.63858" lon="0.48416">
        <ele>178.1</ele>
        <time>2026-08-11T13:00:42.000Z</time>
      </trkpt>
      <trkpt lat="45.63838" lon="0.48387">
        <ele>178.6</ele>
        <time>2026-08-11T13:00:50.000Z</time>
      </trkpt>
      <trkpt lat="45.63819" lon="0.48345">
        <ele>178</ele>
        <time>2026-08-11T13:00:59.000Z</time>
      </trkpt>
      <trkpt lat="45.63805" lon="0.48307">
        <ele>178.9</ele>
        <time>2026-08-11T13:01:08.000Z</time>
      </trkpt>
      <trkpt lat="45.63803" lon="0.48303">
        <ele>179</ele>
        <time>2026-08-11T13:01:09.000Z</time>
      </trkpt>
      <trkpt lat="45.63792" lon="0.48268">
        <ele>179.8</ele>
        <time>2026-08-11T13:01:18.000Z</time>
      </trkpt>
      <trkpt lat="45.63783" lon="0.48245">
        <ele>181</ele>
        <time>2026-08-11T13:01:24.000Z</time>
      </trkpt>
      <trkpt lat="45.63778" lon="0.48233">
        <ele>181.6</ele>
        <time>2026-08-11T13:01:28.000Z</time>
      </trkpt>
      <trkpt lat="45.63767" lon="0.48204">
        <ele>182.3</ele>
        <time>2026-08-11T13:01:37.000Z</time>
      </trkpt>
      <trkpt lat="45.63759" lon="0.48181">
        <ele>183.1</ele>
        <time>2026-08-11T13:01:44.000Z</time>
      </trkpt>
      <trkpt lat="45.63756" lon="0.48171">
        <ele>183.7</ele>
        <time>2026-08-11T13:01:47.000Z</time>
      </trkpt>
      <trkpt lat="45.63749" lon="0.48154">
        <ele>184.9</ele>
        <time>2026-08-11T13:01:53.000Z</time>
      </trkpt>
      <trkpt lat="45.63746" lon="0.48142">
        <ele>185.6</ele>
        <time>2026-08-11T13:01:57.000Z</time>
      </trkpt>
      <trkpt lat="45.63743" lon="0.48134">
        <ele>186</ele>
        <time>2026-08-11T13:02:00.000Z</time>
      </trkpt>
      <trkpt lat="45.63734" lon="0.4811">
        <ele>187.1</ele>
        <time>2026-08-11T13:02:09.000Z</time>
      </trkpt>
      <trkpt lat="45.63733" lon="0.48107">
        <ele>187.2</ele>
        <time>2026-08-11T13:02:10.000Z</time>
      </trkpt>
      <trkpt lat="45.63725" lon="0.48086">
        <ele>188</ele>
        <time>2026-08-11T13:02:18.000Z</time>
      </trkpt>
      <trkpt lat="45.63723" lon="0.48081">
        <ele>188.2</ele>
        <time>2026-08-11T13:02:20.000Z</time>
      </trkpt>
      <trkpt lat="45.63714" lon="0.48056">
        <ele>189.7</ele>
        <time>2026-08-11T13:02:29.000Z</time>
      </trkpt>
      <trkpt lat="45.63713" lon="0.48053">
        <ele>189.8</ele>
        <time>2026-08-11T13:02:30.000Z</time>
      </trkpt>
      <trkpt lat="45.6371" lon="0.48043">
        <ele>190</ele>
        <time>2026-08-11T13:02:34.000Z</time>
      </trkpt>
      <trkpt lat="45.63709" lon="0.4804">
        <ele>190.1</ele>
        <time>2026-08-11T13:02:35.000Z</time>
      </trkpt>
      <trkpt lat="45.63704" lon="0.48024">
        <ele>190.3</ele>
        <time>2026-08-11T13:02:40.000Z</time>
      </trkpt>
      <trkpt lat="45.63695" lon="0.48004">
        <ele>189.2</ele>
        <time>2026-08-11T13:02:46.000Z</time>
      </trkpt>
      <trkpt lat="45.63688" lon="0.47987">
        <ele>189</ele>
        <time>2026-08-11T13:02:51.000Z</time>
      </trkpt>
      <trkpt lat="45.63688" lon="0.47984">
        <ele>189</ele>
        <time>2026-08-11T13:02:52.000Z</time>
      </trkpt>
      <trkpt lat="45.6368" lon="0.47976">
        <ele>189</ele>
        <time>2026-08-11T13:02:57.000Z</time>
      </trkpt>
      <trkpt lat="45.63679" lon="0.47975">
        <ele>189</ele>
        <time>2026-08-11T13:03:02.000Z</time>
      </trkpt>
      <trkpt lat="45.63679" lon="0.47964">
        <ele>189</ele>
        <time>2026-08-11T13:14:17.000Z</time>
      </trkpt>
      <trkpt lat="45.6368" lon="0.47958">
        <ele>189</ele>
        <time>2026-08-11T13:14:19.000Z</time>
      </trkpt>
      <trkpt lat="45.63679" lon="0.47955">
        <ele>189</ele>
        <time>2026-08-11T13:14:20.000Z</time>
      </trkpt>
      <trkpt lat="45.63671" lon="0.47931">
        <ele>188.5</ele>
        <time>2026-08-11T13:14:27.000Z</time>
      </trkpt>
      <trkpt lat="45.6366" lon="0.47906">
        <ele>187.9</ele>
        <time>2026-08-11T13:14:33.000Z</time>
      </trkpt>
      <trkpt lat="45.63651" lon="0.47877">
        <ele>188.1</ele>
        <time>2026-08-11T13:14:39.000Z</time>
      </trkpt>
      <trkpt lat="45.63649" lon="0.47873">
        <ele>188.2</ele>
        <time>2026-08-11T13:14:40.000Z</time>
      </trkpt>
      <trkpt lat="45.63636" lon="0.47837">
        <ele>189</ele>
        <time>2026-08-11T13:14:49.000Z</time>
      </trkpt>
      <trkpt lat="45.63623" lon="0.478">
        <ele>189.8</ele>
        <time>2026-08-11T13:14:59.000Z</time>
      </trkpt>
      <trkpt lat="45.6362" lon="0.47793">
        <ele>190.1</ele>
        <time>2026-08-11T13:15:01.000Z</time>
      </trkpt>
      <trkpt lat="45.63615" lon="0.47777">
        <ele>190.9</ele>
        <time>2026-08-11T13:15:06.000Z</time>
      </trkpt>
      <trkpt lat="45.63606" lon="0.47754">
        <ele>192</ele>
        <time>2026-08-11T13:15:12.000Z</time>
      </trkpt>
      <trkpt lat="45.63603" lon="0.47746">
        <ele>192.4</ele>
        <time>2026-08-11T13:15:14.000Z</time>
      </trkpt>
      <trkpt lat="45.63592" lon="0.47716">
        <ele>193.2</ele>
        <time>2026-08-11T13:15:22.000Z</time>
      </trkpt>
      <trkpt lat="45.6359" lon="0.47713">
        <ele>193.3</ele>
        <time>2026-08-11T13:15:23.000Z</time>
      </trkpt>
      <trkpt lat="45.63589" lon="0.47709">
        <ele>193.4</ele>
        <time>2026-08-11T13:15:24.000Z</time>
      </trkpt>
      <trkpt lat="45.63578" lon="0.47684">
        <ele>194.4</ele>
        <time>2026-08-11T13:15:31.000Z</time>
      </trkpt>
      <trkpt lat="45.63576" lon="0.4768">
        <ele>194.5</ele>
        <time>2026-08-11T13:15:32.000Z</time>
      </trkpt>
      <trkpt lat="45.63567" lon="0.47662">
        <ele>195</ele>
        <time>2026-08-11T13:15:37.000Z</time>
      </trkpt>
      <trkpt lat="45.63558" lon="0.47645">
        <ele>195</ele>
        <time>2026-08-11T13:15:42.000Z</time>
      </trkpt>
      <trkpt lat="45.63545" lon="0.4762">
        <ele>195.4</ele>
        <time>2026-08-11T13:15:48.000Z</time>
      </trkpt>
      <trkpt lat="45.63525" lon="0.47581">
        <ele>193.8</ele>
        <time>2026-08-11T13:15:55.000Z</time>
      </trkpt>
      <trkpt lat="45.63501" lon="0.47535">
        <ele>193</ele>
        <time>2026-08-11T13:16:02.000Z</time>
      </trkpt>
      <trkpt lat="45.6348" lon="0.47494">
        <ele>191.6</ele>
        <time>2026-08-11T13:16:08.000Z</time>
      </trkpt>
      <trkpt lat="45.63469" lon="0.47474">
        <ele>190.9</ele>
        <time>2026-08-11T13:16:11.000Z</time>
      </trkpt>
      <trkpt lat="45.63462" lon="0.47459">
        <ele>190.6</ele>
        <time>2026-08-11T13:16:13.000Z</time>
      </trkpt>
      <trkpt lat="45.63446" lon="0.4743">
        <ele>190.1</ele>
        <time>2026-08-11T13:16:17.000Z</time>
      </trkpt>
      <trkpt lat="45.63439" lon="0.47415">
        <ele>189.7</ele>
        <time>2026-08-11T13:16:19.000Z</time>
      </trkpt>
      <trkpt lat="45.63408" lon="0.47356">
        <ele>187.5</ele>
        <time>2026-08-11T13:16:27.000Z</time>
      </trkpt>
      <trkpt lat="45.63404" lon="0.47348">
        <ele>187.1</ele>
        <time>2026-08-11T13:16:28.000Z</time>
      </trkpt>
      <trkpt lat="45.63386" lon="0.47313">
        <ele>185.2</ele>
        <time>2026-08-11T13:16:32.000Z</time>
      </trkpt>
      <trkpt lat="45.63372" lon="0.47286">
        <ele>184.4</ele>
        <time>2026-08-11T13:16:35.000Z</time>
      </trkpt>
      <trkpt lat="45.63367" lon="0.47276">
        <ele>184.2</ele>
        <time>2026-08-11T13:16:36.000Z</time>
      </trkpt>
      <trkpt lat="45.63348" lon="0.4724">
        <ele>183.3</ele>
        <time>2026-08-11T13:16:40.000Z</time>
      </trkpt>
      <trkpt lat="45.63326" lon="0.47195">
        <ele>182.7</ele>
        <time>2026-08-11T13:16:45.000Z</time>
      </trkpt>
      <trkpt lat="45.63301" lon="0.47148">
        <ele>182.9</ele>
        <time>2026-08-11T13:16:51.000Z</time>
      </trkpt>
      <trkpt lat="45.63291" lon="0.47126">
        <ele>182.7</ele>
        <time>2026-08-11T13:16:54.000Z</time>
      </trkpt>
      <trkpt lat="45.63273" lon="0.47093">
        <ele>183.7</ele>
        <time>2026-08-11T13:16:59.000Z</time>
      </trkpt>
      <trkpt lat="45.63249" lon="0.47057">
        <ele>184.9</ele>
        <time>2026-08-11T13:17:06.000Z</time>
      </trkpt>
      <trkpt lat="45.63239" lon="0.47046">
        <ele>184.7</ele>
        <time>2026-08-11T13:17:09.000Z</time>
      </trkpt>
      <trkpt lat="45.63231" lon="0.47041">
        <ele>184.7</ele>
        <time>2026-08-11T13:17:11.000Z</time>
      </trkpt>
      <trkpt lat="45.63227" lon="0.47038">
        <ele>184.7</ele>
        <time>2026-08-11T13:17:12.000Z</time>
      </trkpt>
      <trkpt lat="45.63223" lon="0.47036">
        <ele>184.7</ele>
        <time>2026-08-11T13:17:13.000Z</time>
      </trkpt>
      <trkpt lat="45.63198" lon="0.47027">
        <ele>185</ele>
        <time>2026-08-11T13:17:19.000Z</time>
      </trkpt>
      <trkpt lat="45.6318" lon="0.47025">
        <ele>185.1</ele>
        <time>2026-08-11T13:17:23.000Z</time>
      </trkpt>
      <trkpt lat="45.63171" lon="0.47025">
        <ele>185.1</ele>
        <time>2026-08-11T13:17:25.000Z</time>
      </trkpt>
      <trkpt lat="45.63167" lon="0.47025">
        <ele>185.1</ele>
        <time>2026-08-11T13:17:26.000Z</time>
      </trkpt>
      <trkpt lat="45.63162" lon="0.47025">
        <ele>185.1</ele>
        <time>2026-08-11T13:17:27.000Z</time>
      </trkpt>
      <trkpt lat="45.63137" lon="0.47026">
        <ele>184.9</ele>
        <time>2026-08-11T13:17:32.000Z</time>
      </trkpt>
      <trkpt lat="45.63099" lon="0.47021">
        <ele>183.6</ele>
        <time>2026-08-11T13:17:39.000Z</time>
      </trkpt>
      <trkpt lat="45.63083" lon="0.47012">
        <ele>183</ele>
        <time>2026-08-11T13:17:42.000Z</time>
      </trkpt>
      <trkpt lat="45.63072" lon="0.47003">
        <ele>182.6</ele>
        <time>2026-08-11T13:17:44.000Z</time>
      </trkpt>
      <trkpt lat="45.63047" lon="0.46971">
        <ele>181.7</ele>
        <time>2026-08-11T13:17:49.000Z</time>
      </trkpt>
      <trkpt lat="45.63041" lon="0.46962">
        <ele>181.3</ele>
        <time>2026-08-11T13:17:50.000Z</time>
      </trkpt>
      <trkpt lat="45.63017" lon="0.46923">
        <ele>178.8</ele>
        <time>2026-08-11T13:17:55.000Z</time>
      </trkpt>
      <trkpt lat="45.63012" lon="0.46915">
        <ele>178.4</ele>
        <time>2026-08-11T13:17:56.000Z</time>
      </trkpt>
      <trkpt lat="45.63003" lon="0.46898">
        <ele>178.6</ele>
        <time>2026-08-11T13:17:58.000Z</time>
      </trkpt>
      <trkpt lat="45.62993" lon="0.46881">
        <ele>178.3</ele>
        <time>2026-08-11T13:18:00.000Z</time>
      </trkpt>
      <trkpt lat="45.62978" lon="0.46857">
        <ele>177.8</ele>
        <time>2026-08-11T13:18:03.000Z</time>
      </trkpt>
      <trkpt lat="45.62954" lon="0.46818">
        <ele>175.8</ele>
        <time>2026-08-11T13:18:08.000Z</time>
      </trkpt>
      <trkpt lat="45.62944" lon="0.46803">
        <ele>175.1</ele>
        <time>2026-08-11T13:18:10.000Z</time>
      </trkpt>
      <trkpt lat="45.62934" lon="0.46787">
        <ele>174.3</ele>
        <time>2026-08-11T13:18:12.000Z</time>
      </trkpt>
      <trkpt lat="45.62914" lon="0.46754">
        <ele>173.4</ele>
        <time>2026-08-11T13:18:16.000Z</time>
      </trkpt>
      <trkpt lat="45.62903" lon="0.46737">
        <ele>172.6</ele>
        <time>2026-08-11T13:18:18.000Z</time>
      </trkpt>
      <trkpt lat="45.62898" lon="0.46729">
        <ele>172.1</ele>
        <time>2026-08-11T13:18:19.000Z</time>
      </trkpt>
      <trkpt lat="45.62882" lon="0.46704">
        <ele>170.6</ele>
        <time>2026-08-11T13:18:22.000Z</time>
      </trkpt>
      <trkpt lat="45.62864" lon="0.4668">
        <ele>169.5</ele>
        <time>2026-08-11T13:18:25.000Z</time>
      </trkpt>
      <trkpt lat="45.62844" lon="0.4666">
        <ele>167.9</ele>
        <time>2026-08-11T13:18:28.000Z</time>
      </trkpt>
      <trkpt lat="45.62822" lon="0.46645">
        <ele>166.7</ele>
        <time>2026-08-11T13:18:31.000Z</time>
      </trkpt>
      <trkpt lat="45.62798" lon="0.4663">
        <ele>166.4</ele>
        <time>2026-08-11T13:18:34.000Z</time>
      </trkpt>
      <trkpt lat="45.62776" lon="0.46619">
        <ele>166</ele>
        <time>2026-08-11T13:18:37.000Z</time>
      </trkpt>
      <trkpt lat="45.62762" lon="0.46611">
        <ele>165.3</ele>
        <time>2026-08-11T13:18:39.000Z</time>
      </trkpt>
      <trkpt lat="45.62736" lon="0.46598">
        <ele>163.4</ele>
        <time>2026-08-11T13:18:43.000Z</time>
      </trkpt>
      <trkpt lat="45.6273" lon="0.46594">
        <ele>163</ele>
        <time>2026-08-11T13:18:44.000Z</time>
      </trkpt>
      <trkpt lat="45.62701" lon="0.46577">
        <ele>161.8</ele>
        <time>2026-08-11T13:18:48.000Z</time>
      </trkpt>
      <trkpt lat="45.62687" lon="0.46567">
        <ele>160.8</ele>
        <time>2026-08-11T13:18:50.000Z</time>
      </trkpt>
      <trkpt lat="45.62673" lon="0.46555">
        <ele>159.6</ele>
        <time>2026-08-11T13:18:52.000Z</time>
      </trkpt>
      <trkpt lat="45.6266" lon="0.46539">
        <ele>158.5</ele>
        <time>2026-08-11T13:18:54.000Z</time>
      </trkpt>
      <trkpt lat="45.62655" lon="0.4653">
        <ele>158.2</ele>
        <time>2026-08-11T13:18:55.000Z</time>
      </trkpt>
      <trkpt lat="45.62649" lon="0.46509">
        <ele>157.7</ele>
        <time>2026-08-11T13:18:57.000Z</time>
      </trkpt>
      <trkpt lat="45.62649" lon="0.46498">
        <ele>157.7</ele>
        <time>2026-08-11T13:18:58.000Z</time>
      </trkpt>
      <trkpt lat="45.6265" lon="0.46478">
        <ele>157</ele>
        <time>2026-08-11T13:19:00.000Z</time>
      </trkpt>
      <trkpt lat="45.62652" lon="0.46468">
        <ele>156.7</ele>
        <time>2026-08-11T13:19:01.000Z</time>
      </trkpt>
      <trkpt lat="45.62664" lon="0.46423">
        <ele>155.9</ele>
        <time>2026-08-11T13:19:05.000Z</time>
      </trkpt>
      <trkpt lat="45.62671" lon="0.46401">
        <ele>155.7</ele>
        <time>2026-08-11T13:19:07.000Z</time>
      </trkpt>
      <trkpt lat="45.62681" lon="0.46361">
        <ele>154.5</ele>
        <time>2026-08-11T13:19:11.000Z</time>
      </trkpt>
      <trkpt lat="45.62683" lon="0.46351">
        <ele>154.4</ele>
        <time>2026-08-11T13:19:12.000Z</time>
      </trkpt>
      <trkpt lat="45.62694" lon="0.46308">
        <ele>153.1</ele>
        <time>2026-08-11T13:19:16.000Z</time>
      </trkpt>
      <trkpt lat="45.62696" lon="0.46298">
        <ele>152.8</ele>
        <time>2026-08-11T13:19:17.000Z</time>
      </trkpt>
      <trkpt lat="45.62708" lon="0.46248">
        <ele>151.9</ele>
        <time>2026-08-11T13:19:22.000Z</time>
      </trkpt>
      <trkpt lat="45.62715" lon="0.46199">
        <ele>150.2</ele>
        <time>2026-08-11T13:19:26.000Z</time>
      </trkpt>
      <trkpt lat="45.62716" lon="0.46187">
        <ele>149.6</ele>
        <time>2026-08-11T13:19:27.000Z</time>
      </trkpt>
      <trkpt lat="45.62719" lon="0.46156">
        <ele>147.8</ele>
        <time>2026-08-11T13:19:30.000Z</time>
      </trkpt>
      <trkpt lat="45.62718" lon="0.46146">
        <ele>147.6</ele>
        <time>2026-08-11T13:19:31.000Z</time>
      </trkpt>
      <trkpt lat="45.62712" lon="0.46111">
        <ele>146.7</ele>
        <time>2026-08-11T13:19:34.000Z</time>
      </trkpt>
      <trkpt lat="45.62707" lon="0.46076">
        <ele>145.8</ele>
        <time>2026-08-11T13:19:37.000Z</time>
      </trkpt>
      <trkpt lat="45.62706" lon="0.46064">
        <ele>145.4</ele>
        <time>2026-08-11T13:19:38.000Z</time>
      </trkpt>
      <trkpt lat="45.62701" lon="0.46026">
        <ele>143.7</ele>
        <time>2026-08-11T13:19:41.000Z</time>
      </trkpt>
      <trkpt lat="45.62694" lon="0.4599">
        <ele>141.7</ele>
        <time>2026-08-11T13:19:44.000Z</time>
      </trkpt>
      <trkpt lat="45.62691" lon="0.45978">
        <ele>141.5</ele>
        <time>2026-08-11T13:19:45.000Z</time>
      </trkpt>
      <trkpt lat="45.62682" lon="0.45942">
        <ele>139.7</ele>
        <time>2026-08-11T13:19:48.000Z</time>
      </trkpt>
      <trkpt lat="45.62673" lon="0.45906">
        <ele>138.1</ele>
        <time>2026-08-11T13:19:51.000Z</time>
      </trkpt>
      <trkpt lat="45.62664" lon="0.45868">
        <ele>136</ele>
        <time>2026-08-11T13:19:54.000Z</time>
      </trkpt>
      <trkpt lat="45.62657" lon="0.45828">
        <ele>132.8</ele>
        <time>2026-08-11T13:19:57.000Z</time>
      </trkpt>
      <trkpt lat="45.62655" lon="0.458">
        <ele>131.5</ele>
        <time>2026-08-11T13:19:59.000Z</time>
      </trkpt>
      <trkpt lat="45.62654" lon="0.45786">
        <ele>131.5</ele>
        <time>2026-08-11T13:20:00.000Z</time>
      </trkpt>
      <trkpt lat="45.62654" lon="0.45745">
        <ele>132.2</ele>
        <time>2026-08-11T13:20:03.000Z</time>
      </trkpt>
      <trkpt lat="45.62655" lon="0.45719">
        <ele>132.2</ele>
        <time>2026-08-11T13:20:05.000Z</time>
      </trkpt>
      <trkpt lat="45.62656" lon="0.45694">
        <ele>131.9</ele>
        <time>2026-08-11T13:20:07.000Z</time>
      </trkpt>
      <trkpt lat="45.62659" lon="0.45643">
        <ele>131.2</ele>
        <time>2026-08-11T13:20:11.000Z</time>
      </trkpt>
      <trkpt lat="45.6266" lon="0.45631">
        <ele>131</ele>
        <time>2026-08-11T13:20:12.000Z</time>
      </trkpt>
      <trkpt lat="45.62662" lon="0.45585">
        <ele>129.6</ele>
        <time>2026-08-11T13:20:16.000Z</time>
      </trkpt>
      <trkpt lat="45.62662" lon="0.45565">
        <ele>128.7</ele>
        <time>2026-08-11T13:20:18.000Z</time>
      </trkpt>
      <trkpt lat="45.62661" lon="0.45554">
        <ele>128</ele>
        <time>2026-08-11T13:20:19.000Z</time>
      </trkpt>
      <trkpt lat="45.62659" lon="0.45543">
        <ele>127</ele>
        <time>2026-08-11T13:20:20.000Z</time>
      </trkpt>
      <trkpt lat="45.62652" lon="0.45522">
        <ele>126.3</ele>
        <time>2026-08-11T13:20:22.000Z</time>
      </trkpt>
      <trkpt lat="45.62643" lon="0.45506">
        <ele>128</ele>
        <time>2026-08-11T13:20:24.000Z</time>
      </trkpt>
      <trkpt lat="45.62635" lon="0.45494">
        <ele>129.3</ele>
        <time>2026-08-11T13:20:26.000Z</time>
      </trkpt>
      <trkpt lat="45.62612" lon="0.45473">
        <ele>130.9</ele>
        <time>2026-08-11T13:20:31.000Z</time>
      </trkpt>
      <trkpt lat="45.62593" lon="0.45458">
        <ele>131.7</ele>
        <time>2026-08-11T13:20:37.000Z</time>
      </trkpt>
      <trkpt lat="45.62582" lon="0.45448">
        <ele>132.5</ele>
        <time>2026-08-11T13:20:42.000Z</time>
      </trkpt>
      <trkpt lat="45.62581" lon="0.45446">
        <ele>132.6</ele>
        <time>2026-08-11T13:20:43.000Z</time>
      </trkpt>
      <trkpt lat="45.62569" lon="0.45436">
        <ele>132.7</ele>
        <time>2026-08-11T13:20:50.000Z</time>
      </trkpt>
      <trkpt lat="45.62566" lon="0.45433">
        <ele>132.8</ele>
        <time>2026-08-11T13:20:52.000Z</time>
      </trkpt>
      <trkpt lat="45.6255" lon="0.4542">
        <ele>133.7</ele>
        <time>2026-08-11T13:21:01.000Z</time>
      </trkpt>
      <trkpt lat="45.62544" lon="0.45416">
        <ele>134.1</ele>
        <time>2026-08-11T13:21:04.000Z</time>
      </trkpt>
      <trkpt lat="45.62536" lon="0.45408">
        <ele>134.9</ele>
        <time>2026-08-11T13:21:09.000Z</time>
      </trkpt>
      <trkpt lat="45.62524" lon="0.45396">
        <ele>136.2</ele>
        <time>2026-08-11T13:21:17.000Z</time>
      </trkpt>
      <trkpt lat="45.62511" lon="0.45384">
        <ele>137.8</ele>
        <time>2026-08-11T13:21:25.000Z</time>
      </trkpt>
      <trkpt lat="45.62509" lon="0.45383">
        <ele>138</ele>
        <time>2026-08-11T13:21:26.000Z</time>
      </trkpt>
      <trkpt lat="45.62493" lon="0.45373">
        <ele>139.7</ele>
        <time>2026-08-11T13:21:34.000Z</time>
      </trkpt>
      <trkpt lat="45.6249" lon="0.45369">
        <ele>140</ele>
        <time>2026-08-11T13:21:36.000Z</time>
      </trkpt>
      <trkpt lat="45.62477" lon="0.45355">
        <ele>140.5</ele>
        <time>2026-08-11T13:21:43.000Z</time>
      </trkpt>
      <trkpt lat="45.62473" lon="0.4535">
        <ele>141</ele>
        <time>2026-08-11T13:21:45.000Z</time>
      </trkpt>
      <trkpt lat="45.62465" lon="0.45343">
        <ele>141.7</ele>
        <time>2026-08-11T13:21:49.000Z</time>
      </trkpt>
      <trkpt lat="45.62454" lon="0.45333">
        <ele>141.4</ele>
        <time>2026-08-11T13:21:54.000Z</time>
      </trkpt>
      <trkpt lat="45.62448" lon="0.45327">
        <ele>141.2</ele>
        <time>2026-08-11T13:21:57.000Z</time>
      </trkpt>
      <trkpt lat="45.62439" lon="0.45316">
        <ele>141.7</ele>
        <time>2026-08-11T13:22:02.000Z</time>
      </trkpt>
      <trkpt lat="45.62431" lon="0.45307">
        <ele>142</ele>
        <time>2026-08-11T13:22:06.000Z</time>
      </trkpt>
      <trkpt lat="45.62428" lon="0.45303">
        <ele>141.9</ele>
        <time>2026-08-11T13:22:08.000Z</time>
      </trkpt>
      <trkpt lat="45.6241" lon="0.45282">
        <ele>141.1</ele>
        <time>2026-08-11T13:22:16.000Z</time>
      </trkpt>
      <trkpt lat="45.62395" lon="0.45264">
        <ele>140</ele>
        <time>2026-08-11T13:22:22.000Z</time>
      </trkpt>
      <trkpt lat="45.6237" lon="0.45236">
        <ele>139.1</ele>
        <time>2026-08-11T13:22:30.000Z</time>
      </trkpt>
      <trkpt lat="45.62358" lon="0.45224">
        <ele>138.8</ele>
        <time>2026-08-11T13:22:33.000Z</time>
      </trkpt>
      <trkpt lat="45.62343" lon="0.45206">
        <ele>138.6</ele>
        <time>2026-08-11T13:22:37.000Z</time>
      </trkpt>
      <trkpt lat="45.62339" lon="0.45201">
        <ele>138.4</ele>
        <time>2026-08-11T13:22:38.000Z</time>
      </trkpt>
      <trkpt lat="45.62311" lon="0.45168">
        <ele>137.2</ele>
        <time>2026-08-11T13:22:45.000Z</time>
      </trkpt>
      <trkpt lat="45.62307" lon="0.45164">
        <ele>137</ele>
        <time>2026-08-11T13:22:46.000Z</time>
      </trkpt>
      <trkpt lat="45.62291" lon="0.45146">
        <ele>135.8</ele>
        <time>2026-08-11T13:22:50.000Z</time>
      </trkpt>
      <trkpt lat="45.62264" lon="0.45115">
        <ele>133.9</ele>
        <time>2026-08-11T13:22:56.000Z</time>
      </trkpt>
      <trkpt lat="45.62259" lon="0.45109">
        <ele>133.7</ele>
        <time>2026-08-11T13:22:57.000Z</time>
      </trkpt>
      <trkpt lat="45.62236" lon="0.45082">
        <ele>133</ele>
        <time>2026-08-11T13:23:02.000Z</time>
      </trkpt>
      <trkpt lat="45.62226" lon="0.45072">
        <ele>132.6</ele>
        <time>2026-08-11T13:23:04.000Z</time>
      </trkpt>
      <trkpt lat="45.62212" lon="0.45055">
        <ele>132.3</ele>
        <time>2026-08-11T13:23:07.000Z</time>
      </trkpt>
      <trkpt lat="45.62188" lon="0.45027">
        <ele>131.5</ele>
        <time>2026-08-11T13:23:12.000Z</time>
      </trkpt>
      <trkpt lat="45.62177" lon="0.45015">
        <ele>130.3</ele>
        <time>2026-08-11T13:23:14.000Z</time>
      </trkpt>
      <trkpt lat="45.62155" lon="0.44991">
        <ele>128.9</ele>
        <time>2026-08-11T13:23:18.000Z</time>
      </trkpt>
      <trkpt lat="45.62132" lon="0.44964">
        <ele>127.9</ele>
        <time>2026-08-11T13:23:22.000Z</time>
      </trkpt>
      <trkpt lat="45.62127" lon="0.44956">
        <ele>127.5</ele>
        <time>2026-08-11T13:23:23.000Z</time>
      </trkpt>
      <trkpt lat="45.62109" lon="0.44934">
        <ele>126</ele>
        <time>2026-08-11T13:23:26.000Z</time>
      </trkpt>
      <trkpt lat="45.62087" lon="0.44901">
        <ele>124.6</ele>
        <time>2026-08-11T13:23:30.000Z</time>
      </trkpt>
      <trkpt lat="45.62063" lon="0.44867">
        <ele>122.3</ele>
        <time>2026-08-11T13:23:34.000Z</time>
      </trkpt>
      <trkpt lat="45.62045" lon="0.44843">
        <ele>121.2</ele>
        <time>2026-08-11T13:23:37.000Z</time>
      </trkpt>
      <trkpt lat="45.62039" lon="0.44834">
        <ele>120.7</ele>
        <time>2026-08-11T13:23:38.000Z</time>
      </trkpt>
      <trkpt lat="45.62028" lon="0.44819">
        <ele>120.1</ele>
        <time>2026-08-11T13:23:40.000Z</time>
      </trkpt>
      <trkpt lat="45.62006" lon="0.44787">
        <ele>118.1</ele>
        <time>2026-08-11T13:23:44.000Z</time>
      </trkpt>
      <trkpt lat="45.6199" lon="0.44763">
        <ele>115.9</ele>
        <time>2026-08-11T13:23:47.000Z</time>
      </trkpt>
      <trkpt lat="45.61972" lon="0.44739">
        <ele>114.6</ele>
        <time>2026-08-11T13:23:50.000Z</time>
      </trkpt>
      <trkpt lat="45.61949" lon="0.44707">
        <ele>112.6</ele>
        <time>2026-08-11T13:23:54.000Z</time>
      </trkpt>
      <trkpt lat="45.61937" lon="0.44692">
        <ele>111.2</ele>
        <time>2026-08-11T13:23:56.000Z</time>
      </trkpt>
      <trkpt lat="45.6192" lon="0.44669">
        <ele>109.9</ele>
        <time>2026-08-11T13:23:59.000Z</time>
      </trkpt>
      <trkpt lat="45.61905" lon="0.44645">
        <ele>108.3</ele>
        <time>2026-08-11T13:24:02.000Z</time>
      </trkpt>
      <trkpt lat="45.619" lon="0.44637">
        <ele>108</ele>
        <time>2026-08-11T13:24:03.000Z</time>
      </trkpt>
      <trkpt lat="45.61889" lon="0.44621">
        <ele>108</ele>
        <time>2026-08-11T13:24:05.000Z</time>
      </trkpt>
      <trkpt lat="45.61873" lon="0.44598">
        <ele>108.2</ele>
        <time>2026-08-11T13:24:08.000Z</time>
      </trkpt>
      <trkpt lat="45.61868" lon="0.4459">
        <ele>108.2</ele>
        <time>2026-08-11T13:24:09.000Z</time>
      </trkpt>
      <trkpt lat="45.61858" lon="0.44575">
        <ele>108</ele>
        <time>2026-08-11T13:24:11.000Z</time>
      </trkpt>
      <trkpt lat="45.61842" lon="0.44548">
        <ele>108</ele>
        <time>2026-08-11T13:24:15.000Z</time>
      </trkpt>
      <trkpt lat="45.61831" lon="0.44532">
        <ele>108</ele>
        <time>2026-08-11T13:24:18.000Z</time>
      </trkpt>
      <trkpt lat="45.61821" lon="0.44518">
        <ele>108</ele>
        <time>2026-08-11T13:24:21.000Z</time>
      </trkpt>
      <trkpt lat="45.61803" lon="0.44488">
        <ele>107.9</ele>
        <time>2026-08-11T13:24:27.000Z</time>
      </trkpt>
      <trkpt lat="45.618" lon="0.44484">
        <ele>107.9</ele>
        <time>2026-08-11T13:24:28.000Z</time>
      </trkpt>
      <trkpt lat="45.61794" lon="0.44476">
        <ele>107.9</ele>
        <time>2026-08-11T13:24:30.000Z</time>
      </trkpt>
      <trkpt lat="45.61792" lon="0.44471">
        <ele>108</ele>
        <time>2026-08-11T13:24:31.000Z</time>
      </trkpt>
      <trkpt lat="45.61792" lon="0.44467">
        <ele>107.9</ele>
        <time>2026-08-11T13:24:32.000Z</time>
      </trkpt>
      <trkpt lat="45.61794" lon="0.44458">
        <ele>107.8</ele>
        <time>2026-08-11T13:24:34.000Z</time>
      </trkpt>
      <trkpt lat="45.61795" lon="0.44445">
        <ele>107.6</ele>
        <time>2026-08-11T13:24:37.000Z</time>
      </trkpt>
      <trkpt lat="45.61796" lon="0.44436">
        <ele>107.6</ele>
        <time>2026-08-11T13:24:39.000Z</time>
      </trkpt>
      <trkpt lat="45.61799" lon="0.44424">
        <ele>107.8</ele>
        <time>2026-08-11T13:24:43.000Z</time>
      </trkpt>
      <trkpt lat="45.61804" lon="0.44407">
        <ele>107.9</ele>
        <time>2026-08-11T13:24:49.000Z</time>
      </trkpt>
      <trkpt lat="45.61805" lon="0.44391">
        <ele>108</ele>
        <time>2026-08-11T13:24:54.000Z</time>
      </trkpt>
      <trkpt lat="45.61807" lon="0.44384">
        <ele>108</ele>
        <time>2026-08-11T13:24:56.000Z</time>
      </trkpt>
      <trkpt lat="45.61811" lon="0.44352">
        <ele>108</ele>
        <time>2026-08-11T13:25:04.000Z</time>
      </trkpt>
      <trkpt lat="45.61813" lon="0.44339">
        <ele>108</ele>
        <time>2026-08-11T13:25:08.000Z</time>
      </trkpt>
      <trkpt lat="45.61813" lon="0.44338">
        <ele>108</ele>
        <time>2026-08-11T13:25:09.000Z</time>
      </trkpt>
      <trkpt lat="45.61812" lon="0.44342">
        <ele>108</ele>
        <time>2026-08-11T13:25:14.000Z</time>
      </trkpt>
      <trkpt lat="45.61808" lon="0.4435">
        <ele>108</ele>
        <time>2026-08-11T13:25:21.000Z</time>
      </trkpt>
      <trkpt lat="45.61808" lon="0.4435">
        <ele>108</ele>
        <time>2026-08-11T13:25:22.000Z</time>
      </trkpt>
      <trkpt lat="45.61808" lon="0.44351">
        <ele>108</ele>
        <time>2026-08-11T13:26:35.000Z</time>
      </trkpt>
      <trkpt lat="45.61808" lon="0.44346">
        <ele>108</ele>
        <time>2026-08-11T13:26:37.000Z</time>
      </trkpt>
      <trkpt lat="45.6181" lon="0.44331">
        <ele>108</ele>
        <time>2026-08-11T13:26:43.000Z</time>
      </trkpt>
      <trkpt lat="45.61816" lon="0.44305">
        <ele>108</ele>
        <time>2026-08-11T13:26:52.000Z</time>
      </trkpt>
      <trkpt lat="45.61821" lon="0.44272">
        <ele>108</ele>
        <time>2026-08-11T13:27:00.000Z</time>
      </trkpt>
      <trkpt lat="45.61823" lon="0.44252">
        <ele>108</ele>
        <time>2026-08-11T13:27:05.000Z</time>
      </trkpt>
      <trkpt lat="45.61826" lon="0.4423">
        <ele>108</ele>
        <time>2026-08-11T13:27:10.000Z</time>
      </trkpt>
      <trkpt lat="45.61832" lon="0.44187">
        <ele>108</ele>
        <time>2026-08-11T13:27:18.000Z</time>
      </trkpt>
      <trkpt lat="45.6184" lon="0.44147">
        <ele>107.8</ele>
        <time>2026-08-11T13:27:26.000Z</time>
      </trkpt>
      <trkpt lat="45.61843" lon="0.44123">
        <ele>107.6</ele>
        <time>2026-08-11T13:27:32.000Z</time>
      </trkpt>
      <trkpt lat="45.61848" lon="0.44086">
        <ele>107</ele>
        <time>2026-08-11T13:27:40.000Z</time>
      </trkpt>
      <trkpt lat="45.61853" lon="0.4405">
        <ele>107</ele>
        <time>2026-08-11T13:27:48.000Z</time>
      </trkpt>
      <trkpt lat="45.61859" lon="0.44024">
        <ele>107.1</ele>
        <time>2026-08-11T13:27:54.000Z</time>
      </trkpt>
      <trkpt lat="45.6186" lon="0.44015">
        <ele>107.4</ele>
        <time>2026-08-11T13:27:56.000Z</time>
      </trkpt>
      <trkpt lat="45.61861" lon="0.43979">
        <ele>108</ele>
        <time>2026-08-11T13:28:03.000Z</time>
      </trkpt>
      <trkpt lat="45.61866" lon="0.43956">
        <ele>108.2</ele>
        <time>2026-08-11T13:28:08.000Z</time>
      </trkpt>
      <trkpt lat="45.61872" lon="0.43913">
        <ele>107.5</ele>
        <time>2026-08-11T13:28:16.000Z</time>
      </trkpt>
      <trkpt lat="45.61876" lon="0.43889">
        <ele>108.5</ele>
        <time>2026-08-11T13:28:22.000Z</time>
      </trkpt>
      <trkpt lat="45.61881" lon="0.43859">
        <ele>108.4</ele>
        <time>2026-08-11T13:28:28.000Z</time>
      </trkpt>
      <trkpt lat="45.61886" lon="0.43823">
        <ele>108.4</ele>
        <time>2026-08-11T13:28:35.000Z</time>
      </trkpt>
      <trkpt lat="45.61892" lon="0.43782">
        <ele>108.4</ele>
        <time>2026-08-11T13:28:43.000Z</time>
      </trkpt>
      <trkpt lat="45.61897" lon="0.43742">
        <ele>109.4</ele>
        <time>2026-08-11T13:28:50.000Z</time>
      </trkpt>
      <trkpt lat="45.619" lon="0.43718">
        <ele>110</ele>
        <time>2026-08-11T13:28:55.000Z</time>
      </trkpt>
      <trkpt lat="45.61901" lon="0.43713">
        <ele>110.1</ele>
        <time>2026-08-11T13:28:56.000Z</time>
      </trkpt>
      <trkpt lat="45.61903" lon="0.43692">
        <ele>110.6</ele>
        <time>2026-08-11T13:29:00.000Z</time>
      </trkpt>
      <trkpt lat="45.61908" lon="0.4366">
        <ele>111.4</ele>
        <time>2026-08-11T13:29:06.000Z</time>
      </trkpt>
      <trkpt lat="45.61913" lon="0.4361">
        <ele>109.7</ele>
        <time>2026-08-11T13:29:15.000Z</time>
      </trkpt>
      <trkpt lat="45.61913" lon="0.43565">
        <ele>109</ele>
        <time>2026-08-11T13:29:23.000Z</time>
      </trkpt>
      <trkpt lat="45.61916" lon="0.43535">
        <ele>108.2</ele>
        <time>2026-08-11T13:29:29.000Z</time>
      </trkpt>
      <trkpt lat="45.61919" lon="0.43495">
        <ele>108</ele>
        <time>2026-08-11T13:29:36.000Z</time>
      </trkpt>
      <trkpt lat="45.61921" lon="0.43454">
        <ele>108.1</ele>
        <time>2026-08-11T13:29:43.000Z</time>
      </trkpt>
      <trkpt lat="45.61922" lon="0.43448">
        <ele>108.2</ele>
        <time>2026-08-11T13:29:44.000Z</time>
      </trkpt>
      <trkpt lat="45.61924" lon="0.43408">
        <ele>108.3</ele>
        <time>2026-08-11T13:29:51.000Z</time>
      </trkpt>
      <trkpt lat="45.61926" lon="0.43364">
        <ele>108.3</ele>
        <time>2026-08-11T13:29:59.000Z</time>
      </trkpt>
      <trkpt lat="45.61931" lon="0.4331">
        <ele>109.5</ele>
        <time>2026-08-11T13:30:08.000Z</time>
      </trkpt>
      <trkpt lat="45.61935" lon="0.43281">
        <ele>109.6</ele>
        <time>2026-08-11T13:30:13.000Z</time>
      </trkpt>
      <trkpt lat="45.61939" lon="0.43232">
        <ele>109.4</ele>
        <time>2026-08-11T13:30:21.000Z</time>
      </trkpt>
      <trkpt lat="45.6194" lon="0.43218">
        <ele>109.4</ele>
        <time>2026-08-11T13:30:23.000Z</time>
      </trkpt>
      <trkpt lat="45.61941" lon="0.43169">
        <ele>107.8</ele>
        <time>2026-08-11T13:30:30.000Z</time>
      </trkpt>
      <trkpt lat="45.61942" lon="0.43162">
        <ele>107.8</ele>
        <time>2026-08-11T13:30:31.000Z</time>
      </trkpt>
      <trkpt lat="45.61944" lon="0.43122">
        <ele>107.4</ele>
        <time>2026-08-11T13:30:37.000Z</time>
      </trkpt>
      <trkpt lat="45.61944" lon="0.43117">
        <ele>107.2</ele>
        <time>2026-08-11T13:30:38.000Z</time>
      </trkpt>
      <trkpt lat="45.61945" lon="0.43057">
        <ele>107</ele>
        <time>2026-08-11T13:30:47.000Z</time>
      </trkpt>
      <trkpt lat="45.61945" lon="0.43037">
        <ele>106.3</ele>
        <time>2026-08-11T13:30:50.000Z</time>
      </trkpt>
      <trkpt lat="45.61943" lon="0.42997">
        <ele>105.9</ele>
        <time>2026-08-11T13:30:56.000Z</time>
      </trkpt>
      <trkpt lat="45.61943" lon="0.42991">
        <ele>105.9</ele>
        <time>2026-08-11T13:30:57.000Z</time>
      </trkpt>
      <trkpt lat="45.61941" lon="0.42971">
        <ele>105.8</ele>
        <time>2026-08-11T13:31:00.000Z</time>
      </trkpt>
      <trkpt lat="45.61941" lon="0.42965">
        <ele>105.7</ele>
        <time>2026-08-11T13:31:01.000Z</time>
      </trkpt>
      <trkpt lat="45.61939" lon="0.42939">
        <ele>105.8</ele>
        <time>2026-08-11T13:31:06.000Z</time>
      </trkpt>
      <trkpt lat="45.61935" lon="0.42904">
        <ele>105.9</ele>
        <time>2026-08-11T13:31:13.000Z</time>
      </trkpt>
      <trkpt lat="45.61929" lon="0.42866">
        <ele>106.6</ele>
        <time>2026-08-11T13:31:21.000Z</time>
      </trkpt>
      <trkpt lat="45.61927" lon="0.42855">
        <ele>106.5</ele>
        <time>2026-08-11T13:31:24.000Z</time>
      </trkpt>
      <trkpt lat="45.61927" lon="0.42851">
        <ele>106.5</ele>
        <time>2026-08-11T13:31:25.000Z</time>
      </trkpt>
      <trkpt lat="45.61932" lon="0.42834">
        <ele>106.7</ele>
        <time>2026-08-11T13:31:30.000Z</time>
      </trkpt>
      <trkpt lat="45.61931" lon="0.42825">
        <ele>106.6</ele>
        <time>2026-08-11T13:31:33.000Z</time>
      </trkpt>
      <trkpt lat="45.61929" lon="0.42814">
        <ele>106.2</ele>
        <time>2026-08-11T13:31:36.000Z</time>
      </trkpt>
      <trkpt lat="45.61928" lon="0.42794">
        <ele>106.6</ele>
        <time>2026-08-11T13:31:42.000Z</time>
      </trkpt>
      <trkpt lat="45.61926" lon="0.42761">
        <ele>107.1</ele>
        <time>2026-08-11T13:31:49.000Z</time>
      </trkpt>
      <trkpt lat="45.61924" lon="0.42722">
        <ele>107</ele>
        <time>2026-08-11T13:31:56.000Z</time>
      </trkpt>
      <trkpt lat="45.61926" lon="0.42691">
        <ele>107.3</ele>
        <time>2026-08-11T13:32:02.000Z</time>
      </trkpt>
      <trkpt lat="45.6193" lon="0.42652">
        <ele>107.2</ele>
        <time>2026-08-11T13:32:09.000Z</time>
      </trkpt>
      <trkpt lat="45.61934" lon="0.42605">
        <ele>107.3</ele>
        <time>2026-08-11T13:32:18.000Z</time>
      </trkpt>
      <trkpt lat="45.61942" lon="0.42564">
        <ele>107.8</ele>
        <time>2026-08-11T13:32:26.000Z</time>
      </trkpt>
      <trkpt lat="45.61949" lon="0.42535">
        <ele>107.7</ele>
        <time>2026-08-11T13:32:33.000Z</time>
      </trkpt>
      <trkpt lat="45.6195" lon="0.42531">
        <ele>107.7</ele>
        <time>2026-08-11T13:32:38.000Z</time>
      </trkpt>
      <trkpt lat="45.61955" lon="0.42512">
        <ele>108.1</ele>
        <time>2026-08-11T13:33:41.000Z</time>
      </trkpt>
      <trkpt lat="45.61956" lon="0.42506">
        <ele>108.2</ele>
        <time>2026-08-11T13:33:43.000Z</time>
      </trkpt>
      <trkpt lat="45.61961" lon="0.42478">
        <ele>108.4</ele>
        <time>2026-08-11T13:33:49.000Z</time>
      </trkpt>
      <trkpt lat="45.61968" lon="0.42453">
        <ele>108</ele>
        <time>2026-08-11T13:33:54.000Z</time>
      </trkpt>
      <trkpt lat="45.61971" lon="0.42437">
        <ele>107.7</ele>
        <time>2026-08-11T13:33:57.000Z</time>
      </trkpt>
      <trkpt lat="45.61982" lon="0.42386">
        <ele>106.3</ele>
        <time>2026-08-11T13:34:06.000Z</time>
      </trkpt>
      <trkpt lat="45.61994" lon="0.42338">
        <ele>106.6</ele>
        <time>2026-08-11T13:34:15.000Z</time>
      </trkpt>
      <trkpt lat="45.62005" lon="0.42294">
        <ele>106.8</ele>
        <time>2026-08-11T13:34:23.000Z</time>
      </trkpt>
      <trkpt lat="45.62019" lon="0.42234">
        <ele>105.5</ele>
        <time>2026-08-11T13:34:34.000Z</time>
      </trkpt>
      <trkpt lat="45.62026" lon="0.42204">
        <ele>105.9</ele>
        <time>2026-08-11T13:34:40.000Z</time>
      </trkpt>
      <trkpt lat="45.6204" lon="0.42146">
        <ele>105.6</ele>
        <time>2026-08-11T13:34:50.000Z</time>
      </trkpt>
      <trkpt lat="45.62053" lon="0.42093">
        <ele>105.9</ele>
        <time>2026-08-11T13:34:59.000Z</time>
      </trkpt>
      <trkpt lat="45.62063" lon="0.42052">
        <ele>104.9</ele>
        <time>2026-08-11T13:35:07.000Z</time>
      </trkpt>
      <trkpt lat="45.62071" lon="0.4202">
        <ele>104.6</ele>
        <time>2026-08-11T13:35:13.000Z</time>
      </trkpt>
      <trkpt lat="45.62072" lon="0.42016">
        <ele>104.6</ele>
        <time>2026-08-11T13:35:14.000Z</time>
      </trkpt>
      <trkpt lat="45.62079" lon="0.41989">
        <ele>104.8</ele>
        <time>2026-08-11T13:35:20.000Z</time>
      </trkpt>
      <trkpt lat="45.62086" lon="0.41961">
        <ele>105</ele>
        <time>2026-08-11T13:35:25.000Z</time>
      </trkpt>
      <trkpt lat="45.62097" lon="0.41926">
        <ele>104.7</ele>
        <time>2026-08-11T13:35:32.000Z</time>
      </trkpt>
      <trkpt lat="45.62103" lon="0.41901">
        <ele>104.7</ele>
        <time>2026-08-11T13:35:36.000Z</time>
      </trkpt>
      <trkpt lat="45.62106" lon="0.41881">
        <ele>104.8</ele>
        <time>2026-08-11T13:35:39.000Z</time>
      </trkpt>
      <trkpt lat="45.62115" lon="0.41844">
        <ele>104.5</ele>
        <time>2026-08-11T13:35:45.000Z</time>
      </trkpt>
      <trkpt lat="45.62127" lon="0.418">
        <ele>104.6</ele>
        <time>2026-08-11T13:35:52.000Z</time>
      </trkpt>
      <trkpt lat="45.62142" lon="0.41746">
        <ele>104.2</ele>
        <time>2026-08-11T13:36:01.000Z</time>
      </trkpt>
      <trkpt lat="45.62149" lon="0.41711">
        <ele>104.6</ele>
        <time>2026-08-11T13:36:08.000Z</time>
      </trkpt>
      <trkpt lat="45.62159" lon="0.41668">
        <ele>104.7</ele>
        <time>2026-08-11T13:36:17.000Z</time>
      </trkpt>
      <trkpt lat="45.6216" lon="0.41647">
        <ele>104.2</ele>
        <time>2026-08-11T13:36:21.000Z</time>
      </trkpt>
      <trkpt lat="45.62162" lon="0.41632">
        <ele>104</ele>
        <time>2026-08-11T13:36:24.000Z</time>
      </trkpt>
      <trkpt lat="45.62167" lon="0.41602">
        <ele>103.7</ele>
        <time>2026-08-11T13:36:30.000Z</time>
      </trkpt>
      <trkpt lat="45.62168" lon="0.41596">
        <ele>103.5</ele>
        <time>2026-08-11T13:36:31.000Z</time>
      </trkpt>
      <trkpt lat="45.62172" lon="0.41568">
        <ele>102.9</ele>
        <time>2026-08-11T13:36:36.000Z</time>
      </trkpt>
      <trkpt lat="45.62171" lon="0.41524">
        <ele>103.1</ele>
        <time>2026-08-11T13:36:43.000Z</time>
      </trkpt>
      <trkpt lat="45.62172" lon="0.41492">
        <ele>102.3</ele>
        <time>2026-08-11T13:36:48.000Z</time>
      </trkpt>
      <trkpt lat="45.6217" lon="0.41447">
        <ele>102.1</ele>
        <time>2026-08-11T13:36:54.000Z</time>
      </trkpt>
      <trkpt lat="45.62169" lon="0.41415">
        <ele>101.2</ele>
        <time>2026-08-11T13:36:59.000Z</time>
      </trkpt>
      <trkpt lat="45.62167" lon="0.41402">
        <ele>101</ele>
        <time>2026-08-11T13:37:01.000Z</time>
      </trkpt>
      <trkpt lat="45.62162" lon="0.41359">
        <ele>101.8</ele>
        <time>2026-08-11T13:37:08.000Z</time>
      </trkpt>
      <trkpt lat="45.62162" lon="0.41353">
        <ele>101.8</ele>
        <time>2026-08-11T13:37:09.000Z</time>
      </trkpt>
      <trkpt lat="45.62159" lon="0.41335">
        <ele>101.7</ele>
        <time>2026-08-11T13:37:12.000Z</time>
      </trkpt>
      <trkpt lat="45.62157" lon="0.41328">
        <ele>101.5</ele>
        <time>2026-08-11T13:37:13.000Z</time>
      </trkpt>
      <trkpt lat="45.62152" lon="0.41308">
        <ele>101</ele>
        <time>2026-08-11T13:37:16.000Z</time>
      </trkpt>
      <trkpt lat="45.62151" lon="0.41302">
        <ele>100.9</ele>
        <time>2026-08-11T13:37:17.000Z</time>
      </trkpt>
      <trkpt lat="45.62139" lon="0.41255">
        <ele>100</ele>
        <time>2026-08-11T13:37:24.000Z</time>
      </trkpt>
      <trkpt lat="45.62125" lon="0.41208">
        <ele>99.8</ele>
        <time>2026-08-11T13:37:32.000Z</time>
      </trkpt>
      <trkpt lat="45.62111" lon="0.41162">
        <ele>99.8</ele>
        <time>2026-08-11T13:37:40.000Z</time>
      </trkpt>
      <trkpt lat="45.621" lon="0.41125">
        <ele>98.3</ele>
        <time>2026-08-11T13:37:47.000Z</time>
      </trkpt>
      <trkpt lat="45.62087" lon="0.41087">
        <ele>98.8</ele>
        <time>2026-08-11T13:37:54.000Z</time>
      </trkpt>
      <trkpt lat="45.62074" lon="0.41037">
        <ele>98</ele>
        <time>2026-08-11T13:38:03.000Z</time>
      </trkpt>
      <trkpt lat="45.62061" lon="0.41001">
        <ele>98.6</ele>
        <time>2026-08-11T13:38:11.000Z</time>
      </trkpt>
      <trkpt lat="45.62052" lon="0.4097">
        <ele>98.6</ele>
        <time>2026-08-11T13:38:18.000Z</time>
      </trkpt>
      <trkpt lat="45.62045" lon="0.4093">
        <ele>97.1</ele>
        <time>2026-08-11T13:38:25.000Z</time>
      </trkpt>
      <trkpt lat="45.62035" lon="0.40869">
        <ele>96.1</ele>
        <time>2026-08-11T13:38:35.000Z</time>
      </trkpt>
      <trkpt lat="45.62033" lon="0.40847">
        <ele>97.5</ele>
        <time>2026-08-11T13:38:41.000Z</time>
      </trkpt>
      <trkpt lat="45.62032" lon="0.40828">
        <ele>99.3</ele>
        <time>2026-08-11T13:38:46.000Z</time>
      </trkpt>
      <trkpt lat="45.62029" lon="0.40795">
        <ele>99.9</ele>
        <time>2026-08-11T13:38:54.000Z</time>
      </trkpt>
      <trkpt lat="45.62029" lon="0.40756">
        <ele>99.1</ele>
        <time>2026-08-11T13:39:02.000Z</time>
      </trkpt>
      <trkpt lat="45.62028" lon="0.40716">
        <ele>99</ele>
        <time>2026-08-11T13:39:09.000Z</time>
      </trkpt>
      <trkpt lat="45.6203" lon="0.40675">
        <ele>98.1</ele>
        <time>2026-08-11T13:39:15.000Z</time>
      </trkpt>
      <trkpt lat="45.62031" lon="0.40634">
        <ele>97.6</ele>
        <time>2026-08-11T13:39:20.000Z</time>
      </trkpt>
      <trkpt lat="45.62033" lon="0.40605">
        <ele>96.6</ele>
        <time>2026-08-11T13:39:24.000Z</time>
      </trkpt>
      <trkpt lat="45.62033" lon="0.40599">
        <ele>96.5</ele>
        <time>2026-08-11T13:39:25.000Z</time>
      </trkpt>
      <trkpt lat="45.62041" lon="0.40579">
        <ele>96.1</ele>
        <time>2026-08-11T13:39:29.000Z</time>
      </trkpt>
      <trkpt lat="45.62049" lon="0.40546">
        <ele>97.3</ele>
        <time>2026-08-11T13:39:36.000Z</time>
      </trkpt>
      <trkpt lat="45.6206" lon="0.40505">
        <ele>97.7</ele>
        <time>2026-08-11T13:39:43.000Z</time>
      </trkpt>
      <trkpt lat="45.62067" lon="0.40481">
        <ele>96.8</ele>
        <time>2026-08-11T13:39:48.000Z</time>
      </trkpt>
      <trkpt lat="45.6207" lon="0.40466">
        <ele>96.6</ele>
        <time>2026-08-11T13:39:50.000Z</time>
      </trkpt>
      <trkpt lat="45.62084" lon="0.40431">
        <ele>97.4</ele>
        <time>2026-08-11T13:39:55.000Z</time>
      </trkpt>
      <trkpt lat="45.62098" lon="0.40391">
        <ele>97</ele>
        <time>2026-08-11T13:40:02.000Z</time>
      </trkpt>
      <trkpt lat="45.62114" lon="0.4035">
        <ele>97.3</ele>
        <time>2026-08-11T13:40:09.000Z</time>
      </trkpt>
      <trkpt lat="45.62124" lon="0.40311">
        <ele>96.6</ele>
        <time>2026-08-11T13:40:16.000Z</time>
      </trkpt>
      <trkpt lat="45.62133" lon="0.40274">
        <ele>96.3</ele>
        <time>2026-08-11T13:40:22.000Z</time>
      </trkpt>
      <trkpt lat="45.6214" lon="0.40237">
        <ele>96.9</ele>
        <time>2026-08-11T13:40:28.000Z</time>
      </trkpt>
      <trkpt lat="45.62147" lon="0.40195">
        <ele>96</ele>
        <time>2026-08-11T13:40:35.000Z</time>
      </trkpt>
      <trkpt lat="45.62153" lon="0.40162">
        <ele>95.9</ele>
        <time>2026-08-11T13:40:41.000Z</time>
      </trkpt>
      <trkpt lat="45.62157" lon="0.4013">
        <ele>95.6</ele>
        <time>2026-08-11T13:40:47.000Z</time>
      </trkpt>
      <trkpt lat="45.62157" lon="0.40126">
        <ele>95.7</ele>
        <time>2026-08-11T13:40:48.000Z</time>
      </trkpt>
      <trkpt lat="45.62162" lon="0.40108">
        <ele>95.9</ele>
        <time>2026-08-11T13:40:52.000Z</time>
      </trkpt>
      <trkpt lat="45.62165" lon="0.40063">
        <ele>96.9</ele>
        <time>2026-08-11T13:41:00.000Z</time>
      </trkpt>
      <trkpt lat="45.62172" lon="0.40017">
        <ele>95.8</ele>
        <time>2026-08-11T13:41:08.000Z</time>
      </trkpt>
      <trkpt lat="45.62174" lon="0.39983">
        <ele>95.7</ele>
        <time>2026-08-11T13:41:13.000Z</time>
      </trkpt>
      <trkpt lat="45.62177" lon="0.39935">
        <ele>95.4</ele>
        <time>2026-08-11T13:41:20.000Z</time>
      </trkpt>
      <trkpt lat="45.62181" lon="0.3989">
        <ele>95</ele>
        <time>2026-08-11T13:41:27.000Z</time>
      </trkpt>
      <trkpt lat="45.62184" lon="0.39848">
        <ele>95.4</ele>
        <time>2026-08-11T13:41:34.000Z</time>
      </trkpt>
      <trkpt lat="45.62185" lon="0.39842">
        <ele>95.3</ele>
        <time>2026-08-11T13:41:35.000Z</time>
      </trkpt>
      <trkpt lat="45.62189" lon="0.39801">
        <ele>96</ele>
        <time>2026-08-11T13:41:42.000Z</time>
      </trkpt>
      <trkpt lat="45.62194" lon="0.39758">
        <ele>96.7</ele>
        <time>2026-08-11T13:41:49.000Z</time>
      </trkpt>
      <trkpt lat="45.62194" lon="0.39724">
        <ele>96.1</ele>
        <time>2026-08-11T13:41:54.000Z</time>
      </trkpt>
      <trkpt lat="45.62199" lon="0.39687">
        <ele>95.9</ele>
        <time>2026-08-11T13:42:00.000Z</time>
      </trkpt>
      <trkpt lat="45.62202" lon="0.39654">
        <ele>95.9</ele>
        <time>2026-08-11T13:42:06.000Z</time>
      </trkpt>
      <trkpt lat="45.62203" lon="0.39648">
        <ele>95.9</ele>
        <time>2026-08-11T13:42:07.000Z</time>
      </trkpt>
      <trkpt lat="45.62207" lon="0.39598">
        <ele>96.6</ele>
        <time>2026-08-11T13:42:16.000Z</time>
      </trkpt>
      <trkpt lat="45.6221" lon="0.39568">
        <ele>96.1</ele>
        <time>2026-08-11T13:42:21.000Z</time>
      </trkpt>
      <trkpt lat="45.62213" lon="0.39526">
        <ele>95.3</ele>
        <time>2026-08-11T13:42:28.000Z</time>
      </trkpt>
      <trkpt lat="45.62213" lon="0.3952">
        <ele>95.4</ele>
        <time>2026-08-11T13:42:29.000Z</time>
      </trkpt>
      <trkpt lat="45.62216" lon="0.395">
        <ele>95.5</ele>
        <time>2026-08-11T13:42:33.000Z</time>
      </trkpt>
      <trkpt lat="45.62221" lon="0.39473">
        <ele>96</ele>
        <time>2026-08-11T13:42:39.000Z</time>
      </trkpt>
      <trkpt lat="45.62224" lon="0.39446">
        <ele>96.9</ele>
        <time>2026-08-11T13:42:46.000Z</time>
      </trkpt>
      <trkpt lat="45.62226" lon="0.39412">
        <ele>95.9</ele>
        <time>2026-08-11T13:42:53.000Z</time>
      </trkpt>
      <trkpt lat="45.62231" lon="0.39385">
        <ele>95.7</ele>
        <time>2026-08-11T13:43:00.000Z</time>
      </trkpt>
      <trkpt lat="45.62236" lon="0.39362">
        <ele>95.5</ele>
        <time>2026-08-11T13:43:05.000Z</time>
      </trkpt>
      <trkpt lat="45.62238" lon="0.39336">
        <ele>95.4</ele>
        <time>2026-08-11T13:43:10.000Z</time>
      </trkpt>
      <trkpt lat="45.62242" lon="0.39302">
        <ele>95.4</ele>
        <time>2026-08-11T13:43:16.000Z</time>
      </trkpt>
      <trkpt lat="45.62252" lon="0.39258">
        <ele>95.9</ele>
        <time>2026-08-11T13:43:24.000Z</time>
      </trkpt>
      <trkpt lat="45.62257" lon="0.39217">
        <ele>95.7</ele>
        <time>2026-08-11T13:43:30.000Z</time>
      </trkpt>
      <trkpt lat="45.62268" lon="0.39168">
        <ele>95.7</ele>
        <time>2026-08-11T13:43:37.000Z</time>
      </trkpt>
      <trkpt lat="45.62276" lon="0.39125">
        <ele>95.7</ele>
        <time>2026-08-11T13:43:44.000Z</time>
      </trkpt>
      <trkpt lat="45.62287" lon="0.39084">
        <ele>95.7</ele>
        <time>2026-08-11T13:43:51.000Z</time>
      </trkpt>
      <trkpt lat="45.62301" lon="0.3903">
        <ele>95.3</ele>
        <time>2026-08-11T13:43:59.000Z</time>
      </trkpt>
      <trkpt lat="45.62313" lon="0.38999">
        <ele>95.4</ele>
        <time>2026-08-11T13:44:05.000Z</time>
      </trkpt>
      <trkpt lat="45.62315" lon="0.38994">
        <ele>95.3</ele>
        <time>2026-08-11T13:44:06.000Z</time>
      </trkpt>
      <trkpt lat="45.62325" lon="0.38956">
        <ele>95</ele>
        <time>2026-08-11T13:44:13.000Z</time>
      </trkpt>
      <trkpt lat="45.62333" lon="0.38926">
        <ele>95</ele>
        <time>2026-08-11T13:44:18.000Z</time>
      </trkpt>
      <trkpt lat="45.62346" lon="0.38888">
        <ele>95</ele>
        <time>2026-08-11T13:44:25.000Z</time>
      </trkpt>
      <trkpt lat="45.62361" lon="0.38843">
        <ele>95.6</ele>
        <time>2026-08-11T13:44:33.000Z</time>
      </trkpt>
      <trkpt lat="45.62375" lon="0.38793">
        <ele>95.7</ele>
        <time>2026-08-11T13:44:41.000Z</time>
      </trkpt>
      <trkpt lat="45.62386" lon="0.38766">
        <ele>96</ele>
        <time>2026-08-11T13:44:46.000Z</time>
      </trkpt>
      <trkpt lat="45.62395" lon="0.38746">
        <ele>95.8</ele>
        <time>2026-08-11T13:44:50.000Z</time>
      </trkpt>
      <trkpt lat="45.62407" lon="0.38718">
        <ele>95.5</ele>
        <time>2026-08-11T13:44:56.000Z</time>
      </trkpt>
      <trkpt lat="45.62412" lon="0.38711">
        <ele>95.6</ele>
        <time>2026-08-11T13:44:58.000Z</time>
      </trkpt>
      <trkpt lat="45.62423" lon="0.38689">
        <ele>95.8</ele>
        <time>2026-08-11T13:45:03.000Z</time>
      </trkpt>
      <trkpt lat="45.62424" lon="0.38684">
        <ele>95.8</ele>
        <time>2026-08-11T13:45:04.000Z</time>
      </trkpt>
      <trkpt lat="45.62425" lon="0.38673">
        <ele>95.9</ele>
        <time>2026-08-11T13:45:06.000Z</time>
      </trkpt>
      <trkpt lat="45.62436" lon="0.38654">
        <ele>96.1</ele>
        <time>2026-08-11T13:45:10.000Z</time>
      </trkpt>
      <trkpt lat="45.62457" lon="0.38611">
        <ele>96.1</ele>
        <time>2026-08-11T13:45:19.000Z</time>
      </trkpt>
      <trkpt lat="45.62472" lon="0.38582">
        <ele>96.1</ele>
        <time>2026-08-11T13:45:25.000Z</time>
      </trkpt>
      <trkpt lat="45.62498" lon="0.38535">
        <ele>95</ele>
        <time>2026-08-11T13:45:35.000Z</time>
      </trkpt>
      <trkpt lat="45.62515" lon="0.38502">
        <ele>94.9</ele>
        <time>2026-08-11T13:45:42.000Z</time>
      </trkpt>
      <trkpt lat="45.62526" lon="0.38485">
        <ele>94.7</ele>
        <time>2026-08-11T13:45:46.000Z</time>
      </trkpt>
      <trkpt lat="45.62543" lon="0.38453">
        <ele>94.6</ele>
        <time>2026-08-11T13:45:52.000Z</time>
      </trkpt>
      <trkpt lat="45.6257" lon="0.3841">
        <ele>95.2</ele>
        <time>2026-08-11T13:46:01.000Z</time>
      </trkpt>
      <trkpt lat="45.62578" lon="0.38388">
        <ele>96.2</ele>
        <time>2026-08-11T13:46:07.000Z</time>
      </trkpt>
      <trkpt lat="45.62592" lon="0.38366">
        <ele>96.6</ele>
        <time>2026-08-11T13:46:13.000Z</time>
      </trkpt>
      <trkpt lat="45.62606" lon="0.38346">
        <ele>96.6</ele>
        <time>2026-08-11T13:46:18.000Z</time>
      </trkpt>
      <trkpt lat="45.62629" lon="0.38309">
        <ele>97.9</ele>
        <time>2026-08-11T13:46:26.000Z</time>
      </trkpt>
      <trkpt lat="45.62648" lon="0.3828">
        <ele>96.3</ele>
        <time>2026-08-11T13:46:32.000Z</time>
      </trkpt>
      <trkpt lat="45.62662" lon="0.38254">
        <ele>95.7</ele>
        <time>2026-08-11T13:46:37.000Z</time>
      </trkpt>
      <trkpt lat="45.62673" lon="0.38234">
        <ele>95</ele>
        <time>2026-08-11T13:46:41.000Z</time>
      </trkpt>
      <trkpt lat="45.62684" lon="0.38214">
        <ele>94.9</ele>
        <time>2026-08-11T13:46:45.000Z</time>
      </trkpt>
      <trkpt lat="45.62701" lon="0.3818">
        <ele>95</ele>
        <time>2026-08-11T13:46:52.000Z</time>
      </trkpt>
      <trkpt lat="45.62725" lon="0.38151">
        <ele>94.5</ele>
        <time>2026-08-11T13:46:59.000Z</time>
      </trkpt>
      <trkpt lat="45.62739" lon="0.38124">
        <ele>94.9</ele>
        <time>2026-08-11T13:47:04.000Z</time>
      </trkpt>
      <trkpt lat="45.62756" lon="0.38097">
        <ele>95.1</ele>
        <time>2026-08-11T13:47:10.000Z</time>
      </trkpt>
      <trkpt lat="45.62779" lon="0.3806">
        <ele>95.6</ele>
        <time>2026-08-11T13:47:18.000Z</time>
      </trkpt>
      <trkpt lat="45.62803" lon="0.38021">
        <ele>94.8</ele>
        <time>2026-08-11T13:47:27.000Z</time>
      </trkpt>
      <trkpt lat="45.62827" lon="0.3798">
        <ele>95.1</ele>
        <time>2026-08-11T13:47:36.000Z</time>
      </trkpt>
      <trkpt lat="45.6283" lon="0.37975">
        <ele>95.1</ele>
        <time>2026-08-11T13:47:37.000Z</time>
      </trkpt>
      <trkpt lat="45.62848" lon="0.37947">
        <ele>95.3</ele>
        <time>2026-08-11T13:47:43.000Z</time>
      </trkpt>
      <trkpt lat="45.62876" lon="0.379">
        <ele>96.1</ele>
        <time>2026-08-11T13:47:53.000Z</time>
      </trkpt>
      <trkpt lat="45.62898" lon="0.37865">
        <ele>96.2</ele>
        <time>2026-08-11T13:48:00.000Z</time>
      </trkpt>
      <trkpt lat="45.62919" lon="0.37826">
        <ele>96.4</ele>
        <time>2026-08-11T13:48:08.000Z</time>
      </trkpt>
      <trkpt lat="45.62938" lon="0.37794">
        <ele>96.6</ele>
        <time>2026-08-11T13:48:15.000Z</time>
      </trkpt>
      <trkpt lat="45.62958" lon="0.37761">
        <ele>96.6</ele>
        <time>2026-08-11T13:48:22.000Z</time>
      </trkpt>
      <trkpt lat="45.62977" lon="0.3773">
        <ele>96.4</ele>
        <time>2026-08-11T13:48:30.000Z</time>
      </trkpt>
      <trkpt lat="45.62983" lon="0.37719">
        <ele>96.3</ele>
        <time>2026-08-11T13:48:35.000Z</time>
      </trkpt>
      <trkpt lat="45.62983" lon="0.37716">
        <ele>96.3</ele>
        <time>2026-08-11T13:48:37.000Z</time>
      </trkpt>
      <trkpt lat="45.62984" lon="0.37714">
        <ele>96.2</ele>
        <time>2026-08-11T13:48:39.000Z</time>
      </trkpt>
      <trkpt lat="45.6299" lon="0.3771">
        <ele>96</ele>
        <time>2026-08-11T13:48:44.000Z</time>
      </trkpt>
      <trkpt lat="45.62991" lon="0.37706">
        <ele>96</ele>
        <time>2026-08-11T13:48:46.000Z</time>
      </trkpt>
      <trkpt lat="45.63" lon="0.3769">
        <ele>96</ele>
        <time>2026-08-11T13:48:53.000Z</time>
      </trkpt>
      <trkpt lat="45.63013" lon="0.37669">
        <ele>95</ele>
        <time>2026-08-11T13:49:00.000Z</time>
      </trkpt>
      <trkpt lat="45.6303" lon="0.37644">
        <ele>94.8</ele>
        <time>2026-08-11T13:49:08.000Z</time>
      </trkpt>
      <trkpt lat="45.6304" lon="0.37626">
        <ele>94.8</ele>
        <time>2026-08-11T13:49:13.000Z</time>
      </trkpt>
      <trkpt lat="45.63055" lon="0.376">
        <ele>94.4</ele>
        <time>2026-08-11T13:49:20.000Z</time>
      </trkpt>
      <trkpt lat="45.6306" lon="0.37591">
        <ele>94.4</ele>
        <time>2026-08-11T13:49:24.000Z</time>
      </trkpt>
      <trkpt lat="45.63062" lon="0.37589">
        <ele>94.4</ele>
        <time>2026-08-11T13:49:27.000Z</time>
      </trkpt>
      <trkpt lat="45.63066" lon="0.37583">
        <ele>94.3</ele>
        <time>2026-08-11T13:51:24.000Z</time>
      </trkpt>
      <trkpt lat="45.63073" lon="0.3757">
        <ele>94.2</ele>
        <time>2026-08-11T13:51:30.000Z</time>
      </trkpt>
      <trkpt lat="45.63084" lon="0.37555">
        <ele>94</ele>
        <time>2026-08-11T13:51:35.000Z</time>
      </trkpt>
      <trkpt lat="45.63097" lon="0.37533">
        <ele>93.8</ele>
        <time>2026-08-11T13:51:42.000Z</time>
      </trkpt>
      <trkpt lat="45.63111" lon="0.37512">
        <ele>94.2</ele>
        <time>2026-08-11T13:51:48.000Z</time>
      </trkpt>
      <trkpt lat="45.63124" lon="0.37489">
        <ele>94.9</ele>
        <time>2026-08-11T13:51:53.000Z</time>
      </trkpt>
      <trkpt lat="45.63139" lon="0.37464">
        <ele>93.9</ele>
        <time>2026-08-11T13:51:59.000Z</time>
      </trkpt>
      <trkpt lat="45.63158" lon="0.37437">
        <ele>93.5</ele>
        <time>2026-08-11T13:52:05.000Z</time>
      </trkpt>
      <trkpt lat="45.63176" lon="0.37405">
        <ele>94.1</ele>
        <time>2026-08-11T13:52:12.000Z</time>
      </trkpt>
      <trkpt lat="45.63191" lon="0.37384">
        <ele>93.2</ele>
        <time>2026-08-11T13:52:17.000Z</time>
      </trkpt>
      <trkpt lat="45.63201" lon="0.37357">
        <ele>94.7</ele>
        <time>2026-08-11T13:52:23.000Z</time>
      </trkpt>
      <trkpt lat="45.63218" lon="0.37332">
        <ele>93.9</ele>
        <time>2026-08-11T13:52:29.000Z</time>
      </trkpt>
      <trkpt lat="45.63234" lon="0.37298">
        <ele>95.6</ele>
        <time>2026-08-11T13:52:36.000Z</time>
      </trkpt>
      <trkpt lat="45.63248" lon="0.37278">
        <ele>95.2</ele>
        <time>2026-08-11T13:52:42.000Z</time>
      </trkpt>
      <trkpt lat="45.6326" lon="0.37264">
        <ele>95.7</ele>
        <time>2026-08-11T13:52:47.000Z</time>
      </trkpt>
      <trkpt lat="45.63277" lon="0.37244">
        <ele>95.6</ele>
        <time>2026-08-11T13:52:53.000Z</time>
      </trkpt>
      <trkpt lat="45.63295" lon="0.37219">
        <ele>95.6</ele>
        <time>2026-08-11T13:53:00.000Z</time>
      </trkpt>
      <trkpt lat="45.63319" lon="0.37195">
        <ele>94.1</ele>
        <time>2026-08-11T13:53:07.000Z</time>
      </trkpt>
      <trkpt lat="45.6334" lon="0.37175">
        <ele>94.4</ele>
        <time>2026-08-11T13:53:13.000Z</time>
      </trkpt>
      <trkpt lat="45.63357" lon="0.37161">
        <ele>93.8</ele>
        <time>2026-08-11T13:53:17.000Z</time>
      </trkpt>
      <trkpt lat="45.63387" lon="0.37144">
        <ele>93.7</ele>
        <time>2026-08-11T13:53:24.000Z</time>
      </trkpt>
      <trkpt lat="45.63401" lon="0.37137">
        <ele>93.3</ele>
        <time>2026-08-11T13:53:28.000Z</time>
      </trkpt>
      <trkpt lat="45.63406" lon="0.37134">
        <ele>93.2</ele>
        <time>2026-08-11T13:53:29.000Z</time>
      </trkpt>
      <trkpt lat="45.63448" lon="0.37106">
        <ele>93.8</ele>
        <time>2026-08-11T13:53:39.000Z</time>
      </trkpt>
      <trkpt lat="45.63463" lon="0.37101">
        <ele>94</ele>
        <time>2026-08-11T13:53:44.000Z</time>
      </trkpt>
      <trkpt lat="45.63479" lon="0.37087">
        <ele>94.8</ele>
        <time>2026-08-11T13:53:51.000Z</time>
      </trkpt>
      <trkpt lat="45.63495" lon="0.37075">
        <ele>95.9</ele>
        <time>2026-08-11T13:53:57.000Z</time>
      </trkpt>
      <trkpt lat="45.63509" lon="0.37067">
        <ele>96.1</ele>
        <time>2026-08-11T13:54:02.000Z</time>
      </trkpt>
      <trkpt lat="45.63537" lon="0.37049">
        <ele>95.6</ele>
        <time>2026-08-11T13:54:09.000Z</time>
      </trkpt>
      <trkpt lat="45.63564" lon="0.37028">
        <ele>94.8</ele>
        <time>2026-08-11T13:54:16.000Z</time>
      </trkpt>
      <trkpt lat="45.63572" lon="0.37019">
        <ele>94.9</ele>
        <time>2026-08-11T13:54:19.000Z</time>
      </trkpt>
      <trkpt lat="45.63586" lon="0.37006">
        <ele>94.7</ele>
        <time>2026-08-11T13:54:23.000Z</time>
      </trkpt>
      <trkpt lat="45.63608" lon="0.36984">
        <ele>94</ele>
        <time>2026-08-11T13:54:30.000Z</time>
      </trkpt>
      <trkpt lat="45.63635" lon="0.36958">
        <ele>93.7</ele>
        <time>2026-08-11T13:54:37.000Z</time>
      </trkpt>
      <trkpt lat="45.63651" lon="0.36938">
        <ele>94</ele>
        <time>2026-08-11T13:54:43.000Z</time>
      </trkpt>
      <trkpt lat="45.63667" lon="0.36915">
        <ele>93.2</ele>
        <time>2026-08-11T13:54:49.000Z</time>
      </trkpt>
      <trkpt lat="45.63679" lon="0.36896">
        <ele>93.3</ele>
        <time>2026-08-11T13:54:53.000Z</time>
      </trkpt>
      <trkpt lat="45.63687" lon="0.36887">
        <ele>92.6</ele>
        <time>2026-08-11T13:54:55.000Z</time>
      </trkpt>
      <trkpt lat="45.63705" lon="0.36856">
        <ele>93</ele>
        <time>2026-08-11T13:55:01.000Z</time>
      </trkpt>
      <trkpt lat="45.63712" lon="0.36845">
        <ele>92.7</ele>
        <time>2026-08-11T13:55:03.000Z</time>
      </trkpt>
      <trkpt lat="45.63722" lon="0.36829">
        <ele>92.3</ele>
        <time>2026-08-11T13:55:06.000Z</time>
      </trkpt>
      <trkpt lat="45.6374" lon="0.36804">
        <ele>92.2</ele>
        <time>2026-08-11T13:55:11.000Z</time>
      </trkpt>
      <trkpt lat="45.63767" lon="0.36764">
        <ele>93.2</ele>
        <time>2026-08-11T13:55:20.000Z</time>
      </trkpt>
      <trkpt lat="45.63797" lon="0.36718">
        <ele>92.7</ele>
        <time>2026-08-11T13:55:29.000Z</time>
      </trkpt>
      <trkpt lat="45.63814" lon="0.36693">
        <ele>92.6</ele>
        <time>2026-08-11T13:55:34.000Z</time>
      </trkpt>
      <trkpt lat="45.63824" lon="0.36677">
        <ele>93</ele>
        <time>2026-08-11T13:55:37.000Z</time>
      </trkpt>
      <trkpt lat="45.6383" lon="0.36668">
        <ele>92.5</ele>
        <time>2026-08-11T13:55:39.000Z</time>
      </trkpt>
      <trkpt lat="45.63836" lon="0.36658">
        <ele>92.5</ele>
        <time>2026-08-11T13:55:41.000Z</time>
      </trkpt>
      <trkpt lat="45.63846" lon="0.36644">
        <ele>92.4</ele>
        <time>2026-08-11T13:55:44.000Z</time>
      </trkpt>
      <trkpt lat="45.6387" lon="0.36609">
        <ele>91.5</ele>
        <time>2026-08-11T13:55:51.000Z</time>
      </trkpt>
      <trkpt lat="45.63893" lon="0.36576">
        <ele>91.1</ele>
        <time>2026-08-11T13:55:58.000Z</time>
      </trkpt>
      <trkpt lat="45.63904" lon="0.36562">
        <ele>91.2</ele>
        <time>2026-08-11T13:56:01.000Z</time>
      </trkpt>
      <trkpt lat="45.63907" lon="0.36558">
        <ele>91.3</ele>
        <time>2026-08-11T13:56:02.000Z</time>
      </trkpt>
      <trkpt lat="45.63918" lon="0.36546">
        <ele>91.3</ele>
        <time>2026-08-11T13:56:05.000Z</time>
      </trkpt>
      <trkpt lat="45.63942" lon="0.36517">
        <ele>90.6</ele>
        <time>2026-08-11T13:56:12.000Z</time>
      </trkpt>
      <trkpt lat="45.63959" lon="0.36498">
        <ele>91.1</ele>
        <time>2026-08-11T13:56:17.000Z</time>
      </trkpt>
      <trkpt lat="45.63968" lon="0.36487">
        <ele>91.2</ele>
        <time>2026-08-11T13:56:20.000Z</time>
      </trkpt>
      <trkpt lat="45.63989" lon="0.36463">
        <ele>91.6</ele>
        <time>2026-08-11T13:56:26.000Z</time>
      </trkpt>
      <trkpt lat="45.64023" lon="0.36425">
        <ele>91.8</ele>
        <time>2026-08-11T13:56:35.000Z</time>
      </trkpt>
      <trkpt lat="45.6404" lon="0.36406">
        <ele>91.7</ele>
        <time>2026-08-11T13:56:41.000Z</time>
      </trkpt>
      <trkpt lat="45.64052" lon="0.36396">
        <ele>91.8</ele>
        <time>2026-08-11T13:56:46.000Z</time>
      </trkpt>
      <trkpt lat="45.64055" lon="0.36389">
        <ele>92</ele>
        <time>2026-08-11T13:56:48.000Z</time>
      </trkpt>
      <trkpt lat="45.64058" lon="0.36383">
        <ele>91.7</ele>
        <time>2026-08-11T13:56:50.000Z</time>
      </trkpt>
      <trkpt lat="45.64071" lon="0.36371">
        <ele>91.1</ele>
        <time>2026-08-11T13:56:54.000Z</time>
      </trkpt>
      <trkpt lat="45.64091" lon="0.36351">
        <ele>90.8</ele>
        <time>2026-08-11T13:57:00.000Z</time>
      </trkpt>
      <trkpt lat="45.64114" lon="0.36325">
        <ele>90.9</ele>
        <time>2026-08-11T13:57:08.000Z</time>
      </trkpt>
      <trkpt lat="45.64138" lon="0.363">
        <ele>91</ele>
        <time>2026-08-11T13:57:16.000Z</time>
      </trkpt>
      <trkpt lat="45.64161" lon="0.36276">
        <ele>91.1</ele>
        <time>2026-08-11T13:57:24.000Z</time>
      </trkpt>
      <trkpt lat="45.64176" lon="0.36259">
        <ele>91.3</ele>
        <time>2026-08-11T13:57:30.000Z</time>
      </trkpt>
      <trkpt lat="45.64199" lon="0.36234">
        <ele>92</ele>
        <time>2026-08-11T13:57:38.000Z</time>
      </trkpt>
      <trkpt lat="45.64226" lon="0.36205">
        <ele>92.2</ele>
        <time>2026-08-11T13:57:48.000Z</time>
      </trkpt>
      <trkpt lat="45.64256" lon="0.36174">
        <ele>92.4</ele>
        <time>2026-08-11T13:57:58.000Z</time>
      </trkpt>
      <trkpt lat="45.64276" lon="0.36151">
        <ele>92.2</ele>
        <time>2026-08-11T13:58:06.000Z</time>
      </trkpt>
      <trkpt lat="45.64281" lon="0.36145">
        <ele>92.3</ele>
        <time>2026-08-11T13:58:08.000Z</time>
      </trkpt>
      <trkpt lat="45.64292" lon="0.36135">
        <ele>92.3</ele>
        <time>2026-08-11T13:58:12.000Z</time>
      </trkpt>
      <trkpt lat="45.6431" lon="0.36116">
        <ele>92.2</ele>
        <time>2026-08-11T13:58:19.000Z</time>
      </trkpt>
      <trkpt lat="45.64313" lon="0.36114">
        <ele>92.1</ele>
        <time>2026-08-11T13:58:20.000Z</time>
      </trkpt>
      <trkpt lat="45.64321" lon="0.36106">
        <ele>91.8</ele>
        <time>2026-08-11T13:58:23.000Z</time>
      </trkpt>
      <trkpt lat="45.64336" lon="0.3609">
        <ele>92.9</ele>
        <time>2026-08-11T13:58:28.000Z</time>
      </trkpt>
      <trkpt lat="45.64359" lon="0.36065">
        <ele>93.1</ele>
        <time>2026-08-11T13:58:36.000Z</time>
      </trkpt>
      <trkpt lat="45.64376" lon="0.36045">
        <ele>94.6</ele>
        <time>2026-08-11T13:58:43.000Z</time>
      </trkpt>
      <trkpt lat="45.64399" lon="0.36021">
        <ele>95.4</ele>
        <time>2026-08-11T13:58:51.000Z</time>
      </trkpt>
      <trkpt lat="45.64402" lon="0.36018">
        <ele>95.5</ele>
        <time>2026-08-11T13:58:52.000Z</time>
      </trkpt>
      <trkpt lat="45.6442" lon="0.36002">
        <ele>95.8</ele>
        <time>2026-08-11T13:58:58.000Z</time>
      </trkpt>
      <trkpt lat="45.64439" lon="0.35981">
        <ele>95.8</ele>
        <time>2026-08-11T13:59:06.000Z</time>
      </trkpt>
      <trkpt lat="45.64442" lon="0.35977">
        <ele>95.9</ele>
        <time>2026-08-11T13:59:08.000Z</time>
      </trkpt>
      <trkpt lat="45.64443" lon="0.35976">
        <ele>95.9</ele>
        <time>2026-08-11T13:59:09.000Z</time>
      </trkpt>
      <trkpt lat="45.64449" lon="0.35971">
        <ele>95.8</ele>
        <time>2026-08-11T13:59:13.000Z</time>
      </trkpt>
      <trkpt lat="45.64451" lon="0.35971">
        <ele>95.7</ele>
        <time>2026-08-11T13:59:14.000Z</time>
      </trkpt>
      <trkpt lat="45.64463" lon="0.3598">
        <ele>95</ele>
        <time>2026-08-11T13:59:20.000Z</time>
      </trkpt>
      <trkpt lat="45.64481" lon="0.35996">
        <ele>93.5</ele>
        <time>2026-08-11T13:59:26.000Z</time>
      </trkpt>
      <trkpt lat="45.64494" lon="0.36009">
        <ele>92</ele>
        <time>2026-08-11T13:59:31.000Z</time>
      </trkpt>
      <trkpt lat="45.64496" lon="0.36011">
        <ele>91.8</ele>
        <time>2026-08-11T13:59:32.000Z</time>
      </trkpt>
      <trkpt lat="45.64501" lon="0.36021">
        <ele>91.2</ele>
        <time>2026-08-11T13:59:35.000Z</time>
      </trkpt>
      <trkpt lat="45.64505" lon="0.36031">
        <ele>90.7</ele>
        <time>2026-08-11T13:59:37.000Z</time>
      </trkpt>
      <trkpt lat="45.64509" lon="0.36042">
        <ele>90.3</ele>
        <time>2026-08-11T13:59:39.000Z</time>
      </trkpt>
      <trkpt lat="45.64524" lon="0.36087">
        <ele>89.9</ele>
        <time>2026-08-11T13:59:45.000Z</time>
      </trkpt>
      <trkpt lat="45.64538" lon="0.36125">
        <ele>89.3</ele>
        <time>2026-08-11T13:59:50.000Z</time>
      </trkpt>
      <trkpt lat="45.6454" lon="0.36132">
        <ele>89.7</ele>
        <time>2026-08-11T13:59:51.000Z</time>
      </trkpt>
      <trkpt lat="45.6455" lon="0.3616">
        <ele>90</ele>
        <time>2026-08-11T13:59:56.000Z</time>
      </trkpt>
      <trkpt lat="45.64561" lon="0.36181">
        <ele>89.4</ele>
        <time>2026-08-11T14:00:02.000Z</time>
      </trkpt>
      <trkpt lat="45.64564" lon="0.36187">
        <ele>89.3</ele>
        <time>2026-08-11T14:00:05.000Z</time>
      </trkpt>
      <trkpt lat="45.64564" lon="0.36187">
        <ele>89.3</ele>
        <time>2026-08-11T14:00:07.000Z</time>
      </trkpt>
      <trkpt lat="45.64564" lon="0.36187">
        <ele>89.3</ele>
        <time>2026-08-11T14:00:08.000Z</time>
      </trkpt>
      <trkpt lat="45.64566" lon="0.36194">
        <ele>89.4</ele>
        <time>2026-08-11T14:01:40.000Z</time>
      </trkpt>
      <trkpt lat="45.64569" lon="0.36201">
        <ele>89.6</ele>
        <time>2026-08-11T14:01:42.000Z</time>
      </trkpt>
      <trkpt lat="45.64574" lon="0.36228">
        <ele>90</ele>
        <time>2026-08-11T14:01:48.000Z</time>
      </trkpt>
      <trkpt lat="45.64576" lon="0.36234">
        <ele>90</ele>
        <time>2026-08-11T14:01:49.000Z</time>
      </trkpt>
      <trkpt lat="45.64584" lon="0.3626">
        <ele>89.6</ele>
        <time>2026-08-11T14:01:53.000Z</time>
      </trkpt>
      <trkpt lat="45.64598" lon="0.36305">
        <ele>90</ele>
        <time>2026-08-11T14:02:00.000Z</time>
      </trkpt>
      <trkpt lat="45.64614" lon="0.36352">
        <ele>89.9</ele>
        <time>2026-08-11T14:02:08.000Z</time>
      </trkpt>
      <trkpt lat="45.64628" lon="0.36395">
        <ele>90</ele>
        <time>2026-08-11T14:02:16.000Z</time>
      </trkpt>
      <trkpt lat="45.64636" lon="0.3642">
        <ele>90</ele>
        <time>2026-08-11T14:02:22.000Z</time>
      </trkpt>
      <trkpt lat="45.64641" lon="0.36433">
        <ele>90</ele>
        <time>2026-08-11T14:02:27.000Z</time>
      </trkpt>
      <trkpt lat="45.64649" lon="0.36446">
        <ele>90</ele>
        <time>2026-08-11T14:02:32.000Z</time>
      </trkpt>
      <trkpt lat="45.64652" lon="0.36471">
        <ele>89.5</ele>
        <time>2026-08-11T14:02:38.000Z</time>
      </trkpt>
      <trkpt lat="45.64656" lon="0.36504">
        <ele>89.7</ele>
        <time>2026-08-11T14:02:46.000Z</time>
      </trkpt>
      <trkpt lat="45.64659" lon="0.36533">
        <ele>90</ele>
        <time>2026-08-11T14:02:53.000Z</time>
      </trkpt>
      <trkpt lat="45.64668" lon="0.36559">
        <ele>90</ele>
        <time>2026-08-11T14:02:59.000Z</time>
      </trkpt>
      <trkpt lat="45.6468" lon="0.36578">
        <ele>89.6</ele>
        <time>2026-08-11T14:03:04.000Z</time>
      </trkpt>
      <trkpt lat="45.64691" lon="0.36598">
        <ele>89.6</ele>
        <time>2026-08-11T14:03:10.000Z</time>
      </trkpt>
      <trkpt lat="45.64701" lon="0.36617">
        <ele>90</ele>
        <time>2026-08-11T14:03:17.000Z</time>
      </trkpt>
      <trkpt lat="45.64711" lon="0.36633">
        <ele>90</ele>
        <time>2026-08-11T14:03:24.000Z</time>
      </trkpt>
      <trkpt lat="45.64716" lon="0.36643">
        <ele>90.2</ele>
        <time>2026-08-11T14:03:31.000Z</time>
      </trkpt>
      <trkpt lat="45.64716" lon="0.36649">
        <ele>90.4</ele>
        <time>2026-08-11T14:03:36.000Z</time>
      </trkpt>
      <trkpt lat="45.64711" lon="0.36652">
        <ele>90.5</ele>
        <time>2026-08-11T14:03:40.000Z</time>
      </trkpt>
      <trkpt lat="45.6471" lon="0.36654">
        <ele>90.5</ele>
        <time>2026-08-11T14:03:41.000Z</time>
      </trkpt>
      <trkpt lat="45.6471" lon="0.36657">
        <ele>90.6</ele>
        <time>2026-08-11T14:03:43.000Z</time>
      </trkpt>
      <trkpt lat="45.64714" lon="0.36655">
        <ele>90.6</ele>
        <time>2026-08-11T14:03:46.000Z</time>
      </trkpt>
      <trkpt lat="45.64718" lon="0.36654">
        <ele>90.5</ele>
        <time>2026-08-11T14:03:48.000Z</time>
      </trkpt>
      <trkpt lat="45.64722" lon="0.36657">
        <ele>90.7</ele>
        <time>2026-08-11T14:03:50.000Z</time>
      </trkpt>
      <trkpt lat="45.64731" lon="0.36675">
        <ele>91.3</ele>
        <time>2026-08-11T14:03:56.000Z</time>
      </trkpt>
      <trkpt lat="45.64733" lon="0.36679">
        <ele>91.5</ele>
        <time>2026-08-11T14:03:58.000Z</time>
      </trkpt>
      <trkpt lat="45.64732" lon="0.36681">
        <ele>91.5</ele>
        <time>2026-08-11T14:04:00.000Z</time>
      </trkpt>
      <trkpt lat="45.64729" lon="0.3668">
        <ele>91.5</ele>
        <time>2026-08-11T14:04:02.000Z</time>
      </trkpt>
      <trkpt lat="45.64724" lon="0.36684">
        <ele>91.6</ele>
        <time>2026-08-11T14:04:05.000Z</time>
      </trkpt>
      <trkpt lat="45.64712" lon="0.36698">
        <ele>91.8</ele>
        <time>2026-08-11T14:04:13.000Z</time>
      </trkpt>
      <trkpt lat="45.6471" lon="0.36701">
        <ele>91.9</ele>
        <time>2026-08-11T14:04:15.000Z</time>
      </trkpt>
      <trkpt lat="45.64705" lon="0.36706">
        <ele>92</ele>
        <time>2026-08-11T14:04:18.000Z</time>
      </trkpt>
      <trkpt lat="45.64704" lon="0.36709">
        <ele>92.2</ele>
        <time>2026-08-11T14:04:19.000Z</time>
      </trkpt>
      <trkpt lat="45.64705" lon="0.36724">
        <ele>93</ele>
        <time>2026-08-11T14:04:24.000Z</time>
      </trkpt>
      <trkpt lat="45.64707" lon="0.36726">
        <ele>93.1</ele>
        <time>2026-08-11T14:04:25.000Z</time>
      </trkpt>
      <trkpt lat="45.64711" lon="0.36738">
        <ele>93.6</ele>
        <time>2026-08-11T14:04:30.000Z</time>
      </trkpt>
      <trkpt lat="45.64713" lon="0.36744">
        <ele>93.8</ele>
        <time>2026-08-11T14:04:33.000Z</time>
      </trkpt>
      <trkpt lat="45.64716" lon="0.36752">
        <ele>94</ele>
        <time>2026-08-11T14:04:38.000Z</time>
      </trkpt>
      <trkpt lat="45.64717" lon="0.36755">
        <ele>94</ele>
        <time>2026-08-11T14:04:39.000Z</time>
      </trkpt>
      <trkpt lat="45.64723" lon="0.36774">
        <ele>94</ele>
        <time>2026-08-11T14:04:47.000Z</time>
      </trkpt>
      <trkpt lat="45.64726" lon="0.36788">
        <ele>94.8</ele>
        <time>2026-08-11T14:04:54.000Z</time>
      </trkpt>
      <trkpt lat="45.64726" lon="0.3679">
        <ele>94.9</ele>
        <time>2026-08-11T14:04:55.000Z</time>
      </trkpt>
      <trkpt lat="45.64715" lon="0.36802">
        <ele>95.5</ele>
        <time>2026-08-11T14:05:03.000Z</time>
      </trkpt>
      <trkpt lat="45.64709" lon="0.36807">
        <ele>95.6</ele>
        <time>2026-08-11T14:05:06.000Z</time>
      </trkpt>
      <trkpt lat="45.64704" lon="0.36811">
        <ele>95.6</ele>
        <time>2026-08-11T14:05:09.000Z</time>
      </trkpt>
      <trkpt lat="45.64691" lon="0.36822">
        <ele>96</ele>
        <time>2026-08-11T14:05:16.000Z</time>
      </trkpt>
      <trkpt lat="45.64676" lon="0.3684">
        <ele>96</ele>
        <time>2026-08-11T14:05:23.000Z</time>
      </trkpt>
      <trkpt lat="45.64667" lon="0.36859">
        <ele>96.8</ele>
        <time>2026-08-11T14:05:30.000Z</time>
      </trkpt>
      <trkpt lat="45.64673" lon="0.3687">
        <ele>97.1</ele>
        <time>2026-08-11T14:05:35.000Z</time>
      </trkpt>
      <trkpt lat="45.64675" lon="0.36873">
        <ele>97.1</ele>
        <time>2026-08-11T14:05:37.000Z</time>
      </trkpt>
      <trkpt lat="45.64686" lon="0.36885">
        <ele>97.6</ele>
        <time>2026-08-11T14:05:44.000Z</time>
      </trkpt>
      <trkpt lat="45.64694" lon="0.36896">
        <ele>98.8</ele>
        <time>2026-08-11T14:05:50.000Z</time>
      </trkpt>
      <trkpt lat="45.64696" lon="0.36898">
        <ele>98.9</ele>
        <time>2026-08-11T14:05:51.000Z</time>
      </trkpt>
      <trkpt lat="45.64702" lon="0.36908">
        <ele>99.7</ele>
        <time>2026-08-11T14:05:57.000Z</time>
      </trkpt>
      <trkpt lat="45.64703" lon="0.3691">
        <ele>99.8</ele>
        <time>2026-08-11T14:05:58.000Z</time>
      </trkpt>
      <trkpt lat="45.64708" lon="0.36922">
        <ele>100.1</ele>
        <time>2026-08-11T14:06:04.000Z</time>
      </trkpt>
      <trkpt lat="45.64708" lon="0.36926">
        <ele>100</ele>
        <time>2026-08-11T14:06:06.000Z</time>
      </trkpt>
      <trkpt lat="45.64708" lon="0.3694">
        <ele>100</ele>
        <time>2026-08-11T14:06:12.000Z</time>
      </trkpt>
      <trkpt lat="45.64709" lon="0.3695">
        <ele>100</ele>
        <time>2026-08-11T14:06:16.000Z</time>
      </trkpt>
      <trkpt lat="45.64708" lon="0.36956">
        <ele>100.3</ele>
        <time>2026-08-11T14:06:19.000Z</time>
      </trkpt>
      <trkpt lat="45.64701" lon="0.36953">
        <ele>100.8</ele>
        <time>2026-08-11T14:06:24.000Z</time>
      </trkpt>
      <trkpt lat="45.64697" lon="0.36951">
        <ele>101.1</ele>
        <time>2026-08-11T14:06:26.000Z</time>
      </trkpt>
      <trkpt lat="45.64692" lon="0.36953">
        <ele>101.2</ele>
        <time>2026-08-11T14:06:28.000Z</time>
      </trkpt>
      <trkpt lat="45.64686" lon="0.36956">
        <ele>101.1</ele>
        <time>2026-08-11T14:06:32.000Z</time>
      </trkpt>
      <trkpt lat="45.64686" lon="0.36956">
        <ele>101.1</ele>
        <time>2026-08-11T14:06:33.000Z</time>
      </trkpt>
      <trkpt lat="45.64686" lon="0.36956">
        <ele>101.1</ele>
        <time>2026-08-11T14:06:35.000Z</time>
      </trkpt>
      <trkpt lat="45.64675" lon="0.3695">
        <ele>100.5</ele>
        <time>2026-08-11T14:06:44.000Z</time>
      </trkpt>
      <trkpt lat="45.64673" lon="0.36948">
        <ele>100.3</ele>
        <time>2026-08-11T14:06:46.000Z</time>
      </trkpt>
      <trkpt lat="45.64672" lon="0.36947">
        <ele>100.3</ele>
        <time>2026-08-11T14:06:47.000Z</time>
      </trkpt>
      <trkpt lat="45.64673" lon="0.36946">
        <ele>100.3</ele>
        <time>2026-08-11T14:06:49.000Z</time>
      </trkpt>
      <trkpt lat="45.64673" lon="0.36946">
        <ele>100.3</ele>
        <time>2026-08-11T14:06:50.000Z</time>
      </trkpt>
      <trkpt lat="45.64697" lon="0.36953">
        <ele>101.1</ele>
        <time>2026-08-12T06:34:21.000Z</time>
      </trkpt>
      <trkpt lat="45.64698" lon="0.36953">
        <ele>101</ele>
        <time>2026-08-12T06:34:22.000Z</time>
      </trkpt>
      <trkpt lat="45.64699" lon="0.36955">
        <ele>101</ele>
        <time>2026-08-12T06:34:24.000Z</time>
      </trkpt>
      <trkpt lat="45.64701" lon="0.36955">
        <ele>100.8</ele>
        <time>2026-08-12T06:34:27.000Z</time>
      </trkpt>
      <trkpt lat="45.64705" lon="0.36955">
        <ele>100.5</ele>
        <time>2026-08-12T06:34:31.000Z</time>
      </trkpt>
      <trkpt lat="45.64707" lon="0.36955">
        <ele>100.3</ele>
        <time>2026-08-12T06:34:33.000Z</time>
      </trkpt>
      <trkpt lat="45.64708" lon="0.36954">
        <ele>100.2</ele>
        <time>2026-08-12T06:34:34.000Z</time>
      </trkpt>
      <trkpt lat="45.6471" lon="0.36934">
        <ele>99.9</ele>
        <time>2026-08-12T06:34:41.000Z</time>
      </trkpt>
      <trkpt lat="45.64705" lon="0.36916">
        <ele>100.2</ele>
        <time>2026-08-12T06:34:45.000Z</time>
      </trkpt>
      <trkpt lat="45.64692" lon="0.369">
        <ele>99.1</ele>
        <time>2026-08-12T06:34:50.000Z</time>
      </trkpt>
      <trkpt lat="45.64686" lon="0.36891">
        <ele>97.9</ele>
        <time>2026-08-12T06:34:52.000Z</time>
      </trkpt>
      <trkpt lat="45.64673" lon="0.36872">
        <ele>97.1</ele>
        <time>2026-08-12T06:34:56.000Z</time>
      </trkpt>
      <trkpt lat="45.64668" lon="0.36864">
        <ele>97</ele>
        <time>2026-08-12T06:34:58.000Z</time>
      </trkpt>
      <trkpt lat="45.64667" lon="0.36861">
        <ele>97</ele>
        <time>2026-08-12T06:34:59.000Z</time>
      </trkpt>
      <trkpt lat="45.64668" lon="0.36858">
        <ele>96.8</ele>
        <time>2026-08-12T06:35:00.000Z</time>
      </trkpt>
      <trkpt lat="45.64673" lon="0.36846">
        <ele>96.1</ele>
        <time>2026-08-12T06:35:03.000Z</time>
      </trkpt>
      <trkpt lat="45.64679" lon="0.36838">
        <ele>96.1</ele>
        <time>2026-08-12T06:35:05.000Z</time>
      </trkpt>
      <trkpt lat="45.64698" lon="0.36821">
        <ele>96.1</ele>
        <time>2026-08-12T06:35:11.000Z</time>
      </trkpt>
      <trkpt lat="45.64714" lon="0.36809">
        <ele>95.8</ele>
        <time>2026-08-12T06:35:15.000Z</time>
      </trkpt>
      <trkpt lat="45.64721" lon="0.36804">
        <ele>95.8</ele>
        <time>2026-08-12T06:35:17.000Z</time>
      </trkpt>
      <trkpt lat="45.64729" lon="0.36796">
        <ele>95.2</ele>
        <time>2026-08-12T06:35:21.000Z</time>
      </trkpt>
      <trkpt lat="45.64727" lon="0.36791">
        <ele>95</ele>
        <time>2026-08-12T06:35:23.000Z</time>
      </trkpt>
      <trkpt lat="45.64725" lon="0.36783">
        <ele>94.5</ele>
        <time>2026-08-12T06:35:25.000Z</time>
      </trkpt>
      <trkpt lat="45.64716" lon="0.36756">
        <ele>94</ele>
        <time>2026-08-12T06:35:30.000Z</time>
      </trkpt>
      <trkpt lat="45.64715" lon="0.36752">
        <ele>94</ele>
        <time>2026-08-12T06:35:31.000Z</time>
      </trkpt>
      <trkpt lat="45.64706" lon="0.3672">
        <ele>92.9</ele>
        <time>2026-08-12T06:35:37.000Z</time>
      </trkpt>
      <trkpt lat="45.64704" lon="0.36715">
        <ele>92.6</ele>
        <time>2026-08-12T06:35:38.000Z</time>
      </trkpt>
      <trkpt lat="45.64705" lon="0.36708">
        <ele>92.2</ele>
        <time>2026-08-12T06:35:40.000Z</time>
      </trkpt>
      <trkpt lat="45.64713" lon="0.36701">
        <ele>92</ele>
        <time>2026-08-12T06:35:43.000Z</time>
      </trkpt>
      <trkpt lat="45.64715" lon="0.36699">
        <ele>91.9</ele>
        <time>2026-08-12T06:35:44.000Z</time>
      </trkpt>
      <trkpt lat="45.64722" lon="0.36688">
        <ele>91.7</ele>
        <time>2026-08-12T06:35:47.000Z</time>
      </trkpt>
      <trkpt lat="45.64721" lon="0.36683">
        <ele>91.6</ele>
        <time>2026-08-12T06:35:48.000Z</time>
      </trkpt>
      <trkpt lat="45.64714" lon="0.36665">
        <ele>90.9</ele>
        <time>2026-08-12T06:35:52.000Z</time>
      </trkpt>
      <trkpt lat="45.64715" lon="0.36657">
        <ele>90.6</ele>
        <time>2026-08-12T06:35:55.000Z</time>
      </trkpt>
      <trkpt lat="45.64716" lon="0.36655">
        <ele>90.6</ele>
        <time>2026-08-12T06:35:56.000Z</time>
      </trkpt>
      <trkpt lat="45.64717" lon="0.36652">
        <ele>90.5</ele>
        <time>2026-08-12T06:35:57.000Z</time>
      </trkpt>
      <trkpt lat="45.64716" lon="0.36644">
        <ele>90.2</ele>
        <time>2026-08-12T06:35:59.000Z</time>
      </trkpt>
      <trkpt lat="45.64714" lon="0.36639">
        <ele>90</ele>
        <time>2026-08-12T06:36:00.000Z</time>
      </trkpt>
      <trkpt lat="45.64707" lon="0.36625">
        <ele>90</ele>
        <time>2026-08-12T06:36:03.000Z</time>
      </trkpt>
      <trkpt lat="45.64699" lon="0.3661">
        <ele>90</ele>
        <time>2026-08-12T06:36:06.000Z</time>
      </trkpt>
      <trkpt lat="45.64694" lon="0.366">
        <ele>89.6</ele>
        <time>2026-08-12T06:36:08.000Z</time>
      </trkpt>
      <trkpt lat="45.6467" lon="0.36562">
        <ele>90</ele>
        <time>2026-08-12T06:36:17.000Z</time>
      </trkpt>
      <trkpt lat="45.64659" lon="0.36532">
        <ele>90</ele>
        <time>2026-08-12T06:36:24.000Z</time>
      </trkpt>
      <trkpt lat="45.64658" lon="0.36523">
        <ele>89.9</ele>
        <time>2026-08-12T06:36:28.000Z</time>
      </trkpt>
      <trkpt lat="45.64658" lon="0.36522">
        <ele>89.9</ele>
        <time>2026-08-12T06:36:29.000Z</time>
      </trkpt>
      <trkpt lat="45.64657" lon="0.3652">
        <ele>89.9</ele>
        <time>2026-08-12T06:36:31.000Z</time>
      </trkpt>
      <trkpt lat="45.64656" lon="0.36522">
        <ele>89.9</ele>
        <time>2026-08-12T06:36:33.000Z</time>
      </trkpt>
      <trkpt lat="45.64656" lon="0.36524">
        <ele>90</ele>
        <time>2026-08-12T06:36:34.000Z</time>
      </trkpt>
      <trkpt lat="45.64659" lon="0.3654">
        <ele>90</ele>
        <time>2026-08-12T06:36:38.000Z</time>
      </trkpt>
      <trkpt lat="45.6466" lon="0.36549">
        <ele>90</ele>
        <time>2026-08-12T06:36:40.000Z</time>
      </trkpt>
      <trkpt lat="45.64656" lon="0.36555">
        <ele>90</ele>
        <time>2026-08-12T06:36:42.000Z</time>
      </trkpt>
      <trkpt lat="45.64634" lon="0.36565">
        <ele>90.1</ele>
        <time>2026-08-12T06:36:48.000Z</time>
      </trkpt>
      <trkpt lat="45.64616" lon="0.36569">
        <ele>90.4</ele>
        <time>2026-08-12T06:36:53.000Z</time>
      </trkpt>
      <trkpt lat="45.64599" lon="0.36569">
        <ele>90.3</ele>
        <time>2026-08-12T06:36:58.000Z</time>
      </trkpt>
      <trkpt lat="45.64596" lon="0.36566">
        <ele>90.2</ele>
        <time>2026-08-12T06:36:59.000Z</time>
      </trkpt>
      <trkpt lat="45.64583" lon="0.36538">
        <ele>90</ele>
        <time>2026-08-12T06:37:05.000Z</time>
      </trkpt>
      <trkpt lat="45.6458" lon="0.36524">
        <ele>90</ele>
        <time>2026-08-12T06:37:09.000Z</time>
      </trkpt>
      <trkpt lat="45.64576" lon="0.36499">
        <ele>89.8</ele>
        <time>2026-08-12T06:37:14.000Z</time>
      </trkpt>
      <trkpt lat="45.64572" lon="0.36472">
        <ele>90</ele>
        <time>2026-08-12T06:37:18.000Z</time>
      </trkpt>
      <trkpt lat="45.64572" lon="0.36466">
        <ele>90</ele>
        <time>2026-08-12T06:37:19.000Z</time>
      </trkpt>
      <trkpt lat="45.64573" lon="0.36461">
        <ele>90</ele>
        <time>2026-08-12T06:37:20.000Z</time>
      </trkpt>
      <trkpt lat="45.64579" lon="0.36454">
        <ele>90</ele>
        <time>2026-08-12T06:37:22.000Z</time>
      </trkpt>
      <trkpt lat="45.64583" lon="0.36451">
        <ele>90</ele>
        <time>2026-08-12T06:37:23.000Z</time>
      </trkpt>
      <trkpt lat="45.64611" lon="0.36439">
        <ele>90</ele>
        <time>2026-08-12T06:37:30.000Z</time>
      </trkpt>
      <trkpt lat="45.64633" lon="0.36428">
        <ele>90</ele>
        <time>2026-08-12T06:37:35.000Z</time>
      </trkpt>
      <trkpt lat="45.64635" lon="0.36423">
        <ele>90</ele>
        <time>2026-08-12T06:37:36.000Z</time>
      </trkpt>
      <trkpt lat="45.64634" lon="0.36412">
        <ele>90</ele>
        <time>2026-08-12T06:37:38.000Z</time>
      </trkpt>
      <trkpt lat="45.64631" lon="0.36406">
        <ele>90</ele>
        <time>2026-08-12T06:37:39.000Z</time>
      </trkpt>
      <trkpt lat="45.6462" lon="0.36372">
        <ele>89.8</ele>
        <time>2026-08-12T06:37:45.000Z</time>
      </trkpt>
      <trkpt lat="45.64618" lon="0.36366">
        <ele>89.8</ele>
        <time>2026-08-12T06:37:46.000Z</time>
      </trkpt>
      <trkpt lat="45.64602" lon="0.36323">
        <ele>90</ele>
        <time>2026-08-12T06:37:54.000Z</time>
      </trkpt>
      <trkpt lat="45.64586" lon="0.36272">
        <ele>89.3</ele>
        <time>2026-08-12T06:38:03.000Z</time>
      </trkpt>
      <trkpt lat="45.64573" lon="0.36226">
        <ele>90</ele>
        <time>2026-08-12T06:38:12.000Z</time>
      </trkpt>
      <trkpt lat="45.64572" lon="0.36217">
        <ele>89.9</ele>
        <time>2026-08-12T06:38:14.000Z</time>
      </trkpt>
      <trkpt lat="45.64568" lon="0.36204">
        <ele>89.6</ele>
        <time>2026-08-12T06:38:17.000Z</time>
      </trkpt>
      <trkpt lat="45.64555" lon="0.36173">
        <ele>89.8</ele>
        <time>2026-08-12T06:38:25.000Z</time>
      </trkpt>
      <trkpt lat="45.64543" lon="0.36138">
        <ele>90</ele>
        <time>2026-08-12T06:38:32.000Z</time>
      </trkpt>
      <trkpt lat="45.64528" lon="0.36094">
        <ele>89.6</ele>
        <time>2026-08-12T06:38:39.000Z</time>
      </trkpt>
      <trkpt lat="45.64515" lon="0.36056">
        <ele>90</ele>
        <time>2026-08-12T06:38:46.000Z</time>
      </trkpt>
      <trkpt lat="45.64513" lon="0.36051">
        <ele>90.1</ele>
        <time>2026-08-12T06:38:47.000Z</time>
      </trkpt>
      <trkpt lat="45.64505" lon="0.36029">
        <ele>90.8</ele>
        <time>2026-08-12T06:38:53.000Z</time>
      </trkpt>
      <trkpt lat="45.64497" lon="0.36012">
        <ele>91.7</ele>
        <time>2026-08-12T06:38:59.000Z</time>
      </trkpt>
      <trkpt lat="45.64495" lon="0.3601">
        <ele>91.9</ele>
        <time>2026-08-12T06:39:00.000Z</time>
      </trkpt>
      <trkpt lat="45.64484" lon="0.35994">
        <ele>93.3</ele>
        <time>2026-08-12T06:39:06.000Z</time>
      </trkpt>
      <trkpt lat="45.64482" lon="0.35992">
        <ele>93.5</ele>
        <time>2026-08-12T06:39:07.000Z</time>
      </trkpt>
      <trkpt lat="45.64468" lon="0.35982">
        <ele>94.8</ele>
        <time>2026-08-12T06:39:13.000Z</time>
      </trkpt>
      <trkpt lat="45.64462" lon="0.35975">
        <ele>95.3</ele>
        <time>2026-08-12T06:39:16.000Z</time>
      </trkpt>
      <trkpt lat="45.64453" lon="0.35966">
        <ele>95.5</ele>
        <time>2026-08-12T06:39:21.000Z</time>
      </trkpt>
      <trkpt lat="45.64453" lon="0.35964">
        <ele>95.4</ele>
        <time>2026-08-12T06:39:22.000Z</time>
      </trkpt>
      <trkpt lat="45.64454" lon="0.35959">
        <ele>95.2</ele>
        <time>2026-08-12T06:39:24.000Z</time>
      </trkpt>
      <trkpt lat="45.64456" lon="0.35957">
        <ele>95</ele>
        <time>2026-08-12T06:39:25.000Z</time>
      </trkpt>
      <trkpt lat="45.64466" lon="0.35945">
        <ele>94.2</ele>
        <time>2026-08-12T06:39:29.000Z</time>
      </trkpt>
      <trkpt lat="45.64469" lon="0.35942">
        <ele>94.2</ele>
        <time>2026-08-12T06:39:30.000Z</time>
      </trkpt>
      <trkpt lat="45.6449" lon="0.3592">
        <ele>94.2</ele>
        <time>2026-08-12T06:39:37.000Z</time>
      </trkpt>
      <trkpt lat="45.64516" lon="0.35891">
        <ele>94.3</ele>
        <time>2026-08-12T06:39:45.000Z</time>
      </trkpt>
      <trkpt lat="45.64535" lon="0.3587">
        <ele>94.4</ele>
        <time>2026-08-12T06:39:51.000Z</time>
      </trkpt>
      <trkpt lat="45.64557" lon="0.35844">
        <ele>94.5</ele>
        <time>2026-08-12T06:39:57.000Z</time>
      </trkpt>
      <trkpt lat="45.64582" lon="0.35817">
        <ele>94.6</ele>
        <time>2026-08-12T06:40:04.000Z</time>
      </trkpt>
      <trkpt lat="45.64607" lon="0.35789">
        <ele>94.1</ele>
        <time>2026-08-12T06:40:11.000Z</time>
      </trkpt>
      <trkpt lat="45.64624" lon="0.35772">
        <ele>93.7</ele>
        <time>2026-08-12T06:40:16.000Z</time>
      </trkpt>
      <trkpt lat="45.64643" lon="0.35751">
        <ele>94.3</ele>
        <time>2026-08-12T06:40:22.000Z</time>
      </trkpt>
      <trkpt lat="45.64667" lon="0.35726">
        <ele>94.5</ele>
        <time>2026-08-12T06:40:28.000Z</time>
      </trkpt>
      <trkpt lat="45.64671" lon="0.35721">
        <ele>94.4</ele>
        <time>2026-08-12T06:40:29.000Z</time>
      </trkpt>
      <trkpt lat="45.64694" lon="0.35696">
        <ele>94.7</ele>
        <time>2026-08-12T06:40:35.000Z</time>
      </trkpt>
      <trkpt lat="45.64712" lon="0.35676">
        <ele>94.4</ele>
        <time>2026-08-12T06:40:40.000Z</time>
      </trkpt>
      <trkpt lat="45.64722" lon="0.35665">
        <ele>95.1</ele>
        <time>2026-08-12T06:40:43.000Z</time>
      </trkpt>
      <trkpt lat="45.64739" lon="0.35647">
        <ele>94.7</ele>
        <time>2026-08-12T06:40:48.000Z</time>
      </trkpt>
      <trkpt lat="45.64747" lon="0.35639">
        <ele>95.1</ele>
        <time>2026-08-12T06:40:51.000Z</time>
      </trkpt>
      <trkpt lat="45.64768" lon="0.35618">
        <ele>94.4</ele>
        <time>2026-08-12T06:40:57.000Z</time>
      </trkpt>
      <trkpt lat="45.64778" lon="0.35606">
        <ele>94.6</ele>
        <time>2026-08-12T06:41:00.000Z</time>
      </trkpt>
      <trkpt lat="45.64789" lon="0.35592">
        <ele>94.8</ele>
        <time>2026-08-12T06:41:03.000Z</time>
      </trkpt>
      <trkpt lat="45.64807" lon="0.35573">
        <ele>94.7</ele>
        <time>2026-08-12T06:41:08.000Z</time>
      </trkpt>
      <trkpt lat="45.64832" lon="0.35544">
        <ele>95.8</ele>
        <time>2026-08-12T06:41:15.000Z</time>
      </trkpt>
      <trkpt lat="45.64847" lon="0.35528">
        <ele>96.5</ele>
        <time>2026-08-12T06:41:19.000Z</time>
      </trkpt>
      <trkpt lat="45.64852" lon="0.35524">
        <ele>96.5</ele>
        <time>2026-08-12T06:41:20.000Z</time>
      </trkpt>
      <trkpt lat="45.64881" lon="0.35494">
        <ele>96.8</ele>
        <time>2026-08-12T06:41:28.000Z</time>
      </trkpt>
      <trkpt lat="45.64907" lon="0.35466">
        <ele>97.2</ele>
        <time>2026-08-12T06:41:35.000Z</time>
      </trkpt>
      <trkpt lat="45.64926" lon="0.35443">
        <ele>97.8</ele>
        <time>2026-08-12T06:41:41.000Z</time>
      </trkpt>
      <trkpt lat="45.64932" lon="0.35439">
        <ele>97.9</ele>
        <time>2026-08-12T06:41:43.000Z</time>
      </trkpt>
      <trkpt lat="45.64957" lon="0.35409">
        <ele>97.3</ele>
        <time>2026-08-12T06:41:52.000Z</time>
      </trkpt>
      <trkpt lat="45.64984" lon="0.35383">
        <ele>96.2</ele>
        <time>2026-08-12T06:41:59.000Z</time>
      </trkpt>
      <trkpt lat="45.65009" lon="0.35355">
        <ele>95.7</ele>
        <time>2026-08-12T06:42:06.000Z</time>
      </trkpt>
      <trkpt lat="45.65012" lon="0.35352">
        <ele>95.4</ele>
        <time>2026-08-12T06:42:07.000Z</time>
      </trkpt>
      <trkpt lat="45.65033" lon="0.3533">
        <ele>96.7</ele>
        <time>2026-08-12T06:42:13.000Z</time>
      </trkpt>
      <trkpt lat="45.65066" lon="0.35296">
        <ele>97.7</ele>
        <time>2026-08-12T06:42:22.000Z</time>
      </trkpt>
      <trkpt lat="45.65088" lon="0.35272">
        <ele>98.2</ele>
        <time>2026-08-12T06:42:30.000Z</time>
      </trkpt>
      <trkpt lat="45.65113" lon="0.35244">
        <ele>99.3</ele>
        <time>2026-08-12T06:42:38.000Z</time>
      </trkpt>
      <trkpt lat="45.65129" lon="0.35225">
        <ele>99.5</ele>
        <time>2026-08-12T06:42:43.000Z</time>
      </trkpt>
      <trkpt lat="45.65133" lon="0.35221">
        <ele>99.5</ele>
        <time>2026-08-12T06:42:44.000Z</time>
      </trkpt>
      <trkpt lat="45.65136" lon="0.35217">
        <ele>99.5</ele>
        <time>2026-08-12T06:42:45.000Z</time>
      </trkpt>
      <trkpt lat="45.65151" lon="0.35201">
        <ele>100.1</ele>
        <time>2026-08-12T06:42:50.000Z</time>
      </trkpt>
      <trkpt lat="45.65183" lon="0.35166">
        <ele>100.4</ele>
        <time>2026-08-12T06:42:59.000Z</time>
      </trkpt>
      <trkpt lat="45.65206" lon="0.35144">
        <ele>100.8</ele>
        <time>2026-08-12T06:43:05.000Z</time>
      </trkpt>
      <trkpt lat="45.6521" lon="0.3514">
        <ele>101</ele>
        <time>2026-08-12T06:43:06.000Z</time>
      </trkpt>
      <trkpt lat="45.65241" lon="0.35108">
        <ele>100.4</ele>
        <time>2026-08-12T06:43:15.000Z</time>
      </trkpt>
      <trkpt lat="45.65261" lon="0.35084">
        <ele>99.8</ele>
        <time>2026-08-12T06:43:21.000Z</time>
      </trkpt>
      <trkpt lat="45.65279" lon="0.35062">
        <ele>98.7</ele>
        <time>2026-08-12T06:43:27.000Z</time>
      </trkpt>
      <trkpt lat="45.65296" lon="0.35042">
        <ele>98.8</ele>
        <time>2026-08-12T06:43:33.000Z</time>
      </trkpt>
      <trkpt lat="45.65307" lon="0.35031">
        <ele>99.8</ele>
        <time>2026-08-12T06:43:36.000Z</time>
      </trkpt>
      <trkpt lat="45.65326" lon="0.3501">
        <ele>100.7</ele>
        <time>2026-08-12T06:43:42.000Z</time>
      </trkpt>
      <trkpt lat="45.65351" lon="0.34982">
        <ele>101.8</ele>
        <time>2026-08-12T06:43:49.000Z</time>
      </trkpt>
      <trkpt lat="45.65381" lon="0.34957">
        <ele>101.3</ele>
        <time>2026-08-12T06:43:57.000Z</time>
      </trkpt>
      <trkpt lat="45.65401" lon="0.34934">
        <ele>101.2</ele>
        <time>2026-08-12T06:44:03.000Z</time>
      </trkpt>
      <trkpt lat="45.65405" lon="0.3493">
        <ele>101.2</ele>
        <time>2026-08-12T06:44:04.000Z</time>
      </trkpt>
      <trkpt lat="45.65428" lon="0.34907">
        <ele>102.1</ele>
        <time>2026-08-12T06:44:11.000Z</time>
      </trkpt>
      <trkpt lat="45.65434" lon="0.349">
        <ele>102.3</ele>
        <time>2026-08-12T06:44:13.000Z</time>
      </trkpt>
      <trkpt lat="45.65459" lon="0.34874">
        <ele>103.5</ele>
        <time>2026-08-12T06:44:21.000Z</time>
      </trkpt>
      <trkpt lat="45.65472" lon="0.3486">
        <ele>104</ele>
        <time>2026-08-12T06:44:25.000Z</time>
      </trkpt>
      <trkpt lat="45.65482" lon="0.34851">
        <ele>104.5</ele>
        <time>2026-08-12T06:44:28.000Z</time>
      </trkpt>
      <trkpt lat="45.655" lon="0.34831">
        <ele>104.2</ele>
        <time>2026-08-12T06:44:34.000Z</time>
      </trkpt>
      <trkpt lat="45.65524" lon="0.34808">
        <ele>104.4</ele>
        <time>2026-08-12T06:44:40.000Z</time>
      </trkpt>
      <trkpt lat="45.65557" lon="0.3478">
        <ele>103.9</ele>
        <time>2026-08-12T06:44:48.000Z</time>
      </trkpt>
      <trkpt lat="45.65583" lon="0.34751">
        <ele>104.8</ele>
        <time>2026-08-12T06:44:55.000Z</time>
      </trkpt>
      <trkpt lat="45.65614" lon="0.3472">
        <ele>105.1</ele>
        <time>2026-08-12T06:45:04.000Z</time>
      </trkpt>
      <trkpt lat="45.65622" lon="0.34713">
        <ele>105.4</ele>
        <time>2026-08-12T06:45:06.000Z</time>
      </trkpt>
      <trkpt lat="45.6564" lon="0.34696">
        <ele>105</ele>
        <time>2026-08-12T06:45:11.000Z</time>
      </trkpt>
      <trkpt lat="45.65674" lon="0.34663">
        <ele>105.3</ele>
        <time>2026-08-12T06:45:20.000Z</time>
      </trkpt>
      <trkpt lat="45.65677" lon="0.34658">
        <ele>105.6</ele>
        <time>2026-08-12T06:45:21.000Z</time>
      </trkpt>
      <trkpt lat="45.65692" lon="0.34641">
        <ele>105.2</ele>
        <time>2026-08-12T06:45:25.000Z</time>
      </trkpt>
      <trkpt lat="45.65711" lon="0.34623">
        <ele>105.2</ele>
        <time>2026-08-12T06:45:30.000Z</time>
      </trkpt>
      <trkpt lat="45.65722" lon="0.34612">
        <ele>105</ele>
        <time>2026-08-12T06:45:33.000Z</time>
      </trkpt>
      <trkpt lat="45.65742" lon="0.34592">
        <ele>106.1</ele>
        <time>2026-08-12T06:45:38.000Z</time>
      </trkpt>
      <trkpt lat="45.6575" lon="0.34583">
        <ele>106</ele>
        <time>2026-08-12T06:45:40.000Z</time>
      </trkpt>
      <trkpt lat="45.65778" lon="0.34553">
        <ele>105</ele>
        <time>2026-08-12T06:45:47.000Z</time>
      </trkpt>
      <trkpt lat="45.65789" lon="0.34544">
        <ele>104.6</ele>
        <time>2026-08-12T06:45:50.000Z</time>
      </trkpt>
      <trkpt lat="45.6581" lon="0.3452">
        <ele>104.7</ele>
        <time>2026-08-12T06:45:56.000Z</time>
      </trkpt>
      <trkpt lat="45.65813" lon="0.34516">
        <ele>104.6</ele>
        <time>2026-08-12T06:45:57.000Z</time>
      </trkpt>
      <trkpt lat="45.65816" lon="0.34512">
        <ele>104.5</ele>
        <time>2026-08-12T06:45:58.000Z</time>
      </trkpt>
      <trkpt lat="45.6583" lon="0.34498">
        <ele>105</ele>
        <time>2026-08-12T06:46:02.000Z</time>
      </trkpt>
      <trkpt lat="45.65855" lon="0.34471">
        <ele>105.7</ele>
        <time>2026-08-12T06:46:09.000Z</time>
      </trkpt>
      <trkpt lat="45.65859" lon="0.34468">
        <ele>105.7</ele>
        <time>2026-08-12T06:46:10.000Z</time>
      </trkpt>
      <trkpt lat="45.65883" lon="0.34447">
        <ele>105.5</ele>
        <time>2026-08-12T06:46:16.000Z</time>
      </trkpt>
      <trkpt lat="45.65895" lon="0.34434">
        <ele>102.4</ele>
        <time>2026-08-12T06:46:19.000Z</time>
      </trkpt>
      <trkpt lat="45.65918" lon="0.3441">
        <ele>105.4</ele>
        <time>2026-08-12T06:46:25.000Z</time>
      </trkpt>
      <trkpt lat="45.65944" lon="0.34385">
        <ele>106.9</ele>
        <time>2026-08-12T06:46:33.000Z</time>
      </trkpt>
      <trkpt lat="45.65967" lon="0.34363">
        <ele>107.7</ele>
        <time>2026-08-12T06:46:40.000Z</time>
      </trkpt>
      <trkpt lat="45.65976" lon="0.34352">
        <ele>108.3</ele>
        <time>2026-08-12T06:46:43.000Z</time>
      </trkpt>
      <trkpt lat="45.65986" lon="0.34342">
        <ele>108.7</ele>
        <time>2026-08-12T06:46:47.000Z</time>
      </trkpt>
      <trkpt lat="45.65991" lon="0.34338">
        <ele>108.8</ele>
        <time>2026-08-12T06:46:49.000Z</time>
      </trkpt>
      <trkpt lat="45.65991" lon="0.34335">
        <ele>109</ele>
        <time>2026-08-12T06:46:50.000Z</time>
      </trkpt>
      <trkpt lat="45.65992" lon="0.3433">
        <ele>109</ele>
        <time>2026-08-12T06:46:51.000Z</time>
      </trkpt>
      <trkpt lat="45.65996" lon="0.34323">
        <ele>109</ele>
        <time>2026-08-12T06:46:53.000Z</time>
      </trkpt>
      <trkpt lat="45.66018" lon="0.34299">
        <ele>109.1</ele>
        <time>2026-08-12T06:47:00.000Z</time>
      </trkpt>
      <trkpt lat="45.66044" lon="0.34263">
        <ele>109.8</ele>
        <time>2026-08-12T06:47:09.000Z</time>
      </trkpt>
      <trkpt lat="45.66065" lon="0.34229">
        <ele>109.9</ele>
        <time>2026-08-12T06:47:17.000Z</time>
      </trkpt>
      <trkpt lat="45.66081" lon="0.34196">
        <ele>110.2</ele>
        <time>2026-08-12T06:47:24.000Z</time>
      </trkpt>
      <trkpt lat="45.66094" lon="0.34168">
        <ele>110.9</ele>
        <time>2026-08-12T06:47:30.000Z</time>
      </trkpt>
      <trkpt lat="45.66098" lon="0.34158">
        <ele>111.5</ele>
        <time>2026-08-12T06:47:32.000Z</time>
      </trkpt>
      <trkpt lat="45.66114" lon="0.34123">
        <ele>111.5</ele>
        <time>2026-08-12T06:47:39.000Z</time>
      </trkpt>
      <trkpt lat="45.66126" lon="0.34086">
        <ele>112.8</ele>
        <time>2026-08-12T06:47:46.000Z</time>
      </trkpt>
      <trkpt lat="45.66139" lon="0.34046">
        <ele>112</ele>
        <time>2026-08-12T06:47:54.000Z</time>
      </trkpt>
      <trkpt lat="45.66147" lon="0.34001">
        <ele>110.1</ele>
        <time>2026-08-12T06:48:02.000Z</time>
      </trkpt>
      <trkpt lat="45.66162" lon="0.3395">
        <ele>110.4</ele>
        <time>2026-08-12T06:48:10.000Z</time>
      </trkpt>
      <trkpt lat="45.66167" lon="0.33913">
        <ele>111.8</ele>
        <time>2026-08-12T06:48:17.000Z</time>
      </trkpt>
      <trkpt lat="45.66171" lon="0.33886">
        <ele>111.1</ele>
        <time>2026-08-12T06:48:21.000Z</time>
      </trkpt>
      <trkpt lat="45.66176" lon="0.33864">
        <ele>111.9</ele>
        <time>2026-08-12T06:48:25.000Z</time>
      </trkpt>
      <trkpt lat="45.66179" lon="0.33809">
        <ele>113.5</ele>
        <time>2026-08-12T06:48:34.000Z</time>
      </trkpt>
      <trkpt lat="45.66179" lon="0.33774">
        <ele>114.1</ele>
        <time>2026-08-12T06:48:40.000Z</time>
      </trkpt>
      <trkpt lat="45.66178" lon="0.33754">
        <ele>114.5</ele>
        <time>2026-08-12T06:48:43.000Z</time>
      </trkpt>
      <trkpt lat="45.66177" lon="0.33726">
        <ele>115</ele>
        <time>2026-08-12T06:48:47.000Z</time>
      </trkpt>
      <trkpt lat="45.66174" lon="0.33648">
        <ele>115.7</ele>
        <time>2026-08-12T06:48:58.000Z</time>
      </trkpt>
      <trkpt lat="45.66175" lon="0.33586">
        <ele>116</ele>
        <time>2026-08-12T06:49:07.000Z</time>
      </trkpt>
      <trkpt lat="45.66173" lon="0.33527">
        <ele>116.2</ele>
        <time>2026-08-12T06:49:15.000Z</time>
      </trkpt>
      <trkpt lat="45.66175" lon="0.3349">
        <ele>115.8</ele>
        <time>2026-08-12T06:49:21.000Z</time>
      </trkpt>
      <trkpt lat="45.66171" lon="0.33458">
        <ele>115.5</ele>
        <time>2026-08-12T06:49:26.000Z</time>
      </trkpt>
      <trkpt lat="45.66171" lon="0.33405">
        <ele>115.1</ele>
        <time>2026-08-12T06:49:33.000Z</time>
      </trkpt>
      <trkpt lat="45.6617" lon="0.33363">
        <ele>114.4</ele>
        <time>2026-08-12T06:49:39.000Z</time>
      </trkpt>
      <trkpt lat="45.66168" lon="0.33305">
        <ele>114.1</ele>
        <time>2026-08-12T06:49:47.000Z</time>
      </trkpt>
      <trkpt lat="45.66172" lon="0.33265">
        <ele>113.4</ele>
        <time>2026-08-12T06:49:53.000Z</time>
      </trkpt>
      <trkpt lat="45.66171" lon="0.33219">
        <ele>113.4</ele>
        <time>2026-08-12T06:49:59.000Z</time>
      </trkpt>
      <trkpt lat="45.66171" lon="0.33212">
        <ele>113.6</ele>
        <time>2026-08-12T06:50:00.000Z</time>
      </trkpt>
      <trkpt lat="45.66176" lon="0.33184">
        <ele>113.6</ele>
        <time>2026-08-12T06:50:04.000Z</time>
      </trkpt>
      <trkpt lat="45.6618" lon="0.33143">
        <ele>113.5</ele>
        <time>2026-08-12T06:50:10.000Z</time>
      </trkpt>
      <trkpt lat="45.66189" lon="0.33096">
        <ele>113.4</ele>
        <time>2026-08-12T06:50:17.000Z</time>
      </trkpt>
      <trkpt lat="45.66201" lon="0.33046">
        <ele>113.4</ele>
        <time>2026-08-12T06:50:24.000Z</time>
      </trkpt>
      <trkpt lat="45.66219" lon="0.32989">
        <ele>112.6</ele>
        <time>2026-08-12T06:50:32.000Z</time>
      </trkpt>
      <trkpt lat="45.66235" lon="0.32945">
        <ele>112</ele>
        <time>2026-08-12T06:50:39.000Z</time>
      </trkpt>
      <trkpt lat="45.66241" lon="0.32932">
        <ele>112</ele>
        <time>2026-08-12T06:50:42.000Z</time>
      </trkpt>
      <trkpt lat="45.66243" lon="0.32931">
        <ele>112</ele>
        <time>2026-08-12T06:50:43.000Z</time>
      </trkpt>
      <trkpt lat="45.66249" lon="0.32922">
        <ele>112</ele>
        <time>2026-08-12T06:50:47.000Z</time>
      </trkpt>
      <trkpt lat="45.6625" lon="0.32915">
        <ele>111.9</ele>
        <time>2026-08-12T06:50:49.000Z</time>
      </trkpt>
      <trkpt lat="45.66256" lon="0.32899">
        <ele>111.2</ele>
        <time>2026-08-12T06:50:52.000Z</time>
      </trkpt>
      <trkpt lat="45.66259" lon="0.32894">
        <ele>110.9</ele>
        <time>2026-08-12T06:50:53.000Z</time>
      </trkpt>
      <trkpt lat="45.66281" lon="0.32854">
        <ele>110.3</ele>
        <time>2026-08-12T06:51:00.000Z</time>
      </trkpt>
      <trkpt lat="45.66295" lon="0.32832">
        <ele>109</ele>
        <time>2026-08-12T06:51:04.000Z</time>
      </trkpt>
      <trkpt lat="45.66315" lon="0.32803">
        <ele>108.7</ele>
        <time>2026-08-12T06:51:09.000Z</time>
      </trkpt>
      <trkpt lat="45.66347" lon="0.32763">
        <ele>108</ele>
        <time>2026-08-12T06:51:17.000Z</time>
      </trkpt>
      <trkpt lat="45.66351" lon="0.32759">
        <ele>108.1</ele>
        <time>2026-08-12T06:51:18.000Z</time>
      </trkpt>
      <trkpt lat="45.66363" lon="0.32746">
        <ele>108.5</ele>
        <time>2026-08-12T06:51:21.000Z</time>
      </trkpt>
      <trkpt lat="45.66368" lon="0.32742">
        <ele>108</ele>
        <time>2026-08-12T06:51:22.000Z</time>
      </trkpt>
      <trkpt lat="45.66408" lon="0.32711">
        <ele>107.2</ele>
        <time>2026-08-12T06:51:30.000Z</time>
      </trkpt>
      <trkpt lat="45.66452" lon="0.32682">
        <ele>107.3</ele>
        <time>2026-08-12T06:51:38.000Z</time>
      </trkpt>
      <trkpt lat="45.66485" lon="0.32665">
        <ele>107.9</ele>
        <time>2026-08-12T06:51:44.000Z</time>
      </trkpt>
      <trkpt lat="45.66494" lon="0.32662">
        <ele>107.7</ele>
        <time>2026-08-12T06:51:46.000Z</time>
      </trkpt>
      <trkpt lat="45.66552" lon="0.32644">
        <ele>107</ele>
        <time>2026-08-12T06:51:57.000Z</time>
      </trkpt>
      <trkpt lat="45.66596" lon="0.32633">
        <ele>107.7</ele>
        <time>2026-08-12T06:52:06.000Z</time>
      </trkpt>
      <trkpt lat="45.66618" lon="0.32629">
        <ele>107.9</ele>
        <time>2026-08-12T06:52:11.000Z</time>
      </trkpt>
      <trkpt lat="45.66636" lon="0.32623">
        <ele>108.3</ele>
        <time>2026-08-12T06:52:15.000Z</time>
      </trkpt>
      <trkpt lat="45.66651" lon="0.32619">
        <ele>108.3</ele>
        <time>2026-08-12T06:52:20.000Z</time>
      </trkpt>
      <trkpt lat="45.66656" lon="0.32619">
        <ele>108.3</ele>
        <time>2026-08-12T06:52:25.000Z</time>
      </trkpt>
      <trkpt lat="45.66662" lon="0.32619">
        <ele>108.3</ele>
        <time>2026-08-12T06:52:33.000Z</time>
      </trkpt>
      <trkpt lat="45.66667" lon="0.32615">
        <ele>108.2</ele>
        <time>2026-08-12T06:52:35.000Z</time>
      </trkpt>
      <trkpt lat="45.6667" lon="0.32614">
        <ele>108.2</ele>
        <time>2026-08-12T06:52:36.000Z</time>
      </trkpt>
      <trkpt lat="45.66676" lon="0.32614">
        <ele>108.4</ele>
        <time>2026-08-12T06:52:38.000Z</time>
      </trkpt>
      <trkpt lat="45.66694" lon="0.3261">
        <ele>108.9</ele>
        <time>2026-08-12T06:52:43.000Z</time>
      </trkpt>
      <trkpt lat="45.66697" lon="0.3261">
        <ele>108.9</ele>
        <time>2026-08-12T06:52:44.000Z</time>
      </trkpt>
      <trkpt lat="45.66726" lon="0.32602">
        <ele>108.7</ele>
        <time>2026-08-12T06:52:51.000Z</time>
      </trkpt>
      <trkpt lat="45.66757" lon="0.32594">
        <ele>109</ele>
        <time>2026-08-12T06:52:58.000Z</time>
      </trkpt>
      <trkpt lat="45.66793" lon="0.32581">
        <ele>109.1</ele>
        <time>2026-08-12T06:53:06.000Z</time>
      </trkpt>
      <trkpt lat="45.66798" lon="0.32579">
        <ele>109.5</ele>
        <time>2026-08-12T06:53:07.000Z</time>
      </trkpt>
      <trkpt lat="45.66825" lon="0.32568">
        <ele>109.9</ele>
        <time>2026-08-12T06:53:13.000Z</time>
      </trkpt>
      <trkpt lat="45.66839" lon="0.32562">
        <ele>109.4</ele>
        <time>2026-08-12T06:53:16.000Z</time>
      </trkpt>
      <trkpt lat="45.66852" lon="0.32553">
        <ele>110</ele>
        <time>2026-08-12T06:53:19.000Z</time>
      </trkpt>
      <trkpt lat="45.66866" lon="0.32542">
        <ele>110.3</ele>
        <time>2026-08-12T06:53:22.000Z</time>
      </trkpt>
      <trkpt lat="45.66879" lon="0.32532">
        <ele>108.5</ele>
        <time>2026-08-12T06:53:25.000Z</time>
      </trkpt>
      <trkpt lat="45.66913" lon="0.32504">
        <ele>107.6</ele>
        <time>2026-08-12T06:53:32.000Z</time>
      </trkpt>
      <trkpt lat="45.66946" lon="0.32467">
        <ele>107.1</ele>
        <time>2026-08-12T06:53:40.000Z</time>
      </trkpt>
      <trkpt lat="45.66961" lon="0.32449">
        <ele>107.7</ele>
        <time>2026-08-12T06:53:44.000Z</time>
      </trkpt>
      <trkpt lat="45.66972" lon="0.32434">
        <ele>107.6</ele>
        <time>2026-08-12T06:53:47.000Z</time>
      </trkpt>
      <trkpt lat="45.66989" lon="0.32408">
        <ele>107.3</ele>
        <time>2026-08-12T06:53:52.000Z</time>
      </trkpt>
      <trkpt lat="45.66996" lon="0.32397">
        <ele>107.1</ele>
        <time>2026-08-12T06:53:54.000Z</time>
      </trkpt>
      <trkpt lat="45.67022" lon="0.32348">
        <ele>106.6</ele>
        <time>2026-08-12T06:54:03.000Z</time>
      </trkpt>
      <trkpt lat="45.67034" lon="0.3232">
        <ele>106.7</ele>
        <time>2026-08-12T06:54:08.000Z</time>
      </trkpt>
      <trkpt lat="45.67036" lon="0.32314">
        <ele>106.6</ele>
        <time>2026-08-12T06:54:09.000Z</time>
      </trkpt>
      <trkpt lat="45.67041" lon="0.32302">
        <ele>106.4</ele>
        <time>2026-08-12T06:54:11.000Z</time>
      </trkpt>
      <trkpt lat="45.67051" lon="0.32286">
        <ele>106.7</ele>
        <time>2026-08-12T06:54:14.000Z</time>
      </trkpt>
      <trkpt lat="45.67055" lon="0.32281">
        <ele>107</ele>
        <time>2026-08-12T06:54:15.000Z</time>
      </trkpt>
      <trkpt lat="45.67058" lon="0.32275">
        <ele>106.9</ele>
        <time>2026-08-12T06:54:16.000Z</time>
      </trkpt>
      <trkpt lat="45.67067" lon="0.32254">
        <ele>106.5</ele>
        <time>2026-08-12T06:54:19.000Z</time>
      </trkpt>
      <trkpt lat="45.67081" lon="0.32205">
        <ele>105.9</ele>
        <time>2026-08-12T06:54:25.000Z</time>
      </trkpt>
      <trkpt lat="45.67084" lon="0.32196">
        <ele>106</ele>
        <time>2026-08-12T06:54:26.000Z</time>
      </trkpt>
      <trkpt lat="45.67094" lon="0.32148">
        <ele>106.1</ele>
        <time>2026-08-12T06:54:31.000Z</time>
      </trkpt>
      <trkpt lat="45.67098" lon="0.32128">
        <ele>105.4</ele>
        <time>2026-08-12T06:54:33.000Z</time>
      </trkpt>
      <trkpt lat="45.67106" lon="0.32069">
        <ele>102.9</ele>
        <time>2026-08-12T06:54:39.000Z</time>
      </trkpt>
      <trkpt lat="45.67107" lon="0.3206">
        <ele>102.7</ele>
        <time>2026-08-12T06:54:40.000Z</time>
      </trkpt>
      <trkpt lat="45.67111" lon="0.32026">
        <ele>103</ele>
        <time>2026-08-12T06:54:44.000Z</time>
      </trkpt>
      <trkpt lat="45.67114" lon="0.32012">
        <ele>103.2</ele>
        <time>2026-08-12T06:54:46.000Z</time>
      </trkpt>
      <trkpt lat="45.67116" lon="0.31992">
        <ele>103.4</ele>
        <time>2026-08-12T06:54:49.000Z</time>
      </trkpt>
      <trkpt lat="45.67116" lon="0.31974">
        <ele>103.5</ele>
        <time>2026-08-12T06:54:52.000Z</time>
      </trkpt>
      <trkpt lat="45.67115" lon="0.31952">
        <ele>104</ele>
        <time>2026-08-12T06:54:56.000Z</time>
      </trkpt>
      <trkpt lat="45.67113" lon="0.31941">
        <ele>104.1</ele>
        <time>2026-08-12T06:54:58.000Z</time>
      </trkpt>
      <trkpt lat="45.67109" lon="0.31901">
        <ele>104.6</ele>
        <time>2026-08-12T06:55:04.000Z</time>
      </trkpt>
      <trkpt lat="45.67101" lon="0.31872">
        <ele>108.1</ele>
        <time>2026-08-12T06:55:09.000Z</time>
      </trkpt>
      <trkpt lat="45.67099" lon="0.31865">
        <ele>108.7</ele>
        <time>2026-08-12T06:55:11.000Z</time>
      </trkpt>
      <trkpt lat="45.671" lon="0.31861">
        <ele>109</ele>
        <time>2026-08-12T06:55:13.000Z</time>
      </trkpt>
      <trkpt lat="45.6712" lon="0.31829">
        <ele>107.6</ele>
        <time>2026-08-12T06:55:25.000Z</time>
      </trkpt>
      <trkpt lat="45.67121" lon="0.31824">
        <ele>107.1</ele>
        <time>2026-08-12T06:55:27.000Z</time>
      </trkpt>
      <trkpt lat="45.6712" lon="0.31817">
        <ele>106.5</ele>
        <time>2026-08-12T06:55:30.000Z</time>
      </trkpt>
      <trkpt lat="45.67122" lon="0.31805">
        <ele>105.6</ele>
        <time>2026-08-12T06:55:34.000Z</time>
      </trkpt>
      <trkpt lat="45.67125" lon="0.31785">
        <ele>106.4</ele>
        <time>2026-08-12T06:55:41.000Z</time>
      </trkpt>
      <trkpt lat="45.67129" lon="0.31762">
        <ele>106.5</ele>
        <time>2026-08-12T06:55:48.000Z</time>
      </trkpt>
      <trkpt lat="45.6713" lon="0.31755">
        <ele>106.4</ele>
        <time>2026-08-12T06:55:50.000Z</time>
      </trkpt>
      <trkpt lat="45.67133" lon="0.31731">
        <ele>106.4</ele>
        <time>2026-08-12T06:55:56.000Z</time>
      </trkpt>
      <trkpt lat="45.67137" lon="0.31708">
        <ele>106.6</ele>
        <time>2026-08-12T06:56:02.000Z</time>
      </trkpt>
      <trkpt lat="45.67138" lon="0.31703">
        <ele>106.8</ele>
        <time>2026-08-12T06:56:03.000Z</time>
      </trkpt>
      <trkpt lat="45.67141" lon="0.31675">
        <ele>107.1</ele>
        <time>2026-08-12T06:56:09.000Z</time>
      </trkpt>
      <trkpt lat="45.67142" lon="0.31633">
        <ele>108.6</ele>
        <time>2026-08-12T06:56:17.000Z</time>
      </trkpt>
      <trkpt lat="45.67142" lon="0.31622">
        <ele>109.3</ele>
        <time>2026-08-12T06:56:19.000Z</time>
      </trkpt>
      <trkpt lat="45.67142" lon="0.31618">
        <ele>109.6</ele>
        <time>2026-08-12T06:56:20.000Z</time>
      </trkpt>
      <trkpt lat="45.67143" lon="0.31608">
        <ele>110.1</ele>
        <time>2026-08-12T06:56:22.000Z</time>
      </trkpt>
      <trkpt lat="45.67138" lon="0.31574">
        <ele>108.9</ele>
        <time>2026-08-12T06:56:30.000Z</time>
      </trkpt>
      <trkpt lat="45.67131" lon="0.31547">
        <ele>108.5</ele>
        <time>2026-08-12T06:56:36.000Z</time>
      </trkpt>
      <trkpt lat="45.67125" lon="0.31527">
        <ele>108</ele>
        <time>2026-08-12T06:56:40.000Z</time>
      </trkpt>
      <trkpt lat="45.67106" lon="0.31483">
        <ele>108.1</ele>
        <time>2026-08-12T06:56:48.000Z</time>
      </trkpt>
      <trkpt lat="45.671" lon="0.31467">
        <ele>108.3</ele>
        <time>2026-08-12T06:56:51.000Z</time>
      </trkpt>
      <trkpt lat="45.67092" lon="0.31452">
        <ele>109</ele>
        <time>2026-08-12T06:56:55.000Z</time>
      </trkpt>
      <trkpt lat="45.67084" lon="0.31439">
        <ele>109.2</ele>
        <time>2026-08-12T06:57:00.000Z</time>
      </trkpt>
      <trkpt lat="45.67078" lon="0.31414">
        <ele>109.9</ele>
        <time>2026-08-12T06:57:07.000Z</time>
      </trkpt>
      <trkpt lat="45.67071" lon="0.31384">
        <ele>110.6</ele>
        <time>2026-08-12T06:57:14.000Z</time>
      </trkpt>
      <trkpt lat="45.67068" lon="0.31374">
        <ele>110.7</ele>
        <time>2026-08-12T06:57:16.000Z</time>
      </trkpt>
      <trkpt lat="45.67061" lon="0.31343">
        <ele>111.1</ele>
        <time>2026-08-12T06:57:22.000Z</time>
      </trkpt>
      <trkpt lat="45.6705" lon="0.3129">
        <ele>111.8</ele>
        <time>2026-08-12T06:57:32.000Z</time>
      </trkpt>
      <trkpt lat="45.67041" lon="0.31241">
        <ele>111.5</ele>
        <time>2026-08-12T06:57:41.000Z</time>
      </trkpt>
      <trkpt lat="45.67032" lon="0.31185">
        <ele>111.4</ele>
        <time>2026-08-12T06:57:50.000Z</time>
      </trkpt>
      <trkpt lat="45.67027" lon="0.31134">
        <ele>112.2</ele>
        <time>2026-08-12T06:57:58.000Z</time>
      </trkpt>
      <trkpt lat="45.67029" lon="0.3109">
        <ele>113</ele>
        <time>2026-08-12T06:58:05.000Z</time>
      </trkpt>
      <trkpt lat="45.67029" lon="0.31079">
        <ele>113</ele>
        <time>2026-08-12T06:58:07.000Z</time>
      </trkpt>
      <trkpt lat="45.67031" lon="0.31035">
        <ele>113.8</ele>
        <time>2026-08-12T06:58:15.000Z</time>
      </trkpt>
      <trkpt lat="45.67031" lon="0.3103">
        <ele>113.9</ele>
        <time>2026-08-12T06:58:16.000Z</time>
      </trkpt>
      <trkpt lat="45.67029" lon="0.30999">
        <ele>114</ele>
        <time>2026-08-12T06:58:22.000Z</time>
      </trkpt>
      <trkpt lat="45.67026" lon="0.30978">
        <ele>114.8</ele>
        <time>2026-08-12T06:58:26.000Z</time>
      </trkpt>
      <trkpt lat="45.67024" lon="0.30963">
        <ele>115.3</ele>
        <time>2026-08-12T06:58:29.000Z</time>
      </trkpt>
      <trkpt lat="45.67017" lon="0.30936">
        <ele>116.1</ele>
        <time>2026-08-12T06:58:36.000Z</time>
      </trkpt>
      <trkpt lat="45.67015" lon="0.30933">
        <ele>116.2</ele>
        <time>2026-08-12T06:58:37.000Z</time>
      </trkpt>
      <trkpt lat="45.67005" lon="0.30921">
        <ele>116.7</ele>
        <time>2026-08-12T06:58:41.000Z</time>
      </trkpt>
      <trkpt lat="45.67004" lon="0.30917">
        <ele>116.9</ele>
        <time>2026-08-12T06:58:42.000Z</time>
      </trkpt>
      <trkpt lat="45.66993" lon="0.30894">
        <ele>117</ele>
        <time>2026-08-12T06:58:48.000Z</time>
      </trkpt>
      <trkpt lat="45.6699" lon="0.30888">
        <ele>117</ele>
        <time>2026-08-12T06:58:50.000Z</time>
      </trkpt>
      <trkpt lat="45.66989" lon="0.30881">
        <ele>117.3</ele>
        <time>2026-08-12T06:58:52.000Z</time>
      </trkpt>
      <trkpt lat="45.66986" lon="0.3086">
        <ele>118</ele>
        <time>2026-08-12T06:58:58.000Z</time>
      </trkpt>
      <trkpt lat="45.66987" lon="0.30842">
        <ele>118.3</ele>
        <time>2026-08-12T06:59:03.000Z</time>
      </trkpt>
      <trkpt lat="45.66988" lon="0.3083">
        <ele>118.6</ele>
        <time>2026-08-12T06:59:06.000Z</time>
      </trkpt>
      <trkpt lat="45.6699" lon="0.30801">
        <ele>119.5</ele>
        <time>2026-08-12T06:59:13.000Z</time>
      </trkpt>
      <trkpt lat="45.6699" lon="0.30797">
        <ele>119.6</ele>
        <time>2026-08-12T06:59:14.000Z</time>
      </trkpt>
      <trkpt lat="45.6699" lon="0.30759">
        <ele>120.2</ele>
        <time>2026-08-12T06:59:23.000Z</time>
      </trkpt>
      <trkpt lat="45.66991" lon="0.30743">
        <ele>120.6</ele>
        <time>2026-08-12T06:59:27.000Z</time>
      </trkpt>
      <trkpt lat="45.66992" lon="0.30723">
        <ele>121.3</ele>
        <time>2026-08-12T06:59:32.000Z</time>
      </trkpt>
      <trkpt lat="45.66992" lon="0.30712">
        <ele>121.6</ele>
        <time>2026-08-12T06:59:35.000Z</time>
      </trkpt>
      <trkpt lat="45.66992" lon="0.30696">
        <ele>122</ele>
        <time>2026-08-12T06:59:39.000Z</time>
      </trkpt>
      <trkpt lat="45.66988" lon="0.30664">
        <ele>122.5</ele>
        <time>2026-08-12T06:59:47.000Z</time>
      </trkpt>
      <trkpt lat="45.66987" lon="0.3066">
        <ele>122.7</ele>
        <time>2026-08-12T06:59:48.000Z</time>
      </trkpt>
      <trkpt lat="45.66986" lon="0.30625">
        <ele>123.5</ele>
        <time>2026-08-12T06:59:56.000Z</time>
      </trkpt>
      <trkpt lat="45.66987" lon="0.30611">
        <ele>123.5</ele>
        <time>2026-08-12T06:59:59.000Z</time>
      </trkpt>
      <trkpt lat="45.66991" lon="0.30588">
        <ele>124.2</ele>
        <time>2026-08-12T07:00:04.000Z</time>
      </trkpt>
      <trkpt lat="45.66994" lon="0.3056">
        <ele>124.9</ele>
        <time>2026-08-12T07:00:10.000Z</time>
      </trkpt>
      <trkpt lat="45.66994" lon="0.30542">
        <ele>125.1</ele>
        <time>2026-08-12T07:00:14.000Z</time>
      </trkpt>
      <trkpt lat="45.66992" lon="0.3051">
        <ele>125.7</ele>
        <time>2026-08-12T07:00:21.000Z</time>
      </trkpt>
      <trkpt lat="45.66991" lon="0.30494">
        <ele>126.1</ele>
        <time>2026-08-12T07:00:25.000Z</time>
      </trkpt>
      <trkpt lat="45.66988" lon="0.30481">
        <ele>126.3</ele>
        <time>2026-08-12T07:00:28.000Z</time>
      </trkpt>
      <trkpt lat="45.66982" lon="0.30456">
        <ele>127.2</ele>
        <time>2026-08-12T07:00:34.000Z</time>
      </trkpt>
      <trkpt lat="45.6698" lon="0.30448">
        <ele>127.6</ele>
        <time>2026-08-12T07:00:36.000Z</time>
      </trkpt>
      <trkpt lat="45.66967" lon="0.30415">
        <ele>128</ele>
        <time>2026-08-12T07:00:44.000Z</time>
      </trkpt>
      <trkpt lat="45.66961" lon="0.30391">
        <ele>128</ele>
        <time>2026-08-12T07:00:49.000Z</time>
      </trkpt>
      <trkpt lat="45.6696" lon="0.30382">
        <ele>128.1</ele>
        <time>2026-08-12T07:00:51.000Z</time>
      </trkpt>
      <trkpt lat="45.66959" lon="0.30372">
        <ele>128.3</ele>
        <time>2026-08-12T07:00:53.000Z</time>
      </trkpt>
      <trkpt lat="45.66953" lon="0.30335">
        <ele>129</ele>
        <time>2026-08-12T07:01:01.000Z</time>
      </trkpt>
      <trkpt lat="45.6695" lon="0.30321">
        <ele>129.5</ele>
        <time>2026-08-12T07:01:04.000Z</time>
      </trkpt>
      <trkpt lat="45.66944" lon="0.30294">
        <ele>130</ele>
        <time>2026-08-12T07:01:10.000Z</time>
      </trkpt>
      <trkpt lat="45.66935" lon="0.30258">
        <ele>129.9</ele>
        <time>2026-08-12T07:01:18.000Z</time>
      </trkpt>
      <trkpt lat="45.66934" lon="0.30255">
        <ele>129.9</ele>
        <time>2026-08-12T07:01:19.000Z</time>
      </trkpt>
      <trkpt lat="45.66934" lon="0.30249">
        <ele>130</ele>
        <time>2026-08-12T07:01:21.000Z</time>
      </trkpt>
      <trkpt lat="45.66931" lon="0.30236">
        <ele>130.3</ele>
        <time>2026-08-12T07:01:24.000Z</time>
      </trkpt>
      <trkpt lat="45.66932" lon="0.30232">
        <ele>130.4</ele>
        <time>2026-08-12T07:01:25.000Z</time>
      </trkpt>
      <trkpt lat="45.66935" lon="0.30202">
        <ele>130.7</ele>
        <time>2026-08-12T07:01:31.000Z</time>
      </trkpt>
      <trkpt lat="45.66938" lon="0.30165">
        <ele>130.8</ele>
        <time>2026-08-12T07:01:38.000Z</time>
      </trkpt>
      <trkpt lat="45.6694" lon="0.3014">
        <ele>130.9</ele>
        <time>2026-08-12T07:01:44.000Z</time>
      </trkpt>
      <trkpt lat="45.6694" lon="0.30138">
        <ele>130.9</ele>
        <time>2026-08-12T07:01:45.000Z</time>
      </trkpt>
      <trkpt lat="45.66939" lon="0.30137">
        <ele>130.9</ele>
        <time>2026-08-12T07:01:47.000Z</time>
      </trkpt>
      <trkpt lat="45.66939" lon="0.30138">
        <ele>130.8</ele>
        <time>2026-08-12T07:01:48.000Z</time>
      </trkpt>
      <trkpt lat="45.66932" lon="0.30141">
        <ele>130.6</ele>
        <time>2026-08-12T07:01:53.000Z</time>
      </trkpt>
      <trkpt lat="45.66927" lon="0.30142">
        <ele>130.4</ele>
        <time>2026-08-12T07:01:55.000Z</time>
      </trkpt>
      <trkpt lat="45.66907" lon="0.30149">
        <ele>129.6</ele>
        <time>2026-08-12T07:02:01.000Z</time>
      </trkpt>
      <trkpt lat="45.66892" lon="0.30154">
        <ele>129.1</ele>
        <time>2026-08-12T07:02:04.000Z</time>
      </trkpt>
      <trkpt lat="45.66887" lon="0.30154">
        <ele>128.9</ele>
        <time>2026-08-12T07:02:05.000Z</time>
      </trkpt>
      <trkpt lat="45.66882" lon="0.30151">
        <ele>128.5</ele>
        <time>2026-08-12T07:02:06.000Z</time>
      </trkpt>
      <trkpt lat="45.66877" lon="0.30147">
        <ele>128.2</ele>
        <time>2026-08-12T07:02:07.000Z</time>
      </trkpt>
      <trkpt lat="45.66868" lon="0.30138">
        <ele>127.5</ele>
        <time>2026-08-12T07:02:09.000Z</time>
      </trkpt>
      <trkpt lat="45.66855" lon="0.30124">
        <ele>127</ele>
        <time>2026-08-12T07:02:12.000Z</time>
      </trkpt>
      <trkpt lat="45.66838" lon="0.30108">
        <ele>127.1</ele>
        <time>2026-08-12T07:02:16.000Z</time>
      </trkpt>
      <trkpt lat="45.66829" lon="0.30095">
        <ele>127.6</ele>
        <time>2026-08-12T07:02:19.000Z</time>
      </trkpt>
      <trkpt lat="45.66823" lon="0.30088">
        <ele>127.9</ele>
        <time>2026-08-12T07:02:21.000Z</time>
      </trkpt>
      <trkpt lat="45.66804" lon="0.30068">
        <ele>128.6</ele>
        <time>2026-08-12T07:02:28.000Z</time>
      </trkpt>
      <trkpt lat="45.6678" lon="0.30043">
        <ele>130.3</ele>
        <time>2026-08-12T07:02:38.000Z</time>
      </trkpt>
      <trkpt lat="45.66776" lon="0.30039">
        <ele>130.6</ele>
        <time>2026-08-12T07:02:40.000Z</time>
      </trkpt>
      <trkpt lat="45.6677" lon="0.30032">
        <ele>130.8</ele>
        <time>2026-08-12T07:02:43.000Z</time>
      </trkpt>
      <trkpt lat="45.66764" lon="0.30025">
        <ele>131.1</ele>
        <time>2026-08-12T07:02:46.000Z</time>
      </trkpt>
      <trkpt lat="45.66761" lon="0.30023">
        <ele>131.3</ele>
        <time>2026-08-12T07:02:47.000Z</time>
      </trkpt>
      <trkpt lat="45.66749" lon="0.30011">
        <ele>132.2</ele>
        <time>2026-08-12T07:02:53.000Z</time>
      </trkpt>
      <trkpt lat="45.66743" lon="0.30004">
        <ele>132.8</ele>
        <time>2026-08-12T07:02:56.000Z</time>
      </trkpt>
      <trkpt lat="45.66737" lon="0.29996">
        <ele>133.1</ele>
        <time>2026-08-12T07:02:59.000Z</time>
      </trkpt>
      <trkpt lat="45.66728" lon="0.29987">
        <ele>133.5</ele>
        <time>2026-08-12T07:03:03.000Z</time>
      </trkpt>
      <trkpt lat="45.66719" lon="0.29977">
        <ele>133.8</ele>
        <time>2026-08-12T07:03:07.000Z</time>
      </trkpt>
      <trkpt lat="45.66707" lon="0.29967">
        <ele>134.3</ele>
        <time>2026-08-12T07:03:12.000Z</time>
      </trkpt>
      <trkpt lat="45.66693" lon="0.29951">
        <ele>135.5</ele>
        <time>2026-08-12T07:03:18.000Z</time>
      </trkpt>
      <trkpt lat="45.66681" lon="0.29938">
        <ele>136</ele>
        <time>2026-08-12T07:03:23.000Z</time>
      </trkpt>
      <trkpt lat="45.66674" lon="0.29931">
        <ele>136</ele>
        <time>2026-08-12T07:03:26.000Z</time>
      </trkpt>
      <trkpt lat="45.66657" lon="0.29913">
        <ele>136.4</ele>
        <time>2026-08-12T07:03:34.000Z</time>
      </trkpt>
      <trkpt lat="45.66656" lon="0.2991">
        <ele>136.5</ele>
        <time>2026-08-12T07:03:35.000Z</time>
      </trkpt>
      <trkpt lat="45.66656" lon="0.29905">
        <ele>136.7</ele>
        <time>2026-08-12T07:03:37.000Z</time>
      </trkpt>
      <trkpt lat="45.66657" lon="0.29902">
        <ele>136.7</ele>
        <time>2026-08-12T07:03:38.000Z</time>
      </trkpt>
      <trkpt lat="45.66664" lon="0.29871">
        <ele>137.6</ele>
        <time>2026-08-12T07:03:46.000Z</time>
      </trkpt>
      <trkpt lat="45.66667" lon="0.29852">
        <ele>138</ele>
        <time>2026-08-12T07:03:51.000Z</time>
      </trkpt>
      <trkpt lat="45.66666" lon="0.29849">
        <ele>138</ele>
        <time>2026-08-12T07:03:52.000Z</time>
      </trkpt>
      <trkpt lat="45.66664" lon="0.29834">
        <ele>138</ele>
        <time>2026-08-12T07:03:57.000Z</time>
      </trkpt>
      <trkpt lat="45.66667" lon="0.29806">
        <ele>139</ele>
        <time>2026-08-12T07:04:03.000Z</time>
      </trkpt>
      <trkpt lat="45.66676" lon="0.29764">
        <ele>138.7</ele>
        <time>2026-08-12T07:04:11.000Z</time>
      </trkpt>
      <trkpt lat="45.66683" lon="0.29726">
        <ele>138.7</ele>
        <time>2026-08-12T07:04:18.000Z</time>
      </trkpt>
      <trkpt lat="45.66689" lon="0.29688">
        <ele>138</ele>
        <time>2026-08-12T07:04:24.000Z</time>
      </trkpt>
      <trkpt lat="45.66689" lon="0.29681">
        <ele>138</ele>
        <time>2026-08-12T07:04:25.000Z</time>
      </trkpt>
      <trkpt lat="45.66691" lon="0.2966">
        <ele>137.7</ele>
        <time>2026-08-12T07:04:28.000Z</time>
      </trkpt>
      <trkpt lat="45.66695" lon="0.29645">
        <ele>137.2</ele>
        <time>2026-08-12T07:04:30.000Z</time>
      </trkpt>
      <trkpt lat="45.66697" lon="0.29621">
        <ele>136.4</ele>
        <time>2026-08-12T07:04:33.000Z</time>
      </trkpt>
      <trkpt lat="45.667" lon="0.29596">
        <ele>136.1</ele>
        <time>2026-08-12T07:04:36.000Z</time>
      </trkpt>
      <trkpt lat="45.66703" lon="0.29579">
        <ele>135.9</ele>
        <time>2026-08-12T07:04:38.000Z</time>
      </trkpt>
      <trkpt lat="45.66709" lon="0.29543">
        <ele>135.1</ele>
        <time>2026-08-12T07:04:42.000Z</time>
      </trkpt>
      <trkpt lat="45.66711" lon="0.29534">
        <ele>134.8</ele>
        <time>2026-08-12T07:04:43.000Z</time>
      </trkpt>
      <trkpt lat="45.66713" lon="0.29516">
        <ele>134.3</ele>
        <time>2026-08-12T07:04:45.000Z</time>
      </trkpt>
      <trkpt lat="45.66715" lon="0.29487">
        <ele>133.3</ele>
        <time>2026-08-12T07:04:48.000Z</time>
      </trkpt>
      <trkpt lat="45.66716" lon="0.29477">
        <ele>132.9</ele>
        <time>2026-08-12T07:04:49.000Z</time>
      </trkpt>
      <trkpt lat="45.66716" lon="0.29415">
        <ele>131.5</ele>
        <time>2026-08-12T07:04:55.000Z</time>
      </trkpt>
      <trkpt lat="45.66715" lon="0.29404">
        <ele>131.2</ele>
        <time>2026-08-12T07:04:56.000Z</time>
      </trkpt>
      <trkpt lat="45.66712" lon="0.29338">
        <ele>130.6</ele>
        <time>2026-08-12T07:05:03.000Z</time>
      </trkpt>
      <trkpt lat="45.6671" lon="0.29306">
        <ele>131.1</ele>
        <time>2026-08-12T07:05:07.000Z</time>
      </trkpt>
      <trkpt lat="45.6671" lon="0.29299">
        <ele>131.1</ele>
        <time>2026-08-12T07:05:08.000Z</time>
      </trkpt>
      <trkpt lat="45.66708" lon="0.29254">
        <ele>131.8</ele>
        <time>2026-08-12T07:05:14.000Z</time>
      </trkpt>
      <trkpt lat="45.66707" lon="0.2924">
        <ele>131.9</ele>
        <time>2026-08-12T07:05:16.000Z</time>
      </trkpt>
      <trkpt lat="45.66707" lon="0.29219">
        <ele>132</ele>
        <time>2026-08-12T07:05:19.000Z</time>
      </trkpt>
      <trkpt lat="45.66706" lon="0.29193">
        <ele>132.8</ele>
        <time>2026-08-12T07:05:23.000Z</time>
      </trkpt>
      <trkpt lat="45.66706" lon="0.29174">
        <ele>133.1</ele>
        <time>2026-08-12T07:05:26.000Z</time>
      </trkpt>
      <trkpt lat="45.66706" lon="0.29151">
        <ele>133.2</ele>
        <time>2026-08-12T07:05:30.000Z</time>
      </trkpt>
      <trkpt lat="45.66705" lon="0.29146">
        <ele>133.2</ele>
        <time>2026-08-12T07:05:31.000Z</time>
      </trkpt>
      <trkpt lat="45.66702" lon="0.29107">
        <ele>133.6</ele>
        <time>2026-08-12T07:05:38.000Z</time>
      </trkpt>
      <trkpt lat="45.66702" lon="0.29102">
        <ele>133.6</ele>
        <time>2026-08-12T07:05:39.000Z</time>
      </trkpt>
      <trkpt lat="45.66701" lon="0.29064">
        <ele>134</ele>
        <time>2026-08-12T07:05:46.000Z</time>
      </trkpt>
      <trkpt lat="45.667" lon="0.29031">
        <ele>134.9</ele>
        <time>2026-08-12T07:05:52.000Z</time>
      </trkpt>
      <trkpt lat="45.66699" lon="0.29015">
        <ele>135.1</ele>
        <time>2026-08-12T07:05:55.000Z</time>
      </trkpt>
      <trkpt lat="45.66698" lon="0.28992">
        <ele>135.4</ele>
        <time>2026-08-12T07:06:00.000Z</time>
      </trkpt>
      <trkpt lat="45.66695" lon="0.28965">
        <ele>136.3</ele>
        <time>2026-08-12T07:06:06.000Z</time>
      </trkpt>
      <trkpt lat="45.66694" lon="0.2896">
        <ele>136.4</ele>
        <time>2026-08-12T07:06:07.000Z</time>
      </trkpt>
      <trkpt lat="45.66692" lon="0.28934">
        <ele>137.4</ele>
        <time>2026-08-12T07:06:12.000Z</time>
      </trkpt>
      <trkpt lat="45.66692" lon="0.28923">
        <ele>137.8</ele>
        <time>2026-08-12T07:06:15.000Z</time>
      </trkpt>
      <trkpt lat="45.6669" lon="0.28913">
        <ele>138.1</ele>
        <time>2026-08-12T07:06:18.000Z</time>
      </trkpt>
      <trkpt lat="45.66689" lon="0.28905">
        <ele>138.4</ele>
        <time>2026-08-12T07:06:20.000Z</time>
      </trkpt>
      <trkpt lat="45.66689" lon="0.28894">
        <ele>138.8</ele>
        <time>2026-08-12T07:06:23.000Z</time>
      </trkpt>
      <trkpt lat="45.66686" lon="0.28877">
        <ele>139.4</ele>
        <time>2026-08-12T07:06:28.000Z</time>
      </trkpt>
      <trkpt lat="45.66685" lon="0.28872">
        <ele>139.6</ele>
        <time>2026-08-12T07:06:30.000Z</time>
      </trkpt>
      <trkpt lat="45.6668" lon="0.28848">
        <ele>140.5</ele>
        <time>2026-08-12T07:06:37.000Z</time>
      </trkpt>
      <trkpt lat="45.66679" lon="0.28845">
        <ele>140.6</ele>
        <time>2026-08-12T07:06:38.000Z</time>
      </trkpt>
      <trkpt lat="45.66677" lon="0.28821">
        <ele>141.5</ele>
        <time>2026-08-12T07:06:44.000Z</time>
      </trkpt>
      <trkpt lat="45.66675" lon="0.28812">
        <ele>141.8</ele>
        <time>2026-08-12T07:06:46.000Z</time>
      </trkpt>
      <trkpt lat="45.66672" lon="0.28797">
        <ele>142.3</ele>
        <time>2026-08-12T07:06:50.000Z</time>
      </trkpt>
      <trkpt lat="45.66667" lon="0.28778">
        <ele>143</ele>
        <time>2026-08-12T07:06:55.000Z</time>
      </trkpt>
      <trkpt lat="45.66667" lon="0.28774">
        <ele>143.2</ele>
        <time>2026-08-12T07:06:56.000Z</time>
      </trkpt>
      <trkpt lat="45.66662" lon="0.28746">
        <ele>144</ele>
        <time>2026-08-12T07:07:03.000Z</time>
      </trkpt>
      <trkpt lat="45.66658" lon="0.28742">
        <ele>144.1</ele>
        <time>2026-08-12T07:07:05.000Z</time>
      </trkpt>
      <trkpt lat="45.66657" lon="0.28727">
        <ele>144.3</ele>
        <time>2026-08-12T07:07:10.000Z</time>
      </trkpt>
      <trkpt lat="45.6665" lon="0.28706">
        <ele>145.1</ele>
        <time>2026-08-12T07:07:17.000Z</time>
      </trkpt>
      <trkpt lat="45.6665" lon="0.28703">
        <ele>145.2</ele>
        <time>2026-08-12T07:07:18.000Z</time>
      </trkpt>
      <trkpt lat="45.66645" lon="0.28676">
        <ele>145.9</ele>
        <time>2026-08-12T07:07:25.000Z</time>
      </trkpt>
      <trkpt lat="45.66644" lon="0.28672">
        <ele>146</ele>
        <time>2026-08-12T07:07:26.000Z</time>
      </trkpt>
      <trkpt lat="45.6664" lon="0.28653">
        <ele>146.5</ele>
        <time>2026-08-12T07:07:31.000Z</time>
      </trkpt>
      <trkpt lat="45.66639" lon="0.28633">
        <ele>147.2</ele>
        <time>2026-08-12T07:07:36.000Z</time>
      </trkpt>
      <trkpt lat="45.66638" lon="0.2863">
        <ele>147.3</ele>
        <time>2026-08-12T07:07:37.000Z</time>
      </trkpt>
      <trkpt lat="45.66631" lon="0.28604">
        <ele>148.3</ele>
        <time>2026-08-12T07:07:44.000Z</time>
      </trkpt>
      <trkpt lat="45.66626" lon="0.28583">
        <ele>149</ele>
        <time>2026-08-12T07:07:50.000Z</time>
      </trkpt>
      <trkpt lat="45.66624" lon="0.28575">
        <ele>149.1</ele>
        <time>2026-08-12T07:07:52.000Z</time>
      </trkpt>
      <trkpt lat="45.66619" lon="0.28549">
        <ele>149.5</ele>
        <time>2026-08-12T07:07:59.000Z</time>
      </trkpt>
      <trkpt lat="45.66613" lon="0.28516">
        <ele>150.5</ele>
        <time>2026-08-12T07:08:07.000Z</time>
      </trkpt>
      <trkpt lat="45.66607" lon="0.28486">
        <ele>150.8</ele>
        <time>2026-08-12T07:08:14.000Z</time>
      </trkpt>
      <trkpt lat="45.66603" lon="0.28474">
        <ele>150.7</ele>
        <time>2026-08-12T07:08:17.000Z</time>
      </trkpt>
      <trkpt lat="45.66601" lon="0.28458">
        <ele>151.2</ele>
        <time>2026-08-12T07:08:21.000Z</time>
      </trkpt>
      <trkpt lat="45.66596" lon="0.2843">
        <ele>152</ele>
        <time>2026-08-12T07:08:27.000Z</time>
      </trkpt>
      <trkpt lat="45.66593" lon="0.28416">
        <ele>152.4</ele>
        <time>2026-08-12T07:08:30.000Z</time>
      </trkpt>
      <trkpt lat="45.66588" lon="0.28395">
        <ele>153</ele>
        <time>2026-08-12T07:08:35.000Z</time>
      </trkpt>
      <trkpt lat="45.66582" lon="0.28365">
        <ele>153.8</ele>
        <time>2026-08-12T07:08:42.000Z</time>
      </trkpt>
      <trkpt lat="45.66581" lon="0.28361">
        <ele>153.9</ele>
        <time>2026-08-12T07:08:43.000Z</time>
      </trkpt>
      <trkpt lat="45.66574" lon="0.28327">
        <ele>154.4</ele>
        <time>2026-08-12T07:08:51.000Z</time>
      </trkpt>
      <trkpt lat="45.66571" lon="0.28311">
        <ele>155.2</ele>
        <time>2026-08-12T07:08:55.000Z</time>
      </trkpt>
      <trkpt lat="45.66566" lon="0.28285">
        <ele>155.6</ele>
        <time>2026-08-12T07:09:01.000Z</time>
      </trkpt>
      <trkpt lat="45.66561" lon="0.28259">
        <ele>156</ele>
        <time>2026-08-12T07:09:07.000Z</time>
      </trkpt>
      <trkpt lat="45.66561" lon="0.28255">
        <ele>156.2</ele>
        <time>2026-08-12T07:09:08.000Z</time>
      </trkpt>
      <trkpt lat="45.66553" lon="0.28224">
        <ele>156.8</ele>
        <time>2026-08-12T07:09:15.000Z</time>
      </trkpt>
      <trkpt lat="45.66551" lon="0.28211">
        <ele>157.1</ele>
        <time>2026-08-12T07:09:18.000Z</time>
      </trkpt>
      <trkpt lat="45.66547" lon="0.28195">
        <ele>157.4</ele>
        <time>2026-08-12T07:09:22.000Z</time>
      </trkpt>
      <trkpt lat="45.66542" lon="0.28173">
        <ele>157.4</ele>
        <time>2026-08-12T07:09:27.000Z</time>
      </trkpt>
      <trkpt lat="45.6654" lon="0.28164">
        <ele>157.5</ele>
        <time>2026-08-12T07:09:29.000Z</time>
      </trkpt>
      <trkpt lat="45.66535" lon="0.28146">
        <ele>158</ele>
        <time>2026-08-12T07:09:33.000Z</time>
      </trkpt>
      <trkpt lat="45.66527" lon="0.28114">
        <ele>158</ele>
        <time>2026-08-12T07:09:40.000Z</time>
      </trkpt>
      <trkpt lat="45.66518" lon="0.28077">
        <ele>157.7</ele>
        <time>2026-08-12T07:09:47.000Z</time>
      </trkpt>
      <trkpt lat="45.66511" lon="0.2805">
        <ele>157.5</ele>
        <time>2026-08-12T07:09:52.000Z</time>
      </trkpt>
      <trkpt lat="45.66507" lon="0.28027">
        <ele>157.5</ele>
        <time>2026-08-12T07:09:56.000Z</time>
      </trkpt>
      <trkpt lat="45.665" lon="0.27988">
        <ele>156.6</ele>
        <time>2026-08-12T07:10:02.000Z</time>
      </trkpt>
      <trkpt lat="45.66495" lon="0.27967">
        <ele>155.8</ele>
        <time>2026-08-12T07:10:05.000Z</time>
      </trkpt>
      <trkpt lat="45.66491" lon="0.27951">
        <ele>155.4</ele>
        <time>2026-08-12T07:10:07.000Z</time>
      </trkpt>
      <trkpt lat="45.66481" lon="0.27905">
        <ele>153.7</ele>
        <time>2026-08-12T07:10:12.000Z</time>
      </trkpt>
      <trkpt lat="45.66479" lon="0.27896">
        <ele>153.1</ele>
        <time>2026-08-12T07:10:13.000Z</time>
      </trkpt>
      <trkpt lat="45.66471" lon="0.27866">
        <ele>151.9</ele>
        <time>2026-08-12T07:10:16.000Z</time>
      </trkpt>
      <trkpt lat="45.66464" lon="0.27833">
        <ele>150.4</ele>
        <time>2026-08-12T07:10:19.000Z</time>
      </trkpt>
      <trkpt lat="45.66451" lon="0.27779">
        <ele>147.5</ele>
        <time>2026-08-12T07:10:24.000Z</time>
      </trkpt>
      <trkpt lat="45.66449" lon="0.27768">
        <ele>147.3</ele>
        <time>2026-08-12T07:10:25.000Z</time>
      </trkpt>
      <trkpt lat="45.66446" lon="0.27756">
        <ele>147.1</ele>
        <time>2026-08-12T07:10:26.000Z</time>
      </trkpt>
      <trkpt lat="45.66441" lon="0.27734">
        <ele>146.7</ele>
        <time>2026-08-12T07:10:28.000Z</time>
      </trkpt>
      <trkpt lat="45.66434" lon="0.27701">
        <ele>145.8</ele>
        <time>2026-08-12T07:10:31.000Z</time>
      </trkpt>
      <trkpt lat="45.66431" lon="0.2769">
        <ele>145.7</ele>
        <time>2026-08-12T07:10:32.000Z</time>
      </trkpt>
      <trkpt lat="45.66425" lon="0.27657">
        <ele>145.6</ele>
        <time>2026-08-12T07:10:35.000Z</time>
      </trkpt>
      <trkpt lat="45.66423" lon="0.27646">
        <ele>145.5</ele>
        <time>2026-08-12T07:10:36.000Z</time>
      </trkpt>
      <trkpt lat="45.66422" lon="0.27623">
        <ele>144.7</ele>
        <time>2026-08-12T07:10:38.000Z</time>
      </trkpt>
      <trkpt lat="45.66422" lon="0.276">
        <ele>144.2</ele>
        <time>2026-08-12T07:10:40.000Z</time>
      </trkpt>
      <trkpt lat="45.66429" lon="0.27555">
        <ele>143.4</ele>
        <time>2026-08-12T07:10:44.000Z</time>
      </trkpt>
      <trkpt lat="45.66438" lon="0.27522">
        <ele>142.4</ele>
        <time>2026-08-12T07:10:47.000Z</time>
      </trkpt>
      <trkpt lat="45.66449" lon="0.27489">
        <ele>140.7</ele>
        <time>2026-08-12T07:10:50.000Z</time>
      </trkpt>
      <trkpt lat="45.66464" lon="0.27444">
        <ele>138.7</ele>
        <time>2026-08-12T07:10:54.000Z</time>
      </trkpt>
      <trkpt lat="45.66475" lon="0.27409">
        <ele>137.9</ele>
        <time>2026-08-12T07:10:57.000Z</time>
      </trkpt>
      <trkpt lat="45.66478" lon="0.27397">
        <ele>137.6</ele>
        <time>2026-08-12T07:10:58.000Z</time>
      </trkpt>
      <trkpt lat="45.66483" lon="0.27372">
        <ele>137.2</ele>
        <time>2026-08-12T07:11:00.000Z</time>
      </trkpt>
      <trkpt lat="45.66484" lon="0.27349">
        <ele>136.6</ele>
        <time>2026-08-12T07:11:02.000Z</time>
      </trkpt>
      <trkpt lat="45.66481" lon="0.27324">
        <ele>135.9</ele>
        <time>2026-08-12T07:11:04.000Z</time>
      </trkpt>
      <trkpt lat="45.66479" lon="0.27311">
        <ele>135.7</ele>
        <time>2026-08-12T07:11:05.000Z</time>
      </trkpt>
      <trkpt lat="45.66476" lon="0.27299">
        <ele>135.6</ele>
        <time>2026-08-12T07:11:06.000Z</time>
      </trkpt>
      <trkpt lat="45.66465" lon="0.27265">
        <ele>134.6</ele>
        <time>2026-08-12T07:11:09.000Z</time>
      </trkpt>
      <trkpt lat="45.66452" lon="0.27232">
        <ele>133.6</ele>
        <time>2026-08-12T07:11:12.000Z</time>
      </trkpt>
      <trkpt lat="45.6644" lon="0.27199">
        <ele>132.1</ele>
        <time>2026-08-12T07:11:15.000Z</time>
      </trkpt>
      <trkpt lat="45.66424" lon="0.27156">
        <ele>130.7</ele>
        <time>2026-08-12T07:11:19.000Z</time>
      </trkpt>
      <trkpt lat="45.66411" lon="0.27122">
        <ele>129.2</ele>
        <time>2026-08-12T07:11:22.000Z</time>
      </trkpt>
      <trkpt lat="45.66403" lon="0.271">
        <ele>128.6</ele>
        <time>2026-08-12T07:11:24.000Z</time>
      </trkpt>
      <trkpt lat="45.66396" lon="0.27078">
        <ele>127.5</ele>
        <time>2026-08-12T07:11:26.000Z</time>
      </trkpt>
      <trkpt lat="45.66388" lon="0.27056">
        <ele>125.9</ele>
        <time>2026-08-12T07:11:28.000Z</time>
      </trkpt>
      <trkpt lat="45.66384" lon="0.27045">
        <ele>125.5</ele>
        <time>2026-08-12T07:11:29.000Z</time>
      </trkpt>
      <trkpt lat="45.66377" lon="0.27023">
        <ele>125.1</ele>
        <time>2026-08-12T07:11:31.000Z</time>
      </trkpt>
      <trkpt lat="45.66369" lon="0.27002">
        <ele>123.9</ele>
        <time>2026-08-12T07:11:33.000Z</time>
      </trkpt>
      <trkpt lat="45.66365" lon="0.26992">
        <ele>123.2</ele>
        <time>2026-08-12T07:11:34.000Z</time>
      </trkpt>
      <trkpt lat="45.66358" lon="0.26971">
        <ele>121.6</ele>
        <time>2026-08-12T07:11:36.000Z</time>
      </trkpt>
      <trkpt lat="45.66347" lon="0.2694">
        <ele>119.4</ele>
        <time>2026-08-12T07:11:39.000Z</time>
      </trkpt>
      <trkpt lat="45.66344" lon="0.26929">
        <ele>118.9</ele>
        <time>2026-08-12T07:11:40.000Z</time>
      </trkpt>
      <trkpt lat="45.6634" lon="0.26918">
        <ele>118.5</ele>
        <time>2026-08-12T07:11:41.000Z</time>
      </trkpt>
      <trkpt lat="45.66332" lon="0.26896">
        <ele>117</ele>
        <time>2026-08-12T07:11:43.000Z</time>
      </trkpt>
      <trkpt lat="45.66325" lon="0.26873">
        <ele>114.9</ele>
        <time>2026-08-12T07:11:45.000Z</time>
      </trkpt>
      <trkpt lat="45.66313" lon="0.26838">
        <ele>113.7</ele>
        <time>2026-08-12T07:11:48.000Z</time>
      </trkpt>
      <trkpt lat="45.66309" lon="0.26826">
        <ele>113.6</ele>
        <time>2026-08-12T07:11:49.000Z</time>
      </trkpt>
      <trkpt lat="45.66297" lon="0.26793">
        <ele>112</ele>
        <time>2026-08-12T07:11:52.000Z</time>
      </trkpt>
      <trkpt lat="45.66283" lon="0.26761">
        <ele>111</ele>
        <time>2026-08-12T07:11:55.000Z</time>
      </trkpt>
      <trkpt lat="45.66268" lon="0.2673">
        <ele>109.3</ele>
        <time>2026-08-12T07:11:58.000Z</time>
      </trkpt>
      <trkpt lat="45.66253" lon="0.267">
        <ele>108.2</ele>
        <time>2026-08-12T07:12:01.000Z</time>
      </trkpt>
      <trkpt lat="45.66244" lon="0.26681">
        <ele>107</ele>
        <time>2026-08-12T07:12:03.000Z</time>
      </trkpt>
      <trkpt lat="45.6624" lon="0.26671">
        <ele>106.5</ele>
        <time>2026-08-12T07:12:04.000Z</time>
      </trkpt>
      <trkpt lat="45.66237" lon="0.26661">
        <ele>105.9</ele>
        <time>2026-08-12T07:12:05.000Z</time>
      </trkpt>
      <trkpt lat="45.6623" lon="0.2664">
        <ele>104.9</ele>
        <time>2026-08-12T07:12:07.000Z</time>
      </trkpt>
      <trkpt lat="45.66221" lon="0.26609">
        <ele>102.8</ele>
        <time>2026-08-12T07:12:10.000Z</time>
      </trkpt>
      <trkpt lat="45.66219" lon="0.26598">
        <ele>102.5</ele>
        <time>2026-08-12T07:12:11.000Z</time>
      </trkpt>
      <trkpt lat="45.66217" lon="0.26587">
        <ele>102.3</ele>
        <time>2026-08-12T07:12:12.000Z</time>
      </trkpt>
      <trkpt lat="45.66216" lon="0.26577">
        <ele>101.8</ele>
        <time>2026-08-12T07:12:13.000Z</time>
      </trkpt>
      <trkpt lat="45.66214" lon="0.26555">
        <ele>100.8</ele>
        <time>2026-08-12T07:12:15.000Z</time>
      </trkpt>
      <trkpt lat="45.66214" lon="0.26533">
        <ele>99.4</ele>
        <time>2026-08-12T07:12:17.000Z</time>
      </trkpt>
      <trkpt lat="45.66214" lon="0.26521">
        <ele>98.7</ele>
        <time>2026-08-12T07:12:18.000Z</time>
      </trkpt>
      <trkpt lat="45.66216" lon="0.26497">
        <ele>97.2</ele>
        <time>2026-08-12T07:12:20.000Z</time>
      </trkpt>
      <trkpt lat="45.66221" lon="0.2646">
        <ele>95.9</ele>
        <time>2026-08-12T07:12:23.000Z</time>
      </trkpt>
      <trkpt lat="45.66226" lon="0.26437">
        <ele>94.6</ele>
        <time>2026-08-12T07:12:25.000Z</time>
      </trkpt>
      <trkpt lat="45.66231" lon="0.26418">
        <ele>93.4</ele>
        <time>2026-08-12T07:12:27.000Z</time>
      </trkpt>
      <trkpt lat="45.66234" lon="0.2641">
        <ele>93</ele>
        <time>2026-08-12T07:12:28.000Z</time>
      </trkpt>
      <trkpt lat="45.66238" lon="0.26403">
        <ele>92.6</ele>
        <time>2026-08-12T07:12:29.000Z</time>
      </trkpt>
      <trkpt lat="45.66246" lon="0.26389">
        <ele>91.9</ele>
        <time>2026-08-12T07:12:31.000Z</time>
      </trkpt>
      <trkpt lat="45.66257" lon="0.26377">
        <ele>91.2</ele>
        <time>2026-08-12T07:12:33.000Z</time>
      </trkpt>
      <trkpt lat="45.66275" lon="0.2636">
        <ele>89.9</ele>
        <time>2026-08-12T07:12:36.000Z</time>
      </trkpt>
      <trkpt lat="45.66281" lon="0.26353">
        <ele>89.1</ele>
        <time>2026-08-12T07:12:37.000Z</time>
      </trkpt>
      <trkpt lat="45.66286" lon="0.26345">
        <ele>88</ele>
        <time>2026-08-12T07:12:38.000Z</time>
      </trkpt>
      <trkpt lat="45.66289" lon="0.26336">
        <ele>87</ele>
        <time>2026-08-12T07:12:39.000Z</time>
      </trkpt>
      <trkpt lat="45.66294" lon="0.26317">
        <ele>84.7</ele>
        <time>2026-08-12T07:12:41.000Z</time>
      </trkpt>
      <trkpt lat="45.66296" lon="0.26307">
        <ele>83.5</ele>
        <time>2026-08-12T07:12:42.000Z</time>
      </trkpt>
      <trkpt lat="45.66296" lon="0.26297">
        <ele>82.7</ele>
        <time>2026-08-12T07:12:43.000Z</time>
      </trkpt>
      <trkpt lat="45.66295" lon="0.26287">
        <ele>82.2</ele>
        <time>2026-08-12T07:12:44.000Z</time>
      </trkpt>
      <trkpt lat="45.66293" lon="0.26278">
        <ele>81.9</ele>
        <time>2026-08-12T07:12:45.000Z</time>
      </trkpt>
      <trkpt lat="45.66287" lon="0.26265">
        <ele>82.4</ele>
        <time>2026-08-12T07:12:47.000Z</time>
      </trkpt>
      <trkpt lat="45.66282" lon="0.26256">
        <ele>82.8</ele>
        <time>2026-08-12T07:12:49.000Z</time>
      </trkpt>
      <trkpt lat="45.6628" lon="0.26253">
        <ele>82.8</ele>
        <time>2026-08-12T07:12:50.000Z</time>
      </trkpt>
      <trkpt lat="45.6628" lon="0.26248">
        <ele>82.6</ele>
        <time>2026-08-12T07:12:51.000Z</time>
      </trkpt>
      <trkpt lat="45.66281" lon="0.26231">
        <ele>81.4</ele>
        <time>2026-08-12T07:12:54.000Z</time>
      </trkpt>
      <trkpt lat="45.66284" lon="0.26219">
        <ele>80.3</ele>
        <time>2026-08-12T07:12:57.000Z</time>
      </trkpt>
      <trkpt lat="45.66287" lon="0.26201">
        <ele>79.1</ele>
        <time>2026-08-12T07:13:01.000Z</time>
      </trkpt>
      <trkpt lat="45.66289" lon="0.26186">
        <ele>78</ele>
        <time>2026-08-12T07:13:04.000Z</time>
      </trkpt>
      <trkpt lat="45.6629" lon="0.26174">
        <ele>77</ele>
        <time>2026-08-12T07:13:06.000Z</time>
      </trkpt>
      <trkpt lat="45.66294" lon="0.26147">
        <ele>74.6</ele>
        <time>2026-08-12T07:13:10.000Z</time>
      </trkpt>
      <trkpt lat="45.66295" lon="0.2614">
        <ele>73.8</ele>
        <time>2026-08-12T07:13:11.000Z</time>
      </trkpt>
      <trkpt lat="45.66296" lon="0.26132">
        <ele>73.3</ele>
        <time>2026-08-12T07:13:12.000Z</time>
      </trkpt>
      <trkpt lat="45.66298" lon="0.2611">
        <ele>71.7</ele>
        <time>2026-08-12T07:13:15.000Z</time>
      </trkpt>
      <trkpt lat="45.66299" lon="0.26095">
        <ele>70.7</ele>
        <time>2026-08-12T07:13:17.000Z</time>
      </trkpt>
      <trkpt lat="45.66299" lon="0.26087">
        <ele>70.2</ele>
        <time>2026-08-12T07:13:18.000Z</time>
      </trkpt>
      <trkpt lat="45.66299" lon="0.26071">
        <ele>69.5</ele>
        <time>2026-08-12T07:13:20.000Z</time>
      </trkpt>
      <trkpt lat="45.66299" lon="0.26056">
        <ele>69</ele>
        <time>2026-08-12T07:13:22.000Z</time>
      </trkpt>
      <trkpt lat="45.66299" lon="0.26049">
        <ele>68.8</ele>
        <time>2026-08-12T07:13:23.000Z</time>
      </trkpt>
      <trkpt lat="45.663" lon="0.26042">
        <ele>68.7</ele>
        <time>2026-08-12T07:13:24.000Z</time>
      </trkpt>
      <trkpt lat="45.66301" lon="0.26035">
        <ele>68.6</ele>
        <time>2026-08-12T07:13:25.000Z</time>
      </trkpt>
      <trkpt lat="45.66301" lon="0.26029">
        <ele>68.5</ele>
        <time>2026-08-12T07:13:26.000Z</time>
      </trkpt>
      <trkpt lat="45.66301" lon="0.26023">
        <ele>68.2</ele>
        <time>2026-08-12T07:13:27.000Z</time>
      </trkpt>
      <trkpt lat="45.66302" lon="0.26017">
        <ele>67.9</ele>
        <time>2026-08-12T07:13:28.000Z</time>
      </trkpt>
      <trkpt lat="45.66305" lon="0.26003">
        <ele>67.2</ele>
        <time>2026-08-12T07:13:30.000Z</time>
      </trkpt>
      <trkpt lat="45.66307" lon="0.25981">
        <ele>65.5</ele>
        <time>2026-08-12T07:13:34.000Z</time>
      </trkpt>
      <trkpt lat="45.66307" lon="0.25976">
        <ele>65</ele>
        <time>2026-08-12T07:13:35.000Z</time>
      </trkpt>
      <trkpt lat="45.66308" lon="0.2597">
        <ele>64.6</ele>
        <time>2026-08-12T07:13:36.000Z</time>
      </trkpt>
      <trkpt lat="45.66308" lon="0.25957">
        <ele>63.7</ele>
        <time>2026-08-12T07:13:38.000Z</time>
      </trkpt>
      <trkpt lat="45.66306" lon="0.25944">
        <ele>62.9</ele>
        <time>2026-08-12T07:13:40.000Z</time>
      </trkpt>
      <trkpt lat="45.66305" lon="0.25938">
        <ele>62.5</ele>
        <time>2026-08-12T07:13:41.000Z</time>
      </trkpt>
      <trkpt lat="45.663" lon="0.25914">
        <ele>61.5</ele>
        <time>2026-08-12T07:13:45.000Z</time>
      </trkpt>
      <trkpt lat="45.66296" lon="0.25895">
        <ele>61.3</ele>
        <time>2026-08-12T07:13:48.000Z</time>
      </trkpt>
      <trkpt lat="45.6629" lon="0.25871">
        <ele>60.7</ele>
        <time>2026-08-12T07:13:52.000Z</time>
      </trkpt>
      <trkpt lat="45.66285" lon="0.25844">
        <ele>59.4</ele>
        <time>2026-08-12T07:13:56.000Z</time>
      </trkpt>
      <trkpt lat="45.66283" lon="0.25828">
        <ele>58.9</ele>
        <time>2026-08-12T07:13:58.000Z</time>
      </trkpt>
      <trkpt lat="45.66284" lon="0.25813">
        <ele>58.9</ele>
        <time>2026-08-12T07:14:00.000Z</time>
      </trkpt>
      <trkpt lat="45.66285" lon="0.25806">
        <ele>59</ele>
        <time>2026-08-12T07:14:01.000Z</time>
      </trkpt>
      <trkpt lat="45.66286" lon="0.25796">
        <ele>58.8</ele>
        <time>2026-08-12T07:14:03.000Z</time>
      </trkpt>
      <trkpt lat="45.66284" lon="0.25793">
        <ele>58.7</ele>
        <time>2026-08-12T07:14:04.000Z</time>
      </trkpt>
      <trkpt lat="45.66273" lon="0.2579">
        <ele>58.5</ele>
        <time>2026-08-12T07:14:08.000Z</time>
      </trkpt>
      <trkpt lat="45.66256" lon="0.25795">
        <ele>59.1</ele>
        <time>2026-08-12T07:14:13.000Z</time>
      </trkpt>
      <trkpt lat="45.66224" lon="0.25807">
        <ele>61</ele>
        <time>2026-08-12T07:14:23.000Z</time>
      </trkpt>
      <trkpt lat="45.66202" lon="0.2582">
        <ele>60.8</ele>
        <time>2026-08-12T07:14:30.000Z</time>
      </trkpt>
      <trkpt lat="45.66184" lon="0.25837">
        <ele>60.5</ele>
        <time>2026-08-12T07:14:36.000Z</time>
      </trkpt>
      <trkpt lat="45.66166" lon="0.25858">
        <ele>60.7</ele>
        <time>2026-08-12T07:14:42.000Z</time>
      </trkpt>
      <trkpt lat="45.66146" lon="0.2588">
        <ele>60.9</ele>
        <time>2026-08-12T07:14:49.000Z</time>
      </trkpt>
      <trkpt lat="45.66128" lon="0.25897">
        <ele>61.4</ele>
        <time>2026-08-12T07:14:55.000Z</time>
      </trkpt>
      <trkpt lat="45.6611" lon="0.25903">
        <ele>60.5</ele>
        <time>2026-08-12T07:15:01.000Z</time>
      </trkpt>
      <trkpt lat="45.661" lon="0.25901">
        <ele>60</ele>
        <time>2026-08-12T07:15:04.000Z</time>
      </trkpt>
      <trkpt lat="45.66092" lon="0.259">
        <ele>59.7</ele>
        <time>2026-08-12T07:15:06.000Z</time>
      </trkpt>
      <trkpt lat="45.66088" lon="0.25899">
        <ele>59.5</ele>
        <time>2026-08-12T07:15:07.000Z</time>
      </trkpt>
      <trkpt lat="45.66077" lon="0.25889">
        <ele>58.5</ele>
        <time>2026-08-12T07:15:10.000Z</time>
      </trkpt>
      <trkpt lat="45.66074" lon="0.25883">
        <ele>58</ele>
        <time>2026-08-12T07:15:11.000Z</time>
      </trkpt>
      <trkpt lat="45.66072" lon="0.2587">
        <ele>56.9</ele>
        <time>2026-08-12T07:15:13.000Z</time>
      </trkpt>
      <trkpt lat="45.66072" lon="0.25862">
        <ele>56.4</ele>
        <time>2026-08-12T07:15:14.000Z</time>
      </trkpt>
      <trkpt lat="45.66074" lon="0.25853">
        <ele>56.1</ele>
        <time>2026-08-12T07:15:15.000Z</time>
      </trkpt>
      <trkpt lat="45.66077" lon="0.25836">
        <ele>55.5</ele>
        <time>2026-08-12T07:15:17.000Z</time>
      </trkpt>
      <trkpt lat="45.66077" lon="0.25828">
        <ele>55.1</ele>
        <time>2026-08-12T07:15:18.000Z</time>
      </trkpt>
      <trkpt lat="45.66076" lon="0.2582">
        <ele>54.8</ele>
        <time>2026-08-12T07:15:19.000Z</time>
      </trkpt>
      <trkpt lat="45.66073" lon="0.25805">
        <ele>53.8</ele>
        <time>2026-08-12T07:15:21.000Z</time>
      </trkpt>
      <trkpt lat="45.66068" lon="0.25789">
        <ele>52.8</ele>
        <time>2026-08-12T07:15:23.000Z</time>
      </trkpt>
      <trkpt lat="45.66064" lon="0.25773">
        <ele>52.1</ele>
        <time>2026-08-12T07:15:25.000Z</time>
      </trkpt>
      <trkpt lat="45.66061" lon="0.25765">
        <ele>51.7</ele>
        <time>2026-08-12T07:15:26.000Z</time>
      </trkpt>
      <trkpt lat="45.66056" lon="0.2575">
        <ele>51</ele>
        <time>2026-08-12T07:15:28.000Z</time>
      </trkpt>
      <trkpt lat="45.66049" lon="0.25727">
        <ele>50.8</ele>
        <time>2026-08-12T07:15:31.000Z</time>
      </trkpt>
      <trkpt lat="45.66042" lon="0.25703">
        <ele>50.2</ele>
        <time>2026-08-12T07:15:34.000Z</time>
      </trkpt>
      <trkpt lat="45.66037" lon="0.25688">
        <ele>50</ele>
        <time>2026-08-12T07:15:36.000Z</time>
      </trkpt>
      <trkpt lat="45.66028" lon="0.25658">
        <ele>49.7</ele>
        <time>2026-08-12T07:15:40.000Z</time>
      </trkpt>
      <trkpt lat="45.66017" lon="0.25622">
        <ele>48.6</ele>
        <time>2026-08-12T07:15:45.000Z</time>
      </trkpt>
      <trkpt lat="45.66015" lon="0.25615">
        <ele>48.5</ele>
        <time>2026-08-12T07:15:46.000Z</time>
      </trkpt>
      <trkpt lat="45.6601" lon="0.25601">
        <ele>49</ele>
        <time>2026-08-12T07:15:48.000Z</time>
      </trkpt>
      <trkpt lat="45.66006" lon="0.25588">
        <ele>49.7</ele>
        <time>2026-08-12T07:15:50.000Z</time>
      </trkpt>
      <trkpt lat="45.66004" lon="0.25581">
        <ele>50</ele>
        <time>2026-08-12T07:15:51.000Z</time>
      </trkpt>
      <trkpt lat="45.65985" lon="0.25512">
        <ele>49.2</ele>
        <time>2026-08-12T07:16:01.000Z</time>
      </trkpt>
      <trkpt lat="45.65983" lon="0.25505">
        <ele>49.1</ele>
        <time>2026-08-12T07:16:02.000Z</time>
      </trkpt>
      <trkpt lat="45.65977" lon="0.25486">
        <ele>49</ele>
        <time>2026-08-12T07:16:05.000Z</time>
      </trkpt>
      <trkpt lat="45.65972" lon="0.25468">
        <ele>49</ele>
        <time>2026-08-12T07:16:08.000Z</time>
      </trkpt>
      <trkpt lat="45.65968" lon="0.25456">
        <ele>49</ele>
        <time>2026-08-12T07:16:10.000Z</time>
      </trkpt>
      <trkpt lat="45.65961" lon="0.2544">
        <ele>49</ele>
        <time>2026-08-12T07:16:13.000Z</time>
      </trkpt>
      <trkpt lat="45.65957" lon="0.25429">
        <ele>49</ele>
        <time>2026-08-12T07:16:15.000Z</time>
      </trkpt>
      <trkpt lat="45.65953" lon="0.25417">
        <ele>49</ele>
        <time>2026-08-12T07:16:17.000Z</time>
      </trkpt>
      <trkpt lat="45.65953" lon="0.2541">
        <ele>49</ele>
        <time>2026-08-12T07:16:18.000Z</time>
      </trkpt>
      <trkpt lat="45.65956" lon="0.25405">
        <ele>49</ele>
        <time>2026-08-12T07:16:19.000Z</time>
      </trkpt>
      <trkpt lat="45.65963" lon="0.25396">
        <ele>49</ele>
        <time>2026-08-12T07:16:21.000Z</time>
      </trkpt>
      <trkpt lat="45.65991" lon="0.25372">
        <ele>49</ele>
        <time>2026-08-12T07:16:27.000Z</time>
      </trkpt>
      <trkpt lat="45.66008" lon="0.25358">
        <ele>49.5</ele>
        <time>2026-08-12T07:16:31.000Z</time>
      </trkpt>
      <trkpt lat="45.66018" lon="0.25353">
        <ele>49.9</ele>
        <time>2026-08-12T07:16:33.000Z</time>
      </trkpt>
      <trkpt lat="45.66021" lon="0.2534">
        <ele>49.9</ele>
        <time>2026-08-12T07:16:35.000Z</time>
      </trkpt>
      <trkpt lat="45.66021" lon="0.25333">
        <ele>50</ele>
        <time>2026-08-12T07:16:36.000Z</time>
      </trkpt>
      <trkpt lat="45.66017" lon="0.25321">
        <ele>49.8</ele>
        <time>2026-08-12T07:16:38.000Z</time>
      </trkpt>
      <trkpt lat="45.65998" lon="0.25289">
        <ele>49.5</ele>
        <time>2026-08-12T07:16:44.000Z</time>
      </trkpt>
      <trkpt lat="45.65978" lon="0.25246">
        <ele>48.7</ele>
        <time>2026-08-12T07:16:51.000Z</time>
      </trkpt>
      <trkpt lat="45.65958" lon="0.252">
        <ele>48.6</ele>
        <time>2026-08-12T07:16:59.000Z</time>
      </trkpt>
      <trkpt lat="45.65955" lon="0.25194">
        <ele>48.6</ele>
        <time>2026-08-12T07:17:00.000Z</time>
      </trkpt>
      <trkpt lat="45.65948" lon="0.2516">
        <ele>47.3</ele>
        <time>2026-08-12T07:17:05.000Z</time>
      </trkpt>
      <trkpt lat="45.65939" lon="0.25104">
        <ele>48.5</ele>
        <time>2026-08-12T07:17:13.000Z</time>
      </trkpt>
      <trkpt lat="45.65931" lon="0.25049">
        <ele>49</ele>
        <time>2026-08-12T07:17:21.000Z</time>
      </trkpt>
      <trkpt lat="45.65925" lon="0.2501">
        <ele>49.6</ele>
        <time>2026-08-12T07:17:28.000Z</time>
      </trkpt>
      <trkpt lat="45.65923" lon="0.24971">
        <ele>49.7</ele>
        <time>2026-08-12T07:17:35.000Z</time>
      </trkpt>
      <trkpt lat="45.6592" lon="0.24914">
        <ele>49</ele>
        <time>2026-08-12T07:17:44.000Z</time>
      </trkpt>
      <trkpt lat="45.6592" lon="0.24902">
        <ele>49</ele>
        <time>2026-08-12T07:17:46.000Z</time>
      </trkpt>
      <trkpt lat="45.65922" lon="0.2487">
        <ele>49</ele>
        <time>2026-08-12T07:17:51.000Z</time>
      </trkpt>
      <trkpt lat="45.65926" lon="0.24813">
        <ele>49.1</ele>
        <time>2026-08-12T07:18:00.000Z</time>
      </trkpt>
      <trkpt lat="45.65938" lon="0.24743">
        <ele>48.6</ele>
        <time>2026-08-12T07:18:11.000Z</time>
      </trkpt>
      <trkpt lat="45.65947" lon="0.24705">
        <ele>48.5</ele>
        <time>2026-08-12T07:18:17.000Z</time>
      </trkpt>
      <trkpt lat="45.6595" lon="0.24693">
        <ele>48.6</ele>
        <time>2026-08-12T07:18:19.000Z</time>
      </trkpt>
      <trkpt lat="45.65964" lon="0.24648">
        <ele>48.6</ele>
        <time>2026-08-12T07:18:26.000Z</time>
      </trkpt>
      <trkpt lat="45.65966" lon="0.24642">
        <ele>48.5</ele>
        <time>2026-08-12T07:18:27.000Z</time>
      </trkpt>
      <trkpt lat="45.65976" lon="0.24609">
        <ele>47.9</ele>
        <time>2026-08-12T07:18:32.000Z</time>
      </trkpt>
      <trkpt lat="45.65987" lon="0.24578">
        <ele>48.5</ele>
        <time>2026-08-12T07:18:37.000Z</time>
      </trkpt>
      <trkpt lat="45.66001" lon="0.24541">
        <ele>48</ele>
        <time>2026-08-12T07:18:43.000Z</time>
      </trkpt>
      <trkpt lat="45.66022" lon="0.24498">
        <ele>48.7</ele>
        <time>2026-08-12T07:18:51.000Z</time>
      </trkpt>
      <trkpt lat="45.6604" lon="0.24466">
        <ele>48.8</ele>
        <time>2026-08-12T07:18:58.000Z</time>
      </trkpt>
      <trkpt lat="45.66055" lon="0.24442">
        <ele>49.4</ele>
        <time>2026-08-12T07:19:05.000Z</time>
      </trkpt>
      <trkpt lat="45.66066" lon="0.2443">
        <ele>50.4</ele>
        <time>2026-08-12T07:19:12.000Z</time>
      </trkpt>
      <trkpt lat="45.66067" lon="0.24428">
        <ele>50.6</ele>
        <time>2026-08-12T07:19:13.000Z</time>
      </trkpt>
      <trkpt lat="45.66068" lon="0.24417">
        <ele>51.6</ele>
        <time>2026-08-12T07:19:17.000Z</time>
      </trkpt>
      <trkpt lat="45.66065" lon="0.24407">
        <ele>51.8</ele>
        <time>2026-08-12T07:19:21.000Z</time>
      </trkpt>
      <trkpt lat="45.66052" lon="0.24407">
        <ele>52.2</ele>
        <time>2026-08-12T07:19:26.000Z</time>
      </trkpt>
      <trkpt lat="45.66043" lon="0.24406">
        <ele>52.6</ele>
        <time>2026-08-12T07:19:29.000Z</time>
      </trkpt>
      <trkpt lat="45.66041" lon="0.24402">
        <ele>52.8</ele>
        <time>2026-08-12T07:19:30.000Z</time>
      </trkpt>
      <trkpt lat="45.66037" lon="0.2439">
        <ele>53.3</ele>
        <time>2026-08-12T07:19:33.000Z</time>
      </trkpt>
      <trkpt lat="45.66035" lon="0.24379">
        <ele>53.9</ele>
        <time>2026-08-12T07:19:36.000Z</time>
      </trkpt>
      <trkpt lat="45.66036" lon="0.24376">
        <ele>54</ele>
        <time>2026-08-12T07:19:37.000Z</time>
      </trkpt>
      <trkpt lat="45.6604" lon="0.24371">
        <ele>54</ele>
        <time>2026-08-12T07:19:39.000Z</time>
      </trkpt>
      <trkpt lat="45.66048" lon="0.24365">
        <ele>54</ele>
        <time>2026-08-12T07:19:42.000Z</time>
      </trkpt>
      <trkpt lat="45.66056" lon="0.24359">
        <ele>54.2</ele>
        <time>2026-08-12T07:19:45.000Z</time>
      </trkpt>
      <trkpt lat="45.66071" lon="0.24338">
        <ele>54.1</ele>
        <time>2026-08-12T07:19:51.000Z</time>
      </trkpt>
      <trkpt lat="45.66093" lon="0.24299">
        <ele>55.1</ele>
        <time>2026-08-12T07:19:59.000Z</time>
      </trkpt>
      <trkpt lat="45.6611" lon="0.2427">
        <ele>53.8</ele>
        <time>2026-08-12T07:20:04.000Z</time>
      </trkpt>
      <trkpt lat="45.66112" lon="0.24264">
        <ele>54</ele>
        <time>2026-08-12T07:20:05.000Z</time>
      </trkpt>
      <trkpt lat="45.6613" lon="0.24232">
        <ele>54.3</ele>
        <time>2026-08-12T07:20:11.000Z</time>
      </trkpt>
      <trkpt lat="45.66146" lon="0.24192">
        <ele>53.8</ele>
        <time>2026-08-12T07:20:18.000Z</time>
      </trkpt>
      <trkpt lat="45.66162" lon="0.24148">
        <ele>54.3</ele>
        <time>2026-08-12T07:20:26.000Z</time>
      </trkpt>
      <trkpt lat="45.66175" lon="0.24118">
        <ele>54.7</ele>
        <time>2026-08-12T07:20:32.000Z</time>
      </trkpt>
      <trkpt lat="45.66179" lon="0.24111">
        <ele>55</ele>
        <time>2026-08-12T07:20:34.000Z</time>
      </trkpt>
      <trkpt lat="45.66186" lon="0.24098">
        <ele>54.8</ele>
        <time>2026-08-12T07:20:37.000Z</time>
      </trkpt>
      <trkpt lat="45.66201" lon="0.24063">
        <ele>55.5</ele>
        <time>2026-08-12T07:20:45.000Z</time>
      </trkpt>
      <trkpt lat="45.66204" lon="0.24057">
        <ele>55.6</ele>
        <time>2026-08-12T07:20:47.000Z</time>
      </trkpt>
      <trkpt lat="45.66208" lon="0.2405">
        <ele>55.9</ele>
        <time>2026-08-12T07:20:49.000Z</time>
      </trkpt>
      <trkpt lat="45.66221" lon="0.24024">
        <ele>57.2</ele>
        <time>2026-08-12T07:20:56.000Z</time>
      </trkpt>
      <trkpt lat="45.66223" lon="0.2402">
        <ele>57.2</ele>
        <time>2026-08-12T07:20:57.000Z</time>
      </trkpt>
      <trkpt lat="45.66235" lon="0.23994">
        <ele>57.4</ele>
        <time>2026-08-12T07:21:04.000Z</time>
      </trkpt>
      <trkpt lat="45.66236" lon="0.23991">
        <ele>57.5</ele>
        <time>2026-08-12T07:21:05.000Z</time>
      </trkpt>
      <trkpt lat="45.66247" lon="0.23966">
        <ele>57.8</ele>
        <time>2026-08-12T07:21:12.000Z</time>
      </trkpt>
      <trkpt lat="45.66251" lon="0.23957">
        <ele>58</ele>
        <time>2026-08-12T07:21:15.000Z</time>
      </trkpt>
      <trkpt lat="45.66262" lon="0.23934">
        <ele>58.9</ele>
        <time>2026-08-12T07:21:21.000Z</time>
      </trkpt>
      <trkpt lat="45.66276" lon="0.23905">
        <ele>59.9</ele>
        <time>2026-08-12T07:21:28.000Z</time>
      </trkpt>
      <trkpt lat="45.66279" lon="0.239">
        <ele>60</ele>
        <time>2026-08-12T07:21:29.000Z</time>
      </trkpt>
      <trkpt lat="45.66291" lon="0.2387">
        <ele>59.6</ele>
        <time>2026-08-12T07:21:35.000Z</time>
      </trkpt>
      <trkpt lat="45.6631" lon="0.23836">
        <ele>59.2</ele>
        <time>2026-08-12T07:21:41.000Z</time>
      </trkpt>
      <trkpt lat="45.66337" lon="0.2379">
        <ele>58.1</ele>
        <time>2026-08-12T07:21:48.000Z</time>
      </trkpt>
      <trkpt lat="45.66352" lon="0.23766">
        <ele>57.4</ele>
        <time>2026-08-12T07:21:52.000Z</time>
      </trkpt>
      <trkpt lat="45.66372" lon="0.23739">
        <ele>57.4</ele>
        <time>2026-08-12T07:21:57.000Z</time>
      </trkpt>
      <trkpt lat="45.66375" lon="0.23734">
        <ele>57.3</ele>
        <time>2026-08-12T07:21:58.000Z</time>
      </trkpt>
      <trkpt lat="45.66382" lon="0.23716">
        <ele>57.5</ele>
        <time>2026-08-12T07:22:01.000Z</time>
      </trkpt>
      <trkpt lat="45.66384" lon="0.2371">
        <ele>57.6</ele>
        <time>2026-08-12T07:22:02.000Z</time>
      </trkpt>
      <trkpt lat="45.66396" lon="0.23689">
        <ele>57.7</ele>
        <time>2026-08-12T07:22:06.000Z</time>
      </trkpt>
      <trkpt lat="45.66409" lon="0.23669">
        <ele>57.3</ele>
        <time>2026-08-12T07:22:10.000Z</time>
      </trkpt>
      <trkpt lat="45.66415" lon="0.23663">
        <ele>57.2</ele>
        <time>2026-08-12T07:22:12.000Z</time>
      </trkpt>
      <trkpt lat="45.66418" lon="0.23662">
        <ele>57.2</ele>
        <time>2026-08-12T07:22:14.000Z</time>
      </trkpt>
      <trkpt lat="45.66419" lon="0.23662">
        <ele>57.2</ele>
        <time>2026-08-12T07:22:15.000Z</time>
      </trkpt>
      <trkpt lat="45.66419" lon="0.23662">
        <ele>57.2</ele>
        <time>2026-08-12T07:22:17.000Z</time>
      </trkpt>
      <trkpt lat="45.66424" lon="0.23661">
        <ele>57.2</ele>
        <time>2026-08-12T07:22:26.000Z</time>
      </trkpt>
      <trkpt lat="45.66427" lon="0.23659">
        <ele>57.2</ele>
        <time>2026-08-12T07:22:27.000Z</time>
      </trkpt>
      <trkpt lat="45.66442" lon="0.23653">
        <ele>57</ele>
        <time>2026-08-12T07:22:31.000Z</time>
      </trkpt>
      <trkpt lat="45.66462" lon="0.23647">
        <ele>56.4</ele>
        <time>2026-08-12T07:22:36.000Z</time>
      </trkpt>
      <trkpt lat="45.66497" lon="0.23623">
        <ele>55.5</ele>
        <time>2026-08-12T07:22:44.000Z</time>
      </trkpt>
      <trkpt lat="45.66517" lon="0.23609">
        <ele>54.9</ele>
        <time>2026-08-12T07:22:48.000Z</time>
      </trkpt>
      <trkpt lat="45.66522" lon="0.23606">
        <ele>54.7</ele>
        <time>2026-08-12T07:22:49.000Z</time>
      </trkpt>
      <trkpt lat="45.66549" lon="0.23592">
        <ele>53.4</ele>
        <time>2026-08-12T07:22:54.000Z</time>
      </trkpt>
      <trkpt lat="45.66558" lon="0.23592">
        <ele>53.5</ele>
        <time>2026-08-12T07:22:56.000Z</time>
      </trkpt>
      <trkpt lat="45.66561" lon="0.236">
        <ele>54.1</ele>
        <time>2026-08-12T07:22:58.000Z</time>
      </trkpt>
      <trkpt lat="45.66566" lon="0.23624">
        <ele>53.9</ele>
        <time>2026-08-12T07:23:03.000Z</time>
      </trkpt>
      <trkpt lat="45.66568" lon="0.23667">
        <ele>53</ele>
        <time>2026-08-12T07:23:11.000Z</time>
      </trkpt>
      <trkpt lat="45.66576" lon="0.23673">
        <ele>53</ele>
        <time>2026-08-12T07:23:14.000Z</time>
      </trkpt>
      <trkpt lat="45.66599" lon="0.23666">
        <ele>53.5</ele>
        <time>2026-08-12T07:23:21.000Z</time>
      </trkpt>
      <trkpt lat="45.66627" lon="0.2366">
        <ele>54.6</ele>
        <time>2026-08-12T07:23:30.000Z</time>
      </trkpt>
      <trkpt lat="45.66645" lon="0.23659">
        <ele>55.1</ele>
        <time>2026-08-12T07:23:36.000Z</time>
      </trkpt>
      <trkpt lat="45.66649" lon="0.23655">
        <ele>55.2</ele>
        <time>2026-08-12T07:23:39.000Z</time>
      </trkpt>
      <trkpt lat="45.66649" lon="0.23654">
        <ele>55.2</ele>
        <time>2026-08-12T07:23:40.000Z</time>
      </trkpt>
      <trkpt lat="45.66648" lon="0.23653">
        <ele>55.2</ele>
        <time>2026-08-12T07:23:41.000Z</time>
      </trkpt>
      <trkpt lat="45.66646" lon="0.23648">
        <ele>55.2</ele>
        <time>2026-08-12T07:23:44.000Z</time>
      </trkpt>
      <trkpt lat="45.66644" lon="0.23645">
        <ele>55.1</ele>
        <time>2026-08-12T07:23:50.000Z</time>
      </trkpt>
      <trkpt lat="45.66643" lon="0.23643">
        <ele>55.1</ele>
        <time>2026-08-12T07:23:54.000Z</time>
      </trkpt>
      <trkpt lat="45.66641" lon="0.23644">
        <ele>55.1</ele>
        <time>2026-08-12T07:23:56.000Z</time>
      </trkpt>
      <trkpt lat="45.66641" lon="0.23643">
        <ele>55.1</ele>
        <time>2026-08-12T07:23:57.000Z</time>
      </trkpt>
      <trkpt lat="45.66642" lon="0.23641">
        <ele>55.1</ele>
        <time>2026-08-12T07:24:00.000Z</time>
      </trkpt>
      <trkpt lat="45.66642" lon="0.23643">
        <ele>55.1</ele>
        <time>2026-08-12T07:24:01.000Z</time>
      </trkpt>
      <trkpt lat="45.66648" lon="0.23651">
        <ele>55.2</ele>
        <time>2026-08-12T07:24:05.000Z</time>
      </trkpt>
      <trkpt lat="45.66651" lon="0.23653">
        <ele>55.2</ele>
        <time>2026-08-12T07:24:06.000Z</time>
      </trkpt>
      <trkpt lat="45.6666" lon="0.23652">
        <ele>55.4</ele>
        <time>2026-08-12T07:24:09.000Z</time>
      </trkpt>
      <trkpt lat="45.66678" lon="0.23649">
        <ele>56.2</ele>
        <time>2026-08-12T07:24:15.000Z</time>
      </trkpt>
      <trkpt lat="45.66684" lon="0.23647">
        <ele>56.5</ele>
        <time>2026-08-12T07:24:17.000Z</time>
      </trkpt>
      <trkpt lat="45.667" lon="0.23642">
        <ele>57.2</ele>
        <time>2026-08-12T07:24:22.000Z</time>
      </trkpt>
      <trkpt lat="45.66714" lon="0.23637">
        <ele>57.7</ele>
        <time>2026-08-12T07:24:26.000Z</time>
      </trkpt>
      <trkpt lat="45.66728" lon="0.23633">
        <ele>58</ele>
        <time>2026-08-12T07:24:30.000Z</time>
      </trkpt>
      <trkpt lat="45.66742" lon="0.2363">
        <ele>58.4</ele>
        <time>2026-08-12T07:24:34.000Z</time>
      </trkpt>
      <trkpt lat="45.66763" lon="0.23627">
        <ele>58.3</ele>
        <time>2026-08-12T07:24:40.000Z</time>
      </trkpt>
      <trkpt lat="45.66793" lon="0.23622">
        <ele>57.5</ele>
        <time>2026-08-12T07:24:47.000Z</time>
      </trkpt>
      <trkpt lat="45.66803" lon="0.23621">
        <ele>57.1</ele>
        <time>2026-08-12T07:24:49.000Z</time>
      </trkpt>
      <trkpt lat="45.66844" lon="0.23614">
        <ele>56.5</ele>
        <time>2026-08-12T07:24:57.000Z</time>
      </trkpt>
      <trkpt lat="45.66854" lon="0.23618">
        <ele>56</ele>
        <time>2026-08-12T07:24:59.000Z</time>
      </trkpt>
      <trkpt lat="45.66863" lon="0.23623">
        <ele>55.5</ele>
        <time>2026-08-12T07:25:01.000Z</time>
      </trkpt>
      <trkpt lat="45.66883" lon="0.23622">
        <ele>54.5</ele>
        <time>2026-08-12T07:25:05.000Z</time>
      </trkpt>
      <trkpt lat="45.66918" lon="0.23605">
        <ele>54.2</ele>
        <time>2026-08-12T07:25:12.000Z</time>
      </trkpt>
      <trkpt lat="45.66933" lon="0.23596">
        <ele>54</ele>
        <time>2026-08-12T07:25:15.000Z</time>
      </trkpt>
      <trkpt lat="45.66949" lon="0.23589">
        <ele>53.6</ele>
        <time>2026-08-12T07:25:18.000Z</time>
      </trkpt>
      <trkpt lat="45.66976" lon="0.23576">
        <ele>53.1</ele>
        <time>2026-08-12T07:25:23.000Z</time>
      </trkpt>
      <trkpt lat="45.66993" lon="0.2357">
        <ele>53.1</ele>
        <time>2026-08-12T07:25:26.000Z</time>
      </trkpt>
      <trkpt lat="45.66999" lon="0.23568">
        <ele>53.1</ele>
        <time>2026-08-12T07:25:27.000Z</time>
      </trkpt>
      <trkpt lat="45.67024" lon="0.23558">
        <ele>53</ele>
        <time>2026-08-12T07:25:31.000Z</time>
      </trkpt>
      <trkpt lat="45.67042" lon="0.23549">
        <ele>52.2</ele>
        <time>2026-08-12T07:25:34.000Z</time>
      </trkpt>
      <trkpt lat="45.6706" lon="0.23539">
        <ele>51.9</ele>
        <time>2026-08-12T07:25:37.000Z</time>
      </trkpt>
      <trkpt lat="45.67087" lon="0.23522">
        <ele>50.2</ele>
        <time>2026-08-12T07:25:42.000Z</time>
      </trkpt>
      <trkpt lat="45.67122" lon="0.23496">
        <ele>50.7</ele>
        <time>2026-08-12T07:25:49.000Z</time>
      </trkpt>
      <trkpt lat="45.67132" lon="0.23489">
        <ele>50.6</ele>
        <time>2026-08-12T07:25:51.000Z</time>
      </trkpt>
      <trkpt lat="45.67157" lon="0.23464">
        <ele>50.4</ele>
        <time>2026-08-12T07:25:57.000Z</time>
      </trkpt>
      <trkpt lat="45.67186" lon="0.23434">
        <ele>50</ele>
        <time>2026-08-12T07:26:04.000Z</time>
      </trkpt>
      <trkpt lat="45.67221" lon="0.2339">
        <ele>50</ele>
        <time>2026-08-12T07:26:14.000Z</time>
      </trkpt>
      <trkpt lat="45.67226" lon="0.23387">
        <ele>50.1</ele>
        <time>2026-08-12T07:26:17.000Z</time>
      </trkpt>
      <trkpt lat="45.67226" lon="0.23387">
        <ele>50.1</ele>
        <time>2026-08-12T07:26:18.000Z</time>
      </trkpt>
      <trkpt lat="45.67229" lon="0.23379">
        <ele>50.3</ele>
        <time>2026-08-12T07:27:27.000Z</time>
      </trkpt>
      <trkpt lat="45.67233" lon="0.23375">
        <ele>50.3</ele>
        <time>2026-08-12T07:27:29.000Z</time>
      </trkpt>
      <trkpt lat="45.67247" lon="0.23356">
        <ele>50.3</ele>
        <time>2026-08-12T07:27:36.000Z</time>
      </trkpt>
      <trkpt lat="45.67262" lon="0.23331">
        <ele>50.6</ele>
        <time>2026-08-12T07:27:43.000Z</time>
      </trkpt>
      <trkpt lat="45.67285" lon="0.23292">
        <ele>49.8</ele>
        <time>2026-08-12T07:27:51.000Z</time>
      </trkpt>
      <trkpt lat="45.67308" lon="0.23247">
        <ele>49</ele>
        <time>2026-08-12T07:27:59.000Z</time>
      </trkpt>
      <trkpt lat="45.67329" lon="0.23196">
        <ele>49</ele>
        <time>2026-08-12T07:28:07.000Z</time>
      </trkpt>
      <trkpt lat="45.67332" lon="0.2319">
        <ele>49</ele>
        <time>2026-08-12T07:28:08.000Z</time>
      </trkpt>
      <trkpt lat="45.67349" lon="0.23144">
        <ele>48.9</ele>
        <time>2026-08-12T07:28:15.000Z</time>
      </trkpt>
      <trkpt lat="45.67371" lon="0.23081">
        <ele>49</ele>
        <time>2026-08-12T07:28:25.000Z</time>
      </trkpt>
      <trkpt lat="45.67388" lon="0.23031">
        <ele>49</ele>
        <time>2026-08-12T07:28:33.000Z</time>
      </trkpt>
      <trkpt lat="45.67411" lon="0.22973">
        <ele>48.2</ele>
        <time>2026-08-12T07:28:42.000Z</time>
      </trkpt>
      <trkpt lat="45.67423" lon="0.22939">
        <ele>47.6</ele>
        <time>2026-08-12T07:28:47.000Z</time>
      </trkpt>
      <trkpt lat="45.67438" lon="0.22897">
        <ele>46.4</ele>
        <time>2026-08-12T07:28:53.000Z</time>
      </trkpt>
      <trkpt lat="45.67453" lon="0.22859">
        <ele>45.7</ele>
        <time>2026-08-12T07:28:59.000Z</time>
      </trkpt>
      <trkpt lat="45.67461" lon="0.2284">
        <ele>45.7</ele>
        <time>2026-08-12T07:29:02.000Z</time>
      </trkpt>
      <trkpt lat="45.67465" lon="0.22827">
        <ele>45.6</ele>
        <time>2026-08-12T07:29:04.000Z</time>
      </trkpt>
      <trkpt lat="45.67481" lon="0.22786">
        <ele>45.5</ele>
        <time>2026-08-12T07:29:10.000Z</time>
      </trkpt>
      <trkpt lat="45.67486" lon="0.22772">
        <ele>45.6</ele>
        <time>2026-08-12T07:29:12.000Z</time>
      </trkpt>
      <trkpt lat="45.67497" lon="0.22743">
        <ele>44.6</ele>
        <time>2026-08-12T07:29:16.000Z</time>
      </trkpt>
      <trkpt lat="45.67504" lon="0.22721">
        <ele>44.6</ele>
        <time>2026-08-12T07:29:19.000Z</time>
      </trkpt>
      <trkpt lat="45.67509" lon="0.22706">
        <ele>44.9</ele>
        <time>2026-08-12T07:29:21.000Z</time>
      </trkpt>
      <trkpt lat="45.67514" lon="0.22693">
        <ele>45</ele>
        <time>2026-08-12T07:29:23.000Z</time>
      </trkpt>
      <trkpt lat="45.67519" lon="0.2268">
        <ele>44.8</ele>
        <time>2026-08-12T07:29:25.000Z</time>
      </trkpt>
      <trkpt lat="45.67526" lon="0.22653">
        <ele>44.7</ele>
        <time>2026-08-12T07:29:29.000Z</time>
      </trkpt>
      <trkpt lat="45.67541" lon="0.22607">
        <ele>45.4</ele>
        <time>2026-08-12T07:29:37.000Z</time>
      </trkpt>
      <trkpt lat="45.6755" lon="0.22585">
        <ele>46.2</ele>
        <time>2026-08-12T07:29:43.000Z</time>
      </trkpt>
      <trkpt lat="45.67558" lon="0.22561">
        <ele>47.3</ele>
        <time>2026-08-12T07:29:50.000Z</time>
      </trkpt>
      <trkpt lat="45.67558" lon="0.22558">
        <ele>47.5</ele>
        <time>2026-08-12T07:29:51.000Z</time>
      </trkpt>
      <trkpt lat="45.67559" lon="0.22553">
        <ele>47.7</ele>
        <time>2026-08-12T07:29:54.000Z</time>
      </trkpt>
      <trkpt lat="45.6756" lon="0.2255">
        <ele>47.6</ele>
        <time>2026-08-12T07:29:55.000Z</time>
      </trkpt>
      <trkpt lat="45.67561" lon="0.22547">
        <ele>47.5</ele>
        <time>2026-08-12T07:29:56.000Z</time>
      </trkpt>
      <trkpt lat="45.67568" lon="0.22527">
        <ele>47.1</ele>
        <time>2026-08-12T07:30:00.000Z</time>
      </trkpt>
      <trkpt lat="45.67576" lon="0.22493">
        <ele>46.5</ele>
        <time>2026-08-12T07:30:06.000Z</time>
      </trkpt>
      <trkpt lat="45.67574" lon="0.2249">
        <ele>46.7</ele>
        <time>2026-08-12T07:30:08.000Z</time>
      </trkpt>
      <trkpt lat="45.67573" lon="0.22489">
        <ele>46.7</ele>
        <time>2026-08-12T07:30:09.000Z</time>
      </trkpt>
      <trkpt lat="45.67572" lon="0.22485">
        <ele>46.8</ele>
        <time>2026-08-12T07:30:11.000Z</time>
      </trkpt>
      <trkpt lat="45.67569" lon="0.22483">
        <ele>47</ele>
        <time>2026-08-12T07:30:13.000Z</time>
      </trkpt>
      <trkpt lat="45.67569" lon="0.22481">
        <ele>47</ele>
        <time>2026-08-12T07:30:14.000Z</time>
      </trkpt>
      <trkpt lat="45.67574" lon="0.22462">
        <ele>46.9</ele>
        <time>2026-08-12T07:30:19.000Z</time>
      </trkpt>
      <trkpt lat="45.67578" lon="0.22438">
        <ele>47.4</ele>
        <time>2026-08-12T07:30:24.000Z</time>
      </trkpt>
      <trkpt lat="45.67586" lon="0.22401">
        <ele>47.8</ele>
        <time>2026-08-12T07:30:31.000Z</time>
      </trkpt>
      <trkpt lat="45.67598" lon="0.22351">
        <ele>48</ele>
        <time>2026-08-12T07:30:40.000Z</time>
      </trkpt>
      <trkpt lat="45.67602" lon="0.22335">
        <ele>48</ele>
        <time>2026-08-12T07:30:43.000Z</time>
      </trkpt>
      <trkpt lat="45.6761" lon="0.22321">
        <ele>48</ele>
        <time>2026-08-12T07:30:46.000Z</time>
      </trkpt>
      <trkpt lat="45.67612" lon="0.22316">
        <ele>48</ele>
        <time>2026-08-12T07:30:47.000Z</time>
      </trkpt>
      <trkpt lat="45.67616" lon="0.223">
        <ele>48</ele>
        <time>2026-08-12T07:30:50.000Z</time>
      </trkpt>
      <trkpt lat="45.67616" lon="0.22278">
        <ele>48</ele>
        <time>2026-08-12T07:30:54.000Z</time>
      </trkpt>
      <trkpt lat="45.67618" lon="0.22272">
        <ele>48</ele>
        <time>2026-08-12T07:30:55.000Z</time>
      </trkpt>
      <trkpt lat="45.67625" lon="0.22247">
        <ele>48</ele>
        <time>2026-08-12T07:31:00.000Z</time>
      </trkpt>
      <trkpt lat="45.67633" lon="0.2222">
        <ele>48.1</ele>
        <time>2026-08-12T07:31:05.000Z</time>
      </trkpt>
      <trkpt lat="45.67638" lon="0.222">
        <ele>48.8</ele>
        <time>2026-08-12T07:31:09.000Z</time>
      </trkpt>
      <trkpt lat="45.67647" lon="0.22196">
        <ele>48.7</ele>
        <time>2026-08-12T07:31:12.000Z</time>
      </trkpt>
      <trkpt lat="45.67661" lon="0.22201">
        <ele>48.2</ele>
        <time>2026-08-12T07:31:17.000Z</time>
      </trkpt>
      <trkpt lat="45.67683" lon="0.22206">
        <ele>47.4</ele>
        <time>2026-08-12T07:31:23.000Z</time>
      </trkpt>
      <trkpt lat="45.67712" lon="0.22214">
        <ele>46.4</ele>
        <time>2026-08-12T07:31:29.000Z</time>
      </trkpt>
      <trkpt lat="45.67734" lon="0.22219">
        <ele>45.6</ele>
        <time>2026-08-12T07:31:33.000Z</time>
      </trkpt>
      <trkpt lat="45.67738" lon="0.2222">
        <ele>45.5</ele>
        <time>2026-08-12T07:31:34.000Z</time>
      </trkpt>
      <trkpt lat="45.67742" lon="0.22221">
        <ele>45.3</ele>
        <time>2026-08-12T07:31:35.000Z</time>
      </trkpt>
      <trkpt lat="45.67751" lon="0.22222">
        <ele>45</ele>
        <time>2026-08-12T07:31:39.000Z</time>
      </trkpt>
      <trkpt lat="45.67753" lon="0.22222">
        <ele>44.9</ele>
        <time>2026-08-12T07:31:41.000Z</time>
      </trkpt>
      <trkpt lat="45.67755" lon="0.22223">
        <ele>44.8</ele>
        <time>2026-08-12T07:31:43.000Z</time>
      </trkpt>
      <trkpt lat="45.67757" lon="0.22221">
        <ele>44.8</ele>
        <time>2026-08-12T07:31:44.000Z</time>
      </trkpt>
      <trkpt lat="45.67759" lon="0.22216">
        <ele>44.9</ele>
        <time>2026-08-12T07:31:46.000Z</time>
      </trkpt>
      <trkpt lat="45.67757" lon="0.2221">
        <ele>45.2</ele>
        <time>2026-08-12T07:31:48.000Z</time>
      </trkpt>
      <trkpt lat="45.67756" lon="0.22204">
        <ele>45.5</ele>
        <time>2026-08-12T07:31:50.000Z</time>
      </trkpt>
      <trkpt lat="45.67752" lon="0.22184">
        <ele>45.9</ele>
        <time>2026-08-12T07:31:56.000Z</time>
      </trkpt>
      <trkpt lat="45.6775" lon="0.22177">
        <ele>46</ele>
        <time>2026-08-12T07:32:01.000Z</time>
      </trkpt>
      <trkpt lat="45.6775" lon="0.22177">
        <ele>46</ele>
        <time>2026-08-12T07:32:02.000Z</time>
      </trkpt>
      <trkpt lat="45.67749" lon="0.22171">
        <ele>46</ele>
        <time>2026-08-12T07:32:08.000Z</time>
      </trkpt>
      <trkpt lat="45.67747" lon="0.22163">
        <ele>46.2</ele>
        <time>2026-08-12T07:32:11.000Z</time>
      </trkpt>
      <trkpt lat="45.67744" lon="0.22144">
        <ele>46.8</ele>
        <time>2026-08-12T07:32:15.000Z</time>
      </trkpt>
      <trkpt lat="45.67742" lon="0.22129">
        <ele>47</ele>
        <time>2026-08-12T07:32:19.000Z</time>
      </trkpt>
      <trkpt lat="45.67744" lon="0.22127">
        <ele>47</ele>
        <time>2026-08-12T07:32:20.000Z</time>
      </trkpt>
      <trkpt lat="45.67746" lon="0.22127">
        <ele>47</ele>
        <time>2026-08-12T07:32:21.000Z</time>
      </trkpt>
      <trkpt lat="45.67754" lon="0.22126">
        <ele>46.8</ele>
        <time>2026-08-12T07:32:24.000Z</time>
      </trkpt>
      <trkpt lat="45.6778" lon="0.22122">
        <ele>45.9</ele>
        <time>2026-08-12T07:32:30.000Z</time>
      </trkpt>
      <trkpt lat="45.67802" lon="0.22109">
        <ele>45.1</ele>
        <time>2026-08-12T07:32:35.000Z</time>
      </trkpt>
      <trkpt lat="45.6781" lon="0.22105">
        <ele>44.8</ele>
        <time>2026-08-12T07:32:37.000Z</time>
      </trkpt>
      <trkpt lat="45.67818" lon="0.22099">
        <ele>44.6</ele>
        <time>2026-08-12T07:32:39.000Z</time>
      </trkpt>
      <trkpt lat="45.67821" lon="0.22087">
        <ele>44.4</ele>
        <time>2026-08-12T07:32:41.000Z</time>
      </trkpt>
      <trkpt lat="45.67821" lon="0.22081">
        <ele>44.4</ele>
        <time>2026-08-12T07:32:42.000Z</time>
      </trkpt>
      <trkpt lat="45.6782" lon="0.2207">
        <ele>44.2</ele>
        <time>2026-08-12T07:32:44.000Z</time>
      </trkpt>
      <trkpt lat="45.67818" lon="0.22062">
        <ele>44.2</ele>
        <time>2026-08-12T07:32:46.000Z</time>
      </trkpt>
      <trkpt lat="45.67812" lon="0.22056">
        <ele>44.5</ele>
        <time>2026-08-12T07:32:49.000Z</time>
      </trkpt>
      <trkpt lat="45.67812" lon="0.22052">
        <ele>44.5</ele>
        <time>2026-08-12T07:32:50.000Z</time>
      </trkpt>
      <trkpt lat="45.67812" lon="0.22048">
        <ele>44.3</ele>
        <time>2026-08-12T07:32:51.000Z</time>
      </trkpt>
      <trkpt lat="45.67816" lon="0.22034">
        <ele>43.8</ele>
        <time>2026-08-12T07:32:54.000Z</time>
      </trkpt>
      <trkpt lat="45.67828" lon="0.21997">
        <ele>44.2</ele>
        <time>2026-08-12T07:33:01.000Z</time>
      </trkpt>
      <trkpt lat="45.67835" lon="0.21973">
        <ele>43.9</ele>
        <time>2026-08-12T07:33:06.000Z</time>
      </trkpt>
      <trkpt lat="45.67837" lon="0.21953">
        <ele>44</ele>
        <time>2026-08-12T07:33:10.000Z</time>
      </trkpt>
      <trkpt lat="45.67837" lon="0.21928">
        <ele>44</ele>
        <time>2026-08-12T07:33:15.000Z</time>
      </trkpt>
      <trkpt lat="45.67838" lon="0.21924">
        <ele>44</ele>
        <time>2026-08-12T07:33:16.000Z</time>
      </trkpt>
      <trkpt lat="45.67849" lon="0.21907">
        <ele>44</ele>
        <time>2026-08-12T07:33:21.000Z</time>
      </trkpt>
      <trkpt lat="45.67859" lon="0.21873">
        <ele>44.1</ele>
        <time>2026-08-12T07:33:29.000Z</time>
      </trkpt>
      <trkpt lat="45.67876" lon="0.21827">
        <ele>44</ele>
        <time>2026-08-12T07:33:39.000Z</time>
      </trkpt>
      <trkpt lat="45.67894" lon="0.21796">
        <ele>44.2</ele>
        <time>2026-08-12T07:33:46.000Z</time>
      </trkpt>
      <trkpt lat="45.67901" lon="0.21795">
        <ele>44.4</ele>
        <time>2026-08-12T07:33:48.000Z</time>
      </trkpt>
      <trkpt lat="45.67904" lon="0.21797">
        <ele>44.6</ele>
        <time>2026-08-12T07:33:49.000Z</time>
      </trkpt>
      <trkpt lat="45.67923" lon="0.21807">
        <ele>44.7</ele>
        <time>2026-08-12T07:33:54.000Z</time>
      </trkpt>
      <trkpt lat="45.67927" lon="0.21809">
        <ele>44.5</ele>
        <time>2026-08-12T07:33:55.000Z</time>
      </trkpt>
      <trkpt lat="45.67936" lon="0.21816">
        <ele>43.9</ele>
        <time>2026-08-12T07:33:59.000Z</time>
      </trkpt>
      <trkpt lat="45.6794" lon="0.21813">
        <ele>43.9</ele>
        <time>2026-08-12T07:34:03.000Z</time>
      </trkpt>
      <trkpt lat="45.67941" lon="0.21811">
        <ele>43.9</ele>
        <time>2026-08-12T07:34:04.000Z</time>
      </trkpt>
      <trkpt lat="45.67953" lon="0.21802">
        <ele>43.8</ele>
        <time>2026-08-12T07:34:09.000Z</time>
      </trkpt>
      <trkpt lat="45.67968" lon="0.218">
        <ele>43.4</ele>
        <time>2026-08-12T07:34:13.000Z</time>
      </trkpt>
      <trkpt lat="45.67976" lon="0.21794">
        <ele>43.4</ele>
        <time>2026-08-12T07:34:15.000Z</time>
      </trkpt>
      <trkpt lat="45.67983" lon="0.21787">
        <ele>43.4</ele>
        <time>2026-08-12T07:34:17.000Z</time>
      </trkpt>
      <trkpt lat="45.67988" lon="0.21781">
        <ele>43.4</ele>
        <time>2026-08-12T07:34:18.000Z</time>
      </trkpt>
      <trkpt lat="45.68003" lon="0.21764">
        <ele>43.4</ele>
        <time>2026-08-12T07:34:22.000Z</time>
      </trkpt>
      <trkpt lat="45.68008" lon="0.21753">
        <ele>43.6</ele>
        <time>2026-08-12T07:34:24.000Z</time>
      </trkpt>
      <trkpt lat="45.68022" lon="0.21732">
        <ele>43.2</ele>
        <time>2026-08-12T07:34:29.000Z</time>
      </trkpt>
      <trkpt lat="45.68033" lon="0.21711">
        <ele>43.1</ele>
        <time>2026-08-12T07:34:34.000Z</time>
      </trkpt>
      <trkpt lat="45.68039" lon="0.21688">
        <ele>42.8</ele>
        <time>2026-08-12T07:34:40.000Z</time>
      </trkpt>
      <trkpt lat="45.68049" lon="0.21669">
        <ele>41.7</ele>
        <time>2026-08-12T07:34:46.000Z</time>
      </trkpt>
      <trkpt lat="45.68059" lon="0.21651">
        <ele>40.6</ele>
        <time>2026-08-12T07:34:53.000Z</time>
      </trkpt>
      <trkpt lat="45.6806" lon="0.21651">
        <ele>40.5</ele>
        <time>2026-08-12T07:34:56.000Z</time>
      </trkpt>
      <trkpt lat="45.68063" lon="0.21643">
        <ele>40.2</ele>
        <time>2026-08-12T07:35:14.000Z</time>
      </trkpt>
      <trkpt lat="45.68064" lon="0.21641">
        <ele>40.1</ele>
        <time>2026-08-12T07:35:15.000Z</time>
      </trkpt>
      <trkpt lat="45.68076" lon="0.21621">
        <ele>39.5</ele>
        <time>2026-08-12T07:35:22.000Z</time>
      </trkpt>
      <trkpt lat="45.68088" lon="0.21596">
        <ele>38.7</ele>
        <time>2026-08-12T07:35:29.000Z</time>
      </trkpt>
      <trkpt lat="45.68091" lon="0.21588">
        <ele>38.4</ele>
        <time>2026-08-12T07:35:33.000Z</time>
      </trkpt>
      <trkpt lat="45.68091" lon="0.21588">
        <ele>38.4</ele>
        <time>2026-08-12T07:35:35.000Z</time>
      </trkpt>
      <trkpt lat="45.68092" lon="0.21582">
        <ele>38.4</ele>
        <time>2026-08-12T07:35:46.000Z</time>
      </trkpt>
      <trkpt lat="45.68093" lon="0.2158">
        <ele>38.3</ele>
        <time>2026-08-12T07:35:47.000Z</time>
      </trkpt>
      <trkpt lat="45.68096" lon="0.21571">
        <ele>37.8</ele>
        <time>2026-08-12T07:35:53.000Z</time>
      </trkpt>
      <trkpt lat="45.68097" lon="0.21569">
        <ele>37.8</ele>
        <time>2026-08-12T07:35:55.000Z</time>
      </trkpt>
      <trkpt lat="45.68098" lon="0.21568">
        <ele>37.7</ele>
        <time>2026-08-12T07:35:59.000Z</time>
      </trkpt>
      <trkpt lat="45.68099" lon="0.21561">
        <ele>37.5</ele>
        <time>2026-08-12T07:37:00.000Z</time>
      </trkpt>
      <trkpt lat="45.68105" lon="0.21538">
        <ele>37.2</ele>
        <time>2026-08-12T07:37:06.000Z</time>
      </trkpt>
      <trkpt lat="45.68108" lon="0.21531">
        <ele>37.1</ele>
        <time>2026-08-12T07:37:11.000Z</time>
      </trkpt>
      <trkpt lat="45.6811" lon="0.21524">
        <ele>37.1</ele>
        <time>2026-08-12T07:47:16.000Z</time>
      </trkpt>
      <trkpt lat="45.68111" lon="0.21518">
        <ele>37</ele>
        <time>2026-08-12T07:47:18.000Z</time>
      </trkpt>
      <trkpt lat="45.68116" lon="0.21501">
        <ele>36.8</ele>
        <time>2026-08-12T07:47:23.000Z</time>
      </trkpt>
      <trkpt lat="45.68115" lon="0.21477">
        <ele>36.9</ele>
        <time>2026-08-12T07:47:29.000Z</time>
      </trkpt>
      <trkpt lat="45.68114" lon="0.21448">
        <ele>36.9</ele>
        <time>2026-08-12T07:47:37.000Z</time>
      </trkpt>
      <trkpt lat="45.68114" lon="0.21444">
        <ele>36.9</ele>
        <time>2026-08-12T07:47:38.000Z</time>
      </trkpt>
      <trkpt lat="45.68113" lon="0.21431">
        <ele>37.4</ele>
        <time>2026-08-12T07:47:41.000Z</time>
      </trkpt>
      <trkpt lat="45.68113" lon="0.21422">
        <ele>37.7</ele>
        <time>2026-08-12T07:47:43.000Z</time>
      </trkpt>
      <trkpt lat="45.68111" lon="0.21401">
        <ele>38.1</ele>
        <time>2026-08-12T07:47:48.000Z</time>
      </trkpt>
      <trkpt lat="45.68109" lon="0.21396">
        <ele>38.2</ele>
        <time>2026-08-12T07:47:50.000Z</time>
      </trkpt>
      <trkpt lat="45.68108" lon="0.21394">
        <ele>38.3</ele>
        <time>2026-08-12T07:47:52.000Z</time>
      </trkpt>
      <trkpt lat="45.68108" lon="0.21394">
        <ele>38.3</ele>
        <time>2026-08-12T07:47:55.000Z</time>
      </trkpt>
      <trkpt lat="45.68103" lon="0.21387">
        <ele>38.8</ele>
        <time>2026-08-12T07:48:18.000Z</time>
      </trkpt>
      <trkpt lat="45.68102" lon="0.21384">
        <ele>39</ele>
        <time>2026-08-12T07:48:20.000Z</time>
      </trkpt>
      <trkpt lat="45.681" lon="0.2138">
        <ele>39.1</ele>
        <time>2026-08-12T07:48:22.000Z</time>
      </trkpt>
      <trkpt lat="45.68095" lon="0.2137">
        <ele>39.3</ele>
        <time>2026-08-12T07:48:26.000Z</time>
      </trkpt>
      <trkpt lat="45.68079" lon="0.21353">
        <ele>40.1</ele>
        <time>2026-08-12T07:48:33.000Z</time>
      </trkpt>
      <trkpt lat="45.68066" lon="0.21346">
        <ele>41</ele>
        <time>2026-08-12T07:48:39.000Z</time>
      </trkpt>
      <trkpt lat="45.68052" lon="0.21339">
        <ele>41.7</ele>
        <time>2026-08-12T07:48:47.000Z</time>
      </trkpt>
      <trkpt lat="45.68052" lon="0.21339">
        <ele>41.8</ele>
        <time>2026-08-12T07:48:48.000Z</time>
      </trkpt>
      <trkpt lat="45.68044" lon="0.21337">
        <ele>42.4</ele>
        <time>2026-08-12T07:48:53.000Z</time>
      </trkpt>
      <trkpt lat="45.68043" lon="0.21336">
        <ele>42.5</ele>
        <time>2026-08-12T07:48:54.000Z</time>
      </trkpt>
      <trkpt lat="45.68042" lon="0.21336">
        <ele>42.6</ele>
        <time>2026-08-12T07:48:55.000Z</time>
      </trkpt>
      <trkpt lat="45.68041" lon="0.21335">
        <ele>42.7</ele>
        <time>2026-08-12T07:48:57.000Z</time>
      </trkpt>
      <trkpt lat="45.68037" lon="0.21333">
        <ele>43</ele>
        <time>2026-08-12T07:49:00.000Z</time>
      </trkpt>
      <trkpt lat="45.68035" lon="0.21334">
        <ele>43.2</ele>
        <time>2026-08-12T07:49:01.000Z</time>
      </trkpt>
      <trkpt lat="45.68034" lon="0.21333">
        <ele>43.3</ele>
        <time>2026-08-12T07:49:02.000Z</time>
      </trkpt>
      <trkpt lat="45.68031" lon="0.21331">
        <ele>43.5</ele>
        <time>2026-08-12T07:49:04.000Z</time>
      </trkpt>
      <trkpt lat="45.68027" lon="0.2133">
        <ele>43.8</ele>
        <time>2026-08-12T07:49:06.000Z</time>
      </trkpt>
      <trkpt lat="45.68023" lon="0.21326">
        <ele>43.7</ele>
        <time>2026-08-12T07:49:09.000Z</time>
      </trkpt>
      <trkpt lat="45.68021" lon="0.21325">
        <ele>43.7</ele>
        <time>2026-08-12T07:49:10.000Z</time>
      </trkpt>
      <trkpt lat="45.68019" lon="0.21325">
        <ele>43.8</ele>
        <time>2026-08-12T07:49:11.000Z</time>
      </trkpt>
      <trkpt lat="45.68012" lon="0.21322">
        <ele>44</ele>
        <time>2026-08-12T07:49:16.000Z</time>
      </trkpt>
      <trkpt lat="45.68005" lon="0.21321">
        <ele>44.3</ele>
        <time>2026-08-12T07:49:19.000Z</time>
      </trkpt>
      <trkpt lat="45.67999" lon="0.21317">
        <ele>44.4</ele>
        <time>2026-08-12T07:49:22.000Z</time>
      </trkpt>
      <trkpt lat="45.67995" lon="0.21315">
        <ele>44.3</ele>
        <time>2026-08-12T07:49:24.000Z</time>
      </trkpt>
      <trkpt lat="45.67988" lon="0.21318">
        <ele>44.3</ele>
        <time>2026-08-12T07:49:28.000Z</time>
      </trkpt>
      <trkpt lat="45.67982" lon="0.21339">
        <ele>44.6</ele>
        <time>2026-08-12T07:49:35.000Z</time>
      </trkpt>
      <trkpt lat="45.67978" lon="0.21354">
        <ele>44.9</ele>
        <time>2026-08-12T07:49:39.000Z</time>
      </trkpt>
      <trkpt lat="45.67974" lon="0.21371">
        <ele>45.1</ele>
        <time>2026-08-12T07:49:44.000Z</time>
      </trkpt>
      <trkpt lat="45.67972" lon="0.21374">
        <ele>45</ele>
        <time>2026-08-12T07:49:45.000Z</time>
      </trkpt>
      <trkpt lat="45.67967" lon="0.21374">
        <ele>45.1</ele>
        <time>2026-08-12T07:49:47.000Z</time>
      </trkpt>
      <trkpt lat="45.67945" lon="0.21364">
        <ele>45.1</ele>
        <time>2026-08-12T07:49:54.000Z</time>
      </trkpt>
      <trkpt lat="45.67931" lon="0.21355">
        <ele>45</ele>
        <time>2026-08-12T07:50:00.000Z</time>
      </trkpt>
      <trkpt lat="45.6793" lon="0.21354">
        <ele>45</ele>
        <time>2026-08-12T07:50:01.000Z</time>
      </trkpt>
      <trkpt lat="45.67932" lon="0.21344">
        <ele>45</ele>
        <time>2026-08-12T07:50:04.000Z</time>
      </trkpt>
      <trkpt lat="45.67938" lon="0.21313">
        <ele>44.3</ele>
        <time>2026-08-12T07:50:10.000Z</time>
      </trkpt>
      <trkpt lat="45.67945" lon="0.21277">
        <ele>44</ele>
        <time>2026-08-12T07:50:16.000Z</time>
      </trkpt>
      <trkpt lat="45.67949" lon="0.21249">
        <ele>43</ele>
        <time>2026-08-12T07:50:20.000Z</time>
      </trkpt>
      <trkpt lat="45.67952" lon="0.21235">
        <ele>42.8</ele>
        <time>2026-08-12T07:50:22.000Z</time>
      </trkpt>
      <trkpt lat="45.67954" lon="0.21216">
        <ele>42.6</ele>
        <time>2026-08-12T07:50:25.000Z</time>
      </trkpt>
      <trkpt lat="45.67959" lon="0.21202">
        <ele>42.5</ele>
        <time>2026-08-12T07:50:27.000Z</time>
      </trkpt>
      <trkpt lat="45.6796" lon="0.21195">
        <ele>42.4</ele>
        <time>2026-08-12T07:50:28.000Z</time>
      </trkpt>
      <trkpt lat="45.67968" lon="0.21169">
        <ele>42.1</ele>
        <time>2026-08-12T07:50:32.000Z</time>
      </trkpt>
      <trkpt lat="45.6797" lon="0.21162">
        <ele>42.1</ele>
        <time>2026-08-12T07:50:33.000Z</time>
      </trkpt>
      <trkpt lat="45.67975" lon="0.21142">
        <ele>41.8</ele>
        <time>2026-08-12T07:50:36.000Z</time>
      </trkpt>
      <trkpt lat="45.67977" lon="0.21135">
        <ele>41.7</ele>
        <time>2026-08-12T07:50:37.000Z</time>
      </trkpt>
      <trkpt lat="45.67982" lon="0.21117">
        <ele>41.3</ele>
        <time>2026-08-12T07:50:40.000Z</time>
      </trkpt>
      <trkpt lat="45.67988" lon="0.21099">
        <ele>40.8</ele>
        <time>2026-08-12T07:50:43.000Z</time>
      </trkpt>
      <trkpt lat="45.67992" lon="0.21084">
        <ele>40.6</ele>
        <time>2026-08-12T07:50:45.000Z</time>
      </trkpt>
      <trkpt lat="45.67995" lon="0.21068">
        <ele>39.8</ele>
        <time>2026-08-12T07:50:47.000Z</time>
      </trkpt>
      <trkpt lat="45.67998" lon="0.21053">
        <ele>39</ele>
        <time>2026-08-12T07:50:49.000Z</time>
      </trkpt>
      <trkpt lat="45.67999" lon="0.21046">
        <ele>38.7</ele>
        <time>2026-08-12T07:50:50.000Z</time>
      </trkpt>
      <trkpt lat="45.67999" lon="0.21034">
        <ele>38.3</ele>
        <time>2026-08-12T07:50:53.000Z</time>
      </trkpt>
      <trkpt lat="45.67995" lon="0.21031">
        <ele>38.5</ele>
        <time>2026-08-12T07:50:55.000Z</time>
      </trkpt>
      <trkpt lat="45.67992" lon="0.2103">
        <ele>38.7</ele>
        <time>2026-08-12T07:50:56.000Z</time>
      </trkpt>
      <trkpt lat="45.67976" lon="0.21028">
        <ele>39.8</ele>
        <time>2026-08-12T07:51:02.000Z</time>
      </trkpt>
      <trkpt lat="45.67964" lon="0.21028">
        <ele>40.9</ele>
        <time>2026-08-12T07:51:07.000Z</time>
      </trkpt>
      <trkpt lat="45.67958" lon="0.21027">
        <ele>41.6</ele>
        <time>2026-08-12T07:51:10.000Z</time>
      </trkpt>
      <trkpt lat="45.67956" lon="0.21025">
        <ele>41.7</ele>
        <time>2026-08-12T07:51:11.000Z</time>
      </trkpt>
      <trkpt lat="45.67953" lon="0.21023">
        <ele>42.1</ele>
        <time>2026-08-12T07:51:13.000Z</time>
      </trkpt>
      <trkpt lat="45.67951" lon="0.21021">
        <ele>42.3</ele>
        <time>2026-08-12T07:51:15.000Z</time>
      </trkpt>
      <trkpt lat="45.6795" lon="0.21019">
        <ele>42.4</ele>
        <time>2026-08-12T07:51:16.000Z</time>
      </trkpt>
      <trkpt lat="45.67948" lon="0.21017">
        <ele>42.6</ele>
        <time>2026-08-12T07:51:17.000Z</time>
      </trkpt>
      <trkpt lat="45.67939" lon="0.21008">
        <ele>43.2</ele>
        <time>2026-08-12T07:51:21.000Z</time>
      </trkpt>
      <trkpt lat="45.67937" lon="0.21006">
        <ele>43.3</ele>
        <time>2026-08-12T07:51:22.000Z</time>
      </trkpt>
      <trkpt lat="45.67919" lon="0.21002">
        <ele>44</ele>
        <time>2026-08-12T07:51:28.000Z</time>
      </trkpt>
      <trkpt lat="45.67905" lon="0.21002">
        <ele>44.9</ele>
        <time>2026-08-12T07:51:34.000Z</time>
      </trkpt>
      <trkpt lat="45.67898" lon="0.21003">
        <ele>45.4</ele>
        <time>2026-08-12T07:51:37.000Z</time>
      </trkpt>
      <trkpt lat="45.67888" lon="0.21006">
        <ele>46.1</ele>
        <time>2026-08-12T07:51:42.000Z</time>
      </trkpt>
      <trkpt lat="45.67882" lon="0.21008">
        <ele>46.3</ele>
        <time>2026-08-12T07:51:45.000Z</time>
      </trkpt>
      <trkpt lat="45.67876" lon="0.21009">
        <ele>46.4</ele>
        <time>2026-08-12T07:51:48.000Z</time>
      </trkpt>
      <trkpt lat="45.67873" lon="0.21011">
        <ele>46.6</ele>
        <time>2026-08-12T07:51:50.000Z</time>
      </trkpt>
      <trkpt lat="45.67868" lon="0.21009">
        <ele>46.8</ele>
        <time>2026-08-12T07:51:53.000Z</time>
      </trkpt>
      <trkpt lat="45.67864" lon="0.21006">
        <ele>46.9</ele>
        <time>2026-08-12T07:51:55.000Z</time>
      </trkpt>
      <trkpt lat="45.6786" lon="0.20993">
        <ele>47.3</ele>
        <time>2026-08-12T07:51:59.000Z</time>
      </trkpt>
      <trkpt lat="45.67862" lon="0.20973">
        <ele>47.9</ele>
        <time>2026-08-12T07:52:05.000Z</time>
      </trkpt>
      <trkpt lat="45.67862" lon="0.20965">
        <ele>47.9</ele>
        <time>2026-08-12T07:52:07.000Z</time>
      </trkpt>
      <trkpt lat="45.67861" lon="0.20942">
        <ele>47.9</ele>
        <time>2026-08-12T07:52:12.000Z</time>
      </trkpt>
      <trkpt lat="45.67857" lon="0.2091">
        <ele>47.1</ele>
        <time>2026-08-12T07:52:18.000Z</time>
      </trkpt>
      <trkpt lat="45.67851" lon="0.2087">
        <ele>46.5</ele>
        <time>2026-08-12T07:52:25.000Z</time>
      </trkpt>
      <trkpt lat="45.6784" lon="0.20818">
        <ele>46</ele>
        <time>2026-08-12T07:52:33.000Z</time>
      </trkpt>
      <trkpt lat="45.6783" lon="0.2078">
        <ele>45</ele>
        <time>2026-08-12T07:52:38.000Z</time>
      </trkpt>
      <trkpt lat="45.67828" lon="0.20772">
        <ele>44.8</ele>
        <time>2026-08-12T07:52:39.000Z</time>
      </trkpt>
      <trkpt lat="45.67818" lon="0.20745">
        <ele>43.7</ele>
        <time>2026-08-12T07:52:42.000Z</time>
      </trkpt>
      <trkpt lat="45.6781" lon="0.20726">
        <ele>42.3</ele>
        <time>2026-08-12T07:52:44.000Z</time>
      </trkpt>
      <trkpt lat="45.67803" lon="0.20708">
        <ele>43</ele>
        <time>2026-08-12T07:52:46.000Z</time>
      </trkpt>
      <trkpt lat="45.67792" lon="0.20682">
        <ele>43</ele>
        <time>2026-08-12T07:52:49.000Z</time>
      </trkpt>
      <trkpt lat="45.67785" lon="0.20666">
        <ele>43</ele>
        <time>2026-08-12T07:52:51.000Z</time>
      </trkpt>
      <trkpt lat="45.67775" lon="0.20648">
        <ele>43.8</ele>
        <time>2026-08-12T07:52:54.000Z</time>
      </trkpt>
      <trkpt lat="45.67769" lon="0.20638">
        <ele>44.3</ele>
        <time>2026-08-12T07:52:56.000Z</time>
      </trkpt>
      <trkpt lat="45.67758" lon="0.20619">
        <ele>45</ele>
        <time>2026-08-12T07:53:01.000Z</time>
      </trkpt>
      <trkpt lat="45.67756" lon="0.20616">
        <ele>45.3</ele>
        <time>2026-08-12T07:53:02.000Z</time>
      </trkpt>
      <trkpt lat="45.67747" lon="0.20598">
        <ele>45.1</ele>
        <time>2026-08-12T07:53:06.000Z</time>
      </trkpt>
      <trkpt lat="45.67743" lon="0.20589">
        <ele>44.6</ele>
        <time>2026-08-12T07:53:08.000Z</time>
      </trkpt>
      <trkpt lat="45.67732" lon="0.20571">
        <ele>44.2</ele>
        <time>2026-08-12T07:53:11.000Z</time>
      </trkpt>
      <trkpt lat="45.67709" lon="0.20528">
        <ele>44</ele>
        <time>2026-08-12T07:53:18.000Z</time>
      </trkpt>
      <trkpt lat="45.67685" lon="0.20488">
        <ele>44.2</ele>
        <time>2026-08-12T07:53:25.000Z</time>
      </trkpt>
      <trkpt lat="45.67678" lon="0.20476">
        <ele>44.3</ele>
        <time>2026-08-12T07:53:27.000Z</time>
      </trkpt>
      <trkpt lat="45.67668" lon="0.20456">
        <ele>43.7</ele>
        <time>2026-08-12T07:53:30.000Z</time>
      </trkpt>
      <trkpt lat="45.67654" lon="0.20429">
        <ele>43.3</ele>
        <time>2026-08-12T07:53:34.000Z</time>
      </trkpt>
      <trkpt lat="45.67651" lon="0.20422">
        <ele>43.3</ele>
        <time>2026-08-12T07:53:35.000Z</time>
      </trkpt>
      <trkpt lat="45.67633" lon="0.20388">
        <ele>43.7</ele>
        <time>2026-08-12T07:53:41.000Z</time>
      </trkpt>
      <trkpt lat="45.67617" lon="0.20361">
        <ele>44.4</ele>
        <time>2026-08-12T07:53:46.000Z</time>
      </trkpt>
      <trkpt lat="45.67612" lon="0.20349">
        <ele>44</ele>
        <time>2026-08-12T07:53:48.000Z</time>
      </trkpt>
      <trkpt lat="45.67604" lon="0.2032">
        <ele>43.5</ele>
        <time>2026-08-12T07:53:52.000Z</time>
      </trkpt>
      <trkpt lat="45.67596" lon="0.20289">
        <ele>43.2</ele>
        <time>2026-08-12T07:53:56.000Z</time>
      </trkpt>
      <trkpt lat="45.67592" lon="0.20275">
        <ele>42.9</ele>
        <time>2026-08-12T07:53:58.000Z</time>
      </trkpt>
      <trkpt lat="45.67583" lon="0.20252">
        <ele>42.2</ele>
        <time>2026-08-12T07:54:01.000Z</time>
      </trkpt>
      <trkpt lat="45.6758" lon="0.20246">
        <ele>42.3</ele>
        <time>2026-08-12T07:54:02.000Z</time>
      </trkpt>
      <trkpt lat="45.67562" lon="0.20213">
        <ele>42.9</ele>
        <time>2026-08-12T07:54:07.000Z</time>
      </trkpt>
      <trkpt lat="45.67554" lon="0.20186">
        <ele>42.9</ele>
        <time>2026-08-12T07:54:12.000Z</time>
      </trkpt>
      <trkpt lat="45.67552" lon="0.20181">
        <ele>43</ele>
        <time>2026-08-12T07:54:13.000Z</time>
      </trkpt>
      <trkpt lat="45.6754" lon="0.20153">
        <ele>42.8</ele>
        <time>2026-08-12T07:54:18.000Z</time>
      </trkpt>
      <trkpt lat="45.67532" lon="0.20134">
        <ele>42.3</ele>
        <time>2026-08-12T07:54:21.000Z</time>
      </trkpt>
      <trkpt lat="45.67526" lon="0.20121">
        <ele>41.9</ele>
        <time>2026-08-12T07:54:23.000Z</time>
      </trkpt>
      <trkpt lat="45.67522" lon="0.20107">
        <ele>41.5</ele>
        <time>2026-08-12T07:54:25.000Z</time>
      </trkpt>
      <trkpt lat="45.6752" lon="0.20095">
        <ele>41.3</ele>
        <time>2026-08-12T07:54:27.000Z</time>
      </trkpt>
      <trkpt lat="45.67518" lon="0.20089">
        <ele>41.2</ele>
        <time>2026-08-12T07:54:28.000Z</time>
      </trkpt>
      <trkpt lat="45.67509" lon="0.20068">
        <ele>41.5</ele>
        <time>2026-08-12T07:54:31.000Z</time>
      </trkpt>
      <trkpt lat="45.67505" lon="0.20051">
        <ele>41.3</ele>
        <time>2026-08-12T07:54:34.000Z</time>
      </trkpt>
      <trkpt lat="45.675" lon="0.2003">
        <ele>41.1</ele>
        <time>2026-08-12T07:54:37.000Z</time>
      </trkpt>
      <trkpt lat="45.67496" lon="0.20023">
        <ele>41.1</ele>
        <time>2026-08-12T07:54:38.000Z</time>
      </trkpt>
      <trkpt lat="45.67481" lon="0.19993">
        <ele>40.6</ele>
        <time>2026-08-12T07:54:42.000Z</time>
      </trkpt>
      <trkpt lat="45.67472" lon="0.19967">
        <ele>40</ele>
        <time>2026-08-12T07:54:46.000Z</time>
      </trkpt>
      <trkpt lat="45.67468" lon="0.19961">
        <ele>40.6</ele>
        <time>2026-08-12T07:54:47.000Z</time>
      </trkpt>
      <trkpt lat="45.67461" lon="0.19944">
        <ele>41.3</ele>
        <time>2026-08-12T07:54:50.000Z</time>
      </trkpt>
      <trkpt lat="45.67447" lon="0.19894">
        <ele>41.8</ele>
        <time>2026-08-12T07:54:57.000Z</time>
      </trkpt>
      <trkpt lat="45.67433" lon="0.19837">
        <ele>40.7</ele>
        <time>2026-08-12T07:55:05.000Z</time>
      </trkpt>
      <trkpt lat="45.67431" lon="0.19821">
        <ele>40.5</ele>
        <time>2026-08-12T07:55:06.000Z</time>
      </trkpt>
      <trkpt lat="45.6743" lon="0.19797">
        <ele>40.2</ele>
        <time>2026-08-12T07:55:10.000Z</time>
      </trkpt>
      <trkpt lat="45.67425" lon="0.1977">
        <ele>40.5</ele>
        <time>2026-08-12T07:55:12.000Z</time>
      </trkpt>
      <trkpt lat="45.6742" lon="0.19753">
        <ele>39.9</ele>
        <time>2026-08-12T07:55:14.000Z</time>
      </trkpt>
      <trkpt lat="45.67414" lon="0.19729">
        <ele>40.4</ele>
        <time>2026-08-12T07:55:17.000Z</time>
      </trkpt>
      <trkpt lat="45.6741" lon="0.19714">
        <ele>41</ele>
        <time>2026-08-12T07:55:20.000Z</time>
      </trkpt>
      <trkpt lat="45.67405" lon="0.19688">
        <ele>41.6</ele>
        <time>2026-08-12T07:55:23.000Z</time>
      </trkpt>
      <trkpt lat="45.67402" lon="0.19681">
        <ele>41.8</ele>
        <time>2026-08-12T07:55:24.000Z</time>
      </trkpt>
      <trkpt lat="45.67399" lon="0.19662">
        <ele>41.9</ele>
        <time>2026-08-12T07:55:27.000Z</time>
      </trkpt>
      <trkpt lat="45.67399" lon="0.19655">
        <ele>41.9</ele>
        <time>2026-08-12T07:55:28.000Z</time>
      </trkpt>
      <trkpt lat="45.674" lon="0.19605">
        <ele>41.9</ele>
        <time>2026-08-12T07:55:36.000Z</time>
      </trkpt>
      <trkpt lat="45.674" lon="0.1954">
        <ele>41.1</ele>
        <time>2026-08-12T07:55:44.000Z</time>
      </trkpt>
      <trkpt lat="45.67401" lon="0.1948">
        <ele>41.2</ele>
        <time>2026-08-12T07:55:52.000Z</time>
      </trkpt>
      <trkpt lat="45.67401" lon="0.19414">
        <ele>41.5</ele>
        <time>2026-08-12T07:56:01.000Z</time>
      </trkpt>
      <trkpt lat="45.67398" lon="0.19401">
        <ele>41.1</ele>
        <time>2026-08-12T07:56:03.000Z</time>
      </trkpt>
      <trkpt lat="45.67389" lon="0.19378">
        <ele>41</ele>
        <time>2026-08-12T07:56:07.000Z</time>
      </trkpt>
      <trkpt lat="45.67387" lon="0.19372">
        <ele>41.6</ele>
        <time>2026-08-12T07:56:08.000Z</time>
      </trkpt>
      <trkpt lat="45.67385" lon="0.19359">
        <ele>42.6</ele>
        <time>2026-08-12T07:56:10.000Z</time>
      </trkpt>
      <trkpt lat="45.67383" lon="0.19345">
        <ele>42.6</ele>
        <time>2026-08-12T07:56:12.000Z</time>
      </trkpt>
      <trkpt lat="45.67378" lon="0.19275">
        <ele>43.6</ele>
        <time>2026-08-12T07:56:22.000Z</time>
      </trkpt>
      <trkpt lat="45.67375" lon="0.19243">
        <ele>43.2</ele>
        <time>2026-08-12T07:56:27.000Z</time>
      </trkpt>
      <trkpt lat="45.67374" lon="0.1923">
        <ele>43</ele>
        <time>2026-08-12T07:56:29.000Z</time>
      </trkpt>
      <trkpt lat="45.67371" lon="0.19215">
        <ele>43.4</ele>
        <time>2026-08-12T07:56:32.000Z</time>
      </trkpt>
      <trkpt lat="45.67368" lon="0.19212">
        <ele>43.9</ele>
        <time>2026-08-12T07:56:33.000Z</time>
      </trkpt>
      <trkpt lat="45.67352" lon="0.19204">
        <ele>47.3</ele>
        <time>2026-08-12T07:56:39.000Z</time>
      </trkpt>
      <trkpt lat="45.67347" lon="0.19202">
        <ele>48.6</ele>
        <time>2026-08-12T07:56:41.000Z</time>
      </trkpt>
      <trkpt lat="45.67309" lon="0.19186">
        <ele>48.4</ele>
        <time>2026-08-12T07:56:59.000Z</time>
      </trkpt>
      <trkpt lat="45.67295" lon="0.19172">
        <ele>49</ele>
        <time>2026-08-12T07:57:06.000Z</time>
      </trkpt>
      <trkpt lat="45.67293" lon="0.19167">
        <ele>48.9</ele>
        <time>2026-08-12T07:57:08.000Z</time>
      </trkpt>
      <trkpt lat="45.67288" lon="0.1916">
        <ele>49.3</ele>
        <time>2026-08-12T07:57:11.000Z</time>
      </trkpt>
      <trkpt lat="45.67286" lon="0.19155">
        <ele>49.6</ele>
        <time>2026-08-12T07:57:13.000Z</time>
      </trkpt>
      <trkpt lat="45.67279" lon="0.19139">
        <ele>50</ele>
        <time>2026-08-12T07:57:19.000Z</time>
      </trkpt>
      <trkpt lat="45.67273" lon="0.19121">
        <ele>50.9</ele>
        <time>2026-08-12T07:57:25.000Z</time>
      </trkpt>
      <trkpt lat="45.67271" lon="0.19113">
        <ele>51.2</ele>
        <time>2026-08-12T07:57:28.000Z</time>
      </trkpt>
      <trkpt lat="45.67264" lon="0.19095">
        <ele>51.8</ele>
        <time>2026-08-12T07:57:34.000Z</time>
      </trkpt>
      <trkpt lat="45.67263" lon="0.19092">
        <ele>51.9</ele>
        <time>2026-08-12T07:57:35.000Z</time>
      </trkpt>
      <trkpt lat="45.67253" lon="0.19058">
        <ele>52.8</ele>
        <time>2026-08-12T07:57:44.000Z</time>
      </trkpt>
      <trkpt lat="45.67246" lon="0.19023">
        <ele>53.1</ele>
        <time>2026-08-12T07:57:51.000Z</time>
      </trkpt>
      <trkpt lat="45.67241" lon="0.18995">
        <ele>53.3</ele>
        <time>2026-08-12T07:57:56.000Z</time>
      </trkpt>
      <trkpt lat="45.67241" lon="0.18983">
        <ele>53.3</ele>
        <time>2026-08-12T07:57:58.000Z</time>
      </trkpt>
      <trkpt lat="45.67241" lon="0.18953">
        <ele>53.3</ele>
        <time>2026-08-12T07:58:03.000Z</time>
      </trkpt>
      <trkpt lat="45.67238" lon="0.18942">
        <ele>53.4</ele>
        <time>2026-08-12T07:58:05.000Z</time>
      </trkpt>
      <trkpt lat="45.67236" lon="0.18938">
        <ele>53.4</ele>
        <time>2026-08-12T07:58:06.000Z</time>
      </trkpt>
      <trkpt lat="45.67227" lon="0.18922">
        <ele>53.1</ele>
        <time>2026-08-12T07:58:10.000Z</time>
      </trkpt>
      <trkpt lat="45.67221" lon="0.18907">
        <ele>53.1</ele>
        <time>2026-08-12T07:58:14.000Z</time>
      </trkpt>
      <trkpt lat="45.67227" lon="0.18882">
        <ele>52.8</ele>
        <time>2026-08-12T07:58:19.000Z</time>
      </trkpt>
      <trkpt lat="45.67231" lon="0.18857">
        <ele>52.6</ele>
        <time>2026-08-12T07:58:23.000Z</time>
      </trkpt>
      <trkpt lat="45.67241" lon="0.18823">
        <ele>51.9</ele>
        <time>2026-08-12T07:58:29.000Z</time>
      </trkpt>
      <trkpt lat="45.67252" lon="0.1881">
        <ele>51.1</ele>
        <time>2026-08-12T07:58:33.000Z</time>
      </trkpt>
      <trkpt lat="45.6725" lon="0.18798">
        <ele>51</ele>
        <time>2026-08-12T07:58:36.000Z</time>
      </trkpt>
      <trkpt lat="45.67241" lon="0.18785">
        <ele>51.6</ele>
        <time>2026-08-12T07:58:40.000Z</time>
      </trkpt>
      <trkpt lat="45.6724" lon="0.18782">
        <ele>51.7</ele>
        <time>2026-08-12T07:58:41.000Z</time>
      </trkpt>
      <trkpt lat="45.67242" lon="0.18763">
        <ele>51.4</ele>
        <time>2026-08-12T07:58:45.000Z</time>
      </trkpt>
      <trkpt lat="45.67243" lon="0.18737">
        <ele>51.3</ele>
        <time>2026-08-12T07:58:50.000Z</time>
      </trkpt>
      <trkpt lat="45.67243" lon="0.18732">
        <ele>51.2</ele>
        <time>2026-08-12T07:58:51.000Z</time>
      </trkpt>
      <trkpt lat="45.67248" lon="0.18724">
        <ele>51.1</ele>
        <time>2026-08-12T07:58:53.000Z</time>
      </trkpt>
      <trkpt lat="45.67256" lon="0.1871">
        <ele>50.9</ele>
        <time>2026-08-12T07:58:58.000Z</time>
      </trkpt>
      <trkpt lat="45.67265" lon="0.18697">
        <ele>50.5</ele>
        <time>2026-08-12T07:59:02.000Z</time>
      </trkpt>
      <trkpt lat="45.67266" lon="0.18693">
        <ele>50.4</ele>
        <time>2026-08-12T07:59:03.000Z</time>
      </trkpt>
      <trkpt lat="45.67264" lon="0.18687">
        <ele>50.4</ele>
        <time>2026-08-12T07:59:05.000Z</time>
      </trkpt>
      <trkpt lat="45.67259" lon="0.1868">
        <ele>50.3</ele>
        <time>2026-08-12T07:59:07.000Z</time>
      </trkpt>
      <trkpt lat="45.67242" lon="0.18657">
        <ele>50</ele>
        <time>2026-08-12T07:59:13.000Z</time>
      </trkpt>
      <trkpt lat="45.67229" lon="0.18632">
        <ele>50</ele>
        <time>2026-08-12T07:59:19.000Z</time>
      </trkpt>
      <trkpt lat="45.67218" lon="0.18608">
        <ele>50</ele>
        <time>2026-08-12T07:59:24.000Z</time>
      </trkpt>
      <trkpt lat="45.67209" lon="0.18596">
        <ele>49.7</ele>
        <time>2026-08-12T07:59:27.000Z</time>
      </trkpt>
      <trkpt lat="45.67204" lon="0.18586">
        <ele>49.4</ele>
        <time>2026-08-12T07:59:29.000Z</time>
      </trkpt>
      <trkpt lat="45.67199" lon="0.18574">
        <ele>48.9</ele>
        <time>2026-08-12T07:59:31.000Z</time>
      </trkpt>
      <trkpt lat="45.67181" lon="0.18532">
        <ele>47.1</ele>
        <time>2026-08-12T07:59:37.000Z</time>
      </trkpt>
      <trkpt lat="45.67158" lon="0.18479">
        <ele>45.6</ele>
        <time>2026-08-12T07:59:43.000Z</time>
      </trkpt>
      <trkpt lat="45.6715" lon="0.18462">
        <ele>45.4</ele>
        <time>2026-08-12T07:59:45.000Z</time>
      </trkpt>
      <trkpt lat="45.67134" lon="0.1844">
        <ele>45.2</ele>
        <time>2026-08-12T07:59:48.000Z</time>
      </trkpt>
      <trkpt lat="45.67123" lon="0.18428">
        <ele>45.6</ele>
        <time>2026-08-12T07:59:50.000Z</time>
      </trkpt>
      <trkpt lat="45.67107" lon="0.18413">
        <ele>46.1</ele>
        <time>2026-08-12T07:59:53.000Z</time>
      </trkpt>
      <trkpt lat="45.67079" lon="0.18394">
        <ele>47.3</ele>
        <time>2026-08-12T07:59:59.000Z</time>
      </trkpt>
      <trkpt lat="45.6706" lon="0.18382">
        <ele>48.4</ele>
        <time>2026-08-12T08:00:04.000Z</time>
      </trkpt>
      <trkpt lat="45.67052" lon="0.18378">
        <ele>48.7</ele>
        <time>2026-08-12T08:00:06.000Z</time>
      </trkpt>
      <trkpt lat="45.67041" lon="0.18367">
        <ele>49</ele>
        <time>2026-08-12T08:00:10.000Z</time>
      </trkpt>
      <trkpt lat="45.67037" lon="0.18361">
        <ele>49.3</ele>
        <time>2026-08-12T08:00:12.000Z</time>
      </trkpt>
      <trkpt lat="45.6703" lon="0.18344">
        <ele>49.9</ele>
        <time>2026-08-12T08:00:16.000Z</time>
      </trkpt>
      <trkpt lat="45.67018" lon="0.18337">
        <ele>50.4</ele>
        <time>2026-08-12T08:00:20.000Z</time>
      </trkpt>
      <trkpt lat="45.67015" lon="0.18336">
        <ele>50.5</ele>
        <time>2026-08-12T08:00:21.000Z</time>
      </trkpt>
      <trkpt lat="45.67011" lon="0.18329">
        <ele>50.7</ele>
        <time>2026-08-12T08:00:24.000Z</time>
      </trkpt>
      <trkpt lat="45.67018" lon="0.18314">
        <ele>50.6</ele>
        <time>2026-08-12T08:00:29.000Z</time>
      </trkpt>
      <trkpt lat="45.67022" lon="0.18294">
        <ele>50.5</ele>
        <time>2026-08-12T08:00:33.000Z</time>
      </trkpt>
      <trkpt lat="45.67024" lon="0.18278">
        <ele>50.4</ele>
        <time>2026-08-12T08:00:36.000Z</time>
      </trkpt>
      <trkpt lat="45.6703" lon="0.18239">
        <ele>49.9</ele>
        <time>2026-08-12T08:00:43.000Z</time>
      </trkpt>
      <trkpt lat="45.67035" lon="0.18199">
        <ele>49.7</ele>
        <time>2026-08-12T08:00:49.000Z</time>
      </trkpt>
      <trkpt lat="45.67042" lon="0.18148">
        <ele>48.7</ele>
        <time>2026-08-12T08:00:56.000Z</time>
      </trkpt>
      <trkpt lat="45.67048" lon="0.18097">
        <ele>48.3</ele>
        <time>2026-08-12T08:01:03.000Z</time>
      </trkpt>
      <trkpt lat="45.6705" lon="0.18082">
        <ele>48.2</ele>
        <time>2026-08-12T08:01:05.000Z</time>
      </trkpt>
      <trkpt lat="45.67052" lon="0.18067">
        <ele>48.1</ele>
        <time>2026-08-12T08:01:07.000Z</time>
      </trkpt>
      <trkpt lat="45.67054" lon="0.18044">
        <ele>47.6</ele>
        <time>2026-08-12T08:01:10.000Z</time>
      </trkpt>
      <trkpt lat="45.67062" lon="0.1799">
        <ele>46.9</ele>
        <time>2026-08-12T08:01:17.000Z</time>
      </trkpt>
      <trkpt lat="45.67064" lon="0.17968">
        <ele>47</ele>
        <time>2026-08-12T08:01:20.000Z</time>
      </trkpt>
      <trkpt lat="45.67069" lon="0.17924">
        <ele>46.5</ele>
        <time>2026-08-12T08:01:26.000Z</time>
      </trkpt>
      <trkpt lat="45.67075" lon="0.17882">
        <ele>46.2</ele>
        <time>2026-08-12T08:01:33.000Z</time>
      </trkpt>
      <trkpt lat="45.67079" lon="0.17851">
        <ele>45.6</ele>
        <time>2026-08-12T08:01:40.000Z</time>
      </trkpt>
      <trkpt lat="45.67083" lon="0.17826">
        <ele>46</ele>
        <time>2026-08-12T08:01:45.000Z</time>
      </trkpt>
      <trkpt lat="45.67091" lon="0.17797">
        <ele>45.8</ele>
        <time>2026-08-12T08:01:50.000Z</time>
      </trkpt>
      <trkpt lat="45.67104" lon="0.17748">
        <ele>46.3</ele>
        <time>2026-08-12T08:01:59.000Z</time>
      </trkpt>
      <trkpt lat="45.67118" lon="0.17701">
        <ele>46.3</ele>
        <time>2026-08-12T08:02:07.000Z</time>
      </trkpt>
      <trkpt lat="45.67128" lon="0.17662">
        <ele>46.9</ele>
        <time>2026-08-12T08:02:14.000Z</time>
      </trkpt>
      <trkpt lat="45.67141" lon="0.17627">
        <ele>45.8</ele>
        <time>2026-08-12T08:02:21.000Z</time>
      </trkpt>
      <trkpt lat="45.67151" lon="0.17608">
        <ele>45.6</ele>
        <time>2026-08-12T08:02:25.000Z</time>
      </trkpt>
      <trkpt lat="45.67153" lon="0.17603">
        <ele>45.6</ele>
        <time>2026-08-12T08:02:26.000Z</time>
      </trkpt>
      <trkpt lat="45.67161" lon="0.17597">
        <ele>45.6</ele>
        <time>2026-08-12T08:02:30.000Z</time>
      </trkpt>
      <trkpt lat="45.67162" lon="0.17597">
        <ele>45.6</ele>
        <time>2026-08-12T08:02:31.000Z</time>
      </trkpt>
      <trkpt lat="45.67162" lon="0.17596">
        <ele>45.6</ele>
        <time>2026-08-12T08:02:33.000Z</time>
      </trkpt>
      <trkpt lat="45.67167" lon="0.17594">
        <ele>45.6</ele>
        <time>2026-08-12T08:02:36.000Z</time>
      </trkpt>
      <trkpt lat="45.67169" lon="0.17593">
        <ele>45.6</ele>
        <time>2026-08-12T08:02:37.000Z</time>
      </trkpt>
      <trkpt lat="45.6718" lon="0.17578">
        <ele>45.5</ele>
        <time>2026-08-12T08:02:43.000Z</time>
      </trkpt>
      <trkpt lat="45.67189" lon="0.17562">
        <ele>45.2</ele>
        <time>2026-08-12T08:02:49.000Z</time>
      </trkpt>
      <trkpt lat="45.67199" lon="0.17541">
        <ele>44.8</ele>
        <time>2026-08-12T08:02:54.000Z</time>
      </trkpt>
      <trkpt lat="45.67205" lon="0.17532">
        <ele>44.6</ele>
        <time>2026-08-12T08:02:56.000Z</time>
      </trkpt>
      <trkpt lat="45.67217" lon="0.17514">
        <ele>44.2</ele>
        <time>2026-08-12T08:03:00.000Z</time>
      </trkpt>
      <trkpt lat="45.67226" lon="0.175">
        <ele>43.9</ele>
        <time>2026-08-12T08:03:03.000Z</time>
      </trkpt>
      <trkpt lat="45.67226" lon="0.17495">
        <ele>44.1</ele>
        <time>2026-08-12T08:03:04.000Z</time>
      </trkpt>
      <trkpt lat="45.67221" lon="0.17481">
        <ele>44.7</ele>
        <time>2026-08-12T08:03:07.000Z</time>
      </trkpt>
      <trkpt lat="45.67216" lon="0.17461">
        <ele>45.6</ele>
        <time>2026-08-12T08:03:13.000Z</time>
      </trkpt>
      <trkpt lat="45.67208" lon="0.1744">
        <ele>46.5</ele>
        <time>2026-08-12T08:03:19.000Z</time>
      </trkpt>
      <trkpt lat="45.67205" lon="0.17434">
        <ele>46.6</ele>
        <time>2026-08-12T08:03:21.000Z</time>
      </trkpt>
      <trkpt lat="45.67201" lon="0.17417">
        <ele>46.8</ele>
        <time>2026-08-12T08:03:26.000Z</time>
      </trkpt>
      <trkpt lat="45.672" lon="0.17409">
        <ele>47.1</ele>
        <time>2026-08-12T08:03:28.000Z</time>
      </trkpt>
      <trkpt lat="45.672" lon="0.17388">
        <ele>47.8</ele>
        <time>2026-08-12T08:03:34.000Z</time>
      </trkpt>
      <trkpt lat="45.67199" lon="0.17381">
        <ele>48.1</ele>
        <time>2026-08-12T08:03:37.000Z</time>
      </trkpt>
      <trkpt lat="45.67198" lon="0.17379">
        <ele>48.2</ele>
        <time>2026-08-12T08:03:38.000Z</time>
      </trkpt>
      <trkpt lat="45.67193" lon="0.17372">
        <ele>48.7</ele>
        <time>2026-08-12T08:03:43.000Z</time>
      </trkpt>
      <trkpt lat="45.67192" lon="0.17369">
        <ele>48.8</ele>
        <time>2026-08-12T08:03:44.000Z</time>
      </trkpt>
      <trkpt lat="45.67191" lon="0.17366">
        <ele>48.9</ele>
        <time>2026-08-12T08:03:45.000Z</time>
      </trkpt>
      <trkpt lat="45.67192" lon="0.17348">
        <ele>49.5</ele>
        <time>2026-08-12T08:03:50.000Z</time>
      </trkpt>
      <trkpt lat="45.67199" lon="0.1732">
        <ele>50.3</ele>
        <time>2026-08-12T08:03:56.000Z</time>
      </trkpt>
      <trkpt lat="45.67203" lon="0.17305">
        <ele>50.7</ele>
        <time>2026-08-12T08:03:59.000Z</time>
      </trkpt>
      <trkpt lat="45.67207" lon="0.17284">
        <ele>50.9</ele>
        <time>2026-08-12T08:04:03.000Z</time>
      </trkpt>
      <trkpt lat="45.67216" lon="0.17261">
        <ele>51</ele>
        <time>2026-08-12T08:04:08.000Z</time>
      </trkpt>
      <trkpt lat="45.6723" lon="0.17259">
        <ele>50.7</ele>
        <time>2026-08-12T08:04:12.000Z</time>
      </trkpt>
      <trkpt lat="45.67241" lon="0.17278">
        <ele>50.3</ele>
        <time>2026-08-12T08:04:17.000Z</time>
      </trkpt>
      <trkpt lat="45.67244" lon="0.17282">
        <ele>50.2</ele>
        <time>2026-08-12T08:04:18.000Z</time>
      </trkpt>
      <trkpt lat="45.67251" lon="0.17287">
        <ele>50</ele>
        <time>2026-08-12T08:04:20.000Z</time>
      </trkpt>
      <trkpt lat="45.67278" lon="0.17298">
        <ele>50</ele>
        <time>2026-08-12T08:04:26.000Z</time>
      </trkpt>
      <trkpt lat="45.67288" lon="0.173">
        <ele>49.6</ele>
        <time>2026-08-12T08:04:28.000Z</time>
      </trkpt>
      <trkpt lat="45.67298" lon="0.17298">
        <ele>49.3</ele>
        <time>2026-08-12T08:04:30.000Z</time>
      </trkpt>
      <trkpt lat="45.67303" lon="0.17294">
        <ele>49.1</ele>
        <time>2026-08-12T08:04:31.000Z</time>
      </trkpt>
      <trkpt lat="45.67307" lon="0.1729">
        <ele>49</ele>
        <time>2026-08-12T08:04:32.000Z</time>
      </trkpt>
      <trkpt lat="45.67313" lon="0.17277">
        <ele>49</ele>
        <time>2026-08-12T08:04:34.000Z</time>
      </trkpt>
      <trkpt lat="45.67316" lon="0.1727">
        <ele>49</ele>
        <time>2026-08-12T08:04:35.000Z</time>
      </trkpt>
      <trkpt lat="45.67321" lon="0.17248">
        <ele>49</ele>
        <time>2026-08-12T08:04:38.000Z</time>
      </trkpt>
      <trkpt lat="45.67324" lon="0.17227">
        <ele>49</ele>
        <time>2026-08-12T08:04:41.000Z</time>
      </trkpt>
      <trkpt lat="45.67323" lon="0.17221">
        <ele>49</ele>
        <time>2026-08-12T08:04:42.000Z</time>
      </trkpt>
      <trkpt lat="45.67321" lon="0.17216">
        <ele>49</ele>
        <time>2026-08-12T08:04:43.000Z</time>
      </trkpt>
      <trkpt lat="45.6731" lon="0.17194">
        <ele>49</ele>
        <time>2026-08-12T08:04:47.000Z</time>
      </trkpt>
      <trkpt lat="45.67297" lon="0.17163">
        <ele>49</ele>
        <time>2026-08-12T08:04:52.000Z</time>
      </trkpt>
      <trkpt lat="45.67293" lon="0.17158">
        <ele>49</ele>
        <time>2026-08-12T08:04:53.000Z</time>
      </trkpt>
      <trkpt lat="45.67289" lon="0.17154">
        <ele>49</ele>
        <time>2026-08-12T08:04:54.000Z</time>
      </trkpt>
      <trkpt lat="45.67277" lon="0.17148">
        <ele>49</ele>
        <time>2026-08-12T08:04:57.000Z</time>
      </trkpt>
      <trkpt lat="45.67275" lon="0.17144">
        <ele>49.1</ele>
        <time>2026-08-12T08:04:58.000Z</time>
      </trkpt>
      <trkpt lat="45.67272" lon="0.17134">
        <ele>49.2</ele>
        <time>2026-08-12T08:05:00.000Z</time>
      </trkpt>
      <trkpt lat="45.67274" lon="0.17112">
        <ele>49</ele>
        <time>2026-08-12T08:05:04.000Z</time>
      </trkpt>
      <trkpt lat="45.67284" lon="0.1707">
        <ele>47.8</ele>
        <time>2026-08-12T08:05:10.000Z</time>
      </trkpt>
      <trkpt lat="45.67295" lon="0.1703">
        <ele>45.8</ele>
        <time>2026-08-12T08:05:16.000Z</time>
      </trkpt>
      <trkpt lat="45.67299" lon="0.17024">
        <ele>45.1</ele>
        <time>2026-08-12T08:05:18.000Z</time>
      </trkpt>
      <trkpt lat="45.67317" lon="0.17028">
        <ele>43.8</ele>
        <time>2026-08-12T08:05:23.000Z</time>
      </trkpt>
      <trkpt lat="45.6733" lon="0.17031">
        <ele>42.6</ele>
        <time>2026-08-12T08:05:26.000Z</time>
      </trkpt>
      <trkpt lat="45.67334" lon="0.1703">
        <ele>42.1</ele>
        <time>2026-08-12T08:05:27.000Z</time>
      </trkpt>
      <trkpt lat="45.67335" lon="0.17026">
        <ele>41.6</ele>
        <time>2026-08-12T08:05:28.000Z</time>
      </trkpt>
      <trkpt lat="45.67334" lon="0.1702">
        <ele>40.9</ele>
        <time>2026-08-12T08:05:29.000Z</time>
      </trkpt>
      <trkpt lat="45.67323" lon="0.17007">
        <ele>40.5</ele>
        <time>2026-08-12T08:05:32.000Z</time>
      </trkpt>
      <trkpt lat="45.67318" lon="0.17003">
        <ele>40.5</ele>
        <time>2026-08-12T08:05:33.000Z</time>
      </trkpt>
      <trkpt lat="45.67303" lon="0.16989">
        <ele>40.3</ele>
        <time>2026-08-12T08:05:36.000Z</time>
      </trkpt>
      <trkpt lat="45.67298" lon="0.16983">
        <ele>39.7</ele>
        <time>2026-08-12T08:05:37.000Z</time>
      </trkpt>
      <trkpt lat="45.67289" lon="0.16973">
        <ele>38.9</ele>
        <time>2026-08-12T08:05:39.000Z</time>
      </trkpt>
      <trkpt lat="45.67279" lon="0.16963">
        <ele>38.2</ele>
        <time>2026-08-12T08:05:41.000Z</time>
      </trkpt>
      <trkpt lat="45.67275" lon="0.16956">
        <ele>37.2</ele>
        <time>2026-08-12T08:05:42.000Z</time>
      </trkpt>
      <trkpt lat="45.67271" lon="0.16948">
        <ele>36.2</ele>
        <time>2026-08-12T08:05:43.000Z</time>
      </trkpt>
      <trkpt lat="45.67263" lon="0.16935">
        <ele>35.2</ele>
        <time>2026-08-12T08:05:45.000Z</time>
      </trkpt>
      <trkpt lat="45.67258" lon="0.16929">
        <ele>34.9</ele>
        <time>2026-08-12T08:05:46.000Z</time>
      </trkpt>
      <trkpt lat="45.67254" lon="0.16924">
        <ele>34.6</ele>
        <time>2026-08-12T08:05:47.000Z</time>
      </trkpt>
      <trkpt lat="45.67247" lon="0.16912">
        <ele>33.9</ele>
        <time>2026-08-12T08:05:49.000Z</time>
      </trkpt>
      <trkpt lat="45.67242" lon="0.16905">
        <ele>33.6</ele>
        <time>2026-08-12T08:05:50.000Z</time>
      </trkpt>
      <trkpt lat="45.67235" lon="0.16894">
        <ele>32.8</ele>
        <time>2026-08-12T08:05:52.000Z</time>
      </trkpt>
      <trkpt lat="45.67234" lon="0.16889">
        <ele>32.4</ele>
        <time>2026-08-12T08:05:53.000Z</time>
      </trkpt>
      <trkpt lat="45.67233" lon="0.16885">
        <ele>32.3</ele>
        <time>2026-08-12T08:05:54.000Z</time>
      </trkpt>
      <trkpt lat="45.67229" lon="0.16865">
        <ele>32</ele>
        <time>2026-08-12T08:05:58.000Z</time>
      </trkpt>
      <trkpt lat="45.67228" lon="0.16861">
        <ele>32</ele>
        <time>2026-08-12T08:05:59.000Z</time>
      </trkpt>
      <trkpt lat="45.67227" lon="0.1686">
        <ele>32</ele>
        <time>2026-08-12T08:06:00.000Z</time>
      </trkpt>
      <trkpt lat="45.67228" lon="0.16859">
        <ele>32</ele>
        <time>2026-08-12T08:06:01.000Z</time>
      </trkpt>
      <trkpt lat="45.67229" lon="0.16859">
        <ele>32</ele>
        <time>2026-08-12T08:06:04.000Z</time>
      </trkpt>
      <trkpt lat="45.67261" lon="0.16848">
        <ele>31.5</ele>
        <time>2026-08-12T08:07:56.000Z</time>
      </trkpt>
      <trkpt lat="45.67264" lon="0.16847">
        <ele>31.5</ele>
        <time>2026-08-12T08:07:57.000Z</time>
      </trkpt>
      <trkpt lat="45.67272" lon="0.16845">
        <ele>31.4</ele>
        <time>2026-08-12T08:08:00.000Z</time>
      </trkpt>
      <trkpt lat="45.67273" lon="0.16844">
        <ele>31.4</ele>
        <time>2026-08-12T08:08:02.000Z</time>
      </trkpt>
      <trkpt lat="45.67274" lon="0.16838">
        <ele>31.2</ele>
        <time>2026-08-12T08:08:04.000Z</time>
      </trkpt>
      <trkpt lat="45.67276" lon="0.16828">
        <ele>31.2</ele>
        <time>2026-08-12T08:08:07.000Z</time>
      </trkpt>
      <trkpt lat="45.67279" lon="0.16821">
        <ele>31.5</ele>
        <time>2026-08-12T08:08:10.000Z</time>
      </trkpt>
      <trkpt lat="45.67286" lon="0.16818">
        <ele>31.7</ele>
        <time>2026-08-12T08:08:12.000Z</time>
      </trkpt>
      <trkpt lat="45.67302" lon="0.16814">
        <ele>32</ele>
        <time>2026-08-12T08:08:16.000Z</time>
      </trkpt>
      <trkpt lat="45.67331" lon="0.16802">
        <ele>31.2</ele>
        <time>2026-08-12T08:08:22.000Z</time>
      </trkpt>
      <trkpt lat="45.67367" lon="0.16781">
        <ele>31.7</ele>
        <time>2026-08-12T08:08:31.000Z</time>
      </trkpt>
      <trkpt lat="45.67391" lon="0.16764">
        <ele>31.5</ele>
        <time>2026-08-12T08:08:38.000Z</time>
      </trkpt>
      <trkpt lat="45.67401" lon="0.16748">
        <ele>31.6</ele>
        <time>2026-08-12T08:08:43.000Z</time>
      </trkpt>
      <trkpt lat="45.67406" lon="0.16741">
        <ele>31.5</ele>
        <time>2026-08-12T08:08:45.000Z</time>
      </trkpt>
      <trkpt lat="45.67421" lon="0.16719">
        <ele>31.4</ele>
        <time>2026-08-12T08:08:50.000Z</time>
      </trkpt>
      <trkpt lat="45.67437" lon="0.16699">
        <ele>33.3</ele>
        <time>2026-08-12T08:08:55.000Z</time>
      </trkpt>
      <trkpt lat="45.67453" lon="0.16673">
        <ele>36.6</ele>
        <time>2026-08-12T08:09:02.000Z</time>
      </trkpt>
      <trkpt lat="45.67456" lon="0.16668">
        <ele>37</ele>
        <time>2026-08-12T08:09:04.000Z</time>
      </trkpt>
      <trkpt lat="45.67463" lon="0.16657">
        <ele>38.6</ele>
        <time>2026-08-12T08:09:08.000Z</time>
      </trkpt>
      <trkpt lat="45.67476" lon="0.16642">
        <ele>39.3</ele>
        <time>2026-08-12T08:09:14.000Z</time>
      </trkpt>
      <trkpt lat="45.67483" lon="0.16634">
        <ele>40</ele>
        <time>2026-08-12T08:09:17.000Z</time>
      </trkpt>
      <trkpt lat="45.67495" lon="0.1662">
        <ele>40.2</ele>
        <time>2026-08-12T08:09:23.000Z</time>
      </trkpt>
      <trkpt lat="45.67503" lon="0.16614">
        <ele>39.6</ele>
        <time>2026-08-12T08:09:26.000Z</time>
      </trkpt>
      <trkpt lat="45.67512" lon="0.16605">
        <ele>39.2</ele>
        <time>2026-08-12T08:09:30.000Z</time>
      </trkpt>
      <trkpt lat="45.67519" lon="0.16597">
        <ele>39</ele>
        <time>2026-08-12T08:09:34.000Z</time>
      </trkpt>
      <trkpt lat="45.6752" lon="0.16596">
        <ele>39</ele>
        <time>2026-08-12T08:09:35.000Z</time>
      </trkpt>
      <trkpt lat="45.67519" lon="0.16594">
        <ele>39.1</ele>
        <time>2026-08-12T08:09:37.000Z</time>
      </trkpt>
      <trkpt lat="45.67518" lon="0.16594">
        <ele>39.1</ele>
        <time>2026-08-12T08:09:38.000Z</time>
      </trkpt>
      <trkpt lat="45.67517" lon="0.16595">
        <ele>39.1</ele>
        <time>2026-08-12T08:09:40.000Z</time>
      </trkpt>
      <trkpt lat="45.67515" lon="0.16591">
        <ele>39.3</ele>
        <time>2026-08-12T08:09:43.000Z</time>
      </trkpt>
      <trkpt lat="45.67509" lon="0.1658">
        <ele>39.6</ele>
        <time>2026-08-12T08:09:48.000Z</time>
      </trkpt>
      <trkpt lat="45.67493" lon="0.16554">
        <ele>38.4</ele>
        <time>2026-08-12T08:09:52.000Z</time>
      </trkpt>
      <trkpt lat="45.67474" lon="0.16543">
        <ele>37.1</ele>
        <time>2026-08-12T08:09:56.000Z</time>
      </trkpt>
      <trkpt lat="45.67457" lon="0.16536">
        <ele>36.5</ele>
        <time>2026-08-12T08:10:00.000Z</time>
      </trkpt>
      <trkpt lat="45.67454" lon="0.16532">
        <ele>36.3</ele>
        <time>2026-08-12T08:10:01.000Z</time>
      </trkpt>
      <trkpt lat="45.67452" lon="0.16527">
        <ele>36.3</ele>
        <time>2026-08-12T08:10:02.000Z</time>
      </trkpt>
      <trkpt lat="45.67453" lon="0.16516">
        <ele>36.5</ele>
        <time>2026-08-12T08:10:04.000Z</time>
      </trkpt>
      <trkpt lat="45.67459" lon="0.16471">
        <ele>36.5</ele>
        <time>2026-08-12T08:10:11.000Z</time>
      </trkpt>
      <trkpt lat="45.67468" lon="0.16415">
        <ele>36.5</ele>
        <time>2026-08-12T08:10:20.000Z</time>
      </trkpt>
      <trkpt lat="45.67475" lon="0.16367">
        <ele>37.1</ele>
        <time>2026-08-12T08:10:28.000Z</time>
      </trkpt>
      <trkpt lat="45.67475" lon="0.16361">
        <ele>37.1</ele>
        <time>2026-08-12T08:10:29.000Z</time>
      </trkpt>
      <trkpt lat="45.67473" lon="0.16349">
        <ele>37</ele>
        <time>2026-08-12T08:10:31.000Z</time>
      </trkpt>
      <trkpt lat="45.67466" lon="0.16323">
        <ele>36.8</ele>
        <time>2026-08-12T08:10:36.000Z</time>
      </trkpt>
      <trkpt lat="45.67465" lon="0.16318">
        <ele>36.7</ele>
        <time>2026-08-12T08:10:37.000Z</time>
      </trkpt>
      <trkpt lat="45.67466" lon="0.16313">
        <ele>36.8</ele>
        <time>2026-08-12T08:10:38.000Z</time>
      </trkpt>
      <trkpt lat="45.67464" lon="0.16298">
        <ele>36.7</ele>
        <time>2026-08-12T08:10:41.000Z</time>
      </trkpt>
      <trkpt lat="45.67454" lon="0.1627">
        <ele>36.3</ele>
        <time>2026-08-12T08:10:47.000Z</time>
      </trkpt>
      <trkpt lat="45.67452" lon="0.16266">
        <ele>36.3</ele>
        <time>2026-08-12T08:10:48.000Z</time>
      </trkpt>
      <trkpt lat="45.67453" lon="0.16259">
        <ele>36.3</ele>
        <time>2026-08-12T08:10:50.000Z</time>
      </trkpt>
      <trkpt lat="45.67466" lon="0.1626">
        <ele>36.8</ele>
        <time>2026-08-12T08:10:54.000Z</time>
      </trkpt>
      <trkpt lat="45.67487" lon="0.16264">
        <ele>37.3</ele>
        <time>2026-08-12T08:11:01.000Z</time>
      </trkpt>
      <trkpt lat="45.67493" lon="0.16264">
        <ele>37.4</ele>
        <time>2026-08-12T08:11:03.000Z</time>
      </trkpt>
      <trkpt lat="45.67499" lon="0.16261">
        <ele>37.4</ele>
        <time>2026-08-12T08:11:05.000Z</time>
      </trkpt>
      <trkpt lat="45.67509" lon="0.16242">
        <ele>37.4</ele>
        <time>2026-08-12T08:11:11.000Z</time>
      </trkpt>
      <trkpt lat="45.67523" lon="0.16218">
        <ele>38.5</ele>
        <time>2026-08-12T08:11:18.000Z</time>
      </trkpt>
      <trkpt lat="45.67538" lon="0.16197">
        <ele>38.4</ele>
        <time>2026-08-12T08:11:25.000Z</time>
      </trkpt>
      <trkpt lat="45.67554" lon="0.16169">
        <ele>38.9</ele>
        <time>2026-08-12T08:11:33.000Z</time>
      </trkpt>
      <trkpt lat="45.67556" lon="0.16166">
        <ele>39</ele>
        <time>2026-08-12T08:11:34.000Z</time>
      </trkpt>
      <trkpt lat="45.67574" lon="0.16139">
        <ele>39.7</ele>
        <time>2026-08-12T08:11:41.000Z</time>
      </trkpt>
      <trkpt lat="45.67594" lon="0.16111">
        <ele>39.4</ele>
        <time>2026-08-12T08:11:48.000Z</time>
      </trkpt>
      <trkpt lat="45.67618" lon="0.16076">
        <ele>39.8</ele>
        <time>2026-08-12T08:11:57.000Z</time>
      </trkpt>
      <trkpt lat="45.67623" lon="0.16063">
        <ele>39.6</ele>
        <time>2026-08-12T08:12:00.000Z</time>
      </trkpt>
      <trkpt lat="45.67622" lon="0.1606">
        <ele>39.5</ele>
        <time>2026-08-12T08:12:01.000Z</time>
      </trkpt>
      <trkpt lat="45.67611" lon="0.16037">
        <ele>39</ele>
        <time>2026-08-12T08:12:06.000Z</time>
      </trkpt>
      <trkpt lat="45.67598" lon="0.16004">
        <ele>38.5</ele>
        <time>2026-08-12T08:12:13.000Z</time>
      </trkpt>
      <trkpt lat="45.67603" lon="0.15997">
        <ele>38.6</ele>
        <time>2026-08-12T08:12:16.000Z</time>
      </trkpt>
      <trkpt lat="45.67614" lon="0.15986">
        <ele>38.5</ele>
        <time>2026-08-12T08:12:20.000Z</time>
      </trkpt>
      <trkpt lat="45.6762" lon="0.1598">
        <ele>38.5</ele>
        <time>2026-08-12T08:12:22.000Z</time>
      </trkpt>
      <trkpt lat="45.67641" lon="0.15955">
        <ele>39</ele>
        <time>2026-08-12T08:12:29.000Z</time>
      </trkpt>
      <trkpt lat="45.67645" lon="0.15946">
        <ele>39</ele>
        <time>2026-08-12T08:12:31.000Z</time>
      </trkpt>
      <trkpt lat="45.67645" lon="0.15938">
        <ele>39</ele>
        <time>2026-08-12T08:12:33.000Z</time>
      </trkpt>
      <trkpt lat="45.67636" lon="0.15924">
        <ele>38.8</ele>
        <time>2026-08-12T08:12:37.000Z</time>
      </trkpt>
      <trkpt lat="45.67632" lon="0.15909">
        <ele>38.3</ele>
        <time>2026-08-12T08:12:40.000Z</time>
      </trkpt>
      <trkpt lat="45.67634" lon="0.159">
        <ele>38.2</ele>
        <time>2026-08-12T08:12:42.000Z</time>
      </trkpt>
      <trkpt lat="45.67637" lon="0.15897">
        <ele>38.2</ele>
        <time>2026-08-12T08:12:43.000Z</time>
      </trkpt>
      <trkpt lat="45.67655" lon="0.15877">
        <ele>37.6</ele>
        <time>2026-08-12T08:12:49.000Z</time>
      </trkpt>
      <trkpt lat="45.67656" lon="0.15865">
        <ele>37.1</ele>
        <time>2026-08-12T08:12:51.000Z</time>
      </trkpt>
      <trkpt lat="45.67655" lon="0.15858">
        <ele>37</ele>
        <time>2026-08-12T08:12:52.000Z</time>
      </trkpt>
      <trkpt lat="45.67644" lon="0.158">
        <ele>36.9</ele>
        <time>2026-08-12T08:13:00.000Z</time>
      </trkpt>
      <trkpt lat="45.67643" lon="0.15782">
        <ele>37</ele>
        <time>2026-08-12T08:13:04.000Z</time>
      </trkpt>
      <trkpt lat="45.67643" lon="0.15779">
        <ele>37</ele>
        <time>2026-08-12T08:13:05.000Z</time>
      </trkpt>
      <trkpt lat="45.67642" lon="0.15752">
        <ele>37</ele>
        <time>2026-08-12T08:13:10.000Z</time>
      </trkpt>
      <trkpt lat="45.6764" lon="0.15723">
        <ele>36.1</ele>
        <time>2026-08-12T08:13:15.000Z</time>
      </trkpt>
      <trkpt lat="45.67637" lon="0.15672">
        <ele>35.9</ele>
        <time>2026-08-12T08:13:23.000Z</time>
      </trkpt>
      <trkpt lat="45.67632" lon="0.15616">
        <ele>35.1</ele>
        <time>2026-08-12T08:13:31.000Z</time>
      </trkpt>
      <trkpt lat="45.67631" lon="0.15596">
        <ele>34.5</ele>
        <time>2026-08-12T08:13:34.000Z</time>
      </trkpt>
      <trkpt lat="45.67632" lon="0.15577">
        <ele>33.9</ele>
        <time>2026-08-12T08:13:37.000Z</time>
      </trkpt>
      <trkpt lat="45.67639" lon="0.15571">
        <ele>34</ele>
        <time>2026-08-12T08:13:39.000Z</time>
      </trkpt>
      <trkpt lat="45.67643" lon="0.15569">
        <ele>34.1</ele>
        <time>2026-08-12T08:13:40.000Z</time>
      </trkpt>
      <trkpt lat="45.67651" lon="0.15566">
        <ele>34.2</ele>
        <time>2026-08-12T08:13:42.000Z</time>
      </trkpt>
      <trkpt lat="45.6766" lon="0.1556">
        <ele>34.1</ele>
        <time>2026-08-12T08:13:44.000Z</time>
      </trkpt>
      <trkpt lat="45.67665" lon="0.15558">
        <ele>34.1</ele>
        <time>2026-08-12T08:13:45.000Z</time>
      </trkpt>
      <trkpt lat="45.67676" lon="0.15555">
        <ele>33.6</ele>
        <time>2026-08-12T08:13:47.000Z</time>
      </trkpt>
      <trkpt lat="45.67688" lon="0.15555">
        <ele>33.2</ele>
        <time>2026-08-12T08:13:49.000Z</time>
      </trkpt>
      <trkpt lat="45.677" lon="0.15557">
        <ele>33.1</ele>
        <time>2026-08-12T08:13:51.000Z</time>
      </trkpt>
      <trkpt lat="45.67727" lon="0.15564">
        <ele>33.4</ele>
        <time>2026-08-12T08:13:56.000Z</time>
      </trkpt>
      <trkpt lat="45.67733" lon="0.15567">
        <ele>33.6</ele>
        <time>2026-08-12T08:13:57.000Z</time>
      </trkpt>
      <trkpt lat="45.67768" lon="0.15576">
        <ele>34.5</ele>
        <time>2026-08-12T08:14:04.000Z</time>
      </trkpt>
      <trkpt lat="45.678" lon="0.15581">
        <ele>34.9</ele>
        <time>2026-08-12T08:14:11.000Z</time>
      </trkpt>
      <trkpt lat="45.67812" lon="0.15581">
        <ele>34.9</ele>
        <time>2026-08-12T08:14:15.000Z</time>
      </trkpt>
      <trkpt lat="45.67815" lon="0.15576">
        <ele>34.7</ele>
        <time>2026-08-12T08:14:17.000Z</time>
      </trkpt>
      <trkpt lat="45.67816" lon="0.15569">
        <ele>34.5</ele>
        <time>2026-08-12T08:14:19.000Z</time>
      </trkpt>
      <trkpt lat="45.6782" lon="0.15562">
        <ele>34.2</ele>
        <time>2026-08-12T08:14:21.000Z</time>
      </trkpt>
      <trkpt lat="45.67822" lon="0.1556">
        <ele>34.2</ele>
        <time>2026-08-12T08:14:22.000Z</time>
      </trkpt>
      <trkpt lat="45.67843" lon="0.1555">
        <ele>34.1</ele>
        <time>2026-08-12T08:14:28.000Z</time>
      </trkpt>
      <trkpt lat="45.67854" lon="0.15542">
        <ele>33.9</ele>
        <time>2026-08-12T08:14:33.000Z</time>
      </trkpt>
      <trkpt lat="45.67858" lon="0.15533">
        <ele>33.3</ele>
        <time>2026-08-12T08:14:36.000Z</time>
      </trkpt>
      <trkpt lat="45.67858" lon="0.15525">
        <ele>32.9</ele>
        <time>2026-08-12T08:14:38.000Z</time>
      </trkpt>
      <trkpt lat="45.67858" lon="0.155">
        <ele>32</ele>
        <time>2026-08-12T08:14:44.000Z</time>
      </trkpt>
      <trkpt lat="45.67857" lon="0.15464">
        <ele>31.8</ele>
        <time>2026-08-12T08:14:52.000Z</time>
      </trkpt>
      <trkpt lat="45.67857" lon="0.15455">
        <ele>31.6</ele>
        <time>2026-08-12T08:14:54.000Z</time>
      </trkpt>
      <trkpt lat="45.67854" lon="0.15425">
        <ele>30.4</ele>
        <time>2026-08-12T08:15:01.000Z</time>
      </trkpt>
      <trkpt lat="45.67854" lon="0.154">
        <ele>30</ele>
        <time>2026-08-12T08:15:06.000Z</time>
      </trkpt>
      <trkpt lat="45.67853" lon="0.15381">
        <ele>30</ele>
        <time>2026-08-12T08:15:10.000Z</time>
      </trkpt>
      <trkpt lat="45.67851" lon="0.15337">
        <ele>32.4</ele>
        <time>2026-08-12T08:15:18.000Z</time>
      </trkpt>
      <trkpt lat="45.67848" lon="0.15279">
        <ele>35.6</ele>
        <time>2026-08-12T08:15:27.000Z</time>
      </trkpt>
      <trkpt lat="45.67846" lon="0.1522">
        <ele>34</ele>
        <time>2026-08-12T08:15:36.000Z</time>
      </trkpt>
      <trkpt lat="45.67846" lon="0.15216">
        <ele>33.9</ele>
        <time>2026-08-12T08:15:37.000Z</time>
      </trkpt>
      <trkpt lat="45.67851" lon="0.15214">
        <ele>33.8</ele>
        <time>2026-08-12T08:15:39.000Z</time>
      </trkpt>
      <trkpt lat="45.67866" lon="0.1521">
        <ele>33.1</ele>
        <time>2026-08-12T08:15:43.000Z</time>
      </trkpt>
      <trkpt lat="45.67871" lon="0.1521">
        <ele>32.7</ele>
        <time>2026-08-12T08:15:44.000Z</time>
      </trkpt>
      <trkpt lat="45.67875" lon="0.15209">
        <ele>32.2</ele>
        <time>2026-08-12T08:15:45.000Z</time>
      </trkpt>
      <trkpt lat="45.67879" lon="0.15209">
        <ele>31.9</ele>
        <time>2026-08-12T08:15:46.000Z</time>
      </trkpt>
      <trkpt lat="45.67883" lon="0.15211">
        <ele>31.6</ele>
        <time>2026-08-12T08:15:47.000Z</time>
      </trkpt>
      <trkpt lat="45.67884" lon="0.15214">
        <ele>31.4</ele>
        <time>2026-08-12T08:15:48.000Z</time>
      </trkpt>
      <trkpt lat="45.67886" lon="0.15219">
        <ele>31.3</ele>
        <time>2026-08-12T08:15:49.000Z</time>
      </trkpt>
      <trkpt lat="45.67891" lon="0.1524">
        <ele>31</ele>
        <time>2026-08-12T08:15:53.000Z</time>
      </trkpt>
      <trkpt lat="45.67894" lon="0.15252">
        <ele>31</ele>
        <time>2026-08-12T08:15:55.000Z</time>
      </trkpt>
      <trkpt lat="45.67898" lon="0.15308">
        <ele>31.1</ele>
        <time>2026-08-12T08:16:05.000Z</time>
      </trkpt>
      <trkpt lat="45.67899" lon="0.15346">
        <ele>31.4</ele>
        <time>2026-08-12T08:16:12.000Z</time>
      </trkpt>
      <trkpt lat="45.67897" lon="0.15351">
        <ele>31.1</ele>
        <time>2026-08-12T08:16:16.000Z</time>
      </trkpt>
      <trkpt lat="45.67897" lon="0.15351">
        <ele>31.1</ele>
        <time>2026-08-12T08:16:18.000Z</time>
      </trkpt>
      <trkpt lat="45.67893" lon="0.15351">
        <ele>31.1</ele>
        <time>2026-08-12T08:16:26.000Z</time>
      </trkpt>
      <trkpt lat="45.67888" lon="0.1535">
        <ele>31.2</ele>
        <time>2026-08-12T08:16:28.000Z</time>
      </trkpt>
      <trkpt lat="45.67871" lon="0.15346">
        <ele>31.2</ele>
        <time>2026-08-12T08:16:34.000Z</time>
      </trkpt>
      <trkpt lat="45.67868" lon="0.15346">
        <ele>31.2</ele>
        <time>2026-08-12T08:16:35.000Z</time>
      </trkpt>
      <trkpt lat="45.67857" lon="0.15347">
        <ele>31.1</ele>
        <time>2026-08-12T08:16:39.000Z</time>
      </trkpt>
      <trkpt lat="45.67843" lon="0.15348">
        <ele>31.5</ele>
        <time>2026-08-12T08:16:43.000Z</time>
      </trkpt>
      <trkpt lat="45.67823" lon="0.15348">
        <ele>31.7</ele>
        <time>2026-08-12T08:16:48.000Z</time>
      </trkpt>
      <trkpt lat="45.6779" lon="0.15353">
        <ele>30.5</ele>
        <time>2026-08-12T08:16:56.000Z</time>
      </trkpt>
      <trkpt lat="45.67763" lon="0.15358">
        <ele>30.6</ele>
        <time>2026-08-12T08:17:02.000Z</time>
      </trkpt>
      <trkpt lat="45.67733" lon="0.15368">
        <ele>30.8</ele>
        <time>2026-08-12T08:17:10.000Z</time>
      </trkpt>
      <trkpt lat="45.67695" lon="0.15375">
        <ele>30.5</ele>
        <time>2026-08-12T08:17:19.000Z</time>
      </trkpt>
      <trkpt lat="45.67678" lon="0.15378">
        <ele>30.4</ele>
        <time>2026-08-12T08:17:23.000Z</time>
      </trkpt>
      <trkpt lat="45.67669" lon="0.15381">
        <ele>30.3</ele>
        <time>2026-08-12T08:17:25.000Z</time>
      </trkpt>
      <trkpt lat="45.67665" lon="0.15382">
        <ele>30.3</ele>
        <time>2026-08-12T08:17:26.000Z</time>
      </trkpt>
      <trkpt lat="45.67626" lon="0.15389">
        <ele>31</ele>
        <time>2026-08-12T08:17:35.000Z</time>
      </trkpt>
      <trkpt lat="45.67598" lon="0.15391">
        <ele>30.9</ele>
        <time>2026-08-12T08:17:42.000Z</time>
      </trkpt>
      <trkpt lat="45.67565" lon="0.15393">
        <ele>30.9</ele>
        <time>2026-08-12T08:17:49.000Z</time>
      </trkpt>
      <trkpt lat="45.67531" lon="0.15393">
        <ele>30.8</ele>
        <time>2026-08-12T08:17:57.000Z</time>
      </trkpt>
      <trkpt lat="45.67509" lon="0.15393">
        <ele>30.9</ele>
        <time>2026-08-12T08:18:02.000Z</time>
      </trkpt>
      <trkpt lat="45.67501" lon="0.15393">
        <ele>30.9</ele>
        <time>2026-08-12T08:18:04.000Z</time>
      </trkpt>
      <trkpt lat="45.67477" lon="0.15393">
        <ele>30.9</ele>
        <time>2026-08-12T08:18:10.000Z</time>
      </trkpt>
      <trkpt lat="45.67469" lon="0.15391">
        <ele>30.9</ele>
        <time>2026-08-12T08:18:12.000Z</time>
      </trkpt>
      <trkpt lat="45.67436" lon="0.15389">
        <ele>31</ele>
        <time>2026-08-12T08:18:19.000Z</time>
      </trkpt>
      <trkpt lat="45.67406" lon="0.15385">
        <ele>31</ele>
        <time>2026-08-12T08:18:26.000Z</time>
      </trkpt>
      <trkpt lat="45.67398" lon="0.15384">
        <ele>31</ele>
        <time>2026-08-12T08:18:28.000Z</time>
      </trkpt>
      <trkpt lat="45.67352" lon="0.15377">
        <ele>31</ele>
        <time>2026-08-12T08:18:38.000Z</time>
      </trkpt>
      <trkpt lat="45.6731" lon="0.15365">
        <ele>30.9</ele>
        <time>2026-08-12T08:18:47.000Z</time>
      </trkpt>
      <trkpt lat="45.67292" lon="0.15362">
        <ele>31</ele>
        <time>2026-08-12T08:18:51.000Z</time>
      </trkpt>
      <trkpt lat="45.67288" lon="0.15364">
        <ele>30.9</ele>
        <time>2026-08-12T08:18:52.000Z</time>
      </trkpt>
      <trkpt lat="45.67283" lon="0.15366">
        <ele>30.8</ele>
        <time>2026-08-12T08:18:53.000Z</time>
      </trkpt>
      <trkpt lat="45.67269" lon="0.15379">
        <ele>30.6</ele>
        <time>2026-08-12T08:18:57.000Z</time>
      </trkpt>
      <trkpt lat="45.67251" lon="0.15398">
        <ele>30.7</ele>
        <time>2026-08-12T08:19:02.000Z</time>
      </trkpt>
      <trkpt lat="45.67239" lon="0.15409">
        <ele>30.6</ele>
        <time>2026-08-12T08:19:05.000Z</time>
      </trkpt>
      <trkpt lat="45.67232" lon="0.15416">
        <ele>30.7</ele>
        <time>2026-08-12T08:19:07.000Z</time>
      </trkpt>
      <trkpt lat="45.6722" lon="0.15428">
        <ele>30.6</ele>
        <time>2026-08-12T08:19:10.000Z</time>
      </trkpt>
      <trkpt lat="45.67199" lon="0.15449">
        <ele>30.7</ele>
        <time>2026-08-12T08:19:16.000Z</time>
      </trkpt>
      <trkpt lat="45.67195" lon="0.15453">
        <ele>30.7</ele>
        <time>2026-08-12T08:19:17.000Z</time>
      </trkpt>
      <trkpt lat="45.6717" lon="0.15467">
        <ele>30.9</ele>
        <time>2026-08-12T08:19:22.000Z</time>
      </trkpt>
      <trkpt lat="45.67141" lon="0.15489">
        <ele>31</ele>
        <time>2026-08-12T08:19:29.000Z</time>
      </trkpt>
      <trkpt lat="45.67122" lon="0.15507">
        <ele>30.8</ele>
        <time>2026-08-12T08:19:34.000Z</time>
      </trkpt>
      <trkpt lat="45.67109" lon="0.15514">
        <ele>30.5</ele>
        <time>2026-08-12T08:19:37.000Z</time>
      </trkpt>
      <trkpt lat="45.67096" lon="0.15519">
        <ele>30.7</ele>
        <time>2026-08-12T08:19:40.000Z</time>
      </trkpt>
      <trkpt lat="45.67081" lon="0.15526">
        <ele>31</ele>
        <time>2026-08-12T08:19:44.000Z</time>
      </trkpt>
      <trkpt lat="45.67072" lon="0.15531">
        <ele>30.9</ele>
        <time>2026-08-12T08:19:46.000Z</time>
      </trkpt>
      <trkpt lat="45.67058" lon="0.1554">
        <ele>30.6</ele>
        <time>2026-08-12T08:19:49.000Z</time>
      </trkpt>
      <trkpt lat="45.6705" lon="0.15545">
        <ele>30.5</ele>
        <time>2026-08-12T08:19:51.000Z</time>
      </trkpt>
      <trkpt lat="45.67033" lon="0.15555">
        <ele>30.8</ele>
        <time>2026-08-12T08:19:55.000Z</time>
      </trkpt>
      <trkpt lat="45.67" lon="0.15581">
        <ele>30.1</ele>
        <time>2026-08-12T08:20:04.000Z</time>
      </trkpt>
      <trkpt lat="45.6698" lon="0.15598">
        <ele>30.3</ele>
        <time>2026-08-12T08:20:09.000Z</time>
      </trkpt>
      <trkpt lat="45.66972" lon="0.15603">
        <ele>30.3</ele>
        <time>2026-08-12T08:20:11.000Z</time>
      </trkpt>
      <trkpt lat="45.66959" lon="0.15612">
        <ele>30.5</ele>
        <time>2026-08-12T08:20:14.000Z</time>
      </trkpt>
      <trkpt lat="45.66943" lon="0.1562">
        <ele>31</ele>
        <time>2026-08-12T08:20:17.000Z</time>
      </trkpt>
      <trkpt lat="45.66915" lon="0.15635">
        <ele>31</ele>
        <time>2026-08-12T08:20:23.000Z</time>
      </trkpt>
      <trkpt lat="45.6691" lon="0.15638">
        <ele>31</ele>
        <time>2026-08-12T08:20:24.000Z</time>
      </trkpt>
      <trkpt lat="45.66895" lon="0.15647">
        <ele>30.9</ele>
        <time>2026-08-12T08:20:27.000Z</time>
      </trkpt>
      <trkpt lat="45.66891" lon="0.15649">
        <ele>31</ele>
        <time>2026-08-12T08:20:28.000Z</time>
      </trkpt>
      <trkpt lat="45.66886" lon="0.15652">
        <ele>31</ele>
        <time>2026-08-12T08:20:29.000Z</time>
      </trkpt>
      <trkpt lat="45.66871" lon="0.15661">
        <ele>31</ele>
        <time>2026-08-12T08:20:32.000Z</time>
      </trkpt>
      <trkpt lat="45.66836" lon="0.15671">
        <ele>30.1</ele>
        <time>2026-08-12T08:20:39.000Z</time>
      </trkpt>
      <trkpt lat="45.66823" lon="0.15672">
        <ele>30</ele>
        <time>2026-08-12T08:20:42.000Z</time>
      </trkpt>
      <trkpt lat="45.66811" lon="0.15672">
        <ele>30</ele>
        <time>2026-08-12T08:20:45.000Z</time>
      </trkpt>
      <trkpt lat="45.66802" lon="0.15671">
        <ele>30</ele>
        <time>2026-08-12T08:20:47.000Z</time>
      </trkpt>
      <trkpt lat="45.66779" lon="0.15666">
        <ele>30</ele>
        <time>2026-08-12T08:20:52.000Z</time>
      </trkpt>
      <trkpt lat="45.66756" lon="0.15661">
        <ele>30.2</ele>
        <time>2026-08-12T08:20:57.000Z</time>
      </trkpt>
      <trkpt lat="45.66736" lon="0.1566">
        <ele>30.2</ele>
        <time>2026-08-12T08:21:02.000Z</time>
      </trkpt>
      <trkpt lat="45.66715" lon="0.15671">
        <ele>30.2</ele>
        <time>2026-08-12T08:21:07.000Z</time>
      </trkpt>
      <trkpt lat="45.6669" lon="0.15687">
        <ele>30.4</ele>
        <time>2026-08-12T08:21:13.000Z</time>
      </trkpt>
      <trkpt lat="45.66664" lon="0.15703">
        <ele>30.7</ele>
        <time>2026-08-12T08:21:20.000Z</time>
      </trkpt>
      <trkpt lat="45.66649" lon="0.15713">
        <ele>30.3</ele>
        <time>2026-08-12T08:21:25.000Z</time>
      </trkpt>
      <trkpt lat="45.66633" lon="0.15726">
        <ele>30.2</ele>
        <time>2026-08-12T08:21:30.000Z</time>
      </trkpt>
      <trkpt lat="45.66621" lon="0.15739">
        <ele>30.7</ele>
        <time>2026-08-12T08:21:34.000Z</time>
      </trkpt>
      <trkpt lat="45.66613" lon="0.15755">
        <ele>30.8</ele>
        <time>2026-08-12T08:21:38.000Z</time>
      </trkpt>
      <trkpt lat="45.66612" lon="0.15769">
        <ele>30.3</ele>
        <time>2026-08-12T08:21:40.000Z</time>
      </trkpt>
      <trkpt lat="45.66599" lon="0.15801">
        <ele>30.4</ele>
        <time>2026-08-12T08:21:46.000Z</time>
      </trkpt>
      <trkpt lat="45.66587" lon="0.15822">
        <ele>30.9</ele>
        <time>2026-08-12T08:21:50.000Z</time>
      </trkpt>
      <trkpt lat="45.66583" lon="0.15825">
        <ele>31</ele>
        <time>2026-08-12T08:21:51.000Z</time>
      </trkpt>
      <trkpt lat="45.66578" lon="0.15835">
        <ele>30.9</ele>
        <time>2026-08-12T08:21:53.000Z</time>
      </trkpt>
      <trkpt lat="45.66556" lon="0.15862">
        <ele>31</ele>
        <time>2026-08-12T08:22:00.000Z</time>
      </trkpt>
      <trkpt lat="45.66531" lon="0.15886">
        <ele>30.1</ele>
        <time>2026-08-12T08:22:06.000Z</time>
      </trkpt>
      <trkpt lat="45.66512" lon="0.15897">
        <ele>30.4</ele>
        <time>2026-08-12T08:22:11.000Z</time>
      </trkpt>
      <trkpt lat="45.66481" lon="0.15909">
        <ele>30.8</ele>
        <time>2026-08-12T08:22:18.000Z</time>
      </trkpt>
      <trkpt lat="45.66442" lon="0.15918">
        <ele>30.9</ele>
        <time>2026-08-12T08:22:26.000Z</time>
      </trkpt>
      <trkpt lat="45.66413" lon="0.15919">
        <ele>30.8</ele>
        <time>2026-08-12T08:22:32.000Z</time>
      </trkpt>
      <trkpt lat="45.66407" lon="0.15918">
        <ele>30.6</ele>
        <time>2026-08-12T08:22:33.000Z</time>
      </trkpt>
      <trkpt lat="45.66396" lon="0.15916">
        <ele>30.3</ele>
        <time>2026-08-12T08:22:35.000Z</time>
      </trkpt>
      <trkpt lat="45.66391" lon="0.15914">
        <ele>30.2</ele>
        <time>2026-08-12T08:22:36.000Z</time>
      </trkpt>
      <trkpt lat="45.66385" lon="0.15913">
        <ele>30.1</ele>
        <time>2026-08-12T08:22:37.000Z</time>
      </trkpt>
      <trkpt lat="45.66374" lon="0.1591">
        <ele>30.2</ele>
        <time>2026-08-12T08:22:40.000Z</time>
      </trkpt>
      <trkpt lat="45.6637" lon="0.15909">
        <ele>30.3</ele>
        <time>2026-08-12T08:22:41.000Z</time>
      </trkpt>
      <trkpt lat="45.66351" lon="0.159">
        <ele>30.4</ele>
        <time>2026-08-12T08:22:45.000Z</time>
      </trkpt>
      <trkpt lat="45.66347" lon="0.15898">
        <ele>30.3</ele>
        <time>2026-08-12T08:22:46.000Z</time>
      </trkpt>
      <trkpt lat="45.66332" lon="0.1589">
        <ele>30</ele>
        <time>2026-08-12T08:22:49.000Z</time>
      </trkpt>
      <trkpt lat="45.66326" lon="0.15886">
        <ele>30.1</ele>
        <time>2026-08-12T08:22:50.000Z</time>
      </trkpt>
      <trkpt lat="45.66323" lon="0.15883">
        <ele>30.1</ele>
        <time>2026-08-12T08:22:51.000Z</time>
      </trkpt>
      <trkpt lat="45.66314" lon="0.15876">
        <ele>30.1</ele>
        <time>2026-08-12T08:22:54.000Z</time>
      </trkpt>
      <trkpt lat="45.66298" lon="0.15864">
        <ele>30</ele>
        <time>2026-08-12T08:23:01.000Z</time>
      </trkpt>
      <trkpt lat="45.66295" lon="0.15863">
        <ele>30</ele>
        <time>2026-08-12T08:23:04.000Z</time>
      </trkpt>
      <trkpt lat="45.66289" lon="0.15862">
        <ele>30</ele>
        <time>2026-08-12T08:23:07.000Z</time>
      </trkpt>
      <trkpt lat="45.66273" lon="0.15863">
        <ele>30.2</ele>
        <time>2026-08-12T08:23:11.000Z</time>
      </trkpt>
      <trkpt lat="45.66247" lon="0.15881">
        <ele>30.4</ele>
        <time>2026-08-12T08:23:17.000Z</time>
      </trkpt>
      <trkpt lat="45.66229" lon="0.15889">
        <ele>30.7</ele>
        <time>2026-08-12T08:23:21.000Z</time>
      </trkpt>
      <trkpt lat="45.66221" lon="0.15891">
        <ele>31</ele>
        <time>2026-08-12T08:23:23.000Z</time>
      </trkpt>
      <trkpt lat="45.66193" lon="0.15901">
        <ele>31.1</ele>
        <time>2026-08-12T08:23:30.000Z</time>
      </trkpt>
      <trkpt lat="45.66167" lon="0.15916">
        <ele>31</ele>
        <time>2026-08-12T08:23:37.000Z</time>
      </trkpt>
      <trkpt lat="45.66154" lon="0.15921">
        <ele>31.2</ele>
        <time>2026-08-12T08:23:40.000Z</time>
      </trkpt>
      <trkpt lat="45.66138" lon="0.15927">
        <ele>31.2</ele>
        <time>2026-08-12T08:23:44.000Z</time>
      </trkpt>
      <trkpt lat="45.66113" lon="0.15926">
        <ele>31.4</ele>
        <time>2026-08-12T08:23:50.000Z</time>
      </trkpt>
      <trkpt lat="45.66103" lon="0.15911">
        <ele>32</ele>
        <time>2026-08-12T08:23:54.000Z</time>
      </trkpt>
      <trkpt lat="45.66089" lon="0.15896">
        <ele>32</ele>
        <time>2026-08-12T08:23:59.000Z</time>
      </trkpt>
      <trkpt lat="45.66074" lon="0.15902">
        <ele>32</ele>
        <time>2026-08-12T08:24:03.000Z</time>
      </trkpt>
      <trkpt lat="45.66055" lon="0.1591">
        <ele>32</ele>
        <time>2026-08-12T08:24:08.000Z</time>
      </trkpt>
      <trkpt lat="45.66037" lon="0.15899">
        <ele>32</ele>
        <time>2026-08-12T08:24:13.000Z</time>
      </trkpt>
      <trkpt lat="45.66021" lon="0.15867">
        <ele>32</ele>
        <time>2026-08-12T08:24:20.000Z</time>
      </trkpt>
      <trkpt lat="45.66002" lon="0.15855">
        <ele>32</ele>
        <time>2026-08-12T08:24:25.000Z</time>
      </trkpt>
      <trkpt lat="45.65989" lon="0.15832">
        <ele>32</ele>
        <time>2026-08-12T08:24:30.000Z</time>
      </trkpt>
      <trkpt lat="45.65969" lon="0.15785">
        <ele>31</ele>
        <time>2026-08-12T08:24:39.000Z</time>
      </trkpt>
      <trkpt lat="45.65968" lon="0.15778">
        <ele>31</ele>
        <time>2026-08-12T08:24:41.000Z</time>
      </trkpt>
      <trkpt lat="45.65968" lon="0.15775">
        <ele>31</ele>
        <time>2026-08-12T08:24:42.000Z</time>
      </trkpt>
      <trkpt lat="45.65973" lon="0.15762">
        <ele>31</ele>
        <time>2026-08-12T08:24:48.000Z</time>
      </trkpt>
      <trkpt lat="45.65979" lon="0.15745">
        <ele>30.8</ele>
        <time>2026-08-12T08:24:54.000Z</time>
      </trkpt>
      <trkpt lat="45.65978" lon="0.15737">
        <ele>30.9</ele>
        <time>2026-08-12T08:24:56.000Z</time>
      </trkpt>
      <trkpt lat="45.65977" lon="0.15736">
        <ele>30.9</ele>
        <time>2026-08-12T08:24:57.000Z</time>
      </trkpt>
      <trkpt lat="45.65956" lon="0.15732">
        <ele>30.6</ele>
        <time>2026-08-12T08:25:03.000Z</time>
      </trkpt>
      <trkpt lat="45.65934" lon="0.15726">
        <ele>30.8</ele>
        <time>2026-08-12T08:25:10.000Z</time>
      </trkpt>
      <trkpt lat="45.65909" lon="0.15724">
        <ele>30.9</ele>
        <time>2026-08-12T08:25:17.000Z</time>
      </trkpt>
      <trkpt lat="45.65886" lon="0.15724">
        <ele>30.8</ele>
        <time>2026-08-12T08:25:23.000Z</time>
      </trkpt>
      <trkpt lat="45.65854" lon="0.15722">
        <ele>30</ele>
        <time>2026-08-12T08:25:31.000Z</time>
      </trkpt>
      <trkpt lat="45.65811" lon="0.15718">
        <ele>30.8</ele>
        <time>2026-08-12T08:25:42.000Z</time>
      </trkpt>
      <trkpt lat="45.65791" lon="0.1572">
        <ele>30.6</ele>
        <time>2026-08-12T08:25:47.000Z</time>
      </trkpt>
      <trkpt lat="45.65772" lon="0.1572">
        <ele>30.2</ele>
        <time>2026-08-12T08:25:53.000Z</time>
      </trkpt>
      <trkpt lat="45.65751" lon="0.15713">
        <ele>30.3</ele>
        <time>2026-08-12T08:25:58.000Z</time>
      </trkpt>
      <trkpt lat="45.65734" lon="0.15712">
        <ele>29.8</ele>
        <time>2026-08-12T08:26:02.000Z</time>
      </trkpt>
      <trkpt lat="45.65726" lon="0.15707">
        <ele>29.7</ele>
        <time>2026-08-12T08:26:04.000Z</time>
      </trkpt>
      <trkpt lat="45.65703" lon="0.15679">
        <ele>29.9</ele>
        <time>2026-08-12T08:26:11.000Z</time>
      </trkpt>
      <trkpt lat="45.65678" lon="0.15649">
        <ele>30.7</ele>
        <time>2026-08-12T08:26:19.000Z</time>
      </trkpt>
      <trkpt lat="45.65671" lon="0.15641">
        <ele>31</ele>
        <time>2026-08-12T08:26:21.000Z</time>
      </trkpt>
      <trkpt lat="45.65659" lon="0.15627">
        <ele>31</ele>
        <time>2026-08-12T08:26:25.000Z</time>
      </trkpt>
      <trkpt lat="45.65645" lon="0.15614">
        <ele>31.1</ele>
        <time>2026-08-12T08:26:30.000Z</time>
      </trkpt>
      <trkpt lat="45.6563" lon="0.15595">
        <ele>30.9</ele>
        <time>2026-08-12T08:26:36.000Z</time>
      </trkpt>
      <trkpt lat="45.65605" lon="0.15571">
        <ele>30.6</ele>
        <time>2026-08-12T08:26:44.000Z</time>
      </trkpt>
      <trkpt lat="45.65579" lon="0.15552">
        <ele>30.8</ele>
        <time>2026-08-12T08:26:51.000Z</time>
      </trkpt>
      <trkpt lat="45.65566" lon="0.15532">
        <ele>30.6</ele>
        <time>2026-08-12T08:26:55.000Z</time>
      </trkpt>
      <trkpt lat="45.65565" lon="0.15527">
        <ele>30.6</ele>
        <time>2026-08-12T08:26:56.000Z</time>
      </trkpt>
      <trkpt lat="45.65565" lon="0.15523">
        <ele>30.5</ele>
        <time>2026-08-12T08:26:57.000Z</time>
      </trkpt>
      <trkpt lat="45.65568" lon="0.15517">
        <ele>30.5</ele>
        <time>2026-08-12T08:26:59.000Z</time>
      </trkpt>
      <trkpt lat="45.65576" lon="0.15502">
        <ele>30.6</ele>
        <time>2026-08-12T08:27:03.000Z</time>
      </trkpt>
      <trkpt lat="45.6559" lon="0.15496">
        <ele>31</ele>
        <time>2026-08-12T08:27:07.000Z</time>
      </trkpt>
      <trkpt lat="45.65604" lon="0.15482">
        <ele>31</ele>
        <time>2026-08-12T08:27:12.000Z</time>
      </trkpt>
      <trkpt lat="45.65633" lon="0.15462">
        <ele>31.3</ele>
        <time>2026-08-12T08:27:20.000Z</time>
      </trkpt>
      <trkpt lat="45.6564" lon="0.15454">
        <ele>31.4</ele>
        <time>2026-08-12T08:27:22.000Z</time>
      </trkpt>
      <trkpt lat="45.65641" lon="0.15447">
        <ele>31.2</ele>
        <time>2026-08-12T08:27:23.000Z</time>
      </trkpt>
      <trkpt lat="45.6563" lon="0.15407">
        <ele>30.9</ele>
        <time>2026-08-12T08:27:31.000Z</time>
      </trkpt>
      <trkpt lat="45.65627" lon="0.15396">
        <ele>31</ele>
        <time>2026-08-12T08:27:33.000Z</time>
      </trkpt>
      <trkpt lat="45.65622" lon="0.15379">
        <ele>31</ele>
        <time>2026-08-12T08:27:36.000Z</time>
      </trkpt>
      <trkpt lat="45.65619" lon="0.15374">
        <ele>31</ele>
        <time>2026-08-12T08:27:37.000Z</time>
      </trkpt>
      <trkpt lat="45.65603" lon="0.15331">
        <ele>31</ele>
        <time>2026-08-12T08:27:45.000Z</time>
      </trkpt>
      <trkpt lat="45.65589" lon="0.1529">
        <ele>30.8</ele>
        <time>2026-08-12T08:27:52.000Z</time>
      </trkpt>
      <trkpt lat="45.65585" lon="0.1528">
        <ele>31</ele>
        <time>2026-08-12T08:27:54.000Z</time>
      </trkpt>
      <trkpt lat="45.65578" lon="0.15257">
        <ele>31</ele>
        <time>2026-08-12T08:27:58.000Z</time>
      </trkpt>
      <trkpt lat="45.65576" lon="0.15252">
        <ele>31</ele>
        <time>2026-08-12T08:27:59.000Z</time>
      </trkpt>
      <trkpt lat="45.65573" lon="0.15248">
        <ele>31</ele>
        <time>2026-08-12T08:28:00.000Z</time>
      </trkpt>
      <trkpt lat="45.65564" lon="0.15246">
        <ele>31</ele>
        <time>2026-08-12T08:28:02.000Z</time>
      </trkpt>
      <trkpt lat="45.65544" lon="0.15249">
        <ele>30.6</ele>
        <time>2026-08-12T08:28:07.000Z</time>
      </trkpt>
      <trkpt lat="45.65537" lon="0.15237">
        <ele>30.6</ele>
        <time>2026-08-12T08:28:10.000Z</time>
      </trkpt>
      <trkpt lat="45.65531" lon="0.15209">
        <ele>31</ele>
        <time>2026-08-12T08:28:16.000Z</time>
      </trkpt>
      <trkpt lat="45.6553" lon="0.15204">
        <ele>31</ele>
        <time>2026-08-12T08:28:17.000Z</time>
      </trkpt>
      <trkpt lat="45.65527" lon="0.15165">
        <ele>31</ele>
        <time>2026-08-12T08:28:25.000Z</time>
      </trkpt>
      <trkpt lat="45.65518" lon="0.15142">
        <ele>31</ele>
        <time>2026-08-12T08:28:31.000Z</time>
      </trkpt>
      <trkpt lat="45.65511" lon="0.15133">
        <ele>31</ele>
        <time>2026-08-12T08:28:34.000Z</time>
      </trkpt>
      <trkpt lat="45.6551" lon="0.15123">
        <ele>31</ele>
        <time>2026-08-12T08:28:36.000Z</time>
      </trkpt>
      <trkpt lat="45.65509" lon="0.15113">
        <ele>31</ele>
        <time>2026-08-12T08:28:38.000Z</time>
      </trkpt>
      <trkpt lat="45.65506" lon="0.15089">
        <ele>31</ele>
        <time>2026-08-12T08:28:43.000Z</time>
      </trkpt>
      <trkpt lat="45.65506" lon="0.15075">
        <ele>31</ele>
        <time>2026-08-12T08:28:46.000Z</time>
      </trkpt>
      <trkpt lat="45.65508" lon="0.15072">
        <ele>31</ele>
        <time>2026-08-12T08:28:47.000Z</time>
      </trkpt>
      <trkpt lat="45.65511" lon="0.15071">
        <ele>31</ele>
        <time>2026-08-12T08:28:48.000Z</time>
      </trkpt>
      <trkpt lat="45.65514" lon="0.15074">
        <ele>31</ele>
        <time>2026-08-12T08:28:50.000Z</time>
      </trkpt>
      <trkpt lat="45.65519" lon="0.15091">
        <ele>31</ele>
        <time>2026-08-12T08:28:56.000Z</time>
      </trkpt>
      <trkpt lat="45.65521" lon="0.15104">
        <ele>31</ele>
        <time>2026-08-12T08:29:02.000Z</time>
      </trkpt>
      <trkpt lat="45.65521" lon="0.15106">
        <ele>31</ele>
        <time>2026-08-12T08:29:03.000Z</time>
      </trkpt>
      <trkpt lat="45.65521" lon="0.15107">
        <ele>31</ele>
        <time>2026-08-12T08:29:05.000Z</time>
      </trkpt>
      <trkpt lat="45.65521" lon="0.15107">
        <ele>31</ele>
        <time>2026-08-12T08:29:09.000Z</time>
      </trkpt>
      <trkpt lat="45.65759" lon="0.14257">
        <ele>34</ele>
        <time>2026-08-12T09:13:33.000Z</time>
      </trkpt>
      <trkpt lat="45.65701" lon="0.14256">
        <ele>29.4</ele>
        <time>2026-08-12T09:13:36.000Z</time>
      </trkpt>
      <trkpt lat="45.65695" lon="0.1425">
        <ele>29</ele>
        <time>2026-08-12T09:13:37.000Z</time>
      </trkpt>
      <trkpt lat="45.65697" lon="0.14249">
        <ele>29.1</ele>
        <time>2026-08-12T09:13:38.000Z</time>
      </trkpt>
      <trkpt lat="45.65699" lon="0.14248">
        <ele>29.1</ele>
        <time>2026-08-12T09:13:39.000Z</time>
      </trkpt>
      <trkpt lat="45.65711" lon="0.14248">
        <ele>29.6</ele>
        <time>2026-08-12T09:13:41.000Z</time>
      </trkpt>
      <trkpt lat="45.65709" lon="0.14242">
        <ele>29.4</ele>
        <time>2026-08-12T09:13:42.000Z</time>
      </trkpt>
      <trkpt lat="45.6571" lon="0.14233">
        <ele>29.3</ele>
        <time>2026-08-12T09:13:45.000Z</time>
      </trkpt>
      <trkpt lat="45.65711" lon="0.14231">
        <ele>29.3</ele>
        <time>2026-08-12T09:13:46.000Z</time>
      </trkpt>
      <trkpt lat="45.65719" lon="0.14214">
        <ele>29.5</ele>
        <time>2026-08-12T09:13:51.000Z</time>
      </trkpt>
      <trkpt lat="45.6573" lon="0.14182">
        <ele>29.7</ele>
        <time>2026-08-12T09:13:58.000Z</time>
      </trkpt>
      <trkpt lat="45.65744" lon="0.14146">
        <ele>30.4</ele>
        <time>2026-08-12T09:14:06.000Z</time>
      </trkpt>
      <trkpt lat="45.65752" lon="0.14129">
        <ele>30.5</ele>
        <time>2026-08-12T09:14:11.000Z</time>
      </trkpt>
      <trkpt lat="45.65755" lon="0.14113">
        <ele>29.7</ele>
        <time>2026-08-12T09:14:13.000Z</time>
      </trkpt>
      <trkpt lat="45.65757" lon="0.14101">
        <ele>29.3</ele>
        <time>2026-08-12T09:14:15.000Z</time>
      </trkpt>
      <trkpt lat="45.65763" lon="0.14067">
        <ele>28.6</ele>
        <time>2026-08-12T09:14:21.000Z</time>
      </trkpt>
      <trkpt lat="45.65772" lon="0.14038">
        <ele>28.8</ele>
        <time>2026-08-12T09:14:27.000Z</time>
      </trkpt>
      <trkpt lat="45.65778" lon="0.1401">
        <ele>29</ele>
        <time>2026-08-12T09:14:32.000Z</time>
      </trkpt>
      <trkpt lat="45.65792" lon="0.13973">
        <ele>28.5</ele>
        <time>2026-08-12T09:14:38.000Z</time>
      </trkpt>
      <trkpt lat="45.65803" lon="0.13941">
        <ele>28.9</ele>
        <time>2026-08-12T09:14:44.000Z</time>
      </trkpt>
      <trkpt lat="45.65817" lon="0.13906">
        <ele>28.8</ele>
        <time>2026-08-12T09:14:52.000Z</time>
      </trkpt>
      <trkpt lat="45.65833" lon="0.13858">
        <ele>29</ele>
        <time>2026-08-12T09:15:01.000Z</time>
      </trkpt>
      <trkpt lat="45.65841" lon="0.13833">
        <ele>29</ele>
        <time>2026-08-12T09:15:06.000Z</time>
      </trkpt>
      <trkpt lat="45.65852" lon="0.13799">
        <ele>28.7</ele>
        <time>2026-08-12T09:15:13.000Z</time>
      </trkpt>
      <trkpt lat="45.65862" lon="0.13768">
        <ele>29</ele>
        <time>2026-08-12T09:15:20.000Z</time>
      </trkpt>
      <trkpt lat="45.65872" lon="0.13739">
        <ele>28.9</ele>
        <time>2026-08-12T09:15:26.000Z</time>
      </trkpt>
      <trkpt lat="45.65886" lon="0.13702">
        <ele>29.1</ele>
        <time>2026-08-12T09:15:34.000Z</time>
      </trkpt>
      <trkpt lat="45.65899" lon="0.13665">
        <ele>28.3</ele>
        <time>2026-08-12T09:15:41.000Z</time>
      </trkpt>
      <trkpt lat="45.65911" lon="0.13628">
        <ele>28.8</ele>
        <time>2026-08-12T09:15:48.000Z</time>
      </trkpt>
      <trkpt lat="45.65925" lon="0.13579">
        <ele>28.5</ele>
        <time>2026-08-12T09:15:56.000Z</time>
      </trkpt>
      <trkpt lat="45.65935" lon="0.13533">
        <ele>28.7</ele>
        <time>2026-08-12T09:16:04.000Z</time>
      </trkpt>
      <trkpt lat="45.65942" lon="0.13504">
        <ele>28.9</ele>
        <time>2026-08-12T09:16:10.000Z</time>
      </trkpt>
      <trkpt lat="45.65954" lon="0.13465">
        <ele>28.6</ele>
        <time>2026-08-12T09:16:18.000Z</time>
      </trkpt>
      <trkpt lat="45.65964" lon="0.13424">
        <ele>28.7</ele>
        <time>2026-08-12T09:16:26.000Z</time>
      </trkpt>
      <trkpt lat="45.65971" lon="0.13391">
        <ele>29</ele>
        <time>2026-08-12T09:16:32.000Z</time>
      </trkpt>
      <trkpt lat="45.65982" lon="0.13351">
        <ele>28.8</ele>
        <time>2026-08-12T09:16:39.000Z</time>
      </trkpt>
      <trkpt lat="45.65984" lon="0.13344">
        <ele>28.7</ele>
        <time>2026-08-12T09:16:40.000Z</time>
      </trkpt>
      <trkpt lat="45.65995" lon="0.13309">
        <ele>28.8</ele>
        <time>2026-08-12T09:16:46.000Z</time>
      </trkpt>
      <trkpt lat="45.65998" lon="0.13283">
        <ele>28.9</ele>
        <time>2026-08-12T09:16:51.000Z</time>
      </trkpt>
      <trkpt lat="45.65999" lon="0.13262">
        <ele>29</ele>
        <time>2026-08-12T09:16:57.000Z</time>
      </trkpt>
      <trkpt lat="45.66001" lon="0.13242">
        <ele>28.7</ele>
        <time>2026-08-12T09:17:02.000Z</time>
      </trkpt>
      <trkpt lat="45.66005" lon="0.13214">
        <ele>28.2</ele>
        <time>2026-08-12T09:17:08.000Z</time>
      </trkpt>
      <trkpt lat="45.66015" lon="0.13175">
        <ele>28.5</ele>
        <time>2026-08-12T09:17:14.000Z</time>
      </trkpt>
      <trkpt lat="45.66025" lon="0.13142">
        <ele>28.9</ele>
        <time>2026-08-12T09:17:20.000Z</time>
      </trkpt>
      <trkpt lat="45.66035" lon="0.13104">
        <ele>28.8</ele>
        <time>2026-08-12T09:17:27.000Z</time>
      </trkpt>
      <trkpt lat="45.66046" lon="0.13067">
        <ele>28.7</ele>
        <time>2026-08-12T09:17:34.000Z</time>
      </trkpt>
      <trkpt lat="45.66055" lon="0.13045">
        <ele>28.6</ele>
        <time>2026-08-12T09:17:39.000Z</time>
      </trkpt>
      <trkpt lat="45.66068" lon="0.13017">
        <ele>28.4</ele>
        <time>2026-08-12T09:17:44.000Z</time>
      </trkpt>
      <trkpt lat="45.6608" lon="0.12991">
        <ele>28.9</ele>
        <time>2026-08-12T09:17:49.000Z</time>
      </trkpt>
      <trkpt lat="45.66085" lon="0.12972">
        <ele>29</ele>
        <time>2026-08-12T09:17:52.000Z</time>
      </trkpt>
      <trkpt lat="45.66091" lon="0.12963">
        <ele>28.8</ele>
        <time>2026-08-12T09:17:54.000Z</time>
      </trkpt>
      <trkpt lat="45.66103" lon="0.12936">
        <ele>28.7</ele>
        <time>2026-08-12T09:17:59.000Z</time>
      </trkpt>
      <trkpt lat="45.66117" lon="0.12897">
        <ele>29</ele>
        <time>2026-08-12T09:18:06.000Z</time>
      </trkpt>
      <trkpt lat="45.66129" lon="0.12859">
        <ele>28.6</ele>
        <time>2026-08-12T09:18:13.000Z</time>
      </trkpt>
      <trkpt lat="45.66138" lon="0.12831">
        <ele>29</ele>
        <time>2026-08-12T09:18:18.000Z</time>
      </trkpt>
      <trkpt lat="45.66147" lon="0.128">
        <ele>28.9</ele>
        <time>2026-08-12T09:18:24.000Z</time>
      </trkpt>
      <trkpt lat="45.66155" lon="0.12766">
        <ele>29.9</ele>
        <time>2026-08-12T09:18:29.000Z</time>
      </trkpt>
      <trkpt lat="45.66157" lon="0.12753">
        <ele>31</ele>
        <time>2026-08-12T09:18:30.000Z</time>
      </trkpt>
      <trkpt lat="45.6616" lon="0.12738">
        <ele>30.5</ele>
        <time>2026-08-12T09:18:33.000Z</time>
      </trkpt>
      <trkpt lat="45.66161" lon="0.12735">
        <ele>30.3</ele>
        <time>2026-08-12T09:18:34.000Z</time>
      </trkpt>
      <trkpt lat="45.66163" lon="0.12727">
        <ele>29.4</ele>
        <time>2026-08-12T09:18:36.000Z</time>
      </trkpt>
      <trkpt lat="45.66179" lon="0.12696">
        <ele>28.7</ele>
        <time>2026-08-12T09:18:40.000Z</time>
      </trkpt>
      <trkpt lat="45.6618" lon="0.12675">
        <ele>28.5</ele>
        <time>2026-08-12T09:18:44.000Z</time>
      </trkpt>
      <trkpt lat="45.66186" lon="0.12645">
        <ele>28.7</ele>
        <time>2026-08-12T09:18:50.000Z</time>
      </trkpt>
      <trkpt lat="45.66191" lon="0.12618">
        <ele>28.9</ele>
        <time>2026-08-12T09:18:55.000Z</time>
      </trkpt>
      <trkpt lat="45.66204" lon="0.12569">
        <ele>28.7</ele>
        <time>2026-08-12T09:19:02.000Z</time>
      </trkpt>
      <trkpt lat="45.66223" lon="0.12529">
        <ele>29</ele>
        <time>2026-08-12T09:19:09.000Z</time>
      </trkpt>
      <trkpt lat="45.66248" lon="0.12489">
        <ele>28.9</ele>
        <time>2026-08-12T09:19:17.000Z</time>
      </trkpt>
      <trkpt lat="45.66263" lon="0.12465">
        <ele>28.9</ele>
        <time>2026-08-12T09:19:22.000Z</time>
      </trkpt>
      <trkpt lat="45.6627" lon="0.12456">
        <ele>28.8</ele>
        <time>2026-08-12T09:19:24.000Z</time>
      </trkpt>
      <trkpt lat="45.66273" lon="0.12453">
        <ele>28.9</ele>
        <time>2026-08-12T09:19:25.000Z</time>
      </trkpt>
      <trkpt lat="45.6628" lon="0.12446">
        <ele>28.9</ele>
        <time>2026-08-12T09:19:27.000Z</time>
      </trkpt>
      <trkpt lat="45.66291" lon="0.1244">
        <ele>28.4</ele>
        <time>2026-08-12T09:19:30.000Z</time>
      </trkpt>
      <trkpt lat="45.66295" lon="0.12438">
        <ele>28.3</ele>
        <time>2026-08-12T09:19:31.000Z</time>
      </trkpt>
      <trkpt lat="45.66314" lon="0.12427">
        <ele>28.3</ele>
        <time>2026-08-12T09:19:36.000Z</time>
      </trkpt>
      <trkpt lat="45.66337" lon="0.12415">
        <ele>29</ele>
        <time>2026-08-12T09:19:42.000Z</time>
      </trkpt>
      <trkpt lat="45.66358" lon="0.12392">
        <ele>28.9</ele>
        <time>2026-08-12T09:19:48.000Z</time>
      </trkpt>
      <trkpt lat="45.66376" lon="0.12357">
        <ele>28.5</ele>
        <time>2026-08-12T09:19:55.000Z</time>
      </trkpt>
      <trkpt lat="45.66396" lon="0.12327">
        <ele>29.1</ele>
        <time>2026-08-12T09:20:01.000Z</time>
      </trkpt>
      <trkpt lat="45.66402" lon="0.12317">
        <ele>29.2</ele>
        <time>2026-08-12T09:20:03.000Z</time>
      </trkpt>
      <trkpt lat="45.6641" lon="0.123">
        <ele>29.4</ele>
        <time>2026-08-12T09:20:06.000Z</time>
      </trkpt>
      <trkpt lat="45.66424" lon="0.12262">
        <ele>28.9</ele>
        <time>2026-08-12T09:20:13.000Z</time>
      </trkpt>
      <trkpt lat="45.6644" lon="0.12231">
        <ele>29.1</ele>
        <time>2026-08-12T09:20:18.000Z</time>
      </trkpt>
      <trkpt lat="45.66451" lon="0.12197">
        <ele>29.2</ele>
        <time>2026-08-12T09:20:24.000Z</time>
      </trkpt>
      <trkpt lat="45.66458" lon="0.12171">
        <ele>28.6</ele>
        <time>2026-08-12T09:20:30.000Z</time>
      </trkpt>
      <trkpt lat="45.66473" lon="0.12127">
        <ele>29</ele>
        <time>2026-08-12T09:20:39.000Z</time>
      </trkpt>
      <trkpt lat="45.66489" lon="0.12082">
        <ele>28.6</ele>
        <time>2026-08-12T09:20:47.000Z</time>
      </trkpt>
      <trkpt lat="45.66508" lon="0.12038">
        <ele>28.6</ele>
        <time>2026-08-12T09:20:54.000Z</time>
      </trkpt>
      <trkpt lat="45.66527" lon="0.11992">
        <ele>28.7</ele>
        <time>2026-08-12T09:21:01.000Z</time>
      </trkpt>
      <trkpt lat="45.66538" lon="0.11971">
        <ele>28.4</ele>
        <time>2026-08-12T09:21:05.000Z</time>
      </trkpt>
      <trkpt lat="45.66543" lon="0.11959">
        <ele>28.6</ele>
        <time>2026-08-12T09:21:08.000Z</time>
      </trkpt>
      <trkpt lat="45.66559" lon="0.1193">
        <ele>29</ele>
        <time>2026-08-12T09:21:14.000Z</time>
      </trkpt>
      <trkpt lat="45.66579" lon="0.11885">
        <ele>28.8</ele>
        <time>2026-08-12T09:21:21.000Z</time>
      </trkpt>
      <trkpt lat="45.66597" lon="0.11844">
        <ele>28.7</ele>
        <time>2026-08-12T09:21:29.000Z</time>
      </trkpt>
      <trkpt lat="45.66611" lon="0.11815">
        <ele>29</ele>
        <time>2026-08-12T09:21:36.000Z</time>
      </trkpt>
      <trkpt lat="45.66619" lon="0.11796">
        <ele>28.8</ele>
        <time>2026-08-12T09:21:41.000Z</time>
      </trkpt>
      <trkpt lat="45.66629" lon="0.11771">
        <ele>28.6</ele>
        <time>2026-08-12T09:21:46.000Z</time>
      </trkpt>
      <trkpt lat="45.66644" lon="0.11731">
        <ele>28.5</ele>
        <time>2026-08-12T09:21:52.000Z</time>
      </trkpt>
      <trkpt lat="45.66665" lon="0.11688">
        <ele>28.7</ele>
        <time>2026-08-12T09:21:59.000Z</time>
      </trkpt>
      <trkpt lat="45.66687" lon="0.11654">
        <ele>28.7</ele>
        <time>2026-08-12T09:22:07.000Z</time>
      </trkpt>
      <trkpt lat="45.6671" lon="0.11608">
        <ele>28.6</ele>
        <time>2026-08-12T09:22:16.000Z</time>
      </trkpt>
      <trkpt lat="45.66731" lon="0.11576">
        <ele>28.8</ele>
        <time>2026-08-12T09:22:24.000Z</time>
      </trkpt>
      <trkpt lat="45.6675" lon="0.11542">
        <ele>28.5</ele>
        <time>2026-08-12T09:22:31.000Z</time>
      </trkpt>
      <trkpt lat="45.66766" lon="0.11517">
        <ele>28.6</ele>
        <time>2026-08-12T09:22:36.000Z</time>
      </trkpt>
      <trkpt lat="45.66784" lon="0.11484">
        <ele>28.5</ele>
        <time>2026-08-12T09:22:42.000Z</time>
      </trkpt>
      <trkpt lat="45.6679" lon="0.11474">
        <ele>28.5</ele>
        <time>2026-08-12T09:22:45.000Z</time>
      </trkpt>
      <trkpt lat="45.66797" lon="0.11468">
        <ele>28.7</ele>
        <time>2026-08-12T09:22:47.000Z</time>
      </trkpt>
      <trkpt lat="45.66802" lon="0.11461">
        <ele>28.9</ele>
        <time>2026-08-12T09:22:49.000Z</time>
      </trkpt>
      <trkpt lat="45.66803" lon="0.11456">
        <ele>28.9</ele>
        <time>2026-08-12T09:22:50.000Z</time>
      </trkpt>
      <trkpt lat="45.66809" lon="0.1144">
        <ele>28.9</ele>
        <time>2026-08-12T09:22:55.000Z</time>
      </trkpt>
      <trkpt lat="45.66819" lon="0.11424">
        <ele>28.6</ele>
        <time>2026-08-12T09:23:00.000Z</time>
      </trkpt>
      <trkpt lat="45.66821" lon="0.1142">
        <ele>28.6</ele>
        <time>2026-08-12T09:23:01.000Z</time>
      </trkpt>
      <trkpt lat="45.66833" lon="0.114">
        <ele>29</ele>
        <time>2026-08-12T09:23:05.000Z</time>
      </trkpt>
      <trkpt lat="45.66846" lon="0.11369">
        <ele>28.6</ele>
        <time>2026-08-12T09:23:11.000Z</time>
      </trkpt>
      <trkpt lat="45.66867" lon="0.11322">
        <ele>28.7</ele>
        <time>2026-08-12T09:23:19.000Z</time>
      </trkpt>
      <trkpt lat="45.6687" lon="0.11317">
        <ele>28.6</ele>
        <time>2026-08-12T09:23:20.000Z</time>
      </trkpt>
      <trkpt lat="45.66886" lon="0.11292">
        <ele>28.9</ele>
        <time>2026-08-12T09:23:24.000Z</time>
      </trkpt>
      <trkpt lat="45.66889" lon="0.11288">
        <ele>29</ele>
        <time>2026-08-12T09:23:25.000Z</time>
      </trkpt>
      <trkpt lat="45.669" lon="0.11279">
        <ele>29</ele>
        <time>2026-08-12T09:23:28.000Z</time>
      </trkpt>
      <trkpt lat="45.66911" lon="0.11272">
        <ele>28.7</ele>
        <time>2026-08-12T09:23:31.000Z</time>
      </trkpt>
      <trkpt lat="45.66928" lon="0.11262">
        <ele>28.3</ele>
        <time>2026-08-12T09:23:36.000Z</time>
      </trkpt>
      <trkpt lat="45.66942" lon="0.11249">
        <ele>28.7</ele>
        <time>2026-08-12T09:23:40.000Z</time>
      </trkpt>
      <trkpt lat="45.66945" lon="0.11246">
        <ele>28.7</ele>
        <time>2026-08-12T09:23:41.000Z</time>
      </trkpt>
      <trkpt lat="45.66955" lon="0.11235">
        <ele>28.3</ele>
        <time>2026-08-12T09:23:45.000Z</time>
      </trkpt>
      <trkpt lat="45.66973" lon="0.11207">
        <ele>28.5</ele>
        <time>2026-08-12T09:23:52.000Z</time>
      </trkpt>
      <trkpt lat="45.66992" lon="0.1118">
        <ele>28.6</ele>
        <time>2026-08-12T09:23:58.000Z</time>
      </trkpt>
      <trkpt lat="45.67022" lon="0.11141">
        <ele>28.6</ele>
        <time>2026-08-12T09:24:06.000Z</time>
      </trkpt>
      <trkpt lat="45.67044" lon="0.11113">
        <ele>27.6</ele>
        <time>2026-08-12T09:24:12.000Z</time>
      </trkpt>
      <trkpt lat="45.67062" lon="0.11081">
        <ele>28</ele>
        <time>2026-08-12T09:24:18.000Z</time>
      </trkpt>
      <trkpt lat="45.67077" lon="0.11042">
        <ele>28.2</ele>
        <time>2026-08-12T09:24:25.000Z</time>
      </trkpt>
      <trkpt lat="45.67079" lon="0.11036">
        <ele>28.1</ele>
        <time>2026-08-12T09:24:26.000Z</time>
      </trkpt>
      <trkpt lat="45.67085" lon="0.11006">
        <ele>28</ele>
        <time>2026-08-12T09:24:31.000Z</time>
      </trkpt>
      <trkpt lat="45.67086" lon="0.11002">
        <ele>28.1</ele>
        <time>2026-08-12T09:24:32.000Z</time>
      </trkpt>
      <trkpt lat="45.67097" lon="0.10984">
        <ele>28.2</ele>
        <time>2026-08-12T09:24:36.000Z</time>
      </trkpt>
      <trkpt lat="45.67112" lon="0.10963">
        <ele>28.3</ele>
        <time>2026-08-12T09:24:41.000Z</time>
      </trkpt>
      <trkpt lat="45.67139" lon="0.10924">
        <ele>28</ele>
        <time>2026-08-12T09:24:49.000Z</time>
      </trkpt>
      <trkpt lat="45.6714" lon="0.10923">
        <ele>28</ele>
        <time>2026-08-12T09:24:50.000Z</time>
      </trkpt>
      <trkpt lat="45.6714" lon="0.10923">
        <ele>28</ele>
        <time>2026-08-12T09:24:52.000Z</time>
      </trkpt>
      <trkpt lat="45.67143" lon="0.10916">
        <ele>28</ele>
        <time>2026-08-12T09:24:56.000Z</time>
      </trkpt>
      <trkpt lat="45.67148" lon="0.10912">
        <ele>27.9</ele>
        <time>2026-08-12T09:24:59.000Z</time>
      </trkpt>
      <trkpt lat="45.67149" lon="0.10899">
        <ele>27.6</ele>
        <time>2026-08-12T09:25:03.000Z</time>
      </trkpt>
      <trkpt lat="45.6715" lon="0.10889">
        <ele>27.4</ele>
        <time>2026-08-12T09:25:06.000Z</time>
      </trkpt>
      <trkpt lat="45.67149" lon="0.10883">
        <ele>27.3</ele>
        <time>2026-08-12T09:25:08.000Z</time>
      </trkpt>
      <trkpt lat="45.67156" lon="0.10859">
        <ele>27.6</ele>
        <time>2026-08-12T09:25:13.000Z</time>
      </trkpt>
      <trkpt lat="45.67161" lon="0.10832">
        <ele>27.8</ele>
        <time>2026-08-12T09:25:18.000Z</time>
      </trkpt>
      <trkpt lat="45.67166" lon="0.10795">
        <ele>28</ele>
        <time>2026-08-12T09:25:24.000Z</time>
      </trkpt>
      <trkpt lat="45.67176" lon="0.10763">
        <ele>27.6</ele>
        <time>2026-08-12T09:25:30.000Z</time>
      </trkpt>
      <trkpt lat="45.6718" lon="0.10729">
        <ele>27.8</ele>
        <time>2026-08-12T09:25:36.000Z</time>
      </trkpt>
      <trkpt lat="45.67181" lon="0.10685">
        <ele>28.1</ele>
        <time>2026-08-12T09:25:43.000Z</time>
      </trkpt>
      <trkpt lat="45.67181" lon="0.10679">
        <ele>28</ele>
        <time>2026-08-12T09:25:44.000Z</time>
      </trkpt>
      <trkpt lat="45.6718" lon="0.10667">
        <ele>28</ele>
        <time>2026-08-12T09:25:46.000Z</time>
      </trkpt>
      <trkpt lat="45.6718" lon="0.10653">
        <ele>27.7</ele>
        <time>2026-08-12T09:25:48.000Z</time>
      </trkpt>
      <trkpt lat="45.6718" lon="0.10646">
        <ele>27.6</ele>
        <time>2026-08-12T09:25:49.000Z</time>
      </trkpt>
      <trkpt lat="45.6718" lon="0.10639">
        <ele>27.5</ele>
        <time>2026-08-12T09:25:50.000Z</time>
      </trkpt>
      <trkpt lat="45.67186" lon="0.10606">
        <ele>27.7</ele>
        <time>2026-08-12T09:25:55.000Z</time>
      </trkpt>
      <trkpt lat="45.67188" lon="0.10574">
        <ele>27.8</ele>
        <time>2026-08-12T09:26:00.000Z</time>
      </trkpt>
      <trkpt lat="45.67187" lon="0.10559">
        <ele>27.7</ele>
        <time>2026-08-12T09:26:02.000Z</time>
      </trkpt>
      <trkpt lat="45.67183" lon="0.10521">
        <ele>27.6</ele>
        <time>2026-08-12T09:26:08.000Z</time>
      </trkpt>
      <trkpt lat="45.67183" lon="0.10493">
        <ele>27.6</ele>
        <time>2026-08-12T09:26:12.000Z</time>
      </trkpt>
      <trkpt lat="45.67182" lon="0.10481">
        <ele>27.5</ele>
        <time>2026-08-12T09:26:14.000Z</time>
      </trkpt>
      <trkpt lat="45.67181" lon="0.10463">
        <ele>27.5</ele>
        <time>2026-08-12T09:26:17.000Z</time>
      </trkpt>
      <trkpt lat="45.67179" lon="0.10448">
        <ele>27.4</ele>
        <time>2026-08-12T09:26:20.000Z</time>
      </trkpt>
      <trkpt lat="45.67175" lon="0.10413">
        <ele>27.4</ele>
        <time>2026-08-12T09:26:27.000Z</time>
      </trkpt>
      <trkpt lat="45.67168" lon="0.1038">
        <ele>28</ele>
        <time>2026-08-12T09:26:33.000Z</time>
      </trkpt>
      <trkpt lat="45.67159" lon="0.10346">
        <ele>27.7</ele>
        <time>2026-08-12T09:26:39.000Z</time>
      </trkpt>
      <trkpt lat="45.6715" lon="0.10304">
        <ele>27.4</ele>
        <time>2026-08-12T09:26:46.000Z</time>
      </trkpt>
      <trkpt lat="45.67135" lon="0.10265">
        <ele>27.8</ele>
        <time>2026-08-12T09:26:52.000Z</time>
      </trkpt>
      <trkpt lat="45.67122" lon="0.10244">
        <ele>27.8</ele>
        <time>2026-08-12T09:26:57.000Z</time>
      </trkpt>
      <trkpt lat="45.67094" lon="0.10211">
        <ele>27.9</ele>
        <time>2026-08-12T09:27:04.000Z</time>
      </trkpt>
      <trkpt lat="45.67077" lon="0.10188">
        <ele>28</ele>
        <time>2026-08-12T09:27:11.000Z</time>
      </trkpt>
      <trkpt lat="45.67057" lon="0.10161">
        <ele>28.2</ele>
        <time>2026-08-12T09:27:17.000Z</time>
      </trkpt>
      <trkpt lat="45.6705" lon="0.10154">
        <ele>28.3</ele>
        <time>2026-08-12T09:27:19.000Z</time>
      </trkpt>
      <trkpt lat="45.67039" lon="0.10144">
        <ele>28.2</ele>
        <time>2026-08-12T09:27:22.000Z</time>
      </trkpt>
      <trkpt lat="45.67032" lon="0.10137">
        <ele>28.2</ele>
        <time>2026-08-12T09:27:24.000Z</time>
      </trkpt>
      <trkpt lat="45.67025" lon="0.10133">
        <ele>28.1</ele>
        <time>2026-08-12T09:27:26.000Z</time>
      </trkpt>
      <trkpt lat="45.67016" lon="0.10128">
        <ele>28</ele>
        <time>2026-08-12T09:27:28.000Z</time>
      </trkpt>
      <trkpt lat="45.66989" lon="0.10108">
        <ele>27.7</ele>
        <time>2026-08-12T09:27:35.000Z</time>
      </trkpt>
      <trkpt lat="45.66967" lon="0.10094">
        <ele>27.5</ele>
        <time>2026-08-12T09:27:40.000Z</time>
      </trkpt>
      <trkpt lat="45.66941" lon="0.10073">
        <ele>27.4</ele>
        <time>2026-08-12T09:27:47.000Z</time>
      </trkpt>
      <trkpt lat="45.66928" lon="0.10066">
        <ele>27.6</ele>
        <time>2026-08-12T09:27:49.000Z</time>
      </trkpt>
      <trkpt lat="45.66911" lon="0.10061">
        <ele>27.6</ele>
        <time>2026-08-12T09:27:53.000Z</time>
      </trkpt>
      <trkpt lat="45.66893" lon="0.10055">
        <ele>27.2</ele>
        <time>2026-08-12T09:27:57.000Z</time>
      </trkpt>
      <trkpt lat="45.66879" lon="0.1005">
        <ele>27.3</ele>
        <time>2026-08-12T09:28:00.000Z</time>
      </trkpt>
      <trkpt lat="45.66856" lon="0.10041">
        <ele>27.5</ele>
        <time>2026-08-12T09:28:05.000Z</time>
      </trkpt>
      <trkpt lat="45.66846" lon="0.10037">
        <ele>27.7</ele>
        <time>2026-08-12T09:28:07.000Z</time>
      </trkpt>
      <trkpt lat="45.66834" lon="0.10033">
        <ele>27.8</ele>
        <time>2026-08-12T09:28:10.000Z</time>
      </trkpt>
      <trkpt lat="45.66823" lon="0.10028">
        <ele>28</ele>
        <time>2026-08-12T09:28:13.000Z</time>
      </trkpt>
      <trkpt lat="45.66806" lon="0.10024">
        <ele>28</ele>
        <time>2026-08-12T09:28:17.000Z</time>
      </trkpt>
      <trkpt lat="45.66776" lon="0.10014">
        <ele>27.5</ele>
        <time>2026-08-12T09:28:24.000Z</time>
      </trkpt>
      <trkpt lat="45.66746" lon="0.10005">
        <ele>27.8</ele>
        <time>2026-08-12T09:28:30.000Z</time>
      </trkpt>
      <trkpt lat="45.66737" lon="0.1">
        <ele>28</ele>
        <time>2026-08-12T09:28:32.000Z</time>
      </trkpt>
      <trkpt lat="45.66709" lon="0.09992">
        <ele>27.7</ele>
        <time>2026-08-12T09:28:38.000Z</time>
      </trkpt>
      <trkpt lat="45.66681" lon="0.09984">
        <ele>27.6</ele>
        <time>2026-08-12T09:28:44.000Z</time>
      </trkpt>
      <trkpt lat="45.66651" lon="0.09969">
        <ele>28</ele>
        <time>2026-08-12T09:28:51.000Z</time>
      </trkpt>
      <trkpt lat="45.66634" lon="0.09964">
        <ele>27.9</ele>
        <time>2026-08-12T09:28:55.000Z</time>
      </trkpt>
      <trkpt lat="45.66627" lon="0.09961">
        <ele>27.7</ele>
        <time>2026-08-12T09:28:57.000Z</time>
      </trkpt>
      <trkpt lat="45.666" lon="0.09955">
        <ele>27.6</ele>
        <time>2026-08-12T09:29:03.000Z</time>
      </trkpt>
      <trkpt lat="45.66583" lon="0.09948">
        <ele>27.9</ele>
        <time>2026-08-12T09:29:07.000Z</time>
      </trkpt>
      <trkpt lat="45.66549" lon="0.09933">
        <ele>27.4</ele>
        <time>2026-08-12T09:29:14.000Z</time>
      </trkpt>
      <trkpt lat="45.6654" lon="0.09929">
        <ele>27.6</ele>
        <time>2026-08-12T09:29:16.000Z</time>
      </trkpt>
      <trkpt lat="45.66516" lon="0.09917">
        <ele>27.6</ele>
        <time>2026-08-12T09:29:21.000Z</time>
      </trkpt>
      <trkpt lat="45.66487" lon="0.0991">
        <ele>27.6</ele>
        <time>2026-08-12T09:29:27.000Z</time>
      </trkpt>
      <trkpt lat="45.66479" lon="0.0991">
        <ele>27.7</ele>
        <time>2026-08-12T09:29:29.000Z</time>
      </trkpt>
      <trkpt lat="45.6647" lon="0.09912">
        <ele>27.5</ele>
        <time>2026-08-12T09:29:31.000Z</time>
      </trkpt>
      <trkpt lat="45.66456" lon="0.09911">
        <ele>27.5</ele>
        <time>2026-08-12T09:29:34.000Z</time>
      </trkpt>
      <trkpt lat="45.66432" lon="0.0991">
        <ele>27.5</ele>
        <time>2026-08-12T09:29:40.000Z</time>
      </trkpt>
      <trkpt lat="45.6641" lon="0.09917">
        <ele>27.2</ele>
        <time>2026-08-12T09:29:46.000Z</time>
      </trkpt>
      <trkpt lat="45.66375" lon="0.09922">
        <ele>27.8</ele>
        <time>2026-08-12T09:29:54.000Z</time>
      </trkpt>
      <trkpt lat="45.66351" lon="0.09927">
        <ele>27.9</ele>
        <time>2026-08-12T09:29:59.000Z</time>
      </trkpt>
      <trkpt lat="45.66321" lon="0.09935">
        <ele>27.5</ele>
        <time>2026-08-12T09:30:05.000Z</time>
      </trkpt>
      <trkpt lat="45.66296" lon="0.09939">
        <ele>27.2</ele>
        <time>2026-08-12T09:30:11.000Z</time>
      </trkpt>
      <trkpt lat="45.66287" lon="0.0994">
        <ele>27.2</ele>
        <time>2026-08-12T09:30:13.000Z</time>
      </trkpt>
      <trkpt lat="45.66247" lon="0.09952">
        <ele>27.7</ele>
        <time>2026-08-12T09:30:22.000Z</time>
      </trkpt>
      <trkpt lat="45.66216" lon="0.09961">
        <ele>27.5</ele>
        <time>2026-08-12T09:30:30.000Z</time>
      </trkpt>
      <trkpt lat="45.66172" lon="0.09976">
        <ele>27.9</ele>
        <time>2026-08-12T09:30:40.000Z</time>
      </trkpt>
      <trkpt lat="45.66138" lon="0.09988">
        <ele>27.4</ele>
        <time>2026-08-12T09:30:47.000Z</time>
      </trkpt>
      <trkpt lat="45.66116" lon="0.09997">
        <ele>27.1</ele>
        <time>2026-08-12T09:30:53.000Z</time>
      </trkpt>
      <trkpt lat="45.66099" lon="0.10008">
        <ele>27.3</ele>
        <time>2026-08-12T09:30:58.000Z</time>
      </trkpt>
      <trkpt lat="45.66069" lon="0.10024">
        <ele>27.6</ele>
        <time>2026-08-12T09:31:06.000Z</time>
      </trkpt>
      <trkpt lat="45.66036" lon="0.10046">
        <ele>27.8</ele>
        <time>2026-08-12T09:31:14.000Z</time>
      </trkpt>
      <trkpt lat="45.66018" lon="0.10057">
        <ele>28</ele>
        <time>2026-08-12T09:31:19.000Z</time>
      </trkpt>
      <trkpt lat="45.65987" lon="0.10073">
        <ele>27.4</ele>
        <time>2026-08-12T09:31:26.000Z</time>
      </trkpt>
      <trkpt lat="45.65954" lon="0.10092">
        <ele>27.4</ele>
        <time>2026-08-12T09:31:34.000Z</time>
      </trkpt>
      <trkpt lat="45.65928" lon="0.10107">
        <ele>27.2</ele>
        <time>2026-08-12T09:31:41.000Z</time>
      </trkpt>
      <trkpt lat="45.659" lon="0.10126">
        <ele>27</ele>
        <time>2026-08-12T09:31:48.000Z</time>
      </trkpt>
      <trkpt lat="45.65872" lon="0.10139">
        <ele>27.6</ele>
        <time>2026-08-12T09:31:54.000Z</time>
      </trkpt>
      <trkpt lat="45.65839" lon="0.10161">
        <ele>27.2</ele>
        <time>2026-08-12T09:32:01.000Z</time>
      </trkpt>
      <trkpt lat="45.65816" lon="0.10172">
        <ele>27.5</ele>
        <time>2026-08-12T09:32:06.000Z</time>
      </trkpt>
      <trkpt lat="45.65807" lon="0.10174">
        <ele>27.7</ele>
        <time>2026-08-12T09:32:08.000Z</time>
      </trkpt>
      <trkpt lat="45.65768" lon="0.10185">
        <ele>27.3</ele>
        <time>2026-08-12T09:32:16.000Z</time>
      </trkpt>
      <trkpt lat="45.65732" lon="0.10195">
        <ele>27.7</ele>
        <time>2026-08-12T09:32:24.000Z</time>
      </trkpt>
      <trkpt lat="45.65683" lon="0.10208">
        <ele>27.5</ele>
        <time>2026-08-12T09:32:34.000Z</time>
      </trkpt>
      <trkpt lat="45.6565" lon="0.10216">
        <ele>27.7</ele>
        <time>2026-08-12T09:32:41.000Z</time>
      </trkpt>
      <trkpt lat="45.65608" lon="0.10231">
        <ele>27.7</ele>
        <time>2026-08-12T09:32:50.000Z</time>
      </trkpt>
      <trkpt lat="45.65593" lon="0.10241">
        <ele>27.3</ele>
        <time>2026-08-12T09:32:54.000Z</time>
      </trkpt>
      <trkpt lat="45.6559" lon="0.10243">
        <ele>27.3</ele>
        <time>2026-08-12T09:32:55.000Z</time>
      </trkpt>
      <trkpt lat="45.65567" lon="0.10259">
        <ele>27.4</ele>
        <time>2026-08-12T09:33:01.000Z</time>
      </trkpt>
      <trkpt lat="45.6555" lon="0.10271">
        <ele>27.4</ele>
        <time>2026-08-12T09:33:05.000Z</time>
      </trkpt>
      <trkpt lat="45.6554" lon="0.10274">
        <ele>27.6</ele>
        <time>2026-08-12T09:33:07.000Z</time>
      </trkpt>
      <trkpt lat="45.6553" lon="0.1028">
        <ele>27.8</ele>
        <time>2026-08-12T09:33:09.000Z</time>
      </trkpt>
      <trkpt lat="45.65518" lon="0.1029">
        <ele>27.6</ele>
        <time>2026-08-12T09:33:12.000Z</time>
      </trkpt>
      <trkpt lat="45.65487" lon="0.10315">
        <ele>27.3</ele>
        <time>2026-08-12T09:33:19.000Z</time>
      </trkpt>
      <trkpt lat="45.65482" lon="0.10319">
        <ele>27.3</ele>
        <time>2026-08-12T09:33:20.000Z</time>
      </trkpt>
      <trkpt lat="45.6547" lon="0.10328">
        <ele>27.2</ele>
        <time>2026-08-12T09:33:23.000Z</time>
      </trkpt>
      <trkpt lat="45.65461" lon="0.10329">
        <ele>27.4</ele>
        <time>2026-08-12T09:33:25.000Z</time>
      </trkpt>
      <trkpt lat="45.6545" lon="0.10324">
        <ele>27.6</ele>
        <time>2026-08-12T09:33:29.000Z</time>
      </trkpt>
      <trkpt lat="45.65437" lon="0.10327">
        <ele>27.8</ele>
        <time>2026-08-12T09:33:33.000Z</time>
      </trkpt>
      <trkpt lat="45.65404" lon="0.10347">
        <ele>28</ele>
        <time>2026-08-12T09:33:41.000Z</time>
      </trkpt>
      <trkpt lat="45.65379" lon="0.10362">
        <ele>28</ele>
        <time>2026-08-12T09:33:47.000Z</time>
      </trkpt>
      <trkpt lat="45.65374" lon="0.10365">
        <ele>27.9</ele>
        <time>2026-08-12T09:33:48.000Z</time>
      </trkpt>
      <trkpt lat="45.65357" lon="0.10373">
        <ele>27.6</ele>
        <time>2026-08-12T09:33:52.000Z</time>
      </trkpt>
      <trkpt lat="45.65344" lon="0.1038">
        <ele>27.7</ele>
        <time>2026-08-12T09:33:55.000Z</time>
      </trkpt>
      <trkpt lat="45.65339" lon="0.10383">
        <ele>27.8</ele>
        <time>2026-08-12T09:33:56.000Z</time>
      </trkpt>
      <trkpt lat="45.65316" lon="0.10389">
        <ele>28.6</ele>
        <time>2026-08-12T09:34:01.000Z</time>
      </trkpt>
      <trkpt lat="45.65295" lon="0.10394">
        <ele>29</ele>
        <time>2026-08-12T09:34:07.000Z</time>
      </trkpt>
      <trkpt lat="45.65288" lon="0.10396">
        <ele>29.1</ele>
        <time>2026-08-12T09:34:09.000Z</time>
      </trkpt>
      <trkpt lat="45.65273" lon="0.104">
        <ele>29.6</ele>
        <time>2026-08-12T09:34:15.000Z</time>
      </trkpt>
      <trkpt lat="45.65271" lon="0.10401">
        <ele>29.7</ele>
        <time>2026-08-12T09:34:16.000Z</time>
      </trkpt>
      <trkpt lat="45.65265" lon="0.10401">
        <ele>30.2</ele>
        <time>2026-08-12T09:34:20.000Z</time>
      </trkpt>
      <trkpt lat="45.65264" lon="0.10402">
        <ele>30.2</ele>
        <time>2026-08-12T09:34:21.000Z</time>
      </trkpt>
      <trkpt lat="45.65262" lon="0.10402">
        <ele>30.5</ele>
        <time>2026-08-12T09:34:24.000Z</time>
      </trkpt>
      <trkpt lat="45.65261" lon="0.10401">
        <ele>30.6</ele>
        <time>2026-08-12T09:34:26.000Z</time>
      </trkpt>
      <trkpt lat="45.65261" lon="0.10401">
        <ele>30.6</ele>
        <time>2026-08-12T09:34:27.000Z</time>
      </trkpt>
      <trkpt lat="45.65257" lon="0.10398">
        <ele>30.9</ele>
        <time>2026-08-12T09:34:34.000Z</time>
      </trkpt>
      <trkpt lat="45.65255" lon="0.10398">
        <ele>31</ele>
        <time>2026-08-12T09:34:35.000Z</time>
      </trkpt>
      <trkpt lat="45.65254" lon="0.104">
        <ele>31.1</ele>
        <time>2026-08-12T09:34:36.000Z</time>
      </trkpt>
      <trkpt lat="45.65253" lon="0.10409">
        <ele>31.4</ele>
        <time>2026-08-12T09:34:41.000Z</time>
      </trkpt>
      <trkpt lat="45.65242" lon="0.10419">
        <ele>30.9</ele>
        <time>2026-08-12T09:34:50.000Z</time>
      </trkpt>
      <trkpt lat="45.65231" lon="0.10425">
        <ele>29.4</ele>
        <time>2026-08-12T09:34:55.000Z</time>
      </trkpt>
      <trkpt lat="45.65214" lon="0.10431">
        <ele>28.3</ele>
        <time>2026-08-12T09:35:02.000Z</time>
      </trkpt>
      <trkpt lat="45.65213" lon="0.10432">
        <ele>28.3</ele>
        <time>2026-08-12T09:35:03.000Z</time>
      </trkpt>
      <trkpt lat="45.65211" lon="0.10433">
        <ele>28.3</ele>
        <time>2026-08-12T09:35:04.000Z</time>
      </trkpt>
      <trkpt lat="45.65207" lon="0.10436">
        <ele>28.1</ele>
        <time>2026-08-12T09:35:07.000Z</time>
      </trkpt>
      <trkpt lat="45.65186" lon="0.10443">
        <ele>28</ele>
        <time>2026-08-12T09:35:15.000Z</time>
      </trkpt>
      <trkpt lat="45.65165" lon="0.10452">
        <ele>27.8</ele>
        <time>2026-08-12T09:35:22.000Z</time>
      </trkpt>
      <trkpt lat="45.65145" lon="0.10473">
        <ele>27.7</ele>
        <time>2026-08-12T09:35:28.000Z</time>
      </trkpt>
      <trkpt lat="45.65135" lon="0.10482">
        <ele>27.6</ele>
        <time>2026-08-12T09:35:31.000Z</time>
      </trkpt>
      <trkpt lat="45.65126" lon="0.10486">
        <ele>27.5</ele>
        <time>2026-08-12T09:35:33.000Z</time>
      </trkpt>
      <trkpt lat="45.65109" lon="0.10492">
        <ele>27.3</ele>
        <time>2026-08-12T09:35:37.000Z</time>
      </trkpt>
      <trkpt lat="45.651" lon="0.10493">
        <ele>27.3</ele>
        <time>2026-08-12T09:35:39.000Z</time>
      </trkpt>
      <trkpt lat="45.65073" lon="0.10492">
        <ele>27.3</ele>
        <time>2026-08-12T09:35:45.000Z</time>
      </trkpt>
      <trkpt lat="45.65056" lon="0.10491">
        <ele>27.3</ele>
        <time>2026-08-12T09:35:49.000Z</time>
      </trkpt>
      <trkpt lat="45.65051" lon="0.1049">
        <ele>27.3</ele>
        <time>2026-08-12T09:35:50.000Z</time>
      </trkpt>
      <trkpt lat="45.65032" lon="0.10485">
        <ele>27.1</ele>
        <time>2026-08-12T09:35:55.000Z</time>
      </trkpt>
      <trkpt lat="45.65029" lon="0.10489">
        <ele>26.8</ele>
        <time>2026-08-12T09:35:57.000Z</time>
      </trkpt>
      <trkpt lat="45.65029" lon="0.10491">
        <ele>26.7</ele>
        <time>2026-08-12T09:35:58.000Z</time>
      </trkpt>
      <trkpt lat="45.65028" lon="0.10492">
        <ele>26.6</ele>
        <time>2026-08-12T09:36:00.000Z</time>
      </trkpt>
      <trkpt lat="45.65025" lon="0.10485">
        <ele>26.9</ele>
        <time>2026-08-12T09:37:07.000Z</time>
      </trkpt>
      <trkpt lat="45.65019" lon="0.10478">
        <ele>27.3</ele>
        <time>2026-08-12T09:37:13.000Z</time>
      </trkpt>
      <trkpt lat="45.65006" lon="0.10472">
        <ele>27.2</ele>
        <time>2026-08-12T09:37:18.000Z</time>
      </trkpt>
      <trkpt lat="45.64989" lon="0.10467">
        <ele>26.6</ele>
        <time>2026-08-12T09:37:24.000Z</time>
      </trkpt>
      <trkpt lat="45.64973" lon="0.10461">
        <ele>26.3</ele>
        <time>2026-08-12T09:37:29.000Z</time>
      </trkpt>
      <trkpt lat="45.64965" lon="0.10459">
        <ele>26.3</ele>
        <time>2026-08-12T09:37:31.000Z</time>
      </trkpt>
      <trkpt lat="45.64943" lon="0.10451">
        <ele>26.5</ele>
        <time>2026-08-12T09:37:37.000Z</time>
      </trkpt>
      <trkpt lat="45.64927" lon="0.10444">
        <ele>26.4</ele>
        <time>2026-08-12T09:37:42.000Z</time>
      </trkpt>
      <trkpt lat="45.64906" lon="0.10438">
        <ele>25.8</ele>
        <time>2026-08-12T09:37:48.000Z</time>
      </trkpt>
      <trkpt lat="45.64897" lon="0.10436">
        <ele>25.6</ele>
        <time>2026-08-12T09:37:50.000Z</time>
      </trkpt>
      <trkpt lat="45.64882" lon="0.10426">
        <ele>25.7</ele>
        <time>2026-08-12T09:37:54.000Z</time>
      </trkpt>
      <trkpt lat="45.64862" lon="0.10414">
        <ele>26</ele>
        <time>2026-08-12T09:38:00.000Z</time>
      </trkpt>
      <trkpt lat="45.6484" lon="0.10399">
        <ele>26.2</ele>
        <time>2026-08-12T09:38:06.000Z</time>
      </trkpt>
      <trkpt lat="45.64837" lon="0.10396">
        <ele>26.4</ele>
        <time>2026-08-12T09:38:07.000Z</time>
      </trkpt>
      <trkpt lat="45.64803" lon="0.10376">
        <ele>26.4</ele>
        <time>2026-08-12T09:38:15.000Z</time>
      </trkpt>
      <trkpt lat="45.64776" lon="0.10359">
        <ele>26.1</ele>
        <time>2026-08-12T09:38:21.000Z</time>
      </trkpt>
      <trkpt lat="45.64754" lon="0.10342">
        <ele>26.5</ele>
        <time>2026-08-12T09:38:26.000Z</time>
      </trkpt>
      <trkpt lat="45.6475" lon="0.10339">
        <ele>26.6</ele>
        <time>2026-08-12T09:38:27.000Z</time>
      </trkpt>
      <trkpt lat="45.64735" lon="0.10326">
        <ele>26.2</ele>
        <time>2026-08-12T09:38:31.000Z</time>
      </trkpt>
      <trkpt lat="45.6472" lon="0.10309">
        <ele>26.6</ele>
        <time>2026-08-12T09:38:35.000Z</time>
      </trkpt>
      <trkpt lat="45.64694" lon="0.10288">
        <ele>26.2</ele>
        <time>2026-08-12T09:38:42.000Z</time>
      </trkpt>
      <trkpt lat="45.6469" lon="0.10285">
        <ele>26.3</ele>
        <time>2026-08-12T09:38:43.000Z</time>
      </trkpt>
      <trkpt lat="45.64668" lon="0.10273">
        <ele>26.2</ele>
        <time>2026-08-12T09:38:48.000Z</time>
      </trkpt>
      <trkpt lat="45.6466" lon="0.10268">
        <ele>26.1</ele>
        <time>2026-08-12T09:38:50.000Z</time>
      </trkpt>
      <trkpt lat="45.64651" lon="0.10257">
        <ele>26.2</ele>
        <time>2026-08-12T09:38:53.000Z</time>
      </trkpt>
      <trkpt lat="45.64648" lon="0.10254">
        <ele>26.2</ele>
        <time>2026-08-12T09:38:54.000Z</time>
      </trkpt>
      <trkpt lat="45.6463" lon="0.10239">
        <ele>26.1</ele>
        <time>2026-08-12T09:38:59.000Z</time>
      </trkpt>
      <trkpt lat="45.646" lon="0.10209">
        <ele>26.3</ele>
        <time>2026-08-12T09:39:07.000Z</time>
      </trkpt>
      <trkpt lat="45.6458" lon="0.10184">
        <ele>26.8</ele>
        <time>2026-08-12T09:39:12.000Z</time>
      </trkpt>
      <trkpt lat="45.64551" lon="0.10151">
        <ele>26.4</ele>
        <time>2026-08-12T09:39:19.000Z</time>
      </trkpt>
      <trkpt lat="45.64548" lon="0.10147">
        <ele>26.4</ele>
        <time>2026-08-12T09:39:20.000Z</time>
      </trkpt>
      <trkpt lat="45.64515" lon="0.10105">
        <ele>26.3</ele>
        <time>2026-08-12T09:39:29.000Z</time>
      </trkpt>
      <trkpt lat="45.64499" lon="0.10075">
        <ele>26.9</ele>
        <time>2026-08-12T09:39:35.000Z</time>
      </trkpt>
      <trkpt lat="45.64497" lon="0.10069">
        <ele>26.8</ele>
        <time>2026-08-12T09:39:36.000Z</time>
      </trkpt>
      <trkpt lat="45.64487" lon="0.10047">
        <ele>26.3</ele>
        <time>2026-08-12T09:39:40.000Z</time>
      </trkpt>
      <trkpt lat="45.64482" lon="0.10036">
        <ele>26.4</ele>
        <time>2026-08-12T09:39:42.000Z</time>
      </trkpt>
      <trkpt lat="45.64481" lon="0.10031">
        <ele>26.5</ele>
        <time>2026-08-12T09:39:43.000Z</time>
      </trkpt>
      <trkpt lat="45.64474" lon="0.09998">
        <ele>26.1</ele>
        <time>2026-08-12T09:39:48.000Z</time>
      </trkpt>
      <trkpt lat="45.64469" lon="0.09943">
        <ele>26.8</ele>
        <time>2026-08-12T09:39:56.000Z</time>
      </trkpt>
      <trkpt lat="45.64474" lon="0.09887">
        <ele>27</ele>
        <time>2026-08-12T09:40:04.000Z</time>
      </trkpt>
      <trkpt lat="45.64481" lon="0.09854">
        <ele>26.1</ele>
        <time>2026-08-12T09:40:09.000Z</time>
      </trkpt>
      <trkpt lat="45.64487" lon="0.09829">
        <ele>26.1</ele>
        <time>2026-08-12T09:40:13.000Z</time>
      </trkpt>
      <trkpt lat="45.64498" lon="0.09799">
        <ele>26.6</ele>
        <time>2026-08-12T09:40:18.000Z</time>
      </trkpt>
      <trkpt lat="45.64505" lon="0.09789">
        <ele>26.5</ele>
        <time>2026-08-12T09:40:20.000Z</time>
      </trkpt>
      <trkpt lat="45.64512" lon="0.09782">
        <ele>26.5</ele>
        <time>2026-08-12T09:40:22.000Z</time>
      </trkpt>
      <trkpt lat="45.64518" lon="0.09766">
        <ele>26.5</ele>
        <time>2026-08-12T09:40:25.000Z</time>
      </trkpt>
      <trkpt lat="45.64529" lon="0.09724">
        <ele>27</ele>
        <time>2026-08-12T09:40:32.000Z</time>
      </trkpt>
      <trkpt lat="45.6453" lon="0.09717">
        <ele>26.8</ele>
        <time>2026-08-12T09:40:33.000Z</time>
      </trkpt>
      <trkpt lat="45.64539" lon="0.09661">
        <ele>25.8</ele>
        <time>2026-08-12T09:40:41.000Z</time>
      </trkpt>
      <trkpt lat="45.6454" lon="0.09648">
        <ele>25.9</ele>
        <time>2026-08-12T09:40:43.000Z</time>
      </trkpt>
      <trkpt lat="45.64543" lon="0.0962">
        <ele>26.1</ele>
        <time>2026-08-12T09:40:47.000Z</time>
      </trkpt>
      <trkpt lat="45.64543" lon="0.09614">
        <ele>26.1</ele>
        <time>2026-08-12T09:40:48.000Z</time>
      </trkpt>
      <trkpt lat="45.64546" lon="0.09559">
        <ele>26.3</ele>
        <time>2026-08-12T09:40:56.000Z</time>
      </trkpt>
      <trkpt lat="45.6454" lon="0.09518">
        <ele>26.1</ele>
        <time>2026-08-12T09:41:02.000Z</time>
      </trkpt>
      <trkpt lat="45.64532" lon="0.09479">
        <ele>26.8</ele>
        <time>2026-08-12T09:41:08.000Z</time>
      </trkpt>
      <trkpt lat="45.6453" lon="0.09475">
        <ele>26.9</ele>
        <time>2026-08-12T09:41:09.000Z</time>
      </trkpt>
      <trkpt lat="45.64512" lon="0.09447">
        <ele>25.9</ele>
        <time>2026-08-12T09:41:15.000Z</time>
      </trkpt>
      <trkpt lat="45.64509" lon="0.09442">
        <ele>25.7</ele>
        <time>2026-08-12T09:41:16.000Z</time>
      </trkpt>
      <trkpt lat="45.64503" lon="0.09428">
        <ele>25.8</ele>
        <time>2026-08-12T09:41:18.000Z</time>
      </trkpt>
      <trkpt lat="45.64502" lon="0.0942">
        <ele>25.9</ele>
        <time>2026-08-12T09:41:19.000Z</time>
      </trkpt>
      <trkpt lat="45.64494" lon="0.09364">
        <ele>26.6</ele>
        <time>2026-08-12T09:41:27.000Z</time>
      </trkpt>
      <trkpt lat="45.64486" lon="0.0931">
        <ele>25.5</ele>
        <time>2026-08-12T09:41:35.000Z</time>
      </trkpt>
      <trkpt lat="45.64483" lon="0.09297">
        <ele>25.4</ele>
        <time>2026-08-12T09:41:37.000Z</time>
      </trkpt>
      <trkpt lat="45.64483" lon="0.0929">
        <ele>25.4</ele>
        <time>2026-08-12T09:41:38.000Z</time>
      </trkpt>
      <trkpt lat="45.64481" lon="0.09268">
        <ele>25.6</ele>
        <time>2026-08-12T09:41:41.000Z</time>
      </trkpt>
      <trkpt lat="45.64477" lon="0.09218">
        <ele>26</ele>
        <time>2026-08-12T09:41:48.000Z</time>
      </trkpt>
      <trkpt lat="45.64469" lon="0.09164">
        <ele>26</ele>
        <time>2026-08-12T09:41:56.000Z</time>
      </trkpt>
      <trkpt lat="45.64464" lon="0.0913">
        <ele>26.4</ele>
        <time>2026-08-12T09:42:01.000Z</time>
      </trkpt>
      <trkpt lat="45.64462" lon="0.09123">
        <ele>26.3</ele>
        <time>2026-08-12T09:42:02.000Z</time>
      </trkpt>
      <trkpt lat="45.64459" lon="0.0911">
        <ele>26.1</ele>
        <time>2026-08-12T09:42:04.000Z</time>
      </trkpt>
      <trkpt lat="45.64455" lon="0.0907">
        <ele>26.4</ele>
        <time>2026-08-12T09:42:10.000Z</time>
      </trkpt>
      <trkpt lat="45.64459" lon="0.09007">
        <ele>26</ele>
        <time>2026-08-12T09:42:19.000Z</time>
      </trkpt>
      <trkpt lat="45.64474" lon="0.08951">
        <ele>26.3</ele>
        <time>2026-08-12T09:42:28.000Z</time>
      </trkpt>
      <trkpt lat="45.64475" lon="0.0893">
        <ele>26.6</ele>
        <time>2026-08-12T09:42:33.000Z</time>
      </trkpt>
      <trkpt lat="45.64473" lon="0.08906">
        <ele>27</ele>
        <time>2026-08-12T09:42:39.000Z</time>
      </trkpt>
      <trkpt lat="45.64471" lon="0.08883">
        <ele>27</ele>
        <time>2026-08-12T09:42:44.000Z</time>
      </trkpt>
      <trkpt lat="45.64464" lon="0.08848">
        <ele>26.9</ele>
        <time>2026-08-12T09:42:51.000Z</time>
      </trkpt>
      <trkpt lat="45.64464" lon="0.08844">
        <ele>26.8</ele>
        <time>2026-08-12T09:42:52.000Z</time>
      </trkpt>
      <trkpt lat="45.64467" lon="0.08837">
        <ele>26.8</ele>
        <time>2026-08-12T09:42:54.000Z</time>
      </trkpt>
      <trkpt lat="45.64468" lon="0.08834">
        <ele>26.9</ele>
        <time>2026-08-12T09:42:55.000Z</time>
      </trkpt>
      <trkpt lat="45.64469" lon="0.08819">
        <ele>26.8</ele>
        <time>2026-08-12T09:42:58.000Z</time>
      </trkpt>
      <trkpt lat="45.64466" lon="0.08783">
        <ele>25.9</ele>
        <time>2026-08-12T09:43:04.000Z</time>
      </trkpt>
      <trkpt lat="45.64465" lon="0.0877">
        <ele>25.7</ele>
        <time>2026-08-12T09:43:06.000Z</time>
      </trkpt>
      <trkpt lat="45.64463" lon="0.08757">
        <ele>25.7</ele>
        <time>2026-08-12T09:43:08.000Z</time>
      </trkpt>
      <trkpt lat="45.64461" lon="0.08745">
        <ele>25.6</ele>
        <time>2026-08-12T09:43:10.000Z</time>
      </trkpt>
      <trkpt lat="45.64455" lon="0.08729">
        <ele>25.4</ele>
        <time>2026-08-12T09:43:13.000Z</time>
      </trkpt>
      <trkpt lat="45.6445" lon="0.0872">
        <ele>25.3</ele>
        <time>2026-08-12T09:43:15.000Z</time>
      </trkpt>
      <trkpt lat="45.64435" lon="0.08694">
        <ele>25.7</ele>
        <time>2026-08-12T09:43:20.000Z</time>
      </trkpt>
      <trkpt lat="45.64434" lon="0.08688">
        <ele>25.6</ele>
        <time>2026-08-12T09:43:21.000Z</time>
      </trkpt>
      <trkpt lat="45.64435" lon="0.08682">
        <ele>25.6</ele>
        <time>2026-08-12T09:43:22.000Z</time>
      </trkpt>
      <trkpt lat="45.64437" lon="0.08679">
        <ele>25.7</ele>
        <time>2026-08-12T09:43:23.000Z</time>
      </trkpt>
      <trkpt lat="45.6444" lon="0.08677">
        <ele>25.8</ele>
        <time>2026-08-12T09:43:24.000Z</time>
      </trkpt>
      <trkpt lat="45.64448" lon="0.08675">
        <ele>26</ele>
        <time>2026-08-12T09:43:26.000Z</time>
      </trkpt>
      <trkpt lat="45.64484" lon="0.08674">
        <ele>26</ele>
        <time>2026-08-12T09:43:34.000Z</time>
      </trkpt>
      <trkpt lat="45.64493" lon="0.08675">
        <ele>26</ele>
        <time>2026-08-12T09:43:36.000Z</time>
      </trkpt>
      <trkpt lat="45.64497" lon="0.08675">
        <ele>26</ele>
        <time>2026-08-12T09:43:37.000Z</time>
      </trkpt>
      <trkpt lat="45.64502" lon="0.08674">
        <ele>26.1</ele>
        <time>2026-08-12T09:43:38.000Z</time>
      </trkpt>
      <trkpt lat="45.6451" lon="0.08674">
        <ele>26.4</ele>
        <time>2026-08-12T09:43:40.000Z</time>
      </trkpt>
      <trkpt lat="45.64537" lon="0.08669">
        <ele>27</ele>
        <time>2026-08-12T09:43:47.000Z</time>
      </trkpt>
      <trkpt lat="45.6458" lon="0.08662">
        <ele>27.6</ele>
        <time>2026-08-12T09:43:58.000Z</time>
      </trkpt>
      <trkpt lat="45.6461" lon="0.08662">
        <ele>26.9</ele>
        <time>2026-08-12T09:44:05.000Z</time>
      </trkpt>
      <trkpt lat="45.64632" lon="0.08655">
        <ele>26.9</ele>
        <time>2026-08-12T09:44:11.000Z</time>
      </trkpt>
      <trkpt lat="45.64639" lon="0.08637">
        <ele>27</ele>
        <time>2026-08-12T09:44:15.000Z</time>
      </trkpt>
      <trkpt lat="45.64642" lon="0.08607">
        <ele>27.3</ele>
        <time>2026-08-12T09:44:20.000Z</time>
      </trkpt>
      <trkpt lat="45.64644" lon="0.08594">
        <ele>27.4</ele>
        <time>2026-08-12T09:44:22.000Z</time>
      </trkpt>
      <trkpt lat="45.64644" lon="0.08564">
        <ele>27.4</ele>
        <time>2026-08-12T09:44:27.000Z</time>
      </trkpt>
      <trkpt lat="45.64641" lon="0.08515">
        <ele>27.1</ele>
        <time>2026-08-12T09:44:35.000Z</time>
      </trkpt>
      <trkpt lat="45.64639" lon="0.08509">
        <ele>27</ele>
        <time>2026-08-12T09:44:36.000Z</time>
      </trkpt>
      <trkpt lat="45.64634" lon="0.08499">
        <ele>26.8</ele>
        <time>2026-08-12T09:44:38.000Z</time>
      </trkpt>
      <trkpt lat="45.6463" lon="0.08495">
        <ele>26.7</ele>
        <time>2026-08-12T09:44:39.000Z</time>
      </trkpt>
      <trkpt lat="45.64613" lon="0.08476">
        <ele>26.1</ele>
        <time>2026-08-12T09:44:45.000Z</time>
      </trkpt>
      <trkpt lat="45.64607" lon="0.08453">
        <ele>26</ele>
        <time>2026-08-12T09:44:51.000Z</time>
      </trkpt>
      <trkpt lat="45.64605" lon="0.08434">
        <ele>26</ele>
        <time>2026-08-12T09:44:56.000Z</time>
      </trkpt>
      <trkpt lat="45.64604" lon="0.08403">
        <ele>26</ele>
        <time>2026-08-12T09:45:03.000Z</time>
      </trkpt>
      <trkpt lat="45.646" lon="0.08366">
        <ele>26</ele>
        <time>2026-08-12T09:45:11.000Z</time>
      </trkpt>
      <trkpt lat="45.64601" lon="0.08328">
        <ele>26</ele>
        <time>2026-08-12T09:45:18.000Z</time>
      </trkpt>
      <trkpt lat="45.64604" lon="0.08284">
        <ele>26</ele>
        <time>2026-08-12T09:45:25.000Z</time>
      </trkpt>
      <trkpt lat="45.64605" lon="0.08248">
        <ele>26</ele>
        <time>2026-08-12T09:45:33.000Z</time>
      </trkpt>
      <trkpt lat="45.64611" lon="0.08218">
        <ele>26</ele>
        <time>2026-08-12T09:45:39.000Z</time>
      </trkpt>
      <trkpt lat="45.64618" lon="0.08176">
        <ele>26.2</ele>
        <time>2026-08-12T09:45:46.000Z</time>
      </trkpt>
      <trkpt lat="45.64616" lon="0.08164">
        <ele>26.3</ele>
        <time>2026-08-12T09:45:48.000Z</time>
      </trkpt>
      <trkpt lat="45.64615" lon="0.08152">
        <ele>26.6</ele>
        <time>2026-08-12T09:45:50.000Z</time>
      </trkpt>
      <trkpt lat="45.64614" lon="0.08146">
        <ele>26.8</ele>
        <time>2026-08-12T09:45:51.000Z</time>
      </trkpt>
      <trkpt lat="45.64612" lon="0.08123">
        <ele>27</ele>
        <time>2026-08-12T09:45:56.000Z</time>
      </trkpt>
      <trkpt lat="45.64606" lon="0.08102">
        <ele>26.8</ele>
        <time>2026-08-12T09:46:03.000Z</time>
      </trkpt>
      <trkpt lat="45.646" lon="0.08081">
        <ele>26.6</ele>
        <time>2026-08-12T09:46:08.000Z</time>
      </trkpt>
      <trkpt lat="45.64594" lon="0.08047">
        <ele>26.4</ele>
        <time>2026-08-12T09:46:15.000Z</time>
      </trkpt>
      <trkpt lat="45.64587" lon="0.08004">
        <ele>26.8</ele>
        <time>2026-08-12T09:46:23.000Z</time>
      </trkpt>
      <trkpt lat="45.64582" lon="0.0796">
        <ele>27</ele>
        <time>2026-08-12T09:46:31.000Z</time>
      </trkpt>
      <trkpt lat="45.64586" lon="0.07919">
        <ele>27</ele>
        <time>2026-08-12T09:46:38.000Z</time>
      </trkpt>
      <trkpt lat="45.64596" lon="0.07878">
        <ele>27</ele>
        <time>2026-08-12T09:46:45.000Z</time>
      </trkpt>
      <trkpt lat="45.64599" lon="0.07866">
        <ele>27</ele>
        <time>2026-08-12T09:46:47.000Z</time>
      </trkpt>
      <trkpt lat="45.64604" lon="0.07851">
        <ele>27.4</ele>
        <time>2026-08-12T09:46:50.000Z</time>
      </trkpt>
      <trkpt lat="45.64609" lon="0.07832">
        <ele>28.1</ele>
        <time>2026-08-12T09:46:54.000Z</time>
      </trkpt>
      <trkpt lat="45.64608" lon="0.07816">
        <ele>29.2</ele>
        <time>2026-08-12T09:46:58.000Z</time>
      </trkpt>
      <trkpt lat="45.64608" lon="0.07813">
        <ele>29.5</ele>
        <time>2026-08-12T09:46:59.000Z</time>
      </trkpt>
      <trkpt lat="45.64607" lon="0.0781">
        <ele>29.7</ele>
        <time>2026-08-12T09:47:00.000Z</time>
      </trkpt>
      <trkpt lat="45.64606" lon="0.07805">
        <ele>30.1</ele>
        <time>2026-08-12T09:47:02.000Z</time>
      </trkpt>
      <trkpt lat="45.64607" lon="0.07794">
        <ele>30.9</ele>
        <time>2026-08-12T09:47:07.000Z</time>
      </trkpt>
      <trkpt lat="45.64606" lon="0.0778">
        <ele>31.9</ele>
        <time>2026-08-12T09:47:13.000Z</time>
      </trkpt>
      <trkpt lat="45.64606" lon="0.07775">
        <ele>32.1</ele>
        <time>2026-08-12T09:47:15.000Z</time>
      </trkpt>
      <trkpt lat="45.64606" lon="0.07765">
        <ele>32.4</ele>
        <time>2026-08-12T09:47:18.000Z</time>
      </trkpt>
      <trkpt lat="45.64605" lon="0.0776">
        <ele>32.7</ele>
        <time>2026-08-12T09:47:20.000Z</time>
      </trkpt>
      <trkpt lat="45.646" lon="0.07742">
        <ele>33.3</ele>
        <time>2026-08-12T09:47:26.000Z</time>
      </trkpt>
      <trkpt lat="45.64599" lon="0.0774">
        <ele>33.4</ele>
        <time>2026-08-12T09:47:27.000Z</time>
      </trkpt>
      <trkpt lat="45.64592" lon="0.07718">
        <ele>34.1</ele>
        <time>2026-08-12T09:47:35.000Z</time>
      </trkpt>
      <trkpt lat="45.64587" lon="0.0769">
        <ele>34.3</ele>
        <time>2026-08-12T09:47:43.000Z</time>
      </trkpt>
      <trkpt lat="45.64586" lon="0.07686">
        <ele>34.4</ele>
        <time>2026-08-12T09:47:44.000Z</time>
      </trkpt>
      <trkpt lat="45.64586" lon="0.07681">
        <ele>34.5</ele>
        <time>2026-08-12T09:47:45.000Z</time>
      </trkpt>
      <trkpt lat="45.64585" lon="0.0766">
        <ele>35</ele>
        <time>2026-08-12T09:47:50.000Z</time>
      </trkpt>
      <trkpt lat="45.64581" lon="0.07629">
        <ele>34.9</ele>
        <time>2026-08-12T09:47:57.000Z</time>
      </trkpt>
      <trkpt lat="45.6458" lon="0.07624">
        <ele>34.9</ele>
        <time>2026-08-12T09:47:58.000Z</time>
      </trkpt>
      <trkpt lat="45.64573" lon="0.07593">
        <ele>35</ele>
        <time>2026-08-12T09:48:05.000Z</time>
      </trkpt>
      <trkpt lat="45.64564" lon="0.07556">
        <ele>35.3</ele>
        <time>2026-08-12T09:48:14.000Z</time>
      </trkpt>
      <trkpt lat="45.64559" lon="0.07525">
        <ele>35.2</ele>
        <time>2026-08-12T09:48:21.000Z</time>
      </trkpt>
      <trkpt lat="45.64554" lon="0.07499">
        <ele>35.9</ele>
        <time>2026-08-12T09:48:27.000Z</time>
      </trkpt>
      <trkpt lat="45.64548" lon="0.07468">
        <ele>35.4</ele>
        <time>2026-08-12T09:48:35.000Z</time>
      </trkpt>
      <trkpt lat="45.64546" lon="0.07452">
        <ele>34.8</ele>
        <time>2026-08-12T09:48:39.000Z</time>
      </trkpt>
      <trkpt lat="45.64544" lon="0.07444">
        <ele>34.6</ele>
        <time>2026-08-12T09:48:41.000Z</time>
      </trkpt>
      <trkpt lat="45.64539" lon="0.07417">
        <ele>34.4</ele>
        <time>2026-08-12T09:48:47.000Z</time>
      </trkpt>
      <trkpt lat="45.64533" lon="0.07386">
        <ele>35</ele>
        <time>2026-08-12T09:48:54.000Z</time>
      </trkpt>
      <trkpt lat="45.64521" lon="0.07336">
        <ele>35.4</ele>
        <time>2026-08-12T09:49:04.000Z</time>
      </trkpt>
      <trkpt lat="45.64507" lon="0.07293">
        <ele>35</ele>
        <time>2026-08-12T09:49:12.000Z</time>
      </trkpt>
      <trkpt lat="45.64505" lon="0.07288">
        <ele>35</ele>
        <time>2026-08-12T09:49:13.000Z</time>
      </trkpt>
      <trkpt lat="45.645" lon="0.07279">
        <ele>35</ele>
        <time>2026-08-12T09:49:15.000Z</time>
      </trkpt>
      <trkpt lat="45.64496" lon="0.07277">
        <ele>34.7</ele>
        <time>2026-08-12T09:49:16.000Z</time>
      </trkpt>
      <trkpt lat="45.64491" lon="0.07278">
        <ele>34.4</ele>
        <time>2026-08-12T09:49:17.000Z</time>
      </trkpt>
      <trkpt lat="45.64482" lon="0.07281">
        <ele>33.7</ele>
        <time>2026-08-12T09:49:19.000Z</time>
      </trkpt>
      <trkpt lat="45.64477" lon="0.07284">
        <ele>33.4</ele>
        <time>2026-08-12T09:49:20.000Z</time>
      </trkpt>
      <trkpt lat="45.64472" lon="0.07286">
        <ele>33</ele>
        <time>2026-08-12T09:49:21.000Z</time>
      </trkpt>
      <trkpt lat="45.64466" lon="0.07288">
        <ele>32.8</ele>
        <time>2026-08-12T09:49:22.000Z</time>
      </trkpt>
      <trkpt lat="45.64456" lon="0.07293">
        <ele>32.4</ele>
        <time>2026-08-12T09:49:24.000Z</time>
      </trkpt>
      <trkpt lat="45.64434" lon="0.07303">
        <ele>31.6</ele>
        <time>2026-08-12T09:49:28.000Z</time>
      </trkpt>
      <trkpt lat="45.64405" lon="0.07315">
        <ele>30.6</ele>
        <time>2026-08-12T09:49:33.000Z</time>
      </trkpt>
      <trkpt lat="45.64386" lon="0.07323">
        <ele>29.9</ele>
        <time>2026-08-12T09:49:36.000Z</time>
      </trkpt>
      <trkpt lat="45.64366" lon="0.07332">
        <ele>29.2</ele>
        <time>2026-08-12T09:49:39.000Z</time>
      </trkpt>
      <trkpt lat="45.64354" lon="0.07337">
        <ele>28.3</ele>
        <time>2026-08-12T09:49:41.000Z</time>
      </trkpt>
      <trkpt lat="45.64334" lon="0.07345">
        <ele>26.6</ele>
        <time>2026-08-12T09:49:44.000Z</time>
      </trkpt>
      <trkpt lat="45.64316" lon="0.07353">
        <ele>26.1</ele>
        <time>2026-08-12T09:49:47.000Z</time>
      </trkpt>
      <trkpt lat="45.64306" lon="0.07351">
        <ele>26</ele>
        <time>2026-08-12T09:49:49.000Z</time>
      </trkpt>
      <trkpt lat="45.64302" lon="0.07346">
        <ele>25.9</ele>
        <time>2026-08-12T09:49:50.000Z</time>
      </trkpt>
      <trkpt lat="45.64299" lon="0.0734">
        <ele>25.8</ele>
        <time>2026-08-12T09:49:51.000Z</time>
      </trkpt>
      <trkpt lat="45.64298" lon="0.07333">
        <ele>25.7</ele>
        <time>2026-08-12T09:49:52.000Z</time>
      </trkpt>
      <trkpt lat="45.64295" lon="0.07319">
        <ele>25.6</ele>
        <time>2026-08-12T09:49:54.000Z</time>
      </trkpt>
      <trkpt lat="45.64294" lon="0.07312">
        <ele>25.6</ele>
        <time>2026-08-12T09:49:55.000Z</time>
      </trkpt>
      <trkpt lat="45.64292" lon="0.07299">
        <ele>25.7</ele>
        <time>2026-08-12T09:49:57.000Z</time>
      </trkpt>
      <trkpt lat="45.64288" lon="0.07287">
        <ele>26</ele>
        <time>2026-08-12T09:49:59.000Z</time>
      </trkpt>
      <trkpt lat="45.64277" lon="0.07256">
        <ele>26.8</ele>
        <time>2026-08-12T09:50:05.000Z</time>
      </trkpt>
      <trkpt lat="45.64265" lon="0.07226">
        <ele>26.5</ele>
        <time>2026-08-12T09:50:12.000Z</time>
      </trkpt>
      <trkpt lat="45.64251" lon="0.07195">
        <ele>27</ele>
        <time>2026-08-12T09:50:18.000Z</time>
      </trkpt>
      <trkpt lat="45.64247" lon="0.07176">
        <ele>26.8</ele>
        <time>2026-08-12T09:50:21.000Z</time>
      </trkpt>
      <trkpt lat="45.64246" lon="0.07159">
        <ele>27</ele>
        <time>2026-08-12T09:50:24.000Z</time>
      </trkpt>
      <trkpt lat="45.64245" lon="0.07113">
        <ele>28.5</ele>
        <time>2026-08-12T09:50:32.000Z</time>
      </trkpt>
      <trkpt lat="45.64244" lon="0.07082">
        <ele>28.6</ele>
        <time>2026-08-12T09:50:38.000Z</time>
      </trkpt>
      <trkpt lat="45.64244" lon="0.07077">
        <ele>28.8</ele>
        <time>2026-08-12T09:50:39.000Z</time>
      </trkpt>
      <trkpt lat="45.64244" lon="0.07039">
        <ele>29.7</ele>
        <time>2026-08-12T09:50:47.000Z</time>
      </trkpt>
      <trkpt lat="45.64244" lon="0.07028">
        <ele>29.8</ele>
        <time>2026-08-12T09:50:50.000Z</time>
      </trkpt>
      <trkpt lat="45.64243" lon="0.07001">
        <ele>29.8</ele>
        <time>2026-08-12T09:50:55.000Z</time>
      </trkpt>
      <trkpt lat="45.64246" lon="0.06992">
        <ele>30.1</ele>
        <time>2026-08-12T09:50:57.000Z</time>
      </trkpt>
      <trkpt lat="45.64249" lon="0.06985">
        <ele>30.5</ele>
        <time>2026-08-12T09:50:59.000Z</time>
      </trkpt>
      <trkpt lat="45.64266" lon="0.06982">
        <ele>30.8</ele>
        <time>2026-08-12T09:51:04.000Z</time>
      </trkpt>
      <trkpt lat="45.64284" lon="0.06983">
        <ele>31.3</ele>
        <time>2026-08-12T09:51:09.000Z</time>
      </trkpt>
      <trkpt lat="45.64295" lon="0.06983">
        <ele>31.9</ele>
        <time>2026-08-12T09:51:12.000Z</time>
      </trkpt>
      <trkpt lat="45.64337" lon="0.06985">
        <ele>32</ele>
        <time>2026-08-12T09:51:23.000Z</time>
      </trkpt>
      <trkpt lat="45.64367" lon="0.06981">
        <ele>32.2</ele>
        <time>2026-08-12T09:51:31.000Z</time>
      </trkpt>
      <trkpt lat="45.64369" lon="0.06977">
        <ele>32.3</ele>
        <time>2026-08-12T09:51:32.000Z</time>
      </trkpt>
      <trkpt lat="45.64371" lon="0.06966">
        <ele>32.3</ele>
        <time>2026-08-12T09:51:34.000Z</time>
      </trkpt>
      <trkpt lat="45.64365" lon="0.06942">
        <ele>32</ele>
        <time>2026-08-12T09:51:38.000Z</time>
      </trkpt>
      <trkpt lat="45.64363" lon="0.06936">
        <ele>32</ele>
        <time>2026-08-12T09:51:39.000Z</time>
      </trkpt>
      <trkpt lat="45.64361" lon="0.0693">
        <ele>32</ele>
        <time>2026-08-12T09:51:40.000Z</time>
      </trkpt>
      <trkpt lat="45.64356" lon="0.06917">
        <ele>31.8</ele>
        <time>2026-08-12T09:51:42.000Z</time>
      </trkpt>
      <trkpt lat="45.64352" lon="0.06903">
        <ele>31.7</ele>
        <time>2026-08-12T09:51:44.000Z</time>
      </trkpt>
      <trkpt lat="45.64337" lon="0.06845">
        <ele>31</ele>
        <time>2026-08-12T09:51:52.000Z</time>
      </trkpt>
      <trkpt lat="45.64318" lon="0.06776">
        <ele>30.5</ele>
        <time>2026-08-12T09:52:01.000Z</time>
      </trkpt>
      <trkpt lat="45.64297" lon="0.06702">
        <ele>30.2</ele>
        <time>2026-08-12T09:52:11.000Z</time>
      </trkpt>
      <trkpt lat="45.64278" lon="0.06628">
        <ele>30</ele>
        <time>2026-08-12T09:52:21.000Z</time>
      </trkpt>
      <trkpt lat="45.64275" lon="0.06614">
        <ele>29.9</ele>
        <time>2026-08-12T09:52:23.000Z</time>
      </trkpt>
      <trkpt lat="45.64263" lon="0.06573">
        <ele>30.1</ele>
        <time>2026-08-12T09:52:29.000Z</time>
      </trkpt>
      <trkpt lat="45.64243" lon="0.06523">
        <ele>30</ele>
        <time>2026-08-12T09:52:37.000Z</time>
      </trkpt>
      <trkpt lat="45.64237" lon="0.06511">
        <ele>29.7</ele>
        <time>2026-08-12T09:52:39.000Z</time>
      </trkpt>
      <trkpt lat="45.64229" lon="0.06494">
        <ele>29.4</ele>
        <time>2026-08-12T09:52:42.000Z</time>
      </trkpt>
      <trkpt lat="45.64207" lon="0.06446">
        <ele>29</ele>
        <time>2026-08-12T09:52:50.000Z</time>
      </trkpt>
      <trkpt lat="45.64199" lon="0.06429">
        <ele>29.5</ele>
        <time>2026-08-12T09:52:53.000Z</time>
      </trkpt>
      <trkpt lat="45.6419" lon="0.06413">
        <ele>30</ele>
        <time>2026-08-12T09:52:56.000Z</time>
      </trkpt>
      <trkpt lat="45.64182" lon="0.06399">
        <ele>30</ele>
        <time>2026-08-12T09:52:59.000Z</time>
      </trkpt>
      <trkpt lat="45.64163" lon="0.06359">
        <ele>30.7</ele>
        <time>2026-08-12T09:53:07.000Z</time>
      </trkpt>
      <trkpt lat="45.64158" lon="0.06342">
        <ele>30.5</ele>
        <time>2026-08-12T09:53:10.000Z</time>
      </trkpt>
      <trkpt lat="45.64155" lon="0.06326">
        <ele>30.4</ele>
        <time>2026-08-12T09:53:13.000Z</time>
      </trkpt>
      <trkpt lat="45.64153" lon="0.06321">
        <ele>30.3</ele>
        <time>2026-08-12T09:53:14.000Z</time>
      </trkpt>
      <trkpt lat="45.64152" lon="0.06316">
        <ele>30.2</ele>
        <time>2026-08-12T09:53:15.000Z</time>
      </trkpt>
      <trkpt lat="45.64149" lon="0.06299">
        <ele>30</ele>
        <time>2026-08-12T09:53:18.000Z</time>
      </trkpt>
      <trkpt lat="45.64147" lon="0.06271">
        <ele>30.1</ele>
        <time>2026-08-12T09:53:23.000Z</time>
      </trkpt>
      <trkpt lat="45.64147" lon="0.06256">
        <ele>30.2</ele>
        <time>2026-08-12T09:53:26.000Z</time>
      </trkpt>
      <trkpt lat="45.64148" lon="0.06219">
        <ele>30.3</ele>
        <time>2026-08-12T09:53:33.000Z</time>
      </trkpt>
      <trkpt lat="45.64149" lon="0.06209">
        <ele>30.2</ele>
        <time>2026-08-12T09:53:35.000Z</time>
      </trkpt>
      <trkpt lat="45.64149" lon="0.06172">
        <ele>31.1</ele>
        <time>2026-08-12T09:53:41.000Z</time>
      </trkpt>
      <trkpt lat="45.6414" lon="0.06121">
        <ele>31</ele>
        <time>2026-08-12T09:53:48.000Z</time>
      </trkpt>
      <trkpt lat="45.64129" lon="0.06044">
        <ele>29.6</ele>
        <time>2026-08-12T09:53:58.000Z</time>
      </trkpt>
      <trkpt lat="45.64115" lon="0.05985">
        <ele>29.6</ele>
        <time>2026-08-12T09:54:06.000Z</time>
      </trkpt>
      <trkpt lat="45.64109" lon="0.05965">
        <ele>29.9</ele>
        <time>2026-08-12T09:54:09.000Z</time>
      </trkpt>
      <trkpt lat="45.64092" lon="0.05927">
        <ele>29.3</ele>
        <time>2026-08-12T09:54:15.000Z</time>
      </trkpt>
      <trkpt lat="45.64087" lon="0.05914">
        <ele>29.1</ele>
        <time>2026-08-12T09:54:17.000Z</time>
      </trkpt>
      <trkpt lat="45.64075" lon="0.05879">
        <ele>28.4</ele>
        <time>2026-08-12T09:54:22.000Z</time>
      </trkpt>
      <trkpt lat="45.64072" lon="0.05864">
        <ele>28.2</ele>
        <time>2026-08-12T09:54:24.000Z</time>
      </trkpt>
      <trkpt lat="45.64068" lon="0.05834">
        <ele>27.9</ele>
        <time>2026-08-12T09:54:28.000Z</time>
      </trkpt>
      <trkpt lat="45.64063" lon="0.05772">
        <ele>28.3</ele>
        <time>2026-08-12T09:54:36.000Z</time>
      </trkpt>
      <trkpt lat="45.6406" lon="0.05712">
        <ele>28.2</ele>
        <time>2026-08-12T09:54:44.000Z</time>
      </trkpt>
      <trkpt lat="45.64058" lon="0.05694">
        <ele>28.1</ele>
        <time>2026-08-12T09:54:48.000Z</time>
      </trkpt>
      <trkpt lat="45.64056" lon="0.05684">
        <ele>28</ele>
        <time>2026-08-12T09:54:53.000Z</time>
      </trkpt>
      <trkpt lat="45.64054" lon="0.05678">
        <ele>27.9</ele>
        <time>2026-08-12T09:54:56.000Z</time>
      </trkpt>
      <trkpt lat="45.64055" lon="0.05673">
        <ele>28</ele>
        <time>2026-08-12T09:54:58.000Z</time>
      </trkpt>
      <trkpt lat="45.64055" lon="0.0567">
        <ele>28</ele>
        <time>2026-08-12T09:54:59.000Z</time>
      </trkpt>
      <trkpt lat="45.64051" lon="0.05662">
        <ele>27.9</ele>
        <time>2026-08-12T09:55:03.000Z</time>
      </trkpt>
      <trkpt lat="45.64041" lon="0.05649">
        <ele>27.8</ele>
        <time>2026-08-12T09:55:10.000Z</time>
      </trkpt>
      <trkpt lat="45.6404" lon="0.05646">
        <ele>27.9</ele>
        <time>2026-08-12T09:55:12.000Z</time>
      </trkpt>
      <trkpt lat="45.64035" lon="0.05643">
        <ele>27.9</ele>
        <time>2026-08-12T09:55:15.000Z</time>
      </trkpt>
      <trkpt lat="45.64022" lon="0.0563">
        <ele>27.8</ele>
        <time>2026-08-12T09:55:21.000Z</time>
      </trkpt>
      <trkpt lat="45.64006" lon="0.05602">
        <ele>27.5</ele>
        <time>2026-08-12T09:55:28.000Z</time>
      </trkpt>
      <trkpt lat="45.64001" lon="0.05589">
        <ele>27.8</ele>
        <time>2026-08-12T09:55:31.000Z</time>
      </trkpt>
      <trkpt lat="45.64" lon="0.05583">
        <ele>28</ele>
        <time>2026-08-12T09:55:33.000Z</time>
      </trkpt>
      <trkpt lat="45.64" lon="0.05581">
        <ele>28</ele>
        <time>2026-08-12T09:55:34.000Z</time>
      </trkpt>
      <trkpt lat="45.64" lon="0.0558">
        <ele>28</ele>
        <time>2026-08-12T09:55:37.000Z</time>
      </trkpt>
      <trkpt lat="45.64" lon="0.0558">
        <ele>28</ele>
        <time>2026-08-12T09:55:38.000Z</time>
      </trkpt>
      <trkpt lat="45.64" lon="0.05575">
        <ele>28</ele>
        <time>2026-08-12T09:55:54.000Z</time>
      </trkpt>
      <trkpt lat="45.63999" lon="0.05569">
        <ele>28</ele>
        <time>2026-08-12T09:55:56.000Z</time>
      </trkpt>
      <trkpt lat="45.64" lon="0.05558">
        <ele>28</ele>
        <time>2026-08-12T09:56:01.000Z</time>
      </trkpt>
      <trkpt lat="45.64" lon="0.05558">
        <ele>28</ele>
        <time>2026-08-12T09:56:03.000Z</time>
      </trkpt>
      <trkpt lat="45.63999" lon="0.05554">
        <ele>28</ele>
        <time>2026-08-12T09:56:24.000Z</time>
      </trkpt>
      <trkpt lat="45.63995" lon="0.05555">
        <ele>27.8</ele>
        <time>2026-08-12T09:56:28.000Z</time>
      </trkpt>
      <trkpt lat="45.63995" lon="0.05555">
        <ele>27.8</ele>
        <time>2026-08-12T09:56:29.000Z</time>
      </trkpt>
      <trkpt lat="45.63989" lon="0.05555">
        <ele>27.6</ele>
        <time>2026-08-12T09:56:53.000Z</time>
      </trkpt>
      <trkpt lat="45.63985" lon="0.05556">
        <ele>27.4</ele>
        <time>2026-08-12T09:56:55.000Z</time>
      </trkpt>
      <trkpt lat="45.6397" lon="0.05559">
        <ele>27</ele>
        <time>2026-08-12T09:57:02.000Z</time>
      </trkpt>
      <trkpt lat="45.63951" lon="0.05573">
        <ele>27</ele>
        <time>2026-08-12T09:57:11.000Z</time>
      </trkpt>
      <trkpt lat="45.63943" lon="0.05578">
        <ele>27</ele>
        <time>2026-08-12T09:57:16.000Z</time>
      </trkpt>
      <trkpt lat="45.63925" lon="0.05579">
        <ele>26.9</ele>
        <time>2026-08-12T09:57:24.000Z</time>
      </trkpt>
      <trkpt lat="45.63907" lon="0.05569">
        <ele>26.3</ele>
        <time>2026-08-12T09:57:29.000Z</time>
      </trkpt>
      <trkpt lat="45.63887" lon="0.05562">
        <ele>26</ele>
        <time>2026-08-12T09:57:34.000Z</time>
      </trkpt>
      <trkpt lat="45.63863" lon="0.05554">
        <ele>26</ele>
        <time>2026-08-12T09:57:40.000Z</time>
      </trkpt>
      <trkpt lat="45.63845" lon="0.05532">
        <ele>25.9</ele>
        <time>2026-08-12T09:57:46.000Z</time>
      </trkpt>
      <trkpt lat="45.63825" lon="0.05498">
        <ele>25.9</ele>
        <time>2026-08-12T09:57:53.000Z</time>
      </trkpt>
      <trkpt lat="45.63811" lon="0.05483">
        <ele>25.9</ele>
        <time>2026-08-12T09:57:57.000Z</time>
      </trkpt>
      <trkpt lat="45.63804" lon="0.05473">
        <ele>25.9</ele>
        <time>2026-08-12T09:58:00.000Z</time>
      </trkpt>
      <trkpt lat="45.63786" lon="0.05453">
        <ele>25.6</ele>
        <time>2026-08-12T09:58:06.000Z</time>
      </trkpt>
      <trkpt lat="45.63774" lon="0.05408">
        <ele>25.6</ele>
        <time>2026-08-12T09:58:13.000Z</time>
      </trkpt>
      <trkpt lat="45.63773" lon="0.05402">
        <ele>25.4</ele>
        <time>2026-08-12T09:58:14.000Z</time>
      </trkpt>
      <trkpt lat="45.63758" lon="0.05329">
        <ele>25</ele>
        <time>2026-08-12T09:58:25.000Z</time>
      </trkpt>
      <trkpt lat="45.63751" lon="0.05288">
        <ele>25</ele>
        <time>2026-08-12T09:58:31.000Z</time>
      </trkpt>
      <trkpt lat="45.6375" lon="0.05281">
        <ele>25</ele>
        <time>2026-08-12T09:58:32.000Z</time>
      </trkpt>
      <trkpt lat="45.63748" lon="0.05268">
        <ele>25</ele>
        <time>2026-08-12T09:58:34.000Z</time>
      </trkpt>
      <trkpt lat="45.63745" lon="0.05255">
        <ele>25</ele>
        <time>2026-08-12T09:58:36.000Z</time>
      </trkpt>
      <trkpt lat="45.63738" lon="0.05231">
        <ele>25</ele>
        <time>2026-08-12T09:58:40.000Z</time>
      </trkpt>
      <trkpt lat="45.63737" lon="0.05224">
        <ele>25</ele>
        <time>2026-08-12T09:58:41.000Z</time>
      </trkpt>
      <trkpt lat="45.63728" lon="0.05193">
        <ele>25</ele>
        <time>2026-08-12T09:58:46.000Z</time>
      </trkpt>
      <trkpt lat="45.63721" lon="0.05174">
        <ele>25</ele>
        <time>2026-08-12T09:58:49.000Z</time>
      </trkpt>
      <trkpt lat="45.63715" lon="0.05164">
        <ele>25</ele>
        <time>2026-08-12T09:58:51.000Z</time>
      </trkpt>
      <trkpt lat="45.63711" lon="0.05158">
        <ele>25</ele>
        <time>2026-08-12T09:58:52.000Z</time>
      </trkpt>
      <trkpt lat="45.63707" lon="0.05154">
        <ele>25</ele>
        <time>2026-08-12T09:58:53.000Z</time>
      </trkpt>
      <trkpt lat="45.63697" lon="0.05148">
        <ele>25</ele>
        <time>2026-08-12T09:58:55.000Z</time>
      </trkpt>
      <trkpt lat="45.63688" lon="0.05144">
        <ele>25</ele>
        <time>2026-08-12T09:58:57.000Z</time>
      </trkpt>
      <trkpt lat="45.63653" lon="0.05138">
        <ele>25</ele>
        <time>2026-08-12T09:59:04.000Z</time>
      </trkpt>
      <trkpt lat="45.63635" lon="0.0513">
        <ele>25</ele>
        <time>2026-08-12T09:59:08.000Z</time>
      </trkpt>
      <trkpt lat="45.63627" lon="0.05123">
        <ele>25</ele>
        <time>2026-08-12T09:59:10.000Z</time>
      </trkpt>
      <trkpt lat="45.63623" lon="0.05118">
        <ele>25</ele>
        <time>2026-08-12T09:59:11.000Z</time>
      </trkpt>
      <trkpt lat="45.63607" lon="0.05094">
        <ele>25</ele>
        <time>2026-08-12T09:59:16.000Z</time>
      </trkpt>
      <trkpt lat="45.63575" lon="0.05034">
        <ele>25</ele>
        <time>2026-08-12T09:59:27.000Z</time>
      </trkpt>
      <trkpt lat="45.63565" lon="0.05018">
        <ele>25</ele>
        <time>2026-08-12T09:59:30.000Z</time>
      </trkpt>
      <trkpt lat="45.63546" lon="0.04994">
        <ele>24.4</ele>
        <time>2026-08-12T09:59:35.000Z</time>
      </trkpt>
      <trkpt lat="45.63543" lon="0.04989">
        <ele>24.2</ele>
        <time>2026-08-12T09:59:36.000Z</time>
      </trkpt>
      <trkpt lat="45.63538" lon="0.04977">
        <ele>24.3</ele>
        <time>2026-08-12T09:59:38.000Z</time>
      </trkpt>
      <trkpt lat="45.63537" lon="0.04972">
        <ele>24.3</ele>
        <time>2026-08-12T09:59:39.000Z</time>
      </trkpt>
      <trkpt lat="45.63529" lon="0.04933">
        <ele>24.4</ele>
        <time>2026-08-12T09:59:45.000Z</time>
      </trkpt>
      <trkpt lat="45.63517" lon="0.04881">
        <ele>24.3</ele>
        <time>2026-08-12T09:59:53.000Z</time>
      </trkpt>
      <trkpt lat="45.63499" lon="0.0483">
        <ele>25</ele>
        <time>2026-08-12T10:00:01.000Z</time>
      </trkpt>
      <trkpt lat="45.63484" lon="0.04789">
        <ele>23.9</ele>
        <time>2026-08-12T10:00:08.000Z</time>
      </trkpt>
      <trkpt lat="45.63475" lon="0.04754">
        <ele>24.8</ele>
        <time>2026-08-12T10:00:14.000Z</time>
      </trkpt>
      <trkpt lat="45.63474" lon="0.04747">
        <ele>25</ele>
        <time>2026-08-12T10:00:15.000Z</time>
      </trkpt>
      <trkpt lat="45.6347" lon="0.04727">
        <ele>24.8</ele>
        <time>2026-08-12T10:00:18.000Z</time>
      </trkpt>
      <trkpt lat="45.63469" lon="0.0472">
        <ele>24.7</ele>
        <time>2026-08-12T10:00:19.000Z</time>
      </trkpt>
      <trkpt lat="45.63466" lon="0.04706">
        <ele>24.6</ele>
        <time>2026-08-12T10:00:21.000Z</time>
      </trkpt>
      <trkpt lat="45.63461" lon="0.04698">
        <ele>24.2</ele>
        <time>2026-08-12T10:00:23.000Z</time>
      </trkpt>
      <trkpt lat="45.63453" lon="0.04695">
        <ele>23.6</ele>
        <time>2026-08-12T10:00:25.000Z</time>
      </trkpt>
      <trkpt lat="45.63445" lon="0.04692">
        <ele>23.7</ele>
        <time>2026-08-12T10:00:27.000Z</time>
      </trkpt>
      <trkpt lat="45.63438" lon="0.0468">
        <ele>25.3</ele>
        <time>2026-08-12T10:00:30.000Z</time>
      </trkpt>
      <trkpt lat="45.6344" lon="0.04667">
        <ele>27.9</ele>
        <time>2026-08-12T10:00:32.000Z</time>
      </trkpt>
      <trkpt lat="45.63441" lon="0.04661">
        <ele>27.5</ele>
        <time>2026-08-12T10:00:33.000Z</time>
      </trkpt>
      <trkpt lat="45.63441" lon="0.04655">
        <ele>26.8</ele>
        <time>2026-08-12T10:00:34.000Z</time>
      </trkpt>
      <trkpt lat="45.63438" lon="0.04639">
        <ele>24.5</ele>
        <time>2026-08-12T10:00:37.000Z</time>
      </trkpt>
      <trkpt lat="45.63422" lon="0.04597">
        <ele>24.2</ele>
        <time>2026-08-12T10:00:45.000Z</time>
      </trkpt>
      <trkpt lat="45.63406" lon="0.04556">
        <ele>24.3</ele>
        <time>2026-08-12T10:00:52.000Z</time>
      </trkpt>
      <trkpt lat="45.63405" lon="0.0455">
        <ele>24.2</ele>
        <time>2026-08-12T10:00:53.000Z</time>
      </trkpt>
      <trkpt lat="45.63397" lon="0.04522">
        <ele>24.3</ele>
        <time>2026-08-12T10:00:58.000Z</time>
      </trkpt>
      <trkpt lat="45.63394" lon="0.04509">
        <ele>24.2</ele>
        <time>2026-08-12T10:01:00.000Z</time>
      </trkpt>
      <trkpt lat="45.63374" lon="0.0445">
        <ele>23.9</ele>
        <time>2026-08-12T10:01:09.000Z</time>
      </trkpt>
      <trkpt lat="45.63371" lon="0.04444">
        <ele>23.7</ele>
        <time>2026-08-12T10:01:10.000Z</time>
      </trkpt>
      <trkpt lat="45.63353" lon="0.04408">
        <ele>24.5</ele>
        <time>2026-08-12T10:01:16.000Z</time>
      </trkpt>
      <trkpt lat="45.63339" lon="0.04388">
        <ele>24.3</ele>
        <time>2026-08-12T10:01:20.000Z</time>
      </trkpt>
      <trkpt lat="45.6333" lon="0.0438">
        <ele>24.2</ele>
        <time>2026-08-12T10:01:22.000Z</time>
      </trkpt>
      <trkpt lat="45.63325" lon="0.04377">
        <ele>24.1</ele>
        <time>2026-08-12T10:01:23.000Z</time>
      </trkpt>
      <trkpt lat="45.63309" lon="0.04374">
        <ele>23.7</ele>
        <time>2026-08-12T10:01:26.000Z</time>
      </trkpt>
      <trkpt lat="45.63304" lon="0.04373">
        <ele>23.6</ele>
        <time>2026-08-12T10:01:27.000Z</time>
      </trkpt>
      <trkpt lat="45.63293" lon="0.04372">
        <ele>23.6</ele>
        <time>2026-08-12T10:01:29.000Z</time>
      </trkpt>
      <trkpt lat="45.63288" lon="0.0437">
        <ele>23.7</ele>
        <time>2026-08-12T10:01:30.000Z</time>
      </trkpt>
      <trkpt lat="45.63283" lon="0.04367">
        <ele>23.8</ele>
        <time>2026-08-12T10:01:31.000Z</time>
      </trkpt>
      <trkpt lat="45.63269" lon="0.04357">
        <ele>23.9</ele>
        <time>2026-08-12T10:01:34.000Z</time>
      </trkpt>
      <trkpt lat="45.63261" lon="0.04347">
        <ele>23.9</ele>
        <time>2026-08-12T10:01:36.000Z</time>
      </trkpt>
      <trkpt lat="45.63235" lon="0.04324">
        <ele>24</ele>
        <time>2026-08-12T10:01:42.000Z</time>
      </trkpt>
      <trkpt lat="45.63225" lon="0.04318">
        <ele>24.1</ele>
        <time>2026-08-12T10:01:44.000Z</time>
      </trkpt>
      <trkpt lat="45.63195" lon="0.04307">
        <ele>24.9</ele>
        <time>2026-08-12T10:01:50.000Z</time>
      </trkpt>
      <trkpt lat="45.6318" lon="0.04302">
        <ele>24.4</ele>
        <time>2026-08-12T10:01:53.000Z</time>
      </trkpt>
      <trkpt lat="45.63142" lon="0.04292">
        <ele>23.5</ele>
        <time>2026-08-12T10:02:01.000Z</time>
      </trkpt>
      <trkpt lat="45.63137" lon="0.04291">
        <ele>23.5</ele>
        <time>2026-08-12T10:02:02.000Z</time>
      </trkpt>
      <trkpt lat="45.63097" lon="0.04277">
        <ele>23.5</ele>
        <time>2026-08-12T10:02:11.000Z</time>
      </trkpt>
      <trkpt lat="45.63059" lon="0.0426">
        <ele>24.2</ele>
        <time>2026-08-12T10:02:20.000Z</time>
      </trkpt>
      <trkpt lat="45.6302" lon="0.04244">
        <ele>23.8</ele>
        <time>2026-08-12T10:02:29.000Z</time>
      </trkpt>
      <trkpt lat="45.62992" lon="0.04235">
        <ele>23.5</ele>
        <time>2026-08-12T10:02:35.000Z</time>
      </trkpt>
      <trkpt lat="45.62973" lon="0.0423">
        <ele>23.7</ele>
        <time>2026-08-12T10:02:39.000Z</time>
      </trkpt>
      <trkpt lat="45.62955" lon="0.04225">
        <ele>23.9</ele>
        <time>2026-08-12T10:02:43.000Z</time>
      </trkpt>
      <trkpt lat="45.62951" lon="0.04223">
        <ele>24</ele>
        <time>2026-08-12T10:02:44.000Z</time>
      </trkpt>
      <trkpt lat="45.62917" lon="0.04212">
        <ele>23.4</ele>
        <time>2026-08-12T10:02:51.000Z</time>
      </trkpt>
      <trkpt lat="45.62912" lon="0.04212">
        <ele>23.4</ele>
        <time>2026-08-12T10:02:52.000Z</time>
      </trkpt>
      <trkpt lat="45.62872" lon="0.04204">
        <ele>23.7</ele>
        <time>2026-08-12T10:03:00.000Z</time>
      </trkpt>
      <trkpt lat="45.62844" lon="0.04197">
        <ele>23.9</ele>
        <time>2026-08-12T10:03:06.000Z</time>
      </trkpt>
      <trkpt lat="45.62798" lon="0.0419">
        <ele>24</ele>
        <time>2026-08-12T10:03:15.000Z</time>
      </trkpt>
      <trkpt lat="45.62793" lon="0.0419">
        <ele>24</ele>
        <time>2026-08-12T10:03:16.000Z</time>
      </trkpt>
      <trkpt lat="45.62769" lon="0.04191">
        <ele>24</ele>
        <time>2026-08-12T10:03:21.000Z</time>
      </trkpt>
      <trkpt lat="45.62728" lon="0.04201">
        <ele>24.4</ele>
        <time>2026-08-12T10:03:30.000Z</time>
      </trkpt>
      <trkpt lat="45.62702" lon="0.04213">
        <ele>23.4</ele>
        <time>2026-08-12T10:03:36.000Z</time>
      </trkpt>
      <trkpt lat="45.62698" lon="0.04215">
        <ele>23.3</ele>
        <time>2026-08-12T10:03:37.000Z</time>
      </trkpt>
      <trkpt lat="45.62671" lon="0.04226">
        <ele>23.7</ele>
        <time>2026-08-12T10:03:43.000Z</time>
      </trkpt>
      <trkpt lat="45.62629" lon="0.04243">
        <ele>23.5</ele>
        <time>2026-08-12T10:03:52.000Z</time>
      </trkpt>
      <trkpt lat="45.62586" lon="0.04259">
        <ele>23.7</ele>
        <time>2026-08-12T10:04:01.000Z</time>
      </trkpt>
      <trkpt lat="45.62546" lon="0.04263">
        <ele>23.5</ele>
        <time>2026-08-12T10:04:09.000Z</time>
      </trkpt>
      <trkpt lat="45.62532" lon="0.04263">
        <ele>23.5</ele>
        <time>2026-08-12T10:04:12.000Z</time>
      </trkpt>
      <trkpt lat="45.62527" lon="0.04262">
        <ele>23.6</ele>
        <time>2026-08-12T10:04:13.000Z</time>
      </trkpt>
      <trkpt lat="45.62513" lon="0.04261">
        <ele>23.6</ele>
        <time>2026-08-12T10:04:16.000Z</time>
      </trkpt>
      <trkpt lat="45.62509" lon="0.0426">
        <ele>23.7</ele>
        <time>2026-08-12T10:04:17.000Z</time>
      </trkpt>
      <trkpt lat="45.62461" lon="0.04249">
        <ele>23.6</ele>
        <time>2026-08-12T10:04:27.000Z</time>
      </trkpt>
      <trkpt lat="45.62417" lon="0.04243">
        <ele>23.3</ele>
        <time>2026-08-12T10:04:37.000Z</time>
      </trkpt>
      <trkpt lat="45.62386" lon="0.0424">
        <ele>23.7</ele>
        <time>2026-08-12T10:04:44.000Z</time>
      </trkpt>
      <trkpt lat="45.62377" lon="0.0424">
        <ele>23.7</ele>
        <time>2026-08-12T10:04:46.000Z</time>
      </trkpt>
      <trkpt lat="45.62333" lon="0.04236">
        <ele>24</ele>
        <time>2026-08-12T10:04:56.000Z</time>
      </trkpt>
      <trkpt lat="45.62303" lon="0.04235">
        <ele>24.1</ele>
        <time>2026-08-12T10:05:03.000Z</time>
      </trkpt>
      <trkpt lat="45.62255" lon="0.04235">
        <ele>23.7</ele>
        <time>2026-08-12T10:05:13.000Z</time>
      </trkpt>
      <trkpt lat="45.62215" lon="0.04237">
        <ele>23.5</ele>
        <time>2026-08-12T10:05:20.000Z</time>
      </trkpt>
      <trkpt lat="45.62175" lon="0.04246">
        <ele>23.8</ele>
        <time>2026-08-12T10:05:27.000Z</time>
      </trkpt>
      <trkpt lat="45.62151" lon="0.04259">
        <ele>23.9</ele>
        <time>2026-08-12T10:05:32.000Z</time>
      </trkpt>
      <trkpt lat="45.62142" lon="0.04266">
        <ele>23.9</ele>
        <time>2026-08-12T10:05:34.000Z</time>
      </trkpt>
      <trkpt lat="45.62119" lon="0.04282">
        <ele>23.8</ele>
        <time>2026-08-12T10:05:39.000Z</time>
      </trkpt>
      <trkpt lat="45.62104" lon="0.04288">
        <ele>23.6</ele>
        <time>2026-08-12T10:05:42.000Z</time>
      </trkpt>
      <trkpt lat="45.62063" lon="0.04293">
        <ele>23.5</ele>
        <time>2026-08-12T10:05:50.000Z</time>
      </trkpt>
      <trkpt lat="45.62036" lon="0.04293">
        <ele>23.4</ele>
        <time>2026-08-12T10:05:55.000Z</time>
      </trkpt>
      <trkpt lat="45.62015" lon="0.04294">
        <ele>23.4</ele>
        <time>2026-08-12T10:05:59.000Z</time>
      </trkpt>
      <trkpt lat="45.61978" lon="0.04291">
        <ele>23.5</ele>
        <time>2026-08-12T10:06:06.000Z</time>
      </trkpt>
      <trkpt lat="45.61931" lon="0.04282">
        <ele>23.9</ele>
        <time>2026-08-12T10:06:15.000Z</time>
      </trkpt>
      <trkpt lat="45.61896" lon="0.04275">
        <ele>24</ele>
        <time>2026-08-12T10:06:22.000Z</time>
      </trkpt>
      <trkpt lat="45.61886" lon="0.04275">
        <ele>23.9</ele>
        <time>2026-08-12T10:06:24.000Z</time>
      </trkpt>
      <trkpt lat="45.61867" lon="0.04274">
        <ele>23.3</ele>
        <time>2026-08-12T10:06:28.000Z</time>
      </trkpt>
      <trkpt lat="45.61845" lon="0.04273">
        <ele>23.2</ele>
        <time>2026-08-12T10:06:32.000Z</time>
      </trkpt>
      <trkpt lat="45.61821" lon="0.04271">
        <ele>23.3</ele>
        <time>2026-08-12T10:06:37.000Z</time>
      </trkpt>
      <trkpt lat="45.61807" lon="0.04266">
        <ele>23.4</ele>
        <time>2026-08-12T10:06:40.000Z</time>
      </trkpt>
      <trkpt lat="45.61774" lon="0.04246">
        <ele>23.9</ele>
        <time>2026-08-12T10:06:47.000Z</time>
      </trkpt>
      <trkpt lat="45.61769" lon="0.04243">
        <ele>23.8</ele>
        <time>2026-08-12T10:06:48.000Z</time>
      </trkpt>
      <trkpt lat="45.61747" lon="0.0423">
        <ele>23.6</ele>
        <time>2026-08-12T10:06:53.000Z</time>
      </trkpt>
      <trkpt lat="45.61709" lon="0.04208">
        <ele>23.5</ele>
        <time>2026-08-12T10:07:02.000Z</time>
      </trkpt>
      <trkpt lat="45.6168" lon="0.0419">
        <ele>23.6</ele>
        <time>2026-08-12T10:07:09.000Z</time>
      </trkpt>
      <trkpt lat="45.61676" lon="0.04188">
        <ele>23.5</ele>
        <time>2026-08-12T10:07:10.000Z</time>
      </trkpt>
      <trkpt lat="45.61642" lon="0.04166">
        <ele>24</ele>
        <time>2026-08-12T10:07:18.000Z</time>
      </trkpt>
      <trkpt lat="45.61621" lon="0.0415">
        <ele>23.7</ele>
        <time>2026-08-12T10:07:23.000Z</time>
      </trkpt>
      <trkpt lat="45.61613" lon="0.04141">
        <ele>23.9</ele>
        <time>2026-08-12T10:07:25.000Z</time>
      </trkpt>
      <trkpt lat="45.61587" lon="0.04105">
        <ele>23.3</ele>
        <time>2026-08-12T10:07:32.000Z</time>
      </trkpt>
      <trkpt lat="45.61554" lon="0.04058">
        <ele>23.9</ele>
        <time>2026-08-12T10:07:41.000Z</time>
      </trkpt>
      <trkpt lat="45.61526" lon="0.04017">
        <ele>23.4</ele>
        <time>2026-08-12T10:07:49.000Z</time>
      </trkpt>
      <trkpt lat="45.61515" lon="0.04001">
        <ele>23.5</ele>
        <time>2026-08-12T10:07:52.000Z</time>
      </trkpt>
      <trkpt lat="45.615" lon="0.03982">
        <ele>23.6</ele>
        <time>2026-08-12T10:07:56.000Z</time>
      </trkpt>
      <trkpt lat="45.61464" lon="0.0394">
        <ele>23.7</ele>
        <time>2026-08-12T10:08:05.000Z</time>
      </trkpt>
      <trkpt lat="45.61424" lon="0.03897">
        <ele>23.8</ele>
        <time>2026-08-12T10:08:15.000Z</time>
      </trkpt>
      <trkpt lat="45.61391" lon="0.0386">
        <ele>24</ele>
        <time>2026-08-12T10:08:24.000Z</time>
      </trkpt>
      <trkpt lat="45.61386" lon="0.03857">
        <ele>23.9</ele>
        <time>2026-08-12T10:08:25.000Z</time>
      </trkpt>
      <trkpt lat="45.61365" lon="0.03845">
        <ele>23.6</ele>
        <time>2026-08-12T10:08:30.000Z</time>
      </trkpt>
      <trkpt lat="45.61353" lon="0.03836">
        <ele>23.9</ele>
        <time>2026-08-12T10:08:33.000Z</time>
      </trkpt>
      <trkpt lat="45.61348" lon="0.03833">
        <ele>24</ele>
        <time>2026-08-12T10:08:34.000Z</time>
      </trkpt>
      <trkpt lat="45.61321" lon="0.03819">
        <ele>23.8</ele>
        <time>2026-08-12T10:08:40.000Z</time>
      </trkpt>
      <trkpt lat="45.61286" lon="0.03803">
        <ele>23.4</ele>
        <time>2026-08-12T10:08:48.000Z</time>
      </trkpt>
      <trkpt lat="45.61255" lon="0.0379">
        <ele>23.6</ele>
        <time>2026-08-12T10:08:55.000Z</time>
      </trkpt>
      <trkpt lat="45.61217" lon="0.03765">
        <ele>23.9</ele>
        <time>2026-08-12T10:09:04.000Z</time>
      </trkpt>
      <trkpt lat="45.6119" lon="0.03746">
        <ele>23.9</ele>
        <time>2026-08-12T10:09:10.000Z</time>
      </trkpt>
      <trkpt lat="45.61144" lon="0.03726">
        <ele>23.9</ele>
        <time>2026-08-12T10:09:19.000Z</time>
      </trkpt>
      <trkpt lat="45.61125" lon="0.03713">
        <ele>23.7</ele>
        <time>2026-08-12T10:09:23.000Z</time>
      </trkpt>
      <trkpt lat="45.61117" lon="0.03704">
        <ele>23.7</ele>
        <time>2026-08-12T10:09:25.000Z</time>
      </trkpt>
      <trkpt lat="45.61094" lon="0.03676">
        <ele>23.8</ele>
        <time>2026-08-12T10:09:31.000Z</time>
      </trkpt>
      <trkpt lat="45.61089" lon="0.03672">
        <ele>23.8</ele>
        <time>2026-08-12T10:09:32.000Z</time>
      </trkpt>
      <trkpt lat="45.61077" lon="0.03662">
        <ele>23.8</ele>
        <time>2026-08-12T10:09:35.000Z</time>
      </trkpt>
      <trkpt lat="45.61067" lon="0.03657">
        <ele>23.6</ele>
        <time>2026-08-12T10:09:37.000Z</time>
      </trkpt>
      <trkpt lat="45.61062" lon="0.03656">
        <ele>23.5</ele>
        <time>2026-08-12T10:09:38.000Z</time>
      </trkpt>
      <trkpt lat="45.61017" lon="0.03651">
        <ele>23.6</ele>
        <time>2026-08-12T10:09:47.000Z</time>
      </trkpt>
      <trkpt lat="45.60996" lon="0.03648">
        <ele>23.6</ele>
        <time>2026-08-12T10:09:51.000Z</time>
      </trkpt>
      <trkpt lat="45.60981" lon="0.03642">
        <ele>23.3</ele>
        <time>2026-08-12T10:09:54.000Z</time>
      </trkpt>
      <trkpt lat="45.60931" lon="0.03619">
        <ele>23.7</ele>
        <time>2026-08-12T10:10:04.000Z</time>
      </trkpt>
      <trkpt lat="45.60897" lon="0.036">
        <ele>23.6</ele>
        <time>2026-08-12T10:10:11.000Z</time>
      </trkpt>
      <trkpt lat="45.60884" lon="0.03591">
        <ele>23.6</ele>
        <time>2026-08-12T10:10:14.000Z</time>
      </trkpt>
      <trkpt lat="45.60868" lon="0.03578">
        <ele>23.4</ele>
        <time>2026-08-12T10:10:18.000Z</time>
      </trkpt>
      <trkpt lat="45.60836" lon="0.03548">
        <ele>23.4</ele>
        <time>2026-08-12T10:10:26.000Z</time>
      </trkpt>
      <trkpt lat="45.60803" lon="0.03509">
        <ele>23.6</ele>
        <time>2026-08-12T10:10:35.000Z</time>
      </trkpt>
      <trkpt lat="45.60764" lon="0.03456">
        <ele>23.5</ele>
        <time>2026-08-12T10:10:46.000Z</time>
      </trkpt>
      <trkpt lat="45.6074" lon="0.03419">
        <ele>23.6</ele>
        <time>2026-08-12T10:10:53.000Z</time>
      </trkpt>
      <trkpt lat="45.60735" lon="0.03407">
        <ele>23.5</ele>
        <time>2026-08-12T10:10:55.000Z</time>
      </trkpt>
      <trkpt lat="45.60728" lon="0.0338">
        <ele>23.5</ele>
        <time>2026-08-12T10:10:59.000Z</time>
      </trkpt>
      <trkpt lat="45.60708" lon="0.03334">
        <ele>23.5</ele>
        <time>2026-08-12T10:11:07.000Z</time>
      </trkpt>
      <trkpt lat="45.60686" lon="0.03291">
        <ele>23.7</ele>
        <time>2026-08-12T10:11:15.000Z</time>
      </trkpt>
      <trkpt lat="45.6066" lon="0.03232">
        <ele>23.8</ele>
        <time>2026-08-12T10:11:25.000Z</time>
      </trkpt>
      <trkpt lat="45.60638" lon="0.03171">
        <ele>24</ele>
        <time>2026-08-12T10:11:35.000Z</time>
      </trkpt>
      <trkpt lat="45.60628" lon="0.03097">
        <ele>23</ele>
        <time>2026-08-12T10:11:46.000Z</time>
      </trkpt>
      <trkpt lat="45.60624" lon="0.03063">
        <ele>23</ele>
        <time>2026-08-12T10:11:51.000Z</time>
      </trkpt>
      <trkpt lat="45.60623" lon="0.03043">
        <ele>23</ele>
        <time>2026-08-12T10:11:54.000Z</time>
      </trkpt>
      <trkpt lat="45.60622" lon="0.03023">
        <ele>23</ele>
        <time>2026-08-12T10:11:57.000Z</time>
      </trkpt>
      <trkpt lat="45.60622" lon="0.02997">
        <ele>23</ele>
        <time>2026-08-12T10:12:01.000Z</time>
      </trkpt>
      <trkpt lat="45.60622" lon="0.02969">
        <ele>23</ele>
        <time>2026-08-12T10:12:05.000Z</time>
      </trkpt>
      <trkpt lat="45.60623" lon="0.02941">
        <ele>23</ele>
        <time>2026-08-12T10:12:09.000Z</time>
      </trkpt>
      <trkpt lat="45.60623" lon="0.02881">
        <ele>23</ele>
        <time>2026-08-12T10:12:18.000Z</time>
      </trkpt>
      <trkpt lat="45.60623" lon="0.02874">
        <ele>23</ele>
        <time>2026-08-12T10:12:19.000Z</time>
      </trkpt>
      <trkpt lat="45.60621" lon="0.02843">
        <ele>23.2</ele>
        <time>2026-08-12T10:12:24.000Z</time>
      </trkpt>
      <trkpt lat="45.6062" lon="0.02825">
        <ele>23.3</ele>
        <time>2026-08-12T10:12:27.000Z</time>
      </trkpt>
      <trkpt lat="45.6062" lon="0.02814">
        <ele>23.3</ele>
        <time>2026-08-12T10:12:29.000Z</time>
      </trkpt>
      <trkpt lat="45.60618" lon="0.02808">
        <ele>23.3</ele>
        <time>2026-08-12T10:12:30.000Z</time>
      </trkpt>
      <trkpt lat="45.60612" lon="0.02767">
        <ele>23.4</ele>
        <time>2026-08-12T10:12:36.000Z</time>
      </trkpt>
      <trkpt lat="45.6061" lon="0.02759">
        <ele>23.7</ele>
        <time>2026-08-12T10:12:37.000Z</time>
      </trkpt>
      <trkpt lat="45.60595" lon="0.02685">
        <ele>23</ele>
        <time>2026-08-12T10:12:48.000Z</time>
      </trkpt>
      <trkpt lat="45.60585" lon="0.02625">
        <ele>23</ele>
        <time>2026-08-12T10:12:57.000Z</time>
      </trkpt>
      <trkpt lat="45.60579" lon="0.0258">
        <ele>23.7</ele>
        <time>2026-08-12T10:13:04.000Z</time>
      </trkpt>
      <trkpt lat="45.60578" lon="0.02575">
        <ele>23.6</ele>
        <time>2026-08-12T10:13:05.000Z</time>
      </trkpt>
      <trkpt lat="45.60575" lon="0.02564">
        <ele>23.2</ele>
        <time>2026-08-12T10:13:07.000Z</time>
      </trkpt>
      <trkpt lat="45.60573" lon="0.02552">
        <ele>23</ele>
        <time>2026-08-12T10:13:09.000Z</time>
      </trkpt>
      <trkpt lat="45.60573" lon="0.02502">
        <ele>23</ele>
        <time>2026-08-12T10:13:17.000Z</time>
      </trkpt>
      <trkpt lat="45.60583" lon="0.02457">
        <ele>23</ele>
        <time>2026-08-12T10:13:24.000Z</time>
      </trkpt>
      <trkpt lat="45.60593" lon="0.02427">
        <ele>23.2</ele>
        <time>2026-08-12T10:13:30.000Z</time>
      </trkpt>
      <trkpt lat="45.60597" lon="0.02402">
        <ele>24.6</ele>
        <time>2026-08-12T10:13:36.000Z</time>
      </trkpt>
      <trkpt lat="45.60598" lon="0.02381">
        <ele>25.2</ele>
        <time>2026-08-12T10:13:41.000Z</time>
      </trkpt>
      <trkpt lat="45.60599" lon="0.02377">
        <ele>25.1</ele>
        <time>2026-08-12T10:13:44.000Z</time>
      </trkpt>
      <trkpt lat="45.60599" lon="0.02377">
        <ele>25.1</ele>
        <time>2026-08-12T10:13:45.000Z</time>
      </trkpt>
      <trkpt lat="45.60633" lon="0.02383">
        <ele>27.7</ele>
        <time>2026-08-12T10:18:48.000Z</time>
      </trkpt>
      <trkpt lat="45.60636" lon="0.02384">
        <ele>27.8</ele>
        <time>2026-08-12T10:18:51.000Z</time>
      </trkpt>
      <trkpt lat="45.60638" lon="0.02387">
        <ele>27.9</ele>
        <time>2026-08-12T10:18:54.000Z</time>
      </trkpt>
      <trkpt lat="45.60639" lon="0.02391">
        <ele>27.9</ele>
        <time>2026-08-12T10:18:57.000Z</time>
      </trkpt>
      <trkpt lat="45.60639" lon="0.02391">
        <ele>27.8</ele>
        <time>2026-08-12T10:18:58.000Z</time>
      </trkpt>
      <trkpt lat="45.6064" lon="0.02394">
        <ele>27.5</ele>
        <time>2026-08-12T10:19:03.000Z</time>
      </trkpt>
      <trkpt lat="45.60642" lon="0.02396">
        <ele>27.3</ele>
        <time>2026-08-12T10:19:05.000Z</time>
      </trkpt>
      <trkpt lat="45.60645" lon="0.02401">
        <ele>26.7</ele>
        <time>2026-08-12T10:19:10.000Z</time>
      </trkpt>
      <trkpt lat="45.60646" lon="0.02402">
        <ele>26.6</ele>
        <time>2026-08-12T10:19:11.000Z</time>
      </trkpt>
      <trkpt lat="45.60646" lon="0.02406">
        <ele>26.5</ele>
        <time>2026-08-12T10:19:13.000Z</time>
      </trkpt>
      <trkpt lat="45.60644" lon="0.02408">
        <ele>26.5</ele>
        <time>2026-08-12T10:19:15.000Z</time>
      </trkpt>
      <trkpt lat="45.60632" lon="0.02409">
        <ele>26.2</ele>
        <time>2026-08-12T10:19:21.000Z</time>
      </trkpt>
      <trkpt lat="45.60625" lon="0.02412">
        <ele>25.5</ele>
        <time>2026-08-12T10:19:24.000Z</time>
      </trkpt>
      <trkpt lat="45.60624" lon="0.02413">
        <ele>25.3</ele>
        <time>2026-08-12T10:19:26.000Z</time>
      </trkpt>
      <trkpt lat="45.60624" lon="0.02413">
        <ele>25.3</ele>
        <time>2026-08-12T10:19:28.000Z</time>
      </trkpt>
      <trkpt lat="45.60629" lon="0.02413">
        <ele>25.6</ele>
        <time>2026-08-12T10:24:21.000Z</time>
      </trkpt>
      <trkpt lat="45.60631" lon="0.02413">
        <ele>25.7</ele>
        <time>2026-08-12T10:24:22.000Z</time>
      </trkpt>
      <trkpt lat="45.60635" lon="0.02414">
        <ele>25.9</ele>
        <time>2026-08-12T10:24:25.000Z</time>
      </trkpt>
      <trkpt lat="45.60638" lon="0.02414">
        <ele>26.1</ele>
        <time>2026-08-12T10:24:27.000Z</time>
      </trkpt>
      <trkpt lat="45.60646" lon="0.02411">
        <ele>26.2</ele>
        <time>2026-08-12T10:24:33.000Z</time>
      </trkpt>
      <trkpt lat="45.60648" lon="0.0241">
        <ele>26.3</ele>
        <time>2026-08-12T10:24:34.000Z</time>
      </trkpt>
      <trkpt lat="45.60649" lon="0.02406">
        <ele>26.4</ele>
        <time>2026-08-12T10:24:36.000Z</time>
      </trkpt>
      <trkpt lat="45.60648" lon="0.02401">
        <ele>26.6</ele>
        <time>2026-08-12T10:24:38.000Z</time>
      </trkpt>
      <trkpt lat="45.60645" lon="0.02398">
        <ele>26.9</ele>
        <time>2026-08-12T10:24:40.000Z</time>
      </trkpt>
      <trkpt lat="45.60642" lon="0.02398">
        <ele>27.2</ele>
        <time>2026-08-12T10:24:41.000Z</time>
      </trkpt>
      <trkpt lat="45.60639" lon="0.02397">
        <ele>27.4</ele>
        <time>2026-08-12T10:24:43.000Z</time>
      </trkpt>
      <trkpt lat="45.60629" lon="0.02394">
        <ele>27.5</ele>
        <time>2026-08-12T10:24:48.000Z</time>
      </trkpt>
      <trkpt lat="45.60615" lon="0.0239">
        <ele>27.9</ele>
        <time>2026-08-12T10:24:56.000Z</time>
      </trkpt>
      <trkpt lat="45.60602" lon="0.02384">
        <ele>26</ele>
        <time>2026-08-12T10:25:03.000Z</time>
      </trkpt>
      <trkpt lat="45.60586" lon="0.02379">
        <ele>23.3</ele>
        <time>2026-08-12T10:25:10.000Z</time>
      </trkpt>
      <trkpt lat="45.60581" lon="0.02377">
        <ele>23</ele>
        <time>2026-08-12T10:25:12.000Z</time>
      </trkpt>
      <trkpt lat="45.60576" lon="0.02376">
        <ele>23</ele>
        <time>2026-08-12T10:25:14.000Z</time>
      </trkpt>
      <trkpt lat="45.60552" lon="0.02369">
        <ele>23</ele>
        <time>2026-08-12T10:25:21.000Z</time>
      </trkpt>
      <trkpt lat="45.60524" lon="0.02362">
        <ele>23.7</ele>
        <time>2026-08-12T10:25:28.000Z</time>
      </trkpt>
      <trkpt lat="45.60491" lon="0.02354">
        <ele>28</ele>
        <time>2026-08-12T10:25:36.000Z</time>
      </trkpt>
      <trkpt lat="45.60477" lon="0.02353">
        <ele>28</ele>
        <time>2026-08-12T10:25:40.000Z</time>
      </trkpt>
      <trkpt lat="45.60472" lon="0.02353">
        <ele>28</ele>
        <time>2026-08-12T10:25:42.000Z</time>
      </trkpt>
      <trkpt lat="45.60467" lon="0.02351">
        <ele>27.6</ele>
        <time>2026-08-12T10:25:45.000Z</time>
      </trkpt>
      <trkpt lat="45.60465" lon="0.02348">
        <ele>27.5</ele>
        <time>2026-08-12T10:25:47.000Z</time>
      </trkpt>
      <trkpt lat="45.60468" lon="0.02341">
        <ele>27.7</ele>
        <time>2026-08-12T10:25:49.000Z</time>
      </trkpt>
      <trkpt lat="45.6047" lon="0.02338">
        <ele>27.9</ele>
        <time>2026-08-12T10:25:50.000Z</time>
      </trkpt>
      <trkpt lat="45.60478" lon="0.02331">
        <ele>27.1</ele>
        <time>2026-08-12T10:25:52.000Z</time>
      </trkpt>
      <trkpt lat="45.60491" lon="0.02321">
        <ele>25.1</ele>
        <time>2026-08-12T10:25:55.000Z</time>
      </trkpt>
      <trkpt lat="45.60519" lon="0.02307">
        <ele>24</ele>
        <time>2026-08-12T10:26:01.000Z</time>
      </trkpt>
      <trkpt lat="45.60537" lon="0.02296">
        <ele>23.4</ele>
        <time>2026-08-12T10:26:05.000Z</time>
      </trkpt>
      <trkpt lat="45.60556" lon="0.02284">
        <ele>23</ele>
        <time>2026-08-12T10:26:09.000Z</time>
      </trkpt>
      <trkpt lat="45.6056" lon="0.0228">
        <ele>23</ele>
        <time>2026-08-12T10:26:10.000Z</time>
      </trkpt>
      <trkpt lat="45.60594" lon="0.02254">
        <ele>23</ele>
        <time>2026-08-12T10:26:18.000Z</time>
      </trkpt>
      <trkpt lat="45.60617" lon="0.02235">
        <ele>23</ele>
        <time>2026-08-12T10:26:24.000Z</time>
      </trkpt>
      <trkpt lat="45.60658" lon="0.02206">
        <ele>23</ele>
        <time>2026-08-12T10:26:35.000Z</time>
      </trkpt>
      <trkpt lat="45.6068" lon="0.0219">
        <ele>23</ele>
        <time>2026-08-12T10:26:41.000Z</time>
      </trkpt>
      <trkpt lat="45.60686" lon="0.02183">
        <ele>23</ele>
        <time>2026-08-12T10:26:43.000Z</time>
      </trkpt>
      <trkpt lat="45.60721" lon="0.02157">
        <ele>23</ele>
        <time>2026-08-12T10:26:52.000Z</time>
      </trkpt>
      <trkpt lat="45.60756" lon="0.02124">
        <ele>23.4</ele>
        <time>2026-08-12T10:27:02.000Z</time>
      </trkpt>
      <trkpt lat="45.60782" lon="0.02094">
        <ele>22.9</ele>
        <time>2026-08-12T10:27:10.000Z</time>
      </trkpt>
      <trkpt lat="45.60815" lon="0.02039">
        <ele>22.5</ele>
        <time>2026-08-12T10:27:22.000Z</time>
      </trkpt>
      <trkpt lat="45.6083" lon="0.01999">
        <ele>23</ele>
        <time>2026-08-12T10:27:30.000Z</time>
      </trkpt>
      <trkpt lat="45.60832" lon="0.01963">
        <ele>23</ele>
        <time>2026-08-12T10:27:36.000Z</time>
      </trkpt>
      <trkpt lat="45.60832" lon="0.01957">
        <ele>23</ele>
        <time>2026-08-12T10:27:37.000Z</time>
      </trkpt>
      <trkpt lat="45.60827" lon="0.01928">
        <ele>22.5</ele>
        <time>2026-08-12T10:27:42.000Z</time>
      </trkpt>
      <trkpt lat="45.60826" lon="0.01922">
        <ele>22.4</ele>
        <time>2026-08-12T10:27:43.000Z</time>
      </trkpt>
      <trkpt lat="45.60818" lon="0.01899">
        <ele>22.2</ele>
        <time>2026-08-12T10:27:47.000Z</time>
      </trkpt>
      <trkpt lat="45.60817" lon="0.01893">
        <ele>22.3</ele>
        <time>2026-08-12T10:27:48.000Z</time>
      </trkpt>
      <trkpt lat="45.6081" lon="0.01859">
        <ele>22.7</ele>
        <time>2026-08-12T10:27:53.000Z</time>
      </trkpt>
      <trkpt lat="45.60805" lon="0.01838">
        <ele>23</ele>
        <time>2026-08-12T10:27:56.000Z</time>
      </trkpt>
      <trkpt lat="45.60786" lon="0.0179">
        <ele>22.2</ele>
        <time>2026-08-12T10:28:04.000Z</time>
      </trkpt>
      <trkpt lat="45.60784" lon="0.01784">
        <ele>22.4</ele>
        <time>2026-08-12T10:28:05.000Z</time>
      </trkpt>
      <trkpt lat="45.60771" lon="0.01757">
        <ele>22.4</ele>
        <time>2026-08-12T10:28:10.000Z</time>
      </trkpt>
      <trkpt lat="45.60769" lon="0.01752">
        <ele>22.4</ele>
        <time>2026-08-12T10:28:11.000Z</time>
      </trkpt>
      <trkpt lat="45.60766" lon="0.01741">
        <ele>22.2</ele>
        <time>2026-08-12T10:28:13.000Z</time>
      </trkpt>
      <trkpt lat="45.60764" lon="0.01723">
        <ele>22</ele>
        <time>2026-08-12T10:28:16.000Z</time>
      </trkpt>
      <trkpt lat="45.60763" lon="0.01717">
        <ele>22.1</ele>
        <time>2026-08-12T10:28:17.000Z</time>
      </trkpt>
      <trkpt lat="45.60763" lon="0.0171">
        <ele>22.3</ele>
        <time>2026-08-12T10:28:18.000Z</time>
      </trkpt>
      <trkpt lat="45.60762" lon="0.01678">
        <ele>22.3</ele>
        <time>2026-08-12T10:28:23.000Z</time>
      </trkpt>
      <trkpt lat="45.60763" lon="0.01652">
        <ele>22</ele>
        <time>2026-08-12T10:28:27.000Z</time>
      </trkpt>
      <trkpt lat="45.60765" lon="0.01641">
        <ele>21.9</ele>
        <time>2026-08-12T10:28:29.000Z</time>
      </trkpt>
      <trkpt lat="45.60768" lon="0.01628">
        <ele>22</ele>
        <time>2026-08-12T10:28:31.000Z</time>
      </trkpt>
      <trkpt lat="45.60778" lon="0.01583">
        <ele>23</ele>
        <time>2026-08-12T10:28:39.000Z</time>
      </trkpt>
      <trkpt lat="45.60794" lon="0.01535">
        <ele>22.3</ele>
        <time>2026-08-12T10:28:47.000Z</time>
      </trkpt>
      <trkpt lat="45.60807" lon="0.01507">
        <ele>22.7</ele>
        <time>2026-08-12T10:28:52.000Z</time>
      </trkpt>
      <trkpt lat="45.60825" lon="0.01475">
        <ele>22.3</ele>
        <time>2026-08-12T10:28:58.000Z</time>
      </trkpt>
      <trkpt lat="45.60842" lon="0.01435">
        <ele>22.4</ele>
        <time>2026-08-12T10:29:05.000Z</time>
      </trkpt>
      <trkpt lat="45.60864" lon="0.01385">
        <ele>22.8</ele>
        <time>2026-08-12T10:29:14.000Z</time>
      </trkpt>
      <trkpt lat="45.60886" lon="0.01338">
        <ele>22.7</ele>
        <time>2026-08-12T10:29:23.000Z</time>
      </trkpt>
      <trkpt lat="45.60904" lon="0.01295">
        <ele>22.1</ele>
        <time>2026-08-12T10:29:31.000Z</time>
      </trkpt>
      <trkpt lat="45.60929" lon="0.01248">
        <ele>22.1</ele>
        <time>2026-08-12T10:29:40.000Z</time>
      </trkpt>
      <trkpt lat="45.60955" lon="0.01215">
        <ele>22.3</ele>
        <time>2026-08-12T10:29:48.000Z</time>
      </trkpt>
      <trkpt lat="45.60976" lon="0.01192">
        <ele>22.6</ele>
        <time>2026-08-12T10:29:54.000Z</time>
      </trkpt>
      <trkpt lat="45.6098" lon="0.01188">
        <ele>22.3</ele>
        <time>2026-08-12T10:29:55.000Z</time>
      </trkpt>
      <trkpt lat="45.60991" lon="0.01176">
        <ele>21.9</ele>
        <time>2026-08-12T10:29:58.000Z</time>
      </trkpt>
      <trkpt lat="45.61017" lon="0.01144">
        <ele>21.9</ele>
        <time>2026-08-12T10:30:05.000Z</time>
      </trkpt>
      <trkpt lat="45.61054" lon="0.01102">
        <ele>22</ele>
        <time>2026-08-12T10:30:15.000Z</time>
      </trkpt>
      <trkpt lat="45.61076" lon="0.01067">
        <ele>21.7</ele>
        <time>2026-08-12T10:30:22.000Z</time>
      </trkpt>
      <trkpt lat="45.61078" lon="0.01061">
        <ele>21.8</ele>
        <time>2026-08-12T10:30:23.000Z</time>
      </trkpt>
      <trkpt lat="45.61087" lon="0.01029">
        <ele>21.9</ele>
        <time>2026-08-12T10:30:28.000Z</time>
      </trkpt>
      <trkpt lat="45.61089" lon="0.01022">
        <ele>21.8</ele>
        <time>2026-08-12T10:30:29.000Z</time>
      </trkpt>
      <trkpt lat="45.61098" lon="0.00997">
        <ele>21.6</ele>
        <time>2026-08-12T10:30:33.000Z</time>
      </trkpt>
      <trkpt lat="45.61101" lon="0.00992">
        <ele>21.9</ele>
        <time>2026-08-12T10:30:34.000Z</time>
      </trkpt>
      <trkpt lat="45.61121" lon="0.00955">
        <ele>22.5</ele>
        <time>2026-08-12T10:30:41.000Z</time>
      </trkpt>
      <trkpt lat="45.61141" lon="0.00927">
        <ele>22.5</ele>
        <time>2026-08-12T10:30:47.000Z</time>
      </trkpt>
      <trkpt lat="45.61166" lon="0.009">
        <ele>22.2</ele>
        <time>2026-08-12T10:30:54.000Z</time>
      </trkpt>
      <trkpt lat="45.6117" lon="0.00897">
        <ele>22.4</ele>
        <time>2026-08-12T10:30:55.000Z</time>
      </trkpt>
      <trkpt lat="45.61208" lon="0.00867">
        <ele>21.9</ele>
        <time>2026-08-12T10:31:04.000Z</time>
      </trkpt>
      <trkpt lat="45.61239" lon="0.00837">
        <ele>22.2</ele>
        <time>2026-08-12T10:31:12.000Z</time>
      </trkpt>
      <trkpt lat="45.61272" lon="0.00808">
        <ele>21.9</ele>
        <time>2026-08-12T10:31:20.000Z</time>
      </trkpt>
      <trkpt lat="45.61296" lon="0.00787">
        <ele>21.8</ele>
        <time>2026-08-12T10:31:26.000Z</time>
      </trkpt>
      <trkpt lat="45.61313" lon="0.00773">
        <ele>21.8</ele>
        <time>2026-08-12T10:31:30.000Z</time>
      </trkpt>
      <trkpt lat="45.61325" lon="0.00763">
        <ele>21.7</ele>
        <time>2026-08-12T10:31:33.000Z</time>
      </trkpt>
      <trkpt lat="45.61337" lon="0.00752">
        <ele>21.8</ele>
        <time>2026-08-12T10:31:36.000Z</time>
      </trkpt>
      <trkpt lat="45.61374" lon="0.00718">
        <ele>21.7</ele>
        <time>2026-08-12T10:31:45.000Z</time>
      </trkpt>
      <trkpt lat="45.61405" lon="0.00684">
        <ele>22.1</ele>
        <time>2026-08-12T10:31:53.000Z</time>
      </trkpt>
      <trkpt lat="45.61413" lon="0.00675">
        <ele>21.9</ele>
        <time>2026-08-12T10:31:55.000Z</time>
      </trkpt>
      <trkpt lat="45.61424" lon="0.00662">
        <ele>21.8</ele>
        <time>2026-08-12T10:31:58.000Z</time>
      </trkpt>
      <trkpt lat="45.61444" lon="0.00641">
        <ele>21.9</ele>
        <time>2026-08-12T10:32:03.000Z</time>
      </trkpt>
      <trkpt lat="45.61475" lon="0.00621">
        <ele>21.7</ele>
        <time>2026-08-12T10:32:10.000Z</time>
      </trkpt>
      <trkpt lat="45.61505" lon="0.00609">
        <ele>22</ele>
        <time>2026-08-12T10:32:17.000Z</time>
      </trkpt>
      <trkpt lat="45.6151" lon="0.00608">
        <ele>22</ele>
        <time>2026-08-12T10:32:18.000Z</time>
      </trkpt>
      <trkpt lat="45.61515" lon="0.00606">
        <ele>22</ele>
        <time>2026-08-12T10:32:19.000Z</time>
      </trkpt>
      <trkpt lat="45.61538" lon="0.00604">
        <ele>21.7</ele>
        <time>2026-08-12T10:32:24.000Z</time>
      </trkpt>
      <trkpt lat="45.6157" lon="0.00595">
        <ele>21.6</ele>
        <time>2026-08-12T10:32:31.000Z</time>
      </trkpt>
      <trkpt lat="45.61608" lon="0.0059">
        <ele>21.8</ele>
        <time>2026-08-12T10:32:39.000Z</time>
      </trkpt>
      <trkpt lat="45.61652" lon="0.00588">
        <ele>21.8</ele>
        <time>2026-08-12T10:32:48.000Z</time>
      </trkpt>
      <trkpt lat="45.61684" lon="0.0059">
        <ele>21.8</ele>
        <time>2026-08-12T10:32:55.000Z</time>
      </trkpt>
      <trkpt lat="45.61721" lon="0.00591">
        <ele>21.7</ele>
        <time>2026-08-12T10:33:03.000Z</time>
      </trkpt>
      <trkpt lat="45.6173" lon="0.00582">
        <ele>22</ele>
        <time>2026-08-12T10:33:06.000Z</time>
      </trkpt>
      <trkpt lat="45.61732" lon="0.00576">
        <ele>22</ele>
        <time>2026-08-12T10:33:07.000Z</time>
      </trkpt>
      <trkpt lat="45.61733" lon="0.0057">
        <ele>22</ele>
        <time>2026-08-12T10:33:08.000Z</time>
      </trkpt>
      <trkpt lat="45.61735" lon="0.00551">
        <ele>22</ele>
        <time>2026-08-12T10:33:11.000Z</time>
      </trkpt>
      <trkpt lat="45.61737" lon="0.00537">
        <ele>22</ele>
        <time>2026-08-12T10:33:13.000Z</time>
      </trkpt>
      <trkpt lat="45.61741" lon="0.0047">
        <ele>21.9</ele>
        <time>2026-08-12T10:33:23.000Z</time>
      </trkpt>
      <trkpt lat="45.61741" lon="0.00463">
        <ele>21.8</ele>
        <time>2026-08-12T10:33:24.000Z</time>
      </trkpt>
      <trkpt lat="45.61746" lon="0.00392">
        <ele>22</ele>
        <time>2026-08-12T10:33:34.000Z</time>
      </trkpt>
      <trkpt lat="45.61746" lon="0.00378">
        <ele>22</ele>
        <time>2026-08-12T10:33:36.000Z</time>
      </trkpt>
      <trkpt lat="45.6175" lon="0.00343">
        <ele>23.3</ele>
        <time>2026-08-12T10:33:42.000Z</time>
      </trkpt>
      <trkpt lat="45.61758" lon="0.00332">
        <ele>23.9</ele>
        <time>2026-08-12T10:33:46.000Z</time>
      </trkpt>
      <trkpt lat="45.61768" lon="0.00326">
        <ele>24.4</ele>
        <time>2026-08-12T10:33:50.000Z</time>
      </trkpt>
      <trkpt lat="45.61774" lon="0.00323">
        <ele>24.6</ele>
        <time>2026-08-12T10:33:53.000Z</time>
      </trkpt>
      <trkpt lat="45.61803" lon="0.00312">
        <ele>25.2</ele>
        <time>2026-08-12T10:34:04.000Z</time>
      </trkpt>
      <trkpt lat="45.61805" lon="0.00311">
        <ele>25.3</ele>
        <time>2026-08-12T10:34:05.000Z</time>
      </trkpt>
      <trkpt lat="45.61828" lon="0.00302">
        <ele>24.8</ele>
        <time>2026-08-12T10:34:14.000Z</time>
      </trkpt>
      <trkpt lat="45.6183" lon="0.00302">
        <ele>24.7</ele>
        <time>2026-08-12T10:34:15.000Z</time>
      </trkpt>
      <trkpt lat="45.61833" lon="0.003">
        <ele>24.6</ele>
        <time>2026-08-12T10:34:17.000Z</time>
      </trkpt>
      <trkpt lat="45.61835" lon="0.003">
        <ele>24.6</ele>
        <time>2026-08-12T10:34:18.000Z</time>
      </trkpt>
      <trkpt lat="45.61844" lon="0.00299">
        <ele>24.8</ele>
        <time>2026-08-12T10:34:24.000Z</time>
      </trkpt>
      <trkpt lat="45.61844" lon="0.00299">
        <ele>24.8</ele>
        <time>2026-08-12T10:34:25.000Z</time>
      </trkpt>
      <trkpt lat="45.61851" lon="0.00297">
        <ele>24.9</ele>
        <time>2026-08-12T10:35:55.000Z</time>
      </trkpt>
      <trkpt lat="45.61855" lon="0.00295">
        <ele>25.1</ele>
        <time>2026-08-12T10:35:57.000Z</time>
      </trkpt>
      <trkpt lat="45.6186" lon="0.00287">
        <ele>26</ele>
        <time>2026-08-12T10:36:01.000Z</time>
      </trkpt>
      <trkpt lat="45.6186" lon="0.00284">
        <ele>26.3</ele>
        <time>2026-08-12T10:36:02.000Z</time>
      </trkpt>
      <trkpt lat="45.61861" lon="0.00276">
        <ele>27.1</ele>
        <time>2026-08-12T10:36:05.000Z</time>
      </trkpt>
      <trkpt lat="45.6186" lon="0.00269">
        <ele>27.4</ele>
        <time>2026-08-12T10:36:08.000Z</time>
      </trkpt>
      <trkpt lat="45.61859" lon="0.00259">
        <ele>27.9</ele>
        <time>2026-08-12T10:36:12.000Z</time>
      </trkpt>
      <trkpt lat="45.61856" lon="0.00255">
        <ele>28.3</ele>
        <time>2026-08-12T10:36:14.000Z</time>
      </trkpt>
      <trkpt lat="45.61845" lon="0.00253">
        <ele>29.4</ele>
        <time>2026-08-12T10:36:22.000Z</time>
      </trkpt>
      <trkpt lat="45.61839" lon="0.00254">
        <ele>29.9</ele>
        <time>2026-08-12T10:36:26.000Z</time>
      </trkpt>
      <trkpt lat="45.61836" lon="0.00255">
        <ele>30</ele>
        <time>2026-08-12T10:36:29.000Z</time>
      </trkpt>
      <trkpt lat="45.61834" lon="0.00256">
        <ele>30.1</ele>
        <time>2026-08-12T10:36:30.000Z</time>
      </trkpt>
      <trkpt lat="45.61833" lon="0.00256">
        <ele>30.2</ele>
        <time>2026-08-12T10:36:32.000Z</time>
      </trkpt>
      <trkpt lat="45.61832" lon="0.00257">
        <ele>30.2</ele>
        <time>2026-08-12T10:36:33.000Z</time>
      </trkpt>
      <trkpt lat="45.61822" lon="0.00261">
        <ele>30.9</ele>
        <time>2026-08-12T10:36:40.000Z</time>
      </trkpt>
      <trkpt lat="45.6182" lon="0.00262">
        <ele>31</ele>
        <time>2026-08-12T10:36:41.000Z</time>
      </trkpt>
      <trkpt lat="45.61816" lon="0.00264">
        <ele>31.2</ele>
        <time>2026-08-12T10:36:43.000Z</time>
      </trkpt>
      <trkpt lat="45.61807" lon="0.00269">
        <ele>31.4</ele>
        <time>2026-08-12T10:36:49.000Z</time>
      </trkpt>
      <trkpt lat="45.61805" lon="0.0027">
        <ele>31.6</ele>
        <time>2026-08-12T10:36:51.000Z</time>
      </trkpt>
      <trkpt lat="45.61799" lon="0.00271">
        <ele>32.1</ele>
        <time>2026-08-12T10:36:55.000Z</time>
      </trkpt>
      <trkpt lat="45.61797" lon="0.00272">
        <ele>32.1</ele>
        <time>2026-08-12T10:36:56.000Z</time>
      </trkpt>
      <trkpt lat="45.61788" lon="0.00276">
        <ele>32.9</ele>
        <time>2026-08-12T10:37:03.000Z</time>
      </trkpt>
      <trkpt lat="45.61782" lon="0.00278">
        <ele>33.4</ele>
        <time>2026-08-12T10:37:07.000Z</time>
      </trkpt>
      <trkpt lat="45.61771" lon="0.0028">
        <ele>34.3</ele>
        <time>2026-08-12T10:37:13.000Z</time>
      </trkpt>
      <trkpt lat="45.6177" lon="0.00281">
        <ele>34.4</ele>
        <time>2026-08-12T10:37:14.000Z</time>
      </trkpt>
      <trkpt lat="45.61757" lon="0.00284">
        <ele>34.8</ele>
        <time>2026-08-12T10:37:22.000Z</time>
      </trkpt>
      <trkpt lat="45.61754" lon="0.00285">
        <ele>34.9</ele>
        <time>2026-08-12T10:37:24.000Z</time>
      </trkpt>
      <trkpt lat="45.61751" lon="0.00285">
        <ele>35.2</ele>
        <time>2026-08-12T10:37:26.000Z</time>
      </trkpt>
      <trkpt lat="45.61744" lon="0.00283">
        <ele>36.5</ele>
        <time>2026-08-12T10:37:30.000Z</time>
      </trkpt>
      <trkpt lat="45.61744" lon="0.00282">
        <ele>37</ele>
        <time>2026-08-12T10:37:31.000Z</time>
      </trkpt>
      <trkpt lat="45.61742" lon="0.00277">
        <ele>38.7</ele>
        <time>2026-08-12T10:37:34.000Z</time>
      </trkpt>
      <trkpt lat="45.6174" lon="0.00272">
        <ele>39.5</ele>
        <time>2026-08-12T10:37:37.000Z</time>
      </trkpt>
      <trkpt lat="45.61739" lon="0.0027">
        <ele>39.8</ele>
        <time>2026-08-12T10:37:38.000Z</time>
      </trkpt>
      <trkpt lat="45.61738" lon="0.00268">
        <ele>40.1</ele>
        <time>2026-08-12T10:37:39.000Z</time>
      </trkpt>
      <trkpt lat="45.61736" lon="0.00255">
        <ele>41.9</ele>
        <time>2026-08-12T10:37:45.000Z</time>
      </trkpt>
      <trkpt lat="45.61735" lon="0.0025">
        <ele>42.7</ele>
        <time>2026-08-12T10:37:48.000Z</time>
      </trkpt>
      <trkpt lat="45.61733" lon="0.00246">
        <ele>42.9</ele>
        <time>2026-08-12T10:37:51.000Z</time>
      </trkpt>
      <trkpt lat="45.61732" lon="0.00241">
        <ele>43.1</ele>
        <time>2026-08-12T10:37:54.000Z</time>
      </trkpt>
      <trkpt lat="45.61731" lon="0.00237">
        <ele>43.2</ele>
        <time>2026-08-12T10:37:56.000Z</time>
      </trkpt>
      <trkpt lat="45.61731" lon="0.00232">
        <ele>43.3</ele>
        <time>2026-08-12T10:37:59.000Z</time>
      </trkpt>
      <trkpt lat="45.6173" lon="0.00229">
        <ele>43.4</ele>
        <time>2026-08-12T10:38:01.000Z</time>
      </trkpt>
      <trkpt lat="45.61725" lon="0.00209">
        <ele>43.8</ele>
        <time>2026-08-12T10:38:10.000Z</time>
      </trkpt>
      <trkpt lat="45.61724" lon="0.00206">
        <ele>43.9</ele>
        <time>2026-08-12T10:38:11.000Z</time>
      </trkpt>
      <trkpt lat="45.61719" lon="0.00183">
        <ele>43.8</ele>
        <time>2026-08-12T10:38:20.000Z</time>
      </trkpt>
      <trkpt lat="45.61714" lon="0.0016">
        <ele>43.6</ele>
        <time>2026-08-12T10:38:28.000Z</time>
      </trkpt>
      <trkpt lat="45.61709" lon="0.00144">
        <ele>44</ele>
        <time>2026-08-12T10:38:35.000Z</time>
      </trkpt>
      <trkpt lat="45.61708" lon="0.00142">
        <ele>44</ele>
        <time>2026-08-12T10:38:36.000Z</time>
      </trkpt>
      <trkpt lat="45.61705" lon="0.00129">
        <ele>44.3</ele>
        <time>2026-08-12T10:38:41.000Z</time>
      </trkpt>
      <trkpt lat="45.61698" lon="0.00111">
        <ele>44.7</ele>
        <time>2026-08-12T10:38:46.000Z</time>
      </trkpt>
      <trkpt lat="45.61685" lon="0.00076">
        <ele>44.1</ele>
        <time>2026-08-12T10:38:55.000Z</time>
      </trkpt>
      <trkpt lat="45.61675" lon="0.00046">
        <ele>43.4</ele>
        <time>2026-08-12T10:39:01.000Z</time>
      </trkpt>
      <trkpt lat="45.61668" lon="0.00029">
        <ele>43</ele>
        <time>2026-08-12T10:39:04.000Z</time>
      </trkpt>
      <trkpt lat="45.61664" lon="0.00017">
        <ele>43.2</ele>
        <time>2026-08-12T10:39:06.000Z</time>
      </trkpt>
      <trkpt lat="45.61661" lon="5.0E-5">
        <ele>43.4</ele>
        <time>2026-08-12T10:39:08.000Z</time>
      </trkpt>
      <trkpt lat="45.61656" lon="-0.00019">
        <ele>43.1</ele>
        <time>2026-08-12T10:39:12.000Z</time>
      </trkpt>
      <trkpt lat="45.6165" lon="-0.00055">
        <ele>42.2</ele>
        <time>2026-08-12T10:39:18.000Z</time>
      </trkpt>
      <trkpt lat="45.61649" lon="-0.00075">
        <ele>42.1</ele>
        <time>2026-08-12T10:39:21.000Z</time>
      </trkpt>
      <trkpt lat="45.6165" lon="-0.00103">
        <ele>41.4</ele>
        <time>2026-08-12T10:39:25.000Z</time>
      </trkpt>
      <trkpt lat="45.61658" lon="-0.00156">
        <ele>40.3</ele>
        <time>2026-08-12T10:39:33.000Z</time>
      </trkpt>
      <trkpt lat="45.61662" lon="-0.0019">
        <ele>40.9</ele>
        <time>2026-08-12T10:39:39.000Z</time>
      </trkpt>
      <trkpt lat="45.61663" lon="-0.00195">
        <ele>41</ele>
        <time>2026-08-12T10:39:40.000Z</time>
      </trkpt>
      <trkpt lat="45.61664" lon="-0.00199">
        <ele>41.3</ele>
        <time>2026-08-12T10:39:41.000Z</time>
      </trkpt>
      <trkpt lat="45.6167" lon="-0.00201">
        <ele>41.6</ele>
        <time>2026-08-12T10:39:43.000Z</time>
      </trkpt>
      <trkpt lat="45.61689" lon="-0.0019">
        <ele>41.5</ele>
        <time>2026-08-12T10:39:48.000Z</time>
      </trkpt>
      <trkpt lat="45.6173" lon="-0.00172">
        <ele>41.4</ele>
        <time>2026-08-12T10:39:58.000Z</time>
      </trkpt>
      <trkpt lat="45.61742" lon="-0.00169">
        <ele>41.1</ele>
        <time>2026-08-12T10:40:01.000Z</time>
      </trkpt>
      <trkpt lat="45.61746" lon="-0.00168">
        <ele>41.1</ele>
        <time>2026-08-12T10:40:02.000Z</time>
      </trkpt>
      <trkpt lat="45.6175" lon="-0.00169">
        <ele>41.1</ele>
        <time>2026-08-12T10:40:03.000Z</time>
      </trkpt>
      <trkpt lat="45.61754" lon="-0.0017">
        <ele>41.2</ele>
        <time>2026-08-12T10:40:04.000Z</time>
      </trkpt>
      <trkpt lat="45.6178" lon="-0.00186">
        <ele>41.7</ele>
        <time>2026-08-12T10:40:11.000Z</time>
      </trkpt>
      <trkpt lat="45.6181" lon="-0.00201">
        <ele>42.2</ele>
        <time>2026-08-12T10:40:19.000Z</time>
      </trkpt>
      <trkpt lat="45.61813" lon="-0.00202">
        <ele>42.3</ele>
        <time>2026-08-12T10:40:20.000Z</time>
      </trkpt>
      <trkpt lat="45.61817" lon="-0.00203">
        <ele>42.3</ele>
        <time>2026-08-12T10:40:21.000Z</time>
      </trkpt>
      <trkpt lat="45.61835" lon="-0.0021">
        <ele>42.5</ele>
        <time>2026-08-12T10:40:27.000Z</time>
      </trkpt>
      <trkpt lat="45.61844" lon="-0.00211">
        <ele>42.6</ele>
        <time>2026-08-12T10:40:30.000Z</time>
      </trkpt>
      <trkpt lat="45.61857" lon="-0.00212">
        <ele>42.6</ele>
        <time>2026-08-12T10:40:34.000Z</time>
      </trkpt>
      <trkpt lat="45.61887" lon="-0.00216">
        <ele>42.8</ele>
        <time>2026-08-12T10:40:43.000Z</time>
      </trkpt>
      <trkpt lat="45.61908" lon="-0.00221">
        <ele>43</ele>
        <time>2026-08-12T10:40:49.000Z</time>
      </trkpt>
      <trkpt lat="45.61935" lon="-0.00237">
        <ele>42.7</ele>
        <time>2026-08-12T10:40:56.000Z</time>
      </trkpt>
      <trkpt lat="45.61941" lon="-0.00243">
        <ele>42.8</ele>
        <time>2026-08-12T10:40:58.000Z</time>
      </trkpt>
      <trkpt lat="45.61953" lon="-0.00255">
        <ele>42.8</ele>
        <time>2026-08-12T10:41:02.000Z</time>
      </trkpt>
      <trkpt lat="45.61975" lon="-0.00282">
        <ele>42.8</ele>
        <time>2026-08-12T10:41:10.000Z</time>
      </trkpt>
      <trkpt lat="45.61996" lon="-0.00317">
        <ele>41.6</ele>
        <time>2026-08-12T10:41:18.000Z</time>
      </trkpt>
      <trkpt lat="45.62009" lon="-0.0034">
        <ele>41.4</ele>
        <time>2026-08-12T10:41:23.000Z</time>
      </trkpt>
      <trkpt lat="45.62018" lon="-0.00354">
        <ele>41.2</ele>
        <time>2026-08-12T10:41:26.000Z</time>
      </trkpt>
      <trkpt lat="45.62036" lon="-0.0038">
        <ele>41.2</ele>
        <time>2026-08-12T10:41:32.000Z</time>
      </trkpt>
      <trkpt lat="45.62039" lon="-0.00384">
        <ele>41.1</ele>
        <time>2026-08-12T10:41:33.000Z</time>
      </trkpt>
      <trkpt lat="45.62042" lon="-0.00387">
        <ele>41</ele>
        <time>2026-08-12T10:41:34.000Z</time>
      </trkpt>
      <trkpt lat="45.62077" lon="-0.00424">
        <ele>40.4</ele>
        <time>2026-08-12T10:41:44.000Z</time>
      </trkpt>
      <trkpt lat="45.62107" lon="-0.00464">
        <ele>40.7</ele>
        <time>2026-08-12T10:41:53.000Z</time>
      </trkpt>
      <trkpt lat="45.62118" lon="-0.00484">
        <ele>40.8</ele>
        <time>2026-08-12T10:41:57.000Z</time>
      </trkpt>
      <trkpt lat="45.62133" lon="-0.00514">
        <ele>40.7</ele>
        <time>2026-08-12T10:42:03.000Z</time>
      </trkpt>
      <trkpt lat="45.62148" lon="-0.00556">
        <ele>41.7</ele>
        <time>2026-08-12T10:42:12.000Z</time>
      </trkpt>
      <trkpt lat="45.62164" lon="-0.00595">
        <ele>41.1</ele>
        <time>2026-08-12T10:42:20.000Z</time>
      </trkpt>
      <trkpt lat="45.62182" lon="-0.00613">
        <ele>41</ele>
        <time>2026-08-12T10:42:25.000Z</time>
      </trkpt>
      <trkpt lat="45.62211" lon="-0.00643">
        <ele>40.3</ele>
        <time>2026-08-12T10:42:33.000Z</time>
      </trkpt>
      <trkpt lat="45.62229" lon="-0.00665">
        <ele>39.7</ele>
        <time>2026-08-12T10:42:38.000Z</time>
      </trkpt>
      <trkpt lat="45.62238" lon="-0.00673">
        <ele>39.3</ele>
        <time>2026-08-12T10:42:40.000Z</time>
      </trkpt>
      <trkpt lat="45.62242" lon="-0.00676">
        <ele>39.2</ele>
        <time>2026-08-12T10:42:41.000Z</time>
      </trkpt>
      <trkpt lat="45.62262" lon="-0.00689">
        <ele>38.1</ele>
        <time>2026-08-12T10:42:45.000Z</time>
      </trkpt>
      <trkpt lat="45.62273" lon="-0.00695">
        <ele>37.3</ele>
        <time>2026-08-12T10:42:47.000Z</time>
      </trkpt>
      <trkpt lat="45.62294" lon="-0.00704">
        <ele>35.8</ele>
        <time>2026-08-12T10:42:51.000Z</time>
      </trkpt>
      <trkpt lat="45.62305" lon="-0.00707">
        <ele>35</ele>
        <time>2026-08-12T10:42:53.000Z</time>
      </trkpt>
      <trkpt lat="45.62311" lon="-0.00709">
        <ele>34.5</ele>
        <time>2026-08-12T10:42:54.000Z</time>
      </trkpt>
      <trkpt lat="45.62316" lon="-0.00709">
        <ele>34</ele>
        <time>2026-08-12T10:42:55.000Z</time>
      </trkpt>
      <trkpt lat="45.62332" lon="-0.00713">
        <ele>32.8</ele>
        <time>2026-08-12T10:42:58.000Z</time>
      </trkpt>
      <trkpt lat="45.6234" lon="-0.00721">
        <ele>32.2</ele>
        <time>2026-08-12T10:43:00.000Z</time>
      </trkpt>
      <trkpt lat="45.62343" lon="-0.00727">
        <ele>32</ele>
        <time>2026-08-12T10:43:01.000Z</time>
      </trkpt>
      <trkpt lat="45.62344" lon="-0.00734">
        <ele>31.9</ele>
        <time>2026-08-12T10:43:02.000Z</time>
      </trkpt>
      <trkpt lat="45.62344" lon="-0.0074">
        <ele>31.8</ele>
        <time>2026-08-12T10:43:03.000Z</time>
      </trkpt>
      <trkpt lat="45.62345" lon="-0.00755">
        <ele>31.8</ele>
        <time>2026-08-12T10:43:05.000Z</time>
      </trkpt>
      <trkpt lat="45.62343" lon="-0.00783">
        <ele>31.8</ele>
        <time>2026-08-12T10:43:09.000Z</time>
      </trkpt>
      <trkpt lat="45.62342" lon="-0.0079">
        <ele>31.7</ele>
        <time>2026-08-12T10:43:10.000Z</time>
      </trkpt>
      <trkpt lat="45.62337" lon="-0.00853">
        <ele>31.7</ele>
        <time>2026-08-12T10:43:19.000Z</time>
      </trkpt>
      <trkpt lat="45.62335" lon="-0.00867">
        <ele>31.9</ele>
        <time>2026-08-12T10:43:21.000Z</time>
      </trkpt>
      <trkpt lat="45.62329" lon="-0.00928">
        <ele>30.3</ele>
        <time>2026-08-12T10:43:29.000Z</time>
      </trkpt>
      <trkpt lat="45.62322" lon="-0.00968">
        <ele>30.5</ele>
        <time>2026-08-12T10:43:34.000Z</time>
      </trkpt>
      <trkpt lat="45.62318" lon="-0.00991">
        <ele>30.6</ele>
        <time>2026-08-12T10:43:37.000Z</time>
      </trkpt>
      <trkpt lat="45.62308" lon="-0.01035">
        <ele>29.7</ele>
        <time>2026-08-12T10:43:43.000Z</time>
      </trkpt>
      <trkpt lat="45.62305" lon="-0.01048">
        <ele>29.3</ele>
        <time>2026-08-12T10:43:45.000Z</time>
      </trkpt>
      <trkpt lat="45.62291" lon="-0.01094">
        <ele>29.1</ele>
        <time>2026-08-12T10:43:52.000Z</time>
      </trkpt>
      <trkpt lat="45.62277" lon="-0.01124">
        <ele>29</ele>
        <time>2026-08-12T10:43:57.000Z</time>
      </trkpt>
      <trkpt lat="45.62272" lon="-0.01135">
        <ele>28.8</ele>
        <time>2026-08-12T10:43:59.000Z</time>
      </trkpt>
      <trkpt lat="45.6227" lon="-0.0114">
        <ele>28.7</ele>
        <time>2026-08-12T10:44:00.000Z</time>
      </trkpt>
      <trkpt lat="45.62272" lon="-0.0115">
        <ele>28.8</ele>
        <time>2026-08-12T10:44:02.000Z</time>
      </trkpt>
      <trkpt lat="45.62284" lon="-0.0116">
        <ele>28.8</ele>
        <time>2026-08-12T10:44:06.000Z</time>
      </trkpt>
      <trkpt lat="45.62303" lon="-0.01164">
        <ele>28.1</ele>
        <time>2026-08-12T10:44:11.000Z</time>
      </trkpt>
      <trkpt lat="45.62307" lon="-0.01162">
        <ele>27.9</ele>
        <time>2026-08-12T10:44:12.000Z</time>
      </trkpt>
      <trkpt lat="45.62317" lon="-0.01158">
        <ele>27.6</ele>
        <time>2026-08-12T10:44:14.000Z</time>
      </trkpt>
      <trkpt lat="45.62322" lon="-0.01154">
        <ele>27.4</ele>
        <time>2026-08-12T10:44:15.000Z</time>
      </trkpt>
      <trkpt lat="45.62326" lon="-0.01149">
        <ele>27.3</ele>
        <time>2026-08-12T10:44:16.000Z</time>
      </trkpt>
      <trkpt lat="45.62337" lon="-0.0113">
        <ele>27.3</ele>
        <time>2026-08-12T10:44:19.000Z</time>
      </trkpt>
      <trkpt lat="45.62348" lon="-0.01107">
        <ele>27.5</ele>
        <time>2026-08-12T10:44:23.000Z</time>
      </trkpt>
      <trkpt lat="45.62361" lon="-0.01086">
        <ele>27.9</ele>
        <time>2026-08-12T10:44:27.000Z</time>
      </trkpt>
      <trkpt lat="45.62364" lon="-0.01082">
        <ele>27.9</ele>
        <time>2026-08-12T10:44:28.000Z</time>
      </trkpt>
      <trkpt lat="45.62368" lon="-0.01078">
        <ele>27.7</ele>
        <time>2026-08-12T10:44:29.000Z</time>
      </trkpt>
      <trkpt lat="45.62377" lon="-0.01072">
        <ele>27.4</ele>
        <time>2026-08-12T10:44:31.000Z</time>
      </trkpt>
      <trkpt lat="45.62387" lon="-0.01069">
        <ele>27.1</ele>
        <time>2026-08-12T10:44:33.000Z</time>
      </trkpt>
      <trkpt lat="45.62413" lon="-0.01068">
        <ele>26.2</ele>
        <time>2026-08-12T10:44:38.000Z</time>
      </trkpt>
      <trkpt lat="45.62428" lon="-0.01062">
        <ele>26</ele>
        <time>2026-08-12T10:44:41.000Z</time>
      </trkpt>
      <trkpt lat="45.6245" lon="-0.01055">
        <ele>26</ele>
        <time>2026-08-12T10:44:45.000Z</time>
      </trkpt>
      <trkpt lat="45.62456" lon="-0.01055">
        <ele>26</ele>
        <time>2026-08-12T10:44:46.000Z</time>
      </trkpt>
      <trkpt lat="45.62461" lon="-0.01057">
        <ele>26</ele>
        <time>2026-08-12T10:44:47.000Z</time>
      </trkpt>
      <trkpt lat="45.62477" lon="-0.01067">
        <ele>25.9</ele>
        <time>2026-08-12T10:44:50.000Z</time>
      </trkpt>
      <trkpt lat="45.62518" lon="-0.01102">
        <ele>26</ele>
        <time>2026-08-12T10:44:59.000Z</time>
      </trkpt>
      <trkpt lat="45.62528" lon="-0.01108">
        <ele>26</ele>
        <time>2026-08-12T10:45:01.000Z</time>
      </trkpt>
      <trkpt lat="45.62538" lon="-0.01108">
        <ele>25.7</ele>
        <time>2026-08-12T10:45:03.000Z</time>
      </trkpt>
      <trkpt lat="45.62546" lon="-0.01099">
        <ele>25.6</ele>
        <time>2026-08-12T10:45:05.000Z</time>
      </trkpt>
      <trkpt lat="45.62549" lon="-0.01093">
        <ele>25.7</ele>
        <time>2026-08-12T10:45:06.000Z</time>
      </trkpt>
      <trkpt lat="45.62577" lon="-0.0104">
        <ele>25.7</ele>
        <time>2026-08-12T10:45:15.000Z</time>
      </trkpt>
      <trkpt lat="45.626" lon="-0.00985">
        <ele>25.3</ele>
        <time>2026-08-12T10:45:24.000Z</time>
      </trkpt>
      <trkpt lat="45.62614" lon="-0.00932">
        <ele>25.9</ele>
        <time>2026-08-12T10:45:32.000Z</time>
      </trkpt>
      <trkpt lat="45.62624" lon="-0.00884">
        <ele>25.6</ele>
        <time>2026-08-12T10:45:39.000Z</time>
      </trkpt>
      <trkpt lat="45.62634" lon="-0.00827">
        <ele>26</ele>
        <time>2026-08-12T10:45:47.000Z</time>
      </trkpt>
      <trkpt lat="45.62644" lon="-0.00783">
        <ele>26</ele>
        <time>2026-08-12T10:45:53.000Z</time>
      </trkpt>
      <trkpt lat="45.62646" lon="-0.00777">
        <ele>26</ele>
        <time>2026-08-12T10:45:54.000Z</time>
      </trkpt>
      <trkpt lat="45.6265" lon="-0.00771">
        <ele>25.9</ele>
        <time>2026-08-12T10:45:55.000Z</time>
      </trkpt>
      <trkpt lat="45.62659" lon="-0.00764">
        <ele>25.6</ele>
        <time>2026-08-12T10:45:57.000Z</time>
      </trkpt>
      <trkpt lat="45.62692" lon="-0.0076">
        <ele>25.9</ele>
        <time>2026-08-12T10:46:03.000Z</time>
      </trkpt>
      <trkpt lat="45.62736" lon="-0.00757">
        <ele>25.1</ele>
        <time>2026-08-12T10:46:11.000Z</time>
      </trkpt>
      <trkpt lat="45.62782" lon="-0.00752">
        <ele>25</ele>
        <time>2026-08-12T10:46:19.000Z</time>
      </trkpt>
      <trkpt lat="45.62794" lon="-0.00751">
        <ele>25</ele>
        <time>2026-08-12T10:46:21.000Z</time>
      </trkpt>
      <trkpt lat="45.62838" lon="-0.00739">
        <ele>24.9</ele>
        <time>2026-08-12T10:46:29.000Z</time>
      </trkpt>
      <trkpt lat="45.6288" lon="-0.00722">
        <ele>24.3</ele>
        <time>2026-08-12T10:46:37.000Z</time>
      </trkpt>
      <trkpt lat="45.62907" lon="-0.0071">
        <ele>23.3</ele>
        <time>2026-08-12T10:46:42.000Z</time>
      </trkpt>
      <trkpt lat="45.62928" lon="-0.007">
        <ele>22.3</ele>
        <time>2026-08-12T10:46:46.000Z</time>
      </trkpt>
      <trkpt lat="45.62933" lon="-0.00697">
        <ele>22</ele>
        <time>2026-08-12T10:46:47.000Z</time>
      </trkpt>
      <trkpt lat="45.62942" lon="-0.00697">
        <ele>21.4</ele>
        <time>2026-08-12T10:46:49.000Z</time>
      </trkpt>
      <trkpt lat="45.62945" lon="-0.00701">
        <ele>21.4</ele>
        <time>2026-08-12T10:46:50.000Z</time>
      </trkpt>
      <trkpt lat="45.62948" lon="-0.00707">
        <ele>21.7</ele>
        <time>2026-08-12T10:46:51.000Z</time>
      </trkpt>
      <trkpt lat="45.62951" lon="-0.00714">
        <ele>21.9</ele>
        <time>2026-08-12T10:46:52.000Z</time>
      </trkpt>
      <trkpt lat="45.62952" lon="-0.0072">
        <ele>22.1</ele>
        <time>2026-08-12T10:46:53.000Z</time>
      </trkpt>
      <trkpt lat="45.62959" lon="-0.00749">
        <ele>21.4</ele>
        <time>2026-08-12T10:46:57.000Z</time>
      </trkpt>
      <trkpt lat="45.62965" lon="-0.00777">
        <ele>20.8</ele>
        <time>2026-08-12T10:47:01.000Z</time>
      </trkpt>
      <trkpt lat="45.62974" lon="-0.00818">
        <ele>21.4</ele>
        <time>2026-08-12T10:47:07.000Z</time>
      </trkpt>
      <trkpt lat="45.62984" lon="-0.00863">
        <ele>21.2</ele>
        <time>2026-08-12T10:47:13.000Z</time>
      </trkpt>
      <trkpt lat="45.62995" lon="-0.00933">
        <ele>20.7</ele>
        <time>2026-08-12T10:47:23.000Z</time>
      </trkpt>
      <trkpt lat="45.62998" lon="-0.00953">
        <ele>21</ele>
        <time>2026-08-12T10:47:26.000Z</time>
      </trkpt>
      <trkpt lat="45.63001" lon="-0.00973">
        <ele>21</ele>
        <time>2026-08-12T10:47:29.000Z</time>
      </trkpt>
      <trkpt lat="45.63005" lon="-0.01026">
        <ele>20.8</ele>
        <time>2026-08-12T10:47:37.000Z</time>
      </trkpt>
      <trkpt lat="45.63006" lon="-0.01059">
        <ele>20.8</ele>
        <time>2026-08-12T10:47:42.000Z</time>
      </trkpt>
      <trkpt lat="45.63006" lon="-0.01066">
        <ele>20.8</ele>
        <time>2026-08-12T10:47:43.000Z</time>
      </trkpt>
      <trkpt lat="45.63012" lon="-0.01122">
        <ele>20.6</ele>
        <time>2026-08-12T10:47:52.000Z</time>
      </trkpt>
      <trkpt lat="45.63015" lon="-0.01158">
        <ele>20.4</ele>
        <time>2026-08-12T10:47:58.000Z</time>
      </trkpt>
      <trkpt lat="45.63017" lon="-0.01177">
        <ele>20.4</ele>
        <time>2026-08-12T10:48:01.000Z</time>
      </trkpt>
      <trkpt lat="45.63018" lon="-0.0121">
        <ele>20.4</ele>
        <time>2026-08-12T10:48:06.000Z</time>
      </trkpt>
      <trkpt lat="45.63018" lon="-0.01224">
        <ele>20.4</ele>
        <time>2026-08-12T10:48:08.000Z</time>
      </trkpt>
      <trkpt lat="45.6302" lon="-0.01279">
        <ele>21</ele>
        <time>2026-08-12T10:48:16.000Z</time>
      </trkpt>
      <trkpt lat="45.6302" lon="-0.01346">
        <ele>20.7</ele>
        <time>2026-08-12T10:48:26.000Z</time>
      </trkpt>
      <trkpt lat="45.63016" lon="-0.01412">
        <ele>20.4</ele>
        <time>2026-08-12T10:48:36.000Z</time>
      </trkpt>
      <trkpt lat="45.6301" lon="-0.0145">
        <ele>20.7</ele>
        <time>2026-08-12T10:48:42.000Z</time>
      </trkpt>
      <trkpt lat="45.63008" lon="-0.01457">
        <ele>20.7</ele>
        <time>2026-08-12T10:48:43.000Z</time>
      </trkpt>
      <trkpt lat="45.62991" lon="-0.01505">
        <ele>20.3</ele>
        <time>2026-08-12T10:48:51.000Z</time>
      </trkpt>
      <trkpt lat="45.6298" lon="-0.01528">
        <ele>20.7</ele>
        <time>2026-08-12T10:48:55.000Z</time>
      </trkpt>
      <trkpt lat="45.62968" lon="-0.01548">
        <ele>21</ele>
        <time>2026-08-12T10:48:59.000Z</time>
      </trkpt>
      <trkpt lat="45.62929" lon="-0.016">
        <ele>20.7</ele>
        <time>2026-08-12T10:49:10.000Z</time>
      </trkpt>
      <trkpt lat="45.62906" lon="-0.0164">
        <ele>20.4</ele>
        <time>2026-08-12T10:49:18.000Z</time>
      </trkpt>
      <trkpt lat="45.62879" lon="-0.01689">
        <ele>20.5</ele>
        <time>2026-08-12T10:49:27.000Z</time>
      </trkpt>
      <trkpt lat="45.62874" lon="-0.017">
        <ele>20.5</ele>
        <time>2026-08-12T10:49:29.000Z</time>
      </trkpt>
      <trkpt lat="45.62862" lon="-0.01727">
        <ele>20.8</ele>
        <time>2026-08-12T10:49:34.000Z</time>
      </trkpt>
      <trkpt lat="45.62846" lon="-0.01767">
        <ele>20.5</ele>
        <time>2026-08-12T10:49:41.000Z</time>
      </trkpt>
      <trkpt lat="45.62836" lon="-0.01791">
        <ele>20.9</ele>
        <time>2026-08-12T10:49:45.000Z</time>
      </trkpt>
      <trkpt lat="45.62834" lon="-0.01797">
        <ele>21</ele>
        <time>2026-08-12T10:49:46.000Z</time>
      </trkpt>
      <trkpt lat="45.62831" lon="-0.01809">
        <ele>20.9</ele>
        <time>2026-08-12T10:49:48.000Z</time>
      </trkpt>
      <trkpt lat="45.62826" lon="-0.01821">
        <ele>20.6</ele>
        <time>2026-08-12T10:49:50.000Z</time>
      </trkpt>
      <trkpt lat="45.62818" lon="-0.01853">
        <ele>20.6</ele>
        <time>2026-08-12T10:49:55.000Z</time>
      </trkpt>
      <trkpt lat="45.62803" lon="-0.01906">
        <ele>20.5</ele>
        <time>2026-08-12T10:50:04.000Z</time>
      </trkpt>
      <trkpt lat="45.62789" lon="-0.01957">
        <ele>20.6</ele>
        <time>2026-08-12T10:50:12.000Z</time>
      </trkpt>
      <trkpt lat="45.62773" lon="-0.02013">
        <ele>20.2</ele>
        <time>2026-08-12T10:50:21.000Z</time>
      </trkpt>
      <trkpt lat="45.62769" lon="-0.02026">
        <ele>20.3</ele>
        <time>2026-08-12T10:50:23.000Z</time>
      </trkpt>
      <trkpt lat="45.62761" lon="-0.02058">
        <ele>20.6</ele>
        <time>2026-08-12T10:50:28.000Z</time>
      </trkpt>
      <trkpt lat="45.62756" lon="-0.0207">
        <ele>20.8</ele>
        <time>2026-08-12T10:50:30.000Z</time>
      </trkpt>
      <trkpt lat="45.62744" lon="-0.02107">
        <ele>20.3</ele>
        <time>2026-08-12T10:50:36.000Z</time>
      </trkpt>
      <trkpt lat="45.62738" lon="-0.02125">
        <ele>20.4</ele>
        <time>2026-08-12T10:50:39.000Z</time>
      </trkpt>
      <trkpt lat="45.6273" lon="-0.02147">
        <ele>20.7</ele>
        <time>2026-08-12T10:50:43.000Z</time>
      </trkpt>
      <trkpt lat="45.6271" lon="-0.02189">
        <ele>20.6</ele>
        <time>2026-08-12T10:50:51.000Z</time>
      </trkpt>
      <trkpt lat="45.6269" lon="-0.02224">
        <ele>20.2</ele>
        <time>2026-08-12T10:50:58.000Z</time>
      </trkpt>
      <trkpt lat="45.62675" lon="-0.02253">
        <ele>20.6</ele>
        <time>2026-08-12T10:51:04.000Z</time>
      </trkpt>
      <trkpt lat="45.62664" lon="-0.02274">
        <ele>20.2</ele>
        <time>2026-08-12T10:51:08.000Z</time>
      </trkpt>
      <trkpt lat="45.62659" lon="-0.02284">
        <ele>20.3</ele>
        <time>2026-08-12T10:51:10.000Z</time>
      </trkpt>
      <trkpt lat="45.62656" lon="-0.02289">
        <ele>20.4</ele>
        <time>2026-08-12T10:51:11.000Z</time>
      </trkpt>
      <trkpt lat="45.62652" lon="-0.02293">
        <ele>20.5</ele>
        <time>2026-08-12T10:51:12.000Z</time>
      </trkpt>
      <trkpt lat="45.62644" lon="-0.023">
        <ele>20.8</ele>
        <time>2026-08-12T10:51:14.000Z</time>
      </trkpt>
      <trkpt lat="45.6263" lon="-0.02308">
        <ele>21</ele>
        <time>2026-08-12T10:51:17.000Z</time>
      </trkpt>
      <trkpt lat="45.62625" lon="-0.02311">
        <ele>20.9</ele>
        <time>2026-08-12T10:51:18.000Z</time>
      </trkpt>
      <trkpt lat="45.626" lon="-0.0232">
        <ele>20.7</ele>
        <time>2026-08-12T10:51:23.000Z</time>
      </trkpt>
      <trkpt lat="45.62569" lon="-0.02339">
        <ele>20.8</ele>
        <time>2026-08-12T10:51:30.000Z</time>
      </trkpt>
      <trkpt lat="45.62545" lon="-0.02355">
        <ele>20.5</ele>
        <time>2026-08-12T10:51:36.000Z</time>
      </trkpt>
      <trkpt lat="45.62541" lon="-0.02357">
        <ele>20.6</ele>
        <time>2026-08-12T10:51:37.000Z</time>
      </trkpt>
      <trkpt lat="45.62532" lon="-0.02359">
        <ele>20.9</ele>
        <time>2026-08-12T10:51:39.000Z</time>
      </trkpt>
      <trkpt lat="45.62522" lon="-0.02357">
        <ele>20.8</ele>
        <time>2026-08-12T10:51:41.000Z</time>
      </trkpt>
      <trkpt lat="45.62509" lon="-0.02345">
        <ele>20.7</ele>
        <time>2026-08-12T10:51:44.000Z</time>
      </trkpt>
      <trkpt lat="45.62503" lon="-0.02336">
        <ele>20.9</ele>
        <time>2026-08-12T10:51:46.000Z</time>
      </trkpt>
      <trkpt lat="45.62476" lon="-0.02294">
        <ele>20.1</ele>
        <time>2026-08-12T10:51:54.000Z</time>
      </trkpt>
      <trkpt lat="45.62449" lon="-0.02258">
        <ele>20.6</ele>
        <time>2026-08-12T10:52:02.000Z</time>
      </trkpt>
      <trkpt lat="45.62441" lon="-0.02252">
        <ele>20.9</ele>
        <time>2026-08-12T10:52:04.000Z</time>
      </trkpt>
      <trkpt lat="45.62429" lon="-0.02247">
        <ele>21</ele>
        <time>2026-08-12T10:52:07.000Z</time>
      </trkpt>
      <trkpt lat="45.6242" lon="-0.02247">
        <ele>21</ele>
        <time>2026-08-12T10:52:09.000Z</time>
      </trkpt>
      <trkpt lat="45.62415" lon="-0.02248">
        <ele>20.9</ele>
        <time>2026-08-12T10:52:10.000Z</time>
      </trkpt>
      <trkpt lat="45.62406" lon="-0.02252">
        <ele>20.6</ele>
        <time>2026-08-12T10:52:12.000Z</time>
      </trkpt>
      <trkpt lat="45.62392" lon="-0.02262">
        <ele>20.1</ele>
        <time>2026-08-12T10:52:15.000Z</time>
      </trkpt>
      <trkpt lat="45.62384" lon="-0.02272">
        <ele>20</ele>
        <time>2026-08-12T10:52:17.000Z</time>
      </trkpt>
      <trkpt lat="45.62377" lon="-0.02282">
        <ele>20</ele>
        <time>2026-08-12T10:52:19.000Z</time>
      </trkpt>
      <trkpt lat="45.62367" lon="-0.02306">
        <ele>20</ele>
        <time>2026-08-12T10:52:23.000Z</time>
      </trkpt>
      <trkpt lat="45.62351" lon="-0.02364">
        <ele>20</ele>
        <time>2026-08-12T10:52:32.000Z</time>
      </trkpt>
      <trkpt lat="45.6234" lon="-0.02404">
        <ele>20</ele>
        <time>2026-08-12T10:52:39.000Z</time>
      </trkpt>
      <trkpt lat="45.62334" lon="-0.02425">
        <ele>20</ele>
        <time>2026-08-12T10:52:44.000Z</time>
      </trkpt>
      <trkpt lat="45.62331" lon="-0.02427">
        <ele>20</ele>
        <time>2026-08-12T10:52:45.000Z</time>
      </trkpt>
      <trkpt lat="45.62324" lon="-0.02425">
        <ele>20</ele>
        <time>2026-08-12T10:52:47.000Z</time>
      </trkpt>
      <trkpt lat="45.62312" lon="-0.02413">
        <ele>20</ele>
        <time>2026-08-12T10:52:51.000Z</time>
      </trkpt>
      <trkpt lat="45.623" lon="-0.02381">
        <ele>20.1</ele>
        <time>2026-08-12T10:52:57.000Z</time>
      </trkpt>
      <trkpt lat="45.62291" lon="-0.02367">
        <ele>20.1</ele>
        <time>2026-08-12T10:53:01.000Z</time>
      </trkpt>
      <trkpt lat="45.62289" lon="-0.02371">
        <ele>20.2</ele>
        <time>2026-08-12T10:53:03.000Z</time>
      </trkpt>
      <trkpt lat="45.62287" lon="-0.02378">
        <ele>20.4</ele>
        <time>2026-08-12T10:53:06.000Z</time>
      </trkpt>
      <trkpt lat="45.62283" lon="-0.02378">
        <ele>20.5</ele>
        <time>2026-08-12T10:53:08.000Z</time>
      </trkpt>
      <trkpt lat="45.6228" lon="-0.0238">
        <ele>20.6</ele>
        <time>2026-08-12T10:53:09.000Z</time>
      </trkpt>
      <trkpt lat="45.62276" lon="-0.02388">
        <ele>20.9</ele>
        <time>2026-08-12T10:53:11.000Z</time>
      </trkpt>
      <trkpt lat="45.62268" lon="-0.02417">
        <ele>20.6</ele>
        <time>2026-08-12T10:53:17.000Z</time>
      </trkpt>
      <trkpt lat="45.6226" lon="-0.02443">
        <ele>20</ele>
        <time>2026-08-12T10:53:23.000Z</time>
      </trkpt>
      <trkpt lat="45.62251" lon="-0.02469">
        <ele>20.9</ele>
        <time>2026-08-12T10:53:30.000Z</time>
      </trkpt>
      <trkpt lat="45.62248" lon="-0.02475">
        <ele>21.1</ele>
        <time>2026-08-12T10:53:32.000Z</time>
      </trkpt>
      <trkpt lat="45.62242" lon="-0.02494">
        <ele>21.8</ele>
        <time>2026-08-12T10:53:37.000Z</time>
      </trkpt>
      <trkpt lat="45.62234" lon="-0.02525">
        <ele>21.6</ele>
        <time>2026-08-12T10:53:45.000Z</time>
      </trkpt>
      <trkpt lat="45.62227" lon="-0.02546">
        <ele>20.3</ele>
        <time>2026-08-12T10:53:52.000Z</time>
      </trkpt>
      <trkpt lat="45.6222" lon="-0.02559">
        <ele>20</ele>
        <time>2026-08-12T10:53:57.000Z</time>
      </trkpt>
      <trkpt lat="45.62206" lon="-0.02563">
        <ele>20</ele>
        <time>2026-08-12T10:54:02.000Z</time>
      </trkpt>
      <trkpt lat="45.62191" lon="-0.02553">
        <ele>20</ele>
        <time>2026-08-12T10:54:08.000Z</time>
      </trkpt>
      <trkpt lat="45.62176" lon="-0.02545">
        <ele>20</ele>
        <time>2026-08-12T10:54:14.000Z</time>
      </trkpt>
      <trkpt lat="45.62161" lon="-0.02539">
        <ele>20</ele>
        <time>2026-08-12T10:54:20.000Z</time>
      </trkpt>
      <trkpt lat="45.62146" lon="-0.02532">
        <ele>20</ele>
        <time>2026-08-12T10:54:28.000Z</time>
      </trkpt>
      <trkpt lat="45.62146" lon="-0.02532">
        <ele>20</ele>
        <time>2026-08-12T10:54:30.000Z</time>
      </trkpt>
      <trkpt lat="45.62142" lon="-0.0253">
        <ele>20</ele>
        <time>2026-08-12T11:06:01.000Z</time>
      </trkpt>
      <trkpt lat="45.6214" lon="-0.02529">
        <ele>20</ele>
        <time>2026-08-12T11:06:02.000Z</time>
      </trkpt>
      <trkpt lat="45.62123" lon="-0.02527">
        <ele>20</ele>
        <time>2026-08-12T11:06:08.000Z</time>
      </trkpt>
      <trkpt lat="45.62107" lon="-0.02524">
        <ele>20</ele>
        <time>2026-08-12T11:06:14.000Z</time>
      </trkpt>
      <trkpt lat="45.62076" lon="-0.02526">
        <ele>20</ele>
        <time>2026-08-12T11:06:24.000Z</time>
      </trkpt>
      <trkpt lat="45.62046" lon="-0.02525">
        <ele>20</ele>
        <time>2026-08-12T11:06:31.000Z</time>
      </trkpt>
      <trkpt lat="45.62018" lon="-0.02524">
        <ele>20</ele>
        <time>2026-08-12T11:06:38.000Z</time>
      </trkpt>
      <trkpt lat="45.61998" lon="-0.02522">
        <ele>20</ele>
        <time>2026-08-12T11:06:44.000Z</time>
      </trkpt>
      <trkpt lat="45.61971" lon="-0.02522">
        <ele>20</ele>
        <time>2026-08-12T11:06:51.000Z</time>
      </trkpt>
      <trkpt lat="45.61949" lon="-0.02531">
        <ele>20.6</ele>
        <time>2026-08-12T11:06:58.000Z</time>
      </trkpt>
      <trkpt lat="45.61929" lon="-0.02546">
        <ele>19.9</ele>
        <time>2026-08-12T11:07:03.000Z</time>
      </trkpt>
      <trkpt lat="45.61905" lon="-0.02563">
        <ele>20.1</ele>
        <time>2026-08-12T11:07:09.000Z</time>
      </trkpt>
      <trkpt lat="45.61882" lon="-0.02584">
        <ele>20.2</ele>
        <time>2026-08-12T11:07:16.000Z</time>
      </trkpt>
      <trkpt lat="45.61849" lon="-0.02613">
        <ele>20</ele>
        <time>2026-08-12T11:07:25.000Z</time>
      </trkpt>
      <trkpt lat="45.61823" lon="-0.02634">
        <ele>20</ele>
        <time>2026-08-12T11:07:33.000Z</time>
      </trkpt>
      <trkpt lat="45.618" lon="-0.02651">
        <ele>20.1</ele>
        <time>2026-08-12T11:07:40.000Z</time>
      </trkpt>
      <trkpt lat="45.61768" lon="-0.02661">
        <ele>20.2</ele>
        <time>2026-08-12T11:07:48.000Z</time>
      </trkpt>
      <trkpt lat="45.6174" lon="-0.02677">
        <ele>20.2</ele>
        <time>2026-08-12T11:07:54.000Z</time>
      </trkpt>
      <trkpt lat="45.61729" lon="-0.02687">
        <ele>20.2</ele>
        <time>2026-08-12T11:07:57.000Z</time>
      </trkpt>
      <trkpt lat="45.61716" lon="-0.02697">
        <ele>20</ele>
        <time>2026-08-12T11:08:00.000Z</time>
      </trkpt>
      <trkpt lat="45.61712" lon="-0.02701">
        <ele>20</ele>
        <time>2026-08-12T11:08:01.000Z</time>
      </trkpt>
      <trkpt lat="45.61708" lon="-0.02704">
        <ele>20</ele>
        <time>2026-08-12T11:08:02.000Z</time>
      </trkpt>
      <trkpt lat="45.61701" lon="-0.02712">
        <ele>20</ele>
        <time>2026-08-12T11:08:04.000Z</time>
      </trkpt>
      <trkpt lat="45.61695" lon="-0.0272">
        <ele>20</ele>
        <time>2026-08-12T11:08:06.000Z</time>
      </trkpt>
      <trkpt lat="45.6167" lon="-0.02747">
        <ele>20</ele>
        <time>2026-08-12T11:08:14.000Z</time>
      </trkpt>
      <trkpt lat="45.61638" lon="-0.02779">
        <ele>20</ele>
        <time>2026-08-12T11:08:24.000Z</time>
      </trkpt>
      <trkpt lat="45.6161" lon="-0.02804">
        <ele>20</ele>
        <time>2026-08-12T11:08:32.000Z</time>
      </trkpt>
      <trkpt lat="45.61588" lon="-0.02825">
        <ele>20</ele>
        <time>2026-08-12T11:08:39.000Z</time>
      </trkpt>
      <trkpt lat="45.61562" lon="-0.02853">
        <ele>20</ele>
        <time>2026-08-12T11:08:47.000Z</time>
      </trkpt>
      <trkpt lat="45.61552" lon="-0.02866">
        <ele>20</ele>
        <time>2026-08-12T11:08:50.000Z</time>
      </trkpt>
      <trkpt lat="45.61548" lon="-0.02877">
        <ele>20</ele>
        <time>2026-08-12T11:08:52.000Z</time>
      </trkpt>
      <trkpt lat="45.61546" lon="-0.02882">
        <ele>20</ele>
        <time>2026-08-12T11:08:53.000Z</time>
      </trkpt>
      <trkpt lat="45.61532" lon="-0.02935">
        <ele>20</ele>
        <time>2026-08-12T11:09:02.000Z</time>
      </trkpt>
      <trkpt lat="45.61528" lon="-0.02946">
        <ele>20</ele>
        <time>2026-08-12T11:09:04.000Z</time>
      </trkpt>
      <trkpt lat="45.61523" lon="-0.02955">
        <ele>20</ele>
        <time>2026-08-12T11:09:06.000Z</time>
      </trkpt>
      <trkpt lat="45.61516" lon="-0.02962">
        <ele>20</ele>
        <time>2026-08-12T11:09:08.000Z</time>
      </trkpt>
      <trkpt lat="45.61508" lon="-0.02966">
        <ele>20</ele>
        <time>2026-08-12T11:09:10.000Z</time>
      </trkpt>
      <trkpt lat="45.61495" lon="-0.0297">
        <ele>20</ele>
        <time>2026-08-12T11:09:13.000Z</time>
      </trkpt>
      <trkpt lat="45.61464" lon="-0.0298">
        <ele>20</ele>
        <time>2026-08-12T11:09:20.000Z</time>
      </trkpt>
      <trkpt lat="45.61455" lon="-0.02982">
        <ele>20</ele>
        <time>2026-08-12T11:09:22.000Z</time>
      </trkpt>
      <trkpt lat="45.6145" lon="-0.02983">
        <ele>20</ele>
        <time>2026-08-12T11:09:23.000Z</time>
      </trkpt>
      <trkpt lat="45.61411" lon="-0.02997">
        <ele>20</ele>
        <time>2026-08-12T11:09:32.000Z</time>
      </trkpt>
      <trkpt lat="45.61368" lon="-0.0301">
        <ele>19.2</ele>
        <time>2026-08-12T11:09:42.000Z</time>
      </trkpt>
      <trkpt lat="45.6136" lon="-0.03013">
        <ele>19</ele>
        <time>2026-08-12T11:09:44.000Z</time>
      </trkpt>
      <trkpt lat="45.61354" lon="-0.0302">
        <ele>19</ele>
        <time>2026-08-12T11:09:46.000Z</time>
      </trkpt>
      <trkpt lat="45.61356" lon="-0.03035">
        <ele>19.2</ele>
        <time>2026-08-12T11:09:49.000Z</time>
      </trkpt>
      <trkpt lat="45.61365" lon="-0.03055">
        <ele>20</ele>
        <time>2026-08-12T11:09:53.000Z</time>
      </trkpt>
      <trkpt lat="45.61377" lon="-0.03085">
        <ele>20</ele>
        <time>2026-08-12T11:09:59.000Z</time>
      </trkpt>
      <trkpt lat="45.61382" lon="-0.0311">
        <ele>20</ele>
        <time>2026-08-12T11:10:04.000Z</time>
      </trkpt>
      <trkpt lat="45.61373" lon="-0.03119">
        <ele>19.6</ele>
        <time>2026-08-12T11:10:07.000Z</time>
      </trkpt>
      <trkpt lat="45.61348" lon="-0.03127">
        <ele>19.4</ele>
        <time>2026-08-12T11:10:14.000Z</time>
      </trkpt>
      <trkpt lat="45.61314" lon="-0.03146">
        <ele>19.3</ele>
        <time>2026-08-12T11:10:23.000Z</time>
      </trkpt>
      <trkpt lat="45.61284" lon="-0.03164">
        <ele>19.6</ele>
        <time>2026-08-12T11:10:31.000Z</time>
      </trkpt>
      <trkpt lat="45.61257" lon="-0.03182">
        <ele>19.3</ele>
        <time>2026-08-12T11:10:38.000Z</time>
      </trkpt>
      <trkpt lat="45.61222" lon="-0.03203">
        <ele>19.4</ele>
        <time>2026-08-12T11:10:47.000Z</time>
      </trkpt>
      <trkpt lat="45.61198" lon="-0.03216">
        <ele>19.1</ele>
        <time>2026-08-12T11:10:54.000Z</time>
      </trkpt>
      <trkpt lat="45.61195" lon="-0.03218">
        <ele>19.1</ele>
        <time>2026-08-12T11:10:55.000Z</time>
      </trkpt>
      <trkpt lat="45.61171" lon="-0.03237">
        <ele>19.3</ele>
        <time>2026-08-12T11:11:02.000Z</time>
      </trkpt>
      <trkpt lat="45.61144" lon="-0.0326">
        <ele>19.5</ele>
        <time>2026-08-12T11:11:09.000Z</time>
      </trkpt>
      <trkpt lat="45.61116" lon="-0.03289">
        <ele>19.4</ele>
        <time>2026-08-12T11:11:17.000Z</time>
      </trkpt>
      <trkpt lat="45.61091" lon="-0.03314">
        <ele>19.4</ele>
        <time>2026-08-12T11:11:24.000Z</time>
      </trkpt>
      <trkpt lat="45.61079" lon="-0.03322">
        <ele>19.5</ele>
        <time>2026-08-12T11:11:27.000Z</time>
      </trkpt>
      <trkpt lat="45.61063" lon="-0.03332">
        <ele>19.8</ele>
        <time>2026-08-12T11:11:31.000Z</time>
      </trkpt>
      <trkpt lat="45.61033" lon="-0.03357">
        <ele>19.7</ele>
        <time>2026-08-12T11:11:39.000Z</time>
      </trkpt>
      <trkpt lat="45.61002" lon="-0.03384">
        <ele>19.9</ele>
        <time>2026-08-12T11:11:48.000Z</time>
      </trkpt>
      <trkpt lat="45.60974" lon="-0.03402">
        <ele>19.1</ele>
        <time>2026-08-12T11:11:56.000Z</time>
      </trkpt>
      <trkpt lat="45.6097" lon="-0.03404">
        <ele>19</ele>
        <time>2026-08-12T11:11:57.000Z</time>
      </trkpt>
      <trkpt lat="45.60951" lon="-0.03413">
        <ele>18.9</ele>
        <time>2026-08-12T11:12:03.000Z</time>
      </trkpt>
      <trkpt lat="45.60921" lon="-0.03423">
        <ele>19.5</ele>
        <time>2026-08-12T11:12:10.000Z</time>
      </trkpt>
      <trkpt lat="45.60886" lon="-0.03441">
        <ele>19.1</ele>
        <time>2026-08-12T11:12:18.000Z</time>
      </trkpt>
      <trkpt lat="45.60875" lon="-0.03449">
        <ele>19.3</ele>
        <time>2026-08-12T11:12:21.000Z</time>
      </trkpt>
      <trkpt lat="45.60862" lon="-0.03452">
        <ele>19.4</ele>
        <time>2026-08-12T11:12:24.000Z</time>
      </trkpt>
      <trkpt lat="45.6085" lon="-0.0345">
        <ele>19.6</ele>
        <time>2026-08-12T11:12:27.000Z</time>
      </trkpt>
      <trkpt lat="45.60846" lon="-0.03449">
        <ele>19.7</ele>
        <time>2026-08-12T11:12:28.000Z</time>
      </trkpt>
      <trkpt lat="45.60839" lon="-0.03446">
        <ele>19.9</ele>
        <time>2026-08-12T11:12:30.000Z</time>
      </trkpt>
      <trkpt lat="45.60826" lon="-0.03438">
        <ele>19.6</ele>
        <time>2026-08-12T11:12:34.000Z</time>
      </trkpt>
      <trkpt lat="45.60824" lon="-0.03436">
        <ele>19.6</ele>
        <time>2026-08-12T11:12:35.000Z</time>
      </trkpt>
      <trkpt lat="45.60808" lon="-0.03429">
        <ele>19.6</ele>
        <time>2026-08-12T11:12:40.000Z</time>
      </trkpt>
      <trkpt lat="45.60781" lon="-0.03417">
        <ele>20</ele>
        <time>2026-08-12T11:12:47.000Z</time>
      </trkpt>
      <trkpt lat="45.60751" lon="-0.03412">
        <ele>19.8</ele>
        <time>2026-08-12T11:12:54.000Z</time>
      </trkpt>
      <trkpt lat="45.6072" lon="-0.03414">
        <ele>19</ele>
        <time>2026-08-12T11:13:01.000Z</time>
      </trkpt>
      <trkpt lat="45.60688" lon="-0.03419">
        <ele>18.9</ele>
        <time>2026-08-12T11:13:09.000Z</time>
      </trkpt>
      <trkpt lat="45.60664" lon="-0.03422">
        <ele>18.9</ele>
        <time>2026-08-12T11:13:15.000Z</time>
      </trkpt>
      <trkpt lat="45.60635" lon="-0.03424">
        <ele>19.6</ele>
        <time>2026-08-12T11:13:22.000Z</time>
      </trkpt>
      <trkpt lat="45.60595" lon="-0.03432">
        <ele>19</ele>
        <time>2026-08-12T11:13:31.000Z</time>
      </trkpt>
      <trkpt lat="45.60561" lon="-0.03445">
        <ele>19.8</ele>
        <time>2026-08-12T11:13:39.000Z</time>
      </trkpt>
      <trkpt lat="45.60548" lon="-0.03449">
        <ele>19.7</ele>
        <time>2026-08-12T11:13:42.000Z</time>
      </trkpt>
      <trkpt lat="45.60537" lon="-0.03451">
        <ele>19.7</ele>
        <time>2026-08-12T11:13:45.000Z</time>
      </trkpt>
      <trkpt lat="45.60505" lon="-0.03449">
        <ele>19.9</ele>
        <time>2026-08-12T11:13:52.000Z</time>
      </trkpt>
      <trkpt lat="45.60487" lon="-0.03449">
        <ele>19.4</ele>
        <time>2026-08-12T11:13:56.000Z</time>
      </trkpt>
      <trkpt lat="45.60478" lon="-0.03452">
        <ele>19.2</ele>
        <time>2026-08-12T11:13:58.000Z</time>
      </trkpt>
      <trkpt lat="45.60454" lon="-0.03463">
        <ele>19.4</ele>
        <time>2026-08-12T11:14:04.000Z</time>
      </trkpt>
      <trkpt lat="45.6045" lon="-0.03465">
        <ele>19.6</ele>
        <time>2026-08-12T11:14:05.000Z</time>
      </trkpt>
      <trkpt lat="45.60418" lon="-0.03487">
        <ele>18.5</ele>
        <time>2026-08-12T11:14:13.000Z</time>
      </trkpt>
      <trkpt lat="45.60406" lon="-0.03496">
        <ele>18.5</ele>
        <time>2026-08-12T11:14:16.000Z</time>
      </trkpt>
      <trkpt lat="45.60394" lon="-0.03506">
        <ele>18.6</ele>
        <time>2026-08-12T11:14:19.000Z</time>
      </trkpt>
      <trkpt lat="45.60361" lon="-0.03534">
        <ele>18.8</ele>
        <time>2026-08-12T11:14:28.000Z</time>
      </trkpt>
      <trkpt lat="45.60348" lon="-0.03548">
        <ele>18.6</ele>
        <time>2026-08-12T11:14:32.000Z</time>
      </trkpt>
      <trkpt lat="45.60334" lon="-0.03559">
        <ele>18.8</ele>
        <time>2026-08-12T11:14:36.000Z</time>
      </trkpt>
      <trkpt lat="45.60324" lon="-0.03568">
        <ele>18.7</ele>
        <time>2026-08-12T11:14:39.000Z</time>
      </trkpt>
      <trkpt lat="45.60318" lon="-0.03574">
        <ele>18.7</ele>
        <time>2026-08-12T11:14:41.000Z</time>
      </trkpt>
      <trkpt lat="45.60311" lon="-0.03579">
        <ele>18.8</ele>
        <time>2026-08-12T11:14:43.000Z</time>
      </trkpt>
      <trkpt lat="45.60295" lon="-0.03599">
        <ele>18.7</ele>
        <time>2026-08-12T11:14:48.000Z</time>
      </trkpt>
      <trkpt lat="45.60287" lon="-0.03606">
        <ele>18.7</ele>
        <time>2026-08-12T11:14:50.000Z</time>
      </trkpt>
      <trkpt lat="45.60253" lon="-0.03634">
        <ele>18.9</ele>
        <time>2026-08-12T11:14:59.000Z</time>
      </trkpt>
      <trkpt lat="45.60226" lon="-0.03667">
        <ele>18.9</ele>
        <time>2026-08-12T11:15:07.000Z</time>
      </trkpt>
      <trkpt lat="45.60201" lon="-0.03694">
        <ele>18.8</ele>
        <time>2026-08-12T11:15:14.000Z</time>
      </trkpt>
      <trkpt lat="45.60193" lon="-0.03701">
        <ele>18.8</ele>
        <time>2026-08-12T11:15:16.000Z</time>
      </trkpt>
      <trkpt lat="45.60162" lon="-0.03733">
        <ele>18.7</ele>
        <time>2026-08-12T11:15:25.000Z</time>
      </trkpt>
      <trkpt lat="45.60142" lon="-0.03763">
        <ele>18.9</ele>
        <time>2026-08-12T11:15:32.000Z</time>
      </trkpt>
      <trkpt lat="45.60127" lon="-0.0379">
        <ele>18.8</ele>
        <time>2026-08-12T11:15:38.000Z</time>
      </trkpt>
      <trkpt lat="45.60122" lon="-0.03799">
        <ele>18.7</ele>
        <time>2026-08-12T11:15:40.000Z</time>
      </trkpt>
      <trkpt lat="45.60119" lon="-0.03804">
        <ele>18.7</ele>
        <time>2026-08-12T11:15:41.000Z</time>
      </trkpt>
      <trkpt lat="45.60099" lon="-0.03844">
        <ele>18.8</ele>
        <time>2026-08-12T11:15:49.000Z</time>
      </trkpt>
      <trkpt lat="45.60085" lon="-0.03886">
        <ele>19</ele>
        <time>2026-08-12T11:15:57.000Z</time>
      </trkpt>
      <trkpt lat="45.6007" lon="-0.03917">
        <ele>18.5</ele>
        <time>2026-08-12T11:16:03.000Z</time>
      </trkpt>
      <trkpt lat="45.60063" lon="-0.03938">
        <ele>18.7</ele>
        <time>2026-08-12T11:16:07.000Z</time>
      </trkpt>
      <trkpt lat="45.60054" lon="-0.03968">
        <ele>19</ele>
        <time>2026-08-12T11:16:13.000Z</time>
      </trkpt>
      <trkpt lat="45.60043" lon="-0.04015">
        <ele>18.7</ele>
        <time>2026-08-12T11:16:21.000Z</time>
      </trkpt>
      <trkpt lat="45.60032" lon="-0.04054">
        <ele>18.8</ele>
        <time>2026-08-12T11:16:28.000Z</time>
      </trkpt>
      <trkpt lat="45.60023" lon="-0.04101">
        <ele>19.5</ele>
        <time>2026-08-12T11:16:36.000Z</time>
      </trkpt>
      <trkpt lat="45.60021" lon="-0.04118">
        <ele>19.6</ele>
        <time>2026-08-12T11:16:40.000Z</time>
      </trkpt>
      <trkpt lat="45.60022" lon="-0.04142">
        <ele>19</ele>
        <time>2026-08-12T11:16:45.000Z</time>
      </trkpt>
      <trkpt lat="45.60016" lon="-0.04184">
        <ele>18.6</ele>
        <time>2026-08-12T11:16:53.000Z</time>
      </trkpt>
      <trkpt lat="45.60015" lon="-0.04228">
        <ele>18.5</ele>
        <time>2026-08-12T11:17:00.000Z</time>
      </trkpt>
      <trkpt lat="45.60013" lon="-0.0426">
        <ele>18.6</ele>
        <time>2026-08-12T11:17:06.000Z</time>
      </trkpt>
      <trkpt lat="45.60007" lon="-0.04288">
        <ele>18.7</ele>
        <time>2026-08-12T11:17:12.000Z</time>
      </trkpt>
      <trkpt lat="45.60006" lon="-0.04291">
        <ele>18.8</ele>
        <time>2026-08-12T11:17:13.000Z</time>
      </trkpt>
      <trkpt lat="45.6" lon="-0.04294">
        <ele>19</ele>
        <time>2026-08-12T11:17:15.000Z</time>
      </trkpt>
      <trkpt lat="45.59979" lon="-0.04307">
        <ele>19</ele>
        <time>2026-08-12T11:17:21.000Z</time>
      </trkpt>
      <trkpt lat="45.59945" lon="-0.04326">
        <ele>19</ele>
        <time>2026-08-12T11:17:31.000Z</time>
      </trkpt>
      <trkpt lat="45.59922" lon="-0.04327">
        <ele>19</ele>
        <time>2026-08-12T11:17:37.000Z</time>
      </trkpt>
      <trkpt lat="45.59888" lon="-0.04326">
        <ele>19</ele>
        <time>2026-08-12T11:17:45.000Z</time>
      </trkpt>
      <trkpt lat="45.59866" lon="-0.04324">
        <ele>18.5</ele>
        <time>2026-08-12T11:17:51.000Z</time>
      </trkpt>
      <trkpt lat="45.59863" lon="-0.04326">
        <ele>18.3</ele>
        <time>2026-08-12T11:17:52.000Z</time>
      </trkpt>
      <trkpt lat="45.5986" lon="-0.04332">
        <ele>18</ele>
        <time>2026-08-12T11:17:54.000Z</time>
      </trkpt>
      <trkpt lat="45.59861" lon="-0.04337">
        <ele>18</ele>
        <time>2026-08-12T11:17:55.000Z</time>
      </trkpt>
      <trkpt lat="45.59865" lon="-0.04347">
        <ele>18.1</ele>
        <time>2026-08-12T11:17:57.000Z</time>
      </trkpt>
      <trkpt lat="45.59864" lon="-0.04361">
        <ele>18.1</ele>
        <time>2026-08-12T11:18:00.000Z</time>
      </trkpt>
      <trkpt lat="45.59862" lon="-0.04365">
        <ele>18</ele>
        <time>2026-08-12T11:18:01.000Z</time>
      </trkpt>
      <trkpt lat="45.59849" lon="-0.04376">
        <ele>18</ele>
        <time>2026-08-12T11:18:07.000Z</time>
      </trkpt>
      <trkpt lat="45.59838" lon="-0.0439">
        <ele>18</ele>
        <time>2026-08-12T11:18:12.000Z</time>
      </trkpt>
      <trkpt lat="45.59831" lon="-0.04406">
        <ele>18</ele>
        <time>2026-08-12T11:18:17.000Z</time>
      </trkpt>
      <trkpt lat="45.59829" lon="-0.04409">
        <ele>18</ele>
        <time>2026-08-12T11:18:21.000Z</time>
      </trkpt>
      <trkpt lat="45.5964" lon="-0.04478">
        <ele>35.7</ele>
        <time>2026-08-12T14:46:56.000Z</time>
      </trkpt>
      <trkpt lat="45.59703" lon="-0.04596">
        <ele>21.7</ele>
        <time>2026-08-12T14:46:57.000Z</time>
      </trkpt>
      <trkpt lat="45.59713" lon="-0.04624">
        <ele>22.1</ele>
        <time>2026-08-12T14:47:02.000Z</time>
      </trkpt>
      <trkpt lat="45.59712" lon="-0.04648">
        <ele>23.2</ele>
        <time>2026-08-12T14:47:07.000Z</time>
      </trkpt>
      <trkpt lat="45.59713" lon="-0.04669">
        <ele>23.4</ele>
        <time>2026-08-12T14:47:12.000Z</time>
      </trkpt>
      <trkpt lat="45.59715" lon="-0.04689">
        <ele>23.6</ele>
        <time>2026-08-12T14:47:17.000Z</time>
      </trkpt>
      <trkpt lat="45.59715" lon="-0.04697">
        <ele>23.7</ele>
        <time>2026-08-12T14:47:19.000Z</time>
      </trkpt>
      <trkpt lat="45.59707" lon="-0.04716">
        <ele>23</ele>
        <time>2026-08-12T14:47:25.000Z</time>
      </trkpt>
      <trkpt lat="45.59704" lon="-0.04722">
        <ele>23</ele>
        <time>2026-08-12T14:47:27.000Z</time>
      </trkpt>
      <trkpt lat="45.59694" lon="-0.04736">
        <ele>23</ele>
        <time>2026-08-12T14:47:32.000Z</time>
      </trkpt>
      <trkpt lat="45.59684" lon="-0.0475">
        <ele>22.7</ele>
        <time>2026-08-12T14:47:37.000Z</time>
      </trkpt>
      <trkpt lat="45.59676" lon="-0.04762">
        <ele>23.8</ele>
        <time>2026-08-12T14:47:41.000Z</time>
      </trkpt>
      <trkpt lat="45.59661" lon="-0.04785">
        <ele>25.2</ele>
        <time>2026-08-12T14:47:50.000Z</time>
      </trkpt>
      <trkpt lat="45.59658" lon="-0.048">
        <ele>25.8</ele>
        <time>2026-08-12T14:47:55.000Z</time>
      </trkpt>
      <trkpt lat="45.59655" lon="-0.04815">
        <ele>26.7</ele>
        <time>2026-08-12T14:48:01.000Z</time>
      </trkpt>
      <trkpt lat="45.59655" lon="-0.04819">
        <ele>26.9</ele>
        <time>2026-08-12T14:48:03.000Z</time>
      </trkpt>
      <trkpt lat="45.59654" lon="-0.0482">
        <ele>27.1</ele>
        <time>2026-08-12T14:48:04.000Z</time>
      </trkpt>
      <trkpt lat="45.5965" lon="-0.04839">
        <ele>28.4</ele>
        <time>2026-08-12T14:48:12.000Z</time>
      </trkpt>
      <trkpt lat="45.5965" lon="-0.04842">
        <ele>28.6</ele>
        <time>2026-08-12T14:48:13.000Z</time>
      </trkpt>
      <trkpt lat="45.59648" lon="-0.0486">
        <ele>29.9</ele>
        <time>2026-08-12T14:48:20.000Z</time>
      </trkpt>
      <trkpt lat="45.59648" lon="-0.04882">
        <ele>30.8</ele>
        <time>2026-08-12T14:48:29.000Z</time>
      </trkpt>
      <trkpt lat="45.59649" lon="-0.04885">
        <ele>30.9</ele>
        <time>2026-08-12T14:48:31.000Z</time>
      </trkpt>
      <trkpt lat="45.59651" lon="-0.04889">
        <ele>31</ele>
        <time>2026-08-12T14:48:34.000Z</time>
      </trkpt>
      <trkpt lat="45.59652" lon="-0.0489">
        <ele>31</ele>
        <time>2026-08-12T14:48:36.000Z</time>
      </trkpt>
      <trkpt lat="45.59656" lon="-0.04901">
        <ele>31.4</ele>
        <time>2026-08-12T14:49:16.000Z</time>
      </trkpt>
      <trkpt lat="45.59656" lon="-0.04904">
        <ele>31.5</ele>
        <time>2026-08-12T14:49:17.000Z</time>
      </trkpt>
      <trkpt lat="45.59662" lon="-0.04926">
        <ele>32</ele>
        <time>2026-08-12T14:49:25.000Z</time>
      </trkpt>
      <trkpt lat="45.59669" lon="-0.04943">
        <ele>32.1</ele>
        <time>2026-08-12T14:49:31.000Z</time>
      </trkpt>
      <trkpt lat="45.59671" lon="-0.04946">
        <ele>32.2</ele>
        <time>2026-08-12T14:49:32.000Z</time>
      </trkpt>
      <trkpt lat="45.59671" lon="-0.0495">
        <ele>32.3</ele>
        <time>2026-08-12T14:49:33.000Z</time>
      </trkpt>
      <trkpt lat="45.59673" lon="-0.04958">
        <ele>32.6</ele>
        <time>2026-08-12T14:49:36.000Z</time>
      </trkpt>
      <trkpt lat="45.59675" lon="-0.04961">
        <ele>32.7</ele>
        <time>2026-08-12T14:49:38.000Z</time>
      </trkpt>
      <trkpt lat="45.59675" lon="-0.04961">
        <ele>32.7</ele>
        <time>2026-08-12T14:49:40.000Z</time>
      </trkpt>
      <trkpt lat="45.59677" lon="-0.04964">
        <ele>32.8</ele>
        <time>2026-08-12T14:49:42.000Z</time>
      </trkpt>
      <trkpt lat="45.59682" lon="-0.04974">
        <ele>33</ele>
        <time>2026-08-12T14:49:45.000Z</time>
      </trkpt>
      <trkpt lat="45.59694" lon="-0.05005">
        <ele>32.8</ele>
        <time>2026-08-12T14:49:52.000Z</time>
      </trkpt>
      <trkpt lat="45.59707" lon="-0.05044">
        <ele>31.7</ele>
        <time>2026-08-12T14:49:59.000Z</time>
      </trkpt>
      <trkpt lat="45.59712" lon="-0.0506">
        <ele>31.4</ele>
        <time>2026-08-12T14:50:04.000Z</time>
      </trkpt>
      <trkpt lat="45.59713" lon="-0.05062">
        <ele>31.3</ele>
        <time>2026-08-12T14:50:05.000Z</time>
      </trkpt>
      <trkpt lat="45.59719" lon="-0.05068">
        <ele>31.1</ele>
        <time>2026-08-12T14:50:08.000Z</time>
      </trkpt>
      <trkpt lat="45.59735" lon="-0.05081">
        <ele>31</ele>
        <time>2026-08-12T14:50:13.000Z</time>
      </trkpt>
      <trkpt lat="45.59739" lon="-0.05084">
        <ele>31</ele>
        <time>2026-08-12T14:50:14.000Z</time>
      </trkpt>
      <trkpt lat="45.59756" lon="-0.051">
        <ele>30.6</ele>
        <time>2026-08-12T14:50:18.000Z</time>
      </trkpt>
      <trkpt lat="45.59771" lon="-0.05114">
        <ele>30.7</ele>
        <time>2026-08-12T14:50:21.000Z</time>
      </trkpt>
      <trkpt lat="45.59792" lon="-0.05133">
        <ele>29.3</ele>
        <time>2026-08-12T14:50:25.000Z</time>
      </trkpt>
      <trkpt lat="45.59798" lon="-0.05137">
        <ele>28.7</ele>
        <time>2026-08-12T14:50:26.000Z</time>
      </trkpt>
      <trkpt lat="45.59822" lon="-0.05157">
        <ele>27.1</ele>
        <time>2026-08-12T14:50:30.000Z</time>
      </trkpt>
      <trkpt lat="45.59834" lon="-0.05168">
        <ele>26</ele>
        <time>2026-08-12T14:50:32.000Z</time>
      </trkpt>
      <trkpt lat="45.59858" lon="-0.05187">
        <ele>24.9</ele>
        <time>2026-08-12T14:50:36.000Z</time>
      </trkpt>
      <trkpt lat="45.59864" lon="-0.05192">
        <ele>24.8</ele>
        <time>2026-08-12T14:50:37.000Z</time>
      </trkpt>
      <trkpt lat="45.59884" lon="-0.05206">
        <ele>24.1</ele>
        <time>2026-08-12T14:50:41.000Z</time>
      </trkpt>
      <trkpt lat="45.59889" lon="-0.05208">
        <ele>24</ele>
        <time>2026-08-12T14:50:42.000Z</time>
      </trkpt>
      <trkpt lat="45.59893" lon="-0.05206">
        <ele>23.6</ele>
        <time>2026-08-12T14:50:43.000Z</time>
      </trkpt>
      <trkpt lat="45.59901" lon="-0.05199">
        <ele>22.7</ele>
        <time>2026-08-12T14:50:45.000Z</time>
      </trkpt>
      <trkpt lat="45.59916" lon="-0.05169">
        <ele>22</ele>
        <time>2026-08-12T14:50:50.000Z</time>
      </trkpt>
      <trkpt lat="45.59921" lon="-0.05158">
        <ele>21.4</ele>
        <time>2026-08-12T14:50:52.000Z</time>
      </trkpt>
      <trkpt lat="45.59925" lon="-0.05151">
        <ele>21.2</ele>
        <time>2026-08-12T14:50:54.000Z</time>
      </trkpt>
      <trkpt lat="45.59925" lon="-0.05151">
        <ele>21.2</ele>
        <time>2026-08-12T14:50:57.000Z</time>
      </trkpt>
      <trkpt lat="45.59929" lon="-0.05144">
        <ele>21</ele>
        <time>2026-08-12T14:51:08.000Z</time>
      </trkpt>
      <trkpt lat="45.59933" lon="-0.05138">
        <ele>21</ele>
        <time>2026-08-12T14:51:10.000Z</time>
      </trkpt>
      <trkpt lat="45.59947" lon="-0.05107">
        <ele>20</ele>
        <time>2026-08-12T14:51:16.000Z</time>
      </trkpt>
      <trkpt lat="45.59962" lon="-0.05077">
        <ele>20.1</ele>
        <time>2026-08-12T14:51:21.000Z</time>
      </trkpt>
      <trkpt lat="45.59963" lon="-0.05063">
        <ele>20.5</ele>
        <time>2026-08-12T14:51:23.000Z</time>
      </trkpt>
      <trkpt lat="45.59957" lon="-0.05041">
        <ele>20.7</ele>
        <time>2026-08-12T14:51:27.000Z</time>
      </trkpt>
      <trkpt lat="45.59956" lon="-0.05027">
        <ele>21</ele>
        <time>2026-08-12T14:51:30.000Z</time>
      </trkpt>
      <trkpt lat="45.59958" lon="-0.05022">
        <ele>21</ele>
        <time>2026-08-12T14:51:31.000Z</time>
      </trkpt>
      <trkpt lat="45.59971" lon="-0.05005">
        <ele>21</ele>
        <time>2026-08-12T14:51:37.000Z</time>
      </trkpt>
      <trkpt lat="45.59975" lon="-0.04995">
        <ele>21</ele>
        <time>2026-08-12T14:51:43.000Z</time>
      </trkpt>
      <trkpt lat="45.59975" lon="-0.04995">
        <ele>21</ele>
        <time>2026-08-12T14:51:44.000Z</time>
      </trkpt>
      <trkpt lat="45.7004" lon="-0.52638">
        <ele>9</ele>
        <time>2026-08-12T15:45:30.000Z</time>
      </trkpt>
      <trkpt lat="45.70057" lon="-0.5263">
        <ele>9</ele>
        <time>2026-08-12T15:45:31.000Z</time>
      </trkpt>
      <trkpt lat="45.70081" lon="-0.52616">
        <ele>8.2</ele>
        <time>2026-08-12T15:46:10.000Z</time>
      </trkpt>
      <trkpt lat="45.70084" lon="-0.52615">
        <ele>8.1</ele>
        <time>2026-08-12T15:46:11.000Z</time>
      </trkpt>
      <trkpt lat="45.70086" lon="-0.52615">
        <ele>7.9</ele>
        <time>2026-08-12T15:46:12.000Z</time>
      </trkpt>
      <trkpt lat="45.70097" lon="-0.52621">
        <ele>7.4</ele>
        <time>2026-08-12T15:46:18.000Z</time>
      </trkpt>
      <trkpt lat="45.70106" lon="-0.52622">
        <ele>6.9</ele>
        <time>2026-08-12T15:46:23.000Z</time>
      </trkpt>
      <trkpt lat="45.70107" lon="-0.52623">
        <ele>7</ele>
        <time>2026-08-12T15:46:24.000Z</time>
      </trkpt>
      <trkpt lat="45.70123" lon="-0.5263">
        <ele>7.1</ele>
        <time>2026-08-12T15:46:32.000Z</time>
      </trkpt>
      <trkpt lat="45.70134" lon="-0.52637">
        <ele>7.1</ele>
        <time>2026-08-12T15:46:36.000Z</time>
      </trkpt>
      <trkpt lat="45.70139" lon="-0.52641">
        <ele>7.1</ele>
        <time>2026-08-12T15:46:37.000Z</time>
      </trkpt>
      <trkpt lat="45.70155" lon="-0.52655">
        <ele>6.6</ele>
        <time>2026-08-12T15:46:43.000Z</time>
      </trkpt>
      <trkpt lat="45.70158" lon="-0.52657">
        <ele>6.5</ele>
        <time>2026-08-12T15:46:44.000Z</time>
      </trkpt>
      <trkpt lat="45.70172" lon="-0.52669">
        <ele>6</ele>
        <time>2026-08-12T15:46:49.000Z</time>
      </trkpt>
      <trkpt lat="45.70178" lon="-0.52674">
        <ele>6.2</ele>
        <time>2026-08-12T15:46:51.000Z</time>
      </trkpt>
      <trkpt lat="45.7019" lon="-0.5268">
        <ele>6.2</ele>
        <time>2026-08-12T15:46:55.000Z</time>
      </trkpt>
      <trkpt lat="45.70195" lon="-0.52687">
        <ele>6.4</ele>
        <time>2026-08-12T15:47:00.000Z</time>
      </trkpt>
      <trkpt lat="45.70195" lon="-0.52687">
        <ele>6.4</ele>
        <time>2026-08-12T15:47:01.000Z</time>
      </trkpt>
      <trkpt lat="45.70222" lon="-0.52699">
        <ele>4.9</ele>
        <time>2026-08-12T15:47:43.000Z</time>
      </trkpt>
      <trkpt lat="45.7023" lon="-0.52703">
        <ele>5.2</ele>
        <time>2026-08-12T15:47:46.000Z</time>
      </trkpt>
      <trkpt lat="45.70248" lon="-0.52712">
        <ele>5.6</ele>
        <time>2026-08-12T15:47:53.000Z</time>
      </trkpt>
      <trkpt lat="45.70266" lon="-0.52724">
        <ele>5.5</ele>
        <time>2026-08-12T15:48:01.000Z</time>
      </trkpt>
      <trkpt lat="45.70289" lon="-0.52737">
        <ele>5.6</ele>
        <time>2026-08-12T15:48:12.000Z</time>
      </trkpt>
      <trkpt lat="45.703" lon="-0.52744">
        <ele>5.8</ele>
        <time>2026-08-12T15:48:17.000Z</time>
      </trkpt>
      <trkpt lat="45.70325" lon="-0.52758">
        <ele>5.7</ele>
        <time>2026-08-12T15:48:27.000Z</time>
      </trkpt>
      <trkpt lat="45.70336" lon="-0.52764">
        <ele>5.9</ele>
        <time>2026-08-12T15:48:34.000Z</time>
      </trkpt>
      <trkpt lat="45.70355" lon="-0.52772">
        <ele>5.8</ele>
        <time>2026-08-12T15:48:42.000Z</time>
      </trkpt>
      <trkpt lat="45.7036" lon="-0.52774">
        <ele>5.7</ele>
        <time>2026-08-12T15:48:44.000Z</time>
      </trkpt>
      <trkpt lat="45.70372" lon="-0.5278">
        <ele>5.4</ele>
        <time>2026-08-12T15:48:49.000Z</time>
      </trkpt>
      <trkpt lat="45.70387" lon="-0.52786">
        <ele>5.5</ele>
        <time>2026-08-12T15:48:56.000Z</time>
      </trkpt>
      <trkpt lat="45.70406" lon="-0.5279">
        <ele>5.9</ele>
        <time>2026-08-12T15:49:03.000Z</time>
      </trkpt>
      <trkpt lat="45.70424" lon="-0.52798">
        <ele>6.3</ele>
        <time>2026-08-12T15:49:10.000Z</time>
      </trkpt>
      <trkpt lat="45.70429" lon="-0.528">
        <ele>6</ele>
        <time>2026-08-12T15:49:12.000Z</time>
      </trkpt>
      <trkpt lat="45.70439" lon="-0.52803">
        <ele>5.4</ele>
        <time>2026-08-12T15:49:17.000Z</time>
      </trkpt>
      <trkpt lat="45.70455" lon="-0.52808">
        <ele>5</ele>
        <time>2026-08-12T15:49:24.000Z</time>
      </trkpt>
      <trkpt lat="45.70477" lon="-0.52815">
        <ele>5.5</ele>
        <time>2026-08-12T15:49:33.000Z</time>
      </trkpt>
      <trkpt lat="45.70496" lon="-0.52821">
        <ele>6.4</ele>
        <time>2026-08-12T15:49:41.000Z</time>
      </trkpt>
      <trkpt lat="45.70517" lon="-0.52826">
        <ele>6.1</ele>
        <time>2026-08-12T15:49:49.000Z</time>
      </trkpt>
      <trkpt lat="45.70536" lon="-0.52832">
        <ele>5.3</ele>
        <time>2026-08-12T15:49:57.000Z</time>
      </trkpt>
      <trkpt lat="45.7055" lon="-0.52841">
        <ele>5.8</ele>
        <time>2026-08-12T15:50:03.000Z</time>
      </trkpt>
      <trkpt lat="45.70565" lon="-0.52847">
        <ele>6.6</ele>
        <time>2026-08-12T15:50:08.000Z</time>
      </trkpt>
      <trkpt lat="45.70568" lon="-0.52848">
        <ele>6.7</ele>
        <time>2026-08-12T15:50:09.000Z</time>
      </trkpt>
      <trkpt lat="45.70584" lon="-0.52857">
        <ele>7.3</ele>
        <time>2026-08-12T15:50:15.000Z</time>
      </trkpt>
      <trkpt lat="45.70607" lon="-0.52863">
        <ele>5.8</ele>
        <time>2026-08-12T15:50:22.000Z</time>
      </trkpt>
      <trkpt lat="45.70612" lon="-0.52865">
        <ele>5.5</ele>
        <time>2026-08-12T15:50:24.000Z</time>
      </trkpt>
      <trkpt lat="45.70613" lon="-0.5287">
        <ele>6</ele>
        <time>2026-08-12T15:50:27.000Z</time>
      </trkpt>
      <trkpt lat="45.70615" lon="-0.52868">
        <ele>5.8</ele>
        <time>2026-08-12T15:50:29.000Z</time>
      </trkpt>
      <trkpt lat="45.70615" lon="-0.5287">
        <ele>5.9</ele>
        <time>2026-08-12T15:50:31.000Z</time>
      </trkpt>
      <trkpt lat="45.70616" lon="-0.52871">
        <ele>6</ele>
        <time>2026-08-12T15:50:32.000Z</time>
      </trkpt>
      <trkpt lat="45.70618" lon="-0.52875">
        <ele>6.1</ele>
        <time>2026-08-12T15:50:35.000Z</time>
      </trkpt>
      <trkpt lat="45.70618" lon="-0.52877">
        <ele>6.3</ele>
        <time>2026-08-12T15:50:37.000Z</time>
      </trkpt>
      <trkpt lat="45.70619" lon="-0.52878">
        <ele>6.3</ele>
        <time>2026-08-12T15:50:38.000Z</time>
      </trkpt>
      <trkpt lat="45.70619" lon="-0.52878">
        <ele>6.3</ele>
        <time>2026-08-12T15:50:40.000Z</time>
      </trkpt>
      <trkpt lat="45.7062" lon="-0.52884">
        <ele>6.6</ele>
        <time>2026-08-12T15:50:48.000Z</time>
      </trkpt>
      <trkpt lat="45.7062" lon="-0.52885">
        <ele>6.7</ele>
        <time>2026-08-12T15:50:49.000Z</time>
      </trkpt>
      <trkpt lat="45.70614" lon="-0.52898">
        <ele>8.2</ele>
        <time>2026-08-12T15:50:55.000Z</time>
      </trkpt>
      <trkpt lat="45.70607" lon="-0.52927">
        <ele>6.7</ele>
        <time>2026-08-12T15:51:02.000Z</time>
      </trkpt>
      <trkpt lat="45.70602" lon="-0.52955">
        <ele>4.6</ele>
        <time>2026-08-12T15:51:09.000Z</time>
      </trkpt>
      <trkpt lat="45.70602" lon="-0.5296">
        <ele>4.5</ele>
        <time>2026-08-12T15:51:11.000Z</time>
      </trkpt>
      <trkpt lat="45.70603" lon="-0.52965">
        <ele>4.3</ele>
        <time>2026-08-12T15:51:13.000Z</time>
      </trkpt>
      <trkpt lat="45.70602" lon="-0.52967">
        <ele>4.4</ele>
        <time>2026-08-12T15:51:14.000Z</time>
      </trkpt>
      <trkpt lat="45.70597" lon="-0.52985">
        <ele>4.4</ele>
        <time>2026-08-12T15:51:20.000Z</time>
      </trkpt>
      <trkpt lat="45.7059" lon="-0.53012">
        <ele>3.8</ele>
        <time>2026-08-12T15:51:26.000Z</time>
      </trkpt>
      <trkpt lat="45.70585" lon="-0.53037">
        <ele>4.3</ele>
        <time>2026-08-12T15:51:32.000Z</time>
      </trkpt>
      <trkpt lat="45.70578" lon="-0.53079">
        <ele>3.4</ele>
        <time>2026-08-12T15:51:41.000Z</time>
      </trkpt>
      <trkpt lat="45.70569" lon="-0.53124">
        <ele>3.5</ele>
        <time>2026-08-12T15:51:51.000Z</time>
      </trkpt>
      <trkpt lat="45.70564" lon="-0.53164">
        <ele>3.7</ele>
        <time>2026-08-12T15:52:01.000Z</time>
      </trkpt>
      <trkpt lat="45.70565" lon="-0.53204">
        <ele>4.1</ele>
        <time>2026-08-12T15:52:10.000Z</time>
      </trkpt>
      <trkpt lat="45.70565" lon="-0.53209">
        <ele>4</ele>
        <time>2026-08-12T15:52:11.000Z</time>
      </trkpt>
      <trkpt lat="45.70567" lon="-0.53246">
        <ele>3.6</ele>
        <time>2026-08-12T15:52:19.000Z</time>
      </trkpt>
      <trkpt lat="45.70572" lon="-0.5328">
        <ele>3.5</ele>
        <time>2026-08-12T15:52:27.000Z</time>
      </trkpt>
      <trkpt lat="45.70576" lon="-0.533">
        <ele>3.9</ele>
        <time>2026-08-12T15:52:32.000Z</time>
      </trkpt>
      <trkpt lat="45.70584" lon="-0.53325">
        <ele>4</ele>
        <time>2026-08-12T15:52:38.000Z</time>
      </trkpt>
      <trkpt lat="45.70595" lon="-0.53366">
        <ele>3.6</ele>
        <time>2026-08-12T15:52:47.000Z</time>
      </trkpt>
      <trkpt lat="45.70602" lon="-0.53388">
        <ele>3.3</ele>
        <time>2026-08-12T15:52:53.000Z</time>
      </trkpt>
      <trkpt lat="45.70609" lon="-0.53413">
        <ele>3.9</ele>
        <time>2026-08-12T15:53:00.000Z</time>
      </trkpt>
      <trkpt lat="45.70619" lon="-0.53444">
        <ele>3.7</ele>
        <time>2026-08-12T15:53:08.000Z</time>
      </trkpt>
      <trkpt lat="45.70631" lon="-0.53481">
        <ele>3.5</ele>
        <time>2026-08-12T15:53:17.000Z</time>
      </trkpt>
      <trkpt lat="45.70638" lon="-0.53515">
        <ele>4</ele>
        <time>2026-08-12T15:53:25.000Z</time>
      </trkpt>
      <trkpt lat="45.70649" lon="-0.53553">
        <ele>3.6</ele>
        <time>2026-08-12T15:53:34.000Z</time>
      </trkpt>
      <trkpt lat="45.70657" lon="-0.53589">
        <ele>3.3</ele>
        <time>2026-08-12T15:53:42.000Z</time>
      </trkpt>
      <trkpt lat="45.70664" lon="-0.53622">
        <ele>3.4</ele>
        <time>2026-08-12T15:53:49.000Z</time>
      </trkpt>
      <trkpt lat="45.70673" lon="-0.53664">
        <ele>3.8</ele>
        <time>2026-08-12T15:53:58.000Z</time>
      </trkpt>
      <trkpt lat="45.70679" lon="-0.53705">
        <ele>3.6</ele>
        <time>2026-08-12T15:54:07.000Z</time>
      </trkpt>
      <trkpt lat="45.70686" lon="-0.53742">
        <ele>3.8</ele>
        <time>2026-08-12T15:54:15.000Z</time>
      </trkpt>
      <trkpt lat="45.7069" lon="-0.5376">
        <ele>4</ele>
        <time>2026-08-12T15:54:19.000Z</time>
      </trkpt>
      <trkpt lat="45.70692" lon="-0.53774">
        <ele>4</ele>
        <time>2026-08-12T15:54:22.000Z</time>
      </trkpt>
      <trkpt lat="45.70694" lon="-0.53787">
        <ele>4</ele>
        <time>2026-08-12T15:54:25.000Z</time>
      </trkpt>
      <trkpt lat="45.70699" lon="-0.53813">
        <ele>3.8</ele>
        <time>2026-08-12T15:54:31.000Z</time>
      </trkpt>
      <trkpt lat="45.70707" lon="-0.53852">
        <ele>3.5</ele>
        <time>2026-08-12T15:54:40.000Z</time>
      </trkpt>
      <trkpt lat="45.70715" lon="-0.53894">
        <ele>3.4</ele>
        <time>2026-08-12T15:54:49.000Z</time>
      </trkpt>
      <trkpt lat="45.70722" lon="-0.53932">
        <ele>4</ele>
        <time>2026-08-12T15:54:57.000Z</time>
      </trkpt>
      <trkpt lat="45.70728" lon="-0.53966">
        <ele>3.8</ele>
        <time>2026-08-12T15:55:04.000Z</time>
      </trkpt>
      <trkpt lat="45.70729" lon="-0.53976">
        <ele>3.8</ele>
        <time>2026-08-12T15:55:06.000Z</time>
      </trkpt>
      <trkpt lat="45.70732" lon="-0.53999">
        <ele>3.6</ele>
        <time>2026-08-12T15:55:11.000Z</time>
      </trkpt>
      <trkpt lat="45.70736" lon="-0.5403">
        <ele>3.5</ele>
        <time>2026-08-12T15:55:18.000Z</time>
      </trkpt>
      <trkpt lat="45.70742" lon="-0.54081">
        <ele>3.3</ele>
        <time>2026-08-12T15:55:29.000Z</time>
      </trkpt>
      <trkpt lat="45.70745" lon="-0.54126">
        <ele>3.6</ele>
        <time>2026-08-12T15:55:38.000Z</time>
      </trkpt>
      <trkpt lat="45.70746" lon="-0.54137">
        <ele>3.9</ele>
        <time>2026-08-12T15:55:40.000Z</time>
      </trkpt>
      <trkpt lat="45.70747" lon="-0.54162">
        <ele>4</ele>
        <time>2026-08-12T15:55:45.000Z</time>
      </trkpt>
      <trkpt lat="45.70745" lon="-0.54206">
        <ele>4</ele>
        <time>2026-08-12T15:55:54.000Z</time>
      </trkpt>
      <trkpt lat="45.70744" lon="-0.5425">
        <ele>4</ele>
        <time>2026-08-12T15:56:03.000Z</time>
      </trkpt>
      <trkpt lat="45.70742" lon="-0.54309">
        <ele>3.3</ele>
        <time>2026-08-12T15:56:14.000Z</time>
      </trkpt>
      <trkpt lat="45.70741" lon="-0.54331">
        <ele>3.3</ele>
        <time>2026-08-12T15:56:18.000Z</time>
      </trkpt>
      <trkpt lat="45.7074" lon="-0.54341">
        <ele>3.3</ele>
        <time>2026-08-12T15:56:20.000Z</time>
      </trkpt>
      <trkpt lat="45.70731" lon="-0.54371">
        <ele>3.7</ele>
        <time>2026-08-12T15:56:26.000Z</time>
      </trkpt>
      <trkpt lat="45.70713" lon="-0.54391">
        <ele>3.9</ele>
        <time>2026-08-12T15:56:32.000Z</time>
      </trkpt>
      <trkpt lat="45.70679" lon="-0.5441">
        <ele>3.7</ele>
        <time>2026-08-12T15:56:42.000Z</time>
      </trkpt>
      <trkpt lat="45.70648" lon="-0.54423">
        <ele>3.8</ele>
        <time>2026-08-12T15:56:51.000Z</time>
      </trkpt>
      <trkpt lat="45.70618" lon="-0.54433">
        <ele>3.9</ele>
        <time>2026-08-12T15:56:59.000Z</time>
      </trkpt>
      <trkpt lat="45.70601" lon="-0.54455">
        <ele>4</ele>
        <time>2026-08-12T15:57:05.000Z</time>
      </trkpt>
      <trkpt lat="45.70598" lon="-0.54459">
        <ele>4</ele>
        <time>2026-08-12T15:57:06.000Z</time>
      </trkpt>
      <trkpt lat="45.70578" lon="-0.54477">
        <ele>4</ele>
        <time>2026-08-12T15:57:12.000Z</time>
      </trkpt>
      <trkpt lat="45.70575" lon="-0.54479">
        <ele>4</ele>
        <time>2026-08-12T15:57:13.000Z</time>
      </trkpt>
      <trkpt lat="45.7056" lon="-0.54483">
        <ele>4</ele>
        <time>2026-08-12T15:57:17.000Z</time>
      </trkpt>
      <trkpt lat="45.70533" lon="-0.54493">
        <ele>4</ele>
        <time>2026-08-12T15:57:24.000Z</time>
      </trkpt>
      <trkpt lat="45.70501" lon="-0.54508">
        <ele>4</ele>
        <time>2026-08-12T15:57:32.000Z</time>
      </trkpt>
      <trkpt lat="45.70467" lon="-0.54524">
        <ele>4</ele>
        <time>2026-08-12T15:57:41.000Z</time>
      </trkpt>
      <trkpt lat="45.70427" lon="-0.54543">
        <ele>4</ele>
        <time>2026-08-12T15:57:51.000Z</time>
      </trkpt>
      <trkpt lat="45.70407" lon="-0.54551">
        <ele>4</ele>
        <time>2026-08-12T15:57:56.000Z</time>
      </trkpt>
      <trkpt lat="45.70392" lon="-0.54557">
        <ele>4</ele>
        <time>2026-08-12T15:58:00.000Z</time>
      </trkpt>
      <trkpt lat="45.70374" lon="-0.54571">
        <ele>4</ele>
        <time>2026-08-12T15:58:05.000Z</time>
      </trkpt>
      <trkpt lat="45.70372" lon="-0.54592">
        <ele>4</ele>
        <time>2026-08-12T15:58:09.000Z</time>
      </trkpt>
      <trkpt lat="45.70381" lon="-0.54631">
        <ele>4.2</ele>
        <time>2026-08-12T15:58:17.000Z</time>
      </trkpt>
      <trkpt lat="45.70388" lon="-0.54664">
        <ele>4.9</ele>
        <time>2026-08-12T15:58:24.000Z</time>
      </trkpt>
      <trkpt lat="45.7039" lon="-0.54673">
        <ele>5</ele>
        <time>2026-08-12T15:58:26.000Z</time>
      </trkpt>
      <trkpt lat="45.70394" lon="-0.54706">
        <ele>5</ele>
        <time>2026-08-12T15:58:33.000Z</time>
      </trkpt>
      <trkpt lat="45.70404" lon="-0.54724">
        <ele>5</ele>
        <time>2026-08-12T15:58:38.000Z</time>
      </trkpt>
      <trkpt lat="45.70418" lon="-0.54725">
        <ele>5</ele>
        <time>2026-08-12T15:58:42.000Z</time>
      </trkpt>
      <trkpt lat="45.70442" lon="-0.54719">
        <ele>4.1</ele>
        <time>2026-08-12T15:58:48.000Z</time>
      </trkpt>
      <trkpt lat="45.70463" lon="-0.54711">
        <ele>4</ele>
        <time>2026-08-12T15:58:53.000Z</time>
      </trkpt>
      <trkpt lat="45.7047" lon="-0.54708">
        <ele>4</ele>
        <time>2026-08-12T15:58:55.000Z</time>
      </trkpt>
      <trkpt lat="45.70495" lon="-0.54704">
        <ele>4</ele>
        <time>2026-08-12T15:59:01.000Z</time>
      </trkpt>
      <trkpt lat="45.70528" lon="-0.54696">
        <ele>3.9</ele>
        <time>2026-08-12T15:59:08.000Z</time>
      </trkpt>
      <trkpt lat="45.70547" lon="-0.54692">
        <ele>3.4</ele>
        <time>2026-08-12T15:59:13.000Z</time>
      </trkpt>
      <trkpt lat="45.70568" lon="-0.54685">
        <ele>3.5</ele>
        <time>2026-08-12T15:59:19.000Z</time>
      </trkpt>
      <trkpt lat="45.70597" lon="-0.54677">
        <ele>3.7</ele>
        <time>2026-08-12T15:59:26.000Z</time>
      </trkpt>
      <trkpt lat="45.70611" lon="-0.54687">
        <ele>4</ele>
        <time>2026-08-12T15:59:30.000Z</time>
      </trkpt>
      <trkpt lat="45.70625" lon="-0.54715">
        <ele>3.9</ele>
        <time>2026-08-12T15:59:36.000Z</time>
      </trkpt>
      <trkpt lat="45.70644" lon="-0.54734">
        <ele>3.9</ele>
        <time>2026-08-12T15:59:42.000Z</time>
      </trkpt>
      <trkpt lat="45.70669" lon="-0.54751">
        <ele>3.9</ele>
        <time>2026-08-12T15:59:49.000Z</time>
      </trkpt>
      <trkpt lat="45.70688" lon="-0.54775">
        <ele>3.9</ele>
        <time>2026-08-12T15:59:55.000Z</time>
      </trkpt>
      <trkpt lat="45.70713" lon="-0.54806">
        <ele>3.4</ele>
        <time>2026-08-12T16:00:03.000Z</time>
      </trkpt>
      <trkpt lat="45.70715" lon="-0.5481">
        <ele>3.4</ele>
        <time>2026-08-12T16:00:04.000Z</time>
      </trkpt>
      <trkpt lat="45.70732" lon="-0.54832">
        <ele>3.9</ele>
        <time>2026-08-12T16:00:10.000Z</time>
      </trkpt>
      <trkpt lat="45.70751" lon="-0.54859">
        <ele>4</ele>
        <time>2026-08-12T16:00:17.000Z</time>
      </trkpt>
      <trkpt lat="45.70769" lon="-0.54896">
        <ele>3.5</ele>
        <time>2026-08-12T16:00:25.000Z</time>
      </trkpt>
      <trkpt lat="45.70788" lon="-0.54939">
        <ele>3.6</ele>
        <time>2026-08-12T16:00:34.000Z</time>
      </trkpt>
      <trkpt lat="45.70808" lon="-0.54965">
        <ele>3.7</ele>
        <time>2026-08-12T16:00:41.000Z</time>
      </trkpt>
      <trkpt lat="45.70823" lon="-0.54989">
        <ele>3.7</ele>
        <time>2026-08-12T16:00:47.000Z</time>
      </trkpt>
      <trkpt lat="45.70847" lon="-0.5501">
        <ele>3.7</ele>
        <time>2026-08-12T16:00:54.000Z</time>
      </trkpt>
      <trkpt lat="45.70869" lon="-0.55034">
        <ele>3.7</ele>
        <time>2026-08-12T16:01:01.000Z</time>
      </trkpt>
      <trkpt lat="45.70872" lon="-0.55038">
        <ele>3.6</ele>
        <time>2026-08-12T16:01:02.000Z</time>
      </trkpt>
      <trkpt lat="45.70892" lon="-0.55064">
        <ele>3.3</ele>
        <time>2026-08-12T16:01:09.000Z</time>
      </trkpt>
      <trkpt lat="45.70913" lon="-0.55097">
        <ele>3.6</ele>
        <time>2026-08-12T16:01:17.000Z</time>
      </trkpt>
      <trkpt lat="45.7094" lon="-0.55135">
        <ele>3.9</ele>
        <time>2026-08-12T16:01:27.000Z</time>
      </trkpt>
      <trkpt lat="45.70959" lon="-0.55151">
        <ele>3.7</ele>
        <time>2026-08-12T16:01:33.000Z</time>
      </trkpt>
      <trkpt lat="45.70985" lon="-0.55175">
        <ele>3.7</ele>
        <time>2026-08-12T16:01:41.000Z</time>
      </trkpt>
      <trkpt lat="45.71011" lon="-0.55194">
        <ele>4</ele>
        <time>2026-08-12T16:01:49.000Z</time>
      </trkpt>
      <trkpt lat="45.71025" lon="-0.552">
        <ele>4</ele>
        <time>2026-08-12T16:01:53.000Z</time>
      </trkpt>
      <trkpt lat="45.71037" lon="-0.55201">
        <ele>4</ele>
        <time>2026-08-12T16:01:56.000Z</time>
      </trkpt>
      <trkpt lat="45.71069" lon="-0.55208">
        <ele>3.8</ele>
        <time>2026-08-12T16:02:04.000Z</time>
      </trkpt>
      <trkpt lat="45.71084" lon="-0.55223">
        <ele>4</ele>
        <time>2026-08-12T16:02:09.000Z</time>
      </trkpt>
      <trkpt lat="45.711" lon="-0.55249">
        <ele>4</ele>
        <time>2026-08-12T16:02:16.000Z</time>
      </trkpt>
      <trkpt lat="45.7112" lon="-0.55272">
        <ele>4</ele>
        <time>2026-08-12T16:02:24.000Z</time>
      </trkpt>
      <trkpt lat="45.71139" lon="-0.55281">
        <ele>4</ele>
        <time>2026-08-12T16:02:30.000Z</time>
      </trkpt>
      <trkpt lat="45.71164" lon="-0.55282">
        <ele>4</ele>
        <time>2026-08-12T16:02:37.000Z</time>
      </trkpt>
      <trkpt lat="45.71198" lon="-0.55282">
        <ele>4</ele>
        <time>2026-08-12T16:02:46.000Z</time>
      </trkpt>
      <trkpt lat="45.71228" lon="-0.55285">
        <ele>4</ele>
        <time>2026-08-12T16:02:54.000Z</time>
      </trkpt>
      <trkpt lat="45.71254" lon="-0.55299">
        <ele>4</ele>
        <time>2026-08-12T16:03:01.000Z</time>
      </trkpt>
      <trkpt lat="45.71275" lon="-0.55324">
        <ele>4</ele>
        <time>2026-08-12T16:03:08.000Z</time>
      </trkpt>
      <trkpt lat="45.71295" lon="-0.55353">
        <ele>3.6</ele>
        <time>2026-08-12T16:03:16.000Z</time>
      </trkpt>
      <trkpt lat="45.71298" lon="-0.55379">
        <ele>3.3</ele>
        <time>2026-08-12T16:03:22.000Z</time>
      </trkpt>
      <trkpt lat="45.71295" lon="-0.55399">
        <ele>3.4</ele>
        <time>2026-08-12T16:03:27.000Z</time>
      </trkpt>
      <trkpt lat="45.71294" lon="-0.55404">
        <ele>3.4</ele>
        <time>2026-08-12T16:03:28.000Z</time>
      </trkpt>
      <trkpt lat="45.71288" lon="-0.55432">
        <ele>3.6</ele>
        <time>2026-08-12T16:03:34.000Z</time>
      </trkpt>
      <trkpt lat="45.71281" lon="-0.55475">
        <ele>3.9</ele>
        <time>2026-08-12T16:03:42.000Z</time>
      </trkpt>
      <trkpt lat="45.71282" lon="-0.55519">
        <ele>3.9</ele>
        <time>2026-08-12T16:03:50.000Z</time>
      </trkpt>
      <trkpt lat="45.71282" lon="-0.5553">
        <ele>3.8</ele>
        <time>2026-08-12T16:03:52.000Z</time>
      </trkpt>
      <trkpt lat="45.71285" lon="-0.55583">
        <ele>3.7</ele>
        <time>2026-08-12T16:04:01.000Z</time>
      </trkpt>
      <trkpt lat="45.71291" lon="-0.55637">
        <ele>3.5</ele>
        <time>2026-08-12T16:04:11.000Z</time>
      </trkpt>
      <trkpt lat="45.71296" lon="-0.55682">
        <ele>3.4</ele>
        <time>2026-08-12T16:04:19.000Z</time>
      </trkpt>
      <trkpt lat="45.71297" lon="-0.55723">
        <ele>3.3</ele>
        <time>2026-08-12T16:04:26.000Z</time>
      </trkpt>
      <trkpt lat="45.71302" lon="-0.55752">
        <ele>4</ele>
        <time>2026-08-12T16:04:32.000Z</time>
      </trkpt>
      <trkpt lat="45.71312" lon="-0.55775">
        <ele>3.8</ele>
        <time>2026-08-12T16:04:37.000Z</time>
      </trkpt>
      <trkpt lat="45.71321" lon="-0.55799">
        <ele>3.5</ele>
        <time>2026-08-12T16:04:42.000Z</time>
      </trkpt>
      <trkpt lat="45.71331" lon="-0.55834">
        <ele>3.1</ele>
        <time>2026-08-12T16:04:50.000Z</time>
      </trkpt>
      <trkpt lat="45.71342" lon="-0.55866">
        <ele>3.7</ele>
        <time>2026-08-12T16:04:58.000Z</time>
      </trkpt>
      <trkpt lat="45.71355" lon="-0.5591">
        <ele>3.2</ele>
        <time>2026-08-12T16:05:08.000Z</time>
      </trkpt>
      <trkpt lat="45.71368" lon="-0.5594">
        <ele>3.7</ele>
        <time>2026-08-12T16:05:15.000Z</time>
      </trkpt>
      <trkpt lat="45.7138" lon="-0.55963">
        <ele>3.3</ele>
        <time>2026-08-12T16:05:21.000Z</time>
      </trkpt>
      <trkpt lat="45.71395" lon="-0.55989">
        <ele>3.5</ele>
        <time>2026-08-12T16:05:28.000Z</time>
      </trkpt>
      <trkpt lat="45.71409" lon="-0.56019">
        <ele>3.3</ele>
        <time>2026-08-12T16:05:35.000Z</time>
      </trkpt>
      <trkpt lat="45.71412" lon="-0.56042">
        <ele>3.2</ele>
        <time>2026-08-12T16:05:40.000Z</time>
      </trkpt>
      <trkpt lat="45.71417" lon="-0.56062">
        <ele>3.3</ele>
        <time>2026-08-12T16:05:46.000Z</time>
      </trkpt>
      <trkpt lat="45.71421" lon="-0.56068">
        <ele>3.6</ele>
        <time>2026-08-12T16:05:49.000Z</time>
      </trkpt>
      <trkpt lat="45.71424" lon="-0.56068">
        <ele>3.6</ele>
        <time>2026-08-12T16:05:50.000Z</time>
      </trkpt>
      <trkpt lat="45.71432" lon="-0.56061">
        <ele>3.6</ele>
        <time>2026-08-12T16:05:56.000Z</time>
      </trkpt>
      <trkpt lat="45.71434" lon="-0.56062">
        <ele>3.7</ele>
        <time>2026-08-12T16:05:59.000Z</time>
      </trkpt>
      <trkpt lat="45.71435" lon="-0.56062">
        <ele>3.7</ele>
        <time>2026-08-12T16:06:00.000Z</time>
      </trkpt>
      <trkpt lat="45.71437" lon="-0.56061">
        <ele>3.8</ele>
        <time>2026-08-12T16:06:02.000Z</time>
      </trkpt>
      <trkpt lat="45.71436" lon="-0.56058">
        <ele>3.7</ele>
        <time>2026-08-12T16:06:04.000Z</time>
      </trkpt>
      <trkpt lat="45.71435" lon="-0.56054">
        <ele>3.6</ele>
        <time>2026-08-12T16:06:06.000Z</time>
      </trkpt>
      <trkpt lat="45.71436" lon="-0.56054">
        <ele>3.6</ele>
        <time>2026-08-12T16:06:08.000Z</time>
      </trkpt>
      <trkpt lat="45.71441" lon="-0.56047">
        <ele>3.6</ele>
        <time>2026-08-12T16:06:23.000Z</time>
      </trkpt>
      <trkpt lat="45.71443" lon="-0.56045">
        <ele>3.6</ele>
        <time>2026-08-12T16:06:25.000Z</time>
      </trkpt>
      <trkpt lat="45.71445" lon="-0.56042">
        <ele>3.5</ele>
        <time>2026-08-12T16:06:27.000Z</time>
      </trkpt>
      <trkpt lat="45.71446" lon="-0.56041">
        <ele>3.5</ele>
        <time>2026-08-12T16:06:29.000Z</time>
      </trkpt>
      <trkpt lat="45.71445" lon="-0.56041">
        <ele>3.5</ele>
        <time>2026-08-12T16:06:30.000Z</time>
      </trkpt>
      <trkpt lat="45.71475" lon="-0.55972">
        <ele>3</ele>
        <time>2026-08-12T16:11:21.000Z</time>
      </trkpt>
      <trkpt lat="45.7148" lon="-0.55971">
        <ele>3</ele>
        <time>2026-08-12T16:11:24.000Z</time>
      </trkpt>
      <trkpt lat="45.71489" lon="-0.55974">
        <ele>3</ele>
        <time>2026-08-12T16:11:29.000Z</time>
      </trkpt>
      <trkpt lat="45.71491" lon="-0.55975">
        <ele>3.1</ele>
        <time>2026-08-12T16:11:30.000Z</time>
      </trkpt>
      <trkpt lat="45.71497" lon="-0.55976">
        <ele>3.1</ele>
        <time>2026-08-12T16:11:33.000Z</time>
      </trkpt>
      <trkpt lat="45.71501" lon="-0.55973">
        <ele>3.1</ele>
        <time>2026-08-12T16:11:35.000Z</time>
      </trkpt>
      <trkpt lat="45.71518" lon="-0.55959">
        <ele>3.7</ele>
        <time>2026-08-12T16:11:43.000Z</time>
      </trkpt>
      <trkpt lat="45.71533" lon="-0.55945">
        <ele>4</ele>
        <time>2026-08-12T16:11:50.000Z</time>
      </trkpt>
      <trkpt lat="45.71542" lon="-0.55934">
        <ele>4</ele>
        <time>2026-08-12T16:11:55.000Z</time>
      </trkpt>
      <trkpt lat="45.71542" lon="-0.5593">
        <ele>4</ele>
        <time>2026-08-12T16:11:56.000Z</time>
      </trkpt>
      <trkpt lat="45.7154" lon="-0.55927">
        <ele>4</ele>
        <time>2026-08-12T16:11:57.000Z</time>
      </trkpt>
      <trkpt lat="45.71536" lon="-0.55918">
        <ele>4</ele>
        <time>2026-08-12T16:12:00.000Z</time>
      </trkpt>
      <trkpt lat="45.71528" lon="-0.559">
        <ele>4</ele>
        <time>2026-08-12T16:12:07.000Z</time>
      </trkpt>
      <trkpt lat="45.71524" lon="-0.55894">
        <ele>4</ele>
        <time>2026-08-12T16:12:12.000Z</time>
      </trkpt>
      <trkpt lat="45.71524" lon="-0.55893">
        <ele>4</ele>
        <time>2026-08-12T16:12:13.000Z</time>
      </trkpt>
      <trkpt lat="45.71525" lon="-0.55891">
        <ele>4</ele>
        <time>2026-08-12T16:12:15.000Z</time>
      </trkpt>
      <trkpt lat="45.71525" lon="-0.55891">
        <ele>4</ele>
        <time>2026-08-12T16:12:17.000Z</time>
        <extensions>
          <visugpx:TrkExtension xmlns:visugpx="https://www.visugpx.com/editgpx/">
            <visugpx:node>2</visugpx:node>
            </visugpx:TrkExtension>
        </extensions>
      </trkpt>
      <trkpt lat="45.71556" lon="-0.55921">
        <ele>4</ele>
      </trkpt>
      <trkpt lat="45.7159" lon="-0.55889">
        <ele>5.2</ele>
      </trkpt>
      <trkpt lat="45.71595" lon="-0.55878">
        <ele>5.6</ele>
      </trkpt>
      <trkpt lat="45.71624" lon="-0.55856">
        <ele>7.3</ele>
      </trkpt>
      <trkpt lat="45.71648" lon="-0.55842">
        <ele>8.5</ele>
      </trkpt>
      <trkpt lat="45.71669" lon="-0.55831">
        <ele>9.1</ele>
      </trkpt>
      <trkpt lat="45.71678" lon="-0.55826">
        <ele>9.3</ele>
      </trkpt>
      <trkpt lat="45.71694" lon="-0.55819">
        <ele>9.5</ele>
      </trkpt>
      <trkpt lat="45.71725" lon="-0.55803">
        <ele>10</ele>
      </trkpt>
      <trkpt lat="45.71749" lon="-0.55797">
        <ele>10</ele>
      </trkpt>
      <trkpt lat="45.71757" lon="-0.55794">
        <ele>10</ele>
      </trkpt>
      <trkpt lat="45.71783" lon="-0.55776">
        <ele>10.2</ele>
      </trkpt>
      <trkpt lat="45.71787" lon="-0.55775">
        <ele>10.4</ele>
      </trkpt>
      <trkpt lat="45.71792" lon="-0.55771">
        <ele>10.6</ele>
      </trkpt>
      <trkpt lat="45.71797" lon="-0.55769">
        <ele>10.8</ele>
      </trkpt>
      <trkpt lat="45.71806" lon="-0.55767">
        <ele>11</ele>
      </trkpt>
      <trkpt lat="45.71807" lon="-0.55764">
        <ele>11</ele>
      </trkpt>
      <trkpt lat="45.71808" lon="-0.55761">
        <ele>11.1</ele>
      </trkpt>
      <trkpt lat="45.7181" lon="-0.5576">
        <ele>11.2</ele>
      </trkpt>
      <trkpt lat="45.71812" lon="-0.55759">
        <ele>11.2</ele>
      </trkpt>
      <trkpt lat="45.71814" lon="-0.55759">
        <ele>11.3</ele>
      </trkpt>
      <trkpt lat="45.71816" lon="-0.55761">
        <ele>11.4</ele>
      </trkpt>
      <trkpt lat="45.71818" lon="-0.55763">
        <ele>11.4</ele>
      </trkpt>
      <trkpt lat="45.71819" lon="-0.55766">
        <ele>11.5</ele>
      </trkpt>
      <trkpt lat="45.71819" lon="-0.55769">
        <ele>11.5</ele>
      </trkpt>
      <trkpt lat="45.71818" lon="-0.55772">
        <ele>11.5</ele>
      </trkpt>
      <trkpt lat="45.71817" lon="-0.55775">
        <ele>11.4</ele>
      </trkpt>
      <trkpt lat="45.71816" lon="-0.55776">
        <ele>11.4</ele>
      </trkpt>
      <trkpt lat="45.71814" lon="-0.55777">
        <ele>11.3</ele>
      </trkpt>
      <trkpt lat="45.71815" lon="-0.55794">
        <ele>11.3</ele>
      </trkpt>
      <trkpt lat="45.71815" lon="-0.55813">
        <ele>11.1</ele>
      </trkpt>
      <trkpt lat="45.71815" lon="-0.5582">
        <ele>10.8</ele>
      </trkpt>
      <trkpt lat="45.71816" lon="-0.55826">
        <ele>10.6</ele>
      </trkpt>
      <trkpt lat="45.71818" lon="-0.55835">
        <ele>10.4</ele>
      </trkpt>
      <trkpt lat="45.71821" lon="-0.55849">
        <ele>10.6</ele>
      </trkpt>
      <trkpt lat="45.71868" lon="-0.55991">
        <ele>10.1</ele>
      </trkpt>
      <trkpt lat="45.71887" lon="-0.56048">
        <ele>9.9</ele>
      </trkpt>
      <trkpt lat="45.71906" lon="-0.56105">
        <ele>9.7</ele>
      </trkpt>
      <trkpt lat="45.71927" lon="-0.56172">
        <ele>9.3</ele>
      </trkpt>
      <trkpt lat="45.71934" lon="-0.56191">
        <ele>9.1</ele>
      </trkpt>
      <trkpt lat="45.71942" lon="-0.5621">
        <ele>8.9</ele>
      </trkpt>
      <trkpt lat="45.71951" lon="-0.56232">
        <ele>9</ele>
      </trkpt>
      <trkpt lat="45.71959" lon="-0.56253">
        <ele>9</ele>
      </trkpt>
      <trkpt lat="45.71965" lon="-0.56266">
        <ele>9</ele>
      </trkpt>
      <trkpt lat="45.71996" lon="-0.56335">
        <ele>9</ele>
      </trkpt>
      <trkpt lat="45.71997" lon="-0.56339">
        <ele>9</ele>
      </trkpt>
      <trkpt lat="45.72" lon="-0.56345">
        <ele>9</ele>
      </trkpt>
      <trkpt lat="45.72012" lon="-0.56371">
        <ele>9.3</ele>
      </trkpt>
      <trkpt lat="45.72033" lon="-0.56418">
        <ele>9.2</ele>
      </trkpt>
      <trkpt lat="45.72061" lon="-0.56479">
        <ele>10</ele>
      </trkpt>
      <trkpt lat="45.72067" lon="-0.56491">
        <ele>9.7</ele>
      </trkpt>
      <trkpt lat="45.72068" lon="-0.56493">
        <ele>9.7</ele>
      </trkpt>
      <trkpt lat="45.72077" lon="-0.56509">
        <ele>9.8</ele>
      </trkpt>
      <trkpt lat="45.72094" lon="-0.56538">
        <ele>10.4</ele>
      </trkpt>
      <trkpt lat="45.72137" lon="-0.56608">
        <ele>11.8</ele>
      </trkpt>
      <trkpt lat="45.72143" lon="-0.56617">
        <ele>11.8</ele>
      </trkpt>
      <trkpt lat="45.72152" lon="-0.56631">
        <ele>11.7</ele>
      </trkpt>
      <trkpt lat="45.72167" lon="-0.56653">
        <ele>12.5</ele>
      </trkpt>
      <trkpt lat="45.72174" lon="-0.56664">
        <ele>12.7</ele>
      </trkpt>
      <trkpt lat="45.72205" lon="-0.56705">
        <ele>14.4</ele>
      </trkpt>
      <trkpt lat="45.72219" lon="-0.56724">
        <ele>14.6</ele>
      </trkpt>
      <trkpt lat="45.72222" lon="-0.56728">
        <ele>14.8</ele>
      </trkpt>
      <trkpt lat="45.72238" lon="-0.5675">
        <ele>15.1</ele>
      </trkpt>
      <trkpt lat="45.72245" lon="-0.56754">
        <ele>15.5</ele>
      </trkpt>
      <trkpt lat="45.7225" lon="-0.56757">
        <ele>15.8</ele>
      </trkpt>
      <trkpt lat="45.72256" lon="-0.56759">
        <ele>16.1</ele>
      </trkpt>
      <trkpt lat="45.72259" lon="-0.56759">
        <ele>16.4</ele>
      </trkpt>
      <trkpt lat="45.72263" lon="-0.5676">
        <ele>16.6</ele>
      </trkpt>
      <trkpt lat="45.72264" lon="-0.5676">
        <ele>16.6</ele>
      </trkpt>
      <trkpt lat="45.72267" lon="-0.56763">
        <ele>16.8</ele>
      </trkpt>
      <trkpt lat="45.7227" lon="-0.56767">
        <ele>16.8</ele>
      </trkpt>
      <trkpt lat="45.72271" lon="-0.56772">
        <ele>16.7</ele>
      </trkpt>
      <trkpt lat="45.72272" lon="-0.56777">
        <ele>16.6</ele>
      </trkpt>
      <trkpt lat="45.72272" lon="-0.56778">
        <ele>16.6</ele>
      </trkpt>
      <trkpt lat="45.72271" lon="-0.56784">
        <ele>16.5</ele>
      </trkpt>
      <trkpt lat="45.72269" lon="-0.56789">
        <ele>16.3</ele>
      </trkpt>
      <trkpt lat="45.7227" lon="-0.56797">
        <ele>16.2</ele>
      </trkpt>
      <trkpt lat="45.72271" lon="-0.56806">
        <ele>16.3</ele>
      </trkpt>
      <trkpt lat="45.72274" lon="-0.56817">
        <ele>16.1</ele>
      </trkpt>
      <trkpt lat="45.72278" lon="-0.56835">
        <ele>16</ele>
      </trkpt>
      <trkpt lat="45.72281" lon="-0.56854">
        <ele>16.4</ele>
        <extensions>
          <visugpx:TrkExtension xmlns:visugpx="https://www.visugpx.com/editgpx/">
            <visugpx:node>3</visugpx:node>
            </visugpx:TrkExtension>
        </extensions>
      </trkpt>
      <trkpt lat="45.72306" lon="-0.56932">
        <ele>15.5</ele>
      </trkpt>
      <trkpt lat="45.72322" lon="-0.5698">
        <ele>15.6</ele>
      </trkpt>
      <trkpt lat="45.72328" lon="-0.56997">
        <ele>16.1</ele>
      </trkpt>
      <trkpt lat="45.72334" lon="-0.57012">
        <ele>16.2</ele>
      </trkpt>
      <trkpt lat="45.72342" lon="-0.5703">
        <ele>16.1</ele>
      </trkpt>
      <trkpt lat="45.72349" lon="-0.57045">
        <ele>16.7</ele>
      </trkpt>
      <trkpt lat="45.72353" lon="-0.57052">
        <ele>16.9</ele>
      </trkpt>
      <trkpt lat="45.72373" lon="-0.57087">
        <ele>17.1</ele>
      </trkpt>
      <trkpt lat="45.72385" lon="-0.57107">
        <ele>17.6</ele>
      </trkpt>
      <trkpt lat="45.72399" lon="-0.57131">
        <ele>17.5</ele>
      </trkpt>
      <trkpt lat="45.724" lon="-0.57133">
        <ele>17.5</ele>
      </trkpt>
      <trkpt lat="45.72435" lon="-0.57193">
        <ele>17.4</ele>
      </trkpt>
      <trkpt lat="45.72445" lon="-0.5721">
        <ele>16.9</ele>
      </trkpt>
      <trkpt lat="45.72447" lon="-0.57214">
        <ele>16.8</ele>
      </trkpt>
      <trkpt lat="45.72454" lon="-0.57226">
        <ele>16.5</ele>
      </trkpt>
      <trkpt lat="45.72463" lon="-0.57244">
        <ele>16.5</ele>
      </trkpt>
      <trkpt lat="45.72465" lon="-0.5725">
        <ele>16.5</ele>
      </trkpt>
      <trkpt lat="45.72471" lon="-0.57264">
        <ele>16.4</ele>
      </trkpt>
      <trkpt lat="45.72477" lon="-0.57278">
        <ele>16.3</ele>
      </trkpt>
      <trkpt lat="45.72483" lon="-0.57293">
        <ele>15.9</ele>
      </trkpt>
      <trkpt lat="45.72488" lon="-0.57308">
        <ele>15.7</ele>
      </trkpt>
      <trkpt lat="45.72497" lon="-0.57329">
        <ele>15.8</ele>
      </trkpt>
      <trkpt lat="45.72513" lon="-0.57373">
        <ele>15.2</ele>
      </trkpt>
      <trkpt lat="45.72526" lon="-0.57405">
        <ele>16.2</ele>
      </trkpt>
      <trkpt lat="45.72527" lon="-0.57407">
        <ele>16.2</ele>
      </trkpt>
      <trkpt lat="45.72535" lon="-0.57428">
        <ele>15.9</ele>
      </trkpt>
      <trkpt lat="45.72544" lon="-0.57453">
        <ele>15.9</ele>
      </trkpt>
      <trkpt lat="45.72551" lon="-0.57473">
        <ele>15.5</ele>
      </trkpt>
      <trkpt lat="45.72557" lon="-0.5749">
        <ele>15.6</ele>
      </trkpt>
      <trkpt lat="45.72562" lon="-0.57503">
        <ele>15.5</ele>
      </trkpt>
      <trkpt lat="45.72568" lon="-0.57524">
        <ele>15</ele>
      </trkpt>
      <trkpt lat="45.72575" lon="-0.57547">
        <ele>14.8</ele>
      </trkpt>
      <trkpt lat="45.72579" lon="-0.57564">
        <ele>14.4</ele>
      </trkpt>
      <trkpt lat="45.72582" lon="-0.5758">
        <ele>14</ele>
      </trkpt>
      <trkpt lat="45.72599" lon="-0.57654">
        <ele>13</ele>
      </trkpt>
      <trkpt lat="45.72612" lon="-0.57708">
        <ele>11.6</ele>
      </trkpt>
      <trkpt lat="45.7262" lon="-0.57743">
        <ele>11.5</ele>
      </trkpt>
      <trkpt lat="45.72627" lon="-0.57772">
        <ele>11.4</ele>
      </trkpt>
      <trkpt lat="45.72633" lon="-0.57792">
        <ele>11</ele>
      </trkpt>
      <trkpt lat="45.72638" lon="-0.57811">
        <ele>10.8</ele>
      </trkpt>
      <trkpt lat="45.72646" lon="-0.57838">
        <ele>10.1</ele>
      </trkpt>
      <trkpt lat="45.72667" lon="-0.57902">
        <ele>11</ele>
      </trkpt>
      <trkpt lat="45.72673" lon="-0.5792">
        <ele>11.4</ele>
      </trkpt>
      <trkpt lat="45.7269" lon="-0.57973">
        <ele>11.7</ele>
      </trkpt>
      <trkpt lat="45.72691" lon="-0.57977">
        <ele>11.7</ele>
      </trkpt>
      <trkpt lat="45.72707" lon="-0.58025">
        <ele>12.1</ele>
      </trkpt>
      <trkpt lat="45.72712" lon="-0.58039">
        <ele>12</ele>
      </trkpt>
      <trkpt lat="45.72717" lon="-0.58057">
        <ele>11.8</ele>
      </trkpt>
      <trkpt lat="45.72721" lon="-0.58067">
        <ele>11.6</ele>
      </trkpt>
      <trkpt lat="45.72726" lon="-0.58086">
        <ele>11.6</ele>
      </trkpt>
      <trkpt lat="45.72731" lon="-0.5811">
        <ele>12</ele>
      </trkpt>
      <trkpt lat="45.72733" lon="-0.58124">
        <ele>11.6</ele>
      </trkpt>
      <trkpt lat="45.72735" lon="-0.58137">
        <ele>11</ele>
      </trkpt>
      <trkpt lat="45.72737" lon="-0.58154">
        <ele>10.2</ele>
      </trkpt>
      <trkpt lat="45.72739" lon="-0.58172">
        <ele>9.3</ele>
      </trkpt>
      <trkpt lat="45.72739" lon="-0.58186">
        <ele>8.5</ele>
      </trkpt>
      <trkpt lat="45.7274" lon="-0.58202">
        <ele>7.7</ele>
      </trkpt>
      <trkpt lat="45.7274" lon="-0.58219">
        <ele>7.1</ele>
      </trkpt>
      <trkpt lat="45.72739" lon="-0.58242">
        <ele>6.4</ele>
      </trkpt>
      <trkpt lat="45.72738" lon="-0.58262">
        <ele>6.5</ele>
      </trkpt>
      <trkpt lat="45.72737" lon="-0.58278">
        <ele>7</ele>
      </trkpt>
      <trkpt lat="45.72736" lon="-0.5829">
        <ele>6.8</ele>
      </trkpt>
      <trkpt lat="45.72736" lon="-0.58303">
        <ele>6.5</ele>
      </trkpt>
      <trkpt lat="45.72736" lon="-0.58325">
        <ele>6.4</ele>
      </trkpt>
      <trkpt lat="45.72736" lon="-0.58348">
        <ele>6.8</ele>
      </trkpt>
      <trkpt lat="45.72738" lon="-0.58368">
        <ele>7</ele>
      </trkpt>
      <trkpt lat="45.7274" lon="-0.58387">
        <ele>6.8</ele>
      </trkpt>
      <trkpt lat="45.72743" lon="-0.58407">
        <ele>6.3</ele>
      </trkpt>
      <trkpt lat="45.72749" lon="-0.58431">
        <ele>6.5</ele>
      </trkpt>
      <trkpt lat="45.72756" lon="-0.58456">
        <ele>7.3</ele>
      </trkpt>
      <trkpt lat="45.72768" lon="-0.58493">
        <ele>6.3</ele>
      </trkpt>
      <trkpt lat="45.72773" lon="-0.58509">
        <ele>6.1</ele>
      </trkpt>
      <trkpt lat="45.72775" lon="-0.58516">
        <ele>6.3</ele>
      </trkpt>
      <trkpt lat="45.72784" lon="-0.58547">
        <ele>7.8</ele>
      </trkpt>
      <trkpt lat="45.72804" lon="-0.58608">
        <ele>6.8</ele>
      </trkpt>
      <trkpt lat="45.72813" lon="-0.58636">
        <ele>8</ele>
      </trkpt>
      <trkpt lat="45.72834" lon="-0.58694">
        <ele>7</ele>
      </trkpt>
      <trkpt lat="45.72856" lon="-0.58755">
        <ele>6.3</ele>
      </trkpt>
      <trkpt lat="45.72875" lon="-0.58807">
        <ele>6.5</ele>
      </trkpt>
      <trkpt lat="45.72887" lon="-0.58841">
        <ele>7</ele>
      </trkpt>
      <trkpt lat="45.7291" lon="-0.58905">
        <ele>7.5</ele>
      </trkpt>
      <trkpt lat="45.72916" lon="-0.58926">
        <ele>8</ele>
      </trkpt>
      <trkpt lat="45.72918" lon="-0.58936">
        <ele>8.1</ele>
      </trkpt>
      <trkpt lat="45.72918" lon="-0.58942">
        <ele>8.1</ele>
      </trkpt>
      <trkpt lat="45.72918" lon="-0.58947">
        <ele>8.2</ele>
      </trkpt>
      <trkpt lat="45.72918" lon="-0.58956">
        <ele>8.5</ele>
      </trkpt>
      <trkpt lat="45.72916" lon="-0.58967">
        <ele>8.7</ele>
      </trkpt>
      <trkpt lat="45.72915" lon="-0.58975">
        <ele>8.6</ele>
      </trkpt>
      <trkpt lat="45.72913" lon="-0.58984">
        <ele>8.1</ele>
      </trkpt>
      <trkpt lat="45.72913" lon="-0.58995">
        <ele>7.6</ele>
      </trkpt>
      <trkpt lat="45.72913" lon="-0.59005">
        <ele>7.5</ele>
      </trkpt>
      <trkpt lat="45.72914" lon="-0.59016">
        <ele>7.7</ele>
      </trkpt>
      <trkpt lat="45.72922" lon="-0.59055">
        <ele>6.7</ele>
      </trkpt>
      <trkpt lat="45.72931" lon="-0.591">
        <ele>6.5</ele>
      </trkpt>
      <trkpt lat="45.72935" lon="-0.59117">
        <ele>6.4</ele>
      </trkpt>
      <trkpt lat="45.72972" lon="-0.59305">
        <ele>7</ele>
      </trkpt>
      <trkpt lat="45.72993" lon="-0.59412">
        <ele>7</ele>
      </trkpt>
      <trkpt lat="45.73031" lon="-0.59604">
        <ele>7.5</ele>
      </trkpt>
      <trkpt lat="45.73042" lon="-0.5966">
        <ele>8.6</ele>
      </trkpt>
      <trkpt lat="45.7305" lon="-0.59708">
        <ele>7.6</ele>
      </trkpt>
      <trkpt lat="45.73056" lon="-0.59748">
        <ele>7.1</ele>
      </trkpt>
      <trkpt lat="45.73078" lon="-0.59889">
        <ele>7.2</ele>
      </trkpt>
      <trkpt lat="45.73094" lon="-0.60001">
        <ele>7.8</ele>
      </trkpt>
      <trkpt lat="45.73113" lon="-0.60127">
        <ele>6.6</ele>
      </trkpt>
      <trkpt lat="45.73126" lon="-0.60234">
        <ele>7.1</ele>
      </trkpt>
      <trkpt lat="45.73137" lon="-0.60335">
        <ele>6.8</ele>
      </trkpt>
      <trkpt lat="45.73144" lon="-0.60405">
        <ele>9.2</ele>
      </trkpt>
      <trkpt lat="45.73149" lon="-0.60457">
        <ele>7.3</ele>
      </trkpt>
      <trkpt lat="45.73151" lon="-0.60484">
        <ele>8.3</ele>
      </trkpt>
      <trkpt lat="45.73153" lon="-0.60505">
        <ele>10.3</ele>
      </trkpt>
      <trkpt lat="45.73154" lon="-0.6053">
        <ele>12.4</ele>
      </trkpt>
      <trkpt lat="45.73154" lon="-0.60557">
        <ele>14</ele>
      </trkpt>
      <trkpt lat="45.73154" lon="-0.60576">
        <ele>14.2</ele>
      </trkpt>
      <trkpt lat="45.73156" lon="-0.60593">
        <ele>14.6</ele>
      </trkpt>
      <trkpt lat="45.73157" lon="-0.60606">
        <ele>15.1</ele>
      </trkpt>
      <trkpt lat="45.7316" lon="-0.60618">
        <ele>15.7</ele>
      </trkpt>
      <trkpt lat="45.73165" lon="-0.60635">
        <ele>16.6</ele>
      </trkpt>
      <trkpt lat="45.7317" lon="-0.60651">
        <ele>16.7</ele>
      </trkpt>
      <trkpt lat="45.7318" lon="-0.60672">
        <ele>17.5</ele>
      </trkpt>
      <trkpt lat="45.73188" lon="-0.60689">
        <ele>19.7</ele>
      </trkpt>
      <trkpt lat="45.73194" lon="-0.607">
        <ele>21.2</ele>
      </trkpt>
      <trkpt lat="45.73204" lon="-0.60717">
        <ele>22.5</ele>
      </trkpt>
      <trkpt lat="45.73216" lon="-0.60736">
        <ele>23.7</ele>
      </trkpt>
      <trkpt lat="45.73226" lon="-0.60752">
        <ele>24.2</ele>
      </trkpt>
      <trkpt lat="45.73232" lon="-0.60763">
        <ele>24.8</ele>
      </trkpt>
      <trkpt lat="45.73236" lon="-0.60771">
        <ele>25.3</ele>
      </trkpt>
      <trkpt lat="45.73241" lon="-0.60784">
        <ele>25.7</ele>
      </trkpt>
      <trkpt lat="45.73249" lon="-0.60809">
        <ele>26</ele>
      </trkpt>
      <trkpt lat="45.73254" lon="-0.60823">
        <ele>26.1</ele>
      </trkpt>
      <trkpt lat="45.73255" lon="-0.60829">
        <ele>26.2</ele>
      </trkpt>
      <trkpt lat="45.73258" lon="-0.60838">
        <ele>26.4</ele>
      </trkpt>
      <trkpt lat="45.73262" lon="-0.60849">
        <ele>26.7</ele>
      </trkpt>
      <trkpt lat="45.73267" lon="-0.60864">
        <ele>27</ele>
      </trkpt>
      <trkpt lat="45.73269" lon="-0.60869">
        <ele>27</ele>
      </trkpt>
      <trkpt lat="45.73273" lon="-0.60882">
        <ele>27</ele>
      </trkpt>
      <trkpt lat="45.73279" lon="-0.60894">
        <ele>27.2</ele>
      </trkpt>
      <trkpt lat="45.73283" lon="-0.60903">
        <ele>27.6</ele>
      </trkpt>
      <trkpt lat="45.73292" lon="-0.60918">
        <ele>28</ele>
      </trkpt>
      <trkpt lat="45.73304" lon="-0.60934">
        <ele>27.4</ele>
      </trkpt>
      <trkpt lat="45.73312" lon="-0.60945">
        <ele>27</ele>
      </trkpt>
      <trkpt lat="45.73324" lon="-0.60962">
        <ele>26.6</ele>
      </trkpt>
      <trkpt lat="45.73332" lon="-0.60973">
        <ele>26</ele>
      </trkpt>
      <trkpt lat="45.7334" lon="-0.60977">
        <ele>26</ele>
      </trkpt>
      <trkpt lat="45.73349" lon="-0.60989">
        <ele>25.6</ele>
      </trkpt>
      <trkpt lat="45.73351" lon="-0.60994">
        <ele>25.4</ele>
      </trkpt>
      <trkpt lat="45.73354" lon="-0.60994">
        <ele>25.4</ele>
      </trkpt>
      <trkpt lat="45.73356" lon="-0.60996">
        <ele>25.3</ele>
      </trkpt>
      <trkpt lat="45.7336" lon="-0.60999">
        <ele>25.1</ele>
      </trkpt>
      <trkpt lat="45.73361" lon="-0.61002">
        <ele>24.9</ele>
      </trkpt>
      <trkpt lat="45.73362" lon="-0.61005">
        <ele>24.9</ele>
      </trkpt>
      <trkpt lat="45.73363" lon="-0.61008">
        <ele>24.8</ele>
      </trkpt>
      <trkpt lat="45.73363" lon="-0.61011">
        <ele>24.7</ele>
      </trkpt>
      <trkpt lat="45.73363" lon="-0.61014">
        <ele>24.5</ele>
      </trkpt>
      <trkpt lat="45.73367" lon="-0.61025">
        <ele>24.3</ele>
      </trkpt>
      <trkpt lat="45.7337" lon="-0.61034">
        <ele>24</ele>
      </trkpt>
      <trkpt lat="45.73394" lon="-0.61062">
        <ele>24.1</ele>
      </trkpt>
      <trkpt lat="45.73436" lon="-0.61114">
        <ele>22</ele>
      </trkpt>
      <trkpt lat="45.73441" lon="-0.61116">
        <ele>22</ele>
      </trkpt>
      <trkpt lat="45.73445" lon="-0.61117">
        <ele>22</ele>
      </trkpt>
      <trkpt lat="45.73451" lon="-0.61118">
        <ele>22.2</ele>
      </trkpt>
      <trkpt lat="45.73454" lon="-0.61118">
        <ele>22.3</ele>
      </trkpt>
      <trkpt lat="45.73457" lon="-0.61119">
        <ele>22.4</ele>
      </trkpt>
      <trkpt lat="45.7346" lon="-0.6112">
        <ele>22.5</ele>
      </trkpt>
      <trkpt lat="45.73462" lon="-0.61123">
        <ele>22.6</ele>
      </trkpt>
      <trkpt lat="45.73464" lon="-0.61126">
        <ele>22.7</ele>
      </trkpt>
      <trkpt lat="45.73465" lon="-0.61129">
        <ele>22.7</ele>
      </trkpt>
      <trkpt lat="45.73474" lon="-0.61138">
        <ele>23</ele>
      </trkpt>
      <trkpt lat="45.73482" lon="-0.61145">
        <ele>22.9</ele>
      </trkpt>
      <trkpt lat="45.7349" lon="-0.6115">
        <ele>22.7</ele>
      </trkpt>
      <trkpt lat="45.73501" lon="-0.61155">
        <ele>22.4</ele>
      </trkpt>
      <trkpt lat="45.73509" lon="-0.61161">
        <ele>22.1</ele>
      </trkpt>
      <trkpt lat="45.73516" lon="-0.61167">
        <ele>22</ele>
      </trkpt>
      <trkpt lat="45.73524" lon="-0.61176">
        <ele>22</ele>
      </trkpt>
      <trkpt lat="45.7353" lon="-0.61183">
        <ele>21.9</ele>
      </trkpt>
      <trkpt lat="45.73535" lon="-0.61191">
        <ele>21.8</ele>
      </trkpt>
      <trkpt lat="45.73538" lon="-0.61197">
        <ele>21.7</ele>
      </trkpt>
      <trkpt lat="45.73549" lon="-0.61221">
        <ele>21.2</ele>
      </trkpt>
      <trkpt lat="45.73573" lon="-0.61268">
        <ele>20.4</ele>
      </trkpt>
      <trkpt lat="45.73583" lon="-0.61288">
        <ele>20</ele>
      </trkpt>
      <trkpt lat="45.73603" lon="-0.61327">
        <ele>19.3</ele>
      </trkpt>
      <trkpt lat="45.73607" lon="-0.61335">
        <ele>19.2</ele>
        <extensions>
          <visugpx:TrkExtension xmlns:visugpx="https://www.visugpx.com/editgpx/">
            <visugpx:node>4</visugpx:node>
            </visugpx:TrkExtension>
        </extensions>
      </trkpt>
      <trkpt lat="45.73621" lon="-0.61363">
        <ele>18.6</ele>
        <extensions>
          <visugpx:TrkExtension xmlns:visugpx="https://www.visugpx.com/editgpx/">
            <visugpx:node>5</visugpx:node>
            </visugpx:TrkExtension>
        </extensions>
      </trkpt>
      <trkpt lat="45.73627" lon="-0.61376">
        <ele>18.1</ele>
      </trkpt>
      <trkpt lat="45.73633" lon="-0.61386">
        <ele>17.5</ele>
      </trkpt>
      <trkpt lat="45.73647" lon="-0.61414">
        <ele>16.8</ele>
      </trkpt>
      <trkpt lat="45.73656" lon="-0.61433">
        <ele>16.4</ele>
      </trkpt>
      <trkpt lat="45.73659" lon="-0.6144">
        <ele>16.3</ele>
      </trkpt>
      <trkpt lat="45.73667" lon="-0.61454">
        <ele>16</ele>
      </trkpt>
      <trkpt lat="45.73676" lon="-0.61467">
        <ele>15.8</ele>
      </trkpt>
      <trkpt lat="45.73695" lon="-0.61497">
        <ele>15.9</ele>
      </trkpt>
      <trkpt lat="45.73712" lon="-0.61523">
        <ele>15.5</ele>
      </trkpt>
      <trkpt lat="45.7373" lon="-0.61548">
        <ele>15.1</ele>
      </trkpt>
      <trkpt lat="45.73756" lon="-0.61589">
        <ele>14.2</ele>
      </trkpt>
      <trkpt lat="45.73786" lon="-0.61637">
        <ele>14</ele>
      </trkpt>
      <trkpt lat="45.73789" lon="-0.61642">
        <ele>13.9</ele>
      </trkpt>
      <trkpt lat="45.73797" lon="-0.61653">
        <ele>13.5</ele>
      </trkpt>
      <trkpt lat="45.73804" lon="-0.61664">
        <ele>13.1</ele>
      </trkpt>
      <trkpt lat="45.73814" lon="-0.61679">
        <ele>13</ele>
      </trkpt>
      <trkpt lat="45.73842" lon="-0.61717">
        <ele>12.4</ele>
      </trkpt>
      <trkpt lat="45.73864" lon="-0.61745">
        <ele>12.2</ele>
      </trkpt>
      <trkpt lat="45.73874" lon="-0.61758">
        <ele>12.3</ele>
      </trkpt>
      <trkpt lat="45.73889" lon="-0.61777">
        <ele>12</ele>
      </trkpt>
      <trkpt lat="45.73892" lon="-0.6178">
        <ele>12.1</ele>
      </trkpt>
      <trkpt lat="45.73896" lon="-0.61786">
        <ele>12.2</ele>
      </trkpt>
      <trkpt lat="45.73922" lon="-0.6182">
        <ele>12.5</ele>
      </trkpt>
      <trkpt lat="45.73926" lon="-0.61826">
        <ele>12.3</ele>
      </trkpt>
      <trkpt lat="45.73931" lon="-0.61833">
        <ele>12</ele>
      </trkpt>
      <trkpt lat="45.73937" lon="-0.61844">
        <ele>11.9</ele>
      </trkpt>
      <trkpt lat="45.73943" lon="-0.61854">
        <ele>12</ele>
      </trkpt>
      <trkpt lat="45.73966" lon="-0.619">
        <ele>11.7</ele>
      </trkpt>
      <trkpt lat="45.73975" lon="-0.61917">
        <ele>11</ele>
      </trkpt>
      <trkpt lat="45.73981" lon="-0.61929">
        <ele>11</ele>
      </trkpt>
      <trkpt lat="45.73984" lon="-0.61937">
        <ele>11</ele>
      </trkpt>
      <trkpt lat="45.73988" lon="-0.61946">
        <ele>11</ele>
      </trkpt>
      <trkpt lat="45.73999" lon="-0.61981">
        <ele>10</ele>
      </trkpt>
      <trkpt lat="45.74003" lon="-0.61992">
        <ele>10</ele>
      </trkpt>
      <trkpt lat="45.74013" lon="-0.62025">
        <ele>10</ele>
      </trkpt>
      <trkpt lat="45.74022" lon="-0.62054">
        <ele>10</ele>
      </trkpt>
      <trkpt lat="45.74026" lon="-0.62064">
        <ele>10</ele>
      </trkpt>
      <trkpt lat="45.74029" lon="-0.62074">
        <ele>10</ele>
      </trkpt>
      <trkpt lat="45.74049" lon="-0.62119">
        <ele>9</ele>
      </trkpt>
      <trkpt lat="45.74053" lon="-0.6213">
        <ele>9</ele>
      </trkpt>
      <trkpt lat="45.74056" lon="-0.62128">
        <ele>9</ele>
      </trkpt>
      <trkpt lat="45.74063" lon="-0.62123">
        <ele>9.2</ele>
      </trkpt>
      <trkpt lat="45.74224" lon="-0.62027">
        <ele>9</ele>
      </trkpt>
      <trkpt lat="45.74248" lon="-0.62013">
        <ele>9</ele>
      </trkpt>
      <trkpt lat="45.74261" lon="-0.62005">
        <ele>9</ele>
      </trkpt>
      <trkpt lat="45.74287" lon="-0.61986">
        <ele>9.2</ele>
      </trkpt>
      <trkpt lat="45.74347" lon="-0.61943">
        <ele>10</ele>
      </trkpt>
      <trkpt lat="45.74352" lon="-0.61939">
        <ele>10.1</ele>
      </trkpt>
      <trkpt lat="45.74406" lon="-0.61926">
        <ele>11</ele>
      </trkpt>
      <trkpt lat="45.74475" lon="-0.61911">
        <ele>12</ele>
      </trkpt>
      <trkpt lat="45.74482" lon="-0.61909">
        <ele>12</ele>
      </trkpt>
      <trkpt lat="45.74511" lon="-0.61905">
        <ele>11.6</ele>
      </trkpt>
      <trkpt lat="45.74515" lon="-0.61904">
        <ele>11.5</ele>
      </trkpt>
      <trkpt lat="45.74517" lon="-0.61903">
        <ele>11.4</ele>
      </trkpt>
      <trkpt lat="45.74521" lon="-0.61901">
        <ele>11.3</ele>
      </trkpt>
      <trkpt lat="45.74525" lon="-0.61899">
        <ele>11.1</ele>
      </trkpt>
      <trkpt lat="45.74559" lon="-0.61881">
        <ele>10</ele>
      </trkpt>
      <trkpt lat="45.74625" lon="-0.61847">
        <ele>9.7</ele>
      </trkpt>
      <trkpt lat="45.74631" lon="-0.61846">
        <ele>9.7</ele>
      </trkpt>
      <trkpt lat="45.74634" lon="-0.61846">
        <ele>9.6</ele>
      </trkpt>
      <trkpt lat="45.74636" lon="-0.61842">
        <ele>9.7</ele>
      </trkpt>
      <trkpt lat="45.74639" lon="-0.61838">
        <ele>9.8</ele>
      </trkpt>
      <trkpt lat="45.7466" lon="-0.6183">
        <ele>9.3</ele>
      </trkpt>
      <trkpt lat="45.74683" lon="-0.6182">
        <ele>9.5</ele>
      </trkpt>
      <trkpt lat="45.7473" lon="-0.61809">
        <ele>8.8</ele>
      </trkpt>
      <trkpt lat="45.74742" lon="-0.61808">
        <ele>8.8</ele>
      </trkpt>
      <trkpt lat="45.74752" lon="-0.61806">
        <ele>9</ele>
      </trkpt>
      <trkpt lat="45.74801" lon="-0.61826">
        <ele>9.8</ele>
      </trkpt>
      <trkpt lat="45.7481" lon="-0.61831">
        <ele>10.1</ele>
      </trkpt>
      <trkpt lat="45.74815" lon="-0.61835">
        <ele>9.9</ele>
      </trkpt>
      <trkpt lat="45.74814" lon="-0.61837">
        <ele>9.7</ele>
      </trkpt>
      <trkpt lat="45.74814" lon="-0.6184">
        <ele>9.5</ele>
      </trkpt>
      <trkpt lat="45.74814" lon="-0.61842">
        <ele>9.3</ele>
      </trkpt>
      <trkpt lat="45.74814" lon="-0.61844">
        <ele>9.2</ele>
      </trkpt>
      <trkpt lat="45.74815" lon="-0.61847">
        <ele>9.1</ele>
      </trkpt>
      <trkpt lat="45.74817" lon="-0.61848">
        <ele>9</ele>
      </trkpt>
      <trkpt lat="45.74818" lon="-0.61849">
        <ele>9.1</ele>
      </trkpt>
      <trkpt lat="45.74819" lon="-0.6186">
        <ele>8.5</ele>
      </trkpt>
      <trkpt lat="45.74824" lon="-0.6186">
        <ele>9</ele>
      </trkpt>
      <trkpt lat="45.74906" lon="-0.61837">
        <ele>9.9</ele>
      </trkpt>
      <trkpt lat="45.74905" lon="-0.61829">
        <ele>10.2</ele>
      </trkpt>
      <trkpt lat="45.74905" lon="-0.6182">
        <ele>10.5</ele>
      </trkpt>
      <trkpt lat="45.74904" lon="-0.61814">
        <ele>10.7</ele>
      </trkpt>
      <trkpt lat="45.74903" lon="-0.61806">
        <ele>11</ele>
      </trkpt>
      <trkpt lat="45.74902" lon="-0.61797">
        <ele>11</ele>
      </trkpt>
      <trkpt lat="45.74897" lon="-0.61793">
        <ele>11</ele>
        <extensions>
          <visugpx:TrkExtension xmlns:visugpx="https://www.visugpx.com/editgpx/">
            <visugpx:node>6</visugpx:node>
            </visugpx:TrkExtension>
        </extensions>
      </trkpt>
      <trkpt lat="45.94712" lon="-0.96356">
        <ele>4.6</ele>
        <extensions>
          <visugpx:TrkExtension xmlns:visugpx="https://www.visugpx.com/editgpx/">
            <visugpx:node>7</visugpx:node>
            </visugpx:TrkExtension>
        </extensions>
      </trkpt>
      <trkpt lat="45.94713" lon="-0.96365">
        <ele>4.7</ele>
        <extensions>
          <visugpx:TrkExtension xmlns:visugpx="https://www.visugpx.com/editgpx/">
            <visugpx:node>2</visugpx:node>
            </visugpx:TrkExtension>
        </extensions>
      </trkpt>
      <trkpt lat="45.94711" lon="-0.96384">
        <ele>4.6</ele>
      </trkpt>
      <trkpt lat="45.94707" lon="-0.96408">
        <ele>4.5</ele>
      </trkpt>
      <trkpt lat="45.94707" lon="-0.96408">
        <ele>4.5</ele>
      </trkpt>
      <trkpt lat="45.94706" lon="-0.9642">
        <ele>4.5</ele>
      </trkpt>
      <trkpt lat="45.94706" lon="-0.9643">
        <ele>4.7</ele>
      </trkpt>
      <trkpt lat="45.94704" lon="-0.96421">
        <ele>4.4</ele>
      </trkpt>
      <trkpt lat="45.94701" lon="-0.96406">
        <ele>4.2</ele>
      </trkpt>
      <trkpt lat="45.94697" lon="-0.96395">
        <ele>4.1</ele>
      </trkpt>
      <trkpt lat="45.9469" lon="-0.96371">
        <ele>4</ele>
      </trkpt>
      <trkpt lat="45.94687" lon="-0.96362">
        <ele>4</ele>
      </trkpt>
      <trkpt lat="45.94689" lon="-0.96359">
        <ele>4</ele>
      </trkpt>
      <trkpt lat="45.9469" lon="-0.96356">
        <ele>4</ele>
      </trkpt>
      <trkpt lat="45.94691" lon="-0.96352">
        <ele>4</ele>
      </trkpt>
      <trkpt lat="45.94691" lon="-0.96348">
        <ele>4</ele>
      </trkpt>
      <trkpt lat="45.9469" lon="-0.96343">
        <ele>4</ele>
      </trkpt>
      <trkpt lat="45.94687" lon="-0.9634">
        <ele>4</ele>
      </trkpt>
      <trkpt lat="45.9469" lon="-0.96333">
        <ele>4</ele>
      </trkpt>
      <trkpt lat="45.94694" lon="-0.96324">
        <ele>4</ele>
      </trkpt>
      <trkpt lat="45.94705" lon="-0.9631">
        <ele>4.1</ele>
      </trkpt>
      <trkpt lat="45.94713" lon="-0.96299">
        <ele>4.1</ele>
      </trkpt>
      <trkpt lat="45.94715" lon="-0.96297">
        <ele>4.2</ele>
      </trkpt>
      <trkpt lat="45.94717" lon="-0.9628">
        <ele>4.8</ele>
      </trkpt>
      <trkpt lat="45.94716" lon="-0.9627">
        <ele>4.8</ele>
      </trkpt>
      <trkpt lat="45.94713" lon="-0.96263">
        <ele>4.7</ele>
      </trkpt>
      <trkpt lat="45.94697" lon="-0.96237">
        <ele>4.1</ele>
      </trkpt>
      <trkpt lat="45.94672" lon="-0.96194">
        <ele>4</ele>
      </trkpt>
      <trkpt lat="45.94661" lon="-0.96181">
        <ele>4</ele>
      </trkpt>
      <trkpt lat="45.94632" lon="-0.96141">
        <ele>4</ele>
      </trkpt>
      <trkpt lat="45.94623" lon="-0.96127">
        <ele>4</ele>
      </trkpt>
      <trkpt lat="45.94617" lon="-0.96095">
        <ele>4</ele>
      </trkpt>
      <trkpt lat="45.94611" lon="-0.96064">
        <ele>4</ele>
      </trkpt>
      <trkpt lat="45.94611" lon="-0.96036">
        <ele>4</ele>
      </trkpt>
      <trkpt lat="45.94611" lon="-0.96026">
        <ele>4</ele>
      </trkpt>
      <trkpt lat="45.94608" lon="-0.96026">
        <ele>4</ele>
      </trkpt>
      <trkpt lat="45.94606" lon="-0.96026">
        <ele>4</ele>
      </trkpt>
      <trkpt lat="45.94602" lon="-0.96026">
        <ele>4</ele>
      </trkpt>
      <trkpt lat="45.94598" lon="-0.96025">
        <ele>4</ele>
      </trkpt>
      <trkpt lat="45.9459" lon="-0.96025">
        <ele>4</ele>
      </trkpt>
      <trkpt lat="45.9459" lon="-0.96012">
        <ele>4</ele>
      </trkpt>
      <trkpt lat="45.94591" lon="-0.96003">
        <ele>4</ele>
      </trkpt>
      <trkpt lat="45.94591" lon="-0.95998">
        <ele>4</ele>
      </trkpt>
      <trkpt lat="45.94592" lon="-0.95961">
        <ele>4</ele>
      </trkpt>
      <trkpt lat="45.94592" lon="-0.95933">
        <ele>4</ele>
      </trkpt>
      <trkpt lat="45.94594" lon="-0.95878">
        <ele>3.6</ele>
      </trkpt>
      <trkpt lat="45.94589" lon="-0.95878">
        <ele>3.5</ele>
      </trkpt>
      <trkpt lat="45.94587" lon="-0.95878">
        <ele>3.5</ele>
      </trkpt>
      <trkpt lat="45.94556" lon="-0.95877">
        <ele>2.9</ele>
      </trkpt>
      <trkpt lat="45.94542" lon="-0.95876">
        <ele>2.7</ele>
      </trkpt>
      <trkpt lat="45.94539" lon="-0.95876">
        <ele>2.6</ele>
      </trkpt>
      <trkpt lat="45.94531" lon="-0.95875">
        <ele>2.5</ele>
      </trkpt>
      <trkpt lat="45.94524" lon="-0.95875">
        <ele>2.5</ele>
      </trkpt>
      <trkpt lat="45.94498" lon="-0.95874">
        <ele>2.6</ele>
      </trkpt>
      <trkpt lat="45.94487" lon="-0.95873">
        <ele>2.7</ele>
      </trkpt>
      <trkpt lat="45.94485" lon="-0.95873">
        <ele>2.7</ele>
      </trkpt>
      <trkpt lat="45.94473" lon="-0.95873">
        <ele>2.7</ele>
      </trkpt>
      <trkpt lat="45.9446" lon="-0.95872">
        <ele>3.7</ele>
      </trkpt>
      <trkpt lat="45.94459" lon="-0.9586">
        <ele>5</ele>
      </trkpt>
      <trkpt lat="45.94457" lon="-0.9586">
        <ele>5</ele>
      </trkpt>
      <trkpt lat="45.94453" lon="-0.95862">
        <ele>5.4</ele>
      </trkpt>
      <trkpt lat="45.94448" lon="-0.95857">
        <ele>5.6</ele>
      </trkpt>
      <trkpt lat="45.94444" lon="-0.95853">
        <ele>5.7</ele>
      </trkpt>
      <trkpt lat="45.94434" lon="-0.9584">
        <ele>4.8</ele>
      </trkpt>
      <trkpt lat="45.94428" lon="-0.95837">
        <ele>4.7</ele>
      </trkpt>
      <trkpt lat="45.94427" lon="-0.95837">
        <ele>4.7</ele>
      </trkpt>
      <trkpt lat="45.9438" lon="-0.95781">
        <ele>5</ele>
      </trkpt>
      <trkpt lat="45.94384" lon="-0.95774">
        <ele>5</ele>
      </trkpt>
      <trkpt lat="45.94387" lon="-0.95783">
        <ele>5</ele>
        <time>2026-08-13T09:11:15.000Z</time>
        <extensions>
          <visugpx:TrkExtension xmlns:visugpx="https://www.visugpx.com/editgpx/">
            <visugpx:node>1</visugpx:node>
            </visugpx:TrkExtension>
        </extensions>
      </trkpt>
      <trkpt lat="45.94386" lon="-0.9578">
        <ele>5</ele>
        <time>2026-08-13T09:11:16.000Z</time>
      </trkpt>
      <trkpt lat="45.94383" lon="-0.95771">
        <ele>4.9</ele>
        <time>2026-08-13T09:11:19.000Z</time>
      </trkpt>
      <trkpt lat="45.94386" lon="-0.95752">
        <ele>4.9</ele>
        <time>2026-08-13T09:11:24.000Z</time>
      </trkpt>
      <trkpt lat="45.94397" lon="-0.95725">
        <ele>4.8</ele>
        <time>2026-08-13T09:11:31.000Z</time>
      </trkpt>
      <trkpt lat="45.94406" lon="-0.95697">
        <ele>4.4</ele>
        <time>2026-08-13T09:11:38.000Z</time>
      </trkpt>
      <trkpt lat="45.9441" lon="-0.95684">
        <ele>4.5</ele>
        <time>2026-08-13T09:11:41.000Z</time>
      </trkpt>
      <trkpt lat="45.94415" lon="-0.95672">
        <ele>4.8</ele>
        <time>2026-08-13T09:11:44.000Z</time>
      </trkpt>
      <trkpt lat="45.94434" lon="-0.95631">
        <ele>5.1</ele>
        <time>2026-08-13T09:11:53.000Z</time>
      </trkpt>
      <trkpt lat="45.94449" lon="-0.95599">
        <ele>4.9</ele>
        <time>2026-08-13T09:12:01.000Z</time>
      </trkpt>
      <trkpt lat="45.94457" lon="-0.9558">
        <ele>5.3</ele>
        <time>2026-08-13T09:12:06.000Z</time>
      </trkpt>
      <trkpt lat="45.94469" lon="-0.95552">
        <ele>4</ele>
        <time>2026-08-13T09:12:14.000Z</time>
      </trkpt>
      <trkpt lat="45.94481" lon="-0.95548">
        <ele>3.8</ele>
        <time>2026-08-13T09:12:22.000Z</time>
      </trkpt>
      <trkpt lat="45.94486" lon="-0.95545">
        <ele>3.7</ele>
        <time>2026-08-13T09:12:25.000Z</time>
      </trkpt>
      <trkpt lat="45.94493" lon="-0.95536">
        <ele>3.8</ele>
        <time>2026-08-13T09:12:29.000Z</time>
      </trkpt>
      <trkpt lat="45.94503" lon="-0.95514">
        <ele>3.9</ele>
        <time>2026-08-13T09:12:36.000Z</time>
      </trkpt>
      <trkpt lat="45.94502" lon="-0.95495">
        <ele>3.9</ele>
        <time>2026-08-13T09:12:40.000Z</time>
      </trkpt>
      <trkpt lat="45.94498" lon="-0.95469">
        <ele>4</ele>
        <time>2026-08-13T09:12:45.000Z</time>
      </trkpt>
      <trkpt lat="45.94492" lon="-0.95432">
        <ele>3.3</ele>
        <time>2026-08-13T09:12:53.000Z</time>
      </trkpt>
      <trkpt lat="45.94485" lon="-0.95394">
        <ele>3.8</ele>
        <time>2026-08-13T09:13:01.000Z</time>
      </trkpt>
      <trkpt lat="45.94483" lon="-0.95392">
        <ele>3.9</ele>
        <time>2026-08-13T09:13:02.000Z</time>
      </trkpt>
      <trkpt lat="45.94477" lon="-0.95392">
        <ele>3.8</ele>
        <time>2026-08-13T09:13:04.000Z</time>
      </trkpt>
      <trkpt lat="45.94459" lon="-0.95398">
        <ele>3.6</ele>
        <time>2026-08-13T09:13:11.000Z</time>
      </trkpt>
      <trkpt lat="45.94454" lon="-0.95399">
        <ele>3.7</ele>
        <time>2026-08-13T09:13:13.000Z</time>
      </trkpt>
      <trkpt lat="45.9445" lon="-0.95396">
        <ele>3.9</ele>
        <time>2026-08-13T09:13:15.000Z</time>
      </trkpt>
      <trkpt lat="45.94443" lon="-0.95386">
        <ele>4</ele>
        <time>2026-08-13T09:13:20.000Z</time>
      </trkpt>
      <trkpt lat="45.94431" lon="-0.95384">
        <ele>4</ele>
        <time>2026-08-13T09:13:25.000Z</time>
      </trkpt>
      <trkpt lat="45.94414" lon="-0.95389">
        <ele>4</ele>
        <time>2026-08-13T09:13:31.000Z</time>
      </trkpt>
      <trkpt lat="45.94386" lon="-0.95385">
        <ele>4</ele>
        <time>2026-08-13T09:13:40.000Z</time>
      </trkpt>
      <trkpt lat="45.9436" lon="-0.95386">
        <ele>4</ele>
        <time>2026-08-13T09:13:48.000Z</time>
      </trkpt>
      <trkpt lat="45.94335" lon="-0.95388">
        <ele>4</ele>
        <time>2026-08-13T09:13:56.000Z</time>
      </trkpt>
      <trkpt lat="45.94316" lon="-0.95391">
        <ele>4</ele>
        <time>2026-08-13T09:14:02.000Z</time>
      </trkpt>
      <trkpt lat="45.94284" lon="-0.95394">
        <ele>3.4</ele>
        <time>2026-08-13T09:14:13.000Z</time>
      </trkpt>
      <trkpt lat="45.94268" lon="-0.95402">
        <ele>3.5</ele>
        <time>2026-08-13T09:14:19.000Z</time>
      </trkpt>
      <trkpt lat="45.94263" lon="-0.95421">
        <ele>4</ele>
        <time>2026-08-13T09:14:24.000Z</time>
      </trkpt>
      <trkpt lat="45.94262" lon="-0.95454">
        <ele>4</ele>
        <time>2026-08-13T09:14:32.000Z</time>
      </trkpt>
      <trkpt lat="45.94258" lon="-0.95466">
        <ele>4</ele>
        <time>2026-08-13T09:14:37.000Z</time>
      </trkpt>
      <trkpt lat="45.94246" lon="-0.95471">
        <ele>4</ele>
        <time>2026-08-13T09:14:44.000Z</time>
      </trkpt>
      <trkpt lat="45.9423" lon="-0.9547">
        <ele>4</ele>
        <time>2026-08-13T09:14:51.000Z</time>
      </trkpt>
      <trkpt lat="45.94217" lon="-0.9547">
        <ele>4</ele>
        <time>2026-08-13T09:14:57.000Z</time>
      </trkpt>
      <trkpt lat="45.94216" lon="-0.95468">
        <ele>4</ele>
        <time>2026-08-13T09:14:58.000Z</time>
      </trkpt>
      <trkpt lat="45.94214" lon="-0.95445">
        <ele>4</ele>
        <time>2026-08-13T09:15:04.000Z</time>
      </trkpt>
      <trkpt lat="45.94211" lon="-0.9541">
        <ele>4</ele>
        <time>2026-08-13T09:15:13.000Z</time>
      </trkpt>
      <trkpt lat="45.94209" lon="-0.95405">
        <ele>4</ele>
        <time>2026-08-13T09:15:15.000Z</time>
      </trkpt>
      <trkpt lat="45.94206" lon="-0.95403">
        <ele>4</ele>
        <time>2026-08-13T09:15:17.000Z</time>
      </trkpt>
      <trkpt lat="45.94201" lon="-0.95402">
        <ele>4</ele>
        <time>2026-08-13T09:15:19.000Z</time>
      </trkpt>
      <trkpt lat="45.94195" lon="-0.95404">
        <ele>4</ele>
        <time>2026-08-13T09:15:22.000Z</time>
      </trkpt>
      <trkpt lat="45.94176" lon="-0.95414">
        <ele>4</ele>
        <time>2026-08-13T09:15:29.000Z</time>
      </trkpt>
      <trkpt lat="45.94162" lon="-0.95417">
        <ele>4</ele>
        <time>2026-08-13T09:15:35.000Z</time>
      </trkpt>
      <trkpt lat="45.94153" lon="-0.95419">
        <ele>4</ele>
        <time>2026-08-13T09:15:40.000Z</time>
      </trkpt>
      <trkpt lat="45.94151" lon="-0.95418">
        <ele>4</ele>
        <time>2026-08-13T09:15:41.000Z</time>
      </trkpt>
      <trkpt lat="45.94138" lon="-0.95418">
        <ele>4</ele>
        <time>2026-08-13T09:15:47.000Z</time>
      </trkpt>
      <trkpt lat="45.94124" lon="-0.95419">
        <ele>4</ele>
        <time>2026-08-13T09:15:54.000Z</time>
      </trkpt>
      <trkpt lat="45.94123" lon="-0.95418">
        <ele>4</ele>
        <time>2026-08-13T09:15:55.000Z</time>
      </trkpt>
      <trkpt lat="45.9412" lon="-0.95411">
        <ele>4</ele>
        <time>2026-08-13T09:15:58.000Z</time>
      </trkpt>
      <trkpt lat="45.94116" lon="-0.95411">
        <ele>4</ele>
        <time>2026-08-13T09:16:00.000Z</time>
      </trkpt>
      <trkpt lat="45.94096" lon="-0.95413">
        <ele>2.93</ele>
        <time>2026-08-13T09:16:08.000Z</time>
      </trkpt>
      <trkpt lat="45.94086" lon="-0.9542">
        <ele>2.4</ele>
        <time>2026-08-13T09:16:13.000Z</time>
      </trkpt>
      <trkpt lat="45.94085" lon="-0.95421">
        <ele>2.4</ele>
        <time>2026-08-13T09:16:14.000Z</time>
      </trkpt>
      <trkpt lat="45.9408" lon="-0.95422">
        <ele>2.4</ele>
        <time>2026-08-13T09:16:17.000Z</time>
      </trkpt>
      <trkpt lat="45.94059" lon="-0.95425">
        <ele>2.9</ele>
        <time>2026-08-13T09:16:25.000Z</time>
      </trkpt>
      <trkpt lat="45.9404" lon="-0.95434">
        <ele>3.5</ele>
        <time>2026-08-13T09:16:32.000Z</time>
      </trkpt>
      <trkpt lat="45.94027" lon="-0.95436">
        <ele>3.99</ele>
        <time>2026-08-13T09:16:37.000Z</time>
      </trkpt>
      <trkpt lat="45.94005" lon="-0.95444">
        <ele>3.16</ele>
        <time>2026-08-13T09:16:45.000Z</time>
      </trkpt>
      <trkpt lat="45.93977" lon="-0.95458">
        <ele>3.1</ele>
        <time>2026-08-13T09:16:55.000Z</time>
      </trkpt>
      <trkpt lat="45.93959" lon="-0.95463">
        <ele>3.2</ele>
        <time>2026-08-13T09:17:01.000Z</time>
      </trkpt>
      <trkpt lat="45.9393" lon="-0.95469">
        <ele>3.2</ele>
        <time>2026-08-13T09:17:11.000Z</time>
      </trkpt>
      <trkpt lat="45.9391" lon="-0.95483">
        <ele>3.2</ele>
        <time>2026-08-13T09:17:19.000Z</time>
      </trkpt>
      <trkpt lat="45.93888" lon="-0.95485">
        <ele>2.9</ele>
        <time>2026-08-13T09:17:26.000Z</time>
      </trkpt>
      <trkpt lat="45.93866" lon="-0.9549">
        <ele>3.3</ele>
        <time>2026-08-13T09:17:33.000Z</time>
      </trkpt>
      <trkpt lat="45.93845" lon="-0.95496">
        <ele>3.41</ele>
        <time>2026-08-13T09:17:40.000Z</time>
      </trkpt>
      <trkpt lat="45.93822" lon="-0.95508">
        <ele>3.3</ele>
        <time>2026-08-13T09:17:48.000Z</time>
      </trkpt>
      <trkpt lat="45.9382" lon="-0.9551">
        <ele>3.3</ele>
        <time>2026-08-13T09:17:49.000Z</time>
      </trkpt>
      <trkpt lat="45.938" lon="-0.95513">
        <ele>3.4</ele>
        <time>2026-08-13T09:17:56.000Z</time>
      </trkpt>
      <trkpt lat="45.9378" lon="-0.95516">
        <ele>3.2</ele>
        <time>2026-08-13T09:18:03.000Z</time>
      </trkpt>
      <trkpt lat="45.93759" lon="-0.95523">
        <ele>3.1</ele>
        <time>2026-08-13T09:18:10.000Z</time>
      </trkpt>
      <trkpt lat="45.93732" lon="-0.95537">
        <ele>3.3</ele>
        <time>2026-08-13T09:18:21.000Z</time>
      </trkpt>
      <trkpt lat="45.93717" lon="-0.95553">
        <ele>3.4</ele>
        <time>2026-08-13T09:18:29.000Z</time>
      </trkpt>
      <trkpt lat="45.93705" lon="-0.95573">
        <ele>3.3</ele>
        <time>2026-08-13T09:18:37.000Z</time>
      </trkpt>
      <trkpt lat="45.93705" lon="-0.95575">
        <ele>3.4</ele>
        <time>2026-08-13T09:18:40.000Z</time>
      </trkpt>
      <trkpt lat="45.93713" lon="-0.95575">
        <ele>3.7</ele>
        <time>2026-08-13T09:18:48.000Z</time>
      </trkpt>
      <trkpt lat="45.93724" lon="-0.95567">
        <ele>4</ele>
        <time>2026-08-13T09:18:53.000Z</time>
      </trkpt>
      <trkpt lat="45.93732" lon="-0.95562">
        <ele>4</ele>
        <time>2026-08-13T09:18:57.000Z</time>
      </trkpt>
      <trkpt lat="45.93735" lon="-0.95563">
        <ele>4</ele>
        <time>2026-08-13T09:18:59.000Z</time>
      </trkpt>
      <trkpt lat="45.93736" lon="-0.95564">
        <ele>4</ele>
        <time>2026-08-13T09:19:02.000Z</time>
      </trkpt>
      <trkpt lat="45.93729" lon="-0.95565">
        <ele>4</ele>
        <time>2026-08-13T09:19:36.000Z</time>
      </trkpt>
      <trkpt lat="45.93713" lon="-0.95567">
        <ele>3.4</ele>
        <time>2026-08-13T09:19:44.000Z</time>
      </trkpt>
      <trkpt lat="45.93702" lon="-0.95583">
        <ele>3.9</ele>
        <time>2026-08-13T09:19:51.000Z</time>
      </trkpt>
      <trkpt lat="45.93691" lon="-0.95602">
        <ele>4.5</ele>
        <time>2026-08-13T09:19:59.000Z</time>
      </trkpt>
      <trkpt lat="45.9368" lon="-0.95619">
        <ele>5</ele>
        <time>2026-08-13T09:20:06.000Z</time>
      </trkpt>
      <trkpt lat="45.93668" lon="-0.95641">
        <ele>6.1</ele>
        <time>2026-08-13T09:20:14.000Z</time>
      </trkpt>
      <trkpt lat="45.93665" lon="-0.95646">
        <ele>6.4</ele>
        <time>2026-08-13T09:20:16.000Z</time>
      </trkpt>
      <trkpt lat="45.93662" lon="-0.9565">
        <ele>6.6</ele>
        <time>2026-08-13T09:20:18.000Z</time>
      </trkpt>
      <trkpt lat="45.93661" lon="-0.95653">
        <ele>6.6</ele>
        <time>2026-08-13T09:20:19.000Z</time>
      </trkpt>
      <trkpt lat="45.93648" lon="-0.95666">
        <ele>5.3</ele>
        <time>2026-08-13T09:20:25.000Z</time>
      </trkpt>
      <trkpt lat="45.93637" lon="-0.95684">
        <ele>5.1</ele>
        <time>2026-08-13T09:20:31.000Z</time>
      </trkpt>
      <trkpt lat="45.93617" lon="-0.95713">
        <ele>5.7</ele>
        <time>2026-08-13T09:20:40.000Z</time>
      </trkpt>
      <trkpt lat="45.93608" lon="-0.95725">
        <ele>6.1</ele>
        <time>2026-08-13T09:20:44.000Z</time>
      </trkpt>
      <trkpt lat="45.936" lon="-0.95735">
        <ele>6.1</ele>
        <time>2026-08-13T09:20:48.000Z</time>
      </trkpt>
      <trkpt lat="45.93587" lon="-0.95754">
        <ele>5.6</ele>
        <time>2026-08-13T09:20:55.000Z</time>
      </trkpt>
      <trkpt lat="45.93576" lon="-0.95769">
        <ele>6</ele>
        <time>2026-08-13T09:21:01.000Z</time>
      </trkpt>
      <trkpt lat="45.93562" lon="-0.95778">
        <ele>5.5</ele>
        <time>2026-08-13T09:21:07.000Z</time>
      </trkpt>
      <trkpt lat="45.93548" lon="-0.95783">
        <ele>6</ele>
        <time>2026-08-13T09:21:13.000Z</time>
      </trkpt>
      <trkpt lat="45.93545" lon="-0.95783">
        <ele>6.1</ele>
        <time>2026-08-13T09:21:14.000Z</time>
      </trkpt>
      <trkpt lat="45.93539" lon="-0.95777">
        <ele>6.2</ele>
        <time>2026-08-13T09:21:17.000Z</time>
      </trkpt>
      <trkpt lat="45.93525" lon="-0.95764">
        <ele>6.5</ele>
        <time>2026-08-13T09:21:23.000Z</time>
      </trkpt>
      <trkpt lat="45.9351" lon="-0.95765">
        <ele>6.5</ele>
        <time>2026-08-13T09:21:29.000Z</time>
      </trkpt>
      <trkpt lat="45.93507" lon="-0.95764">
        <ele>6.5</ele>
        <time>2026-08-13T09:21:30.000Z</time>
      </trkpt>
      <trkpt lat="45.935" lon="-0.95757">
        <ele>6.2</ele>
        <time>2026-08-13T09:21:33.000Z</time>
      </trkpt>
      <trkpt lat="45.93485" lon="-0.95748">
        <ele>5.9</ele>
        <time>2026-08-13T09:21:38.000Z</time>
      </trkpt>
      <trkpt lat="45.93483" lon="-0.95745">
        <ele>5.8</ele>
        <time>2026-08-13T09:21:39.000Z</time>
      </trkpt>
      <trkpt lat="45.93483" lon="-0.9574">
        <ele>5.6</ele>
        <time>2026-08-13T09:21:40.000Z</time>
      </trkpt>
      <trkpt lat="45.93485" lon="-0.95726">
        <ele>4.8</ele>
        <time>2026-08-13T09:21:43.000Z</time>
      </trkpt>
      <trkpt lat="45.93496" lon="-0.95695">
        <ele>3.4</ele>
        <time>2026-08-13T09:21:50.000Z</time>
      </trkpt>
      <trkpt lat="45.93502" lon="-0.95665">
        <ele>5</ele>
        <time>2026-08-13T09:21:56.000Z</time>
      </trkpt>
      <trkpt lat="45.93504" lon="-0.95655">
        <ele>5</ele>
        <time>2026-08-13T09:21:58.000Z</time>
      </trkpt>
      <trkpt lat="45.93507" lon="-0.95651">
        <ele>5</ele>
        <time>2026-08-13T09:21:59.000Z</time>
      </trkpt>
      <trkpt lat="45.93518" lon="-0.9563">
        <ele>5</ele>
        <time>2026-08-13T09:22:04.000Z</time>
      </trkpt>
      <trkpt lat="45.93529" lon="-0.95613">
        <ele>4.9</ele>
        <time>2026-08-13T09:22:09.000Z</time>
      </trkpt>
      <trkpt lat="45.93544" lon="-0.95586">
        <ele>4.9</ele>
        <time>2026-08-13T09:22:16.000Z</time>
      </trkpt>
      <trkpt lat="45.93555" lon="-0.95564">
        <ele>4.3</ele>
        <time>2026-08-13T09:22:21.000Z</time>
      </trkpt>
      <trkpt lat="45.93555" lon="-0.95559">
        <ele>4.1</ele>
        <time>2026-08-13T09:22:22.000Z</time>
      </trkpt>
      <trkpt lat="45.93551" lon="-0.95551">
        <ele>3.9</ele>
        <time>2026-08-13T09:22:24.000Z</time>
      </trkpt>
      <trkpt lat="45.93547" lon="-0.9555">
        <ele>3.9</ele>
        <time>2026-08-13T09:22:25.000Z</time>
      </trkpt>
      <trkpt lat="45.93528" lon="-0.95538">
        <ele>4</ele>
        <time>2026-08-13T09:22:30.000Z</time>
      </trkpt>
      <trkpt lat="45.93508" lon="-0.95526">
        <ele>3.8</ele>
        <time>2026-08-13T09:22:35.000Z</time>
      </trkpt>
      <trkpt lat="45.93504" lon="-0.95524">
        <ele>3.6</ele>
        <time>2026-08-13T09:22:36.000Z</time>
      </trkpt>
      <trkpt lat="45.93501" lon="-0.95523">
        <ele>3.5</ele>
        <time>2026-08-13T09:22:37.000Z</time>
      </trkpt>
      <trkpt lat="45.93493" lon="-0.95522">
        <ele>3.4</ele>
        <time>2026-08-13T09:22:39.000Z</time>
      </trkpt>
      <trkpt lat="45.93491" lon="-0.95522">
        <ele>3.4</ele>
        <time>2026-08-13T09:22:40.000Z</time>
      </trkpt>
      <trkpt lat="45.93488" lon="-0.95522">
        <ele>3.3</ele>
        <time>2026-08-13T09:22:41.000Z</time>
      </trkpt>
      <trkpt lat="45.93479" lon="-0.95519">
        <ele>3.1</ele>
        <time>2026-08-13T09:22:43.000Z</time>
      </trkpt>
      <trkpt lat="45.93475" lon="-0.95516">
        <ele>2.7</ele>
        <time>2026-08-13T09:22:44.000Z</time>
      </trkpt>
      <trkpt lat="45.93466" lon="-0.95511">
        <ele>2.5</ele>
        <time>2026-08-13T09:22:46.000Z</time>
      </trkpt>
      <trkpt lat="45.93444" lon="-0.95506">
        <ele>3.2</ele>
        <time>2026-08-13T09:22:51.000Z</time>
      </trkpt>
      <trkpt lat="45.93429" lon="-0.95496">
        <ele>3.4</ele>
        <time>2026-08-13T09:22:55.000Z</time>
      </trkpt>
      <trkpt lat="45.93412" lon="-0.9548">
        <ele>2.8</ele>
        <time>2026-08-13T09:22:59.000Z</time>
      </trkpt>
      <trkpt lat="45.93408" lon="-0.95475">
        <ele>2.8</ele>
        <time>2026-08-13T09:23:00.000Z</time>
      </trkpt>
      <trkpt lat="45.93401" lon="-0.9547">
        <ele>3.14</ele>
        <time>2026-08-13T09:23:02.000Z</time>
      </trkpt>
      <trkpt lat="45.93379" lon="-0.95475">
        <ele>4</ele>
        <time>2026-08-13T09:23:07.000Z</time>
      </trkpt>
      <trkpt lat="45.93372" lon="-0.95477">
        <ele>4</ele>
        <time>2026-08-13T09:23:09.000Z</time>
      </trkpt>
      <trkpt lat="45.93368" lon="-0.95472">
        <ele>4</ele>
        <time>2026-08-13T09:23:10.000Z</time>
      </trkpt>
      <trkpt lat="45.93342" lon="-0.95439">
        <ele>3.6</ele>
        <time>2026-08-13T09:23:16.000Z</time>
      </trkpt>
      <trkpt lat="45.93316" lon="-0.95405">
        <ele>3.7</ele>
        <time>2026-08-13T09:23:24.000Z</time>
      </trkpt>
      <trkpt lat="45.93302" lon="-0.9539">
        <ele>4</ele>
        <time>2026-08-13T09:23:28.000Z</time>
      </trkpt>
      <trkpt lat="45.93294" lon="-0.95385">
        <ele>3.9</ele>
        <time>2026-08-13T09:23:30.000Z</time>
      </trkpt>
      <trkpt lat="45.93288" lon="-0.95381">
        <ele>3.7</ele>
        <time>2026-08-13T09:23:32.000Z</time>
      </trkpt>
      <trkpt lat="45.93283" lon="-0.95376">
        <ele>3.6</ele>
        <time>2026-08-13T09:23:34.000Z</time>
      </trkpt>
      <trkpt lat="45.93264" lon="-0.95357">
        <ele>3.4</ele>
        <time>2026-08-13T09:23:40.000Z</time>
      </trkpt>
      <trkpt lat="45.93232" lon="-0.95326">
        <ele>3.5</ele>
        <time>2026-08-13T09:23:49.000Z</time>
      </trkpt>
      <trkpt lat="45.93226" lon="-0.9532">
        <ele>3.4</ele>
        <time>2026-08-13T09:23:51.000Z</time>
      </trkpt>
      <trkpt lat="45.93212" lon="-0.95309">
        <ele>3.4</ele>
        <time>2026-08-13T09:23:55.000Z</time>
      </trkpt>
      <trkpt lat="45.93189" lon="-0.95285">
        <ele>3.4</ele>
        <time>2026-08-13T09:24:02.000Z</time>
      </trkpt>
      <trkpt lat="45.93171" lon="-0.95266">
        <ele>3.5</ele>
        <time>2026-08-13T09:24:07.000Z</time>
      </trkpt>
      <trkpt lat="45.93164" lon="-0.9526">
        <ele>3.4</ele>
        <time>2026-08-13T09:24:09.000Z</time>
      </trkpt>
      <trkpt lat="45.93128" lon="-0.95232">
        <ele>3.6</ele>
        <time>2026-08-13T09:24:18.000Z</time>
      </trkpt>
      <trkpt lat="45.93112" lon="-0.95229">
        <ele>4</ele>
        <time>2026-08-13T09:24:22.000Z</time>
      </trkpt>
      <trkpt lat="45.93103" lon="-0.9523">
        <ele>4</ele>
        <time>2026-08-13T09:24:24.000Z</time>
      </trkpt>
      <trkpt lat="45.93091" lon="-0.95225">
        <ele>4</ele>
        <time>2026-08-13T09:24:27.000Z</time>
      </trkpt>
      <trkpt lat="45.93088" lon="-0.95223">
        <ele>4</ele>
        <time>2026-08-13T09:24:28.000Z</time>
      </trkpt>
      <trkpt lat="45.93078" lon="-0.95214">
        <ele>4</ele>
        <time>2026-08-13T09:24:31.000Z</time>
      </trkpt>
      <trkpt lat="45.93073" lon="-0.95207">
        <ele>4</ele>
        <time>2026-08-13T09:24:33.000Z</time>
      </trkpt>
      <trkpt lat="45.93059" lon="-0.95189">
        <ele>4</ele>
        <time>2026-08-13T09:24:38.000Z</time>
      </trkpt>
      <trkpt lat="45.93056" lon="-0.95174">
        <ele>4</ele>
        <time>2026-08-13T09:24:41.000Z</time>
      </trkpt>
      <trkpt lat="45.93052" lon="-0.95161">
        <ele>3.6</ele>
        <time>2026-08-13T09:24:44.000Z</time>
      </trkpt>
      <trkpt lat="45.93032" lon="-0.95145">
        <ele>3.1</ele>
        <time>2026-08-13T09:24:50.000Z</time>
      </trkpt>
      <trkpt lat="45.93007" lon="-0.95127">
        <ele>3.4</ele>
        <time>2026-08-13T09:24:57.000Z</time>
      </trkpt>
      <trkpt lat="45.9298" lon="-0.95106">
        <ele>3.4</ele>
        <time>2026-08-13T09:25:06.000Z</time>
      </trkpt>
      <trkpt lat="45.92961" lon="-0.95103">
        <ele>3.6</ele>
        <time>2026-08-13T09:25:11.000Z</time>
      </trkpt>
      <trkpt lat="45.92935" lon="-0.95103">
        <ele>4</ele>
        <time>2026-08-13T09:25:18.000Z</time>
      </trkpt>
      <trkpt lat="45.92911" lon="-0.95089">
        <ele>4</ele>
        <time>2026-08-13T09:25:25.000Z</time>
      </trkpt>
      <trkpt lat="45.92881" lon="-0.9507">
        <ele>3.6</ele>
        <time>2026-08-13T09:25:34.000Z</time>
      </trkpt>
      <trkpt lat="45.92855" lon="-0.95054">
        <ele>4</ele>
        <time>2026-08-13T09:25:41.000Z</time>
      </trkpt>
      <trkpt lat="45.92827" lon="-0.95037">
        <ele>4</ele>
        <time>2026-08-13T09:25:49.000Z</time>
      </trkpt>
      <trkpt lat="45.92794" lon="-0.95017">
        <ele>4</ele>
        <time>2026-08-13T09:25:59.000Z</time>
      </trkpt>
      <trkpt lat="45.9277" lon="-0.95005">
        <ele>4</ele>
        <time>2026-08-13T09:26:06.000Z</time>
      </trkpt>
      <trkpt lat="45.9276" lon="-0.95003">
        <ele>4</ele>
        <time>2026-08-13T09:26:09.000Z</time>
      </trkpt>
      <trkpt lat="45.92754" lon="-0.94998">
        <ele>4</ele>
        <time>2026-08-13T09:26:11.000Z</time>
      </trkpt>
      <trkpt lat="45.92731" lon="-0.94981">
        <ele>4</ele>
        <time>2026-08-13T09:26:19.000Z</time>
      </trkpt>
      <trkpt lat="45.92708" lon="-0.94963">
        <ele>3.8</ele>
        <time>2026-08-13T09:26:28.000Z</time>
      </trkpt>
      <trkpt lat="45.92686" lon="-0.94948">
        <ele>4</ele>
        <time>2026-08-13T09:26:36.000Z</time>
      </trkpt>
      <trkpt lat="45.92666" lon="-0.94935">
        <ele>4</ele>
        <time>2026-08-13T09:26:43.000Z</time>
      </trkpt>
      <trkpt lat="45.92646" lon="-0.94933">
        <ele>4</ele>
        <time>2026-08-13T09:26:49.000Z</time>
      </trkpt>
      <trkpt lat="45.92622" lon="-0.94934">
        <ele>4</ele>
        <time>2026-08-13T09:26:56.000Z</time>
      </trkpt>
      <trkpt lat="45.92591" lon="-0.94932">
        <ele>4</ele>
        <time>2026-08-13T09:27:05.000Z</time>
      </trkpt>
      <trkpt lat="45.92564" lon="-0.94929">
        <ele>4</ele>
        <time>2026-08-13T09:27:12.000Z</time>
      </trkpt>
      <trkpt lat="45.92526" lon="-0.94929">
        <ele>4</ele>
        <time>2026-08-13T09:27:23.000Z</time>
      </trkpt>
      <trkpt lat="45.92498" lon="-0.94927">
        <ele>4.4</ele>
        <time>2026-08-13T09:27:31.000Z</time>
      </trkpt>
      <trkpt lat="45.92476" lon="-0.94926">
        <ele>4</ele>
        <time>2026-08-13T09:27:37.000Z</time>
      </trkpt>
      <trkpt lat="45.92453" lon="-0.9494">
        <ele>3.9</ele>
        <time>2026-08-13T09:27:44.000Z</time>
      </trkpt>
      <trkpt lat="45.92427" lon="-0.94957">
        <ele>3.6</ele>
        <time>2026-08-13T09:27:52.000Z</time>
      </trkpt>
      <trkpt lat="45.92399" lon="-0.94973">
        <ele>3.4</ele>
        <time>2026-08-13T09:28:01.000Z</time>
      </trkpt>
      <trkpt lat="45.92371" lon="-0.9499">
        <ele>3.7</ele>
        <time>2026-08-13T09:28:10.000Z</time>
      </trkpt>
      <trkpt lat="45.92335" lon="-0.95013">
        <ele>3.5</ele>
        <time>2026-08-13T09:28:22.000Z</time>
      </trkpt>
      <trkpt lat="45.92312" lon="-0.95022">
        <ele>2.8</ele>
        <time>2026-08-13T09:28:29.000Z</time>
      </trkpt>
      <trkpt lat="45.92308" lon="-0.95029">
        <ele>3.1</ele>
        <time>2026-08-13T09:28:31.000Z</time>
      </trkpt>
      <trkpt lat="45.92308" lon="-0.95034">
        <ele>3.3</ele>
        <time>2026-08-13T09:28:32.000Z</time>
      </trkpt>
      <trkpt lat="45.92319" lon="-0.95068">
        <ele>3.8</ele>
        <time>2026-08-13T09:28:39.000Z</time>
      </trkpt>
      <trkpt lat="45.92331" lon="-0.95114">
        <ele>3</ele>
        <time>2026-08-13T09:28:48.000Z</time>
      </trkpt>
      <trkpt lat="45.92327" lon="-0.95123">
        <ele>3</ele>
        <time>2026-08-13T09:28:50.000Z</time>
      </trkpt>
      <trkpt lat="45.92323" lon="-0.95125">
        <ele>3</ele>
        <time>2026-08-13T09:28:51.000Z</time>
      </trkpt>
      <trkpt lat="45.92285" lon="-0.95145">
        <ele>3.6</ele>
        <time>2026-08-13T09:29:00.000Z</time>
      </trkpt>
      <trkpt lat="45.92257" lon="-0.95163">
        <ele>3.8</ele>
        <time>2026-08-13T09:29:07.000Z</time>
      </trkpt>
      <trkpt lat="45.92245" lon="-0.9517">
        <ele>4</ele>
        <time>2026-08-13T09:29:10.000Z</time>
      </trkpt>
      <trkpt lat="45.9221" lon="-0.95195">
        <ele>3.4</ele>
        <time>2026-08-13T09:29:19.000Z</time>
      </trkpt>
      <trkpt lat="45.92177" lon="-0.95222">
        <ele>3.6</ele>
        <time>2026-08-13T09:29:28.000Z</time>
      </trkpt>
      <trkpt lat="45.92143" lon="-0.95254">
        <ele>3</ele>
        <time>2026-08-13T09:29:38.000Z</time>
      </trkpt>
      <trkpt lat="45.92108" lon="-0.95291">
        <ele>3.6</ele>
        <time>2026-08-13T09:29:49.000Z</time>
      </trkpt>
      <trkpt lat="45.92075" lon="-0.95326">
        <ele>3.5</ele>
        <time>2026-08-13T09:29:59.000Z</time>
      </trkpt>
      <trkpt lat="45.92052" lon="-0.9535">
        <ele>3.4</ele>
        <time>2026-08-13T09:30:06.000Z</time>
      </trkpt>
      <trkpt lat="45.92041" lon="-0.95361">
        <ele>3.5</ele>
        <time>2026-08-13T09:30:09.000Z</time>
      </trkpt>
      <trkpt lat="45.92001" lon="-0.95401">
        <ele>3.5</ele>
        <time>2026-08-13T09:30:20.000Z</time>
      </trkpt>
      <trkpt lat="45.9197" lon="-0.95435">
        <ele>3.4</ele>
        <time>2026-08-13T09:30:29.000Z</time>
      </trkpt>
      <trkpt lat="45.9194" lon="-0.95471">
        <ele>3.2</ele>
        <time>2026-08-13T09:30:38.000Z</time>
      </trkpt>
      <trkpt lat="45.91909" lon="-0.95516">
        <ele>3.5</ele>
        <time>2026-08-13T09:30:48.000Z</time>
      </trkpt>
      <trkpt lat="45.91886" lon="-0.95561">
        <ele>3.9</ele>
        <time>2026-08-13T09:30:57.000Z</time>
      </trkpt>
      <trkpt lat="45.91883" lon="-0.95566">
        <ele>3.9</ele>
        <time>2026-08-13T09:30:58.000Z</time>
      </trkpt>
      <trkpt lat="45.91865" lon="-0.95603">
        <ele>4</ele>
        <time>2026-08-13T09:31:06.000Z</time>
      </trkpt>
      <trkpt lat="45.91852" lon="-0.95631">
        <ele>4</ele>
        <time>2026-08-13T09:31:13.000Z</time>
      </trkpt>
      <trkpt lat="45.91842" lon="-0.95654">
        <ele>4</ele>
        <time>2026-08-13T09:31:20.000Z</time>
      </trkpt>
      <trkpt lat="45.91833" lon="-0.95673">
        <ele>3.8</ele>
        <time>2026-08-13T09:31:26.000Z</time>
      </trkpt>
      <trkpt lat="45.9183" lon="-0.95682">
        <ele>3.4</ele>
        <time>2026-08-13T09:31:30.000Z</time>
      </trkpt>
      <trkpt lat="45.91829" lon="-0.95686">
        <ele>3.3</ele>
        <time>2026-08-13T09:31:32.000Z</time>
      </trkpt>
      <trkpt lat="45.91827" lon="-0.95697">
        <ele>3</ele>
        <time>2026-08-13T09:31:35.000Z</time>
      </trkpt>
      <trkpt lat="45.91821" lon="-0.95719">
        <ele>3.4</ele>
        <time>2026-08-13T09:31:40.000Z</time>
      </trkpt>
      <trkpt lat="45.9181" lon="-0.95757">
        <ele>3.7</ele>
        <time>2026-08-13T09:31:47.000Z</time>
      </trkpt>
      <trkpt lat="45.918" lon="-0.95814">
        <ele>3</ele>
        <time>2026-08-13T09:31:56.000Z</time>
      </trkpt>
      <trkpt lat="45.91794" lon="-0.95878">
        <ele>3.6</ele>
        <time>2026-08-13T09:32:06.000Z</time>
      </trkpt>
      <trkpt lat="45.91792" lon="-0.95891">
        <ele>4</ele>
        <time>2026-08-13T09:32:08.000Z</time>
      </trkpt>
      <trkpt lat="45.91787" lon="-0.9595">
        <ele>3.7</ele>
        <time>2026-08-13T09:32:17.000Z</time>
      </trkpt>
      <trkpt lat="45.91786" lon="-0.95976">
        <ele>3.6</ele>
        <time>2026-08-13T09:32:21.000Z</time>
      </trkpt>
      <trkpt lat="45.91781" lon="-0.95985">
        <ele>3.5</ele>
        <time>2026-08-13T09:32:23.000Z</time>
      </trkpt>
      <trkpt lat="45.91764" lon="-0.9599">
        <ele>3.2</ele>
        <time>2026-08-13T09:32:27.000Z</time>
      </trkpt>
      <trkpt lat="45.91735" lon="-0.95995">
        <ele>2.1</ele>
        <time>2026-08-13T09:32:35.000Z</time>
      </trkpt>
      <trkpt lat="45.91728" lon="-0.95999">
        <ele>1.5</ele>
        <time>2026-08-13T09:32:39.000Z</time>
      </trkpt>
      <trkpt lat="45.91727" lon="-0.95999">
        <ele>1.4</ele>
        <time>2026-08-13T09:32:40.000Z</time>
      </trkpt>
      <trkpt lat="45.91726" lon="-0.95998">
        <ele>1.4</ele>
        <time>2026-08-13T09:32:43.000Z</time>
      </trkpt>
      <trkpt lat="45.91727" lon="-0.95995">
        <ele>1.7</ele>
        <time>2026-08-13T09:33:02.000Z</time>
      </trkpt>
      <trkpt lat="45.91729" lon="-0.95999">
        <ele>1.5</ele>
        <time>2026-08-13T09:33:05.000Z</time>
      </trkpt>
      <trkpt lat="45.91727" lon="-0.96016">
        <ele>2.8</ele>
        <time>2026-08-13T09:33:10.000Z</time>
      </trkpt>
      <trkpt lat="45.91725" lon="-0.96026">
        <ele>3.7</ele>
        <time>2026-08-13T09:33:13.000Z</time>
      </trkpt>
      <trkpt lat="45.91723" lon="-0.96027">
        <ele>3.8</ele>
        <time>2026-08-13T09:33:14.000Z</time>
      </trkpt>
      <trkpt lat="45.91721" lon="-0.96026">
        <ele>3.8</ele>
        <time>2026-08-13T09:33:18.000Z</time>
      </trkpt>
      <trkpt lat="45.91721" lon="-0.96037">
        <ele>4</ele>
        <time>2026-08-13T09:44:15.000Z</time>
      </trkpt>
      <trkpt lat="45.9172" lon="-0.96042">
        <ele>4</ele>
        <time>2026-08-13T09:44:18.000Z</time>
      </trkpt>
      <trkpt lat="45.91714" lon="-0.96054">
        <ele>4</ele>
        <time>2026-08-13T09:44:27.000Z</time>
      </trkpt>
      <trkpt lat="45.91714" lon="-0.96055">
        <ele>4</ele>
        <time>2026-08-13T09:44:28.000Z</time>
      </trkpt>
      <trkpt lat="45.91708" lon="-0.9606">
        <ele>4.1</ele>
        <time>2026-08-13T09:44:37.000Z</time>
      </trkpt>
      <trkpt lat="45.91706" lon="-0.9606">
        <ele>4.1</ele>
        <time>2026-08-13T09:44:42.000Z</time>
      </trkpt>
      <trkpt lat="45.91535" lon="-0.96062">
        <ele>5</ele>
        <time>2026-08-13T09:57:27.000Z</time>
      </trkpt>
      <trkpt lat="45.91529" lon="-0.96056">
        <ele>5</ele>
        <time>2026-08-13T09:57:31.000Z</time>
      </trkpt>
      <trkpt lat="45.91526" lon="-0.96055">
        <ele>5</ele>
        <time>2026-08-13T09:57:32.000Z</time>
      </trkpt>
      <trkpt lat="45.9151" lon="-0.96044">
        <ele>4.9</ele>
        <time>2026-08-13T09:57:39.000Z</time>
      </trkpt>
      <trkpt lat="45.9149" lon="-0.96029">
        <ele>5.4</ele>
        <time>2026-08-13T09:57:49.000Z</time>
      </trkpt>
      <trkpt lat="45.91479" lon="-0.96023">
        <ele>5.6</ele>
        <time>2026-08-13T09:57:53.000Z</time>
      </trkpt>
      <trkpt lat="45.91469" lon="-0.96017">
        <ele>6.4</ele>
        <time>2026-08-13T09:57:57.000Z</time>
      </trkpt>
      <trkpt lat="45.91447" lon="-0.96004">
        <ele>9.2</ele>
        <time>2026-08-13T09:58:06.000Z</time>
      </trkpt>
      <trkpt lat="45.9143" lon="-0.95993">
        <ele>10.9</ele>
        <time>2026-08-13T09:58:12.000Z</time>
      </trkpt>
      <trkpt lat="45.91427" lon="-0.95992">
        <ele>11.1</ele>
        <time>2026-08-13T09:58:13.000Z</time>
      </trkpt>
      <trkpt lat="45.91416" lon="-0.95983">
        <ele>11.4</ele>
        <time>2026-08-13T09:58:18.000Z</time>
      </trkpt>
      <trkpt lat="45.91404" lon="-0.95975">
        <ele>11.1</ele>
        <time>2026-08-13T09:58:23.000Z</time>
      </trkpt>
      <trkpt lat="45.91389" lon="-0.95965">
        <ele>10.7</ele>
        <time>2026-08-13T09:58:29.000Z</time>
      </trkpt>
      <trkpt lat="45.9138" lon="-0.95958">
        <ele>10.8</ele>
        <time>2026-08-13T09:58:34.000Z</time>
      </trkpt>
      <trkpt lat="45.91378" lon="-0.95956">
        <ele>10.8</ele>
        <time>2026-08-13T09:58:35.000Z</time>
      </trkpt>
      <trkpt lat="45.91367" lon="-0.95948">
        <ele>10.3</ele>
        <time>2026-08-13T09:58:40.000Z</time>
      </trkpt>
      <trkpt lat="45.91363" lon="-0.95944">
        <ele>10.1</ele>
        <time>2026-08-13T09:58:42.000Z</time>
      </trkpt>
      <trkpt lat="45.91354" lon="-0.95942">
        <ele>10.5</ele>
        <time>2026-08-13T09:58:45.000Z</time>
      </trkpt>
      <trkpt lat="45.91324" lon="-0.95943">
        <ele>11.1</ele>
        <time>2026-08-13T09:58:54.000Z</time>
      </trkpt>
      <trkpt lat="45.91311" lon="-0.95944">
        <ele>11</ele>
        <time>2026-08-13T09:58:58.000Z</time>
      </trkpt>
      <trkpt lat="45.91302" lon="-0.95945">
        <ele>11.2</ele>
        <time>2026-08-13T09:59:01.000Z</time>
      </trkpt>
      <trkpt lat="45.91298" lon="-0.95945">
        <ele>11.3</ele>
        <time>2026-08-13T09:59:02.000Z</time>
      </trkpt>
      <trkpt lat="45.91265" lon="-0.95947">
        <ele>12</ele>
        <time>2026-08-13T09:59:13.000Z</time>
      </trkpt>
      <trkpt lat="45.91257" lon="-0.95947">
        <ele>12</ele>
        <time>2026-08-13T09:59:16.000Z</time>
      </trkpt>
      <trkpt lat="45.91234" lon="-0.95948">
        <ele>12</ele>
        <time>2026-08-13T09:59:23.000Z</time>
      </trkpt>
      <trkpt lat="45.9122" lon="-0.95948">
        <ele>11.9</ele>
        <time>2026-08-13T09:59:27.000Z</time>
      </trkpt>
      <trkpt lat="45.91209" lon="-0.95948">
        <ele>11.5</ele>
        <time>2026-08-13T09:59:30.000Z</time>
      </trkpt>
      <trkpt lat="45.91188" lon="-0.9595">
        <ele>10.8</ele>
        <time>2026-08-13T09:59:37.000Z</time>
      </trkpt>
      <trkpt lat="45.91179" lon="-0.95947">
        <ele>10.4</ele>
        <time>2026-08-13T09:59:42.000Z</time>
      </trkpt>
      <trkpt lat="45.91174" lon="-0.95944">
        <ele>10.3</ele>
        <time>2026-08-13T09:59:44.000Z</time>
      </trkpt>
      <trkpt lat="45.91168" lon="-0.95946">
        <ele>10</ele>
        <time>2026-08-13T09:59:46.000Z</time>
      </trkpt>
      <trkpt lat="45.91147" lon="-0.9595">
        <ele>9.3</ele>
        <time>2026-08-13T09:59:52.000Z</time>
      </trkpt>
      <trkpt lat="45.9112" lon="-0.9595">
        <ele>9.1</ele>
        <time>2026-08-13T09:59:59.000Z</time>
      </trkpt>
      <trkpt lat="45.91117" lon="-0.95951">
        <ele>9.2</ele>
        <time>2026-08-13T10:00:00.000Z</time>
      </trkpt>
      <trkpt lat="45.91113" lon="-0.95952">
        <ele>9.3</ele>
        <time>2026-08-13T10:00:01.000Z</time>
      </trkpt>
      <trkpt lat="45.91095" lon="-0.95951">
        <ele>9.2</ele>
        <time>2026-08-13T10:00:06.000Z</time>
      </trkpt>
      <trkpt lat="45.91077" lon="-0.95952">
        <ele>9.3</ele>
        <time>2026-08-13T10:00:12.000Z</time>
      </trkpt>
      <trkpt lat="45.91065" lon="-0.95959">
        <ele>9.9</ele>
        <time>2026-08-13T10:00:17.000Z</time>
      </trkpt>
      <trkpt lat="45.91052" lon="-0.95975">
        <ele>10.9</ele>
        <time>2026-08-13T10:00:24.000Z</time>
      </trkpt>
      <trkpt lat="45.9104" lon="-0.95975">
        <ele>10.4</ele>
        <time>2026-08-13T10:00:28.000Z</time>
      </trkpt>
      <trkpt lat="45.91016" lon="-0.95969">
        <ele>9.9</ele>
        <time>2026-08-13T10:00:35.000Z</time>
      </trkpt>
      <trkpt lat="45.90995" lon="-0.95962">
        <ele>9.9</ele>
        <time>2026-08-13T10:00:41.000Z</time>
      </trkpt>
      <trkpt lat="45.90985" lon="-0.95961">
        <ele>9.8</ele>
        <time>2026-08-13T10:00:44.000Z</time>
      </trkpt>
      <trkpt lat="45.90973" lon="-0.95961">
        <ele>9.6</ele>
        <time>2026-08-13T10:00:47.000Z</time>
      </trkpt>
      <trkpt lat="45.9093" lon="-0.95962">
        <ele>9.1</ele>
        <time>2026-08-13T10:00:58.000Z</time>
      </trkpt>
      <trkpt lat="45.909" lon="-0.95962">
        <ele>8.3</ele>
        <time>2026-08-13T10:01:05.000Z</time>
      </trkpt>
      <trkpt lat="45.90881" lon="-0.95962">
        <ele>7.9</ele>
        <time>2026-08-13T10:01:09.000Z</time>
      </trkpt>
      <trkpt lat="45.90872" lon="-0.95964">
        <ele>7.8</ele>
        <time>2026-08-13T10:01:11.000Z</time>
      </trkpt>
      <trkpt lat="45.90867" lon="-0.95964">
        <ele>7.8</ele>
        <time>2026-08-13T10:01:12.000Z</time>
      </trkpt>
      <trkpt lat="45.90842" lon="-0.95964">
        <ele>7</ele>
        <time>2026-08-13T10:01:17.000Z</time>
      </trkpt>
      <trkpt lat="45.9083" lon="-0.95964">
        <ele>6.6</ele>
        <time>2026-08-13T10:01:19.000Z</time>
      </trkpt>
      <trkpt lat="45.90786" lon="-0.95964">
        <ele>5.9</ele>
        <time>2026-08-13T10:01:27.000Z</time>
      </trkpt>
      <trkpt lat="45.90755" lon="-0.95965">
        <ele>6.2</ele>
        <time>2026-08-13T10:01:33.000Z</time>
      </trkpt>
      <trkpt lat="45.9075" lon="-0.95965">
        <ele>6.3</ele>
        <time>2026-08-13T10:01:34.000Z</time>
      </trkpt>
      <trkpt lat="45.9073" lon="-0.95965">
        <ele>6.8</ele>
        <time>2026-08-13T10:01:38.000Z</time>
      </trkpt>
      <trkpt lat="45.90717" lon="-0.95966">
        <ele>7</ele>
        <time>2026-08-13T10:01:41.000Z</time>
      </trkpt>
      <trkpt lat="45.90704" lon="-0.95966">
        <ele>7</ele>
        <time>2026-08-13T10:01:44.000Z</time>
      </trkpt>
      <trkpt lat="45.9069" lon="-0.95967">
        <ele>7</ele>
        <time>2026-08-13T10:01:47.000Z</time>
      </trkpt>
      <trkpt lat="45.90648" lon="-0.95969">
        <ele>7.6</ele>
        <time>2026-08-13T10:01:57.000Z</time>
      </trkpt>
      <trkpt lat="45.90623" lon="-0.9597">
        <ele>7.9</ele>
        <time>2026-08-13T10:02:03.000Z</time>
      </trkpt>
      <trkpt lat="45.90596" lon="-0.95969">
        <ele>7.9</ele>
        <time>2026-08-13T10:02:10.000Z</time>
      </trkpt>
      <trkpt lat="45.90589" lon="-0.95969">
        <ele>7.9</ele>
        <time>2026-08-13T10:02:12.000Z</time>
      </trkpt>
      <trkpt lat="45.90551" lon="-0.95973">
        <ele>9</ele>
        <time>2026-08-13T10:02:22.000Z</time>
      </trkpt>
      <trkpt lat="45.90531" lon="-0.95974">
        <ele>9</ele>
        <time>2026-08-13T10:02:28.000Z</time>
      </trkpt>
      <trkpt lat="45.90524" lon="-0.95975">
        <ele>9</ele>
        <time>2026-08-13T10:02:30.000Z</time>
      </trkpt>
      <trkpt lat="45.90504" lon="-0.95975">
        <ele>9</ele>
        <time>2026-08-13T10:02:36.000Z</time>
      </trkpt>
      <trkpt lat="45.90469" lon="-0.95976">
        <ele>10</ele>
        <time>2026-08-13T10:02:46.000Z</time>
      </trkpt>
      <trkpt lat="45.90425" lon="-0.95978">
        <ele>10</ele>
        <time>2026-08-13T10:02:57.000Z</time>
      </trkpt>
      <trkpt lat="45.90383" lon="-0.95979">
        <ele>10</ele>
        <time>2026-08-13T10:03:07.000Z</time>
      </trkpt>
      <trkpt lat="45.90379" lon="-0.95979">
        <ele>10</ele>
        <time>2026-08-13T10:03:08.000Z</time>
      </trkpt>
      <trkpt lat="45.90355" lon="-0.95981">
        <ele>10</ele>
        <time>2026-08-13T10:03:14.000Z</time>
      </trkpt>
      <trkpt lat="45.9035" lon="-0.9598">
        <ele>10</ele>
        <time>2026-08-13T10:03:15.000Z</time>
      </trkpt>
      <trkpt lat="45.90333" lon="-0.9598">
        <ele>10</ele>
        <time>2026-08-13T10:03:19.000Z</time>
      </trkpt>
      <trkpt lat="45.903" lon="-0.95986">
        <ele>10.1</ele>
        <time>2026-08-13T10:03:28.000Z</time>
      </trkpt>
      <trkpt lat="45.90296" lon="-0.95989">
        <ele>10.2</ele>
        <time>2026-08-13T10:03:32.000Z</time>
      </trkpt>
      <trkpt lat="45.90289" lon="-0.95999">
        <ele>10.6</ele>
        <time>2026-08-13T10:03:37.000Z</time>
      </trkpt>
      <trkpt lat="45.90281" lon="-0.95994">
        <ele>10.7</ele>
        <time>2026-08-13T10:03:41.000Z</time>
      </trkpt>
      <trkpt lat="45.90278" lon="-0.9599">
        <ele>10.6</ele>
        <time>2026-08-13T10:03:43.000Z</time>
      </trkpt>
      <trkpt lat="45.90274" lon="-0.95991">
        <ele>10.6</ele>
        <time>2026-08-13T10:03:45.000Z</time>
      </trkpt>
      <trkpt lat="45.90269" lon="-0.95994">
        <ele>10.5</ele>
        <time>2026-08-13T10:03:49.000Z</time>
      </trkpt>
      <trkpt lat="45.90269" lon="-0.95994">
        <ele>10.5</ele>
        <time>2026-08-13T10:03:50.000Z</time>
      </trkpt>
      <trkpt lat="45.90269" lon="-0.95994">
        <ele>10.5</ele>
        <time>2026-08-13T10:03:51.000Z</time>
      </trkpt>
      <trkpt lat="45.90257" lon="-0.95993">
        <ele>10.2</ele>
        <time>2026-08-13T10:14:29.000Z</time>
      </trkpt>
      <trkpt lat="45.90252" lon="-0.95994">
        <ele>10</ele>
        <time>2026-08-13T10:14:31.000Z</time>
      </trkpt>
      <trkpt lat="45.90238" lon="-0.95987">
        <ele>10</ele>
        <time>2026-08-13T10:14:37.000Z</time>
      </trkpt>
      <trkpt lat="45.90237" lon="-0.95986">
        <ele>10</ele>
        <time>2026-08-13T10:14:38.000Z</time>
      </trkpt>
      <trkpt lat="45.90228" lon="-0.95983">
        <ele>10</ele>
        <time>2026-08-13T10:14:42.000Z</time>
      </trkpt>
      <trkpt lat="45.90213" lon="-0.95984">
        <ele>10.2</ele>
        <time>2026-08-13T10:14:48.000Z</time>
      </trkpt>
      <trkpt lat="45.90188" lon="-0.95986">
        <ele>10.6</ele>
        <time>2026-08-13T10:14:56.000Z</time>
      </trkpt>
      <trkpt lat="45.90172" lon="-0.95986">
        <ele>10.9</ele>
        <time>2026-08-13T10:15:01.000Z</time>
      </trkpt>
      <trkpt lat="45.90143" lon="-0.95988">
        <ele>11</ele>
        <time>2026-08-13T10:15:10.000Z</time>
      </trkpt>
      <trkpt lat="45.90114" lon="-0.95987">
        <ele>11.5</ele>
        <time>2026-08-13T10:15:19.000Z</time>
      </trkpt>
      <trkpt lat="45.90088" lon="-0.95988">
        <ele>11.9</ele>
        <time>2026-08-13T10:15:27.000Z</time>
      </trkpt>
      <trkpt lat="45.90082" lon="-0.95988">
        <ele>12</ele>
        <time>2026-08-13T10:15:29.000Z</time>
      </trkpt>
      <trkpt lat="45.90055" lon="-0.95987">
        <ele>12.5</ele>
        <time>2026-08-13T10:15:37.000Z</time>
      </trkpt>
      <trkpt lat="45.90032" lon="-0.9599">
        <ele>12.1</ele>
        <time>2026-08-13T10:15:44.000Z</time>
      </trkpt>
      <trkpt lat="45.90026" lon="-0.9599">
        <ele>12</ele>
        <time>2026-08-13T10:15:46.000Z</time>
      </trkpt>
      <trkpt lat="45.89999" lon="-0.95991">
        <ele>12.1</ele>
        <time>2026-08-13T10:15:54.000Z</time>
      </trkpt>
      <trkpt lat="45.89974" lon="-0.95992">
        <ele>12.4</ele>
        <time>2026-08-13T10:16:01.000Z</time>
      </trkpt>
      <trkpt lat="45.8994" lon="-0.95993">
        <ele>12.4</ele>
        <time>2026-08-13T10:16:09.000Z</time>
      </trkpt>
      <trkpt lat="45.89905" lon="-0.95995">
        <ele>13</ele>
        <time>2026-08-13T10:16:17.000Z</time>
      </trkpt>
      <trkpt lat="45.89892" lon="-0.95996">
        <ele>13</ele>
        <time>2026-08-13T10:16:20.000Z</time>
      </trkpt>
      <trkpt lat="45.89875" lon="-0.95996">
        <ele>13</ele>
        <time>2026-08-13T10:16:24.000Z</time>
      </trkpt>
      <trkpt lat="45.89831" lon="-0.95998">
        <ele>13.1</ele>
        <time>2026-08-13T10:16:34.000Z</time>
      </trkpt>
      <trkpt lat="45.89796" lon="-0.95999">
        <ele>13.3</ele>
        <time>2026-08-13T10:16:42.000Z</time>
      </trkpt>
      <trkpt lat="45.89767" lon="-0.96001">
        <ele>14</ele>
        <time>2026-08-13T10:16:49.000Z</time>
      </trkpt>
      <trkpt lat="45.89735" lon="-0.96002">
        <ele>14</ele>
        <time>2026-08-13T10:16:56.000Z</time>
      </trkpt>
      <trkpt lat="45.8969" lon="-0.96003">
        <ele>14</ele>
        <time>2026-08-13T10:17:06.000Z</time>
      </trkpt>
      <trkpt lat="45.89641" lon="-0.96005">
        <ele>14</ele>
        <time>2026-08-13T10:17:16.000Z</time>
      </trkpt>
      <trkpt lat="45.896" lon="-0.96007">
        <ele>14</ele>
        <time>2026-08-13T10:17:24.000Z</time>
      </trkpt>
      <trkpt lat="45.8957" lon="-0.96008">
        <ele>13.5</ele>
        <time>2026-08-13T10:17:30.000Z</time>
      </trkpt>
      <trkpt lat="45.89543" lon="-0.96009">
        <ele>13</ele>
        <time>2026-08-13T10:17:35.000Z</time>
      </trkpt>
      <trkpt lat="45.89495" lon="-0.96012">
        <ele>13</ele>
        <time>2026-08-13T10:17:44.000Z</time>
      </trkpt>
      <trkpt lat="45.89446" lon="-0.96013">
        <ele>13</ele>
        <time>2026-08-13T10:17:53.000Z</time>
      </trkpt>
      <trkpt lat="45.89398" lon="-0.96014">
        <ele>12.5</ele>
        <time>2026-08-13T10:18:02.000Z</time>
      </trkpt>
      <trkpt lat="45.89344" lon="-0.96016">
        <ele>12.6</ele>
        <time>2026-08-13T10:18:12.000Z</time>
      </trkpt>
      <trkpt lat="45.89328" lon="-0.96016">
        <ele>12.6</ele>
        <time>2026-08-13T10:18:15.000Z</time>
      </trkpt>
      <trkpt lat="45.89305" lon="-0.96017">
        <ele>12.6</ele>
        <time>2026-08-13T10:18:19.000Z</time>
      </trkpt>
      <trkpt lat="45.893" lon="-0.96017">
        <ele>12.6</ele>
        <time>2026-08-13T10:18:20.000Z</time>
      </trkpt>
      <trkpt lat="45.89248" lon="-0.9602">
        <ele>12.7</ele>
        <time>2026-08-13T10:18:29.000Z</time>
      </trkpt>
      <trkpt lat="45.89194" lon="-0.96022">
        <ele>11.8</ele>
        <time>2026-08-13T10:18:38.000Z</time>
      </trkpt>
      <trkpt lat="45.8914" lon="-0.96025">
        <ele>11</ele>
        <time>2026-08-13T10:18:47.000Z</time>
      </trkpt>
      <trkpt lat="45.89084" lon="-0.96027">
        <ele>11</ele>
        <time>2026-08-13T10:18:57.000Z</time>
      </trkpt>
      <trkpt lat="45.89079" lon="-0.96026">
        <ele>11</ele>
        <time>2026-08-13T10:18:58.000Z</time>
      </trkpt>
      <trkpt lat="45.89049" lon="-0.96028">
        <ele>11</ele>
        <time>2026-08-13T10:19:04.000Z</time>
      </trkpt>
      <trkpt lat="45.89043" lon="-0.96028">
        <ele>11</ele>
        <time>2026-08-13T10:19:05.000Z</time>
      </trkpt>
      <trkpt lat="45.89013" lon="-0.96028">
        <ele>11.5</ele>
        <time>2026-08-13T10:19:11.000Z</time>
      </trkpt>
      <trkpt lat="45.89008" lon="-0.96026">
        <ele>11.7</ele>
        <time>2026-08-13T10:19:12.000Z</time>
      </trkpt>
      <trkpt lat="45.88993" lon="-0.96021">
        <ele>11.7</ele>
        <time>2026-08-13T10:19:15.000Z</time>
      </trkpt>
      <trkpt lat="45.88985" lon="-0.96011">
        <ele>11.4</ele>
        <time>2026-08-13T10:19:17.000Z</time>
      </trkpt>
      <trkpt lat="45.88972" lon="-0.95978">
        <ele>11.8</ele>
        <time>2026-08-13T10:19:22.000Z</time>
      </trkpt>
      <trkpt lat="45.88953" lon="-0.95922">
        <ele>12</ele>
        <time>2026-08-13T10:19:31.000Z</time>
      </trkpt>
      <trkpt lat="45.8894" lon="-0.95882">
        <ele>13</ele>
        <time>2026-08-13T10:19:38.000Z</time>
      </trkpt>
      <trkpt lat="45.88939" lon="-0.95877">
        <ele>13</ele>
        <time>2026-08-13T10:19:39.000Z</time>
      </trkpt>
      <trkpt lat="45.88924" lon="-0.95835">
        <ele>13</ele>
        <time>2026-08-13T10:19:47.000Z</time>
      </trkpt>
      <trkpt lat="45.88911" lon="-0.95798">
        <ele>13.3</ele>
        <time>2026-08-13T10:19:54.000Z</time>
      </trkpt>
      <trkpt lat="45.88908" lon="-0.95794">
        <ele>13.4</ele>
        <time>2026-08-13T10:19:55.000Z</time>
      </trkpt>
      <trkpt lat="45.88905" lon="-0.9579">
        <ele>13.5</ele>
        <time>2026-08-13T10:19:56.000Z</time>
      </trkpt>
      <trkpt lat="45.88897" lon="-0.95785">
        <ele>13.7</ele>
        <time>2026-08-13T10:19:58.000Z</time>
      </trkpt>
      <trkpt lat="45.88892" lon="-0.95784">
        <ele>13.8</ele>
        <time>2026-08-13T10:19:59.000Z</time>
      </trkpt>
      <trkpt lat="45.88876" lon="-0.95781">
        <ele>13.9</ele>
        <time>2026-08-13T10:20:03.000Z</time>
      </trkpt>
      <trkpt lat="45.88872" lon="-0.95779">
        <ele>14</ele>
        <time>2026-08-13T10:20:04.000Z</time>
      </trkpt>
      <trkpt lat="45.88868" lon="-0.95777">
        <ele>14</ele>
        <time>2026-08-13T10:20:05.000Z</time>
      </trkpt>
      <trkpt lat="45.88864" lon="-0.95774">
        <ele>14</ele>
        <time>2026-08-13T10:20:06.000Z</time>
      </trkpt>
      <trkpt lat="45.88856" lon="-0.95768">
        <ele>14</ele>
        <time>2026-08-13T10:20:08.000Z</time>
      </trkpt>
      <trkpt lat="45.88847" lon="-0.95756">
        <ele>14</ele>
        <time>2026-08-13T10:20:11.000Z</time>
      </trkpt>
      <trkpt lat="45.88844" lon="-0.95753">
        <ele>14</ele>
        <time>2026-08-13T10:20:12.000Z</time>
      </trkpt>
      <trkpt lat="45.88838" lon="-0.95745">
        <ele>14</ele>
        <time>2026-08-13T10:20:14.000Z</time>
      </trkpt>
      <trkpt lat="45.88828" lon="-0.95732">
        <ele>14.1</ele>
        <time>2026-08-13T10:20:17.000Z</time>
      </trkpt>
      <trkpt lat="45.88813" lon="-0.9571">
        <ele>14.4</ele>
        <time>2026-08-13T10:20:22.000Z</time>
      </trkpt>
      <trkpt lat="45.88802" lon="-0.95697">
        <ele>14.1</ele>
        <time>2026-08-13T10:20:25.000Z</time>
      </trkpt>
      <trkpt lat="45.88789" lon="-0.95679">
        <ele>14.2</ele>
        <time>2026-08-13T10:20:29.000Z</time>
      </trkpt>
      <trkpt lat="45.88774" lon="-0.95663">
        <ele>14</ele>
        <time>2026-08-13T10:20:33.000Z</time>
      </trkpt>
      <trkpt lat="45.88766" lon="-0.95653">
        <ele>14</ele>
        <time>2026-08-13T10:20:35.000Z</time>
      </trkpt>
      <trkpt lat="45.8876" lon="-0.95644">
        <ele>14</ele>
        <time>2026-08-13T10:20:37.000Z</time>
      </trkpt>
      <trkpt lat="45.88753" lon="-0.95633">
        <ele>14</ele>
        <time>2026-08-13T10:20:39.000Z</time>
      </trkpt>
      <trkpt lat="45.8874" lon="-0.95607">
        <ele>14</ele>
        <time>2026-08-13T10:20:44.000Z</time>
      </trkpt>
      <trkpt lat="45.88733" lon="-0.9559">
        <ele>14</ele>
        <time>2026-08-13T10:20:47.000Z</time>
      </trkpt>
      <trkpt lat="45.88715" lon="-0.95546">
        <ele>14.8</ele>
        <time>2026-08-13T10:20:55.000Z</time>
      </trkpt>
      <trkpt lat="45.88697" lon="-0.95503">
        <ele>14.9</ele>
        <time>2026-08-13T10:21:03.000Z</time>
      </trkpt>
      <trkpt lat="45.8868" lon="-0.95462">
        <ele>14</ele>
        <time>2026-08-13T10:21:11.000Z</time>
      </trkpt>
      <trkpt lat="45.88678" lon="-0.95459">
        <ele>14</ele>
        <time>2026-08-13T10:21:12.000Z</time>
      </trkpt>
      <trkpt lat="45.88674" lon="-0.95457">
        <ele>14</ele>
        <time>2026-08-13T10:21:13.000Z</time>
      </trkpt>
      <trkpt lat="45.88665" lon="-0.95459">
        <ele>14</ele>
        <time>2026-08-13T10:21:15.000Z</time>
      </trkpt>
      <trkpt lat="45.88623" lon="-0.95473">
        <ele>14</ele>
        <time>2026-08-13T10:21:25.000Z</time>
      </trkpt>
      <trkpt lat="45.88589" lon="-0.95493">
        <ele>14</ele>
        <time>2026-08-13T10:21:33.000Z</time>
      </trkpt>
      <trkpt lat="45.88556" lon="-0.95516">
        <ele>14</ele>
        <time>2026-08-13T10:21:41.000Z</time>
      </trkpt>
      <trkpt lat="45.88513" lon="-0.9555">
        <ele>14</ele>
        <time>2026-08-13T10:21:52.000Z</time>
      </trkpt>
      <trkpt lat="45.8847" lon="-0.95592">
        <ele>14</ele>
        <time>2026-08-13T10:22:03.000Z</time>
      </trkpt>
      <trkpt lat="45.88463" lon="-0.95599">
        <ele>14</ele>
        <time>2026-08-13T10:22:05.000Z</time>
      </trkpt>
      <trkpt lat="45.88456" lon="-0.95607">
        <ele>14</ele>
        <time>2026-08-13T10:22:07.000Z</time>
      </trkpt>
      <trkpt lat="45.88449" lon="-0.95616">
        <ele>14</ele>
        <time>2026-08-13T10:22:09.000Z</time>
      </trkpt>
      <trkpt lat="45.88421" lon="-0.95641">
        <ele>13.9</ele>
        <time>2026-08-13T10:22:16.000Z</time>
      </trkpt>
      <trkpt lat="45.88401" lon="-0.95658">
        <ele>13.1</ele>
        <time>2026-08-13T10:22:21.000Z</time>
      </trkpt>
      <trkpt lat="45.88388" lon="-0.95663">
        <ele>13</ele>
        <time>2026-08-13T10:22:24.000Z</time>
      </trkpt>
      <trkpt lat="45.88366" lon="-0.95666">
        <ele>13</ele>
        <time>2026-08-13T10:22:29.000Z</time>
      </trkpt>
      <trkpt lat="45.88357" lon="-0.95666">
        <ele>13</ele>
        <time>2026-08-13T10:22:31.000Z</time>
      </trkpt>
      <trkpt lat="45.88332" lon="-0.95668">
        <ele>13</ele>
        <time>2026-08-13T10:22:36.000Z</time>
      </trkpt>
      <trkpt lat="45.88323" lon="-0.95673">
        <ele>12.9</ele>
        <time>2026-08-13T10:22:38.000Z</time>
      </trkpt>
      <trkpt lat="45.88303" lon="-0.95689">
        <ele>12.2</ele>
        <time>2026-08-13T10:22:42.000Z</time>
      </trkpt>
      <trkpt lat="45.8829" lon="-0.95701">
        <ele>11.9</ele>
        <time>2026-08-13T10:22:45.000Z</time>
      </trkpt>
      <trkpt lat="45.88252" lon="-0.95734">
        <ele>11</ele>
        <time>2026-08-13T10:22:53.000Z</time>
      </trkpt>
      <trkpt lat="45.88247" lon="-0.95739">
        <ele>10.9</ele>
        <time>2026-08-13T10:22:54.000Z</time>
      </trkpt>
      <trkpt lat="45.88212" lon="-0.95771">
        <ele>10</ele>
        <time>2026-08-13T10:23:01.000Z</time>
      </trkpt>
      <trkpt lat="45.88208" lon="-0.95776">
        <ele>10</ele>
        <time>2026-08-13T10:23:02.000Z</time>
      </trkpt>
      <trkpt lat="45.88178" lon="-0.95806">
        <ele>9.4</ele>
        <time>2026-08-13T10:23:09.000Z</time>
      </trkpt>
      <trkpt lat="45.88143" lon="-0.95833">
        <ele>8.3</ele>
        <time>2026-08-13T10:23:17.000Z</time>
      </trkpt>
      <trkpt lat="45.88138" lon="-0.95835">
        <ele>8</ele>
        <time>2026-08-13T10:23:18.000Z</time>
      </trkpt>
      <trkpt lat="45.88116" lon="-0.95842">
        <ele>8.1</ele>
        <time>2026-08-13T10:23:22.000Z</time>
      </trkpt>
      <trkpt lat="45.88111" lon="-0.95846">
        <ele>8</ele>
        <time>2026-08-13T10:23:23.000Z</time>
      </trkpt>
      <trkpt lat="45.88107" lon="-0.95852">
        <ele>8</ele>
        <time>2026-08-13T10:23:24.000Z</time>
      </trkpt>
      <trkpt lat="45.88104" lon="-0.95858">
        <ele>8</ele>
        <time>2026-08-13T10:23:25.000Z</time>
      </trkpt>
      <trkpt lat="45.88102" lon="-0.95864">
        <ele>8</ele>
        <time>2026-08-13T10:23:26.000Z</time>
      </trkpt>
      <trkpt lat="45.88099" lon="-0.95871">
        <ele>8</ele>
        <time>2026-08-13T10:23:27.000Z</time>
      </trkpt>
      <trkpt lat="45.88091" lon="-0.95901">
        <ele>8</ele>
        <time>2026-08-13T10:23:32.000Z</time>
      </trkpt>
      <trkpt lat="45.88084" lon="-0.95925">
        <ele>8</ele>
        <time>2026-08-13T10:23:36.000Z</time>
      </trkpt>
      <trkpt lat="45.88082" lon="-0.9593">
        <ele>8.1</ele>
        <time>2026-08-13T10:23:37.000Z</time>
      </trkpt>
      <trkpt lat="45.88079" lon="-0.95935">
        <ele>8.2</ele>
        <time>2026-08-13T10:23:38.000Z</time>
      </trkpt>
      <trkpt lat="45.88065" lon="-0.95951">
        <ele>8.6</ele>
        <time>2026-08-13T10:23:42.000Z</time>
      </trkpt>
      <trkpt lat="45.88062" lon="-0.95954">
        <ele>8.8</ele>
        <time>2026-08-13T10:23:43.000Z</time>
      </trkpt>
      <trkpt lat="45.88058" lon="-0.95957">
        <ele>8.9</ele>
        <time>2026-08-13T10:23:44.000Z</time>
      </trkpt>
      <trkpt lat="45.88051" lon="-0.95965">
        <ele>9.1</ele>
        <time>2026-08-13T10:23:46.000Z</time>
      </trkpt>
      <trkpt lat="45.8803" lon="-0.95995">
        <ele>9.9</ele>
        <time>2026-08-13T10:23:54.000Z</time>
      </trkpt>
      <trkpt lat="45.88008" lon="-0.96023">
        <ele>10.1</ele>
        <time>2026-08-13T10:24:02.000Z</time>
      </trkpt>
      <trkpt lat="45.88002" lon="-0.96028">
        <ele>10</ele>
        <time>2026-08-13T10:24:04.000Z</time>
      </trkpt>
      <trkpt lat="45.87975" lon="-0.96051">
        <ele>10.8</ele>
        <time>2026-08-13T10:24:13.000Z</time>
      </trkpt>
      <trkpt lat="45.87941" lon="-0.96073">
        <ele>11</ele>
        <time>2026-08-13T10:24:23.000Z</time>
      </trkpt>
      <trkpt lat="45.87899" lon="-0.96103">
        <ele>11.4</ele>
        <time>2026-08-13T10:24:35.000Z</time>
      </trkpt>
      <trkpt lat="45.87863" lon="-0.96128">
        <ele>11</ele>
        <time>2026-08-13T10:24:45.000Z</time>
      </trkpt>
      <trkpt lat="45.87829" lon="-0.96153">
        <ele>11</ele>
        <time>2026-08-13T10:24:54.000Z</time>
      </trkpt>
      <trkpt lat="45.87801" lon="-0.96177">
        <ele>11</ele>
        <time>2026-08-13T10:25:02.000Z</time>
      </trkpt>
      <trkpt lat="45.87776" lon="-0.96202">
        <ele>11.2</ele>
        <time>2026-08-13T10:25:09.000Z</time>
      </trkpt>
      <trkpt lat="45.87765" lon="-0.96213">
        <ele>11.2</ele>
        <time>2026-08-13T10:25:12.000Z</time>
      </trkpt>
      <trkpt lat="45.87754" lon="-0.96224">
        <ele>11.1</ele>
        <time>2026-08-13T10:25:15.000Z</time>
      </trkpt>
      <trkpt lat="45.87718" lon="-0.96254">
        <ele>10.8</ele>
        <time>2026-08-13T10:25:24.000Z</time>
      </trkpt>
      <trkpt lat="45.8768" lon="-0.9628">
        <ele>9.5</ele>
        <time>2026-08-13T10:25:33.000Z</time>
      </trkpt>
      <trkpt lat="45.87677" lon="-0.96284">
        <ele>9.5</ele>
        <time>2026-08-13T10:25:34.000Z</time>
      </trkpt>
      <trkpt lat="45.87659" lon="-0.96306">
        <ele>9.7</ele>
        <time>2026-08-13T10:25:39.000Z</time>
      </trkpt>
      <trkpt lat="45.87655" lon="-0.96316">
        <ele>9.7</ele>
        <time>2026-08-13T10:25:41.000Z</time>
      </trkpt>
      <trkpt lat="45.87652" lon="-0.96327">
        <ele>9.9</ele>
        <time>2026-08-13T10:25:43.000Z</time>
      </trkpt>
      <trkpt lat="45.8765" lon="-0.96332">
        <ele>10</ele>
        <time>2026-08-13T10:25:44.000Z</time>
      </trkpt>
      <trkpt lat="45.87646" lon="-0.96349">
        <ele>10</ele>
        <time>2026-08-13T10:25:49.000Z</time>
      </trkpt>
      <trkpt lat="45.87646" lon="-0.96349">
        <ele>10</ele>
        <time>2026-08-13T10:25:51.000Z</time>
      </trkpt>
      <trkpt lat="45.87647" lon="-0.96353">
        <ele>10</ele>
        <time>2026-08-13T10:25:54.000Z</time>
      </trkpt>
      <trkpt lat="45.87644" lon="-0.96356">
        <ele>10</ele>
        <time>2026-08-13T10:25:56.000Z</time>
      </trkpt>
      <trkpt lat="45.8764" lon="-0.96356">
        <ele>10</ele>
        <time>2026-08-13T10:25:58.000Z</time>
      </trkpt>
      <trkpt lat="45.8762" lon="-0.96349">
        <ele>10</ele>
        <time>2026-08-13T10:26:05.000Z</time>
      </trkpt>
      <trkpt lat="45.87599" lon="-0.96342">
        <ele>8.8</ele>
        <time>2026-08-13T10:26:12.000Z</time>
      </trkpt>
      <trkpt lat="45.87572" lon="-0.96329">
        <ele>6.3</ele>
        <time>2026-08-13T10:26:20.000Z</time>
      </trkpt>
      <trkpt lat="45.87543" lon="-0.96317">
        <ele>8.5</ele>
        <time>2026-08-13T10:26:28.000Z</time>
      </trkpt>
      <trkpt lat="45.87512" lon="-0.96303">
        <ele>10.1</ele>
        <time>2026-08-13T10:26:37.000Z</time>
      </trkpt>
      <trkpt lat="45.87496" lon="-0.96297">
        <ele>11</ele>
        <time>2026-08-13T10:26:42.000Z</time>
      </trkpt>
      <trkpt lat="45.87475" lon="-0.96296">
        <ele>11.3</ele>
        <time>2026-08-13T10:26:48.000Z</time>
      </trkpt>
      <trkpt lat="45.87469" lon="-0.96301">
        <ele>11.2</ele>
        <time>2026-08-13T10:26:50.000Z</time>
      </trkpt>
      <trkpt lat="45.87454" lon="-0.96316">
        <ele>10.5</ele>
        <time>2026-08-13T10:26:54.000Z</time>
      </trkpt>
      <trkpt lat="45.8745" lon="-0.9632">
        <ele>10.4</ele>
        <time>2026-08-13T10:26:55.000Z</time>
      </trkpt>
      <trkpt lat="45.87425" lon="-0.96343">
        <ele>9.4</ele>
        <time>2026-08-13T10:27:01.000Z</time>
      </trkpt>
      <trkpt lat="45.87411" lon="-0.96355">
        <ele>8.6</ele>
        <time>2026-08-13T10:27:04.000Z</time>
      </trkpt>
      <trkpt lat="45.87404" lon="-0.96364">
        <ele>8.4</ele>
        <time>2026-08-13T10:27:06.000Z</time>
      </trkpt>
      <trkpt lat="45.874" lon="-0.9637">
        <ele>8.3</ele>
        <time>2026-08-13T10:27:07.000Z</time>
      </trkpt>
      <trkpt lat="45.87397" lon="-0.96383">
        <ele>7.9</ele>
        <time>2026-08-13T10:27:09.000Z</time>
      </trkpt>
      <trkpt lat="45.87396" lon="-0.96391">
        <ele>7.7</ele>
        <time>2026-08-13T10:27:10.000Z</time>
      </trkpt>
      <trkpt lat="45.87397" lon="-0.96399">
        <ele>7.7</ele>
        <time>2026-08-13T10:27:11.000Z</time>
      </trkpt>
      <trkpt lat="45.87401" lon="-0.96413">
        <ele>7.6</ele>
        <time>2026-08-13T10:27:13.000Z</time>
      </trkpt>
      <trkpt lat="45.87404" lon="-0.9642">
        <ele>7.5</ele>
        <time>2026-08-13T10:27:14.000Z</time>
      </trkpt>
      <trkpt lat="45.87406" lon="-0.96426">
        <ele>7.4</ele>
        <time>2026-08-13T10:27:15.000Z</time>
      </trkpt>
      <trkpt lat="45.87414" lon="-0.96454">
        <ele>7.1</ele>
        <time>2026-08-13T10:27:19.000Z</time>
      </trkpt>
      <trkpt lat="45.87417" lon="-0.9646">
        <ele>7</ele>
        <time>2026-08-13T10:27:20.000Z</time>
      </trkpt>
      <trkpt lat="45.8742" lon="-0.96465">
        <ele>6.9</ele>
        <time>2026-08-13T10:27:21.000Z</time>
      </trkpt>
      <trkpt lat="45.87432" lon="-0.96476">
        <ele>6.5</ele>
        <time>2026-08-13T10:27:24.000Z</time>
      </trkpt>
      <trkpt lat="45.87445" lon="-0.96485">
        <ele>6</ele>
        <time>2026-08-13T10:27:27.000Z</time>
      </trkpt>
      <trkpt lat="45.87453" lon="-0.96493">
        <ele>6</ele>
        <time>2026-08-13T10:27:29.000Z</time>
      </trkpt>
      <trkpt lat="45.87457" lon="-0.96498">
        <ele>6</ele>
        <time>2026-08-13T10:27:30.000Z</time>
      </trkpt>
      <trkpt lat="45.87459" lon="-0.96504">
        <ele>5.9</ele>
        <time>2026-08-13T10:27:31.000Z</time>
      </trkpt>
      <trkpt lat="45.87462" lon="-0.96516">
        <ele>5.8</ele>
        <time>2026-08-13T10:27:33.000Z</time>
      </trkpt>
      <trkpt lat="45.87463" lon="-0.96522">
        <ele>5.7</ele>
        <time>2026-08-13T10:27:34.000Z</time>
      </trkpt>
      <trkpt lat="45.87464" lon="-0.96527">
        <ele>5.7</ele>
        <time>2026-08-13T10:27:35.000Z</time>
      </trkpt>
      <trkpt lat="45.8747" lon="-0.96536">
        <ele>5.6</ele>
        <time>2026-08-13T10:27:37.000Z</time>
      </trkpt>
      <trkpt lat="45.87471" lon="-0.96541">
        <ele>5.5</ele>
        <time>2026-08-13T10:27:38.000Z</time>
      </trkpt>
      <trkpt lat="45.87472" lon="-0.96547">
        <ele>5.3</ele>
        <time>2026-08-13T10:27:39.000Z</time>
      </trkpt>
      <trkpt lat="45.87472" lon="-0.96559">
        <ele>5</ele>
        <time>2026-08-13T10:27:42.000Z</time>
      </trkpt>
      <trkpt lat="45.8747" lon="-0.96571">
        <ele>5</ele>
        <time>2026-08-13T10:27:45.000Z</time>
      </trkpt>
      <trkpt lat="45.87472" lon="-0.9658">
        <ele>5</ele>
        <time>2026-08-13T10:27:47.000Z</time>
      </trkpt>
      <trkpt lat="45.87467" lon="-0.96598">
        <ele>5.4</ele>
        <time>2026-08-13T10:27:51.000Z</time>
      </trkpt>
      <trkpt lat="45.87459" lon="-0.9664">
        <ele>6</ele>
        <time>2026-08-13T10:27:59.000Z</time>
      </trkpt>
      <trkpt lat="45.8745" lon="-0.96678">
        <ele>4.7</ele>
        <time>2026-08-13T10:28:06.000Z</time>
      </trkpt>
      <trkpt lat="45.87443" lon="-0.96714">
        <ele>5.1</ele>
        <time>2026-08-13T10:28:13.000Z</time>
      </trkpt>
      <trkpt lat="45.87435" lon="-0.96741">
        <ele>5.5</ele>
        <time>2026-08-13T10:28:19.000Z</time>
      </trkpt>
      <trkpt lat="45.8743" lon="-0.96765">
        <ele>4.8</ele>
        <time>2026-08-13T10:28:24.000Z</time>
      </trkpt>
      <trkpt lat="45.87419" lon="-0.96794">
        <ele>4.8</ele>
        <time>2026-08-13T10:28:29.000Z</time>
      </trkpt>
      <trkpt lat="45.87408" lon="-0.96825">
        <ele>4.7</ele>
        <time>2026-08-13T10:28:35.000Z</time>
      </trkpt>
      <trkpt lat="45.8739" lon="-0.96867">
        <ele>4.7</ele>
        <time>2026-08-13T10:28:43.000Z</time>
      </trkpt>
      <trkpt lat="45.87374" lon="-0.96902">
        <ele>3.9</ele>
        <time>2026-08-13T10:28:50.000Z</time>
      </trkpt>
      <trkpt lat="45.87356" lon="-0.96941">
        <ele>3.3</ele>
        <time>2026-08-13T10:28:57.000Z</time>
      </trkpt>
      <trkpt lat="45.87349" lon="-0.96953">
        <ele>3.3</ele>
        <time>2026-08-13T10:28:59.000Z</time>
      </trkpt>
      <trkpt lat="45.87341" lon="-0.96972">
        <ele>3.4</ele>
        <time>2026-08-13T10:29:03.000Z</time>
      </trkpt>
      <trkpt lat="45.87325" lon="-0.97004">
        <ele>2.9</ele>
        <time>2026-08-13T10:29:10.000Z</time>
      </trkpt>
      <trkpt lat="45.87303" lon="-0.97049">
        <ele>3.2</ele>
        <time>2026-08-13T10:29:19.000Z</time>
      </trkpt>
      <trkpt lat="45.87295" lon="-0.97064">
        <ele>2.9</ele>
        <time>2026-08-13T10:29:22.000Z</time>
      </trkpt>
      <trkpt lat="45.87283" lon="-0.97089">
        <ele>3.5</ele>
        <time>2026-08-13T10:29:27.000Z</time>
      </trkpt>
      <trkpt lat="45.87278" lon="-0.971">
        <ele>3.4</ele>
        <time>2026-08-13T10:29:29.000Z</time>
      </trkpt>
      <trkpt lat="45.87272" lon="-0.97114">
        <ele>2.9</ele>
        <time>2026-08-13T10:29:32.000Z</time>
      </trkpt>
      <trkpt lat="45.87255" lon="-0.97148">
        <ele>3.4</ele>
        <time>2026-08-13T10:29:39.000Z</time>
      </trkpt>
      <trkpt lat="45.87247" lon="-0.97164">
        <ele>3.2</ele>
        <time>2026-08-13T10:29:42.000Z</time>
      </trkpt>
      <trkpt lat="45.87238" lon="-0.97185">
        <ele>3.1</ele>
        <time>2026-08-13T10:29:46.000Z</time>
      </trkpt>
      <trkpt lat="45.87216" lon="-0.97228">
        <ele>3</ele>
        <time>2026-08-13T10:29:54.000Z</time>
      </trkpt>
      <trkpt lat="45.87204" lon="-0.97257">
        <ele>2.7</ele>
        <time>2026-08-13T10:30:00.000Z</time>
      </trkpt>
      <trkpt lat="45.87199" lon="-0.97267">
        <ele>2.9</ele>
        <time>2026-08-13T10:30:02.000Z</time>
      </trkpt>
      <trkpt lat="45.87188" lon="-0.97287">
        <ele>3</ele>
        <time>2026-08-13T10:30:06.000Z</time>
      </trkpt>
      <trkpt lat="45.87182" lon="-0.97301">
        <ele>3</ele>
        <time>2026-08-13T10:30:09.000Z</time>
      </trkpt>
      <trkpt lat="45.87168" lon="-0.97327">
        <ele>3.2</ele>
        <time>2026-08-13T10:30:14.000Z</time>
      </trkpt>
      <trkpt lat="45.87146" lon="-0.97366">
        <ele>2.8</ele>
        <time>2026-08-13T10:30:22.000Z</time>
      </trkpt>
      <trkpt lat="45.87126" lon="-0.97408">
        <ele>2.6</ele>
        <time>2026-08-13T10:30:30.000Z</time>
      </trkpt>
      <trkpt lat="45.87103" lon="-0.97453">
        <ele>2.9</ele>
        <time>2026-08-13T10:30:39.000Z</time>
      </trkpt>
      <trkpt lat="45.87101" lon="-0.97458">
        <ele>2.9</ele>
        <time>2026-08-13T10:30:40.000Z</time>
      </trkpt>
      <trkpt lat="45.87082" lon="-0.97502">
        <ele>2.9</ele>
        <time>2026-08-13T10:30:49.000Z</time>
      </trkpt>
      <trkpt lat="45.87052" lon="-0.97558">
        <ele>3.1</ele>
        <time>2026-08-13T10:31:00.000Z</time>
      </trkpt>
      <trkpt lat="45.87045" lon="-0.97572">
        <ele>2.8</ele>
        <time>2026-08-13T10:31:03.000Z</time>
      </trkpt>
      <trkpt lat="45.87037" lon="-0.97587">
        <ele>2.7</ele>
        <time>2026-08-13T10:31:06.000Z</time>
      </trkpt>
      <trkpt lat="45.87011" lon="-0.97635">
        <ele>2.6</ele>
        <time>2026-08-13T10:31:16.000Z</time>
      </trkpt>
      <trkpt lat="45.87007" lon="-0.97647">
        <ele>3</ele>
        <time>2026-08-13T10:31:18.000Z</time>
      </trkpt>
      <trkpt lat="45.86991" lon="-0.97682">
        <ele>3</ele>
        <time>2026-08-13T10:31:24.000Z</time>
      </trkpt>
      <trkpt lat="45.86958" lon="-0.97747">
        <ele>2.6</ele>
        <time>2026-08-13T10:31:36.000Z</time>
      </trkpt>
      <trkpt lat="45.86956" lon="-0.97752">
        <ele>2.6</ele>
        <time>2026-08-13T10:31:37.000Z</time>
      </trkpt>
      <trkpt lat="45.86929" lon="-0.97803">
        <ele>2.6</ele>
        <time>2026-08-13T10:31:47.000Z</time>
      </trkpt>
      <trkpt lat="45.86907" lon="-0.97851">
        <ele>2.8</ele>
        <time>2026-08-13T10:31:56.000Z</time>
      </trkpt>
      <trkpt lat="45.86904" lon="-0.97856">
        <ele>2.7</ele>
        <time>2026-08-13T10:31:57.000Z</time>
      </trkpt>
      <trkpt lat="45.86877" lon="-0.97909">
        <ele>2.5</ele>
        <time>2026-08-13T10:32:07.000Z</time>
      </trkpt>
      <trkpt lat="45.8686" lon="-0.97945">
        <ele>3.9</ele>
        <time>2026-08-13T10:32:14.000Z</time>
      </trkpt>
      <trkpt lat="45.86859" lon="-0.9795">
        <ele>3.6</ele>
        <time>2026-08-13T10:32:15.000Z</time>
      </trkpt>
      <trkpt lat="45.86856" lon="-0.97955">
        <ele>3.2</ele>
        <time>2026-08-13T10:32:16.000Z</time>
      </trkpt>
      <trkpt lat="45.8684" lon="-0.97987">
        <ele>3.3</ele>
        <time>2026-08-13T10:32:22.000Z</time>
      </trkpt>
      <trkpt lat="45.86814" lon="-0.98041">
        <ele>2.8</ele>
        <time>2026-08-13T10:32:32.000Z</time>
      </trkpt>
      <trkpt lat="45.86792" lon="-0.98084">
        <ele>2.5</ele>
        <time>2026-08-13T10:32:40.000Z</time>
      </trkpt>
      <trkpt lat="45.86769" lon="-0.98129">
        <ele>2.6</ele>
        <time>2026-08-13T10:32:49.000Z</time>
      </trkpt>
      <trkpt lat="45.86749" lon="-0.98172">
        <ele>2.8</ele>
        <time>2026-08-13T10:32:57.000Z</time>
      </trkpt>
      <trkpt lat="45.86744" lon="-0.98182">
        <ele>2.6</ele>
        <time>2026-08-13T10:32:59.000Z</time>
      </trkpt>
      <trkpt lat="45.86732" lon="-0.98209">
        <ele>3.2</ele>
        <time>2026-08-13T10:33:04.000Z</time>
      </trkpt>
      <trkpt lat="45.86718" lon="-0.98235">
        <ele>3.1</ele>
        <time>2026-08-13T10:33:09.000Z</time>
      </trkpt>
      <trkpt lat="45.86713" lon="-0.98246">
        <ele>2.5</ele>
        <time>2026-08-13T10:33:11.000Z</time>
      </trkpt>
      <trkpt lat="45.86688" lon="-0.98295">
        <ele>2.8</ele>
        <time>2026-08-13T10:33:20.000Z</time>
      </trkpt>
      <trkpt lat="45.86663" lon="-0.98346">
        <ele>3.1</ele>
        <time>2026-08-13T10:33:30.000Z</time>
      </trkpt>
      <trkpt lat="45.86643" lon="-0.98385">
        <ele>3.6</ele>
        <time>2026-08-13T10:33:38.000Z</time>
      </trkpt>
      <trkpt lat="45.86635" lon="-0.98399">
        <ele>3.2</ele>
        <time>2026-08-13T10:33:41.000Z</time>
      </trkpt>
      <trkpt lat="45.86626" lon="-0.9842">
        <ele>2.5</ele>
        <time>2026-08-13T10:33:45.000Z</time>
      </trkpt>
      <trkpt lat="45.86593" lon="-0.98484">
        <ele>2.8</ele>
        <time>2026-08-13T10:33:58.000Z</time>
      </trkpt>
      <trkpt lat="45.8659" lon="-0.9849">
        <ele>2.9</ele>
        <time>2026-08-13T10:33:59.000Z</time>
      </trkpt>
      <trkpt lat="45.86565" lon="-0.98542">
        <ele>2.8</ele>
        <time>2026-08-13T10:34:09.000Z</time>
      </trkpt>
      <trkpt lat="45.86539" lon="-0.98594">
        <ele>2.8</ele>
        <time>2026-08-13T10:34:19.000Z</time>
      </trkpt>
      <trkpt lat="45.8652" lon="-0.98631">
        <ele>2.5</ele>
        <time>2026-08-13T10:34:26.000Z</time>
      </trkpt>
      <trkpt lat="45.86496" lon="-0.98677">
        <ele>3.2</ele>
        <time>2026-08-13T10:34:35.000Z</time>
      </trkpt>
      <trkpt lat="45.86479" lon="-0.98712">
        <ele>3.4</ele>
        <time>2026-08-13T10:34:42.000Z</time>
      </trkpt>
      <trkpt lat="45.86474" lon="-0.98722">
        <ele>3.9</ele>
        <time>2026-08-13T10:34:44.000Z</time>
      </trkpt>
      <trkpt lat="45.86471" lon="-0.98727">
        <ele>3.7</ele>
        <time>2026-08-13T10:34:45.000Z</time>
      </trkpt>
      <trkpt lat="45.86455" lon="-0.9876">
        <ele>3</ele>
        <time>2026-08-13T10:34:51.000Z</time>
      </trkpt>
      <trkpt lat="45.86452" lon="-0.98765">
        <ele>3.3</ele>
        <time>2026-08-13T10:34:52.000Z</time>
      </trkpt>
      <trkpt lat="45.86442" lon="-0.98786">
        <ele>3.4</ele>
        <time>2026-08-13T10:34:56.000Z</time>
      </trkpt>
      <trkpt lat="45.86416" lon="-0.98836">
        <ele>3.8</ele>
        <time>2026-08-13T10:35:06.000Z</time>
      </trkpt>
      <trkpt lat="45.86391" lon="-0.98888">
        <ele>3</ele>
        <time>2026-08-13T10:35:16.000Z</time>
      </trkpt>
      <trkpt lat="45.86368" lon="-0.98935">
        <ele>3.4</ele>
        <time>2026-08-13T10:35:25.000Z</time>
      </trkpt>
      <trkpt lat="45.86365" lon="-0.9894">
        <ele>3.7</ele>
        <time>2026-08-13T10:35:26.000Z</time>
      </trkpt>
      <trkpt lat="45.86342" lon="-0.98987">
        <ele>3.2</ele>
        <time>2026-08-13T10:35:35.000Z</time>
      </trkpt>
      <trkpt lat="45.8631" lon="-0.99052">
        <ele>2.8</ele>
        <time>2026-08-13T10:35:47.000Z</time>
      </trkpt>
      <trkpt lat="45.86308" lon="-0.99057">
        <ele>2.9</ele>
        <time>2026-08-13T10:35:48.000Z</time>
      </trkpt>
      <trkpt lat="45.86286" lon="-0.99101">
        <ele>3.1</ele>
        <time>2026-08-13T10:35:56.000Z</time>
      </trkpt>
      <trkpt lat="45.86263" lon="-0.99148">
        <ele>2.5</ele>
        <time>2026-08-13T10:36:05.000Z</time>
      </trkpt>
      <trkpt lat="45.86234" lon="-0.99207">
        <ele>2.6</ele>
        <time>2026-08-13T10:36:16.000Z</time>
      </trkpt>
      <trkpt lat="45.86208" lon="-0.99262">
        <ele>2.8</ele>
        <time>2026-08-13T10:36:26.000Z</time>
      </trkpt>
      <trkpt lat="45.86189" lon="-0.99299">
        <ele>2.2</ele>
        <time>2026-08-13T10:36:33.000Z</time>
      </trkpt>
      <trkpt lat="45.86186" lon="-0.99304">
        <ele>2</ele>
        <time>2026-08-13T10:36:34.000Z</time>
      </trkpt>
      <trkpt lat="45.86165" lon="-0.99346">
        <ele>2.5</ele>
        <time>2026-08-13T10:36:42.000Z</time>
      </trkpt>
      <trkpt lat="45.8614" lon="-0.99395">
        <ele>2.8</ele>
        <time>2026-08-13T10:36:51.000Z</time>
      </trkpt>
      <trkpt lat="45.86116" lon="-0.99444">
        <ele>2.8</ele>
        <time>2026-08-13T10:37:00.000Z</time>
      </trkpt>
      <trkpt lat="45.86094" lon="-0.99487">
        <ele>2.6</ele>
        <time>2026-08-13T10:37:08.000Z</time>
      </trkpt>
      <trkpt lat="45.86073" lon="-0.99529">
        <ele>3</ele>
        <time>2026-08-13T10:37:16.000Z</time>
      </trkpt>
      <trkpt lat="45.86052" lon="-0.99569">
        <ele>3</ele>
        <time>2026-08-13T10:37:24.000Z</time>
      </trkpt>
      <trkpt lat="45.86027" lon="-0.99621">
        <ele>2.6</ele>
        <time>2026-08-13T10:37:34.000Z</time>
      </trkpt>
      <trkpt lat="45.86008" lon="-0.99662">
        <ele>2.7</ele>
        <time>2026-08-13T10:37:42.000Z</time>
      </trkpt>
      <trkpt lat="45.85978" lon="-0.99721">
        <ele>2.8</ele>
        <time>2026-08-13T10:37:53.000Z</time>
      </trkpt>
      <trkpt lat="45.85975" lon="-0.99727">
        <ele>2.8</ele>
        <time>2026-08-13T10:37:54.000Z</time>
      </trkpt>
      <trkpt lat="45.85952" lon="-0.99774">
        <ele>2.7</ele>
        <time>2026-08-13T10:38:03.000Z</time>
      </trkpt>
      <trkpt lat="45.85927" lon="-0.99822">
        <ele>2.6</ele>
        <time>2026-08-13T10:38:12.000Z</time>
      </trkpt>
      <trkpt lat="45.85895" lon="-0.99887">
        <ele>2.8</ele>
        <time>2026-08-13T10:38:24.000Z</time>
      </trkpt>
      <trkpt lat="45.85869" lon="-0.9994">
        <ele>2.7</ele>
        <time>2026-08-13T10:38:34.000Z</time>
      </trkpt>
      <trkpt lat="45.85841" lon="-0.99998">
        <ele>2.7</ele>
        <time>2026-08-13T10:38:45.000Z</time>
      </trkpt>
      <trkpt lat="45.85814" lon="-1.00053">
        <ele>2.7</ele>
        <time>2026-08-13T10:38:55.000Z</time>
      </trkpt>
      <trkpt lat="45.85791" lon="-1.00099">
        <ele>2.5</ele>
        <time>2026-08-13T10:39:04.000Z</time>
      </trkpt>
      <trkpt lat="45.85787" lon="-1.00108">
        <ele>2.7</ele>
        <time>2026-08-13T10:39:06.000Z</time>
      </trkpt>
      <trkpt lat="45.85782" lon="-1.00118">
        <ele>2.7</ele>
        <time>2026-08-13T10:39:08.000Z</time>
      </trkpt>
      <trkpt lat="45.8578" lon="-1.00123">
        <ele>2.6</ele>
        <time>2026-08-13T10:39:09.000Z</time>
      </trkpt>
      <trkpt lat="45.85769" lon="-1.00144">
        <ele>2.3</ele>
        <time>2026-08-13T10:39:13.000Z</time>
      </trkpt>
      <trkpt lat="45.85761" lon="-1.00159">
        <ele>2.6</ele>
        <time>2026-08-13T10:39:16.000Z</time>
      </trkpt>
      <trkpt lat="45.85733" lon="-1.00216">
        <ele>2.6</ele>
        <time>2026-08-13T10:39:27.000Z</time>
      </trkpt>
      <trkpt lat="45.85704" lon="-1.00276">
        <ele>2.7</ele>
        <time>2026-08-13T10:39:38.000Z</time>
      </trkpt>
      <trkpt lat="45.85678" lon="-1.00327">
        <ele>2.7</ele>
        <time>2026-08-13T10:39:48.000Z</time>
      </trkpt>
      <trkpt lat="45.85653" lon="-1.00378">
        <ele>2.5</ele>
        <time>2026-08-13T10:39:58.000Z</time>
      </trkpt>
      <trkpt lat="45.85624" lon="-1.00429">
        <ele>2.8</ele>
        <time>2026-08-13T10:40:08.000Z</time>
      </trkpt>
      <trkpt lat="45.85609" lon="-1.00453">
        <ele>2.7</ele>
        <time>2026-08-13T10:40:13.000Z</time>
      </trkpt>
      <trkpt lat="45.85603" lon="-1.00461">
        <ele>2.6</ele>
        <time>2026-08-13T10:40:15.000Z</time>
      </trkpt>
      <trkpt lat="45.85568" lon="-1.00507">
        <ele>2.9</ele>
        <time>2026-08-13T10:40:25.000Z</time>
      </trkpt>
      <trkpt lat="45.85553" lon="-1.00524">
        <ele>3</ele>
        <time>2026-08-13T10:40:29.000Z</time>
      </trkpt>
      <trkpt lat="45.85546" lon="-1.00533">
        <ele>2.9</ele>
        <time>2026-08-13T10:40:31.000Z</time>
      </trkpt>
      <trkpt lat="45.85542" lon="-1.00537">
        <ele>2.8</ele>
        <time>2026-08-13T10:40:32.000Z</time>
      </trkpt>
      <trkpt lat="45.85527" lon="-1.00553">
        <ele>3</ele>
        <time>2026-08-13T10:40:36.000Z</time>
      </trkpt>
      <trkpt lat="45.85512" lon="-1.00566">
        <ele>2.8</ele>
        <time>2026-08-13T10:40:40.000Z</time>
      </trkpt>
      <trkpt lat="45.85497" lon="-1.00581">
        <ele>3</ele>
        <time>2026-08-13T10:40:44.000Z</time>
      </trkpt>
      <trkpt lat="45.85489" lon="-1.00589">
        <ele>2.9</ele>
        <time>2026-08-13T10:40:46.000Z</time>
      </trkpt>
      <trkpt lat="45.8548" lon="-1.00597">
        <ele>2.9</ele>
        <time>2026-08-13T10:40:48.000Z</time>
      </trkpt>
      <trkpt lat="45.85442" lon="-1.00636">
        <ele>3</ele>
        <time>2026-08-13T10:40:58.000Z</time>
      </trkpt>
      <trkpt lat="45.85405" lon="-1.00672">
        <ele>2.3</ele>
        <time>2026-08-13T10:41:07.000Z</time>
      </trkpt>
      <trkpt lat="45.85367" lon="-1.0071">
        <ele>2.8</ele>
        <time>2026-08-13T10:41:17.000Z</time>
      </trkpt>
      <trkpt lat="45.85326" lon="-1.00752">
        <ele>2.9</ele>
        <time>2026-08-13T10:41:28.000Z</time>
      </trkpt>
      <trkpt lat="45.85291" lon="-1.00787">
        <ele>2.5</ele>
        <time>2026-08-13T10:41:37.000Z</time>
      </trkpt>
      <trkpt lat="45.85257" lon="-1.00822">
        <ele>2.9</ele>
        <time>2026-08-13T10:41:46.000Z</time>
      </trkpt>
      <trkpt lat="45.85209" lon="-1.00869">
        <ele>2.5</ele>
        <time>2026-08-13T10:41:58.000Z</time>
      </trkpt>
      <trkpt lat="45.85204" lon="-1.00873">
        <ele>2.6</ele>
        <time>2026-08-13T10:41:59.000Z</time>
      </trkpt>
      <trkpt lat="45.85197" lon="-1.0088">
        <ele>2.9</ele>
        <time>2026-08-13T10:42:01.000Z</time>
      </trkpt>
      <trkpt lat="45.85193" lon="-1.00884">
        <ele>3</ele>
        <time>2026-08-13T10:42:02.000Z</time>
      </trkpt>
      <trkpt lat="45.85186" lon="-1.00892">
        <ele>2.9</ele>
        <time>2026-08-13T10:42:04.000Z</time>
      </trkpt>
      <trkpt lat="45.8515" lon="-1.00927">
        <ele>2.6</ele>
        <time>2026-08-13T10:42:13.000Z</time>
      </trkpt>
      <trkpt lat="45.85119" lon="-1.00959">
        <ele>2.9</ele>
        <time>2026-08-13T10:42:21.000Z</time>
      </trkpt>
      <trkpt lat="45.85083" lon="-1.00993">
        <ele>2.3</ele>
        <time>2026-08-13T10:42:30.000Z</time>
      </trkpt>
      <trkpt lat="45.8506" lon="-1.01016">
        <ele>2.3</ele>
        <time>2026-08-13T10:42:36.000Z</time>
      </trkpt>
      <trkpt lat="45.85052" lon="-1.01025">
        <ele>2.2</ele>
        <time>2026-08-13T10:42:38.000Z</time>
      </trkpt>
      <trkpt lat="45.85048" lon="-1.01029">
        <ele>2.3</ele>
        <time>2026-08-13T10:42:39.000Z</time>
      </trkpt>
      <trkpt lat="45.85028" lon="-1.01048">
        <ele>3</ele>
        <time>2026-08-13T10:42:44.000Z</time>
      </trkpt>
      <trkpt lat="45.84991" lon="-1.01083">
        <ele>3</ele>
        <time>2026-08-13T10:42:53.000Z</time>
      </trkpt>
      <trkpt lat="45.84984" lon="-1.0109">
        <ele>2.7</ele>
        <time>2026-08-13T10:42:55.000Z</time>
      </trkpt>
      <trkpt lat="45.84973" lon="-1.01103">
        <ele>2.3</ele>
        <time>2026-08-13T10:42:58.000Z</time>
      </trkpt>
      <trkpt lat="45.84965" lon="-1.01111">
        <ele>2.3</ele>
        <time>2026-08-13T10:43:00.000Z</time>
      </trkpt>
      <trkpt lat="45.84933" lon="-1.01142">
        <ele>2.9</ele>
        <time>2026-08-13T10:43:08.000Z</time>
      </trkpt>
      <trkpt lat="45.84885" lon="-1.01189">
        <ele>2.3</ele>
        <time>2026-08-13T10:43:20.000Z</time>
      </trkpt>
      <trkpt lat="45.84842" lon="-1.01231">
        <ele>2.5</ele>
        <time>2026-08-13T10:43:31.000Z</time>
      </trkpt>
      <trkpt lat="45.84809" lon="-1.01264">
        <ele>2.4</ele>
        <time>2026-08-13T10:43:40.000Z</time>
      </trkpt>
      <trkpt lat="45.84776" lon="-1.01297">
        <ele>2.3</ele>
        <time>2026-08-13T10:43:49.000Z</time>
      </trkpt>
      <trkpt lat="45.84772" lon="-1.01301">
        <ele>2.3</ele>
        <time>2026-08-13T10:43:50.000Z</time>
      </trkpt>
      <trkpt lat="45.84738" lon="-1.01334">
        <ele>2.4</ele>
        <time>2026-08-13T10:43:59.000Z</time>
      </trkpt>
      <trkpt lat="45.84735" lon="-1.01338">
        <ele>2.5</ele>
        <time>2026-08-13T10:44:00.000Z</time>
      </trkpt>
      <trkpt lat="45.84712" lon="-1.01361">
        <ele>2.4</ele>
        <time>2026-08-13T10:44:06.000Z</time>
      </trkpt>
      <trkpt lat="45.84678" lon="-1.01393">
        <ele>2.6</ele>
        <time>2026-08-13T10:44:15.000Z</time>
      </trkpt>
      <trkpt lat="45.84644" lon="-1.01427">
        <ele>2.6</ele>
        <time>2026-08-13T10:44:24.000Z</time>
      </trkpt>
      <trkpt lat="45.84617" lon="-1.01455">
        <ele>2.5</ele>
        <time>2026-08-13T10:44:32.000Z</time>
      </trkpt>
      <trkpt lat="45.84604" lon="-1.01467">
        <ele>2.4</ele>
        <time>2026-08-13T10:44:37.000Z</time>
      </trkpt>
      <trkpt lat="45.84592" lon="-1.01477">
        <ele>2.7</ele>
        <time>2026-08-13T10:44:42.000Z</time>
      </trkpt>
      <trkpt lat="45.84575" lon="-1.01499">
        <ele>3</ele>
        <time>2026-08-13T10:44:50.000Z</time>
      </trkpt>
      <trkpt lat="45.84571" lon="-1.01509">
        <ele>2.8</ele>
        <time>2026-08-13T10:44:53.000Z</time>
      </trkpt>
      <trkpt lat="45.84572" lon="-1.01518">
        <ele>2.6</ele>
        <time>2026-08-13T10:44:55.000Z</time>
      </trkpt>
      <trkpt lat="45.84581" lon="-1.01533">
        <ele>2.2</ele>
        <time>2026-08-13T10:44:59.000Z</time>
      </trkpt>
      <trkpt lat="45.84586" lon="-1.01546">
        <ele>2.6</ele>
        <time>2026-08-13T10:45:02.000Z</time>
      </trkpt>
      <trkpt lat="45.84585" lon="-1.01551">
        <ele>2.8</ele>
        <time>2026-08-13T10:45:03.000Z</time>
      </trkpt>
      <trkpt lat="45.84572" lon="-1.01566">
        <ele>2.8</ele>
        <time>2026-08-13T10:45:07.000Z</time>
      </trkpt>
      <trkpt lat="45.84559" lon="-1.01585">
        <ele>3</ele>
        <time>2026-08-13T10:45:12.000Z</time>
      </trkpt>
      <trkpt lat="45.84531" lon="-1.01625">
        <ele>2.5</ele>
        <time>2026-08-13T10:45:22.000Z</time>
      </trkpt>
      <trkpt lat="45.84514" lon="-1.0165">
        <ele>2.5</ele>
        <time>2026-08-13T10:45:28.000Z</time>
      </trkpt>
      <trkpt lat="45.84502" lon="-1.01666">
        <ele>2.9</ele>
        <time>2026-08-13T10:45:32.000Z</time>
      </trkpt>
      <trkpt lat="45.8448" lon="-1.01697">
        <ele>2.1</ele>
        <time>2026-08-13T10:45:39.000Z</time>
      </trkpt>
      <trkpt lat="45.84457" lon="-1.0173">
        <ele>2.5</ele>
        <time>2026-08-13T10:45:47.000Z</time>
      </trkpt>
      <trkpt lat="45.84433" lon="-1.01766">
        <ele>2.6</ele>
        <time>2026-08-13T10:45:55.000Z</time>
      </trkpt>
      <trkpt lat="45.84409" lon="-1.01799">
        <ele>2.5</ele>
        <time>2026-08-13T10:46:02.000Z</time>
      </trkpt>
      <trkpt lat="45.84405" lon="-1.01804">
        <ele>2.6</ele>
        <time>2026-08-13T10:46:03.000Z</time>
      </trkpt>
      <trkpt lat="45.84368" lon="-1.01856">
        <ele>2.7</ele>
        <time>2026-08-13T10:46:14.000Z</time>
      </trkpt>
      <trkpt lat="45.84365" lon="-1.01861">
        <ele>2.9</ele>
        <time>2026-08-13T10:46:15.000Z</time>
      </trkpt>
      <trkpt lat="45.84353" lon="-1.0188">
        <ele>2.7</ele>
        <time>2026-08-13T10:46:19.000Z</time>
      </trkpt>
      <trkpt lat="45.84343" lon="-1.01895">
        <ele>2.4</ele>
        <time>2026-08-13T10:46:22.000Z</time>
      </trkpt>
      <trkpt lat="45.84327" lon="-1.01918">
        <ele>2.7</ele>
        <time>2026-08-13T10:46:27.000Z</time>
      </trkpt>
      <trkpt lat="45.84308" lon="-1.01946">
        <ele>2.9</ele>
        <time>2026-08-13T10:46:33.000Z</time>
      </trkpt>
      <trkpt lat="45.84299" lon="-1.01959">
        <ele>2.9</ele>
        <time>2026-08-13T10:46:36.000Z</time>
      </trkpt>
      <trkpt lat="45.84277" lon="-1.0199">
        <ele>3</ele>
        <time>2026-08-13T10:46:43.000Z</time>
      </trkpt>
      <trkpt lat="45.84251" lon="-1.02028">
        <ele>3</ele>
        <time>2026-08-13T10:46:51.000Z</time>
      </trkpt>
      <trkpt lat="45.84226" lon="-1.02064">
        <ele>3</ele>
        <time>2026-08-13T10:46:59.000Z</time>
      </trkpt>
      <trkpt lat="45.84202" lon="-1.02095">
        <ele>2.8</ele>
        <time>2026-08-13T10:47:06.000Z</time>
      </trkpt>
      <trkpt lat="45.84191" lon="-1.0211">
        <ele>3.7</ele>
        <time>2026-08-13T10:47:09.000Z</time>
      </trkpt>
      <trkpt lat="45.84179" lon="-1.02129">
        <ele>3</ele>
        <time>2026-08-13T10:47:13.000Z</time>
      </trkpt>
      <trkpt lat="45.84148" lon="-1.02174">
        <ele>2.9</ele>
        <time>2026-08-13T10:47:22.000Z</time>
      </trkpt>
      <trkpt lat="45.84134" lon="-1.02194">
        <ele>2.8</ele>
        <time>2026-08-13T10:47:26.000Z</time>
      </trkpt>
      <trkpt lat="45.84124" lon="-1.02208">
        <ele>2.5</ele>
        <time>2026-08-13T10:47:29.000Z</time>
      </trkpt>
      <trkpt lat="45.84095" lon="-1.02251">
        <ele>3</ele>
        <time>2026-08-13T10:47:38.000Z</time>
      </trkpt>
      <trkpt lat="45.84071" lon="-1.02282">
        <ele>2.6</ele>
        <time>2026-08-13T10:47:45.000Z</time>
      </trkpt>
      <trkpt lat="45.84062" lon="-1.02296">
        <ele>2.7</ele>
        <time>2026-08-13T10:47:48.000Z</time>
      </trkpt>
      <trkpt lat="45.84046" lon="-1.02318">
        <ele>2.8</ele>
        <time>2026-08-13T10:47:53.000Z</time>
      </trkpt>
      <trkpt lat="45.84019" lon="-1.02358">
        <ele>3</ele>
        <time>2026-08-13T10:48:02.000Z</time>
      </trkpt>
      <trkpt lat="45.83993" lon="-1.02395">
        <ele>2.9</ele>
        <time>2026-08-13T10:48:10.000Z</time>
      </trkpt>
      <trkpt lat="45.8399" lon="-1.024">
        <ele>2.9</ele>
        <time>2026-08-13T10:48:11.000Z</time>
      </trkpt>
      <trkpt lat="45.8397" lon="-1.02427">
        <ele>3.5</ele>
        <time>2026-08-13T10:48:17.000Z</time>
      </trkpt>
      <trkpt lat="45.83949" lon="-1.02458">
        <ele>3</ele>
        <time>2026-08-13T10:48:24.000Z</time>
      </trkpt>
      <trkpt lat="45.83946" lon="-1.02463">
        <ele>3</ele>
        <time>2026-08-13T10:48:25.000Z</time>
      </trkpt>
      <trkpt lat="45.83945" lon="-1.02469">
        <ele>3</ele>
        <time>2026-08-13T10:48:26.000Z</time>
      </trkpt>
      <trkpt lat="45.83948" lon="-1.0248">
        <ele>3</ele>
        <time>2026-08-13T10:48:28.000Z</time>
      </trkpt>
      <trkpt lat="45.83958" lon="-1.02491">
        <ele>3</ele>
        <time>2026-08-13T10:48:31.000Z</time>
      </trkpt>
      <trkpt lat="45.83965" lon="-1.02499">
        <ele>3</ele>
        <time>2026-08-13T10:48:33.000Z</time>
      </trkpt>
      <trkpt lat="45.83989" lon="-1.02543">
        <ele>3</ele>
        <time>2026-08-13T10:48:42.000Z</time>
      </trkpt>
      <trkpt lat="45.84011" lon="-1.02576">
        <ele>3</ele>
        <time>2026-08-13T10:48:50.000Z</time>
      </trkpt>
      <trkpt lat="45.84034" lon="-1.02602">
        <ele>3</ele>
        <time>2026-08-13T10:48:58.000Z</time>
      </trkpt>
      <trkpt lat="45.84036" lon="-1.02604">
        <ele>3</ele>
        <time>2026-08-13T10:48:59.000Z</time>
      </trkpt>
      <trkpt lat="45.8405" lon="-1.02615">
        <ele>3</ele>
        <time>2026-08-13T10:49:05.000Z</time>
      </trkpt>
      <trkpt lat="45.84061" lon="-1.02624">
        <ele>3</ele>
        <time>2026-08-13T10:49:10.000Z</time>
      </trkpt>
      <trkpt lat="45.8408" lon="-1.02639">
        <ele>3</ele>
        <time>2026-08-13T10:49:17.000Z</time>
      </trkpt>
      <trkpt lat="45.84105" lon="-1.02658">
        <ele>3</ele>
        <time>2026-08-13T10:49:26.000Z</time>
      </trkpt>
      <trkpt lat="45.8412" lon="-1.02671">
        <ele>3</ele>
        <time>2026-08-13T10:49:32.000Z</time>
      </trkpt>
      <trkpt lat="45.84142" lon="-1.02693">
        <ele>2.9</ele>
        <time>2026-08-13T10:49:40.000Z</time>
      </trkpt>
      <trkpt lat="45.8415" lon="-1.02712">
        <ele>2.9</ele>
        <time>2026-08-13T10:49:44.000Z</time>
      </trkpt>
      <trkpt lat="45.84154" lon="-1.02728">
        <ele>3</ele>
        <time>2026-08-13T10:49:47.000Z</time>
      </trkpt>
      <trkpt lat="45.84164" lon="-1.02774">
        <ele>3</ele>
        <time>2026-08-13T10:49:56.000Z</time>
      </trkpt>
      <trkpt lat="45.84166" lon="-1.02816">
        <ele>3</ele>
        <time>2026-08-13T10:50:04.000Z</time>
      </trkpt>
      <trkpt lat="45.84174" lon="-1.02842">
        <ele>3</ele>
        <time>2026-08-13T10:50:09.000Z</time>
      </trkpt>
      <trkpt lat="45.84193" lon="-1.0286">
        <ele>3</ele>
        <time>2026-08-13T10:50:15.000Z</time>
      </trkpt>
      <trkpt lat="45.84204" lon="-1.02867">
        <ele>3</ele>
        <time>2026-08-13T10:50:18.000Z</time>
      </trkpt>
      <trkpt lat="45.84224" lon="-1.02881">
        <ele>3</ele>
        <time>2026-08-13T10:50:24.000Z</time>
      </trkpt>
      <trkpt lat="45.84249" lon="-1.02901">
        <ele>3</ele>
        <time>2026-08-13T10:50:32.000Z</time>
      </trkpt>
      <trkpt lat="45.84271" lon="-1.02932">
        <ele>3</ele>
        <time>2026-08-13T10:50:41.000Z</time>
      </trkpt>
      <trkpt lat="45.84294" lon="-1.02967">
        <ele>3</ele>
        <time>2026-08-13T10:50:50.000Z</time>
      </trkpt>
      <trkpt lat="45.84296" lon="-1.0297">
        <ele>3</ele>
        <time>2026-08-13T10:50:51.000Z</time>
      </trkpt>
      <trkpt lat="45.84322" lon="-1.02993">
        <ele>2.8</ele>
        <time>2026-08-13T10:50:59.000Z</time>
      </trkpt>
      <trkpt lat="45.84355" lon="-1.03012">
        <ele>3</ele>
        <time>2026-08-13T10:51:09.000Z</time>
      </trkpt>
      <trkpt lat="45.84371" lon="-1.03044">
        <ele>2.8</ele>
        <time>2026-08-13T10:51:17.000Z</time>
      </trkpt>
      <trkpt lat="45.84375" lon="-1.03077">
        <ele>2.5</ele>
        <time>2026-08-13T10:51:23.000Z</time>
      </trkpt>
      <trkpt lat="45.84376" lon="-1.03082">
        <ele>2.5</ele>
        <time>2026-08-13T10:51:24.000Z</time>
      </trkpt>
      <trkpt lat="45.84378" lon="-1.03092">
        <ele>2.6</ele>
        <time>2026-08-13T10:51:26.000Z</time>
      </trkpt>
      <trkpt lat="45.84389" lon="-1.03125">
        <ele>3</ele>
        <time>2026-08-13T10:51:33.000Z</time>
      </trkpt>
      <trkpt lat="45.84409" lon="-1.03141">
        <ele>3</ele>
        <time>2026-08-13T10:51:39.000Z</time>
      </trkpt>
      <trkpt lat="45.84432" lon="-1.03163">
        <ele>2.9</ele>
        <time>2026-08-13T10:51:46.000Z</time>
      </trkpt>
      <trkpt lat="45.84453" lon="-1.03184">
        <ele>2.9</ele>
        <time>2026-08-13T10:51:53.000Z</time>
      </trkpt>
      <trkpt lat="45.84473" lon="-1.03194">
        <ele>3</ele>
        <time>2026-08-13T10:51:59.000Z</time>
      </trkpt>
      <trkpt lat="45.84477" lon="-1.03195">
        <ele>2.9</ele>
        <time>2026-08-13T10:52:01.000Z</time>
      </trkpt>
      <trkpt lat="45.84477" lon="-1.03195">
        <ele>2.8</ele>
        <time>2026-08-13T10:52:02.000Z</time>
      </trkpt>
      <trkpt lat="45.84478" lon="-1.03194">
        <ele>2.8</ele>
        <time>2026-08-13T10:52:06.000Z</time>
      </trkpt>
      <trkpt lat="45.84482" lon="-1.03203">
        <ele>2.8</ele>
        <time>2026-08-13T10:53:05.000Z</time>
      </trkpt>
      <trkpt lat="45.84483" lon="-1.03204">
        <ele>2.7</ele>
        <time>2026-08-13T10:53:06.000Z</time>
      </trkpt>
      <trkpt lat="45.84493" lon="-1.03215">
        <ele>2.8</ele>
        <time>2026-08-13T10:53:13.000Z</time>
      </trkpt>
      <trkpt lat="45.84514" lon="-1.03243">
        <ele>2.9</ele>
        <time>2026-08-13T10:53:22.000Z</time>
      </trkpt>
      <trkpt lat="45.84539" lon="-1.03271">
        <ele>2.6</ele>
        <time>2026-08-13T10:53:31.000Z</time>
      </trkpt>
      <trkpt lat="45.84567" lon="-1.03305">
        <ele>2.6</ele>
        <time>2026-08-13T10:53:41.000Z</time>
      </trkpt>
      <trkpt lat="45.84596" lon="-1.03347">
        <ele>2.8</ele>
        <time>2026-08-13T10:53:53.000Z</time>
      </trkpt>
      <trkpt lat="45.84608" lon="-1.03378">
        <ele>3</ele>
        <time>2026-08-13T10:54:00.000Z</time>
      </trkpt>
      <trkpt lat="45.84607" lon="-1.03395">
        <ele>2.8</ele>
        <time>2026-08-13T10:54:05.000Z</time>
      </trkpt>
      <trkpt lat="45.84599" lon="-1.03399">
        <ele>2.8</ele>
        <time>2026-08-13T10:54:09.000Z</time>
      </trkpt>
      <trkpt lat="45.8459" lon="-1.03406">
        <ele>2.9</ele>
        <time>2026-08-13T10:54:12.000Z</time>
      </trkpt>
      <trkpt lat="45.84574" lon="-1.03417">
        <ele>3</ele>
        <time>2026-08-13T10:54:17.000Z</time>
      </trkpt>
      <trkpt lat="45.8454" lon="-1.03445">
        <ele>3</ele>
        <time>2026-08-13T10:54:27.000Z</time>
      </trkpt>
      <trkpt lat="45.84508" lon="-1.03473">
        <ele>2.7</ele>
        <time>2026-08-13T10:54:36.000Z</time>
      </trkpt>
      <trkpt lat="45.84475" lon="-1.03501">
        <ele>2.9</ele>
        <time>2026-08-13T10:54:45.000Z</time>
      </trkpt>
      <trkpt lat="45.84438" lon="-1.03536">
        <ele>2.6</ele>
        <time>2026-08-13T10:54:55.000Z</time>
      </trkpt>
      <trkpt lat="45.84406" lon="-1.03566">
        <ele>2.8</ele>
        <time>2026-08-13T10:55:04.000Z</time>
      </trkpt>
      <trkpt lat="45.84378" lon="-1.03595">
        <ele>2.7</ele>
        <time>2026-08-13T10:55:12.000Z</time>
      </trkpt>
      <trkpt lat="45.84354" lon="-1.03628">
        <ele>2.9</ele>
        <time>2026-08-13T10:55:20.000Z</time>
      </trkpt>
      <trkpt lat="45.84317" lon="-1.03674">
        <ele>3</ele>
        <time>2026-08-13T10:55:31.000Z</time>
      </trkpt>
      <trkpt lat="45.84304" lon="-1.03689">
        <ele>3</ele>
        <time>2026-08-13T10:55:35.000Z</time>
      </trkpt>
      <trkpt lat="45.84287" lon="-1.03706">
        <ele>2.9</ele>
        <time>2026-08-13T10:55:40.000Z</time>
      </trkpt>
      <trkpt lat="45.84283" lon="-1.03709">
        <ele>2.9</ele>
        <time>2026-08-13T10:55:41.000Z</time>
      </trkpt>
      <trkpt lat="45.84274" lon="-1.03711">
        <ele>3</ele>
        <time>2026-08-13T10:55:43.000Z</time>
      </trkpt>
      <trkpt lat="45.8427" lon="-1.03711">
        <ele>2.9</ele>
        <time>2026-08-13T10:55:44.000Z</time>
      </trkpt>
      <trkpt lat="45.84265" lon="-1.0371">
        <ele>2.8</ele>
        <time>2026-08-13T10:55:45.000Z</time>
      </trkpt>
      <trkpt lat="45.84245" lon="-1.03701">
        <ele>2.3</ele>
        <time>2026-08-13T10:55:50.000Z</time>
      </trkpt>
      <trkpt lat="45.84207" lon="-1.03671">
        <ele>3</ele>
        <time>2026-08-13T10:56:00.000Z</time>
      </trkpt>
      <trkpt lat="45.84191" lon="-1.03659">
        <ele>3</ele>
        <time>2026-08-13T10:56:04.000Z</time>
      </trkpt>
      <trkpt lat="45.84178" lon="-1.03655">
        <ele>3</ele>
        <time>2026-08-13T10:56:07.000Z</time>
      </trkpt>
      <trkpt lat="45.84174" lon="-1.03654">
        <ele>3</ele>
        <time>2026-08-13T10:56:08.000Z</time>
      </trkpt>
      <trkpt lat="45.8417" lon="-1.03654">
        <ele>3</ele>
        <time>2026-08-13T10:56:09.000Z</time>
      </trkpt>
      <trkpt lat="45.84153" lon="-1.03655">
        <ele>3</ele>
        <time>2026-08-13T10:56:13.000Z</time>
      </trkpt>
      <trkpt lat="45.8414" lon="-1.03657">
        <ele>3</ele>
        <time>2026-08-13T10:56:16.000Z</time>
      </trkpt>
      <trkpt lat="45.84133" lon="-1.03661">
        <ele>3</ele>
        <time>2026-08-13T10:56:18.000Z</time>
      </trkpt>
      <trkpt lat="45.84129" lon="-1.03665">
        <ele>3</ele>
        <time>2026-08-13T10:56:19.000Z</time>
      </trkpt>
      <trkpt lat="45.84125" lon="-1.03669">
        <ele>3</ele>
        <time>2026-08-13T10:56:20.000Z</time>
      </trkpt>
      <trkpt lat="45.8411" lon="-1.03692">
        <ele>3</ele>
        <time>2026-08-13T10:56:25.000Z</time>
      </trkpt>
      <trkpt lat="45.84096" lon="-1.03716">
        <ele>3</ele>
        <time>2026-08-13T10:56:30.000Z</time>
      </trkpt>
      <trkpt lat="45.84093" lon="-1.03728">
        <ele>2.9</ele>
        <time>2026-08-13T10:56:32.000Z</time>
      </trkpt>
      <trkpt lat="45.84087" lon="-1.0376">
        <ele>2.9</ele>
        <time>2026-08-13T10:56:37.000Z</time>
      </trkpt>
      <trkpt lat="45.84083" lon="-1.03771">
        <ele>3</ele>
        <time>2026-08-13T10:56:39.000Z</time>
      </trkpt>
      <trkpt lat="45.8408" lon="-1.03776">
        <ele>2.9</ele>
        <time>2026-08-13T10:56:40.000Z</time>
      </trkpt>
      <trkpt lat="45.84077" lon="-1.0378">
        <ele>2.8</ele>
        <time>2026-08-13T10:56:41.000Z</time>
      </trkpt>
      <trkpt lat="45.84065" lon="-1.03796">
        <ele>2.8</ele>
        <time>2026-08-13T10:56:45.000Z</time>
      </trkpt>
      <trkpt lat="45.84062" lon="-1.03801">
        <ele>2.9</ele>
        <time>2026-08-13T10:56:46.000Z</time>
      </trkpt>
      <trkpt lat="45.8406" lon="-1.03807">
        <ele>3</ele>
        <time>2026-08-13T10:56:47.000Z</time>
      </trkpt>
      <trkpt lat="45.84058" lon="-1.03812">
        <ele>3</ele>
        <time>2026-08-13T10:56:48.000Z</time>
      </trkpt>
      <trkpt lat="45.84057" lon="-1.03818">
        <ele>3</ele>
        <time>2026-08-13T10:56:49.000Z</time>
      </trkpt>
      <trkpt lat="45.84056" lon="-1.0383">
        <ele>3</ele>
        <time>2026-08-13T10:56:51.000Z</time>
      </trkpt>
      <trkpt lat="45.84056" lon="-1.03854">
        <ele>3</ele>
        <time>2026-08-13T10:56:55.000Z</time>
      </trkpt>
      <trkpt lat="45.84054" lon="-1.03871">
        <ele>2.9</ele>
        <time>2026-08-13T10:56:58.000Z</time>
      </trkpt>
      <trkpt lat="45.84045" lon="-1.03892">
        <ele>2.7</ele>
        <time>2026-08-13T10:57:02.000Z</time>
      </trkpt>
      <trkpt lat="45.84039" lon="-1.03902">
        <ele>2.7</ele>
        <time>2026-08-13T10:57:04.000Z</time>
      </trkpt>
      <trkpt lat="45.84016" lon="-1.03918">
        <ele>3</ele>
        <time>2026-08-13T10:57:10.000Z</time>
      </trkpt>
      <trkpt lat="45.83985" lon="-1.03939">
        <ele>2.9</ele>
        <time>2026-08-13T10:57:18.000Z</time>
      </trkpt>
      <trkpt lat="45.83954" lon="-1.03977">
        <ele>3</ele>
        <time>2026-08-13T10:57:27.000Z</time>
      </trkpt>
      <trkpt lat="45.83932" lon="-1.04006">
        <ele>2.6</ele>
        <time>2026-08-13T10:57:34.000Z</time>
      </trkpt>
      <trkpt lat="45.83927" lon="-1.04018">
        <ele>2.8</ele>
        <time>2026-08-13T10:57:36.000Z</time>
      </trkpt>
      <trkpt lat="45.83926" lon="-1.0403">
        <ele>3</ele>
        <time>2026-08-13T10:57:38.000Z</time>
      </trkpt>
      <trkpt lat="45.83925" lon="-1.04043">
        <ele>3</ele>
        <time>2026-08-13T10:57:40.000Z</time>
      </trkpt>
      <trkpt lat="45.83925" lon="-1.04048">
        <ele>3</ele>
        <time>2026-08-13T10:57:41.000Z</time>
      </trkpt>
      <trkpt lat="45.83927" lon="-1.04073">
        <ele>3</ele>
        <time>2026-08-13T10:57:45.000Z</time>
      </trkpt>
      <trkpt lat="45.83929" lon="-1.0409">
        <ele>3</ele>
        <time>2026-08-13T10:57:48.000Z</time>
      </trkpt>
      <trkpt lat="45.83935" lon="-1.04107">
        <ele>3</ele>
        <time>2026-08-13T10:57:51.000Z</time>
      </trkpt>
      <trkpt lat="45.83941" lon="-1.04115">
        <ele>3</ele>
        <time>2026-08-13T10:57:53.000Z</time>
      </trkpt>
      <trkpt lat="45.8395" lon="-1.04126">
        <ele>3</ele>
        <time>2026-08-13T10:57:56.000Z</time>
      </trkpt>
      <trkpt lat="45.83959" lon="-1.04137">
        <ele>3</ele>
        <time>2026-08-13T10:57:59.000Z</time>
      </trkpt>
      <trkpt lat="45.83962" lon="-1.04141">
        <ele>3</ele>
        <time>2026-08-13T10:58:00.000Z</time>
      </trkpt>
      <trkpt lat="45.84005" lon="-1.04187">
        <ele>2.8</ele>
        <time>2026-08-13T10:58:13.000Z</time>
      </trkpt>
      <trkpt lat="45.84027" lon="-1.04211">
        <ele>2.6</ele>
        <time>2026-08-13T10:58:20.000Z</time>
      </trkpt>
      <trkpt lat="45.84063" lon="-1.04254">
        <ele>3</ele>
        <time>2026-08-13T10:58:32.000Z</time>
      </trkpt>
      <trkpt lat="45.84085" lon="-1.04278">
        <ele>3</ele>
        <time>2026-08-13T10:58:39.000Z</time>
      </trkpt>
      <trkpt lat="45.84108" lon="-1.04306">
        <ele>3</ele>
        <time>2026-08-13T10:58:47.000Z</time>
      </trkpt>
      <trkpt lat="45.84126" lon="-1.04343">
        <ele>2.8</ele>
        <time>2026-08-13T10:58:55.000Z</time>
      </trkpt>
      <trkpt lat="45.84132" lon="-1.04367">
        <ele>2.8</ele>
        <time>2026-08-13T10:59:00.000Z</time>
      </trkpt>
      <trkpt lat="45.84125" lon="-1.04386">
        <ele>2.9</ele>
        <time>2026-08-13T10:59:04.000Z</time>
      </trkpt>
      <trkpt lat="45.84107" lon="-1.04409">
        <ele>2.8</ele>
        <time>2026-08-13T10:59:11.000Z</time>
      </trkpt>
      <trkpt lat="45.8408" lon="-1.04433">
        <ele>2.1</ele>
        <time>2026-08-13T10:59:19.000Z</time>
      </trkpt>
      <trkpt lat="45.84046" lon="-1.04459">
        <ele>3</ele>
        <time>2026-08-13T10:59:28.000Z</time>
      </trkpt>
      <trkpt lat="45.8404" lon="-1.04467">
        <ele>3</ele>
        <time>2026-08-13T10:59:29.000Z</time>
      </trkpt>
      <trkpt lat="45.84022" lon="-1.04493">
        <ele>2.9</ele>
        <time>2026-08-13T10:59:35.000Z</time>
      </trkpt>
      <trkpt lat="45.84007" lon="-1.04526">
        <ele>3</ele>
        <time>2026-08-13T10:59:43.000Z</time>
      </trkpt>
      <trkpt lat="45.84002" lon="-1.04539">
        <ele>3</ele>
        <time>2026-08-13T10:59:48.000Z</time>
      </trkpt>
      <trkpt lat="45.83998" lon="-1.04557">
        <ele>2.9</ele>
        <time>2026-08-13T10:59:55.000Z</time>
      </trkpt>
      <trkpt lat="45.83996" lon="-1.04566">
        <ele>2.5</ele>
        <time>2026-08-13T11:00:01.000Z</time>
      </trkpt>
      <trkpt lat="45.83996" lon="-1.04566">
        <ele>2.5</ele>
        <time>2026-08-13T11:00:03.000Z</time>
      </trkpt>
      <trkpt lat="45.83995" lon="-1.04576">
        <ele>2.2</ele>
        <time>2026-08-13T11:00:20.000Z</time>
      </trkpt>
      <trkpt lat="45.83995" lon="-1.04579">
        <ele>2.1</ele>
        <time>2026-08-13T11:00:21.000Z</time>
      </trkpt>
      <trkpt lat="45.83994" lon="-1.04607">
        <ele>2.8</ele>
        <time>2026-08-13T11:00:29.000Z</time>
      </trkpt>
      <trkpt lat="45.83983" lon="-1.04643">
        <ele>3</ele>
        <time>2026-08-13T11:00:39.000Z</time>
      </trkpt>
      <trkpt lat="45.8397" lon="-1.04659">
        <ele>3</ele>
        <time>2026-08-13T11:00:45.000Z</time>
      </trkpt>
      <trkpt lat="45.83956" lon="-1.04665">
        <ele>3</ele>
        <time>2026-08-13T11:00:52.000Z</time>
      </trkpt>
      <trkpt lat="45.83956" lon="-1.04665">
        <ele>3</ele>
        <time>2026-08-13T11:00:54.000Z</time>
      </trkpt>
      <trkpt lat="45.8396" lon="-1.04664">
        <ele>3</ele>
        <time>2026-08-13T11:01:15.000Z</time>
      </trkpt>
      <trkpt lat="45.83962" lon="-1.04663">
        <ele>3</ele>
        <time>2026-08-13T11:01:16.000Z</time>
      </trkpt>
      <trkpt lat="45.83974" lon="-1.04653">
        <ele>3</ele>
        <time>2026-08-13T11:01:22.000Z</time>
      </trkpt>
      <trkpt lat="45.83983" lon="-1.0464">
        <ele>3</ele>
        <time>2026-08-13T11:01:28.000Z</time>
      </trkpt>
      <trkpt lat="45.83984" lon="-1.04639">
        <ele>3</ele>
        <time>2026-08-13T11:01:31.000Z</time>
      </trkpt>
      <trkpt lat="45.83979" lon="-1.04649">
        <ele>3</ele>
        <time>2026-08-13T11:02:07.000Z</time>
      </trkpt>
      <trkpt lat="45.83969" lon="-1.04659">
        <ele>3</ele>
        <time>2026-08-13T11:02:12.000Z</time>
      </trkpt>
      <trkpt lat="45.83953" lon="-1.04665">
        <ele>3</ele>
        <time>2026-08-13T11:02:18.000Z</time>
      </trkpt>
      <trkpt lat="45.83929" lon="-1.04671">
        <ele>3</ele>
        <time>2026-08-13T11:02:26.000Z</time>
      </trkpt>
      <trkpt lat="45.83909" lon="-1.04675">
        <ele>3</ele>
        <time>2026-08-13T11:02:33.000Z</time>
      </trkpt>
      <trkpt lat="45.83888" lon="-1.04679">
        <ele>3</ele>
        <time>2026-08-13T11:02:40.000Z</time>
      </trkpt>
      <trkpt lat="45.83864" lon="-1.04684">
        <ele>3</ele>
        <time>2026-08-13T11:02:48.000Z</time>
      </trkpt>
      <trkpt lat="45.83861" lon="-1.04684">
        <ele>3</ele>
        <time>2026-08-13T11:02:50.000Z</time>
      </trkpt>
      <trkpt lat="45.83859" lon="-1.04683">
        <ele>3</ele>
        <time>2026-08-13T11:02:52.000Z</time>
      </trkpt>
      <trkpt lat="45.83859" lon="-1.04683">
        <ele>3</ele>
        <time>2026-08-13T11:02:54.000Z</time>
      </trkpt>
      <trkpt lat="45.83859" lon="-1.04683">
        <ele>3</ele>
        <time>2026-08-13T11:02:55.000Z</time>
      </trkpt>
      <trkpt lat="45.83854" lon="-1.04684">
        <ele>3</ele>
        <time>2026-08-13T11:03:00.000Z</time>
      </trkpt>
      <trkpt lat="45.83852" lon="-1.04684">
        <ele>3</ele>
        <time>2026-08-13T11:03:01.000Z</time>
      </trkpt>
      <trkpt lat="45.83835" lon="-1.04687">
        <ele>3</ele>
        <time>2026-08-13T11:03:08.000Z</time>
      </trkpt>
      <trkpt lat="45.83816" lon="-1.04689">
        <ele>3</ele>
        <time>2026-08-13T11:03:14.000Z</time>
      </trkpt>
      <trkpt lat="45.83785" lon="-1.04691">
        <ele>3</ele>
        <time>2026-08-13T11:03:22.000Z</time>
      </trkpt>
      <trkpt lat="45.83762" lon="-1.04706">
        <ele>3</ele>
        <time>2026-08-13T11:03:29.000Z</time>
      </trkpt>
      <trkpt lat="45.83748" lon="-1.04732">
        <ele>2.9</ele>
        <time>2026-08-13T11:03:35.000Z</time>
      </trkpt>
      <trkpt lat="45.83746" lon="-1.04736">
        <ele>2.9</ele>
        <time>2026-08-13T11:03:36.000Z</time>
      </trkpt>
      <trkpt lat="45.83734" lon="-1.04774">
        <ele>2.9</ele>
        <time>2026-08-13T11:03:45.000Z</time>
      </trkpt>
      <trkpt lat="45.83716" lon="-1.04813">
        <ele>3</ele>
        <time>2026-08-13T11:03:54.000Z</time>
      </trkpt>
      <trkpt lat="45.83693" lon="-1.0484">
        <ele>3</ele>
        <time>2026-08-13T11:04:02.000Z</time>
      </trkpt>
      <trkpt lat="45.83674" lon="-1.0487">
        <ele>3</ele>
        <time>2026-08-13T11:04:09.000Z</time>
      </trkpt>
      <trkpt lat="45.83659" lon="-1.04908">
        <ele>2.9</ele>
        <time>2026-08-13T11:04:17.000Z</time>
      </trkpt>
      <trkpt lat="45.83633" lon="-1.04952">
        <ele>3</ele>
        <time>2026-08-13T11:04:27.000Z</time>
      </trkpt>
      <trkpt lat="45.83611" lon="-1.0498">
        <ele>3</ele>
        <time>2026-08-13T11:04:34.000Z</time>
      </trkpt>
      <trkpt lat="45.83586" lon="-1.05001">
        <ele>3</ele>
        <time>2026-08-13T11:04:41.000Z</time>
      </trkpt>
      <trkpt lat="45.83584" lon="-1.05004">
        <ele>3</ele>
        <time>2026-08-13T11:04:42.000Z</time>
      </trkpt>
      <trkpt lat="45.83563" lon="-1.05032">
        <ele>3</ele>
        <time>2026-08-13T11:04:50.000Z</time>
      </trkpt>
      <trkpt lat="45.83554" lon="-1.05048">
        <ele>2.9</ele>
        <time>2026-08-13T11:04:55.000Z</time>
      </trkpt>
      <trkpt lat="45.83541" lon="-1.05071">
        <ele>2.8</ele>
        <time>2026-08-13T11:05:02.000Z</time>
      </trkpt>
      <trkpt lat="45.83529" lon="-1.05098">
        <ele>3</ele>
        <time>2026-08-13T11:05:09.000Z</time>
      </trkpt>
      <trkpt lat="45.83509" lon="-1.05139">
        <ele>3</ele>
        <time>2026-08-13T11:05:18.000Z</time>
      </trkpt>
      <trkpt lat="45.83491" lon="-1.05181">
        <ele>2.5</ele>
        <time>2026-08-13T11:05:27.000Z</time>
      </trkpt>
      <trkpt lat="45.8348" lon="-1.05205">
        <ele>2.4</ele>
        <time>2026-08-13T11:05:32.000Z</time>
      </trkpt>
      <trkpt lat="45.8347" lon="-1.05231">
        <ele>2.9</ele>
        <time>2026-08-13T11:05:37.000Z</time>
      </trkpt>
      <trkpt lat="45.83446" lon="-1.05286">
        <ele>2.9</ele>
        <time>2026-08-13T11:05:48.000Z</time>
      </trkpt>
      <trkpt lat="45.83414" lon="-1.05343">
        <ele>2.9</ele>
        <time>2026-08-13T11:06:00.000Z</time>
      </trkpt>
      <trkpt lat="45.83398" lon="-1.05362">
        <ele>3</ele>
        <time>2026-08-13T11:06:05.000Z</time>
      </trkpt>
      <trkpt lat="45.83391" lon="-1.05368">
        <ele>3</ele>
        <time>2026-08-13T11:06:07.000Z</time>
      </trkpt>
      <trkpt lat="45.83377" lon="-1.05378">
        <ele>3</ele>
        <time>2026-08-13T11:06:11.000Z</time>
      </trkpt>
      <trkpt lat="45.83371" lon="-1.05386">
        <ele>3</ele>
        <time>2026-08-13T11:06:13.000Z</time>
      </trkpt>
      <trkpt lat="45.8337" lon="-1.05391">
        <ele>2.9</ele>
        <time>2026-08-13T11:06:14.000Z</time>
      </trkpt>
      <trkpt lat="45.8337" lon="-1.05397">
        <ele>2.8</ele>
        <time>2026-08-13T11:06:15.000Z</time>
      </trkpt>
      <trkpt lat="45.83374" lon="-1.05407">
        <ele>2.7</ele>
        <time>2026-08-13T11:06:17.000Z</time>
      </trkpt>
      <trkpt lat="45.83386" lon="-1.05428">
        <ele>2.9</ele>
        <time>2026-08-13T11:06:22.000Z</time>
      </trkpt>
      <trkpt lat="45.83389" lon="-1.05432">
        <ele>3</ele>
        <time>2026-08-13T11:06:23.000Z</time>
      </trkpt>
      <trkpt lat="45.83413" lon="-1.05474">
        <ele>2.9</ele>
        <time>2026-08-13T11:06:32.000Z</time>
      </trkpt>
      <trkpt lat="45.83423" lon="-1.05492">
        <ele>3</ele>
        <time>2026-08-13T11:06:36.000Z</time>
      </trkpt>
      <trkpt lat="45.83432" lon="-1.0551">
        <ele>2.8</ele>
        <time>2026-08-13T11:06:40.000Z</time>
      </trkpt>
      <trkpt lat="45.83449" lon="-1.05547">
        <ele>3</ele>
        <time>2026-08-13T11:06:48.000Z</time>
      </trkpt>
      <trkpt lat="45.83458" lon="-1.05576">
        <ele>2.6</ele>
        <time>2026-08-13T11:06:54.000Z</time>
      </trkpt>
      <trkpt lat="45.83469" lon="-1.05614">
        <ele>2.9</ele>
        <time>2026-08-13T11:07:02.000Z</time>
      </trkpt>
      <trkpt lat="45.83482" lon="-1.05653">
        <ele>2.5</ele>
        <time>2026-08-13T11:07:11.000Z</time>
      </trkpt>
      <trkpt lat="45.83496" lon="-1.05688">
        <ele>2.8</ele>
        <time>2026-08-13T11:07:19.000Z</time>
      </trkpt>
      <trkpt lat="45.83498" lon="-1.05702">
        <ele>2.9</ele>
        <time>2026-08-13T11:07:22.000Z</time>
      </trkpt>
      <trkpt lat="45.83499" lon="-1.05723">
        <ele>3</ele>
        <time>2026-08-13T11:07:26.000Z</time>
      </trkpt>
      <trkpt lat="45.83492" lon="-1.05759">
        <ele>2.8</ele>
        <time>2026-08-13T11:07:33.000Z</time>
      </trkpt>
      <trkpt lat="45.83476" lon="-1.05797">
        <ele>3</ele>
        <time>2026-08-13T11:07:41.000Z</time>
      </trkpt>
      <trkpt lat="45.8347" lon="-1.05805">
        <ele>2.9</ele>
        <time>2026-08-13T11:07:43.000Z</time>
      </trkpt>
      <trkpt lat="45.83467" lon="-1.05808">
        <ele>2.8</ele>
        <time>2026-08-13T11:07:44.000Z</time>
      </trkpt>
      <trkpt lat="45.8346" lon="-1.05813">
        <ele>2.7</ele>
        <time>2026-08-13T11:07:46.000Z</time>
      </trkpt>
      <trkpt lat="45.83426" lon="-1.05828">
        <ele>3.6</ele>
        <time>2026-08-13T11:07:55.000Z</time>
      </trkpt>
      <trkpt lat="45.83408" lon="-1.05826">
        <ele>4.8</ele>
        <time>2026-08-13T11:08:00.000Z</time>
      </trkpt>
      <trkpt lat="45.83394" lon="-1.05814">
        <ele>5.3</ele>
        <time>2026-08-13T11:08:06.000Z</time>
      </trkpt>
      <trkpt lat="45.83383" lon="-1.05804">
        <ele>5.6</ele>
        <time>2026-08-13T11:08:11.000Z</time>
      </trkpt>
      <trkpt lat="45.83372" lon="-1.05795">
        <ele>6.6</ele>
        <time>2026-08-13T11:08:16.000Z</time>
      </trkpt>
      <trkpt lat="45.83358" lon="-1.05787">
        <ele>7.4</ele>
        <time>2026-08-13T11:08:22.000Z</time>
      </trkpt>
      <trkpt lat="45.83353" lon="-1.05785">
        <ele>7.4</ele>
        <time>2026-08-13T11:08:24.000Z</time>
      </trkpt>
      <trkpt lat="45.83342" lon="-1.05782">
        <ele>7.6</ele>
        <time>2026-08-13T11:08:28.000Z</time>
      </trkpt>
      <trkpt lat="45.83337" lon="-1.05781">
        <ele>7.8</ele>
        <time>2026-08-13T11:08:30.000Z</time>
      </trkpt>
      <trkpt lat="45.83325" lon="-1.05777">
        <ele>8.6</ele>
        <time>2026-08-13T11:08:35.000Z</time>
      </trkpt>
      <trkpt lat="45.83317" lon="-1.05775">
        <ele>8.9</ele>
        <time>2026-08-13T11:08:38.000Z</time>
      </trkpt>
      <trkpt lat="45.83304" lon="-1.05772">
        <ele>9.3</ele>
        <time>2026-08-13T11:08:43.000Z</time>
      </trkpt>
      <trkpt lat="45.83286" lon="-1.0577">
        <ele>8.5</ele>
        <time>2026-08-13T11:08:48.000Z</time>
      </trkpt>
      <trkpt lat="45.83269" lon="-1.05779">
        <ele>7.8</ele>
        <time>2026-08-13T11:08:53.000Z</time>
      </trkpt>
      <trkpt lat="45.83266" lon="-1.05783">
        <ele>7.3</ele>
        <time>2026-08-13T11:08:54.000Z</time>
      </trkpt>
      <trkpt lat="45.83251" lon="-1.058">
        <ele>5.9</ele>
        <time>2026-08-13T11:08:58.000Z</time>
      </trkpt>
      <trkpt lat="45.83238" lon="-1.05815">
        <ele>4.5</ele>
        <time>2026-08-13T11:09:01.000Z</time>
      </trkpt>
      <trkpt lat="45.83224" lon="-1.05834">
        <ele>3.9</ele>
        <time>2026-08-13T11:09:04.000Z</time>
      </trkpt>
      <trkpt lat="45.83198" lon="-1.05868">
        <ele>2.8</ele>
        <time>2026-08-13T11:09:09.000Z</time>
      </trkpt>
      <trkpt lat="45.83193" lon="-1.05874">
        <ele>2.5</ele>
        <time>2026-08-13T11:09:10.000Z</time>
      </trkpt>
      <trkpt lat="45.83188" lon="-1.05879">
        <ele>2.4</ele>
        <time>2026-08-13T11:09:11.000Z</time>
      </trkpt>
      <trkpt lat="45.83163" lon="-1.05901">
        <ele>2.6</ele>
        <time>2026-08-13T11:09:16.000Z</time>
      </trkpt>
      <trkpt lat="45.8313" lon="-1.05926">
        <ele>2.6</ele>
        <time>2026-08-13T11:09:23.000Z</time>
      </trkpt>
      <trkpt lat="45.83097" lon="-1.05946">
        <ele>2.5</ele>
        <time>2026-08-13T11:09:31.000Z</time>
      </trkpt>
      <trkpt lat="45.83068" lon="-1.05957">
        <ele>2</ele>
        <time>2026-08-13T11:09:38.000Z</time>
      </trkpt>
      <trkpt lat="45.83065" lon="-1.05957">
        <ele>2</ele>
        <time>2026-08-13T11:09:39.000Z</time>
      </trkpt>
      <trkpt lat="45.83064" lon="-1.05955">
        <ele>2</ele>
        <time>2026-08-13T11:09:41.000Z</time>
      </trkpt>
      <trkpt lat="45.83064" lon="-1.05954">
        <ele>2</ele>
        <time>2026-08-13T11:09:42.000Z</time>
      </trkpt>
      <trkpt lat="45.83065" lon="-1.0595">
        <ele>2</ele>
        <time>2026-08-13T11:09:47.000Z</time>
      </trkpt>
      <trkpt lat="45.83052" lon="-1.05957">
        <ele>2.1</ele>
        <time>2026-08-13T11:15:08.000Z</time>
      </trkpt>
      <trkpt lat="45.83033" lon="-1.05966">
        <ele>2.6</ele>
        <time>2026-08-13T11:15:19.000Z</time>
      </trkpt>
      <trkpt lat="45.83021" lon="-1.05975">
        <ele>2.7</ele>
        <time>2026-08-13T11:15:25.000Z</time>
      </trkpt>
      <trkpt lat="45.83006" lon="-1.05986">
        <ele>2.1</ele>
        <time>2026-08-13T11:15:31.000Z</time>
      </trkpt>
      <trkpt lat="45.82984" lon="-1.06009">
        <ele>2</ele>
        <time>2026-08-13T11:15:39.000Z</time>
      </trkpt>
      <trkpt lat="45.82971" lon="-1.06032">
        <ele>2</ele>
        <time>2026-08-13T11:15:45.000Z</time>
      </trkpt>
      <trkpt lat="45.8297" lon="-1.06037">
        <ele>2</ele>
        <time>2026-08-13T11:15:46.000Z</time>
      </trkpt>
      <trkpt lat="45.82957" lon="-1.06061">
        <ele>2.1</ele>
        <time>2026-08-13T11:15:52.000Z</time>
      </trkpt>
      <trkpt lat="45.82936" lon="-1.06072">
        <ele>2.4</ele>
        <time>2026-08-13T11:15:58.000Z</time>
      </trkpt>
      <trkpt lat="45.829" lon="-1.06075">
        <ele>2</ele>
        <time>2026-08-13T11:16:07.000Z</time>
      </trkpt>
      <trkpt lat="45.82863" lon="-1.06069">
        <ele>2</ele>
        <time>2026-08-13T11:16:16.000Z</time>
      </trkpt>
      <trkpt lat="45.82858" lon="-1.06069">
        <ele>2.1</ele>
        <time>2026-08-13T11:16:17.000Z</time>
      </trkpt>
      <trkpt lat="45.82846" lon="-1.06071">
        <ele>2.3</ele>
        <time>2026-08-13T11:16:20.000Z</time>
      </trkpt>
      <trkpt lat="45.82842" lon="-1.06073">
        <ele>2.4</ele>
        <time>2026-08-13T11:16:21.000Z</time>
      </trkpt>
      <trkpt lat="45.82831" lon="-1.06082">
        <ele>2.9</ele>
        <time>2026-08-13T11:16:24.000Z</time>
      </trkpt>
      <trkpt lat="45.82825" lon="-1.0609">
        <ele>2.6</ele>
        <time>2026-08-13T11:16:26.000Z</time>
      </trkpt>
      <trkpt lat="45.82822" lon="-1.06095">
        <ele>2.5</ele>
        <time>2026-08-13T11:16:27.000Z</time>
      </trkpt>
      <trkpt lat="45.82802" lon="-1.06136">
        <ele>3</ele>
        <time>2026-08-13T11:16:36.000Z</time>
      </trkpt>
      <trkpt lat="45.82788" lon="-1.06163">
        <ele>3</ele>
        <time>2026-08-13T11:16:43.000Z</time>
      </trkpt>
      <trkpt lat="45.82787" lon="-1.06178">
        <ele>2.7</ele>
        <time>2026-08-13T11:16:46.000Z</time>
      </trkpt>
      <trkpt lat="45.82789" lon="-1.06182">
        <ele>2.7</ele>
        <time>2026-08-13T11:16:47.000Z</time>
      </trkpt>
      <trkpt lat="45.82806" lon="-1.06208">
        <ele>2.5</ele>
        <time>2026-08-13T11:16:54.000Z</time>
      </trkpt>
      <trkpt lat="45.82813" lon="-1.06219">
        <ele>2.4</ele>
        <time>2026-08-13T11:16:57.000Z</time>
      </trkpt>
      <trkpt lat="45.82824" lon="-1.06235">
        <ele>2.7</ele>
        <time>2026-08-13T11:17:01.000Z</time>
      </trkpt>
      <trkpt lat="45.82846" lon="-1.06267">
        <ele>2.7</ele>
        <time>2026-08-13T11:17:09.000Z</time>
      </trkpt>
      <trkpt lat="45.82863" lon="-1.06294">
        <ele>2.5</ele>
        <time>2026-08-13T11:17:16.000Z</time>
      </trkpt>
      <trkpt lat="45.8288" lon="-1.0632">
        <ele>2.7</ele>
        <time>2026-08-13T11:17:23.000Z</time>
      </trkpt>
      <trkpt lat="45.82893" lon="-1.0634">
        <ele>2.8</ele>
        <time>2026-08-13T11:17:28.000Z</time>
      </trkpt>
      <trkpt lat="45.82904" lon="-1.06357">
        <ele>2.6</ele>
        <time>2026-08-13T11:17:32.000Z</time>
      </trkpt>
      <trkpt lat="45.8293" lon="-1.06399">
        <ele>2.8</ele>
        <time>2026-08-13T11:17:42.000Z</time>
      </trkpt>
      <trkpt lat="45.82955" lon="-1.06436">
        <ele>2.5</ele>
        <time>2026-08-13T11:17:51.000Z</time>
      </trkpt>
      <trkpt lat="45.82963" lon="-1.06449">
        <ele>2.7</ele>
        <time>2026-08-13T11:17:54.000Z</time>
      </trkpt>
      <trkpt lat="45.82985" lon="-1.06482">
        <ele>2.8</ele>
        <time>2026-08-13T11:18:02.000Z</time>
      </trkpt>
      <trkpt lat="45.83002" lon="-1.06508">
        <ele>2.7</ele>
        <time>2026-08-13T11:18:08.000Z</time>
      </trkpt>
      <trkpt lat="45.83012" lon="-1.06525">
        <ele>2.5</ele>
        <time>2026-08-13T11:18:12.000Z</time>
      </trkpt>
      <trkpt lat="45.83034" lon="-1.06559">
        <ele>2.9</ele>
        <time>2026-08-13T11:18:20.000Z</time>
      </trkpt>
      <trkpt lat="45.83051" lon="-1.06585">
        <ele>2.8</ele>
        <time>2026-08-13T11:18:26.000Z</time>
      </trkpt>
      <trkpt lat="45.83059" lon="-1.06598">
        <ele>2.5</ele>
        <time>2026-08-13T11:18:29.000Z</time>
      </trkpt>
      <trkpt lat="45.83085" lon="-1.06637">
        <ele>3</ele>
        <time>2026-08-13T11:18:38.000Z</time>
      </trkpt>
      <trkpt lat="45.83095" lon="-1.06653">
        <ele>2.5</ele>
        <time>2026-08-13T11:18:42.000Z</time>
      </trkpt>
      <trkpt lat="45.83111" lon="-1.06678">
        <ele>2.6</ele>
        <time>2026-08-13T11:18:48.000Z</time>
      </trkpt>
      <trkpt lat="45.83136" lon="-1.06718">
        <ele>2.9</ele>
        <time>2026-08-13T11:18:57.000Z</time>
      </trkpt>
      <trkpt lat="45.83139" lon="-1.06722">
        <ele>3</ele>
        <time>2026-08-13T11:18:58.000Z</time>
      </trkpt>
      <trkpt lat="45.83161" lon="-1.06759">
        <ele>2.6</ele>
        <time>2026-08-13T11:19:07.000Z</time>
      </trkpt>
      <trkpt lat="45.83182" lon="-1.0679">
        <ele>2.5</ele>
        <time>2026-08-13T11:19:15.000Z</time>
      </trkpt>
      <trkpt lat="45.83186" lon="-1.06796">
        <ele>2.7</ele>
        <time>2026-08-13T11:19:17.000Z</time>
      </trkpt>
      <trkpt lat="45.83192" lon="-1.06805">
        <ele>2.9</ele>
        <time>2026-08-13T11:19:20.000Z</time>
      </trkpt>
      <trkpt lat="45.83202" lon="-1.06821">
        <ele>2.6</ele>
        <time>2026-08-13T11:19:25.000Z</time>
      </trkpt>
      <trkpt lat="45.83225" lon="-1.06857">
        <ele>3</ele>
        <time>2026-08-13T11:19:35.000Z</time>
      </trkpt>
      <trkpt lat="45.83227" lon="-1.0686">
        <ele>3</ele>
        <time>2026-08-13T11:19:36.000Z</time>
      </trkpt>
      <trkpt lat="45.83245" lon="-1.06887">
        <ele>2.8</ele>
        <time>2026-08-13T11:19:43.000Z</time>
      </trkpt>
      <trkpt lat="45.83278" lon="-1.06935">
        <ele>3</ele>
        <time>2026-08-13T11:19:55.000Z</time>
      </trkpt>
      <trkpt lat="45.83283" lon="-1.06944">
        <ele>2.8</ele>
        <time>2026-08-13T11:19:57.000Z</time>
      </trkpt>
      <trkpt lat="45.83305" lon="-1.06978">
        <ele>2.8</ele>
        <time>2026-08-13T11:20:05.000Z</time>
      </trkpt>
      <trkpt lat="45.83334" lon="-1.07024">
        <ele>3</ele>
        <time>2026-08-13T11:20:16.000Z</time>
      </trkpt>
      <trkpt lat="45.83347" lon="-1.07044">
        <ele>2.7</ele>
        <time>2026-08-13T11:20:21.000Z</time>
      </trkpt>
      <trkpt lat="45.83353" lon="-1.07051">
        <ele>2.7</ele>
        <time>2026-08-13T11:20:23.000Z</time>
      </trkpt>
      <trkpt lat="45.83358" lon="-1.07059">
        <ele>2.8</ele>
        <time>2026-08-13T11:20:25.000Z</time>
      </trkpt>
      <trkpt lat="45.83396" lon="-1.07118">
        <ele>2.8</ele>
        <time>2026-08-13T11:20:40.000Z</time>
      </trkpt>
      <trkpt lat="45.83399" lon="-1.07122">
        <ele>2.7</ele>
        <time>2026-08-13T11:20:41.000Z</time>
      </trkpt>
      <trkpt lat="45.83414" lon="-1.07147">
        <ele>2.9</ele>
        <time>2026-08-13T11:20:47.000Z</time>
      </trkpt>
      <trkpt lat="45.8342" lon="-1.07155">
        <ele>3</ele>
        <time>2026-08-13T11:20:49.000Z</time>
      </trkpt>
      <trkpt lat="45.83446" lon="-1.07196">
        <ele>2.9</ele>
        <time>2026-08-13T11:20:59.000Z</time>
      </trkpt>
      <trkpt lat="45.83448" lon="-1.07215">
        <ele>2.2</ele>
        <time>2026-08-13T11:21:03.000Z</time>
      </trkpt>
      <trkpt lat="45.83435" lon="-1.07237">
        <ele>2.5</ele>
        <time>2026-08-13T11:21:08.000Z</time>
      </trkpt>
      <trkpt lat="45.8343" lon="-1.07247">
        <ele>2.5</ele>
        <time>2026-08-13T11:21:10.000Z</time>
      </trkpt>
      <trkpt lat="45.83424" lon="-1.07258">
        <ele>2.5</ele>
        <time>2026-08-13T11:21:12.000Z</time>
      </trkpt>
      <trkpt lat="45.83418" lon="-1.07274">
        <ele>2.9</ele>
        <time>2026-08-13T11:21:15.000Z</time>
      </trkpt>
      <trkpt lat="45.83416" lon="-1.07279">
        <ele>3</ele>
        <time>2026-08-13T11:21:16.000Z</time>
      </trkpt>
      <trkpt lat="45.83414" lon="-1.07284">
        <ele>2.9</ele>
        <time>2026-08-13T11:21:17.000Z</time>
      </trkpt>
      <trkpt lat="45.83401" lon="-1.07316">
        <ele>2.8</ele>
        <time>2026-08-13T11:21:23.000Z</time>
      </trkpt>
      <trkpt lat="45.83389" lon="-1.07348">
        <ele>3</ele>
        <time>2026-08-13T11:21:30.000Z</time>
      </trkpt>
      <trkpt lat="45.83389" lon="-1.07349">
        <ele>3</ele>
        <time>2026-08-13T11:21:31.000Z</time>
      </trkpt>
      <trkpt lat="45.83388" lon="-1.07347">
        <ele>3</ele>
        <time>2026-08-13T11:21:33.000Z</time>
      </trkpt>
      <trkpt lat="45.83387" lon="-1.07346">
        <ele>2.9</ele>
        <time>2026-08-13T11:21:37.000Z</time>
      </trkpt>
      <trkpt lat="45.83386" lon="-1.07353">
        <ele>2.9</ele>
        <time>2026-08-13T11:22:32.000Z</time>
      </trkpt>
      <trkpt lat="45.83385" lon="-1.07356">
        <ele>2.9</ele>
        <time>2026-08-13T11:22:33.000Z</time>
      </trkpt>
      <trkpt lat="45.83379" lon="-1.07374">
        <ele>2.3</ele>
        <time>2026-08-13T11:22:40.000Z</time>
      </trkpt>
      <trkpt lat="45.83372" lon="-1.07394">
        <ele>2.1</ele>
        <time>2026-08-13T11:22:47.000Z</time>
      </trkpt>
      <trkpt lat="45.83362" lon="-1.07421">
        <ele>2.8</ele>
        <time>2026-08-13T11:22:54.000Z</time>
      </trkpt>
      <trkpt lat="45.83348" lon="-1.07459">
        <ele>2.8</ele>
        <time>2026-08-13T11:23:02.000Z</time>
      </trkpt>
      <trkpt lat="45.83336" lon="-1.07487">
        <ele>3</ele>
        <time>2026-08-13T11:23:08.000Z</time>
      </trkpt>
      <trkpt lat="45.83331" lon="-1.07504">
        <ele>3</ele>
        <time>2026-08-13T11:23:11.000Z</time>
      </trkpt>
      <trkpt lat="45.83313" lon="-1.07551">
        <ele>3</ele>
        <time>2026-08-13T11:23:20.000Z</time>
      </trkpt>
      <trkpt lat="45.83292" lon="-1.07606">
        <ele>2.5</ele>
        <time>2026-08-13T11:23:30.000Z</time>
      </trkpt>
      <trkpt lat="45.83266" lon="-1.07674">
        <ele>2.6</ele>
        <time>2026-08-13T11:23:42.000Z</time>
      </trkpt>
      <trkpt lat="45.83245" lon="-1.07729">
        <ele>2.6</ele>
        <time>2026-08-13T11:23:52.000Z</time>
      </trkpt>
      <trkpt lat="45.83239" lon="-1.07746">
        <ele>2.1</ele>
        <time>2026-08-13T11:23:55.000Z</time>
      </trkpt>
      <trkpt lat="45.83226" lon="-1.07778">
        <ele>2.9</ele>
        <time>2026-08-13T11:24:01.000Z</time>
      </trkpt>
      <trkpt lat="45.83222" lon="-1.07789">
        <ele>3</ele>
        <time>2026-08-13T11:24:03.000Z</time>
      </trkpt>
      <trkpt lat="45.83212" lon="-1.07815">
        <ele>2.6</ele>
        <time>2026-08-13T11:24:08.000Z</time>
      </trkpt>
      <trkpt lat="45.83188" lon="-1.0788">
        <ele>2.2</ele>
        <time>2026-08-13T11:24:20.000Z</time>
      </trkpt>
      <trkpt lat="45.83166" lon="-1.07938">
        <ele>3</ele>
        <time>2026-08-13T11:24:31.000Z</time>
      </trkpt>
      <trkpt lat="45.83155" lon="-1.07965">
        <ele>3.7</ele>
        <time>2026-08-13T11:24:37.000Z</time>
      </trkpt>
      <trkpt lat="45.83154" lon="-1.07969">
        <ele>3.9</ele>
        <time>2026-08-13T11:24:38.000Z</time>
      </trkpt>
      <trkpt lat="45.83142" lon="-1.07994">
        <ele>4.8</ele>
        <time>2026-08-13T11:24:45.000Z</time>
      </trkpt>
      <trkpt lat="45.83138" lon="-1.08009">
        <ele>5</ele>
        <time>2026-08-13T11:24:48.000Z</time>
      </trkpt>
      <trkpt lat="45.83128" lon="-1.08037">
        <ele>5.6</ele>
        <time>2026-08-13T11:24:54.000Z</time>
      </trkpt>
      <trkpt lat="45.83116" lon="-1.0807">
        <ele>6</ele>
        <time>2026-08-13T11:25:02.000Z</time>
      </trkpt>
      <trkpt lat="45.83114" lon="-1.08074">
        <ele>6</ele>
        <time>2026-08-13T11:25:03.000Z</time>
      </trkpt>
      <trkpt lat="45.83104" lon="-1.08102">
        <ele>6</ele>
        <time>2026-08-13T11:25:10.000Z</time>
      </trkpt>
      <trkpt lat="45.83091" lon="-1.08132">
        <ele>6</ele>
        <time>2026-08-13T11:25:17.000Z</time>
      </trkpt>
      <trkpt lat="45.8308" lon="-1.08159">
        <ele>6</ele>
        <time>2026-08-13T11:25:23.000Z</time>
      </trkpt>
      <trkpt lat="45.83068" lon="-1.08191">
        <ele>6.4</ele>
        <time>2026-08-13T11:25:29.000Z</time>
      </trkpt>
      <trkpt lat="45.83062" lon="-1.08208">
        <ele>6.3</ele>
        <time>2026-08-13T11:25:33.000Z</time>
      </trkpt>
      <trkpt lat="45.83059" lon="-1.08217">
        <ele>6.2</ele>
        <time>2026-08-13T11:25:35.000Z</time>
      </trkpt>
      <trkpt lat="45.83049" lon="-1.08244">
        <ele>6.8</ele>
        <time>2026-08-13T11:25:41.000Z</time>
      </trkpt>
      <trkpt lat="45.83036" lon="-1.08275">
        <ele>6.4</ele>
        <time>2026-08-13T11:25:48.000Z</time>
      </trkpt>
      <trkpt lat="45.83027" lon="-1.08299">
        <ele>6</ele>
        <time>2026-08-13T11:25:53.000Z</time>
      </trkpt>
      <trkpt lat="45.83014" lon="-1.08336">
        <ele>6</ele>
        <time>2026-08-13T11:26:00.000Z</time>
      </trkpt>
      <trkpt lat="45.82997" lon="-1.08381">
        <ele>6</ele>
        <time>2026-08-13T11:26:08.000Z</time>
      </trkpt>
      <trkpt lat="45.82984" lon="-1.08415">
        <ele>6</ele>
        <time>2026-08-13T11:26:14.000Z</time>
      </trkpt>
      <trkpt lat="45.8298" lon="-1.08424">
        <ele>6</ele>
        <time>2026-08-13T11:26:16.000Z</time>
      </trkpt>
      <trkpt lat="45.82966" lon="-1.08471">
        <ele>6</ele>
        <time>2026-08-13T11:26:25.000Z</time>
      </trkpt>
      <trkpt lat="45.82959" lon="-1.08492">
        <ele>6</ele>
        <time>2026-08-13T11:26:30.000Z</time>
      </trkpt>
      <trkpt lat="45.82953" lon="-1.08491">
        <ele>6</ele>
        <time>2026-08-13T11:26:32.000Z</time>
      </trkpt>
      <trkpt lat="45.82951" lon="-1.08488">
        <ele>6</ele>
        <time>2026-08-13T11:26:33.000Z</time>
      </trkpt>
      <trkpt lat="45.82949" lon="-1.08479">
        <ele>6</ele>
        <time>2026-08-13T11:26:36.000Z</time>
      </trkpt>
      <trkpt lat="45.82949" lon="-1.08478">
        <ele>6</ele>
        <time>2026-08-13T11:26:37.000Z</time>
      </trkpt>
      <trkpt lat="45.82949" lon="-1.08478">
        <ele>6</ele>
        <time>2026-08-13T11:26:38.000Z</time>
      </trkpt>
      <trkpt lat="45.8295" lon="-1.08481">
        <ele>6</ele>
        <time>2026-08-13T11:26:40.000Z</time>
      </trkpt>
      <trkpt lat="45.82951" lon="-1.08486">
        <ele>6</ele>
        <time>2026-08-13T11:26:47.000Z</time>
      </trkpt>
      <trkpt lat="45.8295" lon="-1.08481">
        <ele>6</ele>
        <time>2026-08-13T11:30:18.000Z</time>
      </trkpt>
      <trkpt lat="45.82948" lon="-1.08473">
        <ele>6</ele>
        <time>2026-08-13T11:30:21.000Z</time>
      </trkpt>
      <trkpt lat="45.8294" lon="-1.08452">
        <ele>6</ele>
        <time>2026-08-13T11:30:27.000Z</time>
      </trkpt>
      <trkpt lat="45.82922" lon="-1.08426">
        <ele>5.5</ele>
        <time>2026-08-13T11:30:34.000Z</time>
      </trkpt>
      <trkpt lat="45.82914" lon="-1.08414">
        <ele>5</ele>
        <time>2026-08-13T11:30:36.000Z</time>
      </trkpt>
      <trkpt lat="45.82907" lon="-1.08406">
        <ele>5</ele>
        <time>2026-08-13T11:30:38.000Z</time>
      </trkpt>
      <trkpt lat="45.82898" lon="-1.08403">
        <ele>5</ele>
        <time>2026-08-13T11:30:40.000Z</time>
      </trkpt>
      <trkpt lat="45.82894" lon="-1.08405">
        <ele>5</ele>
        <time>2026-08-13T11:30:41.000Z</time>
      </trkpt>
      <trkpt lat="45.82872" lon="-1.08429">
        <ele>5.2</ele>
        <time>2026-08-13T11:30:48.000Z</time>
      </trkpt>
      <trkpt lat="45.82854" lon="-1.08454">
        <ele>5</ele>
        <time>2026-08-13T11:30:54.000Z</time>
      </trkpt>
      <trkpt lat="45.82851" lon="-1.08458">
        <ele>5</ele>
        <time>2026-08-13T11:30:55.000Z</time>
      </trkpt>
      <trkpt lat="45.82836" lon="-1.08478">
        <ele>5</ele>
        <time>2026-08-13T11:31:00.000Z</time>
      </trkpt>
      <trkpt lat="45.82826" lon="-1.0849">
        <ele>4.9</ele>
        <time>2026-08-13T11:31:03.000Z</time>
      </trkpt>
      <trkpt lat="45.82795" lon="-1.08529">
        <ele>5</ele>
        <time>2026-08-13T11:31:13.000Z</time>
      </trkpt>
      <trkpt lat="45.82775" lon="-1.08547">
        <ele>5.6</ele>
        <time>2026-08-13T11:31:19.000Z</time>
      </trkpt>
      <trkpt lat="45.82753" lon="-1.0856">
        <ele>5.3</ele>
        <time>2026-08-13T11:31:25.000Z</time>
      </trkpt>
      <trkpt lat="45.82724" lon="-1.08573">
        <ele>5</ele>
        <time>2026-08-13T11:31:32.000Z</time>
      </trkpt>
      <trkpt lat="45.82685" lon="-1.08586">
        <ele>4.7</ele>
        <time>2026-08-13T11:31:41.000Z</time>
      </trkpt>
      <trkpt lat="45.82681" lon="-1.08588">
        <ele>4.7</ele>
        <time>2026-08-13T11:31:42.000Z</time>
      </trkpt>
      <trkpt lat="45.82663" lon="-1.08595">
        <ele>4.4</ele>
        <time>2026-08-13T11:31:46.000Z</time>
      </trkpt>
      <trkpt lat="45.8263" lon="-1.08615">
        <ele>4.7</ele>
        <time>2026-08-13T11:31:54.000Z</time>
      </trkpt>
      <trkpt lat="45.82606" lon="-1.08634">
        <ele>4.8</ele>
        <time>2026-08-13T11:32:00.000Z</time>
      </trkpt>
      <trkpt lat="45.82584" lon="-1.0865">
        <ele>5</ele>
        <time>2026-08-13T11:32:06.000Z</time>
      </trkpt>
      <trkpt lat="45.82579" lon="-1.08659">
        <ele>5</ele>
        <time>2026-08-13T11:32:08.000Z</time>
      </trkpt>
      <trkpt lat="45.82579" lon="-1.08664">
        <ele>5</ele>
        <time>2026-08-13T11:32:09.000Z</time>
      </trkpt>
      <trkpt lat="45.8258" lon="-1.08669">
        <ele>5.1</ele>
        <time>2026-08-13T11:32:10.000Z</time>
      </trkpt>
      <trkpt lat="45.82586" lon="-1.08678">
        <ele>5.4</ele>
        <time>2026-08-13T11:32:12.000Z</time>
      </trkpt>
      <trkpt lat="45.82602" lon="-1.08712">
        <ele>5.8</ele>
        <time>2026-08-13T11:32:20.000Z</time>
      </trkpt>
      <trkpt lat="45.82614" lon="-1.08736">
        <ele>6</ele>
        <time>2026-08-13T11:32:26.000Z</time>
      </trkpt>
      <trkpt lat="45.82619" lon="-1.08748">
        <ele>6</ele>
        <time>2026-08-13T11:32:29.000Z</time>
      </trkpt>
      <trkpt lat="45.82628" lon="-1.0877">
        <ele>6.7</ele>
        <time>2026-08-13T11:32:35.000Z</time>
      </trkpt>
      <trkpt lat="45.82635" lon="-1.08786">
        <ele>7</ele>
        <time>2026-08-13T11:32:40.000Z</time>
      </trkpt>
      <trkpt lat="45.82641" lon="-1.08798">
        <ele>7</ele>
        <time>2026-08-13T11:32:44.000Z</time>
      </trkpt>
      <trkpt lat="45.82647" lon="-1.08817">
        <ele>7.4</ele>
        <time>2026-08-13T11:32:50.000Z</time>
      </trkpt>
      <trkpt lat="45.82652" lon="-1.08839">
        <ele>8</ele>
        <time>2026-08-13T11:32:55.000Z</time>
      </trkpt>
      <trkpt lat="45.82656" lon="-1.08874">
        <ele>8.2</ele>
        <time>2026-08-13T11:33:02.000Z</time>
      </trkpt>
      <trkpt lat="45.82658" lon="-1.08902">
        <ele>8.8</ele>
        <time>2026-08-13T11:33:08.000Z</time>
      </trkpt>
      <trkpt lat="45.8266" lon="-1.08921">
        <ele>9.2</ele>
        <time>2026-08-13T11:33:12.000Z</time>
      </trkpt>
      <trkpt lat="45.82664" lon="-1.08947">
        <ele>9.2</ele>
        <time>2026-08-13T11:33:18.000Z</time>
      </trkpt>
      <trkpt lat="45.82671" lon="-1.08964">
        <ele>9.7</ele>
        <time>2026-08-13T11:33:22.000Z</time>
      </trkpt>
      <trkpt lat="45.82673" lon="-1.08967">
        <ele>9.8</ele>
        <time>2026-08-13T11:33:23.000Z</time>
      </trkpt>
      <trkpt lat="45.82676" lon="-1.0897">
        <ele>9.9</ele>
        <time>2026-08-13T11:33:24.000Z</time>
      </trkpt>
      <trkpt lat="45.82693" lon="-1.08998">
        <ele>10</ele>
        <time>2026-08-13T11:33:32.000Z</time>
      </trkpt>
      <trkpt lat="45.82703" lon="-1.09016">
        <ele>10.3</ele>
        <time>2026-08-13T11:33:37.000Z</time>
      </trkpt>
      <trkpt lat="45.82709" lon="-1.09029">
        <ele>10.6</ele>
        <time>2026-08-13T11:33:41.000Z</time>
      </trkpt>
      <trkpt lat="45.82727" lon="-1.09063">
        <ele>11.4</ele>
        <time>2026-08-13T11:33:51.000Z</time>
      </trkpt>
      <trkpt lat="45.82735" lon="-1.09076">
        <ele>11.9</ele>
        <time>2026-08-13T11:33:55.000Z</time>
      </trkpt>
      <trkpt lat="45.82744" lon="-1.09092">
        <ele>12</ele>
        <time>2026-08-13T11:34:00.000Z</time>
      </trkpt>
      <trkpt lat="45.82753" lon="-1.09102">
        <ele>12.2</ele>
        <time>2026-08-13T11:34:05.000Z</time>
      </trkpt>
      <trkpt lat="45.82764" lon="-1.09111">
        <ele>13</ele>
        <time>2026-08-13T11:34:11.000Z</time>
      </trkpt>
      <trkpt lat="45.82776" lon="-1.09118">
        <ele>13.9</ele>
        <time>2026-08-13T11:34:17.000Z</time>
      </trkpt>
      <trkpt lat="45.82778" lon="-1.09119">
        <ele>14</ele>
        <time>2026-08-13T11:34:18.000Z</time>
      </trkpt>
      <trkpt lat="45.82787" lon="-1.09129">
        <ele>14.3</ele>
        <time>2026-08-13T11:34:24.000Z</time>
      </trkpt>
      <trkpt lat="45.82792" lon="-1.09134">
        <ele>14.5</ele>
        <time>2026-08-13T11:34:27.000Z</time>
      </trkpt>
      <trkpt lat="45.82805" lon="-1.09144">
        <ele>14.8</ele>
        <time>2026-08-13T11:34:33.000Z</time>
      </trkpt>
      <trkpt lat="45.8281" lon="-1.09148">
        <ele>14.6</ele>
        <time>2026-08-13T11:34:35.000Z</time>
      </trkpt>
      <trkpt lat="45.82834" lon="-1.09167">
        <ele>15</ele>
        <time>2026-08-13T11:34:44.000Z</time>
      </trkpt>
      <trkpt lat="45.82859" lon="-1.09184">
        <ele>14</ele>
        <time>2026-08-13T11:34:53.000Z</time>
      </trkpt>
      <trkpt lat="45.82884" lon="-1.09197">
        <ele>14</ele>
        <time>2026-08-13T11:35:01.000Z</time>
      </trkpt>
      <trkpt lat="45.82913" lon="-1.09215">
        <ele>14</ele>
        <time>2026-08-13T11:35:10.000Z</time>
      </trkpt>
      <trkpt lat="45.82919" lon="-1.0922">
        <ele>14</ele>
        <time>2026-08-13T11:35:12.000Z</time>
      </trkpt>
      <trkpt lat="45.82936" lon="-1.09237">
        <ele>14.4</ele>
        <time>2026-08-13T11:35:18.000Z</time>
      </trkpt>
      <trkpt lat="45.82959" lon="-1.0926">
        <ele>15</ele>
        <time>2026-08-13T11:35:26.000Z</time>
      </trkpt>
      <trkpt lat="45.82975" lon="-1.09277">
        <ele>15</ele>
        <time>2026-08-13T11:35:32.000Z</time>
      </trkpt>
      <trkpt lat="45.82994" lon="-1.09297">
        <ele>15</ele>
        <time>2026-08-13T11:35:39.000Z</time>
      </trkpt>
      <trkpt lat="45.83019" lon="-1.09328">
        <ele>15</ele>
        <time>2026-08-13T11:35:50.000Z</time>
      </trkpt>
      <trkpt lat="45.83034" lon="-1.09348">
        <ele>15</ele>
        <time>2026-08-13T11:35:57.000Z</time>
      </trkpt>
      <trkpt lat="45.83036" lon="-1.09351">
        <ele>15</ele>
        <time>2026-08-13T11:35:58.000Z</time>
      </trkpt>
      <trkpt lat="45.8304" lon="-1.09359">
        <ele>15</ele>
        <time>2026-08-13T11:36:01.000Z</time>
      </trkpt>
      <trkpt lat="45.83041" lon="-1.09361">
        <ele>15</ele>
        <time>2026-08-13T11:36:02.000Z</time>
      </trkpt>
      <trkpt lat="45.83042" lon="-1.09363">
        <ele>15</ele>
        <time>2026-08-13T11:36:06.000Z</time>
      </trkpt>
      <trkpt lat="45.83049" lon="-1.09372">
        <ele>15.3</ele>
        <time>2026-08-13T11:37:09.000Z</time>
      </trkpt>
      <trkpt lat="45.83058" lon="-1.0939">
        <ele>16</ele>
        <time>2026-08-13T11:37:15.000Z</time>
      </trkpt>
      <trkpt lat="45.8307" lon="-1.09414">
        <ele>15.6</ele>
        <time>2026-08-13T11:37:22.000Z</time>
      </trkpt>
      <trkpt lat="45.83088" lon="-1.09449">
        <ele>16</ele>
        <time>2026-08-13T11:37:32.000Z</time>
      </trkpt>
      <trkpt lat="45.831" lon="-1.09473">
        <ele>16</ele>
        <time>2026-08-13T11:37:39.000Z</time>
      </trkpt>
      <trkpt lat="45.83115" lon="-1.09502">
        <ele>16</ele>
        <time>2026-08-13T11:37:47.000Z</time>
      </trkpt>
      <trkpt lat="45.83124" lon="-1.09523">
        <ele>16</ele>
        <time>2026-08-13T11:37:53.000Z</time>
      </trkpt>
      <trkpt lat="45.83129" lon="-1.09534">
        <ele>16.1</ele>
        <time>2026-08-13T11:37:56.000Z</time>
      </trkpt>
      <trkpt lat="45.83144" lon="-1.09567">
        <ele>16.4</ele>
        <time>2026-08-13T11:38:05.000Z</time>
      </trkpt>
      <trkpt lat="45.8316" lon="-1.09604">
        <ele>17</ele>
        <time>2026-08-13T11:38:15.000Z</time>
      </trkpt>
      <trkpt lat="45.83169" lon="-1.09638">
        <ele>17.1</ele>
        <time>2026-08-13T11:38:23.000Z</time>
      </trkpt>
      <trkpt lat="45.83173" lon="-1.0967">
        <ele>17.2</ele>
        <time>2026-08-13T11:38:30.000Z</time>
      </trkpt>
      <trkpt lat="45.83178" lon="-1.097">
        <ele>17.4</ele>
        <time>2026-08-13T11:38:39.000Z</time>
      </trkpt>
      <trkpt lat="45.83176" lon="-1.09702">
        <ele>17.3</ele>
        <time>2026-08-13T11:38:41.000Z</time>
      </trkpt>
      <trkpt lat="45.8317" lon="-1.0971">
        <ele>17.1</ele>
        <time>2026-08-13T11:38:45.000Z</time>
      </trkpt>
      <trkpt lat="45.83154" lon="-1.09719">
        <ele>17.4</ele>
        <time>2026-08-13T11:38:50.000Z</time>
      </trkpt>
      <trkpt lat="45.83123" lon="-1.09734">
        <ele>17.8</ele>
        <time>2026-08-13T11:38:59.000Z</time>
      </trkpt>
      <trkpt lat="45.83089" lon="-1.0975">
        <ele>18.8</ele>
        <time>2026-08-13T11:39:10.000Z</time>
      </trkpt>
      <trkpt lat="45.83074" lon="-1.09756">
        <ele>19.3</ele>
        <time>2026-08-13T11:39:15.000Z</time>
      </trkpt>
      <trkpt lat="45.83068" lon="-1.09759">
        <ele>19.4</ele>
        <time>2026-08-13T11:39:17.000Z</time>
      </trkpt>
      <trkpt lat="45.83059" lon="-1.09762">
        <ele>19.5</ele>
        <time>2026-08-13T11:39:20.000Z</time>
      </trkpt>
      <trkpt lat="45.83046" lon="-1.09767">
        <ele>19.4</ele>
        <time>2026-08-13T11:39:26.000Z</time>
      </trkpt>
      <trkpt lat="45.83044" lon="-1.09769">
        <ele>19.3</ele>
        <time>2026-08-13T11:39:27.000Z</time>
      </trkpt>
      <trkpt lat="45.83043" lon="-1.09772">
        <ele>19.2</ele>
        <time>2026-08-13T11:39:30.000Z</time>
      </trkpt>
      <trkpt lat="45.83043" lon="-1.09772">
        <ele>19.2</ele>
        <time>2026-08-13T11:39:31.000Z</time>
      </trkpt>
      <trkpt lat="45.83038" lon="-1.0977">
        <ele>19.3</ele>
        <time>2026-08-13T11:40:13.000Z</time>
      </trkpt>
      <trkpt lat="45.83033" lon="-1.09769">
        <ele>19.3</ele>
        <time>2026-08-13T11:40:15.000Z</time>
      </trkpt>
      <trkpt lat="45.83016" lon="-1.09774">
        <ele>19.1</ele>
        <time>2026-08-13T11:40:20.000Z</time>
      </trkpt>
      <trkpt lat="45.82991" lon="-1.09783">
        <ele>18.9</ele>
        <time>2026-08-13T11:40:26.000Z</time>
      </trkpt>
      <trkpt lat="45.82976" lon="-1.0979">
        <ele>18.6</ele>
        <time>2026-08-13T11:40:31.000Z</time>
      </trkpt>
      <trkpt lat="45.82969" lon="-1.09795">
        <ele>18.5</ele>
        <time>2026-08-13T11:40:36.000Z</time>
      </trkpt>
      <trkpt lat="45.82969" lon="-1.09795">
        <ele>18.5</ele>
        <time>2026-08-13T11:40:37.000Z</time>
      </trkpt>
      <trkpt lat="45.82964" lon="-1.09799">
        <ele>18.5</ele>
        <time>2026-08-13T11:41:14.000Z</time>
      </trkpt>
      <trkpt lat="45.82958" lon="-1.09805">
        <ele>18.5</ele>
        <time>2026-08-13T11:41:16.000Z</time>
      </trkpt>
      <trkpt lat="45.8294" lon="-1.09816">
        <ele>18.6</ele>
        <time>2026-08-13T11:41:21.000Z</time>
      </trkpt>
      <trkpt lat="45.82918" lon="-1.09836">
        <ele>18.9</ele>
        <time>2026-08-13T11:41:27.000Z</time>
      </trkpt>
      <trkpt lat="45.82891" lon="-1.09872">
        <ele>18.9</ele>
        <time>2026-08-13T11:41:36.000Z</time>
      </trkpt>
      <trkpt lat="45.82887" lon="-1.09877">
        <ele>19</ele>
        <time>2026-08-13T11:41:37.000Z</time>
      </trkpt>
      <trkpt lat="45.82874" lon="-1.09901">
        <ele>19</ele>
        <time>2026-08-13T11:41:42.000Z</time>
      </trkpt>
      <trkpt lat="45.82871" lon="-1.09907">
        <ele>19</ele>
        <time>2026-08-13T11:41:43.000Z</time>
      </trkpt>
      <trkpt lat="45.82857" lon="-1.09939">
        <ele>18.9</ele>
        <time>2026-08-13T11:41:49.000Z</time>
      </trkpt>
      <trkpt lat="45.82853" lon="-1.09951">
        <ele>18.5</ele>
        <time>2026-08-13T11:41:51.000Z</time>
      </trkpt>
      <trkpt lat="45.82851" lon="-1.09957">
        <ele>18.3</ele>
        <time>2026-08-13T11:41:52.000Z</time>
      </trkpt>
      <trkpt lat="45.82835" lon="-1.09992">
        <ele>18</ele>
        <time>2026-08-13T11:41:58.000Z</time>
      </trkpt>
      <trkpt lat="45.82811" lon="-1.1004">
        <ele>17.5</ele>
        <time>2026-08-13T11:42:06.000Z</time>
      </trkpt>
      <trkpt lat="45.82783" lon="-1.10082">
        <ele>18</ele>
        <time>2026-08-13T11:42:14.000Z</time>
      </trkpt>
      <trkpt lat="45.82746" lon="-1.10132">
        <ele>17</ele>
        <time>2026-08-13T11:42:24.000Z</time>
      </trkpt>
      <trkpt lat="45.82737" lon="-1.10145">
        <ele>17</ele>
        <time>2026-08-13T11:42:27.000Z</time>
      </trkpt>
      <trkpt lat="45.82731" lon="-1.10153">
        <ele>17</ele>
        <time>2026-08-13T11:42:29.000Z</time>
      </trkpt>
      <trkpt lat="45.82705" lon="-1.10178">
        <ele>17</ele>
        <time>2026-08-13T11:42:37.000Z</time>
      </trkpt>
      <trkpt lat="45.82672" lon="-1.10206">
        <ele>16.1</ele>
        <time>2026-08-13T11:42:46.000Z</time>
      </trkpt>
      <trkpt lat="45.82642" lon="-1.10231">
        <ele>16</ele>
        <time>2026-08-13T11:42:54.000Z</time>
      </trkpt>
      <trkpt lat="45.82613" lon="-1.10254">
        <ele>16</ele>
        <time>2026-08-13T11:43:01.000Z</time>
      </trkpt>
      <trkpt lat="45.82591" lon="-1.10275">
        <ele>16</ele>
        <time>2026-08-13T11:43:07.000Z</time>
      </trkpt>
      <trkpt lat="45.82583" lon="-1.10282">
        <ele>16</ele>
        <time>2026-08-13T11:43:09.000Z</time>
      </trkpt>
      <trkpt lat="45.82556" lon="-1.10306">
        <ele>16</ele>
        <time>2026-08-13T11:43:16.000Z</time>
      </trkpt>
      <trkpt lat="45.82549" lon="-1.10314">
        <ele>16.2</ele>
        <time>2026-08-13T11:43:18.000Z</time>
      </trkpt>
      <trkpt lat="45.8252" lon="-1.10347">
        <ele>15.9</ele>
        <time>2026-08-13T11:43:26.000Z</time>
      </trkpt>
      <trkpt lat="45.82478" lon="-1.10394">
        <ele>16.4</ele>
        <time>2026-08-13T11:43:38.000Z</time>
      </trkpt>
      <trkpt lat="45.82459" lon="-1.10406">
        <ele>16.2</ele>
        <time>2026-08-13T11:43:43.000Z</time>
      </trkpt>
      <trkpt lat="45.82447" lon="-1.1041">
        <ele>16</ele>
        <time>2026-08-13T11:43:46.000Z</time>
      </trkpt>
      <trkpt lat="45.82439" lon="-1.10412">
        <ele>16</ele>
        <time>2026-08-13T11:43:48.000Z</time>
      </trkpt>
      <trkpt lat="45.82427" lon="-1.10415">
        <ele>16</ele>
        <time>2026-08-13T11:43:51.000Z</time>
      </trkpt>
      <trkpt lat="45.82412" lon="-1.10422">
        <ele>15.7</ele>
        <time>2026-08-13T11:43:55.000Z</time>
      </trkpt>
      <trkpt lat="45.82401" lon="-1.10428">
        <ele>15.2</ele>
        <time>2026-08-13T11:43:58.000Z</time>
      </trkpt>
      <trkpt lat="45.82374" lon="-1.10448">
        <ele>15</ele>
        <time>2026-08-13T11:44:05.000Z</time>
      </trkpt>
      <trkpt lat="45.82366" lon="-1.10455">
        <ele>15</ele>
        <time>2026-08-13T11:44:07.000Z</time>
      </trkpt>
      <trkpt lat="45.82358" lon="-1.10461">
        <ele>14.9</ele>
        <time>2026-08-13T11:44:09.000Z</time>
      </trkpt>
      <trkpt lat="45.82354" lon="-1.10464">
        <ele>14.7</ele>
        <time>2026-08-13T11:44:10.000Z</time>
      </trkpt>
      <trkpt lat="45.82349" lon="-1.10467">
        <ele>14.6</ele>
        <time>2026-08-13T11:44:11.000Z</time>
      </trkpt>
      <trkpt lat="45.82341" lon="-1.10473">
        <ele>14.3</ele>
        <time>2026-08-13T11:44:13.000Z</time>
      </trkpt>
      <trkpt lat="45.82336" lon="-1.10476">
        <ele>14.1</ele>
        <time>2026-08-13T11:44:14.000Z</time>
      </trkpt>
      <trkpt lat="45.82318" lon="-1.10489">
        <ele>13.5</ele>
        <time>2026-08-13T11:44:18.000Z</time>
      </trkpt>
      <trkpt lat="45.82295" lon="-1.10508">
        <ele>12.7</ele>
        <time>2026-08-13T11:44:23.000Z</time>
      </trkpt>
      <trkpt lat="45.82287" lon="-1.10514">
        <ele>12.5</ele>
        <time>2026-08-13T11:44:25.000Z</time>
      </trkpt>
      <trkpt lat="45.82278" lon="-1.10522">
        <ele>12.2</ele>
        <time>2026-08-13T11:44:29.000Z</time>
      </trkpt>
      <trkpt lat="45.82276" lon="-1.10523">
        <ele>12.2</ele>
        <time>2026-08-13T11:44:31.000Z</time>
      </trkpt>
      <trkpt lat="45.82274" lon="-1.10524">
        <ele>12.1</ele>
        <time>2026-08-13T11:44:32.000Z</time>
      </trkpt>
      <trkpt lat="45.82269" lon="-1.10527">
        <ele>12</ele>
        <time>2026-08-13T11:44:34.000Z</time>
      </trkpt>
      <trkpt lat="45.82266" lon="-1.1053">
        <ele>12</ele>
        <time>2026-08-13T11:44:35.000Z</time>
      </trkpt>
      <trkpt lat="45.82261" lon="-1.10537">
        <ele>11.8</ele>
        <time>2026-08-13T11:44:37.000Z</time>
      </trkpt>
      <trkpt lat="45.82252" lon="-1.10549">
        <ele>11.3</ele>
        <time>2026-08-13T11:44:40.000Z</time>
      </trkpt>
      <trkpt lat="45.82249" lon="-1.10554">
        <ele>11.1</ele>
        <time>2026-08-13T11:44:41.000Z</time>
      </trkpt>
      <trkpt lat="45.8224" lon="-1.10568">
        <ele>11</ele>
        <time>2026-08-13T11:44:44.000Z</time>
      </trkpt>
      <trkpt lat="45.82224" lon="-1.10589">
        <ele>11</ele>
        <time>2026-08-13T11:44:49.000Z</time>
      </trkpt>
      <trkpt lat="45.82205" lon="-1.10615">
        <ele>10.9</ele>
        <time>2026-08-13T11:44:56.000Z</time>
      </trkpt>
      <trkpt lat="45.82187" lon="-1.1064">
        <ele>10.3</ele>
        <time>2026-08-13T11:45:03.000Z</time>
      </trkpt>
      <trkpt lat="45.82176" lon="-1.10657">
        <ele>10.4</ele>
        <time>2026-08-13T11:45:08.000Z</time>
      </trkpt>
      <trkpt lat="45.82173" lon="-1.10661">
        <ele>10.3</ele>
        <time>2026-08-13T11:45:09.000Z</time>
      </trkpt>
      <trkpt lat="45.8216" lon="-1.10677">
        <ele>10</ele>
        <time>2026-08-13T11:45:15.000Z</time>
      </trkpt>
      <trkpt lat="45.82143" lon="-1.1069">
        <ele>10</ele>
        <time>2026-08-13T11:45:21.000Z</time>
      </trkpt>
      <trkpt lat="45.8213" lon="-1.10702">
        <ele>9.7</ele>
        <time>2026-08-13T11:45:26.000Z</time>
      </trkpt>
      <trkpt lat="45.82118" lon="-1.10711">
        <ele>9.4</ele>
        <time>2026-08-13T11:45:31.000Z</time>
      </trkpt>
      <trkpt lat="45.82107" lon="-1.10722">
        <ele>9</ele>
        <time>2026-08-13T11:45:36.000Z</time>
      </trkpt>
      <trkpt lat="45.82105" lon="-1.10723">
        <ele>9</ele>
        <time>2026-08-13T11:45:37.000Z</time>
      </trkpt>
      <trkpt lat="45.82095" lon="-1.10733">
        <ele>8.6</ele>
        <time>2026-08-13T11:45:42.000Z</time>
      </trkpt>
      <trkpt lat="45.82092" lon="-1.10738">
        <ele>8.4</ele>
        <time>2026-08-13T11:45:44.000Z</time>
      </trkpt>
      <trkpt lat="45.8209" lon="-1.10742">
        <ele>8.3</ele>
        <time>2026-08-13T11:45:46.000Z</time>
      </trkpt>
      <trkpt lat="45.8209" lon="-1.10744">
        <ele>8.2</ele>
        <time>2026-08-13T11:45:50.000Z</time>
      </trkpt>
      <trkpt lat="45.82097" lon="-1.10728">
        <ele>8.8</ele>
        <time>2026-08-13T11:53:31.000Z</time>
      </trkpt>
      <trkpt lat="45.8211" lon="-1.10718">
        <ele>9.2</ele>
        <time>2026-08-13T11:53:37.000Z</time>
      </trkpt>
      <trkpt lat="45.82112" lon="-1.10717">
        <ele>9.2</ele>
        <time>2026-08-13T11:53:38.000Z</time>
      </trkpt>
      <trkpt lat="45.82115" lon="-1.10714">
        <ele>9.3</ele>
        <time>2026-08-13T11:53:40.000Z</time>
      </trkpt>
      <trkpt lat="45.82129" lon="-1.10701">
        <ele>9.8</ele>
        <time>2026-08-13T11:53:46.000Z</time>
      </trkpt>
      <trkpt lat="45.82132" lon="-1.10699">
        <ele>9.9</ele>
        <time>2026-08-13T11:53:47.000Z</time>
      </trkpt>
      <trkpt lat="45.82151" lon="-1.1068">
        <ele>10</ele>
        <time>2026-08-13T11:53:55.000Z</time>
      </trkpt>
      <trkpt lat="45.82167" lon="-1.10665">
        <ele>10.1</ele>
        <time>2026-08-13T11:54:02.000Z</time>
      </trkpt>
      <trkpt lat="45.82179" lon="-1.10647">
        <ele>10.5</ele>
        <time>2026-08-13T11:54:08.000Z</time>
      </trkpt>
      <trkpt lat="45.8218" lon="-1.10645">
        <ele>10.5</ele>
        <time>2026-08-13T11:54:09.000Z</time>
      </trkpt>
      <trkpt lat="45.82192" lon="-1.10631">
        <ele>10.3</ele>
        <time>2026-08-13T11:54:15.000Z</time>
      </trkpt>
      <trkpt lat="45.82193" lon="-1.10626">
        <ele>10.5</ele>
        <time>2026-08-13T11:54:18.000Z</time>
      </trkpt>
      <trkpt lat="45.82193" lon="-1.10622">
        <ele>10.6</ele>
        <time>2026-08-13T11:54:20.000Z</time>
      </trkpt>
      <trkpt lat="45.82191" lon="-1.10617">
        <ele>10.8</ele>
        <time>2026-08-13T11:54:23.000Z</time>
      </trkpt>
      <trkpt lat="45.8219" lon="-1.10616">
        <ele>10.9</ele>
        <time>2026-08-13T11:54:25.000Z</time>
      </trkpt>
      <trkpt lat="45.82189" lon="-1.10614">
        <ele>10.9</ele>
        <time>2026-08-13T11:54:26.000Z</time>
      </trkpt>
      <trkpt lat="45.82183" lon="-1.10602">
        <ele>11</ele>
        <time>2026-08-13T11:54:34.000Z</time>
      </trkpt>
      <trkpt lat="45.82182" lon="-1.106">
        <ele>11</ele>
        <time>2026-08-13T11:54:35.000Z</time>
      </trkpt>
      <trkpt lat="45.82179" lon="-1.10593">
        <ele>11</ele>
        <time>2026-08-13T11:54:41.000Z</time>
      </trkpt>
      <trkpt lat="45.82178" lon="-1.10594">
        <ele>11</ele>
        <time>2026-08-13T11:54:44.000Z</time>
      </trkpt>
      <trkpt lat="45.82179" lon="-1.10595">
        <ele>11</ele>
        <time>2026-08-13T11:54:45.000Z</time>
      </trkpt>
      <trkpt lat="45.8218" lon="-1.10595">
        <ele>11</ele>
        <time>2026-08-13T11:54:48.000Z</time>
      </trkpt>
      <trkpt lat="45.82178" lon="-1.10594">
        <ele>11</ele>
        <time>2026-08-13T11:55:08.000Z</time>
      </trkpt>
      <trkpt lat="45.82177" lon="-1.10594">
        <ele>11</ele>
        <time>2026-08-13T11:55:09.000Z</time>
      </trkpt>
      <trkpt lat="45.82177" lon="-1.10594">
        <ele>11</ele>
        <time>2026-08-13T11:55:10.000Z</time>
      </trkpt>
      <trkpt lat="45.83716" lon="-1.12625">
        <ele>12.2</ele>
        <time>2026-08-13T13:05:20.000Z</time>
      </trkpt>
      <trkpt lat="45.83719" lon="-1.12631">
        <ele>12.1</ele>
        <time>2026-08-13T13:05:21.000Z</time>
      </trkpt>
      <trkpt lat="45.83722" lon="-1.12637">
        <ele>12</ele>
        <time>2026-08-13T13:05:22.000Z</time>
      </trkpt>
      <trkpt lat="45.83739" lon="-1.12673">
        <ele>11.2</ele>
        <time>2026-08-13T13:05:28.000Z</time>
      </trkpt>
      <trkpt lat="45.83747" lon="-1.12685">
        <ele>10.5</ele>
        <time>2026-08-13T13:05:30.000Z</time>
      </trkpt>
      <trkpt lat="45.83764" lon="-1.12707">
        <ele>10</ele>
        <time>2026-08-13T13:05:34.000Z</time>
      </trkpt>
      <trkpt lat="45.83785" lon="-1.12734">
        <ele>9.6</ele>
        <time>2026-08-13T13:05:39.000Z</time>
      </trkpt>
      <trkpt lat="45.83793" lon="-1.12745">
        <ele>9.2</ele>
        <time>2026-08-13T13:05:41.000Z</time>
      </trkpt>
      <trkpt lat="45.83801" lon="-1.12755">
        <ele>9</ele>
        <time>2026-08-13T13:05:43.000Z</time>
      </trkpt>
      <trkpt lat="45.83809" lon="-1.12766">
        <ele>9</ele>
        <time>2026-08-13T13:05:45.000Z</time>
      </trkpt>
      <trkpt lat="45.83818" lon="-1.12779">
        <ele>9</ele>
        <time>2026-08-13T13:05:47.000Z</time>
      </trkpt>
      <trkpt lat="45.83851" lon="-1.12837">
        <ele>8.7</ele>
        <time>2026-08-13T13:05:57.000Z</time>
      </trkpt>
      <trkpt lat="45.83854" lon="-1.12842">
        <ele>8.8</ele>
        <time>2026-08-13T13:05:58.000Z</time>
      </trkpt>
      <trkpt lat="45.83873" lon="-1.12878">
        <ele>8.7</ele>
        <time>2026-08-13T13:06:05.000Z</time>
      </trkpt>
      <trkpt lat="45.83895" lon="-1.12914">
        <ele>8.3</ele>
        <time>2026-08-13T13:06:12.000Z</time>
      </trkpt>
      <trkpt lat="45.83914" lon="-1.12934">
        <ele>8.3</ele>
        <time>2026-08-13T13:06:18.000Z</time>
      </trkpt>
      <trkpt lat="45.83931" lon="-1.12939">
        <ele>8.6</ele>
        <time>2026-08-13T13:06:23.000Z</time>
      </trkpt>
      <trkpt lat="45.83959" lon="-1.12937">
        <ele>9</ele>
        <time>2026-08-13T13:06:30.000Z</time>
      </trkpt>
      <trkpt lat="45.83981" lon="-1.12943">
        <ele>9</ele>
        <time>2026-08-13T13:06:36.000Z</time>
      </trkpt>
      <trkpt lat="45.84" lon="-1.12947">
        <ele>9</ele>
        <time>2026-08-13T13:06:42.000Z</time>
      </trkpt>
      <trkpt lat="45.84023" lon="-1.12945">
        <ele>9.8</ele>
        <time>2026-08-13T13:06:48.000Z</time>
      </trkpt>
      <trkpt lat="45.84045" lon="-1.12939">
        <ele>10</ele>
        <time>2026-08-13T13:06:54.000Z</time>
      </trkpt>
      <trkpt lat="45.84066" lon="-1.12938">
        <ele>10.4</ele>
        <time>2026-08-13T13:07:00.000Z</time>
      </trkpt>
      <trkpt lat="45.84078" lon="-1.12939">
        <ele>10.8</ele>
        <time>2026-08-13T13:07:04.000Z</time>
      </trkpt>
      <trkpt lat="45.84086" lon="-1.12939">
        <ele>11</ele>
        <time>2026-08-13T13:07:06.000Z</time>
      </trkpt>
      <trkpt lat="45.84104" lon="-1.12947">
        <ele>11</ele>
        <time>2026-08-13T13:07:12.000Z</time>
      </trkpt>
      <trkpt lat="45.84126" lon="-1.12956">
        <ele>11</ele>
        <time>2026-08-13T13:07:19.000Z</time>
      </trkpt>
      <trkpt lat="45.84146" lon="-1.12967">
        <ele>11</ele>
        <time>2026-08-13T13:07:25.000Z</time>
      </trkpt>
      <trkpt lat="45.84153" lon="-1.12972">
        <ele>11</ele>
        <time>2026-08-13T13:07:27.000Z</time>
      </trkpt>
      <trkpt lat="45.84166" lon="-1.12991">
        <ele>11</ele>
        <time>2026-08-13T13:07:32.000Z</time>
      </trkpt>
      <trkpt lat="45.84175" lon="-1.13025">
        <ele>11</ele>
        <time>2026-08-13T13:07:39.000Z</time>
      </trkpt>
      <trkpt lat="45.84181" lon="-1.13061">
        <ele>11</ele>
        <time>2026-08-13T13:07:46.000Z</time>
      </trkpt>
      <trkpt lat="45.8419" lon="-1.13104">
        <ele>11</ele>
        <time>2026-08-13T13:07:54.000Z</time>
      </trkpt>
      <trkpt lat="45.84198" lon="-1.1315">
        <ele>11.9</ele>
        <time>2026-08-13T13:08:03.000Z</time>
      </trkpt>
      <trkpt lat="45.84204" lon="-1.13176">
        <ele>11.7</ele>
        <time>2026-08-13T13:08:08.000Z</time>
      </trkpt>
      <trkpt lat="45.84216" lon="-1.13212">
        <ele>11.1</ele>
        <time>2026-08-13T13:08:15.000Z</time>
      </trkpt>
      <trkpt lat="45.84227" lon="-1.13254">
        <ele>10.7</ele>
        <time>2026-08-13T13:08:22.000Z</time>
      </trkpt>
      <trkpt lat="45.84231" lon="-1.13268">
        <ele>10.3</ele>
        <time>2026-08-13T13:08:24.000Z</time>
      </trkpt>
      <trkpt lat="45.84233" lon="-1.13274">
        <ele>10.1</ele>
        <time>2026-08-13T13:08:25.000Z</time>
      </trkpt>
      <trkpt lat="45.84239" lon="-1.13294">
        <ele>10</ele>
        <time>2026-08-13T13:08:28.000Z</time>
      </trkpt>
      <trkpt lat="45.84252" lon="-1.13331">
        <ele>9.9</ele>
        <time>2026-08-13T13:08:34.000Z</time>
      </trkpt>
      <trkpt lat="45.84256" lon="-1.13344">
        <ele>9.8</ele>
        <time>2026-08-13T13:08:36.000Z</time>
      </trkpt>
      <trkpt lat="45.84259" lon="-1.13369">
        <ele>9.7</ele>
        <time>2026-08-13T13:08:40.000Z</time>
      </trkpt>
      <trkpt lat="45.8426" lon="-1.13382">
        <ele>9.6</ele>
        <time>2026-08-13T13:08:42.000Z</time>
      </trkpt>
      <trkpt lat="45.84261" lon="-1.13401">
        <ele>9.6</ele>
        <time>2026-08-13T13:08:45.000Z</time>
      </trkpt>
      <trkpt lat="45.84259" lon="-1.13431">
        <ele>9.7</ele>
        <time>2026-08-13T13:08:50.000Z</time>
      </trkpt>
      <trkpt lat="45.84262" lon="-1.13478">
        <ele>9.6</ele>
        <time>2026-08-13T13:08:58.000Z</time>
      </trkpt>
      <trkpt lat="45.84264" lon="-1.1349">
        <ele>9.5</ele>
        <time>2026-08-13T13:09:00.000Z</time>
      </trkpt>
      <trkpt lat="45.84266" lon="-1.13501">
        <ele>9.4</ele>
        <time>2026-08-13T13:09:02.000Z</time>
      </trkpt>
      <trkpt lat="45.84265" lon="-1.13506">
        <ele>9.5</ele>
        <time>2026-08-13T13:09:03.000Z</time>
      </trkpt>
      <trkpt lat="45.84263" lon="-1.13512">
        <ele>9.5</ele>
        <time>2026-08-13T13:09:04.000Z</time>
      </trkpt>
      <trkpt lat="45.84256" lon="-1.13528">
        <ele>9.8</ele>
        <time>2026-08-13T13:09:08.000Z</time>
      </trkpt>
      <trkpt lat="45.8425" lon="-1.13536">
        <ele>10</ele>
        <time>2026-08-13T13:09:13.000Z</time>
      </trkpt>
      <trkpt lat="45.84247" lon="-1.13538">
        <ele>10</ele>
        <time>2026-08-13T13:09:19.000Z</time>
      </trkpt>
      <trkpt lat="45.84249" lon="-1.13531">
        <ele>10</ele>
        <time>2026-08-13T13:09:26.000Z</time>
      </trkpt>
      <trkpt lat="45.84253" lon="-1.13527">
        <ele>9.9</ele>
        <time>2026-08-13T13:09:28.000Z</time>
      </trkpt>
      <trkpt lat="45.84261" lon="-1.13512">
        <ele>9.6</ele>
        <time>2026-08-13T13:09:33.000Z</time>
      </trkpt>
      <trkpt lat="45.84269" lon="-1.13508">
        <ele>9.3</ele>
        <time>2026-08-13T13:09:36.000Z</time>
      </trkpt>
      <trkpt lat="45.84273" lon="-1.1351">
        <ele>9.2</ele>
        <time>2026-08-13T13:09:37.000Z</time>
      </trkpt>
      <trkpt lat="45.84279" lon="-1.13516">
        <ele>9</ele>
        <time>2026-08-13T13:09:39.000Z</time>
      </trkpt>
      <trkpt lat="45.84289" lon="-1.13529">
        <ele>8.7</ele>
        <time>2026-08-13T13:09:42.000Z</time>
      </trkpt>
      <trkpt lat="45.843" lon="-1.13547">
        <ele>8.9</ele>
        <time>2026-08-13T13:09:46.000Z</time>
      </trkpt>
      <trkpt lat="45.84302" lon="-1.1355">
        <ele>8.9</ele>
        <time>2026-08-13T13:09:47.000Z</time>
      </trkpt>
      <trkpt lat="45.84306" lon="-1.13558">
        <ele>9</ele>
        <time>2026-08-13T13:09:49.000Z</time>
      </trkpt>
      <trkpt lat="45.84316" lon="-1.13581">
        <ele>9</ele>
        <time>2026-08-13T13:09:55.000Z</time>
      </trkpt>
      <trkpt lat="45.84322" lon="-1.13606">
        <ele>9</ele>
        <time>2026-08-13T13:10:01.000Z</time>
      </trkpt>
      <trkpt lat="45.8433" lon="-1.13633">
        <ele>9</ele>
        <time>2026-08-13T13:10:07.000Z</time>
      </trkpt>
      <trkpt lat="45.84341" lon="-1.13666">
        <ele>9</ele>
        <time>2026-08-13T13:10:14.000Z</time>
      </trkpt>
      <trkpt lat="45.84349" lon="-1.13694">
        <ele>8.5</ele>
        <time>2026-08-13T13:10:20.000Z</time>
      </trkpt>
      <trkpt lat="45.84355" lon="-1.13716">
        <ele>8.8</ele>
        <time>2026-08-13T13:10:24.000Z</time>
      </trkpt>
      <trkpt lat="45.84358" lon="-1.13727">
        <ele>8.8</ele>
        <time>2026-08-13T13:10:26.000Z</time>
      </trkpt>
      <trkpt lat="45.84362" lon="-1.13757">
        <ele>8</ele>
        <time>2026-08-13T13:10:31.000Z</time>
      </trkpt>
      <trkpt lat="45.84366" lon="-1.1379">
        <ele>8</ele>
        <time>2026-08-13T13:10:37.000Z</time>
      </trkpt>
      <trkpt lat="45.84373" lon="-1.13835">
        <ele>8</ele>
        <time>2026-08-13T13:10:45.000Z</time>
      </trkpt>
      <trkpt lat="45.84375" lon="-1.13839">
        <ele>8.1</ele>
        <time>2026-08-13T13:10:46.000Z</time>
      </trkpt>
      <trkpt lat="45.8438" lon="-1.13846">
        <ele>8.1</ele>
        <time>2026-08-13T13:10:48.000Z</time>
      </trkpt>
      <trkpt lat="45.84394" lon="-1.13871">
        <ele>7.8</ele>
        <time>2026-08-13T13:10:54.000Z</time>
      </trkpt>
      <trkpt lat="45.84405" lon="-1.13899">
        <ele>7.4</ele>
        <time>2026-08-13T13:10:59.000Z</time>
      </trkpt>
      <trkpt lat="45.8441" lon="-1.13911">
        <ele>7.2</ele>
        <time>2026-08-13T13:11:01.000Z</time>
      </trkpt>
      <trkpt lat="45.84414" lon="-1.13916">
        <ele>7.1</ele>
        <time>2026-08-13T13:11:02.000Z</time>
      </trkpt>
      <trkpt lat="45.84421" lon="-1.13925">
        <ele>6.8</ele>
        <time>2026-08-13T13:11:04.000Z</time>
      </trkpt>
      <trkpt lat="45.84429" lon="-1.13933">
        <ele>6.6</ele>
        <time>2026-08-13T13:11:06.000Z</time>
      </trkpt>
      <trkpt lat="45.84441" lon="-1.13946">
        <ele>6.1</ele>
        <time>2026-08-13T13:11:09.000Z</time>
      </trkpt>
      <trkpt lat="45.84448" lon="-1.13955">
        <ele>6</ele>
        <time>2026-08-13T13:11:11.000Z</time>
      </trkpt>
      <trkpt lat="45.84451" lon="-1.1396">
        <ele>6</ele>
        <time>2026-08-13T13:11:12.000Z</time>
      </trkpt>
      <trkpt lat="45.84457" lon="-1.13969">
        <ele>6</ele>
        <time>2026-08-13T13:11:14.000Z</time>
      </trkpt>
      <trkpt lat="45.84462" lon="-1.13978">
        <ele>6</ele>
        <time>2026-08-13T13:11:16.000Z</time>
      </trkpt>
      <trkpt lat="45.84479" lon="-1.14017">
        <ele>6.2</ele>
        <time>2026-08-13T13:11:23.000Z</time>
      </trkpt>
      <trkpt lat="45.84489" lon="-1.14055">
        <ele>7</ele>
        <time>2026-08-13T13:11:30.000Z</time>
      </trkpt>
      <trkpt lat="45.84501" lon="-1.14105">
        <ele>7</ele>
        <time>2026-08-13T13:11:39.000Z</time>
      </trkpt>
      <trkpt lat="45.84504" lon="-1.14117">
        <ele>7</ele>
        <time>2026-08-13T13:11:41.000Z</time>
      </trkpt>
      <trkpt lat="45.84509" lon="-1.1414">
        <ele>7</ele>
        <time>2026-08-13T13:11:45.000Z</time>
      </trkpt>
      <trkpt lat="45.84518" lon="-1.14179">
        <ele>6.5</ele>
        <time>2026-08-13T13:11:52.000Z</time>
      </trkpt>
      <trkpt lat="45.84536" lon="-1.1423">
        <ele>5</ele>
        <time>2026-08-13T13:12:00.000Z</time>
      </trkpt>
      <trkpt lat="45.84558" lon="-1.14268">
        <ele>4.4</ele>
        <time>2026-08-13T13:12:07.000Z</time>
      </trkpt>
      <trkpt lat="45.84572" lon="-1.14294">
        <ele>4.6</ele>
        <time>2026-08-13T13:12:12.000Z</time>
      </trkpt>
      <trkpt lat="45.84577" lon="-1.14304">
        <ele>4.8</ele>
        <time>2026-08-13T13:12:14.000Z</time>
      </trkpt>
      <trkpt lat="45.84594" lon="-1.14338">
        <ele>4.9</ele>
        <time>2026-08-13T13:12:21.000Z</time>
      </trkpt>
      <trkpt lat="45.84595" lon="-1.14343">
        <ele>4.8</ele>
        <time>2026-08-13T13:12:22.000Z</time>
      </trkpt>
      <trkpt lat="45.84598" lon="-1.14355">
        <ele>4.6</ele>
        <time>2026-08-13T13:12:24.000Z</time>
      </trkpt>
      <trkpt lat="45.846" lon="-1.14366">
        <ele>4.6</ele>
        <time>2026-08-13T13:12:26.000Z</time>
      </trkpt>
      <trkpt lat="45.84597" lon="-1.14416">
        <ele>4</ele>
        <time>2026-08-13T13:12:34.000Z</time>
      </trkpt>
      <trkpt lat="45.84596" lon="-1.14422">
        <ele>4.1</ele>
        <time>2026-08-13T13:12:35.000Z</time>
      </trkpt>
      <trkpt lat="45.84593" lon="-1.14452">
        <ele>4.5</ele>
        <time>2026-08-13T13:12:40.000Z</time>
      </trkpt>
      <trkpt lat="45.84596" lon="-1.14461">
        <ele>4.2</ele>
        <time>2026-08-13T13:12:42.000Z</time>
      </trkpt>
      <trkpt lat="45.84598" lon="-1.14473">
        <ele>4</ele>
        <time>2026-08-13T13:12:44.000Z</time>
      </trkpt>
      <trkpt lat="45.84602" lon="-1.14489">
        <ele>4</ele>
        <time>2026-08-13T13:12:47.000Z</time>
      </trkpt>
      <trkpt lat="45.84606" lon="-1.14501">
        <ele>4</ele>
        <time>2026-08-13T13:12:49.000Z</time>
      </trkpt>
      <trkpt lat="45.84608" lon="-1.14511">
        <ele>4</ele>
        <time>2026-08-13T13:12:51.000Z</time>
      </trkpt>
      <trkpt lat="45.84609" lon="-1.14519">
        <ele>4</ele>
        <time>2026-08-13T13:12:53.000Z</time>
      </trkpt>
      <trkpt lat="45.8461" lon="-1.14524">
        <ele>4</ele>
        <time>2026-08-13T13:12:54.000Z</time>
      </trkpt>
      <trkpt lat="45.84607" lon="-1.14535">
        <ele>4</ele>
        <time>2026-08-13T13:12:57.000Z</time>
      </trkpt>
      <trkpt lat="45.84607" lon="-1.14539">
        <ele>4</ele>
        <time>2026-08-13T13:12:58.000Z</time>
      </trkpt>
      <trkpt lat="45.84609" lon="-1.14546">
        <ele>4</ele>
        <time>2026-08-13T13:13:00.000Z</time>
      </trkpt>
      <trkpt lat="45.84611" lon="-1.14549">
        <ele>4</ele>
        <time>2026-08-13T13:13:01.000Z</time>
      </trkpt>
      <trkpt lat="45.8462" lon="-1.14567">
        <ele>4.2</ele>
        <time>2026-08-13T13:13:06.000Z</time>
      </trkpt>
      <trkpt lat="45.84628" lon="-1.1459">
        <ele>4</ele>
        <time>2026-08-13T13:13:11.000Z</time>
      </trkpt>
      <trkpt lat="45.84635" lon="-1.14621">
        <ele>4</ele>
        <time>2026-08-13T13:13:18.000Z</time>
      </trkpt>
      <trkpt lat="45.84643" lon="-1.14646">
        <ele>4</ele>
        <time>2026-08-13T13:13:24.000Z</time>
      </trkpt>
      <trkpt lat="45.84644" lon="-1.1465">
        <ele>4.1</ele>
        <time>2026-08-13T13:13:26.000Z</time>
      </trkpt>
      <trkpt lat="45.84643" lon="-1.14653">
        <ele>4.1</ele>
        <time>2026-08-13T13:13:28.000Z</time>
      </trkpt>
      <trkpt lat="45.8464" lon="-1.14657">
        <ele>4</ele>
        <time>2026-08-13T13:13:30.000Z</time>
      </trkpt>
      <trkpt lat="45.84635" lon="-1.14659">
        <ele>4</ele>
        <time>2026-08-13T13:13:32.000Z</time>
      </trkpt>
      <trkpt lat="45.84616" lon="-1.14673">
        <ele>4</ele>
        <time>2026-08-13T13:13:39.000Z</time>
      </trkpt>
      <trkpt lat="45.8461" lon="-1.14678">
        <ele>4</ele>
        <time>2026-08-13T13:13:42.000Z</time>
      </trkpt>
      <trkpt lat="45.8461" lon="-1.14683">
        <ele>4</ele>
        <time>2026-08-13T13:13:44.000Z</time>
      </trkpt>
      <trkpt lat="45.84613" lon="-1.14695">
        <ele>4</ele>
        <time>2026-08-13T13:13:48.000Z</time>
      </trkpt>
      <trkpt lat="45.84614" lon="-1.147">
        <ele>3.8</ele>
        <time>2026-08-13T13:13:50.000Z</time>
      </trkpt>
      <trkpt lat="45.84619" lon="-1.14718">
        <ele>3.4</ele>
        <time>2026-08-13T13:13:55.000Z</time>
      </trkpt>
      <trkpt lat="45.84628" lon="-1.14744">
        <ele>3.6</ele>
        <time>2026-08-13T13:14:02.000Z</time>
      </trkpt>
      <trkpt lat="45.84639" lon="-1.14771">
        <ele>4</ele>
        <time>2026-08-13T13:14:09.000Z</time>
      </trkpt>
      <trkpt lat="45.84652" lon="-1.14802">
        <ele>4</ele>
        <time>2026-08-13T13:14:16.000Z</time>
      </trkpt>
      <trkpt lat="45.84665" lon="-1.14829">
        <ele>4</ele>
        <time>2026-08-13T13:14:22.000Z</time>
      </trkpt>
      <trkpt lat="45.84678" lon="-1.14864">
        <ele>4</ele>
        <time>2026-08-13T13:14:29.000Z</time>
      </trkpt>
      <trkpt lat="45.84687" lon="-1.14875">
        <ele>3.6</ele>
        <time>2026-08-13T13:14:32.000Z</time>
      </trkpt>
      <trkpt lat="45.84706" lon="-1.14875">
        <ele>3.7</ele>
        <time>2026-08-13T13:14:37.000Z</time>
      </trkpt>
      <trkpt lat="45.84714" lon="-1.1488">
        <ele>3.8</ele>
        <time>2026-08-13T13:14:41.000Z</time>
      </trkpt>
      <trkpt lat="45.84716" lon="-1.14891">
        <ele>3.8</ele>
        <time>2026-08-13T13:14:45.000Z</time>
      </trkpt>
      <trkpt lat="45.84722" lon="-1.1491">
        <ele>4</ele>
        <time>2026-08-13T13:14:50.000Z</time>
      </trkpt>
      <trkpt lat="45.84726" lon="-1.14923">
        <ele>4.2</ele>
        <time>2026-08-13T13:14:53.000Z</time>
      </trkpt>
      <trkpt lat="45.84737" lon="-1.14968">
        <ele>4.1</ele>
        <time>2026-08-13T13:15:03.000Z</time>
      </trkpt>
      <trkpt lat="45.84747" lon="-1.15003">
        <ele>4.8</ele>
        <time>2026-08-13T13:15:10.000Z</time>
      </trkpt>
      <trkpt lat="45.84757" lon="-1.15047">
        <ele>4</ele>
        <time>2026-08-13T13:15:18.000Z</time>
      </trkpt>
      <trkpt lat="45.84771" lon="-1.15091">
        <ele>4</ele>
        <time>2026-08-13T13:15:27.000Z</time>
      </trkpt>
      <trkpt lat="45.84796" lon="-1.15128">
        <ele>4</ele>
        <time>2026-08-13T13:15:36.000Z</time>
      </trkpt>
      <trkpt lat="45.84821" lon="-1.15163">
        <ele>4</ele>
        <time>2026-08-13T13:15:45.000Z</time>
      </trkpt>
      <trkpt lat="45.84847" lon="-1.15204">
        <ele>5</ele>
        <time>2026-08-13T13:15:55.000Z</time>
      </trkpt>
      <trkpt lat="45.84857" lon="-1.15238">
        <ele>5</ele>
        <time>2026-08-13T13:16:02.000Z</time>
      </trkpt>
      <trkpt lat="45.84861" lon="-1.15276">
        <ele>5</ele>
        <time>2026-08-13T13:16:09.000Z</time>
      </trkpt>
      <trkpt lat="45.84862" lon="-1.15298">
        <ele>5</ele>
        <time>2026-08-13T13:16:12.000Z</time>
      </trkpt>
      <trkpt lat="45.84859" lon="-1.15333">
        <ele>5</ele>
        <time>2026-08-13T13:16:19.000Z</time>
      </trkpt>
      <trkpt lat="45.84857" lon="-1.15372">
        <ele>5.9</ele>
        <time>2026-08-13T13:16:28.000Z</time>
      </trkpt>
      <trkpt lat="45.84853" lon="-1.15428">
        <ele>5.7</ele>
        <time>2026-08-13T13:16:38.000Z</time>
      </trkpt>
      <trkpt lat="45.84857" lon="-1.15459">
        <ele>5.8</ele>
        <time>2026-08-13T13:16:44.000Z</time>
      </trkpt>
      <trkpt lat="45.84865" lon="-1.15493">
        <ele>6.2</ele>
        <time>2026-08-13T13:16:52.000Z</time>
      </trkpt>
      <trkpt lat="45.84865" lon="-1.15493">
        <ele>6.2</ele>
        <time>2026-08-13T13:16:55.000Z</time>
      </trkpt>
      <trkpt lat="45.84864" lon="-1.155">
        <ele>6.1</ele>
        <time>2026-08-13T13:17:00.000Z</time>
      </trkpt>
      <trkpt lat="45.84854" lon="-1.15511">
        <ele>5.7</ele>
        <time>2026-08-13T13:17:04.000Z</time>
      </trkpt>
      <trkpt lat="45.84826" lon="-1.15532">
        <ele>5.1</ele>
        <time>2026-08-13T13:17:11.000Z</time>
      </trkpt>
      <trkpt lat="45.84786" lon="-1.15561">
        <ele>4.2</ele>
        <time>2026-08-13T13:17:21.000Z</time>
      </trkpt>
      <trkpt lat="45.84771" lon="-1.15573">
        <ele>4.2</ele>
        <time>2026-08-13T13:17:25.000Z</time>
      </trkpt>
      <trkpt lat="45.8476" lon="-1.15582">
        <ele>4.6</ele>
        <time>2026-08-13T13:17:28.000Z</time>
      </trkpt>
      <trkpt lat="45.84735" lon="-1.15608">
        <ele>4</ele>
        <time>2026-08-13T13:17:35.000Z</time>
      </trkpt>
      <trkpt lat="45.84728" lon="-1.15616">
        <ele>4</ele>
        <time>2026-08-13T13:17:37.000Z</time>
      </trkpt>
      <trkpt lat="45.84717" lon="-1.15634">
        <ele>4.2</ele>
        <time>2026-08-13T13:17:41.000Z</time>
      </trkpt>
      <trkpt lat="45.84701" lon="-1.1566">
        <ele>4.8</ele>
        <time>2026-08-13T13:17:47.000Z</time>
      </trkpt>
      <trkpt lat="45.84682" lon="-1.15692">
        <ele>5</ele>
        <time>2026-08-13T13:17:54.000Z</time>
      </trkpt>
      <trkpt lat="45.84669" lon="-1.15721">
        <ele>5</ele>
        <time>2026-08-13T13:18:00.000Z</time>
      </trkpt>
      <trkpt lat="45.84665" lon="-1.15731">
        <ele>5</ele>
        <time>2026-08-13T13:18:02.000Z</time>
      </trkpt>
      <trkpt lat="45.84653" lon="-1.1577">
        <ele>5</ele>
        <time>2026-08-13T13:18:09.000Z</time>
      </trkpt>
      <trkpt lat="45.84653" lon="-1.15776">
        <ele>5</ele>
        <time>2026-08-13T13:18:10.000Z</time>
      </trkpt>
      <trkpt lat="45.84652" lon="-1.15781">
        <ele>4.9</ele>
        <time>2026-08-13T13:18:11.000Z</time>
      </trkpt>
      <trkpt lat="45.84646" lon="-1.15801">
        <ele>4.8</ele>
        <time>2026-08-13T13:18:15.000Z</time>
      </trkpt>
      <trkpt lat="45.84629" lon="-1.1584">
        <ele>5</ele>
        <time>2026-08-13T13:18:23.000Z</time>
      </trkpt>
      <trkpt lat="45.84624" lon="-1.15856">
        <ele>5</ele>
        <time>2026-08-13T13:18:26.000Z</time>
      </trkpt>
      <trkpt lat="45.84623" lon="-1.15868">
        <ele>4.9</ele>
        <time>2026-08-13T13:18:28.000Z</time>
      </trkpt>
      <trkpt lat="45.84623" lon="-1.15875">
        <ele>4.8</ele>
        <time>2026-08-13T13:18:29.000Z</time>
      </trkpt>
      <trkpt lat="45.84619" lon="-1.15905">
        <ele>4.7</ele>
        <time>2026-08-13T13:18:34.000Z</time>
      </trkpt>
      <trkpt lat="45.84616" lon="-1.15927">
        <ele>4.8</ele>
        <time>2026-08-13T13:18:38.000Z</time>
      </trkpt>
      <trkpt lat="45.84613" lon="-1.15942">
        <ele>4.9</ele>
        <time>2026-08-13T13:18:41.000Z</time>
      </trkpt>
      <trkpt lat="45.84608" lon="-1.15991">
        <ele>4</ele>
        <time>2026-08-13T13:18:50.000Z</time>
      </trkpt>
      <trkpt lat="45.84604" lon="-1.16036">
        <ele>4</ele>
        <time>2026-08-13T13:18:58.000Z</time>
      </trkpt>
      <trkpt lat="45.84602" lon="-1.16091">
        <ele>4.3</ele>
        <time>2026-08-13T13:19:09.000Z</time>
      </trkpt>
      <trkpt lat="45.84606" lon="-1.16119">
        <ele>4.2</ele>
        <time>2026-08-13T13:19:15.000Z</time>
      </trkpt>
      <trkpt lat="45.8462" lon="-1.1615">
        <ele>4</ele>
        <time>2026-08-13T13:19:22.000Z</time>
      </trkpt>
      <trkpt lat="45.84638" lon="-1.16183">
        <ele>4</ele>
        <time>2026-08-13T13:19:30.000Z</time>
      </trkpt>
      <trkpt lat="45.84646" lon="-1.16209">
        <ele>4</ele>
        <time>2026-08-13T13:19:36.000Z</time>
      </trkpt>
      <trkpt lat="45.84643" lon="-1.16216">
        <ele>4</ele>
        <time>2026-08-13T13:19:38.000Z</time>
      </trkpt>
      <trkpt lat="45.8464" lon="-1.16218">
        <ele>4</ele>
        <time>2026-08-13T13:19:39.000Z</time>
      </trkpt>
      <trkpt lat="45.84627" lon="-1.16225">
        <ele>4.4</ele>
        <time>2026-08-13T13:19:44.000Z</time>
      </trkpt>
      <trkpt lat="45.84625" lon="-1.16229">
        <ele>4.5</ele>
        <time>2026-08-13T13:19:45.000Z</time>
      </trkpt>
      <trkpt lat="45.84623" lon="-1.16242">
        <ele>4.6</ele>
        <time>2026-08-13T13:19:48.000Z</time>
      </trkpt>
      <trkpt lat="45.84622" lon="-1.16247">
        <ele>4.6</ele>
        <time>2026-08-13T13:19:49.000Z</time>
      </trkpt>
      <trkpt lat="45.84619" lon="-1.1627">
        <ele>4.7</ele>
        <time>2026-08-13T13:19:54.000Z</time>
      </trkpt>
      <trkpt lat="45.8461" lon="-1.16293">
        <ele>5.1</ele>
        <time>2026-08-13T13:20:00.000Z</time>
      </trkpt>
      <trkpt lat="45.84605" lon="-1.16299">
        <ele>5.2</ele>
        <time>2026-08-13T13:20:02.000Z</time>
      </trkpt>
      <trkpt lat="45.84603" lon="-1.16308">
        <ele>5.3</ele>
        <time>2026-08-13T13:20:04.000Z</time>
      </trkpt>
      <trkpt lat="45.84601" lon="-1.16348">
        <ele>5.3</ele>
        <time>2026-08-13T13:20:12.000Z</time>
      </trkpt>
      <trkpt lat="45.84601" lon="-1.16353">
        <ele>5.4</ele>
        <time>2026-08-13T13:20:13.000Z</time>
      </trkpt>
      <trkpt lat="45.84597" lon="-1.1637">
        <ele>5.5</ele>
        <time>2026-08-13T13:20:19.000Z</time>
      </trkpt>
      <trkpt lat="45.84597" lon="-1.1637">
        <ele>5.5</ele>
        <time>2026-08-13T13:20:21.000Z</time>
      </trkpt>
      <trkpt lat="45.84593" lon="-1.16379">
        <ele>5.6</ele>
        <time>2026-08-13T13:22:41.000Z</time>
      </trkpt>
      <trkpt lat="45.84589" lon="-1.16399">
        <ele>5.7</ele>
        <time>2026-08-13T13:22:47.000Z</time>
      </trkpt>
      <trkpt lat="45.84586" lon="-1.16428">
        <ele>5.7</ele>
        <time>2026-08-13T13:22:54.000Z</time>
      </trkpt>
      <trkpt lat="45.84584" lon="-1.1647">
        <ele>5.9</ele>
        <time>2026-08-13T13:23:03.000Z</time>
      </trkpt>
      <trkpt lat="45.84584" lon="-1.16488">
        <ele>6</ele>
        <time>2026-08-13T13:23:07.000Z</time>
      </trkpt>
      <trkpt lat="45.84582" lon="-1.16518">
        <ele>5.9</ele>
        <time>2026-08-13T13:23:13.000Z</time>
      </trkpt>
      <trkpt lat="45.84582" lon="-1.16565">
        <ele>6.8</ele>
        <time>2026-08-13T13:23:22.000Z</time>
      </trkpt>
      <trkpt lat="45.84583" lon="-1.16602">
        <ele>7</ele>
        <time>2026-08-13T13:23:30.000Z</time>
      </trkpt>
      <trkpt lat="45.84586" lon="-1.16634">
        <ele>5.9</ele>
        <time>2026-08-13T13:23:38.000Z</time>
      </trkpt>
      <trkpt lat="45.84587" lon="-1.16638">
        <ele>5.7</ele>
        <time>2026-08-13T13:23:39.000Z</time>
      </trkpt>
      <trkpt lat="45.84592" lon="-1.16678">
        <ele>3.7</ele>
        <time>2026-08-13T13:23:48.000Z</time>
      </trkpt>
      <trkpt lat="45.84598" lon="-1.16716">
        <ele>3.5</ele>
        <time>2026-08-13T13:23:55.000Z</time>
      </trkpt>
      <trkpt lat="45.84602" lon="-1.16738">
        <ele>2.5</ele>
        <time>2026-08-13T13:24:00.000Z</time>
      </trkpt>
      <trkpt lat="45.84608" lon="-1.16767">
        <ele>1.1</ele>
        <time>2026-08-13T13:24:07.000Z</time>
      </trkpt>
      <trkpt lat="45.84616" lon="-1.16797">
        <ele>1</ele>
        <time>2026-08-13T13:24:14.000Z</time>
      </trkpt>
      <trkpt lat="45.8462" lon="-1.16811">
        <ele>1</ele>
        <time>2026-08-13T13:24:17.000Z</time>
      </trkpt>
      <trkpt lat="45.84629" lon="-1.16839">
        <ele>12</ele>
        <time>2026-08-13T13:24:24.000Z</time>
      </trkpt>
      <trkpt lat="45.84642" lon="-1.16874">
        <ele>12.199999809265</ele>
        <time>2026-08-13T13:24:33.000Z</time>
      </trkpt>
      <trkpt lat="45.84655" lon="-1.16906">
        <ele>12.60000038147</ele>
        <time>2026-08-13T13:24:41.000Z</time>
      </trkpt>
      <trkpt lat="45.84664" lon="-1.16925">
        <ele>12.800000190735</ele>
        <time>2026-08-13T13:24:46.000Z</time>
      </trkpt>
      <trkpt lat="45.84673" lon="-1.16944">
        <ele>13</ele>
        <time>2026-08-13T13:24:51.000Z</time>
      </trkpt>
      <trkpt lat="45.84691" lon="-1.16977">
        <ele>13.60000038147</ele>
        <time>2026-08-13T13:25:01.000Z</time>
      </trkpt>
      <trkpt lat="45.84703" lon="-1.16996">
        <ele>14</ele>
        <time>2026-08-13T13:25:07.000Z</time>
      </trkpt>
      <trkpt lat="45.84709" lon="-1.17006">
        <ele>14.199999809265</ele>
        <time>2026-08-13T13:25:10.000Z</time>
      </trkpt>
      <trkpt lat="45.84726" lon="-1.17034">
        <ele>14.60000038147</ele>
        <time>2026-08-13T13:25:19.000Z</time>
      </trkpt>
      <trkpt lat="45.84736" lon="-1.17052">
        <ele>15</ele>
        <time>2026-08-13T13:25:24.000Z</time>
      </trkpt>
      <trkpt lat="45.84742" lon="-1.17062">
        <ele>15.199999809265</ele>
        <time>2026-08-13T13:25:27.000Z</time>
      </trkpt>
      <trkpt lat="45.84759" lon="-1.17089">
        <ele>15.60000038147</ele>
        <time>2026-08-13T13:25:35.000Z</time>
      </trkpt>
      <trkpt lat="45.84777" lon="-1.17119">
        <ele>16</ele>
        <time>2026-08-13T13:25:44.000Z</time>
      </trkpt>
      <trkpt lat="45.8478" lon="-1.17123">
        <ele>16</ele>
        <time>2026-08-13T13:25:45.000Z</time>
      </trkpt>
      <trkpt lat="45.84788" lon="-1.17137">
        <ele>16.200000762939</ele>
        <time>2026-08-13T13:25:50.000Z</time>
      </trkpt>
      <trkpt lat="45.84807" lon="-1.17168">
        <ele>16.799999237061</ele>
        <time>2026-08-13T13:26:00.000Z</time>
      </trkpt>
      <trkpt lat="45.84814" lon="-1.17181">
        <ele>17</ele>
        <time>2026-08-13T13:26:04.000Z</time>
      </trkpt>
      <trkpt lat="45.84824" lon="-1.17197">
        <ele>17.200000762939</ele>
        <time>2026-08-13T13:26:09.000Z</time>
      </trkpt>
      <trkpt lat="45.84843" lon="-1.17229">
        <ele>17.799999237061</ele>
        <time>2026-08-13T13:26:19.000Z</time>
      </trkpt>
      <trkpt lat="45.84861" lon="-1.17258">
        <ele>18.200000762939</ele>
        <time>2026-08-13T13:26:28.000Z</time>
      </trkpt>
      <trkpt lat="45.84879" lon="-1.17289">
        <ele>18.60000038147</ele>
        <time>2026-08-13T13:26:37.000Z</time>
      </trkpt>
      <trkpt lat="45.84896" lon="-1.17316">
        <ele>19.200000762939</ele>
        <time>2026-08-13T13:26:45.000Z</time>
      </trkpt>
      <trkpt lat="45.84899" lon="-1.1732">
        <ele>19.200000762939</ele>
        <time>2026-08-13T13:26:46.000Z</time>
      </trkpt>
      <trkpt lat="45.84923" lon="-1.17359">
        <ele>19.60000038147</ele>
        <time>2026-08-13T13:26:57.000Z</time>
      </trkpt>
      <trkpt lat="45.84941" lon="-1.17391">
        <ele>20</ele>
        <time>2026-08-13T13:27:06.000Z</time>
      </trkpt>
      <trkpt lat="45.84959" lon="-1.1742">
        <ele>20.39999961853</ele>
        <time>2026-08-13T13:27:14.000Z</time>
      </trkpt>
      <trkpt lat="45.84961" lon="-1.17423">
        <ele>20.39999961853</ele>
        <time>2026-08-13T13:27:15.000Z</time>
      </trkpt>
      <trkpt lat="45.84976" lon="-1.17449">
        <ele>21</ele>
        <time>2026-08-13T13:27:22.000Z</time>
      </trkpt>
      <trkpt lat="45.85" lon="-1.17488">
        <ele>21.200000762939</ele>
        <time>2026-08-13T13:27:32.000Z</time>
      </trkpt>
      <trkpt lat="45.85003" lon="-1.17495">
        <ele>21.39999961853</ele>
        <time>2026-08-13T13:27:34.000Z</time>
      </trkpt>
      <trkpt lat="45.85018" lon="-1.17519">
        <ele>21.60000038147</ele>
        <time>2026-08-13T13:27:40.000Z</time>
      </trkpt>
      <trkpt lat="45.8504" lon="-1.17555">
        <ele>22</ele>
        <time>2026-08-13T13:27:49.000Z</time>
      </trkpt>
      <trkpt lat="45.85056" lon="-1.17581">
        <ele>22.39999961853</ele>
        <time>2026-08-13T13:27:56.000Z</time>
      </trkpt>
      <trkpt lat="45.8507" lon="-1.17603">
        <ele>22.60000038147</ele>
        <time>2026-08-13T13:28:02.000Z</time>
      </trkpt>
      <trkpt lat="45.85096" lon="-1.17648">
        <ele>23.200000762939</ele>
        <time>2026-08-13T13:28:13.000Z</time>
      </trkpt>
      <trkpt lat="45.85115" lon="-1.17678">
        <ele>23.39999961853</ele>
        <time>2026-08-13T13:28:20.000Z</time>
      </trkpt>
      <trkpt lat="45.85122" lon="-1.1769">
        <ele>23.39999961853</ele>
        <time>2026-08-13T13:28:23.000Z</time>
      </trkpt>
      <trkpt lat="45.85146" lon="-1.1773">
        <ele>23.799999237061</ele>
        <time>2026-08-13T13:28:33.000Z</time>
      </trkpt>
      <trkpt lat="45.85168" lon="-1.17764">
        <ele>24.200000762939</ele>
        <time>2026-08-13T13:28:43.000Z</time>
      </trkpt>
      <trkpt lat="45.85184" lon="-1.17792">
        <ele>24.60000038147</ele>
        <time>2026-08-13T13:28:52.000Z</time>
      </trkpt>
      <trkpt lat="45.8519" lon="-1.17801">
        <ele>24.60000038147</ele>
        <time>2026-08-13T13:28:55.000Z</time>
      </trkpt>
      <trkpt lat="45.85205" lon="-1.17826">
        <ele>25</ele>
        <time>2026-08-13T13:29:03.000Z</time>
      </trkpt>
      <trkpt lat="45.85224" lon="-1.17859">
        <ele>25.200000762939</ele>
        <time>2026-08-13T13:29:12.000Z</time>
      </trkpt>
      <trkpt lat="45.85236" lon="-1.17879">
        <ele>25.200000762939</ele>
        <time>2026-08-13T13:29:18.000Z</time>
      </trkpt>
      <trkpt lat="45.85253" lon="-1.17908">
        <ele>25.39999961853</ele>
        <time>2026-08-13T13:29:26.000Z</time>
      </trkpt>
      <trkpt lat="45.85271" lon="-1.17938">
        <ele>25.39999961853</ele>
        <time>2026-08-13T13:29:34.000Z</time>
      </trkpt>
      <trkpt lat="45.85298" lon="-1.17982">
        <ele>25.39999961853</ele>
        <time>2026-08-13T13:29:45.000Z</time>
      </trkpt>
      <trkpt lat="45.85322" lon="-1.18021">
        <ele>25.39999961853</ele>
        <time>2026-08-13T13:29:55.000Z</time>
      </trkpt>
      <trkpt lat="45.85345" lon="-1.1806">
        <ele>25.60000038147</ele>
        <time>2026-08-13T13:30:05.000Z</time>
      </trkpt>
      <trkpt lat="45.85368" lon="-1.181">
        <ele>25.39999961853</ele>
        <time>2026-08-13T13:30:15.000Z</time>
      </trkpt>
      <trkpt lat="45.85391" lon="-1.18137">
        <ele>25.39999961853</ele>
        <time>2026-08-13T13:30:24.000Z</time>
      </trkpt>
      <trkpt lat="45.85413" lon="-1.18171">
        <ele>25.39999961853</ele>
        <time>2026-08-13T13:30:33.000Z</time>
      </trkpt>
      <trkpt lat="45.85414" lon="-1.18173">
        <ele>25.39999961853</ele>
        <time>2026-08-13T13:30:36.000Z</time>
      </trkpt>
      <trkpt lat="45.85414" lon="-1.18173">
        <ele>25.39999961853</ele>
        <time>2026-08-13T13:30:37.000Z</time>
      </trkpt>
      <trkpt lat="45.85417" lon="-1.18178">
        <ele>25.200000762939</ele>
        <time>2026-08-13T13:30:49.000Z</time>
      </trkpt>
      <trkpt lat="45.85418" lon="-1.18179">
        <ele>25.200000762939</ele>
        <time>2026-08-13T13:30:51.000Z</time>
      </trkpt>
      <trkpt lat="45.85418" lon="-1.18179">
        <ele>25.200000762939</ele>
        <time>2026-08-13T13:30:52.000Z</time>
      </trkpt>
      <trkpt lat="45.8542" lon="-1.18185">
        <ele>25.39999961853</ele>
        <time>2026-08-13T13:31:12.000Z</time>
      </trkpt>
      <trkpt lat="45.85424" lon="-1.1819">
        <ele>25.39999961853</ele>
        <time>2026-08-13T13:31:14.000Z</time>
      </trkpt>
      <trkpt lat="45.85436" lon="-1.18211">
        <ele>25</ele>
        <time>2026-08-13T13:31:20.000Z</time>
      </trkpt>
      <trkpt lat="45.85451" lon="-1.18234">
        <ele>25.39999961853</ele>
        <time>2026-08-13T13:31:26.000Z</time>
      </trkpt>
      <trkpt lat="45.85477" lon="-1.18277">
        <ele>25</ele>
        <time>2026-08-13T13:31:37.000Z</time>
      </trkpt>
      <trkpt lat="45.85501" lon="-1.18319">
        <ele>25</ele>
        <time>2026-08-13T13:31:47.000Z</time>
      </trkpt>
      <trkpt lat="45.85533" lon="-1.18372">
        <ele>25</ele>
        <time>2026-08-13T13:31:59.000Z</time>
      </trkpt>
      <trkpt lat="45.85553" lon="-1.18404">
        <ele>24.60000038147</ele>
        <time>2026-08-13T13:32:06.000Z</time>
      </trkpt>
      <trkpt lat="45.85577" lon="-1.18445">
        <ele>24.39999961853</ele>
        <time>2026-08-13T13:32:14.000Z</time>
      </trkpt>
      <trkpt lat="45.85607" lon="-1.18494">
        <ele>24</ele>
        <time>2026-08-13T13:32:24.000Z</time>
      </trkpt>
      <trkpt lat="45.85622" lon="-1.1852">
        <ele>23.799999237061</ele>
        <time>2026-08-13T13:32:29.000Z</time>
      </trkpt>
      <trkpt lat="45.85641" lon="-1.18551">
        <ele>23.39999961853</ele>
        <time>2026-08-13T13:32:35.000Z</time>
      </trkpt>
      <trkpt lat="45.8567" lon="-1.18599">
        <ele>23</ele>
        <time>2026-08-13T13:32:44.000Z</time>
      </trkpt>
      <trkpt lat="45.85688" lon="-1.18629">
        <ele>22.60000038147</ele>
        <time>2026-08-13T13:32:50.000Z</time>
      </trkpt>
      <trkpt lat="45.85703" lon="-1.18654">
        <ele>22.60000038147</ele>
        <time>2026-08-13T13:32:55.000Z</time>
      </trkpt>
      <trkpt lat="45.85732" lon="-1.18702">
        <ele>22.200000762939</ele>
        <time>2026-08-13T13:33:04.000Z</time>
      </trkpt>
      <trkpt lat="45.85751" lon="-1.18734">
        <ele>21.60000038147</ele>
        <time>2026-08-13T13:33:10.000Z</time>
      </trkpt>
      <trkpt lat="45.85761" lon="-1.18749">
        <ele>21.39999961853</ele>
        <time>2026-08-13T13:33:13.000Z</time>
      </trkpt>
      <trkpt lat="45.85792" lon="-1.18802">
        <ele>20.799999237061</ele>
        <time>2026-08-13T13:33:23.000Z</time>
      </trkpt>
      <trkpt lat="45.85799" lon="-1.18813">
        <ele>20.60000038147</ele>
        <time>2026-08-13T13:33:25.000Z</time>
      </trkpt>
      <trkpt lat="45.85829" lon="-1.18863">
        <ele>20.39999961853</ele>
        <time>2026-08-13T13:33:34.000Z</time>
      </trkpt>
      <trkpt lat="45.85857" lon="-1.18909">
        <ele>19.799999237061</ele>
        <time>2026-08-13T13:33:42.000Z</time>
      </trkpt>
      <trkpt lat="45.85867" lon="-1.18927">
        <ele>19.60000038147</ele>
        <time>2026-08-13T13:33:45.000Z</time>
      </trkpt>
      <trkpt lat="45.85894" lon="-1.18971">
        <ele>19.200000762939</ele>
        <time>2026-08-13T13:33:53.000Z</time>
      </trkpt>
      <trkpt lat="45.85907" lon="-1.18992">
        <ele>18.799999237061</ele>
        <time>2026-08-13T13:33:57.000Z</time>
      </trkpt>
      <trkpt lat="45.85923" lon="-1.19019">
        <ele>18.39999961853</ele>
        <time>2026-08-13T13:34:02.000Z</time>
      </trkpt>
      <trkpt lat="45.85939" lon="-1.19045">
        <ele>17.799999237061</ele>
        <time>2026-08-13T13:34:07.000Z</time>
      </trkpt>
      <trkpt lat="45.85956" lon="-1.19072">
        <ele>17.39999961853</ele>
        <time>2026-08-13T13:34:12.000Z</time>
      </trkpt>
      <trkpt lat="45.85972" lon="-1.191">
        <ele>16.799999237061</ele>
        <time>2026-08-13T13:34:17.000Z</time>
      </trkpt>
      <trkpt lat="45.85992" lon="-1.19134">
        <ele>16.39999961853</ele>
        <time>2026-08-13T13:34:23.000Z</time>
      </trkpt>
      <trkpt lat="45.86013" lon="-1.19167">
        <ele>15.800000190735</ele>
        <time>2026-08-13T13:34:29.000Z</time>
      </trkpt>
      <trkpt lat="45.86023" lon="-1.19184">
        <ele>15.39999961853</ele>
        <time>2026-08-13T13:34:32.000Z</time>
      </trkpt>
      <trkpt lat="45.86047" lon="-1.19225">
        <ele>14.800000190735</ele>
        <time>2026-08-13T13:34:39.000Z</time>
      </trkpt>
      <trkpt lat="45.86061" lon="-1.19247">
        <ele>14.199999809265</ele>
        <time>2026-08-13T13:34:43.000Z</time>
      </trkpt>
      <trkpt lat="45.86085" lon="-1.19288">
        <ele>13.800000190735</ele>
        <time>2026-08-13T13:34:51.000Z</time>
      </trkpt>
      <trkpt lat="45.86113" lon="-1.19334">
        <ele>13.199999809265</ele>
        <time>2026-08-13T13:35:00.000Z</time>
      </trkpt>
      <trkpt lat="45.86132" lon="-1.19365">
        <ele>12.800000190735</ele>
        <time>2026-08-13T13:35:06.000Z</time>
      </trkpt>
      <trkpt lat="45.86139" lon="-1.19376">
        <ele>12.60000038147</ele>
        <time>2026-08-13T13:35:08.000Z</time>
      </trkpt>
      <trkpt lat="45.86166" lon="-1.19422">
        <ele>1</ele>
        <time>2026-08-13T13:35:17.000Z</time>
      </trkpt>
      <trkpt lat="45.86175" lon="-1.19437">
        <ele>1</ele>
        <time>2026-08-13T13:35:20.000Z</time>
      </trkpt>
      <trkpt lat="45.86199" lon="-1.19476">
        <ele>1.1</ele>
        <time>2026-08-13T13:35:27.000Z</time>
      </trkpt>
      <trkpt lat="45.86222" lon="-1.19515">
        <ele>5</ele>
        <time>2026-08-13T13:35:34.000Z</time>
      </trkpt>
      <trkpt lat="45.86229" lon="-1.19526">
        <ele>5</ele>
        <time>2026-08-13T13:35:36.000Z</time>
      </trkpt>
      <trkpt lat="45.86244" lon="-1.19552">
        <ele>4.5</ele>
        <time>2026-08-13T13:35:41.000Z</time>
      </trkpt>
      <trkpt lat="45.8627" lon="-1.19593">
        <ele>5</ele>
        <time>2026-08-13T13:35:50.000Z</time>
      </trkpt>
      <trkpt lat="45.86297" lon="-1.19638">
        <ele>4.3</ele>
        <time>2026-08-13T13:35:59.000Z</time>
      </trkpt>
      <trkpt lat="45.86313" lon="-1.19665">
        <ele>4.7</ele>
        <time>2026-08-13T13:36:04.000Z</time>
      </trkpt>
      <trkpt lat="45.86334" lon="-1.19696">
        <ele>5</ele>
        <time>2026-08-13T13:36:10.000Z</time>
      </trkpt>
      <trkpt lat="45.86338" lon="-1.197">
        <ele>4.9</ele>
        <time>2026-08-13T13:36:11.000Z</time>
      </trkpt>
      <trkpt lat="45.86355" lon="-1.1972">
        <ele>4.9</ele>
        <time>2026-08-13T13:36:16.000Z</time>
      </trkpt>
      <trkpt lat="45.86369" lon="-1.19732">
        <ele>4.7</ele>
        <time>2026-08-13T13:36:21.000Z</time>
      </trkpt>
      <trkpt lat="45.86376" lon="-1.19734">
        <ele>4.5</ele>
        <time>2026-08-13T13:36:23.000Z</time>
      </trkpt>
      <trkpt lat="45.86385" lon="-1.1974">
        <ele>4.1</ele>
        <time>2026-08-13T13:36:26.000Z</time>
      </trkpt>
      <trkpt lat="45.86392" lon="-1.19748">
        <ele>4</ele>
        <time>2026-08-13T13:36:30.000Z</time>
      </trkpt>
      <trkpt lat="45.86392" lon="-1.19749">
        <ele>4</ele>
        <time>2026-08-13T13:36:33.000Z</time>
      </trkpt>
      <trkpt lat="45.86398" lon="-1.19751">
        <ele>4</ele>
        <time>2026-08-13T13:40:03.000Z</time>
      </trkpt>
      <trkpt lat="45.86406" lon="-1.19765">
        <ele>4</ele>
        <time>2026-08-13T13:40:09.000Z</time>
      </trkpt>
      <trkpt lat="45.86414" lon="-1.19783">
        <ele>4</ele>
        <time>2026-08-13T13:40:16.000Z</time>
      </trkpt>
      <trkpt lat="45.86418" lon="-1.19801">
        <ele>4</ele>
        <time>2026-08-13T13:40:23.000Z</time>
      </trkpt>
      <trkpt lat="45.86425" lon="-1.19822">
        <ele>4</ele>
        <time>2026-08-13T13:40:29.000Z</time>
      </trkpt>
      <trkpt lat="45.86436" lon="-1.19846">
        <ele>4</ele>
        <time>2026-08-13T13:40:35.000Z</time>
      </trkpt>
      <trkpt lat="45.86456" lon="-1.1988">
        <ele>4</ele>
        <time>2026-08-13T13:40:43.000Z</time>
      </trkpt>
      <trkpt lat="45.86484" lon="-1.19924">
        <ele>4</ele>
        <time>2026-08-13T13:40:53.000Z</time>
      </trkpt>
      <trkpt lat="45.86507" lon="-1.19962">
        <ele>3.9</ele>
        <time>2026-08-13T13:41:02.000Z</time>
      </trkpt>
      <trkpt lat="45.86517" lon="-1.19977">
        <ele>4</ele>
        <time>2026-08-13T13:41:07.000Z</time>
      </trkpt>
      <trkpt lat="45.86525" lon="-1.19996">
        <ele>4</ele>
        <time>2026-08-13T13:41:13.000Z</time>
      </trkpt>
      <trkpt lat="45.86528" lon="-1.2">
        <ele>4</ele>
        <time>2026-08-13T13:41:14.000Z</time>
      </trkpt>
      <trkpt lat="45.86533" lon="-1.20011">
        <ele>4</ele>
        <time>2026-08-13T13:41:16.000Z</time>
      </trkpt>
      <trkpt lat="45.86536" lon="-1.20017">
        <ele>4</ele>
        <time>2026-08-13T13:41:17.000Z</time>
      </trkpt>
      <trkpt lat="45.86539" lon="-1.20023">
        <ele>4</ele>
        <time>2026-08-13T13:41:18.000Z</time>
      </trkpt>
      <trkpt lat="45.86548" lon="-1.20045">
        <ele>4</ele>
        <time>2026-08-13T13:41:22.000Z</time>
      </trkpt>
      <trkpt lat="45.86556" lon="-1.20064">
        <ele>4</ele>
        <time>2026-08-13T13:41:26.000Z</time>
      </trkpt>
      <trkpt lat="45.86556" lon="-1.20068">
        <ele>4</ele>
        <time>2026-08-13T13:41:27.000Z</time>
      </trkpt>
      <trkpt lat="45.86549" lon="-1.20079">
        <ele>4</ele>
        <time>2026-08-13T13:41:31.000Z</time>
      </trkpt>
      <trkpt lat="45.86548" lon="-1.2008">
        <ele>4</ele>
        <time>2026-08-13T13:41:33.000Z</time>
      </trkpt>
      <trkpt lat="45.86547" lon="-1.20081">
        <ele>4</ele>
        <time>2026-08-13T13:41:35.000Z</time>
      </trkpt>
      <trkpt lat="45.86538" lon="-1.20088">
        <ele>3.8</ele>
        <time>2026-08-13T13:41:41.000Z</time>
      </trkpt>
      <trkpt lat="45.86523" lon="-1.20096">
        <ele>3.4</ele>
        <time>2026-08-13T13:41:47.000Z</time>
      </trkpt>
      <trkpt lat="45.86501" lon="-1.20111">
        <ele>3</ele>
        <time>2026-08-13T13:41:54.000Z</time>
      </trkpt>
      <trkpt lat="45.86489" lon="-1.20118">
        <ele>3</ele>
        <time>2026-08-13T13:41:58.000Z</time>
      </trkpt>
      <trkpt lat="45.86477" lon="-1.20126">
        <ele>3</ele>
        <time>2026-08-13T13:42:02.000Z</time>
      </trkpt>
      <trkpt lat="45.86455" lon="-1.2014">
        <ele>3</ele>
        <time>2026-08-13T13:42:09.000Z</time>
      </trkpt>
      <trkpt lat="45.8643" lon="-1.20153">
        <ele>3</ele>
        <time>2026-08-13T13:42:16.000Z</time>
      </trkpt>
      <trkpt lat="45.86417" lon="-1.2017">
        <ele>3.1</ele>
        <time>2026-08-13T13:42:21.000Z</time>
      </trkpt>
      <trkpt lat="45.8641" lon="-1.20189">
        <ele>3.6</ele>
        <time>2026-08-13T13:42:26.000Z</time>
      </trkpt>
      <trkpt lat="45.86413" lon="-1.20212">
        <ele>3.8</ele>
        <time>2026-08-13T13:42:31.000Z</time>
      </trkpt>
      <trkpt lat="45.86422" lon="-1.20243">
        <ele>3.2</ele>
        <time>2026-08-13T13:42:37.000Z</time>
      </trkpt>
      <trkpt lat="45.86419" lon="-1.20265">
        <ele>3</ele>
        <time>2026-08-13T13:42:41.000Z</time>
      </trkpt>
      <trkpt lat="45.8641" lon="-1.20286">
        <ele>2.5</ele>
        <time>2026-08-13T13:42:46.000Z</time>
      </trkpt>
      <trkpt lat="45.86412" lon="-1.20301">
        <ele>2</ele>
        <time>2026-08-13T13:42:50.000Z</time>
      </trkpt>
      <trkpt lat="45.86415" lon="-1.20303">
        <ele>2</ele>
        <time>2026-08-13T13:42:51.000Z</time>
      </trkpt>
      <trkpt lat="45.8642" lon="-1.20307">
        <ele>2.1</ele>
        <time>2026-08-13T13:42:53.000Z</time>
      </trkpt>
      <trkpt lat="45.86426" lon="-1.20317">
        <ele>2.2</ele>
        <time>2026-08-13T13:42:56.000Z</time>
      </trkpt>
      <trkpt lat="45.86429" lon="-1.20318">
        <ele>2.2</ele>
        <time>2026-08-13T13:42:57.000Z</time>
      </trkpt>
      <trkpt lat="45.86435" lon="-1.20321">
        <ele>2.3</ele>
        <time>2026-08-13T13:43:00.000Z</time>
      </trkpt>
      <trkpt lat="45.86435" lon="-1.20324">
        <ele>2.2</ele>
        <time>2026-08-13T13:43:01.000Z</time>
      </trkpt>
      <trkpt lat="45.86432" lon="-1.20335">
        <ele>2</ele>
        <time>2026-08-13T13:43:06.000Z</time>
      </trkpt>
      <trkpt lat="45.86428" lon="-1.20342">
        <ele>2.2</ele>
        <time>2026-08-13T13:43:11.000Z</time>
      </trkpt>
      <trkpt lat="45.86418" lon="-1.20358">
        <ele>2.8</ele>
        <time>2026-08-13T13:43:17.000Z</time>
      </trkpt>
      <trkpt lat="45.86409" lon="-1.20381">
        <ele>2.5</ele>
        <time>2026-08-13T13:43:24.000Z</time>
      </trkpt>
      <trkpt lat="45.86408" lon="-1.20407">
        <ele>2.6</ele>
        <time>2026-08-13T13:43:31.000Z</time>
      </trkpt>
      <trkpt lat="45.86407" lon="-1.2041">
        <ele>2.6</ele>
        <time>2026-08-13T13:43:32.000Z</time>
      </trkpt>
      <trkpt lat="45.86409" lon="-1.20429">
        <ele>2.8</ele>
        <time>2026-08-13T13:43:37.000Z</time>
      </trkpt>
      <trkpt lat="45.86409" lon="-1.2045">
        <ele>3</ele>
        <time>2026-08-13T13:43:43.000Z</time>
      </trkpt>
      <trkpt lat="45.86413" lon="-1.20468">
        <ele>3</ele>
        <time>2026-08-13T13:43:48.000Z</time>
      </trkpt>
      <trkpt lat="45.86413" lon="-1.20491">
        <ele>3</ele>
        <time>2026-08-13T13:43:55.000Z</time>
      </trkpt>
      <trkpt lat="45.86413" lon="-1.20497">
        <ele>3</ele>
        <time>2026-08-13T13:44:00.000Z</time>
      </trkpt>
      <trkpt lat="45.86418" lon="-1.20504">
        <ele>2.9</ele>
        <time>2026-08-13T13:45:05.000Z</time>
      </trkpt>
      <trkpt lat="45.86419" lon="-1.20511">
        <ele>2.7</ele>
        <time>2026-08-13T13:45:08.000Z</time>
      </trkpt>
      <trkpt lat="45.8642" lon="-1.20513">
        <ele>2.6</ele>
        <time>2026-08-13T13:45:09.000Z</time>
      </trkpt>
      <trkpt lat="45.86419" lon="-1.20514">
        <ele>2.5</ele>
        <time>2026-08-13T13:45:11.000Z</time>
      </trkpt>
      <trkpt lat="45.86418" lon="-1.20514">
        <ele>2.5</ele>
        <time>2026-08-13T13:45:12.000Z</time>
      </trkpt>
      <trkpt lat="45.86416" lon="-1.20512">
        <ele>2.6</ele>
        <time>2026-08-13T13:45:17.000Z</time>
      </trkpt>
      <trkpt lat="45.86422" lon="-1.20512">
        <ele>2.6</ele>
        <time>2026-08-13T13:45:46.000Z</time>
      </trkpt>
      <trkpt lat="45.86426" lon="-1.20525">
        <ele>2.4</ele>
        <time>2026-08-13T13:45:51.000Z</time>
      </trkpt>
      <trkpt lat="45.86433" lon="-1.20549">
        <ele>2.1</ele>
        <time>2026-08-13T13:45:58.000Z</time>
      </trkpt>
      <trkpt lat="45.86439" lon="-1.20575">
        <ele>2.7</ele>
        <time>2026-08-13T13:46:05.000Z</time>
      </trkpt>
      <trkpt lat="45.86448" lon="-1.20613">
        <ele>3.7</ele>
        <time>2026-08-13T13:46:15.000Z</time>
      </trkpt>
      <trkpt lat="45.86461" lon="-1.20657">
        <ele>2.5</ele>
        <time>2026-08-13T13:46:26.000Z</time>
      </trkpt>
      <trkpt lat="45.86474" lon="-1.20686">
        <ele>3</ele>
        <time>2026-08-13T13:46:34.000Z</time>
      </trkpt>
      <trkpt lat="45.86487" lon="-1.20709">
        <ele>2.5</ele>
        <time>2026-08-13T13:46:41.000Z</time>
      </trkpt>
      <trkpt lat="45.86491" lon="-1.20716">
        <ele>2.9</ele>
        <time>2026-08-13T13:46:43.000Z</time>
      </trkpt>
      <trkpt lat="45.86514" lon="-1.20746">
        <ele>2.2</ele>
        <time>2026-08-13T13:46:53.000Z</time>
      </trkpt>
      <trkpt lat="45.86528" lon="-1.20755">
        <ele>2.7</ele>
        <time>2026-08-13T13:46:58.000Z</time>
      </trkpt>
      <trkpt lat="45.86545" lon="-1.2077">
        <ele>2.3</ele>
        <time>2026-08-13T13:47:05.000Z</time>
      </trkpt>
      <trkpt lat="45.86556" lon="-1.20769">
        <ele>2.7</ele>
        <time>2026-08-13T13:47:09.000Z</time>
      </trkpt>
      <trkpt lat="45.86565" lon="-1.20787">
        <ele>3</ele>
        <time>2026-08-13T13:47:14.000Z</time>
      </trkpt>
      <trkpt lat="45.86583" lon="-1.20806">
        <ele>3</ele>
        <time>2026-08-13T13:47:21.000Z</time>
      </trkpt>
      <trkpt lat="45.8661" lon="-1.2083">
        <ele>3</ele>
        <time>2026-08-13T13:47:31.000Z</time>
      </trkpt>
      <trkpt lat="45.86636" lon="-1.20846">
        <ele>3</ele>
        <time>2026-08-13T13:47:40.000Z</time>
      </trkpt>
      <trkpt lat="45.86664" lon="-1.20864">
        <ele>3</ele>
        <time>2026-08-13T13:47:50.000Z</time>
      </trkpt>
      <trkpt lat="45.86681" lon="-1.20859">
        <ele>3.5</ele>
        <time>2026-08-13T13:47:55.000Z</time>
      </trkpt>
      <trkpt lat="45.86699" lon="-1.20852">
        <ele>3.8</ele>
        <time>2026-08-13T13:48:01.000Z</time>
      </trkpt>
      <trkpt lat="45.86706" lon="-1.20864">
        <ele>3.6</ele>
        <time>2026-08-13T13:48:05.000Z</time>
      </trkpt>
      <trkpt lat="45.86721" lon="-1.20896">
        <ele>3.3</ele>
        <time>2026-08-13T13:48:14.000Z</time>
      </trkpt>
      <trkpt lat="45.86736" lon="-1.20918">
        <ele>3.5</ele>
        <time>2026-08-13T13:48:21.000Z</time>
      </trkpt>
      <trkpt lat="45.86756" lon="-1.20936">
        <ele>3.8</ele>
        <time>2026-08-13T13:48:29.000Z</time>
      </trkpt>
      <trkpt lat="45.86776" lon="-1.20959">
        <ele>4</ele>
        <time>2026-08-13T13:48:37.000Z</time>
      </trkpt>
      <trkpt lat="45.86786" lon="-1.20982">
        <ele>3.5</ele>
        <time>2026-08-13T13:48:43.000Z</time>
      </trkpt>
      <trkpt lat="45.86793" lon="-1.20998">
        <ele>3</ele>
        <time>2026-08-13T13:48:48.000Z</time>
      </trkpt>
      <trkpt lat="45.86801" lon="-1.21014">
        <ele>3</ele>
        <time>2026-08-13T13:48:54.000Z</time>
      </trkpt>
      <trkpt lat="45.86815" lon="-1.2104">
        <ele>2.8</ele>
        <time>2026-08-13T13:49:03.000Z</time>
      </trkpt>
      <trkpt lat="45.86822" lon="-1.21054">
        <ele>3</ele>
        <time>2026-08-13T13:49:09.000Z</time>
      </trkpt>
      <trkpt lat="45.86832" lon="-1.21073">
        <ele>3</ele>
        <time>2026-08-13T13:49:17.000Z</time>
      </trkpt>
      <trkpt lat="45.86845" lon="-1.21097">
        <ele>2.5</ele>
        <time>2026-08-13T13:49:24.000Z</time>
      </trkpt>
      <trkpt lat="45.86864" lon="-1.21134">
        <ele>3</ele>
        <time>2026-08-13T13:49:34.000Z</time>
      </trkpt>
      <trkpt lat="45.86885" lon="-1.21171">
        <ele>2.9</ele>
        <time>2026-08-13T13:49:44.000Z</time>
      </trkpt>
      <trkpt lat="45.86893" lon="-1.21187">
        <ele>3</ele>
        <time>2026-08-13T13:49:48.000Z</time>
      </trkpt>
      <trkpt lat="45.86898" lon="-1.21194">
        <ele>3</ele>
        <time>2026-08-13T13:49:50.000Z</time>
      </trkpt>
      <trkpt lat="45.86916" lon="-1.21229">
        <ele>3</ele>
        <time>2026-08-13T13:49:59.000Z</time>
      </trkpt>
      <trkpt lat="45.86931" lon="-1.21258">
        <ele>2.9</ele>
        <time>2026-08-13T13:50:06.000Z</time>
      </trkpt>
      <trkpt lat="45.86947" lon="-1.21297">
        <ele>2.3</ele>
        <time>2026-08-13T13:50:15.000Z</time>
      </trkpt>
      <trkpt lat="45.8696" lon="-1.21331">
        <ele>2.4</ele>
        <time>2026-08-13T13:50:23.000Z</time>
      </trkpt>
      <trkpt lat="45.86981" lon="-1.21386">
        <ele>3.3</ele>
        <time>2026-08-13T13:50:35.000Z</time>
      </trkpt>
      <trkpt lat="45.86999" lon="-1.21433">
        <ele>3.6</ele>
        <time>2026-08-13T13:50:44.000Z</time>
      </trkpt>
      <trkpt lat="45.87022" lon="-1.21492">
        <ele>2.8</ele>
        <time>2026-08-13T13:50:56.000Z</time>
      </trkpt>
      <trkpt lat="45.87028" lon="-1.21507">
        <ele>3.3</ele>
        <time>2026-08-13T13:50:59.000Z</time>
      </trkpt>
      <trkpt lat="45.87041" lon="-1.21539">
        <ele>3.3</ele>
        <time>2026-08-13T13:51:06.000Z</time>
      </trkpt>
      <trkpt lat="45.87056" lon="-1.21579">
        <ele>3.9</ele>
        <time>2026-08-13T13:51:15.000Z</time>
      </trkpt>
      <trkpt lat="45.87072" lon="-1.21623">
        <ele>3.7</ele>
        <time>2026-08-13T13:51:24.000Z</time>
      </trkpt>
      <trkpt lat="45.87082" lon="-1.21649">
        <ele>3.4</ele>
        <time>2026-08-13T13:51:29.000Z</time>
      </trkpt>
      <trkpt lat="45.87089" lon="-1.21663">
        <ele>3.7</ele>
        <time>2026-08-13T13:51:32.000Z</time>
      </trkpt>
      <trkpt lat="45.87098" lon="-1.21689">
        <ele>3.5</ele>
        <time>2026-08-13T13:51:37.000Z</time>
      </trkpt>
      <trkpt lat="45.87102" lon="-1.21706">
        <ele>3.5</ele>
        <time>2026-08-13T13:51:40.000Z</time>
      </trkpt>
      <trkpt lat="45.87109" lon="-1.21746">
        <ele>4</ele>
        <time>2026-08-13T13:51:48.000Z</time>
      </trkpt>
      <trkpt lat="45.87107" lon="-1.21773">
        <ele>4</ele>
        <time>2026-08-13T13:51:54.000Z</time>
      </trkpt>
      <trkpt lat="45.871" lon="-1.21795">
        <ele>3.7</ele>
        <time>2026-08-13T13:51:59.000Z</time>
      </trkpt>
      <trkpt lat="45.87087" lon="-1.21822">
        <ele>3.6</ele>
        <time>2026-08-13T13:52:07.000Z</time>
      </trkpt>
      <trkpt lat="45.87078" lon="-1.21836">
        <ele>3.3</ele>
        <time>2026-08-13T13:52:12.000Z</time>
      </trkpt>
      <trkpt lat="45.87076" lon="-1.21839">
        <ele>3.1</ele>
        <time>2026-08-13T13:52:13.000Z</time>
      </trkpt>
      <trkpt lat="45.87065" lon="-1.21855">
        <ele>1.7</ele>
        <time>2026-08-13T13:52:19.000Z</time>
      </trkpt>
      <trkpt lat="45.87049" lon="-1.21875">
        <ele>2.4</ele>
        <time>2026-08-13T13:52:26.000Z</time>
      </trkpt>
      <trkpt lat="45.87025" lon="-1.21896">
        <ele>3.7</ele>
        <time>2026-08-13T13:52:34.000Z</time>
      </trkpt>
      <trkpt lat="45.87002" lon="-1.21917">
        <ele>3.9</ele>
        <time>2026-08-13T13:52:41.000Z</time>
      </trkpt>
      <trkpt lat="45.86982" lon="-1.21931">
        <ele>3.2</ele>
        <time>2026-08-13T13:52:47.000Z</time>
      </trkpt>
      <trkpt lat="45.86952" lon="-1.21953">
        <ele>2.9</ele>
        <time>2026-08-13T13:52:56.000Z</time>
      </trkpt>
      <trkpt lat="45.8693" lon="-1.21971">
        <ele>3</ele>
        <time>2026-08-13T13:53:03.000Z</time>
      </trkpt>
      <trkpt lat="45.86914" lon="-1.21983">
        <ele>2.6</ele>
        <time>2026-08-13T13:53:08.000Z</time>
      </trkpt>
      <trkpt lat="45.869" lon="-1.21989">
        <ele>2.9</ele>
        <time>2026-08-13T13:53:12.000Z</time>
      </trkpt>
      <trkpt lat="45.86868" lon="-1.21994">
        <ele>3.1</ele>
        <time>2026-08-13T13:53:20.000Z</time>
      </trkpt>
      <trkpt lat="45.86836" lon="-1.22003">
        <ele>3.1</ele>
        <time>2026-08-13T13:53:28.000Z</time>
      </trkpt>
      <trkpt lat="45.86828" lon="-1.22006">
        <ele>3</ele>
        <time>2026-08-13T13:53:30.000Z</time>
      </trkpt>
      <trkpt lat="45.8682" lon="-1.2201">
        <ele>3.1</ele>
        <time>2026-08-13T13:53:32.000Z</time>
      </trkpt>
      <trkpt lat="45.86816" lon="-1.22013">
        <ele>3.1</ele>
        <time>2026-08-13T13:53:33.000Z</time>
      </trkpt>
      <trkpt lat="45.86788" lon="-1.22026">
        <ele>3.3</ele>
        <time>2026-08-13T13:53:40.000Z</time>
      </trkpt>
      <trkpt lat="45.86753" lon="-1.22041">
        <ele>3.1</ele>
        <time>2026-08-13T13:53:49.000Z</time>
      </trkpt>
      <trkpt lat="45.86733" lon="-1.22039">
        <ele>3.6</ele>
        <time>2026-08-13T13:53:54.000Z</time>
      </trkpt>
      <trkpt lat="45.86717" lon="-1.22036">
        <ele>3.8</ele>
        <time>2026-08-13T13:53:58.000Z</time>
      </trkpt>
      <trkpt lat="45.86709" lon="-1.22039">
        <ele>3.5</ele>
        <time>2026-08-13T13:54:00.000Z</time>
      </trkpt>
      <trkpt lat="45.86704" lon="-1.22041">
        <ele>3.4</ele>
        <time>2026-08-13T13:54:01.000Z</time>
      </trkpt>
      <trkpt lat="45.867" lon="-1.22043">
        <ele>3.2</ele>
        <time>2026-08-13T13:54:02.000Z</time>
      </trkpt>
      <trkpt lat="45.86682" lon="-1.22056">
        <ele>3</ele>
        <time>2026-08-13T13:54:07.000Z</time>
      </trkpt>
      <trkpt lat="45.86652" lon="-1.22085">
        <ele>2.9</ele>
        <time>2026-08-13T13:54:16.000Z</time>
      </trkpt>
      <trkpt lat="45.86624" lon="-1.22109">
        <ele>2.5</ele>
        <time>2026-08-13T13:54:24.000Z</time>
      </trkpt>
      <trkpt lat="45.86614" lon="-1.22118">
        <ele>2.7</ele>
        <time>2026-08-13T13:54:27.000Z</time>
      </trkpt>
      <trkpt lat="45.8661" lon="-1.22122">
        <ele>2.6</ele>
        <time>2026-08-13T13:54:28.000Z</time>
      </trkpt>
      <trkpt lat="45.86607" lon="-1.22126">
        <ele>2.4</ele>
        <time>2026-08-13T13:54:29.000Z</time>
      </trkpt>
      <trkpt lat="45.86601" lon="-1.22134">
        <ele>2.1</ele>
        <time>2026-08-13T13:54:31.000Z</time>
      </trkpt>
      <trkpt lat="45.86599" lon="-1.22146">
        <ele>2</ele>
        <time>2026-08-13T13:54:33.000Z</time>
      </trkpt>
      <trkpt lat="45.86598" lon="-1.22157">
        <ele>2</ele>
        <time>2026-08-13T13:54:35.000Z</time>
      </trkpt>
      <trkpt lat="45.86603" lon="-1.222">
        <ele>2.2</ele>
        <time>2026-08-13T13:54:43.000Z</time>
      </trkpt>
      <trkpt lat="45.86604" lon="-1.2224">
        <ele>3.2</ele>
        <time>2026-08-13T13:54:51.000Z</time>
      </trkpt>
      <trkpt lat="45.86592" lon="-1.22293">
        <ele>2.4</ele>
        <time>2026-08-13T13:55:01.000Z</time>
      </trkpt>
      <trkpt lat="45.86578" lon="-1.22339">
        <ele>2.8</ele>
        <time>2026-08-13T13:55:10.000Z</time>
      </trkpt>
      <trkpt lat="45.86568" lon="-1.22374">
        <ele>2.7</ele>
        <time>2026-08-13T13:55:17.000Z</time>
      </trkpt>
      <trkpt lat="45.86555" lon="-1.22411">
        <ele>1.4</ele>
        <time>2026-08-13T13:55:25.000Z</time>
      </trkpt>
      <trkpt lat="45.86545" lon="-1.22438">
        <ele>2.2</ele>
        <time>2026-08-13T13:55:31.000Z</time>
      </trkpt>
      <trkpt lat="45.86528" lon="-1.22466">
        <ele>3</ele>
        <time>2026-08-13T13:55:38.000Z</time>
      </trkpt>
      <trkpt lat="45.86509" lon="-1.22495">
        <ele>3</ele>
        <time>2026-08-13T13:55:45.000Z</time>
      </trkpt>
      <trkpt lat="45.86502" lon="-1.22517">
        <ele>3</ele>
        <time>2026-08-13T13:55:49.000Z</time>
      </trkpt>
      <trkpt lat="45.86499" lon="-1.22528">
        <ele>3</ele>
        <time>2026-08-13T13:55:51.000Z</time>
      </trkpt>
      <trkpt lat="45.86497" lon="-1.22534">
        <ele>3</ele>
        <time>2026-08-13T13:55:52.000Z</time>
      </trkpt>
      <trkpt lat="45.86492" lon="-1.2255">
        <ele>3</ele>
        <time>2026-08-13T13:55:55.000Z</time>
      </trkpt>
      <trkpt lat="45.86487" lon="-1.22566">
        <ele>3</ele>
        <time>2026-08-13T13:55:58.000Z</time>
      </trkpt>
      <trkpt lat="45.86473" lon="-1.22618">
        <ele>3</ele>
        <time>2026-08-13T13:56:07.000Z</time>
      </trkpt>
      <trkpt lat="45.86456" lon="-1.2267">
        <ele>3</ele>
        <time>2026-08-13T13:56:16.000Z</time>
      </trkpt>
      <trkpt lat="45.86437" lon="-1.22705">
        <ele>2.8</ele>
        <time>2026-08-13T13:56:23.000Z</time>
      </trkpt>
      <trkpt lat="45.86412" lon="-1.22737">
        <ele>3</ele>
        <time>2026-08-13T13:56:30.000Z</time>
      </trkpt>
      <trkpt lat="45.86385" lon="-1.22787">
        <ele>2.7</ele>
        <time>2026-08-13T13:56:40.000Z</time>
      </trkpt>
      <trkpt lat="45.86373" lon="-1.22807">
        <ele>2.6</ele>
        <time>2026-08-13T13:56:44.000Z</time>
      </trkpt>
      <trkpt lat="45.86364" lon="-1.22827">
        <ele>3</ele>
        <time>2026-08-13T13:56:48.000Z</time>
      </trkpt>
      <trkpt lat="45.86355" lon="-1.22845">
        <ele>3</ele>
        <time>2026-08-13T13:56:52.000Z</time>
      </trkpt>
      <trkpt lat="45.86352" lon="-1.22847">
        <ele>3</ele>
        <time>2026-08-13T13:56:53.000Z</time>
      </trkpt>
      <trkpt lat="45.86344" lon="-1.22858">
        <ele>3</ele>
        <time>2026-08-13T13:56:57.000Z</time>
      </trkpt>
      <trkpt lat="45.86343" lon="-1.22875">
        <ele>3</ele>
        <time>2026-08-13T13:57:02.000Z</time>
      </trkpt>
      <trkpt lat="45.86343" lon="-1.22895">
        <ele>3</ele>
        <time>2026-08-13T13:57:08.000Z</time>
      </trkpt>
      <trkpt lat="45.86345" lon="-1.22916">
        <ele>3</ele>
        <time>2026-08-13T13:57:14.000Z</time>
      </trkpt>
      <trkpt lat="45.86345" lon="-1.22933">
        <ele>3.3</ele>
        <time>2026-08-13T13:57:18.000Z</time>
      </trkpt>
      <trkpt lat="45.86345" lon="-1.22963">
        <ele>3.6</ele>
        <time>2026-08-13T13:57:24.000Z</time>
      </trkpt>
      <trkpt lat="45.86337" lon="-1.22994">
        <ele>3.2</ele>
        <time>2026-08-13T13:57:30.000Z</time>
      </trkpt>
      <trkpt lat="45.86322" lon="-1.23039">
        <ele>3.5</ele>
        <time>2026-08-13T13:57:39.000Z</time>
      </trkpt>
      <trkpt lat="45.86305" lon="-1.23078">
        <ele>3</ele>
        <time>2026-08-13T13:57:47.000Z</time>
      </trkpt>
      <trkpt lat="45.86284" lon="-1.23098">
        <ele>2.6</ele>
        <time>2026-08-13T13:57:54.000Z</time>
      </trkpt>
      <trkpt lat="45.86266" lon="-1.23098">
        <ele>2.7</ele>
        <time>2026-08-13T13:57:59.000Z</time>
      </trkpt>
      <trkpt lat="45.86246" lon="-1.23097">
        <ele>3</ele>
        <time>2026-08-13T13:58:05.000Z</time>
      </trkpt>
      <trkpt lat="45.86232" lon="-1.23083">
        <ele>3</ele>
        <time>2026-08-13T13:58:09.000Z</time>
      </trkpt>
      <trkpt lat="45.86228" lon="-1.23079">
        <ele>3</ele>
        <time>2026-08-13T13:58:10.000Z</time>
      </trkpt>
      <trkpt lat="45.86209" lon="-1.23058">
        <ele>3.5</ele>
        <time>2026-08-13T13:58:16.000Z</time>
      </trkpt>
      <trkpt lat="45.86206" lon="-1.23057">
        <ele>3.6</ele>
        <time>2026-08-13T13:58:17.000Z</time>
      </trkpt>
      <trkpt lat="45.86204" lon="-1.23059">
        <ele>3.7</ele>
        <time>2026-08-13T13:58:18.000Z</time>
      </trkpt>
      <trkpt lat="45.862" lon="-1.23063">
        <ele>3.8</ele>
        <time>2026-08-13T13:58:20.000Z</time>
      </trkpt>
      <trkpt lat="45.8619" lon="-1.23072">
        <ele>3.8</ele>
        <time>2026-08-13T13:58:26.000Z</time>
      </trkpt>
      <trkpt lat="45.86182" lon="-1.23082">
        <ele>3.6</ele>
        <time>2026-08-13T13:58:33.000Z</time>
      </trkpt>
      <trkpt lat="45.86181" lon="-1.23083">
        <ele>3.5</ele>
        <time>2026-08-13T13:58:34.000Z</time>
      </trkpt>
      <trkpt lat="45.86174" lon="-1.23078">
        <ele>3.2</ele>
        <time>2026-08-13T13:58:38.000Z</time>
      </trkpt>
      <trkpt lat="45.86159" lon="-1.23054">
        <ele>3</ele>
        <time>2026-08-13T13:58:44.000Z</time>
      </trkpt>
      <trkpt lat="45.86144" lon="-1.23033">
        <ele>3</ele>
        <time>2026-08-13T13:58:50.000Z</time>
      </trkpt>
      <trkpt lat="45.86132" lon="-1.23037">
        <ele>3.1</ele>
        <time>2026-08-13T13:58:54.000Z</time>
      </trkpt>
      <trkpt lat="45.86111" lon="-1.23046">
        <ele>3.7</ele>
        <time>2026-08-13T13:59:01.000Z</time>
      </trkpt>
      <trkpt lat="45.86097" lon="-1.23056">
        <ele>4</ele>
        <time>2026-08-13T13:59:07.000Z</time>
      </trkpt>
      <trkpt lat="45.86085" lon="-1.23063">
        <ele>4</ele>
        <time>2026-08-13T13:59:12.000Z</time>
      </trkpt>
      <trkpt lat="45.86067" lon="-1.23074">
        <ele>4</ele>
        <time>2026-08-13T13:59:19.000Z</time>
      </trkpt>
      <trkpt lat="45.86053" lon="-1.2308">
        <ele>4</ele>
        <time>2026-08-13T13:59:25.000Z</time>
      </trkpt>
      <trkpt lat="45.8605" lon="-1.23078">
        <ele>4</ele>
        <time>2026-08-13T13:59:29.000Z</time>
      </trkpt>
      <trkpt lat="45.8605" lon="-1.23076">
        <ele>4</ele>
        <time>2026-08-13T13:59:34.000Z</time>
      </trkpt>
      <trkpt lat="45.8605" lon="-1.23076">
        <ele>4</ele>
        <time>2026-08-13T13:59:36.000Z</time>
      </trkpt>
      <trkpt lat="45.86034" lon="-1.23054">
        <ele>4</ele>
        <time>2026-08-14T10:17:14.000Z</time>
      </trkpt>
      <trkpt lat="45.86034" lon="-1.23054">
        <ele>4</ele>
        <time>2026-08-14T10:17:15.000Z</time>
      </trkpt>
      <trkpt lat="45.86057" lon="-1.23074">
        <ele>4</ele>
        <time>2026-08-14T10:18:09.000Z</time>
      </trkpt>
      <trkpt lat="45.86062" lon="-1.23071">
        <ele>4</ele>
        <time>2026-08-14T10:18:12.000Z</time>
      </trkpt>
      <trkpt lat="45.86076" lon="-1.23067">
        <ele>4</ele>
        <time>2026-08-14T10:18:18.000Z</time>
      </trkpt>
      <trkpt lat="45.86098" lon="-1.23054">
        <ele>3.9</ele>
        <time>2026-08-14T10:18:26.000Z</time>
      </trkpt>
      <trkpt lat="45.86124" lon="-1.23039">
        <ele>3.2</ele>
        <time>2026-08-14T10:18:35.000Z</time>
      </trkpt>
      <trkpt lat="45.86131" lon="-1.23036">
        <ele>3.1</ele>
        <time>2026-08-14T10:18:37.000Z</time>
      </trkpt>
      <trkpt lat="45.86147" lon="-1.23031">
        <ele>3</ele>
        <time>2026-08-14T10:18:42.000Z</time>
      </trkpt>
      <trkpt lat="45.8615" lon="-1.23032">
        <ele>3</ele>
        <time>2026-08-14T10:18:43.000Z</time>
      </trkpt>
      <trkpt lat="45.86157" lon="-1.23041">
        <ele>3</ele>
        <time>2026-08-14T10:18:46.000Z</time>
      </trkpt>
      <trkpt lat="45.86175" lon="-1.23073">
        <ele>3.3</ele>
        <time>2026-08-14T10:18:54.000Z</time>
      </trkpt>
      <trkpt lat="45.86189" lon="-1.23094">
        <ele>3.5</ele>
        <time>2026-08-14T10:19:00.000Z</time>
      </trkpt>
      <trkpt lat="45.86207" lon="-1.23109">
        <ele>3</ele>
        <time>2026-08-14T10:19:06.000Z</time>
      </trkpt>
      <trkpt lat="45.86231" lon="-1.23117">
        <ele>3</ele>
        <time>2026-08-14T10:19:13.000Z</time>
      </trkpt>
      <trkpt lat="45.86238" lon="-1.23117">
        <ele>3</ele>
        <time>2026-08-14T10:19:15.000Z</time>
      </trkpt>
      <trkpt lat="45.8626" lon="-1.23115">
        <ele>3</ele>
        <time>2026-08-14T10:19:21.000Z</time>
      </trkpt>
      <trkpt lat="45.86284" lon="-1.23107">
        <ele>2.9</ele>
        <time>2026-08-14T10:19:28.000Z</time>
      </trkpt>
      <trkpt lat="45.86292" lon="-1.23102">
        <ele>2.8</ele>
        <time>2026-08-14T10:19:31.000Z</time>
      </trkpt>
      <trkpt lat="45.86295" lon="-1.23102">
        <ele>2.9</ele>
        <time>2026-08-14T10:19:32.000Z</time>
      </trkpt>
      <trkpt lat="45.86295" lon="-1.23107">
        <ele>2.9</ele>
        <time>2026-08-14T10:19:34.000Z</time>
      </trkpt>
      <trkpt lat="45.8629" lon="-1.23109">
        <ele>2.9</ele>
        <time>2026-08-14T10:19:36.000Z</time>
      </trkpt>
      <trkpt lat="45.86289" lon="-1.23107">
        <ele>2.9</ele>
        <time>2026-08-14T10:19:37.000Z</time>
      </trkpt>
      <trkpt lat="45.86289" lon="-1.231">
        <ele>2.8</ele>
        <time>2026-08-14T10:19:39.000Z</time>
      </trkpt>
      <trkpt lat="45.8629" lon="-1.23097">
        <ele>2.7</ele>
        <time>2026-08-14T10:19:40.000Z</time>
      </trkpt>
      <trkpt lat="45.86301" lon="-1.23081">
        <ele>2.8</ele>
        <time>2026-08-14T10:19:45.000Z</time>
      </trkpt>
      <trkpt lat="45.86305" lon="-1.23074">
        <ele>3</ele>
        <time>2026-08-14T10:19:47.000Z</time>
      </trkpt>
      <trkpt lat="45.86317" lon="-1.23048">
        <ele>3.3</ele>
        <time>2026-08-14T10:19:53.000Z</time>
      </trkpt>
      <trkpt lat="45.86326" lon="-1.23025">
        <ele>3.5</ele>
        <time>2026-08-14T10:19:59.000Z</time>
      </trkpt>
      <trkpt lat="45.86341" lon="-1.22985">
        <ele>3.4</ele>
        <time>2026-08-14T10:20:08.000Z</time>
      </trkpt>
      <trkpt lat="45.86348" lon="-1.22951">
        <ele>3.5</ele>
        <time>2026-08-14T10:20:15.000Z</time>
      </trkpt>
      <trkpt lat="45.86348" lon="-1.22935">
        <ele>3.3</ele>
        <time>2026-08-14T10:20:18.000Z</time>
      </trkpt>
      <trkpt lat="45.86346" lon="-1.22915">
        <ele>3</ele>
        <time>2026-08-14T10:20:22.000Z</time>
      </trkpt>
      <trkpt lat="45.86345" lon="-1.22867">
        <ele>3</ele>
        <time>2026-08-14T10:20:31.000Z</time>
      </trkpt>
      <trkpt lat="45.86348" lon="-1.22838">
        <ele>3</ele>
        <time>2026-08-14T10:20:37.000Z</time>
      </trkpt>
      <trkpt lat="45.86366" lon="-1.22802">
        <ele>2.8</ele>
        <time>2026-08-14T10:20:45.000Z</time>
      </trkpt>
      <trkpt lat="45.86388" lon="-1.22758">
        <ele>3</ele>
        <time>2026-08-14T10:20:54.000Z</time>
      </trkpt>
      <trkpt lat="45.86416" lon="-1.22711">
        <ele>2.6</ele>
        <time>2026-08-14T10:21:04.000Z</time>
      </trkpt>
      <trkpt lat="45.86441" lon="-1.22679">
        <ele>2.9</ele>
        <time>2026-08-14T10:21:12.000Z</time>
      </trkpt>
      <trkpt lat="45.86443" lon="-1.22674">
        <ele>3</ele>
        <time>2026-08-14T10:21:13.000Z</time>
      </trkpt>
      <trkpt lat="45.86446" lon="-1.2267">
        <ele>3</ele>
        <time>2026-08-14T10:21:14.000Z</time>
      </trkpt>
      <trkpt lat="45.86453" lon="-1.22648">
        <ele>3</ele>
        <time>2026-08-14T10:21:18.000Z</time>
      </trkpt>
      <trkpt lat="45.86468" lon="-1.22601">
        <ele>3.1</ele>
        <time>2026-08-14T10:21:27.000Z</time>
      </trkpt>
      <trkpt lat="45.86481" lon="-1.22557">
        <ele>3</ele>
        <time>2026-08-14T10:21:35.000Z</time>
      </trkpt>
      <trkpt lat="45.86492" lon="-1.22518">
        <ele>3</ele>
        <time>2026-08-14T10:21:42.000Z</time>
      </trkpt>
      <trkpt lat="45.86498" lon="-1.22501">
        <ele>3</ele>
        <time>2026-08-14T10:21:45.000Z</time>
      </trkpt>
      <trkpt lat="45.86499" lon="-1.22496">
        <ele>3</ele>
        <time>2026-08-14T10:21:46.000Z</time>
      </trkpt>
      <trkpt lat="45.8651" lon="-1.22472">
        <ele>3</ele>
        <time>2026-08-14T10:21:51.000Z</time>
      </trkpt>
      <trkpt lat="45.86516" lon="-1.22463">
        <ele>2.9</ele>
        <time>2026-08-14T10:21:53.000Z</time>
      </trkpt>
      <trkpt lat="45.8653" lon="-1.2245">
        <ele>2.9</ele>
        <time>2026-08-14T10:21:57.000Z</time>
      </trkpt>
      <trkpt lat="45.86533" lon="-1.22446">
        <ele>2.8</ele>
        <time>2026-08-14T10:21:58.000Z</time>
      </trkpt>
      <trkpt lat="45.86546" lon="-1.22422">
        <ele>1.8</ele>
        <time>2026-08-14T10:22:03.000Z</time>
      </trkpt>
      <trkpt lat="45.86555" lon="-1.22407">
        <ele>1.8</ele>
        <time>2026-08-14T10:22:07.000Z</time>
      </trkpt>
      <trkpt lat="45.86564" lon="-1.22389">
        <ele>3</ele>
        <time>2026-08-14T10:22:11.000Z</time>
      </trkpt>
      <trkpt lat="45.86573" lon="-1.22357">
        <ele>2.6</ele>
        <time>2026-08-14T10:22:17.000Z</time>
      </trkpt>
      <trkpt lat="45.86586" lon="-1.22313">
        <ele>2.9</ele>
        <time>2026-08-14T10:22:25.000Z</time>
      </trkpt>
      <trkpt lat="45.86588" lon="-1.22307">
        <ele>2.8</ele>
        <time>2026-08-14T10:22:26.000Z</time>
      </trkpt>
      <trkpt lat="45.866" lon="-1.22266">
        <ele>2.6</ele>
        <time>2026-08-14T10:22:33.000Z</time>
      </trkpt>
      <trkpt lat="45.86602" lon="-1.22255">
        <ele>3.1</ele>
        <time>2026-08-14T10:22:35.000Z</time>
      </trkpt>
      <trkpt lat="45.86607" lon="-1.22214">
        <ele>2.7</ele>
        <time>2026-08-14T10:22:42.000Z</time>
      </trkpt>
      <trkpt lat="45.86607" lon="-1.22208">
        <ele>2.5</ele>
        <time>2026-08-14T10:22:43.000Z</time>
      </trkpt>
      <trkpt lat="45.86603" lon="-1.22177">
        <ele>2</ele>
        <time>2026-08-14T10:22:48.000Z</time>
      </trkpt>
      <trkpt lat="45.866" lon="-1.22147">
        <ele>2</ele>
        <time>2026-08-14T10:22:53.000Z</time>
      </trkpt>
      <trkpt lat="45.86601" lon="-1.22141">
        <ele>2</ele>
        <time>2026-08-14T10:22:54.000Z</time>
      </trkpt>
      <trkpt lat="45.86602" lon="-1.22135">
        <ele>2.1</ele>
        <time>2026-08-14T10:22:55.000Z</time>
      </trkpt>
      <trkpt lat="45.86606" lon="-1.22125">
        <ele>2.4</ele>
        <time>2026-08-14T10:22:57.000Z</time>
      </trkpt>
      <trkpt lat="45.86609" lon="-1.22121">
        <ele>2.6</ele>
        <time>2026-08-14T10:22:58.000Z</time>
      </trkpt>
      <trkpt lat="45.86623" lon="-1.22109">
        <ele>2.6</ele>
        <time>2026-08-14T10:23:02.000Z</time>
      </trkpt>
      <trkpt lat="45.86637" lon="-1.22096">
        <ele>2.5</ele>
        <time>2026-08-14T10:23:06.000Z</time>
      </trkpt>
      <trkpt lat="45.86659" lon="-1.22076">
        <ele>2.9</ele>
        <time>2026-08-14T10:23:12.000Z</time>
      </trkpt>
      <trkpt lat="45.86694" lon="-1.22043">
        <ele>3</ele>
        <time>2026-08-14T10:23:22.000Z</time>
      </trkpt>
      <trkpt lat="45.86705" lon="-1.22034">
        <ele>3.4</ele>
        <time>2026-08-14T10:23:25.000Z</time>
      </trkpt>
      <trkpt lat="45.86717" lon="-1.2203">
        <ele>3.8</ele>
        <time>2026-08-14T10:23:28.000Z</time>
      </trkpt>
      <trkpt lat="45.86721" lon="-1.2203">
        <ele>4</ele>
        <time>2026-08-14T10:23:29.000Z</time>
      </trkpt>
      <trkpt lat="45.86738" lon="-1.22033">
        <ele>3.4</ele>
        <time>2026-08-14T10:23:33.000Z</time>
      </trkpt>
      <trkpt lat="45.86747" lon="-1.22034">
        <ele>3.1</ele>
        <time>2026-08-14T10:23:35.000Z</time>
      </trkpt>
      <trkpt lat="45.86756" lon="-1.22033">
        <ele>3</ele>
        <time>2026-08-14T10:23:37.000Z</time>
      </trkpt>
      <trkpt lat="45.86765" lon="-1.22031">
        <ele>3.1</ele>
        <time>2026-08-14T10:23:39.000Z</time>
      </trkpt>
      <trkpt lat="45.86804" lon="-1.22013">
        <ele>2.9</ele>
        <time>2026-08-14T10:23:48.000Z</time>
      </trkpt>
      <trkpt lat="45.86834" lon="-1.21998">
        <ele>3</ele>
        <time>2026-08-14T10:23:55.000Z</time>
      </trkpt>
      <trkpt lat="45.86864" lon="-1.21987">
        <ele>3</ele>
        <time>2026-08-14T10:24:02.000Z</time>
      </trkpt>
      <trkpt lat="45.86868" lon="-1.21987">
        <ele>3</ele>
        <time>2026-08-14T10:24:03.000Z</time>
      </trkpt>
      <trkpt lat="45.86904" lon="-1.21982">
        <ele>2.7</ele>
        <time>2026-08-14T10:24:11.000Z</time>
      </trkpt>
      <trkpt lat="45.86922" lon="-1.21971">
        <ele>3</ele>
        <time>2026-08-14T10:24:15.000Z</time>
      </trkpt>
      <trkpt lat="45.8693" lon="-1.21964">
        <ele>3</ele>
        <time>2026-08-14T10:24:17.000Z</time>
      </trkpt>
      <trkpt lat="45.86981" lon="-1.21923">
        <ele>3.2</ele>
        <time>2026-08-14T10:24:29.000Z</time>
      </trkpt>
      <trkpt lat="45.87012" lon="-1.21899">
        <ele>3.5</ele>
        <time>2026-08-14T10:24:37.000Z</time>
      </trkpt>
      <trkpt lat="45.87024" lon="-1.2189">
        <ele>3.8</ele>
        <time>2026-08-14T10:24:40.000Z</time>
      </trkpt>
      <trkpt lat="45.87046" lon="-1.21871">
        <ele>2.3</ele>
        <time>2026-08-14T10:24:46.000Z</time>
      </trkpt>
      <trkpt lat="45.87068" lon="-1.21847">
        <ele>2.1</ele>
        <time>2026-08-14T10:24:53.000Z</time>
      </trkpt>
      <trkpt lat="45.8709" lon="-1.2181">
        <ele>3.3</ele>
        <time>2026-08-14T10:25:02.000Z</time>
      </trkpt>
      <trkpt lat="45.87103" lon="-1.21785">
        <ele>3.9</ele>
        <time>2026-08-14T10:25:09.000Z</time>
      </trkpt>
      <trkpt lat="45.87108" lon="-1.21778">
        <ele>4</ele>
        <time>2026-08-14T10:25:14.000Z</time>
      </trkpt>
      <trkpt lat="45.87109" lon="-1.21775">
        <ele>4</ele>
        <time>2026-08-14T10:25:18.000Z</time>
      </trkpt>
      <trkpt lat="45.8711" lon="-1.21761">
        <ele>4</ele>
        <time>2026-08-14T10:26:52.000Z</time>
      </trkpt>
      <trkpt lat="45.87111" lon="-1.21751">
        <ele>4</ele>
        <time>2026-08-14T10:26:58.000Z</time>
      </trkpt>
      <trkpt lat="45.87113" lon="-1.21739">
        <ele>4</ele>
        <time>2026-08-14T10:27:03.000Z</time>
      </trkpt>
      <trkpt lat="45.87115" lon="-1.21738">
        <ele>4</ele>
        <time>2026-08-14T10:27:04.000Z</time>
      </trkpt>
      <trkpt lat="45.87134" lon="-1.21729">
        <ele>4</ele>
        <time>2026-08-14T10:27:12.000Z</time>
      </trkpt>
      <trkpt lat="45.87153" lon="-1.21725">
        <ele>4</ele>
        <time>2026-08-14T10:27:19.000Z</time>
      </trkpt>
      <trkpt lat="45.87169" lon="-1.21717">
        <ele>3.8</ele>
        <time>2026-08-14T10:27:24.000Z</time>
      </trkpt>
      <trkpt lat="45.87181" lon="-1.21712">
        <ele>3.3</ele>
        <time>2026-08-14T10:27:27.000Z</time>
      </trkpt>
      <trkpt lat="45.87189" lon="-1.21709">
        <ele>3.1</ele>
        <time>2026-08-14T10:27:29.000Z</time>
      </trkpt>
      <trkpt lat="45.8721" lon="-1.21704">
        <ele>2.8</ele>
        <time>2026-08-14T10:27:34.000Z</time>
      </trkpt>
      <trkpt lat="45.87214" lon="-1.21703">
        <ele>2.8</ele>
        <time>2026-08-14T10:27:35.000Z</time>
      </trkpt>
      <trkpt lat="45.87217" lon="-1.217">
        <ele>2.8</ele>
        <time>2026-08-14T10:27:36.000Z</time>
      </trkpt>
      <trkpt lat="45.8722" lon="-1.21695">
        <ele>3</ele>
        <time>2026-08-14T10:27:37.000Z</time>
      </trkpt>
      <trkpt lat="45.87222" lon="-1.21684">
        <ele>3</ele>
        <time>2026-08-14T10:27:39.000Z</time>
      </trkpt>
      <trkpt lat="45.87231" lon="-1.21643">
        <ele>3</ele>
        <time>2026-08-14T10:27:46.000Z</time>
      </trkpt>
      <trkpt lat="45.87243" lon="-1.21601">
        <ele>3</ele>
        <time>2026-08-14T10:27:53.000Z</time>
      </trkpt>
      <trkpt lat="45.8726" lon="-1.21555">
        <ele>3</ele>
        <time>2026-08-14T10:28:02.000Z</time>
      </trkpt>
      <trkpt lat="45.87279" lon="-1.21506">
        <ele>3</ele>
        <time>2026-08-14T10:28:11.000Z</time>
      </trkpt>
      <trkpt lat="45.87297" lon="-1.21471">
        <ele>3.3</ele>
        <time>2026-08-14T10:28:18.000Z</time>
      </trkpt>
      <trkpt lat="45.873" lon="-1.21467">
        <ele>3.2</ele>
        <time>2026-08-14T10:28:19.000Z</time>
      </trkpt>
      <trkpt lat="45.87306" lon="-1.21459">
        <ele>3</ele>
        <time>2026-08-14T10:28:21.000Z</time>
      </trkpt>
      <trkpt lat="45.87319" lon="-1.21447">
        <ele>3</ele>
        <time>2026-08-14T10:28:25.000Z</time>
      </trkpt>
      <trkpt lat="45.87329" lon="-1.21441">
        <ele>3</ele>
        <time>2026-08-14T10:28:29.000Z</time>
      </trkpt>
      <trkpt lat="45.87349" lon="-1.21425">
        <ele>3</ele>
        <time>2026-08-14T10:28:35.000Z</time>
      </trkpt>
      <trkpt lat="45.87382" lon="-1.214">
        <ele>3.3</ele>
        <time>2026-08-14T10:28:44.000Z</time>
      </trkpt>
      <trkpt lat="45.8742" lon="-1.21369">
        <ele>3.9</ele>
        <time>2026-08-14T10:28:54.000Z</time>
      </trkpt>
      <trkpt lat="45.87447" lon="-1.21344">
        <ele>3.1</ele>
        <time>2026-08-14T10:29:01.000Z</time>
      </trkpt>
      <trkpt lat="45.87472" lon="-1.21315">
        <ele>4</ele>
        <time>2026-08-14T10:29:08.000Z</time>
      </trkpt>
      <trkpt lat="45.87475" lon="-1.2131">
        <ele>3.9</ele>
        <time>2026-08-14T10:29:09.000Z</time>
      </trkpt>
      <trkpt lat="45.87476" lon="-1.21304">
        <ele>3.9</ele>
        <time>2026-08-14T10:29:10.000Z</time>
      </trkpt>
      <trkpt lat="45.87477" lon="-1.21292">
        <ele>3.9</ele>
        <time>2026-08-14T10:29:12.000Z</time>
      </trkpt>
      <trkpt lat="45.87476" lon="-1.21286">
        <ele>4</ele>
        <time>2026-08-14T10:29:13.000Z</time>
      </trkpt>
      <trkpt lat="45.87475" lon="-1.2128">
        <ele>4</ele>
        <time>2026-08-14T10:29:14.000Z</time>
      </trkpt>
      <trkpt lat="45.87463" lon="-1.21253">
        <ele>4</ele>
        <time>2026-08-14T10:29:19.000Z</time>
      </trkpt>
      <trkpt lat="45.87456" lon="-1.21237">
        <ele>4</ele>
        <time>2026-08-14T10:29:22.000Z</time>
      </trkpt>
      <trkpt lat="45.87456" lon="-1.21226">
        <ele>4</ele>
        <time>2026-08-14T10:29:24.000Z</time>
      </trkpt>
      <trkpt lat="45.87458" lon="-1.21224">
        <ele>4</ele>
        <time>2026-08-14T10:29:25.000Z</time>
      </trkpt>
      <trkpt lat="45.87465" lon="-1.2122">
        <ele>4</ele>
        <time>2026-08-14T10:29:27.000Z</time>
      </trkpt>
      <trkpt lat="45.87472" lon="-1.21214">
        <ele>4</ele>
        <time>2026-08-14T10:29:29.000Z</time>
      </trkpt>
      <trkpt lat="45.87482" lon="-1.21205">
        <ele>4</ele>
        <time>2026-08-14T10:29:32.000Z</time>
      </trkpt>
      <trkpt lat="45.87509" lon="-1.21181">
        <ele>3.7</ele>
        <time>2026-08-14T10:29:40.000Z</time>
      </trkpt>
      <trkpt lat="45.87539" lon="-1.21152">
        <ele>3.2</ele>
        <time>2026-08-14T10:29:49.000Z</time>
      </trkpt>
      <trkpt lat="45.87551" lon="-1.21119">
        <ele>3.2</ele>
        <time>2026-08-14T10:29:55.000Z</time>
      </trkpt>
      <trkpt lat="45.87564" lon="-1.21092">
        <ele>3.5</ele>
        <time>2026-08-14T10:30:01.000Z</time>
      </trkpt>
      <trkpt lat="45.87568" lon="-1.21066">
        <ele>3.8</ele>
        <time>2026-08-14T10:30:06.000Z</time>
      </trkpt>
      <trkpt lat="45.87578" lon="-1.21019">
        <ele>3.2</ele>
        <time>2026-08-14T10:30:14.000Z</time>
      </trkpt>
      <trkpt lat="45.87586" lon="-1.20999">
        <ele>3.1</ele>
        <time>2026-08-14T10:30:18.000Z</time>
      </trkpt>
      <trkpt lat="45.87594" lon="-1.20986">
        <ele>3.2</ele>
        <time>2026-08-14T10:30:21.000Z</time>
      </trkpt>
      <trkpt lat="45.87612" lon="-1.20957">
        <ele>3</ele>
        <time>2026-08-14T10:30:28.000Z</time>
      </trkpt>
      <trkpt lat="45.87615" lon="-1.20934">
        <ele>3</ele>
        <time>2026-08-14T10:30:32.000Z</time>
      </trkpt>
      <trkpt lat="45.87608" lon="-1.20887">
        <ele>3</ele>
        <time>2026-08-14T10:30:40.000Z</time>
      </trkpt>
      <trkpt lat="45.87602" lon="-1.20853">
        <ele>3.1</ele>
        <time>2026-08-14T10:30:46.000Z</time>
      </trkpt>
      <trkpt lat="45.87593" lon="-1.20802">
        <ele>3.7</ele>
        <time>2026-08-14T10:30:55.000Z</time>
      </trkpt>
      <trkpt lat="45.87595" lon="-1.20774">
        <ele>3.5</ele>
        <time>2026-08-14T10:31:00.000Z</time>
      </trkpt>
      <trkpt lat="45.87595" lon="-1.20762">
        <ele>3.5</ele>
        <time>2026-08-14T10:31:02.000Z</time>
      </trkpt>
      <trkpt lat="45.87593" lon="-1.20745">
        <ele>3.3</ele>
        <time>2026-08-14T10:31:05.000Z</time>
      </trkpt>
      <trkpt lat="45.87594" lon="-1.20734">
        <ele>3.2</ele>
        <time>2026-08-14T10:31:07.000Z</time>
      </trkpt>
      <trkpt lat="45.87597" lon="-1.20731">
        <ele>3.1</ele>
        <time>2026-08-14T10:31:08.000Z</time>
      </trkpt>
      <trkpt lat="45.87621" lon="-1.20719">
        <ele>3</ele>
        <time>2026-08-14T10:31:14.000Z</time>
      </trkpt>
      <trkpt lat="45.8763" lon="-1.20716">
        <ele>3</ele>
        <time>2026-08-14T10:31:16.000Z</time>
      </trkpt>
      <trkpt lat="45.87644" lon="-1.20716">
        <ele>2.9</ele>
        <time>2026-08-14T10:31:19.000Z</time>
      </trkpt>
      <trkpt lat="45.87648" lon="-1.20717">
        <ele>2.7</ele>
        <time>2026-08-14T10:31:20.000Z</time>
      </trkpt>
      <trkpt lat="45.87661" lon="-1.20719">
        <ele>2.3</ele>
        <time>2026-08-14T10:31:23.000Z</time>
      </trkpt>
      <trkpt lat="45.8767" lon="-1.20718">
        <ele>2.3</ele>
        <time>2026-08-14T10:31:25.000Z</time>
      </trkpt>
      <trkpt lat="45.87683" lon="-1.20713">
        <ele>2.7</ele>
        <time>2026-08-14T10:31:28.000Z</time>
      </trkpt>
      <trkpt lat="45.87695" lon="-1.2071">
        <ele>3</ele>
        <time>2026-08-14T10:31:31.000Z</time>
      </trkpt>
      <trkpt lat="45.87713" lon="-1.20705">
        <ele>2.8</ele>
        <time>2026-08-14T10:31:35.000Z</time>
      </trkpt>
      <trkpt lat="45.87721" lon="-1.20701">
        <ele>2.8</ele>
        <time>2026-08-14T10:31:37.000Z</time>
      </trkpt>
      <trkpt lat="45.87728" lon="-1.20697">
        <ele>2.9</ele>
        <time>2026-08-14T10:31:39.000Z</time>
      </trkpt>
      <trkpt lat="45.87758" lon="-1.20685">
        <ele>2.8</ele>
        <time>2026-08-14T10:31:47.000Z</time>
      </trkpt>
      <trkpt lat="45.87781" lon="-1.20687">
        <ele>2.4</ele>
        <time>2026-08-14T10:31:53.000Z</time>
      </trkpt>
      <trkpt lat="45.87785" lon="-1.20696">
        <ele>2.2</ele>
        <time>2026-08-14T10:31:55.000Z</time>
      </trkpt>
      <trkpt lat="45.87785" lon="-1.20702">
        <ele>2.2</ele>
        <time>2026-08-14T10:31:56.000Z</time>
      </trkpt>
      <trkpt lat="45.87785" lon="-1.20708">
        <ele>2.1</ele>
        <time>2026-08-14T10:31:57.000Z</time>
      </trkpt>
      <trkpt lat="45.87784" lon="-1.20746">
        <ele>2</ele>
        <time>2026-08-14T10:32:03.000Z</time>
      </trkpt>
      <trkpt lat="45.87784" lon="-1.20758">
        <ele>2.2</ele>
        <time>2026-08-14T10:32:05.000Z</time>
      </trkpt>
      <trkpt lat="45.87786" lon="-1.20791">
        <ele>2.7</ele>
        <time>2026-08-14T10:32:11.000Z</time>
      </trkpt>
      <trkpt lat="45.878" lon="-1.20824">
        <ele>3.1</ele>
        <time>2026-08-14T10:32:17.000Z</time>
      </trkpt>
      <trkpt lat="45.87805" lon="-1.20833">
        <ele>3.9</ele>
        <time>2026-08-14T10:32:19.000Z</time>
      </trkpt>
      <trkpt lat="45.8782" lon="-1.20853">
        <ele>3.1</ele>
        <time>2026-08-14T10:32:24.000Z</time>
      </trkpt>
      <trkpt lat="45.87828" lon="-1.20859">
        <ele>3</ele>
        <time>2026-08-14T10:32:26.000Z</time>
      </trkpt>
      <trkpt lat="45.87842" lon="-1.20863">
        <ele>2.7</ele>
        <time>2026-08-14T10:32:29.000Z</time>
      </trkpt>
      <trkpt lat="45.87867" lon="-1.20857">
        <ele>2.2</ele>
        <time>2026-08-14T10:32:35.000Z</time>
      </trkpt>
      <trkpt lat="45.87872" lon="-1.20855">
        <ele>2.4</ele>
        <time>2026-08-14T10:32:36.000Z</time>
      </trkpt>
      <trkpt lat="45.8789" lon="-1.20841">
        <ele>3</ele>
        <time>2026-08-14T10:32:41.000Z</time>
      </trkpt>
      <trkpt lat="45.87912" lon="-1.20827">
        <ele>2.2</ele>
        <time>2026-08-14T10:32:47.000Z</time>
      </trkpt>
      <trkpt lat="45.87916" lon="-1.20825">
        <ele>2</ele>
        <time>2026-08-14T10:32:48.000Z</time>
      </trkpt>
      <trkpt lat="45.87953" lon="-1.20803">
        <ele>2</ele>
        <time>2026-08-14T10:32:58.000Z</time>
      </trkpt>
      <trkpt lat="45.87987" lon="-1.20786">
        <ele>2.9</ele>
        <time>2026-08-14T10:33:07.000Z</time>
      </trkpt>
      <trkpt lat="45.87996" lon="-1.20788">
        <ele>2.9</ele>
        <time>2026-08-14T10:33:09.000Z</time>
      </trkpt>
      <trkpt lat="45.88002" lon="-1.20795">
        <ele>2.9</ele>
        <time>2026-08-14T10:33:11.000Z</time>
      </trkpt>
      <trkpt lat="45.88024" lon="-1.2083">
        <ele>2.8</ele>
        <time>2026-08-14T10:33:19.000Z</time>
      </trkpt>
      <trkpt lat="45.8804" lon="-1.20855">
        <ele>2.7</ele>
        <time>2026-08-14T10:33:25.000Z</time>
      </trkpt>
      <trkpt lat="45.88042" lon="-1.20861">
        <ele>2.5</ele>
        <time>2026-08-14T10:33:26.000Z</time>
      </trkpt>
      <trkpt lat="45.88056" lon="-1.20912">
        <ele>3</ele>
        <time>2026-08-14T10:33:35.000Z</time>
      </trkpt>
      <trkpt lat="45.88071" lon="-1.2095">
        <ele>3</ele>
        <time>2026-08-14T10:33:42.000Z</time>
      </trkpt>
      <trkpt lat="45.88073" lon="-1.20954">
        <ele>3</ele>
        <time>2026-08-14T10:33:43.000Z</time>
      </trkpt>
      <trkpt lat="45.88083" lon="-1.20968">
        <ele>3</ele>
        <time>2026-08-14T10:33:46.000Z</time>
      </trkpt>
      <trkpt lat="45.8809" lon="-1.20971">
        <ele>3</ele>
        <time>2026-08-14T10:33:48.000Z</time>
      </trkpt>
      <trkpt lat="45.88109" lon="-1.20966">
        <ele>3</ele>
        <time>2026-08-14T10:33:53.000Z</time>
      </trkpt>
      <trkpt lat="45.88132" lon="-1.20968">
        <ele>3</ele>
        <time>2026-08-14T10:33:59.000Z</time>
      </trkpt>
      <trkpt lat="45.88157" lon="-1.20972">
        <ele>3</ele>
        <time>2026-08-14T10:34:06.000Z</time>
      </trkpt>
      <trkpt lat="45.88165" lon="-1.20966">
        <ele>3</ele>
        <time>2026-08-14T10:34:08.000Z</time>
      </trkpt>
      <trkpt lat="45.88179" lon="-1.20948">
        <ele>3.1</ele>
        <time>2026-08-14T10:34:13.000Z</time>
      </trkpt>
      <trkpt lat="45.8819" lon="-1.20934">
        <ele>3</ele>
        <time>2026-08-14T10:34:17.000Z</time>
      </trkpt>
      <trkpt lat="45.88203" lon="-1.20936">
        <ele>3.3</ele>
        <time>2026-08-14T10:34:21.000Z</time>
      </trkpt>
      <trkpt lat="45.88229" lon="-1.20954">
        <ele>4</ele>
        <time>2026-08-14T10:34:29.000Z</time>
      </trkpt>
      <trkpt lat="45.88245" lon="-1.20957">
        <ele>4</ele>
        <time>2026-08-14T10:34:34.000Z</time>
      </trkpt>
      <trkpt lat="45.88265" lon="-1.20946">
        <ele>4</ele>
        <time>2026-08-14T10:34:40.000Z</time>
      </trkpt>
      <trkpt lat="45.88293" lon="-1.20922">
        <ele>4.1</ele>
        <time>2026-08-14T10:34:49.000Z</time>
      </trkpt>
      <trkpt lat="45.8831" lon="-1.20903">
        <ele>3.9</ele>
        <time>2026-08-14T10:34:54.000Z</time>
      </trkpt>
      <trkpt lat="45.88315" lon="-1.20901">
        <ele>3.8</ele>
        <time>2026-08-14T10:34:55.000Z</time>
      </trkpt>
      <trkpt lat="45.88319" lon="-1.209">
        <ele>3.7</ele>
        <time>2026-08-14T10:34:56.000Z</time>
      </trkpt>
      <trkpt lat="45.88344" lon="-1.20894">
        <ele>3.5</ele>
        <time>2026-08-14T10:35:02.000Z</time>
      </trkpt>
      <trkpt lat="45.88352" lon="-1.20887">
        <ele>3.7</ele>
        <time>2026-08-14T10:35:04.000Z</time>
      </trkpt>
      <trkpt lat="45.88353" lon="-1.20882">
        <ele>3.7</ele>
        <time>2026-08-14T10:35:05.000Z</time>
      </trkpt>
      <trkpt lat="45.88353" lon="-1.20876">
        <ele>3.7</ele>
        <time>2026-08-14T10:35:06.000Z</time>
      </trkpt>
      <trkpt lat="45.88348" lon="-1.20865">
        <ele>3.5</ele>
        <time>2026-08-14T10:35:08.000Z</time>
      </trkpt>
      <trkpt lat="45.8833" lon="-1.20818">
        <ele>3.9</ele>
        <time>2026-08-14T10:35:17.000Z</time>
      </trkpt>
      <trkpt lat="45.88328" lon="-1.208">
        <ele>3.6</ele>
        <time>2026-08-14T10:35:20.000Z</time>
      </trkpt>
      <trkpt lat="45.88326" lon="-1.20789">
        <ele>3.3</ele>
        <time>2026-08-14T10:35:22.000Z</time>
      </trkpt>
      <trkpt lat="45.88326" lon="-1.20783">
        <ele>3.1</ele>
        <time>2026-08-14T10:35:23.000Z</time>
      </trkpt>
      <trkpt lat="45.88327" lon="-1.20778">
        <ele>3</ele>
        <time>2026-08-14T10:35:24.000Z</time>
      </trkpt>
      <trkpt lat="45.88329" lon="-1.20774">
        <ele>3</ele>
        <time>2026-08-14T10:35:25.000Z</time>
      </trkpt>
      <trkpt lat="45.88339" lon="-1.20765">
        <ele>3.2</ele>
        <time>2026-08-14T10:35:28.000Z</time>
      </trkpt>
      <trkpt lat="45.8837" lon="-1.20745">
        <ele>4</ele>
        <time>2026-08-14T10:35:37.000Z</time>
      </trkpt>
      <trkpt lat="45.88397" lon="-1.20732">
        <ele>4.3</ele>
        <time>2026-08-14T10:35:45.000Z</time>
      </trkpt>
      <trkpt lat="45.88424" lon="-1.20724">
        <ele>5.2</ele>
        <time>2026-08-14T10:35:54.000Z</time>
      </trkpt>
      <trkpt lat="45.88428" lon="-1.20722">
        <ele>5.4</ele>
        <time>2026-08-14T10:35:56.000Z</time>
      </trkpt>
      <trkpt lat="45.88429" lon="-1.2072">
        <ele>5.4</ele>
        <time>2026-08-14T10:35:57.000Z</time>
      </trkpt>
      <trkpt lat="45.8843" lon="-1.20718">
        <ele>5.5</ele>
        <time>2026-08-14T10:35:58.000Z</time>
      </trkpt>
      <trkpt lat="45.88429" lon="-1.20699">
        <ele>5.4</ele>
        <time>2026-08-14T10:36:03.000Z</time>
      </trkpt>
      <trkpt lat="45.88426" lon="-1.20669">
        <ele>5</ele>
        <time>2026-08-14T10:36:09.000Z</time>
      </trkpt>
      <trkpt lat="45.88419" lon="-1.20638">
        <ele>5</ele>
        <time>2026-08-14T10:36:15.000Z</time>
      </trkpt>
      <trkpt lat="45.88417" lon="-1.2061">
        <ele>6</ele>
        <time>2026-08-14T10:36:21.000Z</time>
      </trkpt>
      <trkpt lat="45.88418" lon="-1.20607">
        <ele>6</ele>
        <time>2026-08-14T10:36:22.000Z</time>
      </trkpt>
      <trkpt lat="45.8842" lon="-1.20604">
        <ele>5.9</ele>
        <time>2026-08-14T10:36:24.000Z</time>
      </trkpt>
      <trkpt lat="45.88422" lon="-1.20616">
        <ele>5.7</ele>
        <time>2026-08-14T10:36:28.000Z</time>
      </trkpt>
      <trkpt lat="45.88427" lon="-1.20631">
        <ele>5.2</ele>
        <time>2026-08-14T10:36:32.000Z</time>
      </trkpt>
      <trkpt lat="45.8843" lon="-1.20631">
        <ele>5.1</ele>
        <time>2026-08-14T10:36:33.000Z</time>
      </trkpt>
      <trkpt lat="45.88433" lon="-1.2063">
        <ele>5.1</ele>
        <time>2026-08-14T10:36:34.000Z</time>
      </trkpt>
      <trkpt lat="45.88441" lon="-1.20621">
        <ele>5.1</ele>
        <time>2026-08-14T10:36:37.000Z</time>
      </trkpt>
      <trkpt lat="45.88456" lon="-1.20594">
        <ele>5.6</ele>
        <time>2026-08-14T10:36:44.000Z</time>
      </trkpt>
      <trkpt lat="45.88469" lon="-1.20565">
        <ele>6</ele>
        <time>2026-08-14T10:36:51.000Z</time>
      </trkpt>
      <trkpt lat="45.88474" lon="-1.20546">
        <ele>6</ele>
        <time>2026-08-14T10:36:56.000Z</time>
      </trkpt>
      <trkpt lat="45.88482" lon="-1.20509">
        <ele>6.3</ele>
        <time>2026-08-14T10:37:04.000Z</time>
      </trkpt>
      <trkpt lat="45.88488" lon="-1.20469">
        <ele>6.5</ele>
        <time>2026-08-14T10:37:12.000Z</time>
      </trkpt>
      <trkpt lat="45.88494" lon="-1.20446">
        <ele>6</ele>
        <time>2026-08-14T10:37:17.000Z</time>
      </trkpt>
      <trkpt lat="45.88497" lon="-1.20444">
        <ele>6</ele>
        <time>2026-08-14T10:37:18.000Z</time>
      </trkpt>
      <trkpt lat="45.88521" lon="-1.20433">
        <ele>6.4</ele>
        <time>2026-08-14T10:37:25.000Z</time>
      </trkpt>
      <trkpt lat="45.88544" lon="-1.20427">
        <ele>6.8</ele>
        <time>2026-08-14T10:37:31.000Z</time>
      </trkpt>
      <trkpt lat="45.88561" lon="-1.20423">
        <ele>7</ele>
        <time>2026-08-14T10:37:36.000Z</time>
      </trkpt>
      <trkpt lat="45.88572" lon="-1.20421">
        <ele>7.1</ele>
        <time>2026-08-14T10:37:39.000Z</time>
      </trkpt>
      <trkpt lat="45.88592" lon="-1.20417">
        <ele>7</ele>
        <time>2026-08-14T10:37:46.000Z</time>
      </trkpt>
      <trkpt lat="45.88609" lon="-1.20414">
        <ele>7</ele>
        <time>2026-08-14T10:37:51.000Z</time>
      </trkpt>
      <trkpt lat="45.88612" lon="-1.20414">
        <ele>7</ele>
        <time>2026-08-14T10:37:52.000Z</time>
      </trkpt>
      <trkpt lat="45.88632" lon="-1.20412">
        <ele>7</ele>
        <time>2026-08-14T10:37:58.000Z</time>
      </trkpt>
      <trkpt lat="45.88667" lon="-1.20406">
        <ele>7</ele>
        <time>2026-08-14T10:38:08.000Z</time>
      </trkpt>
      <trkpt lat="45.88698" lon="-1.20405">
        <ele>5.9</ele>
        <time>2026-08-14T10:38:15.000Z</time>
      </trkpt>
      <trkpt lat="45.88714" lon="-1.20403">
        <ele>5.3</ele>
        <time>2026-08-14T10:38:20.000Z</time>
      </trkpt>
      <trkpt lat="45.88724" lon="-1.20402">
        <ele>5</ele>
        <time>2026-08-14T10:38:25.000Z</time>
      </trkpt>
      <trkpt lat="45.88725" lon="-1.20399">
        <ele>5</ele>
        <time>2026-08-14T10:38:26.000Z</time>
      </trkpt>
      <trkpt lat="45.88726" lon="-1.20391">
        <ele>5</ele>
        <time>2026-08-14T10:38:28.000Z</time>
      </trkpt>
      <trkpt lat="45.88727" lon="-1.20376">
        <ele>5.4</ele>
        <time>2026-08-14T10:38:31.000Z</time>
      </trkpt>
      <trkpt lat="45.88727" lon="-1.20342">
        <ele>5.9</ele>
        <time>2026-08-14T10:38:38.000Z</time>
      </trkpt>
      <trkpt lat="45.8873" lon="-1.20321">
        <ele>6.4</ele>
        <time>2026-08-14T10:38:43.000Z</time>
      </trkpt>
      <trkpt lat="45.88734" lon="-1.20293">
        <ele>7</ele>
        <time>2026-08-14T10:38:49.000Z</time>
      </trkpt>
      <trkpt lat="45.88739" lon="-1.20257">
        <ele>7.7</ele>
        <time>2026-08-14T10:38:56.000Z</time>
      </trkpt>
      <trkpt lat="45.88746" lon="-1.20225">
        <ele>8</ele>
        <time>2026-08-14T10:39:03.000Z</time>
      </trkpt>
      <trkpt lat="45.88753" lon="-1.20193">
        <ele>7.9</ele>
        <time>2026-08-14T10:39:09.000Z</time>
      </trkpt>
      <trkpt lat="45.88766" lon="-1.2014">
        <ele>7.4</ele>
        <time>2026-08-14T10:39:19.000Z</time>
      </trkpt>
      <trkpt lat="45.88777" lon="-1.201">
        <ele>7.9</ele>
        <time>2026-08-14T10:39:26.000Z</time>
      </trkpt>
      <trkpt lat="45.88786" lon="-1.20058">
        <ele>8</ele>
        <time>2026-08-14T10:39:33.000Z</time>
      </trkpt>
      <trkpt lat="45.88788" lon="-1.20038">
        <ele>8</ele>
        <time>2026-08-14T10:39:37.000Z</time>
      </trkpt>
      <trkpt lat="45.88788" lon="-1.20033">
        <ele>8</ele>
        <time>2026-08-14T10:39:38.000Z</time>
      </trkpt>
      <trkpt lat="45.88792" lon="-1.20018">
        <ele>8</ele>
        <time>2026-08-14T10:39:42.000Z</time>
      </trkpt>
      <trkpt lat="45.888" lon="-1.19993">
        <ele>8</ele>
        <time>2026-08-14T10:39:48.000Z</time>
      </trkpt>
      <trkpt lat="45.88801" lon="-1.19963">
        <ele>8</ele>
        <time>2026-08-14T10:39:53.000Z</time>
      </trkpt>
      <trkpt lat="45.88796" lon="-1.19926">
        <ele>7.3</ele>
        <time>2026-08-14T10:39:59.000Z</time>
      </trkpt>
      <trkpt lat="45.88795" lon="-1.19921">
        <ele>7.1</ele>
        <time>2026-08-14T10:40:00.000Z</time>
      </trkpt>
      <trkpt lat="45.88789" lon="-1.19888">
        <ele>5.9</ele>
        <time>2026-08-14T10:40:06.000Z</time>
      </trkpt>
      <trkpt lat="45.8878" lon="-1.19858">
        <ele>8.1</ele>
        <time>2026-08-14T10:40:13.000Z</time>
      </trkpt>
      <trkpt lat="45.88767" lon="-1.19844">
        <ele>8</ele>
        <time>2026-08-14T10:40:18.000Z</time>
      </trkpt>
      <trkpt lat="45.88755" lon="-1.19839">
        <ele>8</ele>
        <time>2026-08-14T10:40:22.000Z</time>
      </trkpt>
      <trkpt lat="45.88752" lon="-1.1984">
        <ele>8</ele>
        <time>2026-08-14T10:40:23.000Z</time>
      </trkpt>
      <trkpt lat="45.88735" lon="-1.19849">
        <ele>8</ele>
        <time>2026-08-14T10:40:28.000Z</time>
      </trkpt>
      <trkpt lat="45.8872" lon="-1.19848">
        <ele>8</ele>
        <time>2026-08-14T10:40:33.000Z</time>
      </trkpt>
      <trkpt lat="45.8872" lon="-1.19834">
        <ele>8</ele>
        <time>2026-08-14T10:40:37.000Z</time>
      </trkpt>
      <trkpt lat="45.88715" lon="-1.19807">
        <ele>8</ele>
        <time>2026-08-14T10:40:43.000Z</time>
      </trkpt>
      <trkpt lat="45.88711" lon="-1.19785">
        <ele>8</ele>
        <time>2026-08-14T10:40:48.000Z</time>
      </trkpt>
      <trkpt lat="45.88706" lon="-1.19759">
        <ele>8.7</ele>
        <time>2026-08-14T10:40:54.000Z</time>
      </trkpt>
      <trkpt lat="45.88697" lon="-1.19717">
        <ele>9</ele>
        <time>2026-08-14T10:41:03.000Z</time>
      </trkpt>
      <trkpt lat="45.8869" lon="-1.19681">
        <ele>9.1</ele>
        <time>2026-08-14T10:41:11.000Z</time>
      </trkpt>
      <trkpt lat="45.88686" lon="-1.19664">
        <ele>9.3</ele>
        <time>2026-08-14T10:41:15.000Z</time>
      </trkpt>
      <trkpt lat="45.88684" lon="-1.19655">
        <ele>9.5</ele>
        <time>2026-08-14T10:41:18.000Z</time>
      </trkpt>
      <trkpt lat="45.88684" lon="-1.19653">
        <ele>9.5</ele>
        <time>2026-08-14T10:41:22.000Z</time>
      </trkpt>
      <trkpt lat="45.88717" lon="-1.1964">
        <ele>10</ele>
        <time>2026-08-14T10:42:05.000Z</time>
      </trkpt>
      <trkpt lat="45.88723" lon="-1.19639">
        <ele>10</ele>
        <time>2026-08-14T10:42:09.000Z</time>
      </trkpt>
      <trkpt lat="45.88726" lon="-1.19637">
        <ele>10</ele>
        <time>2026-08-14T10:42:11.000Z</time>
      </trkpt>
      <trkpt lat="45.88731" lon="-1.19633">
        <ele>10</ele>
        <time>2026-08-14T10:42:15.000Z</time>
      </trkpt>
      <trkpt lat="45.88735" lon="-1.19633">
        <ele>10</ele>
        <time>2026-08-14T10:42:17.000Z</time>
      </trkpt>
      <trkpt lat="45.88753" lon="-1.19624">
        <ele>10.1</ele>
        <time>2026-08-14T10:42:26.000Z</time>
      </trkpt>
      <trkpt lat="45.88761" lon="-1.19622">
        <ele>10.2</ele>
        <time>2026-08-14T10:42:31.000Z</time>
      </trkpt>
      <trkpt lat="45.88762" lon="-1.19621">
        <ele>10.3</ele>
        <time>2026-08-14T10:42:33.000Z</time>
      </trkpt>
      <trkpt lat="45.88763" lon="-1.19623">
        <ele>10.3</ele>
        <time>2026-08-14T10:42:35.000Z</time>
      </trkpt>
      <trkpt lat="45.88759" lon="-1.19623">
        <ele>10.2</ele>
        <time>2026-08-14T10:42:38.000Z</time>
      </trkpt>
      <trkpt lat="45.8875" lon="-1.19624">
        <ele>10</ele>
        <time>2026-08-14T10:42:42.000Z</time>
      </trkpt>
      <trkpt lat="45.88741" lon="-1.19628">
        <ele>10</ele>
        <time>2026-08-14T10:42:46.000Z</time>
      </trkpt>
      <trkpt lat="45.88736" lon="-1.1963">
        <ele>10</ele>
        <time>2026-08-14T10:42:48.000Z</time>
      </trkpt>
      <trkpt lat="45.88723" lon="-1.19635">
        <ele>10</ele>
        <time>2026-08-14T10:42:55.000Z</time>
      </trkpt>
      <trkpt lat="45.88711" lon="-1.19639">
        <ele>10</ele>
        <time>2026-08-14T10:43:02.000Z</time>
      </trkpt>
      <trkpt lat="45.887" lon="-1.19645">
        <ele>9.8</ele>
        <time>2026-08-14T10:43:08.000Z</time>
      </trkpt>
      <trkpt lat="45.88697" lon="-1.19646">
        <ele>9.8</ele>
        <time>2026-08-14T10:43:09.000Z</time>
      </trkpt>
      <trkpt lat="45.88684" lon="-1.19649">
        <ele>9.5</ele>
        <time>2026-08-14T10:43:14.000Z</time>
      </trkpt>
      <trkpt lat="45.88674" lon="-1.19652">
        <ele>9.5</ele>
        <time>2026-08-14T10:43:20.000Z</time>
      </trkpt>
      <trkpt lat="45.88666" lon="-1.19653">
        <ele>9.5</ele>
        <time>2026-08-14T10:43:26.000Z</time>
      </trkpt>
      <trkpt lat="45.88665" lon="-1.19654">
        <ele>9.5</ele>
        <time>2026-08-14T10:43:29.000Z</time>
      </trkpt>
      <trkpt lat="45.88648" lon="-1.19658">
        <ele>9.4</ele>
        <time>2026-08-14T10:43:43.000Z</time>
      </trkpt>
      <trkpt lat="45.88643" lon="-1.19657">
        <ele>9.4</ele>
        <time>2026-08-14T10:43:45.000Z</time>
      </trkpt>
      <trkpt lat="45.8863" lon="-1.19661">
        <ele>9.5</ele>
        <time>2026-08-14T10:43:51.000Z</time>
      </trkpt>
      <trkpt lat="45.88627" lon="-1.19662">
        <ele>9.5</ele>
        <time>2026-08-14T10:43:53.000Z</time>
      </trkpt>
      <trkpt lat="45.88625" lon="-1.1966">
        <ele>9.6</ele>
        <time>2026-08-14T10:43:55.000Z</time>
      </trkpt>
      <trkpt lat="45.88621" lon="-1.19642">
        <ele>10</ele>
        <time>2026-08-14T10:44:00.000Z</time>
      </trkpt>
      <trkpt lat="45.88618" lon="-1.19612">
        <ele>10</ele>
        <time>2026-08-14T10:44:07.000Z</time>
      </trkpt>
      <trkpt lat="45.88616" lon="-1.19595">
        <ele>10</ele>
        <time>2026-08-14T10:44:12.000Z</time>
      </trkpt>
      <trkpt lat="45.88615" lon="-1.19593">
        <ele>10</ele>
        <time>2026-08-14T10:44:13.000Z</time>
      </trkpt>
      <trkpt lat="45.88608" lon="-1.19591">
        <ele>10</ele>
        <time>2026-08-14T10:44:16.000Z</time>
      </trkpt>
      <trkpt lat="45.88577" lon="-1.19595">
        <ele>10</ele>
        <time>2026-08-14T10:44:25.000Z</time>
      </trkpt>
      <trkpt lat="45.88549" lon="-1.19595">
        <ele>9.8</ele>
        <time>2026-08-14T10:44:33.000Z</time>
      </trkpt>
      <trkpt lat="45.88544" lon="-1.19598">
        <ele>9.6</ele>
        <time>2026-08-14T10:44:35.000Z</time>
      </trkpt>
      <trkpt lat="45.88515" lon="-1.19602">
        <ele>8.5</ele>
        <time>2026-08-14T10:44:42.000Z</time>
      </trkpt>
      <trkpt lat="45.88498" lon="-1.19601">
        <ele>7.9</ele>
        <time>2026-08-14T10:44:46.000Z</time>
      </trkpt>
      <trkpt lat="45.88496" lon="-1.19599">
        <ele>7.8</ele>
        <time>2026-08-14T10:44:47.000Z</time>
      </trkpt>
      <trkpt lat="45.8849" lon="-1.19592">
        <ele>7.7</ele>
        <time>2026-08-14T10:44:49.000Z</time>
      </trkpt>
      <trkpt lat="45.88485" lon="-1.19576">
        <ele>7.4</ele>
        <time>2026-08-14T10:44:52.000Z</time>
      </trkpt>
      <trkpt lat="45.88479" lon="-1.19563">
        <ele>7.3</ele>
        <time>2026-08-14T10:44:55.000Z</time>
      </trkpt>
      <trkpt lat="45.88472" lon="-1.19549">
        <ele>7</ele>
        <time>2026-08-14T10:44:58.000Z</time>
      </trkpt>
      <trkpt lat="45.88468" lon="-1.19547">
        <ele>6.6</ele>
        <time>2026-08-14T10:44:59.000Z</time>
      </trkpt>
      <trkpt lat="45.88455" lon="-1.19543">
        <ele>5.5</ele>
        <time>2026-08-14T10:45:02.000Z</time>
      </trkpt>
      <trkpt lat="45.88425" lon="-1.19538">
        <ele>4.8</ele>
        <time>2026-08-14T10:45:08.000Z</time>
      </trkpt>
      <trkpt lat="45.88418" lon="-1.19527">
        <ele>4.9</ele>
        <time>2026-08-14T10:45:10.000Z</time>
      </trkpt>
      <trkpt lat="45.88416" lon="-1.1952">
        <ele>4.7</ele>
        <time>2026-08-14T10:45:11.000Z</time>
      </trkpt>
      <trkpt lat="45.88413" lon="-1.19505">
        <ele>4.2</ele>
        <time>2026-08-14T10:45:13.000Z</time>
      </trkpt>
      <trkpt lat="45.8841" lon="-1.19493">
        <ele>4</ele>
        <time>2026-08-14T10:45:15.000Z</time>
      </trkpt>
      <trkpt lat="45.88403" lon="-1.19464">
        <ele>4</ele>
        <time>2026-08-14T10:45:20.000Z</time>
      </trkpt>
      <trkpt lat="45.88402" lon="-1.19459">
        <ele>4</ele>
        <time>2026-08-14T10:45:21.000Z</time>
      </trkpt>
      <trkpt lat="45.88399" lon="-1.19449">
        <ele>4</ele>
        <time>2026-08-14T10:45:23.000Z</time>
      </trkpt>
      <trkpt lat="45.88396" lon="-1.19434">
        <ele>4</ele>
        <time>2026-08-14T10:45:26.000Z</time>
      </trkpt>
      <trkpt lat="45.88389" lon="-1.19415">
        <ele>4</ele>
        <time>2026-08-14T10:45:31.000Z</time>
      </trkpt>
      <trkpt lat="45.8838" lon="-1.19384">
        <ele>2.8</ele>
        <time>2026-08-14T10:45:39.000Z</time>
      </trkpt>
      <trkpt lat="45.88372" lon="-1.19351">
        <ele>3</ele>
        <time>2026-08-14T10:45:47.000Z</time>
      </trkpt>
      <trkpt lat="45.8837" lon="-1.19348">
        <ele>3.2</ele>
        <time>2026-08-14T10:45:48.000Z</time>
      </trkpt>
      <trkpt lat="45.88365" lon="-1.19346">
        <ele>3.7</ele>
        <time>2026-08-14T10:45:50.000Z</time>
      </trkpt>
      <trkpt lat="45.88358" lon="-1.19346">
        <ele>4</ele>
        <time>2026-08-14T10:45:54.000Z</time>
      </trkpt>
      <trkpt lat="45.88344" lon="-1.19358">
        <ele>4</ele>
        <time>2026-08-14T10:46:01.000Z</time>
      </trkpt>
      <trkpt lat="45.88328" lon="-1.19369">
        <ele>3.4</ele>
        <time>2026-08-14T10:46:07.000Z</time>
      </trkpt>
      <trkpt lat="45.88314" lon="-1.1938">
        <ele>3.4</ele>
        <time>2026-08-14T10:46:13.000Z</time>
      </trkpt>
      <trkpt lat="45.88299" lon="-1.19388">
        <ele>3.7</ele>
        <time>2026-08-14T10:46:19.000Z</time>
      </trkpt>
      <trkpt lat="45.88297" lon="-1.19391">
        <ele>3.6</ele>
        <time>2026-08-14T10:46:20.000Z</time>
      </trkpt>
      <trkpt lat="45.88282" lon="-1.19401">
        <ele>3.1</ele>
        <time>2026-08-14T10:46:25.000Z</time>
      </trkpt>
      <trkpt lat="45.88268" lon="-1.19418">
        <ele>2.7</ele>
        <time>2026-08-14T10:46:31.000Z</time>
      </trkpt>
      <trkpt lat="45.88268" lon="-1.19436">
        <ele>2.9</ele>
        <time>2026-08-14T10:46:36.000Z</time>
      </trkpt>
      <trkpt lat="45.88267" lon="-1.1944">
        <ele>2.9</ele>
        <time>2026-08-14T10:46:38.000Z</time>
      </trkpt>
      <trkpt lat="45.88265" lon="-1.19444">
        <ele>3</ele>
        <time>2026-08-14T10:46:41.000Z</time>
      </trkpt>
      <trkpt lat="45.88263" lon="-1.19446">
        <ele>3</ele>
        <time>2026-08-14T10:46:45.000Z</time>
      </trkpt>
      <trkpt lat="45.88263" lon="-1.19446">
        <ele>3</ele>
        <time>2026-08-14T10:46:47.000Z</time>
      </trkpt>
      <trkpt lat="45.88271" lon="-1.19449">
        <ele>3</ele>
        <time>2026-08-14T12:42:28.000Z</time>
      </trkpt>
      <trkpt lat="45.88256" lon="-1.19442">
        <ele>2.9</ele>
        <time>2026-08-14T12:42:33.000Z</time>
      </trkpt>
      <trkpt lat="45.88259" lon="-1.19441">
        <ele>2.9</ele>
        <time>2026-08-14T12:42:35.000Z</time>
      </trkpt>
      <trkpt lat="45.88262" lon="-1.19441">
        <ele>2.9</ele>
        <time>2026-08-14T12:42:37.000Z</time>
      </trkpt>
      <trkpt lat="45.88259" lon="-1.19442">
        <ele>2.9</ele>
        <time>2026-08-14T12:42:38.000Z</time>
      </trkpt>
      <trkpt lat="45.88261" lon="-1.19441">
        <ele>2.9</ele>
        <time>2026-08-14T12:42:41.000Z</time>
      </trkpt>
      <trkpt lat="45.8826" lon="-1.19442">
        <ele>2.9</ele>
        <time>2026-08-14T12:42:46.000Z</time>
      </trkpt>
      <trkpt lat="45.88265" lon="-1.1943">
        <ele>2.8</ele>
        <time>2026-08-14T12:43:46.000Z</time>
      </trkpt>
      <trkpt lat="45.88265" lon="-1.19422">
        <ele>2.6</ele>
        <time>2026-08-14T12:43:49.000Z</time>
      </trkpt>
      <trkpt lat="45.88265" lon="-1.1942">
        <ele>2.6</ele>
        <time>2026-08-14T12:43:50.000Z</time>
      </trkpt>
      <trkpt lat="45.88272" lon="-1.19411">
        <ele>2.8</ele>
        <time>2026-08-14T12:43:54.000Z</time>
      </trkpt>
      <trkpt lat="45.88281" lon="-1.19401">
        <ele>3.1</ele>
        <time>2026-08-14T12:44:00.000Z</time>
      </trkpt>
      <trkpt lat="45.88292" lon="-1.19393">
        <ele>3.4</ele>
        <time>2026-08-14T12:44:07.000Z</time>
      </trkpt>
      <trkpt lat="45.88296" lon="-1.1939">
        <ele>3.6</ele>
        <time>2026-08-14T12:44:09.000Z</time>
      </trkpt>
      <trkpt lat="45.88307" lon="-1.19381">
        <ele>3.7</ele>
        <time>2026-08-14T12:44:15.000Z</time>
      </trkpt>
      <trkpt lat="45.88312" lon="-1.19377">
        <ele>3.4</ele>
        <time>2026-08-14T12:44:18.000Z</time>
      </trkpt>
      <trkpt lat="45.88318" lon="-1.19375">
        <ele>3.3</ele>
        <time>2026-08-14T12:44:21.000Z</time>
      </trkpt>
      <trkpt lat="45.88332" lon="-1.1937">
        <ele>3.4</ele>
        <time>2026-08-14T12:44:28.000Z</time>
      </trkpt>
      <trkpt lat="45.88334" lon="-1.19369">
        <ele>3.4</ele>
        <time>2026-08-14T12:44:29.000Z</time>
      </trkpt>
      <trkpt lat="45.88341" lon="-1.19359">
        <ele>4</ele>
        <time>2026-08-14T12:44:35.000Z</time>
      </trkpt>
      <trkpt lat="45.88342" lon="-1.19358">
        <ele>4</ele>
        <time>2026-08-14T12:44:36.000Z</time>
      </trkpt>
      <trkpt lat="45.88349" lon="-1.19352">
        <ele>4</ele>
        <time>2026-08-14T12:44:40.000Z</time>
      </trkpt>
      <trkpt lat="45.88359" lon="-1.19346">
        <ele>4</ele>
        <time>2026-08-14T12:44:45.000Z</time>
      </trkpt>
      <trkpt lat="45.88363" lon="-1.19343">
        <ele>3.8</ele>
        <time>2026-08-14T12:44:47.000Z</time>
      </trkpt>
      <trkpt lat="45.88366" lon="-1.19341">
        <ele>3.6</ele>
        <time>2026-08-14T12:44:49.000Z</time>
      </trkpt>
      <trkpt lat="45.88366" lon="-1.19336">
        <ele>3.6</ele>
        <time>2026-08-14T12:44:51.000Z</time>
      </trkpt>
      <trkpt lat="45.88362" lon="-1.19321">
        <ele>4</ele>
        <time>2026-08-14T12:44:57.000Z</time>
      </trkpt>
      <trkpt lat="45.88358" lon="-1.19304">
        <ele>4</ele>
        <time>2026-08-14T12:45:02.000Z</time>
      </trkpt>
      <trkpt lat="45.88357" lon="-1.19297">
        <ele>4</ele>
        <time>2026-08-14T12:45:04.000Z</time>
      </trkpt>
      <trkpt lat="45.88351" lon="-1.19274">
        <ele>3.9</ele>
        <time>2026-08-14T12:45:11.000Z</time>
      </trkpt>
      <trkpt lat="45.88344" lon="-1.1925">
        <ele>3.6</ele>
        <time>2026-08-14T12:45:19.000Z</time>
      </trkpt>
      <trkpt lat="45.88338" lon="-1.19237">
        <ele>4.3</ele>
        <time>2026-08-14T12:45:23.000Z</time>
      </trkpt>
      <trkpt lat="45.88333" lon="-1.19225">
        <ele>4.9</ele>
        <time>2026-08-14T12:45:27.000Z</time>
      </trkpt>
      <trkpt lat="45.88332" lon="-1.19202">
        <ele>5</ele>
        <time>2026-08-14T12:45:33.000Z</time>
      </trkpt>
      <trkpt lat="45.88326" lon="-1.19168">
        <ele>5</ele>
        <time>2026-08-14T12:45:42.000Z</time>
      </trkpt>
      <trkpt lat="45.88318" lon="-1.19134">
        <ele>4.6</ele>
        <time>2026-08-14T12:45:51.000Z</time>
      </trkpt>
      <trkpt lat="45.88316" lon="-1.19128">
        <ele>4.8</ele>
        <time>2026-08-14T12:45:53.000Z</time>
      </trkpt>
      <trkpt lat="45.88309" lon="-1.19104">
        <ele>5</ele>
        <time>2026-08-14T12:46:00.000Z</time>
      </trkpt>
      <trkpt lat="45.88303" lon="-1.19071">
        <ele>4.6</ele>
        <time>2026-08-14T12:46:09.000Z</time>
      </trkpt>
      <trkpt lat="45.88309" lon="-1.19059">
        <ele>3.9</ele>
        <time>2026-08-14T12:46:13.000Z</time>
      </trkpt>
      <trkpt lat="45.8832" lon="-1.19055">
        <ele>3</ele>
        <time>2026-08-14T12:46:17.000Z</time>
      </trkpt>
      <trkpt lat="45.88333" lon="-1.19071">
        <ele>3.1</ele>
        <time>2026-08-14T12:46:22.000Z</time>
      </trkpt>
      <trkpt lat="45.88335" lon="-1.19088">
        <ele>4.2</ele>
        <time>2026-08-14T12:46:27.000Z</time>
      </trkpt>
      <trkpt lat="45.8834" lon="-1.19112">
        <ele>4.5</ele>
        <time>2026-08-14T12:46:34.000Z</time>
      </trkpt>
      <trkpt lat="45.88342" lon="-1.19127">
        <ele>4.2</ele>
        <time>2026-08-14T12:46:37.000Z</time>
      </trkpt>
      <trkpt lat="45.88342" lon="-1.19131">
        <ele>4.1</ele>
        <time>2026-08-14T12:46:38.000Z</time>
      </trkpt>
      <trkpt lat="45.88343" lon="-1.19135">
        <ele>4</ele>
        <time>2026-08-14T12:46:39.000Z</time>
      </trkpt>
      <trkpt lat="45.8835" lon="-1.19164">
        <ele>2.8</ele>
        <time>2026-08-14T12:46:46.000Z</time>
      </trkpt>
      <trkpt lat="45.88353" lon="-1.19177">
        <ele>2.7</ele>
        <time>2026-08-14T12:46:51.000Z</time>
      </trkpt>
      <trkpt lat="45.88353" lon="-1.19178">
        <ele>2.8</ele>
        <time>2026-08-14T12:46:54.000Z</time>
      </trkpt>
      <trkpt lat="45.88355" lon="-1.19181">
        <ele>2.7</ele>
        <time>2026-08-14T12:47:34.000Z</time>
      </trkpt>
      <trkpt lat="45.88355" lon="-1.19183">
        <ele>2.8</ele>
        <time>2026-08-14T12:47:35.000Z</time>
      </trkpt>
      <trkpt lat="45.8836" lon="-1.19201">
        <ele>3.3</ele>
        <time>2026-08-14T12:47:41.000Z</time>
      </trkpt>
      <trkpt lat="45.88363" lon="-1.19224">
        <ele>3.9</ele>
        <time>2026-08-14T12:47:48.000Z</time>
      </trkpt>
      <trkpt lat="45.88359" lon="-1.19239">
        <ele>3.5</ele>
        <time>2026-08-14T12:47:54.000Z</time>
      </trkpt>
      <trkpt lat="45.88358" lon="-1.19242">
        <ele>3.4</ele>
        <time>2026-08-14T12:47:55.000Z</time>
      </trkpt>
      <trkpt lat="45.88356" lon="-1.19247">
        <ele>3.3</ele>
        <time>2026-08-14T12:47:57.000Z</time>
      </trkpt>
      <trkpt lat="45.88351" lon="-1.19261">
        <ele>3.6</ele>
        <time>2026-08-14T12:48:03.000Z</time>
      </trkpt>
      <trkpt lat="45.88351" lon="-1.19264">
        <ele>3.7</ele>
        <time>2026-08-14T12:48:04.000Z</time>
      </trkpt>
      <trkpt lat="45.88357" lon="-1.19288">
        <ele>4</ele>
        <time>2026-08-14T12:48:10.000Z</time>
      </trkpt>
      <trkpt lat="45.88366" lon="-1.19325">
        <ele>3.8</ele>
        <time>2026-08-14T12:48:18.000Z</time>
      </trkpt>
      <trkpt lat="45.88367" lon="-1.1933">
        <ele>3.6</ele>
        <time>2026-08-14T12:48:19.000Z</time>
      </trkpt>
      <trkpt lat="45.88378" lon="-1.19369">
        <ele>2.4</ele>
        <time>2026-08-14T12:48:28.000Z</time>
      </trkpt>
      <trkpt lat="45.88389" lon="-1.19411">
        <ele>4</ele>
        <time>2026-08-14T12:48:37.000Z</time>
      </trkpt>
      <trkpt lat="45.88391" lon="-1.1942">
        <ele>4</ele>
        <time>2026-08-14T12:48:39.000Z</time>
      </trkpt>
      <trkpt lat="45.88401" lon="-1.19457">
        <ele>4</ele>
        <time>2026-08-14T12:48:47.000Z</time>
      </trkpt>
      <trkpt lat="45.88411" lon="-1.195">
        <ele>4</ele>
        <time>2026-08-14T12:48:56.000Z</time>
      </trkpt>
      <trkpt lat="45.88417" lon="-1.1952">
        <ele>4.7</ele>
        <time>2026-08-14T12:49:01.000Z</time>
      </trkpt>
      <trkpt lat="45.88418" lon="-1.19524">
        <ele>4.8</ele>
        <time>2026-08-14T12:49:02.000Z</time>
      </trkpt>
      <trkpt lat="45.88429" lon="-1.19536">
        <ele>4.7</ele>
        <time>2026-08-14T12:49:07.000Z</time>
      </trkpt>
      <trkpt lat="45.88453" lon="-1.19543">
        <ele>5.3</ele>
        <time>2026-08-14T12:49:16.000Z</time>
      </trkpt>
      <trkpt lat="45.88466" lon="-1.1954">
        <ele>6.4</ele>
        <time>2026-08-14T12:49:22.000Z</time>
      </trkpt>
      <trkpt lat="45.88468" lon="-1.19537">
        <ele>6.6</ele>
        <time>2026-08-14T12:49:23.000Z</time>
      </trkpt>
      <trkpt lat="45.88478" lon="-1.19518">
        <ele>7.6</ele>
        <time>2026-08-14T12:49:30.000Z</time>
      </trkpt>
      <trkpt lat="45.88481" lon="-1.19513">
        <ele>7.9</ele>
        <time>2026-08-14T12:49:32.000Z</time>
      </trkpt>
      <trkpt lat="45.88489" lon="-1.195">
        <ele>8.6</ele>
        <time>2026-08-14T12:49:37.000Z</time>
      </trkpt>
      <trkpt lat="45.88495" lon="-1.19493">
        <ele>8.6</ele>
        <time>2026-08-14T12:49:40.000Z</time>
      </trkpt>
      <trkpt lat="45.88505" lon="-1.19491">
        <ele>8.7</ele>
        <time>2026-08-14T12:49:46.000Z</time>
      </trkpt>
      <trkpt lat="45.88514" lon="-1.1949">
        <ele>8.6</ele>
        <time>2026-08-14T12:49:50.000Z</time>
      </trkpt>
      <trkpt lat="45.88527" lon="-1.19488">
        <ele>8.6</ele>
        <time>2026-08-14T12:49:55.000Z</time>
      </trkpt>
      <trkpt lat="45.88554" lon="-1.19485">
        <ele>8.9</ele>
        <time>2026-08-14T12:50:05.000Z</time>
      </trkpt>
      <trkpt lat="45.88568" lon="-1.19483">
        <ele>9.1</ele>
        <time>2026-08-14T12:50:10.000Z</time>
      </trkpt>
      <trkpt lat="45.88575" lon="-1.19482">
        <ele>9.1</ele>
        <time>2026-08-14T12:50:13.000Z</time>
      </trkpt>
      <trkpt lat="45.88589" lon="-1.1947">
        <ele>9</ele>
        <time>2026-08-14T12:50:19.000Z</time>
      </trkpt>
      <trkpt lat="45.88588" lon="-1.19453">
        <ele>8.9</ele>
        <time>2026-08-14T12:50:23.000Z</time>
      </trkpt>
      <trkpt lat="45.88577" lon="-1.19423">
        <ele>8.7</ele>
        <time>2026-08-14T12:50:30.000Z</time>
      </trkpt>
      <trkpt lat="45.88566" lon="-1.19393">
        <ele>8.6</ele>
        <time>2026-08-14T12:50:37.000Z</time>
      </trkpt>
      <trkpt lat="45.8856" lon="-1.19376">
        <ele>9.3</ele>
        <time>2026-08-14T12:50:41.000Z</time>
      </trkpt>
      <trkpt lat="45.88547" lon="-1.19345">
        <ele>9.7</ele>
        <time>2026-08-14T12:50:49.000Z</time>
      </trkpt>
      <trkpt lat="45.88534" lon="-1.19309">
        <ele>8.8</ele>
        <time>2026-08-14T12:50:57.000Z</time>
      </trkpt>
      <trkpt lat="45.88517" lon="-1.19263">
        <ele>8.8</ele>
        <time>2026-08-14T12:51:06.000Z</time>
      </trkpt>
      <trkpt lat="45.88512" lon="-1.19253">
        <ele>8.9</ele>
        <time>2026-08-14T12:51:08.000Z</time>
      </trkpt>
      <trkpt lat="45.88496" lon="-1.19211">
        <ele>7.7</ele>
        <time>2026-08-14T12:51:15.000Z</time>
      </trkpt>
      <trkpt lat="45.88478" lon="-1.19165">
        <ele>6.7</ele>
        <time>2026-08-14T12:51:22.000Z</time>
      </trkpt>
      <trkpt lat="45.88476" lon="-1.19159">
        <ele>6.6</ele>
        <time>2026-08-14T12:51:23.000Z</time>
      </trkpt>
      <trkpt lat="45.88467" lon="-1.19135">
        <ele>6.4</ele>
        <time>2026-08-14T12:51:27.000Z</time>
      </trkpt>
      <trkpt lat="45.88463" lon="-1.19125">
        <ele>6.1</ele>
        <time>2026-08-14T12:51:29.000Z</time>
      </trkpt>
      <trkpt lat="45.88451" lon="-1.19094">
        <ele>6</ele>
        <time>2026-08-14T12:51:35.000Z</time>
      </trkpt>
      <trkpt lat="45.88449" lon="-1.19088">
        <ele>5.8</ele>
        <time>2026-08-14T12:51:36.000Z</time>
      </trkpt>
      <trkpt lat="45.88447" lon="-1.19082">
        <ele>5.5</ele>
        <time>2026-08-14T12:51:37.000Z</time>
      </trkpt>
      <trkpt lat="45.88434" lon="-1.19052">
        <ele>4.9</ele>
        <time>2026-08-14T12:51:43.000Z</time>
      </trkpt>
      <trkpt lat="45.8842" lon="-1.19015">
        <ele>5.3</ele>
        <time>2026-08-14T12:51:51.000Z</time>
      </trkpt>
      <trkpt lat="45.8841" lon="-1.18988">
        <ele>4.3</ele>
        <time>2026-08-14T12:51:58.000Z</time>
      </trkpt>
      <trkpt lat="45.88409" lon="-1.18978">
        <ele>4.6</ele>
        <time>2026-08-14T12:52:02.000Z</time>
      </trkpt>
      <trkpt lat="45.88409" lon="-1.18977">
        <ele>4.6</ele>
        <time>2026-08-14T12:52:04.000Z</time>
      </trkpt>
      <trkpt lat="45.88522" lon="-1.18954">
        <ele>11.5</ele>
        <time>2026-08-14T12:54:32.000Z</time>
      </trkpt>
      <trkpt lat="45.88522" lon="-1.18977">
        <ele>7.7</ele>
        <time>2026-08-14T12:54:49.000Z</time>
      </trkpt>
      <trkpt lat="45.88626" lon="-1.19002">
        <ele>8.4</ele>
        <time>2026-08-14T12:57:12.000Z</time>
      </trkpt>
      <trkpt lat="45.88627" lon="-1.19001">
        <ele>8.4</ele>
        <time>2026-08-14T12:57:13.000Z</time>
      </trkpt>
      <trkpt lat="45.88638" lon="-1.18993">
        <ele>7</ele>
        <time>2026-08-14T12:57:24.000Z</time>
      </trkpt>
      <trkpt lat="45.88646" lon="-1.18986">
        <ele>6.6</ele>
        <time>2026-08-14T12:57:33.000Z</time>
      </trkpt>
      <trkpt lat="45.88658" lon="-1.18979">
        <ele>7.2</ele>
        <time>2026-08-14T12:57:44.000Z</time>
      </trkpt>
      <trkpt lat="45.88669" lon="-1.1898">
        <ele>8.3</ele>
        <time>2026-08-14T12:57:55.000Z</time>
      </trkpt>
      <trkpt lat="45.88676" lon="-1.18991">
        <ele>8.1</ele>
        <time>2026-08-14T12:58:04.000Z</time>
      </trkpt>
      <trkpt lat="45.88678" lon="-1.19007">
        <ele>7</ele>
        <time>2026-08-14T12:58:15.000Z</time>
      </trkpt>
      <trkpt lat="45.8868" lon="-1.19018">
        <ele>5.9</ele>
        <time>2026-08-14T12:58:23.000Z</time>
      </trkpt>
      <trkpt lat="45.88684" lon="-1.19036">
        <ele>5.7</ele>
        <time>2026-08-14T12:58:35.000Z</time>
      </trkpt>
      <trkpt lat="45.88692" lon="-1.19048">
        <ele>7.1</ele>
        <time>2026-08-14T12:58:45.000Z</time>
      </trkpt>
      <trkpt lat="45.88702" lon="-1.19052">
        <ele>8</ele>
        <time>2026-08-14T12:58:55.000Z</time>
      </trkpt>
      <trkpt lat="45.88716" lon="-1.19058">
        <ele>8.7</ele>
        <time>2026-08-14T12:59:08.000Z</time>
      </trkpt>
      <trkpt lat="45.88726" lon="-1.19061">
        <ele>8.9</ele>
        <time>2026-08-14T12:59:18.000Z</time>
      </trkpt>
      <trkpt lat="45.88732" lon="-1.19061">
        <ele>8.7</ele>
        <time>2026-08-14T12:59:25.000Z</time>
      </trkpt>
      <trkpt lat="45.88732" lon="-1.19055">
        <ele>8.6</ele>
        <time>2026-08-14T12:59:30.000Z</time>
      </trkpt>
      <trkpt lat="45.88735" lon="-1.19049">
        <ele>8.6</ele>
        <time>2026-08-14T12:59:36.000Z</time>
      </trkpt>
      <trkpt lat="45.88737" lon="-1.19046">
        <ele>8.5</ele>
        <time>2026-08-14T12:59:38.000Z</time>
      </trkpt>
      <trkpt lat="45.88742" lon="-1.19037">
        <ele>8.3</ele>
        <time>2026-08-14T12:59:43.000Z</time>
      </trkpt>
      <trkpt lat="45.88743" lon="-1.19036">
        <ele>8.3</ele>
        <time>2026-08-14T12:59:44.000Z</time>
      </trkpt>
      <trkpt lat="45.88743" lon="-1.19034">
        <ele>8.2</ele>
        <time>2026-08-14T12:59:45.000Z</time>
      </trkpt>
      <trkpt lat="45.88747" lon="-1.19028">
        <ele>8.1</ele>
        <time>2026-08-14T12:59:49.000Z</time>
      </trkpt>
      <trkpt lat="45.88757" lon="-1.19024">
        <ele>5.6</ele>
        <time>2026-08-14T12:59:55.000Z</time>
      </trkpt>
      <trkpt lat="45.8876" lon="-1.19025">
        <ele>5</ele>
        <time>2026-08-14T12:59:57.000Z</time>
      </trkpt>
      <trkpt lat="45.88771" lon="-1.19032">
        <ele>3.5</ele>
        <time>2026-08-14T13:00:04.000Z</time>
      </trkpt>
      <trkpt lat="45.8878" lon="-1.19041">
        <ele>3.6</ele>
        <time>2026-08-14T13:00:09.000Z</time>
      </trkpt>
      <trkpt lat="45.88798" lon="-1.1906">
        <ele>3.4</ele>
        <time>2026-08-14T13:00:19.000Z</time>
      </trkpt>
      <trkpt lat="45.88814" lon="-1.19076">
        <ele>4.1</ele>
        <time>2026-08-14T13:00:26.000Z</time>
      </trkpt>
      <trkpt lat="45.88833" lon="-1.19097">
        <ele>4.4</ele>
        <time>2026-08-14T13:00:35.000Z</time>
      </trkpt>
      <trkpt lat="45.88857" lon="-1.19121">
        <ele>3.9</ele>
        <time>2026-08-14T13:00:46.000Z</time>
      </trkpt>
      <trkpt lat="45.88864" lon="-1.19137">
        <ele>6.4</ele>
        <time>2026-08-14T13:00:51.000Z</time>
      </trkpt>
      <trkpt lat="45.88869" lon="-1.19156">
        <ele>7.4</ele>
        <time>2026-08-14T13:00:54.000Z</time>
      </trkpt>
      <trkpt lat="45.88872" lon="-1.19162">
        <ele>7.7</ele>
        <time>2026-08-14T13:00:55.000Z</time>
      </trkpt>
      <trkpt lat="45.88876" lon="-1.19166">
        <ele>7.9</ele>
        <time>2026-08-14T13:00:56.000Z</time>
      </trkpt>
      <trkpt lat="45.8888" lon="-1.19167">
        <ele>8</ele>
        <time>2026-08-14T13:00:57.000Z</time>
      </trkpt>
      <trkpt lat="45.88885" lon="-1.19172">
        <ele>7.8</ele>
        <time>2026-08-14T13:00:59.000Z</time>
      </trkpt>
      <trkpt lat="45.88888" lon="-1.19179">
        <ele>7.6</ele>
        <time>2026-08-14T13:01:01.000Z</time>
      </trkpt>
      <trkpt lat="45.88898" lon="-1.1921">
        <ele>7.5</ele>
        <time>2026-08-14T13:01:10.000Z</time>
      </trkpt>
      <trkpt lat="45.88907" lon="-1.19236">
        <ele>6.7</ele>
        <time>2026-08-14T13:01:18.000Z</time>
      </trkpt>
      <trkpt lat="45.88914" lon="-1.19258">
        <ele>5.4</ele>
        <time>2026-08-14T13:01:24.000Z</time>
      </trkpt>
      <trkpt lat="45.88928" lon="-1.19297">
        <ele>4.9</ele>
        <time>2026-08-14T13:01:34.000Z</time>
      </trkpt>
      <trkpt lat="45.88938" lon="-1.19322">
        <ele>3.6</ele>
        <time>2026-08-14T13:01:41.000Z</time>
      </trkpt>
      <trkpt lat="45.88958" lon="-1.19354">
        <ele>3.6</ele>
        <time>2026-08-14T13:01:51.000Z</time>
      </trkpt>
      <trkpt lat="45.88974" lon="-1.19379">
        <ele>5</ele>
        <time>2026-08-14T13:01:59.000Z</time>
      </trkpt>
      <trkpt lat="45.8898" lon="-1.19389">
        <ele>5.2</ele>
        <time>2026-08-14T13:02:04.000Z</time>
      </trkpt>
      <trkpt lat="45.8899" lon="-1.19405">
        <ele>4.1</ele>
        <time>2026-08-14T13:02:11.000Z</time>
      </trkpt>
      <trkpt lat="45.88997" lon="-1.19417">
        <ele>4.2</ele>
        <time>2026-08-14T13:02:17.000Z</time>
      </trkpt>
      <trkpt lat="45.88998" lon="-1.19419">
        <ele>4.4</ele>
        <time>2026-08-14T13:02:19.000Z</time>
      </trkpt>
      <trkpt lat="45.89002" lon="-1.19426">
        <ele>4.8</ele>
        <time>2026-08-14T13:02:22.000Z</time>
      </trkpt>
      <trkpt lat="45.89011" lon="-1.19441">
        <ele>5.5</ele>
        <time>2026-08-14T13:02:27.000Z</time>
      </trkpt>
      <trkpt lat="45.89013" lon="-1.19446">
        <ele>5.6</ele>
        <time>2026-08-14T13:02:31.000Z</time>
      </trkpt>
      <trkpt lat="45.89013" lon="-1.19446">
        <ele>5.6</ele>
        <time>2026-08-14T13:02:33.000Z</time>
      </trkpt>
      <trkpt lat="45.89008" lon="-1.19458">
        <ele>5.9</ele>
        <time>2026-08-14T13:02:47.000Z</time>
      </trkpt>
      <trkpt lat="45.89007" lon="-1.19459">
        <ele>6</ele>
        <time>2026-08-14T13:02:49.000Z</time>
      </trkpt>
      <trkpt lat="45.89007" lon="-1.1946">
        <ele>6</ele>
        <time>2026-08-14T13:02:50.000Z</time>
      </trkpt>
      <trkpt lat="45.89004" lon="-1.19468">
        <ele>6</ele>
        <time>2026-08-14T13:02:53.000Z</time>
      </trkpt>
      <trkpt lat="45.88994" lon="-1.19493">
        <ele>6.2</ele>
        <time>2026-08-14T13:02:58.000Z</time>
      </trkpt>
      <trkpt lat="45.8899" lon="-1.19506">
        <ele>6</ele>
        <time>2026-08-14T13:03:00.000Z</time>
      </trkpt>
      <trkpt lat="45.88982" lon="-1.19523">
        <ele>5.3</ele>
        <time>2026-08-14T13:03:03.000Z</time>
      </trkpt>
      <trkpt lat="45.88977" lon="-1.19533">
        <ele>4.6</ele>
        <time>2026-08-14T13:03:05.000Z</time>
      </trkpt>
      <trkpt lat="45.88972" lon="-1.19547">
        <ele>4</ele>
        <time>2026-08-14T13:03:08.000Z</time>
      </trkpt>
      <trkpt lat="45.8897" lon="-1.19552">
        <ele>4</ele>
        <time>2026-08-14T13:03:09.000Z</time>
      </trkpt>
      <trkpt lat="45.88968" lon="-1.1956">
        <ele>4.4</ele>
        <time>2026-08-14T13:03:11.000Z</time>
      </trkpt>
      <trkpt lat="45.88961" lon="-1.19586">
        <ele>5.9</ele>
        <time>2026-08-14T13:03:18.000Z</time>
      </trkpt>
      <trkpt lat="45.88954" lon="-1.19611">
        <ele>5.4</ele>
        <time>2026-08-14T13:03:25.000Z</time>
      </trkpt>
      <trkpt lat="45.88946" lon="-1.19638">
        <ele>5.1</ele>
        <time>2026-08-14T13:03:32.000Z</time>
      </trkpt>
      <trkpt lat="45.8894" lon="-1.19668">
        <ele>6.9</ele>
        <time>2026-08-14T13:03:41.000Z</time>
      </trkpt>
      <trkpt lat="45.88936" lon="-1.19685">
        <ele>7.7</ele>
        <time>2026-08-14T13:03:48.000Z</time>
      </trkpt>
      <trkpt lat="45.88933" lon="-1.19705">
        <ele>8.2</ele>
        <time>2026-08-14T13:03:54.000Z</time>
      </trkpt>
      <trkpt lat="45.88932" lon="-1.19718">
        <ele>8</ele>
        <time>2026-08-14T13:03:57.000Z</time>
      </trkpt>
      <trkpt lat="45.88928" lon="-1.1973">
        <ele>7.8</ele>
        <time>2026-08-14T13:04:00.000Z</time>
      </trkpt>
      <trkpt lat="45.88918" lon="-1.19761">
        <ele>8.6</ele>
        <time>2026-08-14T13:04:07.000Z</time>
      </trkpt>
      <trkpt lat="45.88907" lon="-1.1978">
        <ele>9.3</ele>
        <time>2026-08-14T13:04:12.000Z</time>
      </trkpt>
      <trkpt lat="45.88877" lon="-1.19795">
        <ele>8</ele>
        <time>2026-08-14T13:04:21.000Z</time>
      </trkpt>
      <trkpt lat="45.88858" lon="-1.19802">
        <ele>8</ele>
        <time>2026-08-14T13:04:27.000Z</time>
      </trkpt>
      <trkpt lat="45.88837" lon="-1.19808">
        <ele>8</ele>
        <time>2026-08-14T13:04:34.000Z</time>
      </trkpt>
      <trkpt lat="45.8881" lon="-1.19818">
        <ele>8</ele>
        <time>2026-08-14T13:04:42.000Z</time>
      </trkpt>
      <trkpt lat="45.88801" lon="-1.19824">
        <ele>8</ele>
        <time>2026-08-14T13:04:45.000Z</time>
      </trkpt>
      <trkpt lat="45.88799" lon="-1.19828">
        <ele>8</ele>
        <time>2026-08-14T13:04:46.000Z</time>
      </trkpt>
      <trkpt lat="45.88794" lon="-1.19837">
        <ele>8.1</ele>
        <time>2026-08-14T13:04:50.000Z</time>
      </trkpt>
      <trkpt lat="45.88794" lon="-1.1984">
        <ele>8.1</ele>
        <time>2026-08-14T13:04:51.000Z</time>
      </trkpt>
      <trkpt lat="45.88795" lon="-1.19847">
        <ele>8.3</ele>
        <time>2026-08-14T13:04:53.000Z</time>
      </trkpt>
      <trkpt lat="45.88795" lon="-1.1985">
        <ele>8.4</ele>
        <time>2026-08-14T13:04:54.000Z</time>
      </trkpt>
      <trkpt lat="45.88792" lon="-1.19855">
        <ele>8.4</ele>
        <time>2026-08-14T13:04:56.000Z</time>
      </trkpt>
      <trkpt lat="45.88791" lon="-1.1986">
        <ele>8.5</ele>
        <time>2026-08-14T13:04:58.000Z</time>
      </trkpt>
      <trkpt lat="45.88792" lon="-1.19866">
        <ele>8</ele>
        <time>2026-08-14T13:05:00.000Z</time>
      </trkpt>
      <trkpt lat="45.88795" lon="-1.19883">
        <ele>5.9</ele>
        <time>2026-08-14T13:05:06.000Z</time>
      </trkpt>
      <trkpt lat="45.88799" lon="-1.19905">
        <ele>6.2</ele>
        <time>2026-08-14T13:05:11.000Z</time>
      </trkpt>
      <trkpt lat="45.88801" lon="-1.19931">
        <ele>7.8</ele>
        <time>2026-08-14T13:05:17.000Z</time>
      </trkpt>
      <trkpt lat="45.88805" lon="-1.19958">
        <ele>8</ele>
        <time>2026-08-14T13:05:23.000Z</time>
      </trkpt>
      <trkpt lat="45.88811" lon="-1.19978">
        <ele>8</ele>
        <time>2026-08-14T13:05:28.000Z</time>
      </trkpt>
      <trkpt lat="45.88813" lon="-1.19994">
        <ele>8</ele>
        <time>2026-08-14T13:05:33.000Z</time>
      </trkpt>
      <trkpt lat="45.88816" lon="-1.20011">
        <ele>8</ele>
        <time>2026-08-14T13:05:38.000Z</time>
      </trkpt>
      <trkpt lat="45.88818" lon="-1.20018">
        <ele>8</ele>
        <time>2026-08-14T13:05:40.000Z</time>
      </trkpt>
      <trkpt lat="45.88828" lon="-1.20044">
        <ele>8</ele>
        <time>2026-08-14T13:05:45.000Z</time>
      </trkpt>
      <trkpt lat="45.88834" lon="-1.20054">
        <ele>8</ele>
        <time>2026-08-14T13:05:47.000Z</time>
      </trkpt>
      <trkpt lat="45.88842" lon="-1.20064">
        <ele>7.2</ele>
        <time>2026-08-14T13:05:49.000Z</time>
      </trkpt>
      <trkpt lat="45.88851" lon="-1.20073">
        <ele>6.5</ele>
        <time>2026-08-14T13:05:51.000Z</time>
      </trkpt>
      <trkpt lat="45.8886" lon="-1.20083">
        <ele>6</ele>
        <time>2026-08-14T13:05:53.000Z</time>
      </trkpt>
      <trkpt lat="45.8888" lon="-1.201">
        <ele>6</ele>
        <time>2026-08-14T13:05:57.000Z</time>
      </trkpt>
      <trkpt lat="45.88884" lon="-1.20104">
        <ele>6</ele>
        <time>2026-08-14T13:05:58.000Z</time>
      </trkpt>
      <trkpt lat="45.88895" lon="-1.20107">
        <ele>6</ele>
        <time>2026-08-14T13:06:00.000Z</time>
      </trkpt>
      <trkpt lat="45.889" lon="-1.20108">
        <ele>5.9</ele>
        <time>2026-08-14T13:06:01.000Z</time>
      </trkpt>
      <trkpt lat="45.88905" lon="-1.20107">
        <ele>5.9</ele>
        <time>2026-08-14T13:06:02.000Z</time>
      </trkpt>
      <trkpt lat="45.88915" lon="-1.20104">
        <ele>5.7</ele>
        <time>2026-08-14T13:06:04.000Z</time>
      </trkpt>
      <trkpt lat="45.8892" lon="-1.20101">
        <ele>5.6</ele>
        <time>2026-08-14T13:06:05.000Z</time>
      </trkpt>
      <trkpt lat="45.88924" lon="-1.20096">
        <ele>5.5</ele>
        <time>2026-08-14T13:06:06.000Z</time>
      </trkpt>
      <trkpt lat="45.88931" lon="-1.20086">
        <ele>5.1</ele>
        <time>2026-08-14T13:06:08.000Z</time>
      </trkpt>
      <trkpt lat="45.88934" lon="-1.2008">
        <ele>5</ele>
        <time>2026-08-14T13:06:09.000Z</time>
      </trkpt>
      <trkpt lat="45.88953" lon="-1.20032">
        <ele>5</ele>
        <time>2026-08-14T13:06:17.000Z</time>
      </trkpt>
      <trkpt lat="45.88955" lon="-1.20026">
        <ele>5.1</ele>
        <time>2026-08-14T13:06:18.000Z</time>
      </trkpt>
      <trkpt lat="45.88962" lon="-1.20008">
        <ele>5.7</ele>
        <time>2026-08-14T13:06:21.000Z</time>
      </trkpt>
      <trkpt lat="45.88967" lon="-1.19998">
        <ele>6</ele>
        <time>2026-08-14T13:06:23.000Z</time>
      </trkpt>
      <trkpt lat="45.88975" lon="-1.19981">
        <ele>5.9</ele>
        <time>2026-08-14T13:06:27.000Z</time>
      </trkpt>
      <trkpt lat="45.88988" lon="-1.19949">
        <ele>5.8</ele>
        <time>2026-08-14T13:06:35.000Z</time>
      </trkpt>
      <trkpt lat="45.88999" lon="-1.19921">
        <ele>5</ele>
        <time>2026-08-14T13:06:40.000Z</time>
      </trkpt>
      <trkpt lat="45.89008" lon="-1.199">
        <ele>4</ele>
        <time>2026-08-14T13:06:43.000Z</time>
      </trkpt>
      <trkpt lat="45.89014" lon="-1.19887">
        <ele>3.5</ele>
        <time>2026-08-14T13:06:45.000Z</time>
      </trkpt>
      <trkpt lat="45.89023" lon="-1.19866">
        <ele>3.2</ele>
        <time>2026-08-14T13:06:48.000Z</time>
      </trkpt>
      <trkpt lat="45.89035" lon="-1.19839">
        <ele>3</ele>
        <time>2026-08-14T13:06:52.000Z</time>
      </trkpt>
      <trkpt lat="45.89056" lon="-1.19789">
        <ele>3</ele>
        <time>2026-08-14T13:07:00.000Z</time>
      </trkpt>
      <trkpt lat="45.89078" lon="-1.19739">
        <ele>3</ele>
        <time>2026-08-14T13:07:09.000Z</time>
      </trkpt>
      <trkpt lat="45.89091" lon="-1.19709">
        <ele>3.1</ele>
        <time>2026-08-14T13:07:15.000Z</time>
      </trkpt>
      <trkpt lat="45.89093" lon="-1.19705">
        <ele>3.2</ele>
        <time>2026-08-14T13:07:16.000Z</time>
      </trkpt>
      <trkpt lat="45.89098" lon="-1.19697">
        <ele>3.5</ele>
        <time>2026-08-14T13:07:20.000Z</time>
      </trkpt>
      <trkpt lat="45.891" lon="-1.19695">
        <ele>3.6</ele>
        <time>2026-08-14T13:07:22.000Z</time>
      </trkpt>
      <trkpt lat="45.891" lon="-1.19694">
        <ele>3.6</ele>
        <time>2026-08-14T13:07:26.000Z</time>
      </trkpt>
      <trkpt lat="45.89111" lon="-1.19685">
        <ele>4</ele>
        <time>2026-08-14T13:07:39.000Z</time>
      </trkpt>
      <trkpt lat="45.89116" lon="-1.19683">
        <ele>4.2</ele>
        <time>2026-08-14T13:07:42.000Z</time>
      </trkpt>
      <trkpt lat="45.8913" lon="-1.19687">
        <ele>4.7</ele>
        <time>2026-08-14T13:07:49.000Z</time>
      </trkpt>
      <trkpt lat="45.89145" lon="-1.19702">
        <ele>4.8</ele>
        <time>2026-08-14T13:07:56.000Z</time>
      </trkpt>
      <trkpt lat="45.89168" lon="-1.19726">
        <ele>4.9</ele>
        <time>2026-08-14T13:08:05.000Z</time>
      </trkpt>
      <trkpt lat="45.89189" lon="-1.19751">
        <ele>4.8</ele>
        <time>2026-08-14T13:08:13.000Z</time>
      </trkpt>
      <trkpt lat="45.89212" lon="-1.19776">
        <ele>5.2</ele>
        <time>2026-08-14T13:08:21.000Z</time>
      </trkpt>
      <trkpt lat="45.89218" lon="-1.19782">
        <ele>5.4</ele>
        <time>2026-08-14T13:08:23.000Z</time>
      </trkpt>
      <trkpt lat="45.89244" lon="-1.19811">
        <ele>4.8</ele>
        <time>2026-08-14T13:08:32.000Z</time>
      </trkpt>
      <trkpt lat="45.89266" lon="-1.19837">
        <ele>5.4</ele>
        <time>2026-08-14T13:08:40.000Z</time>
      </trkpt>
      <trkpt lat="45.89272" lon="-1.19848">
        <ele>5.3</ele>
        <time>2026-08-14T13:08:43.000Z</time>
      </trkpt>
      <trkpt lat="45.89272" lon="-1.19858">
        <ele>4.9</ele>
        <time>2026-08-14T13:08:45.000Z</time>
      </trkpt>
      <trkpt lat="45.89281" lon="-1.19874">
        <ele>5</ele>
        <time>2026-08-14T13:08:49.000Z</time>
      </trkpt>
      <trkpt lat="45.89307" lon="-1.19896">
        <ele>4.8</ele>
        <time>2026-08-14T13:08:57.000Z</time>
      </trkpt>
      <trkpt lat="45.89333" lon="-1.19922">
        <ele>4.8</ele>
        <time>2026-08-14T13:09:05.000Z</time>
      </trkpt>
      <trkpt lat="45.89362" lon="-1.19953">
        <ele>4.7</ele>
        <time>2026-08-14T13:09:14.000Z</time>
      </trkpt>
      <trkpt lat="45.89386" lon="-1.19978">
        <ele>4.7</ele>
        <time>2026-08-14T13:09:22.000Z</time>
      </trkpt>
      <trkpt lat="45.89408" lon="-1.20001">
        <ele>4.7</ele>
        <time>2026-08-14T13:09:29.000Z</time>
      </trkpt>
      <trkpt lat="45.89438" lon="-1.20033">
        <ele>4.6</ele>
        <time>2026-08-14T13:09:38.000Z</time>
      </trkpt>
      <trkpt lat="45.89462" lon="-1.20058">
        <ele>4.6</ele>
        <time>2026-08-14T13:09:46.000Z</time>
      </trkpt>
      <trkpt lat="45.89489" lon="-1.20088">
        <ele>5</ele>
        <time>2026-08-14T13:09:55.000Z</time>
      </trkpt>
      <trkpt lat="45.8951" lon="-1.2011">
        <ele>4.8</ele>
        <time>2026-08-14T13:10:02.000Z</time>
      </trkpt>
      <trkpt lat="45.89526" lon="-1.2013">
        <ele>4.6</ele>
        <time>2026-08-14T13:10:08.000Z</time>
      </trkpt>
      <trkpt lat="45.89529" lon="-1.20131">
        <ele>4.6</ele>
        <time>2026-08-14T13:10:09.000Z</time>
      </trkpt>
      <trkpt lat="45.89544" lon="-1.20142">
        <ele>4.5</ele>
        <time>2026-08-14T13:10:14.000Z</time>
      </trkpt>
      <trkpt lat="45.89571" lon="-1.20162">
        <ele>4.6</ele>
        <time>2026-08-14T13:10:23.000Z</time>
      </trkpt>
      <trkpt lat="45.89597" lon="-1.20182">
        <ele>4.7</ele>
        <time>2026-08-14T13:10:31.000Z</time>
      </trkpt>
      <trkpt lat="45.896" lon="-1.20185">
        <ele>4.7</ele>
        <time>2026-08-14T13:10:32.000Z</time>
      </trkpt>
      <trkpt lat="45.89617" lon="-1.20193">
        <ele>5</ele>
        <time>2026-08-14T13:10:37.000Z</time>
      </trkpt>
      <trkpt lat="45.89633" lon="-1.20201">
        <ele>4.9</ele>
        <time>2026-08-14T13:10:42.000Z</time>
      </trkpt>
      <trkpt lat="45.8965" lon="-1.20209">
        <ele>5</ele>
        <time>2026-08-14T13:10:47.000Z</time>
      </trkpt>
      <trkpt lat="45.89671" lon="-1.20219">
        <ele>5</ele>
        <time>2026-08-14T13:10:53.000Z</time>
      </trkpt>
      <trkpt lat="45.89696" lon="-1.2023">
        <ele>4.7</ele>
        <time>2026-08-14T13:11:00.000Z</time>
      </trkpt>
      <trkpt lat="45.89724" lon="-1.20242">
        <ele>5</ele>
        <time>2026-08-14T13:11:08.000Z</time>
      </trkpt>
      <trkpt lat="45.89753" lon="-1.20258">
        <ele>4.7</ele>
        <time>2026-08-14T13:11:16.000Z</time>
      </trkpt>
      <trkpt lat="45.89784" lon="-1.20274">
        <ele>5</ele>
        <time>2026-08-14T13:11:25.000Z</time>
      </trkpt>
      <trkpt lat="45.89817" lon="-1.20288">
        <ele>4.4</ele>
        <time>2026-08-14T13:11:34.000Z</time>
      </trkpt>
      <trkpt lat="45.89848" lon="-1.20297">
        <ele>4</ele>
        <time>2026-08-14T13:11:42.000Z</time>
      </trkpt>
      <trkpt lat="45.89873" lon="-1.20312">
        <ele>4</ele>
        <time>2026-08-14T13:11:49.000Z</time>
      </trkpt>
      <trkpt lat="45.89886" lon="-1.20323">
        <ele>4</ele>
        <time>2026-08-14T13:11:54.000Z</time>
      </trkpt>
      <trkpt lat="45.89889" lon="-1.20328">
        <ele>4</ele>
        <time>2026-08-14T13:11:55.000Z</time>
      </trkpt>
      <trkpt lat="45.89898" lon="-1.20342">
        <ele>3.8</ele>
        <time>2026-08-14T13:11:58.000Z</time>
      </trkpt>
      <trkpt lat="45.89915" lon="-1.2037">
        <ele>3.9</ele>
        <time>2026-08-14T13:12:04.000Z</time>
      </trkpt>
      <trkpt lat="45.89919" lon="-1.20375">
        <ele>4</ele>
        <time>2026-08-14T13:12:05.000Z</time>
      </trkpt>
      <trkpt lat="45.89945" lon="-1.20419">
        <ele>4</ele>
        <time>2026-08-14T13:12:15.000Z</time>
      </trkpt>
      <trkpt lat="45.89972" lon="-1.20467">
        <ele>4</ele>
        <time>2026-08-14T13:12:26.000Z</time>
      </trkpt>
      <trkpt lat="45.89986" lon="-1.20505">
        <ele>4.4</ele>
        <time>2026-08-14T13:12:33.000Z</time>
      </trkpt>
      <trkpt lat="45.90005" lon="-1.20553">
        <ele>4.4</ele>
        <time>2026-08-14T13:12:43.000Z</time>
      </trkpt>
      <trkpt lat="45.90016" lon="-1.20583">
        <ele>4.6</ele>
        <time>2026-08-14T13:12:49.000Z</time>
      </trkpt>
      <trkpt lat="45.90033" lon="-1.2063">
        <ele>4.1</ele>
        <time>2026-08-14T13:12:58.000Z</time>
      </trkpt>
      <trkpt lat="45.90047" lon="-1.20665">
        <ele>4.7</ele>
        <time>2026-08-14T13:13:05.000Z</time>
      </trkpt>
      <trkpt lat="45.9006" lon="-1.207">
        <ele>4</ele>
        <time>2026-08-14T13:13:13.000Z</time>
      </trkpt>
      <trkpt lat="45.90083" lon="-1.20752">
        <ele>3.1</ele>
        <time>2026-08-14T13:13:23.000Z</time>
      </trkpt>
      <trkpt lat="45.90099" lon="-1.20796">
        <ele>3.2</ele>
        <time>2026-08-14T13:13:32.000Z</time>
      </trkpt>
      <trkpt lat="45.90111" lon="-1.20838">
        <ele>4</ele>
        <time>2026-08-14T13:13:40.000Z</time>
      </trkpt>
      <trkpt lat="45.90123" lon="-1.20873">
        <ele>3.1</ele>
        <time>2026-08-14T13:13:47.000Z</time>
      </trkpt>
      <trkpt lat="45.90138" lon="-1.2092">
        <ele>4</ele>
        <time>2026-08-14T13:13:56.000Z</time>
      </trkpt>
      <trkpt lat="45.90149" lon="-1.20952">
        <ele>3.5</ele>
        <time>2026-08-14T13:14:03.000Z</time>
      </trkpt>
      <trkpt lat="45.90165" lon="-1.20986">
        <ele>3</ele>
        <time>2026-08-14T13:14:11.000Z</time>
      </trkpt>
      <trkpt lat="45.90181" lon="-1.21017">
        <ele>3.5</ele>
        <time>2026-08-14T13:14:18.000Z</time>
      </trkpt>
      <trkpt lat="45.90192" lon="-1.21037">
        <ele>3.6</ele>
        <time>2026-08-14T13:14:23.000Z</time>
      </trkpt>
      <trkpt lat="45.90198" lon="-1.21048">
        <ele>3.3</ele>
        <time>2026-08-14T13:14:26.000Z</time>
      </trkpt>
      <trkpt lat="45.9022" lon="-1.2109">
        <ele>3.7</ele>
        <time>2026-08-14T13:14:35.000Z</time>
      </trkpt>
      <trkpt lat="45.90236" lon="-1.2112">
        <ele>3.9</ele>
        <time>2026-08-14T13:14:42.000Z</time>
      </trkpt>
      <trkpt lat="45.90253" lon="-1.21156">
        <ele>3.5</ele>
        <time>2026-08-14T13:14:50.000Z</time>
      </trkpt>
      <trkpt lat="45.90269" lon="-1.21182">
        <ele>4.2</ele>
        <time>2026-08-14T13:14:56.000Z</time>
      </trkpt>
      <trkpt lat="45.90286" lon="-1.21217">
        <ele>4.3</ele>
        <time>2026-08-14T13:15:04.000Z</time>
      </trkpt>
      <trkpt lat="45.90303" lon="-1.21249">
        <ele>4</ele>
        <time>2026-08-14T13:15:12.000Z</time>
      </trkpt>
      <trkpt lat="45.90318" lon="-1.21277">
        <ele>4.4</ele>
        <time>2026-08-14T13:15:19.000Z</time>
      </trkpt>
      <trkpt lat="45.90327" lon="-1.21295">
        <ele>4.8</ele>
        <time>2026-08-14T13:15:24.000Z</time>
      </trkpt>
      <trkpt lat="45.90333" lon="-1.21306">
        <ele>5</ele>
        <time>2026-08-14T13:15:27.000Z</time>
      </trkpt>
      <trkpt lat="45.90348" lon="-1.21334">
        <ele>5</ele>
        <time>2026-08-14T13:15:35.000Z</time>
      </trkpt>
      <trkpt lat="45.90359" lon="-1.21356">
        <ele>4.9</ele>
        <time>2026-08-14T13:15:41.000Z</time>
      </trkpt>
      <trkpt lat="45.90373" lon="-1.21385">
        <ele>4.1</ele>
        <time>2026-08-14T13:15:48.000Z</time>
      </trkpt>
      <trkpt lat="45.90391" lon="-1.2142">
        <ele>4</ele>
        <time>2026-08-14T13:15:56.000Z</time>
      </trkpt>
      <trkpt lat="45.90411" lon="-1.21459">
        <ele>4</ele>
        <time>2026-08-14T13:16:05.000Z</time>
      </trkpt>
      <trkpt lat="45.90427" lon="-1.21495">
        <ele>3.9</ele>
        <time>2026-08-14T13:16:13.000Z</time>
      </trkpt>
      <trkpt lat="45.90429" lon="-1.21499">
        <ele>4</ele>
        <time>2026-08-14T13:16:14.000Z</time>
      </trkpt>
      <trkpt lat="45.90438" lon="-1.21519">
        <ele>4</ele>
        <time>2026-08-14T13:16:19.000Z</time>
      </trkpt>
      <trkpt lat="45.90455" lon="-1.21552">
        <ele>3.9</ele>
        <time>2026-08-14T13:16:27.000Z</time>
      </trkpt>
      <trkpt lat="45.90478" lon="-1.21597">
        <ele>3.8</ele>
        <time>2026-08-14T13:16:37.000Z</time>
      </trkpt>
      <trkpt lat="45.905" lon="-1.2164">
        <ele>4</ele>
        <time>2026-08-14T13:16:47.000Z</time>
      </trkpt>
      <trkpt lat="45.90525" lon="-1.21687">
        <ele>4</ele>
        <time>2026-08-14T13:16:58.000Z</time>
      </trkpt>
      <trkpt lat="45.90546" lon="-1.2173">
        <ele>3.3</ele>
        <time>2026-08-14T13:17:09.000Z</time>
      </trkpt>
      <trkpt lat="45.9056" lon="-1.21757">
        <ele>2.7</ele>
        <time>2026-08-14T13:17:17.000Z</time>
      </trkpt>
      <trkpt lat="45.90577" lon="-1.21777">
        <ele>4</ele>
        <time>2026-08-14T13:17:24.000Z</time>
      </trkpt>
      <trkpt lat="45.90584" lon="-1.21795">
        <ele>4</ele>
        <time>2026-08-14T13:17:29.000Z</time>
      </trkpt>
      <trkpt lat="45.90588" lon="-1.21803">
        <ele>4.2</ele>
        <time>2026-08-14T13:17:32.000Z</time>
      </trkpt>
      <trkpt lat="45.90591" lon="-1.21809">
        <ele>4.2</ele>
        <time>2026-08-14T13:17:34.000Z</time>
      </trkpt>
      <trkpt lat="45.90606" lon="-1.21827">
        <ele>4.2</ele>
        <time>2026-08-14T13:17:40.000Z</time>
      </trkpt>
      <trkpt lat="45.90621" lon="-1.2184">
        <ele>4.3</ele>
        <time>2026-08-14T13:17:45.000Z</time>
      </trkpt>
      <trkpt lat="45.90644" lon="-1.21857">
        <ele>4.3</ele>
        <time>2026-08-14T13:17:52.000Z</time>
      </trkpt>
      <trkpt lat="45.90665" lon="-1.21869">
        <ele>4.9</ele>
        <time>2026-08-14T13:17:58.000Z</time>
      </trkpt>
      <trkpt lat="45.90675" lon="-1.21875">
        <ele>5</ele>
        <time>2026-08-14T13:18:02.000Z</time>
      </trkpt>
      <trkpt lat="45.9069" lon="-1.21884">
        <ele>5</ele>
        <time>2026-08-14T13:18:06.000Z</time>
      </trkpt>
      <trkpt lat="45.90717" lon="-1.21903">
        <ele>5</ele>
        <time>2026-08-14T13:18:13.000Z</time>
      </trkpt>
      <trkpt lat="45.90735" lon="-1.21916">
        <ele>5</ele>
        <time>2026-08-14T13:18:18.000Z</time>
      </trkpt>
      <trkpt lat="45.90756" lon="-1.21929">
        <ele>4.7</ele>
        <time>2026-08-14T13:18:24.000Z</time>
      </trkpt>
      <trkpt lat="45.90778" lon="-1.21942">
        <ele>5</ele>
        <time>2026-08-14T13:18:31.000Z</time>
      </trkpt>
      <trkpt lat="45.90804" lon="-1.2196">
        <ele>5.5</ele>
        <time>2026-08-14T13:18:39.000Z</time>
      </trkpt>
      <trkpt lat="45.90811" lon="-1.21964">
        <ele>5.6</ele>
        <time>2026-08-14T13:18:41.000Z</time>
      </trkpt>
      <trkpt lat="45.9085" lon="-1.21991">
        <ele>5.3</ele>
        <time>2026-08-14T13:18:53.000Z</time>
      </trkpt>
      <trkpt lat="45.90879" lon="-1.2201">
        <ele>5</ele>
        <time>2026-08-14T13:19:01.000Z</time>
      </trkpt>
      <trkpt lat="45.9091" lon="-1.22029">
        <ele>5</ele>
        <time>2026-08-14T13:19:09.000Z</time>
      </trkpt>
      <trkpt lat="45.90935" lon="-1.22045">
        <ele>4.6</ele>
        <time>2026-08-14T13:19:15.000Z</time>
      </trkpt>
      <trkpt lat="45.9094" lon="-1.22049">
        <ele>4.4</ele>
        <time>2026-08-14T13:19:16.000Z</time>
      </trkpt>
      <trkpt lat="45.90985" lon="-1.22078">
        <ele>4.6</ele>
        <time>2026-08-14T13:19:26.000Z</time>
      </trkpt>
      <trkpt lat="45.91018" lon="-1.221">
        <ele>5.3</ele>
        <time>2026-08-14T13:19:34.000Z</time>
      </trkpt>
      <trkpt lat="45.91046" lon="-1.2212">
        <ele>5.4</ele>
        <time>2026-08-14T13:19:42.000Z</time>
      </trkpt>
      <trkpt lat="45.91069" lon="-1.22136">
        <ele>6</ele>
        <time>2026-08-14T13:19:49.000Z</time>
      </trkpt>
      <trkpt lat="45.91085" lon="-1.22148">
        <ele>7</ele>
        <time>2026-08-14T13:19:54.000Z</time>
      </trkpt>
      <trkpt lat="45.91088" lon="-1.22151">
        <ele>7</ele>
        <time>2026-08-14T13:19:55.000Z</time>
      </trkpt>
      <trkpt lat="45.91118" lon="-1.2218">
        <ele>6.6</ele>
        <time>2026-08-14T13:20:05.000Z</time>
      </trkpt>
      <trkpt lat="45.91149" lon="-1.22215">
        <ele>6.1</ele>
        <time>2026-08-14T13:20:15.000Z</time>
      </trkpt>
      <trkpt lat="45.9118" lon="-1.22246">
        <ele>5.8</ele>
        <time>2026-08-14T13:20:25.000Z</time>
      </trkpt>
      <trkpt lat="45.91197" lon="-1.2227">
        <ele>5.9</ele>
        <time>2026-08-14T13:20:31.000Z</time>
      </trkpt>
      <trkpt lat="45.91218" lon="-1.22296">
        <ele>5.9</ele>
        <time>2026-08-14T13:20:39.000Z</time>
      </trkpt>
      <trkpt lat="45.91239" lon="-1.22321">
        <ele>5.4</ele>
        <time>2026-08-14T13:20:47.000Z</time>
      </trkpt>
      <trkpt lat="45.91264" lon="-1.2235">
        <ele>5.1</ele>
        <time>2026-08-14T13:20:56.000Z</time>
      </trkpt>
      <trkpt lat="45.91284" lon="-1.22366">
        <ele>4.9</ele>
        <time>2026-08-14T13:21:02.000Z</time>
      </trkpt>
      <trkpt lat="45.91298" lon="-1.22374">
        <ele>4.9</ele>
        <time>2026-08-14T13:21:07.000Z</time>
      </trkpt>
      <trkpt lat="45.913" lon="-1.22377">
        <ele>5.1</ele>
        <time>2026-08-14T13:21:08.000Z</time>
      </trkpt>
      <trkpt lat="45.91302" lon="-1.22386">
        <ele>5.7</ele>
        <time>2026-08-14T13:21:10.000Z</time>
      </trkpt>
      <trkpt lat="45.91302" lon="-1.2239">
        <ele>5.8</ele>
        <time>2026-08-14T13:21:11.000Z</time>
      </trkpt>
      <trkpt lat="45.91308" lon="-1.22396">
        <ele>5.6</ele>
        <time>2026-08-14T13:21:13.000Z</time>
      </trkpt>
      <trkpt lat="45.91335" lon="-1.22418">
        <ele>4.8</ele>
        <time>2026-08-14T13:21:21.000Z</time>
      </trkpt>
      <trkpt lat="45.91353" lon="-1.22434">
        <ele>4.1</ele>
        <time>2026-08-14T13:21:26.000Z</time>
      </trkpt>
      <trkpt lat="45.91357" lon="-1.22436">
        <ele>4.2</ele>
        <time>2026-08-14T13:21:27.000Z</time>
      </trkpt>
      <trkpt lat="45.91396" lon="-1.22465">
        <ele>3.9</ele>
        <time>2026-08-14T13:21:37.000Z</time>
      </trkpt>
      <trkpt lat="45.91431" lon="-1.22485">
        <ele>3.4</ele>
        <time>2026-08-14T13:21:46.000Z</time>
      </trkpt>
      <trkpt lat="45.91462" lon="-1.22504">
        <ele>3.5</ele>
        <time>2026-08-14T13:21:55.000Z</time>
      </trkpt>
      <trkpt lat="45.91471" lon="-1.22514">
        <ele>3.5</ele>
        <time>2026-08-14T13:21:59.000Z</time>
      </trkpt>
      <trkpt lat="45.915" lon="-1.22531">
        <ele>3.9</ele>
        <time>2026-08-14T13:22:07.000Z</time>
      </trkpt>
      <trkpt lat="45.91519" lon="-1.22543">
        <ele>2.8</ele>
        <time>2026-08-14T13:22:12.000Z</time>
      </trkpt>
      <trkpt lat="45.9154" lon="-1.22556">
        <ele>3</ele>
        <time>2026-08-14T13:22:17.000Z</time>
      </trkpt>
      <trkpt lat="45.91566" lon="-1.22571">
        <ele>2.8</ele>
        <time>2026-08-14T13:22:23.000Z</time>
      </trkpt>
      <trkpt lat="45.9157" lon="-1.22574">
        <ele>2.8</ele>
        <time>2026-08-14T13:22:24.000Z</time>
      </trkpt>
      <trkpt lat="45.91579" lon="-1.22578">
        <ele>2.8</ele>
        <time>2026-08-14T13:22:26.000Z</time>
      </trkpt>
      <trkpt lat="45.91598" lon="-1.2259">
        <ele>3.4</ele>
        <time>2026-08-14T13:22:31.000Z</time>
      </trkpt>
      <trkpt lat="45.91613" lon="-1.226">
        <ele>3.4</ele>
        <time>2026-08-14T13:22:35.000Z</time>
      </trkpt>
      <trkpt lat="45.91621" lon="-1.22604">
        <ele>3.3</ele>
        <time>2026-08-14T13:22:37.000Z</time>
      </trkpt>
      <trkpt lat="45.91628" lon="-1.22609">
        <ele>3.5</ele>
        <time>2026-08-14T13:22:39.000Z</time>
      </trkpt>
      <trkpt lat="45.91657" lon="-1.22632">
        <ele>2.9</ele>
        <time>2026-08-14T13:22:47.000Z</time>
      </trkpt>
      <trkpt lat="45.91687" lon="-1.22655">
        <ele>2.7</ele>
        <time>2026-08-14T13:22:55.000Z</time>
      </trkpt>
      <trkpt lat="45.91733" lon="-1.22694">
        <ele>3</ele>
        <time>2026-08-14T13:23:07.000Z</time>
      </trkpt>
      <trkpt lat="45.91764" lon="-1.22718">
        <ele>2.4</ele>
        <time>2026-08-14T13:23:15.000Z</time>
      </trkpt>
      <trkpt lat="45.91791" lon="-1.22739">
        <ele>2.5</ele>
        <time>2026-08-14T13:23:23.000Z</time>
      </trkpt>
      <trkpt lat="45.91816" lon="-1.22758">
        <ele>2.7</ele>
        <time>2026-08-14T13:23:30.000Z</time>
      </trkpt>
      <trkpt lat="45.91848" lon="-1.22784">
        <ele>2.6</ele>
        <time>2026-08-14T13:23:39.000Z</time>
      </trkpt>
      <trkpt lat="45.91872" lon="-1.22803">
        <ele>2.9</ele>
        <time>2026-08-14T13:23:46.000Z</time>
      </trkpt>
      <trkpt lat="45.919" lon="-1.22824">
        <ele>2.7</ele>
        <time>2026-08-14T13:23:54.000Z</time>
      </trkpt>
      <trkpt lat="45.91935" lon="-1.22854">
        <ele>2.8</ele>
        <time>2026-08-14T13:24:04.000Z</time>
      </trkpt>
      <trkpt lat="45.91967" lon="-1.2288">
        <ele>2.4</ele>
        <time>2026-08-14T13:24:13.000Z</time>
      </trkpt>
      <trkpt lat="45.91994" lon="-1.229">
        <ele>2.5</ele>
        <time>2026-08-14T13:24:21.000Z</time>
      </trkpt>
      <trkpt lat="45.92026" lon="-1.22926">
        <ele>3</ele>
        <time>2026-08-14T13:24:31.000Z</time>
      </trkpt>
      <trkpt lat="45.92035" lon="-1.22935">
        <ele>3.2</ele>
        <time>2026-08-14T13:24:34.000Z</time>
      </trkpt>
      <trkpt lat="45.92056" lon="-1.22957">
        <ele>3.6</ele>
        <time>2026-08-14T13:24:41.000Z</time>
      </trkpt>
      <trkpt lat="45.92079" lon="-1.22981">
        <ele>3</ele>
        <time>2026-08-14T13:24:49.000Z</time>
      </trkpt>
      <trkpt lat="45.921" lon="-1.23002">
        <ele>3.6</ele>
        <time>2026-08-14T13:24:57.000Z</time>
      </trkpt>
      <trkpt lat="45.92124" lon="-1.23024">
        <ele>3.5</ele>
        <time>2026-08-14T13:25:06.000Z</time>
      </trkpt>
      <trkpt lat="45.92144" lon="-1.23038">
        <ele>3.5</ele>
        <time>2026-08-14T13:25:13.000Z</time>
      </trkpt>
      <trkpt lat="45.92162" lon="-1.23058">
        <ele>3</ele>
        <time>2026-08-14T13:25:20.000Z</time>
      </trkpt>
      <trkpt lat="45.92181" lon="-1.23082">
        <ele>3</ele>
        <time>2026-08-14T13:25:27.000Z</time>
      </trkpt>
      <trkpt lat="45.92206" lon="-1.23117">
        <ele>3.4</ele>
        <time>2026-08-14T13:25:37.000Z</time>
      </trkpt>
      <trkpt lat="45.92226" lon="-1.23144">
        <ele>3.6</ele>
        <time>2026-08-14T13:25:45.000Z</time>
      </trkpt>
      <trkpt lat="45.92251" lon="-1.2318">
        <ele>3.5</ele>
        <time>2026-08-14T13:25:55.000Z</time>
      </trkpt>
      <trkpt lat="45.92264" lon="-1.23202">
        <ele>3.5</ele>
        <time>2026-08-14T13:26:02.000Z</time>
      </trkpt>
      <trkpt lat="45.9228" lon="-1.23229">
        <ele>2.7</ele>
        <time>2026-08-14T13:26:09.000Z</time>
      </trkpt>
      <trkpt lat="45.92295" lon="-1.23256">
        <ele>1.9</ele>
        <time>2026-08-14T13:26:17.000Z</time>
      </trkpt>
      <trkpt lat="45.9231" lon="-1.23284">
        <ele>3.4</ele>
        <time>2026-08-14T13:26:25.000Z</time>
      </trkpt>
      <trkpt lat="45.92325" lon="-1.23313">
        <ele>3.2</ele>
        <time>2026-08-14T13:26:32.000Z</time>
      </trkpt>
      <trkpt lat="45.9235" lon="-1.23341">
        <ele>3</ele>
        <time>2026-08-14T13:26:41.000Z</time>
      </trkpt>
      <trkpt lat="45.92378" lon="-1.23364">
        <ele>3.4</ele>
        <time>2026-08-14T13:26:50.000Z</time>
      </trkpt>
      <trkpt lat="45.92406" lon="-1.23386">
        <ele>3.8</ele>
        <time>2026-08-14T13:26:59.000Z</time>
      </trkpt>
      <trkpt lat="45.92424" lon="-1.23402">
        <ele>3.7</ele>
        <time>2026-08-14T13:27:05.000Z</time>
      </trkpt>
      <trkpt lat="45.92435" lon="-1.23409">
        <ele>3.7</ele>
        <time>2026-08-14T13:27:10.000Z</time>
      </trkpt>
      <trkpt lat="45.92442" lon="-1.23416">
        <ele>4</ele>
        <time>2026-08-14T13:27:15.000Z</time>
      </trkpt>
      <trkpt lat="45.92441" lon="-1.2342">
        <ele>3.9</ele>
        <time>2026-08-14T13:27:17.000Z</time>
      </trkpt>
      <trkpt lat="45.9244" lon="-1.23421">
        <ele>3.8</ele>
        <time>2026-08-14T13:27:18.000Z</time>
      </trkpt>
      <trkpt lat="45.92437" lon="-1.23417">
        <ele>4</ele>
        <time>2026-08-14T13:27:21.000Z</time>
      </trkpt>
      <trkpt lat="45.92424" lon="-1.23408">
        <ele>3.8</ele>
        <time>2026-08-14T13:27:28.000Z</time>
      </trkpt>
      <trkpt lat="45.92412" lon="-1.23401">
        <ele>3.9</ele>
        <time>2026-08-14T13:27:35.000Z</time>
      </trkpt>
      <trkpt lat="45.92412" lon="-1.23401">
        <ele>3.9</ele>
        <time>2026-08-14T13:27:40.000Z</time>
      </trkpt>
      <trkpt lat="45.92414" lon="-1.23401">
        <ele>4</ele>
        <time>2026-08-14T13:37:39.000Z</time>
      </trkpt>
      <trkpt lat="45.92414" lon="-1.23401">
        <ele>4</ele>
        <time>2026-08-14T13:37:40.000Z</time>
      </trkpt>
      <trkpt lat="45.92428" lon="-1.23405">
        <ele>3.7</ele>
        <time>2026-08-14T13:38:06.000Z</time>
      </trkpt>
      <trkpt lat="45.92433" lon="-1.23409">
        <ele>3.7</ele>
        <time>2026-08-14T13:38:09.000Z</time>
      </trkpt>
      <trkpt lat="45.92448" lon="-1.2342">
        <ele>3.5</ele>
        <time>2026-08-14T13:38:16.000Z</time>
      </trkpt>
      <trkpt lat="45.92465" lon="-1.23433">
        <ele>2.9</ele>
        <time>2026-08-14T13:38:24.000Z</time>
      </trkpt>
      <trkpt lat="45.9248" lon="-1.23444">
        <ele>3.7</ele>
        <time>2026-08-14T13:38:31.000Z</time>
      </trkpt>
      <trkpt lat="45.92498" lon="-1.23453">
        <ele>3</ele>
        <time>2026-08-14T13:38:41.000Z</time>
      </trkpt>
      <trkpt lat="45.92518" lon="-1.23461">
        <ele>2.7</ele>
        <time>2026-08-14T13:38:50.000Z</time>
      </trkpt>
      <trkpt lat="45.9254" lon="-1.23464">
        <ele>2.7</ele>
        <time>2026-08-14T13:38:59.000Z</time>
      </trkpt>
      <trkpt lat="45.92546" lon="-1.23464">
        <ele>2.7</ele>
        <time>2026-08-14T13:39:04.000Z</time>
      </trkpt>
      <trkpt lat="45.92551" lon="-1.23463">
        <ele>2.7</ele>
        <time>2026-08-14T13:39:19.000Z</time>
      </trkpt>
      <trkpt lat="45.92555" lon="-1.23463">
        <ele>2.7</ele>
        <time>2026-08-14T13:39:22.000Z</time>
      </trkpt>
      <trkpt lat="45.92567" lon="-1.23457">
        <ele>2.7</ele>
        <time>2026-08-14T13:39:29.000Z</time>
      </trkpt>
      <trkpt lat="45.92573" lon="-1.23453">
        <ele>3</ele>
        <time>2026-08-14T13:39:32.000Z</time>
      </trkpt>
      <trkpt lat="45.92582" lon="-1.23449">
        <ele>3.6</ele>
        <time>2026-08-14T13:39:36.000Z</time>
      </trkpt>
      <trkpt lat="45.926" lon="-1.2345">
        <ele>2.7</ele>
        <time>2026-08-14T13:39:43.000Z</time>
      </trkpt>
      <trkpt lat="45.92614" lon="-1.23459">
        <ele>2.1</ele>
        <time>2026-08-14T13:39:49.000Z</time>
      </trkpt>
      <trkpt lat="45.9264" lon="-1.23481">
        <ele>2.7</ele>
        <time>2026-08-14T13:40:00.000Z</time>
      </trkpt>
      <trkpt lat="45.92656" lon="-1.23496">
        <ele>2.7</ele>
        <time>2026-08-14T13:40:07.000Z</time>
      </trkpt>
      <trkpt lat="45.92673" lon="-1.23511">
        <ele>3.1</ele>
        <time>2026-08-14T13:40:14.000Z</time>
      </trkpt>
      <trkpt lat="45.92675" lon="-1.23513">
        <ele>3.1</ele>
        <time>2026-08-14T13:40:15.000Z</time>
      </trkpt>
      <trkpt lat="45.92694" lon="-1.23539">
        <ele>4</ele>
        <time>2026-08-14T13:40:24.000Z</time>
      </trkpt>
      <trkpt lat="45.92707" lon="-1.23574">
        <ele>3.2</ele>
        <time>2026-08-14T13:40:33.000Z</time>
      </trkpt>
      <trkpt lat="45.92725" lon="-1.23608">
        <ele>3.8</ele>
        <time>2026-08-14T13:40:43.000Z</time>
      </trkpt>
      <trkpt lat="45.92744" lon="-1.2363">
        <ele>3.6</ele>
        <time>2026-08-14T13:40:51.000Z</time>
      </trkpt>
      <trkpt lat="45.92765" lon="-1.23646">
        <ele>3.5</ele>
        <time>2026-08-14T13:40:58.000Z</time>
      </trkpt>
      <trkpt lat="45.92794" lon="-1.2366">
        <ele>3.8</ele>
        <time>2026-08-14T13:41:07.000Z</time>
      </trkpt>
      <trkpt lat="45.9282" lon="-1.23673">
        <ele>3.4</ele>
        <time>2026-08-14T13:41:15.000Z</time>
      </trkpt>
      <trkpt lat="45.92845" lon="-1.23684">
        <ele>3.6</ele>
        <time>2026-08-14T13:41:23.000Z</time>
      </trkpt>
      <trkpt lat="45.92862" lon="-1.23693">
        <ele>3.9</ele>
        <time>2026-08-14T13:41:29.000Z</time>
      </trkpt>
      <trkpt lat="45.92895" lon="-1.23711">
        <ele>2.9</ele>
        <time>2026-08-14T13:41:40.000Z</time>
      </trkpt>
      <trkpt lat="45.92925" lon="-1.23728">
        <ele>3</ele>
        <time>2026-08-14T13:41:49.000Z</time>
      </trkpt>
      <trkpt lat="45.92947" lon="-1.23737">
        <ele>3</ele>
        <time>2026-08-14T13:41:55.000Z</time>
      </trkpt>
      <trkpt lat="45.92962" lon="-1.23743">
        <ele>2.8</ele>
        <time>2026-08-14T13:41:59.000Z</time>
      </trkpt>
      <trkpt lat="45.92995" lon="-1.23751">
        <ele>3</ele>
        <time>2026-08-14T13:42:08.000Z</time>
      </trkpt>
      <trkpt lat="45.93024" lon="-1.23755">
        <ele>3</ele>
        <time>2026-08-14T13:42:16.000Z</time>
      </trkpt>
      <trkpt lat="45.93054" lon="-1.23756">
        <ele>3</ele>
        <time>2026-08-14T13:42:25.000Z</time>
      </trkpt>
      <trkpt lat="45.93076" lon="-1.23755">
        <ele>3</ele>
        <time>2026-08-14T13:42:32.000Z</time>
      </trkpt>
      <trkpt lat="45.93099" lon="-1.23757">
        <ele>3</ele>
        <time>2026-08-14T13:42:39.000Z</time>
      </trkpt>
      <trkpt lat="45.93125" lon="-1.23765">
        <ele>3</ele>
        <time>2026-08-14T13:42:47.000Z</time>
      </trkpt>
      <trkpt lat="45.93147" lon="-1.23787">
        <ele>2.6</ele>
        <time>2026-08-14T13:42:55.000Z</time>
      </trkpt>
      <trkpt lat="45.93155" lon="-1.23804">
        <ele>2.6</ele>
        <time>2026-08-14T13:42:59.000Z</time>
      </trkpt>
      <trkpt lat="45.93159" lon="-1.23818">
        <ele>2.8</ele>
        <time>2026-08-14T13:43:02.000Z</time>
      </trkpt>
      <trkpt lat="45.93169" lon="-1.23861">
        <ele>3</ele>
        <time>2026-08-14T13:43:11.000Z</time>
      </trkpt>
      <trkpt lat="45.93181" lon="-1.23888">
        <ele>3</ele>
        <time>2026-08-14T13:43:18.000Z</time>
      </trkpt>
      <trkpt lat="45.93198" lon="-1.2392">
        <ele>2.9</ele>
        <time>2026-08-14T13:43:26.000Z</time>
      </trkpt>
      <trkpt lat="45.9321" lon="-1.23946">
        <ele>2.6</ele>
        <time>2026-08-14T13:43:32.000Z</time>
      </trkpt>
      <trkpt lat="45.93217" lon="-1.23974">
        <ele>3</ele>
        <time>2026-08-14T13:43:38.000Z</time>
      </trkpt>
      <trkpt lat="45.93223" lon="-1.23994">
        <ele>3</ele>
        <time>2026-08-14T13:43:43.000Z</time>
      </trkpt>
      <trkpt lat="45.93228" lon="-1.2401">
        <ele>2.8</ele>
        <time>2026-08-14T13:43:48.000Z</time>
      </trkpt>
      <trkpt lat="45.9323" lon="-1.24016">
        <ele>2.7</ele>
        <time>2026-08-14T13:43:50.000Z</time>
      </trkpt>
      <trkpt lat="45.9324" lon="-1.2404">
        <ele>2.5</ele>
        <time>2026-08-14T13:43:58.000Z</time>
      </trkpt>
      <trkpt lat="45.9325" lon="-1.24058">
        <ele>3</ele>
        <time>2026-08-14T13:44:04.000Z</time>
      </trkpt>
      <trkpt lat="45.93269" lon="-1.24086">
        <ele>3.1</ele>
        <time>2026-08-14T13:44:13.000Z</time>
      </trkpt>
      <trkpt lat="45.93282" lon="-1.24106">
        <ele>3.8</ele>
        <time>2026-08-14T13:44:19.000Z</time>
      </trkpt>
      <trkpt lat="45.93299" lon="-1.24129">
        <ele>4</ele>
        <time>2026-08-14T13:44:26.000Z</time>
      </trkpt>
      <trkpt lat="45.93326" lon="-1.24166">
        <ele>2.3</ele>
        <time>2026-08-14T13:44:37.000Z</time>
      </trkpt>
      <trkpt lat="45.93348" lon="-1.24194">
        <ele>2.5</ele>
        <time>2026-08-14T13:44:46.000Z</time>
      </trkpt>
      <trkpt lat="45.93367" lon="-1.24211">
        <ele>2.1</ele>
        <time>2026-08-14T13:44:54.000Z</time>
      </trkpt>
      <trkpt lat="45.93382" lon="-1.24215">
        <ele>2.5</ele>
        <time>2026-08-14T13:45:00.000Z</time>
      </trkpt>
      <trkpt lat="45.93403" lon="-1.24206">
        <ele>2.8</ele>
        <time>2026-08-14T13:45:08.000Z</time>
      </trkpt>
      <trkpt lat="45.93426" lon="-1.24194">
        <ele>3.6</ele>
        <time>2026-08-14T13:45:17.000Z</time>
      </trkpt>
      <trkpt lat="45.93455" lon="-1.24186">
        <ele>2.5</ele>
        <time>2026-08-14T13:45:27.000Z</time>
      </trkpt>
      <trkpt lat="45.93458" lon="-1.24185">
        <ele>2.5</ele>
        <time>2026-08-14T13:45:28.000Z</time>
      </trkpt>
      <trkpt lat="45.93473" lon="-1.24185">
        <ele>2.7</ele>
        <time>2026-08-14T13:45:33.000Z</time>
      </trkpt>
      <trkpt lat="45.93476" lon="-1.24186">
        <ele>2.7</ele>
        <time>2026-08-14T13:45:34.000Z</time>
      </trkpt>
      <trkpt lat="45.93498" lon="-1.24192">
        <ele>3</ele>
        <time>2026-08-14T13:45:42.000Z</time>
      </trkpt>
      <trkpt lat="45.93517" lon="-1.24195">
        <ele>3</ele>
        <time>2026-08-14T13:45:49.000Z</time>
      </trkpt>
      <trkpt lat="45.93522" lon="-1.24196">
        <ele>3</ele>
        <time>2026-08-14T13:45:51.000Z</time>
      </trkpt>
      <trkpt lat="45.93547" lon="-1.24195">
        <ele>3.7</ele>
        <time>2026-08-14T13:46:00.000Z</time>
      </trkpt>
      <trkpt lat="45.93568" lon="-1.24192">
        <ele>3.9</ele>
        <time>2026-08-14T13:46:08.000Z</time>
      </trkpt>
      <trkpt lat="45.93587" lon="-1.24192">
        <ele>4</ele>
        <time>2026-08-14T13:46:15.000Z</time>
      </trkpt>
      <trkpt lat="45.93613" lon="-1.24189">
        <ele>3.6</ele>
        <time>2026-08-14T13:46:24.000Z</time>
      </trkpt>
      <trkpt lat="45.93624" lon="-1.24181">
        <ele>2.6</ele>
        <time>2026-08-14T13:46:29.000Z</time>
      </trkpt>
      <trkpt lat="45.93628" lon="-1.24162">
        <ele>1.7</ele>
        <time>2026-08-14T13:46:35.000Z</time>
      </trkpt>
      <trkpt lat="45.93619" lon="-1.24145">
        <ele>2.7</ele>
        <time>2026-08-14T13:46:39.000Z</time>
      </trkpt>
      <trkpt lat="45.93615" lon="-1.24141">
        <ele>2.9</ele>
        <time>2026-08-14T13:46:40.000Z</time>
      </trkpt>
      <trkpt lat="45.93604" lon="-1.24126">
        <ele>3</ele>
        <time>2026-08-14T13:46:44.000Z</time>
      </trkpt>
      <trkpt lat="45.93597" lon="-1.2411">
        <ele>3</ele>
        <time>2026-08-14T13:46:48.000Z</time>
      </trkpt>
      <trkpt lat="45.93595" lon="-1.24082">
        <ele>2</ele>
        <time>2026-08-14T13:46:54.000Z</time>
      </trkpt>
      <trkpt lat="45.93596" lon="-1.24038">
        <ele>2.5</ele>
        <time>2026-08-14T13:47:03.000Z</time>
      </trkpt>
      <trkpt lat="45.93596" lon="-1.24014">
        <ele>2.2</ele>
        <time>2026-08-14T13:47:08.000Z</time>
      </trkpt>
      <trkpt lat="45.93597" lon="-1.23966">
        <ele>2.8</ele>
        <time>2026-08-14T13:47:18.000Z</time>
      </trkpt>
      <trkpt lat="45.93595" lon="-1.23939">
        <ele>1.8</ele>
        <time>2026-08-14T13:47:24.000Z</time>
      </trkpt>
      <trkpt lat="45.93589" lon="-1.23897">
        <ele>2.5</ele>
        <time>2026-08-14T13:47:34.000Z</time>
      </trkpt>
      <trkpt lat="45.93582" lon="-1.23862">
        <ele>2.9</ele>
        <time>2026-08-14T13:47:43.000Z</time>
      </trkpt>
      <trkpt lat="45.93581" lon="-1.23834">
        <ele>3</ele>
        <time>2026-08-14T13:47:49.000Z</time>
      </trkpt>
      <trkpt lat="45.93591" lon="-1.23809">
        <ele>3.6</ele>
        <time>2026-08-14T13:47:55.000Z</time>
      </trkpt>
      <trkpt lat="45.93607" lon="-1.23797">
        <ele>2.8</ele>
        <time>2026-08-14T13:48:00.000Z</time>
      </trkpt>
      <trkpt lat="45.93636" lon="-1.23793">
        <ele>2.6</ele>
        <time>2026-08-14T13:48:07.000Z</time>
      </trkpt>
      <trkpt lat="45.9367" lon="-1.23797">
        <ele>2.7</ele>
        <time>2026-08-14T13:48:16.000Z</time>
      </trkpt>
      <trkpt lat="45.93674" lon="-1.23798">
        <ele>2.7</ele>
        <time>2026-08-14T13:48:17.000Z</time>
      </trkpt>
      <trkpt lat="45.93699" lon="-1.238">
        <ele>2.8</ele>
        <time>2026-08-14T13:48:24.000Z</time>
      </trkpt>
      <trkpt lat="45.93726" lon="-1.238">
        <ele>2.8</ele>
        <time>2026-08-14T13:48:32.000Z</time>
      </trkpt>
      <trkpt lat="45.93752" lon="-1.23798">
        <ele>2.7</ele>
        <time>2026-08-14T13:48:40.000Z</time>
      </trkpt>
      <trkpt lat="45.93779" lon="-1.23799">
        <ele>2.8</ele>
        <time>2026-08-14T13:48:48.000Z</time>
      </trkpt>
      <trkpt lat="45.93798" lon="-1.23801">
        <ele>2.8</ele>
        <time>2026-08-14T13:48:54.000Z</time>
      </trkpt>
      <trkpt lat="45.93807" lon="-1.23801">
        <ele>2.8</ele>
        <time>2026-08-14T13:49:00.000Z</time>
      </trkpt>
      <trkpt lat="45.93808" lon="-1.23801">
        <ele>2.8</ele>
        <time>2026-08-14T13:49:03.000Z</time>
      </trkpt>
      <trkpt lat="45.93814" lon="-1.23802">
        <ele>2.9</ele>
        <time>2026-08-14T13:50:28.000Z</time>
      </trkpt>
      <trkpt lat="45.93828" lon="-1.23805">
        <ele>3</ele>
        <time>2026-08-14T13:50:35.000Z</time>
      </trkpt>
      <trkpt lat="45.93845" lon="-1.23807">
        <ele>3</ele>
        <time>2026-08-14T13:50:42.000Z</time>
      </trkpt>
      <trkpt lat="45.93865" lon="-1.2381">
        <ele>2.9</ele>
        <time>2026-08-14T13:50:50.000Z</time>
      </trkpt>
      <trkpt lat="45.9389" lon="-1.23811">
        <ele>2.2</ele>
        <time>2026-08-14T13:50:59.000Z</time>
      </trkpt>
      <trkpt lat="45.93916" lon="-1.23814">
        <ele>2.3</ele>
        <time>2026-08-14T13:51:08.000Z</time>
      </trkpt>
      <trkpt lat="45.93938" lon="-1.23817">
        <ele>2.9</ele>
        <time>2026-08-14T13:51:16.000Z</time>
      </trkpt>
      <trkpt lat="45.93971" lon="-1.23819">
        <ele>3</ele>
        <time>2026-08-14T13:51:27.000Z</time>
      </trkpt>
      <trkpt lat="45.93995" lon="-1.23821">
        <ele>2.6</ele>
        <time>2026-08-14T13:51:35.000Z</time>
      </trkpt>
      <trkpt lat="45.94001" lon="-1.23822">
        <ele>2.6</ele>
        <time>2026-08-14T13:51:37.000Z</time>
      </trkpt>
      <trkpt lat="45.94027" lon="-1.23824">
        <ele>3</ele>
        <time>2026-08-14T13:51:45.000Z</time>
      </trkpt>
      <trkpt lat="45.94063" lon="-1.23831">
        <ele>2.9</ele>
        <time>2026-08-14T13:51:56.000Z</time>
      </trkpt>
      <trkpt lat="45.94091" lon="-1.2384">
        <ele>3</ele>
        <time>2026-08-14T13:52:05.000Z</time>
      </trkpt>
      <trkpt lat="45.94131" lon="-1.23856">
        <ele>3</ele>
        <time>2026-08-14T13:52:18.000Z</time>
      </trkpt>
      <trkpt lat="45.94155" lon="-1.23866">
        <ele>3</ele>
        <time>2026-08-14T13:52:26.000Z</time>
      </trkpt>
      <trkpt lat="45.94178" lon="-1.23878">
        <ele>3</ele>
        <time>2026-08-14T13:52:34.000Z</time>
      </trkpt>
      <trkpt lat="45.94211" lon="-1.23887">
        <ele>2.9</ele>
        <time>2026-08-14T13:52:44.000Z</time>
      </trkpt>
      <trkpt lat="45.94239" lon="-1.23894">
        <ele>2.3</ele>
        <time>2026-08-14T13:52:52.000Z</time>
      </trkpt>
      <trkpt lat="45.94278" lon="-1.23902">
        <ele>2</ele>
        <time>2026-08-14T13:53:03.000Z</time>
      </trkpt>
      <trkpt lat="45.94306" lon="-1.23914">
        <ele>2</ele>
        <time>2026-08-14T13:53:11.000Z</time>
      </trkpt>
      <trkpt lat="45.94338" lon="-1.23934">
        <ele>2</ele>
        <time>2026-08-14T13:53:21.000Z</time>
      </trkpt>
      <trkpt lat="45.94365" lon="-1.23955">
        <ele>2</ele>
        <time>2026-08-14T13:53:30.000Z</time>
      </trkpt>
      <trkpt lat="45.94377" lon="-1.23974">
        <ele>2.6</ele>
        <time>2026-08-14T13:53:36.000Z</time>
      </trkpt>
      <trkpt lat="45.94378" lon="-1.23979">
        <ele>2.6</ele>
        <time>2026-08-14T13:53:37.000Z</time>
      </trkpt>
      <trkpt lat="45.94386" lon="-1.24004">
        <ele>2.9</ele>
        <time>2026-08-14T13:53:44.000Z</time>
      </trkpt>
      <trkpt lat="45.94401" lon="-1.2403">
        <ele>2.6</ele>
        <time>2026-08-14T13:53:52.000Z</time>
      </trkpt>
      <trkpt lat="45.94419" lon="-1.24054">
        <ele>2.9</ele>
        <time>2026-08-14T13:54:00.000Z</time>
      </trkpt>
      <trkpt lat="45.94447" lon="-1.24091">
        <ele>2.7</ele>
        <time>2026-08-14T13:54:12.000Z</time>
      </trkpt>
      <trkpt lat="45.94452" lon="-1.24097">
        <ele>2.4</ele>
        <time>2026-08-14T13:54:14.000Z</time>
      </trkpt>
      <trkpt lat="45.94468" lon="-1.24117">
        <ele>2.2</ele>
        <time>2026-08-14T13:54:21.000Z</time>
      </trkpt>
      <trkpt lat="45.94486" lon="-1.24141">
        <ele>2.5</ele>
        <time>2026-08-14T13:54:29.000Z</time>
      </trkpt>
      <trkpt lat="45.94514" lon="-1.24175">
        <ele>2.7</ele>
        <time>2026-08-14T13:54:41.000Z</time>
      </trkpt>
      <trkpt lat="45.94524" lon="-1.24198">
        <ele>2</ele>
        <time>2026-08-14T13:54:46.000Z</time>
      </trkpt>
      <trkpt lat="45.94532" lon="-1.2424">
        <ele>2</ele>
        <time>2026-08-14T13:54:54.000Z</time>
      </trkpt>
      <trkpt lat="45.94543" lon="-1.2427">
        <ele>2.7</ele>
        <time>2026-08-14T13:55:01.000Z</time>
      </trkpt>
      <trkpt lat="45.94544" lon="-1.24294">
        <ele>2.4</ele>
        <time>2026-08-14T13:55:06.000Z</time>
      </trkpt>
      <trkpt lat="45.94541" lon="-1.24308">
        <ele>2</ele>
        <time>2026-08-14T13:55:09.000Z</time>
      </trkpt>
      <trkpt lat="45.94535" lon="-1.24333">
        <ele>2.7</ele>
        <time>2026-08-14T13:55:14.000Z</time>
      </trkpt>
      <trkpt lat="45.94532" lon="-1.24377">
        <ele>2.9</ele>
        <time>2026-08-14T13:55:23.000Z</time>
      </trkpt>
      <trkpt lat="45.94536" lon="-1.2442">
        <ele>2</ele>
        <time>2026-08-14T13:55:32.000Z</time>
      </trkpt>
      <trkpt lat="45.94549" lon="-1.24455">
        <ele>2.3</ele>
        <time>2026-08-14T13:55:40.000Z</time>
      </trkpt>
      <trkpt lat="45.94559" lon="-1.24499">
        <ele>3</ele>
        <time>2026-08-14T13:55:49.000Z</time>
      </trkpt>
      <trkpt lat="45.9456" lon="-1.2454">
        <ele>3</ele>
        <time>2026-08-14T13:55:57.000Z</time>
      </trkpt>
      <trkpt lat="45.94565" lon="-1.24568">
        <ele>3</ele>
        <time>2026-08-14T13:56:03.000Z</time>
      </trkpt>
      <trkpt lat="45.94569" lon="-1.24596">
        <ele>3</ele>
        <time>2026-08-14T13:56:09.000Z</time>
      </trkpt>
      <trkpt lat="45.94562" lon="-1.24619">
        <ele>3.1</ele>
        <time>2026-08-14T13:56:14.000Z</time>
      </trkpt>
      <trkpt lat="45.94563" lon="-1.2465">
        <ele>3.3</ele>
        <time>2026-08-14T13:56:21.000Z</time>
      </trkpt>
      <trkpt lat="45.94563" lon="-1.24672">
        <ele>3.3</ele>
        <time>2026-08-14T13:56:26.000Z</time>
      </trkpt>
      <trkpt lat="45.94563" lon="-1.24697">
        <ele>3.3</ele>
        <time>2026-08-14T13:56:31.000Z</time>
      </trkpt>
      <trkpt lat="45.94561" lon="-1.24723">
        <ele>3.2</ele>
        <time>2026-08-14T13:56:36.000Z</time>
      </trkpt>
      <trkpt lat="45.94561" lon="-1.24733">
        <ele>3.1</ele>
        <time>2026-08-14T13:56:38.000Z</time>
      </trkpt>
      <trkpt lat="45.9456" lon="-1.24756">
        <ele>3</ele>
        <time>2026-08-14T13:56:42.000Z</time>
      </trkpt>
      <trkpt lat="45.94567" lon="-1.24785">
        <ele>3</ele>
        <time>2026-08-14T13:56:48.000Z</time>
      </trkpt>
      <trkpt lat="45.94582" lon="-1.24816">
        <ele>3</ele>
        <time>2026-08-14T13:56:55.000Z</time>
      </trkpt>
      <trkpt lat="45.94589" lon="-1.24846">
        <ele>3.1</ele>
        <time>2026-08-14T13:57:01.000Z</time>
      </trkpt>
      <trkpt lat="45.94594" lon="-1.24885">
        <ele>3.4</ele>
        <time>2026-08-14T13:57:09.000Z</time>
      </trkpt>
      <trkpt lat="45.946" lon="-1.24908">
        <ele>3.2</ele>
        <time>2026-08-14T13:57:15.000Z</time>
      </trkpt>
      <trkpt lat="45.9461" lon="-1.24934">
        <ele>3</ele>
        <time>2026-08-14T13:57:22.000Z</time>
      </trkpt>
      <trkpt lat="45.9462" lon="-1.24965">
        <ele>3.3</ele>
        <time>2026-08-14T13:57:29.000Z</time>
      </trkpt>
      <trkpt lat="45.94629" lon="-1.24993">
        <ele>2.9</ele>
        <time>2026-08-14T13:57:36.000Z</time>
      </trkpt>
      <trkpt lat="45.94645" lon="-1.25016">
        <ele>3.2</ele>
        <time>2026-08-14T13:57:42.000Z</time>
      </trkpt>
      <trkpt lat="45.94654" lon="-1.25042">
        <ele>3.5</ele>
        <time>2026-08-14T13:57:48.000Z</time>
      </trkpt>
      <trkpt lat="45.94651" lon="-1.25066">
        <ele>3.5</ele>
        <time>2026-08-14T13:57:54.000Z</time>
      </trkpt>
      <trkpt lat="45.94642" lon="-1.25082">
        <ele>3.1</ele>
        <time>2026-08-14T13:57:59.000Z</time>
      </trkpt>
      <trkpt lat="45.94627" lon="-1.25106">
        <ele>2.9</ele>
        <time>2026-08-14T13:58:06.000Z</time>
      </trkpt>
      <trkpt lat="45.94626" lon="-1.2511">
        <ele>3</ele>
        <time>2026-08-14T13:58:07.000Z</time>
      </trkpt>
      <trkpt lat="45.94627" lon="-1.25118">
        <ele>3</ele>
        <time>2026-08-14T13:58:09.000Z</time>
      </trkpt>
      <trkpt lat="45.94644" lon="-1.25137">
        <ele>3</ele>
        <time>2026-08-14T13:58:16.000Z</time>
      </trkpt>
      <trkpt lat="45.94654" lon="-1.25142">
        <ele>3.1</ele>
        <time>2026-08-14T13:58:21.000Z</time>
      </trkpt>
      <trkpt lat="45.94657" lon="-1.25143">
        <ele>3.1</ele>
        <time>2026-08-14T13:58:22.000Z</time>
      </trkpt>
      <trkpt lat="45.94671" lon="-1.25144">
        <ele>3.3</ele>
        <time>2026-08-14T13:58:27.000Z</time>
      </trkpt>
      <trkpt lat="45.94691" lon="-1.25146">
        <ele>3.9</ele>
        <time>2026-08-14T13:58:34.000Z</time>
      </trkpt>
      <trkpt lat="45.94699" lon="-1.25145">
        <ele>3.9</ele>
        <time>2026-08-14T13:58:38.000Z</time>
      </trkpt>
      <trkpt lat="45.94717" lon="-1.25144">
        <ele>3.3</ele>
        <time>2026-08-14T13:58:44.000Z</time>
      </trkpt>
      <trkpt lat="45.94729" lon="-1.25141">
        <ele>3.1</ele>
        <time>2026-08-14T13:58:48.000Z</time>
      </trkpt>
      <trkpt lat="45.94732" lon="-1.25138">
        <ele>3</ele>
        <time>2026-08-14T13:58:49.000Z</time>
      </trkpt>
      <trkpt lat="45.94737" lon="-1.25128">
        <ele>3</ele>
        <time>2026-08-14T13:58:51.000Z</time>
      </trkpt>
      <trkpt lat="45.9474" lon="-1.25117">
        <ele>3</ele>
        <time>2026-08-14T13:58:53.000Z</time>
      </trkpt>
      <trkpt lat="45.94758" lon="-1.25078">
        <ele>3.3</ele>
        <time>2026-08-14T13:59:01.000Z</time>
      </trkpt>
      <trkpt lat="45.9476" lon="-1.25071">
        <ele>3.7</ele>
        <time>2026-08-14T13:59:04.000Z</time>
      </trkpt>
      <trkpt lat="45.94756" lon="-1.25074">
        <ele>3.6</ele>
        <time>2026-08-14T13:59:08.000Z</time>
      </trkpt>
      <trkpt lat="45.94755" lon="-1.25083">
        <ele>3</ele>
        <time>2026-08-14T13:59:15.000Z</time>
      </trkpt>
      <trkpt lat="45.94755" lon="-1.25083">
        <ele>3</ele>
        <time>2026-08-14T13:59:17.000Z</time>
      </trkpt>
      <trkpt lat="45.94764" lon="-1.25058">
        <ele>4.4</ele>
        <time>2026-08-14T14:00:59.000Z</time>
      </trkpt>
      <trkpt lat="45.94765" lon="-1.25056">
        <ele>4.5</ele>
        <time>2026-08-14T14:01:00.000Z</time>
      </trkpt>
      <trkpt lat="45.94772" lon="-1.25038">
        <ele>4.2</ele>
        <time>2026-08-14T14:01:06.000Z</time>
      </trkpt>
      <trkpt lat="45.94779" lon="-1.25014">
        <ele>4.5</ele>
        <time>2026-08-14T14:01:13.000Z</time>
      </trkpt>
      <trkpt lat="45.9479" lon="-1.2499">
        <ele>4.6</ele>
        <time>2026-08-14T14:01:21.000Z</time>
      </trkpt>
      <trkpt lat="45.94795" lon="-1.24965">
        <ele>3.9</ele>
        <time>2026-08-14T14:01:28.000Z</time>
      </trkpt>
      <trkpt lat="45.94801" lon="-1.24944">
        <ele>3.8</ele>
        <time>2026-08-14T14:01:33.000Z</time>
      </trkpt>
      <trkpt lat="45.94809" lon="-1.24911">
        <ele>3.1</ele>
        <time>2026-08-14T14:01:39.000Z</time>
      </trkpt>
      <trkpt lat="45.94814" lon="-1.2489">
        <ele>3.3</ele>
        <time>2026-08-14T14:01:43.000Z</time>
      </trkpt>
      <trkpt lat="45.94818" lon="-1.24855">
        <ele>3.4</ele>
        <time>2026-08-14T14:01:49.000Z</time>
      </trkpt>
      <trkpt lat="45.94825" lon="-1.24819">
        <ele>3</ele>
        <time>2026-08-14T14:01:55.000Z</time>
      </trkpt>
      <trkpt lat="45.94831" lon="-1.24765">
        <ele>3</ele>
        <time>2026-08-14T14:02:04.000Z</time>
      </trkpt>
      <trkpt lat="45.94832" lon="-1.24734">
        <ele>3</ele>
        <time>2026-08-14T14:02:09.000Z</time>
      </trkpt>
      <trkpt lat="45.94836" lon="-1.24717">
        <ele>3</ele>
        <time>2026-08-14T14:02:12.000Z</time>
      </trkpt>
      <trkpt lat="45.94837" lon="-1.247">
        <ele>3</ele>
        <time>2026-08-14T14:02:15.000Z</time>
      </trkpt>
      <trkpt lat="45.9484" lon="-1.24683">
        <ele>3</ele>
        <time>2026-08-14T14:02:18.000Z</time>
      </trkpt>
      <trkpt lat="45.94847" lon="-1.24651">
        <ele>3.3</ele>
        <time>2026-08-14T14:02:24.000Z</time>
      </trkpt>
      <trkpt lat="45.94859" lon="-1.2461">
        <ele>3</ele>
        <time>2026-08-14T14:02:31.000Z</time>
      </trkpt>
      <trkpt lat="45.94868" lon="-1.24594">
        <ele>3</ele>
        <time>2026-08-14T14:02:34.000Z</time>
      </trkpt>
      <trkpt lat="45.94879" lon="-1.24575">
        <ele>3</ele>
        <time>2026-08-14T14:02:38.000Z</time>
      </trkpt>
      <trkpt lat="45.94901" lon="-1.24541">
        <ele>3</ele>
        <time>2026-08-14T14:02:46.000Z</time>
      </trkpt>
      <trkpt lat="45.94931" lon="-1.24499">
        <ele>3</ele>
        <time>2026-08-14T14:02:56.000Z</time>
      </trkpt>
      <trkpt lat="45.94937" lon="-1.2449">
        <ele>3</ele>
        <time>2026-08-14T14:02:58.000Z</time>
      </trkpt>
      <trkpt lat="45.94943" lon="-1.24475">
        <ele>3</ele>
        <time>2026-08-14T14:03:01.000Z</time>
      </trkpt>
      <trkpt lat="45.94944" lon="-1.2447">
        <ele>3.1</ele>
        <time>2026-08-14T14:03:02.000Z</time>
      </trkpt>
      <trkpt lat="45.94957" lon="-1.24433">
        <ele>3.6</ele>
        <time>2026-08-14T14:03:09.000Z</time>
      </trkpt>
      <trkpt lat="45.94968" lon="-1.244">
        <ele>3.7</ele>
        <time>2026-08-14T14:03:15.000Z</time>
      </trkpt>
      <trkpt lat="45.94972" lon="-1.24388">
        <ele>4</ele>
        <time>2026-08-14T14:03:17.000Z</time>
      </trkpt>
      <trkpt lat="45.94981" lon="-1.24361">
        <ele>3.7</ele>
        <time>2026-08-14T14:03:22.000Z</time>
      </trkpt>
      <trkpt lat="45.94992" lon="-1.24328">
        <ele>4.1</ele>
        <time>2026-08-14T14:03:28.000Z</time>
      </trkpt>
      <trkpt lat="45.95" lon="-1.24293">
        <ele>4</ele>
        <time>2026-08-14T14:03:34.000Z</time>
      </trkpt>
      <trkpt lat="45.95008" lon="-1.24259">
        <ele>3.5</ele>
        <time>2026-08-14T14:03:40.000Z</time>
      </trkpt>
      <trkpt lat="45.9502" lon="-1.24208">
        <ele>2.7</ele>
        <time>2026-08-14T14:03:48.000Z</time>
      </trkpt>
      <trkpt lat="45.95039" lon="-1.24137">
        <ele>3</ele>
        <time>2026-08-14T14:04:00.000Z</time>
      </trkpt>
      <trkpt lat="45.95047" lon="-1.24112">
        <ele>3</ele>
        <time>2026-08-14T14:04:06.000Z</time>
      </trkpt>
      <trkpt lat="45.95054" lon="-1.24112">
        <ele>3</ele>
        <time>2026-08-14T14:04:09.000Z</time>
      </trkpt>
      <trkpt lat="45.95057" lon="-1.24113">
        <ele>3</ele>
        <time>2026-08-14T14:04:10.000Z</time>
      </trkpt>
      <trkpt lat="45.95064" lon="-1.24119">
        <ele>3</ele>
        <time>2026-08-14T14:04:13.000Z</time>
      </trkpt>
      <trkpt lat="45.95066" lon="-1.24122">
        <ele>3</ele>
        <time>2026-08-14T14:04:14.000Z</time>
      </trkpt>
      <trkpt lat="45.95068" lon="-1.24132">
        <ele>3</ele>
        <time>2026-08-14T14:04:16.000Z</time>
      </trkpt>
      <trkpt lat="45.95063" lon="-1.24158">
        <ele>3</ele>
        <time>2026-08-14T14:04:21.000Z</time>
      </trkpt>
      <trkpt lat="45.95063" lon="-1.24163">
        <ele>3</ele>
        <time>2026-08-14T14:04:22.000Z</time>
      </trkpt>
      <trkpt lat="45.95065" lon="-1.24168">
        <ele>3</ele>
        <time>2026-08-14T14:04:23.000Z</time>
      </trkpt>
      <trkpt lat="45.95069" lon="-1.24171">
        <ele>2.9</ele>
        <time>2026-08-14T14:04:24.000Z</time>
      </trkpt>
      <trkpt lat="45.95096" lon="-1.24193">
        <ele>2</ele>
        <time>2026-08-14T14:04:32.000Z</time>
      </trkpt>
      <trkpt lat="45.95133" lon="-1.2422">
        <ele>2.1</ele>
        <time>2026-08-14T14:04:43.000Z</time>
      </trkpt>
      <trkpt lat="45.95155" lon="-1.24226">
        <ele>2</ele>
        <time>2026-08-14T14:04:49.000Z</time>
      </trkpt>
      <trkpt lat="45.95184" lon="-1.24248">
        <ele>2.6</ele>
        <time>2026-08-14T14:04:57.000Z</time>
      </trkpt>
      <trkpt lat="45.95212" lon="-1.2427">
        <ele>2.7</ele>
        <time>2026-08-14T14:05:05.000Z</time>
      </trkpt>
      <trkpt lat="45.95219" lon="-1.24276">
        <ele>2.9</ele>
        <time>2026-08-14T14:05:07.000Z</time>
      </trkpt>
      <trkpt lat="45.9523" lon="-1.24292">
        <ele>2.9</ele>
        <time>2026-08-14T14:05:11.000Z</time>
      </trkpt>
      <trkpt lat="45.95237" lon="-1.24302">
        <ele>2.5</ele>
        <time>2026-08-14T14:05:14.000Z</time>
      </trkpt>
      <trkpt lat="45.95241" lon="-1.24302">
        <ele>2.4</ele>
        <time>2026-08-14T14:05:15.000Z</time>
      </trkpt>
      <trkpt lat="45.95267" lon="-1.24295">
        <ele>2.5</ele>
        <time>2026-08-14T14:05:22.000Z</time>
      </trkpt>
      <trkpt lat="45.95314" lon="-1.24284">
        <ele>2.3</ele>
        <time>2026-08-14T14:05:33.000Z</time>
      </trkpt>
      <trkpt lat="45.95345" lon="-1.24274">
        <ele>2.9</ele>
        <time>2026-08-14T14:05:41.000Z</time>
      </trkpt>
      <trkpt lat="45.95371" lon="-1.24271">
        <ele>3</ele>
        <time>2026-08-14T14:05:48.000Z</time>
      </trkpt>
      <trkpt lat="45.95381" lon="-1.24284">
        <ele>2.9</ele>
        <time>2026-08-14T14:05:52.000Z</time>
      </trkpt>
      <trkpt lat="45.95392" lon="-1.24314">
        <ele>2.7</ele>
        <time>2026-08-14T14:05:58.000Z</time>
      </trkpt>
      <trkpt lat="45.95404" lon="-1.2436">
        <ele>2.6</ele>
        <time>2026-08-14T14:06:06.000Z</time>
      </trkpt>
      <trkpt lat="45.95417" lon="-1.24412">
        <ele>3</ele>
        <time>2026-08-14T14:06:15.000Z</time>
      </trkpt>
      <trkpt lat="45.95425" lon="-1.24445">
        <ele>2.3</ele>
        <time>2026-08-14T14:06:21.000Z</time>
      </trkpt>
      <trkpt lat="45.95427" lon="-1.24456">
        <ele>2.6</ele>
        <time>2026-08-14T14:06:23.000Z</time>
      </trkpt>
      <trkpt lat="45.95432" lon="-1.24465">
        <ele>2.9</ele>
        <time>2026-08-14T14:06:25.000Z</time>
      </trkpt>
      <trkpt lat="45.95436" lon="-1.24469">
        <ele>3</ele>
        <time>2026-08-14T14:06:26.000Z</time>
      </trkpt>
      <trkpt lat="45.95439" lon="-1.24472">
        <ele>3</ele>
        <time>2026-08-14T14:06:27.000Z</time>
      </trkpt>
      <trkpt lat="45.95453" lon="-1.24475">
        <ele>3.1</ele>
        <time>2026-08-14T14:06:30.000Z</time>
      </trkpt>
      <trkpt lat="45.95462" lon="-1.24477">
        <ele>3.3</ele>
        <time>2026-08-14T14:06:32.000Z</time>
      </trkpt>
      <trkpt lat="45.95477" lon="-1.24483">
        <ele>4</ele>
        <time>2026-08-14T14:06:36.000Z</time>
      </trkpt>
      <trkpt lat="45.95515" lon="-1.24497">
        <ele>3.9</ele>
        <time>2026-08-14T14:06:46.000Z</time>
      </trkpt>
      <trkpt lat="45.9554" lon="-1.24504">
        <ele>3.7</ele>
        <time>2026-08-14T14:06:53.000Z</time>
      </trkpt>
      <trkpt lat="45.95577" lon="-1.24503">
        <ele>3.3</ele>
        <time>2026-08-14T14:07:03.000Z</time>
      </trkpt>
      <trkpt lat="45.95601" lon="-1.24502">
        <ele>3.7</ele>
        <time>2026-08-14T14:07:10.000Z</time>
      </trkpt>
      <trkpt lat="45.95603" lon="-1.24502">
        <ele>3.8</ele>
        <time>2026-08-14T14:07:11.000Z</time>
      </trkpt>
      <trkpt lat="45.95627" lon="-1.24491">
        <ele>4.1</ele>
        <time>2026-08-14T14:07:18.000Z</time>
      </trkpt>
      <trkpt lat="45.95636" lon="-1.24486">
        <ele>3.9</ele>
        <time>2026-08-14T14:07:20.000Z</time>
      </trkpt>
      <trkpt lat="45.9566" lon="-1.24471">
        <ele>4.5</ele>
        <time>2026-08-14T14:07:26.000Z</time>
      </trkpt>
      <trkpt lat="45.95681" lon="-1.24458">
        <ele>4.2</ele>
        <time>2026-08-14T14:07:32.000Z</time>
      </trkpt>
      <trkpt lat="45.95711" lon="-1.24443">
        <ele>4.1</ele>
        <time>2026-08-14T14:07:40.000Z</time>
      </trkpt>
      <trkpt lat="45.95726" lon="-1.24433">
        <ele>4.1</ele>
        <time>2026-08-14T14:07:45.000Z</time>
      </trkpt>
      <trkpt lat="45.95735" lon="-1.24423">
        <ele>3.3</ele>
        <time>2026-08-14T14:07:49.000Z</time>
      </trkpt>
      <trkpt lat="45.95735" lon="-1.24404">
        <ele>3.2</ele>
        <time>2026-08-14T14:07:53.000Z</time>
      </trkpt>
      <trkpt lat="45.95736" lon="-1.24372">
        <ele>3.8</ele>
        <time>2026-08-14T14:08:00.000Z</time>
      </trkpt>
      <trkpt lat="45.95737" lon="-1.24359">
        <ele>4.1</ele>
        <time>2026-08-14T14:08:03.000Z</time>
      </trkpt>
      <trkpt lat="45.9574" lon="-1.24349">
        <ele>4.4</ele>
        <time>2026-08-14T14:08:05.000Z</time>
      </trkpt>
      <trkpt lat="45.95752" lon="-1.24338">
        <ele>4.8</ele>
        <time>2026-08-14T14:08:09.000Z</time>
      </trkpt>
      <trkpt lat="45.95776" lon="-1.24336">
        <ele>4.1</ele>
        <time>2026-08-14T14:08:16.000Z</time>
      </trkpt>
      <trkpt lat="45.95805" lon="-1.24339">
        <ele>4.2</ele>
        <time>2026-08-14T14:08:23.000Z</time>
      </trkpt>
      <trkpt lat="45.95836" lon="-1.24342">
        <ele>4.4</ele>
        <time>2026-08-14T14:08:30.000Z</time>
      </trkpt>
      <trkpt lat="45.95859" lon="-1.24345">
        <ele>4.6</ele>
        <time>2026-08-14T14:08:36.000Z</time>
      </trkpt>
      <trkpt lat="45.95887" lon="-1.24349">
        <ele>4</ele>
        <time>2026-08-14T14:08:43.000Z</time>
      </trkpt>
      <trkpt lat="45.95907" lon="-1.24349">
        <ele>4</ele>
        <time>2026-08-14T14:08:49.000Z</time>
      </trkpt>
      <trkpt lat="45.95929" lon="-1.24352">
        <ele>3.9</ele>
        <time>2026-08-14T14:08:55.000Z</time>
      </trkpt>
      <trkpt lat="45.95952" lon="-1.24349">
        <ele>3.7</ele>
        <time>2026-08-14T14:09:01.000Z</time>
      </trkpt>
      <trkpt lat="45.95964" lon="-1.24349">
        <ele>4</ele>
        <time>2026-08-14T14:09:06.000Z</time>
      </trkpt>
      <trkpt lat="45.95993" lon="-1.24351">
        <ele>3.5</ele>
        <time>2026-08-14T14:09:15.000Z</time>
      </trkpt>
      <trkpt lat="45.96012" lon="-1.24352">
        <ele>3.8</ele>
        <time>2026-08-14T14:09:22.000Z</time>
      </trkpt>
      <trkpt lat="45.96018" lon="-1.24351">
        <ele>3.9</ele>
        <time>2026-08-14T14:09:26.000Z</time>
      </trkpt>
      <trkpt lat="45.96018" lon="-1.24352">
        <ele>4</ele>
        <time>2026-08-14T14:09:27.000Z</time>
      </trkpt>
      <trkpt lat="45.9602" lon="-1.24352">
        <ele>4.1</ele>
        <time>2026-08-14T14:09:31.000Z</time>
      </trkpt>
      <trkpt lat="45.96021" lon="-1.24344">
        <ele>3.5</ele>
        <time>2026-08-14T14:09:42.000Z</time>
      </trkpt>
      <trkpt lat="45.9602" lon="-1.24342">
        <ele>3.3</ele>
        <time>2026-08-14T14:09:43.000Z</time>
      </trkpt>
      <trkpt lat="45.96011" lon="-1.2434">
        <ele>2.9</ele>
        <time>2026-08-14T14:09:48.000Z</time>
      </trkpt>
      <trkpt lat="45.96007" lon="-1.24331">
        <ele>2.3</ele>
        <time>2026-08-14T14:09:52.000Z</time>
      </trkpt>
      <trkpt lat="45.9601" lon="-1.24315">
        <ele>2.4</ele>
        <time>2026-08-14T14:09:58.000Z</time>
      </trkpt>
      <trkpt lat="45.96012" lon="-1.24312">
        <ele>2.4</ele>
        <time>2026-08-14T14:09:59.000Z</time>
      </trkpt>
      <trkpt lat="45.96028" lon="-1.24307">
        <ele>3</ele>
        <time>2026-08-14T14:10:06.000Z</time>
      </trkpt>
      <trkpt lat="45.96037" lon="-1.24309">
        <ele>2.7</ele>
        <time>2026-08-14T14:10:11.000Z</time>
      </trkpt>
      <trkpt lat="45.96043" lon="-1.24319">
        <ele>2.7</ele>
        <time>2026-08-14T14:10:16.000Z</time>
      </trkpt>
      <trkpt lat="45.96047" lon="-1.24321">
        <ele>2.7</ele>
        <time>2026-08-14T14:10:18.000Z</time>
      </trkpt>
      <trkpt lat="45.96063" lon="-1.24325">
        <ele>2.8</ele>
        <time>2026-08-14T14:10:25.000Z</time>
      </trkpt>
      <trkpt lat="45.96073" lon="-1.24334">
        <ele>3</ele>
        <time>2026-08-14T14:10:30.000Z</time>
      </trkpt>
      <trkpt lat="45.96082" lon="-1.24355">
        <ele>3.8</ele>
        <time>2026-08-14T14:10:37.000Z</time>
      </trkpt>
      <trkpt lat="45.96097" lon="-1.24354">
        <ele>3.7</ele>
        <time>2026-08-14T14:10:43.000Z</time>
      </trkpt>
      <trkpt lat="45.96116" lon="-1.24355">
        <ele>3.8</ele>
        <time>2026-08-14T14:10:49.000Z</time>
      </trkpt>
      <trkpt lat="45.96141" lon="-1.24352">
        <ele>3.7</ele>
        <time>2026-08-14T14:10:56.000Z</time>
      </trkpt>
      <trkpt lat="45.96164" lon="-1.24348">
        <ele>3.5</ele>
        <time>2026-08-14T14:11:02.000Z</time>
      </trkpt>
      <trkpt lat="45.96192" lon="-1.24345">
        <ele>3.8</ele>
        <time>2026-08-14T14:11:09.000Z</time>
      </trkpt>
      <trkpt lat="45.96219" lon="-1.24342">
        <ele>4.3</ele>
        <time>2026-08-14T14:11:17.000Z</time>
      </trkpt>
      <trkpt lat="45.9624" lon="-1.24342">
        <ele>4.3</ele>
        <time>2026-08-14T14:11:24.000Z</time>
      </trkpt>
      <trkpt lat="45.96275" lon="-1.2434">
        <ele>4</ele>
        <time>2026-08-14T14:11:35.000Z</time>
      </trkpt>
      <trkpt lat="45.96298" lon="-1.24341">
        <ele>4</ele>
        <time>2026-08-14T14:11:41.000Z</time>
      </trkpt>
      <trkpt lat="45.96331" lon="-1.24351">
        <ele>3.7</ele>
        <time>2026-08-14T14:11:50.000Z</time>
      </trkpt>
      <trkpt lat="45.96364" lon="-1.24372">
        <ele>4</ele>
        <time>2026-08-14T14:12:00.000Z</time>
      </trkpt>
      <trkpt lat="45.9638" lon="-1.24384">
        <ele>4</ele>
        <time>2026-08-14T14:12:05.000Z</time>
      </trkpt>
      <trkpt lat="45.96398" lon="-1.244">
        <ele>3.7</ele>
        <time>2026-08-14T14:12:12.000Z</time>
      </trkpt>
      <trkpt lat="45.96403" lon="-1.24406">
        <ele>3.4</ele>
        <time>2026-08-14T14:12:15.000Z</time>
      </trkpt>
      <trkpt lat="45.96404" lon="-1.24408">
        <ele>3.3</ele>
        <time>2026-08-14T14:12:17.000Z</time>
      </trkpt>
      <trkpt lat="45.96404" lon="-1.24408">
        <ele>3.2</ele>
        <time>2026-08-14T14:12:20.000Z</time>
      </trkpt>
      <trkpt lat="45.96411" lon="-1.24416">
        <ele>2.5</ele>
        <time>2026-08-14T14:12:31.000Z</time>
      </trkpt>
      <trkpt lat="45.96413" lon="-1.24418">
        <ele>2.3</ele>
        <time>2026-08-14T14:12:32.000Z</time>
      </trkpt>
      <trkpt lat="45.9643" lon="-1.24438">
        <ele>2</ele>
        <time>2026-08-14T14:12:39.000Z</time>
      </trkpt>
      <trkpt lat="45.96447" lon="-1.24457">
        <ele>3.6</ele>
        <time>2026-08-14T14:12:46.000Z</time>
      </trkpt>
      <trkpt lat="45.96456" lon="-1.24463">
        <ele>3.6</ele>
        <time>2026-08-14T14:12:49.000Z</time>
      </trkpt>
      <trkpt lat="45.96459" lon="-1.24462">
        <ele>3.7</ele>
        <time>2026-08-14T14:12:50.000Z</time>
      </trkpt>
      <trkpt lat="45.9647" lon="-1.24443">
        <ele>3.9</ele>
        <time>2026-08-14T14:12:55.000Z</time>
      </trkpt>
      <trkpt lat="45.96478" lon="-1.24427">
        <ele>3</ele>
        <time>2026-08-14T14:12:59.000Z</time>
      </trkpt>
      <trkpt lat="45.96487" lon="-1.24415">
        <ele>3.2</ele>
        <time>2026-08-14T14:13:03.000Z</time>
      </trkpt>
      <trkpt lat="45.96489" lon="-1.2441">
        <ele>3.4</ele>
        <time>2026-08-14T14:13:04.000Z</time>
      </trkpt>
      <trkpt lat="45.965" lon="-1.24385">
        <ele>3.6</ele>
        <time>2026-08-14T14:13:11.000Z</time>
      </trkpt>
      <trkpt lat="45.96514" lon="-1.2436">
        <ele>2.1</ele>
        <time>2026-08-14T14:13:19.000Z</time>
      </trkpt>
      <trkpt lat="45.96526" lon="-1.24344">
        <ele>3.6</ele>
        <time>2026-08-14T14:13:25.000Z</time>
      </trkpt>
      <trkpt lat="45.96527" lon="-1.2434">
        <ele>3.7</ele>
        <time>2026-08-14T14:13:26.000Z</time>
      </trkpt>
      <trkpt lat="45.96536" lon="-1.24322">
        <ele>2.8</ele>
        <time>2026-08-14T14:13:31.000Z</time>
      </trkpt>
      <trkpt lat="45.96548" lon="-1.24302">
        <ele>3</ele>
        <time>2026-08-14T14:13:37.000Z</time>
      </trkpt>
      <trkpt lat="45.96569" lon="-1.24267">
        <ele>2.8</ele>
        <time>2026-08-14T14:13:46.000Z</time>
      </trkpt>
      <trkpt lat="45.96596" lon="-1.24218">
        <ele>2.2</ele>
        <time>2026-08-14T14:13:58.000Z</time>
      </trkpt>
      <trkpt lat="45.96611" lon="-1.24204">
        <ele>3.7</ele>
        <time>2026-08-14T14:14:03.000Z</time>
      </trkpt>
      <trkpt lat="45.96629" lon="-1.24201">
        <ele>3.9</ele>
        <time>2026-08-14T14:14:09.000Z</time>
      </trkpt>
      <trkpt lat="45.96637" lon="-1.24189">
        <ele>4</ele>
        <time>2026-08-14T14:14:13.000Z</time>
      </trkpt>
      <trkpt lat="45.9665" lon="-1.24166">
        <ele>4</ele>
        <time>2026-08-14T14:14:21.000Z</time>
      </trkpt>
      <trkpt lat="45.96657" lon="-1.24157">
        <ele>3.6</ele>
        <time>2026-08-14T14:14:27.000Z</time>
      </trkpt>
      <trkpt lat="45.96657" lon="-1.24157">
        <ele>3.6</ele>
        <time>2026-08-14T14:14:28.000Z</time>
      </trkpt>
      <trkpt lat="45.96665" lon="-1.2414">
        <ele>3</ele>
        <time>2026-08-14T14:14:47.000Z</time>
      </trkpt>
      <trkpt lat="45.96668" lon="-1.24132">
        <ele>3.2</ele>
        <time>2026-08-14T14:14:50.000Z</time>
      </trkpt>
      <trkpt lat="45.96678" lon="-1.24116">
        <ele>3.8</ele>
        <time>2026-08-14T14:14:55.000Z</time>
      </trkpt>
      <trkpt lat="45.96691" lon="-1.24093">
        <ele>3.9</ele>
        <time>2026-08-14T14:15:03.000Z</time>
      </trkpt>
      <trkpt lat="45.96702" lon="-1.24077">
        <ele>3.8</ele>
        <time>2026-08-14T14:15:10.000Z</time>
      </trkpt>
      <trkpt lat="45.96716" lon="-1.2405">
        <ele>2</ele>
        <time>2026-08-14T14:15:20.000Z</time>
      </trkpt>
      <trkpt lat="45.96724" lon="-1.24038">
        <ele>2.9</ele>
        <time>2026-08-14T14:15:26.000Z</time>
      </trkpt>
      <trkpt lat="45.96725" lon="-1.24036">
        <ele>3.1</ele>
        <time>2026-08-14T14:15:30.000Z</time>
      </trkpt>
      <trkpt lat="45.9672" lon="-1.24044">
        <ele>2.3</ele>
        <time>2026-08-14T14:15:46.000Z</time>
      </trkpt>
      <trkpt lat="45.96718" lon="-1.24047">
        <ele>2.2</ele>
        <time>2026-08-14T14:15:47.000Z</time>
      </trkpt>
      <trkpt lat="45.96709" lon="-1.24065">
        <ele>3</ele>
        <time>2026-08-14T14:15:54.000Z</time>
      </trkpt>
      <trkpt lat="45.96696" lon="-1.24088">
        <ele>4</ele>
        <time>2026-08-14T14:16:03.000Z</time>
      </trkpt>
      <trkpt lat="45.96677" lon="-1.24114">
        <ele>3.9</ele>
        <time>2026-08-14T14:16:13.000Z</time>
      </trkpt>
      <trkpt lat="45.96667" lon="-1.24133">
        <ele>3.2</ele>
        <time>2026-08-14T14:16:21.000Z</time>
      </trkpt>
      <trkpt lat="45.96663" lon="-1.2414">
        <ele>3.1</ele>
        <time>2026-08-14T14:16:25.000Z</time>
      </trkpt>
      <trkpt lat="45.96663" lon="-1.24143">
        <ele>3.1</ele>
        <time>2026-08-14T14:16:26.000Z</time>
      </trkpt>
      <trkpt lat="45.96664" lon="-1.24147">
        <ele>3.3</ele>
        <time>2026-08-14T14:16:28.000Z</time>
      </trkpt>
      <trkpt lat="45.96667" lon="-1.24153">
        <ele>3.5</ele>
        <time>2026-08-14T14:16:31.000Z</time>
      </trkpt>
      <trkpt lat="45.96669" lon="-1.24154">
        <ele>3.6</ele>
        <time>2026-08-14T14:16:32.000Z</time>
      </trkpt>
      <trkpt lat="45.96678" lon="-1.24167">
        <ele>4</ele>
        <time>2026-08-14T14:16:40.000Z</time>
      </trkpt>
      <trkpt lat="45.96693" lon="-1.24184">
        <ele>4</ele>
        <time>2026-08-14T14:16:50.000Z</time>
      </trkpt>
      <trkpt lat="45.96711" lon="-1.24209">
        <ele>3.4</ele>
        <time>2026-08-14T14:17:01.000Z</time>
      </trkpt>
      <trkpt lat="45.96713" lon="-1.24214">
        <ele>3.6</ele>
        <time>2026-08-14T14:17:06.000Z</time>
      </trkpt>
      <trkpt lat="45.96716" lon="-1.24214">
        <ele>3.5</ele>
        <time>2026-08-14T14:17:08.000Z</time>
      </trkpt>
      <trkpt lat="45.96717" lon="-1.24212">
        <ele>3.4</ele>
        <time>2026-08-14T14:17:10.000Z</time>
      </trkpt>
      <trkpt lat="45.96718" lon="-1.24205">
        <ele>2.9</ele>
        <time>2026-08-14T14:17:13.000Z</time>
      </trkpt>
      <trkpt lat="45.96722" lon="-1.242">
        <ele>2.4</ele>
        <time>2026-08-14T14:17:16.000Z</time>
      </trkpt>
      <trkpt lat="45.96733" lon="-1.24184">
        <ele>3.2</ele>
        <time>2026-08-14T14:17:24.000Z</time>
      </trkpt>
      <trkpt lat="45.96744" lon="-1.24164">
        <ele>3.7</ele>
        <time>2026-08-14T14:17:33.000Z</time>
      </trkpt>
      <trkpt lat="45.96757" lon="-1.24141">
        <ele>1.9</ele>
        <time>2026-08-14T14:17:43.000Z</time>
      </trkpt>
      <trkpt lat="45.9676" lon="-1.24138">
        <ele>2.1</ele>
        <time>2026-08-14T14:17:45.000Z</time>
      </trkpt>
      <trkpt lat="45.96761" lon="-1.24139">
        <ele>2.2</ele>
        <time>2026-08-14T14:17:47.000Z</time>
      </trkpt>
      <trkpt lat="45.96765" lon="-1.24141">
        <ele>2.7</ele>
        <time>2026-08-14T14:17:51.000Z</time>
      </trkpt>
      <trkpt lat="45.96767" lon="-1.2414">
        <ele>2.8</ele>
        <time>2026-08-14T14:17:53.000Z</time>
      </trkpt>
      <trkpt lat="45.9677" lon="-1.24129">
        <ele>3.1</ele>
        <time>2026-08-14T14:17:58.000Z</time>
      </trkpt>
      <trkpt lat="45.9678" lon="-1.24113">
        <ele>3.1</ele>
        <time>2026-08-14T14:18:05.000Z</time>
      </trkpt>
      <trkpt lat="45.96784" lon="-1.24105">
        <ele>3.4</ele>
        <time>2026-08-14T14:18:09.000Z</time>
      </trkpt>
      <trkpt lat="45.96787" lon="-1.24098">
        <ele>3.6</ele>
        <time>2026-08-14T14:18:12.000Z</time>
      </trkpt>
      <trkpt lat="45.96791" lon="-1.24093">
        <ele>3.8</ele>
        <time>2026-08-14T14:18:16.000Z</time>
      </trkpt>
      <trkpt lat="45.96794" lon="-1.24087">
        <ele>4</ele>
        <time>2026-08-14T14:18:19.000Z</time>
      </trkpt>
      <trkpt lat="45.96803" lon="-1.2407">
        <ele>2.5</ele>
        <time>2026-08-14T14:18:27.000Z</time>
      </trkpt>
      <trkpt lat="45.96814" lon="-1.24053">
        <ele>1.7</ele>
        <time>2026-08-14T14:18:35.000Z</time>
      </trkpt>
      <trkpt lat="45.96819" lon="-1.24046">
        <ele>2.3</ele>
        <time>2026-08-14T14:18:39.000Z</time>
      </trkpt>
      <trkpt lat="45.96819" lon="-1.24044">
        <ele>2.4</ele>
        <time>2026-08-14T14:18:40.000Z</time>
      </trkpt>
      <trkpt lat="45.96811" lon="-1.24026">
        <ele>3</ele>
        <time>2026-08-14T14:18:47.000Z</time>
      </trkpt>
      <trkpt lat="45.96804" lon="-1.24007">
        <ele>3</ele>
        <time>2026-08-14T14:18:54.000Z</time>
      </trkpt>
      <trkpt lat="45.96793" lon="-1.23976">
        <ele>3</ele>
        <time>2026-08-14T14:19:05.000Z</time>
      </trkpt>
      <trkpt lat="45.96788" lon="-1.23958">
        <ele>2.8</ele>
        <time>2026-08-14T14:19:12.000Z</time>
      </trkpt>
      <trkpt lat="45.96788" lon="-1.23936">
        <ele>2.4</ele>
        <time>2026-08-14T14:19:19.000Z</time>
      </trkpt>
      <trkpt lat="45.9679" lon="-1.23912">
        <ele>1.9</ele>
        <time>2026-08-14T14:19:26.000Z</time>
      </trkpt>
      <trkpt lat="45.96794" lon="-1.23882">
        <ele>1.9</ele>
        <time>2026-08-14T14:19:35.000Z</time>
      </trkpt>
      <trkpt lat="45.96801" lon="-1.23862">
        <ele>3</ele>
        <time>2026-08-14T14:19:43.000Z</time>
      </trkpt>
      <trkpt lat="45.9681" lon="-1.2384">
        <ele>2.3</ele>
        <time>2026-08-14T14:19:52.000Z</time>
      </trkpt>
      <trkpt lat="45.96816" lon="-1.23829">
        <ele>2.3</ele>
        <time>2026-08-14T14:19:59.000Z</time>
      </trkpt>
      <trkpt lat="45.96822" lon="-1.2382">
        <ele>2.3</ele>
        <time>2026-08-14T14:20:07.000Z</time>
      </trkpt>
      <trkpt lat="45.96823" lon="-1.23818">
        <ele>2.3</ele>
        <time>2026-08-14T14:20:09.000Z</time>
      </trkpt>
      <trkpt lat="45.96824" lon="-1.23813">
        <ele>2.2</ele>
        <time>2026-08-14T14:20:13.000Z</time>
      </trkpt>
      <trkpt lat="45.96825" lon="-1.23812">
        <ele>2.2</ele>
        <time>2026-08-14T14:20:14.000Z</time>
      </trkpt>
      <trkpt lat="45.96828" lon="-1.23808">
        <ele>2.1</ele>
        <time>2026-08-14T14:20:18.000Z</time>
      </trkpt>
      <trkpt lat="45.96829" lon="-1.23808">
        <ele>2.1</ele>
        <time>2026-08-14T14:20:20.000Z</time>
      </trkpt>
      <trkpt lat="45.96831" lon="-1.23809">
        <ele>2.1</ele>
        <time>2026-08-14T14:20:21.000Z</time>
      </trkpt>
      <trkpt lat="45.96841" lon="-1.23817">
        <ele>2.6</ele>
        <time>2026-08-14T14:20:26.000Z</time>
      </trkpt>
      <trkpt lat="45.96858" lon="-1.23829">
        <ele>3</ele>
        <time>2026-08-14T14:20:34.000Z</time>
      </trkpt>
      <trkpt lat="45.96859" lon="-1.2383">
        <ele>3</ele>
        <time>2026-08-14T14:20:35.000Z</time>
      </trkpt>
      <trkpt lat="45.96869" lon="-1.23833">
        <ele>3</ele>
        <time>2026-08-14T14:20:41.000Z</time>
      </trkpt>
      <trkpt lat="45.96891" lon="-1.23835">
        <ele>2.9</ele>
        <time>2026-08-14T14:20:50.000Z</time>
      </trkpt>
      <trkpt lat="45.96895" lon="-1.23833">
        <ele>3</ele>
        <time>2026-08-14T14:20:52.000Z</time>
      </trkpt>
      <trkpt lat="45.96896" lon="-1.23831">
        <ele>3.1</ele>
        <time>2026-08-14T14:20:54.000Z</time>
      </trkpt>
      <trkpt lat="45.96897" lon="-1.23827">
        <ele>3.2</ele>
        <time>2026-08-14T14:20:57.000Z</time>
      </trkpt>
      <trkpt lat="45.969" lon="-1.23824">
        <ele>3.3</ele>
        <time>2026-08-14T14:21:00.000Z</time>
      </trkpt>
      <trkpt lat="45.96901" lon="-1.23815">
        <ele>3.7</ele>
        <time>2026-08-14T14:21:07.000Z</time>
      </trkpt>
      <trkpt lat="45.96904" lon="-1.23805">
        <ele>4</ele>
        <time>2026-08-14T14:21:12.000Z</time>
      </trkpt>
      <trkpt lat="45.96906" lon="-1.23799">
        <ele>4</ele>
        <time>2026-08-14T14:21:16.000Z</time>
      </trkpt>
      <trkpt lat="45.96907" lon="-1.238">
        <ele>4</ele>
        <time>2026-08-14T14:21:18.000Z</time>
      </trkpt>
      <trkpt lat="45.96915" lon="-1.23814">
        <ele>3.7</ele>
        <time>2026-08-14T14:21:24.000Z</time>
      </trkpt>
      <trkpt lat="45.96931" lon="-1.23829">
        <ele>3.1</ele>
        <time>2026-08-14T14:21:31.000Z</time>
      </trkpt>
      <trkpt lat="45.96957" lon="-1.23852">
        <ele>2.5</ele>
        <time>2026-08-14T14:21:40.000Z</time>
      </trkpt>
      <trkpt lat="45.96969" lon="-1.23861">
        <ele>2.9</ele>
        <time>2026-08-14T14:21:44.000Z</time>
      </trkpt>
      <trkpt lat="45.9698" lon="-1.23873">
        <ele>2.8</ele>
        <time>2026-08-14T14:21:48.000Z</time>
      </trkpt>
      <trkpt lat="45.96986" lon="-1.23881">
        <ele>2.9</ele>
        <time>2026-08-14T14:21:52.000Z</time>
      </trkpt>
      <trkpt lat="45.96996" lon="-1.2389">
        <ele>3</ele>
        <time>2026-08-14T14:21:59.000Z</time>
      </trkpt>
      <trkpt lat="45.97012" lon="-1.23906">
        <ele>3</ele>
        <time>2026-08-14T14:22:06.000Z</time>
      </trkpt>
      <trkpt lat="45.97029" lon="-1.23923">
        <ele>3</ele>
        <time>2026-08-14T14:22:13.000Z</time>
      </trkpt>
      <trkpt lat="45.97045" lon="-1.23942">
        <ele>3.1</ele>
        <time>2026-08-14T14:22:20.000Z</time>
      </trkpt>
      <trkpt lat="45.97064" lon="-1.23959">
        <ele>3.3</ele>
        <time>2026-08-14T14:22:28.000Z</time>
      </trkpt>
      <trkpt lat="45.97068" lon="-1.23963">
        <ele>3.4</ele>
        <time>2026-08-14T14:22:32.000Z</time>
      </trkpt>
      <trkpt lat="45.97068" lon="-1.23963">
        <ele>3.5</ele>
        <time>2026-08-14T14:22:33.000Z</time>
      </trkpt>
      <trkpt lat="45.97069" lon="-1.23962">
        <ele>3.5</ele>
        <time>2026-08-14T14:22:34.000Z</time>
      </trkpt>
      <trkpt lat="45.97079" lon="-1.23963">
        <ele>3.9</ele>
        <time>2026-08-14T14:22:40.000Z</time>
      </trkpt>
      <trkpt lat="45.9709" lon="-1.23951">
        <ele>3.8</ele>
        <time>2026-08-14T14:22:45.000Z</time>
      </trkpt>
      <trkpt lat="45.97103" lon="-1.23924">
        <ele>3.5</ele>
        <time>2026-08-14T14:22:53.000Z</time>
      </trkpt>
      <trkpt lat="45.97114" lon="-1.23896">
        <ele>4.4</ele>
        <time>2026-08-14T14:23:00.000Z</time>
      </trkpt>
      <trkpt lat="45.97123" lon="-1.23868">
        <ele>4.5</ele>
        <time>2026-08-14T14:23:07.000Z</time>
      </trkpt>
      <trkpt lat="45.97131" lon="-1.23847">
        <ele>4.5</ele>
        <time>2026-08-14T14:23:13.000Z</time>
      </trkpt>
      <trkpt lat="45.97139" lon="-1.23827">
        <ele>5.2</ele>
        <time>2026-08-14T14:23:19.000Z</time>
      </trkpt>
      <trkpt lat="45.97142" lon="-1.23817">
        <ele>5.8</ele>
        <time>2026-08-14T14:23:22.000Z</time>
      </trkpt>
      <trkpt lat="45.97148" lon="-1.23797">
        <ele>6.2</ele>
        <time>2026-08-14T14:23:28.000Z</time>
      </trkpt>
      <trkpt lat="45.97151" lon="-1.23775">
        <ele>6</ele>
        <time>2026-08-14T14:23:35.000Z</time>
      </trkpt>
      <trkpt lat="45.97153" lon="-1.23765">
        <ele>6.2</ele>
        <time>2026-08-14T14:23:41.000Z</time>
      </trkpt>
      <trkpt lat="45.97155" lon="-1.23759">
        <ele>6.4</ele>
        <time>2026-08-14T14:23:45.000Z</time>
      </trkpt>
      <trkpt lat="45.97158" lon="-1.23752">
        <ele>6.6</ele>
        <time>2026-08-14T14:23:48.000Z</time>
      </trkpt>
      <trkpt lat="45.97164" lon="-1.23743">
        <ele>6.4</ele>
        <time>2026-08-14T14:23:53.000Z</time>
      </trkpt>
      <trkpt lat="45.97165" lon="-1.23742">
        <ele>6.4</ele>
        <time>2026-08-14T14:23:54.000Z</time>
      </trkpt>
      <trkpt lat="45.9717" lon="-1.23742">
        <ele>6.1</ele>
        <time>2026-08-14T14:23:59.000Z</time>
      </trkpt>
      <trkpt lat="45.97172" lon="-1.23732">
        <ele>5.5</ele>
        <time>2026-08-14T14:24:04.000Z</time>
      </trkpt>
      <trkpt lat="45.97173" lon="-1.23726">
        <ele>5.2</ele>
        <time>2026-08-14T14:24:07.000Z</time>
      </trkpt>
      <trkpt lat="45.97173" lon="-1.23722">
        <ele>5</ele>
        <time>2026-08-14T14:24:09.000Z</time>
      </trkpt>
      <trkpt lat="45.97174" lon="-1.23721">
        <ele>5.1</ele>
        <time>2026-08-14T14:24:10.000Z</time>
      </trkpt>
      <trkpt lat="45.97175" lon="-1.23719">
        <ele>5.2</ele>
        <time>2026-08-14T14:24:13.000Z</time>
      </trkpt>
      <trkpt lat="45.97175" lon="-1.23719">
        <ele>5.2</ele>
        <time>2026-08-14T14:24:15.000Z</time>
      </trkpt>
      <trkpt lat="45.97166" lon="-1.23741">
        <ele>6.3</ele>
        <time>2026-08-14T14:41:35.000Z</time>
      </trkpt>
      <trkpt lat="45.97163" lon="-1.23745">
        <ele>6.5</ele>
        <time>2026-08-14T14:41:37.000Z</time>
      </trkpt>
      <trkpt lat="45.97155" lon="-1.2376">
        <ele>6.4</ele>
        <time>2026-08-14T14:41:43.000Z</time>
      </trkpt>
      <trkpt lat="45.97148" lon="-1.23787">
        <ele>6.1</ele>
        <time>2026-08-14T14:41:51.000Z</time>
      </trkpt>
      <trkpt lat="45.97147" lon="-1.23803">
        <ele>6.3</ele>
        <time>2026-08-14T14:41:56.000Z</time>
      </trkpt>
      <trkpt lat="45.97141" lon="-1.23819">
        <ele>5.6</ele>
        <time>2026-08-14T14:42:01.000Z</time>
      </trkpt>
      <trkpt lat="45.97134" lon="-1.23837">
        <ele>4.7</ele>
        <time>2026-08-14T14:42:06.000Z</time>
      </trkpt>
      <trkpt lat="45.9713" lon="-1.23852">
        <ele>4.4</ele>
        <time>2026-08-14T14:42:09.000Z</time>
      </trkpt>
      <trkpt lat="45.97122" lon="-1.23881">
        <ele>4.3</ele>
        <time>2026-08-14T14:42:15.000Z</time>
      </trkpt>
      <trkpt lat="45.97118" lon="-1.239">
        <ele>3.9</ele>
        <time>2026-08-14T14:42:19.000Z</time>
      </trkpt>
      <trkpt lat="45.97115" lon="-1.23909">
        <ele>3.5</ele>
        <time>2026-08-14T14:42:21.000Z</time>
      </trkpt>
      <trkpt lat="45.97108" lon="-1.2393">
        <ele>3.2</ele>
        <time>2026-08-14T14:42:27.000Z</time>
      </trkpt>
      <trkpt lat="45.97099" lon="-1.23953">
        <ele>3.6</ele>
        <time>2026-08-14T14:42:34.000Z</time>
      </trkpt>
      <trkpt lat="45.97093" lon="-1.23976">
        <ele>3.9</ele>
        <time>2026-08-14T14:42:43.000Z</time>
      </trkpt>
      <trkpt lat="45.97097" lon="-1.23991">
        <ele>3.3</ele>
        <time>2026-08-14T14:42:49.000Z</time>
      </trkpt>
      <trkpt lat="45.9711" lon="-1.24003">
        <ele>3</ele>
        <time>2026-08-14T14:42:55.000Z</time>
      </trkpt>
      <trkpt lat="45.97123" lon="-1.24021">
        <ele>3</ele>
        <time>2026-08-14T14:43:00.000Z</time>
      </trkpt>
      <trkpt lat="45.97143" lon="-1.24045">
        <ele>3.2</ele>
        <time>2026-08-14T14:43:07.000Z</time>
      </trkpt>
      <trkpt lat="45.97167" lon="-1.24064">
        <ele>3</ele>
        <time>2026-08-14T14:43:15.000Z</time>
      </trkpt>
      <trkpt lat="45.97184" lon="-1.24071">
        <ele>2.7</ele>
        <time>2026-08-14T14:43:21.000Z</time>
      </trkpt>
      <trkpt lat="45.97208" lon="-1.24081">
        <ele>2.9</ele>
        <time>2026-08-14T14:43:29.000Z</time>
      </trkpt>
      <trkpt lat="45.97235" lon="-1.24084">
        <ele>3</ele>
        <time>2026-08-14T14:43:38.000Z</time>
      </trkpt>
      <trkpt lat="45.97259" lon="-1.24085">
        <ele>3.1</ele>
        <time>2026-08-14T14:43:46.000Z</time>
      </trkpt>
      <trkpt lat="45.97284" lon="-1.24085">
        <ele>3.3</ele>
        <time>2026-08-14T14:43:55.000Z</time>
      </trkpt>
      <trkpt lat="45.97302" lon="-1.24086">
        <ele>3.9</ele>
        <time>2026-08-14T14:44:02.000Z</time>
      </trkpt>
      <trkpt lat="45.97307" lon="-1.24091">
        <ele>4</ele>
        <time>2026-08-14T14:44:05.000Z</time>
      </trkpt>
      <trkpt lat="45.97308" lon="-1.24093">
        <ele>4.1</ele>
        <time>2026-08-14T14:44:06.000Z</time>
      </trkpt>
      <trkpt lat="45.97308" lon="-1.24096">
        <ele>4.1</ele>
        <time>2026-08-14T14:44:07.000Z</time>
      </trkpt>
      <trkpt lat="45.9731" lon="-1.24111">
        <ele>4.5</ele>
        <time>2026-08-14T14:44:12.000Z</time>
      </trkpt>
      <trkpt lat="45.97311" lon="-1.24112">
        <ele>4.6</ele>
        <time>2026-08-14T14:44:14.000Z</time>
      </trkpt>
      <trkpt lat="45.97311" lon="-1.24112">
        <ele>4.6</ele>
        <time>2026-08-14T14:44:15.000Z</time>
      </trkpt>
      <trkpt lat="45.97315" lon="-1.24107">
        <ele>4.9</ele>
        <time>2026-08-14T14:44:20.000Z</time>
      </trkpt>
      <trkpt lat="45.97317" lon="-1.24103">
        <ele>4.9</ele>
        <time>2026-08-14T14:44:22.000Z</time>
      </trkpt>
      <trkpt lat="45.97318" lon="-1.241">
        <ele>4.8</ele>
        <time>2026-08-14T14:44:23.000Z</time>
      </trkpt>
      <trkpt lat="45.97315" lon="-1.24093">
        <ele>4.4</ele>
        <time>2026-08-14T14:44:25.000Z</time>
      </trkpt>
      <trkpt lat="45.97313" lon="-1.24086">
        <ele>4.1</ele>
        <time>2026-08-14T14:44:27.000Z</time>
      </trkpt>
      <trkpt lat="45.97315" lon="-1.24082">
        <ele>4</ele>
        <time>2026-08-14T14:44:28.000Z</time>
      </trkpt>
      <trkpt lat="45.97325" lon="-1.24072">
        <ele>4</ele>
        <time>2026-08-14T14:44:33.000Z</time>
      </trkpt>
      <trkpt lat="45.97342" lon="-1.24057">
        <ele>4</ele>
        <time>2026-08-14T14:44:41.000Z</time>
      </trkpt>
      <trkpt lat="45.97354" lon="-1.24048">
        <ele>4.2</ele>
        <time>2026-08-14T14:44:46.000Z</time>
      </trkpt>
      <trkpt lat="45.9736" lon="-1.24043">
        <ele>4.4</ele>
        <time>2026-08-14T14:44:49.000Z</time>
      </trkpt>
      <trkpt lat="45.97364" lon="-1.24041">
        <ele>4.7</ele>
        <time>2026-08-14T14:44:51.000Z</time>
      </trkpt>
      <trkpt lat="45.97372" lon="-1.24035">
        <ele>5.4</ele>
        <time>2026-08-14T14:44:54.000Z</time>
      </trkpt>
      <trkpt lat="45.97377" lon="-1.24028">
        <ele>6.2</ele>
        <time>2026-08-14T14:44:57.000Z</time>
      </trkpt>
      <trkpt lat="45.97387" lon="-1.24015">
        <ele>7</ele>
        <time>2026-08-14T14:45:02.000Z</time>
      </trkpt>
      <trkpt lat="45.97394" lon="-1.24009">
        <ele>7.1</ele>
        <time>2026-08-14T14:45:05.000Z</time>
      </trkpt>
      <trkpt lat="45.97413" lon="-1.23986">
        <ele>7</ele>
        <time>2026-08-14T14:45:14.000Z</time>
      </trkpt>
      <trkpt lat="45.97415" lon="-1.23983">
        <ele>7</ele>
        <time>2026-08-14T14:45:15.000Z</time>
      </trkpt>
      <trkpt lat="45.97417" lon="-1.23981">
        <ele>7</ele>
        <time>2026-08-14T14:45:16.000Z</time>
      </trkpt>
      <trkpt lat="45.97435" lon="-1.23952">
        <ele>5.9</ele>
        <time>2026-08-14T14:45:24.000Z</time>
      </trkpt>
      <trkpt lat="45.97453" lon="-1.23921">
        <ele>5</ele>
        <time>2026-08-14T14:45:31.000Z</time>
      </trkpt>
      <trkpt lat="45.97458" lon="-1.23913">
        <ele>5</ele>
        <time>2026-08-14T14:45:33.000Z</time>
      </trkpt>
      <trkpt lat="45.97462" lon="-1.2391">
        <ele>5</ele>
        <time>2026-08-14T14:45:34.000Z</time>
      </trkpt>
      <trkpt lat="45.97464" lon="-1.23908">
        <ele>5</ele>
        <time>2026-08-14T14:45:35.000Z</time>
      </trkpt>
      <trkpt lat="45.97475" lon="-1.23904">
        <ele>5</ele>
        <time>2026-08-14T14:45:39.000Z</time>
      </trkpt>
      <trkpt lat="45.97497" lon="-1.23901">
        <ele>5.5</ele>
        <time>2026-08-14T14:45:46.000Z</time>
      </trkpt>
      <trkpt lat="45.97511" lon="-1.23896">
        <ele>5.5</ele>
        <time>2026-08-14T14:45:52.000Z</time>
      </trkpt>
      <trkpt lat="45.97521" lon="-1.23886">
        <ele>5.3</ele>
        <time>2026-08-14T14:45:58.000Z</time>
      </trkpt>
      <trkpt lat="45.97526" lon="-1.23874">
        <ele>5.5</ele>
        <time>2026-08-14T14:46:05.000Z</time>
      </trkpt>
      <trkpt lat="45.97526" lon="-1.23874">
        <ele>5.5</ele>
        <time>2026-08-14T14:46:06.000Z</time>
      </trkpt>
      <trkpt lat="45.97444" lon="-1.23959">
        <ele>5.5</ele>
        <time>2026-08-14T15:29:43.000Z</time>
      </trkpt>
      <trkpt lat="45.97434" lon="-1.23965">
        <ele>6.2</ele>
        <time>2026-08-14T15:29:45.000Z</time>
      </trkpt>
      <trkpt lat="45.97426" lon="-1.23968">
        <ele>6.6</ele>
        <time>2026-08-14T15:29:49.000Z</time>
      </trkpt>
      <trkpt lat="45.97425" lon="-1.23972">
        <ele>6.7</ele>
        <time>2026-08-14T15:29:51.000Z</time>
      </trkpt>
      <trkpt lat="45.9741" lon="-1.23995">
        <ele>7</ele>
        <time>2026-08-14T15:30:01.000Z</time>
      </trkpt>
      <trkpt lat="45.97408" lon="-1.23997">
        <ele>7</ele>
        <time>2026-08-14T15:30:02.000Z</time>
      </trkpt>
      <trkpt lat="45.97396" lon="-1.24009">
        <ele>7.1</ele>
        <time>2026-08-14T15:30:08.000Z</time>
      </trkpt>
      <trkpt lat="45.97385" lon="-1.24023">
        <ele>6.8</ele>
        <time>2026-08-14T15:30:15.000Z</time>
      </trkpt>
      <trkpt lat="45.97372" lon="-1.24037">
        <ele>5.3</ele>
        <time>2026-08-14T15:30:22.000Z</time>
      </trkpt>
      <trkpt lat="45.97355" lon="-1.24051">
        <ele>4.1</ele>
        <time>2026-08-14T15:30:29.000Z</time>
      </trkpt>
      <trkpt lat="45.97339" lon="-1.24067">
        <ele>4</ele>
        <time>2026-08-14T15:30:36.000Z</time>
      </trkpt>
      <trkpt lat="45.97337" lon="-1.2407">
        <ele>4</ele>
        <time>2026-08-14T15:30:38.000Z</time>
      </trkpt>
      <trkpt lat="45.97333" lon="-1.24076">
        <ele>4</ele>
        <time>2026-08-14T15:30:42.000Z</time>
      </trkpt>
      <trkpt lat="45.97333" lon="-1.24076">
        <ele>4</ele>
        <time>2026-08-14T15:30:44.000Z</time>
      </trkpt>
      <trkpt lat="45.9733" lon="-1.24083">
        <ele>4</ele>
        <time>2026-08-14T15:30:55.000Z</time>
      </trkpt>
      <trkpt lat="45.9733" lon="-1.24085">
        <ele>4.2</ele>
        <time>2026-08-14T15:30:56.000Z</time>
      </trkpt>
      <trkpt lat="45.97323" lon="-1.24097">
        <ele>4.9</ele>
        <time>2026-08-14T15:31:01.000Z</time>
      </trkpt>
      <trkpt lat="45.97319" lon="-1.24112">
        <ele>5.4</ele>
        <time>2026-08-14T15:31:07.000Z</time>
      </trkpt>
      <trkpt lat="45.97317" lon="-1.24112">
        <ele>5.3</ele>
        <time>2026-08-14T15:31:08.000Z</time>
      </trkpt>
      <trkpt lat="45.97316" lon="-1.24112">
        <ele>5.2</ele>
        <time>2026-08-14T15:31:09.000Z</time>
      </trkpt>
      <trkpt lat="45.97314" lon="-1.24106">
        <ele>4.8</ele>
        <time>2026-08-14T15:31:12.000Z</time>
      </trkpt>
      <trkpt lat="45.97308" lon="-1.24088">
        <ele>4.1</ele>
        <time>2026-08-14T15:31:17.000Z</time>
      </trkpt>
      <trkpt lat="45.97305" lon="-1.24087">
        <ele>4</ele>
        <time>2026-08-14T15:31:18.000Z</time>
      </trkpt>
      <trkpt lat="45.97294" lon="-1.24087">
        <ele>3.6</ele>
        <time>2026-08-14T15:31:21.000Z</time>
      </trkpt>
      <trkpt lat="45.97272" lon="-1.24086">
        <ele>3.1</ele>
        <time>2026-08-14T15:31:27.000Z</time>
      </trkpt>
      <trkpt lat="45.97248" lon="-1.24088">
        <ele>3.3</ele>
        <time>2026-08-14T15:31:34.000Z</time>
      </trkpt>
      <trkpt lat="45.97219" lon="-1.24086">
        <ele>3</ele>
        <time>2026-08-14T15:31:43.000Z</time>
      </trkpt>
      <trkpt lat="45.97194" lon="-1.24079">
        <ele>2.8</ele>
        <time>2026-08-14T15:31:51.000Z</time>
      </trkpt>
      <trkpt lat="45.9719" lon="-1.24077">
        <ele>2.8</ele>
        <time>2026-08-14T15:31:52.000Z</time>
      </trkpt>
      <trkpt lat="45.97161" lon="-1.24062">
        <ele>3</ele>
        <time>2026-08-14T15:32:01.000Z</time>
      </trkpt>
      <trkpt lat="45.97136" lon="-1.24038">
        <ele>3</ele>
        <time>2026-08-14T15:32:11.000Z</time>
      </trkpt>
      <trkpt lat="45.97119" lon="-1.24017">
        <ele>3</ele>
        <time>2026-08-14T15:32:19.000Z</time>
      </trkpt>
      <trkpt lat="45.97103" lon="-1.24001">
        <ele>3</ele>
        <time>2026-08-14T15:32:26.000Z</time>
      </trkpt>
      <trkpt lat="45.97086" lon="-1.23984">
        <ele>3.6</ele>
        <time>2026-08-14T15:32:34.000Z</time>
      </trkpt>
      <trkpt lat="45.97064" lon="-1.2396">
        <ele>3.3</ele>
        <time>2026-08-14T15:32:43.000Z</time>
      </trkpt>
      <trkpt lat="45.97042" lon="-1.23939">
        <ele>3.1</ele>
        <time>2026-08-14T15:32:51.000Z</time>
      </trkpt>
      <trkpt lat="45.97024" lon="-1.23924">
        <ele>3</ele>
        <time>2026-08-14T15:32:58.000Z</time>
      </trkpt>
      <trkpt lat="45.97007" lon="-1.23909">
        <ele>3</ele>
        <time>2026-08-14T15:33:05.000Z</time>
      </trkpt>
      <trkpt lat="45.96999" lon="-1.239">
        <ele>3</ele>
        <time>2026-08-14T15:33:10.000Z</time>
      </trkpt>
      <trkpt lat="45.96981" lon="-1.23885">
        <ele>3</ele>
        <time>2026-08-14T15:33:15.000Z</time>
      </trkpt>
      <trkpt lat="45.96973" lon="-1.2388">
        <ele>3</ele>
        <time>2026-08-14T15:33:17.000Z</time>
      </trkpt>
      <trkpt lat="45.96967" lon="-1.23881">
        <ele>2.8</ele>
        <time>2026-08-14T15:33:19.000Z</time>
      </trkpt>
      <trkpt lat="45.96963" lon="-1.2388">
        <ele>2.7</ele>
        <time>2026-08-14T15:33:21.000Z</time>
      </trkpt>
      <trkpt lat="45.96962" lon="-1.23877">
        <ele>2.6</ele>
        <time>2026-08-14T15:33:22.000Z</time>
      </trkpt>
      <trkpt lat="45.96959" lon="-1.23862">
        <ele>2.5</ele>
        <time>2026-08-14T15:33:27.000Z</time>
      </trkpt>
      <trkpt lat="45.96945" lon="-1.23843">
        <ele>2.7</ele>
        <time>2026-08-14T15:33:35.000Z</time>
      </trkpt>
      <trkpt lat="45.96932" lon="-1.2383">
        <ele>3.1</ele>
        <time>2026-08-14T15:33:41.000Z</time>
      </trkpt>
      <trkpt lat="45.9693" lon="-1.23828">
        <ele>3.1</ele>
        <time>2026-08-14T15:33:42.000Z</time>
      </trkpt>
      <trkpt lat="45.9691" lon="-1.23811">
        <ele>3.8</ele>
        <time>2026-08-14T15:33:51.000Z</time>
      </trkpt>
      <trkpt lat="45.96909" lon="-1.23796">
        <ele>4</ele>
        <time>2026-08-14T15:33:55.000Z</time>
      </trkpt>
      <trkpt lat="45.9691" lon="-1.23792">
        <ele>4</ele>
        <time>2026-08-14T15:33:56.000Z</time>
      </trkpt>
      <trkpt lat="45.96916" lon="-1.23768">
        <ele>4</ele>
        <time>2026-08-14T15:34:03.000Z</time>
      </trkpt>
      <trkpt lat="45.96916" lon="-1.23753">
        <ele>4</ele>
        <time>2026-08-14T15:34:08.000Z</time>
      </trkpt>
      <trkpt lat="45.96915" lon="-1.23752">
        <ele>4</ele>
        <time>2026-08-14T15:34:09.000Z</time>
      </trkpt>
      <trkpt lat="45.96912" lon="-1.23746">
        <ele>4</ele>
        <time>2026-08-14T15:34:12.000Z</time>
      </trkpt>
      <trkpt lat="45.96912" lon="-1.23743">
        <ele>4</ele>
        <time>2026-08-14T15:34:13.000Z</time>
      </trkpt>
      <trkpt lat="45.96915" lon="-1.23728">
        <ele>3.9</ele>
        <time>2026-08-14T15:34:18.000Z</time>
      </trkpt>
      <trkpt lat="45.96907" lon="-1.23712">
        <ele>3.5</ele>
        <time>2026-08-14T15:34:24.000Z</time>
      </trkpt>
      <trkpt lat="45.96906" lon="-1.23704">
        <ele>3.3</ele>
        <time>2026-08-14T15:34:27.000Z</time>
      </trkpt>
      <trkpt lat="45.96903" lon="-1.23698">
        <ele>3.1</ele>
        <time>2026-08-14T15:34:30.000Z</time>
      </trkpt>
      <trkpt lat="45.96903" lon="-1.23682">
        <ele>3.3</ele>
        <time>2026-08-14T15:34:36.000Z</time>
      </trkpt>
      <trkpt lat="45.96904" lon="-1.2367">
        <ele>3.6</ele>
        <time>2026-08-14T15:34:44.000Z</time>
      </trkpt>
      <trkpt lat="45.96888" lon="-1.23624">
        <ele>2.1</ele>
        <time>2026-08-14T16:32:29.000Z</time>
      </trkpt>
      <trkpt lat="45.96889" lon="-1.23619">
        <ele>2.6</ele>
        <time>2026-08-14T16:32:32.000Z</time>
      </trkpt>
      <trkpt lat="45.96896" lon="-1.23595">
        <ele>1.4</ele>
        <time>2026-08-14T16:32:44.000Z</time>
      </trkpt>
      <trkpt lat="45.96901" lon="-1.23562">
        <ele>1</ele>
        <time>2026-08-14T16:32:52.000Z</time>
      </trkpt>
      <trkpt lat="45.96915" lon="-1.23514">
        <ele>3</ele>
        <time>2026-08-14T16:33:02.000Z</time>
      </trkpt>
      <trkpt lat="45.96944" lon="-1.23451">
        <ele>2.8</ele>
        <time>2026-08-14T16:33:15.000Z</time>
      </trkpt>
      <trkpt lat="45.9697" lon="-1.23382">
        <ele>1.3</ele>
        <time>2026-08-14T16:33:28.000Z</time>
      </trkpt>
      <trkpt lat="45.96979" lon="-1.23355">
        <ele>1</ele>
        <time>2026-08-14T16:33:33.000Z</time>
      </trkpt>
      <trkpt lat="45.97001" lon="-1.23278">
        <ele>21.39999961853</ele>
        <time>2026-08-14T16:33:47.000Z</time>
      </trkpt>
      <trkpt lat="45.97003" lon="-1.23273">
        <ele>1</ele>
        <time>2026-08-14T16:33:48.000Z</time>
      </trkpt>
      <trkpt lat="45.97025" lon="-1.23216">
        <ele>1</ele>
        <time>2026-08-14T16:33:59.000Z</time>
      </trkpt>
      <trkpt lat="45.97051" lon="-1.23148">
        <ele>1.7</ele>
        <time>2026-08-14T16:34:12.000Z</time>
      </trkpt>
      <trkpt lat="45.9708" lon="-1.23081">
        <ele>2</ele>
        <time>2026-08-14T16:34:24.000Z</time>
      </trkpt>
      <trkpt lat="45.97095" lon="-1.23039">
        <ele>21.200000762939</ele>
        <time>2026-08-14T16:34:31.000Z</time>
      </trkpt>
      <trkpt lat="45.97107" lon="-1.23001">
        <ele>21.200000762939</ele>
        <time>2026-08-14T16:34:37.000Z</time>
      </trkpt>
      <trkpt lat="45.97126" lon="-1.22925">
        <ele>21.39999961853</ele>
        <time>2026-08-14T16:34:49.000Z</time>
      </trkpt>
      <trkpt lat="45.97138" lon="-1.22854">
        <ele>21.39999961853</ele>
        <time>2026-08-14T16:35:00.000Z</time>
      </trkpt>
      <trkpt lat="45.9714" lon="-1.2284">
        <ele>21.39999961853</ele>
        <time>2026-08-14T16:35:02.000Z</time>
      </trkpt>
      <trkpt lat="45.97157" lon="-1.22773">
        <ele>21.60000038147</ele>
        <time>2026-08-14T16:35:12.000Z</time>
      </trkpt>
      <trkpt lat="45.9718" lon="-1.22703">
        <ele>21.799999237061</ele>
        <time>2026-08-14T16:35:23.000Z</time>
      </trkpt>
      <trkpt lat="45.97182" lon="-1.22696">
        <ele>21.799999237061</ele>
        <time>2026-08-14T16:35:24.000Z</time>
      </trkpt>
      <trkpt lat="45.97209" lon="-1.22635">
        <ele>21.799999237061</ele>
        <time>2026-08-14T16:35:34.000Z</time>
      </trkpt>
      <trkpt lat="45.97218" lon="-1.22617">
        <ele>21.799999237061</ele>
        <time>2026-08-14T16:35:37.000Z</time>
      </trkpt>
      <trkpt lat="45.97249" lon="-1.22551">
        <ele>21.60000038147</ele>
        <time>2026-08-14T16:35:48.000Z</time>
      </trkpt>
      <trkpt lat="45.97265" lon="-1.22516">
        <ele>21.60000038147</ele>
        <time>2026-08-14T16:35:54.000Z</time>
      </trkpt>
      <trkpt lat="45.97296" lon="-1.2245">
        <ele>21.60000038147</ele>
        <time>2026-08-14T16:36:05.000Z</time>
      </trkpt>
      <trkpt lat="45.97304" lon="-1.22432">
        <ele>21.799999237061</ele>
        <time>2026-08-14T16:36:08.000Z</time>
      </trkpt>
      <trkpt lat="45.9731" lon="-1.2242">
        <ele>21.799999237061</ele>
        <time>2026-08-14T16:36:10.000Z</time>
      </trkpt>
      <trkpt lat="45.9734" lon="-1.22352">
        <ele>21.799999237061</ele>
        <time>2026-08-14T16:36:21.000Z</time>
      </trkpt>
      <trkpt lat="45.97357" lon="-1.22315">
        <ele>21.799999237061</ele>
        <time>2026-08-14T16:36:27.000Z</time>
      </trkpt>
      <trkpt lat="45.97387" lon="-1.22247">
        <ele>21.799999237061</ele>
        <time>2026-08-14T16:36:39.000Z</time>
      </trkpt>
      <trkpt lat="45.974" lon="-1.22216">
        <ele>21.799999237061</ele>
        <time>2026-08-14T16:36:44.000Z</time>
      </trkpt>
      <trkpt lat="45.97403" lon="-1.2221">
        <ele>21.799999237061</ele>
        <time>2026-08-14T16:36:45.000Z</time>
      </trkpt>
      <trkpt lat="45.97431" lon="-1.22142">
        <ele>21.60000038147</ele>
        <time>2026-08-14T16:36:56.000Z</time>
      </trkpt>
      <trkpt lat="45.97445" lon="-1.22109">
        <ele>21.60000038147</ele>
        <time>2026-08-14T16:37:01.000Z</time>
      </trkpt>
      <trkpt lat="45.97478" lon="-1.22045">
        <ele>21.60000038147</ele>
        <time>2026-08-14T16:37:10.000Z</time>
      </trkpt>
      <trkpt lat="45.97515" lon="-1.21999">
        <ele>21.60000038147</ele>
        <time>2026-08-14T16:37:17.000Z</time>
      </trkpt>
      <trkpt lat="45.9756" lon="-1.21962">
        <ele>21.60000038147</ele>
        <time>2026-08-14T16:37:24.000Z</time>
      </trkpt>
      <trkpt lat="45.97612" lon="-1.21936">
        <ele>21.799999237061</ele>
        <time>2026-08-14T16:37:31.000Z</time>
      </trkpt>
      <trkpt lat="45.9766" lon="-1.21927">
        <ele>22.200000762939</ele>
        <time>2026-08-14T16:37:37.000Z</time>
      </trkpt>
      <trkpt lat="45.97719" lon="-1.21926">
        <ele>22.200000762939</ele>
        <time>2026-08-14T16:37:44.000Z</time>
      </trkpt>
      <trkpt lat="45.9776" lon="-1.21923">
        <ele>22.39999961853</ele>
        <time>2026-08-14T16:37:49.000Z</time>
      </trkpt>
      <trkpt lat="45.97817" lon="-1.21915">
        <ele>22.39999961853</ele>
        <time>2026-08-14T16:37:56.000Z</time>
      </trkpt>
      <trkpt lat="45.9785" lon="-1.2191">
        <ele>22.200000762939</ele>
        <time>2026-08-14T16:38:00.000Z</time>
      </trkpt>
      <trkpt lat="45.97908" lon="-1.21902">
        <ele>22.200000762939</ele>
        <time>2026-08-14T16:38:07.000Z</time>
      </trkpt>
      <trkpt lat="45.97966" lon="-1.21896">
        <ele>22.39999961853</ele>
        <time>2026-08-14T16:38:14.000Z</time>
      </trkpt>
      <trkpt lat="45.98025" lon="-1.21892">
        <ele>22.60000038147</ele>
        <time>2026-08-14T16:38:21.000Z</time>
      </trkpt>
      <trkpt lat="45.98075" lon="-1.21893">
        <ele>23</ele>
        <time>2026-08-14T16:38:27.000Z</time>
      </trkpt>
      <trkpt lat="45.98084" lon="-1.21893">
        <ele>23.200000762939</ele>
        <time>2026-08-14T16:38:28.000Z</time>
      </trkpt>
      <trkpt lat="45.98143" lon="-1.21896">
        <ele>23.200000762939</ele>
        <time>2026-08-14T16:38:35.000Z</time>
      </trkpt>
      <trkpt lat="45.98202" lon="-1.21902">
        <ele>23.200000762939</ele>
        <time>2026-08-14T16:38:42.000Z</time>
      </trkpt>
      <trkpt lat="45.98261" lon="-1.21909">
        <ele>23.200000762939</ele>
        <time>2026-08-14T16:38:49.000Z</time>
      </trkpt>
      <trkpt lat="45.98319" lon="-1.21917">
        <ele>23.200000762939</ele>
        <time>2026-08-14T16:38:56.000Z</time>
      </trkpt>
      <trkpt lat="45.98344" lon="-1.21921">
        <ele>23.200000762939</ele>
        <time>2026-08-14T16:38:59.000Z</time>
      </trkpt>
      <trkpt lat="45.98402" lon="-1.21933">
        <ele>23.39999961853</ele>
        <time>2026-08-14T16:39:06.000Z</time>
      </trkpt>
      <trkpt lat="45.9846" lon="-1.21946">
        <ele>23.39999961853</ele>
        <time>2026-08-14T16:39:13.000Z</time>
      </trkpt>
      <trkpt lat="45.98517" lon="-1.2196">
        <ele>23.60000038147</ele>
        <time>2026-08-14T16:39:20.000Z</time>
      </trkpt>
      <trkpt lat="45.98559" lon="-1.21968">
        <ele>23.60000038147</ele>
        <time>2026-08-14T16:39:25.000Z</time>
      </trkpt>
      <trkpt lat="45.98618" lon="-1.21979">
        <ele>23.799999237061</ele>
        <time>2026-08-14T16:39:32.000Z</time>
      </trkpt>
      <trkpt lat="45.98676" lon="-1.2199">
        <ele>23.799999237061</ele>
        <time>2026-08-14T16:39:39.000Z</time>
      </trkpt>
      <trkpt lat="45.98693" lon="-1.21993">
        <ele>23.60000038147</ele>
        <time>2026-08-14T16:39:41.000Z</time>
      </trkpt>
      <trkpt lat="45.9875" lon="-1.22004">
        <ele>23.39999961853</ele>
        <time>2026-08-14T16:39:48.000Z</time>
      </trkpt>
      <trkpt lat="45.98807" lon="-1.22016">
        <ele>23.39999961853</ele>
        <time>2026-08-14T16:39:55.000Z</time>
      </trkpt>
      <trkpt lat="45.98865" lon="-1.2203">
        <ele>23.200000762939</ele>
        <time>2026-08-14T16:40:02.000Z</time>
      </trkpt>
      <trkpt lat="45.98914" lon="-1.22043">
        <ele>23.200000762939</ele>
        <time>2026-08-14T16:40:08.000Z</time>
      </trkpt>
      <trkpt lat="45.98971" lon="-1.22059">
        <ele>23.200000762939</ele>
        <time>2026-08-14T16:40:15.000Z</time>
      </trkpt>
      <trkpt lat="45.9902" lon="-1.22075">
        <ele>23.200000762939</ele>
        <time>2026-08-14T16:40:21.000Z</time>
      </trkpt>
      <trkpt lat="45.99077" lon="-1.22095">
        <ele>23.200000762939</ele>
        <time>2026-08-14T16:40:28.000Z</time>
      </trkpt>
      <trkpt lat="45.99118" lon="-1.22109">
        <ele>23.200000762939</ele>
        <time>2026-08-14T16:40:33.000Z</time>
      </trkpt>
      <trkpt lat="45.99175" lon="-1.22126">
        <ele>23.200000762939</ele>
        <time>2026-08-14T16:40:40.000Z</time>
      </trkpt>
      <trkpt lat="45.99216" lon="-1.22137">
        <ele>23.200000762939</ele>
        <time>2026-08-14T16:40:45.000Z</time>
      </trkpt>
      <trkpt lat="45.99274" lon="-1.22149">
        <ele>23.200000762939</ele>
        <time>2026-08-14T16:40:52.000Z</time>
      </trkpt>
      <trkpt lat="45.99298" lon="-1.22155">
        <ele>23.200000762939</ele>
        <time>2026-08-14T16:40:55.000Z</time>
      </trkpt>
      <trkpt lat="45.99356" lon="-1.22169">
        <ele>23.39999961853</ele>
        <time>2026-08-14T16:41:02.000Z</time>
      </trkpt>
      <trkpt lat="45.99389" lon="-1.22177">
        <ele>23.39999961853</ele>
        <time>2026-08-14T16:41:06.000Z</time>
      </trkpt>
      <trkpt lat="45.99445" lon="-1.22193">
        <ele>23.60000038147</ele>
        <time>2026-08-14T16:41:13.000Z</time>
      </trkpt>
      <trkpt lat="45.99502" lon="-1.22209">
        <ele>23.799999237061</ele>
        <time>2026-08-14T16:41:20.000Z</time>
      </trkpt>
      <trkpt lat="45.99518" lon="-1.22214">
        <ele>23.799999237061</ele>
        <time>2026-08-14T16:41:22.000Z</time>
      </trkpt>
      <trkpt lat="45.99574" lon="-1.22232">
        <ele>23.60000038147</ele>
        <time>2026-08-14T16:41:29.000Z</time>
      </trkpt>
      <trkpt lat="45.99613" lon="-1.22246">
        <ele>23.60000038147</ele>
        <time>2026-08-14T16:41:34.000Z</time>
      </trkpt>
      <trkpt lat="45.99669" lon="-1.22264">
        <ele>23.60000038147</ele>
        <time>2026-08-14T16:41:41.000Z</time>
      </trkpt>
      <trkpt lat="45.99686" lon="-1.22267">
        <ele>23.60000038147</ele>
        <time>2026-08-14T16:41:43.000Z</time>
      </trkpt>
      <trkpt lat="45.99743" lon="-1.22272">
        <ele>23.799999237061</ele>
        <time>2026-08-14T16:41:50.000Z</time>
      </trkpt>
      <trkpt lat="45.99751" lon="-1.22272">
        <ele>23.799999237061</ele>
        <time>2026-08-14T16:41:51.000Z</time>
      </trkpt>
      <trkpt lat="45.99807" lon="-1.22269">
        <ele>24</ele>
        <time>2026-08-14T16:41:58.000Z</time>
      </trkpt>
      <trkpt lat="45.99848" lon="-1.22266">
        <ele>24</ele>
        <time>2026-08-14T16:42:03.000Z</time>
      </trkpt>
      <trkpt lat="45.99896" lon="-1.2226">
        <ele>24</ele>
        <time>2026-08-14T16:42:09.000Z</time>
      </trkpt>
      <trkpt lat="45.99904" lon="-1.22259">
        <ele>24</ele>
        <time>2026-08-14T16:42:10.000Z</time>
      </trkpt>
      <trkpt lat="45.99962" lon="-1.2225">
        <ele>24.200000762939</ele>
        <time>2026-08-14T16:42:17.000Z</time>
      </trkpt>
      <trkpt lat="45.99995" lon="-1.22243">
        <ele>24.200000762939</ele>
        <time>2026-08-14T16:42:21.000Z</time>
      </trkpt>
      <trkpt lat="46.00053" lon="-1.22228">
        <ele>24.200000762939</ele>
        <time>2026-08-14T16:42:28.000Z</time>
      </trkpt>
      <trkpt lat="46.00078" lon="-1.2222">
        <ele>24.39999961853</ele>
        <time>2026-08-14T16:42:31.000Z</time>
      </trkpt>
      <trkpt lat="46.00136" lon="-1.22198">
        <ele>24.60000038147</ele>
        <time>2026-08-14T16:42:38.000Z</time>
      </trkpt>
      <trkpt lat="46.00168" lon="-1.22183">
        <ele>24.39999961853</ele>
        <time>2026-08-14T16:42:42.000Z</time>
      </trkpt>
      <trkpt lat="46.00222" lon="-1.22152">
        <ele>24.200000762939</ele>
        <time>2026-08-14T16:42:49.000Z</time>
      </trkpt>
      <trkpt lat="46.00238" lon="-1.22143">
        <ele>24.200000762939</ele>
        <time>2026-08-14T16:42:51.000Z</time>
      </trkpt>
      <trkpt lat="46.00292" lon="-1.22112">
        <ele>24.39999961853</ele>
        <time>2026-08-14T16:42:58.000Z</time>
      </trkpt>
      <trkpt lat="46.00323" lon="-1.22097">
        <ele>24.39999961853</ele>
        <time>2026-08-14T16:43:02.000Z</time>
      </trkpt>
      <trkpt lat="46.00377" lon="-1.22072">
        <ele>24.200000762939</ele>
        <time>2026-08-14T16:43:09.000Z</time>
      </trkpt>
      <trkpt lat="46.00424" lon="-1.22052">
        <ele>24.200000762939</ele>
        <time>2026-08-14T16:43:15.000Z</time>
      </trkpt>
      <trkpt lat="46.00463" lon="-1.22037">
        <ele>24.200000762939</ele>
        <time>2026-08-14T16:43:20.000Z</time>
      </trkpt>
      <trkpt lat="46.00517" lon="-1.22019">
        <ele>24.200000762939</ele>
        <time>2026-08-14T16:43:27.000Z</time>
      </trkpt>
      <trkpt lat="46.00525" lon="-1.22016">
        <ele>24.200000762939</ele>
        <time>2026-08-14T16:43:28.000Z</time>
      </trkpt>
      <trkpt lat="46.0058" lon="-1.21999">
        <ele>24</ele>
        <time>2026-08-14T16:43:35.000Z</time>
      </trkpt>
      <trkpt lat="46.00618" lon="-1.21988">
        <ele>24</ele>
        <time>2026-08-14T16:43:40.000Z</time>
      </trkpt>
      <trkpt lat="46.00671" lon="-1.21969">
        <ele>23.799999237061</ele>
        <time>2026-08-14T16:43:47.000Z</time>
      </trkpt>
      <trkpt lat="46.00724" lon="-1.21948">
        <ele>24</ele>
        <time>2026-08-14T16:43:54.000Z</time>
      </trkpt>
      <trkpt lat="46.00784" lon="-1.21928">
        <ele>24</ele>
        <time>2026-08-14T16:44:02.000Z</time>
      </trkpt>
      <trkpt lat="46.00829" lon="-1.21913">
        <ele>23.799999237061</ele>
        <time>2026-08-14T16:44:08.000Z</time>
      </trkpt>
      <trkpt lat="46.00883" lon="-1.21898">
        <ele>23.799999237061</ele>
        <time>2026-08-14T16:44:15.000Z</time>
      </trkpt>
      <trkpt lat="46.00914" lon="-1.2189">
        <ele>24</ele>
        <time>2026-08-14T16:44:19.000Z</time>
      </trkpt>
      <trkpt lat="46.00968" lon="-1.21881">
        <ele>24.200000762939</ele>
        <time>2026-08-14T16:44:26.000Z</time>
      </trkpt>
      <trkpt lat="46.01008" lon="-1.21874">
        <ele>24.200000762939</ele>
        <time>2026-08-14T16:44:31.000Z</time>
      </trkpt>
      <trkpt lat="46.01064" lon="-1.21864">
        <ele>24.200000762939</ele>
        <time>2026-08-14T16:44:38.000Z</time>
      </trkpt>
      <trkpt lat="46.0112" lon="-1.21855">
        <ele>24.39999961853</ele>
        <time>2026-08-14T16:44:45.000Z</time>
      </trkpt>
      <trkpt lat="46.01128" lon="-1.21853">
        <ele>24.39999961853</ele>
        <time>2026-08-14T16:44:46.000Z</time>
      </trkpt>
      <trkpt lat="46.01185" lon="-1.21844">
        <ele>24.39999961853</ele>
        <time>2026-08-14T16:44:53.000Z</time>
      </trkpt>
      <trkpt lat="46.0124" lon="-1.21833">
        <ele>24.39999961853</ele>
        <time>2026-08-14T16:45:00.000Z</time>
      </trkpt>
      <trkpt lat="46.01295" lon="-1.21819">
        <ele>24.200000762939</ele>
        <time>2026-08-14T16:45:07.000Z</time>
      </trkpt>
      <trkpt lat="46.01343" lon="-1.21808">
        <ele>24</ele>
        <time>2026-08-14T16:45:13.000Z</time>
      </trkpt>
      <trkpt lat="46.01399" lon="-1.21798">
        <ele>24</ele>
        <time>2026-08-14T16:45:20.000Z</time>
      </trkpt>
      <trkpt lat="46.01456" lon="-1.21791">
        <ele>24.200000762939</ele>
        <time>2026-08-14T16:45:27.000Z</time>
      </trkpt>
      <trkpt lat="46.01513" lon="-1.21788">
        <ele>24.200000762939</ele>
        <time>2026-08-14T16:45:34.000Z</time>
      </trkpt>
      <trkpt lat="46.01544" lon="-1.21785">
        <ele>24.200000762939</ele>
        <time>2026-08-14T16:45:38.000Z</time>
      </trkpt>
      <trkpt lat="46.01601" lon="-1.21779">
        <ele>24.200000762939</ele>
        <time>2026-08-14T16:45:45.000Z</time>
      </trkpt>
      <trkpt lat="46.01617" lon="-1.21776">
        <ele>24.200000762939</ele>
        <time>2026-08-14T16:45:47.000Z</time>
      </trkpt>
      <trkpt lat="46.01641" lon="-1.21771">
        <ele>24.200000762939</ele>
        <time>2026-08-14T16:45:50.000Z</time>
      </trkpt>
      <trkpt lat="46.01697" lon="-1.21759">
        <ele>24.200000762939</ele>
        <time>2026-08-14T16:45:57.000Z</time>
      </trkpt>
      <trkpt lat="46.01753" lon="-1.21748">
        <ele>24.39999961853</ele>
        <time>2026-08-14T16:46:04.000Z</time>
      </trkpt>
      <trkpt lat="46.01809" lon="-1.21738">
        <ele>24.39999961853</ele>
        <time>2026-08-14T16:46:11.000Z</time>
      </trkpt>
      <trkpt lat="46.01856" lon="-1.21729">
        <ele>24.39999961853</ele>
        <time>2026-08-14T16:46:17.000Z</time>
      </trkpt>
      <trkpt lat="46.0191" lon="-1.21714">
        <ele>24.200000762939</ele>
        <time>2026-08-14T16:46:24.000Z</time>
      </trkpt>
      <trkpt lat="46.01933" lon="-1.21707">
        <ele>24.200000762939</ele>
        <time>2026-08-14T16:46:27.000Z</time>
      </trkpt>
      <trkpt lat="46.01987" lon="-1.21692">
        <ele>24.200000762939</ele>
        <time>2026-08-14T16:46:34.000Z</time>
      </trkpt>
      <trkpt lat="46.02043" lon="-1.21677">
        <ele>24.39999961853</ele>
        <time>2026-08-14T16:46:41.000Z</time>
      </trkpt>
      <trkpt lat="46.02051" lon="-1.21675">
        <ele>24.39999961853</ele>
        <time>2026-08-14T16:46:42.000Z</time>
      </trkpt>
      <trkpt lat="46.02107" lon="-1.21662">
        <ele>24.39999961853</ele>
        <time>2026-08-14T16:46:49.000Z</time>
      </trkpt>
      <trkpt lat="46.02147" lon="-1.21653">
        <ele>24.200000762939</ele>
        <time>2026-08-14T16:46:54.000Z</time>
      </trkpt>
      <trkpt lat="46.02204" lon="-1.21643">
        <ele>24.200000762939</ele>
        <time>2026-08-14T16:47:01.000Z</time>
      </trkpt>
      <trkpt lat="46.0226" lon="-1.21632">
        <ele>24.200000762939</ele>
        <time>2026-08-14T16:47:08.000Z</time>
      </trkpt>
      <trkpt lat="46.02277" lon="-1.21628">
        <ele>24.200000762939</ele>
        <time>2026-08-14T16:47:10.000Z</time>
      </trkpt>
      <trkpt lat="46.02332" lon="-1.21615">
        <ele>24.200000762939</ele>
        <time>2026-08-14T16:47:17.000Z</time>
      </trkpt>
      <trkpt lat="46.02388" lon="-1.21603">
        <ele>24.200000762939</ele>
        <time>2026-08-14T16:47:24.000Z</time>
      </trkpt>
      <trkpt lat="46.02445" lon="-1.21593">
        <ele>24.200000762939</ele>
        <time>2026-08-14T16:47:31.000Z</time>
      </trkpt>
      <trkpt lat="46.02494" lon="-1.21586">
        <ele>24.200000762939</ele>
        <time>2026-08-14T16:47:37.000Z</time>
      </trkpt>
      <trkpt lat="46.0255" lon="-1.21579">
        <ele>24.200000762939</ele>
        <time>2026-08-14T16:47:44.000Z</time>
      </trkpt>
      <trkpt lat="46.02583" lon="-1.21576">
        <ele>24.39999961853</ele>
        <time>2026-08-14T16:47:48.000Z</time>
      </trkpt>
      <trkpt lat="46.0264" lon="-1.21568">
        <ele>24.39999961853</ele>
        <time>2026-08-14T16:47:55.000Z</time>
      </trkpt>
      <trkpt lat="46.02664" lon="-1.21563">
        <ele>24.39999961853</ele>
        <time>2026-08-14T16:47:58.000Z</time>
      </trkpt>
      <trkpt lat="46.0272" lon="-1.21551">
        <ele>24.200000762939</ele>
        <time>2026-08-14T16:48:05.000Z</time>
      </trkpt>
      <trkpt lat="46.02751" lon="-1.21543">
        <ele>24.200000762939</ele>
        <time>2026-08-14T16:48:09.000Z</time>
      </trkpt>
      <trkpt lat="46.02759" lon="-1.2154">
        <ele>24.200000762939</ele>
        <time>2026-08-14T16:48:10.000Z</time>
      </trkpt>
      <trkpt lat="46.02814" lon="-1.21524">
        <ele>24</ele>
        <time>2026-08-14T16:48:17.000Z</time>
      </trkpt>
      <trkpt lat="46.02862" lon="-1.21511">
        <ele>24</ele>
        <time>2026-08-14T16:48:23.000Z</time>
      </trkpt>
      <trkpt lat="46.02919" lon="-1.21498">
        <ele>24</ele>
        <time>2026-08-14T16:48:30.000Z</time>
      </trkpt>
      <trkpt lat="46.02967" lon="-1.21488">
        <ele>24</ele>
        <time>2026-08-14T16:48:36.000Z</time>
      </trkpt>
      <trkpt lat="46.03022" lon="-1.21472">
        <ele>24</ele>
        <time>2026-08-14T16:48:43.000Z</time>
      </trkpt>
      <trkpt lat="46.03071" lon="-1.2146">
        <ele>24</ele>
        <time>2026-08-14T16:48:49.000Z</time>
      </trkpt>
      <trkpt lat="46.03127" lon="-1.21447">
        <ele>24.200000762939</ele>
        <time>2026-08-14T16:48:56.000Z</time>
      </trkpt>
      <trkpt lat="46.03183" lon="-1.21435">
        <ele>24.200000762939</ele>
        <time>2026-08-14T16:49:03.000Z</time>
      </trkpt>
      <trkpt lat="46.03207" lon="-1.21429">
        <ele>24.200000762939</ele>
        <time>2026-08-14T16:49:06.000Z</time>
      </trkpt>
      <trkpt lat="46.03263" lon="-1.21416">
        <ele>24.200000762939</ele>
        <time>2026-08-14T16:49:13.000Z</time>
      </trkpt>
      <trkpt lat="46.03318" lon="-1.21402">
        <ele>24</ele>
        <time>2026-08-14T16:49:20.000Z</time>
      </trkpt>
      <trkpt lat="46.03374" lon="-1.21388">
        <ele>24.200000762939</ele>
        <time>2026-08-14T16:49:27.000Z</time>
      </trkpt>
      <trkpt lat="46.03429" lon="-1.21373">
        <ele>24</ele>
        <time>2026-08-14T16:49:34.000Z</time>
      </trkpt>
      <trkpt lat="46.03484" lon="-1.21362">
        <ele>24</ele>
        <time>2026-08-14T16:49:41.000Z</time>
      </trkpt>
      <trkpt lat="46.035" lon="-1.21358">
        <ele>24</ele>
        <time>2026-08-14T16:49:43.000Z</time>
      </trkpt>
      <trkpt lat="46.03554" lon="-1.21347">
        <ele>23.799999237061</ele>
        <time>2026-08-14T16:49:50.000Z</time>
      </trkpt>
      <trkpt lat="46.03594" lon="-1.21338">
        <ele>23.60000038147</ele>
        <time>2026-08-14T16:49:55.000Z</time>
      </trkpt>
      <trkpt lat="46.03649" lon="-1.21327">
        <ele>23.60000038147</ele>
        <time>2026-08-14T16:50:02.000Z</time>
      </trkpt>
      <trkpt lat="46.03696" lon="-1.21317">
        <ele>23.799999237061</ele>
        <time>2026-08-14T16:50:08.000Z</time>
      </trkpt>
      <trkpt lat="46.03751" lon="-1.21306">
        <ele>23.799999237061</ele>
        <time>2026-08-14T16:50:15.000Z</time>
      </trkpt>
      <trkpt lat="46.03808" lon="-1.21294">
        <ele>23.799999237061</ele>
        <time>2026-08-14T16:50:22.000Z</time>
      </trkpt>
      <trkpt lat="46.03863" lon="-1.21283">
        <ele>23.799999237061</ele>
        <time>2026-08-14T16:50:29.000Z</time>
      </trkpt>
      <trkpt lat="46.03887" lon="-1.21279">
        <ele>23.799999237061</ele>
        <time>2026-08-14T16:50:32.000Z</time>
      </trkpt>
      <trkpt lat="46.03942" lon="-1.21268">
        <ele>23.799999237061</ele>
        <time>2026-08-14T16:50:39.000Z</time>
      </trkpt>
      <trkpt lat="46.03998" lon="-1.21256">
        <ele>23.799999237061</ele>
        <time>2026-08-14T16:50:46.000Z</time>
      </trkpt>
      <trkpt lat="46.04006" lon="-1.21254">
        <ele>23.799999237061</ele>
        <time>2026-08-14T16:50:47.000Z</time>
      </trkpt>
      <trkpt lat="46.04045" lon="-1.21245">
        <ele>23.799999237061</ele>
        <time>2026-08-14T16:50:52.000Z</time>
      </trkpt>
      <trkpt lat="46.04093" lon="-1.21236">
        <ele>24</ele>
        <time>2026-08-14T16:50:58.000Z</time>
      </trkpt>
      <trkpt lat="46.04148" lon="-1.21224">
        <ele>24</ele>
        <time>2026-08-14T16:51:05.000Z</time>
      </trkpt>
      <trkpt lat="46.04195" lon="-1.21214">
        <ele>24</ele>
        <time>2026-08-14T16:51:11.000Z</time>
      </trkpt>
      <trkpt lat="46.0425" lon="-1.21201">
        <ele>24</ele>
        <time>2026-08-14T16:51:18.000Z</time>
      </trkpt>
      <trkpt lat="46.04305" lon="-1.21186">
        <ele>24</ele>
        <time>2026-08-14T16:51:25.000Z</time>
      </trkpt>
      <trkpt lat="46.04313" lon="-1.21184">
        <ele>24</ele>
        <time>2026-08-14T16:51:26.000Z</time>
      </trkpt>
      <trkpt lat="46.04367" lon="-1.21167">
        <ele>24</ele>
        <time>2026-08-14T16:51:33.000Z</time>
      </trkpt>
      <trkpt lat="46.04414" lon="-1.21153">
        <ele>23.60000038147</ele>
        <time>2026-08-14T16:51:39.000Z</time>
      </trkpt>
      <trkpt lat="46.04468" lon="-1.21137">
        <ele>23.60000038147</ele>
        <time>2026-08-14T16:51:46.000Z</time>
      </trkpt>
      <trkpt lat="46.04508" lon="-1.21128">
        <ele>23.60000038147</ele>
        <time>2026-08-14T16:51:51.000Z</time>
      </trkpt>
      <trkpt lat="46.04565" lon="-1.21117">
        <ele>23.799999237061</ele>
        <time>2026-08-14T16:51:58.000Z</time>
      </trkpt>
      <trkpt lat="46.04605" lon="-1.21109">
        <ele>23.799999237061</ele>
        <time>2026-08-14T16:52:03.000Z</time>
      </trkpt>
      <trkpt lat="46.04661" lon="-1.211">
        <ele>24</ele>
        <time>2026-08-14T16:52:10.000Z</time>
      </trkpt>
      <trkpt lat="46.04709" lon="-1.21094">
        <ele>24</ele>
        <time>2026-08-14T16:52:16.000Z</time>
      </trkpt>
      <trkpt lat="46.04765" lon="-1.21087">
        <ele>24</ele>
        <time>2026-08-14T16:52:23.000Z</time>
      </trkpt>
      <trkpt lat="46.04789" lon="-1.21082">
        <ele>24</ele>
        <time>2026-08-14T16:52:26.000Z</time>
      </trkpt>
      <trkpt lat="46.04845" lon="-1.21069">
        <ele>24.200000762939</ele>
        <time>2026-08-14T16:52:33.000Z</time>
      </trkpt>
      <trkpt lat="46.04868" lon="-1.21062">
        <ele>24.200000762939</ele>
        <time>2026-08-14T16:52:36.000Z</time>
      </trkpt>
      <trkpt lat="46.04924" lon="-1.21047">
        <ele>24.200000762939</ele>
        <time>2026-08-14T16:52:43.000Z</time>
      </trkpt>
      <trkpt lat="46.04964" lon="-1.21036">
        <ele>24.39999961853</ele>
        <time>2026-08-14T16:52:48.000Z</time>
      </trkpt>
      <trkpt lat="46.0502" lon="-1.21021">
        <ele>24.39999961853</ele>
        <time>2026-08-14T16:52:55.000Z</time>
      </trkpt>
      <trkpt lat="46.05069" lon="-1.21012">
        <ele>24.39999961853</ele>
        <time>2026-08-14T16:53:01.000Z</time>
      </trkpt>
      <trkpt lat="46.05125" lon="-1.21002">
        <ele>24.39999961853</ele>
        <time>2026-08-14T16:53:08.000Z</time>
      </trkpt>
      <trkpt lat="46.05165" lon="-1.20994">
        <ele>24.39999961853</ele>
        <time>2026-08-14T16:53:13.000Z</time>
      </trkpt>
      <trkpt lat="46.05222" lon="-1.20982">
        <ele>24.60000038147</ele>
        <time>2026-08-14T16:53:20.000Z</time>
      </trkpt>
      <trkpt lat="46.05253" lon="-1.20974">
        <ele>24.60000038147</ele>
        <time>2026-08-14T16:53:24.000Z</time>
      </trkpt>
      <trkpt lat="46.0531" lon="-1.20962">
        <ele>24.60000038147</ele>
        <time>2026-08-14T16:53:31.000Z</time>
      </trkpt>
      <trkpt lat="46.05351" lon="-1.20954">
        <ele>24.60000038147</ele>
        <time>2026-08-14T16:53:36.000Z</time>
      </trkpt>
      <trkpt lat="46.05406" lon="-1.20943">
        <ele>24.60000038147</ele>
        <time>2026-08-14T16:53:43.000Z</time>
      </trkpt>
      <trkpt lat="46.05454" lon="-1.20935">
        <ele>24.799999237061</ele>
        <time>2026-08-14T16:53:49.000Z</time>
      </trkpt>
      <trkpt lat="46.05461" lon="-1.20934">
        <ele>24.60000038147</ele>
        <time>2026-08-14T16:53:50.000Z</time>
      </trkpt>
      <trkpt lat="46.05519" lon="-1.20923">
        <ele>24.60000038147</ele>
        <time>2026-08-14T16:53:57.000Z</time>
      </trkpt>
      <trkpt lat="46.05576" lon="-1.20912">
        <ele>24.799999237061</ele>
        <time>2026-08-14T16:54:04.000Z</time>
      </trkpt>
      <trkpt lat="46.05633" lon="-1.20902">
        <ele>24.799999237061</ele>
        <time>2026-08-14T16:54:11.000Z</time>
      </trkpt>
      <trkpt lat="46.0569" lon="-1.20891">
        <ele>24.799999237061</ele>
        <time>2026-08-14T16:54:18.000Z</time>
      </trkpt>
      <trkpt lat="46.05698" lon="-1.2089">
        <ele>24.799999237061</ele>
        <time>2026-08-14T16:54:19.000Z</time>
      </trkpt>
      <trkpt lat="46.05753" lon="-1.20878">
        <ele>24.799999237061</ele>
        <time>2026-08-14T16:54:26.000Z</time>
      </trkpt>
      <trkpt lat="46.0581" lon="-1.20867">
        <ele>24.60000038147</ele>
        <time>2026-08-14T16:54:33.000Z</time>
      </trkpt>
      <trkpt lat="46.05818" lon="-1.20865">
        <ele>24.60000038147</ele>
        <time>2026-08-14T16:54:34.000Z</time>
      </trkpt>
      <trkpt lat="46.05874" lon="-1.20853">
        <ele>24.60000038147</ele>
        <time>2026-08-14T16:54:41.000Z</time>
      </trkpt>
      <trkpt lat="46.0593" lon="-1.20841">
        <ele>24.60000038147</ele>
        <time>2026-08-14T16:54:48.000Z</time>
      </trkpt>
      <trkpt lat="46.05946" lon="-1.20837">
        <ele>24.799999237061</ele>
        <time>2026-08-14T16:54:50.000Z</time>
      </trkpt>
      <trkpt lat="46.06003" lon="-1.20825">
        <ele>24.799999237061</ele>
        <time>2026-08-14T16:54:57.000Z</time>
      </trkpt>
      <trkpt lat="46.06051" lon="-1.20815">
        <ele>24.799999237061</ele>
        <time>2026-08-14T16:55:03.000Z</time>
      </trkpt>
      <trkpt lat="46.06107" lon="-1.20803">
        <ele>24.799999237061</ele>
        <time>2026-08-14T16:55:10.000Z</time>
      </trkpt>
      <trkpt lat="46.06164" lon="-1.20793">
        <ele>24.799999237061</ele>
        <time>2026-08-14T16:55:17.000Z</time>
      </trkpt>
      <trkpt lat="46.06221" lon="-1.20784">
        <ele>25</ele>
        <time>2026-08-14T16:55:24.000Z</time>
      </trkpt>
      <trkpt lat="46.06262" lon="-1.20778">
        <ele>25</ele>
        <time>2026-08-14T16:55:29.000Z</time>
      </trkpt>
      <trkpt lat="46.06319" lon="-1.20767">
        <ele>25.200000762939</ele>
        <time>2026-08-14T16:55:36.000Z</time>
      </trkpt>
      <trkpt lat="46.06376" lon="-1.20758">
        <ele>25</ele>
        <time>2026-08-14T16:55:43.000Z</time>
      </trkpt>
      <trkpt lat="46.06392" lon="-1.20755">
        <ele>24.799999237061</ele>
        <time>2026-08-14T16:55:45.000Z</time>
      </trkpt>
      <trkpt lat="46.06448" lon="-1.20746">
        <ele>25.200000762939</ele>
        <time>2026-08-14T16:55:52.000Z</time>
      </trkpt>
      <trkpt lat="46.06504" lon="-1.20738">
        <ele>25</ele>
        <time>2026-08-14T16:55:59.000Z</time>
      </trkpt>
      <trkpt lat="46.0653" lon="-1.20734">
        <ele>25</ele>
        <time>2026-08-14T16:56:02.000Z</time>
      </trkpt>
      <trkpt lat="46.06586" lon="-1.20725">
        <ele>25</ele>
        <time>2026-08-14T16:56:09.000Z</time>
      </trkpt>
      <trkpt lat="46.06627" lon="-1.20719">
        <ele>25</ele>
        <time>2026-08-14T16:56:14.000Z</time>
      </trkpt>
      <trkpt lat="46.06643" lon="-1.20717">
        <ele>25</ele>
        <time>2026-08-14T16:56:16.000Z</time>
      </trkpt>
      <trkpt lat="46.067" lon="-1.20708">
        <ele>24.799999237061</ele>
        <time>2026-08-14T16:56:23.000Z</time>
      </trkpt>
      <trkpt lat="46.06757" lon="-1.20699">
        <ele>24.799999237061</ele>
        <time>2026-08-14T16:56:30.000Z</time>
      </trkpt>
      <trkpt lat="46.06782" lon="-1.20694">
        <ele>24.799999237061</ele>
        <time>2026-08-14T16:56:33.000Z</time>
      </trkpt>
      <trkpt lat="46.06838" lon="-1.20684">
        <ele>24.799999237061</ele>
        <time>2026-08-14T16:56:40.000Z</time>
      </trkpt>
      <trkpt lat="46.06895" lon="-1.20675">
        <ele>24.799999237061</ele>
        <time>2026-08-14T16:56:47.000Z</time>
      </trkpt>
      <trkpt lat="46.06912" lon="-1.20672">
        <ele>24.799999237061</ele>
        <time>2026-08-14T16:56:49.000Z</time>
      </trkpt>
      <trkpt lat="46.06969" lon="-1.20661">
        <ele>24.799999237061</ele>
        <time>2026-08-14T16:56:56.000Z</time>
      </trkpt>
      <trkpt lat="46.07026" lon="-1.20653">
        <ele>25</ele>
        <time>2026-08-14T16:57:03.000Z</time>
      </trkpt>
      <trkpt lat="46.07083" lon="-1.20645">
        <ele>25</ele>
        <time>2026-08-14T16:57:10.000Z</time>
      </trkpt>
      <trkpt lat="46.0714" lon="-1.20638">
        <ele>25</ele>
        <time>2026-08-14T16:57:17.000Z</time>
      </trkpt>
      <trkpt lat="46.07148" lon="-1.20636">
        <ele>25</ele>
        <time>2026-08-14T16:57:18.000Z</time>
      </trkpt>
      <trkpt lat="46.07205" lon="-1.20628">
        <ele>25</ele>
        <time>2026-08-14T16:57:25.000Z</time>
      </trkpt>
      <trkpt lat="46.07262" lon="-1.20619">
        <ele>25</ele>
        <time>2026-08-14T16:57:32.000Z</time>
      </trkpt>
      <trkpt lat="46.07279" lon="-1.20617">
        <ele>25.200000762939</ele>
        <time>2026-08-14T16:57:34.000Z</time>
      </trkpt>
      <trkpt lat="46.07336" lon="-1.20608">
        <ele>25.200000762939</ele>
        <time>2026-08-14T16:57:41.000Z</time>
      </trkpt>
      <trkpt lat="46.07392" lon="-1.20598">
        <ele>25</ele>
        <time>2026-08-14T16:57:48.000Z</time>
      </trkpt>
      <trkpt lat="46.07408" lon="-1.20595">
        <ele>25</ele>
        <time>2026-08-14T16:57:50.000Z</time>
      </trkpt>
      <trkpt lat="46.07465" lon="-1.20586">
        <ele>25</ele>
        <time>2026-08-14T16:57:57.000Z</time>
      </trkpt>
      <trkpt lat="46.07521" lon="-1.20575">
        <ele>24.799999237061</ele>
        <time>2026-08-14T16:58:04.000Z</time>
      </trkpt>
      <trkpt lat="46.07529" lon="-1.20573">
        <ele>24.799999237061</ele>
        <time>2026-08-14T16:58:05.000Z</time>
      </trkpt>
      <trkpt lat="46.07586" lon="-1.2056">
        <ele>24.60000038147</ele>
        <time>2026-08-14T16:58:12.000Z</time>
      </trkpt>
      <trkpt lat="46.07643" lon="-1.20547">
        <ele>24.799999237061</ele>
        <time>2026-08-14T16:58:19.000Z</time>
      </trkpt>
      <trkpt lat="46.07651" lon="-1.20545">
        <ele>24.799999237061</ele>
        <time>2026-08-14T16:58:20.000Z</time>
      </trkpt>
      <trkpt lat="46.07708" lon="-1.20529">
        <ele>25</ele>
        <time>2026-08-14T16:58:27.000Z</time>
      </trkpt>
      <trkpt lat="46.07764" lon="-1.20512">
        <ele>24.799999237061</ele>
        <time>2026-08-14T16:58:34.000Z</time>
      </trkpt>
      <trkpt lat="46.0782" lon="-1.20495">
        <ele>24.60000038147</ele>
        <time>2026-08-14T16:58:41.000Z</time>
      </trkpt>
      <trkpt lat="46.07869" lon="-1.20482">
        <ele>24.60000038147</ele>
        <time>2026-08-14T16:58:47.000Z</time>
      </trkpt>
      <trkpt lat="46.07885" lon="-1.20479">
        <ele>24.60000038147</ele>
        <time>2026-08-14T16:58:49.000Z</time>
      </trkpt>
      <trkpt lat="46.07942" lon="-1.20468">
        <ele>24.60000038147</ele>
        <time>2026-08-14T16:58:56.000Z</time>
      </trkpt>
      <trkpt lat="46.08" lon="-1.20459">
        <ele>24.799999237061</ele>
        <time>2026-08-14T16:59:03.000Z</time>
      </trkpt>
      <trkpt lat="46.08008" lon="-1.20458">
        <ele>24.799999237061</ele>
        <time>2026-08-14T16:59:04.000Z</time>
      </trkpt>
      <trkpt lat="46.08065" lon="-1.20447">
        <ele>24.799999237061</ele>
        <time>2026-08-14T16:59:11.000Z</time>
      </trkpt>
      <trkpt lat="46.08121" lon="-1.20436">
        <ele>24.799999237061</ele>
        <time>2026-08-14T16:59:18.000Z</time>
      </trkpt>
      <trkpt lat="46.08145" lon="-1.20431">
        <ele>24.799999237061</ele>
        <time>2026-08-14T16:59:21.000Z</time>
      </trkpt>
      <trkpt lat="46.08202" lon="-1.20422">
        <ele>24.799999237061</ele>
        <time>2026-08-14T16:59:28.000Z</time>
      </trkpt>
      <trkpt lat="46.0826" lon="-1.20414">
        <ele>25</ele>
        <time>2026-08-14T16:59:35.000Z</time>
      </trkpt>
      <trkpt lat="46.08293" lon="-1.20411">
        <ele>25</ele>
        <time>2026-08-14T16:59:39.000Z</time>
      </trkpt>
      <trkpt lat="46.0835" lon="-1.20409">
        <ele>25.200000762939</ele>
        <time>2026-08-14T16:59:46.000Z</time>
      </trkpt>
      <trkpt lat="46.08358" lon="-1.20409">
        <ele>25.200000762939</ele>
        <time>2026-08-14T16:59:47.000Z</time>
      </trkpt>
      <trkpt lat="46.08416" lon="-1.20409">
        <ele>25.200000762939</ele>
        <time>2026-08-14T16:59:54.000Z</time>
      </trkpt>
      <trkpt lat="46.08473" lon="-1.20413">
        <ele>25.200000762939</ele>
        <time>2026-08-14T17:00:01.000Z</time>
      </trkpt>
      <trkpt lat="46.08481" lon="-1.20414">
        <ele>25.200000762939</ele>
        <time>2026-08-14T17:00:02.000Z</time>
      </trkpt>
      <trkpt lat="46.08538" lon="-1.20417">
        <ele>25.39999961853</ele>
        <time>2026-08-14T17:00:09.000Z</time>
      </trkpt>
      <trkpt lat="46.08588" lon="-1.20419">
        <ele>25.60000038147</ele>
        <time>2026-08-14T17:00:15.000Z</time>
      </trkpt>
      <trkpt lat="46.08645" lon="-1.20421">
        <ele>25.60000038147</ele>
        <time>2026-08-14T17:00:22.000Z</time>
      </trkpt>
      <trkpt lat="46.08694" lon="-1.20422">
        <ele>25.60000038147</ele>
        <time>2026-08-14T17:00:28.000Z</time>
      </trkpt>
      <trkpt lat="46.08752" lon="-1.20421">
        <ele>25.39999961853</ele>
        <time>2026-08-14T17:00:35.000Z</time>
      </trkpt>
      <trkpt lat="46.08809" lon="-1.20417">
        <ele>25.39999961853</ele>
        <time>2026-08-14T17:00:42.000Z</time>
      </trkpt>
      <trkpt lat="46.08817" lon="-1.20416">
        <ele>25.39999961853</ele>
        <time>2026-08-14T17:00:43.000Z</time>
      </trkpt>
      <trkpt lat="46.08874" lon="-1.2041">
        <ele>25.200000762939</ele>
        <time>2026-08-14T17:00:50.000Z</time>
      </trkpt>
      <trkpt lat="46.08898" lon="-1.20406">
        <ele>25.200000762939</ele>
        <time>2026-08-14T17:00:53.000Z</time>
      </trkpt>
      <trkpt lat="46.08923" lon="-1.20402">
        <ele>25.200000762939</ele>
        <time>2026-08-14T17:00:56.000Z</time>
      </trkpt>
      <trkpt lat="46.0898" lon="-1.2039">
        <ele>25.39999961853</ele>
        <time>2026-08-14T17:01:03.000Z</time>
      </trkpt>
      <trkpt lat="46.09036" lon="-1.20377">
        <ele>25.39999961853</ele>
        <time>2026-08-14T17:01:10.000Z</time>
      </trkpt>
      <trkpt lat="46.09093" lon="-1.20366">
        <ele>25.200000762939</ele>
        <time>2026-08-14T17:01:17.000Z</time>
      </trkpt>
      <trkpt lat="46.0915" lon="-1.20355">
        <ele>25.39999961853</ele>
        <time>2026-08-14T17:01:24.000Z</time>
      </trkpt>
      <trkpt lat="46.09166" lon="-1.20352">
        <ele>25.39999961853</ele>
        <time>2026-08-14T17:01:26.000Z</time>
      </trkpt>
      <trkpt lat="46.09223" lon="-1.20342">
        <ele>25.39999961853</ele>
        <time>2026-08-14T17:01:33.000Z</time>
      </trkpt>
      <trkpt lat="46.0928" lon="-1.20331">
        <ele>25.200000762939</ele>
        <time>2026-08-14T17:01:40.000Z</time>
      </trkpt>
      <trkpt lat="46.09313" lon="-1.20326">
        <ele>25.200000762939</ele>
        <time>2026-08-14T17:01:44.000Z</time>
      </trkpt>
      <trkpt lat="46.0937" lon="-1.20318">
        <ele>25.39999961853</ele>
        <time>2026-08-14T17:01:51.000Z</time>
      </trkpt>
      <trkpt lat="46.09427" lon="-1.20308">
        <ele>25.39999961853</ele>
        <time>2026-08-14T17:01:58.000Z</time>
      </trkpt>
      <trkpt lat="46.09443" lon="-1.20306">
        <ele>25.39999961853</ele>
        <time>2026-08-14T17:02:00.000Z</time>
      </trkpt>
      <trkpt lat="46.09501" lon="-1.20299">
        <ele>25.39999961853</ele>
        <time>2026-08-14T17:02:07.000Z</time>
      </trkpt>
      <trkpt lat="46.09558" lon="-1.20292">
        <ele>25.39999961853</ele>
        <time>2026-08-14T17:02:14.000Z</time>
      </trkpt>
      <trkpt lat="46.09615" lon="-1.20286">
        <ele>25.60000038147</ele>
        <time>2026-08-14T17:02:21.000Z</time>
      </trkpt>
      <trkpt lat="46.09648" lon="-1.20282">
        <ele>25.60000038147</ele>
        <time>2026-08-14T17:02:25.000Z</time>
      </trkpt>
      <trkpt lat="46.09704" lon="-1.20273">
        <ele>25.39999961853</ele>
        <time>2026-08-14T17:02:32.000Z</time>
      </trkpt>
      <trkpt lat="46.09752" lon="-1.20264">
        <ele>25.200000762939</ele>
        <time>2026-08-14T17:02:38.000Z</time>
      </trkpt>
      <trkpt lat="46.09792" lon="-1.20254">
        <ele>25.200000762939</ele>
        <time>2026-08-14T17:02:43.000Z</time>
      </trkpt>
      <trkpt lat="46.09849" lon="-1.20239">
        <ele>25.200000762939</ele>
        <time>2026-08-14T17:02:50.000Z</time>
      </trkpt>
      <trkpt lat="46.09857" lon="-1.20236">
        <ele>25.200000762939</ele>
        <time>2026-08-14T17:02:51.000Z</time>
      </trkpt>
      <trkpt lat="46.09914" lon="-1.2022">
        <ele>25.200000762939</ele>
        <time>2026-08-14T17:02:58.000Z</time>
      </trkpt>
      <trkpt lat="46.09969" lon="-1.20203">
        <ele>25.200000762939</ele>
        <time>2026-08-14T17:03:05.000Z</time>
      </trkpt>
      <trkpt lat="46.10026" lon="-1.20188">
        <ele>25.200000762939</ele>
        <time>2026-08-14T17:03:12.000Z</time>
      </trkpt>
      <trkpt lat="46.10074" lon="-1.20177">
        <ele>25.39999961853</ele>
        <time>2026-08-14T17:03:18.000Z</time>
      </trkpt>
      <trkpt lat="46.10131" lon="-1.20166">
        <ele>25.200000762939</ele>
        <time>2026-08-14T17:03:25.000Z</time>
      </trkpt>
      <trkpt lat="46.1018" lon="-1.20157">
        <ele>25.39999961853</ele>
        <time>2026-08-14T17:03:31.000Z</time>
      </trkpt>
      <trkpt lat="46.10236" lon="-1.20146">
        <ele>25.39999961853</ele>
        <time>2026-08-14T17:03:38.000Z</time>
      </trkpt>
      <trkpt lat="46.10293" lon="-1.20131">
        <ele>25.39999961853</ele>
        <time>2026-08-14T17:03:45.000Z</time>
      </trkpt>
      <trkpt lat="46.1035" lon="-1.20115">
        <ele>25.39999961853</ele>
        <time>2026-08-14T17:03:52.000Z</time>
      </trkpt>
      <trkpt lat="46.10398" lon="-1.20101">
        <ele>25.39999961853</ele>
        <time>2026-08-14T17:03:58.000Z</time>
      </trkpt>
      <trkpt lat="46.10455" lon="-1.20088">
        <ele>25.60000038147</ele>
        <time>2026-08-14T17:04:05.000Z</time>
      </trkpt>
      <trkpt lat="46.10504" lon="-1.20077">
        <ele>25.60000038147</ele>
        <time>2026-08-14T17:04:11.000Z</time>
      </trkpt>
      <trkpt lat="46.10562" lon="-1.20065">
        <ele>25.60000038147</ele>
        <time>2026-08-14T17:04:18.000Z</time>
      </trkpt>
      <trkpt lat="46.10603" lon="-1.20055">
        <ele>25.60000038147</ele>
        <time>2026-08-14T17:04:23.000Z</time>
      </trkpt>
      <trkpt lat="46.1066" lon="-1.20038">
        <ele>25.60000038147</ele>
        <time>2026-08-14T17:04:30.000Z</time>
      </trkpt>
      <trkpt lat="46.10716" lon="-1.20018">
        <ele>25.60000038147</ele>
        <time>2026-08-14T17:04:37.000Z</time>
      </trkpt>
      <trkpt lat="46.10772" lon="-1.2">
        <ele>25.60000038147</ele>
        <time>2026-08-14T17:04:44.000Z</time>
      </trkpt>
      <trkpt lat="46.10821" lon="-1.19987">
        <ele>25.60000038147</ele>
        <time>2026-08-14T17:04:50.000Z</time>
      </trkpt>
      <trkpt lat="46.10879" lon="-1.19975">
        <ele>25.60000038147</ele>
        <time>2026-08-14T17:04:57.000Z</time>
      </trkpt>
      <trkpt lat="46.10904" lon="-1.19971">
        <ele>25.60000038147</ele>
        <time>2026-08-14T17:05:00.000Z</time>
      </trkpt>
      <trkpt lat="46.10936" lon="-1.19965">
        <ele>25.60000038147</ele>
        <time>2026-08-14T17:05:04.000Z</time>
      </trkpt>
      <trkpt lat="46.10993" lon="-1.19954">
        <ele>25.60000038147</ele>
        <time>2026-08-14T17:05:11.000Z</time>
      </trkpt>
      <trkpt lat="46.11026" lon="-1.19947">
        <ele>25.60000038147</ele>
        <time>2026-08-14T17:05:15.000Z</time>
      </trkpt>
      <trkpt lat="46.11083" lon="-1.19935">
        <ele>25.60000038147</ele>
        <time>2026-08-14T17:05:22.000Z</time>
      </trkpt>
      <trkpt lat="46.11124" lon="-1.1993">
        <ele>25.60000038147</ele>
        <time>2026-08-14T17:05:27.000Z</time>
      </trkpt>
      <trkpt lat="46.11181" lon="-1.19922">
        <ele>25.60000038147</ele>
        <time>2026-08-14T17:05:34.000Z</time>
      </trkpt>
      <trkpt lat="46.11238" lon="-1.19914">
        <ele>25.60000038147</ele>
        <time>2026-08-14T17:05:41.000Z</time>
      </trkpt>
      <trkpt lat="46.11296" lon="-1.19903">
        <ele>25.60000038147</ele>
        <time>2026-08-14T17:05:48.000Z</time>
      </trkpt>
      <trkpt lat="46.11336" lon="-1.19898">
        <ele>25.60000038147</ele>
        <time>2026-08-14T17:05:53.000Z</time>
      </trkpt>
      <trkpt lat="46.11393" lon="-1.19892">
        <ele>25.60000038147</ele>
        <time>2026-08-14T17:06:00.000Z</time>
      </trkpt>
      <trkpt lat="46.11451" lon="-1.19888">
        <ele>25.60000038147</ele>
        <time>2026-08-14T17:06:07.000Z</time>
      </trkpt>
      <trkpt lat="46.11509" lon="-1.1989">
        <ele>25.799999237061</ele>
        <time>2026-08-14T17:06:14.000Z</time>
      </trkpt>
      <trkpt lat="46.11534" lon="-1.19891">
        <ele>25.60000038147</ele>
        <time>2026-08-14T17:06:17.000Z</time>
      </trkpt>
      <trkpt lat="46.11592" lon="-1.19892">
        <ele>25.799999237061</ele>
        <time>2026-08-14T17:06:24.000Z</time>
      </trkpt>
      <trkpt lat="46.11641" lon="-1.19892">
        <ele>25.799999237061</ele>
        <time>2026-08-14T17:06:30.000Z</time>
      </trkpt>
      <trkpt lat="46.11699" lon="-1.19891">
        <ele>25.799999237061</ele>
        <time>2026-08-14T17:06:37.000Z</time>
      </trkpt>
      <trkpt lat="46.11756" lon="-1.19889">
        <ele>25.799999237061</ele>
        <time>2026-08-14T17:06:44.000Z</time>
      </trkpt>
      <trkpt lat="46.11814" lon="-1.19888">
        <ele>25.60000038147</ele>
        <time>2026-08-14T17:06:51.000Z</time>
      </trkpt>
      <trkpt lat="46.11872" lon="-1.1989">
        <ele>25.799999237061</ele>
        <time>2026-08-14T17:06:58.000Z</time>
      </trkpt>
      <trkpt lat="46.1193" lon="-1.19893">
        <ele>25.799999237061</ele>
        <time>2026-08-14T17:07:05.000Z</time>
      </trkpt>
      <trkpt lat="46.11971" lon="-1.19894">
        <ele>25.799999237061</ele>
        <time>2026-08-14T17:07:10.000Z</time>
      </trkpt>
      <trkpt lat="46.11996" lon="-1.19895">
        <ele>25.799999237061</ele>
        <time>2026-08-14T17:07:13.000Z</time>
      </trkpt>
      <trkpt lat="46.12054" lon="-1.19902">
        <ele>26</ele>
        <time>2026-08-14T17:07:20.000Z</time>
      </trkpt>
      <trkpt lat="46.12063" lon="-1.19904">
        <ele>26</ele>
        <time>2026-08-14T17:07:21.000Z</time>
      </trkpt>
      <trkpt lat="46.12121" lon="-1.19911">
        <ele>26</ele>
        <time>2026-08-14T17:07:28.000Z</time>
      </trkpt>
      <trkpt lat="46.12178" lon="-1.19914">
        <ele>26</ele>
        <time>2026-08-14T17:07:35.000Z</time>
      </trkpt>
      <trkpt lat="46.12195" lon="-1.19914">
        <ele>26</ele>
        <time>2026-08-14T17:07:37.000Z</time>
      </trkpt>
      <trkpt lat="46.12252" lon="-1.19914">
        <ele>26</ele>
        <time>2026-08-14T17:07:44.000Z</time>
      </trkpt>
      <trkpt lat="46.123" lon="-1.19912">
        <ele>25.799999237061</ele>
        <time>2026-08-14T17:07:50.000Z</time>
      </trkpt>
      <trkpt lat="46.12357" lon="-1.19908">
        <ele>26</ele>
        <time>2026-08-14T17:07:57.000Z</time>
      </trkpt>
      <trkpt lat="46.12415" lon="-1.19903">
        <ele>26</ele>
        <time>2026-08-14T17:08:04.000Z</time>
      </trkpt>
      <trkpt lat="46.12439" lon="-1.199">
        <ele>26</ele>
        <time>2026-08-14T17:08:07.000Z</time>
      </trkpt>
      <trkpt lat="46.12496" lon="-1.19893">
        <ele>26</ele>
        <time>2026-08-14T17:08:14.000Z</time>
      </trkpt>
      <trkpt lat="46.12552" lon="-1.19884">
        <ele>26</ele>
        <time>2026-08-14T17:08:21.000Z</time>
      </trkpt>
      <trkpt lat="46.1256" lon="-1.19883">
        <ele>26</ele>
        <time>2026-08-14T17:08:22.000Z</time>
      </trkpt>
      <trkpt lat="46.12617" lon="-1.19875">
        <ele>25.799999237061</ele>
        <time>2026-08-14T17:08:29.000Z</time>
      </trkpt>
      <trkpt lat="46.12674" lon="-1.19865">
        <ele>25.799999237061</ele>
        <time>2026-08-14T17:08:36.000Z</time>
      </trkpt>
      <trkpt lat="46.1273" lon="-1.19856">
        <ele>25.799999237061</ele>
        <time>2026-08-14T17:08:43.000Z</time>
      </trkpt>
      <trkpt lat="46.12786" lon="-1.19847">
        <ele>26</ele>
        <time>2026-08-14T17:08:50.000Z</time>
      </trkpt>
      <trkpt lat="46.12795" lon="-1.19847">
        <ele>26</ele>
        <time>2026-08-14T17:08:51.000Z</time>
      </trkpt>
      <trkpt lat="46.12852" lon="-1.19838">
        <ele>26</ele>
        <time>2026-08-14T17:08:58.000Z</time>
      </trkpt>
      <trkpt lat="46.12884" lon="-1.1983">
        <ele>26</ele>
        <time>2026-08-14T17:09:02.000Z</time>
      </trkpt>
      <trkpt lat="46.12938" lon="-1.19809">
        <ele>25.799999237061</ele>
        <time>2026-08-14T17:09:09.000Z</time>
      </trkpt>
      <trkpt lat="46.12954" lon="-1.19802">
        <ele>25.799999237061</ele>
        <time>2026-08-14T17:09:11.000Z</time>
      </trkpt>
      <trkpt lat="46.13007" lon="-1.19775">
        <ele>25.799999237061</ele>
        <time>2026-08-14T17:09:18.000Z</time>
      </trkpt>
      <trkpt lat="46.13045" lon="-1.19753">
        <ele>25.799999237061</ele>
        <time>2026-08-14T17:09:23.000Z</time>
      </trkpt>
      <trkpt lat="46.13095" lon="-1.19719">
        <ele>25.60000038147</ele>
        <time>2026-08-14T17:09:30.000Z</time>
      </trkpt>
      <trkpt lat="46.13108" lon="-1.19708">
        <ele>25.60000038147</ele>
        <time>2026-08-14T17:09:32.000Z</time>
      </trkpt>
      <trkpt lat="46.13156" lon="-1.19665">
        <ele>25.799999237061</ele>
        <time>2026-08-14T17:09:39.000Z</time>
      </trkpt>
      <trkpt lat="46.13191" lon="-1.19635">
        <ele>25.799999237061</ele>
        <time>2026-08-14T17:09:44.000Z</time>
      </trkpt>
      <trkpt lat="46.13243" lon="-1.19597">
        <ele>26</ele>
        <time>2026-08-14T17:09:51.000Z</time>
      </trkpt>
      <trkpt lat="46.13273" lon="-1.19575">
        <ele>26</ele>
        <time>2026-08-14T17:09:55.000Z</time>
      </trkpt>
      <trkpt lat="46.13325" lon="-1.19538">
        <ele>26</ele>
        <time>2026-08-14T17:10:02.000Z</time>
      </trkpt>
      <trkpt lat="46.13347" lon="-1.19522">
        <ele>25.799999237061</ele>
        <time>2026-08-14T17:10:05.000Z</time>
      </trkpt>
      <trkpt lat="46.13375" lon="-1.19501">
        <ele>25.799999237061</ele>
        <time>2026-08-14T17:10:09.000Z</time>
      </trkpt>
      <trkpt lat="46.13423" lon="-1.1946">
        <ele>25.799999237061</ele>
        <time>2026-08-14T17:10:16.000Z</time>
      </trkpt>
      <trkpt lat="46.1345" lon="-1.19437">
        <ele>25.60000038147</ele>
        <time>2026-08-14T17:10:20.000Z</time>
      </trkpt>
      <trkpt lat="46.13498" lon="-1.19397">
        <ele>25.60000038147</ele>
        <time>2026-08-14T17:10:27.000Z</time>
      </trkpt>
      <trkpt lat="46.13539" lon="-1.19361">
        <ele>25.60000038147</ele>
        <time>2026-08-14T17:10:33.000Z</time>
      </trkpt>
      <trkpt lat="46.13583" lon="-1.19316">
        <ele>25.39999961853</ele>
        <time>2026-08-14T17:10:40.000Z</time>
      </trkpt>
      <trkpt lat="46.13615" lon="-1.19282">
        <ele>25.39999961853</ele>
        <time>2026-08-14T17:10:45.000Z</time>
      </trkpt>
      <trkpt lat="46.13664" lon="-1.1924">
        <ele>25.60000038147</ele>
        <time>2026-08-14T17:10:52.000Z</time>
      </trkpt>
      <trkpt lat="46.13685" lon="-1.19223">
        <ele>25.60000038147</ele>
        <time>2026-08-14T17:10:55.000Z</time>
      </trkpt>
      <trkpt lat="46.13737" lon="-1.19186">
        <ele>25.60000038147</ele>
        <time>2026-08-14T17:11:02.000Z</time>
      </trkpt>
      <trkpt lat="46.13787" lon="-1.19148">
        <ele>25.60000038147</ele>
        <time>2026-08-14T17:11:09.000Z</time>
      </trkpt>
      <trkpt lat="46.13832" lon="-1.191">
        <ele>25.60000038147</ele>
        <time>2026-08-14T17:11:16.000Z</time>
      </trkpt>
      <trkpt lat="46.13874" lon="-1.19044">
        <ele>25.39999961853</ele>
        <time>2026-08-14T17:11:23.000Z</time>
      </trkpt>
      <trkpt lat="46.13885" lon="-1.19027">
        <ele>25.39999961853</ele>
        <time>2026-08-14T17:11:25.000Z</time>
      </trkpt>
      <trkpt lat="46.13921" lon="-1.18963">
        <ele>25.39999961853</ele>
        <time>2026-08-14T17:11:32.000Z</time>
      </trkpt>
      <trkpt lat="46.13936" lon="-1.18935">
        <ele>25.200000762939</ele>
        <time>2026-08-14T17:11:35.000Z</time>
      </trkpt>
      <trkpt lat="46.13969" lon="-1.18869">
        <ele>25.200000762939</ele>
        <time>2026-08-14T17:11:42.000Z</time>
      </trkpt>
      <trkpt lat="46.14005" lon="-1.18801">
        <ele>25.39999961853</ele>
        <time>2026-08-14T17:11:49.000Z</time>
      </trkpt>
      <trkpt lat="46.14044" lon="-1.18737">
        <ele>25.39999961853</ele>
        <time>2026-08-14T17:11:56.000Z</time>
      </trkpt>
      <trkpt lat="46.14061" lon="-1.18711">
        <ele>25.39999961853</ele>
        <time>2026-08-14T17:11:59.000Z</time>
      </trkpt>
      <trkpt lat="46.14104" lon="-1.18651">
        <ele>25.60000038147</ele>
        <time>2026-08-14T17:12:06.000Z</time>
      </trkpt>
      <trkpt lat="46.14116" lon="-1.18634">
        <ele>25.60000038147</ele>
        <time>2026-08-14T17:12:08.000Z</time>
      </trkpt>
      <trkpt lat="46.14155" lon="-1.18571">
        <ele>25.60000038147</ele>
        <time>2026-08-14T17:12:15.000Z</time>
      </trkpt>
      <trkpt lat="46.14177" lon="-1.18534">
        <ele>25.39999961853</ele>
        <time>2026-08-14T17:12:19.000Z</time>
      </trkpt>
      <trkpt lat="46.14216" lon="-1.18466">
        <ele>25.200000762939</ele>
        <time>2026-08-14T17:12:26.000Z</time>
      </trkpt>
      <trkpt lat="46.14221" lon="-1.18456">
        <ele>25.200000762939</ele>
        <time>2026-08-14T17:12:27.000Z</time>
      </trkpt>
      <trkpt lat="46.14241" lon="-1.18416">
        <ele>25</ele>
        <time>2026-08-14T17:12:31.000Z</time>
      </trkpt>
      <trkpt lat="46.14275" lon="-1.18344">
        <ele>25</ele>
        <time>2026-08-14T17:12:38.000Z</time>
      </trkpt>
      <trkpt lat="46.14292" lon="-1.18306">
        <ele>25</ele>
        <time>2026-08-14T17:12:42.000Z</time>
      </trkpt>
      <trkpt lat="46.14316" lon="-1.18249">
        <ele>24.799999237061</ele>
        <time>2026-08-14T17:12:49.000Z</time>
      </trkpt>
      <trkpt lat="46.14334" lon="-1.18202">
        <ele>24.39999961853</ele>
        <time>2026-08-14T17:12:56.000Z</time>
      </trkpt>
      <trkpt lat="46.14339" lon="-1.18191">
        <ele>24.39999961853</ele>
        <time>2026-08-14T17:12:58.000Z</time>
      </trkpt>
      <trkpt lat="46.14353" lon="-1.18155">
        <ele>24.39999961853</ele>
        <time>2026-08-14T17:13:04.000Z</time>
      </trkpt>
      <trkpt lat="46.14374" lon="-1.18103">
        <ele>24.39999961853</ele>
        <time>2026-08-14T17:13:14.000Z</time>
      </trkpt>
      <trkpt lat="46.14394" lon="-1.18059">
        <ele>24.39999961853</ele>
        <time>2026-08-14T17:13:24.000Z</time>
      </trkpt>
      <trkpt lat="46.14423" lon="-1.18001">
        <ele>24.39999961853</ele>
        <time>2026-08-14T17:13:39.000Z</time>
      </trkpt>
      <trkpt lat="46.14452" lon="-1.17955">
        <ele>24.60000038147</ele>
        <time>2026-08-14T17:13:52.000Z</time>
      </trkpt>
      <trkpt lat="46.14481" lon="-1.17911">
        <ele>24.60000038147</ele>
        <time>2026-08-14T17:14:05.000Z</time>
      </trkpt>
      <trkpt lat="46.14519" lon="-1.17858">
        <ele>24.39999961853</ele>
        <time>2026-08-14T17:14:21.000Z</time>
      </trkpt>
      <trkpt lat="46.14542" lon="-1.17818">
        <ele>24.39999961853</ele>
        <time>2026-08-14T17:14:32.000Z</time>
      </trkpt>
      <trkpt lat="46.14568" lon="-1.17758">
        <ele>24.39999961853</ele>
        <time>2026-08-14T17:14:47.000Z</time>
      </trkpt>
      <trkpt lat="46.14597" lon="-1.1769">
        <ele>24.39999961853</ele>
        <time>2026-08-14T17:15:04.000Z</time>
      </trkpt>
      <trkpt lat="46.14601" lon="-1.17677">
        <ele>24.39999961853</ele>
        <time>2026-08-14T17:15:07.000Z</time>
      </trkpt>
      <trkpt lat="46.14629" lon="-1.17606">
        <ele>24.60000038147</ele>
        <time>2026-08-14T17:15:24.000Z</time>
      </trkpt>
      <trkpt lat="46.1463" lon="-1.17602">
        <ele>24.60000038147</ele>
        <time>2026-08-14T17:15:25.000Z</time>
      </trkpt>
      <trkpt lat="46.14659" lon="-1.17532">
        <ele>24.60000038147</ele>
        <time>2026-08-14T17:15:42.000Z</time>
      </trkpt>
      <trkpt lat="46.14666" lon="-1.17511">
        <ele>24.39999961853</ele>
        <time>2026-08-14T17:15:47.000Z</time>
      </trkpt>
      <trkpt lat="46.14688" lon="-1.17441">
        <ele>24.39999961853</ele>
        <time>2026-08-14T17:16:03.000Z</time>
      </trkpt>
      <trkpt lat="46.14702" lon="-1.17388">
        <ele>24.60000038147</ele>
        <time>2026-08-14T17:16:15.000Z</time>
      </trkpt>
      <trkpt lat="46.14715" lon="-1.17351">
        <ele>24.799999237061</ele>
        <time>2026-08-14T17:16:24.000Z</time>
      </trkpt>
      <trkpt lat="46.14736" lon="-1.17297">
        <ele>24.60000038147</ele>
        <time>2026-08-14T17:16:37.000Z</time>
      </trkpt>
      <trkpt lat="46.14764" lon="-1.17224">
        <ele>24.799999237061</ele>
        <time>2026-08-14T17:16:54.000Z</time>
      </trkpt>
      <trkpt lat="46.14774" lon="-1.17199">
        <ele>25</ele>
        <time>2026-08-14T17:17:00.000Z</time>
      </trkpt>
      <trkpt lat="46.14802" lon="-1.17132">
        <ele>25</ele>
        <time>2026-08-14T17:17:16.000Z</time>
      </trkpt>
      <trkpt lat="46.14809" lon="-1.17115">
        <ele>25.200000762939</ele>
        <time>2026-08-14T17:17:20.000Z</time>
      </trkpt>
      <trkpt lat="46.14838" lon="-1.17045">
        <ele>25.200000762939</ele>
        <time>2026-08-14T17:17:37.000Z</time>
      </trkpt>
      <trkpt lat="46.1484" lon="-1.17041">
        <ele>25.200000762939</ele>
        <time>2026-08-14T17:17:38.000Z</time>
      </trkpt>
      <trkpt lat="46.14848" lon="-1.17021">
        <ele>25.200000762939</ele>
        <time>2026-08-14T17:17:43.000Z</time>
      </trkpt>
      <trkpt lat="46.14874" lon="-1.16955">
        <ele>25.200000762939</ele>
        <time>2026-08-14T17:17:59.000Z</time>
      </trkpt>
      <trkpt lat="46.14903" lon="-1.16885">
        <ele>25.200000762939</ele>
        <time>2026-08-14T17:18:16.000Z</time>
      </trkpt>
      <trkpt lat="46.14905" lon="-1.1688">
        <ele>25.200000762939</ele>
        <time>2026-08-14T17:18:17.000Z</time>
      </trkpt>
      <trkpt lat="46.14932" lon="-1.16813">
        <ele>25.39999961853</ele>
        <time>2026-08-14T17:18:33.000Z</time>
      </trkpt>
      <trkpt lat="46.14943" lon="-1.16783">
        <ele>25.39999961853</ele>
        <time>2026-08-14T17:18:40.000Z</time>
      </trkpt>
      <trkpt lat="46.14969" lon="-1.16713">
        <ele>25.39999961853</ele>
        <time>2026-08-14T17:18:57.000Z</time>
      </trkpt>
      <trkpt lat="46.14974" lon="-1.167">
        <ele>25.39999961853</ele>
        <time>2026-08-14T17:19:00.000Z</time>
      </trkpt>
      <trkpt lat="46.14998" lon="-1.16633">
        <ele>25.39999961853</ele>
        <time>2026-08-14T17:19:16.000Z</time>
      </trkpt>
      <trkpt lat="46.15001" lon="-1.16625">
        <ele>25.60000038147</ele>
        <time>2026-08-14T17:19:18.000Z</time>
      </trkpt>
      <trkpt lat="46.15018" lon="-1.16583">
        <ele>25.60000038147</ele>
        <time>2026-08-14T17:19:28.000Z</time>
      </trkpt>
      <trkpt lat="46.1503" lon="-1.16549">
        <ele>25.60000038147</ele>
        <time>2026-08-14T17:19:36.000Z</time>
      </trkpt>
      <trkpt lat="46.15057" lon="-1.16476">
        <ele>25.39999961853</ele>
        <time>2026-08-14T17:19:53.000Z</time>
      </trkpt>
      <trkpt lat="46.15064" lon="-1.1646">
        <ele>25.39999961853</ele>
        <time>2026-08-14T17:19:57.000Z</time>
      </trkpt>
      <trkpt lat="46.15093" lon="-1.16391">
        <ele>25.799999237061</ele>
        <time>2026-08-14T17:20:14.000Z</time>
      </trkpt>
      <trkpt lat="46.15095" lon="-1.16387">
        <ele>25.799999237061</ele>
        <time>2026-08-14T17:20:15.000Z</time>
      </trkpt>
      <trkpt lat="46.15123" lon="-1.16317">
        <ele>25.799999237061</ele>
        <time>2026-08-14T17:20:32.000Z</time>
      </trkpt>
      <trkpt lat="46.15125" lon="-1.16313">
        <ele>25.799999237061</ele>
        <time>2026-08-14T17:20:33.000Z</time>
      </trkpt>
      <trkpt lat="46.15157" lon="-1.16246">
        <ele>26</ele>
        <time>2026-08-14T17:20:50.000Z</time>
      </trkpt>
      <trkpt lat="46.15162" lon="-1.16238">
        <ele>26</ele>
        <time>2026-08-14T17:20:52.000Z</time>
      </trkpt>
      <trkpt lat="46.15186" lon="-1.16194">
        <ele>26</ele>
        <time>2026-08-14T17:21:04.000Z</time>
      </trkpt>
      <trkpt lat="46.15196" lon="-1.16168">
        <ele>26</ele>
        <time>2026-08-14T17:21:10.000Z</time>
      </trkpt>
      <trkpt lat="46.15214" lon="-1.16123">
        <ele>26</ele>
        <time>2026-08-14T17:21:21.000Z</time>
      </trkpt>
      <trkpt lat="46.15242" lon="-1.16052">
        <ele>25.799999237061</ele>
        <time>2026-08-14T17:21:38.000Z</time>
      </trkpt>
      <trkpt lat="46.15244" lon="-1.16048">
        <ele>25.799999237061</ele>
        <time>2026-08-14T17:21:39.000Z</time>
      </trkpt>
      <trkpt lat="46.15274" lon="-1.15979">
        <ele>26</ele>
        <time>2026-08-14T17:21:56.000Z</time>
      </trkpt>
      <trkpt lat="46.15275" lon="-1.15975">
        <ele>26</ele>
        <time>2026-08-14T17:21:57.000Z</time>
      </trkpt>
      <trkpt lat="46.15304" lon="-1.15904">
        <ele>25.799999237061</ele>
        <time>2026-08-14T17:22:14.000Z</time>
      </trkpt>
      <trkpt lat="46.15328" lon="-1.15837">
        <ele>25.60000038147</ele>
        <time>2026-08-14T17:22:30.000Z</time>
      </trkpt>
      <trkpt lat="46.15357" lon="-1.15766">
        <ele>1</ele>
        <time>2026-08-14T17:22:47.000Z</time>
      </trkpt>
      <trkpt lat="46.15359" lon="-1.15762">
        <ele>1</ele>
        <time>2026-08-14T17:22:48.000Z</time>
      </trkpt>
      <trkpt lat="46.15389" lon="-1.15694">
        <ele>25.39999961853</ele>
        <time>2026-08-14T17:23:05.000Z</time>
      </trkpt>
      <trkpt lat="46.15391" lon="-1.1569">
        <ele>25.39999961853</ele>
        <time>2026-08-14T17:23:06.000Z</time>
      </trkpt>
      <trkpt lat="46.15411" lon="-1.15638">
        <ele>1</ele>
        <time>2026-08-14T17:23:20.000Z</time>
      </trkpt>
      <trkpt lat="46.15426" lon="-1.15603">
        <ele>25.60000038147</ele>
        <time>2026-08-14T17:23:32.000Z</time>
      </trkpt>
      <trkpt lat="46.15427" lon="-1.156">
        <ele>25.60000038147</ele>
        <time>2026-08-14T17:23:33.000Z</time>
      </trkpt>
      <trkpt lat="46.15433" lon="-1.15579">
        <ele>25.60000038147</ele>
        <time>2026-08-14T17:23:43.000Z</time>
      </trkpt>
      <trkpt lat="46.15433" lon="-1.15563">
        <ele>25.60000038147</ele>
        <time>2026-08-14T17:23:53.000Z</time>
      </trkpt>
      <trkpt lat="46.15423" lon="-1.15549">
        <ele>26</ele>
        <time>2026-08-14T17:24:05.000Z</time>
      </trkpt>
      <trkpt lat="46.15419" lon="-1.15545">
        <ele>25.799999237061</ele>
        <time>2026-08-14T17:24:13.000Z</time>
      </trkpt>
      <trkpt lat="46.15375" lon="-1.15564">
        <ele>2.8</ele>
        <time>2026-08-14T17:30:26.000Z</time>
      </trkpt>
      <trkpt lat="46.15368" lon="-1.15589">
        <ele>3.6</ele>
        <time>2026-08-14T17:30:33.000Z</time>
      </trkpt>
      <trkpt lat="46.15365" lon="-1.15592">
        <ele>3.8</ele>
        <time>2026-08-14T17:30:35.000Z</time>
      </trkpt>
      <trkpt lat="46.15363" lon="-1.15591">
        <ele>3.9</ele>
        <time>2026-08-14T17:30:36.000Z</time>
      </trkpt>
      <trkpt lat="46.15362" lon="-1.1559">
        <ele>4</ele>
        <time>2026-08-14T17:30:37.000Z</time>
      </trkpt>
      <trkpt lat="46.15356" lon="-1.15588">
        <ele>4</ele>
        <time>2026-08-14T17:30:40.000Z</time>
      </trkpt>
      <trkpt lat="46.15354" lon="-1.1559">
        <ele>4</ele>
        <time>2026-08-14T17:30:41.000Z</time>
      </trkpt>
      <trkpt lat="46.15353" lon="-1.15592">
        <ele>4</ele>
        <time>2026-08-14T17:30:42.000Z</time>
      </trkpt>
      <trkpt lat="46.15351" lon="-1.15604">
        <ele>4</ele>
        <time>2026-08-14T17:30:46.000Z</time>
      </trkpt>
      <trkpt lat="46.15346" lon="-1.15623">
        <ele>4</ele>
        <time>2026-08-14T17:30:51.000Z</time>
      </trkpt>
      <trkpt lat="46.15341" lon="-1.15643">
        <ele>3.9</ele>
        <time>2026-08-14T17:30:55.000Z</time>
      </trkpt>
      <trkpt lat="46.15329" lon="-1.15661">
        <ele>4</ele>
        <time>2026-08-14T17:31:00.000Z</time>
      </trkpt>
      <trkpt lat="46.15317" lon="-1.1566">
        <ele>4</ele>
        <time>2026-08-14T17:31:04.000Z</time>
      </trkpt>
      <trkpt lat="46.15313" lon="-1.15666">
        <ele>4</ele>
        <time>2026-08-14T17:31:06.000Z</time>
      </trkpt>
      <trkpt lat="46.15309" lon="-1.15676">
        <ele>4</ele>
        <time>2026-08-14T17:31:08.000Z</time>
      </trkpt>
      <trkpt lat="46.15296" lon="-1.15707">
        <ele>4</ele>
        <time>2026-08-14T17:31:15.000Z</time>
      </trkpt>
      <trkpt lat="46.15283" lon="-1.15724">
        <ele>4</ele>
        <time>2026-08-14T17:31:20.000Z</time>
      </trkpt>
      <trkpt lat="46.1528" lon="-1.15725">
        <ele>4</ele>
        <time>2026-08-14T17:31:21.000Z</time>
      </trkpt>
      <trkpt lat="46.15271" lon="-1.15723">
        <ele>4</ele>
        <time>2026-08-14T17:31:24.000Z</time>
      </trkpt>
      <trkpt lat="46.15262" lon="-1.15721">
        <ele>4</ele>
        <time>2026-08-14T17:31:27.000Z</time>
      </trkpt>
      <trkpt lat="46.15261" lon="-1.15721">
        <ele>4</ele>
        <time>2026-08-14T17:31:28.000Z</time>
      </trkpt>
      <trkpt lat="46.1526" lon="-1.15722">
        <ele>4</ele>
        <time>2026-08-14T17:31:31.000Z</time>
      </trkpt>
      <trkpt lat="46.15279" lon="-1.15724">
        <ele>4</ele>
        <time>2026-08-14T17:33:42.000Z</time>
      </trkpt>
      <trkpt lat="46.15284" lon="-1.15713">
        <ele>4</ele>
        <time>2026-08-14T17:33:46.000Z</time>
      </trkpt>
      <trkpt lat="46.15296" lon="-1.15687">
        <ele>4</ele>
        <time>2026-08-14T17:33:53.000Z</time>
      </trkpt>
      <trkpt lat="46.15308" lon="-1.15662">
        <ele>4</ele>
        <time>2026-08-14T17:34:00.000Z</time>
      </trkpt>
      <trkpt lat="46.15309" lon="-1.15659">
        <ele>4</ele>
        <time>2026-08-14T17:34:02.000Z</time>
      </trkpt>
      <trkpt lat="46.15311" lon="-1.15657">
        <ele>4</ele>
        <time>2026-08-14T17:34:04.000Z</time>
      </trkpt>
      <trkpt lat="46.15323" lon="-1.15654">
        <ele>4</ele>
        <time>2026-08-14T17:34:09.000Z</time>
      </trkpt>
      <trkpt lat="46.15332" lon="-1.15636">
        <ele>4</ele>
        <time>2026-08-14T17:34:15.000Z</time>
      </trkpt>
      <trkpt lat="46.1534" lon="-1.15603">
        <ele>4</ele>
        <time>2026-08-14T17:34:22.000Z</time>
      </trkpt>
      <trkpt lat="46.1535" lon="-1.1557">
        <ele>4</ele>
        <time>2026-08-14T17:34:30.000Z</time>
      </trkpt>
      <trkpt lat="46.15357" lon="-1.15521">
        <ele>4.2</ele>
        <time>2026-08-14T17:34:40.000Z</time>
      </trkpt>
      <trkpt lat="46.15362" lon="-1.15486">
        <ele>3.9</ele>
        <time>2026-08-14T17:34:47.000Z</time>
      </trkpt>
      <trkpt lat="46.15367" lon="-1.15449">
        <ele>4.6</ele>
        <time>2026-08-14T17:34:54.000Z</time>
      </trkpt>
      <trkpt lat="46.15374" lon="-1.15404">
        <ele>4.5</ele>
        <time>2026-08-14T17:35:03.000Z</time>
      </trkpt>
      <trkpt lat="46.15377" lon="-1.1539">
        <ele>4.4</ele>
        <time>2026-08-14T17:35:06.000Z</time>
      </trkpt>
      <trkpt lat="46.15378" lon="-1.15375">
        <ele>4.2</ele>
        <time>2026-08-14T17:35:09.000Z</time>
      </trkpt>
      <trkpt lat="46.15384" lon="-1.15334">
        <ele>5</ele>
        <time>2026-08-14T17:35:16.000Z</time>
      </trkpt>
      <trkpt lat="46.15389" lon="-1.15292">
        <ele>5</ele>
        <time>2026-08-14T17:35:23.000Z</time>
      </trkpt>
      <trkpt lat="46.15393" lon="-1.15275">
        <ele>4.8</ele>
        <time>2026-08-14T17:35:26.000Z</time>
      </trkpt>
      <trkpt lat="46.15398" lon="-1.15265">
        <ele>4.5</ele>
        <time>2026-08-14T17:35:28.000Z</time>
      </trkpt>
      <trkpt lat="46.15406" lon="-1.15263">
        <ele>4.5</ele>
        <time>2026-08-14T17:35:30.000Z</time>
      </trkpt>
      <trkpt lat="46.15415" lon="-1.15263">
        <ele>4.5</ele>
        <time>2026-08-14T17:35:32.000Z</time>
      </trkpt>
      <trkpt lat="46.15444" lon="-1.15267">
        <ele>4.4</ele>
        <time>2026-08-14T17:35:40.000Z</time>
      </trkpt>
      <trkpt lat="46.15461" lon="-1.15269">
        <ele>4</ele>
        <time>2026-08-14T17:35:46.000Z</time>
      </trkpt>
      <trkpt lat="46.15477" lon="-1.15267">
        <ele>4</ele>
        <time>2026-08-14T17:35:50.000Z</time>
      </trkpt>
      <trkpt lat="46.15482" lon="-1.15257">
        <ele>4</ele>
        <time>2026-08-14T17:35:52.000Z</time>
      </trkpt>
      <trkpt lat="46.15482" lon="-1.15251">
        <ele>4</ele>
        <time>2026-08-14T17:35:53.000Z</time>
      </trkpt>
      <trkpt lat="46.15486" lon="-1.15196">
        <ele>4</ele>
        <time>2026-08-14T17:36:02.000Z</time>
      </trkpt>
      <trkpt lat="46.15486" lon="-1.15191">
        <ele>4</ele>
        <time>2026-08-14T17:36:03.000Z</time>
      </trkpt>
      <trkpt lat="46.15486" lon="-1.15186">
        <ele>4</ele>
        <time>2026-08-14T17:36:04.000Z</time>
      </trkpt>
      <trkpt lat="46.15488" lon="-1.15182">
        <ele>4</ele>
        <time>2026-08-14T17:36:05.000Z</time>
      </trkpt>
      <trkpt lat="46.15491" lon="-1.1518">
        <ele>4</ele>
        <time>2026-08-14T17:36:06.000Z</time>
      </trkpt>
      <trkpt lat="46.15498" lon="-1.1518">
        <ele>4</ele>
        <time>2026-08-14T17:36:08.000Z</time>
      </trkpt>
      <trkpt lat="46.15508" lon="-1.15179">
        <ele>4</ele>
        <time>2026-08-14T17:36:11.000Z</time>
      </trkpt>
      <trkpt lat="46.1553" lon="-1.15181">
        <ele>4</ele>
        <time>2026-08-14T17:36:17.000Z</time>
      </trkpt>
      <trkpt lat="46.15545" lon="-1.15184">
        <ele>4</ele>
        <time>2026-08-14T17:36:22.000Z</time>
      </trkpt>
      <trkpt lat="46.15552" lon="-1.15185">
        <ele>4</ele>
        <time>2026-08-14T17:36:27.000Z</time>
      </trkpt>
      <trkpt lat="46.1556" lon="-1.15187">
        <ele>4</ele>
        <time>2026-08-14T17:36:32.000Z</time>
      </trkpt>
      <trkpt lat="46.15575" lon="-1.15187">
        <ele>4</ele>
        <time>2026-08-14T17:36:37.000Z</time>
      </trkpt>
      <trkpt lat="46.15594" lon="-1.15186">
        <ele>3.9</ele>
        <time>2026-08-14T17:36:43.000Z</time>
      </trkpt>
      <trkpt lat="46.15616" lon="-1.15182">
        <ele>3.1</ele>
        <time>2026-08-14T17:36:50.000Z</time>
      </trkpt>
      <trkpt lat="46.15624" lon="-1.1518">
        <ele>2.3</ele>
        <time>2026-08-14T17:36:54.000Z</time>
      </trkpt>
      <trkpt lat="46.15626" lon="-1.15182">
        <ele>2.1</ele>
        <time>2026-08-14T17:37:00.000Z</time>
      </trkpt>
      <trkpt lat="46.15655" lon="-1.15179">
        <ele>1.9</ele>
        <time>2026-08-14T17:37:29.000Z</time>
      </trkpt>
      <trkpt lat="46.15661" lon="-1.15176">
        <ele>2.3</ele>
        <time>2026-08-14T17:37:32.000Z</time>
      </trkpt>
      <trkpt lat="46.15675" lon="-1.15171">
        <ele>2.8</ele>
        <time>2026-08-14T17:37:37.000Z</time>
      </trkpt>
      <trkpt lat="46.15685" lon="-1.15164">
        <ele>2.9</ele>
        <time>2026-08-14T17:37:40.000Z</time>
      </trkpt>
      <trkpt lat="46.15691" lon="-1.15158">
        <ele>2.7</ele>
        <time>2026-08-14T17:37:42.000Z</time>
      </trkpt>
      <trkpt lat="46.15714" lon="-1.15139">
        <ele>2</ele>
        <time>2026-08-14T17:37:50.000Z</time>
      </trkpt>
      <trkpt lat="46.15717" lon="-1.15137">
        <ele>2.1</ele>
        <time>2026-08-14T17:37:51.000Z</time>
      </trkpt>
      <trkpt lat="46.15724" lon="-1.1513">
        <ele>2.7</ele>
        <time>2026-08-14T17:37:54.000Z</time>
      </trkpt>
      <trkpt lat="46.15738" lon="-1.1511">
        <ele>3.5</ele>
        <time>2026-08-14T17:38:00.000Z</time>
      </trkpt>
      <trkpt lat="46.15758" lon="-1.1509">
        <ele>3.5</ele>
        <time>2026-08-14T17:38:07.000Z</time>
      </trkpt>
      <trkpt lat="46.15777" lon="-1.15077">
        <ele>3.3</ele>
        <time>2026-08-14T17:38:13.000Z</time>
      </trkpt>
      <trkpt lat="46.1579" lon="-1.15071">
        <ele>3.7</ele>
        <time>2026-08-14T17:38:18.000Z</time>
      </trkpt>
      <trkpt lat="46.15802" lon="-1.15072">
        <ele>3.9</ele>
        <time>2026-08-14T17:38:23.000Z</time>
      </trkpt>
      <trkpt lat="46.15821" lon="-1.15075">
        <ele>3.7</ele>
        <time>2026-08-14T17:38:30.000Z</time>
      </trkpt>
      <trkpt lat="46.15832" lon="-1.15066">
        <ele>2.8</ele>
        <time>2026-08-14T17:38:34.000Z</time>
      </trkpt>
      <trkpt lat="46.15849" lon="-1.15036">
        <ele>2.9</ele>
        <time>2026-08-14T17:38:42.000Z</time>
      </trkpt>
      <trkpt lat="46.15868" lon="-1.15005">
        <ele>2.2</ele>
        <time>2026-08-14T17:38:50.000Z</time>
      </trkpt>
      <trkpt lat="46.15877" lon="-1.14987">
        <ele>2.7</ele>
        <time>2026-08-14T17:38:55.000Z</time>
      </trkpt>
      <trkpt lat="46.15882" lon="-1.14987">
        <ele>3.2</ele>
        <time>2026-08-14T17:38:57.000Z</time>
      </trkpt>
      <trkpt lat="46.15888" lon="-1.14989">
        <ele>3.9</ele>
        <time>2026-08-14T17:38:59.000Z</time>
      </trkpt>
      <trkpt lat="46.15904" lon="-1.14996">
        <ele>4.1</ele>
        <time>2026-08-14T17:39:04.000Z</time>
      </trkpt>
      <trkpt lat="46.15928" lon="-1.15008">
        <ele>4.2</ele>
        <time>2026-08-14T17:39:11.000Z</time>
      </trkpt>
      <trkpt lat="46.15944" lon="-1.15021">
        <ele>4</ele>
        <time>2026-08-14T17:39:16.000Z</time>
      </trkpt>
      <trkpt lat="46.15956" lon="-1.15045">
        <ele>4.8</ele>
        <time>2026-08-14T17:39:22.000Z</time>
      </trkpt>
      <trkpt lat="46.15964" lon="-1.15069">
        <ele>5.1</ele>
        <time>2026-08-14T17:39:28.000Z</time>
      </trkpt>
      <trkpt lat="46.15969" lon="-1.15079">
        <ele>5.1</ele>
        <time>2026-08-14T17:39:31.000Z</time>
      </trkpt>
      <trkpt lat="46.15973" lon="-1.15092">
        <ele>5.3</ele>
        <time>2026-08-14T17:39:34.000Z</time>
      </trkpt>
      <trkpt lat="46.15979" lon="-1.1511">
        <ele>6.2</ele>
        <time>2026-08-14T17:39:39.000Z</time>
      </trkpt>
      <trkpt lat="46.15983" lon="-1.15129">
        <ele>6.8</ele>
        <time>2026-08-14T17:39:44.000Z</time>
      </trkpt>
      <trkpt lat="46.15984" lon="-1.15132">
        <ele>6.9</ele>
        <time>2026-08-14T17:39:45.000Z</time>
      </trkpt>
      <trkpt lat="46.1599" lon="-1.15143">
        <ele>7</ele>
        <time>2026-08-14T17:39:50.000Z</time>
      </trkpt>
      <trkpt lat="46.1599" lon="-1.15145">
        <ele>7</ele>
        <time>2026-08-14T17:39:51.000Z</time>
      </trkpt>
      <trkpt lat="46.15994" lon="-1.15154">
        <ele>7</ele>
        <time>2026-08-14T17:39:54.000Z</time>
      </trkpt>
      <trkpt lat="46.16003" lon="-1.1518">
        <ele>7.1</ele>
        <time>2026-08-14T17:40:01.000Z</time>
      </trkpt>
      <trkpt lat="46.16004" lon="-1.15184">
        <ele>7.1</ele>
        <time>2026-08-14T17:40:02.000Z</time>
      </trkpt>
      <trkpt lat="46.16008" lon="-1.15202">
        <ele>7.3</ele>
        <time>2026-08-14T17:40:06.000Z</time>
      </trkpt>
      <trkpt lat="46.16012" lon="-1.15243">
        <ele>7.1</ele>
        <time>2026-08-14T17:40:14.000Z</time>
      </trkpt>
      <trkpt lat="46.16017" lon="-1.15265">
        <ele>7.3</ele>
        <time>2026-08-14T17:40:19.000Z</time>
      </trkpt>
      <trkpt lat="46.16024" lon="-1.153">
        <ele>7.9</ele>
        <time>2026-08-14T17:40:25.000Z</time>
      </trkpt>
      <trkpt lat="46.16026" lon="-1.15325">
        <ele>7.3</ele>
        <time>2026-08-14T17:40:31.000Z</time>
      </trkpt>
      <trkpt lat="46.16024" lon="-1.15336">
        <ele>7</ele>
        <time>2026-08-14T17:40:37.000Z</time>
      </trkpt>
      <trkpt lat="46.16025" lon="-1.15337">
        <ele>7</ele>
        <time>2026-08-14T17:40:38.000Z</time>
      </trkpt>
      <trkpt lat="46.16031" lon="-1.15338">
        <ele>7</ele>
        <time>2026-08-14T17:40:41.000Z</time>
      </trkpt>
      <trkpt lat="46.16049" lon="-1.15334">
        <ele>7</ele>
        <time>2026-08-14T17:40:46.000Z</time>
      </trkpt>
      <trkpt lat="46.16063" lon="-1.1533">
        <ele>7</ele>
        <time>2026-08-14T17:40:50.000Z</time>
      </trkpt>
      <trkpt lat="46.16085" lon="-1.15323">
        <ele>7.4</ele>
        <time>2026-08-14T17:40:56.000Z</time>
      </trkpt>
      <trkpt lat="46.16093" lon="-1.15319">
        <ele>7.7</ele>
        <time>2026-08-14T17:40:58.000Z</time>
      </trkpt>
      <trkpt lat="46.16111" lon="-1.15313">
        <ele>8</ele>
        <time>2026-08-14T17:41:03.000Z</time>
      </trkpt>
      <trkpt lat="46.16118" lon="-1.15307">
        <ele>8</ele>
        <time>2026-08-14T17:41:05.000Z</time>
      </trkpt>
      <trkpt lat="46.16139" lon="-1.153">
        <ele>8</ele>
        <time>2026-08-14T17:41:11.000Z</time>
      </trkpt>
      <trkpt lat="46.16164" lon="-1.15291">
        <ele>8.4</ele>
        <time>2026-08-14T17:41:19.000Z</time>
      </trkpt>
      <trkpt lat="46.1617" lon="-1.15288">
        <ele>8.3</ele>
        <time>2026-08-14T17:41:21.000Z</time>
      </trkpt>
      <trkpt lat="46.16185" lon="-1.15281">
        <ele>8</ele>
        <time>2026-08-14T17:41:26.000Z</time>
      </trkpt>
      <trkpt lat="46.16202" lon="-1.1527">
        <ele>8.5</ele>
        <time>2026-08-14T17:41:31.000Z</time>
      </trkpt>
      <trkpt lat="46.16231" lon="-1.1526">
        <ele>9</ele>
        <time>2026-08-14T17:41:39.000Z</time>
      </trkpt>
      <trkpt lat="46.1625" lon="-1.15254">
        <ele>9</ele>
        <time>2026-08-14T17:41:44.000Z</time>
      </trkpt>
      <trkpt lat="46.16258" lon="-1.1525">
        <ele>9</ele>
        <time>2026-08-14T17:41:46.000Z</time>
      </trkpt>
      <trkpt lat="46.16269" lon="-1.15248">
        <ele>9</ele>
        <time>2026-08-14T17:41:49.000Z</time>
      </trkpt>
      <trkpt lat="46.16284" lon="-1.15243">
        <ele>8.8</ele>
        <time>2026-08-14T17:41:54.000Z</time>
      </trkpt>
      <trkpt lat="46.16302" lon="-1.1523">
        <ele>8.8</ele>
        <time>2026-08-14T17:42:01.000Z</time>
      </trkpt>
      <trkpt lat="46.16318" lon="-1.15224">
        <ele>9</ele>
        <time>2026-08-14T17:42:06.000Z</time>
      </trkpt>
      <trkpt lat="46.16337" lon="-1.15216">
        <ele>9</ele>
        <time>2026-08-14T17:42:11.000Z</time>
      </trkpt>
      <trkpt lat="46.16359" lon="-1.15204">
        <ele>9</ele>
        <time>2026-08-14T17:42:17.000Z</time>
      </trkpt>
      <trkpt lat="46.16361" lon="-1.15206">
        <ele>9</ele>
        <time>2026-08-14T17:42:18.000Z</time>
      </trkpt>
      <trkpt lat="46.16364" lon="-1.15209">
        <ele>9</ele>
        <time>2026-08-14T17:42:19.000Z</time>
      </trkpt>
      <trkpt lat="46.16367" lon="-1.15218">
        <ele>9.2</ele>
        <time>2026-08-14T17:42:21.000Z</time>
      </trkpt>
      <trkpt lat="46.16374" lon="-1.15247">
        <ele>9.1</ele>
        <time>2026-08-14T17:42:27.000Z</time>
      </trkpt>
      <trkpt lat="46.16381" lon="-1.15278">
        <ele>9</ele>
        <time>2026-08-14T17:42:33.000Z</time>
      </trkpt>
      <trkpt lat="46.16389" lon="-1.15316">
        <ele>7.7</ele>
        <time>2026-08-14T17:42:39.000Z</time>
      </trkpt>
      <trkpt lat="46.16395" lon="-1.15353">
        <ele>7.1</ele>
        <time>2026-08-14T17:42:45.000Z</time>
      </trkpt>
      <trkpt lat="46.16396" lon="-1.1536">
        <ele>7</ele>
        <time>2026-08-14T17:42:46.000Z</time>
      </trkpt>
      <trkpt lat="46.16403" lon="-1.15397">
        <ele>7</ele>
        <time>2026-08-14T17:42:51.000Z</time>
      </trkpt>
      <trkpt lat="46.1641" lon="-1.15429">
        <ele>6.7</ele>
        <time>2026-08-14T17:42:55.000Z</time>
      </trkpt>
      <trkpt lat="46.16414" lon="-1.1544">
        <ele>6.2</ele>
        <time>2026-08-14T17:42:57.000Z</time>
      </trkpt>
      <trkpt lat="46.16415" lon="-1.15451">
        <ele>6.3</ele>
        <time>2026-08-14T17:42:59.000Z</time>
      </trkpt>
      <trkpt lat="46.16416" lon="-1.15453">
        <ele>6.3</ele>
        <time>2026-08-14T17:43:00.000Z</time>
      </trkpt>
      <trkpt lat="46.16419" lon="-1.15454">
        <ele>6.4</ele>
        <time>2026-08-14T17:43:03.000Z</time>
      </trkpt>
      <trkpt lat="46.16421" lon="-1.15456">
        <ele>6.5</ele>
        <time>2026-08-14T17:43:04.000Z</time>
      </trkpt>
      <trkpt lat="46.16426" lon="-1.15465">
        <ele>6.8</ele>
        <time>2026-08-14T17:43:07.000Z</time>
      </trkpt>
      <trkpt lat="46.16428" lon="-1.15466">
        <ele>6.9</ele>
        <time>2026-08-14T17:43:08.000Z</time>
      </trkpt>
      <trkpt lat="46.16445" lon="-1.15461">
        <ele>7</ele>
        <time>2026-08-14T17:43:14.000Z</time>
      </trkpt>
      <trkpt lat="46.16451" lon="-1.1546">
        <ele>7</ele>
        <time>2026-08-14T17:43:17.000Z</time>
      </trkpt>
      <trkpt lat="46.16454" lon="-1.15461">
        <ele>7</ele>
        <time>2026-08-14T17:43:19.000Z</time>
      </trkpt>
      <trkpt lat="46.16455" lon="-1.15463">
        <ele>7</ele>
        <time>2026-08-14T17:43:20.000Z</time>
      </trkpt>
      <trkpt lat="46.1646" lon="-1.15476">
        <ele>7</ele>
        <time>2026-08-14T17:43:23.000Z</time>
      </trkpt>
      <trkpt lat="46.16467" lon="-1.15502">
        <ele>7</ele>
        <time>2026-08-14T17:43:29.000Z</time>
      </trkpt>
      <trkpt lat="46.16474" lon="-1.15524">
        <ele>7</ele>
        <time>2026-08-14T17:43:34.000Z</time>
      </trkpt>
      <trkpt lat="46.16479" lon="-1.15545">
        <ele>7</ele>
        <time>2026-08-14T17:43:39.000Z</time>
      </trkpt>
      <trkpt lat="46.16479" lon="-1.15552">
        <ele>7</ele>
        <time>2026-08-14T17:43:41.000Z</time>
      </trkpt>
      <trkpt lat="46.16495" lon="-1.15608">
        <ele>3</ele>
        <time>2026-08-14T17:44:00.000Z</time>
      </trkpt>
      <trkpt lat="46.16501" lon="-1.15608">
        <ele>3.3</ele>
        <time>2026-08-14T17:44:01.000Z</time>
      </trkpt>
      <trkpt lat="46.1651" lon="-1.15623">
        <ele>3</ele>
        <time>2026-08-14T17:44:05.000Z</time>
      </trkpt>
      <trkpt lat="46.16511" lon="-1.15628">
        <ele>3</ele>
        <time>2026-08-14T17:44:08.000Z</time>
      </trkpt>
      <trkpt lat="46.16511" lon="-1.15628">
        <ele>3</ele>
        <time>2026-08-14T17:44:09.000Z</time>
      </trkpt>
      <trkpt lat="46.1651" lon="-1.15634">
        <ele>3</ele>
        <time>2026-08-14T17:44:32.000Z</time>
      </trkpt>
      <trkpt lat="46.16513" lon="-1.15643">
        <ele>3.2</ele>
        <time>2026-08-14T17:44:35.000Z</time>
      </trkpt>
      <trkpt lat="46.16519" lon="-1.15661">
        <ele>3.8</ele>
        <time>2026-08-14T17:44:41.000Z</time>
      </trkpt>
      <trkpt lat="46.16524" lon="-1.15681">
        <ele>3.5</ele>
        <time>2026-08-14T17:44:48.000Z</time>
      </trkpt>
      <trkpt lat="46.16525" lon="-1.15686">
        <ele>3.3</ele>
        <time>2026-08-14T17:44:49.000Z</time>
      </trkpt>
      <trkpt lat="46.16531" lon="-1.15707">
        <ele>2.5</ele>
        <time>2026-08-14T17:44:53.000Z</time>
      </trkpt>
      <trkpt lat="46.16536" lon="-1.15725">
        <ele>2</ele>
        <time>2026-08-14T17:44:56.000Z</time>
      </trkpt>
      <trkpt lat="46.1654" lon="-1.15737">
        <ele>2.2</ele>
        <time>2026-08-14T17:44:58.000Z</time>
      </trkpt>
      <trkpt lat="46.16543" lon="-1.15749">
        <ele>2.5</ele>
        <time>2026-08-14T17:45:00.000Z</time>
      </trkpt>
      <trkpt lat="46.16546" lon="-1.15763">
        <ele>2.8</ele>
        <time>2026-08-14T17:45:03.000Z</time>
      </trkpt>
      <trkpt lat="46.16547" lon="-1.15766">
        <ele>2.9</ele>
        <time>2026-08-14T17:45:04.000Z</time>
      </trkpt>
      <trkpt lat="46.16548" lon="-1.1577">
        <ele>2.9</ele>
        <time>2026-08-14T17:45:06.000Z</time>
      </trkpt>
      <trkpt lat="46.16548" lon="-1.15775">
        <ele>3</ele>
        <time>2026-08-14T17:45:08.000Z</time>
      </trkpt>
      <trkpt lat="46.1655" lon="-1.15779">
        <ele>3</ele>
        <time>2026-08-14T17:45:10.000Z</time>
      </trkpt>
      <trkpt lat="46.16552" lon="-1.1578">
        <ele>3.1</ele>
        <time>2026-08-14T17:45:11.000Z</time>
      </trkpt>
      <trkpt lat="46.16556" lon="-1.15789">
        <ele>3.4</ele>
        <time>2026-08-14T17:45:14.000Z</time>
      </trkpt>
      <trkpt lat="46.16557" lon="-1.15794">
        <ele>3.6</ele>
        <time>2026-08-14T17:45:15.000Z</time>
      </trkpt>
      <trkpt lat="46.1656" lon="-1.15829">
        <ele>4</ele>
        <time>2026-08-14T17:45:21.000Z</time>
      </trkpt>
      <trkpt lat="46.16565" lon="-1.15862">
        <ele>3.3</ele>
        <time>2026-08-14T17:45:27.000Z</time>
      </trkpt>
      <trkpt lat="46.16567" lon="-1.15903">
        <ele>4</ele>
        <time>2026-08-14T17:45:34.000Z</time>
      </trkpt>
      <trkpt lat="46.1657" lon="-1.15933">
        <ele>4</ele>
        <time>2026-08-14T17:45:40.000Z</time>
      </trkpt>
      <trkpt lat="46.16573" lon="-1.15947">
        <ele>4.1</ele>
        <time>2026-08-14T17:45:43.000Z</time>
      </trkpt>
      <trkpt lat="46.16576" lon="-1.15949">
        <ele>4.2</ele>
        <time>2026-08-14T17:45:44.000Z</time>
      </trkpt>
      <trkpt lat="46.16598" lon="-1.1596">
        <ele>4.8</ele>
        <time>2026-08-14T17:45:51.000Z</time>
      </trkpt>
      <trkpt lat="46.16603" lon="-1.15964">
        <ele>4.9</ele>
        <time>2026-08-14T17:45:53.000Z</time>
      </trkpt>
      <trkpt lat="46.16605" lon="-1.15973">
        <ele>5</ele>
        <time>2026-08-14T17:45:55.000Z</time>
      </trkpt>
      <trkpt lat="46.16611" lon="-1.16008">
        <ele>5</ele>
        <time>2026-08-14T17:46:01.000Z</time>
      </trkpt>
      <trkpt lat="46.1662" lon="-1.1606">
        <ele>5.1</ele>
        <time>2026-08-14T17:46:10.000Z</time>
      </trkpt>
      <trkpt lat="46.16622" lon="-1.16065">
        <ele>5.3</ele>
        <time>2026-08-14T17:46:11.000Z</time>
      </trkpt>
      <trkpt lat="46.16623" lon="-1.16074">
        <ele>5.7</ele>
        <time>2026-08-14T17:46:13.000Z</time>
      </trkpt>
      <trkpt lat="46.16627" lon="-1.16093">
        <ele>6.3</ele>
        <time>2026-08-14T17:46:17.000Z</time>
      </trkpt>
      <trkpt lat="46.16632" lon="-1.16114">
        <ele>7.1</ele>
        <time>2026-08-14T17:46:22.000Z</time>
      </trkpt>
      <trkpt lat="46.16632" lon="-1.16118">
        <ele>7.3</ele>
        <time>2026-08-14T17:46:23.000Z</time>
      </trkpt>
      <trkpt lat="46.16637" lon="-1.16145">
        <ele>8.2</ele>
        <time>2026-08-14T17:46:30.000Z</time>
      </trkpt>
      <trkpt lat="46.16637" lon="-1.16149">
        <ele>8.4</ele>
        <time>2026-08-14T17:46:31.000Z</time>
      </trkpt>
      <trkpt lat="46.16644" lon="-1.16179">
        <ele>9.1</ele>
        <time>2026-08-14T17:46:39.000Z</time>
      </trkpt>
      <trkpt lat="46.16649" lon="-1.162">
        <ele>9.5</ele>
        <time>2026-08-14T17:46:45.000Z</time>
      </trkpt>
      <trkpt lat="46.16651" lon="-1.16204">
        <ele>9.8</ele>
        <time>2026-08-14T17:46:47.000Z</time>
      </trkpt>
      <trkpt lat="46.16652" lon="-1.16211">
        <ele>10</ele>
        <time>2026-08-14T17:46:49.000Z</time>
      </trkpt>
      <trkpt lat="46.16654" lon="-1.16232">
        <ele>10.7</ele>
        <time>2026-08-14T17:46:55.000Z</time>
      </trkpt>
      <trkpt lat="46.16658" lon="-1.16253">
        <ele>11.1</ele>
        <time>2026-08-14T17:47:00.000Z</time>
      </trkpt>
      <trkpt lat="46.16661" lon="-1.16268">
        <ele>11.7</ele>
        <time>2026-08-14T17:47:04.000Z</time>
      </trkpt>
      <trkpt lat="46.16666" lon="-1.16291">
        <ele>12.5</ele>
        <time>2026-08-14T17:47:10.000Z</time>
      </trkpt>
      <trkpt lat="46.16669" lon="-1.16302">
        <ele>12.9</ele>
        <time>2026-08-14T17:47:13.000Z</time>
      </trkpt>
      <trkpt lat="46.16674" lon="-1.16334">
        <ele>13.3</ele>
        <time>2026-08-14T17:47:21.000Z</time>
      </trkpt>
      <trkpt lat="46.1668" lon="-1.16366">
        <ele>14</ele>
        <time>2026-08-14T17:47:29.000Z</time>
      </trkpt>
      <trkpt lat="46.16684" lon="-1.16387">
        <ele>14</ele>
        <time>2026-08-14T17:47:35.000Z</time>
      </trkpt>
      <trkpt lat="46.16684" lon="-1.16387">
        <ele>14</ele>
        <time>2026-08-14T17:47:37.000Z</time>
      </trkpt>
      <trkpt lat="46.16684" lon="-1.16387">
        <ele>14</ele>
        <time>2026-08-14T17:47:39.000Z</time>
      </trkpt>
      <trkpt lat="46.16685" lon="-1.16397">
        <ele>14.2</ele>
        <time>2026-08-14T17:47:44.000Z</time>
      </trkpt>
      <trkpt lat="46.16685" lon="-1.16401">
        <ele>14.3</ele>
        <time>2026-08-14T17:47:45.000Z</time>
      </trkpt>
      <trkpt lat="46.1669" lon="-1.16425">
        <ele>14.8</ele>
        <time>2026-08-14T17:47:51.000Z</time>
      </trkpt>
      <trkpt lat="46.16698" lon="-1.16463">
        <ele>15.2</ele>
        <time>2026-08-14T17:47:59.000Z</time>
      </trkpt>
      <trkpt lat="46.16703" lon="-1.165">
        <ele>15.6</ele>
        <time>2026-08-14T17:48:06.000Z</time>
      </trkpt>
      <trkpt lat="46.16705" lon="-1.16505">
        <ele>15.7</ele>
        <time>2026-08-14T17:48:07.000Z</time>
      </trkpt>
      <trkpt lat="46.16717" lon="-1.16562">
        <ele>15.8</ele>
        <time>2026-08-14T17:48:18.000Z</time>
      </trkpt>
      <trkpt lat="46.16719" lon="-1.16572">
        <ele>15.9</ele>
        <time>2026-08-14T17:48:20.000Z</time>
      </trkpt>
      <trkpt lat="46.16731" lon="-1.16612">
        <ele>16.3</ele>
        <time>2026-08-14T17:48:28.000Z</time>
      </trkpt>
      <trkpt lat="46.16739" lon="-1.16629">
        <ele>16.9</ele>
        <time>2026-08-14T17:48:32.000Z</time>
      </trkpt>
      <trkpt lat="46.16749" lon="-1.16646">
        <ele>17</ele>
        <time>2026-08-14T17:48:36.000Z</time>
      </trkpt>
      <trkpt lat="46.16754" lon="-1.16654">
        <ele>17.1</ele>
        <time>2026-08-14T17:48:38.000Z</time>
      </trkpt>
      <trkpt lat="46.16768" lon="-1.16682">
        <ele>17.6</ele>
        <time>2026-08-14T17:48:44.000Z</time>
      </trkpt>
      <trkpt lat="46.16777" lon="-1.1671">
        <ele>17.4</ele>
        <time>2026-08-14T17:48:50.000Z</time>
      </trkpt>
      <trkpt lat="46.16788" lon="-1.16745">
        <ele>17.9</ele>
        <time>2026-08-14T17:48:57.000Z</time>
      </trkpt>
      <trkpt lat="46.168" lon="-1.16786">
        <ele>18.6</ele>
        <time>2026-08-14T17:49:05.000Z</time>
      </trkpt>
      <trkpt lat="46.16803" lon="-1.16795">
        <ele>18.4</ele>
        <time>2026-08-14T17:49:07.000Z</time>
      </trkpt>
      <trkpt lat="46.16811" lon="-1.16817">
        <ele>18.2</ele>
        <time>2026-08-14T17:49:12.000Z</time>
      </trkpt>
      <trkpt lat="46.16824" lon="-1.16863">
        <ele>19</ele>
        <time>2026-08-14T17:49:21.000Z</time>
      </trkpt>
      <trkpt lat="46.16837" lon="-1.16906">
        <ele>19</ele>
        <time>2026-08-14T17:49:30.000Z</time>
      </trkpt>
      <trkpt lat="46.16849" lon="-1.16937">
        <ele>19</ele>
        <time>2026-08-14T17:49:37.000Z</time>
      </trkpt>
      <trkpt lat="46.16857" lon="-1.16948">
        <ele>19</ele>
        <time>2026-08-14T17:49:40.000Z</time>
      </trkpt>
      <trkpt lat="46.16863" lon="-1.16954">
        <ele>19</ele>
        <time>2026-08-14T17:49:42.000Z</time>
      </trkpt>
      <trkpt lat="46.16886" lon="-1.1696">
        <ele>19</ele>
        <time>2026-08-14T17:49:48.000Z</time>
      </trkpt>
      <trkpt lat="46.16912" lon="-1.16972">
        <ele>19</ele>
        <time>2026-08-14T17:49:55.000Z</time>
      </trkpt>
      <trkpt lat="46.16937" lon="-1.1698">
        <ele>19.1</ele>
        <time>2026-08-14T17:50:02.000Z</time>
      </trkpt>
      <trkpt lat="46.16957" lon="-1.16988">
        <ele>19</ele>
        <time>2026-08-14T17:50:08.000Z</time>
      </trkpt>
      <trkpt lat="46.16985" lon="-1.17003">
        <ele>19</ele>
        <time>2026-08-14T17:50:15.000Z</time>
      </trkpt>
      <trkpt lat="46.17013" lon="-1.17022">
        <ele>18.5</ele>
        <time>2026-08-14T17:50:22.000Z</time>
      </trkpt>
      <trkpt lat="46.17039" lon="-1.1704">
        <ele>18.2</ele>
        <time>2026-08-14T17:50:29.000Z</time>
      </trkpt>
      <trkpt lat="46.17043" lon="-1.17042">
        <ele>18.3</ele>
        <time>2026-08-14T17:50:30.000Z</time>
      </trkpt>
      <trkpt lat="46.17048" lon="-1.17049">
        <ele>18.2</ele>
        <time>2026-08-14T17:50:32.000Z</time>
      </trkpt>
      <trkpt lat="46.17049" lon="-1.17054">
        <ele>18.1</ele>
        <time>2026-08-14T17:50:33.000Z</time>
      </trkpt>
      <trkpt lat="46.17049" lon="-1.17058">
        <ele>18</ele>
        <time>2026-08-14T17:50:34.000Z</time>
      </trkpt>
      <trkpt lat="46.17045" lon="-1.17071">
        <ele>18</ele>
        <time>2026-08-14T17:50:37.000Z</time>
      </trkpt>
      <trkpt lat="46.17037" lon="-1.17096">
        <ele>18</ele>
        <time>2026-08-14T17:50:44.000Z</time>
      </trkpt>
      <trkpt lat="46.17038" lon="-1.17096">
        <ele>18</ele>
        <time>2026-08-14T17:50:48.000Z</time>
      </trkpt>
    </trkseg>
  </trk>
</gpx>